/* DATA DESCRIPTION:
Citation:	Vuilleumier, Laurent (2026): Other measurements at 10 m from station Payerne (2025-10) [dataset]. Federal Office of Meteorology and Climatology MeteoSwiss, Payerne, PANGAEA, https://doi.org/10.1594/PANGAEA.992984
Other version:	Vuilleumier, Laurent (2026): BSRN Station-to-archive file for station Payerne (2025-10) [dataset]. ftp://ftp.bsrn.awi.de/pay/pay1025.dat.gz
Project(s):	Baseline Surface Radiation Network (BSRN) (URI: https://bsrn.awi.de/)
Coverage:	LATITUDE: 46.812300 * LONGITUDE: 6.942200
	DATE/TIME START: 2025-10-01T00:00:00 * DATE/TIME END: 2025-10-31T23:59:00
	MINIMUM HEIGHT above ground: 10 m * MAXIMUM HEIGHT above ground: 10 m
Event(s):	PAY (Payerne) * LATITUDE: 46.812300 * LONGITUDE: 6.942200 * DATE/TIME: 1992-09-01T00:00:00 * ELEVATION: 491.0 m * LOCATION: Switzerland * METHOD/DEVICE: Monitoring station (MONS) * COMMENT: BSRN station no: 21; Surface type: cultivated; Topography type: hilly, rural; Horizon: doi:10.1594/PANGAEA.947035; Station scientist: Laurent Vuilleumier (laurent.vuilleumier@meteoswiss.ch)
Parameter(s):	DATE/TIME (Date/Time) * GEOCODE * PI: Vuilleumier, Laurent (https://orcid.org/0000-0003-0222-2566, laurent.vuilleumier@meteoswiss.ch)
	HEIGHT above ground [m] (Height) * GEOCODE * PI: Vuilleumier, Laurent (https://orcid.org/0000-0003-0222-2566, laurent.vuilleumier@meteoswiss.ch)
	Short-wave upward (REFLEX) radiation [W/m**2] (SWU) * PI: Vuilleumier, Laurent (https://orcid.org/0000-0003-0222-2566, laurent.vuilleumier@meteoswiss.ch) * METHOD/DEVICE: Pyranometer, Kipp & Zonen, CM21, SN 041303, WRMC No. 21074
	Short-wave upward (REFLEX) radiation, standard deviation [W/m**2] (SWU std dev) * PI: Vuilleumier, Laurent (https://orcid.org/0000-0003-0222-2566, laurent.vuilleumier@meteoswiss.ch) * METHOD/DEVICE: Pyranometer, Kipp & Zonen, CM21, SN 041303, WRMC No. 21074
	Short-wave upward (REFLEX) radiation, minimum [W/m**2] (SWU min) * PI: Vuilleumier, Laurent (https://orcid.org/0000-0003-0222-2566, laurent.vuilleumier@meteoswiss.ch) * METHOD/DEVICE: Pyranometer, Kipp & Zonen, CM21, SN 041303, WRMC No. 21074
	Short-wave upward (REFLEX) radiation, maximum [W/m**2] (SWU max) * PI: Vuilleumier, Laurent (https://orcid.org/0000-0003-0222-2566, laurent.vuilleumier@meteoswiss.ch) * METHOD/DEVICE: Pyranometer, Kipp & Zonen, CM21, SN 041303, WRMC No. 21074
	Long-wave upward radiation [W/m**2] (LWU) * PI: Vuilleumier, Laurent (https://orcid.org/0000-0003-0222-2566, laurent.vuilleumier@meteoswiss.ch) * METHOD/DEVICE: Pyrgeometer, Eppley, PIR, SN 31964F3, WRMC No. 21089
	Long-wave upward radiation, standard deviation [W/m**2] (LWU std dev) * PI: Vuilleumier, Laurent (https://orcid.org/0000-0003-0222-2566, laurent.vuilleumier@meteoswiss.ch) * METHOD/DEVICE: Pyrgeometer, Eppley, PIR, SN 31964F3, WRMC No. 21089
	Long-wave upward radiation, minimum [W/m**2] (LWU min) * PI: Vuilleumier, Laurent (https://orcid.org/0000-0003-0222-2566, laurent.vuilleumier@meteoswiss.ch) * METHOD/DEVICE: Pyrgeometer, Eppley, PIR, SN 31964F3, WRMC No. 21089
	Long-wave upward radiation, maximum [W/m**2] (LWU max) * PI: Vuilleumier, Laurent (https://orcid.org/0000-0003-0222-2566, laurent.vuilleumier@meteoswiss.ch) * METHOD/DEVICE: Pyrgeometer, Eppley, PIR, SN 31964F3, WRMC No. 21089
	Temperature, air [°C] (TTT) * PI: Vuilleumier, Laurent (https://orcid.org/0000-0003-0222-2566, laurent.vuilleumier@meteoswiss.ch) * METHOD/DEVICE: Thermometer
	Humidity, relative [%] (RH) * PI: Vuilleumier, Laurent (https://orcid.org/0000-0003-0222-2566, laurent.vuilleumier@meteoswiss.ch) * METHOD/DEVICE: Hygrometer (HYGRO)
License:	Baseline Surface Radiation Network License 1.0 (BSRN-1.0) (URI: https://bsrn.awi.de/data/conditions-of-data-release/)
Status:	Curation Level: Enhanced curation (URI: https://wiki.pangaea.de/wiki/Curation_levels)
Size:	440594 data points
*/
Date/Time	Height [m]	SWU [W/m**2]	SWU std dev [W/m**2]	SWU min [W/m**2]	SWU max [W/m**2]	LWU [W/m**2]	LWU std dev [W/m**2]	LWU min [W/m**2]	LWU max [W/m**2]	TTT [°C]	RH [%]
2025-10-01T00:00	10	0	0.1	0	0	353	0.3	352	353	10.8	85.2
2025-10-01T00:01	10	0	0.1	0	0	352	0.3	352	353	10.9	85.1
2025-10-01T00:02	10	0	0.1	0	0	352	0.3	352	353	10.9	85.1
2025-10-01T00:03	10	0	0.1	0	0	352	0.2	352	353	10.8	85.2
2025-10-01T00:04	10	0	0.1	0	0	352	0.2	352	353	10.8	85.1
2025-10-01T00:05	10	0	0.1	0	0	352	0.2	352	353	10.9	84.8
2025-10-01T00:06	10	0	0.1	0	0	353	0.4	352	354	10.9	84.4
2025-10-01T00:07	10	0	0.1	0	0	353	0.2	352	353	10.9	84.7
2025-10-01T00:08	10	0	0.1	0	0	353	0.4	352	354	10.8	85.0
2025-10-01T00:09	10	0	0.1	0	0	353	0.3	352	353	10.8	85.0
2025-10-01T00:10	10	0	0.0	0	0	353	0.2	352	353	10.8	85.0
2025-10-01T00:11	10	0	0.1	0	0	353	0.2	352	353	10.8	85.2
2025-10-01T00:12	10	0	0.1	0	0	352	0.2	352	353	10.8	85.3
2025-10-01T00:13	10	0	0.1	0	0	352	0.2	352	353	10.8	85.5
2025-10-01T00:14	10	0	0.1	0	0	352	0.3	351	353	10.7	85.7
2025-10-01T00:15	10	0	0.1	0	0	352	0.2	351	352	10.7	85.8
2025-10-01T00:16	10	0	0.1	0	0	351	0.3	351	352	10.7	85.8
2025-10-01T00:17	10	0	0.1	0	0	351	0.3	350	352	10.7	85.7
2025-10-01T00:18	10	0	0.1	0	0	350	0.2	350	351	10.6	85.9
2025-10-01T00:19	10	0	0.1	0	0	350	0.3	349	351	10.6	85.9
2025-10-01T00:20	10	0	0.1	0	0	350	0.2	349	350	10.6	85.8
2025-10-01T00:21	10	0	0.1	0	0	350	0.2	350	351	10.7	85.1
2025-10-01T00:22	10	0	0.1	0	0	350	0.2	349	350	10.7	85.1
2025-10-01T00:23	10	0	0.1	0	0	350	0.3	349	350	10.7	84.6
2025-10-01T00:24	10	0	0.1	0	0	350	0.2	349	350	10.7	84.5
2025-10-01T00:25	10	0	0.1	0	0	349	0.3	349	350	10.6	84.6
2025-10-01T00:26	10	0	0.1	0	0	349	0.4	349	350	10.5	85.0
2025-10-01T00:27	10	0	0.1	0	0	350	0.3	349	350	10.6	84.4
2025-10-01T00:28	10	0	0.1	0	0	349	0.4	349	350	10.6	84.5
2025-10-01T00:29	10	0	0.0	0	0	348	0.2	348	349	10.6	84.5
2025-10-01T00:30	10	0	0.1	0	0	348	0.3	347	349	10.6	84.6
2025-10-01T00:31	10	0	0.1	0	0	348	0.2	347	348	10.6	84.4
2025-10-01T00:32	10	0	0.1	0	0	347	0.3	347	348	10.6	84.2
2025-10-01T00:33	10	0	0.1	0	0	347	0.2	346	347	10.6	84.5
2025-10-01T00:34	10	0	0.1	0	0	346	0.3	346	347	10.5	84.8
2025-10-01T00:35	10	0	0.1	0	0	346	0.3	346	347	10.5	84.9
2025-10-01T00:36	10	0	0.1	0	0	347	0.2	346	347	10.6	84.8
2025-10-01T00:37	10	0	0.1	0	0	347	0.4	346	348	10.6	84.6
2025-10-01T00:38	10	0	0.1	0	1	347	0.2	347	348	10.6	84.8
2025-10-01T00:39	10	0	0.1	0	0	347	0.2	346	347	10.4	85.8
2025-10-01T00:40	10	0	0.1	0	0	348	0.3	346	348	10.3	87.8
2025-10-01T00:41	10	0	0.1	0	0	347	0.3	347	348	10.1	88.9
2025-10-01T00:42	10	0	0.1	0	0	347	0.2	347	348	10.1	89.4
2025-10-01T00:43	10	0	0.1	0	0	348	0.2	347	348	10.1	89.0
2025-10-01T00:44	10	0	0.1	0	0	348	0.2	347	348	10.1	88.6
2025-10-01T00:45	10	0	0.1	0	0	347	0.2	347	348	10.2	88.2
2025-10-01T00:46	10	0	0.1	0	0	347	0.3	346	347	10.1	88.8
2025-10-01T00:47	10	0	0.1	0	0	346	0.2	346	347	10.0	89.2
2025-10-01T00:48	10	0	0.1	0	0	345	0.3	345	346	10.0	89.5
2025-10-01T00:49	10	0	0.1	0	0	345	0.2	345	345	10.0	89.5
2025-10-01T00:50	10	0	0.1	0	0	345	0.3	344	345	10.0	89.6
2025-10-01T00:51	10	0	0.1	0	0	345	0.3	344	346	10.0	89.6
2025-10-01T00:52	10	0	0.1	0	0	346	0.3	345	346	10.0	89.5
2025-10-01T00:53	10	0	0.1	0	0	346	0.3	345	346	10.0	89.6
2025-10-01T00:54	10	0	0.1	0	0	347	0.3	346	347	10.1	89.3
2025-10-01T00:55	10	0	0.1	0	0	347	0.3	346	348	10.2	88.5
2025-10-01T00:56	10	0	0.1	0	0	348	0.2	347	348	10.4	87.5
2025-10-01T00:57	10	0	0.1	0	0	348	0.2	347	348	10.4	87.3
2025-10-01T00:58	10	0	0.1	0	0	348	0.3	347	348	10.3	87.3
2025-10-01T00:59	10	0	0.1	0	0	347	0.2	347	347	10.2	87.7
2025-10-01T01:00	10	0	0.1	0	0	347	0.4	346	347	10.2	87.7
2025-10-01T01:01	10	0	0.1	0	0	346	0.4	345	346	10.1	88.2
2025-10-01T01:02	10	0	0.1	0	0	345	0.4	344	345	10.1	88.4
2025-10-01T01:03	10	0	0.1	0	0	344	0.3	343	344	9.9	89.0
2025-10-01T01:04	10	0	0.1	0	0	344	0.3	343	344	9.7	89.7
2025-10-01T01:05	10	0	0.1	0	0	343	0.3	343	344	9.6	90.3
2025-10-01T01:06	10	0	0.1	0	0	343	0.3	342	343	9.4	91.0
2025-10-01T01:07	10	0	0.1	0	0	342	0.2	341	343	9.3	91.7
2025-10-01T01:08	10	0	0.1	0	0	342	0.3	342	343	9.5	91.3
2025-10-01T01:09	10	0	0.1	0	0	342	0.2	342	343	9.5	91.0
2025-10-01T01:10	10	0	0.1	0	0	342	0.2	342	343	9.3	91.5
2025-10-01T01:11	10	0	0.1	0	0	342	0.6	341	343	9.3	91.6
2025-10-01T01:12	10	0	0.1	0	0	342	0.2	342	343	9.3	91.7
2025-10-01T01:13	10	0	0.1	0	0	342	0.2	341	342	9.3	91.6
2025-10-01T01:14	10	0	0.1	0	0	342	0.2	341	342	9.5	90.9
2025-10-01T01:15	10	0	0.1	0	0	341	0.3	341	342	9.3	91.1
2025-10-01T01:16	10	0	0.1	0	0	341	0.2	341	342	9.3	91.4
2025-10-01T01:17	10	0	0.1	0	0	341	0.2	341	342	9.3	91.6
2025-10-01T01:18	10	0	0.1	0	0	341	0.3	340	342	9.3	91.5
2025-10-01T01:19	10	0	0.1	0	0	341	0.3	340	341	9.1	91.9
2025-10-01T01:20	10	0	0.1	0	0	340	0.4	339	341	9.1	92.1
2025-10-01T01:21	10	0	0.1	0	0	339	0.2	339	340	9.1	92.4
2025-10-01T01:22	10	0	0.1	0	0	339	0.2	338	339	9.1	92.4
2025-10-01T01:23	10	0	0.1	0	0	339	0.2	339	340	9.1	92.4
2025-10-01T01:24	10	0	0.1	0	0	339	0.3	339	340	9.2	92.3
2025-10-01T01:25	10	0	0.1	0	0	339	0.2	338	339	9.2	92.2
2025-10-01T01:26	10	0	0.1	0	0	339	0.2	338	339	9.2	92.2
2025-10-01T01:27	10	0	0.1	0	0	338	0.3	338	339	9.2	92.3
2025-10-01T01:28	10	0	0.0	0	0	338	0.2	338	339	9.1	92.5
2025-10-01T01:29	10	0	0.1	0	0	338	0.2	337	338	9.0	92.8
2025-10-01T01:30	10	0	0.1	0	0	338	0.2	337	338	9.0	93.1
2025-10-01T01:31	10	0	0.1	0	0	338	0.2	337	338	9.0	93.2
2025-10-01T01:32	10	0	0.1	0	0	338	0.4	337	338	9.1	92.9
2025-10-01T01:33	10	0	0.1	0	0	338	0.3	338	339	9.2	92.5
2025-10-01T01:34	10	0	0.1	0	0	338	0.2	337	338	9.2	92.5
2025-10-01T01:35	10	0	0.1	0	0	337	0.2	337	338	9.1	92.5
2025-10-01T01:36	10	0	0.1	0	0	338	0.2	337	338	9.0	92.6
2025-10-01T01:37	10	0	0.1	0	0	338	0.2	337	338	8.9	92.9
2025-10-01T01:38	10	0	0.0	0	0	338	0.2	337	338	8.9	93.1
2025-10-01T01:39	10	0	0.1	0	0	338	0.2	338	339	9.1	93.1
2025-10-01T01:40	10	0	0.1	0	0	339	0.2	338	339	9.3	92.7
2025-10-01T01:41	10	0	0.0	0	0	339	0.3	338	339	9.4	91.9
2025-10-01T01:42	10	0	0.1	0	0	339	0.2	338	339	9.4	91.3
2025-10-01T01:43	10	0	0.1	0	0	338	0.2	338	339	9.5	90.9
2025-10-01T01:44	10	0	0.1	0	0	338	0.2	338	339	9.5	90.6
2025-10-01T01:45	10	0	0.1	0	0	338	0.2	337	338	9.5	90.5
2025-10-01T01:46	10	0	0.1	0	0	338	0.2	337	339	9.6	90.2
2025-10-01T01:47	10	0	0.1	0	0	337	0.4	337	338	9.5	90.3
2025-10-01T01:48	10	0	0.1	0	0	337	0.2	336	337	9.5	90.7
2025-10-01T01:49	10	0	0.1	0	0	337	0.2	336	337	9.4	91.1
2025-10-01T01:50	10	0	0.1	0	0	337	0.2	336	338	9.4	91.1
2025-10-01T01:51	10	0	0.1	0	0	337	0.2	336	338	9.5	90.7
2025-10-01T01:52	10	0	0.1	0	0	337	0.2	337	337	9.5	90.7
2025-10-01T01:53	10	0	0.1	0	0	337	0.2	337	338	9.4	91.2
2025-10-01T01:54	10	0	0.1	0	0	337	0.3	336	337	9.4	91.7
2025-10-01T01:55	10	0	0.1	0	0	337	0.3	336	337	9.4	92.1
2025-10-01T01:56	10	0	0.1	0	0	337	0.2	336	337	9.4	92.4
2025-10-01T01:57	10	0	0.1	0	0	337	0.2	336	337	9.3	92.7
2025-10-01T01:58	10	0	0.1	0	0	337	0.2	336	338	9.3	92.9
2025-10-01T01:59	10	0	0.1	0	0	337	0.3	336	338	9.3	93.1
2025-10-01T02:00	10	0	0.1	0	0	337	0.2	337	338	9.3	93.3
2025-10-01T02:01	10	0	0.1	0	1	337	0.2	337	338	9.2	93.6
2025-10-01T02:02	10	0	0.1	0	0	337	0.2	337	338	9.1	93.8
2025-10-01T02:03	10	0	0.1	0	1	337	0.2	337	337	9.1	93.8
2025-10-01T02:04	10	0	0.1	0	1	337	0.2	336	337	9.1	94.1
2025-10-01T02:05	10	0	0.1	0	0	337	0.3	336	338	9.1	93.9
2025-10-01T02:06	10	0	0.2	0	1	337	0.3	337	338	9.1	93.9
2025-10-01T02:07	10	0	0.1	0	1	337	0.2	336	337	9.1	94.0
2025-10-01T02:08	10	0	0.2	0	0	336	0.2	336	337	9.1	94.2
2025-10-01T02:09	10	0	0.2	0	1	337	0.2	336	337	9.0	94.3
2025-10-01T02:10	10	0	0.2	0	1	337	0.3	336	338	9.0	94.5
2025-10-01T02:11	10	0	0.2	0	1	337	0.3	336	337	9.0	94.7
2025-10-01T02:12	10	0	0.2	0	1	336	0.2	336	337	9.0	94.5
2025-10-01T02:13	10	0	0.1	0	0	336	0.3	335	337	9.0	94.4
2025-10-01T02:14	10	0	0.1	0	0	336	0.3	335	337	9.0	94.2
2025-10-01T02:15	10	0	0.1	0	0	336	0.2	335	336	9.1	94.0
2025-10-01T02:16	10	0	0.1	0	0	336	0.2	335	337	9.2	93.6
2025-10-01T02:17	10	0	0.1	0	0	336	0.2	336	337	9.4	93.2
2025-10-01T02:18	10	0	0.1	0	1	337	0.3	336	337	9.4	92.8
2025-10-01T02:19	10	0	0.1	0	0	338	0.4	337	339	9.4	92.7
2025-10-01T02:20	10	0	0.1	0	0	339	0.3	338	339	9.4	92.6
2025-10-01T02:21	10	0	0.1	0	0	339	0.3	338	340	9.4	92.7
2025-10-01T02:22	10	0	0.2	0	1	339	0.2	338	339	9.4	92.8
2025-10-01T02:23	10	0	0.2	0	1	339	0.3	339	340	9.4	92.9
2025-10-01T02:24	10	0	0.2	0	0	340	0.5	339	341	9.5	93.0
2025-10-01T02:25	10	0	0.1	0	0	342	0.5	341	343	9.5	92.9
2025-10-01T02:26	10	0	0.1	0	1	343	0.3	342	343	9.5	92.7
2025-10-01T02:27	10	0	0.1	0	0	343	0.3	343	344	9.4	92.8
2025-10-01T02:28	10	0	0.1	0	0	343	0.2	343	344	9.5	92.9
2025-10-01T02:29	10	0	0.1	0	0	343	0.3	343	344	9.4	93.5
2025-10-01T02:30	10	0	0.1	0	0	343	0.3	342	343	9.4	93.8
2025-10-01T02:31	10	0	0.1	0	0	342	0.4	341	343	9.3	94.1
2025-10-01T02:32	10	0	0.1	0	0	341	0.2	341	342	9.3	94.1
2025-10-01T02:33	10	0	0.2	0	1	340	0.4	340	341	9.2	94.3
2025-10-01T02:34	10	0	0.2	0	1	340	0.4	339	340	9.1	94.4
2025-10-01T02:35	10	0	0.1	0	1	339	0.5	338	340	9.1	94.4
2025-10-01T02:36	10	0	0.1	0	0	338	0.3	338	339	8.8	94.8
2025-10-01T02:37	10	0	0.2	0	0	338	0.3	337	339	8.7	94.8
2025-10-01T02:38	10	0	0.2	0	0	337	0.4	337	338	8.6	95.2
2025-10-01T02:39	10	0	0.2	0	0	337	0.3	336	337	8.6	95.6
2025-10-01T02:40	10	0	0.2	0	0	337	0.2	336	337	8.5	95.4
2025-10-01T02:41	10	0	0.1	0	0	336	0.2	336	337	8.5	95.4
2025-10-01T02:42	10	0	0.1	0	0	336	0.3	336	337	8.5	95.9
2025-10-01T02:43	10	0	0.2	0	0	336	0.2	335	336	8.4	96.2
2025-10-01T02:44	10	0	0.1	0	0	336	0.2	335	336	8.4	95.8
2025-10-01T02:45	10	0	0.2	0	0	335	0.3	334	335	8.5	96.0
2025-10-01T02:46	10	0	0.1	0	0	335	0.2	335	335	8.5	96.1
2025-10-01T02:47	10	0	0.1	0	0	335	0.3	334	336	8.5	96.7
2025-10-01T02:48	10	0	0.1	0	0	335	0.3	334	336	8.4	96.6
2025-10-01T02:49	10	0	0.1	0	1	335	0.2	335	336	8.5	96.5
2025-10-01T02:50	10	0	0.2	0	1	336	0.3	335	336	8.6	96.6
2025-10-01T02:51	10	0	0.1	0	0	336	0.2	336	337	8.7	96.7
2025-10-01T02:52	10	0	0.1	0	0	337	0.4	336	337	8.7	96.2
2025-10-01T02:53	10	0	0.1	0	0	337	0.3	337	338	8.8	96.0
2025-10-01T02:54	10	0	0.1	0	0	337	0.2	337	338	8.9	95.6
2025-10-01T02:55	10	0	0.1	0	0	337	0.2	337	338	8.9	95.3
2025-10-01T02:56	10	0	0.1	0	0	338	0.4	337	338	9.0	94.9
2025-10-01T02:57	10	0	0.1	0	0	338	0.3	337	339	9.1	94.5
2025-10-01T02:58	10	0	0.1	0	0	339	0.3	339	340	9.2	94.3
2025-10-01T02:59	10	0	0.1	0	0	340	0.4	339	341	9.3	94.0
2025-10-01T03:00	10	0	0.1	0	0	340	0.3	339	341	9.0	94.4
2025-10-01T03:01	10	0	0.0	0	0	340	0.4	339	340	8.9	94.3
2025-10-01T03:02	10	0	0.1	0	0	339	0.3	339	340	8.9	94.5
2025-10-01T03:03	10	0	0.1	0	0	339	0.3	338	340	8.9	94.5
2025-10-01T03:04	10	0	0.1	0	0	339	0.4	338	340	9.0	94.5
2025-10-01T03:05	10	0	0.1	0	0	340	0.4	340	341	9.1	94.3
2025-10-01T03:06	10	0	0.1	0	0	340	0.6	339	341	8.9	94.4
2025-10-01T03:07	10	0	0.1	0	0	339	0.3	338	340	8.8	94.2
2025-10-01T03:08	10	0	0.1	0	0	338	0.5	337	339	9.0	94.3
2025-10-01T03:09	10	0	0.1	0	0	338	0.3	337	339	8.9	94.4
2025-10-01T03:10	10	0	0.1	0	0	338	0.4	337	339	9.0	94.2
2025-10-01T03:11	10	0	0.0	0	0	338	0.4	337	339	9.1	93.8
2025-10-01T03:12	10	0	0.1	0	0	340	0.5	339	341	9.1	93.7
2025-10-01T03:13	10	0	0.1	0	0	341	0.3	340	341	9.1	93.6
2025-10-01T03:14	10	0	0.1	0	0	341	0.2	341	342	9.2	93.2
2025-10-01T03:15	10	0	0.1	0	0	342	0.3	341	343	9.3	93.0
2025-10-01T03:16	10	0	0.1	0	0	343	0.5	342	344	9.4	92.8
2025-10-01T03:17	10	0	0.1	0	0	344	0.5	342	344	9.4	92.4
2025-10-01T03:18	10	0	0.1	0	0	344	0.3	344	345	9.4	92.3
2025-10-01T03:19	10	0	0.1	0	0	345	0.2	345	345	9.4	92.4
2025-10-01T03:20	10	0	0.1	0	0	345	0.2	345	346	9.4	92.5
2025-10-01T03:21	10	0	0.1	0	0	345	0.4	344	346	9.4	92.3
2025-10-01T03:22	10	0	0.1	0	0	344	0.5	343	345	9.4	92.5
2025-10-01T03:23	10	0	0.1	0	0	343	0.2	343	344	9.3	92.8
2025-10-01T03:24	10	0	0.1	0	0	343	0.3	343	344	9.2	93.0
2025-10-01T03:25	10	0	0.1	0	0	343	0.4	342	344	9.1	93.3
2025-10-01T03:26	10	0	0.1	0	0	343	0.7	342	345	9.1	93.4
2025-10-01T03:27	10	0	0.1	0	0	345	0.5	344	346	9.1	93.5
2025-10-01T03:28	10	0	0.1	0	0	345	0.3	345	346	9.1	93.4
2025-10-01T03:29	10	0	0.1	0	0	344	0.4	344	345	9.1	93.6
2025-10-01T03:30	10	0	0.0	0	0	343	0.4	342	344	9.0	93.7
2025-10-01T03:31	10	0	0.1	0	0	343	0.3	343	344	9.1	93.6
2025-10-01T03:32	10	0	0.1	0	0	344	0.3	343	344	9.0	93.6
2025-10-01T03:33	10	0	0.0	0	0	343	0.6	341	344	8.9	93.9
2025-10-01T03:34	10	0	0.1	0	0	342	0.2	342	343	8.7	93.9
2025-10-01T03:35	10	0	0.1	0	0	342	0.3	341	342	8.7	94.3
2025-10-01T03:36	10	0	0.1	0	0	341	0.3	340	341	8.6	94.5
2025-10-01T03:37	10	0	0.1	0	0	340	0.4	339	340	8.4	94.8
2025-10-01T03:38	10	0	0.1	0	0	339	0.3	339	340	8.3	94.8
2025-10-01T03:39	10	0	0.1	0	0	338	0.3	338	339	8.2	95.3
2025-10-01T03:40	10	0	0.1	0	0	338	0.3	337	339	8.2	95.2
2025-10-01T03:41	10	0	0.1	0	0	338	0.3	337	338	8.3	95.6
2025-10-01T03:42	10	0	0.1	0	0	338	0.2	337	338	8.3	95.7
2025-10-01T03:43	10	0	0.1	0	0	337	0.2	337	338	8.1	95.8
2025-10-01T03:44	10	0	0.0	0	0	337	0.2	337	338	7.9	95.9
2025-10-01T03:45	10	0	0.1	0	0	337	0.2	337	338	7.8	95.8
2025-10-01T03:46	10	0	0.1	0	0	337	0.2	336	337	7.8	96.3
2025-10-01T03:47	10	0	0.0	0	0	337	0.2	336	337	7.6	96.2
2025-10-01T03:48	10	0	0.0	0	0	337	0.2	336	337	7.5	96.4
2025-10-01T03:49	10	0	0.1	0	0	336	0.3	336	337	7.8	96.2
2025-10-01T03:50	10	0	0.1	0	0	336	0.2	336	337	7.7	96.9
2025-10-01T03:51	10	0	0.1	0	0	336	0.2	335	336	7.6	96.7
2025-10-01T03:52	10	0	0.1	0	0	335	0.3	334	336	7.5	96.8
2025-10-01T03:53	10	0	0.1	0	0	335	0.3	334	336	7.4	96.6
2025-10-01T03:54	10	0	0.1	0	0	334	0.3	334	335	7.3	96.7
2025-10-01T03:55	10	0	0.1	0	0	334	0.3	333	334	7.2	96.8
2025-10-01T03:56	10	0	0.1	0	0	334	0.2	333	334	7.3	96.7
2025-10-01T03:57	10	0	0.1	0	0	334	0.2	333	334	7.7	96.8
2025-10-01T03:58	10	0	0.1	0	0	334	0.7	333	335	7.4	96.9
2025-10-01T03:59	10	0	0.0	0	0	334	0.3	333	335	7.8	97.0
2025-10-01T04:00	10	0	0.1	0	0	334	0.5	333	335	7.7	97.6
2025-10-01T04:01	10	0	0.1	0	0	334	0.4	333	335	7.7	96.6
2025-10-01T04:02	10	0	0.1	0	0	333	0.2	333	334	7.4	97.2
2025-10-01T04:03	10	0	0.1	0	0	333	0.2	332	333	7.5	96.9
2025-10-01T04:04	10	0	0.1	0	0	333	0.3	332	334	7.6	97.0
2025-10-01T04:05	10	0	0.1	0	0	332	0.3	332	333	7.6	97.4
2025-10-01T04:06	10	0	0.1	0	0	332	0.3	331	333	7.4	97.2
2025-10-01T04:07	10	0	0.0	0	0	333	0.3	332	333	7.4	97.1
2025-10-01T04:08	10	0	0.1	0	0	333	0.3	332	333	7.7	96.8
2025-10-01T04:09	10	0	0.1	0	0	333	0.3	333	334	7.9	97.1
2025-10-01T04:10	10	0	0.1	0	0	334	0.6	333	335	8.1	96.7
2025-10-01T04:11	10	0	0.1	0	0	335	0.2	334	335	8.3	96.6
2025-10-01T04:12	10	0	0.1	0	0	335	0.2	334	335	8.4	96.2
2025-10-01T04:13	10	0	0.1	0	0	335	0.3	334	335	8.3	96.0
2025-10-01T04:14	10	0	0.1	0	0	335	0.2	334	335	8.3	95.5
2025-10-01T04:15	10	0	0.1	0	0	335	0.2	334	335	8.5	95.1
2025-10-01T04:16	10	0	0.1	0	0	335	0.3	334	335	8.5	95.1
2025-10-01T04:17	10	0	0.1	0	0	335	0.2	334	335	8.6	94.4
2025-10-01T04:18	10	0	0.1	0	0	335	0.3	334	336	8.7	93.9
2025-10-01T04:19	10	0	0.1	0	0	335	0.3	334	336	8.5	93.8
2025-10-01T04:20	10	0	0.1	0	0	334	0.3	334	335	8.6	93.9
2025-10-01T04:21	10	0	0.1	0	0	334	0.3	334	335	8.6	93.9
2025-10-01T04:22	10	0	0.1	0	0	334	0.2	334	335	8.5	94.1
2025-10-01T04:23	10	0	0.1	0	0	334	0.3	333	335	8.5	94.0
2025-10-01T04:24	10	0	0.1	0	0	334	0.3	334	335	8.4	94.0
2025-10-01T04:25	10	0	0.1	0	0	334	0.2	334	335	8.6	94.0
2025-10-01T04:26	10	0	0.1	0	0	334	0.3	334	335	8.4	94.0
2025-10-01T04:27	10	0	0.1	0	0	334	0.2	334	335	8.6	93.9
2025-10-01T04:28	10	0	0.1	0	0	334	0.3	333	335	8.4	94.1
2025-10-01T04:29	10	0	0.1	0	0	334	0.3	334	335	8.5	94.0
2025-10-01T04:30	10	0	0.1	0	0	334	0.4	334	335	8.5	94.0
2025-10-01T04:31	10	0	0.1	0	0	334	0.3	334	335	8.6	93.8
2025-10-01T04:32	10	0	0.1	0	0	335	0.2	334	335	8.5	94.0
2025-10-01T04:33	10	0	0.1	0	0	335	0.2	334	335	8.5	94.1
2025-10-01T04:34	10	0	0.1	0	0	335	0.3	334	335	8.5	94.2
2025-10-01T04:35	10	0	0.1	0	0	334	0.4	334	335	8.4	93.9
2025-10-01T04:36	10	0	0.1	0	0	335	0.4	334	336	8.4	94.0
2025-10-01T04:37	10	0	0.1	0	0	335	0.2	335	336	8.4	94.2
2025-10-01T04:38	10	0	0.1	0	0	336	0.3	335	337	8.4	94.1
2025-10-01T04:39	10	0	0.1	0	0	336	0.3	336	337	8.3	94.1
2025-10-01T04:40	10	0	0.1	0	0	336	0.3	336	337	8.3	94.4
2025-10-01T04:41	10	0	0.1	0	0	336	0.2	336	337	8.2	94.3
2025-10-01T04:42	10	0	0.1	0	0	337	0.4	336	338	8.3	94.1
2025-10-01T04:43	10	0	0.1	0	0	337	0.2	337	338	8.4	94.4
2025-10-01T04:44	10	0	0.1	0	0	338	0.3	337	338	8.4	94.3
2025-10-01T04:45	10	0	0.1	0	0	338	0.3	337	339	8.4	94.5
2025-10-01T04:46	10	0	0.1	0	0	338	0.3	338	339	8.2	94.4
2025-10-01T04:47	10	0	0.1	0	0	338	0.3	337	338	8.3	94.2
2025-10-01T04:48	10	0	0.1	0	0	337	0.2	337	338	8.2	94.5
2025-10-01T04:49	10	0	0.1	0	0	337	0.2	337	338	8.1	94.5
2025-10-01T04:50	10	0	0.1	0	0	337	0.4	336	338	8.2	94.6
2025-10-01T04:51	10	0	0.1	0	0	336	0.3	335	337	8.2	94.7
2025-10-01T04:52	10	0	0.1	0	0	336	0.2	335	337	8.2	94.7
2025-10-01T04:53	10	0	0.1	0	0	336	0.3	335	336	8.2	94.7
2025-10-01T04:54	10	0	0.1	0	0	335	0.2	335	336	8.2	94.7
2025-10-01T04:55	10	0	0.1	0	0	335	0.3	334	336	8.3	94.7
2025-10-01T04:56	10	0	0.1	0	0	335	0.2	334	335	8.3	94.8
2025-10-01T04:57	10	0	0.1	0	0	335	0.2	334	335	8.3	94.8
2025-10-01T04:58	10	0	0.1	0	0	334	0.3	334	335	8.2	95.1
2025-10-01T04:59	10	0	0.1	0	0	334	0.2	334	335	8.2	95.0
2025-10-01T05:00	10	0	0.1	0	0	334	0.3	333	335	8.2	94.9
2025-10-01T05:01	10	0	0.1	0	0	334	0.2	334	335	8.2	95.0
2025-10-01T05:02	10	0	0.1	0	0	334	0.3	334	335	8.1	95.1
2025-10-01T05:03	10	0	0.1	0	0	334	0.3	334	335	8.0	94.8
2025-10-01T05:04	10	0	0.1	0	0	334	0.2	333	334	8.1	95.0
2025-10-01T05:05	10	0	0.1	0	0	334	0.2	333	334	8.2	95.1
2025-10-01T05:06	10	0	0.1	0	0	333	0.2	333	334	8.3	95.3
2025-10-01T05:07	10	0	0.1	0	0	333	0.2	333	334	8.3	95.3
2025-10-01T05:08	10	0	0.0	0	0	333	0.2	332	333	8.2	95.6
2025-10-01T05:09	10	0	0.1	0	0	333	0.2	332	333	8.2	95.4
2025-10-01T05:10	10	0	0.1	0	0	333	0.3	332	333	8.2	95.3
2025-10-01T05:11	10	0	0.1	0	0	333	0.2	333	334	8.2	95.4
2025-10-01T05:12	10	0	0.1	0	0	333	0.3	333	334	8.1	95.6
2025-10-01T05:13	10	0	0.1	0	0	333	0.2	333	334	8.1	95.4
2025-10-01T05:14	10	0	0.1	0	0	334	0.3	333	334	8.2	95.4
2025-10-01T05:15	10	0	0.1	0	0	334	0.3	333	334	8.3	95.5
2025-10-01T05:16	10	0	0.1	0	0	333	0.2	333	334	8.3	95.4
2025-10-01T05:17	10	0	0.1	0	0	334	0.3	333	335	8.3	95.3
2025-10-01T05:18	10	0	0.1	0	0	334	0.3	334	335	8.3	95.2
2025-10-01T05:19	10	0	0.1	0	0	334	0.2	333	334	8.3	95.2
2025-10-01T05:20	10	0	0.1	0	1	334	0.2	333	334	8.4	95.0
2025-10-01T05:21	10	0	0.1	0	1	334	0.3	333	335	8.3	94.9
2025-10-01T05:22	10	0	0.1	0	1	334	0.3	334	335	8.3	94.7
2025-10-01T05:23	10	1	0.1	0	1	334	0.2	334	335	8.3	94.8
2025-10-01T05:24	10	1	0.1	0	1	334	0.3	334	335	8.2	95.0
2025-10-01T05:25	10	1	0.1	0	1	335	0.3	334	335	8.1	95.0
2025-10-01T05:26	10	1	0.1	0	1	335	0.3	335	336	8.2	94.8
2025-10-01T05:27	10	1	0.1	0	1	335	0.4	335	336	8.2	94.9
2025-10-01T05:28	10	1	0.1	0	1	336	0.3	336	337	8.3	94.8
2025-10-01T05:29	10	1	0.1	0	1	337	0.3	336	337	8.3	94.8
2025-10-01T05:30	10	1	0.1	1	1	337	0.2	337	338	8.3	94.8
2025-10-01T05:31	10	1	0.1	1	1	337	0.3	337	338	8.3	94.9
2025-10-01T05:32	10	1	0.1	1	1	337	0.3	336	338	8.3	95.2
2025-10-01T05:33	10	1	0.1	1	1	337	0.3	337	338	8.3	95.1
2025-10-01T05:34	10	1	0.1	1	1	337	0.2	337	338	8.3	94.7
2025-10-01T05:35	10	1	0.1	1	1	338	0.2	337	338	8.3	94.6
2025-10-01T05:36	10	1	0.1	1	2	338	0.3	338	339	8.3	94.9
2025-10-01T05:37	10	2	0.1	1	2	339	0.3	338	339	8.3	95.0
2025-10-01T05:38	10	2	0.1	2	2	339	0.3	338	339	8.3	94.7
2025-10-01T05:39	10	2	0.1	2	2	338	0.3	338	339	8.3	94.8
2025-10-01T05:40	10	2	0.1	2	2	338	0.3	337	338	8.4	94.8
2025-10-01T05:41	10	2	0.1	2	2	337	0.2	336	337	8.3	94.7
2025-10-01T05:42	10	2	0.1	2	3	336	0.3	336	337	8.3	94.5
2025-10-01T05:43	10	3	0.1	2	3	336	0.3	335	337	8.4	94.6
2025-10-01T05:44	10	3	0.1	3	3	336	0.2	335	336	8.4	94.7
2025-10-01T05:45	10	3	0.1	3	3	335	0.3	335	336	8.4	94.8
2025-10-01T05:46	10	3	0.1	3	3	335	0.3	335	336	8.3	95.0
2025-10-01T05:47	10	4	0.1	3	4	335	0.2	335	336	8.3	95.3
2025-10-01T05:48	10	4	0.1	4	4	335	0.2	335	336	8.3	95.3
2025-10-01T05:49	10	4	0.2	4	4	335	0.3	334	336	8.2	95.2
2025-10-01T05:50	10	4	0.2	4	5	335	0.3	335	336	8.2	95.1
2025-10-01T05:51	10	5	0.2	5	5	336	0.3	335	337	8.3	95.3
2025-10-01T05:52	10	5	0.1	5	5	336	0.3	335	336	8.2	95.3
2025-10-01T05:53	10	5	0.1	5	5	336	0.3	335	337	8.2	95.5
2025-10-01T05:54	10	5	0.1	5	6	336	0.2	336	337	8.1	95.4
2025-10-01T05:55	10	6	0.2	6	6	336	0.2	336	337	8.2	95.3
2025-10-01T05:56	10	7	0.1	6	7	337	0.3	336	337	8.2	95.5
2025-10-01T05:57	10	7	0.1	7	7	337	0.2	337	337	8.3	95.7
2025-10-01T05:58	10	7	0.1	7	7	338	0.3	337	338	8.3	95.4
2025-10-01T05:59	10	7	0.3	7	8	338	0.3	338	339	8.3	95.3
2025-10-01T06:00	10	9	0.7	8	10	339	0.3	338	340	8.3	95.1
2025-10-01T06:01	10	10	0.1	10	11	340	0.3	339	340	8.3	95.3
2025-10-01T06:02	10	10	0.2	10	10	341	0.3	340	341	8.3	95.1
2025-10-01T06:03	10	10	0.1	9	10	341	0.3	340	341	8.3	95.1
2025-10-01T06:04	10	10	0.1	9	10	341	0.2	340	341	8.3	95.0
2025-10-01T06:05	10	9	0.2	9	10	341	0.2	340	341	8.3	95.0
2025-10-01T06:06	10	9	0.1	9	9	341	0.3	340	341	8.3	94.9
2025-10-01T06:07	10	9	0.1	9	9	341	0.2	340	341	8.3	94.9
2025-10-01T06:08	10	9	0.1	9	9	341	0.2	341	342	8.4	94.9
2025-10-01T06:09	10	10	0.1	9	10	342	0.3	341	342	8.4	94.8
2025-10-01T06:10	10	10	0.1	10	10	342	0.2	342	343	8.5	94.5
2025-10-01T06:11	10	10	0.3	10	11	343	0.2	342	343	8.5	94.4
2025-10-01T06:12	10	11	0.2	10	11	344	0.4	343	345	8.5	94.3
2025-10-01T06:13	10	12	0.2	11	12	345	0.4	344	346	8.6	93.9
2025-10-01T06:14	10	14	1.0	12	15	346	0.3	345	347	8.6	93.8
2025-10-01T06:15	10	16	0.3	15	16	346	0.3	346	347	8.6	94.0
2025-10-01T06:16	10	17	0.4	16	18	347	0.4	346	348	8.6	93.6
2025-10-01T06:17	10	17	0.5	16	18	348	0.2	347	348	8.6	93.5
2025-10-01T06:18	10	18	0.7	17	19	348	0.2	348	349	8.7	93.1
2025-10-01T06:19	10	15	0.8	14	17	348	0.3	348	349	8.7	93.1
2025-10-01T06:20	10	15	0.3	14	15	349	0.2	348	349	8.7	93.2
2025-10-01T06:21	10	13	0.7	12	15	349	0.2	349	350	8.8	93.1
2025-10-01T06:22	10	14	0.5	13	15	349	0.4	348	350	8.8	92.6
2025-10-01T06:23	10	15	0.8	14	16	349	0.2	349	350	8.8	92.7
2025-10-01T06:24	10	16	1.4	13	17	350	0.2	349	350	8.8	92.6
2025-10-01T06:25	10	14	1.5	12	17	349	0.2	349	350	8.8	92.7
2025-10-01T06:26	10	18	1.9	14	20	349	0.2	349	350	8.8	92.9
2025-10-01T06:27	10	15	1.5	13	19	349	0.2	349	350	8.8	93.1
2025-10-01T06:28	10	16	1.4	15	19	349	0.2	349	350	8.8	93.2
2025-10-01T06:29	10	16	0.5	15	17	349	0.2	349	350	8.8	93.1
2025-10-01T06:30	10	18	0.9	17	21	350	0.2	349	350	8.8	93.3
2025-10-01T06:31	10	20	0.5	20	21	350	0.3	349	351	8.8	93.2
2025-10-01T06:32	10	22	1.5	20	25	351	0.3	350	351	8.8	93.1
2025-10-01T06:33	10	21	0.9	20	23	351	0.2	351	352	8.8	93.3
2025-10-01T06:34	10	23	0.3	22	23	352	0.3	351	352	8.8	93.4
2025-10-01T06:35	10	22	0.2	22	23	352	0.3	352	353	8.8	93.3
2025-10-01T06:36	10	21	0.6	20	23	353	0.3	352	353	8.8	93.1
2025-10-01T06:37	10	26	1.4	23	29	353	0.3	352	354	8.8	93.0
2025-10-01T06:38	10	21	2.2	20	27	353	0.3	352	354	8.8	93.1
2025-10-01T06:39	10	31	5.6	20	37	353	0.6	352	354	8.8	92.8
2025-10-01T06:40	10	34	0.8	33	35	354	0.3	353	355	8.9	92.8
2025-10-01T06:41	10	29	4.2	22	35	354	0.3	354	355	8.9	92.5
2025-10-01T06:42	10	31	3.8	25	36	355	0.2	354	355	8.9	92.5
2025-10-01T06:43	10	24	2.8	22	29	354	0.3	354	355	8.9	92.5
2025-10-01T06:44	10	28	2.0	23	31	355	0.3	354	355	8.9	92.4
2025-10-01T06:45	10	26	0.8	25	28	355	0.3	355	356	8.9	92.8
2025-10-01T06:46	10	29	2.6	25	32	356	0.3	355	356	8.9	92.8
2025-10-01T06:47	10	25	1.3	23	28	356	0.2	356	356	8.8	92.7
2025-10-01T06:48	10	23	1.0	22	26	356	0.3	355	357	8.9	92.8
2025-10-01T06:49	10	22	0.1	22	22	356	0.2	356	356	8.9	93.3
2025-10-01T06:50	10	22	0.2	22	22	356	0.2	356	357	8.9	93.5
2025-10-01T06:51	10	21	0.5	20	22	356	0.2	356	357	8.9	93.5
2025-10-01T06:52	10	20	0.3	19	20	356	0.2	356	357	8.9	93.2
2025-10-01T06:53	10	21	0.7	20	22	357	0.3	356	358	8.9	93.2
2025-10-01T06:54	10	22	0.5	21	22	358	0.2	357	358	8.9	93.0
2025-10-01T06:55	10	20	0.3	20	21	358	0.2	357	358	9.0	92.9
2025-10-01T06:56	10	21	0.8	19	22	358	0.2	357	359	9.0	92.9
2025-10-01T06:57	10	23	0.6	22	24	359	0.3	358	359	9.1	92.9
2025-10-01T06:58	10	25	0.7	24	26	360	0.2	359	360	9.1	92.9
2025-10-01T06:59	10	27	0.4	26	28	360	0.4	359	361	9.2	92.5
2025-10-01T07:00	10	28	0.1	28	28	361	0.2	360	361	9.2	92.8
2025-10-01T07:01	10	27	0.5	26	28	361	0.2	361	362	9.2	92.6
2025-10-01T07:02	10	26	0.4	26	27	361	0.2	361	362	9.2	92.0
2025-10-01T07:03	10	29	1.2	27	31	362	0.3	361	363	9.2	92.0
2025-10-01T07:04	10	32	0.5	31	33	363	0.6	362	364	9.3	92.5
2025-10-01T07:05	10	31	0.7	30	32	364	0.3	363	364	9.3	92.1
2025-10-01T07:06	10	32	1.0	31	34	363	0.2	363	364	9.3	91.6
2025-10-01T07:07	10	36	1.1	34	37	363	0.2	363	364	9.3	91.6
2025-10-01T07:08	10	38	0.2	38	38	364	0.3	363	364	9.3	91.5
2025-10-01T07:09	10	35	1.3	33	38	364	0.2	363	364	9.3	91.5
2025-10-01T07:10	10	33	0.2	33	33	365	0.3	364	365	9.3	91.9
2025-10-01T07:11	10	32	1.0	30	33	365	0.3	364	365	9.4	92.0
2025-10-01T07:12	10	30	0.4	29	31	365	0.2	365	366	9.4	92.4
2025-10-01T07:13	10	32	0.5	31	32	365	0.2	365	366	9.4	92.4
2025-10-01T07:14	10	30	0.8	29	32	365	0.2	365	366	9.5	92.6
2025-10-01T07:15	10	28	1.0	26	29	366	0.2	365	366	9.5	92.6
2025-10-01T07:16	10	24	0.5	24	26	365	0.6	364	366	9.4	91.8
2025-10-01T07:17	10	24	0.6	24	26	365	0.3	364	365	9.4	91.8
2025-10-01T07:18	10	28	0.8	26	28	365	0.2	364	365	9.5	92.6
2025-10-01T07:19	10	28	0.2	28	28	365	0.2	364	365	9.5	92.5
2025-10-01T07:20	10	31	1.3	29	33	365	0.2	365	366	9.5	92.2
2025-10-01T07:21	10	33	0.2	32	33	365	0.2	365	365	9.5	91.7
2025-10-01T07:22	10	36	1.4	33	38	364	0.3	364	365	9.5	90.9
2025-10-01T07:23	10	38	0.3	37	39	364	0.3	364	365	9.5	90.5
2025-10-01T07:24	10	37	0.4	37	39	364	0.3	363	365	9.5	90.2
2025-10-01T07:25	10	41	2.3	37	44	364	0.4	364	365	9.5	90.3
2025-10-01T07:26	10	43	1.8	40	45	365	0.3	365	366	9.6	90.5
2025-10-01T07:27	10	39	0.3	38	39	366	0.2	365	366	9.6	90.2
2025-10-01T07:28	10	41	1.7	39	44	366	0.4	365	366	9.6	90.2
2025-10-01T07:29	10	48	1.6	45	50	366	0.5	364	367	9.6	89.9
2025-10-01T07:30	10	48	0.9	47	50	367	0.2	366	367	9.7	89.8
2025-10-01T07:31	10	68	13.4	51	94	368	1.0	367	370	9.8	89.9
2025-10-01T07:32	10	74	6.8	63	83	370	1.0	368	372	9.9	89.5
2025-10-01T07:33	10	72	7.5	64	93	371	0.4	370	371	9.9	89.5
2025-10-01T07:34	10	69	7.1	63	93	370	0.7	369	372	9.9	89.5
2025-10-01T07:35	10	67	3.6	61	73	370	0.3	369	371	9.9	89.5
2025-10-01T07:36	10	88	14.9	66	106	371	1.0	370	373	9.9	89.5
2025-10-01T07:37	10	89	6.1	78	100	374	0.5	373	375	9.9	89.5
2025-10-01T07:38	10	99	5.6	84	105	374	0.5	373	375	9.9	89.5
2025-10-01T07:39	10	92	7.8	80	110	374	0.2	373	374	9.9	89.5
2025-10-01T07:40	10	98	11.2	79	113	375	1.2	373	377	10.0	89.2
2025-10-01T07:41	10	85	9.5	72	102	376	0.6	375	377	10.3	87.9
2025-10-01T07:42	10	98	8.3	82	115	376	0.2	376	377	10.4	87.5
2025-10-01T07:43	10	113	7.6	98	120	377	0.5	376	378	10.4	87.3
2025-10-01T07:44	10	89	9.8	74	103	378	1.2	376	379	10.5	87.4
2025-10-01T07:45	10	60	8.0	54	80	376	0.9	375	378	10.6	87.3
2025-10-01T07:46	10	53	0.9	51	54	375	0.4	374	376	10.7	88.1
2025-10-01T07:47	10	48	1.3	46	51	374	0.4	373	375	10.6	87.7
2025-10-01T07:48	10	44	1.5	41	46	373	0.5	372	374	10.5	86.9
2025-10-01T07:49	10	38	1.6	36	41	372	0.6	371	373	10.5	87.6
2025-10-01T07:50	10	36	0.1	36	36	371	0.6	370	373	10.4	87.9
2025-10-01T07:51	10	36	0.1	36	36	370	0.3	370	371	10.3	87.2
2025-10-01T07:52	10	36	0.8	36	38	370	0.2	370	371	10.3	87.3
2025-10-01T07:53	10	40	0.9	38	41	370	0.2	369	370	10.2	87.0
2025-10-01T07:54	10	40	0.5	39	41	370	0.3	369	370	10.1	87.0
2025-10-01T07:55	10	40	0.4	39	41	369	0.3	368	369	10.1	87.3
2025-10-01T07:56	10	45	2.5	41	49	369	0.3	368	369	10.1	87.5
2025-10-01T07:57	10	50	0.4	49	51	370	0.5	369	370	10.1	87.9
2025-10-01T07:58	10	48	1.9	44	50	370	0.4	370	371	10.1	88.0
2025-10-01T07:59	10	40	2.6	35	44	370	0.5	369	371	10.2	87.8
2025-10-01T08:00	10	33	1.2	31	35	369	0.3	368	370	10.1	87.8
2025-10-01T08:01	10	29	1.1	27	31	368	0.4	367	369	10.2	87.9
2025-10-01T08:02	10	26	0.6	25	27	368	0.2	368	369	10.2	88.0
2025-10-01T08:03	10	26	0.4	25	27	368	0.2	368	368	10.2	87.5
2025-10-01T08:04	10	28	0.7	27	29	367	0.2	367	368	10.2	87.5
2025-10-01T08:05	10	29	0.2	29	30	367	0.2	367	368	10.1	87.1
2025-10-01T08:06	10	30	0.1	30	30	367	0.2	366	368	10.1	87.0
2025-10-01T08:07	10	30	0.1	29	30	367	0.2	366	367	10.2	87.1
2025-10-01T08:08	10	29	0.5	29	30	367	0.2	366	367	10.1	87.0
2025-10-01T08:09	10	28	0.4	27	29	367	0.2	366	367	10.2	87.2
2025-10-01T08:10	10	28	0.2	27	28	367	0.3	366	368	10.2	87.2
2025-10-01T08:11	10	28	0.4	28	29	367	0.2	367	368	10.2	87.1
2025-10-01T08:12	10	29	0.2	28	29	367	0.2	367	368	10.2	86.7
2025-10-01T08:13	10	28	0.3	27	29	367	0.2	367	368	10.2	87.5
2025-10-01T08:14	10	27	0.2	27	28	367	0.4	366	368	10.2	87.4
2025-10-01T08:15	10	28	0.1	28	28	367	0.3	367	368	10.3	87.3
2025-10-01T08:16	10	29	0.3	28	29	367	0.3	366	368	10.3	86.7
2025-10-01T08:17	10	30	0.3	29	30	367	0.2	367	367	10.3	86.8
2025-10-01T08:18	10	29	0.4	28	30	367	0.3	367	368	10.3	87.0
2025-10-01T08:19	10	28	0.4	27	28	368	0.3	367	368	10.3	87.1
2025-10-01T08:20	10	27	0.2	27	27	368	0.3	367	368	10.3	87.0
2025-10-01T08:21	10	28	0.3	27	29	368	0.2	367	368	10.3	86.4
2025-10-01T08:22	10	29	0.1	28	29	367	0.3	366	367	10.3	86.3
2025-10-01T08:23	10	28	0.2	28	29	367	0.3	366	368	10.2	86.6
2025-10-01T08:24	10	28	0.1	28	28	367	0.3	367	368	10.3	87.0
2025-10-01T08:25	10	28	0.1	27	28	367	0.3	366	368	10.3	87.5
2025-10-01T08:26	10	27	0.1	27	28	367	0.4	366	368	10.3	87.3
2025-10-01T08:27	10	27	0.1	27	28	367	0.2	367	367	10.3	87.4
2025-10-01T08:28	10	27	0.4	26	27	367	0.2	366	367	10.3	86.7
2025-10-01T08:29	10	25	0.5	24	26	367	0.2	366	367	10.3	87.3
2025-10-01T08:30	10	24	0.4	23	25	367	0.2	366	367	10.3	87.3
2025-10-01T08:31	10	23	0.2	23	23	367	0.2	366	367	10.4	87.6
2025-10-01T08:32	10	23	0.5	23	24	366	0.2	366	367	10.4	87.1
2025-10-01T08:33	10	26	0.8	24	27	367	0.4	366	368	10.4	87.4
2025-10-01T08:34	10	28	0.6	27	29	368	0.2	367	368	10.5	86.9
2025-10-01T08:35	10	29	0.1	29	29	367	0.3	366	368	10.5	85.3
2025-10-01T08:36	10	30	0.5	29	31	367	0.3	367	368	10.5	84.9
2025-10-01T08:37	10	32	0.5	31	33	368	0.3	368	369	10.6	84.8
2025-10-01T08:38	10	33	0.1	33	33	368	0.3	368	369	10.5	84.6
2025-10-01T08:39	10	33	0.1	33	33	368	0.2	368	369	10.5	84.6
2025-10-01T08:40	10	35	1.3	33	38	369	0.3	368	369	10.5	84.6
2025-10-01T08:41	10	35	1.3	33	38	369	0.3	369	370	10.5	84.5
2025-10-01T08:42	10	33	0.3	32	33	368	0.3	367	369	10.4	83.6
2025-10-01T08:43	10	33	0.1	33	34	367	0.3	367	368	10.4	83.7
2025-10-01T08:44	10	33	0.2	33	34	367	0.2	367	367	10.4	83.5
2025-10-01T08:45	10	33	0.1	33	33	367	0.4	366	368	10.4	83.5
2025-10-01T08:46	10	33	0.1	33	33	367	0.4	366	367	10.4	82.9
2025-10-01T08:47	10	33	0.2	33	33	365	0.2	365	366	10.3	82.6
2025-10-01T08:48	10	33	0.4	33	34	366	0.2	365	366	10.4	82.9
2025-10-01T08:49	10	33	0.5	32	34	367	0.3	366	367	10.4	83.1
2025-10-01T08:50	10	31	0.4	31	32	367	0.3	366	368	10.4	83.1
2025-10-01T08:51	10	30	0.4	29	31	366	0.3	366	367	10.4	82.5
2025-10-01T08:52	10	29	0.2	29	30	366	0.2	366	367	10.4	82.7
2025-10-01T08:53	10	32	1.4	30	35	367	0.3	366	368	10.5	83.1
2025-10-01T08:54	10	39	1.8	35	42	368	0.9	367	370	10.5	83.3
2025-10-01T08:55	10	44	1.5	42	47	370	0.3	369	370	10.6	83.1
2025-10-01T08:56	10	44	0.9	42	45	370	0.3	369	370	10.6	82.7
2025-10-01T08:57	10	40	1.2	38	42	370	0.2	370	371	10.6	82.0
2025-10-01T08:58	10	37	0.4	36	38	369	0.4	369	370	10.6	81.0
2025-10-01T08:59	10	39	1.0	37	40	369	0.3	369	370	10.6	81.2
2025-10-01T09:00	10	39	0.5	38	40	370	0.3	369	370	10.6	81.4
2025-10-01T09:01	10	40	1.3	38	42	370	0.3	370	371	10.7	81.7
2025-10-01T09:02	10	44	0.6	43	45	370	0.4	369	371	10.7	80.5
2025-10-01T09:03	10	40	1.6	38	43	370	0.4	369	371	10.7	80.0
2025-10-01T09:04	10	37	0.3	37	38	370	0.3	369	370	10.7	79.7
2025-10-01T09:05	10	35	1.1	33	37	369	0.4	368	370	10.8	79.3
2025-10-01T09:06	10	31	1.1	29	33	368	0.4	367	369	10.8	79.2
2025-10-01T09:07	10	28	0.8	27	29	368	0.2	368	369	10.8	79.1
2025-10-01T09:08	10	26	0.3	26	27	368	0.3	367	369	10.8	79.4
2025-10-01T09:09	10	26	0.5	26	28	367	0.3	367	368	10.8	79.0
2025-10-01T09:10	10	28	0.2	27	28	368	0.2	367	368	10.8	79.3
2025-10-01T09:11	10	28	0.1	27	28	368	0.2	367	368	10.8	79.2
2025-10-01T09:12	10	28	0.5	27	29	367	0.2	367	367	10.8	79.5
2025-10-01T09:13	10	29	0.2	28	29	367	0.3	366	368	10.8	79.3
2025-10-01T09:14	10	31	0.8	29	32	367	0.2	366	367	10.7	79.0
2025-10-01T09:15	10	33	0.5	32	34	367	0.3	366	367	10.8	79.3
2025-10-01T09:16	10	37	1.9	34	40	368	0.4	367	369	10.8	79.3
2025-10-01T09:17	10	43	1.3	40	45	369	0.3	368	369	10.8	78.5
2025-10-01T09:18	10	55	8.0	45	72	370	1.1	369	372	10.8	78.0
2025-10-01T09:19	10	55	2.0	52	58	372	0.3	371	373	10.8	78.4
2025-10-01T09:20	10	59	0.4	58	60	373	0.6	372	374	10.9	78.9
2025-10-01T09:21	10	58	0.9	57	60	375	0.4	374	375	11.0	79.1
2025-10-01T09:22	10	55	1.0	53	57	376	0.3	375	376	11.0	78.4
2025-10-01T09:23	10	51	1.4	49	53	374	0.6	373	376	11.0	77.8
2025-10-01T09:24	10	48	0.4	48	49	374	0.2	373	375	11.1	78.1
2025-10-01T09:25	10	49	0.7	48	50	374	0.2	374	374	11.1	78.5
2025-10-01T09:26	10	53	1.4	50	55	374	0.3	373	374	11.1	77.5
2025-10-01T09:27	10	58	1.7	55	61	375	0.4	374	375	11.2	77.5
2025-10-01T09:28	10	65	2.1	61	69	375	0.3	375	376	11.3	77.5
2025-10-01T09:29	10	98	25.3	69	157	377	2.1	374	381	11.2	77.0
2025-10-01T09:30	10	134	37.5	82	177	385	2.3	380	388	11.3	76.7
2025-10-01T09:31	10	123	20.1	86	156	387	1.9	383	389	11.5	77.6
2025-10-01T09:32	10	159	20.8	112	174	389	0.6	387	390	11.6	76.5
2025-10-01T09:33	10	136	26.2	92	176	389	1.8	386	392	11.4	75.6
2025-10-01T09:34	10	117	26.4	86	174	386	1.7	384	390	11.3	75.6
2025-10-01T09:35	10	154	17.3	119	175	390	1.4	387	392	11.5	76.5
2025-10-01T09:36	10	160	11.1	129	173	393	0.7	391	394	11.6	75.8
2025-10-01T09:37	10	82	34.6	56	171	389	4.0	384	396	11.8	76.6
2025-10-01T09:38	10	61	5.4	56	78	384	1.7	381	387	11.9	76.3
2025-10-01T09:39	10	89	26.1	61	143	383	2.0	381	386	11.6	75.7
2025-10-01T09:40	10	131	39.2	70	167	386	3.3	382	391	11.6	75.6
2025-10-01T09:41	10	157	2.9	151	160	390	0.5	389	391	11.6	75.4
2025-10-01T09:42	10	157	0.8	156	159	392	0.6	391	393	11.7	75.3
2025-10-01T09:43	10	156	0.7	154	157	394	1.2	392	396	11.9	74.7
2025-10-01T09:44	10	159	1.7	155	161	397	0.9	395	398	12.1	74.3
2025-10-01T09:45	10	158	2.2	155	161	398	0.4	397	399	12.3	74.4
2025-10-01T09:46	10	154	1.5	151	156	397	1.1	394	399	12.4	73.2
2025-10-01T09:47	10	148	11.6	121	159	392	1.5	390	395	12.4	72.3
2025-10-01T09:48	10	149	14.8	112	159	393	1.1	391	396	12.3	72.2
2025-10-01T09:49	10	155	3.9	148	160	396	0.7	395	398	12.4	72.2
2025-10-01T09:50	10	153	1.3	151	156	393	0.8	392	395	12.0	70.3
2025-10-01T09:51	10	157	0.7	156	158	394	0.5	392	394	11.9	70.0
2025-10-01T09:52	10	158	0.7	157	159	394	0.4	393	395	12.1	70.2
2025-10-01T09:53	10	157	0.6	155	157	393	0.5	392	394	12.2	70.2
2025-10-01T09:54	10	154	1.2	152	155	393	0.2	393	394	12.2	70.2
2025-10-01T09:55	10	153	2.1	151	157	394	0.5	394	396	12.4	70.8
2025-10-01T09:56	10	159	1.6	157	162	393	0.6	392	395	12.2	69.6
2025-10-01T09:57	10	163	0.9	162	165	393	0.7	391	394	12.1	69.5
2025-10-01T09:58	10	167	1.5	164	169	395	0.5	394	396	12.3	70.0
2025-10-01T09:59	10	171	1.7	169	174	395	1.0	394	397	12.1	70.1
2025-10-01T10:00	10	178	2.0	174	181	398	1.2	396	400	12.3	69.2
2025-10-01T10:01	10	181	1.1	177	183	401	0.8	400	403	12.6	69.2
2025-10-01T10:02	10	183	1.1	181	185	404	1.5	402	407	12.7	69.5
2025-10-01T10:03	10	185	0.4	184	186	408	1.5	405	410	12.9	69.7
2025-10-01T10:04	10	187	0.3	186	187	410	0.8	409	412	13.1	69.0
2025-10-01T10:05	10	188	0.7	187	189	405	3.1	401	410	12.6	68.0
2025-10-01T10:06	10	185	13.7	133	193	403	1.2	402	405	12.5	68.7
2025-10-01T10:07	10	178	21.1	124	190	403	1.1	401	405	12.6	68.7
2025-10-01T10:08	10	189	0.8	188	190	407	1.1	404	410	13.0	69.1
2025-10-01T10:09	10	188	0.3	187	188	408	0.5	407	410	12.9	68.1
2025-10-01T10:10	10	186	0.7	185	188	409	0.7	407	410	12.9	68.1
2025-10-01T10:11	10	187	0.8	186	189	408	0.5	407	409	12.8	67.9
2025-10-01T10:12	10	188	0.7	187	189	409	1.3	407	412	13.1	68.3
2025-10-01T10:13	10	189	2.0	179	191	406	2.2	404	412	12.6	67.5
2025-10-01T10:14	10	157	29.9	93	182	407	2.5	400	409	12.8	68.0
2025-10-01T10:15	10	159	23.5	111	176	400	1.2	398	402	12.4	68.1
2025-10-01T10:16	10	170	1.5	164	172	401	0.4	401	402	12.6	68.2
2025-10-01T10:17	10	165	1.3	162	167	402	0.5	401	403	12.7	67.8
2025-10-01T10:18	10	145	25.4	84	171	402	1.3	399	404	12.9	68.3
2025-10-01T10:19	10	65	32.5	44	158	395	5.7	386	404	12.8	68.2
2025-10-01T10:20	10	48	3.2	44	55	385	1.4	383	389	12.4	68.8
2025-10-01T10:21	10	103	31.4	51	164	387	3.7	382	393	12.3	69.1
2025-10-01T10:22	10	57	13.2	43	81	386	3.0	382	392	12.4	69.3
2025-10-01T10:23	10	47	7.8	43	82	382	0.7	381	383	12.3	69.4
2025-10-01T10:24	10	70	29.2	47	141	382	1.7	381	386	12.1	69.4
2025-10-01T10:25	10	107	16.6	80	155	387	1.1	384	389	12.2	69.2
2025-10-01T10:26	10	106	48.2	51	171	391	2.3	386	394	12.2	69.1
2025-10-01T10:27	10	140	33.8	54	170	391	3.4	385	397	12.3	69.1
2025-10-01T10:28	10	87	54.7	41	171	393	4.7	385	400	12.5	69.1
2025-10-01T10:29	10	44	3.9	41	53	384	2.0	381	387	12.5	68.8
2025-10-01T10:30	10	74	28.0	48	137	383	1.6	380	385	12.2	68.1
2025-10-01T10:31	10	76	49.1	46	176	381	2.3	380	389	12.2	68.6
2025-10-01T10:32	10	127	45.4	52	176	390	2.2	386	393	12.3	68.7
2025-10-01T10:33	10	58	17.2	50	126	384	1.5	382	387	12.4	68.5
2025-10-01T10:34	10	111	36.7	58	174	389	1.7	384	392	12.4	68.2
2025-10-01T10:35	10	167	8.0	124	170	395	4.0	386	400	12.5	67.7
2025-10-01T10:36	10	166	1.4	163	168	399	0.6	398	401	12.5	66.7
2025-10-01T10:37	10	165	1.1	164	167	400	0.5	399	401	12.5	66.9
2025-10-01T10:38	10	168	1.8	166	171	404	1.6	401	406	12.6	67.1
2025-10-01T10:39	10	172	0.4	172	173	406	1.0	405	408	12.8	67.7
2025-10-01T10:40	10	172	0.8	170	173	407	1.1	404	408	13.0	67.8
2025-10-01T10:41	10	173	1.2	170	174	409	0.8	408	410	13.4	67.7
2025-10-01T10:42	10	176	0.9	174	177	407	1.0	405	409	13.2	66.1
2025-10-01T10:43	10	177	0.3	176	177	409	0.8	408	410	13.3	66.6
2025-10-01T10:44	10	177	0.4	176	177	409	1.0	408	410	13.2	67.0
2025-10-01T10:45	10	176	0.2	176	176	410	0.9	408	411	13.6	66.9
2025-10-01T10:46	10	176	0.5	175	177	407	0.3	407	408	13.4	66.3
2025-10-01T10:47	10	180	1.0	178	181	408	0.4	407	409	13.5	66.3
2025-10-01T10:48	10	181	0.7	179	182	408	0.5	407	410	13.6	66.4
2025-10-01T10:49	10	173	2.8	166	178	408	1.7	406	411	13.4	65.7
2025-10-01T10:50	10	94	41.7	57	174	400	5.9	392	409	13.1	66.0
2025-10-01T10:51	10	92	43.3	55	174	393	1.9	391	398	13.1	65.7
2025-10-01T10:52	10	159	19.2	116	174	399	1.3	397	401	12.9	64.9
2025-10-01T10:53	10	54	16.7	41	113	390	4.6	384	399	12.8	64.8
2025-10-01T10:54	10	40	1.2	39	43	384	1.5	382	386	12.8	65.7
2025-10-01T10:55	10	99	51.5	43	172	387	4.6	380	394	12.8	65.9
2025-10-01T10:56	10	45	5.4	39	61	385	1.6	382	388	12.9	66.0
2025-10-01T10:57	10	40	4.3	37	53	381	0.8	380	383	12.8	66.1
2025-10-01T10:58	10	96	50.4	41	170	387	5.2	379	394	12.8	66.9
2025-10-01T10:59	10	83	48.1	41	168	388	3.5	384	395	12.8	66.7
2025-10-01T11:00	10	61	25.7	32	116	390	1.6	387	393	12.9	67.3
2025-10-01T11:01	10	81	52.0	32	161	387	3.9	383	395	13.0	67.7
2025-10-01T11:02	10	71	32.6	42	146	390	2.9	387	396	13.0	67.5
2025-10-01T11:03	10	158	8.5	119	163	396	4.1	387	401	13.1	66.6
2025-10-01T11:04	10	159	0.4	159	160	403	1.7	399	405	13.3	67.2
2025-10-01T11:05	10	144	17.5	102	161	401	2.1	398	405	13.5	67.2
2025-10-01T11:06	10	160	0.3	160	161	403	0.6	402	404	13.3	65.3
2025-10-01T11:07	10	160	0.8	158	161	405	1.0	403	407	13.3	64.8
2025-10-01T11:08	10	161	0.2	161	162	408	1.2	406	410	13.4	65.3
2025-10-01T11:09	10	160	0.9	158	161	411	0.4	410	411	13.7	65.4
2025-10-01T11:10	10	157	0.6	156	158	410	0.4	409	411	14.0	66.1
2025-10-01T11:11	10	157	0.7	155	158	409	0.6	408	410	14.1	65.7
2025-10-01T11:12	10	155	1.4	151	157	409	0.7	407	411	14.1	65.3
2025-10-01T11:13	10	157	0.3	156	157	409	0.8	408	410	14.2	65.2
2025-10-01T11:14	10	157	0.2	157	158	409	1.0	408	412	14.1	63.8
2025-10-01T11:15	10	157	0.2	157	158	408	2.2	406	412	13.8	64.9
2025-10-01T11:16	10	157	0.6	155	157	408	1.1	406	410	13.9	65.4
2025-10-01T11:17	10	156	0.3	155	156	404	1.5	402	406	13.5	64.1
2025-10-01T11:18	10	155	0.2	155	156	405	0.7	403	406	13.7	64.8
2025-10-01T11:19	10	155	0.4	154	156	405	0.9	404	407	13.9	63.8
2025-10-01T11:20	10	158	1.1	156	160	405	0.6	404	406	14.0	64.3
2025-10-01T11:21	10	160	3.7	150	164	408	1.2	405	410	13.9	64.6
2025-10-01T11:22	10	120	44.9	45	166	407	5.3	399	413	14.0	64.2
2025-10-01T11:23	10	115	47.6	44	164	401	2.6	396	404	13.4	63.4
2025-10-01T11:24	10	145	21.8	103	163	405	1.6	402	407	13.6	64.4
2025-10-01T11:25	10	132	36.6	58	160	402	1.6	399	405	13.7	64.5
2025-10-01T11:26	10	157	0.2	157	157	403	0.7	402	404	13.5	64.2
2025-10-01T11:27	10	156	0.6	155	157	403	0.4	403	404	13.5	64.5
2025-10-01T11:28	10	158	0.9	156	160	406	0.9	403	407	13.5	64.0
2025-10-01T11:29	10	161	0.7	160	162	406	0.7	405	408	13.7	64.2
2025-10-01T11:30	10	165	2.1	162	168	405	0.5	404	406	13.6	63.4
2025-10-01T11:31	10	165	10.2	133	172	406	1.2	404	407	13.6	63.3
2025-10-01T11:32	10	164	18.2	117	180	405	2.1	403	409	13.6	63.6
2025-10-01T11:33	10	65	26.6	46	157	398	6.9	390	411	13.5	63.2
2025-10-01T11:34	10	90	52.1	50	175	391	3.0	387	398	13.2	63.5
2025-10-01T11:35	10	116	56.4	46	176	400	2.9	395	405	13.3	64.0
2025-10-01T11:36	10	144	48.2	48	174	399	3.7	393	404	13.5	64.0
2025-10-01T11:37	10	173	0.6	172	174	406	2.4	402	410	13.7	64.1
2025-10-01T11:38	10	149	32.1	90	175	408	2.2	404	411	13.9	64.2
2025-10-01T11:39	10	139	33.7	68	171	407	1.8	402	409	13.9	63.7
2025-10-01T11:40	10	61	34.2	35	147	396	5.4	389	404	13.6	64.2
2025-10-01T11:41	10	101	54.7	31	159	393	4.6	388	400	13.7	64.8
2025-10-01T11:42	10	156	6.9	143	162	401	1.9	398	404	13.5	64.4
2025-10-01T11:43	10	157	6.4	145	163	403	1.1	401	404	13.5	64.5
2025-10-01T11:44	10	150	12.4	117	161	403	1.6	401	406	13.5	64.6
2025-10-01T11:45	10	142	17.1	107	159	403	1.6	401	406	13.9	64.9
2025-10-01T11:46	10	157	2.2	149	158	401	0.4	400	401	13.5	64.4
2025-10-01T11:47	10	135	31.2	40	159	403	0.9	400	404	13.7	64.8
2025-10-01T11:48	10	42	9.8	34	68	395	3.1	390	402	13.9	65.0
2025-10-01T11:49	10	116	20.7	72	141	394	1.5	390	397	13.7	64.2
2025-10-01T11:50	10	134	25.7	58	160	399	1.8	395	401	13.9	65.1
2025-10-01T11:51	10	80	33.2	32	131	396	1.5	393	399	13.8	64.6
2025-10-01T11:52	10	117	52.8	30	159	397	5.2	390	404	13.6	65.2
2025-10-01T11:53	10	130	43.0	34	156	399	2.1	395	402	13.6	63.8
2025-10-01T11:54	10	157	0.9	156	159	403	1.5	401	406	13.7	63.7
2025-10-01T11:55	10	161	1.0	159	162	409	1.4	405	411	13.9	63.3
2025-10-01T11:56	10	147	20.4	99	162	411	1.3	408	413	14.1	63.8
2025-10-01T11:57	10	156	8.4	126	163	407	0.7	406	409	14.3	62.7
2025-10-01T11:58	10	89	55.7	29	161	402	6.4	393	410	14.0	62.3
2025-10-01T11:59	10	157	5.4	127	159	403	3.3	395	407	14.1	63.2
2025-10-01T12:00	10	158	1.2	156	160	404	0.8	402	405	14.0	62.6
2025-10-01T12:01	10	161	1.1	159	163	405	0.6	404	407	13.9	62.7
2025-10-01T12:02	10	163	1.7	158	165	406	0.8	405	408	13.8	62.4
2025-10-01T12:03	10	155	11.9	120	165	409	1.3	407	411	14.0	63.0
2025-10-01T12:04	10	104	39.6	44	165	405	4.4	400	413	14.1	62.9
2025-10-01T12:05	10	52	6.8	45	72	398	2.5	394	404	14.2	63.5
2025-10-01T12:06	10	101	33.5	50	164	399	2.6	394	402	14.4	64.0
2025-10-01T12:07	10	123	39.9	49	166	399	3.6	393	403	14.1	63.4
2025-10-01T12:08	10	117	33.7	65	160	400	2.2	396	404	14.1	63.7
2025-10-01T12:09	10	160	0.7	158	161	403	0.6	402	404	14.1	63.7
2025-10-01T12:10	10	162	0.9	160	163	405	0.9	403	407	14.0	64.1
2025-10-01T12:11	10	156	9.5	134	165	404	1.6	402	406	14.1	63.4
2025-10-01T12:12	10	101	39.8	58	161	400	3.9	394	405	13.9	62.7
2025-10-01T12:13	10	47	5.9	39	66	393	2.6	389	398	13.9	63.3
2025-10-01T12:14	10	128	34.2	52	162	395	3.8	388	400	13.9	63.7
2025-10-01T12:15	10	100	31.8	48	146	397	2.4	394	401	13.9	63.9
2025-10-01T12:16	10	147	22.7	76	160	403	2.6	398	407	14.0	63.4
2025-10-01T12:17	10	140	25.9	66	158	402	1.5	400	405	14.1	62.4
2025-10-01T12:18	10	153	3.8	133	157	405	1.1	403	407	14.1	62.2
2025-10-01T12:19	10	74	24.0	40	127	399	4.0	393	407	14.2	62.6
2025-10-01T12:20	10	86	47.6	33	156	395	3.4	392	403	14.3	62.9
2025-10-01T12:21	10	98	42.6	37	150	401	2.5	395	404	14.4	63.7
2025-10-01T12:22	10	114	50.0	36	160	396	3.6	391	402	14.3	63.4
2025-10-01T12:23	10	156	0.9	155	158	402	1.2	400	404	14.0	63.3
2025-10-01T12:24	10	156	0.8	154	157	404	0.8	403	406	13.9	63.7
2025-10-01T12:25	10	155	0.4	154	156	409	1.7	406	412	14.2	64.8
2025-10-01T12:26	10	154	0.5	153	155	412	0.4	410	412	14.6	64.6
2025-10-01T12:27	10	152	2.4	144	154	409	1.0	407	410	14.4	63.3
2025-10-01T12:28	10	150	1.1	148	152	404	1.6	402	408	14.3	63.2
2025-10-01T12:29	10	143	12.3	109	156	403	0.4	402	404	14.2	62.9
2025-10-01T12:30	10	139	24.6	89	157	403	1.0	401	405	14.0	63.3
2025-10-01T12:31	10	112	42.4	40	150	399	1.6	395	402	14.2	63.9
2025-10-01T12:32	10	144	4.1	135	150	402	0.9	401	404	14.1	64.3
2025-10-01T12:33	10	146	1.6	140	148	407	1.5	404	409	14.3	64.2
2025-10-01T12:34	10	118	37.5	49	155	401	2.6	397	407	14.1	63.5
2025-10-01T12:35	10	139	9.5	120	152	403	0.9	402	404	14.2	64.3
2025-10-01T12:36	10	152	0.5	151	153	403	1.0	401	404	14.1	64.0
2025-10-01T12:37	10	150	0.9	148	151	402	0.4	401	402	13.9	64.1
2025-10-01T12:38	10	149	0.3	148	149	403	1.1	401	404	14.1	64.4
2025-10-01T12:39	10	145	10.3	105	151	403	1.0	400	405	14.0	62.8
2025-10-01T12:40	10	103	32.5	42	144	399	1.9	394	401	13.8	62.7
2025-10-01T12:41	10	144	16.8	65	154	401	3.1	394	404	14.1	63.3
2025-10-01T12:42	10	101	44.1	35	153	397	3.1	392	403	14.1	62.0
2025-10-01T12:43	10	140	13.4	113	151	401	1.9	398	405	14.1	61.5
2025-10-01T12:44	10	149	1.3	147	151	405	0.8	404	406	14.3	62.0
2025-10-01T12:45	10	151	0.4	150	151	406	0.4	405	406	14.6	62.3
2025-10-01T12:46	10	148	2.0	143	151	404	0.4	404	405	14.3	62.0
2025-10-01T12:47	10	135	8.4	111	147	402	1.7	400	405	14.2	62.2
2025-10-01T12:48	10	145	1.1	144	147	402	0.4	401	403	14.2	62.2
2025-10-01T12:49	10	145	0.5	144	145	403	1.6	401	406	14.4	62.2
2025-10-01T12:50	10	144	0.9	143	145	407	0.6	406	408	14.7	62.5
2025-10-01T12:51	10	141	0.7	140	143	406	0.3	405	407	14.5	62.1
2025-10-01T12:52	10	141	1.6	139	144	405	1.3	402	406	14.4	61.9
2025-10-01T12:53	10	144	0.7	142	144	404	1.0	402	406	14.4	62.2
2025-10-01T12:54	10	142	0.7	140	143	405	1.7	402	408	14.6	61.7
2025-10-01T12:55	10	143	0.4	142	144	403	0.5	402	404	14.5	61.3
2025-10-01T12:56	10	142	0.5	141	143	403	0.5	402	404	14.4	60.8
2025-10-01T12:57	10	138	1.4	136	140	403	0.6	401	403	14.4	60.7
2025-10-01T12:58	10	139	0.6	138	140	402	0.8	401	403	14.3	60.5
2025-10-01T12:59	10	141	0.2	140	141	403	0.4	402	404	14.4	60.8
2025-10-01T13:00	10	140	0.4	139	141	404	0.8	403	406	14.6	61.2
2025-10-01T13:01	10	138	1.0	136	139	404	0.9	403	406	14.5	61.0
2025-10-01T13:02	10	137	0.6	137	139	404	1.0	402	406	14.5	61.8
2025-10-01T13:03	10	137	0.4	137	138	403	0.7	402	404	14.3	62.6
2025-10-01T13:04	10	138	0.2	137	138	404	0.5	403	405	14.2	62.6
2025-10-01T13:05	10	138	0.2	138	139	404	0.8	403	406	14.3	62.9
2025-10-01T13:06	10	138	0.2	137	138	407	0.4	406	407	14.6	63.6
2025-10-01T13:07	10	137	0.2	136	137	408	0.7	406	409	14.8	63.0
2025-10-01T13:08	10	137	1.0	137	144	407	1.2	404	408	14.8	62.6
2025-10-01T13:09	10	137	0.3	136	137	403	1.1	402	405	14.4	62.6
2025-10-01T13:10	10	136	0.3	136	137	403	0.3	402	404	14.4	62.7
2025-10-01T13:11	10	137	0.8	136	141	402	0.9	401	404	14.4	62.8
2025-10-01T13:12	10	134	0.8	133	136	403	1.5	400	405	14.5	63.8
2025-10-01T13:13	10	133	0.3	133	134	404	1.0	402	406	14.8	63.3
2025-10-01T13:14	10	123	9.9	98	132	401	0.7	400	402	14.3	62.8
2025-10-01T13:15	10	128	6.5	113	133	401	0.4	401	402	14.3	63.2
2025-10-01T13:16	10	133	0.7	132	134	402	0.8	401	404	14.4	63.8
2025-10-01T13:17	10	134	0.2	134	135	405	1.2	403	407	14.6	63.8
2025-10-01T13:18	10	134	0.3	134	135	405	0.8	403	407	14.8	62.6
2025-10-01T13:19	10	133	0.7	132	134	402	0.8	401	404	14.4	61.8
2025-10-01T13:20	10	132	0.2	131	132	404	0.5	403	405	14.6	61.8
2025-10-01T13:21	10	131	0.3	131	132	403	1.2	401	405	14.6	61.2
2025-10-01T13:22	10	131	0.2	131	132	401	0.4	400	402	14.3	60.9
2025-10-01T13:23	10	132	0.2	131	132	401	0.5	400	402	14.5	61.0
2025-10-01T13:24	10	131	0.3	130	131	402	0.4	401	403	14.7	61.0
2025-10-01T13:25	10	132	0.4	131	132	404	0.9	402	405	14.7	61.3
2025-10-01T13:26	10	131	0.6	130	132	404	0.7	403	406	14.9	61.5
2025-10-01T13:27	10	130	0.1	130	131	403	0.7	402	404	14.8	61.5
2025-10-01T13:28	10	131	0.2	130	131	401	0.8	400	403	14.4	61.4
2025-10-01T13:29	10	130	0.6	129	131	401	0.5	400	402	14.4	61.9
2025-10-01T13:30	10	128	0.7	127	129	401	0.6	399	402	14.4	62.3
2025-10-01T13:31	10	129	0.2	128	129	401	0.6	400	402	14.4	62.2
2025-10-01T13:32	10	128	0.3	128	129	399	0.4	399	400	14.2	61.7
2025-10-01T13:33	10	127	0.2	127	128	399	0.3	399	400	14.2	61.8
2025-10-01T13:34	10	128	0.1	128	128	400	0.8	399	402	14.4	62.0
2025-10-01T13:35	10	128	0.1	127	128	401	0.4	400	402	14.5	61.4
2025-10-01T13:36	10	127	0.1	127	128	402	0.8	401	403	14.6	61.7
2025-10-01T13:37	10	127	0.1	127	127	403	0.4	402	404	14.7	61.5
2025-10-01T13:38	10	127	0.2	127	127	401	1.3	399	403	14.6	60.5
2025-10-01T13:39	10	126	0.3	126	127	401	0.5	400	402	14.5	60.6
2025-10-01T13:40	10	126	0.1	126	126	400	0.7	399	401	14.5	60.5
2025-10-01T13:41	10	126	0.2	125	126	399	0.5	398	400	14.5	60.8
2025-10-01T13:42	10	126	0.2	125	126	400	0.5	399	401	14.4	61.3
2025-10-01T13:43	10	124	0.6	123	125	401	0.4	400	402	14.6	62.2
2025-10-01T13:44	10	124	0.1	124	124	401	0.7	400	403	14.6	61.6
2025-10-01T13:45	10	124	0.2	123	124	402	1.2	400	404	14.8	61.2
2025-10-01T13:46	10	124	0.1	123	124	400	0.5	399	401	14.6	60.7
2025-10-01T13:47	10	123	0.2	123	124	400	0.7	399	402	14.7	60.8
2025-10-01T13:48	10	122	0.3	122	123	399	0.6	399	401	14.7	61.2
2025-10-01T13:49	10	122	0.1	122	122	399	0.5	398	401	14.5	61.2
2025-10-01T13:50	10	122	0.1	121	122	401	0.8	400	403	14.8	61.8
2025-10-01T13:51	10	121	0.2	121	122	402	0.4	401	403	14.9	61.7
2025-10-01T13:52	10	121	0.2	120	121	401	1.3	400	404	14.8	60.6
2025-10-01T13:53	10	121	0.3	121	122	398	1.0	397	400	14.6	60.3
2025-10-01T13:54	10	120	0.2	120	121	398	0.4	397	398	14.4	60.7
2025-10-01T13:55	10	121	0.3	120	121	398	0.6	397	399	14.5	60.7
2025-10-01T13:56	10	120	0.2	120	121	397	0.4	396	398	14.5	60.3
2025-10-01T13:57	10	119	0.4	119	120	397	0.9	395	398	14.4	60.0
2025-10-01T13:58	10	119	0.1	119	119	398	0.5	397	399	14.6	60.3
2025-10-01T13:59	10	119	0.2	118	119	398	0.5	397	398	14.6	60.8
2025-10-01T14:00	10	118	0.2	118	118	397	0.4	396	398	14.5	60.6
2025-10-01T14:01	10	117	0.2	117	118	398	0.7	396	399	14.5	61.0
2025-10-01T14:02	10	117	0.8	115	118	398	0.4	397	399	14.5	61.3
2025-10-01T14:03	10	117	0.2	117	118	398	0.8	397	400	14.5	61.3
2025-10-01T14:04	10	115	1.9	108	117	399	0.2	399	400	14.6	61.3
2025-10-01T14:05	10	104	4.5	94	109	398	0.4	397	399	14.8	61.1
2025-10-01T14:06	10	108	1.3	106	110	396	0.7	395	397	14.6	59.9
2025-10-01T14:07	10	110	0.5	110	112	395	0.5	394	396	14.5	59.4
2025-10-01T14:08	10	113	1.3	111	115	395	0.8	394	396	14.5	59.1
2025-10-01T14:09	10	113	0.3	113	114	395	0.7	394	397	14.6	59.2
2025-10-01T14:10	10	113	0.4	113	114	396	0.6	395	397	14.6	59.2
2025-10-01T14:11	10	114	0.2	114	115	397	0.4	396	397	14.7	59.7
2025-10-01T14:12	10	113	0.3	113	114	397	0.2	396	397	14.7	59.5
2025-10-01T14:13	10	112	0.4	112	113	396	0.5	394	396	14.5	59.4
2025-10-01T14:14	10	112	0.3	111	112	395	0.6	394	397	14.5	60.0
2025-10-01T14:15	10	112	0.2	112	112	396	0.5	395	398	14.6	60.4
2025-10-01T14:16	10	111	0.2	111	112	398	0.4	397	399	14.8	61.3
2025-10-01T14:17	10	111	0.2	111	112	398	0.3	398	399	14.9	61.1
2025-10-01T14:18	10	111	0.2	110	111	396	0.8	395	398	14.7	59.1
2025-10-01T14:19	10	110	0.1	110	111	395	0.4	394	396	14.6	59.0
2025-10-01T14:20	10	110	0.3	109	111	396	0.4	395	396	14.6	59.3
2025-10-01T14:21	10	109	0.4	108	110	395	0.6	394	396	14.7	59.6
2025-10-01T14:22	10	109	0.4	108	110	396	0.6	394	397	14.6	58.9
2025-10-01T14:23	10	109	0.2	109	110	396	0.4	395	397	14.6	59.0
2025-10-01T14:24	10	109	0.3	108	109	396	0.3	395	397	14.7	58.9
2025-10-01T14:25	10	108	0.1	108	108	397	0.2	397	397	14.8	58.8
2025-10-01T14:26	10	108	0.2	107	108	396	0.4	396	397	14.9	59.3
2025-10-01T14:27	10	107	0.1	107	108	396	0.6	395	398	14.9	58.9
2025-10-01T14:28	10	107	0.2	107	108	395	0.5	394	396	14.7	57.8
2025-10-01T14:29	10	106	0.7	104	107	394	0.3	393	395	14.7	58.1
2025-10-01T14:30	10	101	3.5	94	105	393	0.4	393	395	14.6	57.8
2025-10-01T14:31	10	101	4.0	94	104	392	0.4	392	394	14.6	57.2
2025-10-01T14:32	10	99	2.7	94	104	393	0.4	393	394	14.6	57.8
2025-10-01T14:33	10	92	4.2	85	99	393	0.7	392	394	14.7	58.2
2025-10-01T14:34	10	100	0.7	99	101	393	0.6	392	394	14.7	58.4
2025-10-01T14:35	10	102	0.4	101	103	394	0.4	394	395	14.8	58.7
2025-10-01T14:36	10	102	0.2	101	103	394	0.8	393	395	14.8	58.8
2025-10-01T14:37	10	101	0.4	100	102	392	0.7	391	393	14.7	57.9
2025-10-01T14:38	10	100	0.2	100	101	391	0.3	391	393	14.6	58.4
2025-10-01T14:39	10	100	0.2	100	101	391	0.3	391	392	14.6	59.0
2025-10-01T14:40	10	100	0.3	99	100	392	0.2	392	392	14.6	58.9
2025-10-01T14:41	10	100	0.3	99	100	392	0.3	391	393	14.6	58.4
2025-10-01T14:42	10	99	0.1	99	100	392	0.4	391	393	14.6	58.8
2025-10-01T14:43	10	99	0.1	99	100	392	0.8	391	394	14.6	58.8
2025-10-01T14:44	10	100	0.2	99	100	394	0.3	394	395	14.8	58.9
2025-10-01T14:45	10	99	0.8	97	100	393	0.6	392	394	14.7	57.9
2025-10-01T14:46	10	81	11.3	65	99	390	1.3	388	393	14.6	57.3
2025-10-01T14:47	10	98	0.5	97	99	390	0.6	389	391	14.5	57.0
2025-10-01T14:48	10	97	0.2	97	98	391	0.4	391	393	14.6	57.7
2025-10-01T14:49	10	97	0.3	96	97	392	0.5	391	393	14.6	57.8
2025-10-01T14:50	10	96	0.2	95	96	392	0.5	391	393	14.7	57.8
2025-10-01T14:51	10	95	0.4	94	95	391	0.5	390	392	14.6	56.8
2025-10-01T14:52	10	94	0.3	94	95	390	0.4	389	391	14.6	55.5
2025-10-01T14:53	10	94	0.2	93	94	390	0.4	389	391	14.6	56.3
2025-10-01T14:54	10	94	0.2	93	94	391	0.3	390	391	14.7	57.7
2025-10-01T14:55	10	93	0.6	91	94	391	0.4	391	392	14.7	56.5
2025-10-01T14:56	10	93	0.2	92	93	391	0.3	391	392	14.6	56.3
2025-10-01T14:57	10	92	0.2	92	93	391	0.4	390	392	14.6	56.9
2025-10-01T14:58	10	91	0.3	91	92	390	0.4	389	391	14.6	57.6
2025-10-01T14:59	10	91	0.3	90	91	389	0.3	388	390	14.6	57.8
2025-10-01T15:00	10	90	0.3	90	91	390	0.3	389	390	14.6	58.1
2025-10-01T15:01	10	89	0.2	89	90	390	0.2	390	391	14.6	58.8
2025-10-01T15:02	10	89	0.2	88	89	390	0.3	389	390	14.6	58.4
2025-10-01T15:03	10	88	0.3	88	89	389	0.3	388	390	14.5	57.6
2025-10-01T15:04	10	88	0.2	87	88	389	0.2	388	390	14.5	58.1
2025-10-01T15:05	10	87	0.3	86	88	388	0.5	387	389	14.5	56.6
2025-10-01T15:06	10	86	0.3	86	87	388	0.3	387	389	14.5	57.4
2025-10-01T15:07	10	85	0.3	85	86	389	0.5	388	390	14.6	57.8
2025-10-01T15:08	10	85	0.2	85	85	389	0.3	389	390	14.6	58.4
2025-10-01T15:09	10	85	0.2	84	85	389	0.4	388	390	14.6	57.7
2025-10-01T15:10	10	84	0.4	83	85	388	0.5	387	389	14.5	56.6
2025-10-01T15:11	10	83	0.2	83	84	388	0.3	387	389	14.5	57.0
2025-10-01T15:12	10	84	0.2	83	84	388	0.3	387	388	14.5	57.0
2025-10-01T15:13	10	83	0.4	82	84	387	0.4	386	388	14.5	56.6
2025-10-01T15:14	10	82	0.2	82	82	386	0.3	386	387	14.5	56.7
2025-10-01T15:15	10	81	0.3	81	82	386	0.2	385	387	14.5	57.0
2025-10-01T15:16	10	80	0.2	80	81	387	0.3	386	388	14.5	56.5
2025-10-01T15:17	10	80	0.1	80	81	387	0.6	386	388	14.5	56.2
2025-10-01T15:18	10	80	0.3	79	81	387	0.3	387	388	14.5	56.4
2025-10-01T15:19	10	79	0.4	78	80	386	0.2	386	387	14.5	56.1
2025-10-01T15:20	10	78	0.3	77	78	386	0.3	385	387	14.5	56.4
2025-10-01T15:21	10	77	0.2	77	78	386	0.2	386	387	14.5	57.3
2025-10-01T15:22	10	77	0.2	76	77	386	0.2	385	387	14.5	58.2
2025-10-01T15:23	10	76	0.2	76	77	386	0.5	385	387	14.4	57.3
2025-10-01T15:24	10	75	0.2	75	76	385	0.3	384	386	14.4	57.8
2025-10-01T15:25	10	75	0.2	75	76	385	0.3	384	386	14.4	58.6
2025-10-01T15:26	10	75	0.2	74	75	385	0.3	385	386	14.5	58.5
2025-10-01T15:27	10	74	0.2	74	75	384	0.4	384	385	14.4	57.5
2025-10-01T15:28	10	74	0.3	73	74	384	0.2	383	384	14.4	57.8
2025-10-01T15:29	10	73	0.2	73	74	385	0.2	384	385	14.5	58.7
2025-10-01T15:30	10	73	0.3	72	74	385	0.3	384	386	14.4	58.5
2025-10-01T15:31	10	72	0.2	71	72	384	0.4	383	385	14.4	57.6
2025-10-01T15:32	10	71	0.2	71	72	383	0.4	383	384	14.4	57.5
2025-10-01T15:33	10	70	0.3	70	71	384	0.2	383	384	14.4	57.6
2025-10-01T15:34	10	70	0.3	69	70	383	0.3	383	384	14.4	57.8
2025-10-01T15:35	10	69	0.3	68	70	383	0.2	383	384	14.4	57.6
2025-10-01T15:36	10	68	0.3	67	68	382	0.3	381	383	14.4	57.0
2025-10-01T15:37	10	67	0.2	67	68	382	0.4	382	383	14.4	57.1
2025-10-01T15:38	10	67	0.2	66	67	382	0.3	381	382	14.3	56.2
2025-10-01T15:39	10	66	0.3	65	67	381	0.2	381	382	14.3	55.9
2025-10-01T15:40	10	65	0.4	64	66	381	0.3	380	381	14.2	55.8
2025-10-01T15:41	10	64	0.2	63	64	380	0.3	380	381	14.2	56.1
2025-10-01T15:42	10	64	0.2	63	64	381	0.3	380	381	14.3	57.1
2025-10-01T15:43	10	63	0.2	63	63	381	0.3	380	382	14.3	57.6
2025-10-01T15:44	10	62	0.3	62	63	381	0.3	380	382	14.3	57.2
2025-10-01T15:45	10	62	0.2	61	62	380	0.2	380	381	14.3	57.6
2025-10-01T15:46	10	61	0.2	61	62	380	0.3	379	381	14.2	57.2
2025-10-01T15:47	10	61	0.2	60	61	380	0.2	380	381	14.2	58.1
2025-10-01T15:48	10	60	0.2	60	61	380	0.3	380	381	14.2	58.5
2025-10-01T15:49	10	60	0.2	59	60	380	0.2	379	380	14.2	58.2
2025-10-01T15:50	10	59	0.3	58	60	380	0.3	379	380	14.2	58.5
2025-10-01T15:51	10	58	0.3	57	59	379	0.2	379	380	14.2	58.3
2025-10-01T15:52	10	57	0.2	57	58	379	0.3	379	380	14.2	58.6
2025-10-01T15:53	10	57	0.2	56	57	379	0.2	379	380	14.1	58.9
2025-10-01T15:54	10	56	0.3	56	57	379	0.2	378	379	14.1	58.5
2025-10-01T15:55	10	56	0.2	55	56	379	0.2	378	379	14.1	58.5
2025-10-01T15:56	10	55	0.3	54	56	378	0.2	378	379	14.1	57.4
2025-10-01T15:57	10	55	0.4	54	56	378	0.2	377	378	14.1	57.4
2025-10-01T15:58	10	52	0.6	51	54	378	0.2	377	378	14.1	56.9
2025-10-01T15:59	10	52	0.7	50	53	377	0.3	376	378	14.1	56.0
2025-10-01T16:00	10	50	1.1	49	52	377	0.2	376	377	14.1	56.6
2025-10-01T16:01	10	50	0.6	49	52	377	0.2	376	377	14.1	56.8
2025-10-01T16:02	10	50	0.7	48	51	376	0.3	376	377	14.1	56.9
2025-10-01T16:03	10	46	0.8	44	48	376	0.3	375	376	14.0	57.4
2025-10-01T16:04	10	47	1.0	46	49	376	0.3	375	377	14.0	57.8
2025-10-01T16:05	10	46	0.5	45	47	376	0.3	375	377	14.0	56.8
2025-10-01T16:06	10	45	1.1	43	47	375	0.3	375	376	14.0	57.9
2025-10-01T16:07	10	40	2.8	37	45	375	0.4	374	376	14.0	57.4
2025-10-01T16:08	10	39	1.7	36	42	375	0.2	374	375	13.9	57.3
2025-10-01T16:09	10	42	3.1	37	45	374	0.3	374	375	14.0	56.8
2025-10-01T16:10	10	45	0.2	45	46	374	0.2	374	375	14.0	57.3
2025-10-01T16:11	10	45	0.3	44	45	374	0.3	374	375	13.9	57.8
2025-10-01T16:12	10	44	0.3	43	44	374	0.3	374	375	13.9	57.9
2025-10-01T16:13	10	43	0.3	42	44	374	0.2	373	374	13.9	57.7
2025-10-01T16:14	10	42	0.3	42	43	374	0.3	373	374	13.9	57.2
2025-10-01T16:15	10	42	0.2	41	42	374	0.3	373	374	13.9	58.3
2025-10-01T16:16	10	41	0.3	40	41	374	0.3	373	374	13.8	58.7
2025-10-01T16:17	10	40	0.3	39	40	373	0.3	373	374	13.8	58.7
2025-10-01T16:18	10	39	0.3	38	39	373	0.3	372	373	13.8	59.0
2025-10-01T16:19	10	38	0.3	37	38	373	0.4	372	373	13.8	58.6
2025-10-01T16:20	10	37	0.2	37	38	373	0.2	372	373	13.9	57.9
2025-10-01T16:21	10	36	0.3	36	37	372	0.2	372	373	13.8	58.7
2025-10-01T16:22	10	36	0.3	35	36	372	0.3	371	373	13.8	58.6
2025-10-01T16:23	10	35	0.3	34	35	372	0.2	371	372	13.7	59.1
2025-10-01T16:24	10	33	0.4	33	34	372	0.3	371	372	13.7	59.3
2025-10-01T16:25	10	32	0.4	32	33	371	0.2	370	371	13.6	60.2
2025-10-01T16:26	10	32	0.2	31	32	371	0.2	370	371	13.6	60.0
2025-10-01T16:27	10	31	0.3	30	31	371	0.2	370	371	13.7	59.3
2025-10-01T16:28	10	30	0.3	30	31	371	0.3	370	371	13.7	59.5
2025-10-01T16:29	10	30	0.2	29	30	370	0.3	370	371	13.7	59.5
2025-10-01T16:30	10	29	0.2	29	30	370	0.2	369	370	13.6	60.0
2025-10-01T16:31	10	28	0.2	28	29	370	0.3	369	371	13.6	59.3
2025-10-01T16:32	10	27	0.2	27	28	370	0.2	369	370	13.7	59.3
2025-10-01T16:33	10	27	0.3	26	27	369	0.3	368	370	13.6	59.6
2025-10-01T16:34	10	25	0.3	25	26	368	0.3	368	369	13.5	60.5
2025-10-01T16:35	10	25	0.2	25	25	368	0.2	368	369	13.5	60.4
2025-10-01T16:36	10	25	0.1	24	25	368	0.2	368	369	13.5	60.2
2025-10-01T16:37	10	24	0.4	23	24	368	0.2	367	368	13.5	60.3
2025-10-01T16:38	10	22	0.2	22	23	367	0.2	367	368	13.5	60.3
2025-10-01T16:39	10	22	0.2	21	22	367	0.2	367	368	13.5	60.4
2025-10-01T16:40	10	21	0.2	21	21	366	0.2	366	367	13.4	61.2
2025-10-01T16:41	10	20	0.3	20	21	366	0.3	366	367	13.4	60.5
2025-10-01T16:42	10	19	0.2	19	20	366	0.3	366	367	13.4	60.8
2025-10-01T16:43	10	18	0.3	18	19	365	0.3	365	366	13.3	61.3
2025-10-01T16:44	10	17	0.3	17	18	365	0.3	364	365	13.2	61.8
2025-10-01T16:45	10	16	0.3	16	17	364	0.3	364	365	13.2	61.3
2025-10-01T16:46	10	15	0.8	13	16	364	0.3	363	365	13.2	61.5
2025-10-01T16:47	10	12	0.4	12	13	364	0.2	364	365	13.2	60.9
2025-10-01T16:48	10	9	1.4	7	12	364	0.3	363	364	13.1	61.5
2025-10-01T16:49	10	5	0.9	4	7	363	0.3	363	364	13.1	61.0
2025-10-01T16:50	10	4	0.1	4	4	363	0.4	363	364	13.1	60.8
2025-10-01T16:51	10	4	0.1	4	4	363	0.4	363	364	13.1	60.9
2025-10-01T16:52	10	5	0.2	4	5	362	0.3	362	363	13.1	61.1
2025-10-01T16:53	10	4	0.3	4	5	362	0.3	361	362	12.9	61.7
2025-10-01T16:54	10	3	0.2	3	4	362	0.2	361	362	13.0	61.1
2025-10-01T16:55	10	3	0.2	2	3	362	0.3	361	362	12.9	61.2
2025-10-01T16:56	10	2	0.1	2	3	361	0.3	360	362	12.9	61.5
2025-10-01T16:57	10	2	0.1	2	3	362	0.6	361	363	12.9	60.8
2025-10-01T16:58	10	2	0.1	2	2	362	0.3	362	363	13.1	59.5
2025-10-01T16:59	10	2	0.1	2	2	362	0.4	361	362	13.0	59.8
2025-10-01T17:00	10	2	0.1	2	2	362	0.4	361	362	12.9	60.4
2025-10-01T17:01	10	2	0.1	2	2	361	0.3	361	362	12.8	61.0
2025-10-01T17:02	10	2	0.1	2	2	361	0.5	360	362	12.9	60.4
2025-10-01T17:03	10	2	0.1	1	2	362	0.2	361	362	13.0	59.4
2025-10-01T17:04	10	2	0.0	1	2	361	0.3	361	362	12.9	59.8
2025-10-01T17:05	10	1	0.1	1	2	361	0.3	360	362	12.9	60.0
2025-10-01T17:06	10	1	0.1	1	2	361	0.3	360	361	12.9	60.4
2025-10-01T17:07	10	1	0.1	1	1	360	0.2	360	361	12.8	60.8
2025-10-01T17:08	10	1	0.1	1	1	360	0.4	359	361	12.8	61.0
2025-10-01T17:09	10	1	0.1	1	1	359	0.4	359	360	12.7	61.2
2025-10-01T17:10	10	1	0.1	1	1	359	0.3	359	360	12.7	61.5
2025-10-01T17:11	10	1	0.1	1	1	359	0.4	358	359	12.6	61.8
2025-10-01T17:12	10	1	0.1	1	1	358	0.3	357	358	12.6	61.7
2025-10-01T17:13	10	1	0.1	0	1	357	0.5	357	359	12.6	62.3
2025-10-01T17:14	10	1	0.1	0	1	359	0.3	358	359	12.6	62.0
2025-10-01T17:15	10	1	0.1	0	1	359	0.3	358	360	12.6	62.0
2025-10-01T17:16	10	1	0.1	0	1	359	0.3	358	359	12.6	62.0
2025-10-01T17:17	10	1	0.1	0	1	358	0.4	357	359	12.5	62.8
2025-10-01T17:18	10	0	0.1	0	1	359	0.3	358	359	12.5	62.7
2025-10-01T17:19	10	0	0.1	0	1	358	0.3	358	359	12.4	63.0
2025-10-01T17:20	10	0	0.1	0	1	359	0.3	358	360	12.5	62.5
2025-10-01T17:21	10	0	0.1	0	1	359	0.3	358	360	12.5	62.5
2025-10-01T17:22	10	0	0.1	0	0	358	0.3	357	359	12.4	63.0
2025-10-01T17:23	10	0	0.1	0	1	358	0.3	357	358	12.4	63.1
2025-10-01T17:24	10	0	0.1	0	0	358	0.3	357	358	12.3	63.6
2025-10-01T17:25	10	0	0.1	0	0	357	0.4	357	358	12.3	63.6
2025-10-01T17:26	10	0	0.1	0	0	357	0.3	356	358	12.2	64.3
2025-10-01T17:27	10	0	0.1	0	0	356	0.2	356	357	12.2	64.5
2025-10-01T17:28	10	0	0.1	0	0	356	0.2	356	357	12.3	64.0
2025-10-01T17:29	10	0	0.1	0	0	356	0.3	356	357	12.2	64.7
2025-10-01T17:30	10	0	0.1	0	0	355	0.5	354	356	12.1	65.1
2025-10-01T17:31	10	0	0.1	0	0	355	0.3	354	355	12.0	65.6
2025-10-01T17:32	10	0	0.1	0	0	355	0.3	354	355	11.9	66.3
2025-10-01T17:33	10	0	0.1	0	0	354	0.3	353	354	11.8	66.8
2025-10-01T17:34	10	0	0.1	0	0	354	0.3	353	354	11.8	66.9
2025-10-01T17:35	10	0	0.1	-1	0	353	0.3	352	353	11.7	67.6
2025-10-01T17:36	10	0	0.1	0	0	353	0.4	352	353	11.6	67.7
2025-10-01T17:37	10	0	0.1	0	0	353	0.3	352	353	11.6	67.8
2025-10-01T17:38	10	0	0.2	0	0	352	0.3	351	353	11.7	67.4
2025-10-01T17:39	10	0	0.1	0	0	352	0.4	351	353	11.6	67.6
2025-10-01T17:40	10	0	0.1	0	0	352	0.3	352	353	11.6	67.9
2025-10-01T17:41	10	0	0.1	0	0	352	0.3	351	353	11.6	67.7
2025-10-01T17:42	10	0	0.2	0	0	353	0.5	351	354	11.6	67.8
2025-10-01T17:43	10	0	0.1	0	0	353	0.3	352	354	11.6	67.6
2025-10-01T17:44	10	0	0.2	0	0	354	0.5	352	355	11.6	67.8
2025-10-01T17:45	10	0	0.2	0	0	354	0.2	353	354	11.6	67.5
2025-10-01T17:46	10	0	0.1	0	0	354	0.2	354	355	11.7	67.2
2025-10-01T17:47	10	0	0.1	0	0	354	0.4	353	355	11.6	67.7
2025-10-01T17:48	10	0	0.1	0	0	354	0.2	353	354	11.6	67.5
2025-10-01T17:49	10	0	0.1	0	0	354	0.6	353	355	11.6	67.6
2025-10-01T17:50	10	0	0.1	0	0	354	0.3	354	355	11.6	67.7
2025-10-01T17:51	10	0	0.1	0	0	354	0.3	353	354	11.6	68.0
2025-10-01T17:52	10	0	0.1	0	0	355	0.3	354	355	11.6	67.3
2025-10-01T17:53	10	0	0.1	0	0	354	0.3	354	355	11.6	67.6
2025-10-01T17:54	10	0	0.1	0	0	353	0.3	353	354	11.6	67.4
2025-10-01T17:55	10	0	0.1	0	0	354	0.3	353	354	11.6	67.6
2025-10-01T17:56	10	0	0.1	0	0	353	0.2	353	354	11.6	67.3
2025-10-01T17:57	10	0	0.1	0	0	353	0.4	352	354	11.7	66.9
2025-10-01T17:58	10	0	0.1	0	0	353	0.3	352	354	11.7	66.6
2025-10-01T17:59	10	0	0.1	0	0	353	0.3	352	354	11.7	66.8
2025-10-01T18:00	10	0	0.1	0	0	353	0.2	353	354	11.6	67.1
2025-10-01T18:01	10	0	0.1	0	0	353	0.4	352	354	11.5	67.4
2025-10-01T18:02	10	0	0.1	0	0	353	0.5	352	354	11.6	67.1
2025-10-01T18:03	10	0	0.1	0	0	354	0.5	353	354	11.6	66.7
2025-10-01T18:04	10	0	0.1	0	0	354	0.5	353	356	11.7	66.6
2025-10-01T18:05	10	0	0.1	0	0	355	0.5	354	356	11.6	66.7
2025-10-01T18:06	10	0	0.1	0	0	353	0.3	352	354	11.6	67.1
2025-10-01T18:07	10	0	0.1	0	0	353	0.3	352	354	11.5	67.4
2025-10-01T18:08	10	0	0.1	0	0	353	0.2	352	353	11.5	67.4
2025-10-01T18:09	10	0	0.1	0	0	353	0.3	353	354	11.5	67.3
2025-10-01T18:10	10	0	0.1	0	0	354	0.5	352	354	11.6	67.0
2025-10-01T18:11	10	0	0.1	0	0	353	0.2	353	354	11.6	67.2
2025-10-01T18:12	10	0	0.1	0	0	352	0.4	352	353	11.6	67.1
2025-10-01T18:13	10	0	0.1	0	0	352	0.3	351	352	11.5	67.4
2025-10-01T18:14	10	0	0.1	0	0	351	0.3	350	352	11.5	67.2
2025-10-01T18:15	10	0	0.1	0	0	352	0.6	350	353	11.5	67.4
2025-10-01T18:16	10	0	0.1	0	0	352	0.4	351	353	11.5	67.5
2025-10-01T18:17	10	0	0.1	0	0	351	0.2	351	352	11.5	67.5
2025-10-01T18:18	10	0	0.1	0	0	352	0.4	351	353	11.5	67.1
2025-10-01T18:19	10	0	0.1	0	0	352	0.3	351	352	11.5	67.6
2025-10-01T18:20	10	0	0.1	0	0	352	0.3	351	353	11.5	67.5
2025-10-01T18:21	10	0	0.1	0	0	352	0.3	352	353	11.5	67.1
2025-10-01T18:22	10	0	0.1	0	0	353	0.5	352	354	11.5	67.6
2025-10-01T18:23	10	0	0.1	0	0	353	0.3	352	353	11.5	67.6
2025-10-01T18:24	10	0	0.1	0	0	352	0.5	351	353	11.4	67.9
2025-10-01T18:25	10	0	0.1	0	0	352	0.4	351	353	11.4	68.3
2025-10-01T18:26	10	0	0.1	0	0	353	0.3	352	354	11.4	67.9
2025-10-01T18:27	10	0	0.1	0	0	354	0.3	353	354	11.5	67.7
2025-10-01T18:28	10	0	0.1	0	0	353	0.5	352	354	11.4	68.6
2025-10-01T18:29	10	0	0.1	0	0	353	0.3	352	353	11.3	68.6
2025-10-01T18:30	10	0	0.1	0	0	353	0.3	353	354	11.3	69.0
2025-10-01T18:31	10	0	0.1	0	0	353	0.3	352	354	11.3	68.9
2025-10-01T18:32	10	0	0.1	0	0	353	0.5	351	354	11.3	69.1
2025-10-01T18:33	10	0	0.1	0	0	351	0.4	351	352	11.2	69.7
2025-10-01T18:34	10	0	0.1	0	0	351	0.3	350	351	11.1	70.0
2025-10-01T18:35	10	0	0.1	0	0	351	0.2	350	351	11.2	69.7
2025-10-01T18:36	10	0	0.1	0	0	350	0.3	350	351	11.0	70.4
2025-10-01T18:37	10	0	0.1	0	0	351	0.3	350	352	11.1	70.4
2025-10-01T18:38	10	0	0.1	0	0	351	0.3	351	352	11.0	70.9
2025-10-01T18:39	10	0	0.1	0	0	351	0.2	350	351	11.0	71.0
2025-10-01T18:40	10	0	0.1	0	0	350	0.2	350	351	11.0	70.7
2025-10-01T18:41	10	0	0.1	0	0	351	0.3	350	352	10.9	71.1
2025-10-01T18:42	10	0	0.1	0	0	351	0.2	350	351	10.9	71.3
2025-10-01T18:43	10	0	0.1	0	0	350	0.3	350	351	10.9	71.5
2025-10-01T18:44	10	0	0.1	0	0	350	0.2	349	350	10.9	71.3
2025-10-01T18:45	10	0	0.1	0	0	350	0.6	349	351	10.9	71.4
2025-10-01T18:46	10	0	0.1	0	0	351	0.3	350	351	10.9	71.5
2025-10-01T18:47	10	0	0.1	0	0	350	0.3	350	351	10.8	72.2
2025-10-01T18:48	10	0	0.1	0	0	349	0.3	349	350	10.7	72.5
2025-10-01T18:49	10	0	0.1	0	0	349	0.3	349	350	10.8	72.4
2025-10-01T18:50	10	0	0.1	0	0	350	0.7	348	351	10.8	72.1
2025-10-01T18:51	10	0	0.1	0	0	350	0.3	350	351	10.8	72.1
2025-10-01T18:52	10	0	0.1	0	0	350	0.2	350	351	10.8	72.3
2025-10-01T18:53	10	0	0.1	0	0	349	0.3	348	350	10.7	72.6
2025-10-01T18:54	10	0	0.2	0	0	349	0.3	348	350	10.7	72.9
2025-10-01T18:55	10	0	0.2	0	1	349	0.3	348	349	10.6	73.1
2025-10-01T18:56	10	0	0.2	0	1	349	0.4	348	349	10.6	73.5
2025-10-01T18:57	10	0	0.2	0	0	348	0.2	347	348	10.6	73.6
2025-10-01T18:58	10	0	0.1	0	0	348	0.2	347	348	10.6	73.7
2025-10-01T18:59	10	0	0.1	0	0	347	0.2	347	348	10.5	73.8
2025-10-01T19:00	10	0	0.1	0	0	348	0.3	347	349	10.5	73.9
2025-10-01T19:01	10	0	0.1	-1	0	348	0.4	347	348	10.5	74.1
2025-10-01T19:02	10	0	0.1	0	0	348	0.3	347	348	10.5	74.0
2025-10-01T19:03	10	0	0.1	0	0	347	0.5	346	347	10.5	74.3
2025-10-01T19:04	10	0	0.1	0	0	346	0.5	345	347	10.5	74.3
2025-10-01T19:05	10	0	0.1	0	0	347	0.5	347	348	10.4	74.3
2025-10-01T19:06	10	0	0.1	0	0	347	0.3	346	348	10.4	74.4
2025-10-01T19:07	10	0	0.1	0	0	347	0.3	346	347	10.4	74.5
2025-10-01T19:08	10	0	0.1	0	0	348	0.3	347	348	10.4	74.4
2025-10-01T19:09	10	0	0.1	0	0	348	0.3	348	349	10.4	74.4
2025-10-01T19:10	10	0	0.1	0	0	347	0.6	346	348	10.4	74.8
2025-10-01T19:11	10	0	0.1	0	0	347	0.3	346	347	10.3	75.3
2025-10-01T19:12	10	0	0.1	0	0	347	0.2	346	347	10.4	74.6
2025-10-01T19:13	10	0	0.1	0	0	347	0.3	346	347	10.3	75.0
2025-10-01T19:14	10	0	0.1	0	0	346	0.3	346	347	10.3	75.5
2025-10-01T19:15	10	0	0.1	0	0	346	0.4	345	347	10.3	75.4
2025-10-01T19:16	10	0	0.1	0	0	348	0.7	347	349	10.3	74.9
2025-10-01T19:17	10	0	0.1	0	0	348	0.2	348	349	10.3	75.2
2025-10-01T19:18	10	0	0.0	0	0	347	0.3	347	348	10.3	75.2
2025-10-01T19:19	10	0	0.1	0	0	347	0.2	346	347	10.3	75.4
2025-10-01T19:20	10	0	0.1	0	0	347	0.5	346	348	10.2	75.4
2025-10-01T19:21	10	0	0.1	0	0	347	0.2	347	348	10.2	75.5
2025-10-01T19:22	10	0	0.1	0	0	348	0.3	347	348	10.2	75.6
2025-10-01T19:23	10	0	0.1	0	0	347	0.3	346	348	10.2	75.6
2025-10-01T19:24	10	0	0.1	0	0	348	0.3	347	348	10.1	75.8
2025-10-01T19:25	10	0	0.1	0	0	348	0.2	347	348	10.1	75.7
2025-10-01T19:26	10	0	0.1	0	0	348	0.4	347	349	10.2	75.4
2025-10-01T19:27	10	0	0.1	0	0	348	0.2	348	349	10.1	76.0
2025-10-01T19:28	10	0	0.1	0	0	348	0.3	348	349	9.9	76.7
2025-10-01T19:29	10	0	0.1	0	0	347	0.3	347	348	10.0	76.4
2025-10-01T19:30	10	0	0.1	0	0	347	0.4	345	347	10.0	76.2
2025-10-01T19:31	10	0	0.1	0	0	346	0.3	345	346	10.1	75.8
2025-10-01T19:32	10	0	0.1	0	0	346	0.3	345	346	10.1	75.7
2025-10-01T19:33	10	0	0.1	0	0	345	0.3	344	346	10.1	75.7
2025-10-01T19:34	10	0	0.1	0	0	345	0.2	344	346	10.1	75.7
2025-10-01T19:35	10	0	0.1	0	0	344	0.3	344	345	10.1	75.7
2025-10-01T19:36	10	0	0.1	0	0	344	0.2	343	345	10.1	75.7
2025-10-01T19:37	10	0	0.1	0	0	345	0.6	344	346	10.1	75.7
2025-10-01T19:38	10	0	0.1	0	0	348	1.2	345	349	10.1	75.7
2025-10-01T19:39	10	0	0.1	0	0	348	0.4	347	349	10.1	75.3
2025-10-01T19:40	10	0	0.1	0	0	347	0.4	346	348	10.1	74.6
2025-10-01T19:41	10	0	0.1	0	0	347	0.7	346	349	10.1	74.5
2025-10-01T19:42	10	0	0.1	0	0	348	0.5	347	349	10.3	73.9
2025-10-01T19:43	10	0	0.1	0	0	348	0.3	347	348	10.2	74.2
2025-10-01T19:44	10	0	0.1	0	0	347	0.2	346	348	10.1	74.6
2025-10-01T19:45	10	0	0.1	0	0	348	0.3	347	348	10.2	74.2
2025-10-01T19:46	10	0	0.1	0	0	348	0.4	347	349	10.2	74.2
2025-10-01T19:47	10	0	0.1	0	0	348	0.3	347	348	10.2	73.9
2025-10-01T19:48	10	0	0.1	0	0	348	0.4	348	349	10.2	74.2
2025-10-01T19:49	10	0	0.1	0	0	348	0.2	348	349	10.2	73.9
2025-10-01T19:50	10	0	0.1	0	0	348	0.3	348	349	10.2	74.1
2025-10-01T19:51	10	0	0.1	0	0	347	0.4	346	348	10.1	74.2
2025-10-01T19:52	10	0	0.1	0	0	347	0.5	346	348	10.1	73.9
2025-10-01T19:53	10	0	0.1	0	0	348	0.5	347	349	10.2	73.6
2025-10-01T19:54	10	0	0.1	0	0	348	0.9	347	350	10.2	73.2
2025-10-01T19:55	10	0	0.1	0	0	349	0.2	349	349	10.3	72.9
2025-10-01T19:56	10	0	0.1	0	0	349	0.3	348	350	10.2	73.1
2025-10-01T19:57	10	0	0.1	0	0	348	0.3	348	349	10.2	73.1
2025-10-01T19:58	10	0	0.1	0	0	348	0.4	347	348	10.1	73.6
2025-10-01T19:59	10	0	0.1	0	0	347	0.3	347	348	10.1	73.6
2025-10-01T20:00	10	0	0.1	0	0	348	0.3	347	348	10.1	73.2
2025-10-01T20:01	10	0	0.1	0	0	348	0.3	347	349	10.2	73.0
2025-10-01T20:02	10	0	0.1	0	0	348	0.4	347	349	10.2	73.2
2025-10-01T20:03	10	0	0.1	0	0	348	0.5	347	349	10.1	73.5
2025-10-01T20:04	10	0	0.1	0	0	348	0.3	347	349	10.1	73.3
2025-10-01T20:05	10	0	0.1	0	0	348	0.5	347	349	10.1	73.4
2025-10-01T20:06	10	0	0.1	0	0	348	0.3	348	349	10.1	73.7
2025-10-01T20:07	10	0	0.1	0	0	348	0.3	347	349	10.1	74.1
2025-10-01T20:08	10	0	0.1	0	0	348	0.4	347	349	10.1	74.1
2025-10-01T20:09	10	0	0.1	0	0	349	0.3	348	349	10.1	73.9
2025-10-01T20:10	10	0	0.1	0	0	348	0.3	348	349	10.1	74.3
2025-10-01T20:11	10	0	0.1	0	0	348	0.3	348	349	10.0	74.5
2025-10-01T20:12	10	0	0.1	0	0	349	0.3	348	349	10.0	74.7
2025-10-01T20:13	10	0	0.1	0	0	349	0.3	348	349	10.0	75.0
2025-10-01T20:14	10	0	0.1	0	0	349	0.2	348	349	10.0	74.7
2025-10-01T20:15	10	0	0.1	0	0	349	0.4	348	350	10.1	74.2
2025-10-01T20:16	10	0	0.1	0	0	349	0.3	348	349	10.1	74.4
2025-10-01T20:17	10	0	0.1	0	0	349	0.2	348	349	10.0	74.9
2025-10-01T20:18	10	0	0.1	0	0	348	0.6	347	350	10.0	74.8
2025-10-01T20:19	10	0	0.1	0	0	348	0.4	348	349	10.0	75.0
2025-10-01T20:20	10	0	0.1	0	0	349	0.2	348	349	10.0	74.8
2025-10-01T20:21	10	0	0.1	0	0	348	0.3	348	349	10.0	74.8
2025-10-01T20:22	10	0	0.1	0	0	348	0.3	347	348	9.9	75.4
2025-10-01T20:23	10	0	0.1	0	0	348	0.2	347	349	9.9	75.4
2025-10-01T20:24	10	0	0.1	0	0	348	0.3	348	349	9.9	75.2
2025-10-01T20:25	10	0	0.1	0	0	348	0.4	347	349	9.9	75.4
2025-10-01T20:26	10	0	0.1	0	0	348	0.4	347	349	9.9	75.8
2025-10-01T20:27	10	0	0.1	0	0	347	0.3	346	348	9.8	76.1
2025-10-01T20:28	10	0	0.1	0	0	347	0.3	346	347	9.8	76.2
2025-10-01T20:29	10	0	0.1	0	0	347	0.3	347	348	9.8	75.9
2025-10-01T20:30	10	0	0.1	0	0	347	0.2	346	347	9.8	75.9
2025-10-01T20:31	10	0	0.1	0	0	347	0.4	346	347	9.8	75.8
2025-10-01T20:32	10	0	0.0	0	0	346	0.3	346	347	9.7	76.2
2025-10-01T20:33	10	0	0.1	0	0	346	0.2	346	346	9.7	76.4
2025-10-01T20:34	10	0	0.1	0	0	346	0.3	345	346	9.7	76.5
2025-10-01T20:35	10	0	0.1	0	0	346	0.3	345	347	9.6	76.9
2025-10-01T20:36	10	0	0.1	0	0	346	0.3	345	347	9.6	76.7
2025-10-01T20:37	10	0	0.1	0	0	346	0.3	345	347	9.6	76.5
2025-10-01T20:38	10	0	0.1	-1	0	345	0.3	345	346	9.6	77.1
2025-10-01T20:39	10	0	0.1	0	0	346	0.2	345	346	9.6	76.8
2025-10-01T20:40	10	0	0.1	0	0	345	0.3	345	346	9.5	77.3
2025-10-01T20:41	10	0	0.1	0	0	345	0.3	344	345	9.5	77.3
2025-10-01T20:42	10	0	0.1	0	0	345	0.3	345	346	9.5	77.3
2025-10-01T20:43	10	0	0.1	0	0	345	0.5	344	346	9.4	77.5
2025-10-01T20:44	10	0	0.1	0	0	345	0.3	345	346	9.5	77.3
2025-10-01T20:45	10	0	0.1	0	0	345	0.3	344	346	9.4	77.7
2025-10-01T20:46	10	0	0.1	-1	0	345	0.6	344	346	9.4	77.5
2025-10-01T20:47	10	0	0.1	0	0	346	0.3	345	347	9.4	77.6
2025-10-01T20:48	10	0	0.1	0	0	346	0.3	345	346	9.4	77.5
2025-10-01T20:49	10	0	0.1	-1	0	346	0.2	345	346	9.4	77.9
2025-10-01T20:50	10	0	0.1	-1	0	345	0.3	345	346	9.4	77.8
2025-10-01T20:51	10	0	0.1	-1	0	344	0.3	344	345	9.4	77.7
2025-10-01T20:52	10	0	0.1	-1	0	344	0.3	343	344	9.3	77.9
2025-10-01T20:53	10	0	0.1	-1	0	344	0.3	343	345	9.3	77.9
2025-10-01T20:54	10	0	0.1	-1	0	344	0.3	343	344	9.3	77.7
2025-10-01T20:55	10	0	0.1	-1	0	344	0.3	343	345	9.4	77.5
2025-10-01T20:56	10	0	0.1	-1	0	344	0.4	344	345	9.3	78.0
2025-10-01T20:57	10	0	0.1	-1	0	345	0.3	344	345	9.2	78.3
2025-10-01T20:58	10	0	0.1	-1	0	344	0.2	344	345	9.2	78.6
2025-10-01T20:59	10	0	0.0	-1	0	344	0.5	343	345	9.1	78.8
2025-10-01T21:00	10	0	0.1	-1	0	343	0.3	343	344	9.1	78.9
2025-10-01T21:01	10	0	0.1	-1	0	344	0.3	343	344	9.2	78.3
2025-10-01T21:02	10	-1	0.1	-1	0	343	0.5	343	344	9.1	78.3
2025-10-01T21:03	10	-1	0.1	-1	0	344	0.2	343	344	9.1	78.3
2025-10-01T21:04	10	-1	0.0	-1	0	344	0.2	343	344	9.0	78.7
2025-10-01T21:05	10	-1	0.1	-1	0	343	0.3	343	344	9.0	79.1
2025-10-01T21:06	10	-1	0.0	-1	-1	343	0.4	342	344	9.0	78.6
2025-10-01T21:07	10	-1	0.1	-1	0	343	0.3	343	344	9.1	78.3
2025-10-01T21:08	10	-1	0.1	-1	0	343	0.3	342	343	9.0	78.6
2025-10-01T21:09	10	-1	0.1	-1	0	343	0.3	342	343	9.0	78.3
2025-10-01T21:10	10	-1	0.0	-1	0	343	0.4	342	344	9.0	78.0
2025-10-01T21:11	10	-1	0.1	-1	0	344	0.3	343	344	9.1	77.3
2025-10-01T21:12	10	0	0.1	-1	0	343	0.4	342	344	9.1	77.6
2025-10-01T21:13	10	0	0.1	-1	0	342	0.3	342	343	8.9	78.1
2025-10-01T21:14	10	0	0.1	-1	0	343	0.4	342	344	9.0	77.4
2025-10-01T21:15	10	0	0.1	0	0	344	0.8	343	346	9.1	76.8
2025-10-01T21:16	10	0	0.1	-1	0	345	0.2	344	345	9.2	76.5
2025-10-01T21:17	10	0	0.1	-1	0	345	0.3	344	346	9.2	75.9
2025-10-01T21:18	10	0	0.1	-1	0	345	0.2	344	345	9.0	77.0
2025-10-01T21:19	10	0	0.1	-1	0	346	0.6	344	346	9.1	76.3
2025-10-01T21:20	10	-1	0.1	-1	0	345	0.5	344	347	9.1	76.6
2025-10-01T21:21	10	0	0.1	-1	0	345	0.3	344	345	9.1	76.4
2025-10-01T21:22	10	0	0.1	-1	0	345	0.3	345	346	9.1	76.1
2025-10-01T21:23	10	0	0.1	-1	0	345	0.2	344	345	9.1	76.6
2025-10-01T21:24	10	0	0.1	-1	0	345	0.4	344	345	9.1	76.1
2025-10-01T21:25	10	0	0.1	-1	0	344	0.3	344	345	9.1	75.9
2025-10-01T21:26	10	0	0.1	-1	0	344	0.2	344	345	9.0	76.5
2025-10-01T21:27	10	0	0.1	-1	0	344	0.3	343	345	9.0	76.8
2025-10-01T21:28	10	0	0.1	-1	0	344	0.3	344	345	9.0	76.1
2025-10-01T21:29	10	0	0.1	-1	0	344	0.3	343	345	9.1	75.9
2025-10-01T21:30	10	0	0.1	0	0	344	0.3	344	345	9.1	75.7
2025-10-01T21:31	10	0	0.1	0	0	344	0.3	343	345	9.0	76.0
2025-10-01T21:32	10	0	0.1	-1	0	345	0.6	344	346	9.0	75.8
2025-10-01T21:33	10	0	0.1	-1	0	345	0.3	345	346	9.2	74.4
2025-10-01T21:34	10	0	0.1	-1	0	345	0.4	344	346	9.1	75.2
2025-10-01T21:35	10	0	0.1	-1	0	344	0.4	343	345	9.0	75.5
2025-10-01T21:36	10	0	0.1	0	0	344	0.3	343	344	9.0	75.7
2025-10-01T21:37	10	0	0.1	-1	0	344	0.4	343	345	9.0	75.5
2025-10-01T21:38	10	0	0.1	-1	0	344	0.2	344	345	9.0	75.1
2025-10-01T21:39	10	0	0.1	-1	0	344	0.3	344	345	9.1	75.0
2025-10-01T21:40	10	0	0.1	-1	0	344	0.4	343	345	9.0	75.1
2025-10-01T21:41	10	0	0.1	-1	0	344	0.3	343	345	9.0	74.9
2025-10-01T21:42	10	0	0.2	-1	0	345	0.3	344	345	9.1	74.3
2025-10-01T21:43	10	0	0.2	-1	0	344	0.5	343	345	9.0	75.0
2025-10-01T21:44	10	0	0.1	-1	0	343	0.3	343	344	8.9	75.7
2025-10-01T21:45	10	0	0.1	-1	0	343	0.4	342	344	8.9	75.6
2025-10-01T21:46	10	0	0.2	-1	0	342	0.2	342	343	8.8	76.0
2025-10-01T21:47	10	0	0.1	-1	0	342	0.3	342	343	8.8	76.4
2025-10-01T21:48	10	0	0.2	-1	0	342	0.3	342	343	8.7	76.7
2025-10-01T21:49	10	0	0.2	-1	0	343	0.4	342	343	8.8	76.0
2025-10-01T21:50	10	0	0.2	-1	0	343	0.2	342	343	8.9	75.1
2025-10-01T21:51	10	0	0.1	-1	0	343	0.3	342	343	9.0	74.6
2025-10-01T21:52	10	0	0.1	-1	0	343	0.3	342	343	8.9	75.3
2025-10-01T21:53	10	0	0.1	-1	0	343	0.4	342	344	8.9	75.1
2025-10-01T21:54	10	0	0.1	-1	0	343	0.2	343	344	8.9	75.0
2025-10-01T21:55	10	0	0.1	-1	0	343	0.3	342	344	8.9	75.0
2025-10-01T21:56	10	0	0.1	-1	0	343	0.4	342	344	8.8	75.2
2025-10-01T21:57	10	0	0.1	-1	0	343	0.2	342	344	8.9	74.9
2025-10-01T21:58	10	0	0.1	-1	0	343	0.3	343	344	8.9	74.7
2025-10-01T21:59	10	0	0.1	-1	0	343	0.3	342	344	8.8	75.1
2025-10-01T22:00	10	0	0.1	-1	0	343	0.3	342	343	8.8	75.1
2025-10-01T22:01	10	0	0.1	-1	0	343	0.6	342	344	8.8	75.1
2025-10-01T22:02	10	0	0.1	-1	0	343	0.4	342	344	8.8	74.9
2025-10-01T22:03	10	0	0.1	-1	0	342	0.3	342	343	8.8	75.2
2025-10-01T22:04	10	0	0.1	-1	0	342	0.3	341	343	8.8	75.3
2025-10-01T22:05	10	0	0.1	-1	0	343	1.0	342	345	8.8	74.8
2025-10-01T22:06	10	0	0.1	-1	0	344	0.5	344	345	8.9	73.8
2025-10-01T22:07	10	-1	0.1	-1	0	344	0.3	343	344	8.8	74.7
2025-10-01T22:08	10	0	0.1	-1	0	343	0.2	343	344	8.8	74.8
2025-10-01T22:09	10	0	0.1	-1	0	343	0.4	342	344	8.8	74.9
2025-10-01T22:10	10	-1	0.1	-1	0	343	0.3	343	344	8.7	75.1
2025-10-01T22:11	10	-1	0.1	-1	0	343	0.4	342	344	8.7	75.5
2025-10-01T22:12	10	-1	0.1	-1	0	343	0.2	343	344	8.7	74.8
2025-10-01T22:13	10	-1	0.1	-1	0	343	0.2	343	344	8.7	74.9
2025-10-01T22:14	10	-1	0.1	-1	0	343	0.3	342	344	8.7	75.0
2025-10-01T22:15	10	-1	0.1	-1	0	343	0.4	342	344	8.6	75.2
2025-10-01T22:16	10	-1	0.1	-1	0	343	0.3	342	343	8.6	75.4
2025-10-01T22:17	10	-1	0.1	-1	0	343	0.4	342	343	8.6	75.6
2025-10-01T22:18	10	-1	0.1	-1	-1	342	0.2	342	343	8.5	75.8
2025-10-01T22:19	10	-1	0.1	-1	0	342	0.3	342	343	8.6	75.1
2025-10-01T22:20	10	-1	0.1	-1	-1	342	0.3	342	343	8.5	75.7
2025-10-01T22:21	10	-1	0.1	-1	0	342	0.2	341	342	8.5	76.0
2025-10-01T22:22	10	-1	0.1	-1	0	342	0.3	342	343	8.5	75.4
2025-10-01T22:23	10	-1	0.1	-1	-1	342	0.3	342	343	8.6	75.2
2025-10-01T22:24	10	-1	0.1	-1	0	341	0.4	341	342	8.5	76.0
2025-10-01T22:25	10	-1	0.1	-1	-1	342	0.4	341	343	8.4	75.8
2025-10-01T22:26	10	-1	0.1	-1	0	341	0.4	341	342	8.5	75.3
2025-10-01T22:27	10	-1	0.1	-1	0	341	0.4	340	342	8.4	75.9
2025-10-01T22:28	10	-1	0.1	-1	0	342	0.2	341	342	8.4	75.8
2025-10-01T22:29	10	-1	0.1	-1	0	341	0.4	340	342	8.4	76.3
2025-10-01T22:30	10	-1	0.1	-1	0	340	0.4	339	341	8.2	77.1
2025-10-01T22:31	10	-1	0.1	-1	0	340	0.3	339	341	8.3	76.6
2025-10-01T22:32	10	-1	0.1	-1	0	340	0.3	340	341	8.3	76.4
2025-10-01T22:33	10	-1	0.1	-1	0	340	0.4	340	341	8.3	76.3
2025-10-01T22:34	10	-1	0.1	-1	0	341	0.2	340	341	8.4	75.8
2025-10-01T22:35	10	-1	0.1	-1	0	340	0.4	339	341	8.3	76.3
2025-10-01T22:36	10	0	0.1	-1	0	340	0.2	340	341	8.3	76.8
2025-10-01T22:37	10	0	0.1	-1	0	340	0.3	339	340	8.2	76.8
2025-10-01T22:38	10	0	0.1	-1	0	339	0.2	339	340	8.2	77.0
2025-10-01T22:39	10	0	0.1	-1	0	339	0.4	338	339	8.1	77.6
2025-10-01T22:40	10	0	0.1	-1	0	337	0.4	337	338	8.0	78.1
2025-10-01T22:41	10	0	0.1	-1	0	336	0.5	335	337	7.9	78.6
2025-10-01T22:42	10	0	0.1	-1	0	335	0.3	334	335	7.9	78.6
2025-10-01T22:43	10	0	0.1	-1	0	335	0.3	334	336	7.9	78.8
2025-10-01T22:44	10	-1	0.1	-1	0	335	0.5	334	335	7.8	79.3
2025-10-01T22:45	10	-1	0.1	-1	0	333	0.5	332	334	7.7	80.0
2025-10-01T22:46	10	-1	0.1	-1	0	332	0.4	331	333	7.6	80.8
2025-10-01T22:47	10	-1	0.1	-1	0	331	0.2	331	332	7.5	81.3
2025-10-01T22:48	10	-1	0.1	-1	0	331	0.3	330	331	7.4	81.7
2025-10-01T22:49	10	0	0.1	0	0	330	0.3	329	331	7.4	81.7
2025-10-01T22:50	10	0	0.1	0	0	329	0.2	329	330	7.3	82.2
2025-10-01T22:51	10	0	0.1	0	0	329	0.3	328	329	7.3	82.3
2025-10-01T22:52	10	0	0.0	0	0	328	0.2	328	329	7.3	82.4
2025-10-01T22:53	10	0	0.1	0	0	328	0.3	328	329	7.3	82.5
2025-10-01T22:54	10	0	0.1	0	0	328	0.2	327	329	7.4	82.1
2025-10-01T22:55	10	0	0.1	0	0	328	0.3	327	328	7.3	82.6
2025-10-01T22:56	10	0	0.1	0	0	327	0.3	326	328	7.2	83.1
2025-10-01T22:57	10	0	0.1	0	0	327	0.3	326	327	7.2	83.3
2025-10-01T22:58	10	0	0.1	0	0	327	0.2	327	328	7.2	83.4
2025-10-01T22:59	10	0	0.1	0	0	327	0.3	326	328	7.2	82.9
2025-10-01T23:00	10	0	0.1	0	0	327	0.2	327	328	7.4	81.8
2025-10-01T23:01	10	0	0.1	0	0	328	0.5	327	329	7.5	81.4
2025-10-01T23:02	10	0	0.1	-1	0	328	0.2	328	329	7.6	80.3
2025-10-01T23:03	10	0	0.1	0	0	328	0.2	328	329	7.4	81.4
2025-10-01T23:04	10	0	0.1	-1	0	328	0.3	328	329	7.4	81.7
2025-10-01T23:05	10	0	0.1	0	0	328	0.2	328	329	7.3	82.3
2025-10-01T23:06	10	0	0.1	0	0	328	0.2	328	329	7.4	81.9
2025-10-01T23:07	10	0	0.1	0	0	328	0.2	327	328	7.3	82.0
2025-10-01T23:08	10	0	0.1	0	0	328	0.2	327	329	7.4	81.6
2025-10-01T23:09	10	0	0.1	0	0	328	0.3	327	328	7.3	81.8
2025-10-01T23:10	10	0	0.1	0	0	327	0.2	327	328	7.2	82.7
2025-10-01T23:11	10	0	0.1	0	0	327	0.3	326	327	7.1	83.4
2025-10-01T23:12	10	0	0.1	0	0	327	0.2	326	327	7.2	82.8
2025-10-01T23:13	10	0	0.1	0	0	327	0.2	326	327	7.2	83.0
2025-10-01T23:14	10	0	0.1	0	0	326	0.2	326	327	7.1	83.8
2025-10-01T23:15	10	0	0.1	0	0	327	0.4	326	327	7.1	83.7
2025-10-01T23:16	10	0	0.1	0	0	327	0.3	326	327	7.2	82.3
2025-10-01T23:17	10	0	0.1	0	0	327	0.4	326	328	7.3	81.0
2025-10-01T23:18	10	0	0.1	0	0	327	0.3	326	327	7.3	81.5
2025-10-01T23:19	10	0	0.1	0	0	326	0.2	326	327	7.2	82.1
2025-10-01T23:20	10	0	0.1	0	0	326	0.3	325	327	7.2	82.3
2025-10-01T23:21	10	0	0.1	0	0	326	0.4	325	327	7.1	82.4
2025-10-01T23:22	10	0	0.1	0	0	326	0.2	325	327	7.2	81.3
2025-10-01T23:23	10	0	0.1	0	0	326	0.2	325	327	7.2	81.6
2025-10-01T23:24	10	0	0.1	0	0	326	0.2	326	327	7.2	81.6
2025-10-01T23:25	10	0	0.1	0	0	326	0.2	326	326	7.2	81.4
2025-10-01T23:26	10	0	0.1	0	0	326	0.2	325	326	7.2	81.3
2025-10-01T23:27	10	0	0.1	0	0	327	0.3	326	327	7.3	80.9
2025-10-01T23:28	10	0	0.1	0	0	327	0.2	326	327	7.3	80.6
2025-10-01T23:29	10	0	0.1	0	0	327	0.3	326	327	7.4	80.1
2025-10-01T23:30	10	0	0.1	0	0	327	0.3	326	328	7.3	80.6
2025-10-01T23:31	10	0	0.1	0	0	327	0.2	327	328	7.2	80.8
2025-10-01T23:32	10	0	0.1	0	0	326	0.3	326	327	7.2	81.1
2025-10-01T23:33	10	0	0.1	0	0	326	0.2	326	327	7.2	80.9
2025-10-01T23:34	10	0	0.1	0	0	326	0.3	326	327	7.3	80.8
2025-10-01T23:35	10	0	0.1	0	0	326	0.3	325	326	7.3	80.3
2025-10-01T23:36	10	0	0.1	0	0	326	0.2	325	326	7.3	80.3
2025-10-01T23:37	10	0	0.1	0	0	326	0.3	325	326	7.3	80.5
2025-10-01T23:38	10	0	0.1	0	0	326	0.2	325	326	7.1	81.5
2025-10-01T23:39	10	0	0.1	0	0	326	0.3	326	327	7.0	82.3
2025-10-01T23:40	10	0	0.1	0	0	326	0.3	326	327	7.0	82.2
2025-10-01T23:41	10	0	0.1	0	0	326	0.4	325	327	7.0	82.4
2025-10-01T23:42	10	0	0.1	0	0	326	0.3	325	327	7.1	81.8
2025-10-01T23:43	10	0	0.1	0	0	326	0.2	326	326	7.1	81.8
2025-10-01T23:44	10	0	0.1	0	0	326	0.3	325	327	7.1	82.0
2025-10-01T23:45	10	0	0.1	0	0	326	0.3	326	327	6.9	82.7
2025-10-01T23:46	10	0	0.1	0	0	326	0.2	326	327	7.0	82.2
2025-10-01T23:47	10	0	0.1	0	0	326	0.3	325	327	7.1	81.8
2025-10-01T23:48	10	0	0.1	0	0	326	0.3	325	327	7.1	81.6
2025-10-01T23:49	10	0	0.1	0	0	326	0.2	325	326	7.0	81.7
2025-10-01T23:50	10	0	0.1	0	0	326	0.3	325	326	6.9	82.6
2025-10-01T23:51	10	0	0.1	0	0	326	0.2	325	326	6.9	82.5
2025-10-01T23:52	10	0	0.1	0	0	325	0.3	324	326	6.9	82.4
2025-10-01T23:53	10	0	0.1	0	0	325	0.3	325	326	6.8	83.0
2025-10-01T23:54	10	0	0.1	0	0	326	0.3	325	326	6.8	83.2
2025-10-01T23:55	10	0	0.1	0	0	326	0.3	325	326	6.5	84.9
2025-10-01T23:56	10	0	0.1	0	0	326	0.3	325	326	6.7	84.0
2025-10-01T23:57	10	0	0.1	0	0	325	0.2	325	326	6.9	82.4
2025-10-01T23:58	10	0	0.1	0	0	325	0.2	325	326	6.8	83.0
2025-10-01T23:59	10	0	0.1	0	0	325	0.2	325	326	6.8	82.8
2025-10-02T00:00	10	0	0.0	0	0	325	0.3	325	326	6.7	83.4
2025-10-02T00:01	10	0	0.0	0	0	325	0.2	324	325	6.7	83.6
2025-10-02T00:02	10	0	0.1	0	0	325	0.2	324	325	6.7	83.4
2025-10-02T00:03	10	0	0.1	0	0	324	0.2	324	325	6.8	82.9
2025-10-02T00:04	10	0	0.1	0	0	324	0.2	324	325	6.7	83.7
2025-10-02T00:05	10	0	0.1	0	0	325	0.2	324	325	6.7	83.2
2025-10-02T00:06	10	0	0.1	0	0	325	0.2	324	325	6.7	82.9
2025-10-02T00:07	10	0	0.0	0	0	325	0.3	324	326	6.8	82.3
2025-10-02T00:08	10	0	0.1	0	0	325	0.2	324	326	6.8	82.2
2025-10-02T00:09	10	0	0.1	0	0	325	0.3	324	326	7.0	81.2
2025-10-02T00:10	10	0	0.1	0	0	325	0.2	324	325	6.9	81.4
2025-10-02T00:11	10	0	0.0	0	0	325	0.2	324	325	6.9	81.4
2025-10-02T00:12	10	0	0.1	0	0	324	0.2	324	325	7.1	80.8
2025-10-02T00:13	10	0	0.0	0	0	325	0.3	324	325	7.1	80.6
2025-10-02T00:14	10	0	0.1	0	0	324	0.3	324	325	7.1	80.8
2025-10-02T00:15	10	0	0.1	0	0	324	0.3	324	325	7.0	81.3
2025-10-02T00:16	10	0	0.1	0	0	324	0.2	324	325	6.9	81.7
2025-10-02T00:17	10	0	0.1	0	0	324	0.3	323	325	6.8	82.0
2025-10-02T00:18	10	0	0.1	0	0	324	0.2	323	324	6.8	82.2
2025-10-02T00:19	10	0	0.1	0	0	324	0.2	323	324	6.8	82.1
2025-10-02T00:20	10	0	0.1	0	0	324	0.2	323	324	6.8	82.2
2025-10-02T00:21	10	0	0.1	0	0	323	0.3	323	324	6.7	82.3
2025-10-02T00:22	10	0	0.1	0	0	324	0.2	324	324	6.7	82.3
2025-10-02T00:23	10	0	0.1	0	0	324	0.2	324	325	6.7	82.4
2025-10-02T00:24	10	0	0.1	0	0	324	0.3	323	325	6.8	82.1
2025-10-02T00:25	10	0	0.1	0	0	324	0.2	323	324	6.9	81.7
2025-10-02T00:26	10	0	0.1	0	0	323	0.3	323	324	6.9	81.8
2025-10-02T00:27	10	0	0.1	0	0	324	0.2	323	324	6.8	81.8
2025-10-02T00:28	10	0	0.1	0	0	324	0.2	324	324	7.0	80.4
2025-10-02T00:29	10	0	0.1	0	0	324	0.2	323	324	7.0	80.6
2025-10-02T00:30	10	0	0.1	0	0	324	0.2	323	325	7.0	80.7
2025-10-02T00:31	10	0	0.1	0	0	323	0.2	323	324	6.8	81.8
2025-10-02T00:32	10	0	0.1	0	0	324	0.3	323	324	6.7	82.3
2025-10-02T00:33	10	0	0.1	0	0	324	0.4	323	325	6.7	82.1
2025-10-02T00:34	10	0	0.1	-1	0	325	0.2	324	325	6.7	82.1
2025-10-02T00:35	10	0	0.2	0	0	325	0.4	324	326	6.8	81.6
2025-10-02T00:36	10	0	0.1	0	0	325	0.4	325	326	6.8	81.9
2025-10-02T00:37	10	0	0.1	-1	0	325	0.3	325	326	6.7	81.7
2025-10-02T00:38	10	0	0.1	-1	0	325	0.3	324	326	6.6	82.5
2025-10-02T00:39	10	0	0.1	0	0	325	0.3	324	325	6.5	82.8
2025-10-02T00:40	10	0	0.1	0	0	324	0.3	323	324	6.4	83.5
2025-10-02T00:41	10	0	0.1	-1	0	324	0.3	324	325	6.6	82.6
2025-10-02T00:42	10	0	0.1	-1	0	323	0.3	323	324	6.6	83.3
2025-10-02T00:43	10	0	0.1	0	0	323	0.3	323	324	6.5	83.5
2025-10-02T00:44	10	0	0.1	-1	0	324	0.4	323	325	6.3	84.5
2025-10-02T00:45	10	0	0.1	0	0	325	0.5	324	326	6.4	84.1
2025-10-02T00:46	10	0	0.1	-1	0	325	0.3	324	325	6.6	82.8
2025-10-02T00:47	10	0	0.1	-1	0	325	0.3	324	325	6.4	83.4
2025-10-02T00:48	10	0	0.1	-1	0	324	0.3	324	325	6.3	83.9
2025-10-02T00:49	10	0	0.1	-1	0	325	0.4	324	325	6.3	84.2
2025-10-02T00:50	10	0	0.1	-1	0	325	0.4	324	325	6.2	85.0
2025-10-02T00:51	10	0	0.1	-1	0	324	0.2	324	325	6.1	85.6
2025-10-02T00:52	10	0	0.1	-1	0	325	0.3	324	325	6.2	85.5
2025-10-02T00:53	10	0	0.1	-1	0	324	0.3	323	325	6.1	85.8
2025-10-02T00:54	10	0	0.1	-1	0	323	0.3	323	324	5.9	86.8
2025-10-02T00:55	10	-1	0.1	-1	0	323	0.4	322	324	5.8	87.3
2025-10-02T00:56	10	-1	0.2	-1	0	323	0.2	322	323	5.7	87.6
2025-10-02T00:57	10	-1	0.1	-1	0	323	0.2	322	323	5.8	87.3
2025-10-02T00:58	10	-1	0.1	-1	0	322	0.2	322	323	5.7	87.5
2025-10-02T00:59	10	-1	0.1	-1	0	322	0.3	322	323	5.7	87.7
2025-10-02T01:00	10	-1	0.1	-1	0	322	0.3	322	323	5.7	88.0
2025-10-02T01:01	10	-1	0.1	-1	-1	323	0.2	322	323	5.8	87.6
2025-10-02T01:02	10	-1	0.1	-1	0	322	0.3	322	323	5.7	87.7
2025-10-02T01:03	10	-1	0.1	-1	0	323	0.2	322	323	5.8	87.6
2025-10-02T01:04	10	-1	0.1	-1	0	323	0.3	322	324	5.9	87.0
2025-10-02T01:05	10	-1	0.1	-1	0	323	0.3	322	323	5.9	87.1
2025-10-02T01:06	10	-1	0.1	-1	0	323	0.3	322	323	5.8	87.2
2025-10-02T01:07	10	-1	0.1	-1	0	323	0.3	322	323	5.9	86.9
2025-10-02T01:08	10	-1	0.1	-1	0	323	0.3	322	323	5.9	86.8
2025-10-02T01:09	10	-1	0.1	-1	0	323	0.2	322	323	6.0	86.3
2025-10-02T01:10	10	-1	0.1	-1	0	323	0.2	322	323	6.1	85.9
2025-10-02T01:11	10	0	0.1	-1	0	322	0.3	322	323	6.3	85.3
2025-10-02T01:12	10	0	0.1	-1	0	323	0.2	323	324	6.3	84.8
2025-10-02T01:13	10	0	0.0	0	0	323	0.2	323	324	6.3	85.0
2025-10-02T01:14	10	0	0.1	-1	0	324	0.3	323	325	6.4	84.4
2025-10-02T01:15	10	0	0.0	0	0	325	0.3	324	325	6.5	84.0
2025-10-02T01:16	10	0	0.1	0	0	326	0.3	325	326	6.5	83.7
2025-10-02T01:17	10	0	0.1	0	0	326	0.3	325	327	6.6	83.4
2025-10-02T01:18	10	0	0.1	0	0	326	0.3	325	326	6.5	83.3
2025-10-02T01:19	10	0	0.0	0	0	326	0.4	325	327	6.5	83.7
2025-10-02T01:20	10	0	0.1	-1	0	327	0.4	326	328	6.7	83.7
2025-10-02T01:21	10	0	0.1	-1	0	328	0.4	327	329	6.6	84.1
2025-10-02T01:22	10	0	0.1	-1	0	327	0.5	326	328	6.3	84.5
2025-10-02T01:23	10	0	0.1	0	0	326	0.5	324	327	6.3	84.9
2025-10-02T01:24	10	0	0.0	0	0	325	0.4	324	325	6.2	85.3
2025-10-02T01:25	10	0	0.0	0	0	324	0.4	323	325	6.1	85.7
2025-10-02T01:26	10	0	0.1	0	0	323	0.3	322	324	6.0	86.3
2025-10-02T01:27	10	0	0.1	0	0	323	0.3	322	323	5.8	86.8
2025-10-02T01:28	10	0	0.1	0	0	322	0.3	321	323	5.7	87.2
2025-10-02T01:29	10	0	0.1	0	0	321	0.3	321	322	5.6	87.8
2025-10-02T01:30	10	0	0.1	-1	0	321	0.3	321	322	5.5	88.3
2025-10-02T01:31	10	0	0.0	-1	0	321	0.3	320	321	5.5	88.8
2025-10-02T01:32	10	0	0.1	-1	0	321	0.3	321	322	5.4	89.0
2025-10-02T01:33	10	-1	0.1	-1	0	322	0.3	321	323	5.4	89.1
2025-10-02T01:34	10	-1	0.0	-1	0	322	0.2	321	322	5.6	88.8
2025-10-02T01:35	10	-1	0.1	-1	0	322	0.3	321	323	5.7	88.3
2025-10-02T01:36	10	0	0.1	-1	0	322	0.2	321	322	5.6	88.2
2025-10-02T01:37	10	-1	0.0	-1	0	321	0.3	321	322	5.5	88.4
2025-10-02T01:38	10	0	0.1	-1	0	322	0.5	321	322	5.5	88.4
2025-10-02T01:39	10	0	0.1	-1	0	322	0.2	321	322	5.5	88.4
2025-10-02T01:40	10	0	0.1	-1	0	321	0.4	321	322	5.7	87.9
2025-10-02T01:41	10	0	0.1	-1	0	321	0.3	320	322	5.7	87.9
2025-10-02T01:42	10	0	0.1	0	0	321	0.3	320	322	5.5	88.1
2025-10-02T01:43	10	0	0.1	-1	0	321	0.2	320	321	5.3	88.6
2025-10-02T01:44	10	0	0.1	-1	0	320	0.2	320	321	5.3	89.2
2025-10-02T01:45	10	0	0.1	0	0	320	0.2	320	321	5.2	89.5
2025-10-02T01:46	10	0	0.1	0	0	320	0.2	320	320	5.2	89.6
2025-10-02T01:47	10	0	0.1	-1	0	320	0.2	320	321	5.2	89.8
2025-10-02T01:48	10	0	0.1	0	0	320	0.2	320	321	5.2	89.9
2025-10-02T01:49	10	0	0.1	0	0	320	0.2	320	321	5.2	90.0
2025-10-02T01:50	10	0	0.1	0	0	320	0.3	320	321	5.2	90.2
2025-10-02T01:51	10	0	0.1	0	0	321	0.4	320	321	5.2	90.1
2025-10-02T01:52	10	0	0.1	0	0	321	0.3	320	322	5.2	90.2
2025-10-02T01:53	10	0	0.1	0	0	321	0.3	321	322	5.1	90.1
2025-10-02T01:54	10	0	0.1	0	0	321	0.3	321	322	5.0	90.4
2025-10-02T01:55	10	0	0.1	0	0	322	0.4	321	323	5.0	90.6
2025-10-02T01:56	10	0	0.1	0	0	323	0.2	322	323	5.2	90.3
2025-10-02T01:57	10	0	0.1	0	0	323	0.4	322	323	5.2	90.2
2025-10-02T01:58	10	0	0.1	0	0	322	0.3	322	323	4.9	90.6
2025-10-02T01:59	10	0	0.1	0	0	322	0.3	321	322	4.9	90.8
2025-10-02T02:00	10	0	0.1	0	0	321	0.3	321	322	5.0	91.1
2025-10-02T02:01	10	0	0.1	0	0	321	0.2	320	321	5.1	90.9
2025-10-02T02:02	10	0	0.1	0	0	321	0.3	320	322	5.2	90.1
2025-10-02T02:03	10	0	0.1	0	0	321	0.2	321	322	5.3	89.8
2025-10-02T02:04	10	0	0.1	0	0	321	0.2	320	321	5.3	89.5
2025-10-02T02:05	10	0	0.1	0	0	321	0.3	320	321	5.3	89.5
2025-10-02T02:06	10	0	0.1	0	0	321	0.3	320	321	5.4	89.1
2025-10-02T02:07	10	0	0.1	0	0	321	0.2	320	321	5.4	89.0
2025-10-02T02:08	10	0	0.1	0	0	320	0.3	320	321	5.4	88.8
2025-10-02T02:09	10	0	0.1	0	0	320	0.2	320	321	5.3	89.0
2025-10-02T02:10	10	0	0.1	0	0	320	0.2	320	321	5.3	89.2
2025-10-02T02:11	10	0	0.1	0	0	320	0.2	319	320	5.2	89.3
2025-10-02T02:12	10	0	0.1	0	0	320	0.2	319	320	5.2	89.4
2025-10-02T02:13	10	0	0.1	0	0	320	0.3	319	321	5.2	89.2
2025-10-02T02:14	10	0	0.1	0	0	321	0.6	320	322	5.3	88.5
2025-10-02T02:15	10	0	0.1	0	0	322	0.3	322	323	5.3	88.5
2025-10-02T02:16	10	0	0.1	-1	0	323	0.4	322	323	5.7	86.9
2025-10-02T02:17	10	0	0.1	0	0	322	0.3	322	323	5.8	86.0
2025-10-02T02:18	10	0	0.1	0	0	322	0.3	321	323	5.7	86.2
2025-10-02T02:19	10	0	0.1	0	0	321	0.3	321	322	5.6	86.3
2025-10-02T02:20	10	0	0.1	0	0	321	0.3	321	322	5.4	87.2
2025-10-02T02:21	10	0	0.1	0	0	321	0.3	321	322	5.4	87.8
2025-10-02T02:22	10	0	0.1	-1	0	321	0.2	320	321	5.3	88.8
2025-10-02T02:23	10	0	0.1	-1	0	321	0.4	320	321	5.2	89.2
2025-10-02T02:24	10	0	0.1	0	0	320	0.3	320	321	5.1	89.7
2025-10-02T02:25	10	0	0.1	0	0	320	0.2	320	321	5.1	89.6
2025-10-02T02:26	10	0	0.1	-1	0	321	0.3	320	321	5.0	90.1
2025-10-02T02:27	10	0	0.1	-1	0	321	0.3	320	321	4.9	90.9
2025-10-02T02:28	10	0	0.1	0	0	321	0.2	320	321	4.9	91.6
2025-10-02T02:29	10	0	0.1	0	0	321	0.3	320	321	4.9	92.0
2025-10-02T02:30	10	0	0.1	-1	0	320	0.3	319	321	4.8	92.3
2025-10-02T02:31	10	0	0.1	0	0	320	0.2	319	320	4.7	92.8
2025-10-02T02:32	10	0	0.1	0	0	320	0.3	319	320	4.6	93.4
2025-10-02T02:33	10	0	0.1	-1	0	319	0.2	318	319	4.7	93.5
2025-10-02T02:34	10	0	0.1	-1	0	319	0.3	318	320	4.7	93.5
2025-10-02T02:35	10	0	0.1	-1	0	319	0.2	319	320	4.8	93.1
2025-10-02T02:36	10	0	0.1	-1	0	319	0.2	319	320	4.8	92.7
2025-10-02T02:37	10	0	0.1	0	0	319	0.2	318	319	4.7	92.4
2025-10-02T02:38	10	0	0.1	-1	0	319	0.2	318	319	4.7	92.5
2025-10-02T02:39	10	0	0.1	0	0	318	0.3	318	319	4.6	92.5
2025-10-02T02:40	10	0	0.1	0	0	318	0.3	318	319	4.6	92.7
2025-10-02T02:41	10	0	0.1	0	0	318	0.3	317	318	4.6	92.8
2025-10-02T02:42	10	0	0.1	0	0	318	0.2	317	318	4.5	92.8
2025-10-02T02:43	10	0	0.1	0	0	318	0.2	317	318	4.4	93.1
2025-10-02T02:44	10	0	0.1	0	0	318	0.3	317	319	4.4	93.4
2025-10-02T02:45	10	0	0.1	-1	0	318	0.2	317	318	4.4	93.5
2025-10-02T02:46	10	0	0.1	-1	0	318	0.3	317	319	4.4	93.5
2025-10-02T02:47	10	0	0.1	-1	0	318	0.3	318	319	4.5	93.3
2025-10-02T02:48	10	0	0.1	-1	0	318	0.3	317	319	4.5	93.4
2025-10-02T02:49	10	0	0.1	0	0	318	0.3	317	319	4.4	93.3
2025-10-02T02:50	10	0	0.1	0	0	318	0.2	318	319	4.3	93.2
2025-10-02T02:51	10	0	0.1	0	0	318	0.3	318	319	4.3	93.1
2025-10-02T02:52	10	0	0.1	-1	0	318	0.2	318	319	4.3	93.4
2025-10-02T02:53	10	0	0.1	0	0	318	0.3	317	319	4.4	93.4
2025-10-02T02:54	10	0	0.1	0	0	318	0.3	317	318	4.4	93.5
2025-10-02T02:55	10	0	0.1	0	0	318	0.2	317	318	4.3	93.6
2025-10-02T02:56	10	0	0.1	0	0	318	0.4	317	319	4.2	93.4
2025-10-02T02:57	10	0	0.1	-1	0	319	0.3	318	319	4.3	93.6
2025-10-02T02:58	10	0	0.1	-1	0	319	0.2	319	319	4.3	93.6
2025-10-02T02:59	10	0	0.1	-1	0	319	0.3	318	319	4.4	93.0
2025-10-02T03:00	10	0	0.1	-1	0	319	0.2	318	319	4.3	93.4
2025-10-02T03:01	10	0	0.1	-1	0	319	0.4	318	320	4.3	93.1
2025-10-02T03:02	10	0	0.1	0	0	319	0.2	319	320	4.4	93.0
2025-10-02T03:03	10	0	0.1	0	0	320	0.2	319	320	4.5	92.4
2025-10-02T03:04	10	0	0.1	0	0	319	0.3	319	320	4.5	92.6
2025-10-02T03:05	10	0	0.1	0	0	319	0.3	318	319	4.3	93.2
2025-10-02T03:06	10	0	0.1	0	0	318	0.3	317	319	4.1	93.7
2025-10-02T03:07	10	0	0.1	0	0	318	0.2	317	318	4.1	94.1
2025-10-02T03:08	10	0	0.1	0	0	317	0.2	317	318	4.2	94.2
2025-10-02T03:09	10	0	0.1	0	0	317	0.3	316	318	4.2	94.8
2025-10-02T03:10	10	0	0.1	0	0	317	0.3	317	318	4.3	94.4
2025-10-02T03:11	10	0	0.1	0	0	317	0.2	316	317	4.3	94.9
2025-10-02T03:12	10	0	0.1	0	0	317	0.2	316	317	4.1	94.9
2025-10-02T03:13	10	0	0.1	0	0	317	0.2	316	317	3.9	94.7
2025-10-02T03:14	10	0	0.1	0	0	317	0.2	316	317	4.1	94.9
2025-10-02T03:15	10	0	0.1	0	0	317	0.2	316	317	4.1	95.4
2025-10-02T03:16	10	0	0.1	0	0	317	0.2	316	317	4.0	95.7
2025-10-02T03:17	10	0	0.1	0	0	316	0.2	316	317	4.0	95.6
2025-10-02T03:18	10	0	0.1	0	0	316	0.3	316	317	4.0	95.5
2025-10-02T03:19	10	0	0.1	0	0	316	0.3	315	317	4.0	95.8
2025-10-02T03:20	10	0	0.1	0	0	316	0.2	316	317	4.1	95.8
2025-10-02T03:21	10	0	0.1	0	0	316	0.2	316	317	4.0	96.1
2025-10-02T03:22	10	0	0.0	0	0	316	0.2	316	317	4.0	95.9
2025-10-02T03:23	10	0	0.1	0	0	316	0.2	316	316	4.0	95.7
2025-10-02T03:24	10	0	0.1	0	0	316	0.2	316	317	3.9	95.4
2025-10-02T03:25	10	0	0.1	0	0	317	0.4	316	317	4.1	94.9
2025-10-02T03:26	10	0	0.1	0	0	317	0.2	316	318	4.4	94.5
2025-10-02T03:27	10	0	0.1	0	0	316	0.4	316	317	4.2	94.9
2025-10-02T03:28	10	0	0.1	0	0	317	0.3	316	318	4.0	94.3
2025-10-02T03:29	10	0	0.1	0	0	317	0.2	317	317	4.3	94.6
2025-10-02T03:30	10	0	0.1	0	0	317	0.3	316	317	4.3	94.6
2025-10-02T03:31	10	0	0.1	0	0	317	0.2	316	317	4.1	94.5
2025-10-02T03:32	10	0	0.1	0	0	317	0.3	316	318	4.2	94.1
2025-10-02T03:33	10	0	0.1	0	0	316	0.3	316	317	4.4	94.2
2025-10-02T03:34	10	0	0.3	0	1	316	0.3	316	317	4.3	94.5
2025-10-02T03:35	10	0	0.1	0	0	316	0.3	315	317	4.1	94.5
2025-10-02T03:36	10	0	0.1	-1	0	316	0.2	315	316	4.0	94.5
2025-10-02T03:37	10	0	0.0	0	0	316	0.2	315	316	4.0	94.9
2025-10-02T03:38	10	0	0.1	-1	0	316	0.3	315	316	4.0	95.3
2025-10-02T03:39	10	0	0.1	-1	0	316	0.2	315	316	4.0	95.3
2025-10-02T03:40	10	0	0.1	0	0	316	0.3	315	316	4.1	95.5
2025-10-02T03:41	10	0	0.1	0	0	316	0.2	316	316	4.1	95.4
2025-10-02T03:42	10	0	0.1	-1	0	316	0.3	315	316	4.2	95.4
2025-10-02T03:43	10	0	0.0	0	0	316	0.3	315	316	4.1	95.6
2025-10-02T03:44	10	0	0.1	0	0	316	0.3	315	317	4.1	95.5
2025-10-02T03:45	10	0	0.1	0	0	316	0.2	315	316	4.1	95.4
2025-10-02T03:46	10	0	0.0	0	0	316	0.2	315	316	4.1	95.6
2025-10-02T03:47	10	0	0.1	0	0	315	0.3	315	316	4.0	95.9
2025-10-02T03:48	10	0	0.1	0	0	315	0.3	315	316	4.0	95.4
2025-10-02T03:49	10	0	0.1	0	0	315	0.2	315	316	4.0	95.2
2025-10-02T03:50	10	0	0.1	0	0	315	0.5	314	316	4.0	95.3
2025-10-02T03:51	10	0	0.0	0	0	315	0.2	314	315	3.7	95.3
2025-10-02T03:52	10	0	0.1	-1	0	315	0.3	314	315	3.6	95.7
2025-10-02T03:53	10	0	0.1	-1	0	315	0.2	315	316	3.6	95.8
2025-10-02T03:54	10	0	0.1	-1	0	315	0.2	315	316	3.7	96.0
2025-10-02T03:55	10	0	0.1	0	0	315	0.2	314	315	3.8	96.1
2025-10-02T03:56	10	0	0.0	0	0	315	0.2	315	316	3.8	96.1
2025-10-02T03:57	10	0	0.1	0	0	315	0.2	315	316	3.9	95.8
2025-10-02T03:58	10	0	0.1	-1	0	315	0.3	314	315	3.7	96.4
2025-10-02T03:59	10	0	0.1	-1	0	315	0.2	314	315	3.6	96.3
2025-10-02T04:00	10	0	0.2	-1	0	315	0.4	314	316	3.7	95.8
2025-10-02T04:01	10	0	0.1	-1	0	315	0.3	315	316	3.8	96.0
2025-10-02T04:02	10	0	0.1	-1	0	315	0.2	314	315	3.8	95.9
2025-10-02T04:03	10	0	0.1	-1	0	315	0.3	314	315	3.7	96.4
2025-10-02T04:04	10	0	0.1	-1	0	315	0.3	314	315	3.4	96.1
2025-10-02T04:05	10	0	0.1	-1	0	315	0.3	314	316	3.6	95.9
2025-10-02T04:06	10	0	0.1	-1	0	315	0.2	314	315	3.7	96.2
2025-10-02T04:07	10	0	0.1	-1	0	314	0.3	314	315	3.5	96.4
2025-10-02T04:08	10	0	0.1	-1	0	314	0.2	314	315	3.7	96.1
2025-10-02T04:09	10	0	0.1	-1	0	314	0.3	313	315	3.7	96.2
2025-10-02T04:10	10	0	0.1	-1	0	314	0.3	313	315	3.5	96.6
2025-10-02T04:11	10	0	0.1	-1	0	314	0.3	313	315	3.4	96.7
2025-10-02T04:12	10	-1	0.2	-1	0	314	0.3	313	315	3.4	97.0
2025-10-02T04:13	10	-1	0.1	-1	0	314	0.3	313	315	3.3	97.2
2025-10-02T04:14	10	0	0.2	-1	0	314	0.2	314	315	3.4	96.6
2025-10-02T04:15	10	0	0.1	-1	0	314	0.3	314	315	3.4	96.8
2025-10-02T04:16	10	0	0.1	-1	0	314	0.4	313	315	3.5	96.4
2025-10-02T04:17	10	0	0.1	-1	0	314	0.3	314	315	3.5	96.7
2025-10-02T04:18	10	0	0.1	-1	0	315	0.3	314	315	3.6	96.1
2025-10-02T04:19	10	0	0.1	0	0	315	0.3	315	316	4.0	96.1
2025-10-02T04:20	10	0	0.1	-1	0	315	0.2	314	315	4.0	96.6
2025-10-02T04:21	10	0	0.1	-1	0	315	0.3	314	315	4.0	96.5
2025-10-02T04:22	10	0	0.1	0	0	315	0.3	314	315	3.8	96.3
2025-10-02T04:23	10	0	0.1	-1	0	315	0.2	314	315	3.7	96.3
2025-10-02T04:24	10	0	0.1	-1	0	315	0.3	314	315	3.7	96.3
2025-10-02T04:25	10	0	0.1	-1	0	315	0.2	314	315	3.7	96.5
2025-10-02T04:26	10	0	0.1	-1	0	315	0.2	315	316	3.9	95.8
2025-10-02T04:27	10	0	0.1	0	0	315	0.4	314	316	4.1	95.9
2025-10-02T04:28	10	0	0.1	0	0	314	0.3	314	315	3.8	96.6
2025-10-02T04:29	10	0	0.1	-1	0	315	0.3	314	315	3.7	96.1
2025-10-02T04:30	10	0	0.1	-1	0	315	0.3	314	316	3.8	96.4
2025-10-02T04:31	10	0	0.1	-1	0	315	0.2	314	315	3.7	96.9
2025-10-02T04:32	10	0	0.1	-1	0	314	0.3	314	315	3.7	97.0
2025-10-02T04:33	10	0	0.1	0	0	315	0.2	314	315	3.6	96.6
2025-10-02T04:34	10	0	0.1	0	0	315	0.2	314	315	3.7	96.1
2025-10-02T04:35	10	0	0.1	0	0	314	0.2	314	315	3.8	96.0
2025-10-02T04:36	10	0	0.1	0	0	314	0.3	314	315	3.7	96.4
2025-10-02T04:37	10	0	0.1	-1	0	314	0.2	314	315	3.6	96.6
2025-10-02T04:38	10	0	0.0	0	0	315	0.2	314	315	3.7	96.3
2025-10-02T04:39	10	0	0.1	0	0	315	0.3	314	315	3.8	96.1
2025-10-02T04:40	10	0	0.1	0	0	314	0.2	314	315	3.9	95.6
2025-10-02T04:41	10	0	0.1	0	0	314	0.2	314	315	3.8	95.9
2025-10-02T04:42	10	0	0.1	0	0	314	0.2	313	314	3.7	95.9
2025-10-02T04:43	10	0	0.1	0	0	314	0.2	314	314	3.7	95.7
2025-10-02T04:44	10	0	0.1	0	0	314	0.3	313	314	3.7	95.8
2025-10-02T04:45	10	0	0.0	0	0	313	0.3	313	314	3.5	96.0
2025-10-02T04:46	10	0	0.0	-1	0	314	0.2	313	314	3.5	95.9
2025-10-02T04:47	10	0	0.1	-1	0	314	0.2	313	314	3.5	96.1
2025-10-02T04:48	10	0	0.1	-1	0	313	0.2	313	314	3.4	95.8
2025-10-02T04:49	10	0	0.1	-1	0	314	0.2	313	314	3.3	95.6
2025-10-02T04:50	10	-1	0.1	-1	0	313	0.2	313	314	3.2	95.7
2025-10-02T04:51	10	-1	0.1	-1	0	313	0.3	313	314	3.3	96.0
2025-10-02T04:52	10	-1	0.1	-1	0	313	0.2	313	314	3.1	96.3
2025-10-02T04:53	10	-1	0.1	-1	0	313	0.2	312	313	3.1	96.9
2025-10-02T04:54	10	0	0.1	-1	0	313	0.3	312	313	3.2	96.9
2025-10-02T04:55	10	0	0.1	-1	0	313	0.2	312	313	3.0	96.8
2025-10-02T04:56	10	-1	0.1	-1	0	313	0.2	312	313	3.1	96.6
2025-10-02T04:57	10	0	0.1	-1	0	313	0.3	312	314	3.0	97.4
2025-10-02T04:58	10	-1	0.1	-1	0	313	0.2	312	313	2.9	97.0
2025-10-02T04:59	10	-1	0.1	-1	0	313	0.2	313	314	3.1	97.4
2025-10-02T05:00	10	-1	0.1	-1	0	313	0.2	313	314	3.1	97.9
2025-10-02T05:01	10	0	0.1	-1	0	313	0.3	312	314	3.1	98.0
2025-10-02T05:02	10	0	0.1	-1	0	313	0.2	313	314	3.2	98.1
2025-10-02T05:03	10	0	0.1	-1	0	313	0.2	313	314	3.2	98.2
2025-10-02T05:04	10	0	0.1	-1	0	313	0.3	312	314	3.3	98.0
2025-10-02T05:05	10	0	0.0	0	0	313	0.2	313	314	3.2	97.9
2025-10-02T05:06	10	0	0.1	-1	0	314	0.4	313	314	3.3	97.5
2025-10-02T05:07	10	0	0.1	0	0	314	0.2	313	314	3.5	97.5
2025-10-02T05:08	10	0	0.1	0	0	314	0.2	313	314	3.6	97.7
2025-10-02T05:09	10	0	0.1	0	0	314	0.2	313	314	3.7	97.5
2025-10-02T05:10	10	0	0.0	0	0	314	0.2	313	314	3.6	97.7
2025-10-02T05:11	10	0	0.1	0	0	313	0.4	313	314	3.7	97.1
2025-10-02T05:12	10	0	0.1	0	0	313	0.2	312	313	3.6	98.1
2025-10-02T05:13	10	0	0.1	0	0	313	0.2	313	314	3.5	98.0
2025-10-02T05:14	10	0	0.1	0	0	313	0.2	312	313	3.5	97.5
2025-10-02T05:15	10	0	0.1	0	0	313	0.3	312	313	3.6	97.1
2025-10-02T05:16	10	0	0.1	0	0	313	0.2	313	313	3.7	97.0
2025-10-02T05:17	10	0	0.0	0	0	313	0.2	313	314	3.7	97.1
2025-10-02T05:18	10	1	7.0	0	51	313	0.3	313	314	3.6	97.1
2025-10-02T05:19	10	0	0.1	0	0	313	0.2	313	314	3.6	96.7
2025-10-02T05:20	10	0	0.1	0	0	313	0.3	313	314	3.7	96.9
2025-10-02T05:21	10	0	0.1	0	0	314	0.2	313	314	3.6	97.0
2025-10-02T05:22	10	0	0.1	0	0	313	0.2	313	314	3.5	96.8
2025-10-02T05:23	10	0	0.1	0	0	313	0.2	313	314	3.5	96.7
2025-10-02T05:24	10	0	0.1	0	0	313	0.2	313	314	3.5	97.0
2025-10-02T05:25	10	0	0.1	0	0	313	0.3	313	314	3.5	97.7
2025-10-02T05:26	10	0	0.1	0	1	313	0.2	313	314	3.4	97.5
2025-10-02T05:27	10	0	0.1	0	1	313	0.3	312	314	3.4	97.0
2025-10-02T05:28	10	0	0.0	0	1	313	0.2	312	313	3.4	97.5
2025-10-02T05:29	10	1	0.1	0	1	312	0.3	312	313	3.3	97.6
2025-10-02T05:30	10	1	0.1	0	1	313	0.2	312	313	3.3	97.4
2025-10-02T05:31	10	1	0.1	0	1	313	0.2	312	313	3.2	97.8
2025-10-02T05:32	10	1	0.1	1	1	313	0.2	313	313	3.2	98.1
2025-10-02T05:33	10	1	0.1	1	2	314	0.2	313	314	3.2	98.1
2025-10-02T05:34	10	1	0.0	1	1	314	0.3	313	314	3.4	97.5
2025-10-02T05:35	10	1	0.0	1	1	313	0.3	313	314	3.4	97.6
2025-10-02T05:36	10	1	0.1	1	1	314	0.2	313	314	3.4	97.6
2025-10-02T05:37	10	1	0.1	1	1	314	0.2	313	314	3.5	97.4
2025-10-02T05:38	10	1	0.1	1	1	314	0.4	313	314	3.5	97.4
2025-10-02T05:39	10	1	0.1	1	1	314	0.2	314	315	3.6	97.3
2025-10-02T05:40	10	1	0.1	1	1	314	0.3	313	314	3.6	97.6
2025-10-02T05:41	10	1	0.1	1	1	314	0.3	313	315	3.6	97.7
2025-10-02T05:42	10	1	0.1	1	1	314	0.2	314	315	3.6	97.4
2025-10-02T05:43	10	2	0.1	1	2	315	0.3	314	315	3.7	97.3
2025-10-02T05:44	10	2	0.1	2	2	315	0.2	315	316	3.8	96.9
2025-10-02T05:45	10	2	0.1	2	2	316	0.2	315	316	3.9	96.6
2025-10-02T05:46	10	2	0.1	2	2	316	0.2	315	316	4.0	96.6
2025-10-02T05:47	10	2	0.1	2	2	315	0.3	315	316	4.0	96.4
2025-10-02T05:48	10	2	0.1	2	2	315	0.3	315	316	3.9	96.1
2025-10-02T05:49	10	2	0.1	2	3	315	0.2	315	316	3.9	96.8
2025-10-02T05:50	10	3	0.1	2	3	315	0.3	314	316	3.8	97.0
2025-10-02T05:51	10	3	0.1	2	3	314	0.4	314	315	3.6	97.0
2025-10-02T05:52	10	3	0.2	3	4	314	0.2	314	315	3.1	96.6
2025-10-02T05:53	10	3	0.1	3	3	314	0.2	313	314	3.0	96.4
2025-10-02T05:54	10	3	0.1	3	3	314	0.3	314	315	3.0	96.4
2025-10-02T05:55	10	3	0.1	3	3	314	0.2	314	315	3.2	96.9
2025-10-02T05:56	10	3	0.1	3	3	314	0.2	313	315	3.3	97.0
2025-10-02T05:57	10	3	0.1	3	3	314	0.3	314	315	3.2	97.2
2025-10-02T05:58	10	3	0.1	3	4	314	0.3	314	315	3.0	97.7
2025-10-02T05:59	10	4	0.1	3	4	314	0.2	314	315	2.7	97.2
2025-10-02T06:00	10	4	0.3	3	6	314	0.3	314	315	2.8	96.9
2025-10-02T06:01	10	4	0.2	4	4	314	0.2	314	315	2.9	97.3
2025-10-02T06:02	10	5	0.4	4	6	315	0.3	314	315	3.0	97.8
2025-10-02T06:03	10	7	0.8	6	8	315	0.3	314	315	3.0	97.8
2025-10-02T06:04	10	10	0.8	9	11	315	0.3	314	316	3.1	97.9
2025-10-02T06:05	10	12	0.7	11	13	315	0.3	315	316	3.2	98.2
2025-10-02T06:06	10	14	0.4	13	15	316	0.2	315	316	3.1	98.2
2025-10-02T06:07	10	15	0.2	15	16	316	0.2	315	316	2.8	97.8
2025-10-02T06:08	10	16	0.2	15	16	316	0.3	315	316	2.8	97.4
2025-10-02T06:09	10	16	0.2	16	17	316	0.3	315	317	2.9	97.6
2025-10-02T06:10	10	17	0.2	17	17	316	0.3	316	317	3.1	97.8
2025-10-02T06:11	10	18	0.2	17	18	317	0.2	316	317	3.2	98.1
2025-10-02T06:12	10	19	0.2	18	19	317	0.2	316	317	3.2	98.2
2025-10-02T06:13	10	19	0.2	19	20	317	0.3	316	318	3.2	98.1
2025-10-02T06:14	10	20	0.2	20	20	317	0.2	317	318	3.2	97.7
2025-10-02T06:15	10	21	0.2	20	21	318	0.2	317	318	3.3	97.6
2025-10-02T06:16	10	21	0.2	21	22	318	0.2	317	318	3.3	97.7
2025-10-02T06:17	10	22	0.2	22	22	318	0.3	317	319	3.4	97.7
2025-10-02T06:18	10	23	0.2	22	23	318	0.2	318	319	3.4	97.8
2025-10-02T06:19	10	23	0.2	23	24	319	0.2	318	319	3.5	97.6
2025-10-02T06:20	10	24	0.2	24	24	319	0.2	318	319	3.5	97.4
2025-10-02T06:21	10	25	0.2	24	25	319	0.2	319	320	3.5	97.1
2025-10-02T06:22	10	25	0.2	25	26	319	0.3	319	320	3.4	97.1
2025-10-02T06:23	10	26	0.2	26	26	319	0.2	319	320	3.3	96.8
2025-10-02T06:24	10	26	0.2	26	27	320	0.2	319	320	3.3	96.8
2025-10-02T06:25	10	27	0.2	27	27	320	0.3	319	321	3.4	97.1
2025-10-02T06:26	10	27	0.2	27	28	320	0.2	320	321	3.3	97.0
2025-10-02T06:27	10	28	0.1	28	28	320	0.2	320	321	3.3	96.7
2025-10-02T06:28	10	29	0.2	28	29	321	0.3	320	321	3.3	96.5
2025-10-02T06:29	10	30	0.2	29	30	321	0.3	320	322	3.2	96.1
2025-10-02T06:30	10	30	0.2	30	31	322	0.3	321	322	3.4	96.1
2025-10-02T06:31	10	31	0.2	31	32	322	0.3	321	323	3.4	96.4
2025-10-02T06:32	10	32	0.3	32	33	322	0.2	322	323	3.5	96.6
2025-10-02T06:33	10	33	0.2	32	33	323	0.3	322	323	3.5	96.7
2025-10-02T06:34	10	33	0.2	33	34	323	0.2	322	323	3.5	96.7
2025-10-02T06:35	10	34	0.2	34	34	323	0.2	323	324	3.5	96.5
2025-10-02T06:36	10	35	0.2	34	35	324	0.3	323	324	3.5	96.3
2025-10-02T06:37	10	35	0.2	35	36	324	0.2	324	325	3.6	96.1
2025-10-02T06:38	10	36	0.2	36	37	325	0.2	325	326	3.6	96.2
2025-10-02T06:39	10	37	0.2	36	37	325	0.3	325	326	3.6	96.3
2025-10-02T06:40	10	38	0.2	37	38	326	0.3	326	327	3.6	96.1
2025-10-02T06:41	10	38	0.2	38	39	326	0.2	326	327	3.7	95.0
2025-10-02T06:42	10	39	0.2	39	39	327	0.2	326	328	3.7	94.6
2025-10-02T06:43	10	39	0.1	39	40	327	0.2	327	328	3.7	94.5
2025-10-02T06:44	10	40	0.1	39	40	328	0.2	327	328	3.7	94.6
2025-10-02T06:45	10	40	0.1	40	40	328	0.2	328	328	3.7	94.8
2025-10-02T06:46	10	40	0.2	40	41	329	0.3	328	329	3.7	95.2
2025-10-02T06:47	10	41	0.3	40	41	329	0.3	329	330	3.7	95.4
2025-10-02T06:48	10	41	0.2	41	42	330	0.2	330	331	3.8	95.4
2025-10-02T06:49	10	42	0.3	42	43	331	0.3	330	332	3.8	95.7
2025-10-02T06:50	10	43	0.2	42	43	331	0.3	331	332	3.8	95.6
2025-10-02T06:51	10	44	0.3	43	44	332	0.3	331	333	3.9	95.5
2025-10-02T06:52	10	44	0.3	44	45	333	0.3	332	333	4.0	95.7
2025-10-02T06:53	10	45	0.2	45	46	333	0.3	333	334	4.0	95.5
2025-10-02T06:54	10	46	0.2	45	46	334	0.4	333	335	4.0	94.9
2025-10-02T06:55	10	46	0.3	46	47	334	0.3	334	335	4.1	94.7
2025-10-02T06:56	10	47	0.3	47	48	335	0.3	334	335	4.1	94.6
2025-10-02T06:57	10	49	0.5	48	49	336	0.4	335	336	4.2	94.7
2025-10-02T06:58	10	50	0.4	49	51	336	0.3	336	337	4.2	94.9
2025-10-02T06:59	10	51	0.3	51	52	337	0.3	336	338	4.3	95.2
2025-10-02T07:00	10	52	0.3	51	53	338	0.2	337	338	4.3	95.0
2025-10-02T07:01	10	53	0.2	52	53	338	0.3	337	339	4.4	94.7
2025-10-02T07:02	10	53	0.3	53	54	339	0.3	338	339	4.4	94.6
2025-10-02T07:03	10	54	0.3	54	55	339	0.3	339	340	4.6	93.9
2025-10-02T07:04	10	55	0.3	54	56	340	0.3	339	340	4.8	93.6
2025-10-02T07:05	10	56	0.3	55	57	340	0.2	340	341	4.8	92.8
2025-10-02T07:06	10	57	0.3	56	57	341	0.2	340	341	4.8	92.6
2025-10-02T07:07	10	58	0.2	57	58	341	0.2	341	342	4.8	92.4
2025-10-02T07:08	10	59	0.2	58	59	342	0.2	341	342	4.8	92.8
2025-10-02T07:09	10	59	0.3	59	60	342	0.3	341	343	4.8	92.1
2025-10-02T07:10	10	60	0.1	60	60	343	0.2	342	343	4.8	91.9
2025-10-02T07:11	10	61	0.2	60	61	343	0.3	342	344	4.8	92.2
2025-10-02T07:12	10	61	0.1	61	61	343	0.2	343	344	4.8	92.4
2025-10-02T07:13	10	62	0.2	61	62	344	0.2	343	344	4.9	92.8
2025-10-02T07:14	10	62	0.3	62	64	344	0.3	343	345	5.0	93.3
2025-10-02T07:15	10	63	0.2	63	63	344	0.2	344	345	5.0	92.9
2025-10-02T07:16	10	64	0.3	63	64	345	0.3	344	346	5.0	92.8
2025-10-02T07:17	10	65	0.2	64	65	346	0.2	345	346	5.0	92.9
2025-10-02T07:18	10	66	0.3	65	66	346	0.2	346	346	5.1	93.1
2025-10-02T07:19	10	67	0.2	66	67	346	0.2	346	347	5.1	92.9
2025-10-02T07:20	10	67	0.2	67	67	347	0.2	346	347	5.1	92.7
2025-10-02T07:21	10	68	0.2	67	68	347	0.2	347	348	5.1	92.4
2025-10-02T07:22	10	69	0.2	68	69	347	0.2	347	348	5.1	91.2
2025-10-02T07:23	10	69	0.2	69	69	348	0.3	347	348	5.1	90.7
2025-10-02T07:24	10	70	0.2	69	70	348	0.2	348	349	5.1	90.4
2025-10-02T07:25	10	70	0.2	70	71	348	0.2	348	349	5.1	90.3
2025-10-02T07:26	10	71	0.2	70	71	348	0.2	348	349	5.1	89.8
2025-10-02T07:27	10	71	0.2	71	72	349	0.2	348	349	5.1	89.9
2025-10-02T07:28	10	72	0.2	72	72	349	0.3	349	350	5.2	90.4
2025-10-02T07:29	10	72	0.2	72	73	349	0.2	349	350	5.3	90.2
2025-10-02T07:30	10	73	0.3	73	74	350	0.2	350	350	5.4	90.4
2025-10-02T07:31	10	74	0.2	73	74	351	0.3	350	351	5.5	90.7
2025-10-02T07:32	10	74	0.2	74	75	351	0.3	350	351	5.5	90.7
2025-10-02T07:33	10	75	0.2	75	75	351	0.2	351	351	5.5	90.7
2025-10-02T07:34	10	76	0.2	75	76	351	0.2	351	352	5.5	90.7
2025-10-02T07:35	10	76	0.3	76	77	351	0.3	351	352	5.5	90.7
2025-10-02T07:36	10	77	0.2	77	77	351	0.3	350	352	5.5	90.7
2025-10-02T07:37	10	78	0.2	77	78	351	0.2	351	351	5.5	90.7
2025-10-02T07:38	10	78	0.2	78	79	352	0.2	351	352	5.4	90.2
2025-10-02T07:39	10	79	0.2	79	79	352	0.2	351	352	5.4	87.7
2025-10-02T07:40	10	79	0.1	79	79	352	0.3	352	353	5.4	88.7
2025-10-02T07:41	10	80	0.3	79	80	353	0.2	352	353	5.5	88.9
2025-10-02T07:42	10	80	0.2	80	80	353	0.2	352	353	5.4	88.2
2025-10-02T07:43	10	80	0.2	80	81	353	0.2	353	354	5.5	87.6
2025-10-02T07:44	10	80	1.7	75	81	354	0.3	353	354	5.5	87.7
2025-10-02T07:45	10	66	4.5	59	74	353	0.5	352	355	5.5	87.8
2025-10-02T07:46	10	78	2.2	74	81	353	0.2	352	353	5.5	87.3
2025-10-02T07:47	10	78	2.5	74	82	353	0.3	353	354	5.5	86.9
2025-10-02T07:48	10	83	0.7	82	84	354	0.4	353	355	5.6	87.4
2025-10-02T07:49	10	85	0.6	84	86	355	0.4	354	356	5.6	86.7
2025-10-02T07:50	10	86	0.7	83	86	356	0.3	355	356	5.7	87.1
2025-10-02T07:51	10	78	4.1	73	85	355	0.7	354	356	5.8	87.1
2025-10-02T07:52	10	85	0.1	85	86	355	0.5	354	356	5.7	86.4
2025-10-02T07:53	10	86	0.4	85	87	356	0.3	355	357	5.8	87.3
2025-10-02T07:54	10	87	0.2	87	88	357	0.2	356	357	5.9	87.4
2025-10-02T07:55	10	88	0.2	88	88	357	0.4	356	358	6.0	87.0
2025-10-02T07:56	10	89	0.2	88	89	357	0.3	357	358	5.8	85.6
2025-10-02T07:57	10	89	0.1	89	89	357	0.3	357	358	5.8	85.7
2025-10-02T07:58	10	90	0.2	89	90	357	0.3	357	358	5.9	85.6
2025-10-02T07:59	10	90	0.2	90	91	358	0.4	357	359	6.2	84.6
2025-10-02T08:00	10	91	0.1	91	91	359	0.2	358	359	6.4	84.1
2025-10-02T08:01	10	91	0.2	91	92	359	0.2	358	359	6.2	84.9
2025-10-02T08:02	10	92	0.2	92	92	359	0.2	359	360	6.2	86.1
2025-10-02T08:03	10	92	0.2	92	93	360	0.3	359	361	6.2	85.5
2025-10-02T08:04	10	93	0.4	93	94	360	0.2	360	361	6.3	85.3
2025-10-02T08:05	10	95	0.4	94	95	360	0.3	360	361	6.4	84.8
2025-10-02T08:06	10	95	0.3	94	95	361	0.2	361	362	6.7	83.2
2025-10-02T08:07	10	95	0.2	94	95	361	0.2	361	362	6.9	82.2
2025-10-02T08:08	10	95	0.2	95	95	362	0.3	361	362	6.9	82.0
2025-10-02T08:09	10	96	0.3	95	96	362	0.2	361	362	6.7	82.3
2025-10-02T08:10	10	97	0.5	96	98	363	0.2	362	363	6.6	83.6
2025-10-02T08:11	10	98	0.2	98	99	363	0.2	362	363	6.5	83.5
2025-10-02T08:12	10	99	0.3	99	100	363	0.3	362	363	6.5	83.4
2025-10-02T08:13	10	99	0.1	99	100	363	0.3	363	364	6.7	83.1
2025-10-02T08:14	10	99	0.1	99	100	364	0.3	363	364	6.8	83.5
2025-10-02T08:15	10	99	0.1	99	100	365	0.4	364	366	6.8	84.5
2025-10-02T08:16	10	99	0.1	99	100	366	0.2	365	366	6.8	84.4
2025-10-02T08:17	10	101	0.7	99	102	366	0.3	365	366	6.8	84.0
2025-10-02T08:18	10	103	0.9	102	105	366	0.2	366	366	6.9	83.8
2025-10-02T08:19	10	107	1.2	105	109	367	0.3	366	367	7.0	83.8
2025-10-02T08:20	10	111	1.0	109	112	367	0.2	367	368	7.0	83.6
2025-10-02T08:21	10	114	0.9	112	116	368	0.2	367	368	6.8	83.2
2025-10-02T08:22	10	117	0.2	116	117	369	0.7	367	370	6.9	83.8
2025-10-02T08:23	10	117	0.1	116	117	370	0.3	369	370	6.9	81.8
2025-10-02T08:24	10	115	0.8	113	116	369	0.3	369	370	7.0	83.2
2025-10-02T08:25	10	114	0.1	114	115	369	0.5	368	370	7.0	83.2
2025-10-02T08:26	10	111	6.5	97	116	369	0.5	368	370	6.8	82.6
2025-10-02T08:27	10	107	8.8	94	119	368	0.4	367	369	6.7	82.7
2025-10-02T08:28	10	119	0.4	118	119	367	0.6	366	368	6.7	83.2
2025-10-02T08:29	10	118	0.3	117	118	367	0.6	366	368	6.9	83.9
2025-10-02T08:30	10	117	0.2	117	118	369	0.8	368	371	7.1	84.8
2025-10-02T08:31	10	118	0.3	117	119	371	0.5	370	372	7.3	83.3
2025-10-02T08:32	10	118	1.5	114	119	371	0.5	370	372	7.3	83.2
2025-10-02T08:33	10	114	1.5	112	117	370	0.3	369	370	7.1	82.1
2025-10-02T08:34	10	120	1.0	118	121	371	0.3	370	372	7.2	82.6
2025-10-02T08:35	10	117	1.9	114	120	372	0.3	371	372	7.2	81.6
2025-10-02T08:36	10	104	14.4	68	115	371	0.6	369	372	7.3	82.4
2025-10-02T08:37	10	68	2.7	62	72	368	1.3	366	371	7.3	82.4
2025-10-02T08:38	10	57	3.0	52	64	365	0.7	364	367	7.1	81.3
2025-10-02T08:39	10	82	10.7	60	98	366	1.1	364	367	7.3	81.9
2025-10-02T08:40	10	59	3.1	55	66	366	0.7	365	367	7.3	82.3
2025-10-02T08:41	10	64	5.3	57	73	365	0.4	365	366	7.3	82.8
2025-10-02T08:42	10	102	16.0	73	123	369	2.2	365	371	7.5	82.4
2025-10-02T08:43	10	56	4.8	53	73	367	2.2	364	371	7.3	82.2
2025-10-02T08:44	10	52	1.5	49	54	363	0.6	362	365	7.0	82.0
2025-10-02T08:45	10	45	2.2	41	49	361	1.0	359	363	6.8	82.2
2025-10-02T08:46	10	42	1.9	41	46	359	0.4	358	360	6.8	82.4
2025-10-02T08:47	10	48	3.2	43	58	358	0.3	358	359	6.7	82.7
2025-10-02T08:48	10	115	25.4	59	137	363	4.1	357	369	6.8	82.8
2025-10-02T08:49	10	119	25.9	58	138	370	1.0	368	371	7.0	82.6
2025-10-02T08:50	10	58	3.7	54	66	366	1.7	363	369	6.9	82.4
2025-10-02T08:51	10	60	1.1	58	62	363	0.4	362	364	6.9	82.4
2025-10-02T08:52	10	58	2.1	56	62	363	0.3	362	363	6.9	82.6
2025-10-02T08:53	10	68	9.1	57	80	363	1.0	362	365	6.9	82.6
2025-10-02T08:54	10	61	4.2	57	73	364	0.6	363	365	7.2	82.8
2025-10-02T08:55	10	52	3.0	50	60	363	0.7	361	364	7.3	82.6
2025-10-02T08:56	10	56	7.6	51	79	361	0.5	360	363	7.3	82.1
2025-10-02T08:57	10	92	10.3	78	108	365	1.7	362	367	7.3	81.5
2025-10-02T08:58	10	83	7.8	75	101	368	1.0	366	370	7.5	81.8
2025-10-02T08:59	10	122	14.8	101	148	373	2.5	368	377	7.7	81.3
2025-10-02T09:00	10	153	1.5	148	154	379	1.4	375	380	7.8	81.3
2025-10-02T09:01	10	154	0.4	153	155	379	0.4	378	380	7.5	80.7
2025-10-02T09:02	10	147	6.4	132	154	380	0.4	380	381	7.4	80.7
2025-10-02T09:03	10	151	2.1	147	153	381	0.7	379	382	7.7	81.3
2025-10-02T09:04	10	147	0.9	146	149	379	0.6	378	380	7.5	80.5
2025-10-02T09:05	10	146	0.5	145	147	378	0.4	378	379	7.6	80.8
2025-10-02T09:06	10	149	1.9	146	152	379	0.4	378	380	7.6	80.8
2025-10-02T09:07	10	157	2.4	153	161	381	1.0	380	383	7.6	80.5
2025-10-02T09:08	10	160	1.1	159	162	384	0.8	382	385	7.8	80.6
2025-10-02T09:09	10	150	15.7	109	160	383	0.5	382	384	8.1	80.8
2025-10-02T09:10	10	75	23.3	54	111	377	4.7	371	384	8.1	79.8
2025-10-02T09:11	10	54	3.7	51	67	371	1.3	369	373	7.8	79.2
2025-10-02T09:12	10	83	23.7	57	133	370	1.0	368	372	7.7	80.2
2025-10-02T09:13	10	140	3.7	134	146	376	2.2	371	379	7.7	79.9
2025-10-02T09:14	10	138	6.8	128	147	379	0.9	378	381	7.7	79.5
2025-10-02T09:15	10	146	1.1	144	148	382	0.8	381	383	7.8	79.5
2025-10-02T09:16	10	143	1.0	141	144	381	0.8	380	383	7.7	79.1
2025-10-02T09:17	10	141	0.2	140	141	382	0.3	382	383	7.7	79.0
2025-10-02T09:18	10	142	0.5	140	142	383	0.7	382	384	8.0	79.7
2025-10-02T09:19	10	86	33.8	50	142	380	4.4	372	385	8.2	79.2
2025-10-02T09:20	10	107	23.6	51	142	376	1.8	373	379	8.2	79.2
2025-10-02T09:21	10	146	1.6	142	148	381	1.3	378	383	8.3	78.5
2025-10-02T09:22	10	149	1.4	147	151	384	0.9	382	386	8.4	79.1
2025-10-02T09:23	10	153	1.3	151	156	386	0.7	385	387	8.5	77.1
2025-10-02T09:24	10	156	1.8	152	158	388	0.8	387	389	8.8	75.4
2025-10-02T09:25	10	153	3.8	142	158	390	0.5	389	391	9.0	76.6
2025-10-02T09:26	10	122	13.4	102	143	389	2.2	385	391	8.7	76.5
2025-10-02T09:27	10	108	15.9	76	126	385	1.4	382	386	8.6	77.5
2025-10-02T09:28	10	132	23.9	92	156	383	1.6	381	386	8.4	77.8
2025-10-02T09:29	10	156	0.7	154	157	388	1.2	385	390	8.5	78.2
2025-10-02T09:30	10	148	6.7	134	155	387	0.6	386	389	8.4	77.7
2025-10-02T09:31	10	143	16.3	115	160	386	1.5	384	388	8.5	77.8
2025-10-02T09:32	10	163	0.9	161	164	389	0.8	387	390	8.6	78.0
2025-10-02T09:33	10	156	5.1	145	162	389	0.6	388	390	8.6	77.5
2025-10-02T09:34	10	125	19.7	88	153	385	2.0	383	389	8.6	77.2
2025-10-02T09:35	10	153	9.4	131	161	388	1.9	384	390	8.6	77.2
2025-10-02T09:36	10	131	16.4	111	159	387	2.2	384	390	8.6	77.2
2025-10-02T09:37	10	159	1.0	157	161	387	1.0	385	388	8.3	77.1
2025-10-02T09:38	10	161	2.2	157	164	390	1.2	388	392	8.4	77.4
2025-10-02T09:39	10	165	2.0	161	167	391	1.3	389	393	8.5	77.4
2025-10-02T09:40	10	108	30.6	79	165	389	4.0	383	395	8.7	77.5
2025-10-02T09:41	10	111	14.1	92	144	385	1.0	384	387	8.7	76.5
2025-10-02T09:42	10	125	18.8	101	155	386	1.1	384	388	8.7	77.0
2025-10-02T09:43	10	138	19.1	100	161	386	2.2	384	391	8.6	76.9
2025-10-02T09:44	10	127	13.0	104	147	387	1.4	385	391	8.7	77.2
2025-10-02T09:45	10	148	22.9	89	166	389	1.2	387	391	8.8	77.2
2025-10-02T09:46	10	94	27.4	66	152	383	2.0	381	388	8.6	76.5
2025-10-02T09:47	10	99	32.9	57	151	383	3.1	379	387	8.6	76.9
2025-10-02T09:48	10	103	18.6	78	142	381	1.0	379	384	8.6	76.9
2025-10-02T09:49	10	165	8.8	143	171	388	2.5	382	391	8.7	77.3
2025-10-02T09:50	10	169	0.8	168	171	391	0.4	390	392	8.8	76.9
2025-10-02T09:51	10	169	0.5	168	170	389	0.5	388	391	8.7	77.3
2025-10-02T09:52	10	170	1.4	166	172	391	0.7	389	392	8.7	77.5
2025-10-02T09:53	10	90	30.3	67	167	385	4.6	379	393	8.8	77.1
2025-10-02T09:54	10	72	11.4	58	101	379	1.8	376	382	8.6	77.0
2025-10-02T09:55	10	61	3.4	58	68	376	1.2	374	378	8.6	77.0
2025-10-02T09:56	10	67	8.3	58	91	374	0.5	373	375	8.8	77.1
2025-10-02T09:57	10	121	15.0	93	146	380	2.9	374	383	9.0	76.7
2025-10-02T09:58	10	72	7.4	62	89	379	1.8	377	382	9.1	76.4
2025-10-02T09:59	10	82	13.1	61	99	378	0.9	376	379	8.9	75.5
2025-10-02T10:00	10	53	3.6	49	60	374	2.2	371	378	8.9	76.3
2025-10-02T10:01	10	47	0.4	47	48	370	1.0	368	371	8.7	76.2
2025-10-02T10:02	10	47	0.6	47	49	369	0.2	368	369	8.6	76.2
2025-10-02T10:03	10	70	26.4	49	132	370	1.8	368	375	8.7	76.5
2025-10-02T10:04	10	153	8.2	133	161	381	4.5	373	387	8.8	75.8
2025-10-02T10:05	10	100	12.7	81	136	383	1.6	381	386	8.9	75.5
2025-10-02T10:06	10	83	35.9	48	148	378	2.4	374	382	8.9	75.8
2025-10-02T10:07	10	152	6.8	138	158	384	2.2	379	387	8.8	74.9
2025-10-02T10:08	10	156	0.9	154	157	388	0.8	387	389	8.9	74.7
2025-10-02T10:09	10	154	0.6	153	155	390	0.7	389	391	9.1	74.2
2025-10-02T10:10	10	110	32.6	67	155	386	4.8	378	392	9.4	74.4
2025-10-02T10:11	10	154	14.7	94	161	387	3.6	379	391	9.1	74.0
2025-10-02T10:12	10	157	2.2	152	161	391	0.5	390	392	9.3	74.1
2025-10-02T10:13	10	153	4.0	145	158	390	0.9	387	391	9.5	74.1
2025-10-02T10:14	10	144	1.2	142	147	387	0.5	386	388	9.7	73.8
2025-10-02T10:15	10	145	4.0	138	152	390	1.2	388	392	9.8	73.9
2025-10-02T10:16	10	152	0.6	151	153	394	0.7	392	395	9.9	73.0
2025-10-02T10:17	10	155	0.8	153	156	395	0.3	394	395	9.7	72.3
2025-10-02T10:18	10	155	6.0	124	159	393	1.4	391	395	9.4	72.9
2025-10-02T10:19	10	77	25.2	46	126	385	4.4	377	393	9.2	73.3
2025-10-02T10:20	10	36	3.1	32	45	375	2.7	371	380	9.2	74.3
2025-10-02T10:21	10	80	50.2	32	156	374	3.9	370	382	9.1	74.6
2025-10-02T10:22	10	139	22.5	99	160	385	1.9	380	387	9.3	74.6
2025-10-02T10:23	10	152	2.4	146	154	390	1.9	386	393	9.4	73.6
2025-10-02T10:24	10	154	0.7	153	155	394	0.7	392	395	9.7	73.7
2025-10-02T10:25	10	152	1.0	151	154	395	0.6	394	397	9.9	73.3
2025-10-02T10:26	10	150	0.4	149	151	397	0.4	396	397	10.0	72.6
2025-10-02T10:27	10	141	17.1	105	154	394	2.4	389	397	10.1	72.4
2025-10-02T10:28	10	83	13.0	64	118	385	2.5	382	391	10.0	73.2
2025-10-02T10:29	10	56	12.4	43	86	380	2.5	377	385	10.2	73.2
2025-10-02T10:30	10	78	17.4	52	106	380	0.8	378	381	10.0	72.8
2025-10-02T10:31	10	103	36.8	56	159	380	3.0	377	387	9.9	72.7
2025-10-02T10:32	10	159	0.3	159	160	390	2.2	385	392	9.8	72.3
2025-10-02T10:33	10	132	28.0	80	159	391	2.0	386	393	9.8	72.3
2025-10-02T10:34	10	111	41.4	36	154	388	2.6	381	391	9.8	73.0
2025-10-02T10:35	10	39	3.1	36	50	378	2.5	374	383	9.7	72.7
2025-10-02T10:36	10	136	27.2	52	159	383	5.7	373	391	9.8	72.9
2025-10-02T10:37	10	116	49.5	45	165	392	2.8	385	395	10.0	72.7
2025-10-02T10:38	10	45	7.9	38	75	382	2.6	378	387	10.2	73.0
2025-10-02T10:39	10	72	15.7	50	101	379	1.0	377	380	9.9	72.2
2025-10-02T10:40	10	116	46.8	50	166	382	5.1	376	391	9.9	72.7
2025-10-02T10:41	10	166	0.3	165	166	393	2.9	388	398	10.1	73.2
2025-10-02T10:42	10	168	1.0	166	170	398	1.0	397	401	10.3	72.1
2025-10-02T10:43	10	169	0.8	167	170	399	0.6	398	400	10.3	72.2
2025-10-02T10:44	10	156	6.5	148	167	398	1.3	396	400	10.4	71.9
2025-10-02T10:45	10	160	1.9	156	162	398	1.2	396	400	10.8	71.7
2025-10-02T10:46	10	157	1.4	154	159	397	0.6	396	398	10.5	69.9
2025-10-02T10:47	10	153	0.7	152	154	398	0.4	397	399	10.9	71.3
2025-10-02T10:48	10	155	0.7	154	156	399	0.3	399	400	10.8	70.3
2025-10-02T10:49	10	156	0.3	156	157	398	0.4	397	399	10.6	70.7
2025-10-02T10:50	10	157	0.3	157	158	399	0.6	398	400	10.8	70.5
2025-10-02T10:51	10	155	1.0	153	156	401	1.0	399	403	11.1	71.2
2025-10-02T10:52	10	153	0.1	153	154	398	1.2	396	399	10.9	70.2
2025-10-02T10:53	10	153	0.2	153	153	394	1.3	392	397	10.6	70.2
2025-10-02T10:54	10	152	0.2	152	153	394	1.4	392	397	10.3	70.6
2025-10-02T10:55	10	151	0.3	150	152	397	0.5	396	399	10.4	70.9
2025-10-02T10:56	10	150	0.2	150	150	398	0.7	397	399	10.8	71.8
2025-10-02T10:57	10	150	0.3	149	150	395	0.9	394	397	10.8	70.2
2025-10-02T10:58	10	146	2.9	139	149	396	0.6	395	397	10.4	69.5
2025-10-02T10:59	10	144	6.8	126	150	398	0.8	397	400	10.6	69.6
2025-10-02T11:00	10	151	0.2	150	151	400	0.3	399	401	10.5	69.6
2025-10-02T11:01	10	151	0.1	151	151	401	0.8	400	402	10.7	70.2
2025-10-02T11:02	10	151	0.4	151	152	400	0.8	399	402	10.9	70.3
2025-10-02T11:03	10	154	1.3	152	156	399	0.3	398	400	11.2	69.5
2025-10-02T11:04	10	110	50.7	36	157	397	4.7	387	401	11.0	68.9
2025-10-02T11:05	10	82	32.0	40	129	390	2.6	384	393	10.9	69.5
2025-10-02T11:06	10	98	42.6	46	151	386	2.6	383	391	10.7	69.1
2025-10-02T11:07	10	151	0.5	151	152	394	1.8	390	396	10.7	69.5
2025-10-02T11:08	10	150	1.3	148	152	397	1.3	395	400	10.8	69.5
2025-10-02T11:09	10	150	1.1	148	152	400	0.5	399	401	10.9	68.8
2025-10-02T11:10	10	118	28.4	67	152	397	3.1	392	401	10.9	69.8
2025-10-02T11:11	10	154	0.4	153	155	400	1.9	395	402	11.3	69.9
2025-10-02T11:12	10	152	0.6	151	154	398	1.6	396	401	10.8	68.7
2025-10-02T11:13	10	151	0.1	151	152	400	1.3	397	402	10.8	69.0
2025-10-02T11:14	10	151	0.6	149	151	402	0.4	401	403	11.0	69.7
2025-10-02T11:15	10	151	0.1	151	151	402	0.4	401	403	10.9	69.2
2025-10-02T11:16	10	151	0.2	150	151	403	0.5	402	404	11.2	69.9
2025-10-02T11:17	10	150	0.4	149	150	399	1.2	398	402	11.0	67.3
2025-10-02T11:18	10	149	0.3	148	149	400	0.5	399	401	10.9	67.5
2025-10-02T11:19	10	148	1.4	144	149	402	0.5	401	403	11.2	68.7
2025-10-02T11:20	10	138	3.6	129	144	399	1.1	397	401	11.4	67.4
2025-10-02T11:21	10	147	2.4	137	148	397	0.3	397	398	11.3	67.2
2025-10-02T11:22	10	149	0.7	148	150	399	0.6	397	400	11.6	67.7
2025-10-02T11:23	10	150	0.1	150	150	400	0.8	398	401	11.5	67.5
2025-10-02T11:24	10	150	0.1	150	150	399	0.5	398	400	11.5	66.7
2025-10-02T11:25	10	150	0.1	150	150	398	0.4	397	398	11.1	66.5
2025-10-02T11:26	10	150	0.3	149	150	400	0.9	399	402	11.0	66.9
2025-10-02T11:27	10	149	0.2	148	149	403	0.8	401	405	11.1	67.8
2025-10-02T11:28	10	149	0.2	149	150	405	0.4	404	406	11.3	67.5
2025-10-02T11:29	10	149	0.1	149	150	405	0.7	403	406	11.7	68.1
2025-10-02T11:30	10	149	0.3	148	149	402	1.3	399	404	11.6	66.5
2025-10-02T11:31	10	148	0.3	148	149	400	0.8	398	401	11.1	66.3
2025-10-02T11:32	10	148	0.1	148	149	398	1.4	397	401	11.2	66.3
2025-10-02T11:33	10	148	0.3	147	148	398	0.6	397	399	11.3	66.4
2025-10-02T11:34	10	147	0.1	147	148	397	0.5	396	398	11.3	66.0
2025-10-02T11:35	10	147	0.1	147	148	399	0.5	398	400	11.4	66.1
2025-10-02T11:36	10	148	0.2	147	148	399	0.5	398	400	11.1	65.8
2025-10-02T11:37	10	148	0.2	148	149	401	0.9	399	402	11.1	66.2
2025-10-02T11:38	10	148	0.1	148	149	403	0.6	401	404	11.5	66.1
2025-10-02T11:39	10	149	0.2	148	149	404	0.7	402	405	11.6	65.8
2025-10-02T11:40	10	149	0.2	148	149	402	1.2	400	404	11.6	65.1
2025-10-02T11:41	10	148	0.1	148	149	401	0.4	400	402	11.3	65.1
2025-10-02T11:42	10	148	0.4	147	148	403	0.6	401	404	11.6	65.8
2025-10-02T11:43	10	147	0.2	147	148	400	0.7	399	402	11.5	65.6
2025-10-02T11:44	10	147	0.1	147	148	399	0.6	398	399	11.5	66.0
2025-10-02T11:45	10	147	0.1	147	147	398	0.7	397	400	11.7	66.2
2025-10-02T11:46	10	147	0.2	147	148	398	0.4	397	400	11.8	65.7
2025-10-02T11:47	10	147	0.3	147	148	401	1.6	398	403	11.8	66.0
2025-10-02T11:48	10	148	0.2	147	148	401	0.5	400	403	11.7	65.8
2025-10-02T11:49	10	148	0.2	148	148	399	0.9	398	401	11.5	65.7
2025-10-02T11:50	10	148	0.2	147	148	400	0.4	399	400	11.7	66.0
2025-10-02T11:51	10	147	0.4	146	148	399	0.3	398	400	11.5	65.3
2025-10-02T11:52	10	146	0.2	146	147	398	0.7	397	399	11.1	65.6
2025-10-02T11:53	10	145	0.4	145	146	400	1.1	398	402	11.3	66.1
2025-10-02T11:54	10	146	0.2	146	147	400	1.0	399	402	11.4	66.2
2025-10-02T11:55	10	147	0.2	146	148	401	0.6	400	402	11.5	66.2
2025-10-02T11:56	10	147	0.2	147	148	402	0.4	401	403	11.8	66.0
2025-10-02T11:57	10	147	0.2	147	148	402	1.5	400	405	12.2	65.8
2025-10-02T11:58	10	147	0.1	147	148	404	0.8	402	405	12.1	64.9
2025-10-02T11:59	10	147	0.1	147	148	403	0.3	402	404	12.0	64.6
2025-10-02T12:00	10	147	0.1	147	148	405	1.0	403	407	12.3	65.5
2025-10-02T12:01	10	148	0.1	148	148	405	0.4	404	406	12.4	65.3
2025-10-02T12:02	10	148	0.1	148	148	403	1.3	401	405	12.5	64.9
2025-10-02T12:03	10	148	0.1	148	148	400	0.8	399	402	12.1	64.6
2025-10-02T12:04	10	148	0.2	147	148	401	0.5	400	402	11.7	64.6
2025-10-02T12:05	10	147	0.2	147	147	403	1.0	401	405	11.6	65.4
2025-10-02T12:06	10	147	0.1	146	147	400	0.8	398	401	11.4	64.8
2025-10-02T12:07	10	147	0.2	147	147	401	1.6	399	404	11.7	66.0
2025-10-02T12:08	10	147	0.3	146	147	400	1.1	399	403	12.0	64.8
2025-10-02T12:09	10	146	0.2	146	146	400	0.4	399	401	11.9	64.5
2025-10-02T12:10	10	146	0.1	146	146	401	0.7	400	402	12.0	64.5
2025-10-02T12:11	10	146	0.1	146	146	400	0.5	399	401	12.0	64.6
2025-10-02T12:12	10	146	0.1	146	146	402	0.4	401	402	12.6	64.8
2025-10-02T12:13	10	145	0.1	145	146	400	0.6	399	401	12.1	63.5
2025-10-02T12:14	10	145	0.2	145	146	400	0.7	399	402	12.1	64.1
2025-10-02T12:15	10	146	0.1	146	146	402	0.3	401	402	12.1	63.5
2025-10-02T12:16	10	146	0.1	146	146	400	1.2	398	402	12.3	63.6
2025-10-02T12:17	10	145	0.1	145	146	398	0.8	397	400	12.0	62.9
2025-10-02T12:18	10	145	0.1	145	146	397	0.7	395	398	12.0	62.8
2025-10-02T12:19	10	146	0.1	145	146	396	0.5	395	397	11.8	63.2
2025-10-02T12:20	10	145	0.2	145	146	399	1.0	397	401	11.7	63.2
2025-10-02T12:21	10	145	0.2	144	145	401	1.0	399	402	12.0	63.8
2025-10-02T12:22	10	144	0.1	144	145	398	0.6	397	399	12.1	63.3
2025-10-02T12:23	10	144	0.1	144	145	400	0.5	398	401	12.5	64.0
2025-10-02T12:24	10	144	0.1	144	144	400	0.9	399	401	12.4	63.5
2025-10-02T12:25	10	144	0.2	144	144	399	0.4	399	400	12.1	63.4
2025-10-02T12:26	10	144	0.1	143	144	397	1.6	396	400	12.0	62.8
2025-10-02T12:27	10	144	0.1	143	144	398	1.1	396	399	11.8	62.1
2025-10-02T12:28	10	143	0.2	143	144	400	0.4	399	400	12.1	62.8
2025-10-02T12:29	10	143	0.1	143	144	402	1.5	400	404	12.5	63.2
2025-10-02T12:30	10	144	0.2	143	144	403	0.4	402	404	12.7	62.3
2025-10-02T12:31	10	144	0.1	144	144	402	0.6	401	403	12.4	61.2
2025-10-02T12:32	10	144	0.2	144	144	402	0.6	401	403	12.3	61.6
2025-10-02T12:33	10	144	0.2	143	144	400	0.7	398	401	12.3	61.4
2025-10-02T12:34	10	143	0.3	143	144	398	1.2	396	400	12.1	61.2
2025-10-02T12:35	10	142	0.2	142	143	397	0.3	396	398	12.1	61.4
2025-10-02T12:36	10	142	0.2	142	143	398	1.0	397	400	12.1	61.1
2025-10-02T12:37	10	142	0.4	141	142	398	0.4	397	399	12.1	60.8
2025-10-02T12:38	10	141	0.1	141	141	399	0.9	398	401	12.4	61.2
2025-10-02T12:39	10	142	0.3	141	142	400	0.7	398	401	12.4	60.8
2025-10-02T12:40	10	142	0.3	142	144	400	0.4	399	401	12.3	60.7
2025-10-02T12:41	10	142	0.2	141	142	398	1.1	397	401	12.1	60.3
2025-10-02T12:42	10	141	0.1	141	142	399	0.5	398	400	12.4	60.7
2025-10-02T12:43	10	141	0.1	141	141	398	0.6	398	400	12.4	60.4
2025-10-02T12:44	10	141	0.2	140	141	400	0.5	399	401	12.6	60.4
2025-10-02T12:45	10	141	0.1	141	141	401	0.3	400	402	12.6	60.0
2025-10-02T12:46	10	141	0.2	140	141	401	1.0	398	402	12.5	59.7
2025-10-02T12:47	10	140	0.2	140	140	399	0.4	398	400	12.3	58.9
2025-10-02T12:48	10	139	0.2	139	140	399	0.5	397	399	12.3	58.9
2025-10-02T12:49	10	139	0.2	139	139	397	0.3	396	398	12.1	58.5
2025-10-02T12:50	10	139	0.2	139	139	397	0.2	397	398	12.1	58.0
2025-10-02T12:51	10	138	0.2	138	139	396	0.3	396	397	12.4	57.4
2025-10-02T12:52	10	138	0.1	138	138	398	1.8	396	401	12.6	57.8
2025-10-02T12:53	10	139	0.2	138	139	400	0.5	399	401	12.7	57.7
2025-10-02T12:54	10	139	0.1	139	139	400	0.5	399	401	12.6	57.4
2025-10-02T12:55	10	138	0.1	138	139	398	1.0	396	400	12.5	56.7
2025-10-02T12:56	10	138	0.1	138	138	397	0.5	396	398	12.5	57.0
2025-10-02T12:57	10	138	0.2	138	138	396	1.2	394	398	12.5	57.5
2025-10-02T12:58	10	138	0.1	137	138	398	0.8	397	399	12.6	57.1
2025-10-02T12:59	10	137	0.2	137	138	399	1.5	397	402	12.6	57.0
2025-10-02T13:00	10	137	0.3	137	138	400	0.8	399	401	12.6	56.1
2025-10-02T13:01	10	137	0.1	137	138	399	0.4	398	400	12.6	55.8
2025-10-02T13:02	10	137	0.1	137	138	397	0.5	396	398	12.6	55.0
2025-10-02T13:03	10	137	0.2	137	137	396	0.5	395	397	12.5	54.5
2025-10-02T13:04	10	136	0.1	136	137	396	0.4	395	397	12.6	53.9
2025-10-02T13:05	10	136	0.2	136	136	396	0.2	395	396	12.4	52.4
2025-10-02T13:06	10	136	0.1	136	136	399	1.4	396	401	12.6	53.9
2025-10-02T13:07	10	136	0.1	136	136	401	0.3	400	401	13.0	55.3
2025-10-02T13:08	10	136	0.2	135	136	399	0.9	398	400	13.0	53.9
2025-10-02T13:09	10	136	0.1	136	136	399	0.4	398	400	12.6	53.2
2025-10-02T13:10	10	136	0.1	136	136	397	0.5	397	399	12.5	54.4
2025-10-02T13:11	10	135	0.2	135	136	399	0.9	396	400	12.6	54.7
2025-10-02T13:12	10	135	0.2	134	135	395	0.4	395	396	12.3	53.5
2025-10-02T13:13	10	134	0.1	134	134	396	0.6	395	398	12.4	54.3
2025-10-02T13:14	10	134	0.1	134	134	397	0.4	396	398	12.6	54.3
2025-10-02T13:15	10	134	0.1	133	134	397	0.9	396	399	12.6	55.2
2025-10-02T13:16	10	134	0.2	133	134	400	0.8	398	401	12.9	55.3
2025-10-02T13:17	10	134	0.1	133	134	399	0.6	398	400	12.9	54.7
2025-10-02T13:18	10	133	0.1	133	134	400	0.2	400	401	12.7	54.2
2025-10-02T13:19	10	133	0.1	133	133	399	1.3	396	401	12.7	54.8
2025-10-02T13:20	10	133	0.2	132	133	396	0.4	396	397	12.5	54.6
2025-10-02T13:21	10	133	0.2	132	133	399	0.7	397	400	12.7	54.9
2025-10-02T13:22	10	132	0.2	132	133	397	0.3	397	398	12.8	54.0
2025-10-02T13:23	10	132	0.1	132	132	397	0.3	397	398	12.8	54.1
2025-10-02T13:24	10	131	0.2	131	132	399	1.0	397	401	13.1	54.9
2025-10-02T13:25	10	131	0.2	131	132	400	0.6	399	401	13.3	54.4
2025-10-02T13:26	10	131	0.2	131	132	398	0.7	397	400	13.0	53.8
2025-10-02T13:27	10	131	0.2	130	131	396	0.5	395	397	12.8	53.1
2025-10-02T13:28	10	131	0.2	130	131	396	0.6	396	398	12.9	53.4
2025-10-02T13:29	10	130	0.1	130	130	395	0.4	395	396	12.8	53.1
2025-10-02T13:30	10	130	0.2	130	130	395	0.3	394	396	12.8	53.0
2025-10-02T13:31	10	129	0.2	129	130	396	0.6	395	397	13.1	53.6
2025-10-02T13:32	10	129	0.2	129	129	395	0.5	395	397	12.8	53.2
2025-10-02T13:33	10	128	0.2	128	129	395	0.2	395	396	12.7	53.5
2025-10-02T13:34	10	128	0.2	128	129	396	0.3	395	396	12.7	53.3
2025-10-02T13:35	10	128	0.2	128	128	398	1.2	396	400	13.0	54.1
2025-10-02T13:36	10	128	0.2	127	128	397	1.3	395	399	13.1	53.3
2025-10-02T13:37	10	127	0.2	127	128	395	0.4	395	397	13.0	53.1
2025-10-02T13:38	10	127	0.1	127	127	398	0.5	397	399	13.1	53.9
2025-10-02T13:39	10	127	0.2	126	127	399	0.2	398	399	13.3	54.7
2025-10-02T13:40	10	127	0.2	126	127	400	0.5	399	401	13.3	54.2
2025-10-02T13:41	10	126	0.2	126	127	400	0.3	400	401	13.6	55.2
2025-10-02T13:42	10	126	0.2	126	127	398	0.9	396	400	13.2	52.8
2025-10-02T13:43	10	126	0.2	126	126	397	1.2	395	399	13.0	52.2
2025-10-02T13:44	10	126	0.2	125	126	395	0.6	394	396	12.8	52.2
2025-10-02T13:45	10	125	0.3	125	126	396	0.5	395	397	13.0	52.4
2025-10-02T13:46	10	125	0.2	124	125	397	0.6	396	398	13.3	52.1
2025-10-02T13:47	10	124	0.2	124	125	396	0.2	396	397	13.2	51.8
2025-10-02T13:48	10	124	0.1	124	124	398	0.5	396	399	13.2	52.4
2025-10-02T13:49	10	124	0.1	123	124	398	0.5	397	399	13.4	52.9
2025-10-02T13:50	10	123	0.2	123	124	398	1.1	395	399	13.4	52.8
2025-10-02T13:51	10	123	0.3	122	123	394	0.8	392	395	13.0	51.6
2025-10-02T13:52	10	122	0.2	121	122	395	0.9	393	396	12.9	53.0
2025-10-02T13:53	10	121	0.2	121	122	397	0.6	395	398	13.0	53.1
2025-10-02T13:54	10	121	0.1	121	121	397	0.3	396	397	13.2	53.3
2025-10-02T13:55	10	121	0.1	121	121	396	0.4	395	397	13.3	52.8
2025-10-02T13:56	10	121	0.1	120	121	396	1.1	394	397	13.3	51.6
2025-10-02T13:57	10	120	0.1	120	121	395	0.7	394	397	13.2	50.5
2025-10-02T13:58	10	120	0.1	120	120	394	0.4	394	395	13.2	50.6
2025-10-02T13:59	10	120	0.1	120	120	395	0.5	394	396	13.3	51.3
2025-10-02T14:00	10	120	0.1	119	120	395	0.4	394	396	13.2	50.6
2025-10-02T14:01	10	119	0.2	119	120	396	0.4	395	397	13.0	51.0
2025-10-02T14:02	10	119	0.2	118	119	395	0.3	395	396	13.1	51.5
2025-10-02T14:03	10	118	0.2	118	118	394	0.8	392	395	13.3	51.5
2025-10-02T14:04	10	118	0.1	117	118	392	0.4	391	393	12.8	51.5
2025-10-02T14:05	10	117	0.1	117	117	394	0.4	393	395	13.0	52.4
2025-10-02T14:06	10	117	0.1	116	117	396	0.9	395	398	13.1	52.8
2025-10-02T14:07	10	116	0.1	116	117	397	0.3	397	398	13.4	53.6
2025-10-02T14:08	10	116	0.2	116	116	396	0.8	394	397	13.4	52.0
2025-10-02T14:09	10	116	0.2	115	116	394	0.9	393	396	13.2	51.6
2025-10-02T14:10	10	115	0.2	115	115	393	0.3	392	394	13.1	51.8
2025-10-02T14:11	10	114	0.1	114	115	394	0.3	393	394	13.2	52.5
2025-10-02T14:12	10	114	0.1	114	114	394	0.6	393	395	13.3	52.6
2025-10-02T14:13	10	114	0.2	113	114	394	0.8	393	395	13.2	51.9
2025-10-02T14:14	10	113	0.5	112	114	395	0.7	394	396	13.4	52.7
2025-10-02T14:15	10	113	0.2	112	113	393	0.4	392	394	13.2	51.9
2025-10-02T14:16	10	113	0.3	112	113	393	0.5	392	394	13.0	51.6
2025-10-02T14:17	10	109	1.7	107	112	393	0.5	392	394	13.3	52.7
2025-10-02T14:18	10	109	1.0	107	111	392	0.3	392	393	13.2	51.6
2025-10-02T14:19	10	111	0.2	110	112	393	0.4	392	394	13.2	51.8
2025-10-02T14:20	10	111	0.3	110	111	392	0.5	391	393	13.2	51.5
2025-10-02T14:21	10	110	0.2	110	111	392	0.3	392	393	13.3	51.4
2025-10-02T14:22	10	110	0.1	110	110	393	0.6	392	394	13.4	51.7
2025-10-02T14:23	10	109	0.3	108	110	391	0.5	390	393	13.0	51.1
2025-10-02T14:24	10	107	1.1	105	109	392	0.3	391	392	13.2	51.6
2025-10-02T14:25	10	109	0.1	108	109	391	0.5	390	392	13.2	51.4
2025-10-02T14:26	10	108	0.2	107	109	390	0.4	389	391	13.1	51.3
2025-10-02T14:27	10	108	0.2	107	108	390	0.2	389	390	13.2	51.7
2025-10-02T14:28	10	107	0.1	107	107	390	0.5	389	391	13.3	51.8
2025-10-02T14:29	10	107	0.2	106	107	389	0.3	388	390	13.1	51.5
2025-10-02T14:30	10	106	0.2	106	106	391	0.9	389	392	13.3	52.7
2025-10-02T14:31	10	106	0.1	105	106	391	1.0	389	392	13.4	51.8
2025-10-02T14:32	10	106	0.1	105	106	390	0.5	389	391	13.5	52.4
2025-10-02T14:33	10	105	0.2	105	105	390	0.3	389	391	13.4	52.1
2025-10-02T14:34	10	105	0.1	104	105	390	0.4	389	391	13.4	52.5
2025-10-02T14:35	10	104	0.2	104	104	390	0.3	389	390	13.2	52.2
2025-10-02T14:36	10	103	0.2	103	104	391	0.6	390	392	13.4	53.3
2025-10-02T14:37	10	103	0.1	103	103	393	0.4	392	394	13.6	53.7
2025-10-02T14:38	10	103	0.2	102	103	392	1.1	390	394	13.6	52.8
2025-10-02T14:39	10	102	0.2	102	103	390	0.5	389	391	13.5	52.5
2025-10-02T14:40	10	102	0.2	101	102	390	0.5	389	391	13.5	52.6
2025-10-02T14:41	10	101	0.2	101	102	389	0.4	388	390	13.3	51.7
2025-10-02T14:42	10	101	0.2	101	101	390	0.4	389	390	13.5	52.9
2025-10-02T14:43	10	100	0.1	100	101	390	0.2	389	391	13.6	52.5
2025-10-02T14:44	10	100	0.2	100	100	391	0.3	390	392	13.7	53.1
2025-10-02T14:45	10	99	0.3	99	100	390	0.3	390	391	13.7	52.6
2025-10-02T14:46	10	99	0.1	98	99	390	0.9	388	391	13.7	52.5
2025-10-02T14:47	10	98	0.2	98	99	388	0.3	388	389	13.4	52.1
2025-10-02T14:48	10	98	0.2	97	98	388	0.3	387	388	13.4	52.5
2025-10-02T14:49	10	97	0.2	97	98	389	0.3	388	389	13.6	53.1
2025-10-02T14:50	10	97	0.2	96	97	389	0.3	388	389	13.5	53.0
2025-10-02T14:51	10	96	0.3	95	97	388	0.4	387	389	13.3	52.3
2025-10-02T14:52	10	95	0.3	95	96	387	0.2	387	388	13.4	52.8
2025-10-02T14:53	10	94	0.2	94	95	387	0.4	387	388	13.4	52.2
2025-10-02T14:54	10	94	0.2	93	94	386	0.5	385	387	13.4	51.9
2025-10-02T14:55	10	93	0.2	93	94	386	0.2	385	386	13.4	52.0
2025-10-02T14:56	10	93	0.1	93	93	386	0.3	385	386	13.4	52.1
2025-10-02T14:57	10	92	0.2	92	93	385	0.3	384	385	13.3	52.2
2025-10-02T14:58	10	92	0.1	91	92	386	0.3	385	386	13.4	52.5
2025-10-02T14:59	10	92	0.7	91	97	387	0.6	386	388	13.4	52.4
2025-10-02T15:00	10	91	0.2	91	91	387	0.3	387	388	13.5	52.7
2025-10-02T15:01	10	90	0.2	90	91	386	0.9	385	388	13.6	52.2
2025-10-02T15:02	10	90	0.1	89	90	386	0.3	385	387	13.6	52.2
2025-10-02T15:03	10	89	0.2	89	90	386	0.2	385	387	13.6	51.9
2025-10-02T15:04	10	88	0.2	88	89	386	0.5	385	387	13.6	52.0
2025-10-02T15:05	10	88	0.1	88	88	384	0.6	383	385	13.4	51.3
2025-10-02T15:06	10	87	0.3	87	88	383	0.3	382	384	13.4	51.2
2025-10-02T15:07	10	86	0.3	86	87	385	0.6	384	385	13.5	51.9
2025-10-02T15:08	10	86	0.1	86	86	386	0.3	385	386	13.7	52.2
2025-10-02T15:09	10	86	0.1	85	86	385	0.7	383	386	13.6	51.9
2025-10-02T15:10	10	85	0.1	85	86	384	0.3	383	385	13.4	51.0
2025-10-02T15:11	10	85	0.2	85	85	384	0.3	384	385	13.5	51.4
2025-10-02T15:12	10	84	0.2	84	85	383	0.3	382	383	13.4	49.7
2025-10-02T15:13	10	84	0.2	83	84	383	0.4	382	384	13.4	49.5
2025-10-02T15:14	10	83	0.1	83	84	384	0.3	383	384	13.6	50.6
2025-10-02T15:15	10	83	0.2	82	83	383	0.5	382	384	13.4	50.3
2025-10-02T15:16	10	82	0.6	82	86	382	0.2	381	383	13.3	51.1
2025-10-02T15:17	10	81	0.2	81	82	383	0.3	382	383	13.4	51.0
2025-10-02T15:18	10	81	0.2	80	81	382	0.5	382	383	13.4	50.7
2025-10-02T15:19	10	80	0.2	80	80	381	0.3	381	382	13.3	49.9
2025-10-02T15:20	10	79	0.2	79	80	381	0.3	381	382	13.3	48.9
2025-10-02T15:21	10	79	0.2	78	79	380	0.2	380	381	13.3	48.2
2025-10-02T15:22	10	78	0.4	77	78	380	0.3	380	381	13.3	48.4
2025-10-02T15:23	10	77	0.1	77	77	381	0.3	380	381	13.4	48.6
2025-10-02T15:24	10	77	0.6	75	77	382	0.2	381	382	13.5	49.7
2025-10-02T15:25	10	75	0.3	74	75	380	0.4	380	381	13.4	49.4
2025-10-02T15:26	10	74	0.8	73	75	380	0.2	380	380	13.4	49.8
2025-10-02T15:27	10	73	0.3	73	74	379	0.2	379	380	13.4	49.8
2025-10-02T15:28	10	73	0.1	73	74	380	0.3	379	380	13.4	49.9
2025-10-02T15:29	10	74	0.2	74	74	379	0.2	379	380	13.3	49.9
2025-10-02T15:30	10	74	0.2	73	74	380	0.3	379	380	13.4	50.5
2025-10-02T15:31	10	73	0.2	73	74	380	0.2	379	380	13.4	50.3
2025-10-02T15:32	10	73	0.1	72	73	379	0.6	378	380	13.3	50.3
2025-10-02T15:33	10	72	0.2	72	73	378	0.3	377	378	13.2	50.2
2025-10-02T15:34	10	72	0.1	71	72	378	0.2	377	378	13.2	50.5
2025-10-02T15:35	10	71	0.2	70	71	379	0.3	378	379	13.3	51.7
2025-10-02T15:36	10	70	0.2	70	71	379	0.3	378	380	13.4	52.5
2025-10-02T15:37	10	70	0.2	69	70	380	0.3	379	380	13.4	51.7
2025-10-02T15:38	10	69	0.2	69	70	379	0.3	379	380	13.4	51.6
2025-10-02T15:39	10	69	0.2	68	69	379	0.3	378	379	13.3	51.7
2025-10-02T15:40	10	68	0.3	67	68	378	0.2	377	379	13.3	52.3
2025-10-02T15:41	10	67	0.2	67	68	378	0.3	378	379	13.4	52.8
2025-10-02T15:42	10	67	0.2	66	67	379	0.2	378	379	13.4	53.0
2025-10-02T15:43	10	66	0.2	66	67	378	0.4	377	379	13.4	51.7
2025-10-02T15:44	10	65	0.2	65	66	377	0.4	376	378	13.3	51.1
2025-10-02T15:45	10	65	0.2	64	65	377	0.3	376	378	13.2	51.0
2025-10-02T15:46	10	64	0.2	63	64	377	0.2	376	377	13.2	51.0
2025-10-02T15:47	10	63	0.3	63	64	376	0.4	375	376	13.2	51.0
2025-10-02T15:48	10	62	0.3	62	63	375	0.3	374	376	13.1	51.2
2025-10-02T15:49	10	61	0.2	61	62	375	0.2	375	376	13.1	52.7
2025-10-02T15:50	10	61	0.2	61	61	374	0.3	374	375	13.1	49.9
2025-10-02T15:51	10	61	0.2	60	61	374	0.4	373	374	13.1	49.6
2025-10-02T15:52	10	60	0.3	59	60	374	0.3	373	375	13.1	50.3
2025-10-02T15:53	10	59	0.3	58	59	373	0.2	373	374	13.0	51.7
2025-10-02T15:54	10	58	0.3	57	58	373	0.2	373	374	13.0	52.2
2025-10-02T15:55	10	57	0.3	57	58	373	0.3	372	373	12.9	50.9
2025-10-02T15:56	10	56	0.2	56	57	372	0.2	372	373	12.9	51.7
2025-10-02T15:57	10	55	0.2	55	56	372	0.2	371	372	12.9	52.7
2025-10-02T15:58	10	55	0.2	54	55	372	0.3	371	373	12.9	52.2
2025-10-02T15:59	10	54	0.2	53	54	372	0.2	371	372	12.8	52.1
2025-10-02T16:00	10	53	0.2	53	53	371	0.3	371	372	12.8	52.1
2025-10-02T16:01	10	52	0.2	52	53	371	0.3	370	371	12.8	53.0
2025-10-02T16:02	10	52	0.2	51	52	371	0.2	370	371	12.8	52.6
2025-10-02T16:03	10	51	0.2	51	52	371	0.2	370	371	12.8	52.3
2025-10-02T16:04	10	51	0.2	50	51	370	0.2	370	371	12.8	53.1
2025-10-02T16:05	10	50	0.2	49	50	370	0.2	370	371	12.8	53.3
2025-10-02T16:06	10	49	0.2	49	50	370	0.2	370	370	12.7	53.2
2025-10-02T16:07	10	48	0.2	48	49	370	0.3	369	370	12.7	52.7
2025-10-02T16:08	10	48	0.2	47	48	369	0.3	368	369	12.7	52.0
2025-10-02T16:09	10	47	0.2	46	47	369	0.2	368	369	12.7	52.7
2025-10-02T16:10	10	46	0.3	45	46	368	0.2	368	369	12.6	52.8
2025-10-02T16:11	10	45	0.2	45	46	368	0.2	367	369	12.6	53.4
2025-10-02T16:12	10	45	0.6	43	45	368	0.3	367	369	12.7	53.3
2025-10-02T16:13	10	43	0.3	42	43	368	0.3	367	368	12.7	53.2
2025-10-02T16:14	10	42	0.3	42	43	367	0.2	367	368	12.6	53.5
2025-10-02T16:15	10	42	0.4	41	43	367	0.2	366	368	12.6	54.0
2025-10-02T16:16	10	40	0.6	39	42	367	0.3	366	367	12.6	54.6
2025-10-02T16:17	10	39	0.2	39	40	366	0.2	366	367	12.5	54.3
2025-10-02T16:18	10	38	0.4	37	39	366	0.3	366	367	12.6	54.4
2025-10-02T16:19	10	36	0.5	35	37	366	0.2	365	366	12.5	53.8
2025-10-02T16:20	10	32	2.0	29	35	365	0.4	364	366	12.5	54.3
2025-10-02T16:21	10	28	0.9	27	29	365	0.4	364	365	12.5	53.9
2025-10-02T16:22	10	25	1.2	23	27	364	0.2	364	365	12.5	53.2
2025-10-02T16:23	10	27	1.7	24	34	363	0.2	363	364	12.4	53.6
2025-10-02T16:24	10	31	1.2	28	32	363	0.4	362	364	12.4	52.5
2025-10-02T16:25	10	32	0.3	31	33	363	0.3	363	364	12.4	52.8
2025-10-02T16:26	10	33	0.5	32	34	364	0.3	363	364	12.5	52.3
2025-10-02T16:27	10	33	0.7	32	34	363	0.2	363	364	12.4	53.4
2025-10-02T16:28	10	31	0.9	29	32	363	0.3	362	363	12.3	53.2
2025-10-02T16:29	10	26	1.9	23	29	362	0.5	361	363	12.3	53.1
2025-10-02T16:30	10	22	0.4	21	23	361	0.4	361	362	12.3	52.3
2025-10-02T16:31	10	22	0.7	21	23	361	0.3	361	361	12.2	52.8
2025-10-02T16:32	10	25	0.6	23	26	361	0.3	360	362	12.2	52.5
2025-10-02T16:33	10	26	0.2	26	26	361	0.2	360	361	12.1	53.6
2025-10-02T16:34	10	26	0.4	25	27	360	0.2	359	360	12.0	54.0
2025-10-02T16:35	10	24	0.9	22	25	360	0.3	359	360	12.0	54.1
2025-10-02T16:36	10	19	1.5	17	22	359	0.3	359	360	12.1	53.5
2025-10-02T16:37	10	17	0.2	17	17	360	0.3	359	360	12.1	53.1
2025-10-02T16:38	10	18	0.3	17	18	359	0.2	359	360	12.0	53.7
2025-10-02T16:39	10	18	0.1	18	18	358	0.2	358	359	12.0	54.1
2025-10-02T16:40	10	17	0.3	16	18	358	0.3	357	359	12.0	54.2
2025-10-02T16:41	10	15	1.1	13	16	358	0.3	357	359	11.9	54.5
2025-10-02T16:42	10	11	0.7	10	13	357	0.4	357	358	11.9	55.3
2025-10-02T16:43	10	11	0.2	11	12	357	0.3	357	358	11.9	54.9
2025-10-02T16:44	10	10	0.3	10	11	357	0.4	356	358	11.9	54.5
2025-10-02T16:45	10	9	0.3	8	10	357	0.2	356	357	11.9	54.5
2025-10-02T16:46	10	8	0.5	7	9	356	0.3	355	357	11.8	55.5
2025-10-02T16:47	10	7	0.2	6	7	356	0.3	355	356	11.7	56.1
2025-10-02T16:48	10	8	0.5	7	9	355	0.2	355	356	11.8	55.5
2025-10-02T16:49	10	10	0.6	8	11	355	0.3	354	356	11.8	55.7
2025-10-02T16:50	10	11	0.3	11	12	355	0.3	354	355	11.8	56.0
2025-10-02T16:51	10	12	0.2	11	12	355	0.3	354	356	11.7	56.3
2025-10-02T16:52	10	10	0.4	10	11	354	0.3	354	355	11.7	56.7
2025-10-02T16:53	10	9	0.3	8	10	354	0.2	353	354	11.6	57.1
2025-10-02T16:54	10	8	0.5	7	9	353	0.4	352	354	11.6	57.5
2025-10-02T16:55	10	7	0.1	6	7	352	0.3	352	353	11.5	57.8
2025-10-02T16:56	10	6	0.4	5	7	352	0.3	351	353	11.5	58.4
2025-10-02T16:57	10	4	0.6	3	5	352	0.3	352	353	11.4	58.7
2025-10-02T16:58	10	3	0.3	2	3	351	0.4	350	352	11.4	59.0
2025-10-02T16:59	10	2	0.1	2	2	350	0.3	350	351	11.5	58.5
2025-10-02T17:00	10	2	0.1	2	2	350	0.3	350	351	11.4	58.8
2025-10-02T17:01	10	2	0.1	1	2	349	0.4	348	350	11.4	59.3
2025-10-02T17:02	10	1	0.1	1	2	348	0.2	348	349	11.3	60.0
2025-10-02T17:03	10	1	0.1	1	1	347	0.3	347	348	11.3	59.8
2025-10-02T17:04	10	1	0.1	1	1	347	0.2	346	347	11.3	60.0
2025-10-02T17:05	10	1	0.1	1	1	346	0.2	346	347	11.2	60.4
2025-10-02T17:06	10	1	0.1	1	1	346	0.3	346	347	11.3	60.1
2025-10-02T17:07	10	1	0.1	1	1	348	0.9	346	349	11.3	60.1
2025-10-02T17:08	10	1	0.1	1	1	349	0.3	348	349	11.3	60.3
2025-10-02T17:09	10	1	0.0	1	1	348	0.4	347	349	11.2	60.6
2025-10-02T17:10	10	1	0.1	0	1	346	0.4	346	347	11.2	60.7
2025-10-02T17:11	10	0	0.1	0	1	345	0.4	345	346	11.1	61.1
2025-10-02T17:12	10	0	0.1	0	0	344	0.4	343	345	11.1	61.4
2025-10-02T17:13	10	0	0.1	0	1	344	0.3	343	344	11.1	61.3
2025-10-02T17:14	10	0	0.2	0	1	344	0.4	343	344	11.1	61.6
2025-10-02T17:15	10	0	0.1	0	1	344	0.3	343	345	11.1	61.5
2025-10-02T17:16	10	0	0.2	0	0	345	0.5	344	345	11.0	61.9
2025-10-02T17:17	10	0	0.1	0	0	344	0.3	343	345	11.0	61.8
2025-10-02T17:18	10	0	0.2	0	1	344	0.3	343	344	11.0	62.0
2025-10-02T17:19	10	0	0.2	0	1	343	0.3	342	343	11.0	62.2
2025-10-02T17:20	10	0	0.2	0	0	343	0.3	342	343	10.9	62.6
2025-10-02T17:21	10	0	0.2	0	1	343	0.3	342	343	10.8	63.0
2025-10-02T17:22	10	0	0.1	0	0	342	0.3	341	343	10.6	64.2
2025-10-02T17:23	10	0	0.1	0	0	341	0.3	341	342	10.6	64.7
2025-10-02T17:24	10	0	0.1	0	0	341	0.2	341	341	10.5	65.0
2025-10-02T17:25	10	0	0.1	0	0	341	0.2	340	341	10.5	65.5
2025-10-02T17:26	10	0	0.1	0	0	340	0.2	340	341	10.4	65.9
2025-10-02T17:27	10	0	0.7	0	5	340	0.2	339	340	10.4	66.3
2025-10-02T17:28	10	0	0.1	0	0	340	0.3	339	340	10.3	66.9
2025-10-02T17:29	10	0	0.1	-1	0	339	0.3	339	340	10.3	67.2
2025-10-02T17:30	10	0	0.1	0	0	340	0.3	339	341	10.3	67.3
2025-10-02T17:31	10	0	0.1	-1	0	340	0.2	339	341	10.2	68.2
2025-10-02T17:32	10	0	0.1	0	0	340	0.3	339	340	10.1	68.2
2025-10-02T17:33	10	0	0.1	0	0	340	0.3	339	340	10.1	68.4
2025-10-02T17:34	10	0	0.1	0	0	340	0.2	339	340	10.1	68.2
2025-10-02T17:35	10	0	0.1	-1	0	339	0.2	339	340	10.1	68.0
2025-10-02T17:36	10	0	0.1	0	0	339	0.3	338	339	10.1	68.3
2025-10-02T17:37	10	0	0.1	-1	0	338	0.2	338	339	10.1	68.5
2025-10-02T17:38	10	0	0.1	-1	0	338	0.2	337	338	10.0	68.9
2025-10-02T17:39	10	0	0.1	-1	0	338	0.2	337	338	10.0	68.9
2025-10-02T17:40	10	0	0.1	-1	0	337	0.2	337	338	10.0	68.9
2025-10-02T17:41	10	0	0.1	-1	0	337	0.2	337	338	10.0	68.8
2025-10-02T17:42	10	0	0.1	-1	0	337	0.2	337	338	10.0	69.1
2025-10-02T17:43	10	0	0.1	-1	0	337	0.3	337	338	9.9	69.2
2025-10-02T17:44	10	0	0.1	-1	0	337	0.2	337	338	10.0	69.1
2025-10-02T17:45	10	0	0.1	-1	0	338	0.4	337	338	10.0	69.1
2025-10-02T17:46	10	0	0.1	0	0	338	0.3	338	339	9.9	69.7
2025-10-02T17:47	10	0	0.1	0	0	339	0.3	338	339	9.9	69.9
2025-10-02T17:48	10	0	0.1	0	0	338	0.2	338	339	9.9	70.1
2025-10-02T17:49	10	0	0.7	0	4	338	0.2	337	338	9.8	70.4
2025-10-02T17:50	10	0	0.1	0	0	337	0.2	337	338	9.7	70.9
2025-10-02T17:51	10	0	0.1	0	0	337	0.2	336	337	9.7	70.8
2025-10-02T17:52	10	0	0.1	0	0	336	0.3	336	337	9.7	71.0
2025-10-02T17:53	10	0	0.1	0	0	336	0.3	335	337	9.7	71.2
2025-10-02T17:54	10	0	0.0	0	0	336	0.3	335	337	9.7	71.1
2025-10-02T17:55	10	0	0.1	0	0	336	0.3	336	337	9.7	71.1
2025-10-02T17:56	10	0	0.1	0	0	336	0.2	335	336	9.7	71.0
2025-10-02T17:57	10	0	0.1	0	0	336	0.2	335	336	9.7	71.2
2025-10-02T17:58	10	0	0.1	0	0	336	0.2	335	336	9.6	71.5
2025-10-02T17:59	10	0	0.1	0	0	336	0.2	335	336	9.6	71.5
2025-10-02T18:00	10	0	0.1	0	0	335	0.2	335	336	9.6	71.5
2025-10-02T18:01	10	0	0.1	0	0	335	0.1	335	336	9.6	71.6
2025-10-02T18:02	10	0	0.1	0	0	335	0.2	335	336	9.6	71.5
2025-10-02T18:03	10	0	0.1	0	0	335	0.3	334	336	9.6	71.9
2025-10-02T18:04	10	0	0.1	0	0	336	0.2	335	336	9.5	72.1
2025-10-02T18:05	10	0	0.1	0	0	335	0.2	335	336	9.6	71.9
2025-10-02T18:06	10	0	0.2	0	0	335	0.2	335	336	9.6	72.0
2025-10-02T18:07	10	0	0.1	-1	0	335	0.3	334	335	9.6	72.1
2025-10-02T18:08	10	0	0.2	0	0	335	0.3	334	336	9.6	72.1
2025-10-02T18:09	10	0	0.1	-1	0	335	0.2	335	336	9.6	72.3
2025-10-02T18:10	10	0	0.2	-1	0	335	0.3	334	336	9.5	72.7
2025-10-02T18:11	10	0	0.2	-1	0	335	0.2	334	335	9.5	72.8
2025-10-02T18:12	10	0	0.1	-1	0	335	0.3	334	336	9.4	72.9
2025-10-02T18:13	10	0	0.1	-1	0	335	0.3	334	335	9.5	72.9
2025-10-02T18:14	10	0	0.1	0	0	334	0.3	334	335	9.4	73.2
2025-10-02T18:15	10	0	0.1	0	0	334	0.2	333	334	9.4	73.3
2025-10-02T18:16	10	0	0.1	0	0	334	0.2	334	335	9.4	73.4
2025-10-02T18:17	10	0	0.1	0	0	334	0.3	334	335	9.4	73.5
2025-10-02T18:18	10	0	0.1	0	0	334	0.3	333	335	9.4	73.6
2025-10-02T18:19	10	0	0.1	0	0	334	0.2	334	334	9.4	73.7
2025-10-02T18:20	10	0	0.1	0	0	334	0.2	334	335	9.4	73.5
2025-10-02T18:21	10	0	0.1	0	0	334	0.2	334	335	9.4	73.4
2025-10-02T18:22	10	0	0.1	0	0	334	0.2	334	335	9.4	73.5
2025-10-02T18:23	10	0	0.1	0	0	334	0.3	333	335	9.4	73.5
2025-10-02T18:24	10	0	0.1	0	0	334	0.2	334	334	9.4	73.6
2025-10-02T18:25	10	0	0.1	0	0	334	0.3	333	334	9.3	73.8
2025-10-02T18:26	10	0	0.1	0	0	334	0.3	333	334	9.3	74.1
2025-10-02T18:27	10	0	0.1	0	0	333	0.2	333	334	9.2	74.4
2025-10-02T18:28	10	0	0.1	0	0	333	0.2	333	334	9.2	74.5
2025-10-02T18:29	10	0	0.1	0	0	333	0.2	333	333	9.2	74.7
2025-10-02T18:30	10	0	0.1	0	0	333	0.3	332	333	9.2	74.6
2025-10-02T18:31	10	0	0.1	0	0	333	0.2	332	333	9.1	74.8
2025-10-02T18:32	10	0	0.1	0	0	333	0.2	332	333	9.1	75.0
2025-10-02T18:33	10	0	0.0	0	0	332	0.3	332	333	9.1	74.9
2025-10-02T18:34	10	0	0.1	0	0	332	0.2	332	333	9.1	74.9
2025-10-02T18:35	10	0	0.1	0	0	332	0.4	331	333	9.0	75.6
2025-10-02T18:36	10	0	0.1	0	0	331	0.3	331	332	8.8	77.2
2025-10-02T18:37	10	0	0.1	0	0	332	0.3	331	332	8.7	76.7
2025-10-02T18:38	10	0	0.1	0	0	332	0.3	331	332	8.8	76.4
2025-10-02T18:39	10	0	0.1	0	0	332	0.4	331	333	8.5	78.3
2025-10-02T18:40	10	0	0.1	0	0	333	0.3	332	333	8.4	79.0
2025-10-02T18:41	10	0	0.1	0	0	333	0.2	333	334	8.4	79.0
2025-10-02T18:42	10	0	0.1	0	0	334	0.3	333	335	8.3	78.9
2025-10-02T18:43	10	0	0.1	0	0	334	0.3	333	334	8.4	78.6
2025-10-02T18:44	10	0	0.1	0	0	334	0.4	333	334	8.3	79.2
2025-10-02T18:45	10	0	0.1	0	0	334	0.4	333	335	8.2	79.8
2025-10-02T18:46	10	0	0.1	0	0	334	0.3	334	335	8.4	78.9
2025-10-02T18:47	10	0	0.1	0	0	334	0.2	333	334	8.4	78.6
2025-10-02T18:48	10	0	0.1	0	0	333	0.2	333	334	8.4	78.6
2025-10-02T18:49	10	0	0.1	0	0	333	0.3	332	333	8.4	78.9
2025-10-02T18:50	10	0	0.1	0	0	332	0.2	331	332	8.3	79.4
2025-10-02T18:51	10	0	0.1	0	0	331	0.2	331	332	8.2	80.1
2025-10-02T18:52	10	0	0.1	0	0	331	0.2	331	332	8.2	80.5
2025-10-02T18:53	10	0	0.1	0	0	331	0.4	330	332	8.3	79.6
2025-10-02T18:54	10	0	0.1	0	0	332	0.3	331	333	8.4	78.2
2025-10-02T18:55	10	0	0.1	0	0	332	0.2	332	333	8.3	79.5
2025-10-02T18:56	10	0	0.1	0	0	332	0.2	331	332	8.2	80.3
2025-10-02T18:57	10	0	0.1	0	0	331	0.2	331	332	8.2	80.6
2025-10-02T18:58	10	0	0.1	0	0	331	0.2	330	331	8.2	80.2
2025-10-02T18:59	10	0	0.1	0	0	331	0.2	330	331	8.3	79.3
2025-10-02T19:00	10	0	0.1	0	0	331	0.3	330	331	8.4	78.9
2025-10-02T19:01	10	0	0.1	0	0	331	0.2	331	331	8.3	79.5
2025-10-02T19:02	10	0	0.1	0	0	331	0.2	331	332	8.3	79.8
2025-10-02T19:03	10	0	0.1	0	0	331	0.2	331	332	8.3	79.6
2025-10-02T19:04	10	0	0.1	0	0	331	0.3	331	332	8.4	79.0
2025-10-02T19:05	10	0	0.1	0	0	332	0.2	331	332	8.4	78.6
2025-10-02T19:06	10	0	0.1	0	0	331	0.2	331	332	8.4	78.8
2025-10-02T19:07	10	0	0.1	0	0	331	0.2	331	332	8.1	80.4
2025-10-02T19:08	10	0	0.1	0	0	332	0.2	331	333	8.1	80.7
2025-10-02T19:09	10	0	0.1	0	0	332	0.3	331	333	8.1	80.4
2025-10-02T19:10	10	0	0.0	0	0	332	0.3	332	333	8.1	80.2
2025-10-02T19:11	10	0	0.1	0	0	332	0.3	331	332	8.0	81.4
2025-10-02T19:12	10	0	0.1	0	0	332	0.4	331	333	7.9	81.5
2025-10-02T19:13	10	0	0.1	0	0	332	0.2	332	333	8.1	80.6
2025-10-02T19:14	10	0	0.1	0	0	332	0.2	332	333	8.1	80.3
2025-10-02T19:15	10	0	0.0	0	0	332	0.2	332	333	8.2	79.6
2025-10-02T19:16	10	0	0.1	0	0	332	0.2	332	333	8.2	79.7
2025-10-02T19:17	10	0	0.1	0	0	332	0.3	331	332	8.1	79.9
2025-10-02T19:18	10	0	0.1	0	0	332	0.3	332	333	8.2	79.8
2025-10-02T19:19	10	0	0.0	0	0	333	0.3	332	334	8.1	79.9
2025-10-02T19:20	10	0	0.1	0	0	333	0.3	333	334	8.2	79.7
2025-10-02T19:21	10	0	0.1	0	0	333	0.3	332	334	8.3	78.8
2025-10-02T19:22	10	0	0.1	0	0	333	0.3	333	334	8.4	78.8
2025-10-02T19:23	10	0	0.1	0	0	333	0.2	332	333	8.4	78.6
2025-10-02T19:24	10	0	0.1	0	1	332	0.3	332	333	8.5	78.8
2025-10-02T19:25	10	0	0.1	0	0	332	0.3	331	332	8.2	80.0
2025-10-02T19:26	10	0	0.1	0	0	332	0.3	332	333	8.2	80.5
2025-10-02T19:27	10	0	0.1	0	0	332	0.6	330	333	8.3	80.2
2025-10-02T19:28	10	0	0.1	0	0	332	0.3	331	332	8.1	81.1
2025-10-02T19:29	10	0	0.1	0	0	331	0.3	331	332	8.1	80.9
2025-10-02T19:30	10	0	0.1	0	0	331	0.3	330	332	8.1	81.1
2025-10-02T19:31	10	0	0.1	0	0	330	0.2	330	331	8.1	81.1
2025-10-02T19:32	10	0	0.1	0	0	330	0.3	329	331	8.1	81.1
2025-10-02T19:33	10	0	0.1	0	0	330	0.3	329	330	8.1	81.1
2025-10-02T19:34	10	0	0.1	0	0	329	0.3	328	330	8.1	81.1
2025-10-02T19:35	10	0	0.2	0	1	329	0.3	328	330	8.1	81.1
2025-10-02T19:36	10	0	0.1	0	0	329	0.2	328	330	8.1	81.1
2025-10-02T19:37	10	0	0.1	0	0	329	0.3	329	330	8.1	81.1
2025-10-02T19:38	10	0	0.1	0	0	329	0.2	329	330	7.8	82.2
2025-10-02T19:39	10	0	0.1	0	0	328	0.3	328	329	7.9	81.9
2025-10-02T19:40	10	0	0.1	0	0	328	0.2	327	328	7.8	82.8
2025-10-02T19:41	10	0	0.1	0	0	328	0.2	327	329	7.8	83.1
2025-10-02T19:42	10	0	0.1	0	0	328	0.2	328	329	7.9	82.8
2025-10-02T19:43	10	0	0.1	0	0	328	0.3	328	329	7.9	82.5
2025-10-02T19:44	10	0	0.1	0	0	328	0.3	327	328	7.7	83.6
2025-10-02T19:45	10	0	0.1	0	0	328	0.2	327	328	7.5	84.5
2025-10-02T19:46	10	0	0.1	0	0	328	0.2	328	329	7.4	84.9
2025-10-02T19:47	10	0	0.1	0	0	328	0.2	327	328	7.5	84.8
2025-10-02T19:48	10	0	0.1	0	0	328	0.2	327	328	7.4	85.2
2025-10-02T19:49	10	0	0.1	0	0	328	0.2	327	328	7.3	85.4
2025-10-02T19:50	10	0	0.1	0	0	327	0.2	327	328	7.3	85.7
2025-10-02T19:51	10	0	0.1	0	0	327	0.2	327	327	7.3	85.5
2025-10-02T19:52	10	0	0.1	0	0	327	0.2	327	328	7.4	85.3
2025-10-02T19:53	10	0	0.1	0	0	327	0.2	326	328	7.3	85.5
2025-10-02T19:54	10	0	0.1	0	0	327	0.3	326	328	7.4	84.9
2025-10-02T19:55	10	0	0.1	0	0	328	0.4	327	328	7.5	84.6
2025-10-02T19:56	10	0	0.1	0	0	328	0.2	327	329	7.5	84.3
2025-10-02T19:57	10	0	0.1	0	0	327	0.2	327	328	7.5	84.2
2025-10-02T19:58	10	0	0.1	0	0	327	0.2	327	328	7.5	84.0
2025-10-02T19:59	10	0	0.1	0	0	328	0.2	327	328	7.6	83.9
2025-10-02T20:00	10	0	0.1	0	0	328	0.2	327	328	7.7	82.8
2025-10-02T20:01	10	0	0.1	0	0	328	0.2	327	328	8.0	81.1
2025-10-02T20:02	10	0	0.1	0	0	328	0.2	327	328	8.0	81.6
2025-10-02T20:03	10	0	0.1	0	0	329	0.2	328	329	7.7	82.9
2025-10-02T20:04	10	0	0.0	0	0	329	0.3	328	329	7.7	82.8
2025-10-02T20:05	10	0	0.1	0	0	328	0.2	328	328	7.8	82.6
2025-10-02T20:06	10	0	0.1	0	0	328	0.2	328	328	7.8	82.1
2025-10-02T20:07	10	0	0.1	0	0	328	0.2	328	329	7.9	81.7
2025-10-02T20:08	10	0	0.1	0	0	328	0.2	327	328	7.9	81.4
2025-10-02T20:09	10	0	0.1	0	0	328	0.2	328	329	7.9	81.6
2025-10-02T20:10	10	0	0.1	0	0	328	0.3	327	328	8.0	80.9
2025-10-02T20:11	10	0	0.1	0	0	328	0.2	327	328	8.0	81.0
2025-10-02T20:12	10	0	0.1	0	0	328	0.4	327	329	7.8	81.9
2025-10-02T20:13	10	0	0.1	0	0	328	0.3	327	328	7.8	82.4
2025-10-02T20:14	10	0	0.1	0	0	327	0.2	327	328	7.7	82.6
2025-10-02T20:15	10	0	0.1	0	0	327	0.2	327	328	7.8	81.9
2025-10-02T20:16	10	0	0.1	0	0	327	0.2	326	327	7.9	81.8
2025-10-02T20:17	10	0	0.1	0	0	326	0.5	325	327	7.7	82.9
2025-10-02T20:18	10	0	0.1	0	0	326	0.3	326	327	7.3	84.6
2025-10-02T20:19	10	0	0.1	0	0	327	0.2	326	327	7.6	83.4
2025-10-02T20:20	10	0	0.1	0	0	326	0.2	326	327	7.8	82.6
2025-10-02T20:21	10	0	0.1	0	0	326	0.4	325	326	7.5	83.7
2025-10-02T20:22	10	0	0.1	0	0	326	0.3	325	327	7.2	85.1
2025-10-02T20:23	10	0	0.1	0	0	326	0.3	325	327	7.2	85.7
2025-10-02T20:24	10	0	0.1	0	0	326	0.2	326	327	7.1	86.1
2025-10-02T20:25	10	0	0.1	0	0	326	0.2	325	326	7.1	86.6
2025-10-02T20:26	10	0	0.1	0	0	325	0.3	325	326	6.9	87.6
2025-10-02T20:27	10	0	0.1	0	0	326	0.2	325	326	6.8	88.2
2025-10-02T20:28	10	0	0.1	0	0	326	0.2	325	326	6.8	88.3
2025-10-02T20:29	10	0	0.1	0	0	325	0.2	325	326	7.0	87.5
2025-10-02T20:30	10	0	0.1	0	0	325	0.2	325	326	7.0	87.3
2025-10-02T20:31	10	0	0.1	0	0	325	0.2	324	325	6.9	88.4
2025-10-02T20:32	10	0	0.1	0	0	325	0.2	324	325	6.9	88.9
2025-10-02T20:33	10	0	0.1	0	0	325	0.3	324	326	6.9	88.7
2025-10-02T20:34	10	0	0.1	0	0	325	0.2	325	326	7.0	88.5
2025-10-02T20:35	10	0	0.1	0	0	325	0.3	325	326	7.1	87.7
2025-10-02T20:36	10	0	0.1	0	0	326	0.2	325	326	7.1	87.1
2025-10-02T20:37	10	0	0.1	0	0	325	0.2	325	326	7.0	87.4
2025-10-02T20:38	10	0	0.1	0	0	325	0.2	324	325	6.9	88.0
2025-10-02T20:39	10	0	0.1	0	0	325	0.3	324	326	6.9	87.9
2025-10-02T20:40	10	0	0.1	0	0	325	0.2	324	325	7.1	87.1
2025-10-02T20:41	10	0	0.1	0	0	325	0.2	324	325	7.2	86.5
2025-10-02T20:42	10	0	0.1	0	0	324	0.3	324	325	7.2	86.4
2025-10-02T20:43	10	0	0.1	0	0	325	0.3	324	325	7.0	86.8
2025-10-02T20:44	10	0	0.1	0	0	325	0.2	324	325	7.0	87.0
2025-10-02T20:45	10	0	0.0	0	0	325	0.2	324	325	7.1	86.8
2025-10-02T20:46	10	0	0.1	0	0	324	0.2	324	325	7.0	86.8
2025-10-02T20:47	10	0	0.1	0	0	325	0.3	324	325	7.0	86.7
2025-10-02T20:48	10	0	0.1	0	0	325	0.2	324	325	7.1	86.2
2025-10-02T20:49	10	0	0.1	0	0	325	0.2	324	325	7.3	85.4
2025-10-02T20:50	10	0	0.1	0	0	324	0.3	324	325	7.3	85.0
2025-10-02T20:51	10	0	0.1	0	0	324	0.3	324	325	7.2	85.3
2025-10-02T20:52	10	0	0.1	0	0	324	0.3	324	325	6.9	86.3
2025-10-02T20:53	10	0	0.1	0	0	324	0.2	324	325	7.0	85.9
2025-10-02T20:54	10	0	0.1	0	0	324	0.4	323	325	6.9	86.5
2025-10-02T20:55	10	0	0.1	0	0	323	0.3	323	324	6.7	87.9
2025-10-02T20:56	10	0	0.1	0	0	324	0.2	323	324	6.5	88.7
2025-10-02T20:57	10	0	0.1	0	0	324	0.4	323	325	6.4	89.2
2025-10-02T20:58	10	0	0.1	0	0	326	0.5	324	327	6.6	88.8
2025-10-02T20:59	10	0	0.1	0	0	326	0.3	325	326	7.0	87.3
2025-10-02T21:00	10	0	0.1	0	0	325	0.5	324	326	7.2	86.1
2025-10-02T21:01	10	0	0.1	0	0	326	0.5	324	326	7.1	86.2
2025-10-02T21:02	10	0	0.1	0	0	326	0.5	325	327	7.3	85.3
2025-10-02T21:03	10	0	0.1	0	0	327	0.2	326	327	7.3	85.0
2025-10-02T21:04	10	0	0.1	0	0	325	0.8	324	327	7.1	86.2
2025-10-02T21:05	10	0	0.1	0	0	325	0.3	324	325	6.1	89.5
2025-10-02T21:06	10	0	0.1	0	0	326	0.5	325	326	6.0	91.0
2025-10-02T21:07	10	0	0.1	0	0	327	0.4	326	328	6.0	92.3
2025-10-02T21:08	10	0	0.1	0	0	328	0.3	327	328	5.9	92.8
2025-10-02T21:09	10	0	0.1	-1	0	328	0.2	328	329	5.9	92.7
2025-10-02T21:10	10	0	0.1	-1	0	328	0.2	327	328	6.3	91.6
2025-10-02T21:11	10	0	0.0	0	0	327	0.5	326	328	5.9	92.0
2025-10-02T21:12	10	0	0.1	-1	0	328	0.9	327	330	5.7	92.3
2025-10-02T21:13	10	0	0.1	0	0	329	0.3	328	329	5.9	92.5
2025-10-02T21:14	10	0	0.1	0	0	328	0.4	328	329	5.8	92.6
2025-10-02T21:15	10	0	0.1	0	0	328	0.3	327	328	5.6	92.7
2025-10-02T21:16	10	0	0.1	0	0	328	0.4	327	328	5.9	92.1
2025-10-02T21:17	10	0	0.1	-1	0	328	0.3	327	329	6.2	92.0
2025-10-02T21:18	10	0	0.1	0	0	329	0.2	328	329	6.3	91.4
2025-10-02T21:19	10	0	0.0	0	0	329	0.2	328	329	6.2	91.4
2025-10-02T21:20	10	0	0.1	0	0	328	0.3	327	329	6.0	91.6
2025-10-02T21:21	10	0	0.1	0	0	328	0.3	327	328	6.0	91.6
2025-10-02T21:22	10	0	0.1	0	0	328	0.3	328	329	6.3	91.2
2025-10-02T21:23	10	0	0.1	0	0	328	0.6	326	329	6.4	91.1
2025-10-02T21:24	10	0	0.1	0	0	327	0.3	326	327	5.9	91.4
2025-10-02T21:25	10	0	0.1	0	0	327	0.2	326	327	6.0	91.4
2025-10-02T21:26	10	0	0.1	0	0	327	0.3	326	327	6.2	91.3
2025-10-02T21:27	10	0	0.1	0	0	327	0.2	326	327	6.5	90.2
2025-10-02T21:28	10	0	0.1	0	0	327	0.2	326	327	6.5	90.1
2025-10-02T21:29	10	0	0.1	0	0	326	0.3	325	326	6.3	90.1
2025-10-02T21:30	10	0	0.1	0	0	325	0.2	325	326	6.2	90.3
2025-10-02T21:31	10	0	0.1	0	0	325	0.3	324	325	6.1	90.4
2025-10-02T21:32	10	0	0.1	0	0	325	0.3	325	326	6.1	90.9
2025-10-02T21:33	10	0	0.1	0	0	326	0.2	325	326	6.2	91.2
2025-10-02T21:34	10	0	0.1	0	0	325	0.2	325	326	6.2	91.3
2025-10-02T21:35	10	0	0.1	0	0	325	0.3	325	326	6.2	91.3
2025-10-02T21:36	10	0	0.1	0	0	326	0.2	325	326	6.2	91.3
2025-10-02T21:37	10	0	0.1	0	0	326	0.2	325	326	6.1	91.5
2025-10-02T21:38	10	0	0.1	0	0	326	0.2	325	326	6.1	91.7
2025-10-02T21:39	10	0	0.1	0	0	325	0.3	325	326	6.1	91.6
2025-10-02T21:40	10	0	0.1	0	0	325	0.2	325	325	6.1	91.6
2025-10-02T21:41	10	0	0.1	0	0	325	0.3	324	326	6.1	91.4
2025-10-02T21:42	10	0	0.1	0	0	325	0.2	324	325	6.3	90.7
2025-10-02T21:43	10	0	0.1	0	0	324	0.3	324	325	6.3	90.7
2025-10-02T21:44	10	0	0.1	0	0	324	0.3	324	325	6.1	91.1
2025-10-02T21:45	10	0	0.1	0	0	324	0.2	324	325	5.9	91.9
2025-10-02T21:46	10	0	0.1	0	0	324	0.3	324	325	5.8	92.3
2025-10-02T21:47	10	0	0.1	0	0	325	0.3	324	326	5.7	92.6
2025-10-02T21:48	10	0	0.1	0	0	325	0.3	324	325	5.9	92.4
2025-10-02T21:49	10	0	0.1	0	0	325	0.2	325	326	6.1	92.2
2025-10-02T21:50	10	0	0.1	0	0	325	0.3	325	326	6.1	92.2
2025-10-02T21:51	10	0	0.1	0	0	326	0.3	325	326	6.1	92.2
2025-10-02T21:52	10	0	0.1	0	0	326	0.2	326	327	6.1	92.3
2025-10-02T21:53	10	0	0.1	0	0	326	0.4	326	328	6.1	92.1
2025-10-02T21:54	10	0	0.1	0	0	327	0.2	326	327	6.3	90.8
2025-10-02T21:55	10	0	0.1	0	0	326	0.4	325	327	6.4	90.2
2025-10-02T21:56	10	0	0.1	0	0	326	0.4	325	326	5.9	91.0
2025-10-02T21:57	10	0	0.1	0	0	326	0.2	326	327	6.0	90.7
2025-10-02T21:58	10	0	0.1	-1	0	326	0.4	325	327	6.2	90.8
2025-10-02T21:59	10	0	0.1	0	0	325	0.4	325	326	6.2	90.6
2025-10-02T22:00	10	0	0.1	0	0	326	0.3	325	326	6.6	88.5
2025-10-02T22:01	10	0	0.1	0	0	325	0.2	325	326	6.5	88.6
2025-10-02T22:02	10	0	0.1	0	0	325	0.4	324	326	6.2	89.5
2025-10-02T22:03	10	0	0.1	0	0	325	0.3	324	325	5.9	90.6
2025-10-02T22:04	10	0	0.1	0	0	325	0.3	324	326	5.7	91.3
2025-10-02T22:05	10	0	0.1	0	0	325	0.2	325	326	5.9	91.5
2025-10-02T22:06	10	0	0.1	0	0	325	0.2	325	326	5.9	91.5
2025-10-02T22:07	10	0	0.1	0	0	325	0.4	325	326	5.9	91.4
2025-10-02T22:08	10	0	0.1	0	0	325	0.3	324	326	6.1	90.6
2025-10-02T22:09	10	0	0.1	0	0	325	0.3	324	325	6.0	91.0
2025-10-02T22:10	10	0	0.1	0	0	324	0.3	323	325	5.8	91.5
2025-10-02T22:11	10	0	0.1	0	0	324	0.3	323	324	5.7	91.8
2025-10-02T22:12	10	0	0.1	0	0	323	0.2	323	324	5.7	92.1
2025-10-02T22:13	10	0	0.1	0	0	323	0.3	322	323	5.6	92.4
2025-10-02T22:14	10	0	0.1	0	0	323	0.2	322	324	5.6	92.6
2025-10-02T22:15	10	0	0.1	0	0	323	0.5	323	325	5.6	92.8
2025-10-02T22:16	10	0	0.1	0	0	324	0.3	324	325	5.7	92.7
2025-10-02T22:17	10	0	0.1	0	0	324	0.3	323	324	5.7	92.8
2025-10-02T22:18	10	0	0.1	0	0	323	0.2	323	324	5.6	93.2
2025-10-02T22:19	10	0	0.1	0	0	323	0.3	323	324	5.6	93.3
2025-10-02T22:20	10	0	0.1	0	0	322	0.2	322	323	5.5	93.3
2025-10-02T22:21	10	0	0.1	0	0	322	0.3	322	323	5.6	93.2
2025-10-02T22:22	10	0	0.1	0	0	322	0.2	321	323	5.6	93.3
2025-10-02T22:23	10	0	0.1	0	0	322	0.2	322	322	5.5	93.2
2025-10-02T22:24	10	0	0.0	0	0	322	0.2	322	323	5.5	93.2
2025-10-02T22:25	10	0	0.1	0	0	322	0.3	322	323	5.5	93.4
2025-10-02T22:26	10	0	0.1	0	0	322	0.2	322	323	5.4	93.6
2025-10-02T22:27	10	0	0.1	0	0	322	0.2	322	323	5.3	93.7
2025-10-02T22:28	10	0	0.1	0	0	322	0.2	322	323	5.3	94.2
2025-10-02T22:29	10	0	0.1	0	0	322	0.2	322	323	5.3	94.1
2025-10-02T22:30	10	0	0.0	0	0	322	0.2	322	323	5.2	94.4
2025-10-02T22:31	10	0	0.1	0	0	322	0.2	322	323	5.2	94.5
2025-10-02T22:32	10	0	0.1	0	0	322	0.3	321	323	5.2	94.5
2025-10-02T22:33	10	0	0.1	0	0	322	0.2	322	323	5.2	94.9
2025-10-02T22:34	10	0	0.1	0	0	322	0.3	322	323	5.1	95.1
2025-10-02T22:35	10	0	0.1	0	0	322	0.2	322	323	5.2	95.1
2025-10-02T22:36	10	0	0.0	0	0	322	0.2	321	322	5.2	95.5
2025-10-02T22:37	10	0	0.1	0	0	322	0.2	321	322	5.1	95.5
2025-10-02T22:38	10	0	0.1	0	0	322	0.2	321	322	5.2	95.5
2025-10-02T22:39	10	0	0.1	0	0	321	0.2	321	322	5.2	95.4
2025-10-02T22:40	10	0	0.1	0	0	321	0.2	321	321	5.3	95.5
2025-10-02T22:41	10	0	0.1	0	0	320	0.2	320	321	5.2	95.7
2025-10-02T22:42	10	0	0.1	0	0	320	0.3	320	321	5.0	95.6
2025-10-02T22:43	10	0	0.0	0	0	320	0.2	320	320	4.9	95.8
2025-10-02T22:44	10	0	0.0	0	0	320	0.2	320	321	4.9	95.7
2025-10-02T22:45	10	0	0.1	0	0	320	0.3	320	321	4.9	95.8
2025-10-02T22:46	10	0	0.1	0	0	321	0.3	320	321	5.1	95.8
2025-10-02T22:47	10	0	0.1	0	0	321	0.3	321	322	5.2	95.8
2025-10-02T22:48	10	0	0.1	0	0	322	0.2	322	322	5.3	95.5
2025-10-02T22:49	10	0	0.1	0	0	322	0.3	322	323	5.3	95.2
2025-10-02T22:50	10	0	0.1	0	0	322	0.2	321	323	5.3	95.0
2025-10-02T22:51	10	0	0.1	0	0	322	0.2	321	323	5.3	95.0
2025-10-02T22:52	10	0	0.1	0	0	321	0.3	321	322	5.2	95.1
2025-10-02T22:53	10	0	0.1	0	0	321	0.2	321	322	5.2	95.2
2025-10-02T22:54	10	0	0.1	0	0	321	0.3	320	321	5.1	95.1
2025-10-02T22:55	10	0	0.1	0	0	320	0.2	320	321	4.9	95.1
2025-10-02T22:56	10	0	0.1	0	0	321	0.3	320	321	4.9	95.2
2025-10-02T22:57	10	0	0.1	0	0	320	0.2	320	321	5.0	95.1
2025-10-02T22:58	10	0	0.1	0	0	320	0.2	320	321	4.9	95.3
2025-10-02T22:59	10	0	0.1	0	0	320	0.2	320	321	4.8	95.7
2025-10-02T23:00	10	0	0.1	0	0	320	0.2	320	321	4.8	95.8
2025-10-02T23:01	10	0	0.0	0	0	320	0.3	320	321	4.7	95.9
2025-10-02T23:02	10	0	0.1	0	0	320	0.2	319	320	4.6	96.2
2025-10-02T23:03	10	0	0.1	-1	0	320	0.2	319	320	4.5	96.3
2025-10-02T23:04	10	0	0.1	0	0	320	0.2	319	320	4.6	96.3
2025-10-02T23:05	10	0	0.1	-1	0	320	0.3	319	320	4.6	96.8
2025-10-02T23:06	10	0	0.0	-1	0	320	0.2	320	321	4.7	96.5
2025-10-02T23:07	10	0	0.1	0	0	320	0.3	320	321	4.7	96.8
2025-10-02T23:08	10	0	0.1	0	0	321	0.3	320	321	4.7	96.6
2025-10-02T23:09	10	0	0.1	0	0	321	0.2	320	321	4.8	96.5
2025-10-02T23:10	10	0	0.1	0	0	321	0.3	320	322	4.8	96.7
2025-10-02T23:11	10	0	0.1	0	0	321	0.3	320	322	4.8	96.9
2025-10-02T23:12	10	0	0.1	0	0	321	0.2	321	322	4.6	97.0
2025-10-02T23:13	10	0	0.1	0	0	321	0.2	321	321	4.7	96.5
2025-10-02T23:14	10	0	0.1	0	0	321	0.3	321	321	4.8	96.6
2025-10-02T23:15	10	0	0.1	0	0	321	0.2	321	321	4.8	96.7
2025-10-02T23:16	10	0	0.1	0	0	321	0.2	321	321	4.8	96.6
2025-10-02T23:17	10	0	0.1	0	0	321	0.2	320	321	4.7	96.6
2025-10-02T23:18	10	0	0.1	0	0	321	0.3	321	322	4.7	96.4
2025-10-02T23:19	10	0	0.1	0	0	322	0.2	321	322	4.8	96.3
2025-10-02T23:20	10	0	0.1	0	0	321	0.3	320	321	4.8	96.6
2025-10-02T23:21	10	0	0.1	0	0	320	0.3	320	321	4.7	96.3
2025-10-02T23:22	10	0	0.1	0	0	320	0.2	319	321	4.6	96.0
2025-10-02T23:23	10	0	0.1	0	0	320	0.2	319	320	4.8	95.4
2025-10-02T23:24	10	0	0.1	0	0	319	0.3	319	320	4.8	95.6
2025-10-02T23:25	10	0	0.1	0	0	319	0.3	318	319	4.6	95.6
2025-10-02T23:26	10	0	0.1	0	0	318	0.2	318	319	4.5	95.7
2025-10-02T23:27	10	0	0.1	0	0	318	0.2	317	319	4.4	95.9
2025-10-02T23:28	10	0	0.1	0	0	318	0.3	318	319	4.3	95.7
2025-10-02T23:29	10	0	0.1	-1	0	319	0.4	318	320	4.5	95.4
2025-10-02T23:30	10	0	0.1	0	0	320	0.2	319	320	4.7	95.5
2025-10-02T23:31	10	0	0.1	0	0	320	0.4	319	321	5.0	95.0
2025-10-02T23:32	10	0	0.1	0	0	320	0.2	319	320	5.1	94.9
2025-10-02T23:33	10	0	0.1	0	0	320	0.3	319	321	4.9	94.6
2025-10-02T23:34	10	0	0.1	0	0	320	0.2	319	320	4.8	94.7
2025-10-02T23:35	10	0	0.1	0	0	319	0.2	319	320	4.7	95.2
2025-10-02T23:36	10	0	0.1	0	0	319	0.2	319	320	4.6	95.3
2025-10-02T23:37	10	0	0.1	0	0	320	0.2	319	320	4.5	95.2
2025-10-02T23:38	10	0	0.1	-1	0	320	0.3	319	320	4.5	95.4
2025-10-02T23:39	10	0	0.1	0	0	320	0.3	319	320	4.5	95.5
2025-10-02T23:40	10	0	0.1	0	0	319	0.3	319	320	4.4	95.8
2025-10-02T23:41	10	0	0.1	-1	0	319	0.3	319	320	4.3	96.0
2025-10-02T23:42	10	0	0.1	0	0	319	0.2	318	320	4.4	96.1
2025-10-02T23:43	10	0	0.1	0	0	319	0.2	318	319	4.4	96.7
2025-10-02T23:44	10	0	0.1	0	0	319	0.3	318	319	4.5	96.7
2025-10-02T23:45	10	0	0.1	0	0	319	0.2	318	319	4.5	96.8
2025-10-02T23:46	10	0	0.1	-1	0	319	0.2	318	319	4.5	96.6
2025-10-02T23:47	10	0	0.1	0	0	319	0.3	318	319	4.6	96.6
2025-10-02T23:48	10	0	0.1	0	0	318	0.2	318	319	4.6	96.3
2025-10-02T23:49	10	0	0.1	0	0	318	0.3	318	319	4.5	96.4
2025-10-02T23:50	10	0	0.1	0	0	318	0.2	318	319	4.5	96.6
2025-10-02T23:51	10	0	0.1	0	0	318	0.2	318	319	4.5	96.5
2025-10-02T23:52	10	0	0.1	0	0	318	0.2	318	319	4.4	96.5
2025-10-02T23:53	10	0	0.1	0	0	319	0.2	318	319	4.4	96.5
2025-10-02T23:54	10	0	0.1	0	0	319	0.2	318	319	4.4	96.5
2025-10-02T23:55	10	0	0.1	0	0	319	0.2	318	320	4.4	96.6
2025-10-02T23:56	10	0	0.1	0	0	319	0.2	319	320	4.4	96.3
2025-10-02T23:57	10	0	0.1	0	0	319	0.2	319	320	4.5	96.2
2025-10-02T23:58	10	0	0.1	0	0	319	0.2	319	320	4.5	96.1
2025-10-02T23:59	10	0	0.1	0	0	319	0.2	319	320	4.5	96.0
2025-10-03T00:00	10	0	0.1	0	0	320	0.2	319	320	4.5	95.9
2025-10-03T00:01	10	0	0.1	0	0	320	0.4	319	321	4.3	96.0
2025-10-03T00:02	10	0	0.1	0	0	321	0.2	320	321	4.4	95.7
2025-10-03T00:03	10	0	0.1	-1	0	321	0.3	320	321	4.5	95.7
2025-10-03T00:04	10	0	0.1	0	0	321	0.3	320	322	4.6	95.9
2025-10-03T00:05	10	0	0.1	0	0	321	0.2	320	321	4.7	96.0
2025-10-03T00:06	10	0	0.1	0	0	321	0.2	320	321	4.6	96.3
2025-10-03T00:07	10	0	0.1	0	0	320	0.2	320	321	4.6	96.0
2025-10-03T00:08	10	0	0.1	0	0	320	0.2	320	321	4.5	96.3
2025-10-03T00:09	10	0	0.1	0	0	320	0.3	319	321	4.5	96.3
2025-10-03T00:10	10	0	0.1	0	0	320	0.4	320	321	4.7	95.9
2025-10-03T00:11	10	0	0.1	0	0	321	0.4	320	321	4.9	95.8
2025-10-03T00:12	10	0	0.1	-1	0	321	0.2	321	322	5.2	95.4
2025-10-03T00:13	10	0	0.1	0	0	322	0.2	321	322	5.2	95.2
2025-10-03T00:14	10	0	0.1	0	0	321	0.4	320	322	5.3	94.9
2025-10-03T00:15	10	0	0.1	0	0	320	0.3	320	321	5.1	95.4
2025-10-03T00:16	10	0	0.1	0	0	320	0.3	319	320	5.0	95.2
2025-10-03T00:17	10	0	0.1	0	0	319	0.3	318	320	4.9	95.0
2025-10-03T00:18	10	0	0.1	0	0	320	0.3	319	320	5.0	94.6
2025-10-03T00:19	10	0	0.1	0	0	320	0.2	320	320	5.2	94.2
2025-10-03T00:20	10	0	0.1	0	0	320	0.3	319	321	5.2	94.2
2025-10-03T00:21	10	0	0.1	0	0	320	0.3	319	320	5.1	94.3
2025-10-03T00:22	10	0	0.1	0	0	319	0.3	319	320	4.9	94.7
2025-10-03T00:23	10	0	0.1	0	0	319	0.3	318	319	4.8	95.0
2025-10-03T00:24	10	0	0.1	0	0	318	0.2	318	319	4.7	95.0
2025-10-03T00:25	10	0	0.1	0	0	318	0.2	318	319	4.8	94.8
2025-10-03T00:26	10	0	0.0	0	0	318	0.2	318	319	4.8	94.9
2025-10-03T00:27	10	0	0.0	0	0	318	0.3	317	319	4.7	95.4
2025-10-03T00:28	10	0	0.1	0	0	318	0.2	318	319	4.7	95.3
2025-10-03T00:29	10	0	0.1	0	0	318	0.2	317	318	4.7	95.5
2025-10-03T00:30	10	0	0.1	0	0	318	0.3	318	319	4.8	95.1
2025-10-03T00:31	10	0	0.0	0	0	318	0.2	318	319	4.8	94.9
2025-10-03T00:32	10	0	0.1	0	0	319	0.3	318	319	4.8	94.4
2025-10-03T00:33	10	0	0.1	0	0	319	0.3	318	319	4.7	94.1
2025-10-03T00:34	10	0	0.1	-1	0	319	0.2	318	319	4.5	94.5
2025-10-03T00:35	10	0	0.1	-1	0	319	0.3	319	320	4.4	95.0
2025-10-03T00:36	10	-1	0.0	-1	0	320	0.2	319	320	4.3	95.6
2025-10-03T00:37	10	-1	0.1	-1	0	319	0.3	318	320	4.3	95.9
2025-10-03T00:38	10	-1	0.1	-1	0	320	0.2	319	320	4.3	96.2
2025-10-03T00:39	10	-1	0.1	-1	0	320	0.2	320	320	4.2	96.6
2025-10-03T00:40	10	-1	0.1	-1	0	320	0.3	319	320	4.1	96.8
2025-10-03T00:41	10	-1	0.1	-1	0	320	0.4	319	321	4.1	97.1
2025-10-03T00:42	10	-1	0.1	-1	0	321	0.3	320	321	4.0	97.3
2025-10-03T00:43	10	-1	0.1	-1	0	320	0.3	320	321	4.0	97.4
2025-10-03T00:44	10	-1	0.1	-1	0	320	0.2	319	320	3.8	97.6
2025-10-03T00:45	10	0	0.1	-1	0	319	0.2	319	320	3.8	97.7
2025-10-03T00:46	10	0	0.1	-1	0	319	0.2	318	319	3.7	97.9
2025-10-03T00:47	10	0	0.0	-1	0	319	0.3	318	319	3.6	97.9
2025-10-03T00:48	10	0	0.1	-1	0	319	0.2	318	319	3.5	98.0
2025-10-03T00:49	10	0	0.1	-1	0	319	0.2	318	319	3.5	98.1
2025-10-03T00:50	10	0	0.1	-1	0	318	0.2	318	319	3.5	98.3
2025-10-03T00:51	10	0	0.1	-1	0	318	0.2	318	319	3.5	98.4
2025-10-03T00:52	10	0	0.1	-1	0	318	0.2	318	319	3.5	98.3
2025-10-03T00:53	10	0	0.1	-1	0	319	0.3	318	319	3.7	98.2
2025-10-03T00:54	10	0	0.1	-1	0	318	0.2	318	319	3.7	98.7
2025-10-03T00:55	10	0	0.1	0	0	318	0.2	317	318	3.7	98.4
2025-10-03T00:56	10	0	0.1	0	0	318	0.3	317	319	3.8	98.2
2025-10-03T00:57	10	0	0.1	0	0	318	0.3	318	319	4.0	98.2
2025-10-03T00:58	10	0	0.1	0	0	319	0.2	318	319	4.1	97.8
2025-10-03T00:59	10	0	0.1	0	0	319	0.3	318	320	4.1	97.7
2025-10-03T01:00	10	0	0.0	0	0	319	0.3	318	320	4.1	97.4
2025-10-03T01:01	10	0	0.1	0	0	319	0.3	319	320	4.1	97.1
2025-10-03T01:02	10	0	0.1	0	0	319	0.3	319	320	4.3	97.2
2025-10-03T01:03	10	0	0.1	0	0	319	0.3	318	320	4.1	97.0
2025-10-03T01:04	10	0	0.1	0	0	319	0.3	318	320	4.1	96.8
2025-10-03T01:05	10	0	0.1	0	0	320	0.4	319	321	4.2	97.0
2025-10-03T01:06	10	0	0.1	0	0	320	0.2	320	321	4.3	96.8
2025-10-03T01:07	10	0	0.1	-1	0	321	0.2	320	321	4.3	96.7
2025-10-03T01:08	10	0	0.1	0	0	321	0.2	320	321	4.4	96.0
2025-10-03T01:09	10	0	0.1	0	0	321	0.2	321	322	4.5	95.9
2025-10-03T01:10	10	0	0.1	-1	0	321	0.2	321	322	4.6	95.7
2025-10-03T01:11	10	0	0.1	0	0	321	0.3	320	321	4.5	95.5
2025-10-03T01:12	10	0	0.1	0	0	321	0.2	320	321	4.5	95.4
2025-10-03T01:13	10	0	0.1	0	0	321	0.2	320	321	4.6	95.3
2025-10-03T01:14	10	0	0.1	0	0	321	0.3	320	322	4.5	95.5
2025-10-03T01:15	10	0	0.0	0	0	320	0.2	320	321	4.4	95.3
2025-10-03T01:16	10	0	0.1	0	0	320	0.3	320	321	4.4	95.7
2025-10-03T01:17	10	0	0.1	0	0	319	0.2	319	320	4.4	95.5
2025-10-03T01:18	10	0	0.1	0	0	320	0.2	319	320	4.4	95.7
2025-10-03T01:19	10	0	0.1	0	0	319	0.4	319	320	4.4	96.0
2025-10-03T01:20	10	0	0.0	0	0	319	0.2	318	319	4.3	96.0
2025-10-03T01:21	10	0	0.1	0	0	319	0.2	319	320	4.5	95.6
2025-10-03T01:22	10	0	0.1	0	0	320	0.2	319	320	4.5	96.0
2025-10-03T01:23	10	0	0.1	0	0	320	0.1	320	320	4.6	95.6
2025-10-03T01:24	10	0	0.1	0	0	320	0.2	319	320	4.6	95.6
2025-10-03T01:25	10	0	0.0	0	0	320	0.2	319	320	4.5	95.5
2025-10-03T01:26	10	0	0.1	0	0	320	0.3	319	321	4.6	95.3
2025-10-03T01:27	10	0	0.1	0	0	320	0.2	319	320	4.7	95.2
2025-10-03T01:28	10	0	0.1	0	0	319	0.3	319	320	4.7	95.5
2025-10-03T01:29	10	0	0.1	0	0	319	0.3	318	319	4.6	95.6
2025-10-03T01:30	10	0	0.1	0	0	319	0.2	318	319	4.6	95.8
2025-10-03T01:31	10	0	0.1	0	0	319	0.2	318	319	4.6	95.7
2025-10-03T01:32	10	0	0.0	0	0	318	0.2	318	319	4.5	95.5
2025-10-03T01:33	10	0	0.1	0	0	318	0.2	318	319	4.3	95.5
2025-10-03T01:34	10	0	0.1	0	0	318	0.3	317	319	4.2	95.0
2025-10-03T01:35	10	0	0.0	0	0	318	0.2	317	318	4.2	94.9
2025-10-03T01:36	10	0	0.0	0	0	318	0.2	317	318	4.1	95.5
2025-10-03T01:37	10	0	0.1	0	0	318	0.2	317	318	4.1	95.8
2025-10-03T01:38	10	0	0.1	0	0	317	0.2	317	318	4.1	95.8
2025-10-03T01:39	10	0	0.1	0	0	317	0.2	317	318	4.0	96.2
2025-10-03T01:40	10	0	0.0	0	0	318	0.3	317	318	4.0	96.4
2025-10-03T01:41	10	0	0.1	0	0	318	0.2	317	318	3.9	96.7
2025-10-03T01:42	10	0	0.1	0	0	318	0.3	317	318	3.7	97.0
2025-10-03T01:43	10	0	0.1	-1	0	318	0.2	317	318	3.6	97.1
2025-10-03T01:44	10	0	0.1	-1	0	317	0.2	317	318	3.6	97.5
2025-10-03T01:45	10	0	0.1	0	0	318	0.2	317	318	3.7	97.6
2025-10-03T01:46	10	0	0.1	0	0	317	0.2	317	318	3.7	97.6
2025-10-03T01:47	10	0	0.0	0	0	318	0.2	317	318	3.6	97.8
2025-10-03T01:48	10	0	0.1	-1	0	318	0.2	317	318	3.5	97.8
2025-10-03T01:49	10	0	0.1	-1	0	318	0.3	317	318	3.6	97.6
2025-10-03T01:50	10	0	0.1	-1	0	318	0.2	318	318	3.7	98.0
2025-10-03T01:51	10	0	0.1	-1	0	318	0.2	317	318	3.6	98.3
2025-10-03T01:52	10	0	0.1	-1	0	317	0.2	317	318	3.6	98.5
2025-10-03T01:53	10	0	0.1	-1	0	317	0.3	316	318	3.5	98.8
2025-10-03T01:54	10	0	0.1	-1	0	317	0.3	317	318	3.5	98.7
2025-10-03T01:55	10	0	0.1	-1	0	318	0.2	317	318	3.4	98.5
2025-10-03T01:56	10	0	0.1	-1	0	318	0.2	317	318	3.4	98.2
2025-10-03T01:57	10	0	0.1	-1	0	317	0.2	317	318	3.5	98.0
2025-10-03T01:58	10	0	0.1	-1	0	317	0.2	317	318	3.5	98.3
2025-10-03T01:59	10	0	0.1	-1	0	317	0.2	317	318	3.5	98.1
2025-10-03T02:00	10	0	0.1	-1	0	318	0.3	317	318	3.6	98.2
2025-10-03T02:01	10	0	0.1	-1	0	318	0.2	317	318	3.6	98.6
2025-10-03T02:02	10	0	0.1	0	0	318	0.2	317	319	3.5	98.8
2025-10-03T02:03	10	0	0.1	-1	0	318	0.2	318	319	3.6	98.4
2025-10-03T02:04	10	0	0.1	0	0	318	0.2	318	319	3.6	98.6
2025-10-03T02:05	10	0	0.1	0	0	318	0.2	317	318	3.5	98.7
2025-10-03T02:06	10	0	0.1	0	0	318	0.3	318	319	3.6	98.6
2025-10-03T02:07	10	0	0.1	0	0	318	0.2	317	318	3.6	98.6
2025-10-03T02:08	10	0	0.1	0	0	318	0.2	317	318	3.5	98.3
2025-10-03T02:09	10	0	0.1	-1	0	317	0.2	317	318	3.5	98.2
2025-10-03T02:10	10	0	0.1	0	0	318	0.2	317	318	3.5	98.2
2025-10-03T02:11	10	0	0.1	-1	0	317	0.2	317	318	3.5	98.5
2025-10-03T02:12	10	0	0.1	-1	0	317	0.2	317	318	3.6	98.0
2025-10-03T02:13	10	0	0.1	-1	0	318	0.3	317	318	3.8	98.3
2025-10-03T02:14	10	0	0.1	0	0	318	0.3	317	318	3.7	98.4
2025-10-03T02:15	10	0	0.1	0	0	318	0.3	317	319	3.7	97.7
2025-10-03T02:16	10	0	0.1	-1	0	318	0.3	317	319	3.7	98.0
2025-10-03T02:17	10	0	0.1	-1	0	318	0.3	318	319	3.5	98.1
2025-10-03T02:18	10	0	0.1	-1	0	319	0.3	318	319	3.6	97.3
2025-10-03T02:19	10	0	0.1	-1	0	319	0.4	318	320	3.8	97.8
2025-10-03T02:20	10	0	0.1	-1	0	320	0.3	319	320	3.9	97.8
2025-10-03T02:21	10	0	0.1	-1	0	319	0.4	318	320	3.7	98.2
2025-10-03T02:22	10	0	0.1	-1	0	319	0.2	318	319	3.5	98.2
2025-10-03T02:23	10	0	0.1	0	0	319	0.2	318	319	3.6	97.8
2025-10-03T02:24	10	0	0.1	-1	0	319	0.2	318	319	3.7	97.9
2025-10-03T02:25	10	0	0.1	-1	0	319	0.3	318	319	3.7	97.6
2025-10-03T02:26	10	0	0.1	-1	0	319	0.3	319	320	3.7	97.6
2025-10-03T02:27	10	0	0.1	-1	0	319	0.2	318	320	3.8	97.6
2025-10-03T02:28	10	0	0.1	-1	0	319	0.3	319	320	3.8	97.8
2025-10-03T02:29	10	0	0.1	-1	0	319	0.3	319	320	3.9	97.7
2025-10-03T02:30	10	0	0.1	0	0	319	0.3	318	320	3.9	97.9
2025-10-03T02:31	10	0	0.1	-1	0	319	0.2	318	319	3.9	97.9
2025-10-03T02:32	10	0	0.1	-1	0	319	0.3	318	319	3.9	97.8
2025-10-03T02:33	10	0	0.1	0	0	318	0.3	318	319	3.9	97.8
2025-10-03T02:34	10	0	0.1	0	0	319	0.3	318	319	3.9	97.4
2025-10-03T02:35	10	0	0.1	0	0	319	0.3	318	320	4.1	97.2
2025-10-03T02:36	10	0	0.1	-1	0	319	0.3	318	320	4.2	97.4
2025-10-03T02:37	10	0	0.1	0	0	319	0.3	318	320	4.3	97.2
2025-10-03T02:38	10	0	0.1	0	0	319	0.3	318	319	4.3	96.8
2025-10-03T02:39	10	0	0.1	0	0	319	0.2	318	320	4.2	96.8
2025-10-03T02:40	10	0	0.2	0	0	319	0.4	318	320	4.2	96.6
2025-10-03T02:41	10	0	0.1	0	0	319	0.3	318	319	4.0	96.8
2025-10-03T02:42	10	0	0.2	-1	0	319	0.3	318	319	3.8	96.8
2025-10-03T02:43	10	0	0.1	0	0	318	0.2	318	319	3.9	97.0
2025-10-03T02:44	10	0	0.1	0	0	318	0.3	318	319	3.9	97.0
2025-10-03T02:45	10	0	0.1	0	0	318	0.2	318	319	3.9	97.2
2025-10-03T02:46	10	0	0.1	0	0	318	0.2	318	319	3.8	97.3
2025-10-03T02:47	10	0	0.1	0	0	318	0.3	317	319	3.7	97.3
2025-10-03T02:48	10	0	0.1	-1	0	318	0.3	318	319	3.8	97.2
2025-10-03T02:49	10	0	0.1	-1	0	318	0.3	318	319	3.8	97.8
2025-10-03T02:50	10	0	0.1	0	0	318	0.2	317	318	3.8	97.8
2025-10-03T02:51	10	0	0.1	-1	0	318	0.2	317	318	3.8	97.6
2025-10-03T02:52	10	0	0.2	-1	0	317	0.3	317	318	3.8	97.5
2025-10-03T02:53	10	0	0.1	-1	0	317	0.2	317	318	3.9	97.6
2025-10-03T02:54	10	0	0.1	-1	0	318	0.3	317	319	4.0	97.6
2025-10-03T02:55	10	0	0.1	0	0	318	0.2	317	318	4.1	97.5
2025-10-03T02:56	10	0	0.1	0	0	318	0.3	317	319	4.0	97.7
2025-10-03T02:57	10	0	0.1	0	0	317	0.3	316	318	3.9	97.7
2025-10-03T02:58	10	0	0.1	-1	0	318	0.3	317	318	3.8	97.8
2025-10-03T02:59	10	0	0.1	-1	0	318	0.2	317	318	3.8	97.6
2025-10-03T03:00	10	0	0.1	-1	0	318	0.3	317	318	3.8	97.5
2025-10-03T03:01	10	0	0.1	-1	0	318	0.2	317	318	3.8	97.1
2025-10-03T03:02	10	0	0.2	-1	0	318	0.2	318	319	3.7	97.0
2025-10-03T03:03	10	0	0.1	-1	0	318	0.2	317	318	3.6	97.3
2025-10-03T03:04	10	0	0.1	-1	0	318	0.4	318	319	3.5	97.4
2025-10-03T03:05	10	0	0.1	-1	0	318	0.3	318	319	3.5	97.6
2025-10-03T03:06	10	0	0.1	-1	0	319	0.2	319	320	3.5	97.8
2025-10-03T03:07	10	0	0.1	-1	0	319	0.3	318	320	3.5	98.0
2025-10-03T03:08	10	0	0.1	-1	0	319	0.2	319	319	3.5	98.0
2025-10-03T03:09	10	0	0.1	-1	0	319	0.3	318	319	3.4	98.1
2025-10-03T03:10	10	0	0.1	-1	0	319	0.3	318	320	3.4	98.1
2025-10-03T03:11	10	0	0.1	-1	0	319	0.2	319	320	3.4	98.2
2025-10-03T03:12	10	0	0.1	-1	0	319	0.3	319	320	3.4	98.5
2025-10-03T03:13	10	0	0.1	-1	0	319	0.3	319	320	3.4	98.6
2025-10-03T03:14	10	0	0.1	-1	0	320	0.2	319	320	3.5	98.6
2025-10-03T03:15	10	0	0.1	-1	0	320	0.2	319	320	3.5	98.8
2025-10-03T03:16	10	0	0.1	-1	0	319	0.3	319	320	3.5	99.0
2025-10-03T03:17	10	0	0.1	-1	0	319	0.3	319	320	3.5	98.8
2025-10-03T03:18	10	0	0.1	0	0	319	0.2	319	320	3.4	98.8
2025-10-03T03:19	10	0	0.1	-1	0	319	0.3	318	320	3.3	98.8
2025-10-03T03:20	10	0	0.1	-1	0	319	0.3	319	320	3.3	98.8
2025-10-03T03:21	10	0	0.1	-1	0	320	0.3	319	320	3.3	99.0
2025-10-03T03:22	10	0	0.1	-1	0	320	0.4	319	321	3.5	98.7
2025-10-03T03:23	10	0	0.1	0	0	320	0.2	320	321	3.6	98.7
2025-10-03T03:24	10	0	0.2	0	0	320	0.3	319	320	3.6	98.9
2025-10-03T03:25	10	0	0.1	-1	0	320	0.4	319	321	3.6	98.5
2025-10-03T03:26	10	0	0.1	0	0	320	0.3	319	320	3.6	98.9
2025-10-03T03:27	10	0	0.2	-1	0	320	0.2	320	321	3.5	98.9
2025-10-03T03:28	10	0	0.1	-1	0	320	0.2	320	321	3.4	98.6
2025-10-03T03:29	10	0	0.1	-1	0	320	0.3	320	321	3.3	98.5
2025-10-03T03:30	10	0	0.1	0	0	320	0.3	320	321	3.3	98.4
2025-10-03T03:31	10	0	0.1	0	0	321	0.2	320	321	3.3	98.5
2025-10-03T03:32	10	0	0.1	-1	0	321	0.3	320	322	3.4	98.4
2025-10-03T03:33	10	0	0.1	0	0	322	0.3	321	322	3.5	98.2
2025-10-03T03:34	10	0	0.1	-1	0	322	0.3	321	323	3.5	98.2
2025-10-03T03:35	10	0	0.1	-1	0	322	0.4	322	323	3.4	98.7
2025-10-03T03:36	10	0	0.1	0	0	323	0.3	322	323	3.4	98.9
2025-10-03T03:37	10	0	0.1	-1	0	323	0.2	323	324	3.3	98.8
2025-10-03T03:38	10	0	0.1	-1	0	324	0.2	323	324	3.3	98.4
2025-10-03T03:39	10	0	0.1	-1	0	324	0.3	323	324	3.3	98.3
2025-10-03T03:40	10	0	0.1	-1	0	324	0.2	324	325	3.3	98.4
2025-10-03T03:41	10	0	0.1	-1	0	324	0.3	323	325	3.4	98.4
2025-10-03T03:42	10	0	0.1	-1	0	324	0.3	324	325	3.4	98.5
2025-10-03T03:43	10	0	0.1	-1	0	325	0.3	324	325	3.5	98.4
2025-10-03T03:44	10	0	0.1	-1	0	325	0.2	325	326	3.6	98.4
2025-10-03T03:45	10	0	0.1	-1	0	325	0.2	325	326	3.6	98.5
2025-10-03T03:46	10	0	0.1	-1	0	326	0.2	325	326	3.6	98.5
2025-10-03T03:47	10	0	0.1	-1	0	325	0.2	325	326	3.6	98.2
2025-10-03T03:48	10	0	0.1	-1	0	326	0.3	325	326	3.8	98.1
2025-10-03T03:49	10	0	0.2	-1	0	326	0.3	326	327	3.9	98.0
2025-10-03T03:50	10	0	0.1	-1	0	326	0.3	326	327	3.8	98.5
2025-10-03T03:51	10	0	0.1	-1	0	327	0.3	326	328	3.6	98.3
2025-10-03T03:52	10	0	0.1	-1	0	328	0.2	327	328	3.6	98.1
2025-10-03T03:53	10	0	0.1	-1	0	328	0.4	327	329	3.6	98.3
2025-10-03T03:54	10	0	0.1	-1	0	329	0.3	328	329	3.8	97.9
2025-10-03T03:55	10	0	0.1	-1	0	329	0.3	329	330	3.9	98.2
2025-10-03T03:56	10	0	0.2	-1	0	330	0.2	330	331	4.0	98.3
2025-10-03T03:57	10	0	0.1	-1	0	330	0.3	330	331	4.0	98.3
2025-10-03T03:58	10	0	0.2	0	0	331	0.2	331	332	4.0	98.3
2025-10-03T03:59	10	0	0.1	0	0	331	0.2	331	332	4.1	97.9
2025-10-03T04:00	10	0	0.1	0	0	331	0.3	331	332	4.2	97.7
2025-10-03T04:01	10	0	0.1	0	0	332	0.3	331	333	4.3	97.5
2025-10-03T04:02	10	0	0.1	0	0	332	0.2	331	333	4.3	97.4
2025-10-03T04:03	10	0	0.1	0	0	332	0.3	331	333	4.2	97.3
2025-10-03T04:04	10	0	0.1	0	0	332	0.3	331	333	4.2	97.3
2025-10-03T04:05	10	0	0.2	-1	0	332	0.2	331	333	4.1	97.3
2025-10-03T04:06	10	0	0.1	-1	0	332	0.3	331	333	4.2	97.1
2025-10-03T04:07	10	0	0.1	-1	0	332	0.2	332	332	4.3	97.2
2025-10-03T04:08	10	0	0.1	-1	0	331	0.3	331	332	4.4	96.9
2025-10-03T04:09	10	0	0.1	-1	0	332	0.4	331	332	4.2	97.1
2025-10-03T04:10	10	0	0.1	-1	0	332	0.3	331	333	4.2	96.5
2025-10-03T04:11	10	0	0.2	-1	0	332	0.2	332	333	4.1	96.8
2025-10-03T04:12	10	0	0.1	-1	0	332	0.3	332	333	4.1	96.8
2025-10-03T04:13	10	0	0.2	-1	0	332	0.3	331	333	4.3	96.7
2025-10-03T04:14	10	0	0.1	-1	0	333	0.2	332	333	4.3	97.3
2025-10-03T04:15	10	0	0.1	-1	0	333	0.3	333	334	4.4	96.7
2025-10-03T04:16	10	0	0.1	-1	0	334	0.2	333	334	4.6	97.3
2025-10-03T04:17	10	0	0.1	0	0	334	0.3	333	334	4.8	97.4
2025-10-03T04:18	10	0	0.1	0	0	333	0.3	333	334	4.7	98.0
2025-10-03T04:19	10	0	0.1	0	0	333	0.3	333	334	4.6	97.7
2025-10-03T04:20	10	0	0.1	0	0	334	0.3	333	334	4.6	97.3
2025-10-03T04:21	10	0	0.1	-1	0	334	0.2	333	334	4.6	97.5
2025-10-03T04:22	10	0	0.1	0	0	334	0.2	334	335	4.6	97.0
2025-10-03T04:23	10	0	0.1	0	0	334	0.3	333	335	4.7	96.5
2025-10-03T04:24	10	0	0.1	0	0	334	0.2	334	335	4.8	95.9
2025-10-03T04:25	10	0	0.1	0	0	334	0.3	333	335	4.9	95.7
2025-10-03T04:26	10	0	0.1	0	0	334	0.3	333	334	4.8	95.5
2025-10-03T04:27	10	0	0.1	0	0	334	0.2	333	334	4.8	95.3
2025-10-03T04:28	10	0	0.1	0	0	333	0.2	333	334	4.8	95.1
2025-10-03T04:29	10	0	0.1	0	0	334	0.3	333	334	4.8	95.1
2025-10-03T04:30	10	0	0.1	0	0	333	0.3	332	334	4.8	95.5
2025-10-03T04:31	10	0	0.1	0	0	333	0.2	332	333	4.7	95.6
2025-10-03T04:32	10	0	0.1	0	0	333	0.2	332	333	4.7	95.7
2025-10-03T04:33	10	0	0.1	0	0	332	0.3	331	333	4.7	96.0
2025-10-03T04:34	10	0	0.1	0	0	332	0.2	332	333	4.7	96.3
2025-10-03T04:35	10	0	0.1	0	0	332	0.2	331	332	4.7	96.2
2025-10-03T04:36	10	0	0.1	0	0	332	0.2	331	332	4.7	96.2
2025-10-03T04:37	10	0	0.1	0	0	332	0.3	331	332	4.7	96.3
2025-10-03T04:38	10	0	0.1	0	0	332	0.2	331	332	4.8	96.2
2025-10-03T04:39	10	0	0.1	0	0	332	0.2	331	332	4.8	96.1
2025-10-03T04:40	10	0	0.1	0	0	332	0.2	331	332	4.7	96.2
2025-10-03T04:41	10	0	0.1	0	0	332	0.2	331	332	4.7	96.1
2025-10-03T04:42	10	0	0.1	0	0	332	0.2	331	332	4.7	96.5
2025-10-03T04:43	10	0	0.1	0	0	332	0.2	331	332	4.7	96.4
2025-10-03T04:44	10	0	0.1	0	0	332	0.2	331	332	4.7	96.6
2025-10-03T04:45	10	0	0.1	0	0	332	0.3	332	333	4.7	96.5
2025-10-03T04:46	10	0	0.1	0	0	332	0.2	332	333	4.7	96.6
2025-10-03T04:47	10	0	0.1	0	0	332	0.2	332	333	4.7	96.6
2025-10-03T04:48	10	0	0.1	0	0	333	0.2	332	333	4.7	96.6
2025-10-03T04:49	10	0	0.1	0	0	333	0.3	333	334	4.8	96.6
2025-10-03T04:50	10	0	0.1	0	0	334	0.2	333	334	4.8	96.3
2025-10-03T04:51	10	0	0.1	0	0	334	0.2	333	334	4.8	96.4
2025-10-03T04:52	10	0	0.1	0	0	334	0.3	334	335	4.8	96.6
2025-10-03T04:53	10	0	0.1	0	0	335	0.2	334	335	4.9	96.5
2025-10-03T04:54	10	0	0.1	0	0	335	0.2	334	335	4.9	96.3
2025-10-03T04:55	10	0	0.1	0	0	335	0.2	335	336	4.9	96.4
2025-10-03T04:56	10	0	0.1	0	0	336	0.2	335	336	4.9	96.9
2025-10-03T04:57	10	0	0.1	0	0	336	0.2	335	336	4.9	96.6
2025-10-03T04:58	10	0	0.1	0	0	336	0.2	335	336	4.9	96.5
2025-10-03T04:59	10	0	0.1	0	0	336	0.2	335	336	4.9	96.5
2025-10-03T05:00	10	0	0.1	0	0	336	0.2	335	336	4.9	96.4
2025-10-03T05:01	10	0	0.1	0	0	335	0.3	335	336	4.9	96.4
2025-10-03T05:02	10	0	0.1	0	0	335	0.2	334	335	4.9	96.7
2025-10-03T05:03	10	0	0.1	0	0	334	0.3	334	335	4.8	96.8
2025-10-03T05:04	10	0	0.1	0	0	334	0.2	334	335	4.8	96.3
2025-10-03T05:05	10	0	0.1	0	0	334	0.2	333	334	4.8	96.1
2025-10-03T05:06	10	0	0.1	0	0	333	0.2	333	334	4.8	96.3
2025-10-03T05:07	10	0	0.1	0	0	333	0.2	333	334	4.8	96.4
2025-10-03T05:08	10	0	0.1	0	0	333	0.2	333	334	4.9	96.7
2025-10-03T05:09	10	0	0.1	0	0	334	0.2	333	334	5.0	96.6
2025-10-03T05:10	10	0	0.1	0	0	334	0.2	333	334	5.0	96.7
2025-10-03T05:11	10	0	0.1	0	0	334	0.2	334	335	5.1	96.5
2025-10-03T05:12	10	0	0.1	0	0	335	0.2	334	335	5.1	96.3
2025-10-03T05:13	10	0	0.1	0	0	335	0.2	334	335	5.1	96.3
2025-10-03T05:14	10	0	0.0	0	0	335	0.2	335	335	5.1	96.2
2025-10-03T05:15	10	0	0.1	0	0	335	0.2	335	336	5.1	96.3
2025-10-03T05:16	10	0	0.1	0	0	335	0.2	335	336	5.1	96.3
2025-10-03T05:17	10	0	0.1	0	0	336	0.2	335	336	5.2	96.2
2025-10-03T05:18	10	0	0.1	0	0	336	0.3	335	336	5.3	96.2
2025-10-03T05:19	10	0	0.1	0	0	336	0.2	335	336	5.3	96.0
2025-10-03T05:20	10	0	0.1	0	0	336	0.3	335	337	5.3	95.8
2025-10-03T05:21	10	0	0.1	0	0	336	0.2	336	337	5.4	95.5
2025-10-03T05:22	10	0	0.1	0	0	336	0.2	335	336	5.5	95.3
2025-10-03T05:23	10	0	0.1	0	0	336	0.2	336	337	5.5	95.0
2025-10-03T05:24	10	0	0.1	0	0	336	0.2	336	337	5.5	95.0
2025-10-03T05:25	10	0	0.1	0	0	336	0.3	336	337	5.5	94.9
2025-10-03T05:26	10	0	0.0	0	0	337	0.2	336	337	5.5	94.8
2025-10-03T05:27	10	0	0.1	0	0	336	0.2	336	337	5.6	94.7
2025-10-03T05:28	10	1	0.1	0	1	337	0.2	336	337	5.6	94.7
2025-10-03T05:29	10	1	0.1	0	1	337	0.3	337	338	5.7	94.6
2025-10-03T05:30	10	1	0.1	1	1	337	0.3	337	338	5.7	94.2
2025-10-03T05:31	10	1	0.1	1	1	338	0.3	337	338	5.8	94.0
2025-10-03T05:32	10	1	0.1	1	1	338	0.2	337	339	5.8	93.8
2025-10-03T05:33	10	1	0.1	1	2	338	0.3	338	339	5.8	93.5
2025-10-03T05:34	10	2	0.1	1	2	339	0.2	338	339	5.9	93.3
2025-10-03T05:35	10	2	0.1	1	2	339	0.2	338	339	5.9	93.0
2025-10-03T05:36	10	2	0.1	1	2	339	0.3	339	340	5.9	92.8
2025-10-03T05:37	10	1	0.1	1	2	339	0.2	339	340	6.0	92.7
2025-10-03T05:38	10	2	0.1	1	2	339	0.2	339	340	6.0	92.6
2025-10-03T05:39	10	2	0.1	2	2	340	0.2	339	340	6.0	92.7
2025-10-03T05:40	10	2	0.1	2	2	340	0.2	340	341	5.9	92.8
2025-10-03T05:41	10	2	0.1	2	3	340	0.2	340	341	5.9	93.0
2025-10-03T05:42	10	3	0.1	3	3	340	0.2	340	341	5.9	93.3
2025-10-03T05:43	10	3	0.1	3	3	341	0.2	340	341	5.9	93.0
2025-10-03T05:44	10	4	0.1	3	4	341	0.2	340	341	6.0	93.1
2025-10-03T05:45	10	4	0.1	4	4	341	0.3	341	342	6.0	93.1
2025-10-03T05:46	10	4	0.1	4	4	341	0.3	340	341	6.0	93.1
2025-10-03T05:47	10	4	0.1	4	5	341	0.2	340	341	5.8	93.9
2025-10-03T05:48	10	5	0.2	5	6	340	0.3	340	341	5.8	94.2
2025-10-03T05:49	10	6	0.2	5	6	340	0.3	340	341	5.7	94.5
2025-10-03T05:50	10	6	0.1	6	6	340	0.2	340	341	5.7	94.7
2025-10-03T05:51	10	7	0.2	6	7	340	0.2	340	341	5.7	94.8
2025-10-03T05:52	10	7	0.2	7	8	340	0.2	340	341	5.6	94.9
2025-10-03T05:53	10	8	0.2	8	9	341	0.2	340	341	5.5	95.2
2025-10-03T05:54	10	9	0.1	8	9	341	0.2	340	341	5.5	95.4
2025-10-03T05:55	10	9	0.1	9	9	341	0.2	341	342	5.4	95.4
2025-10-03T05:56	10	9	0.2	9	10	341	0.2	341	342	5.4	95.8
2025-10-03T05:57	10	10	0.2	10	11	341	0.3	341	342	5.4	95.9
2025-10-03T05:58	10	11	0.3	10	11	342	0.3	341	342	5.4	96.0
2025-10-03T05:59	10	12	0.6	11	14	342	0.3	342	343	5.4	96.0
2025-10-03T06:00	10	14	0.5	13	15	343	0.3	342	343	5.4	95.8
2025-10-03T06:01	10	16	0.3	15	16	343	0.3	343	344	5.4	95.6
2025-10-03T06:02	10	16	0.3	16	17	344	0.3	343	344	5.5	95.6
2025-10-03T06:03	10	18	5.8	16	55	344	0.3	344	345	5.5	95.8
2025-10-03T06:04	10	15	0.6	14	16	345	0.2	344	345	5.5	95.9
2025-10-03T06:05	10	13	0.4	12	14	345	0.2	344	345	5.6	95.9
2025-10-03T06:06	10	12	0.2	12	13	345	0.2	344	345	5.7	96.2
2025-10-03T06:07	10	12	0.1	12	12	345	0.2	344	345	5.7	95.6
2025-10-03T06:08	10	12	0.1	12	12	345	0.3	344	346	5.7	95.4
2025-10-03T06:09	10	12	0.1	12	12	345	0.2	344	345	5.7	95.2
2025-10-03T06:10	10	12	0.1	11	12	345	0.2	344	345	5.8	95.2
2025-10-03T06:11	10	11	0.1	11	12	345	0.2	345	346	5.8	95.3
2025-10-03T06:12	10	11	0.1	11	11	345	0.2	344	345	5.8	95.8
2025-10-03T06:13	10	11	0.3	10	11	345	0.2	344	345	5.9	96.0
2025-10-03T06:14	10	10	0.4	9	10	345	0.2	344	345	5.9	95.9
2025-10-03T06:15	10	8	0.3	8	9	345	0.3	344	345	5.9	95.9
2025-10-03T06:16	10	7	0.3	7	8	345	0.3	344	345	5.9	95.6
2025-10-03T06:17	10	7	0.2	6	7	345	0.2	344	345	5.9	95.8
2025-10-03T06:18	10	6	0.2	6	6	344	0.2	344	345	5.9	95.4
2025-10-03T06:19	10	6	0.1	6	6	344	0.3	344	345	5.9	95.3
2025-10-03T06:20	10	6	0.1	6	6	345	0.2	344	345	6.0	95.6
2025-10-03T06:21	10	6	0.1	6	6	344	0.2	344	345	6.0	95.7
2025-10-03T06:22	10	6	0.1	6	6	345	0.2	344	345	6.0	95.9
2025-10-03T06:23	10	6	0.1	6	6	344	0.3	344	345	6.0	96.1
2025-10-03T06:24	10	6	0.1	6	6	345	0.2	344	345	6.0	95.8
2025-10-03T06:25	10	6	0.1	6	6	345	0.2	344	345	6.1	95.6
2025-10-03T06:26	10	6	0.1	6	7	345	0.2	344	345	6.1	95.8
2025-10-03T06:27	10	7	0.1	6	7	345	0.2	344	345	6.1	96.2
2025-10-03T06:28	10	7	0.1	7	7	345	0.3	344	345	6.1	96.2
2025-10-03T06:29	10	7	0.0	7	7	345	0.2	344	345	6.1	96.2
2025-10-03T06:30	10	7	0.1	6	7	345	0.3	344	345	6.1	96.6
2025-10-03T06:31	10	7	0.0	7	7	345	0.3	344	345	6.1	96.5
2025-10-03T06:32	10	7	0.1	7	7	345	0.2	345	345	6.1	96.6
2025-10-03T06:33	10	7	0.1	7	7	345	0.2	345	346	6.2	96.6
2025-10-03T06:34	10	7	0.1	7	7	345	0.2	345	346	6.2	96.7
2025-10-03T06:35	10	7	0.1	7	7	345	0.2	345	346	6.2	96.8
2025-10-03T06:36	10	7	0.1	7	7	345	0.2	345	346	6.2	96.6
2025-10-03T06:37	10	7	0.1	7	7	346	0.2	345	346	6.2	96.4
2025-10-03T06:38	10	7	0.1	7	7	345	0.2	345	346	6.2	96.2
2025-10-03T06:39	10	7	0.1	7	7	346	0.2	345	346	6.2	96.0
2025-10-03T06:40	10	7	0.0	7	7	346	0.3	345	347	6.2	95.9
2025-10-03T06:41	10	7	0.1	7	7	346	0.2	345	346	6.2	96.3
2025-10-03T06:42	10	7	0.2	7	8	346	0.2	345	346	6.2	96.7
2025-10-03T06:43	10	8	0.2	8	8	346	0.2	345	346	6.2	96.7
2025-10-03T06:44	10	8	0.1	8	9	345	0.2	345	346	6.2	96.9
2025-10-03T06:45	10	9	0.1	8	9	345	0.2	345	346	6.2	97.1
2025-10-03T06:46	10	9	0.1	9	9	345	0.2	345	346	6.2	97.0
2025-10-03T06:47	10	9	0.1	9	9	345	0.2	345	345	6.2	96.9
2025-10-03T06:48	10	9	0.1	8	9	345	0.3	344	346	6.1	96.7
2025-10-03T06:49	10	8	0.1	8	9	345	0.3	344	345	6.1	96.5
2025-10-03T06:50	10	8	0.1	8	8	345	0.2	345	345	6.1	96.4
2025-10-03T06:51	10	8	0.1	8	8	345	0.2	345	346	6.1	96.4
2025-10-03T06:52	10	8	0.1	8	8	345	0.3	345	346	6.1	96.3
2025-10-03T06:53	10	8	0.1	8	8	345	0.2	345	346	6.1	96.3
2025-10-03T06:54	10	8	0.1	8	8	345	0.2	345	346	6.1	96.7
2025-10-03T06:55	10	8	0.1	8	9	346	0.2	345	346	6.1	96.9
2025-10-03T06:56	10	9	0.1	8	9	346	0.2	345	346	6.2	97.2
2025-10-03T06:57	10	9	0.1	9	9	346	0.2	346	347	6.2	96.8
2025-10-03T06:58	10	9	0.1	9	10	346	0.2	346	347	6.2	96.3
2025-10-03T06:59	10	10	0.1	9	10	347	0.2	346	347	6.2	96.3
2025-10-03T07:00	10	10	0.1	10	10	347	0.2	346	347	6.2	95.8
2025-10-03T07:01	10	10	0.1	10	10	347	0.2	347	348	6.2	94.5
2025-10-03T07:02	10	10	0.1	9	10	347	0.2	347	347	6.2	94.3
2025-10-03T07:03	10	10	0.1	9	10	347	0.1	347	347	6.2	94.5
2025-10-03T07:04	10	10	0.1	9	10	347	0.2	346	347	6.2	94.7
2025-10-03T07:05	10	10	0.1	10	10	347	0.2	346	347	6.2	95.1
2025-10-03T07:06	10	10	0.1	10	10	347	0.2	347	347	6.2	95.2
2025-10-03T07:07	10	10	0.1	10	10	347	0.2	347	347	6.2	95.4
2025-10-03T07:08	10	10	0.1	10	11	347	0.2	347	348	6.2	95.4
2025-10-03T07:09	10	11	0.2	10	11	347	0.2	347	348	6.2	95.2
2025-10-03T07:10	10	11	0.3	11	12	348	0.3	347	348	6.2	95.1
2025-10-03T07:11	10	12	0.3	12	13	348	0.3	348	349	6.2	95.4
2025-10-03T07:12	10	13	0.2	13	14	349	0.3	348	349	6.3	95.7
2025-10-03T07:13	10	14	0.2	13	14	349	0.3	349	350	6.3	95.4
2025-10-03T07:14	10	14	0.2	14	15	349	0.3	348	350	6.3	95.3
2025-10-03T07:15	10	15	0.1	14	15	349	0.2	349	350	6.3	94.8
2025-10-03T07:16	10	15	0.1	14	15	350	0.2	349	350	6.3	94.8
2025-10-03T07:17	10	15	0.2	15	16	350	0.2	349	351	6.3	94.7
2025-10-03T07:18	10	16	0.3	15	16	350	0.2	350	351	6.4	95.2
2025-10-03T07:19	10	17	0.2	16	17	351	0.3	350	351	6.5	95.5
2025-10-03T07:20	10	17	0.2	17	18	351	0.2	350	352	6.5	95.3
2025-10-03T07:21	10	17	0.1	17	18	351	0.2	351	352	6.5	95.0
2025-10-03T07:22	10	18	0.1	17	18	352	0.2	351	352	6.5	94.7
2025-10-03T07:23	10	17	0.1	17	18	352	0.3	351	352	6.5	93.4
2025-10-03T07:24	10	17	0.1	17	18	352	0.2	351	352	6.5	93.4
2025-10-03T07:25	10	17	0.2	17	18	352	0.2	351	353	6.5	93.7
2025-10-03T07:26	10	18	0.2	18	19	352	0.2	352	353	6.6	94.0
2025-10-03T07:27	10	19	0.2	18	19	353	0.3	352	353	6.7	93.9
2025-10-03T07:28	10	19	0.1	19	20	353	0.2	352	353	6.7	93.7
2025-10-03T07:29	10	20	0.2	20	21	353	0.3	352	353	6.7	93.5
2025-10-03T07:30	10	20	0.1	20	21	352	0.2	352	353	6.7	93.5
2025-10-03T07:31	10	20	0.1	20	21	353	0.2	352	353	6.7	90.4
2025-10-03T07:32	10	20	0.2	20	20	353	0.2	352	353	6.7	93.5
2025-10-03T07:33	10	20	0.2	19	20	353	0.2	352	353	6.7	93.5
2025-10-03T07:34	10	19	0.2	19	19	353	0.2	352	353	6.7	93.5
2025-10-03T07:35	10	19	0.2	18	19	353	0.2	352	353	6.7	93.5
2025-10-03T07:36	10	18	0.2	18	19	353	0.3	352	353	6.7	93.5
2025-10-03T07:37	10	18	0.1	17	18	353	0.2	353	353	6.9	91.6
2025-10-03T07:38	10	18	0.1	17	18	353	0.3	352	353	6.8	90.9
2025-10-03T07:39	10	18	0.1	18	18	353	0.3	353	354	6.9	91.2
2025-10-03T07:40	10	18	0.1	18	19	353	0.2	353	354	6.9	91.3
2025-10-03T07:41	10	19	0.1	18	19	353	0.2	352	354	6.9	91.7
2025-10-03T07:42	10	19	0.1	18	19	353	0.2	353	354	6.9	91.9
2025-10-03T07:43	10	19	0.1	19	19	353	0.2	353	354	7.0	91.8
2025-10-03T07:44	10	19	0.1	18	19	353	0.2	353	354	7.0	92.0
2025-10-03T07:45	10	19	0.1	19	19	354	0.2	353	354	7.1	92.0
2025-10-03T07:46	10	19	0.1	19	19	354	0.2	353	354	7.1	91.9
2025-10-03T07:47	10	19	0.1	19	19	354	0.2	353	354	7.2	91.9
2025-10-03T07:48	10	19	0.1	18	19	354	0.2	353	354	7.2	91.8
2025-10-03T07:49	10	18	0.1	18	18	354	0.2	354	355	7.2	91.4
2025-10-03T07:50	10	18	0.1	18	18	354	0.2	353	354	7.2	91.2
2025-10-03T07:51	10	18	0.1	17	18	354	0.3	353	354	7.1	91.4
2025-10-03T07:52	10	17	0.1	17	18	354	0.2	353	354	7.2	91.7
2025-10-03T07:53	10	17	0.1	17	17	354	0.3	353	354	7.2	91.7
2025-10-03T07:54	10	17	0.0	17	17	354	0.2	353	354	7.3	91.7
2025-10-03T07:55	10	17	0.1	17	17	354	0.2	353	354	7.3	92.0
2025-10-03T07:56	10	17	0.1	17	17	354	0.2	354	355	7.3	92.3
2025-10-03T07:57	10	17	0.1	17	17	354	0.2	354	355	7.3	92.5
2025-10-03T07:58	10	18	0.1	17	18	354	0.2	354	354	7.2	92.2
2025-10-03T07:59	10	18	0.2	18	18	354	0.2	354	355	7.3	92.3
2025-10-03T08:00	10	19	0.2	18	19	354	0.2	354	355	7.3	92.4
2025-10-03T08:01	10	19	0.2	19	20	355	0.2	354	355	7.2	92.3
2025-10-03T08:02	10	20	0.1	20	20	355	0.2	355	355	7.3	92.3
2025-10-03T08:03	10	20	0.1	20	20	355	0.2	355	356	7.3	92.7
2025-10-03T08:04	10	21	0.1	20	21	355	0.2	355	356	7.3	92.3
2025-10-03T08:05	10	21	0.1	20	21	355	0.2	355	356	7.4	91.7
2025-10-03T08:06	10	20	0.1	20	21	355	0.2	355	356	7.4	91.6
2025-10-03T08:07	10	20	0.1	20	20	356	0.2	355	356	7.5	91.9
2025-10-03T08:08	10	20	0.1	20	21	356	0.2	355	356	7.4	92.0
2025-10-03T08:09	10	21	0.1	20	21	356	0.3	356	357	7.4	92.0
2025-10-03T08:10	10	21	0.1	21	21	356	0.2	355	356	7.3	92.8
2025-10-03T08:11	10	21	0.1	21	22	355	0.3	355	356	7.3	93.3
2025-10-03T08:12	10	22	0.1	21	22	355	0.2	355	356	7.2	93.2
2025-10-03T08:13	10	22	0.2	22	22	355	0.3	355	356	7.2	93.5
2025-10-03T08:14	10	23	0.2	22	23	356	0.3	355	356	7.2	94.0
2025-10-03T08:15	10	24	0.2	23	24	356	0.2	356	357	7.2	94.1
2025-10-03T08:16	10	24	0.2	24	25	356	0.2	356	357	7.2	94.0
2025-10-03T08:17	10	25	0.3	25	26	356	0.3	356	357	7.2	93.5
2025-10-03T08:18	10	26	0.3	25	27	357	0.3	356	357	7.2	92.4
2025-10-03T08:19	10	27	0.3	26	27	358	0.4	357	358	7.3	92.6
2025-10-03T08:20	10	28	0.3	27	28	358	0.3	357	359	7.4	93.3
2025-10-03T08:21	10	29	0.3	28	29	358	0.2	358	359	7.4	93.5
2025-10-03T08:22	10	30	0.3	29	30	359	0.3	358	360	7.4	92.9
2025-10-03T08:23	10	31	0.3	30	32	359	0.2	359	360	7.5	92.6
2025-10-03T08:24	10	32	0.3	31	33	360	0.2	359	360	7.5	92.9
2025-10-03T08:25	10	33	0.4	32	34	360	0.3	359	361	7.5	92.6
2025-10-03T08:26	10	34	0.3	34	35	361	0.3	360	361	7.6	92.7
2025-10-03T08:27	10	35	0.3	35	35	361	0.2	361	362	7.6	92.7
2025-10-03T08:28	10	36	0.3	35	36	361	0.3	360	362	7.5	92.4
2025-10-03T08:29	10	37	0.3	36	37	361	0.2	360	362	7.5	92.2
2025-10-03T08:30	10	36	5.8	-4	38	362	0.2	361	362	7.6	91.4
2025-10-03T08:31	10	39	0.3	38	39	362	0.3	361	363	7.7	91.3
2025-10-03T08:32	10	40	0.3	39	40	363	0.4	362	363	7.8	91.1
2025-10-03T08:33	10	41	0.3	40	41	363	0.2	363	364	7.9	90.9
2025-10-03T08:34	10	42	0.3	41	42	364	0.2	363	364	7.9	91.0
2025-10-03T08:35	10	43	0.4	42	43	364	0.1	363	364	8.0	91.6
2025-10-03T08:36	10	44	0.4	43	45	364	0.2	364	365	7.8	91.1
2025-10-03T08:37	10	45	0.3	45	45	364	0.1	364	364	7.8	90.3
2025-10-03T08:38	10	46	0.2	45	46	365	0.3	364	365	7.8	90.7
2025-10-03T08:39	10	47	0.2	46	47	365	0.2	365	366	7.9	90.7
2025-10-03T08:40	10	47	0.2	47	48	366	0.2	365	366	7.8	89.5
2025-10-03T08:41	10	48	0.1	47	48	366	0.3	365	366	7.9	89.3
2025-10-03T08:42	10	48	0.1	48	48	366	0.2	365	366	7.9	87.6
2025-10-03T08:43	10	48	0.1	48	48	366	0.2	365	366	7.9	85.8
2025-10-03T08:44	10	48	0.1	48	48	366	0.3	365	367	7.9	85.8
2025-10-03T08:45	10	48	0.1	48	48	366	0.2	366	367	8.1	86.7
2025-10-03T08:46	10	48	0.1	47	48	366	0.2	366	367	8.1	86.0
2025-10-03T08:47	10	47	0.1	47	48	366	0.2	366	367	8.0	85.6
2025-10-03T08:48	10	48	0.1	47	48	366	0.2	366	367	8.1	86.5
2025-10-03T08:49	10	48	0.2	48	48	366	0.2	366	367	8.1	86.3
2025-10-03T08:50	10	49	0.3	48	49	366	0.2	366	367	8.0	86.4
2025-10-03T08:51	10	50	0.2	49	50	367	0.2	366	367	8.0	86.3
2025-10-03T08:52	10	51	0.3	50	51	367	0.3	366	368	8.1	86.8
2025-10-03T08:53	10	53	0.4	52	53	367	0.2	367	368	8.3	87.5
2025-10-03T08:54	10	54	0.2	54	54	368	0.2	368	368	8.3	86.5
2025-10-03T08:55	10	55	0.3	54	55	368	0.2	368	368	8.4	86.5
2025-10-03T08:56	10	55	0.3	55	56	369	0.3	368	369	8.4	85.5
2025-10-03T08:57	10	57	0.3	56	57	369	0.3	368	370	8.4	83.8
2025-10-03T08:58	10	57	0.2	57	58	369	0.3	368	369	8.3	81.8
2025-10-03T08:59	10	58	0.4	57	59	369	0.2	368	369	8.3	81.0
2025-10-03T09:00	10	59	0.1	58	59	369	0.2	368	369	8.3	81.8
2025-10-03T09:01	10	59	0.2	58	59	369	0.2	369	369	8.4	82.7
2025-10-03T09:02	10	59	0.1	58	59	369	0.2	369	370	8.5	83.4
2025-10-03T09:03	10	59	0.2	58	59	369	0.2	369	370	8.7	82.8
2025-10-03T09:04	10	59	0.2	58	59	370	0.3	369	370	8.8	81.9
2025-10-03T09:05	10	59	0.2	59	60	370	0.3	369	371	8.8	82.2
2025-10-03T09:06	10	60	0.3	59	61	370	0.3	370	371	8.7	83.0
2025-10-03T09:07	10	60	0.2	60	61	370	0.2	370	370	8.6	82.3
2025-10-03T09:08	10	61	0.2	60	61	370	0.2	370	371	8.6	82.6
2025-10-03T09:09	10	61	0.4	60	61	371	0.2	370	371	8.8	83.5
2025-10-03T09:10	10	63	0.6	62	64	371	0.3	370	372	8.6	82.8
2025-10-03T09:11	10	67	1.2	64	68	372	0.4	371	372	8.6	83.8
2025-10-03T09:12	10	68	0.1	68	68	372	0.3	372	373	8.6	83.4
2025-10-03T09:13	10	68	0.1	68	69	373	0.3	372	373	8.7	84.3
2025-10-03T09:14	10	68	0.1	68	69	373	0.2	373	374	8.7	82.7
2025-10-03T09:15	10	69	0.1	68	69	373	0.5	372	374	8.6	83.2
2025-10-03T09:16	10	69	0.2	69	69	373	0.5	372	374	8.5	83.4
2025-10-03T09:17	10	70	0.4	69	70	374	0.3	373	374	8.6	83.8
2025-10-03T09:18	10	71	0.3	70	71	374	0.3	373	375	8.7	83.5
2025-10-03T09:19	10	72	0.3	71	72	374	0.3	373	374	8.6	82.0
2025-10-03T09:20	10	73	0.4	72	74	375	0.3	374	375	8.6	82.5
2025-10-03T09:21	10	74	0.4	74	75	375	0.2	374	375	8.7	82.3
2025-10-03T09:22	10	76	0.3	75	76	375	0.3	374	376	8.7	81.6
2025-10-03T09:23	10	77	0.5	76	77	376	0.5	375	377	8.8	82.0
2025-10-03T09:24	10	77	0.2	76	77	377	0.3	376	378	8.9	82.4
2025-10-03T09:25	10	76	0.3	76	77	377	0.5	376	378	8.9	82.2
2025-10-03T09:26	10	75	0.5	74	76	377	0.3	376	377	8.9	80.6
2025-10-03T09:27	10	72	0.7	71	74	377	0.3	376	377	9.0	81.2
2025-10-03T09:28	10	69	0.9	68	71	377	0.4	376	377	9.2	82.6
2025-10-03T09:29	10	67	0.8	66	68	376	0.3	376	377	9.4	82.3
2025-10-03T09:30	10	66	0.1	66	66	376	0.3	375	377	9.4	81.9
2025-10-03T09:31	10	66	0.2	65	66	376	0.2	376	377	9.2	80.9
2025-10-03T09:32	10	66	0.2	65	66	376	0.2	376	376	9.2	80.7
2025-10-03T09:33	10	66	0.2	66	67	376	0.3	375	376	9.2	80.5
2025-10-03T09:34	10	67	0.6	66	68	376	0.2	376	376	9.3	82.0
2025-10-03T09:35	10	69	0.6	68	70	376	0.4	375	377	9.3	80.9
2025-10-03T09:36	10	71	0.6	70	72	377	0.3	376	377	9.2	80.7
2025-10-03T09:37	10	74	1.1	72	76	377	0.5	376	379	9.2	80.9
2025-10-03T09:38	10	77	0.6	76	78	377	0.7	376	379	9.2	80.9
2025-10-03T09:39	10	78	0.1	78	78	377	0.3	376	378	9.1	80.5
2025-10-03T09:40	10	77	0.1	77	78	377	0.3	377	378	9.2	80.8
2025-10-03T09:41	10	77	0.2	77	78	377	0.2	377	378	9.1	80.2
2025-10-03T09:42	10	76	0.3	76	77	378	0.3	377	379	9.1	79.9
2025-10-03T09:43	10	75	0.4	74	76	379	0.3	378	379	9.2	80.7
2025-10-03T09:44	10	73	0.8	72	74	378	0.2	378	379	9.2	80.0
2025-10-03T09:45	10	71	0.4	71	72	378	0.3	378	379	9.3	80.2
2025-10-03T09:46	10	70	0.1	70	71	379	0.3	378	380	9.6	81.5
2025-10-03T09:47	10	70	0.5	69	70	378	0.3	378	379	9.6	81.2
2025-10-03T09:48	10	69	0.3	68	69	378	0.3	377	379	9.6	80.9
2025-10-03T09:49	10	68	0.2	68	68	377	0.3	376	378	9.5	80.1
2025-10-03T09:50	10	68	0.1	68	68	377	0.2	376	377	9.3	79.3
2025-10-03T09:51	10	68	0.1	67	68	377	0.2	376	377	9.3	79.2
2025-10-03T09:52	10	68	0.1	67	68	377	0.3	377	378	9.3	79.5
2025-10-03T09:53	10	68	0.1	67	68	378	0.2	377	378	9.5	80.1
2025-10-03T09:54	10	68	0.2	68	69	377	0.6	376	378	9.5	79.1
2025-10-03T09:55	10	69	0.1	69	69	376	0.3	376	377	9.4	78.3
2025-10-03T09:56	10	69	0.1	69	70	377	0.4	376	378	9.4	79.0
2025-10-03T09:57	10	70	0.1	69	70	378	0.4	377	379	9.6	80.1
2025-10-03T09:58	10	70	0.1	70	70	378	0.2	378	379	9.7	79.5
2025-10-03T09:59	10	71	0.5	70	72	379	0.3	378	380	9.9	80.5
2025-10-03T10:00	10	72	0.2	71	72	379	0.5	378	380	9.7	78.6
2025-10-03T10:01	10	71	0.2	71	71	377	0.4	376	378	9.6	78.8
2025-10-03T10:02	10	70	0.3	69	70	377	0.3	376	378	9.4	78.0
2025-10-03T10:03	10	69	0.3	68	69	378	0.4	377	379	9.6	79.1
2025-10-03T10:04	10	68	0.5	67	68	378	0.3	377	378	9.4	77.7
2025-10-03T10:05	10	66	0.4	65	67	378	0.3	378	379	9.6	79.0
2025-10-03T10:06	10	65	0.3	64	66	378	0.6	377	379	9.7	78.8
2025-10-03T10:07	10	64	0.3	63	65	376	0.7	375	377	9.5	77.7
2025-10-03T10:08	10	63	0.2	63	63	375	0.6	374	376	9.3	77.1
2025-10-03T10:09	10	62	0.3	62	63	375	0.7	374	377	9.4	77.4
2025-10-03T10:10	10	61	0.3	61	62	377	0.2	376	377	9.5	79.1
2025-10-03T10:11	10	60	0.2	60	61	376	0.4	375	377	9.6	78.5
2025-10-03T10:12	10	60	0.3	59	60	376	0.3	375	376	9.6	78.3
2025-10-03T10:13	10	59	0.3	58	59	376	0.2	375	376	9.6	77.4
2025-10-03T10:14	10	58	0.2	57	58	376	0.3	375	376	9.6	77.7
2025-10-03T10:15	10	57	0.2	57	57	376	0.3	375	376	9.7	77.9
2025-10-03T10:16	10	56	0.2	56	57	376	0.3	375	377	9.6	77.1
2025-10-03T10:17	10	56	0.2	56	56	377	0.3	376	378	9.7	77.4
2025-10-03T10:18	10	55	0.1	55	56	376	0.7	375	378	9.6	77.0
2025-10-03T10:19	10	55	0.2	55	55	375	0.3	374	376	9.6	77.8
2025-10-03T10:20	10	55	0.2	54	55	374	0.4	373	375	9.5	76.7
2025-10-03T10:21	10	54	0.1	54	54	374	0.3	373	375	9.4	76.4
2025-10-03T10:22	10	54	0.1	54	54	375	0.2	374	375	9.4	76.8
2025-10-03T10:23	10	54	0.1	54	55	375	0.3	374	375	9.6	77.7
2025-10-03T10:24	10	54	0.1	54	55	375	0.3	374	376	9.7	77.0
2025-10-03T10:25	10	54	0.1	54	55	375	0.2	374	375	9.6	76.3
2025-10-03T10:26	10	54	0.2	54	55	375	0.4	374	375	9.6	76.5
2025-10-03T10:27	10	54	0.2	54	55	375	0.2	374	375	9.6	76.5
2025-10-03T10:28	10	54	0.2	53	54	375	0.3	375	376	9.6	76.8
2025-10-03T10:29	10	53	0.2	53	54	374	0.5	373	375	9.6	76.9
2025-10-03T10:30	10	53	0.2	53	53	374	0.4	373	375	9.6	76.9
2025-10-03T10:31	10	53	0.2	52	53	374	0.3	373	375	9.6	76.6
2025-10-03T10:32	10	52	0.2	52	53	374	0.3	373	375	9.6	76.8
2025-10-03T10:33	10	52	0.2	51	52	373	0.4	373	374	9.6	76.7
2025-10-03T10:34	10	51	0.3	51	52	373	0.4	372	374	9.6	77.3
2025-10-03T10:35	10	51	0.2	50	51	374	0.3	373	374	9.7	77.7
2025-10-03T10:36	10	50	0.2	50	51	373	0.3	373	374	9.6	77.6
2025-10-03T10:37	10	50	0.2	50	50	374	0.3	373	374	9.6	77.9
2025-10-03T10:38	10	50	0.2	49	50	373	0.3	373	374	9.5	77.7
2025-10-03T10:39	10	50	0.1	50	50	374	0.5	373	375	9.6	78.4
2025-10-03T10:40	10	50	0.1	50	51	375	0.3	375	376	9.8	79.5
2025-10-03T10:41	10	50	0.1	50	50	375	0.4	374	375	9.8	78.5
2025-10-03T10:42	10	50	0.1	50	50	374	0.4	373	374	9.7	77.5
2025-10-03T10:43	10	50	0.1	50	50	374	0.4	373	375	9.6	77.5
2025-10-03T10:44	10	50	0.1	50	50	375	0.2	374	375	9.7	78.4
2025-10-03T10:45	10	50	0.1	50	50	375	0.3	374	376	9.7	78.4
2025-10-03T10:46	10	50	0.1	50	50	375	0.2	375	375	9.9	79.4
2025-10-03T10:47	10	50	0.1	50	50	375	0.2	375	376	9.9	78.6
2025-10-03T10:48	10	50	0.1	50	50	376	0.2	375	376	9.8	78.0
2025-10-03T10:49	10	50	0.1	50	50	375	0.2	375	376	9.8	78.5
2025-10-03T10:50	10	50	0.1	50	50	376	0.2	375	376	9.9	79.2
2025-10-03T10:51	10	50	0.1	50	50	376	0.3	375	376	9.9	77.8
2025-10-03T10:52	10	51	0.1	50	51	376	0.2	375	376	9.9	78.9
2025-10-03T10:53	10	51	0.2	51	51	376	0.3	376	377	9.9	78.6
2025-10-03T10:54	10	52	0.2	51	52	377	0.2	376	377	10.0	79.0
2025-10-03T10:55	10	52	0.2	52	52	376	0.3	376	377	10.0	78.3
2025-10-03T10:56	10	53	0.1	52	53	377	0.4	376	378	9.9	78.6
2025-10-03T10:57	10	53	0.1	53	53	376	0.4	375	377	9.9	79.2
2025-10-03T10:58	10	54	0.2	53	54	376	0.3	376	377	9.8	78.4
2025-10-03T10:59	10	54	0.3	54	55	377	0.2	376	377	9.9	78.9
2025-10-03T11:00	10	55	0.3	55	56	376	0.3	376	377	10.0	80.1
2025-10-03T11:01	10	56	0.3	56	57	376	0.3	375	376	9.9	78.4
2025-10-03T11:02	10	57	0.3	57	58	377	0.3	376	377	9.9	79.0
2025-10-03T11:03	10	58	0.2	58	59	377	0.2	376	377	9.9	78.7
2025-10-03T11:04	10	59	0.1	58	59	377	0.3	377	378	10.0	78.3
2025-10-03T11:05	10	59	0.1	59	59	378	0.2	377	378	10.0	78.1
2025-10-03T11:06	10	60	0.2	59	60	378	0.3	378	379	10.0	78.1
2025-10-03T11:07	10	60	0.2	60	61	379	0.2	378	379	10.0	78.3
2025-10-03T11:08	10	61	0.2	61	61	378	0.4	378	379	10.0	78.2
2025-10-03T11:09	10	61	0.1	61	62	378	0.2	378	379	10.1	77.9
2025-10-03T11:10	10	61	0.1	61	62	379	0.3	378	379	10.1	78.5
2025-10-03T11:11	10	62	0.1	62	62	379	0.2	379	380	10.1	78.7
2025-10-03T11:12	10	62	0.1	62	62	379	0.2	379	380	10.2	77.4
2025-10-03T11:13	10	62	0.1	62	63	379	0.2	379	380	10.3	76.8
2025-10-03T11:14	10	63	0.1	63	63	379	0.2	379	380	10.2	77.1
2025-10-03T11:15	10	63	0.6	63	67	379	0.2	379	380	10.3	76.9
2025-10-03T11:16	10	64	0.2	63	64	379	0.3	379	380	10.5	76.4
2025-10-03T11:17	10	64	0.2	64	65	380	0.2	380	381	10.5	77.1
2025-10-03T11:18	10	65	0.2	64	65	381	0.3	380	381	10.4	77.4
2025-10-03T11:19	10	65	0.2	65	66	381	0.2	381	382	10.4	78.0
2025-10-03T11:20	10	66	0.3	66	67	382	0.3	381	382	10.5	78.6
2025-10-03T11:21	10	67	0.3	67	68	381	0.3	381	382	10.6	78.3
2025-10-03T11:22	10	68	0.2	68	69	381	0.2	381	382	10.5	76.8
2025-10-03T11:23	10	69	0.3	68	69	382	0.2	381	382	10.6	76.7
2025-10-03T11:24	10	70	0.3	69	70	382	0.4	382	383	10.7	76.6
2025-10-03T11:25	10	71	0.2	70	71	383	0.4	383	384	10.8	76.9
2025-10-03T11:26	10	72	0.2	71	72	384	0.3	383	384	10.8	78.1
2025-10-03T11:27	10	72	0.2	72	72	384	0.2	384	385	10.9	77.9
2025-10-03T11:28	10	73	0.2	72	73	384	0.4	383	385	10.7	77.2
2025-10-03T11:29	10	73	0.3	73	74	384	0.2	383	384	10.7	77.8
2025-10-03T11:30	10	74	0.2	74	75	384	0.3	383	384	10.5	76.9
2025-10-03T11:31	10	75	0.3	75	75	384	0.4	383	384	10.5	77.6
2025-10-03T11:32	10	76	0.2	75	76	384	0.5	384	385	10.4	78.3
2025-10-03T11:33	10	76	0.2	76	77	383	0.3	383	384	10.3	78.0
2025-10-03T11:34	10	77	0.1	77	77	384	0.3	383	384	10.4	78.6
2025-10-03T11:35	10	77	0.1	77	77	384	0.3	384	385	10.4	79.0
2025-10-03T11:36	10	77	0.1	77	77	385	0.3	384	385	10.4	78.6
2025-10-03T11:37	10	77	0.2	77	78	385	0.2	384	385	10.5	78.3
2025-10-03T11:38	10	78	0.3	78	79	385	0.3	385	386	10.4	78.2
2025-10-03T11:39	10	79	0.1	78	79	386	0.2	385	387	10.5	78.7
2025-10-03T11:40	10	79	0.2	78	79	386	0.3	386	387	10.7	78.7
2025-10-03T11:41	10	80	0.3	79	80	387	0.3	387	388	10.5	77.8
2025-10-03T11:42	10	81	0.5	80	82	387	0.3	387	388	10.6	78.3
2025-10-03T11:43	10	83	0.4	82	83	388	0.3	387	388	10.6	77.7
2025-10-03T11:44	10	84	0.2	83	84	387	0.2	387	388	10.8	78.4
2025-10-03T11:45	10	85	0.4	84	86	388	0.5	387	389	10.9	76.9
2025-10-03T11:46	10	86	0.2	85	86	388	0.3	388	389	11.0	77.3
2025-10-03T11:47	10	86	0.1	86	86	388	0.4	388	390	11.0	76.8
2025-10-03T11:48	10	85	0.5	84	86	389	0.7	387	390	11.0	77.9
2025-10-03T11:49	10	84	0.4	83	84	388	0.3	388	389	11.1	76.5
2025-10-03T11:50	10	83	0.1	83	83	388	0.3	387	388	11.1	77.2
2025-10-03T11:51	10	82	0.3	82	83	387	0.4	386	388	11.0	77.4
2025-10-03T11:52	10	81	0.3	81	82	387	0.3	387	388	11.0	76.5
2025-10-03T11:53	10	81	0.2	80	81	387	0.3	386	388	11.0	76.3
2025-10-03T11:54	10	80	0.3	80	81	388	0.3	387	389	11.0	76.5
2025-10-03T11:55	10	79	0.3	79	80	388	0.2	388	389	10.9	76.9
2025-10-03T11:56	10	78	0.2	78	79	389	0.3	388	389	11.0	77.1
2025-10-03T11:57	10	77	0.5	76	78	389	0.3	388	389	11.1	78.2
2025-10-03T11:58	10	76	0.2	76	77	388	0.3	387	389	11.1	77.0
2025-10-03T11:59	10	75	0.4	74	76	387	0.3	387	388	11.2	77.4
2025-10-03T12:00	10	74	0.4	73	74	387	0.4	386	388	11.2	76.7
2025-10-03T12:01	10	72	0.5	71	73	386	0.3	385	387	11.2	77.3
2025-10-03T12:02	10	70	0.4	70	71	386	0.3	386	387	11.1	76.5
2025-10-03T12:03	10	69	0.4	68	70	386	0.2	386	387	11.1	76.6
2025-10-03T12:04	10	68	0.4	67	68	387	0.3	386	387	11.2	76.4
2025-10-03T12:05	10	67	0.3	66	67	387	0.2	386	387	11.3	76.3
2025-10-03T12:06	10	66	0.1	66	66	387	0.2	386	387	11.5	76.3
2025-10-03T12:07	10	66	0.1	66	66	388	0.3	387	388	11.5	77.4
2025-10-03T12:08	10	66	0.1	66	66	387	0.4	387	389	11.5	76.8
2025-10-03T12:09	10	66	0.2	66	67	387	0.3	386	387	11.4	76.8
2025-10-03T12:10	10	67	0.2	67	67	386	0.3	385	387	11.3	77.1
2025-10-03T12:11	10	68	0.2	67	68	386	0.3	385	387	11.3	77.2
2025-10-03T12:12	10	68	0.1	68	68	388	0.4	387	388	11.5	77.6
2025-10-03T12:13	10	68	0.1	68	68	387	0.2	387	388	11.4	76.5
2025-10-03T12:14	10	68	0.2	68	68	388	0.3	387	388	11.5	76.7
2025-10-03T12:15	10	67	0.2	67	68	387	0.8	386	388	11.4	76.8
2025-10-03T12:16	10	67	0.2	66	67	387	0.3	387	388	11.4	77.1
2025-10-03T12:17	10	66	0.2	66	66	387	1.0	385	388	11.4	77.0
2025-10-03T12:18	10	65	0.2	65	66	386	0.4	386	387	11.4	76.4
2025-10-03T12:19	10	65	0.3	64	65	387	0.3	386	388	11.4	77.2
2025-10-03T12:20	10	64	0.3	63	64	386	0.5	385	387	11.4	76.7
2025-10-03T12:21	10	63	0.2	63	63	386	0.3	385	386	11.3	76.6
2025-10-03T12:22	10	62	0.1	62	63	386	0.2	386	387	11.3	77.2
2025-10-03T12:23	10	62	0.1	62	62	386	0.5	385	387	11.4	77.0
2025-10-03T12:24	10	62	0.2	62	63	385	0.2	385	386	11.3	76.8
2025-10-03T12:25	10	63	0.2	62	64	386	0.3	385	387	11.3	76.9
2025-10-03T12:26	10	63	0.2	63	64	386	0.3	385	387	11.4	76.6
2025-10-03T12:27	10	64	0.1	64	64	387	0.4	386	388	11.5	77.6
2025-10-03T12:28	10	64	0.1	64	65	387	0.3	386	388	11.5	76.5
2025-10-03T12:29	10	64	0.2	63	64	387	0.3	387	388	11.6	77.2
2025-10-03T12:30	10	63	0.3	62	63	386	0.6	386	388	11.4	77.4
2025-10-03T12:31	10	62	0.3	62	63	386	0.3	386	387	11.5	78.2
2025-10-03T12:32	10	61	0.4	60	62	386	0.7	385	387	11.4	77.9
2025-10-03T12:33	10	60	0.4	59	61	384	1.1	382	385	11.1	78.1
2025-10-03T12:34	10	59	0.3	58	60	382	0.3	381	383	11.2	79.2
2025-10-03T12:35	10	58	0.2	58	59	382	0.2	382	383	11.1	78.6
2025-10-03T12:36	10	58	0.1	58	58	383	0.4	382	383	11.1	79.2
2025-10-03T12:37	10	58	0.2	58	59	383	0.3	382	384	11.1	79.2
2025-10-03T12:38	10	59	0.3	58	59	383	0.4	382	384	11.3	78.8
2025-10-03T12:39	10	59	0.2	59	60	383	0.6	382	384	11.4	78.6
2025-10-03T12:40	10	60	0.3	59	61	382	0.4	381	383	11.2	78.3
2025-10-03T12:41	10	61	0.3	60	61	383	0.3	382	383	11.3	78.8
2025-10-03T12:42	10	61	0.2	61	62	382	0.3	382	383	11.3	78.7
2025-10-03T12:43	10	61	0.2	61	62	383	0.5	382	384	11.4	78.7
2025-10-03T12:44	10	62	0.2	61	62	382	0.5	381	383	11.2	78.5
2025-10-03T12:45	10	62	0.2	61	62	382	0.3	381	383	11.2	79.1
2025-10-03T12:46	10	62	0.2	62	62	383	0.4	382	383	11.2	78.8
2025-10-03T12:47	10	62	0.2	62	63	384	0.5	383	385	11.3	79.1
2025-10-03T12:48	10	62	0.1	62	62	384	0.3	383	384	11.3	78.9
2025-10-03T12:49	10	62	0.1	62	62	384	0.3	384	385	11.2	78.4
2025-10-03T12:50	10	62	0.2	61	62	385	0.3	384	386	11.2	78.2
2025-10-03T12:51	10	62	0.2	61	62	385	0.4	384	386	11.3	78.4
2025-10-03T12:52	10	62	0.2	61	62	385	0.7	384	386	11.3	78.6
2025-10-03T12:53	10	62	0.1	62	63	383	0.4	382	384	11.2	78.4
2025-10-03T12:54	10	62	0.1	62	63	383	0.2	383	384	11.2	78.7
2025-10-03T12:55	10	62	0.2	62	62	383	0.3	382	384	11.2	78.7
2025-10-03T12:56	10	62	0.2	62	63	383	0.2	382	383	11.2	78.5
2025-10-03T12:57	10	62	0.2	62	63	383	0.3	382	384	11.4	78.6
2025-10-03T12:58	10	63	0.2	62	63	383	0.2	382	383	11.4	78.1
2025-10-03T12:59	10	63	0.3	63	64	383	0.4	382	384	11.3	78.0
2025-10-03T13:00	10	65	0.4	64	65	384	0.9	383	386	11.3	78.0
2025-10-03T13:01	10	66	0.4	65	67	385	0.5	384	386	11.5	78.1
2025-10-03T13:02	10	67	0.4	67	68	385	0.3	384	385	11.5	78.1
2025-10-03T13:03	10	69	0.5	68	70	385	0.4	384	386	11.6	78.0
2025-10-03T13:04	10	70	0.2	70	70	385	0.6	384	386	11.6	78.1
2025-10-03T13:05	10	70	0.1	70	70	385	0.4	385	386	11.4	78.0
2025-10-03T13:06	10	70	0.1	70	70	386	0.5	385	386	11.4	78.6
2025-10-03T13:07	10	70	0.1	70	71	384	0.3	384	385	11.2	78.5
2025-10-03T13:08	10	71	0.3	70	72	385	0.5	384	386	11.3	79.3
2025-10-03T13:09	10	72	0.3	72	73	386	0.3	385	387	11.2	79.3
2025-10-03T13:10	10	73	0.5	72	74	386	0.2	386	387	11.2	79.2
2025-10-03T13:11	10	74	0.3	73	74	387	0.7	386	389	11.3	79.1
2025-10-03T13:12	10	73	0.2	73	73	388	0.3	387	389	11.6	80.2
2025-10-03T13:13	10	72	0.4	71	73	387	0.3	386	388	11.4	78.1
2025-10-03T13:14	10	71	0.4	71	72	387	0.3	387	388	11.4	78.5
2025-10-03T13:15	10	70	0.3	70	71	388	0.2	387	388	11.4	78.3
2025-10-03T13:16	10	70	0.2	69	70	388	0.3	387	389	11.5	78.7
2025-10-03T13:17	10	70	0.3	70	71	387	0.1	387	387	11.5	78.3
2025-10-03T13:18	10	70	0.1	70	71	387	0.4	386	388	11.4	78.0
2025-10-03T13:19	10	71	0.1	70	71	387	0.3	387	388	11.4	78.3
2025-10-03T13:20	10	70	0.2	70	71	388	0.5	387	389	11.5	78.6
2025-10-03T13:21	10	70	0.2	70	71	388	0.4	387	389	11.6	78.2
2025-10-03T13:22	10	70	0.2	70	71	387	0.2	387	388	11.5	77.8
2025-10-03T13:23	10	71	0.3	71	72	387	0.3	387	388	11.4	77.9
2025-10-03T13:24	10	72	0.3	71	72	387	0.3	386	387	11.5	78.2
2025-10-03T13:25	10	72	0.3	71	72	387	0.5	386	388	11.5	78.8
2025-10-03T13:26	10	71	0.2	71	72	388	0.3	387	389	11.7	78.7
2025-10-03T13:27	10	70	0.6	70	71	388	0.5	388	389	12.0	79.1
2025-10-03T13:28	10	69	0.4	69	70	388	0.3	387	388	11.9	78.3
2025-10-03T13:29	10	69	0.2	69	70	387	0.2	387	388	11.8	77.4
2025-10-03T13:30	10	69	0.2	68	69	388	0.2	387	388	11.8	77.4
2025-10-03T13:31	10	67	0.6	66	69	388	0.4	386	388	11.8	77.9
2025-10-03T13:32	10	66	0.3	65	66	385	0.9	384	387	11.7	77.7
2025-10-03T13:33	10	65	0.2	65	66	385	0.4	385	386	11.6	77.9
2025-10-03T13:34	10	64	0.4	64	65	385	0.3	384	386	11.6	78.0
2025-10-03T13:35	10	63	0.4	63	64	385	0.3	384	385	11.7	78.2
2025-10-03T13:36	10	63	0.2	63	63	385	0.5	383	385	11.7	78.1
2025-10-03T13:37	10	62	0.5	62	63	383	0.3	382	384	11.6	78.5
2025-10-03T13:38	10	62	0.2	62	62	383	0.2	382	383	11.5	78.1
2025-10-03T13:39	10	62	0.2	61	63	384	0.3	383	384	11.6	79.2
2025-10-03T13:40	10	61	0.3	61	62	384	0.3	383	385	11.8	79.3
2025-10-03T13:41	10	62	0.1	61	62	384	0.4	383	385	11.7	78.6
2025-10-03T13:42	10	61	0.3	61	62	384	0.3	384	385	11.7	78.8
2025-10-03T13:43	10	61	0.2	61	62	384	0.3	384	385	11.7	78.9
2025-10-03T13:44	10	62	0.2	61	63	384	0.4	383	385	11.7	78.3
2025-10-03T13:45	10	62	0.3	62	63	385	0.3	384	385	11.8	78.8
2025-10-03T13:46	10	63	0.2	62	63	384	0.3	383	384	11.5	78.1
2025-10-03T13:47	10	63	0.2	63	64	384	0.4	383	384	11.5	78.3
2025-10-03T13:48	10	63	0.1	63	63	385	0.4	384	385	11.5	78.7
2025-10-03T13:49	10	63	0.3	63	64	385	0.3	384	386	11.6	78.2
2025-10-03T13:50	10	63	0.2	63	64	386	0.4	385	387	11.6	78.2
2025-10-03T13:51	10	62	0.3	62	63	386	0.4	386	387	11.7	78.6
2025-10-03T13:52	10	62	0.2	62	63	386	0.4	386	387	11.8	78.5
2025-10-03T13:53	10	62	0.2	62	63	386	0.3	385	387	11.7	77.9
2025-10-03T13:54	10	62	0.3	62	64	386	0.3	385	386	11.7	78.1
2025-10-03T13:55	10	63	0.3	63	64	385	0.3	385	386	11.7	78.5
2025-10-03T13:56	10	64	0.2	63	64	385	0.3	384	386	11.7	78.1
2025-10-03T13:57	10	64	0.3	63	65	385	0.2	385	386	11.7	78.2
2025-10-03T13:58	10	64	0.3	63	65	385	0.3	384	386	11.7	78.0
2025-10-03T13:59	10	64	0.7	63	68	386	0.3	385	387	11.8	78.4
2025-10-03T14:00	10	64	0.2	64	64	386	0.2	385	386	11.9	77.5
2025-10-03T14:01	10	64	0.3	64	65	387	0.4	386	387	12.0	76.5
2025-10-03T14:02	10	65	0.2	64	65	387	0.2	387	388	12.0	77.3
2025-10-03T14:03	10	64	0.4	63	65	387	0.2	387	388	12.1	78.8
2025-10-03T14:04	10	63	0.2	63	64	388	0.3	387	388	12.1	77.5
2025-10-03T14:05	10	64	0.3	63	64	388	0.2	387	388	12.0	76.8
2025-10-03T14:06	10	64	0.1	64	64	387	0.3	387	388	12.0	77.1
2025-10-03T14:07	10	63	0.5	62	64	387	0.2	387	388	12.0	77.4
2025-10-03T14:08	10	63	0.6	61	64	388	0.2	387	388	12.1	78.0
2025-10-03T14:09	10	64	0.2	63	64	388	0.3	387	389	12.1	78.3
2025-10-03T14:10	10	62	1.1	61	64	387	0.6	386	388	12.1	77.3
2025-10-03T14:11	10	59	1.0	57	61	386	0.2	385	386	12.0	76.9
2025-10-03T14:12	10	57	0.4	56	58	386	0.2	385	386	12.0	77.3
2025-10-03T14:13	10	56	0.1	56	57	386	0.4	385	387	12.0	78.2
2025-10-03T14:14	10	57	0.1	56	57	385	0.4	384	386	12.0	77.5
2025-10-03T14:15	10	58	0.5	57	59	384	0.3	384	385	11.8	77.7
2025-10-03T14:16	10	60	0.9	59	62	384	0.3	384	385	11.9	78.4
2025-10-03T14:17	10	65	2.2	62	69	385	0.8	384	386	11.8	77.9
2025-10-03T14:18	10	69	1.7	65	72	387	0.6	385	387	11.9	78.6
2025-10-03T14:19	10	73	0.3	72	73	387	0.2	387	387	11.9	77.8
2025-10-03T14:20	10	74	0.2	73	74	388	0.3	387	388	11.8	77.7
2025-10-03T14:21	10	74	0.3	73	75	388	0.2	387	388	11.9	77.7
2025-10-03T14:22	10	74	0.4	73	75	388	0.4	387	389	11.9	77.4
2025-10-03T14:23	10	74	0.4	74	75	389	0.2	388	389	11.9	77.6
2025-10-03T14:24	10	73	0.5	72	74	389	0.1	389	389	12.0	77.4
2025-10-03T14:25	10	72	0.1	72	72	389	0.1	389	390	12.1	77.2
2025-10-03T14:26	10	72	0.2	72	73	389	0.2	389	390	12.2	77.4
2025-10-03T14:27	10	72	0.2	72	73	389	0.2	388	389	12.1	77.1
2025-10-03T14:28	10	71	0.8	70	72	389	0.3	389	390	12.1	76.5
2025-10-03T14:29	10	69	0.3	69	70	389	0.3	389	390	12.3	76.5
2025-10-03T14:30	10	68	0.5	67	69	389	0.3	388	389	12.3	77.5
2025-10-03T14:31	10	66	0.8	64	67	387	0.9	386	389	12.2	77.8
2025-10-03T14:32	10	65	0.3	64	65	386	0.3	385	387	12.1	77.8
2025-10-03T14:33	10	64	0.4	63	65	386	0.2	386	387	12.1	77.0
2025-10-03T14:34	10	61	1.5	59	63	386	0.3	386	387	12.1	77.0
2025-10-03T14:35	10	60	0.5	60	61	386	0.3	386	387	12.1	77.2
2025-10-03T14:36	10	59	0.6	58	60	386	0.3	386	387	12.2	77.3
2025-10-03T14:37	10	59	0.1	59	60	387	0.2	386	387	12.2	77.8
2025-10-03T14:38	10	58	0.4	57	59	386	0.3	385	387	12.2	77.2
2025-10-03T14:39	10	55	1.0	54	57	386	0.2	386	387	12.3	77.9
2025-10-03T14:40	10	55	0.5	55	57	385	0.4	384	386	12.4	78.1
2025-10-03T14:41	10	58	0.7	57	59	385	0.3	385	386	12.3	77.6
2025-10-03T14:42	10	60	1.1	58	61	386	0.2	385	386	12.3	77.4
2025-10-03T14:43	10	61	0.7	60	63	386	0.2	385	386	12.2	77.2
2025-10-03T14:44	10	62	0.7	61	63	385	0.3	385	386	12.3	78.2
2025-10-03T14:45	10	62	0.2	62	63	385	0.4	384	386	12.3	77.8
2025-10-03T14:46	10	62	0.2	62	62	385	0.2	385	386	12.3	77.0
2025-10-03T14:47	10	63	0.2	62	63	386	0.3	385	387	12.3	77.1
2025-10-03T14:48	10	62	0.3	62	63	387	0.3	386	387	12.4	78.0
2025-10-03T14:49	10	63	0.2	63	64	387	0.2	386	387	12.4	77.3
2025-10-03T14:50	10	63	0.6	62	64	387	0.2	386	387	12.4	76.8
2025-10-03T14:51	10	61	0.4	60	62	387	0.3	386	387	12.4	76.8
2025-10-03T14:52	10	60	0.3	60	61	386	0.3	386	387	12.5	76.7
2025-10-03T14:53	10	59	0.8	57	60	387	0.3	386	387	12.5	76.4
2025-10-03T14:54	10	56	0.9	55	57	387	0.3	386	387	12.6	76.3
2025-10-03T14:55	10	56	0.5	55	57	387	0.2	386	387	12.6	76.3
2025-10-03T14:56	10	56	0.4	55	56	387	0.3	386	387	12.7	76.8
2025-10-03T14:57	10	56	0.4	55	57	386	0.3	386	387	12.6	76.4
2025-10-03T14:58	10	57	0.4	56	58	386	0.2	385	386	12.6	76.5
2025-10-03T14:59	10	58	0.2	57	58	386	0.2	386	387	12.6	76.7
2025-10-03T15:00	10	59	0.9	58	61	387	0.3	386	388	12.7	77.4
2025-10-03T15:01	10	61	0.3	60	62	387	0.3	386	388	12.9	76.5
2025-10-03T15:02	10	61	0.2	61	62	387	0.4	386	388	12.9	76.2
2025-10-03T15:03	10	62	0.2	61	62	386	0.3	385	387	12.7	75.8
2025-10-03T15:04	10	61	0.2	61	62	386	0.2	385	386	12.6	76.0
2025-10-03T15:05	10	60	0.5	59	61	386	0.2	386	387	12.7	76.2
2025-10-03T15:06	10	59	0.5	58	60	386	0.2	385	387	12.8	76.2
2025-10-03T15:07	10	57	0.4	57	58	385	0.6	384	386	12.8	75.8
2025-10-03T15:08	10	56	0.5	56	57	385	0.5	384	386	12.7	75.8
2025-10-03T15:09	10	55	0.5	54	56	386	0.3	385	386	12.8	76.1
2025-10-03T15:10	10	53	0.5	52	54	386	0.2	385	386	12.9	75.9
2025-10-03T15:11	10	52	0.5	51	52	386	0.3	385	386	13.0	76.4
2025-10-03T15:12	10	50	0.3	50	51	385	0.3	384	385	12.9	75.5
2025-10-03T15:13	10	49	0.3	48	50	384	0.5	383	385	12.9	75.2
2025-10-03T15:14	10	48	0.3	47	49	383	0.4	382	384	12.9	75.2
2025-10-03T15:15	10	47	0.3	46	48	383	0.3	382	384	12.8	75.4
2025-10-03T15:16	10	46	0.3	46	47	384	0.3	383	384	12.8	75.4
2025-10-03T15:17	10	46	0.1	46	46	384	0.2	384	385	12.9	75.6
2025-10-03T15:18	10	45	0.6	43	46	384	0.4	383	384	12.8	75.5
2025-10-03T15:19	10	43	0.4	42	43	383	0.4	382	384	12.8	75.3
2025-10-03T15:20	10	41	0.3	41	42	383	0.3	382	383	12.9	75.7
2025-10-03T15:21	10	40	0.5	39	41	383	0.3	382	383	12.8	75.4
2025-10-03T15:22	10	38	0.6	38	39	382	0.4	381	383	12.8	76.0
2025-10-03T15:23	10	36	0.5	36	38	381	0.4	380	382	12.7	75.6
2025-10-03T15:24	10	35	0.4	34	36	380	0.2	380	381	12.7	75.9
2025-10-03T15:25	10	34	0.5	33	34	380	0.4	379	380	12.7	76.0
2025-10-03T15:26	10	32	0.2	32	33	379	0.2	379	380	12.7	75.7
2025-10-03T15:27	10	32	0.2	32	32	379	0.2	379	380	12.7	75.7
2025-10-03T15:28	10	32	0.1	31	32	379	0.2	379	380	12.8	75.6
2025-10-03T15:29	10	32	0.2	32	32	379	0.3	379	380	12.8	75.8
2025-10-03T15:30	10	32	0.1	32	32	380	0.2	379	380	12.9	76.3
2025-10-03T15:31	10	32	0.1	32	32	380	0.2	379	380	12.9	75.3
2025-10-03T15:32	10	32	0.3	31	32	380	0.3	379	380	12.9	75.3
2025-10-03T15:33	10	31	0.4	30	31	379	0.2	379	380	12.9	75.0
2025-10-03T15:34	10	29	0.2	29	30	379	0.3	379	380	12.9	75.3
2025-10-03T15:35	10	29	0.1	29	30	379	0.3	378	379	12.8	75.6
2025-10-03T15:36	10	29	0.2	28	29	378	0.3	377	379	12.8	76.6
2025-10-03T15:37	10	28	0.3	27	28	378	0.3	377	378	12.7	76.5
2025-10-03T15:38	10	27	0.2	27	27	376	0.5	375	377	12.6	76.9
2025-10-03T15:39	10	26	0.1	26	27	376	0.2	375	377	12.6	77.0
2025-10-03T15:40	10	26	0.3	25	26	376	0.3	375	376	12.6	77.0
2025-10-03T15:41	10	25	0.3	25	25	376	0.3	375	376	12.5	77.0
2025-10-03T15:42	10	24	0.2	24	25	375	0.3	375	376	12.5	77.3
2025-10-03T15:43	10	24	0.1	24	24	375	0.3	374	375	12.5	77.1
2025-10-03T15:44	10	24	0.1	23	24	375	0.2	374	375	12.5	77.6
2025-10-03T15:45	10	23	0.1	23	23	375	0.2	374	375	12.5	77.4
2025-10-03T15:46	10	23	0.1	23	23	374	0.2	374	375	12.5	77.4
2025-10-03T15:47	10	23	0.1	22	23	374	0.2	374	375	12.5	77.5
2025-10-03T15:48	10	22	0.1	22	22	374	0.2	374	375	12.5	77.3
2025-10-03T15:49	10	22	0.1	22	22	374	0.2	374	375	12.5	77.2
2025-10-03T15:50	10	22	0.1	22	22	374	0.2	374	375	12.5	77.5
2025-10-03T15:51	10	22	0.1	21	22	374	0.2	374	375	12.6	77.7
2025-10-03T15:52	10	22	0.1	21	22	374	0.2	374	375	12.6	77.1
2025-10-03T15:53	10	22	0.1	22	22	375	0.2	374	375	12.6	77.2
2025-10-03T15:54	10	22	0.1	22	22	375	0.3	374	375	12.6	77.5
2025-10-03T15:55	10	22	0.1	22	22	375	0.2	374	375	12.7	77.9
2025-10-03T15:56	10	22	0.1	22	22	375	0.3	374	375	12.7	78.1
2025-10-03T15:57	10	22	0.1	22	23	375	0.2	374	375	12.6	77.3
2025-10-03T15:58	10	23	0.1	22	23	374	0.2	374	375	12.6	78.2
2025-10-03T15:59	10	23	0.1	23	23	374	0.2	373	374	12.5	77.5
2025-10-03T16:00	10	23	0.1	23	24	374	0.2	374	375	12.5	77.3
2025-10-03T16:01	10	23	0.1	23	23	374	0.3	374	375	12.5	77.5
2025-10-03T16:02	10	23	0.1	23	23	375	0.3	374	376	12.5	77.5
2025-10-03T16:03	10	23	0.1	23	23	374	0.2	374	375	12.5	77.3
2025-10-03T16:04	10	23	0.1	23	23	374	0.2	374	375	12.4	77.3
2025-10-03T16:05	10	23	0.1	22	23	374	0.3	374	375	12.5	77.7
2025-10-03T16:06	10	22	0.1	22	23	374	0.2	374	375	12.4	77.3
2025-10-03T16:07	10	22	0.2	21	22	374	0.2	374	375	12.4	77.6
2025-10-03T16:08	10	21	0.2	21	22	374	0.3	373	374	12.4	78.0
2025-10-03T16:09	10	21	0.2	20	21	374	0.2	373	374	12.4	78.2
2025-10-03T16:10	10	20	0.2	20	21	374	0.2	373	374	12.4	77.9
2025-10-03T16:11	10	20	0.2	19	20	373	0.2	373	374	12.4	77.8
2025-10-03T16:12	10	19	0.1	19	19	373	0.2	372	374	12.4	77.7
2025-10-03T16:13	10	18	0.2	18	19	373	0.2	373	374	12.4	77.9
2025-10-03T16:14	10	18	0.1	18	18	373	0.2	372	373	12.4	78.1
2025-10-03T16:15	10	17	0.2	17	18	373	0.2	373	373	12.4	78.6
2025-10-03T16:16	10	17	0.2	16	17	373	0.2	372	373	12.4	78.2
2025-10-03T16:17	10	16	0.2	16	17	373	0.2	372	373	12.3	78.5
2025-10-03T16:18	10	16	0.2	15	16	372	0.3	372	373	12.3	79.6
2025-10-03T16:19	10	15	0.2	15	15	372	0.3	372	373	12.3	79.9
2025-10-03T16:20	10	14	0.2	14	15	372	0.2	371	372	12.2	80.2
2025-10-03T16:21	10	14	0.2	14	14	371	0.2	371	372	12.2	80.5
2025-10-03T16:22	10	13	0.2	13	14	371	0.2	371	372	12.1	80.3
2025-10-03T16:23	10	13	0.1	13	13	371	0.3	370	371	12.1	80.6
2025-10-03T16:24	10	12	0.2	12	13	371	0.2	370	371	12.1	81.0
2025-10-03T16:25	10	12	0.2	11	12	370	0.2	370	371	12.1	80.5
2025-10-03T16:26	10	11	0.2	11	11	370	0.3	369	371	12.1	80.6
2025-10-03T16:27	10	10	0.2	10	11	370	0.2	369	370	12.1	80.8
2025-10-03T16:28	10	10	0.2	9	10	370	0.2	369	370	12.1	81.1
2025-10-03T16:29	10	9	0.2	8	9	369	0.2	369	370	12.1	80.8
2025-10-03T16:30	10	8	0.2	8	9	369	0.2	368	369	12.1	80.9
2025-10-03T16:31	10	7	0.2	7	8	368	0.3	368	369	12.1	80.5
2025-10-03T16:32	10	7	0.2	6	7	368	0.2	368	369	12.0	80.5
2025-10-03T16:33	10	6	0.2	6	6	368	0.2	367	368	12.0	80.0
2025-10-03T16:34	10	5	0.2	5	6	367	0.2	367	368	12.0	80.0
2025-10-03T16:35	10	5	0.2	4	5	367	0.2	366	367	12.0	80.3
2025-10-03T16:36	10	4	0.1	4	5	366	0.3	366	367	11.9	80.7
2025-10-03T16:37	10	4	0.1	4	4	366	0.2	366	366	11.9	80.3
2025-10-03T16:38	10	4	0.1	3	4	366	0.2	365	366	11.9	80.4
2025-10-03T16:39	10	3	0.1	3	4	366	0.2	365	366	11.9	80.1
2025-10-03T16:40	10	3	0.1	3	3	365	0.1	365	366	12.0	80.2
2025-10-03T16:41	10	3	0.1	3	3	365	0.2	364	365	11.9	80.5
2025-10-03T16:42	10	3	0.1	3	3	365	0.3	365	366	11.9	80.3
2025-10-03T16:43	10	3	0.1	3	3	365	0.2	364	366	11.9	80.4
2025-10-03T16:44	10	3	0.1	2	3	364	0.2	364	365	11.9	80.3
2025-10-03T16:45	10	3	0.1	3	3	364	0.2	364	364	11.9	80.2
2025-10-03T16:46	10	3	0.1	2	3	364	0.2	363	364	11.9	80.3
2025-10-03T16:47	10	2	0.1	2	3	363	0.2	362	364	11.9	80.5
2025-10-03T16:48	10	2	0.1	2	3	363	0.2	362	363	11.9	80.9
2025-10-03T16:49	10	2	0.1	2	3	362	0.3	362	363	11.8	81.2
2025-10-03T16:50	10	2	0.1	2	3	362	0.2	362	362	11.8	81.0
2025-10-03T16:51	10	2	0.1	2	3	362	0.2	361	362	11.8	81.0
2025-10-03T16:52	10	2	0.2	2	2	361	0.2	361	362	11.8	81.6
2025-10-03T16:53	10	2	0.2	2	3	361	0.3	360	362	11.8	81.6
2025-10-03T16:54	10	2	0.1	1	2	361	0.3	360	361	11.7	81.7
2025-10-03T16:55	10	2	0.1	1	2	360	0.2	360	360	11.7	82.2
2025-10-03T16:56	10	2	0.2	1	2	360	0.3	359	361	11.7	82.3
2025-10-03T16:57	10	1	0.2	1	2	359	0.3	359	360	11.7	81.6
2025-10-03T16:58	10	1	0.2	1	2	359	0.3	358	360	11.6	82.0
2025-10-03T16:59	10	1	0.2	1	1	359	0.3	358	359	11.6	82.2
2025-10-03T17:00	10	1	0.2	1	2	358	0.3	358	359	11.6	82.5
2025-10-03T17:01	10	1	0.1	1	1	358	0.3	357	358	11.5	83.0
2025-10-03T17:02	10	1	0.1	1	1	358	0.3	357	358	11.5	83.7
2025-10-03T17:03	10	1	0.1	1	1	357	0.2	357	358	11.5	84.1
2025-10-03T17:04	10	1	0.1	1	1	357	0.1	357	357	11.4	85.2
2025-10-03T17:05	10	1	0.1	0	1	357	0.2	357	358	11.4	85.1
2025-10-03T17:06	10	1	0.1	1	1	357	0.2	357	358	11.3	85.0
2025-10-03T17:07	10	1	0.1	0	1	357	0.2	357	358	11.3	85.1
2025-10-03T17:08	10	1	0.1	0	1	357	0.2	357	358	11.3	85.5
2025-10-03T17:09	10	1	0.1	0	1	358	0.2	357	358	11.2	85.7
2025-10-03T17:10	10	1	0.1	0	1	358	0.2	357	359	11.2	85.6
2025-10-03T17:11	10	1	0.0	0	1	358	0.2	357	358	11.2	85.7
2025-10-03T17:12	10	1	0.1	0	1	358	0.3	357	358	11.2	85.8
2025-10-03T17:13	10	1	0.1	0	1	357	0.2	357	358	11.2	85.8
2025-10-03T17:14	10	1	0.1	0	1	357	0.2	357	357	11.1	86.2
2025-10-03T17:15	10	0	0.1	0	1	357	0.2	356	357	11.1	86.5
2025-10-03T17:16	10	0	0.1	0	1	357	0.2	356	357	11.1	86.3
2025-10-03T17:17	10	0	0.1	0	1	357	0.3	356	357	11.1	85.8
2025-10-03T17:18	10	0	0.1	0	1	357	0.2	356	357	11.2	85.2
2025-10-03T17:19	10	0	0.1	0	1	357	0.2	356	357	11.2	85.5
2025-10-03T17:20	10	0	0.1	0	1	357	0.3	356	357	11.2	85.8
2025-10-03T17:21	10	0	0.1	0	0	357	0.2	357	358	11.2	85.7
2025-10-03T17:22	10	0	0.1	0	0	357	0.3	356	358	11.2	85.8
2025-10-03T17:23	10	0	0.1	0	0	357	0.3	356	357	11.1	86.2
2025-10-03T17:24	10	0	0.1	0	0	356	0.3	356	357	11.1	86.4
2025-10-03T17:25	10	0	0.1	0	0	356	0.3	355	357	11.0	86.6
2025-10-03T17:26	10	0	0.1	0	0	355	0.2	355	356	11.0	86.8
2025-10-03T17:27	10	0	0.1	0	0	355	0.3	355	356	11.0	86.8
2025-10-03T17:28	10	0	0.1	0	0	355	0.4	355	356	11.1	86.3
2025-10-03T17:29	10	0	0.1	0	0	356	0.2	356	357	11.1	85.9
2025-10-03T17:30	10	0	0.1	0	0	356	0.2	356	357	11.1	86.0
2025-10-03T17:31	10	0	0.1	0	0	356	0.2	355	356	11.1	86.5
2025-10-03T17:32	10	0	0.1	0	1	355	0.4	355	356	10.9	87.6
2025-10-03T17:33	10	0	0.1	0	0	355	0.2	354	355	10.8	89.0
2025-10-03T17:34	10	0	0.1	0	0	355	0.2	354	355	10.6	89.5
2025-10-03T17:35	10	0	0.1	0	0	355	0.3	355	355	10.8	88.5
2025-10-03T17:36	10	0	0.1	0	0	355	0.3	354	355	11.0	87.1
2025-10-03T17:37	10	0	0.1	0	0	354	0.4	353	355	11.0	86.7
2025-10-03T17:38	10	0	0.1	0	0	354	0.3	353	354	11.0	86.9
2025-10-03T17:39	10	0	0.1	0	1	353	0.3	353	354	11.0	87.1
2025-10-03T17:40	10	0	0.1	0	1	353	0.3	353	354	10.9	87.6
2025-10-03T17:41	10	0	0.1	0	1	353	0.2	352	353	10.8	87.9
2025-10-03T17:42	10	0	0.1	0	1	353	0.2	352	353	10.8	88.0
2025-10-03T17:43	10	0	0.1	0	0	353	0.3	352	353	10.8	88.0
2025-10-03T17:44	10	0	0.1	0	0	352	0.2	352	353	10.8	88.2
2025-10-03T17:45	10	0	0.1	0	1	352	0.2	352	353	10.8	88.1
2025-10-03T17:46	10	0	0.1	0	0	352	0.3	351	353	10.8	88.1
2025-10-03T17:47	10	0	0.1	0	1	352	0.3	351	352	10.8	88.3
2025-10-03T17:48	10	0	0.1	0	1	352	0.3	351	353	10.7	88.6
2025-10-03T17:49	10	0	0.1	0	1	352	0.2	351	352	10.7	88.8
2025-10-03T17:50	10	0	0.1	0	0	352	0.2	351	352	10.6	89.6
2025-10-03T17:51	10	0	0.1	0	0	351	0.2	351	352	10.4	90.4
2025-10-03T17:52	10	0	0.1	0	1	351	0.2	351	352	10.3	91.6
2025-10-03T17:53	10	0	0.1	0	0	351	0.2	350	351	10.2	92.1
2025-10-03T17:54	10	0	0.1	0	1	351	0.3	350	351	10.2	92.6
2025-10-03T17:55	10	0	0.1	0	0	350	0.2	350	351	10.1	92.6
2025-10-03T17:56	10	0	0.1	0	0	351	0.2	350	351	10.1	92.4
2025-10-03T17:57	10	0	0.1	0	0	351	0.3	350	351	10.2	91.9
2025-10-03T17:58	10	0	0.1	0	0	351	0.2	351	352	10.2	91.6
2025-10-03T17:59	10	0	0.1	0	0	351	0.2	351	352	10.3	91.2
2025-10-03T18:00	10	0	0.1	0	0	351	0.3	351	352	10.3	91.0
2025-10-03T18:01	10	0	0.1	0	0	352	0.2	351	352	10.2	91.0
2025-10-03T18:02	10	0	0.1	0	0	352	0.3	352	353	10.2	91.1
2025-10-03T18:03	10	0	0.1	0	1	353	0.3	352	353	10.3	91.0
2025-10-03T18:04	10	0	0.1	0	0	353	0.2	353	354	10.2	91.1
2025-10-03T18:05	10	0	0.1	0	0	354	0.2	353	354	10.1	91.4
2025-10-03T18:06	10	0	0.1	0	0	354	0.3	353	354	10.1	92.0
2025-10-03T18:07	10	0	0.0	0	0	353	0.3	352	354	10.1	92.6
2025-10-03T18:08	10	0	0.0	0	0	354	0.2	353	354	10.0	92.9
2025-10-03T18:09	10	0	0.1	0	0	353	0.3	353	354	10.0	93.2
2025-10-03T18:10	10	0	0.1	0	1	353	0.2	353	354	10.0	93.4
2025-10-03T18:11	10	0	0.1	0	0	354	0.2	353	354	10.0	93.5
2025-10-03T18:12	10	0	0.1	0	1	354	0.2	353	354	10.0	93.7
2025-10-03T18:13	10	0	0.1	0	0	354	0.3	353	355	10.0	93.8
2025-10-03T18:14	10	0	0.1	0	0	354	0.3	354	355	10.1	93.6
2025-10-03T18:15	10	0	0.1	0	1	355	0.3	354	355	10.0	93.5
2025-10-03T18:16	10	0	0.1	0	0	355	0.2	354	355	10.1	92.9
2025-10-03T18:17	10	0	0.1	0	1	355	0.2	355	356	10.1	92.3
2025-10-03T18:18	10	0	0.1	0	1	356	0.3	355	356	10.1	92.2
2025-10-03T18:19	10	0	0.1	0	1	356	0.3	355	357	10.2	92.1
2025-10-03T18:20	10	0	0.1	0	0	356	0.3	356	357	10.2	91.8
2025-10-03T18:21	10	0	0.1	0	1	357	0.3	356	357	10.3	91.7
2025-10-03T18:22	10	0	0.1	0	1	357	0.3	357	358	10.3	91.3
2025-10-03T18:23	10	0	0.1	0	1	357	0.2	357	358	10.4	91.2
2025-10-03T18:24	10	0	0.1	0	1	357	0.2	357	358	10.3	91.5
2025-10-03T18:25	10	0	0.1	0	1	357	0.2	357	358	10.2	92.1
2025-10-03T18:26	10	0	0.1	0	1	358	0.3	357	358	10.1	92.5
2025-10-03T18:27	10	0	0.1	0	0	358	0.2	357	358	10.1	92.7
2025-10-03T18:28	10	0	0.1	0	1	358	0.3	358	359	10.1	92.7
2025-10-03T18:29	10	0	0.1	0	1	359	0.3	358	359	10.2	92.3
2025-10-03T18:30	10	0	0.2	0	1	359	0.3	358	359	10.3	91.7
2025-10-03T18:31	10	0	0.1	0	1	359	0.3	358	359	10.3	91.5
2025-10-03T18:32	10	0	0.1	0	1	359	0.3	358	360	10.3	91.4
2025-10-03T18:33	10	0	0.1	0	1	359	0.2	359	360	10.3	91.7
2025-10-03T18:34	10	0	0.1	0	1	359	0.3	359	360	10.3	92.0
2025-10-03T18:35	10	0	0.1	0	1	359	0.2	359	360	10.3	92.1
2025-10-03T18:36	10	0	0.1	0	0	360	0.2	359	360	10.3	92.0
2025-10-03T18:37	10	0	0.1	0	1	360	0.2	359	360	10.3	92.2
2025-10-03T18:38	10	0	0.1	0	1	359	0.4	358	360	10.2	92.3
2025-10-03T18:39	10	0	0.1	0	1	359	0.4	358	360	10.1	92.9
2025-10-03T18:40	10	0	0.1	0	1	359	0.2	358	359	10.0	93.4
2025-10-03T18:41	10	0	0.1	0	1	359	0.3	359	360	10.0	93.6
2025-10-03T18:42	10	0	0.1	0	1	359	0.2	358	359	10.0	93.7
2025-10-03T18:43	10	0	0.1	0	1	359	0.2	359	360	10.1	93.9
2025-10-03T18:44	10	0	0.1	0	1	359	0.2	358	359	10.0	94.2
2025-10-03T18:45	10	0	0.1	0	1	359	0.3	358	359	10.0	94.3
2025-10-03T18:46	10	0	0.1	0	1	359	0.2	358	359	9.9	94.3
2025-10-03T18:47	10	0	0.2	0	1	359	0.3	358	360	9.9	94.4
2025-10-03T18:48	10	0	0.2	0	1	359	0.2	358	359	9.9	94.7
2025-10-03T18:49	10	0	0.1	0	1	358	0.2	358	359	9.9	94.8
2025-10-03T18:50	10	0	0.1	0	1	358	0.2	358	359	9.9	94.7
2025-10-03T18:51	10	0	0.1	0	1	358	0.2	358	359	9.9	94.6
2025-10-03T18:52	10	0	0.1	0	0	358	0.2	358	359	9.9	94.4
2025-10-03T18:53	10	0	0.1	0	1	358	0.3	358	359	9.9	94.1
2025-10-03T18:54	10	0	0.1	0	1	358	0.3	358	359	9.9	93.8
2025-10-03T18:55	10	0	0.1	0	1	358	0.3	358	359	10.0	93.7
2025-10-03T18:56	10	0	0.1	0	0	359	0.2	358	359	10.1	93.5
2025-10-03T18:57	10	0	0.1	0	1	359	0.3	358	360	10.1	93.2
2025-10-03T18:58	10	0	0.1	0	1	359	0.2	359	360	10.2	92.8
2025-10-03T18:59	10	0	0.1	0	1	359	0.2	359	359	10.3	92.6
2025-10-03T19:00	10	0	0.1	0	1	359	0.2	359	360	10.3	92.6
2025-10-03T19:01	10	0	0.1	0	1	359	0.2	359	360	10.3	92.5
2025-10-03T19:02	10	0	0.0	0	0	360	0.2	359	360	10.3	92.4
2025-10-03T19:03	10	0	0.1	0	0	360	0.3	359	360	10.3	92.5
2025-10-03T19:04	10	0	0.0	0	0	360	0.2	359	360	10.4	92.4
2025-10-03T19:05	10	0	0.0	0	0	360	0.2	359	360	10.4	92.3
2025-10-03T19:06	10	0	0.1	0	0	360	0.2	360	361	10.4	92.1
2025-10-03T19:07	10	0	0.0	0	1	360	0.2	360	361	10.4	92.2
2025-10-03T19:08	10	0	0.1	0	1	360	0.2	360	361	10.4	92.3
2025-10-03T19:09	10	0	0.0	0	1	360	0.2	360	361	10.4	92.2
2025-10-03T19:10	10	0	0.0	0	1	360	0.2	360	361	10.4	92.4
2025-10-03T19:11	10	0	0.1	0	0	360	0.2	360	361	10.4	92.6
2025-10-03T19:12	10	0	0.1	0	1	360	0.2	360	361	10.4	92.7
2025-10-03T19:13	10	0	0.0	0	0	360	0.2	360	361	10.4	92.7
2025-10-03T19:14	10	0	0.0	0	0	360	0.2	360	361	10.4	92.7
2025-10-03T19:15	10	0	0.1	0	0	361	0.2	360	361	10.4	92.3
2025-10-03T19:16	10	0	0.0	0	1	361	0.2	360	361	10.6	91.4
2025-10-03T19:17	10	0	0.0	0	1	361	0.2	360	361	10.6	91.1
2025-10-03T19:18	10	0	0.0	0	1	361	0.2	361	362	10.6	91.0
2025-10-03T19:19	10	0	0.0	0	0	361	0.2	361	362	10.6	91.2
2025-10-03T19:20	10	0	0.0	0	0	361	0.2	361	362	10.6	91.5
2025-10-03T19:21	10	0	0.0	0	0	361	0.2	361	362	10.6	91.3
2025-10-03T19:22	10	0	0.1	0	1	361	0.2	361	361	10.6	90.9
2025-10-03T19:23	10	0	0.1	0	1	361	0.2	361	362	10.7	90.5
2025-10-03T19:24	10	0	0.0	0	1	361	0.2	361	362	10.7	90.5
2025-10-03T19:25	10	0	0.1	0	1	361	0.2	361	362	10.7	90.3
2025-10-03T19:26	10	0	0.1	0	1	361	0.2	361	362	10.7	90.2
2025-10-03T19:27	10	0	0.0	0	0	362	0.3	361	362	10.7	90.4
2025-10-03T19:28	10	0	0.0	0	0	361	0.2	361	362	10.7	90.5
2025-10-03T19:29	10	0	0.0	0	0	361	0.2	361	362	10.7	90.5
2025-10-03T19:30	10	0	0.1	0	0	361	0.2	361	361	10.4	87.4
2025-10-03T19:31	10	0	0.0	0	0	361	0.2	360	362	10.7	90.5
2025-10-03T19:32	10	0	0.0	0	0	361	0.2	360	362	10.7	90.5
2025-10-03T19:33	10	0	0.1	0	0	361	0.3	360	361	10.7	90.5
2025-10-03T19:34	10	0	0.1	0	0	361	0.2	360	361	10.7	90.5
2025-10-03T19:35	10	0	0.0	0	0	361	0.2	360	361	10.7	90.5
2025-10-03T19:36	10	0	0.1	0	0	361	0.2	360	361	10.5	90.8
2025-10-03T19:37	10	0	0.1	0	0	361	0.2	361	361	10.5	90.8
2025-10-03T19:38	10	0	0.1	0	0	361	0.2	361	361	10.4	91.6
2025-10-03T19:39	10	0	0.1	0	0	361	0.3	360	361	10.4	92.3
2025-10-03T19:40	10	0	0.0	0	0	360	0.2	360	361	10.3	92.9
2025-10-03T19:41	10	0	0.1	0	0	361	0.2	360	361	10.3	93.4
2025-10-03T19:42	10	0	0.1	0	0	360	0.2	360	361	10.2	93.8
2025-10-03T19:43	10	0	0.1	0	0	360	0.2	360	361	10.1	94.2
2025-10-03T19:44	10	0	0.1	0	0	360	0.2	360	361	10.1	94.3
2025-10-03T19:45	10	0	0.1	0	0	360	0.2	360	361	10.1	94.4
2025-10-03T19:46	10	0	0.0	0	0	360	0.2	360	361	10.1	94.6
2025-10-03T19:47	10	0	0.1	0	0	360	0.2	360	361	10.1	94.8
2025-10-03T19:48	10	0	0.1	0	0	360	0.2	360	361	10.1	95.0
2025-10-03T19:49	10	0	0.1	0	1	360	0.2	360	361	10.1	95.2
2025-10-03T19:50	10	0	0.1	0	0	360	0.2	360	360	10.1	95.2
2025-10-03T19:51	10	0	0.1	0	0	360	0.2	360	361	10.1	95.0
2025-10-03T19:52	10	0	0.1	0	0	360	0.2	360	360	10.1	95.2
2025-10-03T19:53	10	0	0.1	0	0	360	0.2	360	361	10.1	95.2
2025-10-03T19:54	10	0	0.1	0	0	360	0.2	360	361	10.1	95.1
2025-10-03T19:55	10	0	0.0	0	0	360	0.3	360	361	10.1	94.9
2025-10-03T19:56	10	0	0.1	0	0	360	0.2	360	361	10.1	94.8
2025-10-03T19:57	10	0	0.0	0	0	360	0.3	360	361	10.1	94.7
2025-10-03T19:58	10	0	0.1	0	0	360	0.2	360	361	10.1	94.5
2025-10-03T19:59	10	0	0.1	0	0	360	0.3	360	361	10.1	94.6
2025-10-03T20:00	10	0	0.1	0	0	360	0.2	360	361	10.1	94.7
2025-10-03T20:01	10	0	0.1	0	0	360	0.3	360	361	10.1	94.7
2025-10-03T20:02	10	0	0.0	0	0	360	0.3	360	361	10.2	94.7
2025-10-03T20:03	10	0	0.1	0	0	360	0.2	360	361	10.2	94.6
2025-10-03T20:04	10	0	0.0	0	0	361	0.3	360	361	10.2	94.6
2025-10-03T20:05	10	0	0.0	0	0	361	0.2	360	361	10.3	94.1
2025-10-03T20:06	10	0	0.1	0	0	361	0.2	360	361	10.3	93.8
2025-10-03T20:07	10	0	0.0	0	0	361	0.2	360	361	10.4	93.4
2025-10-03T20:08	10	0	0.0	0	0	361	0.2	360	361	10.4	93.4
2025-10-03T20:09	10	0	0.0	0	0	361	0.2	360	362	10.4	93.1
2025-10-03T20:10	10	0	0.0	0	0	361	0.2	361	362	10.4	93.0
2025-10-03T20:11	10	0	0.0	0	0	361	0.2	361	362	10.4	93.0
2025-10-03T20:12	10	0	0.1	0	0	361	0.2	361	362	10.5	92.8
2025-10-03T20:13	10	0	0.0	0	0	361	0.2	361	362	10.5	92.9
2025-10-03T20:14	10	0	0.0	0	0	361	0.2	361	362	10.5	93.0
2025-10-03T20:15	10	0	0.0	0	0	361	0.2	361	362	10.5	93.0
2025-10-03T20:16	10	0	0.1	0	0	361	0.2	361	362	10.5	92.7
2025-10-03T20:17	10	0	0.0	0	0	361	0.2	361	362	10.5	92.4
2025-10-03T20:18	10	0	0.0	0	0	361	0.2	361	362	10.6	92.3
2025-10-03T20:19	10	0	0.1	0	0	361	0.2	361	362	10.6	92.3
2025-10-03T20:20	10	0	0.0	0	0	361	0.3	361	362	10.6	92.3
2025-10-03T20:21	10	0	0.0	0	0	361	0.2	361	362	10.6	92.0
2025-10-03T20:22	10	0	0.1	0	0	361	0.2	361	362	10.6	91.7
2025-10-03T20:23	10	0	0.0	0	0	361	0.2	361	362	10.6	91.6
2025-10-03T20:24	10	0	0.0	0	0	361	0.3	361	362	10.6	91.5
2025-10-03T20:25	10	0	0.1	0	0	361	0.2	361	362	10.7	91.3
2025-10-03T20:26	10	0	0.0	0	0	361	0.2	361	362	10.6	91.7
2025-10-03T20:27	10	0	0.0	0	0	361	0.2	361	362	10.6	91.7
2025-10-03T20:28	10	0	0.1	0	0	361	0.2	361	362	10.6	92.1
2025-10-03T20:29	10	0	0.0	0	0	361	0.2	361	361	10.6	92.3
2025-10-03T20:30	10	0	0.1	0	0	361	0.3	361	362	10.6	92.1
2025-10-03T20:31	10	0	0.1	0	0	361	0.2	360	362	10.6	92.1
2025-10-03T20:32	10	0	0.1	0	0	361	0.2	361	362	10.6	91.7
2025-10-03T20:33	10	0	0.0	0	0	361	0.2	361	362	10.6	91.6
2025-10-03T20:34	10	0	0.1	0	0	361	0.2	361	362	10.6	91.5
2025-10-03T20:35	10	0	0.0	0	0	361	0.2	361	361	10.7	91.2
2025-10-03T20:36	10	0	0.1	0	1	361	0.2	360	361	10.7	91.1
2025-10-03T20:37	10	0	0.0	0	0	361	0.2	360	361	10.7	91.0
2025-10-03T20:38	10	0	0.0	0	0	361	0.3	360	361	10.7	90.9
2025-10-03T20:39	10	0	0.0	0	0	360	0.2	360	361	10.7	90.9
2025-10-03T20:40	10	0	0.0	0	0	360	0.2	359	360	10.7	90.9
2025-10-03T20:41	10	0	0.1	0	0	360	0.2	359	360	10.7	90.9
2025-10-03T20:42	10	0	0.0	0	0	360	0.2	360	361	10.7	90.8
2025-10-03T20:43	10	0	0.0	0	1	360	0.2	360	361	10.7	90.7
2025-10-03T20:44	10	0	0.0	0	0	360	0.2	360	361	10.8	90.6
2025-10-03T20:45	10	0	0.1	0	0	360	0.3	360	361	10.8	90.7
2025-10-03T20:46	10	0	0.0	0	0	361	0.3	360	361	10.7	91.0
2025-10-03T20:47	10	0	0.1	0	0	361	0.3	360	361	10.8	90.6
2025-10-03T20:48	10	0	0.1	0	0	361	0.3	360	362	10.8	90.7
2025-10-03T20:49	10	0	0.0	0	0	361	0.2	361	362	10.8	90.8
2025-10-03T20:50	10	0	0.1	0	0	361	0.3	361	362	10.7	91.2
2025-10-03T20:51	10	0	0.1	0	0	361	0.2	361	362	10.6	91.6
2025-10-03T20:52	10	0	0.1	0	0	361	0.2	361	362	10.6	92.1
2025-10-03T20:53	10	0	0.1	0	0	361	0.2	361	362	10.5	92.3
2025-10-03T20:54	10	0	0.1	0	0	361	0.2	360	362	10.5	92.4
2025-10-03T20:55	10	0	0.1	0	0	361	0.2	360	362	10.4	92.7
2025-10-03T20:56	10	0	0.1	0	0	361	0.2	361	361	10.4	92.9
2025-10-03T20:57	10	0	0.1	0	0	361	0.3	360	362	10.4	93.0
2025-10-03T20:58	10	0	0.1	0	0	361	0.2	360	361	10.4	93.2
2025-10-03T20:59	10	0	0.0	0	0	361	0.3	360	361	10.4	93.5
2025-10-03T21:00	10	0	0.1	0	0	361	0.2	360	361	10.3	93.7
2025-10-03T21:01	10	0	0.1	0	0	361	0.2	360	361	10.3	94.0
2025-10-03T21:02	10	0	0.1	0	0	361	0.2	360	361	10.3	93.9
2025-10-03T21:03	10	0	0.1	0	0	361	0.2	360	361	10.3	93.7
2025-10-03T21:04	10	0	0.1	0	0	361	0.2	360	361	10.3	93.9
2025-10-03T21:05	10	0	0.1	0	0	360	0.2	360	361	10.2	94.5
2025-10-03T21:06	10	0	0.1	0	0	360	0.2	360	361	10.1	95.2
2025-10-03T21:07	10	0	0.0	0	0	360	0.2	359	361	10.1	95.5
2025-10-03T21:08	10	0	0.1	0	0	360	0.2	359	360	10.1	95.6
2025-10-03T21:09	10	0	0.1	0	0	360	0.2	360	361	10.1	95.5
2025-10-03T21:10	10	0	0.1	0	0	360	0.2	359	360	10.1	95.6
2025-10-03T21:11	10	0	0.1	0	0	360	0.2	359	361	10.1	95.9
2025-10-03T21:12	10	0	0.1	0	0	360	0.3	359	361	10.1	95.9
2025-10-03T21:13	10	0	0.1	0	0	360	0.2	359	360	10.1	95.7
2025-10-03T21:14	10	0	0.1	0	0	360	0.2	359	361	10.1	95.8
2025-10-03T21:15	10	0	0.1	0	0	360	0.3	359	360	10.1	96.1
2025-10-03T21:16	10	0	0.1	0	0	360	0.2	359	360	10.1	96.0
2025-10-03T21:17	10	0	0.1	0	0	360	0.3	359	360	10.1	95.2
2025-10-03T21:18	10	0	0.1	0	0	360	0.2	360	360	10.2	94.5
2025-10-03T21:19	10	0	0.1	0	0	360	0.2	359	360	10.3	94.2
2025-10-03T21:20	10	0	0.1	0	0	360	0.2	360	361	10.4	93.8
2025-10-03T21:21	10	0	0.1	0	0	360	0.2	360	361	10.4	93.2
2025-10-03T21:22	10	0	0.1	0	0	360	0.2	360	361	10.5	92.7
2025-10-03T21:23	10	0	0.0	0	0	360	0.2	360	361	10.5	92.4
2025-10-03T21:24	10	0	0.1	0	0	361	0.3	360	361	10.5	92.3
2025-10-03T21:25	10	0	0.1	0	0	361	0.2	360	361	10.5	92.6
2025-10-03T21:26	10	0	0.0	0	0	361	0.2	361	361	10.5	92.7
2025-10-03T21:27	10	0	0.1	0	0	361	0.3	360	362	10.5	92.6
2025-10-03T21:28	10	0	0.1	0	1	361	0.2	360	361	10.6	92.2
2025-10-03T21:29	10	0	0.0	0	0	361	0.2	360	361	10.6	92.3
2025-10-03T21:30	10	0	0.1	0	0	361	0.2	360	361	10.5	92.4
2025-10-03T21:31	10	0	0.1	0	0	361	0.2	361	362	10.5	92.6
2025-10-03T21:32	10	0	0.1	0	0	361	0.3	361	362	10.5	92.7
2025-10-03T21:33	10	0	0.1	0	0	361	0.2	361	362	10.5	92.7
2025-10-03T21:34	10	0	0.1	0	0	361	0.3	361	362	10.5	92.4
2025-10-03T21:35	10	0	0.0	0	0	361	0.2	361	362	10.6	92.4
2025-10-03T21:36	10	0	0.1	0	0	361	0.2	361	362	10.5	92.4
2025-10-03T21:37	10	0	0.1	0	0	361	0.2	361	362	10.6	92.3
2025-10-03T21:38	10	0	0.1	0	0	361	0.3	361	362	10.6	91.8
2025-10-03T21:39	10	0	0.1	0	1	361	0.2	361	362	10.6	91.6
2025-10-03T21:40	10	0	0.0	0	0	362	0.2	361	362	10.7	91.1
2025-10-03T21:41	10	0	0.0	0	1	362	0.2	361	362	10.8	90.4
2025-10-03T21:42	10	0	0.0	0	0	362	0.2	361	362	10.9	89.6
2025-10-03T21:43	10	0	0.0	0	1	361	0.2	361	362	10.9	89.6
2025-10-03T21:44	10	0	0.0	0	0	361	0.2	361	362	10.9	89.6
2025-10-03T21:45	10	0	0.0	0	1	361	0.3	361	362	10.8	90.0
2025-10-03T21:46	10	0	0.1	0	1	361	0.4	360	361	10.8	89.9
2025-10-03T21:47	10	0	0.1	0	0	360	0.2	360	361	10.8	90.3
2025-10-03T21:48	10	0	0.0	0	0	360	0.3	359	360	10.8	90.1
2025-10-03T21:49	10	0	0.0	0	1	359	0.3	358	360	10.8	90.1
2025-10-03T21:50	10	0	0.1	0	1	359	0.3	358	359	10.8	90.1
2025-10-03T21:51	10	0	0.1	0	1	358	0.4	357	359	10.8	90.4
2025-10-03T21:52	10	0	0.1	0	1	357	0.4	357	358	10.7	90.9
2025-10-03T21:53	10	0	0.1	0	1	357	0.3	356	357	10.7	91.2
2025-10-03T21:54	10	0	0.1	0	1	356	0.3	355	357	10.7	91.0
2025-10-03T21:55	10	0	0.1	0	1	355	0.3	355	356	10.7	90.8
2025-10-03T21:56	10	0	0.1	0	1	355	0.2	354	355	10.7	90.8
2025-10-03T21:57	10	0	0.1	0	1	354	0.3	353	355	10.7	90.7
2025-10-03T21:58	10	0	0.1	0	1	354	0.2	353	354	10.7	90.7
2025-10-03T21:59	10	0	0.1	0	1	354	0.2	353	354	10.7	90.6
2025-10-03T22:00	10	0	0.1	0	0	353	0.3	353	354	10.7	90.3
2025-10-03T22:01	10	0	0.1	0	1	353	0.3	353	354	10.7	90.3
2025-10-03T22:02	10	0	0.1	0	1	353	0.3	353	354	10.7	90.1
2025-10-03T22:03	10	0	0.1	0	1	353	0.2	352	353	10.7	90.4
2025-10-03T22:04	10	0	0.1	0	1	352	0.2	352	353	10.6	91.1
2025-10-03T22:05	10	0	0.1	0	1	352	0.2	352	352	10.5	91.5
2025-10-03T22:06	10	0	0.1	0	0	352	0.2	351	352	10.5	91.7
2025-10-03T22:07	10	0	0.1	0	1	352	0.2	352	353	10.5	91.6
2025-10-03T22:08	10	0	0.1	0	1	352	0.2	352	353	10.5	91.7
2025-10-03T22:09	10	0	0.1	0	0	352	0.2	352	353	10.5	91.9
2025-10-03T22:10	10	0	0.1	0	0	352	0.3	352	353	10.5	92.0
2025-10-03T22:11	10	0	0.1	0	0	352	0.2	352	353	10.5	92.2
2025-10-03T22:12	10	0	0.1	0	0	352	0.2	352	353	10.5	92.5
2025-10-03T22:13	10	0	0.1	0	0	352	0.2	352	353	10.4	92.7
2025-10-03T22:14	10	0	0.1	0	0	352	0.2	352	353	10.4	93.1
2025-10-03T22:15	10	0	0.1	0	0	352	0.2	352	353	10.3	93.6
2025-10-03T22:16	10	0	0.1	0	0	352	0.3	352	353	10.2	93.8
2025-10-03T22:17	10	0	0.1	0	0	352	0.2	352	353	10.2	94.2
2025-10-03T22:18	10	0	0.1	0	0	352	0.2	352	353	10.1	94.3
2025-10-03T22:19	10	0	0.1	0	0	353	0.2	352	353	10.1	94.5
2025-10-03T22:20	10	0	0.1	0	0	353	0.3	352	354	10.1	94.7
2025-10-03T22:21	10	0	0.1	0	0	354	0.3	353	354	10.1	94.8
2025-10-03T22:22	10	0	0.1	0	0	354	0.2	353	354	10.1	94.7
2025-10-03T22:23	10	0	0.1	0	0	354	0.2	353	354	10.1	94.5
2025-10-03T22:24	10	0	0.0	0	0	354	0.3	354	355	10.1	94.6
2025-10-03T22:25	10	0	0.1	0	0	355	0.3	354	355	10.1	94.5
2025-10-03T22:26	10	0	0.1	0	0	355	0.3	354	356	10.1	94.5
2025-10-03T22:27	10	0	0.1	0	0	356	0.2	355	356	10.1	94.2
2025-10-03T22:28	10	0	0.1	0	0	356	0.2	355	356	10.1	94.0
2025-10-03T22:29	10	0	0.1	0	0	356	0.2	355	356	10.1	94.0
2025-10-03T22:30	10	0	0.1	0	0	356	0.2	355	356	10.1	94.0
2025-10-03T22:31	10	0	0.1	0	1	356	0.3	355	356	10.1	94.1
2025-10-03T22:32	10	0	0.1	0	0	356	0.2	355	356	10.1	94.2
2025-10-03T22:33	10	0	0.1	0	0	356	0.2	355	356	10.0	94.2
2025-10-03T22:34	10	0	0.1	0	1	355	0.2	355	356	10.0	94.2
2025-10-03T22:35	10	0	0.1	0	0	355	0.3	354	356	10.1	94.2
2025-10-03T22:36	10	0	0.1	0	0	355	0.2	355	355	10.1	94.1
2025-10-03T22:37	10	0	0.1	0	0	355	0.2	355	355	10.1	94.1
2025-10-03T22:38	10	0	0.1	0	0	355	0.3	354	355	10.0	94.1
2025-10-03T22:39	10	0	0.1	0	0	355	0.2	354	355	10.0	94.1
2025-10-03T22:40	10	0	0.1	0	0	355	0.2	355	356	10.0	94.0
2025-10-03T22:41	10	0	0.7	0	5	355	0.3	355	356	10.1	93.6
2025-10-03T22:42	10	0	0.1	0	0	356	0.3	355	356	10.1	92.9
2025-10-03T22:43	10	0	0.1	0	0	355	0.2	355	356	10.1	92.9
2025-10-03T22:44	10	0	0.1	0	1	356	0.2	355	356	10.1	92.9
2025-10-03T22:45	10	0	0.1	0	0	356	0.2	355	356	10.1	92.9
2025-10-03T22:46	10	0	0.1	0	0	356	0.3	355	357	10.1	92.8
2025-10-03T22:47	10	0	0.1	0	0	356	0.2	355	357	10.1	92.7
2025-10-03T22:48	10	0	0.1	0	1	356	0.2	355	357	10.1	92.7
2025-10-03T22:49	10	0	0.1	0	0	356	0.2	356	357	10.1	92.8
2025-10-03T22:50	10	0	0.1	0	1	356	0.2	356	357	10.1	92.8
2025-10-03T22:51	10	0	0.1	0	0	356	0.2	356	357	10.1	92.8
2025-10-03T22:52	10	0	0.1	0	0	357	0.2	356	357	10.1	92.5
2025-10-03T22:53	10	0	0.1	0	0	357	0.2	356	357	10.2	91.8
2025-10-03T22:54	10	0	0.1	0	1	357	0.2	356	357	10.1	91.8
2025-10-03T22:55	10	0	0.1	0	1	357	0.3	357	358	10.1	91.5
2025-10-03T22:56	10	0	0.1	0	1	358	0.3	357	358	10.2	91.3
2025-10-03T22:57	10	0	0.1	0	0	358	0.3	357	358	10.2	91.1
2025-10-03T22:58	10	0	0.1	0	0	359	0.3	358	359	10.2	90.7
2025-10-03T22:59	10	0	0.1	0	0	359	0.2	358	359	10.2	90.7
2025-10-03T23:00	10	0	0.1	0	0	359	0.2	358	359	10.1	91.2
2025-10-03T23:01	10	0	0.1	0	0	359	0.3	359	360	10.1	91.3
2025-10-03T23:02	10	0	0.1	0	1	359	0.2	358	359	10.1	91.2
2025-10-03T23:03	10	0	0.1	0	0	359	0.2	358	359	10.1	91.1
2025-10-03T23:04	10	0	0.1	0	0	359	0.2	359	359	10.1	90.9
2025-10-03T23:05	10	0	0.1	0	1	359	0.2	358	359	10.1	91.0
2025-10-03T23:06	10	0	0.1	0	0	359	0.2	359	360	10.1	91.0
2025-10-03T23:07	10	0	0.1	0	0	359	0.2	359	360	10.1	90.9
2025-10-03T23:08	10	0	0.1	0	0	359	0.2	359	360	10.1	90.7
2025-10-03T23:09	10	0	0.1	0	0	359	0.2	359	360	10.1	90.4
2025-10-03T23:10	10	0	0.1	0	0	359	0.2	359	360	10.1	90.3
2025-10-03T23:11	10	0	0.1	0	0	359	0.2	359	360	10.1	90.3
2025-10-03T23:12	10	0	0.1	0	0	359	0.2	359	360	10.1	90.5
2025-10-03T23:13	10	0	0.1	0	1	359	0.2	359	360	10.1	90.7
2025-10-03T23:14	10	0	0.1	0	0	359	0.2	359	360	10.1	90.7
2025-10-03T23:15	10	0	0.1	0	0	359	0.2	359	360	10.1	90.6
2025-10-03T23:16	10	0	0.1	0	0	360	0.2	359	360	10.1	90.9
2025-10-03T23:17	10	0	0.1	0	1	360	0.2	359	360	10.1	90.8
2025-10-03T23:18	10	0	0.1	0	0	360	0.2	359	360	10.1	90.7
2025-10-03T23:19	10	0	0.1	0	0	360	0.2	359	360	10.1	90.9
2025-10-03T23:20	10	0	0.1	0	0	360	0.2	360	360	10.1	90.8
2025-10-03T23:21	10	0	0.1	0	0	360	0.3	359	360	10.1	90.3
2025-10-03T23:22	10	0	0.1	0	0	360	0.2	360	361	10.1	90.0
2025-10-03T23:23	10	0	0.1	0	0	360	0.2	359	360	10.1	89.9
2025-10-03T23:24	10	0	0.1	0	0	360	0.2	360	361	10.2	89.5
2025-10-03T23:25	10	0	0.1	0	1	360	0.2	360	361	10.2	89.3
2025-10-03T23:26	10	0	0.1	0	0	360	0.2	360	361	10.2	89.1
2025-10-03T23:27	10	0	0.1	0	0	360	0.2	360	361	10.3	88.1
2025-10-03T23:28	10	0	0.1	0	0	361	0.2	360	361	10.4	87.8
2025-10-03T23:29	10	0	0.1	0	1	361	0.2	360	361	10.5	85.9
2025-10-03T23:30	10	0	0.1	0	0	361	0.3	360	361	10.5	85.9
2025-10-03T23:31	10	0	0.0	0	0	361	0.2	360	361	10.6	85.1
2025-10-03T23:32	10	0	0.1	0	0	361	0.2	360	361	10.7	84.1
2025-10-03T23:33	10	0	0.1	0	0	361	0.3	360	362	10.8	83.2
2025-10-03T23:34	10	0	0.1	0	1	361	0.2	360	361	10.8	83.2
2025-10-03T23:35	10	0	0.1	0	0	361	0.3	360	362	10.8	83.7
2025-10-03T23:36	10	0	0.1	0	0	361	0.2	361	362	10.8	83.2
2025-10-03T23:37	10	0	0.0	0	0	361	0.2	361	362	10.8	83.1
2025-10-03T23:38	10	0	0.1	0	0	361	0.2	361	361	10.8	83.7
2025-10-03T23:39	10	0	0.1	0	0	362	0.2	361	362	10.9	82.2
2025-10-03T23:40	10	0	0.1	0	1	361	0.2	361	362	10.9	83.1
2025-10-03T23:41	10	0	0.1	0	1	361	0.3	360	362	10.8	83.4
2025-10-03T23:42	10	0	0.1	0	1	361	0.3	360	362	10.8	83.9
2025-10-03T23:43	10	0	0.1	0	0	361	0.2	361	362	10.7	85.0
2025-10-03T23:44	10	0	0.1	0	1	361	0.3	360	362	10.5	87.4
2025-10-03T23:45	10	0	0.1	0	0	360	0.3	359	361	10.3	90.1
2025-10-03T23:46	10	0	0.1	0	0	360	0.2	360	360	10.0	92.3
2025-10-03T23:47	10	0	0.1	0	0	360	0.3	359	360	9.9	93.8
2025-10-03T23:48	10	0	0.1	0	0	360	0.2	359	360	9.8	94.5
2025-10-03T23:49	10	0	0.1	0	0	360	0.2	359	360	9.7	95.2
2025-10-03T23:50	10	0	0.1	0	0	360	0.3	359	360	9.8	94.4
2025-10-03T23:51	10	0	0.1	0	0	360	0.2	359	360	9.8	94.4
2025-10-03T23:52	10	0	0.1	0	0	360	0.3	359	360	9.8	95.0
2025-10-03T23:53	10	0	0.1	0	0	360	0.2	359	360	9.7	95.2
2025-10-03T23:54	10	0	0.1	0	0	360	0.3	359	360	9.7	95.1
2025-10-03T23:55	10	0	0.1	0	0	360	0.2	360	361	9.8	94.2
2025-10-03T23:56	10	0	0.1	0	0	360	0.2	360	360	9.9	93.8
2025-10-03T23:57	10	0	0.1	0	0	360	0.2	360	361	9.9	93.9
2025-10-03T23:58	10	0	0.1	0	0	361	0.4	360	362	9.9	93.6
2025-10-03T23:59	10	0	0.1	0	0	361	0.3	360	361	10.1	90.5
2025-10-04T00:00	10	0	0.1	0	0	361	0.3	360	361	10.2	90.1
2025-10-04T00:01	10	0	0.1	0	0	361	0.3	360	362	10.3	89.4
2025-10-04T00:02	10	0	0.1	0	0	361	0.2	361	362	10.6	86.0
2025-10-04T00:03	10	0	0.1	0	0	362	0.2	361	362	10.7	85.1
2025-10-04T00:04	10	0	0.1	0	0	362	0.2	362	362	10.8	84.4
2025-10-04T00:05	10	0	0.1	0	1	362	0.2	362	362	10.9	84.3
2025-10-04T00:06	10	0	0.1	0	1	362	0.3	361	363	10.9	84.0
2025-10-04T00:07	10	0	0.1	0	1	362	0.2	362	363	10.9	83.9
2025-10-04T00:08	10	0	0.1	0	1	362	0.2	362	363	10.9	83.9
2025-10-04T00:09	10	0	0.1	0	1	362	0.3	362	363	10.9	83.9
2025-10-04T00:10	10	0	0.1	0	1	363	0.2	362	363	10.9	83.9
2025-10-04T00:11	10	0	0.1	0	1	363	0.2	362	363	11.0	83.5
2025-10-04T00:12	10	0	0.1	0	1	363	0.2	362	363	11.0	83.3
2025-10-04T00:13	10	0	0.1	0	1	363	0.2	362	363	11.0	83.2
2025-10-04T00:14	10	0	0.1	0	1	363	0.2	362	363	11.0	83.7
2025-10-04T00:15	10	0	0.1	0	1	363	0.2	362	363	11.0	83.6
2025-10-04T00:16	10	0	0.1	0	1	363	0.2	362	364	11.0	83.9
2025-10-04T00:17	10	0	0.1	0	1	363	0.2	362	363	11.0	83.6
2025-10-04T00:18	10	1	0.1	1	1	363	0.2	362	363	11.0	83.4
2025-10-04T00:19	10	1	0.1	0	1	363	0.3	362	363	10.9	84.3
2025-10-04T00:20	10	1	0.1	1	1	363	0.2	362	363	10.9	85.1
2025-10-04T00:21	10	1	0.1	1	1	362	0.2	362	363	10.8	85.1
2025-10-04T00:22	10	1	0.1	0	1	362	0.2	362	363	10.8	85.0
2025-10-04T00:23	10	1	0.1	0	1	362	0.2	362	363	10.8	85.2
2025-10-04T00:24	10	1	0.1	0	1	363	0.2	362	363	10.8	85.0
2025-10-04T00:25	10	1	0.1	0	1	363	0.2	362	363	10.8	85.0
2025-10-04T00:26	10	1	0.1	0	1	363	0.3	362	363	10.8	85.4
2025-10-04T00:27	10	1	0.1	0	1	363	0.2	362	363	10.8	85.3
2025-10-04T00:28	10	1	0.1	0	1	363	0.2	362	363	10.8	85.1
2025-10-04T00:29	10	0	0.1	0	0	363	0.2	362	363	10.8	85.1
2025-10-04T00:30	10	0	0.1	0	0	363	0.2	362	363	10.8	85.0
2025-10-04T00:31	10	0	0.1	0	0	362	0.2	362	363	10.8	84.9
2025-10-04T00:32	10	0	0.1	0	0	362	0.2	362	363	10.9	84.7
2025-10-04T00:33	10	0	0.1	0	0	362	0.2	362	363	10.9	84.9
2025-10-04T00:34	10	0	0.1	0	0	362	0.3	362	363	10.9	85.1
2025-10-04T00:35	10	0	0.1	0	0	362	0.2	362	363	10.8	85.5
2025-10-04T00:36	10	0	0.1	0	0	362	0.2	362	362	10.8	86.0
2025-10-04T00:37	10	0	0.1	0	0	362	0.2	362	363	10.8	85.9
2025-10-04T00:38	10	0	0.1	0	0	362	0.3	362	363	10.7	86.0
2025-10-04T00:39	10	0	0.1	0	0	362	0.2	362	362	10.7	86.1
2025-10-04T00:40	10	0	0.1	0	0	362	0.2	361	362	10.7	86.1
2025-10-04T00:41	10	0	0.1	0	0	362	0.2	361	363	10.7	86.5
2025-10-04T00:42	10	0	0.1	0	1	362	0.2	362	362	10.7	86.8
2025-10-04T00:43	10	0	0.1	0	1	362	0.2	362	363	10.7	86.3
2025-10-04T00:44	10	1	0.1	0	1	362	0.2	362	363	10.8	86.0
2025-10-04T00:45	10	1	0.1	0	1	363	0.3	362	364	10.9	84.4
2025-10-04T00:46	10	1	0.1	0	1	363	0.2	363	364	11.2	83.0
2025-10-04T00:47	10	1	0.1	0	1	363	0.3	363	364	11.4	81.4
2025-10-04T00:48	10	1	0.1	1	1	364	0.2	363	364	11.6	80.1
2025-10-04T00:49	10	1	0.0	1	1	364	0.2	363	364	11.7	79.2
2025-10-04T00:50	10	1	0.0	1	1	364	0.2	363	364	11.7	78.8
2025-10-04T00:51	10	1	0.0	1	1	364	0.2	364	364	11.7	78.9
2025-10-04T00:52	10	1	0.0	1	1	364	0.2	364	365	11.7	79.3
2025-10-04T00:53	10	1	0.0	1	1	364	0.2	363	365	11.7	79.6
2025-10-04T00:54	10	1	0.0	1	1	364	0.2	364	365	11.6	80.0
2025-10-04T00:55	10	1	0.0	1	1	364	0.3	364	365	11.6	79.9
2025-10-04T00:56	10	1	0.0	1	1	364	0.2	363	365	11.6	79.5
2025-10-04T00:57	10	1	0.0	1	1	364	0.2	364	365	11.6	80.1
2025-10-04T00:58	10	1	0.0	1	1	364	0.2	364	365	11.6	80.5
2025-10-04T00:59	10	1	0.1	0	1	364	0.2	364	364	11.6	80.8
2025-10-04T01:00	10	1	0.1	0	1	364	0.2	364	365	11.6	80.1
2025-10-04T01:01	10	1	0.1	0	1	364	0.2	363	364	11.6	80.4
2025-10-04T01:02	10	1	0.1	0	1	364	0.2	363	365	11.6	80.8
2025-10-04T01:03	10	1	0.1	0	1	364	0.2	364	364	11.5	80.9
2025-10-04T01:04	10	1	0.1	0	1	364	0.2	364	365	11.5	81.0
2025-10-04T01:05	10	1	0.1	0	1	364	0.2	364	364	11.5	81.4
2025-10-04T01:06	10	1	0.1	0	1	364	0.3	363	365	11.5	81.1
2025-10-04T01:07	10	1	0.1	0	1	364	0.2	364	365	11.6	81.0
2025-10-04T01:08	10	1	0.1	0	1	364	0.2	363	364	11.5	81.3
2025-10-04T01:09	10	1	0.1	0	1	364	0.2	363	365	11.5	81.3
2025-10-04T01:10	10	1	0.1	0	1	364	0.2	363	365	11.5	81.1
2025-10-04T01:11	10	1	0.1	0	1	364	0.2	364	365	11.6	80.5
2025-10-04T01:12	10	1	0.1	0	1	364	0.3	363	365	11.6	80.2
2025-10-04T01:13	10	1	0.1	0	1	364	0.3	364	365	11.7	79.6
2025-10-04T01:14	10	1	0.1	0	1	364	0.3	364	365	11.7	79.8
2025-10-04T01:15	10	1	0.1	0	1	365	0.2	364	365	11.7	79.7
2025-10-04T01:16	10	1	0.0	0	1	365	0.3	364	365	11.8	79.0
2025-10-04T01:17	10	1	0.1	0	1	365	0.3	364	365	11.8	79.2
2025-10-04T01:18	10	1	0.1	0	1	365	0.3	364	365	11.8	78.8
2025-10-04T01:19	10	1	0.0	0	1	365	0.2	364	365	11.9	78.8
2025-10-04T01:20	10	1	0.1	0	1	365	0.2	364	365	11.9	78.5
2025-10-04T01:21	10	1	0.1	0	1	365	0.2	364	365	12.0	78.1
2025-10-04T01:22	10	1	0.1	0	1	365	0.3	364	365	11.9	79.0
2025-10-04T01:23	10	0	0.1	0	1	365	0.2	364	365	11.9	78.8
2025-10-04T01:24	10	1	0.1	0	1	365	0.3	364	366	11.9	78.5
2025-10-04T01:25	10	1	0.1	0	1	365	0.3	364	365	12.0	78.3
2025-10-04T01:26	10	0	0.1	0	1	365	0.2	364	365	11.9	78.5
2025-10-04T01:27	10	0	0.1	0	1	365	0.2	364	365	12.0	78.2
2025-10-04T01:28	10	0	0.1	0	1	365	0.2	364	365	12.0	78.1
2025-10-04T01:29	10	0	0.1	0	1	365	0.2	364	365	11.9	78.5
2025-10-04T01:30	10	0	0.1	0	1	365	0.2	364	365	11.9	78.7
2025-10-04T01:31	10	1	0.1	0	1	365	0.2	364	365	11.8	79.7
2025-10-04T01:32	10	1	0.1	0	1	365	0.2	364	365	11.9	79.3
2025-10-04T01:33	10	1	0.0	0	1	365	0.2	364	365	11.9	79.0
2025-10-04T01:34	10	1	0.1	0	1	365	0.2	365	366	11.9	78.7
2025-10-04T01:35	10	1	0.1	0	1	365	0.2	365	365	11.9	79.2
2025-10-04T01:36	10	1	0.1	0	1	365	0.2	364	365	11.9	78.9
2025-10-04T01:37	10	1	0.1	0	1	365	0.3	364	365	11.9	78.8
2025-10-04T01:38	10	1	0.1	0	1	365	0.2	364	365	11.9	79.0
2025-10-04T01:39	10	1	0.1	0	1	365	0.2	364	365	11.9	78.9
2025-10-04T01:40	10	1	0.0	1	1	365	0.2	364	366	12.0	78.2
2025-10-04T01:41	10	1	0.1	1	1	365	0.2	365	366	11.9	78.8
2025-10-04T01:42	10	1	0.1	0	1	365	0.3	365	366	12.0	77.8
2025-10-04T01:43	10	1	0.0	1	1	365	0.2	365	366	12.0	77.8
2025-10-04T01:44	10	1	0.0	0	1	365	0.2	365	366	12.1	77.5
2025-10-04T01:45	10	1	0.0	1	1	366	0.2	365	366	12.1	77.5
2025-10-04T01:46	10	1	0.1	1	1	365	0.2	365	366	12.1	77.8
2025-10-04T01:47	10	1	0.0	1	1	366	0.2	365	366	12.1	77.3
2025-10-04T01:48	10	1	0.1	1	1	366	0.2	365	366	12.1	77.3
2025-10-04T01:49	10	1	0.0	1	1	366	0.2	366	366	12.2	76.6
2025-10-04T01:50	10	1	0.0	1	1	366	0.2	365	366	12.3	75.7
2025-10-04T01:51	10	1	0.1	0	1	366	0.2	365	366	12.2	76.6
2025-10-04T01:52	10	1	0.1	0	1	366	0.2	365	366	12.2	76.9
2025-10-04T01:53	10	1	0.1	0	1	366	0.2	365	366	12.2	76.4
2025-10-04T01:54	10	1	0.1	0	1	366	0.2	365	367	12.2	76.4
2025-10-04T01:55	10	1	0.1	0	1	366	0.2	365	366	12.3	76.3
2025-10-04T01:56	10	1	0.1	0	1	366	0.2	365	366	12.3	76.3
2025-10-04T01:57	10	1	0.1	0	1	366	0.2	366	367	12.3	75.6
2025-10-04T01:58	10	1	0.1	0	1	366	0.2	366	367	12.3	75.9
2025-10-04T01:59	10	1	0.1	0	1	366	0.2	366	367	12.3	76.0
2025-10-04T02:00	10	1	0.1	0	1	366	0.2	366	367	12.2	77.0
2025-10-04T02:01	10	1	0.0	1	1	366	0.2	366	367	12.2	77.0
2025-10-04T02:02	10	1	0.1	0	1	366	0.2	366	366	12.2	77.2
2025-10-04T02:03	10	1	0.1	0	1	366	0.2	366	367	12.2	77.3
2025-10-04T02:04	10	1	0.1	0	1	366	0.3	365	367	12.2	76.7
2025-10-04T02:05	10	1	0.1	0	1	366	0.2	366	367	12.2	76.8
2025-10-04T02:06	10	1	0.1	0	1	366	0.2	366	367	12.3	76.6
2025-10-04T02:07	10	1	0.1	0	1	366	0.3	366	367	12.3	76.2
2025-10-04T02:08	10	1	0.1	0	1	366	0.1	366	366	12.3	76.6
2025-10-04T02:09	10	1	0.1	0	1	366	0.2	366	367	12.2	77.0
2025-10-04T02:10	10	1	0.1	0	1	366	0.2	366	367	12.2	77.2
2025-10-04T02:11	10	1	0.1	0	1	366	0.3	366	367	12.2	76.7
2025-10-04T02:12	10	1	0.1	0	1	366	0.2	366	367	12.3	76.3
2025-10-04T02:13	10	0	0.1	0	1	366	0.3	366	367	12.3	76.4
2025-10-04T02:14	10	1	0.1	0	1	366	0.2	366	367	12.2	76.9
2025-10-04T02:15	10	1	0.1	0	1	366	0.2	366	367	12.3	76.4
2025-10-04T02:16	10	1	0.1	0	1	366	0.2	366	367	12.3	75.8
2025-10-04T02:17	10	1	0.1	0	1	367	0.2	366	367	12.4	74.9
2025-10-04T02:18	10	1	0.1	0	1	367	0.2	366	367	12.4	75.3
2025-10-04T02:19	10	1	0.1	0	1	367	0.3	367	368	12.4	75.0
2025-10-04T02:20	10	1	0.2	0	1	367	0.2	366	368	12.4	75.0
2025-10-04T02:21	10	1	0.1	0	1	367	0.3	366	368	12.4	75.5
2025-10-04T02:22	10	1	0.1	0	1	367	0.3	366	368	12.4	75.3
2025-10-04T02:23	10	1	0.1	0	1	367	0.2	366	368	12.4	74.7
2025-10-04T02:24	10	1	0.1	0	1	367	0.2	366	368	12.5	74.5
2025-10-04T02:25	10	1	0.1	0	1	367	0.2	366	368	12.4	74.8
2025-10-04T02:26	10	1	0.1	0	1	367	0.3	366	368	12.4	74.8
2025-10-04T02:27	10	1	0.1	0	1	367	0.4	366	368	12.4	74.4
2025-10-04T02:28	10	1	0.1	0	1	367	0.3	366	368	12.4	74.4
2025-10-04T02:29	10	1	0.1	0	1	367	0.3	366	368	12.4	74.7
2025-10-04T02:30	10	1	0.1	0	1	367	0.3	366	368	12.4	75.2
2025-10-04T02:31	10	1	0.1	0	1	367	0.2	366	367	12.4	75.2
2025-10-04T02:32	10	1	0.1	0	1	367	0.2	366	368	12.3	75.8
2025-10-04T02:33	10	1	0.1	0	1	367	0.2	367	368	12.4	75.0
2025-10-04T02:34	10	1	0.1	0	1	367	0.3	366	368	12.3	75.7
2025-10-04T02:35	10	1	0.1	0	1	367	0.2	367	368	12.4	74.9
2025-10-04T02:36	10	1	0.2	0	2	367	0.2	367	368	12.4	74.5
2025-10-04T02:37	10	1	0.1	0	1	367	0.3	367	368	12.4	74.5
2025-10-04T02:38	10	1	0.1	0	1	367	0.2	366	368	12.4	74.4
2025-10-04T02:39	10	1	0.1	0	1	367	0.2	367	368	12.5	73.9
2025-10-04T02:40	10	1	0.1	0	1	367	0.2	367	368	12.5	73.4
2025-10-04T02:41	10	1	0.1	0	1	367	0.2	367	368	12.6	73.5
2025-10-04T02:42	10	1	0.1	0	1	367	0.2	367	368	12.5	74.3
2025-10-04T02:43	10	1	0.1	0	1	367	0.2	367	368	12.5	74.2
2025-10-04T02:44	10	1	0.1	0	1	367	0.2	367	367	12.4	74.6
2025-10-04T02:45	10	1	0.1	0	1	367	0.2	367	368	12.4	75.1
2025-10-04T02:46	10	0	0.1	0	1	367	0.2	367	368	12.4	74.7
2025-10-04T02:47	10	0	0.1	0	1	367	0.2	367	368	12.4	75.1
2025-10-04T02:48	10	1	0.1	0	1	367	0.2	366	367	12.4	75.0
2025-10-04T02:49	10	0	0.1	0	1	367	0.3	366	367	12.4	75.3
2025-10-04T02:50	10	0	0.1	0	1	367	0.2	366	367	12.3	75.9
2025-10-04T02:51	10	1	0.1	0	1	367	0.2	366	368	12.3	76.7
2025-10-04T02:52	10	0	0.1	0	1	367	0.2	366	368	12.2	77.1
2025-10-04T02:53	10	0	0.1	0	1	367	0.2	366	367	12.2	77.2
2025-10-04T02:54	10	1	0.1	0	1	367	0.2	366	367	12.2	77.3
2025-10-04T02:55	10	0	0.1	0	1	367	0.2	366	367	12.1	77.3
2025-10-04T02:56	10	1	0.1	0	1	367	0.2	366	367	12.2	76.9
2025-10-04T02:57	10	1	0.1	0	1	367	0.3	366	368	12.2	77.2
2025-10-04T02:58	10	0	0.1	0	1	367	0.2	367	367	12.2	76.9
2025-10-04T02:59	10	1	0.1	0	1	367	0.2	366	367	12.2	76.6
2025-10-04T03:00	10	1	0.1	0	1	367	0.2	367	368	12.2	77.2
2025-10-04T03:01	10	1	0.1	0	1	367	0.3	366	368	12.1	77.2
2025-10-04T03:02	10	1	0.1	0	1	367	0.2	366	368	12.2	75.9
2025-10-04T03:03	10	1	0.1	0	1	367	0.3	366	368	12.3	76.0
2025-10-04T03:04	10	1	0.1	0	1	367	0.2	367	367	12.3	75.9
2025-10-04T03:05	10	1	0.1	0	1	367	0.3	367	368	12.4	74.4
2025-10-04T03:06	10	1	0.1	0	1	367	0.2	367	368	12.3	75.1
2025-10-04T03:07	10	1	0.1	0	1	367	0.2	367	368	12.3	74.7
2025-10-04T03:08	10	1	0.1	0	1	367	0.2	367	368	12.3	74.9
2025-10-04T03:09	10	1	0.1	0	1	367	0.3	366	368	12.3	75.3
2025-10-04T03:10	10	1	0.1	0	1	367	0.3	367	368	12.3	75.0
2025-10-04T03:11	10	1	0.1	0	1	367	0.2	367	368	12.3	75.0
2025-10-04T03:12	10	1	0.1	0	1	367	0.2	367	368	12.4	74.4
2025-10-04T03:13	10	1	0.1	0	1	367	0.3	366	368	12.4	74.5
2025-10-04T03:14	10	1	0.0	1	1	367	0.2	367	367	12.3	75.0
2025-10-04T03:15	10	1	0.1	0	1	367	0.2	366	367	12.3	74.8
2025-10-04T03:16	10	1	0.1	0	1	367	0.2	366	367	12.3	74.8
2025-10-04T03:17	10	1	0.1	0	1	367	0.2	367	368	12.3	74.9
2025-10-04T03:18	10	1	0.1	0	1	367	0.2	366	367	12.3	74.5
2025-10-04T03:19	10	1	0.1	0	1	367	0.2	367	367	12.3	74.6
2025-10-04T03:20	10	1	0.1	0	1	367	0.2	367	367	12.3	74.7
2025-10-04T03:21	10	1	0.1	0	1	367	0.3	366	367	12.3	75.2
2025-10-04T03:22	10	1	0.1	0	1	367	0.2	366	367	12.3	75.4
2025-10-04T03:23	10	1	0.1	0	1	367	0.2	367	368	12.3	75.0
2025-10-04T03:24	10	1	0.1	0	1	367	0.2	367	368	12.3	75.0
2025-10-04T03:25	10	1	0.1	0	1	367	0.2	367	368	12.3	75.1
2025-10-04T03:26	10	1	0.1	0	1	367	0.2	366	367	12.3	75.5
2025-10-04T03:27	10	1	0.1	0	1	367	0.2	367	368	12.4	73.9
2025-10-04T03:28	10	1	0.0	0	1	367	0.2	367	368	12.3	75.1
2025-10-04T03:29	10	1	0.1	0	1	367	0.2	366	367	12.3	74.7
2025-10-04T03:30	10	1	0.1	0	1	367	0.2	367	368	12.3	75.0
2025-10-04T03:31	10	1	0.1	0	1	367	0.2	367	368	12.3	75.4
2025-10-04T03:32	10	0	0.1	0	1	367	0.3	366	368	12.3	75.4
2025-10-04T03:33	10	1	0.1	0	1	367	0.2	366	367	12.2	76.0
2025-10-04T03:34	10	1	0.1	0	1	367	0.2	366	367	12.2	75.6
2025-10-04T03:35	10	1	0.1	0	1	367	0.2	366	367	12.2	75.9
2025-10-04T03:36	10	1	0.1	0	1	367	0.3	366	368	12.2	75.6
2025-10-04T03:37	10	1	0.1	0	1	367	0.2	367	367	12.3	74.5
2025-10-04T03:38	10	1	0.0	0	1	367	0.2	367	367	12.3	74.6
2025-10-04T03:39	10	1	0.1	0	1	367	0.3	366	367	12.3	74.9
2025-10-04T03:40	10	1	0.1	0	1	367	0.3	366	368	12.4	74.2
2025-10-04T03:41	10	1	0.1	0	1	367	0.3	366	367	12.3	74.9
2025-10-04T03:42	10	1	0.1	0	1	367	0.2	367	368	12.3	74.7
2025-10-04T03:43	10	1	0.1	0	1	367	0.2	366	368	12.3	74.3
2025-10-04T03:44	10	1	0.1	0	1	367	0.2	366	368	12.4	74.4
2025-10-04T03:45	10	1	0.1	0	1	367	0.2	367	368	12.4	74.2
2025-10-04T03:46	10	1	0.1	0	1	367	0.2	367	368	12.3	74.8
2025-10-04T03:47	10	1	0.1	0	1	367	0.3	367	368	12.3	74.6
2025-10-04T03:48	10	1	0.1	0	1	367	0.2	367	368	12.4	73.9
2025-10-04T03:49	10	1	0.1	0	1	367	0.2	367	368	12.4	73.8
2025-10-04T03:50	10	1	0.0	0	1	367	0.2	367	368	12.4	73.2
2025-10-04T03:51	10	1	0.1	0	1	367	0.2	367	368	12.4	72.8
2025-10-04T03:52	10	1	0.1	0	1	367	0.2	367	368	12.5	72.5
2025-10-04T03:53	10	1	0.1	0	1	367	0.2	367	368	12.5	71.9
2025-10-04T03:54	10	1	0.0	0	1	367	0.2	367	368	12.5	71.8
2025-10-04T03:55	10	1	0.1	0	1	367	0.2	367	368	12.6	71.1
2025-10-04T03:56	10	1	0.1	0	1	367	0.3	367	368	12.5	72.3
2025-10-04T03:57	10	1	0.1	0	1	367	0.2	367	368	12.6	71.2
2025-10-04T03:58	10	1	0.1	1	1	367	0.2	367	368	12.7	70.1
2025-10-04T03:59	10	1	0.1	0	1	367	0.2	367	367	12.6	71.0
2025-10-04T04:00	10	1	0.0	1	1	367	0.2	366	367	12.6	71.0
2025-10-04T04:01	10	1	0.0	1	1	367	0.2	366	367	12.6	69.9
2025-10-04T04:02	10	1	0.0	0	1	367	0.3	366	368	12.7	69.6
2025-10-04T04:03	10	1	0.0	1	1	367	0.2	366	368	12.7	69.9
2025-10-04T04:04	10	1	0.1	0	1	367	0.3	367	368	12.6	70.3
2025-10-04T04:05	10	1	0.0	0	1	367	0.3	367	368	12.7	69.4
2025-10-04T04:06	10	1	0.1	0	1	368	0.3	367	368	12.8	69.0
2025-10-04T04:07	10	1	0.0	0	1	367	0.2	367	368	12.7	69.9
2025-10-04T04:08	10	1	0.0	0	1	368	0.2	367	368	12.7	69.8
2025-10-04T04:09	10	1	0.0	0	1	368	0.2	367	368	12.7	69.8
2025-10-04T04:10	10	1	0.1	0	1	368	0.2	367	368	12.7	69.3
2025-10-04T04:11	10	1	0.1	0	1	368	0.2	367	368	12.7	69.3
2025-10-04T04:12	10	1	0.1	0	1	368	0.2	367	368	12.7	69.7
2025-10-04T04:13	10	1	0.1	0	1	368	0.3	367	369	12.7	69.8
2025-10-04T04:14	10	1	0.1	0	1	368	0.2	367	368	12.7	69.7
2025-10-04T04:15	10	0	0.1	0	1	368	0.3	367	368	12.7	69.7
2025-10-04T04:16	10	1	0.0	0	1	368	0.2	367	368	12.7	69.8
2025-10-04T04:17	10	1	0.1	0	1	368	0.2	367	368	12.7	70.0
2025-10-04T04:18	10	0	0.1	0	1	368	0.2	367	368	12.7	69.6
2025-10-04T04:19	10	1	0.1	0	1	368	0.2	367	368	12.7	70.1
2025-10-04T04:20	10	0	0.1	0	1	368	0.2	367	368	12.7	69.7
2025-10-04T04:21	10	0	0.1	0	1	368	0.3	367	369	12.7	69.8
2025-10-04T04:22	10	0	0.1	0	1	368	0.2	368	368	12.7	70.1
2025-10-04T04:23	10	0	0.1	0	1	368	0.2	368	368	12.8	69.4
2025-10-04T04:24	10	0	0.1	0	1	368	0.2	367	369	12.8	69.9
2025-10-04T04:25	10	0	0.1	0	1	368	0.2	368	369	12.7	69.9
2025-10-04T04:26	10	0	0.1	0	1	368	0.2	368	369	12.7	70.0
2025-10-04T04:27	10	0	0.1	0	1	368	0.2	367	368	12.7	70.3
2025-10-04T04:28	10	0	0.1	0	1	368	0.2	368	369	12.7	70.2
2025-10-04T04:29	10	0	0.1	0	1	368	0.2	368	369	12.7	70.5
2025-10-04T04:30	10	0	0.1	0	1	368	0.2	367	368	12.7	70.9
2025-10-04T04:31	10	0	0.1	0	1	368	0.2	368	369	12.7	70.5
2025-10-04T04:32	10	0	0.1	0	1	368	0.2	368	369	12.7	70.9
2025-10-04T04:33	10	0	0.1	0	1	368	0.3	367	368	12.7	71.1
2025-10-04T04:34	10	0	0.1	0	1	368	0.3	368	369	12.7	71.0
2025-10-04T04:35	10	0	0.1	0	1	368	0.2	368	369	12.7	70.9
2025-10-04T04:36	10	1	0.1	0	1	368	0.2	368	369	12.8	70.7
2025-10-04T04:37	10	0	0.1	0	1	368	0.2	368	369	12.8	70.1
2025-10-04T04:38	10	0	0.1	0	1	368	0.2	368	369	12.8	70.5
2025-10-04T04:39	10	1	0.0	0	1	368	0.2	368	368	12.7	71.2
2025-10-04T04:40	10	1	0.1	0	1	368	0.2	368	369	12.7	71.0
2025-10-04T04:41	10	1	0.1	0	1	368	0.2	368	368	12.7	71.3
2025-10-04T04:42	10	1	0.1	0	1	368	0.2	368	369	12.7	70.6
2025-10-04T04:43	10	1	0.1	0	1	368	0.2	368	369	12.7	70.6
2025-10-04T04:44	10	1	0.1	0	1	368	0.2	368	369	12.8	69.4
2025-10-04T04:45	10	1	0.1	0	1	368	0.2	368	369	12.8	69.7
2025-10-04T04:46	10	1	0.1	0	1	368	0.3	368	369	12.8	69.8
2025-10-04T04:47	10	1	0.1	0	1	368	0.3	368	369	12.8	70.2
2025-10-04T04:48	10	1	0.1	0	1	368	0.2	368	369	12.8	69.7
2025-10-04T04:49	10	1	0.1	0	1	368	0.2	368	369	12.8	70.1
2025-10-04T04:50	10	1	0.1	0	1	368	0.2	368	369	12.7	70.2
2025-10-04T04:51	10	1	0.1	0	1	368	0.3	368	369	12.7	70.5
2025-10-04T04:52	10	1	0.1	0	1	368	0.2	368	369	12.8	69.8
2025-10-04T04:53	10	1	0.1	0	1	369	0.3	368	369	12.8	69.4
2025-10-04T04:54	10	1	0.1	0	1	368	0.3	368	369	12.7	70.2
2025-10-04T04:55	10	1	0.1	0	1	368	0.2	368	369	12.8	69.6
2025-10-04T04:56	10	1	0.1	0	1	368	0.3	368	369	12.7	70.1
2025-10-04T04:57	10	1	0.0	0	1	369	0.2	368	369	12.8	69.1
2025-10-04T04:58	10	1	0.0	0	1	369	0.2	368	369	12.8	70.0
2025-10-04T04:59	10	1	0.1	0	1	369	0.2	368	369	12.7	69.7
2025-10-04T05:00	10	1	0.1	0	1	369	0.3	368	369	12.7	69.8
2025-10-04T05:01	10	1	0.1	0	1	369	0.2	368	369	12.7	69.9
2025-10-04T05:02	10	1	0.1	0	1	368	0.2	368	369	12.7	70.7
2025-10-04T05:03	10	1	0.1	0	1	368	0.3	368	369	12.6	70.6
2025-10-04T05:04	10	0	0.1	0	1	368	0.3	368	369	12.7	70.1
2025-10-04T05:05	10	1	0.1	0	1	368	0.2	368	369	12.7	70.3
2025-10-04T05:06	10	1	0.1	0	1	368	0.2	368	369	12.7	70.7
2025-10-04T05:07	10	1	0.1	0	1	368	0.2	368	369	12.6	70.7
2025-10-04T05:08	10	1	0.1	0	1	368	0.2	368	369	12.7	69.8
2025-10-04T05:09	10	1	0.1	0	1	368	0.2	368	369	12.7	70.3
2025-10-04T05:10	10	1	0.1	0	1	368	0.2	368	369	12.7	69.2
2025-10-04T05:11	10	1	0.1	0	1	368	0.3	368	369	12.7	69.3
2025-10-04T05:12	10	1	0.1	0	1	368	0.2	368	369	12.7	69.1
2025-10-04T05:13	10	1	0.0	0	1	368	0.3	368	369	12.7	68.7
2025-10-04T05:14	10	1	0.1	0	1	368	0.3	368	369	12.8	68.3
2025-10-04T05:15	10	1	0.1	0	1	368	0.2	368	369	12.7	68.6
2025-10-04T05:16	10	1	0.0	0	1	368	0.2	368	369	12.8	68.3
2025-10-04T05:17	10	1	0.1	0	1	368	0.2	368	369	12.8	68.0
2025-10-04T05:18	10	1	0.1	0	1	368	0.2	368	368	12.8	68.3
2025-10-04T05:19	10	1	0.0	1	1	368	0.2	367	369	12.7	69.3
2025-10-04T05:20	10	1	0.0	1	1	368	0.3	367	368	12.7	69.2
2025-10-04T05:21	10	1	0.0	1	1	367	0.3	367	368	12.7	68.9
2025-10-04T05:22	10	1	0.0	1	1	367	0.2	367	368	12.7	69.2
2025-10-04T05:23	10	1	0.0	1	1	367	0.2	366	367	12.7	68.9
2025-10-04T05:24	10	1	0.0	1	1	367	0.3	366	367	12.7	69.1
2025-10-04T05:25	10	1	0.0	1	1	367	0.3	366	367	12.6	69.3
2025-10-04T05:26	10	1	0.0	1	1	367	0.2	366	367	12.7	68.3
2025-10-04T05:27	10	1	0.0	1	1	367	0.2	367	368	12.7	68.2
2025-10-04T05:28	10	1	0.1	1	1	368	0.2	367	368	12.7	67.7
2025-10-04T05:29	10	1	0.1	1	1	368	0.2	367	368	12.8	67.0
2025-10-04T05:30	10	1	0.1	1	1	367	0.2	367	368	12.8	67.5
2025-10-04T05:31	10	1	0.1	1	1	368	0.2	367	368	12.7	68.0
2025-10-04T05:32	10	1	0.1	1	1	368	0.3	367	368	12.7	67.9
2025-10-04T05:33	10	1	0.1	1	1	368	0.2	367	368	12.8	67.5
2025-10-04T05:34	10	1	0.1	1	1	368	0.3	367	368	12.8	67.3
2025-10-04T05:35	10	1	0.1	1	1	368	0.3	367	369	12.8	66.9
2025-10-04T05:36	10	1	0.1	1	1	368	0.2	368	369	12.8	67.4
2025-10-04T05:37	10	1	0.1	1	1	368	0.2	368	369	12.8	66.9
2025-10-04T05:38	10	1	0.1	1	1	368	0.2	368	368	12.8	68.0
2025-10-04T05:39	10	1	0.1	1	1	368	0.2	367	368	12.7	68.1
2025-10-04T05:40	10	1	0.1	1	1	368	0.2	367	368	12.7	68.4
2025-10-04T05:41	10	1	0.1	1	2	367	0.2	367	368	12.7	68.6
2025-10-04T05:42	10	2	0.1	1	2	367	0.3	366	368	12.6	68.4
2025-10-04T05:43	10	2	0.1	2	2	367	0.2	366	367	12.6	68.5
2025-10-04T05:44	10	2	0.1	2	2	367	0.2	366	367	12.6	68.3
2025-10-04T05:45	10	2	0.1	2	2	367	0.2	367	368	12.6	68.2
2025-10-04T05:46	10	2	0.1	2	2	367	0.3	366	368	12.6	68.2
2025-10-04T05:47	10	2	0.1	2	2	366	0.3	366	367	12.6	67.8
2025-10-04T05:48	10	2	0.1	2	2	366	0.3	366	367	12.6	68.0
2025-10-04T05:49	10	2	0.1	1	2	366	0.2	366	366	12.6	67.7
2025-10-04T05:50	10	2	0.1	1	2	366	0.2	365	367	12.6	67.4
2025-10-04T05:51	10	2	0.1	1	2	366	0.3	365	366	12.7	67.2
2025-10-04T05:52	10	2	0.1	2	2	366	0.3	365	367	12.7	66.9
2025-10-04T05:53	10	2	0.1	2	2	366	0.3	366	367	12.7	66.9
2025-10-04T05:54	10	2	0.1	2	2	366	0.3	366	367	12.7	66.4
2025-10-04T05:55	10	2	0.1	2	2	366	0.3	366	367	12.8	64.9
2025-10-04T05:56	10	2	0.1	2	3	366	0.2	366	367	12.9	64.2
2025-10-04T05:57	10	3	0.1	3	3	366	0.2	366	367	12.9	64.2
2025-10-04T05:58	10	3	0.2	3	3	366	0.2	366	367	12.9	64.1
2025-10-04T05:59	10	3	0.1	3	4	367	0.2	366	367	12.9	64.3
2025-10-04T06:00	10	4	0.1	4	4	367	0.3	367	368	12.9	64.5
2025-10-04T06:01	10	4	0.1	4	4	368	0.3	367	368	12.9	64.5
2025-10-04T06:02	10	4	0.1	4	5	368	0.2	368	368	12.9	64.3
2025-10-04T06:03	10	5	0.2	5	6	368	0.3	368	369	12.9	64.0
2025-10-04T06:04	10	6	0.2	6	6	369	0.3	368	369	12.9	64.1
2025-10-04T06:05	10	6	0.1	6	6	369	0.2	368	369	12.9	64.6
2025-10-04T06:06	10	6	0.1	6	6	369	0.3	368	369	12.9	64.6
2025-10-04T06:07	10	6	0.1	6	6	369	0.3	369	370	12.9	64.6
2025-10-04T06:08	10	5	0.1	5	6	369	0.2	369	370	12.9	64.8
2025-10-04T06:09	10	5	0.1	5	5	369	0.2	369	370	12.9	64.4
2025-10-04T06:10	10	5	0.1	5	5	370	0.2	369	370	13.0	63.9
2025-10-04T06:11	10	5	0.1	5	5	369	0.3	369	370	13.0	63.7
2025-10-04T06:12	10	5	0.1	5	5	369	0.2	369	370	13.0	64.1
2025-10-04T06:13	10	5	0.1	5	6	370	0.2	369	370	13.0	64.2
2025-10-04T06:14	10	5	0.2	5	6	370	0.2	369	370	13.1	63.5
2025-10-04T06:15	10	5	0.1	5	5	370	0.2	369	370	13.2	62.3
2025-10-04T06:16	10	5	0.1	5	5	370	0.2	370	371	13.2	62.8
2025-10-04T06:17	10	5	0.1	5	5	370	0.3	370	371	13.2	62.5
2025-10-04T06:18	10	5	0.1	4	5	370	0.3	370	371	13.3	61.7
2025-10-04T06:19	10	6	1.9	4	11	370	0.3	369	371	13.2	62.6
2025-10-04T06:20	10	16	2.5	11	18	371	0.5	370	372	13.3	61.4
2025-10-04T06:21	10	12	4.0	6	18	371	0.4	370	372	13.4	61.3
2025-10-04T06:22	10	5	0.2	5	5	371	0.4	370	372	13.4	61.5
2025-10-04T06:23	10	5	0.1	5	5	371	0.2	370	371	13.4	61.1
2025-10-04T06:24	10	5	1.4	5	9	371	0.3	370	371	13.4	61.1
2025-10-04T06:25	10	12	0.8	10	13	371	0.3	370	372	13.3	61.8
2025-10-04T06:26	10	11	1.6	9	14	371	0.2	370	371	13.4	61.2
2025-10-04T06:27	10	11	2.7	6	14	371	0.3	370	372	13.4	61.1
2025-10-04T06:28	10	8	1.6	5	10	371	0.2	370	371	13.4	61.6
2025-10-04T06:29	10	7	1.7	5	10	371	0.3	370	372	13.4	61.5
2025-10-04T06:30	10	5	0.4	4	6	370	0.3	370	371	13.3	61.9
2025-10-04T06:31	10	4	0.1	4	5	371	0.3	370	371	13.3	62.3
2025-10-04T06:32	10	4	0.1	4	5	370	0.3	370	371	13.3	62.3
2025-10-04T06:33	10	4	0.1	4	4	370	0.2	370	371	13.3	62.6
2025-10-04T06:34	10	4	0.1	4	4	371	0.2	370	371	13.3	62.5
2025-10-04T06:35	10	4	0.1	4	5	371	0.2	370	371	13.3	62.6
2025-10-04T06:36	10	5	0.3	5	6	371	0.2	370	371	13.3	62.2
2025-10-04T06:37	10	7	0.6	6	8	371	0.2	371	372	13.3	62.5
2025-10-04T06:38	10	9	0.6	8	10	371	0.3	371	372	13.3	62.9
2025-10-04T06:39	10	10	0.3	10	11	371	0.3	371	372	13.3	63.1
2025-10-04T06:40	10	12	0.8	11	13	372	0.2	371	372	13.4	61.8
2025-10-04T06:41	10	13	0.7	11	13	372	0.2	372	373	13.4	62.3
2025-10-04T06:42	10	10	0.6	9	11	372	0.2	372	373	13.4	62.2
2025-10-04T06:43	10	9	0.2	9	10	372	0.2	371	372	13.4	61.6
2025-10-04T06:44	10	11	0.7	10	12	372	0.2	371	372	13.5	60.9
2025-10-04T06:45	10	13	0.5	12	14	372	0.3	371	373	13.4	61.3
2025-10-04T06:46	10	14	0.2	14	14	373	0.3	372	373	13.5	61.1
2025-10-04T06:47	10	14	0.2	13	14	373	0.2	372	373	13.5	61.1
2025-10-04T06:48	10	18	2.3	13	21	373	0.3	372	373	13.5	60.8
2025-10-04T06:49	10	16	0.3	15	17	373	0.2	373	374	13.6	60.5
2025-10-04T06:50	10	17	0.7	16	19	373	0.2	373	374	13.5	60.8
2025-10-04T06:51	10	20	0.9	18	22	374	0.3	373	375	13.5	60.9
2025-10-04T06:52	10	22	0.3	21	22	374	0.2	374	375	13.6	60.9
2025-10-04T06:53	10	21	0.2	20	21	374	0.2	374	375	13.6	60.3
2025-10-04T06:54	10	19	0.6	18	20	374	0.2	374	375	13.7	59.2
2025-10-04T06:55	10	19	0.7	18	20	374	0.3	373	375	13.7	60.0
2025-10-04T06:56	10	21	0.6	20	22	375	0.3	374	375	13.7	60.0
2025-10-04T06:57	10	23	0.6	22	24	375	0.2	374	375	13.7	59.8
2025-10-04T06:58	10	24	0.1	24	24	375	0.3	374	376	13.8	59.3
2025-10-04T06:59	10	23	0.4	22	24	375	0.2	375	376	13.7	59.9
2025-10-04T07:00	10	21	1.1	19	23	375	0.3	375	376	13.7	60.2
2025-10-04T07:01	10	17	1.2	15	19	375	0.3	374	376	13.8	59.7
2025-10-04T07:02	10	14	0.5	13	15	374	0.3	374	375	13.8	59.4
2025-10-04T07:03	10	13	0.2	13	14	374	0.3	374	375	13.8	60.1
2025-10-04T07:04	10	15	0.6	14	16	374	0.2	374	375	13.8	60.0
2025-10-04T07:05	10	17	0.4	16	17	375	0.3	374	375	13.8	59.9
2025-10-04T07:06	10	18	0.4	17	19	375	0.3	374	375	13.8	59.8
2025-10-04T07:07	10	19	0.5	19	20	375	0.3	375	376	13.8	59.9
2025-10-04T07:08	10	20	0.2	20	20	376	0.2	375	376	13.9	58.5
2025-10-04T07:09	10	20	0.4	20	21	376	0.2	375	376	13.9	59.0
2025-10-04T07:10	10	22	0.3	21	22	375	0.3	375	376	13.9	58.8
2025-10-04T07:11	10	23	1.1	22	25	376	0.3	375	376	13.9	60.0
2025-10-04T07:12	10	26	1.5	24	30	376	0.2	376	377	14.0	58.8
2025-10-04T07:13	10	44	16.5	27	78	378	1.0	376	380	14.1	58.3
2025-10-04T07:14	10	28	0.4	27	29	377	0.3	377	378	14.1	58.0
2025-10-04T07:15	10	28	0.1	28	28	377	0.3	377	378	14.1	58.4
2025-10-04T07:16	10	28	0.2	28	28	378	0.3	378	379	14.1	59.2
2025-10-04T07:17	10	27	0.3	27	28	378	0.3	377	379	14.0	59.8
2025-10-04T07:18	10	27	0.3	26	27	378	0.2	378	378	14.0	59.3
2025-10-04T07:19	10	27	0.2	26	27	378	0.3	377	379	14.0	59.3
2025-10-04T07:20	10	27	0.1	27	28	378	0.3	377	379	14.1	59.4
2025-10-04T07:21	10	25	1.5	23	28	378	0.3	377	379	14.1	59.1
2025-10-04T07:22	10	22	0.8	22	25	377	0.4	377	378	14.3	58.2
2025-10-04T07:23	10	20	0.6	19	22	377	0.4	376	378	14.3	58.5
2025-10-04T07:24	10	18	0.5	18	19	377	0.3	376	377	14.3	57.9
2025-10-04T07:25	10	16	1.0	15	18	376	0.3	375	377	14.4	57.7
2025-10-04T07:26	10	15	0.2	15	15	375	0.3	375	376	14.4	57.9
2025-10-04T07:27	10	16	0.3	15	16	375	0.3	374	376	14.4	57.3
2025-10-04T07:28	10	18	1.4	16	21	375	0.2	375	376	14.4	57.3
2025-10-04T07:29	10	24	3.7	20	33	375	0.3	375	376	14.4	57.3
2025-10-04T07:30	10	28	3.1	26	38	376	0.3	375	376	14.4	54.4
2025-10-04T07:31	10	46	25.7	27	97	377	1.5	375	381	14.3	56.3
2025-10-04T07:32	10	96	7.5	69	101	383	1.7	379	385	14.4	57.3
2025-10-04T07:33	10	80	9.6	66	96	384	1.1	383	387	14.4	57.3
2025-10-04T07:34	10	92	10.5	76	106	387	0.9	386	388	14.4	57.3
2025-10-04T07:35	10	92	11.7	67	105	389	1.1	387	391	14.5	58.8
2025-10-04T07:36	10	93	12.5	77	108	390	0.8	389	391	14.7	58.1
2025-10-04T07:37	10	108	0.2	108	109	390	0.4	389	391	14.7	57.4
2025-10-04T07:38	10	109	0.1	109	109	390	0.6	389	392	14.8	56.8
2025-10-04T07:39	10	108	2.0	100	110	391	0.3	391	392	14.9	57.2
2025-10-04T07:40	10	71	25.7	42	102	390	2.2	386	392	14.9	57.0
2025-10-04T07:41	10	37	2.1	35	43	386	1.6	383	389	14.9	57.4
2025-10-04T07:42	10	35	0.4	34	36	384	0.4	383	385	14.9	58.3
2025-10-04T07:43	10	34	0.3	33	34	383	0.4	383	384	14.8	56.7
2025-10-04T07:44	10	33	0.3	32	33	383	0.3	382	384	14.8	57.0
2025-10-04T07:45	10	32	0.1	32	33	382	0.4	381	383	14.8	57.1
2025-10-04T07:46	10	32	0.1	32	33	382	0.2	382	383	14.7	57.7
2025-10-04T07:47	10	34	0.7	32	35	382	0.3	381	383	14.6	58.3
2025-10-04T07:48	10	35	0.3	35	36	382	0.2	381	382	14.6	57.6
2025-10-04T07:49	10	36	0.2	36	37	382	0.4	382	383	14.6	58.7
2025-10-04T07:50	10	37	0.2	36	37	383	0.4	382	384	14.6	58.9
2025-10-04T07:51	10	37	0.1	37	37	383	0.2	383	384	14.6	58.8
2025-10-04T07:52	10	37	0.1	37	37	383	0.3	382	384	14.6	59.3
2025-10-04T07:53	10	36	0.5	35	37	383	0.4	382	384	14.5	59.8
2025-10-04T07:54	10	35	0.2	34	35	383	0.3	382	384	14.5	60.2
2025-10-04T07:55	10	35	0.5	35	36	383	0.3	382	384	14.5	59.5
2025-10-04T07:56	10	37	0.3	36	37	383	0.3	383	384	14.5	60.3
2025-10-04T07:57	10	36	0.4	35	37	384	0.3	383	384	14.5	60.3
2025-10-04T07:58	10	35	0.2	35	36	383	0.3	382	383	14.5	59.7
2025-10-04T07:59	10	35	0.3	35	36	383	0.3	382	384	14.5	60.6
2025-10-04T08:00	10	36	0.4	35	37	383	0.2	382	383	14.5	59.8
2025-10-04T08:01	10	36	0.4	35	37	383	0.4	382	384	14.6	59.3
2025-10-04T08:02	10	35	0.4	34	35	383	0.4	382	383	14.6	59.1
2025-10-04T08:03	10	34	0.3	33	34	383	0.3	382	384	14.6	58.6
2025-10-04T08:04	10	33	0.3	32	33	383	0.3	382	383	14.7	58.9
2025-10-04T08:05	10	33	0.8	32	35	383	0.4	382	383	14.6	60.1
2025-10-04T08:06	10	35	0.2	35	36	384	0.3	383	384	14.6	59.6
2025-10-04T08:07	10	35	0.1	35	36	384	0.2	383	384	14.6	59.7
2025-10-04T08:08	10	35	0.2	34	35	384	0.3	383	384	14.7	59.5
2025-10-04T08:09	10	35	0.2	34	35	383	0.3	383	384	14.7	59.1
2025-10-04T08:10	10	36	0.4	35	36	383	0.3	382	384	14.7	59.8
2025-10-04T08:11	10	36	0.2	36	36	383	0.3	382	384	14.8	58.0
2025-10-04T08:12	10	35	0.4	34	36	383	0.3	382	384	14.8	58.5
2025-10-04T08:13	10	34	0.3	33	35	384	0.3	383	384	14.8	58.8
2025-10-04T08:14	10	33	0.4	32	34	384	0.3	383	384	14.8	59.1
2025-10-04T08:15	10	32	0.3	31	33	384	0.3	383	385	14.8	59.9
2025-10-04T08:16	10	31	0.2	31	32	383	0.5	382	384	14.8	58.5
2025-10-04T08:17	10	32	0.2	31	32	383	0.2	382	383	14.9	58.6
2025-10-04T08:18	10	31	0.5	30	32	383	0.3	382	384	14.9	58.8
2025-10-04T08:19	10	30	0.2	29	30	383	0.3	382	383	14.9	58.9
2025-10-04T08:20	10	29	0.2	29	30	383	0.2	383	384	14.8	59.3
2025-10-04T08:21	10	30	0.2	29	30	383	0.3	382	384	14.9	59.8
2025-10-04T08:22	10	31	0.4	30	31	383	0.4	382	384	14.9	59.4
2025-10-04T08:23	10	32	0.3	31	32	383	0.3	383	384	14.9	59.4
2025-10-04T08:24	10	33	0.4	32	34	383	0.3	383	384	14.9	58.8
2025-10-04T08:25	10	34	0.5	33	35	383	0.3	383	384	14.9	59.1
2025-10-04T08:26	10	36	0.4	35	37	384	0.5	383	385	14.9	58.9
2025-10-04T08:27	10	37	0.3	36	38	384	0.3	384	385	15.0	59.0
2025-10-04T08:28	10	38	0.9	37	40	384	0.4	384	385	15.0	58.8
2025-10-04T08:29	10	43	1.4	40	45	385	0.3	385	386	15.0	59.1
2025-10-04T08:30	10	47	1.1	45	49	386	0.3	385	386	15.0	58.7
2025-10-04T08:31	10	50	1.0	49	52	387	0.3	386	387	15.1	58.6
2025-10-04T08:32	10	54	0.8	52	55	387	0.3	387	388	15.2	57.9
2025-10-04T08:33	10	54	0.4	54	55	388	0.4	387	388	15.2	57.7
2025-10-04T08:34	10	54	0.2	54	54	388	0.4	387	389	15.2	57.6
2025-10-04T08:35	10	53	1.2	51	55	388	0.3	388	389	15.3	57.2
2025-10-04T08:36	10	49	1.2	48	53	388	0.3	388	389	15.3	57.8
2025-10-04T08:37	10	49	0.7	48	50	389	0.2	388	389	15.3	58.4
2025-10-04T08:38	10	50	0.2	50	51	389	0.2	388	389	15.3	57.8
2025-10-04T08:39	10	49	0.4	48	50	390	0.4	389	391	15.3	58.8
2025-10-04T08:40	10	51	1.3	49	54	390	0.4	389	391	15.4	57.9
2025-10-04T08:41	10	62	7.4	53	78	390	0.4	389	391	15.6	56.0
2025-10-04T08:42	10	65	12.5	54	102	391	1.3	389	393	15.6	56.2
2025-10-04T08:43	10	62	4.2	57	70	393	0.5	391	393	15.7	56.7
2025-10-04T08:44	10	58	1.0	57	61	391	0.5	390	392	15.8	55.2
2025-10-04T08:45	10	72	13.0	55	96	392	1.1	390	394	15.8	55.2
2025-10-04T08:46	10	53	4.4	48	66	391	0.4	390	392	15.9	54.4
2025-10-04T08:47	10	47	0.7	46	48	389	0.8	388	391	15.9	53.8
2025-10-04T08:48	10	45	1.0	43	47	388	0.5	388	390	15.9	54.2
2025-10-04T08:49	10	42	0.7	41	43	388	0.5	387	389	15.8	54.6
2025-10-04T08:50	10	41	0.1	41	41	388	0.4	387	389	15.8	54.6
2025-10-04T08:51	10	40	0.4	39	41	387	0.2	387	388	15.8	54.7
2025-10-04T08:52	10	38	0.6	37	39	387	0.3	387	388	15.8	54.8
2025-10-04T08:53	10	35	1.1	33	37	387	0.4	386	388	15.7	55.1
2025-10-04T08:54	10	33	0.1	33	33	386	0.2	386	387	15.7	55.2
2025-10-04T08:55	10	32	0.5	31	33	386	0.3	386	387	15.7	55.5
2025-10-04T08:56	10	32	0.1	31	32	386	0.3	386	387	15.6	56.0
2025-10-04T08:57	10	32	0.2	32	33	386	0.2	386	387	15.6	55.8
2025-10-04T08:58	10	32	0.3	31	32	386	0.3	385	387	15.7	55.5
2025-10-04T08:59	10	31	0.5	30	31	386	0.2	386	387	15.7	55.8
2025-10-04T09:00	10	29	0.2	29	30	386	0.3	385	386	15.7	55.7
2025-10-04T09:01	10	28	0.3	28	29	385	0.2	385	386	15.7	55.6
2025-10-04T09:02	10	28	0.1	28	28	385	0.2	385	386	15.6	56.5
2025-10-04T09:03	10	29	0.6	28	30	385	0.2	384	385	15.6	56.4
2025-10-04T09:04	10	31	0.7	30	32	385	0.2	384	386	15.7	56.1
2025-10-04T09:05	10	33	0.7	32	35	385	0.3	384	385	15.6	56.9
2025-10-04T09:06	10	36	1.0	35	38	385	0.3	384	386	15.6	56.7
2025-10-04T09:07	10	41	1.7	38	45	386	0.6	385	387	15.6	57.5
2025-10-04T09:08	10	47	1.5	45	52	387	0.4	386	388	15.6	57.5
2025-10-04T09:09	10	50	2.8	48	61	387	0.3	387	388	15.7	57.1
2025-10-04T09:10	10	49	3.0	47	61	388	0.3	387	388	15.7	57.5
2025-10-04T09:11	10	48	2.3	45	53	387	0.3	387	388	15.7	57.2
2025-10-04T09:12	10	51	1.9	49	56	388	0.3	387	389	15.8	56.6
2025-10-04T09:13	10	52	1.4	49	55	388	0.3	387	388	15.8	56.3
2025-10-04T09:14	10	51	2.0	48	56	388	0.3	387	389	15.8	56.9
2025-10-04T09:15	10	55	5.4	50	71	388	0.4	388	389	15.8	57.0
2025-10-04T09:16	10	60	1.9	58	64	390	0.5	388	390	15.9	56.9
2025-10-04T09:17	10	59	2.6	56	68	389	0.3	389	390	15.9	56.6
2025-10-04T09:18	10	54	2.7	52	61	389	0.5	388	390	15.9	55.8
2025-10-04T09:19	10	53	3.4	49	61	388	0.2	388	389	16.0	55.6
2025-10-04T09:20	10	61	5.4	54	75	389	0.5	388	390	16.0	55.9
2025-10-04T09:21	10	68	5.0	60	78	390	0.7	389	391	16.0	55.9
2025-10-04T09:22	10	60	6.1	52	68	391	0.3	390	392	16.0	56.3
2025-10-04T09:23	10	69	3.6	62	76	391	0.5	390	392	16.1	55.8
2025-10-04T09:24	10	105	24.8	62	140	394	2.9	390	400	16.1	55.7
2025-10-04T09:25	10	128	22.5	89	156	400	1.5	397	403	16.2	55.3
2025-10-04T09:26	10	84	25.9	66	140	399	3.4	395	404	16.3	54.8
2025-10-04T09:27	10	90	16.9	70	131	397	1.5	395	399	16.4	54.5
2025-10-04T09:28	10	160	20.2	89	172	405	4.5	396	410	16.4	55.3
2025-10-04T09:29	10	140	28.3	79	165	406	1.5	403	409	16.6	54.6
2025-10-04T09:30	10	129	32.5	84	165	405	2.3	402	408	16.7	54.0
2025-10-04T09:31	10	161	5.1	146	167	408	0.9	406	410	16.8	53.6
2025-10-04T09:32	10	162	3.1	154	167	409	0.4	408	410	16.8	53.4
2025-10-04T09:33	10	160	12.0	122	167	411	1.2	409	413	16.9	53.3
2025-10-04T09:34	10	170	2.1	162	173	414	1.4	411	416	17.0	53.3
2025-10-04T09:35	10	176	1.7	173	180	416	0.5	415	418	17.1	53.1
2025-10-04T09:36	10	141	36.6	78	184	417	2.8	410	420	17.1	53.2
2025-10-04T09:37	10	115	38.0	77	177	410	1.7	408	413	17.0	53.1
2025-10-04T09:38	10	96	23.5	70	146	410	2.3	406	414	17.1	53.7
2025-10-04T09:39	10	100	34.7	70	170	407	2.6	404	411	17.1	53.1
2025-10-04T09:40	10	81	15.8	71	142	407	1.7	404	410	17.1	53.7
2025-10-04T09:41	10	82	11.5	72	133	404	1.2	403	407	17.0	52.8
2025-10-04T09:42	10	71	5.0	66	86	404	0.4	403	405	17.2	54.1
2025-10-04T09:43	10	63	2.4	59	67	404	0.3	403	404	17.3	53.9
2025-10-04T09:44	10	56	0.9	56	59	403	0.7	401	404	17.4	54.2
2025-10-04T09:45	10	56	0.2	55	56	400	0.8	399	402	17.2	52.8
2025-10-04T09:46	10	57	0.5	56	58	400	0.3	399	401	17.2	53.4
2025-10-04T09:47	10	58	0.2	58	59	401	0.5	400	402	17.3	54.2
2025-10-04T09:48	10	58	0.6	57	59	400	0.6	399	401	17.3	53.6
2025-10-04T09:49	10	56	0.2	56	57	400	0.3	399	400	17.3	53.3
2025-10-04T09:50	10	56	0.1	56	56	400	0.5	398	400	17.3	53.4
2025-10-04T09:51	10	57	0.4	56	58	399	0.3	398	399	17.4	53.0
2025-10-04T09:52	10	60	1.0	58	61	399	0.3	398	399	17.3	53.1
2025-10-04T09:53	10	62	0.3	61	62	400	0.4	399	400	17.3	53.6
2025-10-04T09:54	10	61	0.7	60	62	400	0.3	399	401	17.3	53.4
2025-10-04T09:55	10	59	0.1	59	60	400	0.4	399	401	17.3	54.0
2025-10-04T09:56	10	59	1.8	57	64	401	0.2	400	401	17.4	53.9
2025-10-04T09:57	10	55	0.9	54	57	400	0.4	399	401	17.4	54.4
2025-10-04T09:58	10	51	1.3	49	54	400	0.3	399	400	17.4	54.6
2025-10-04T09:59	10	47	1.0	46	49	400	0.3	399	400	17.4	54.8
2025-10-04T10:00	10	45	0.4	44	46	399	0.4	398	400	17.5	54.7
2025-10-04T10:01	10	44	0.2	43	44	398	0.2	398	399	17.5	54.6
2025-10-04T10:02	10	43	0.1	43	43	398	0.3	398	399	17.5	55.3
2025-10-04T10:03	10	43	0.2	43	44	398	0.2	398	399	17.5	55.1
2025-10-04T10:04	10	44	0.3	44	45	399	0.4	398	400	17.5	55.3
2025-10-04T10:05	10	45	0.4	45	46	400	0.5	399	401	17.6	54.8
2025-10-04T10:06	10	47	0.3	46	47	401	0.3	400	401	17.6	55.6
2025-10-04T10:07	10	46	0.5	45	47	400	0.3	400	401	17.6	55.5
2025-10-04T10:08	10	44	0.8	43	45	400	0.4	399	401	17.7	55.0
2025-10-04T10:09	10	42	0.5	41	43	399	0.3	399	400	17.9	54.5
2025-10-04T10:10	10	40	0.3	40	41	399	0.4	398	400	18.0	52.8
2025-10-04T10:11	10	39	0.5	38	40	398	0.4	397	399	18.0	52.9
2025-10-04T10:12	10	38	0.1	38	38	397	0.3	397	398	18.0	52.5
2025-10-04T10:13	10	39	0.4	38	40	397	0.3	397	398	18.0	52.6
2025-10-04T10:14	10	40	0.2	40	40	397	0.2	397	398	17.9	53.0
2025-10-04T10:15	10									17.8	53.3
2025-10-04T10:16	10									17.8	53.0
2025-10-04T10:17	10									17.8	53.1
2025-10-04T10:18	10									17.7	53.4
2025-10-04T10:19	10									17.8	53.5
2025-10-04T10:20	10									17.8	53.5
2025-10-04T10:21	10									17.8	53.4
2025-10-04T10:22	10									17.8	52.7
2025-10-04T10:23	10									17.8	53.1
2025-10-04T10:24	10									17.8	53.6
2025-10-04T10:25	10									17.8	53.2
2025-10-04T10:26	10									17.9	53.2
2025-10-04T10:27	10									17.9	53.3
2025-10-04T10:28	10									17.9	53.3
2025-10-04T10:29	10									17.9	53.0
2025-10-04T10:30	10	38	0.5	37	39	397	0.3	397	398	17.8	53.2
2025-10-04T10:31	10	37	0.5	36	38	397	0.2	396	398	17.8	53.4
2025-10-04T10:32	10	37	0.8	36	39	397	0.2	396	397	17.8	53.3
2025-10-04T10:33	10	40	0.5	39	41	397	0.2	396	397	17.8	53.3
2025-10-04T10:34	10	40	0.2	40	41	397	0.2	397	398	17.8	53.9
2025-10-04T10:35	10	40	0.5	38	40	398	0.5	397	398	17.7	54.5
2025-10-04T10:36	10	38	0.4	37	39	398	0.3	397	398	17.7	54.7
2025-10-04T10:37	10	37	0.2	37	38	397	0.3	397	398	17.7	54.4
2025-10-04T10:38	10	39	0.8	38	40	397	0.2	397	397	17.7	54.1
2025-10-04T10:39	10	41	0.4	40	41	397	0.3	397	398	17.7	54.9
2025-10-04T10:40	10	42	0.3	41	42	397	0.4	397	398	17.7	54.8
2025-10-04T10:41	10	39	0.9	38	41	397	0.3	396	398	17.7	54.0
2025-10-04T10:42	10	37	0.4	37	38	397	0.2	396	397	17.7	54.5
2025-10-04T10:43	10	37	0.2	37	37	397	0.2	396	397	17.7	54.7
2025-10-04T10:44	10	38	0.6	37	40	397	0.2	396	397	17.7	54.5
2025-10-04T10:45	10	41	0.8	40	42	397	0.4	396	398	17.7	54.2
2025-10-04T10:46	10	44	1.1	42	46	398	0.3	397	398	17.7	54.4
2025-10-04T10:47	10	49	1.2	46	50	398	0.4	397	399	17.7	54.7
2025-10-04T10:48	10	51	0.2	50	51	399	0.3	398	400	17.8	54.8
2025-10-04T10:49	10	49	1.4	46	51	399	0.2	398	399	17.8	54.5
2025-10-04T10:50	10	45	0.6	44	46	399	0.3	398	399	17.7	55.3
2025-10-04T10:51	10	44	0.3	43	44	398	0.3	397	399	17.8	54.5
2025-10-04T10:52	10	45	0.8	44	46	398	0.3	398	399	17.8	54.9
2025-10-04T10:53	10	47	0.2	46	47	399	0.3	398	399	17.8	55.2
2025-10-04T10:54	10	50	2.1	47	54	399	0.4	398	400	17.8	55.0
2025-10-04T10:55	10	54	0.4	54	55	400	0.3	399	400	17.9	54.8
2025-10-04T10:56	10	54	0.2	54	55	400	0.4	399	400	17.9	54.7
2025-10-04T10:57	10	53	0.4	52	54	400	0.3	399	400	18.0	53.8
2025-10-04T10:58	10	55	1.7	53	58	400	0.3	399	400	18.0	53.6
2025-10-04T10:59	10	60	0.6	58	61	401	0.4	400	401	18.1	53.8
2025-10-04T11:00	10	58	1.2	56	60	401	0.2	401	402	18.1	54.1
2025-10-04T11:01	10	59	1.8	57	62	401	0.3	401	402	18.3	54.1
2025-10-04T11:02	10	66	1.8	62	69	402	0.3	401	402	18.3	53.7
2025-10-04T11:03	10	69	0.2	68	69	402	0.2	402	402	18.3	53.8
2025-10-04T11:04	10	66	1.2	64	69	403	0.4	402	403	18.3	54.0
2025-10-04T11:05	10	65	0.2	65	65	402	0.3	401	403	18.4	52.8
2025-10-04T11:06	10	62	2.1	59	65	402	0.3	401	403	18.4	53.9
2025-10-04T11:07	10	113	41.8	60	185	405	4.2	400	413	18.3	54.2
2025-10-04T11:08	10	188	1.7	186	191	415	1.7	410	417	18.3	53.7
2025-10-04T11:09	10	196	3.3	191	202	420	2.4	416	425	18.5	53.7
2025-10-04T11:10	10	206	7.8	164	212	424	0.8	422	426	18.7	52.6
2025-10-04T11:11	10	138	18.2	111	193	421	2.8	417	426	18.8	52.7
2025-10-04T11:12	10	130	17.6	110	176	419	1.9	416	421	18.9	52.6
2025-10-04T11:13	10	117	18.5	89	148	415	1.6	412	418	18.8	52.0
2025-10-04T11:14	10	97	9.7	87	120	412	1.0	411	414	18.8	52.5
2025-10-04T11:15	10	124	24.8	95	171	414	1.4	411	416	18.8	52.2
2025-10-04T11:16	10	127	10.0	109	149	415	0.8	414	417	18.8	52.6
2025-10-04T11:17	10	124	5.4	115	139	415	0.4	414	416	18.9	51.8
2025-10-04T11:18	10	112	2.0	107	116	414	1.4	411	415	19.0	51.8
2025-10-04T11:19	10	103	6.5	94	116	412	0.3	412	413	18.9	51.7
2025-10-04T11:20	10	89	3.6	83	96	411	1.4	409	413	18.9	51.8
2025-10-04T11:21	10	78	2.5	74	83	409	0.8	408	410	18.9	52.2
2025-10-04T11:22	10	71	1.7	68	73	407	0.8	406	409	18.8	52.6
2025-10-04T11:23	10	70	3.2	68	78	407	0.3	406	407	18.8	53.1
2025-10-04T11:24	10	70	2.8	67	75	407	0.4	406	407	18.8	53.3
2025-10-04T11:25	10	67	1.6	65	71	406	0.2	405	406	18.7	53.4
2025-10-04T11:26	10	75	5.8	68	86	407	1.0	405	409	18.8	53.9
2025-10-04T11:27	10	67	3.1	64	74	407	1.2	405	409	18.8	54.0
2025-10-04T11:28	10	81	5.9	67	94	407	1.0	405	408	18.9	53.9
2025-10-04T11:29	10	69	4.0	64	77	407	0.6	406	408	18.9	54.2
2025-10-04T11:30	10	65	6.2	59	78	406	0.5	405	408	18.9	54.0
2025-10-04T11:31	10	60	2.0	59	65	406	0.3	405	407	18.9	54.8
2025-10-04T11:32	10	58	0.6	57	59	405	0.3	404	406	18.9	54.4
2025-10-04T11:33	10	56	0.9	54	59	405	0.3	404	406	18.9	54.5
2025-10-04T11:34	10	54	0.3	53	55	405	0.2	404	405	18.9	54.8
2025-10-04T11:35	10	62	5.5	54	72	405	0.7	404	407	19.0	55.2
2025-10-04T11:36	10	62	1.6	61	70	406	0.4	405	407	19.0	55.1
2025-10-04T11:37	10	70	8.5	62	95	407	0.7	406	409	19.0	55.4
2025-10-04T11:38	10	63	2.4	60	68	407	0.4	406	408	19.0	55.3
2025-10-04T11:39	10	60	0.5	59	61	406	0.4	405	407	19.0	55.2
2025-10-04T11:40	10	61	0.8	60	63	407	0.3	406	408	19.0	55.6
2025-10-04T11:41	10	65	1.2	63	67	407	0.3	406	408	19.0	55.7
2025-10-04T11:42	10	68	0.6	67	69	408	0.2	407	408	19.0	55.8
2025-10-04T11:43	10	70	1.3	69	73	408	0.3	407	408	19.0	55.7
2025-10-04T11:44	10	77	2.1	73	80	409	1.0	407	411	19.0	56.1
2025-10-04T11:45	10	79	1.3	76	80	411	0.3	410	411	19.0	56.6
2025-10-04T11:46	10	75	0.4	74	76	411	0.3	410	412	19.1	56.7
2025-10-04T11:47	10	80	3.4	75	87	411	0.3	410	411	19.1	56.9
2025-10-04T11:48	10	96	5.5	87	108	412	0.6	411	413	19.1	56.3
2025-10-04T11:49	10	132	12.5	108	159	416	1.8	411	418	19.2	56.1
2025-10-04T11:50	10	94	13.2	77	118	415	1.6	413	418	19.3	56.0
2025-10-04T11:51	10	69	4.4	63	77	412	0.9	411	414	19.4	56.2
2025-10-04T11:52	10	57	2.5	54	63	410	0.7	409	412	19.4	56.5
2025-10-04T11:53	10	51	1.5	49	53	409	0.8	407	410	19.4	56.6
2025-10-04T11:54	10	48	0.2	47	48	408	0.3	407	408	19.4	56.5
2025-10-04T11:55	10	47	0.6	45	48	407	0.4	406	407	19.3	56.1
2025-10-04T11:56	10	44	0.6	43	45	406	0.2	406	407	19.3	56.5
2025-10-04T11:57	10	43	0.1	43	44	406	0.2	406	407	19.2	56.2
2025-10-04T11:58	10	42	0.8	40	43	406	0.3	405	406	19.2	56.5
2025-10-04T11:59	10	39	0.7	38	40	405	0.3	404	406	19.2	56.8
2025-10-04T12:00	10	38	0.2	37	38	405	0.3	404	405	19.2	56.6
2025-10-04T12:01	10	37	0.3	36	37	405	0.3	404	405	19.2	57.1
2025-10-04T12:02	10	36	0.1	36	36	405	0.3	404	406	19.2	57.5
2025-10-04T12:03	10	35	0.4	35	36	404	0.2	404	405	19.2	57.1
2025-10-04T12:04	10	34	0.3	34	35	404	0.2	404	405	19.2	57.2
2025-10-04T12:05	10	33	0.2	33	34	404	0.3	403	405	19.2	56.8
2025-10-04T12:06	10	32	0.4	31	33	404	0.3	403	404	19.2	57.1
2025-10-04T12:07	10	31	0.4	30	31	403	0.2	403	404	19.2	56.8
2025-10-04T12:08	10	31	0.3	30	31	403	0.3	402	404	19.2	57.0
2025-10-04T12:09	10	32	0.4	31	32	403	0.2	403	404	19.2	57.7
2025-10-04T12:10	10	33	0.1	32	33	403	0.2	403	404	19.1	57.9
2025-10-04T12:11	10	33	0.2	33	34	404	0.2	403	404	19.2	57.5
2025-10-04T12:12	10	34	0.4	34	35	404	0.2	403	404	19.2	57.0
2025-10-04T12:13	10	36	0.4	35	36	404	0.2	403	404	19.2	57.3
2025-10-04T12:14	10	37	0.2	36	37	404	0.2	404	405	19.2	57.4
2025-10-04T12:15	10	38	0.3	37	38	404	0.4	404	405	19.2	57.2
2025-10-04T12:16	10	39	0.1	38	39	404	0.3	404	405	19.2	57.3
2025-10-04T12:17	10	39	0.1	38	39	405	0.2	404	405	19.3	57.4
2025-10-04T12:18	10	39	0.4	38	40	405	0.3	404	405	19.2	57.7
2025-10-04T12:19	10	40	0.1	40	40	405	0.4	404	406	19.2	57.6
2025-10-04T12:20	10	38	0.8	37	40	404	0.3	404	405	19.3	57.6
2025-10-04T12:21	10	36	0.9	34	37	404	0.2	404	405	19.3	57.9
2025-10-04T12:22	10	32	1.2	30	34	404	0.4	403	405	19.2	58.1
2025-10-04T12:23	10	28	1.1	26	30	403	0.5	402	404	19.1	58.6
2025-10-04T12:24	10	24	0.9	23	26	402	0.2	402	403	19.1	58.3
2025-10-04T12:25	10	21	0.8	20	23	402	0.3	401	402	19.0	59.0
2025-10-04T12:26	10	19	0.5	18	20	401	0.3	400	402	19.0	59.4
2025-10-04T12:27	10	17	0.8	16	18	401	0.3	400	401	19.0	59.1
2025-10-04T12:28	10	15	0.5	14	16	400	0.3	400	401	18.9	59.7
2025-10-04T12:29	10	14	0.1	14	14	400	0.5	399	401	18.9	59.0
2025-10-04T12:30	10	13	0.2	13	14	399	0.3	398	399	18.8	59.8
2025-10-04T12:31	10	12	0.7	11	13	398	0.2	398	399	18.8	59.5
2025-10-04T12:32	10	10	0.5	9	11	398	0.2	398	399	18.7	59.6
2025-10-04T12:33	10	8	0.2	8	9	398	0.3	397	398	18.7	59.4
2025-10-04T12:34	10	8	0.2	8	9	398	0.3	397	398	18.6	59.8
2025-10-04T12:35	10	9	0.2	9	10	398	0.3	397	398	18.6	59.7
2025-10-04T12:36	10	10	0.1	9	10	398	0.2	397	398	18.6	60.2
2025-10-04T12:37	10	10	0.1	10	10	397	0.3	397	398	18.5	60.8
2025-10-04T12:38	10	11	0.3	10	11	397	0.3	396	397	18.5	61.1
2025-10-04T12:39	10	11	0.2	11	12	396	0.4	395	397	18.5	61.1
2025-10-04T12:40	10	12	0.2	11	12	395	0.6	393	396	18.5	61.0
2025-10-04T12:41	10	11	0.3	11	11	393	0.6	392	395	18.4	62.3
2025-10-04T12:42	10	10	0.3	10	11	392	0.3	391	393	18.0	64.3
2025-10-04T12:43	10	9	0.2	9	10	392	0.4	391	393	18.0	64.8
2025-10-04T12:44	10	9	0.1	9	10	391	0.3	390	392	17.8	66.1
2025-10-04T12:45	10	9	0.1	9	10	390	0.3	389	391	17.6	67.7
2025-10-04T12:46	10	8	0.4	8	9	390	0.3	389	390	17.4	69.2
2025-10-04T12:47	10	8	0.1	8	8	390	0.8	389	391	17.1	71.6
2025-10-04T12:48	10	7	0.1	7	8	389	0.4	389	390	16.9	72.9
2025-10-04T12:49	10	7	0.1	7	7	389	0.5	388	390	16.8	73.3
2025-10-04T12:50	10	8	0.3	7	8	389	0.5	388	390	16.9	73.4
2025-10-04T12:51	10	8	0.2	8	9	389	0.2	389	390	17.0	72.7
2025-10-04T12:52	10	9	0.4	9	10	389	0.4	388	390	17.0	72.9
2025-10-04T12:53	10	12	0.9	10	13	389	0.5	388	390	16.8	74.0
2025-10-04T12:54	10	16	1.6	13	19	389	0.5	388	390	16.9	72.9
2025-10-04T12:55	10	22	1.5	19	24	390	0.5	388	391	16.8	73.8
2025-10-04T12:56	10	25	0.7	24	26	390	0.6	389	392	16.6	75.7
2025-10-04T12:57	10	26	0.4	25	27	391	0.4	390	392	16.6	75.5
2025-10-04T12:58	10	24	0.8	22	25	391	0.3	390	392	16.6	75.8
2025-10-04T12:59	10	21	0.9	19	22	391	0.2	390	391	16.5	76.8
2025-10-04T13:00	10	18	0.6	17	20	390	0.4	389	391	16.5	76.1
2025-10-04T13:01	10	16	0.7	15	17	389	0.3	389	390	16.4	76.6
2025-10-04T13:02	10	14	0.4	13	15	389	0.2	389	390	16.3	78.3
2025-10-04T13:03	10	13	0.2	13	14	389	0.3	389	390	16.4	77.5
2025-10-04T13:04	10	14	0.3	13	14	389	0.3	388	390	16.4	77.6
2025-10-04T13:05	10	15	0.4	14	16	389	0.3	388	390	16.3	77.8
2025-10-04T13:06	10	16	0.2	16	16	389	0.3	388	390	16.3	78.6
2025-10-04T13:07	10	17	0.3	16	17	390	0.3	388	390	16.2	79.8
2025-10-04T13:08	10	17	0.1	17	17	390	0.2	389	390	16.3	78.3
2025-10-04T13:09	10	18	0.9	17	20	389	0.4	389	390	16.2	79.8
2025-10-04T13:10	10	21	1.0	20	23	390	0.5	389	391	16.2	79.3
2025-10-04T13:11	10	24	0.7	23	26	390	0.4	389	391	16.2	79.8
2025-10-04T13:12	10	27	0.9	26	29	391	0.3	390	392	16.2	80.1
2025-10-04T13:13	10	30	0.8	29	31	391	0.3	391	392	16.1	81.6
2025-10-04T13:14	10	32	0.5	31	33	392	0.3	392	393	16.1	81.8
2025-10-04T13:15	10	34	0.6	33	35	393	0.3	392	393	16.1	81.8
2025-10-04T13:16	10	37	0.5	36	37	394	0.5	393	395	16.1	82.8
2025-10-04T13:17	10	38	0.3	37	38	395	0.5	394	396	16.0	84.0
2025-10-04T13:18	10	37	1.5	34	42	395	0.3	394	396	16.0	84.5
2025-10-04T13:19	10	33	0.7	32	34	395	0.3	394	396	16.0	84.2
2025-10-04T13:20	10	32	0.1	31	32	395	0.3	394	395	16.0	84.0
2025-10-04T13:21	10	33	1.0	32	35	395	0.3	394	395	16.0	84.1
2025-10-04T13:22	10	38	1.2	36	39	395	0.3	394	395	16.0	84.6
2025-10-04T13:23	10	39	0.7	37	40	396	0.3	395	396	16.1	84.0
2025-10-04T13:24	10	34	1.7	32	37	395	0.4	394	396	16.1	83.2
2025-10-04T13:25	10	31	0.5	30	32	394	0.3	393	395	16.1	84.0
2025-10-04T13:26	10	30	0.1	30	30	394	0.3	393	395	16.1	84.1
2025-10-04T13:27	10	29	0.8	27	30	394	0.4	393	394	16.1	83.5
2025-10-04T13:28	10	25	1.1	23	27	393	0.3	392	393	16.1	83.9
2025-10-04T13:29	10	22	0.3	22	23	392	0.4	391	393	16.2	83.0
2025-10-04T13:30	10	23	0.5	22	24	392	0.3	391	393	16.1	84.1
2025-10-04T13:31	10	25	0.7	24	27	392	0.4	392	393	16.1	84.3
2025-10-04T13:32	10	28	0.6	27	29	393	0.2	392	393	16.1	84.7
2025-10-04T13:33	10	30	0.5	29	30	393	0.4	393	394	16.1	85.1
2025-10-04T13:34	10	30	0.1	30	30	393	0.3	393	394	16.1	84.5
2025-10-04T13:35	10	29	0.2	29	30	394	0.3	393	394	16.1	84.9
2025-10-04T13:36	10	28	0.6	27	29	393	0.3	392	394	16.1	84.7
2025-10-04T13:37	10	25	1.5	22	27	392	0.5	391	393	16.1	84.3
2025-10-04T13:38	10	19	1.5	17	22	392	0.4	391	392	16.0	85.6
2025-10-04T13:39	10	16	0.4	16	17	391	0.4	390	392	16.0	85.2
2025-10-04T13:40	10	18	1.1	16	20	391	0.3	390	391	16.1	85.0
2025-10-04T13:41	10	23	2.3	20	28	391	0.3	390	392	16.0	85.3
2025-10-04T13:42	10	33	2.9	28	37	392	0.6	391	393	16.1	84.7
2025-10-04T13:43	10	39	0.5	37	40	393	0.4	392	394	16.0	86.0
2025-10-04T13:44	10	38	0.7	36	39	394	0.4	393	394	16.0	86.1
2025-10-04T13:45	10	34	1.2	32	36	393	0.4	392	394	16.1	85.1
2025-10-04T13:46	10	30	1.4	27	32	393	0.3	392	393	16.1	85.7
2025-10-04T13:47	10	24	1.8	21	27	392	0.4	391	393	16.0	86.1
2025-10-04T13:48	10	20	0.9	18	21	391	0.2	391	392	16.0	86.1
2025-10-04T13:49	10	18	0.4	17	18	391	0.3	391	392	16.0	85.8
2025-10-04T13:50	10	17	0.2	16	17	391	0.3	390	392	16.1	85.7
2025-10-04T13:51	10	18	0.6	17	19	391	0.3	390	392	16.0	85.9
2025-10-04T13:52	10	20	1.1	18	22	391	0.4	390	392	16.0	85.6
2025-10-04T13:53	10	25	1.5	22	27	391	0.3	390	392	16.1	85.1
2025-10-04T13:54	10	32	3.0	28	38	391	0.3	391	392	16.0	85.7
2025-10-04T13:55	10	46	4.9	38	53	393	0.6	392	394	15.9	86.4
2025-10-04T13:56	10	58	4.1	52	68	395	0.9	393	396	16.0	86.6
2025-10-04T13:57	10	58	4.5	52	69	396	0.4	395	397	16.0	86.4
2025-10-04T13:58	10	47	2.7	44	52	396	0.3	395	397	16.0	87.7
2025-10-04T13:59	10	39	2.9	35	46	395	0.3	395	396	16.0	87.5
2025-10-04T14:00	10	32	2.3	28	35	395	0.3	394	396	16.0	87.4
2025-10-04T14:01	10	23	2.2	20	27	394	0.4	393	395	16.0	87.5
2025-10-04T14:02	10	16	1.8	13	20	393	0.4	392	394	16.1	87.8
2025-10-04T14:03	10	11	1.2	9	13	392	0.3	391	393	16.2	87.4
2025-10-04T14:04	10	8	1.1	6	10	391	0.4	390	392	16.2	86.3
2025-10-04T14:05	10	5	0.5	4	6	390	0.5	389	391	16.2	85.5
2025-10-04T14:06	10	4	0.1	4	4	388	0.3	388	389	16.0	86.1
2025-10-04T14:07	10	4	0.1	4	4	387	0.5	386	388	15.7	86.9
2025-10-04T14:08	10	4	0.3	4	4	386	0.5	385	387	15.5	87.9
2025-10-04T14:09	10	5	0.1	4	5	386	1.1	383	387	15.1	90.4
2025-10-04T14:10	10	4	0.1	4	5	385	0.6	384	386	14.8	92.7
2025-10-04T14:11	10	4	0.2	4	4	385	0.5	384	386	14.6	94.3
2025-10-04T14:12	10	5	0.6	4	6	385	0.4	384	385	14.5	95.1
2025-10-04T14:13	10	8	0.7	6	9	385	0.8	383	386	14.5	95.8
2025-10-04T14:14	10	7	0.9	6	9	385	0.5	384	386	14.5	96.3
2025-10-04T14:15	10	7	0.7	6	8	385	0.6	383	386	14.4	96.3
2025-10-04T14:16	10	9	0.6	8	9	385	0.3	384	385	14.4	96.0
2025-10-04T14:17	10	9	0.3	9	10	384	0.4	383	385	14.3	94.5
2025-10-04T14:18	10	12	0.7	10	13	384	0.3	383	385	14.2	93.9
2025-10-04T14:19	10	13	0.2	13	14	383	0.3	382	384	14.1	91.7
2025-10-04T14:20	10	12	1.0	10	13	383	0.3	382	383	14.1	91.1
2025-10-04T14:21	10	9	0.5	8	10	383	0.3	382	383	14.1	91.4
2025-10-04T14:22	10	9	0.1	8	9	382	0.5	381	383	14.2	87.8
2025-10-04T14:23	10	8	0.2	8	9	381	0.5	381	382	14.5	87.1
2025-10-04T14:24	10	8	0.2	8	9	381	0.4	381	382	14.4	87.7
2025-10-04T14:25	10	9	0.2	9	10	381	0.2	381	382	14.4	88.0
2025-10-04T14:26	10	10	0.7	9	12	381	0.2	381	381	14.3	87.1
2025-10-04T14:27	10	13	0.7	12	14	381	0.4	380	382	14.2	88.1
2025-10-04T14:28	10	15	0.2	14	15	381	0.5	380	382	14.2	86.5
2025-10-04T14:29	10	15	0.1	15	16	380	0.4	380	381	14.1	86.7
2025-10-04T14:30	10	14	0.4	14	15	380	0.3	380	381	14.0	86.4
2025-10-04T14:31	10	13	0.3	12	14	380	0.2	379	380	13.9	86.2
2025-10-04T14:32	10	13	0.4	13	14	379	0.4	379	380	13.9	86.0
2025-10-04T14:33	10	14	0.1	14	14	380	0.4	379	380	13.8	86.4
2025-10-04T14:34	10	13	0.3	13	14	380	0.3	379	380	13.8	86.7
2025-10-04T14:35	10	13	0.2	12	13	379	0.2	378	380	13.8	85.8
2025-10-04T14:36	10	12	0.4	11	12	379	0.2	378	379	13.7	86.1
2025-10-04T14:37	10	11	0.2	10	11	378	0.2	378	379	13.8	84.3
2025-10-04T14:38	10	11	0.2	11	12	378	0.3	378	379	13.7	85.0
2025-10-04T14:39	10	11	0.1	11	12	378	0.4	377	379	13.8	83.8
2025-10-04T14:40	10	12	0.3	11	12	378	0.2	378	379	13.7	84.7
2025-10-04T14:41	10	13	0.1	12	13	378	0.3	377	379	13.7	83.0
2025-10-04T14:42	10	12	0.5	11	13	378	0.3	377	378	13.7	82.7
2025-10-04T14:43	10	10	0.3	10	11	378	0.3	377	378	13.7	83.0
2025-10-04T14:44	10	10	0.1	10	10	378	0.2	377	378	13.8	80.5
2025-10-04T14:45	10	10	0.1	10	10	377	0.3	377	378	13.8	81.4
2025-10-04T14:46	10	10	0.3	9	10	377	0.2	377	378	13.8	79.9
2025-10-04T14:47	10	8	0.7	7	9	377	0.2	377	378	13.8	80.5
2025-10-04T14:48	10	6	0.6	5	7	377	0.2	376	377	13.8	79.8
2025-10-04T14:49	10	4	0.3	4	5	377	0.2	377	377	13.8	80.1
2025-10-04T14:50	10	4	0.2	3	4	377	0.2	376	377	13.8	80.5
2025-10-04T14:51	10	3	0.1	3	4	376	0.3	375	377	13.8	79.7
2025-10-04T14:52	10	4	0.1	3	4	376	0.2	375	377	13.9	78.4
2025-10-04T14:53	10	4	0.3	4	5	376	0.2	375	376	13.9	77.3
2025-10-04T14:54	10	5	0.3	5	6	376	0.2	375	376	14.0	76.7
2025-10-04T14:55	10	6	0.3	6	7	376	0.2	375	376	13.9	77.6
2025-10-04T14:56	10	7	0.4	7	8	376	0.3	375	377	13.9	77.8
2025-10-04T14:57	10	8	0.2	8	9	377	0.3	376	377	13.8	79.2
2025-10-04T14:58	10	8	0.5	7	9	377	0.3	376	377	13.8	78.7
2025-10-04T14:59	10	6	0.4	6	7	376	0.3	376	377	14.0	76.4
2025-10-04T15:00	10	6	0.2	5	6	376	0.4	375	377	14.0	76.2
2025-10-04T15:01	10	5	0.2	5	6	376	0.4	375	377	14.1	74.9
2025-10-04T15:02	10	5	0.2	5	6	376	0.3	375	376	14.1	74.9
2025-10-04T15:03	10	5	0.2	5	6	375	0.4	375	377	14.1	74.9
2025-10-04T15:04	10	5	0.2	5	6	376	0.3	375	376	14.0	75.2
2025-10-04T15:05	10	6	0.2	5	6	375	0.2	375	376	14.0	76.6
2025-10-04T15:06	10	6	0.2	5	6	376	0.3	375	376	13.9	76.0
2025-10-04T15:07	10	5	0.2	5	6	375	0.2	375	376	13.9	76.5
2025-10-04T15:08	10	5	0.1	4	5	375	0.2	375	376	13.9	75.9
2025-10-04T15:09	10	5	0.1	4	5	375	0.3	375	376	14.2	72.6
2025-10-04T15:10	10	5	0.3	5	6	375	0.2	375	376	14.1	74.1
2025-10-04T15:11	10	6	0.3	6	7	375	0.2	375	376	14.1	74.0
2025-10-04T15:12	10	6	0.2	6	7	375	0.3	375	376	14.0	75.2
2025-10-04T15:13	10	6	0.3	5	6	375	0.2	375	376	14.0	74.9
2025-10-04T15:14	10	5	0.2	4	5	375	0.3	374	376	14.1	74.1
2025-10-04T15:15	10	4	0.1	4	4	375	0.3	374	376	13.9	75.8
2025-10-04T15:16	10	5	0.1	4	5	375	0.2	374	375	13.9	75.7
2025-10-04T15:17	10	5	0.1	4	5	375	0.3	374	376	14.0	74.3
2025-10-04T15:18	10	5	0.1	4	5	375	0.2	374	375	14.1	73.9
2025-10-04T15:19	10	5	0.2	4	5	375	0.4	374	376	14.0	74.4
2025-10-04T15:20	10	6	0.3	5	6	375	0.2	374	375	14.2	72.6
2025-10-04T15:21	10	6	0.2	6	7	375	0.3	375	376	14.0	74.1
2025-10-04T15:22	10	7	0.1	7	7	375	0.2	374	375	14.0	74.5
2025-10-04T15:23	10	7	0.1	6	7	375	0.2	374	375	13.9	75.3
2025-10-04T15:24	10	6	0.1	6	7	375	0.2	374	375	14.0	74.3
2025-10-04T15:25	10	6	0.1	6	6	374	0.2	374	375	13.8	76.8
2025-10-04T15:26	10	6	0.1	5	6	374	0.2	374	375	13.6	78.2
2025-10-04T15:27	10	5	0.1	5	6	374	0.3	374	375	13.6	77.7
2025-10-04T15:28	10	5	0.1	5	5	374	0.2	374	375	13.8	76.2
2025-10-04T15:29	10	5	0.1	5	5	374	0.3	373	375	13.8	76.1
2025-10-04T15:30	10	5	0.2	5	6	374	0.2	374	374	13.7	76.9
2025-10-04T15:31	10	6	0.4	6	7	374	0.3	374	375	13.8	76.8
2025-10-04T15:32	10	7	0.1	7	7	374	0.2	374	375	13.8	75.7
2025-10-04T15:33	10	7	0.4	6	7	374	0.2	374	375	13.7	77.3
2025-10-04T15:34	10	5	0.2	5	6	374	0.2	374	375	13.8	76.3
2025-10-04T15:35	10	6	0.2	5	6	374	0.3	373	375	13.7	76.8
2025-10-04T15:36	10	6	0.1	6	6	374	0.3	373	374	13.4	79.9
2025-10-04T15:37	10	6	0.3	5	6	374	0.2	373	374	13.4	79.1
2025-10-04T15:38	10	4	0.3	4	5	374	0.3	373	374	13.6	77.8
2025-10-04T15:39	10	4	0.2	3	4	373	0.2	373	374	13.7	76.8
2025-10-04T15:40	10	3	0.1	3	3	374	0.2	373	374	13.7	76.6
2025-10-04T15:41	10	3	0.1	3	3	373	0.2	373	374	13.6	77.6
2025-10-04T15:42	10	3	0.2	2	3	373	0.2	373	374	13.6	76.4
2025-10-04T15:43	10	2	0.1	2	2	373	0.3	372	374	13.5	78.2
2025-10-04T15:44	10	2	0.2	2	3	373	0.3	372	374	13.5	78.3
2025-10-04T15:45	10	3	0.2	3	4	373	0.2	373	374	13.4	79.3
2025-10-04T15:46	10	3	0.1	3	4	373	0.2	373	374	13.4	79.7
2025-10-04T15:47	10	3	0.1	3	3	373	0.4	373	374	13.5	76.9
2025-10-04T15:48	10	3	0.2	3	4	373	0.3	372	373	13.5	77.3
2025-10-04T15:49	10	4	0.2	4	5	372	0.2	372	373	13.4	77.9
2025-10-04T15:50	10	5	0.2	4	5	373	0.2	372	373	13.3	78.6
2025-10-04T15:51	10	5	0.2	5	6	372	0.3	372	373	13.2	78.2
2025-10-04T15:52	10	6	0.1	6	6	372	0.3	371	372	13.3	76.4
2025-10-04T15:53	10	6	0.2	5	6	372	0.2	372	372	13.1	78.2
2025-10-04T15:54	10	5	0.3	4	6	372	0.3	371	372	13.1	77.0
2025-10-04T15:55	10	4	0.1	4	5	371	0.2	370	372	13.1	76.9
2025-10-04T15:56	10	5	0.1	5	5	371	0.3	370	372	12.9	78.9
2025-10-04T15:57	10	4	0.3	4	5	371	0.3	370	371	12.7	78.5
2025-10-04T15:58	10	3	0.5	2	4	370	0.2	370	371	12.8	79.3
2025-10-04T15:59	10	2	0.3	1	2	370	0.3	369	371	12.7	80.2
2025-10-04T16:00	10	1	0.2	1	1	370	0.3	369	370	12.6	79.6
2025-10-04T16:01	10	1	0.1	1	1	369	0.4	368	370	12.5	78.2
2025-10-04T16:02	10	1	0.1	1	1	368	0.3	367	369	12.3	77.4
2025-10-04T16:03	10	1	0.1	1	2	368	0.2	367	368	12.4	75.6
2025-10-04T16:04	10	2	0.2	1	2	367	0.2	367	368	12.3	75.9
2025-10-04T16:05	10	2	0.2	2	3	367	0.3	367	368	12.3	76.7
2025-10-04T16:06	10	3	0.2	3	4	367	0.3	367	368	12.2	78.1
2025-10-04T16:07	10	3	0.1	3	4	367	0.2	367	368	12.1	79.8
2025-10-04T16:08	10	3	0.2	3	3	367	0.2	367	368	12.0	80.6
2025-10-04T16:09	10	2	0.2	2	3	367	0.2	366	368	11.9	81.4
2025-10-04T16:10	10	2	0.1	2	2	366	0.3	366	367	11.8	82.7
2025-10-04T16:11	10	2	0.1	1	2	366	0.3	366	367	11.6	84.0
2025-10-04T16:12	10	2	0.1	1	2	366	0.3	365	367	11.5	84.1
2025-10-04T16:13	10	2	0.1	2	2	366	0.2	365	366	11.4	84.3
2025-10-04T16:14	10	3	0.2	2	3	365	0.4	364	366	11.4	83.7
2025-10-04T16:15	10	3	0.2	3	3	365	0.2	365	366	11.4	83.7
2025-10-04T16:16	10	3	0.2	3	3	365	0.2	365	366	11.4	83.1
2025-10-04T16:17	10	2	0.3	2	3	365	0.2	365	366	11.3	83.9
2025-10-04T16:18	10	1	0.2	1	2	365	0.2	364	365	11.3	83.2
2025-10-04T16:19	10	1	0.1	1	2	365	0.3	364	365	11.3	83.6
2025-10-04T16:20	10	2	0.1	1	2	364	0.2	364	365	11.2	83.3
2025-10-04T16:21	10	2	0.1	2	2	364	0.2	364	365	11.1	84.3
2025-10-04T16:22	10	2	0.1	2	2	364	0.2	363	364	11.1	83.8
2025-10-04T16:23	10	2	0.0	2	2	364	0.4	363	364	11.0	83.7
2025-10-04T16:24	10	2	0.1	2	3	364	0.2	363	364	10.9	85.0
2025-10-04T16:25	10	3	0.2	2	3	364	0.2	363	364	10.9	85.0
2025-10-04T16:26	10	3	0.2	2	3	363	0.2	363	364	10.8	86.1
2025-10-04T16:27	10	2	0.2	2	2	363	0.2	363	364	10.8	86.2
2025-10-04T16:28	10	2	0.1	1	2	363	0.2	363	363	10.8	86.7
2025-10-04T16:29	10	1	0.1	1	2	363	0.3	363	364	10.7	87.1
2025-10-04T16:30	10	1	0.1	1	1	363	0.2	362	363	10.7	86.0
2025-10-04T16:31	10	1	0.1	1	1	363	0.3	362	363	10.7	87.0
2025-10-04T16:32	10	1	0.1	1	1	363	0.2	362	363	10.6	86.5
2025-10-04T16:33	10	1	0.1	1	1	362	0.2	362	363	10.6	86.0
2025-10-04T16:34	10	4	2.4	1	8	362	0.4	362	363	10.6	86.0
2025-10-04T16:35	10	5	3.6	1	10	362	0.3	362	363	10.6	86.5
2025-10-04T16:36	10	1	0.1	1	1	362	0.2	362	363	10.6	84.8
2025-10-04T16:37	10	1	0.2	1	2	362	0.3	361	363	10.7	84.3
2025-10-04T16:38	10	2	0.1	1	2	362	0.2	362	363	10.7	83.6
2025-10-04T16:39	10	2	0.2	2	2	362	0.2	361	363	10.8	82.3
2025-10-04T16:40	10	2	0.2	2	3	362	0.2	361	362	10.9	81.1
2025-10-04T16:41	10	3	0.1	3	4	362	0.3	361	362	10.9	80.4
2025-10-04T16:42	10	4	0.2	3	4	362	0.2	361	362	11.0	79.9
2025-10-04T16:43	10	4	0.1	4	5	362	0.3	361	363	11.0	79.4
2025-10-04T16:44	10	4	0.2	4	4	362	0.2	361	362	11.0	79.8
2025-10-04T16:45	10	3	0.2	3	4	362	0.3	361	362	10.9	80.4
2025-10-04T16:46	10	3	0.1	3	3	362	0.2	361	362	11.0	79.4
2025-10-04T16:47	10	3	0.1	3	3	362	0.2	361	362	11.0	78.8
2025-10-04T16:48	10	3	0.2	3	4	361	0.2	361	362	11.0	79.3
2025-10-04T16:49	10	3	0.2	3	4	361	0.3	361	362	11.0	78.2
2025-10-04T16:50	10	5	0.7	4	6	362	0.3	361	362	11.0	78.8
2025-10-04T16:51	10	6	0.3	5	6	362	0.4	361	362	11.0	78.5
2025-10-04T16:52	10	4	0.4	4	5	361	0.2	361	362	11.0	77.7
2025-10-04T16:53	10	3	0.3	3	4	361	0.3	360	362	10.9	79.1
2025-10-04T16:54	10	3	0.1	2	3	361	0.3	360	361	10.8	81.1
2025-10-04T16:55	10	3	0.1	2	3	361	0.2	360	361	10.8	80.9
2025-10-04T16:56	10	3	0.2	2	3	361	0.3	360	361	10.8	81.1
2025-10-04T16:57	10	3	0.1	2	3	361	0.3	360	361	10.8	79.3
2025-10-04T16:58	10	2	0.2	2	3	360	0.3	360	361	10.8	79.2
2025-10-04T16:59	10	2	0.2	1	2	360	0.2	359	360	10.8	78.1
2025-10-04T17:00	10	2	0.1	1	2	359	0.3	359	360	10.7	79.4
2025-10-04T17:01	10	2	0.2	1	2	359	0.3	359	360	10.7	78.8
2025-10-04T17:02	10	2	0.1	2	3	359	0.3	358	360	10.8	77.7
2025-10-04T17:03	10	3	0.2	2	3	359	0.2	358	359	10.7	77.5
2025-10-04T17:04	10	3	0.1	3	3	359	0.3	359	360	10.7	76.8
2025-10-04T17:05	10	3	0.1	3	3	359	0.2	358	359	10.7	77.0
2025-10-04T17:06	10	3	0.1	2	3	359	0.2	358	359	10.6	77.6
2025-10-04T17:07	10	2	0.1	2	2	359	0.2	359	360	10.9	73.8
2025-10-04T17:08	10	2	0.1	2	2	359	0.2	358	359	10.9	74.6
2025-10-04T17:09	10	2	0.1	2	2	358	0.3	358	359	10.7	77.2
2025-10-04T17:10	10	2	0.1	2	2	358	0.2	358	358	10.6	78.1
2025-10-04T17:11	10	2	0.2	1	2	358	0.2	357	358	10.6	78.3
2025-10-04T17:12	10	1	0.2	1	2	358	0.3	357	358	10.6	78.3
2025-10-04T17:13	10	1	0.1	1	1	357	0.2	357	358	10.6	77.5
2025-10-04T17:14	10	1	0.0	1	1	357	0.2	356	357	10.7	77.3
2025-10-04T17:15	10	1	0.1	0	1	357	0.2	357	358	10.6	77.3
2025-10-04T17:16	10	1	0.1	0	1	357	0.3	357	358	10.5	77.9
2025-10-04T17:17	10	0	0.1	0	1	357	0.3	356	358	10.4	79.5
2025-10-04T17:18	10	0	0.1	0	1	356	0.3	356	357	10.3	80.7
2025-10-04T17:19	10	0	0.1	0	0	356	0.2	355	357	10.3	80.3
2025-10-04T17:20	10	0	0.1	0	0	356	0.2	355	356	10.2	80.6
2025-10-04T17:21	10	0	0.1	0	0	356	0.2	355	356	10.3	80.4
2025-10-04T17:22	10	0	0.1	0	0	356	0.3	355	356	10.4	79.2
2025-10-04T17:23	10	0	0.1	0	0	356	0.3	355	356	10.6	76.9
2025-10-04T17:24	10	0	0.1	0	0	356	0.2	355	356	10.6	77.3
2025-10-04T17:25	10	0	0.1	0	0	356	0.2	355	356	10.5	78.0
2025-10-04T17:26	10	0	0.1	0	0	355	0.3	354	356	10.5	77.6
2025-10-04T17:27	10	0	0.1	0	0	355	0.3	355	356	10.4	78.2
2025-10-04T17:28	10	0	0.1	0	0	355	0.3	355	356	10.4	78.0
2025-10-04T17:29	10	0	0.1	0	0	355	0.3	355	356	10.4	78.8
2025-10-04T17:30	10	0	0.1	0	0	355	0.3	355	356	10.3	79.3
2025-10-04T17:31	10	0	0.1	0	0	355	0.2	355	356	10.4	78.6
2025-10-04T17:32	10	0	0.1	0	0	356	0.2	355	356	10.6	76.4
2025-10-04T17:33	10	0	0.1	0	0	355	0.3	355	356	10.4	78.5
2025-10-04T17:34	10	0	0.1	0	0	356	0.3	355	356	10.5	77.9
2025-10-04T17:35	10	0	0.1	0	0	356	0.4	355	357	10.4	78.4
2025-10-04T17:36	10	0	0.1	0	0	357	0.2	356	357	10.6	77.0
2025-10-04T17:37	10	0	0.1	0	0	357	0.3	357	358	10.7	76.2
2025-10-04T17:38	10	0	0.1	0	0	357	0.2	356	357	10.8	76.2
2025-10-04T17:39	10	0	0.1	0	0	357	0.2	357	358	10.7	76.2
2025-10-04T17:40	10	0	0.1	0	0	357	0.3	356	358	10.8	75.4
2025-10-04T17:41	10	0	0.1	0	0	357	0.3	357	358	10.7	76.8
2025-10-04T17:42	10	0	0.1	0	0	358	0.3	357	358	10.9	73.8
2025-10-04T17:43	10	0	0.1	0	0	358	0.3	357	358	10.9	74.3
2025-10-04T17:44	10	0	0.1	0	0	358	0.3	357	359	10.8	74.8
2025-10-04T17:45	10	0	0.1	0	0	358	0.3	357	359	10.7	75.7
2025-10-04T17:46	10	0	0.1	0	0	358	0.2	358	358	10.6	76.6
2025-10-04T17:47	10	0	0.1	0	0	358	0.3	357	358	10.6	77.0
2025-10-04T17:48	10	0	0.1	0	0	358	0.2	358	358	10.6	76.9
2025-10-04T17:49	10	0	0.1	0	0	358	0.2	358	359	10.6	76.5
2025-10-04T17:50	10	0	0.1	0	0	359	0.3	358	359	10.7	76.1
2025-10-04T17:51	10	0	0.1	0	0	358	0.2	358	359	10.6	77.4
2025-10-04T17:52	10	0	0.1	0	0	359	0.2	358	359	10.6	77.0
2025-10-04T17:53	10	0	0.1	0	0	359	0.2	358	359	10.7	76.8
2025-10-04T17:54	10	0	0.1	0	0	359	0.3	358	359	10.8	75.8
2025-10-04T17:55	10	0	0.1	0	0	359	0.2	358	359	10.7	76.3
2025-10-04T17:56	10	0	0.1	0	0	358	0.2	358	359	10.6	77.5
2025-10-04T17:57	10	0	0.1	0	0	358	0.2	358	359	10.6	77.9
2025-10-04T17:58	10	0	0.1	0	0	359	0.2	358	359	10.7	76.6
2025-10-04T17:59	10	0	0.1	0	0	358	0.2	358	359	10.6	77.5
2025-10-04T18:00	10	0	0.1	0	0	359	0.2	358	359	10.6	76.9
2025-10-04T18:01	10	0	0.1	0	0	359	0.3	358	359	10.6	78.1
2025-10-04T18:02	10	0	0.1	0	0	359	0.2	359	360	10.6	78.2
2025-10-04T18:03	10	0	0.1	0	0	359	0.3	358	359	10.5	78.8
2025-10-04T18:04	10	0	0.1	0	0	359	0.2	358	359	10.5	78.5
2025-10-04T18:05	10	0	0.1	0	0	359	0.2	358	359	10.5	78.9
2025-10-04T18:06	10	0	0.1	0	0	359	0.3	358	359	10.5	79.2
2025-10-04T18:07	10	0	0.1	0	0	359	0.2	358	359	10.5	79.0
2025-10-04T18:08	10	0	0.1	0	0	359	0.2	358	359	10.5	79.1
2025-10-04T18:09	10	0	0.1	0	0	359	0.2	358	359	10.5	78.9
2025-10-04T18:10	10	0	0.1	0	0	359	0.2	358	359	10.5	78.3
2025-10-04T18:11	10	0	0.1	0	0	359	0.2	358	359	10.6	77.7
2025-10-04T18:12	10	0	0.1	0	0	359	0.3	358	359	10.6	78.1
2025-10-04T18:13	10	0	0.1	0	0	359	0.2	358	359	10.5	78.3
2025-10-04T18:14	10	0	0.1	0	0	359	0.2	358	359	10.6	78.1
2025-10-04T18:15	10	0	0.1	0	0	359	0.3	358	359	10.5	78.1
2025-10-04T18:16	10	0	0.1	0	0	358	0.2	358	359	10.6	77.7
2025-10-04T18:17	10	0	0.1	0	1	359	0.2	358	359	10.6	76.9
2025-10-04T18:18	10	0	0.1	0	0	359	0.2	358	359	10.6	76.6
2025-10-04T18:19	10	0	0.1	0	0	359	0.2	358	359	10.6	77.3
2025-10-04T18:20	10	0	0.1	0	0	358	0.3	358	359	10.6	77.7
2025-10-04T18:21	10	0	0.1	0	0	358	0.2	358	359	10.5	77.8
2025-10-04T18:22	10	0	0.1	0	0	359	0.2	358	359	10.6	77.6
2025-10-04T18:23	10	0	0.1	0	0	359	0.2	358	359	10.6	77.3
2025-10-04T18:24	10	0	0.1	0	0	359	0.2	358	359	10.5	78.3
2025-10-04T18:25	10	0	0.1	0	0	359	0.2	358	359	10.5	77.8
2025-10-04T18:26	10	0	0.1	0	0	359	0.3	358	359	10.6	77.7
2025-10-04T18:27	10	0	0.1	0	0	359	0.3	358	359	10.5	78.4
2025-10-04T18:28	10	0	0.1	0	0	359	0.2	358	359	10.5	77.7
2025-10-04T18:29	10	0	0.1	0	0	359	0.2	358	359	10.6	77.8
2025-10-04T18:30	10	0	0.1	0	0	359	0.3	358	359	10.6	77.6
2025-10-04T18:31	10	0	0.1	0	1	359	0.3	358	359	10.6	77.1
2025-10-04T18:32	10	0	0.1	0	0	359	0.2	358	359	10.6	76.2
2025-10-04T18:33	10	0	0.1	0	0	359	0.3	358	359	10.6	77.2
2025-10-04T18:34	10	0	0.1	0	0	359	0.2	358	359	10.5	79.0
2025-10-04T18:35	10	0	0.1	0	0	358	0.2	358	359	10.4	79.0
2025-10-04T18:36	10	0	0.1	0	0	358	0.3	358	359	10.4	79.3
2025-10-04T18:37	10	0	0.1	0	0	358	0.3	358	359	10.4	78.7
2025-10-04T18:38	10	0	0.1	0	0	358	0.3	358	359	10.5	78.2
2025-10-04T18:39	10	0	0.1	0	0	358	0.2	358	359	10.4	79.0
2025-10-04T18:40	10	0	0.1	0	0	358	0.2	358	359	10.3	80.3
2025-10-04T18:41	10	0	0.1	0	1	358	0.2	358	359	10.4	79.4
2025-10-04T18:42	10	0	0.1	0	0	359	0.3	358	359	10.5	78.2
2025-10-04T18:43	10	0	0.1	0	0	359	0.3	358	359	10.6	76.9
2025-10-04T18:44	10	0	0.1	0	1	359	0.3	358	360	10.7	75.8
2025-10-04T18:45	10	0	0.1	0	1	359	0.2	358	360	10.8	74.4
2025-10-04T18:46	10	0	0.1	0	1	359	0.2	358	359	10.7	76.4
2025-10-04T18:47	10	0	0.1	0	1	359	0.3	358	359	10.5	78.7
2025-10-04T18:48	10	0	0.1	0	1	359	0.3	358	359	10.6	77.0
2025-10-04T18:49	10	0	0.1	0	1	359	0.2	358	359	10.7	75.7
2025-10-04T18:50	10	0	0.1	0	1	359	0.2	359	360	10.7	75.5
2025-10-04T18:51	10	0	0.1	0	1	359	0.3	358	360	10.7	75.8
2025-10-04T18:52	10	0	0.1	0	1	359	0.2	358	359	10.7	76.5
2025-10-04T18:53	10	0	0.1	0	1	359	0.3	358	359	10.5	78.6
2025-10-04T18:54	10	0	0.1	0	0	359	0.3	358	359	10.4	80.8
2025-10-04T18:55	10	0	0.1	0	0	358	0.3	358	359	10.3	81.5
2025-10-04T18:56	10	0	0.1	0	0	358	0.3	358	359	10.3	81.4
2025-10-04T18:57	10	0	0.1	0	0	358	0.2	358	359	10.2	82.5
2025-10-04T18:58	10	0	0.1	0	0	358	0.4	358	359	10.2	82.0
2025-10-04T18:59	10	0	0.1	0	0	359	0.2	358	359	10.3	81.9
2025-10-04T19:00	10	0	0.1	0	0	358	0.2	358	359	10.3	82.0
2025-10-04T19:01	10	0	0.1	0	0	358	0.2	358	359	10.2	83.1
2025-10-04T19:02	10	0	0.1	0	0	358	0.2	358	359	10.1	84.0
2025-10-04T19:03	10	0	0.1	0	0	358	0.2	358	358	10.1	83.8
2025-10-04T19:04	10	0	0.1	0	0	358	0.3	357	359	10.1	83.8
2025-10-04T19:05	10	0	0.1	0	0	358	0.2	358	359	10.1	83.9
2025-10-04T19:06	10	0	0.1	0	0	358	0.2	358	359	10.4	80.3
2025-10-04T19:07	10	0	0.1	0	0	358	0.2	358	359	10.3	82.0
2025-10-04T19:08	10	0	0.1	0	0	358	0.2	358	359	10.2	82.7
2025-10-04T19:09	10	0	0.1	0	0	358	0.3	358	359	10.3	81.4
2025-10-04T19:10	10	0	0.1	0	0	359	0.3	358	359	10.4	79.8
2025-10-04T19:11	10	0	0.1	0	0	359	0.2	358	359	10.5	79.4
2025-10-04T19:12	10	0	0.1	0	1	359	0.3	358	359	10.4	81.2
2025-10-04T19:13	10	0	0.1	0	0	358	0.3	358	359	10.3	82.4
2025-10-04T19:14	10	0	0.1	0	0	359	0.3	358	359	10.2	83.3
2025-10-04T19:15	10	0	0.1	0	0	358	0.3	358	359	10.2	82.9
2025-10-04T19:16	10	0	0.1	0	0	358	0.2	358	359	10.2	83.3
2025-10-04T19:17	10	0	0.1	0	0	358	0.2	358	359	10.2	83.5
2025-10-04T19:18	10	0	0.1	0	0	358	0.2	358	358	10.2	82.7
2025-10-04T19:19	10	0	0.1	0	1	358	0.2	358	359	10.2	82.2
2025-10-04T19:20	10	0	0.1	0	0	358	0.2	358	359	10.4	79.9
2025-10-04T19:21	10	0	0.1	0	0	358	0.2	358	359	10.5	78.1
2025-10-04T19:22	10	0	0.1	0	1	358	0.2	358	359	10.6	77.2
2025-10-04T19:23	10	0	0.1	0	1	359	0.3	358	359	10.6	76.4
2025-10-04T19:24	10	0	0.1	0	1	359	0.2	358	359	10.9	73.7
2025-10-04T19:25	10	0	0.1	0	1	359	0.3	358	360	10.9	73.9
2025-10-04T19:26	10	0	0.1	0	1	359	0.3	358	359	10.9	74.3
2025-10-04T19:27	10	0	0.1	0	1	359	0.3	358	359	10.9	71.8
2025-10-04T19:28	10	0	0.1	0	1	358	0.3	358	359	10.9	74.3
2025-10-04T19:29	10	0	0.1	0	0	358	0.3	357	359	10.9	74.3
2025-10-04T19:30	10	0	0.1	0	0	358	0.3	357	359	10.9	74.3
2025-10-04T19:31	10	0	0.1	0	0	358	0.3	357	358	10.9	74.3
2025-10-04T19:32	10	0	0.1	0	0	357	0.2	357	358	10.9	74.3
2025-10-04T19:33	10	0	0.1	-1	0	357	0.3	357	358	10.9	74.3
2025-10-04T19:34	10	0	0.1	-1	0	357	0.2	357	358	10.2	82.2
2025-10-04T19:35	10	0	0.1	-1	0	358	0.3	357	358	10.1	83.1
2025-10-04T19:36	10	0	0.1	0	0	357	0.3	357	358	10.1	83.2
2025-10-04T19:37	10	0	0.1	0	0	357	0.2	357	358	10.2	82.0
2025-10-04T19:38	10	0	0.1	0	0	358	0.3	357	359	10.3	80.0
2025-10-04T19:39	10	0	0.1	0	0	358	0.3	357	358	10.4	78.5
2025-10-04T19:40	10	0	0.1	0	0	358	0.3	357	358	10.5	77.3
2025-10-04T19:41	10	0	0.1	0	0	358	0.3	357	359	10.5	77.5
2025-10-04T19:42	10	0	0.1	0	0	358	0.2	357	358	10.5	78.0
2025-10-04T19:43	10	0	0.1	0	0	358	0.2	357	358	10.6	76.9
2025-10-04T19:44	10	0	0.1	0	0	358	0.3	357	359	10.5	76.9
2025-10-04T19:45	10	0	0.1	0	0	358	0.3	357	359	10.5	78.0
2025-10-04T19:46	10	0	0.1	0	1	358	0.2	357	358	10.4	78.2
2025-10-04T19:47	10	0	0.1	0	0	358	0.2	357	358	10.5	77.2
2025-10-04T19:48	10	0	0.1	0	1	358	0.2	357	358	10.5	77.9
2025-10-04T19:49	10	0	0.1	0	1	358	0.2	357	358	10.4	78.3
2025-10-04T19:50	10	0	0.1	0	0	358	0.2	357	358	10.4	78.5
2025-10-04T19:51	10	0	0.1	0	0	358	0.3	357	358	10.3	79.2
2025-10-04T19:52	10	0	0.1	0	0	357	0.2	357	358	10.3	79.7
2025-10-04T19:53	10	0	0.1	0	0	358	0.3	357	359	10.3	79.2
2025-10-04T19:54	10	0	0.1	0	0	358	0.2	357	358	10.3	79.4
2025-10-04T19:55	10	0	0.1	0	0	357	0.3	357	358	10.3	79.4
2025-10-04T19:56	10	0	0.1	0	0	357	0.2	357	358	10.3	79.8
2025-10-04T19:57	10	0	0.1	0	0	357	0.2	357	358	10.3	80.1
2025-10-04T19:58	10	0	0.1	0	0	357	0.3	357	358	10.3	80.1
2025-10-04T19:59	10	0	0.1	0	0	357	0.2	357	358	10.3	80.7
2025-10-04T20:00	10	0	0.1	0	0	358	0.2	357	358	10.3	80.8
2025-10-04T20:01	10	0	0.1	0	0	358	0.2	357	358	10.3	80.6
2025-10-04T20:02	10	0	0.1	0	0	358	0.2	357	358	10.3	81.3
2025-10-04T20:03	10	0	0.1	0	0	358	0.2	357	358	10.2	81.5
2025-10-04T20:04	10	0	0.1	0	0	358	0.3	357	358	10.3	81.2
2025-10-04T20:05	10	0	0.1	0	0	358	0.3	357	359	10.3	81.0
2025-10-04T20:06	10	0	0.1	0	0	358	0.3	357	359	10.2	82.0
2025-10-04T20:07	10	0	0.1	0	1	358	0.3	357	358	10.2	82.4
2025-10-04T20:08	10	0	0.1	0	1	358	0.3	357	358	10.2	82.2
2025-10-04T20:09	10	0	0.1	0	0	358	0.2	357	358	10.2	82.6
2025-10-04T20:10	10	0	0.1	0	1	358	0.2	357	358	10.2	82.0
2025-10-04T20:11	10	0	0.1	0	0	358	0.3	357	358	10.2	82.8
2025-10-04T20:12	10	0	0.1	0	0	358	0.2	357	358	10.2	83.1
2025-10-04T20:13	10	0	0.1	0	0	358	0.2	357	358	10.2	83.3
2025-10-04T20:14	10	0	0.1	0	0	358	0.2	357	358	10.2	83.4
2025-10-04T20:15	10	0	0.1	0	0	358	0.2	357	358	10.2	83.3
2025-10-04T20:16	10	0	0.1	0	0	358	0.3	358	358	10.2	82.3
2025-10-04T20:17	10	0	0.1	0	1	358	0.2	358	359	10.4	79.7
2025-10-04T20:18	10	0	0.1	0	0	358	0.2	358	359	10.5	78.2
2025-10-04T20:19	10	0	0.1	0	1	358	0.3	357	359	10.5	77.4
2025-10-04T20:20	10	0	0.1	0	1	358	0.2	358	358	10.4	78.3
2025-10-04T20:21	10	0	0.1	0	1	358	0.2	357	358	10.4	75.5
2025-10-04T20:22	10	0	0.1	0	1	358	0.2	358	358	10.5	72.8
2025-10-04T20:23	10	0	0.1	0	1	358	0.2	358	358	10.5	73.1
2025-10-04T20:24	10	0	0.1	0	1	358	0.2	358	358	10.5	72.3
2025-10-04T20:25	10	0	0.1	0	1	357	0.3	357	358	10.4	72.4
2025-10-04T20:26	10	0	0.1	0	1	357	0.2	357	358	10.4	73.7
2025-10-04T20:27	10	0	0.1	0	1	357	0.3	357	358	10.3	73.9
2025-10-04T20:28	10	0	0.1	0	1	357	0.2	357	358	10.2	73.6
2025-10-04T20:29	10	0	0.1	0	1	357	0.2	357	358	10.2	74.3
2025-10-04T20:30	10	0	0.1	0	1	357	0.2	357	358	10.3	73.5
2025-10-04T20:31	10	0	0.1	0	0	357	0.3	357	358	10.4	71.1
2025-10-04T20:32	10	0	0.1	0	0	357	0.3	357	358	10.4	71.7
2025-10-04T20:33	10	0	0.1	0	0	357	0.2	356	357	10.4	71.8
2025-10-04T20:34	10	0	0.1	0	0	357	0.2	356	357	10.3	72.8
2025-10-04T20:35	10	0	0.1	0	0	357	0.2	356	357	10.3	72.8
2025-10-04T20:36	10	0	0.1	0	0	357	0.3	356	357	10.3	73.0
2025-10-04T20:37	10	0	0.1	0	0	357	0.3	356	357	10.3	73.6
2025-10-04T20:38	10	0	0.1	0	0	357	0.2	356	357	10.3	73.1
2025-10-04T20:39	10	0	0.1	0	0	356	0.2	356	357	10.4	71.9
2025-10-04T20:40	10	0	0.1	0	0	356	0.2	356	357	10.4	71.7
2025-10-04T20:41	10	0	0.1	0	0	356	0.2	356	356	10.4	72.0
2025-10-04T20:42	10	0	0.1	0	0	356	0.2	356	357	10.3	72.7
2025-10-04T20:43	10	0	0.1	0	0	356	0.2	356	357	10.2	73.8
2025-10-04T20:44	10	0	0.1	0	1	356	0.3	356	357	10.2	74.2
2025-10-04T20:45	10	0	0.1	0	1	356	0.2	356	357	10.2	74.8
2025-10-04T20:46	10	0	0.1	0	1	357	0.2	356	357	10.1	75.1
2025-10-04T20:47	10	0	0.1	0	1	357	0.3	356	357	10.1	75.4
2025-10-04T20:48	10	0	0.1	0	1	356	0.2	355	357	10.1	75.8
2025-10-04T20:49	10	0	0.1	0	1	355	0.3	354	356	10.0	76.0
2025-10-04T20:50	10	0	0.1	0	0	355	0.2	354	355	9.8	78.1
2025-10-04T20:51	10	0	0.1	0	0	354	0.3	354	355	9.6	80.4
2025-10-04T20:52	10	0	0.1	0	0	354	0.2	354	355	9.5	81.8
2025-10-04T20:53	10	0	0.1	-1	0	354	0.2	354	355	9.8	79.1
2025-10-04T20:54	10	-1	0.1	-1	-1	354	0.3	354	355	9.8	81.2
2025-10-04T20:55	10	-1	0.1	-1	-1	354	0.3	353	355	9.9	79.2
2025-10-04T20:56	10	-1	0.1	-1	-1	355	0.3	354	355	10.0	77.1
2025-10-04T20:57	10	-1	0.1	-1	-1	354	0.2	354	354	9.8	79.5
2025-10-04T20:58	10	-1	0.1	-1	-1	354	0.2	354	355	9.6	81.9
2025-10-04T20:59	10	-1	0.1	-1	-1	354	0.3	353	355	9.4	84.8
2025-10-04T21:00	10	-1	0.1	-1	-1	354	0.2	353	354	9.3	86.0
2025-10-04T21:01	10	-1	0.1	-1	-1	354	0.3	353	354	9.4	83.4
2025-10-04T21:02	10	-1	0.1	-1	-1	353	0.5	352	354	9.3	81.8
2025-10-04T21:03	10	-1	0.1	-2	-1	352	0.3	351	353	9.1	81.2
2025-10-04T21:04	10	-2	0.1	-2	-1	352	0.4	351	352	9.1	80.2
2025-10-04T21:05	10	-2	0.1	-2	-2	350	1.4	347	352	8.9	80.7
2025-10-04T21:06	10	-2	0.2	-3	-2	346	0.7	346	348	8.5	77.7
2025-10-04T21:07	10	-3	0.1	-3	-3	346	0.5	345	347	8.5	78.9
2025-10-04T21:08	10	-3	0.1	-3	-3	347	0.5	346	348	8.5	85.6
2025-10-04T21:09	10	-3	0.1	-3	-3	348	0.2	347	348	8.4	86.3
2025-10-04T21:10	10	-3	0.1	-3	-3	348	0.4	348	349	8.3	85.9
2025-10-04T21:11	10	-3	0.1	-3	-3	349	0.3	348	349	8.4	82.5
2025-10-04T21:12	10	-3	0.1	-3	-2	348	0.2	348	349	8.5	82.3
2025-10-04T21:13	10	-2	0.1	-3	-2	349	0.4	348	349	8.6	81.4
2025-10-04T21:14	10	-2	0.1	-3	-2	349	0.3	348	350	8.7	79.5
2025-10-04T21:15	10	-2	0.1	-2	-2	349	0.4	348	350	8.6	81.5
2025-10-04T21:16	10	-2	0.2	-2	-1	349	0.3	349	350	8.8	80.2
2025-10-04T21:17	10	-2	0.1	-2	-1	349	0.3	349	350	8.7	81.7
2025-10-04T21:18	10	-1	0.1	-2	-1	349	0.3	349	350	8.6	83.0
2025-10-04T21:19	10	-1	0.1	-2	-1	349	0.3	348	350	8.6	83.0
2025-10-04T21:20	10	-1	0.1	-1	-1	349	0.2	348	349	8.4	84.5
2025-10-04T21:21	10	-1	0.2	-1	-1	349	0.3	348	350	8.4	84.3
2025-10-04T21:22	10	-1	0.1	-1	-1	349	0.3	349	350	8.5	84.1
2025-10-04T21:23	10	-1	0.2	-1	0	349	0.2	349	350	8.6	84.3
2025-10-04T21:24	10	-1	0.1	-1	0	350	0.2	349	350	8.6	84.2
2025-10-04T21:25	10	-1	0.1	-1	0	350	0.3	349	350	8.5	85.3
2025-10-04T21:26	10	-1	0.2	-1	0	350	0.3	349	351	8.5	85.3
2025-10-04T21:27	10	0	0.1	-1	0	350	0.3	349	351	8.6	84.0
2025-10-04T21:28	10	0	0.1	-1	0	350	0.2	350	351	8.8	82.3
2025-10-04T21:29	10	0	0.1	-1	0	350	0.2	349	350	8.7	83.6
2025-10-04T21:30	10	0	0.1	-1	0	350	0.2	349	351	8.7	84.9
2025-10-04T21:31	10	-1	0.1	-1	0	350	0.3	349	350	8.6	86.0
2025-10-04T21:32	10	0	0.1	-1	0	350	0.3	349	351	8.6	86.5
2025-10-04T21:33	10	0	0.1	-1	0	350	0.3	349	350	8.7	85.7
2025-10-04T21:34	10	0	0.1	-1	0	349	0.3	349	350	8.7	86.1
2025-10-04T21:35	10	0	0.1	-1	0	349	0.3	348	350	8.6	87.8
2025-10-04T21:36	10	0	0.1	-1	0	348	0.3	347	349	8.6	87.9
2025-10-04T21:37	10	0	0.1	0	0	348	0.3	347	348	8.6	88.2
2025-10-04T21:38	10	0	0.1	-1	0	348	0.2	347	348	8.6	88.3
2025-10-04T21:39	10	0	0.1	0	0	347	0.2	347	348	8.5	88.6
2025-10-04T21:40	10	0	0.1	-1	0	347	0.2	347	348	8.6	88.1
2025-10-04T21:41	10	0	0.1	-1	0	347	0.2	346	347	8.5	88.4
2025-10-04T21:42	10	0	0.1	-1	0	346	0.3	346	347	8.4	89.3
2025-10-04T21:43	10	0	0.1	0	0	347	0.2	346	347	8.5	88.7
2025-10-04T21:44	10	0	0.1	-1	0	347	0.2	346	347	8.5	87.7
2025-10-04T21:45	10	0	0.1	-1	0	347	0.2	346	347	8.5	88.3
2025-10-04T21:46	10	0	0.0	-1	0	347	0.2	347	348	8.4	88.4
2025-10-04T21:47	10	-1	0.0	-1	0	347	0.3	347	348	8.4	88.7
2025-10-04T21:48	10	0	0.1	-1	0	347	0.2	347	348	8.4	88.2
2025-10-04T21:49	10	0	0.1	-1	0	347	0.2	346	347	8.4	88.1
2025-10-04T21:50	10	0	0.1	-1	0	347	0.3	346	347	8.4	88.2
2025-10-04T21:51	10	0	0.1	-1	0	347	0.3	347	348	8.5	87.6
2025-10-04T21:52	10	0	0.1	-1	0	348	0.2	347	348	8.4	87.8
2025-10-04T21:53	10	0	0.1	-1	0	348	0.2	348	349	8.4	87.7
2025-10-04T21:54	10	0	0.1	-1	0	348	0.3	348	349	8.4	88.4
2025-10-04T21:55	10	0	0.1	-1	0	349	0.3	348	349	8.4	88.8
2025-10-04T21:56	10	0	0.0	0	0	349	0.3	349	350	8.4	88.8
2025-10-04T21:57	10	0	0.1	0	0	349	0.2	349	350	8.4	88.4
2025-10-04T21:58	10	0	0.1	0	0	350	0.2	349	350	8.5	88.2
2025-10-04T21:59	10	0	0.1	0	0	350	0.3	349	350	8.4	89.2
2025-10-04T22:00	10	0	0.1	0	0	350	0.3	349	351	8.4	88.9
2025-10-04T22:01	10	0	0.1	0	0	350	0.3	349	350	8.5	88.3
2025-10-04T22:02	10	0	0.1	0	0	350	0.2	350	350	8.6	87.9
2025-10-04T22:03	10	0	0.0	0	0	350	0.2	350	351	8.6	87.8
2025-10-04T22:04	10	0	0.1	0	0	350	0.3	350	351	8.6	87.8
2025-10-04T22:05	10	0	0.1	0	0	350	0.3	350	351	8.6	88.4
2025-10-04T22:06	10	0	0.1	0	0	350	0.2	350	351	8.5	89.1
2025-10-04T22:07	10	0	0.1	0	0	350	0.2	350	351	8.5	88.9
2025-10-04T22:08	10	0	0.1	0	0	350	0.2	350	351	8.6	88.6
2025-10-04T22:09	10	0	0.1	0	0	350	0.2	350	351	8.6	88.4
2025-10-04T22:10	10	0	0.1	0	0	350	0.2	350	351	8.6	87.9
2025-10-04T22:11	10	0	0.1	0	0	350	0.3	349	350	8.7	87.7
2025-10-04T22:12	10	0	0.1	0	0	350	0.2	349	350	8.6	88.3
2025-10-04T22:13	10	0	0.1	0	0	349	0.3	349	350	8.6	88.7
2025-10-04T22:14	10	0	0.1	0	0	349	0.2	349	350	8.7	88.1
2025-10-04T22:15	10	0	0.1	0	0	349	0.3	348	349	8.7	88.3
2025-10-04T22:16	10	0	0.1	0	0	348	0.3	348	349	8.7	88.0
2025-10-04T22:17	10	0	0.1	0	0	348	0.3	347	349	8.7	87.9
2025-10-04T22:18	10	0	0.1	0	0	348	0.3	347	349	8.8	87.6
2025-10-04T22:19	10	0	0.1	0	0	348	0.2	348	349	8.7	87.8
2025-10-04T22:20	10	0	0.1	0	0	348	0.2	348	349	8.8	87.2
2025-10-04T22:21	10	0	0.1	0	0	349	0.2	348	349	8.8	87.1
2025-10-04T22:22	10	0	0.1	0	0	348	0.3	348	349	8.8	87.2
2025-10-04T22:23	10	0	0.0	0	0	348	0.3	347	349	8.8	87.4
2025-10-04T22:24	10	0	0.1	0	0	348	0.4	347	349	8.7	88.1
2025-10-04T22:25	10	0	0.1	0	0	348	0.2	347	348	8.7	88.8
2025-10-04T22:26	10	0	0.0	0	0	348	0.3	347	348	8.6	89.2
2025-10-04T22:27	10	0	0.1	0	0	347	0.2	347	348	8.6	89.7
2025-10-04T22:28	10	0	0.1	0	0	348	0.2	347	348	8.6	89.6
2025-10-04T22:29	10	0	0.1	0	0	348	0.3	347	349	8.6	89.6
2025-10-04T22:30	10	0	0.1	0	0	348	0.3	348	349	8.6	90.1
2025-10-04T22:31	10	0	0.1	0	0	349	0.3	348	349	8.7	89.0
2025-10-04T22:32	10	0	0.1	0	0	349	0.2	348	349	8.7	89.2
2025-10-04T22:33	10	0	0.1	0	0	349	0.2	348	349	8.7	89.6
2025-10-04T22:34	10	0	0.1	0	0	349	0.3	348	350	8.7	89.6
2025-10-04T22:35	10	0	0.1	0	0	349	0.2	348	349	8.6	90.0
2025-10-04T22:36	10	0	0.0	0	0	348	0.2	348	349	8.5	91.0
2025-10-04T22:37	10	0	0.1	0	0	348	0.2	348	349	8.4	91.6
2025-10-04T22:38	10	0	0.1	0	0	348	0.2	348	348	8.4	92.1
2025-10-04T22:39	10	0	0.1	0	0	348	0.3	348	349	8.5	91.5
2025-10-04T22:40	10	0	0.1	0	0	348	0.2	348	349	8.5	91.2
2025-10-04T22:41	10	0	0.1	0	0	348	0.2	348	349	8.4	91.6
2025-10-04T22:42	10	0	0.1	0	0	348	0.2	348	349	8.4	91.7
2025-10-04T22:43	10	0	0.1	0	0	348	0.3	348	349	8.4	92.3
2025-10-04T22:44	10	0	0.1	0	0	348	0.2	347	349	8.4	92.3
2025-10-04T22:45	10	0	0.1	0	0	348	0.2	348	349	8.3	92.6
2025-10-04T22:46	10	0	0.1	0	0	348	0.2	348	349	8.3	92.4
2025-10-04T22:47	10	0	0.1	0	0	348	0.2	348	349	8.4	92.3
2025-10-04T22:48	10	0	0.1	0	0	349	0.2	348	349	8.4	91.5
2025-10-04T22:49	10	0	0.1	0	0	349	0.2	348	350	8.5	91.2
2025-10-04T22:50	10	0	0.1	0	0	349	0.2	348	349	8.5	90.9
2025-10-04T22:51	10	0	0.1	0	0	349	0.2	349	350	8.5	91.1
2025-10-04T22:52	10	0	0.1	0	0	349	0.2	348	350	8.5	91.8
2025-10-04T22:53	10	0	0.1	0	0	349	0.2	349	350	8.5	91.8
2025-10-04T22:54	10	0	0.1	0	0	349	0.2	349	350	8.5	91.2
2025-10-04T22:55	10	0	0.0	0	0	349	0.3	349	350	8.6	90.7
2025-10-04T22:56	10	0	0.1	0	0	350	0.3	349	350	8.7	89.5
2025-10-04T22:57	10	0	0.1	0	0	350	0.3	349	350	8.8	89.1
2025-10-04T22:58	10	0	0.1	0	0	350	0.3	349	351	8.9	88.2
2025-10-04T22:59	10	0	0.1	0	0	350	0.2	350	351	8.9	87.8
2025-10-04T23:00	10	0	0.0	0	0	350	0.2	350	351	9.0	86.4
2025-10-04T23:01	10	0	0.1	0	0	350	0.2	350	351	9.1	85.8
2025-10-04T23:02	10	0	0.1	0	0	351	0.2	350	351	9.2	84.7
2025-10-04T23:03	10	0	0.1	0	0	350	0.2	350	351	9.1	84.8
2025-10-04T23:04	10	0	0.1	0	0	350	0.3	350	351	9.1	84.6
2025-10-04T23:05	10	0	0.1	0	0	350	0.2	350	350	9.1	84.7
2025-10-04T23:06	10	0	0.1	0	0	350	0.2	350	351	9.1	84.1
2025-10-04T23:07	10	0	0.1	0	0	350	0.3	350	351	9.1	84.0
2025-10-04T23:08	10	0	0.0	0	0	350	0.2	350	351	9.2	83.3
2025-10-04T23:09	10	0	0.1	0	0	350	0.2	350	351	9.1	84.3
2025-10-04T23:10	10	0	0.0	0	0	350	0.2	350	351	9.1	84.7
2025-10-04T23:11	10	0	0.1	0	0	350	0.3	350	351	9.1	84.1
2025-10-04T23:12	10	0	0.1	0	0	350	0.2	350	351	9.1	84.6
2025-10-04T23:13	10	0	0.1	0	0	350	0.2	350	351	9.2	83.2
2025-10-04T23:14	10	0	0.1	0	0	350	0.2	349	350	9.2	83.2
2025-10-04T23:15	10	0	0.1	0	0	350	0.2	350	351	9.2	83.3
2025-10-04T23:16	10	0	0.1	0	0	350	0.2	350	351	9.2	83.1
2025-10-04T23:17	10	0	0.1	0	0	350	0.2	350	351	9.2	82.6
2025-10-04T23:18	10	0	0.1	0	0	350	0.2	350	351	9.2	82.5
2025-10-04T23:19	10	0	0.1	0	0	350	0.2	350	351	9.2	82.8
2025-10-04T23:20	10	0	0.0	0	0	350	0.2	350	351	9.2	82.7
2025-10-04T23:21	10	0	0.1	0	0	350	0.2	350	350	9.1	82.9
2025-10-04T23:22	10	0	0.0	0	0	350	0.2	350	351	9.1	83.3
2025-10-04T23:23	10	0	0.1	0	0	350	0.2	349	350	9.1	82.9
2025-10-04T23:24	10	0	0.1	0	0	350	0.2	350	351	9.1	83.1
2025-10-04T23:25	10	0	0.1	0	0	350	0.2	349	350	8.9	84.9
2025-10-04T23:26	10	0	0.0	0	0	350	0.2	349	350	8.9	85.0
2025-10-04T23:27	10	0	0.1	0	0	350	0.2	349	350	8.9	84.5
2025-10-04T23:28	10	0	0.1	0	0	350	0.3	349	351	9.0	84.0
2025-10-04T23:29	10	0	0.1	0	0	350	0.2	349	350	9.0	83.5
2025-10-04T23:30	10	0	0.1	0	0	350	0.2	349	350	9.0	83.9
2025-10-04T23:31	10	0	0.1	0	0	350	0.2	349	350	8.9	84.4
2025-10-04T23:32	10	0	0.1	0	0	350	0.2	349	350	8.9	84.3
2025-10-04T23:33	10	0	0.1	0	0	349	0.2	349	350	8.9	84.5
2025-10-04T23:34	10	0	0.1	0	0	349	0.3	349	350	8.9	83.9
2025-10-04T23:35	10	0	0.1	0	0	349	0.3	349	350	8.9	84.2
2025-10-04T23:36	10	0	0.1	0	0	349	0.2	348	350	8.8	84.8
2025-10-04T23:37	10	0	0.1	0	0	349	0.3	348	350	8.8	84.9
2025-10-04T23:38	10	0	0.1	0	0	349	0.2	348	350	8.8	84.5
2025-10-04T23:39	10	0	0.1	0	0	349	0.2	349	350	8.8	84.3
2025-10-04T23:40	10	0	0.1	0	0	349	0.3	348	350	8.9	83.4
2025-10-04T23:41	10	0	0.0	0	0	349	0.2	349	350	8.9	83.2
2025-10-04T23:42	10	0	0.0	0	0	349	0.3	348	350	8.9	83.3
2025-10-04T23:43	10	0	0.1	0	0	349	0.3	348	350	8.9	82.8
2025-10-04T23:44	10	0	0.1	0	0	349	0.3	348	350	8.9	82.7
2025-10-04T23:45	10	0	0.1	0	0	349	0.2	349	350	9.0	82.1
2025-10-04T23:46	10	0	0.1	0	0	349	0.2	349	349	9.0	82.3
2025-10-04T23:47	10	0	0.1	0	0	349	0.2	349	350	9.0	82.0
2025-10-04T23:48	10	0	0.1	0	0	349	0.2	349	350	9.1	81.1
2025-10-04T23:49	10	0	0.1	0	0	349	0.2	349	350	9.1	80.6
2025-10-04T23:50	10	0	0.1	0	0	349	0.2	349	350	9.1	80.1
2025-10-04T23:51	10	0	0.1	0	0	349	0.3	349	350	9.1	80.2
2025-10-04T23:52	10	0	0.0	0	0	349	0.2	349	350	9.1	80.7
2025-10-04T23:53	10	0	0.1	0	0	349	0.2	349	350	9.1	80.8
2025-10-04T23:54	10	0	0.1	0	0	349	0.2	349	350	9.0	80.9
2025-10-04T23:55	10	0	0.1	0	0	349	0.2	349	350	9.1	80.8
2025-10-04T23:56	10	0	0.1	0	0	349	0.2	349	349	9.0	82.1
2025-10-04T23:57	10	0	0.0	0	0	349	0.3	348	349	8.9	82.9
2025-10-04T23:58	10	0	0.0	0	0	349	0.2	349	350	8.8	83.2
2025-10-04T23:59	10	0	0.1	0	0	349	0.2	349	350	8.8	83.0
2025-10-05T00:00	10	0	0.1	0	0	349	0.2	349	350	8.8	82.9
2025-10-05T00:01	10	0	0.1	0	0	350	0.2	349	350	8.9	82.3
2025-10-05T00:02	10	0	0.1	0	0	350	0.2	349	350	8.9	82.2
2025-10-05T00:03	10	0	0.1	0	0	350	0.3	349	351	9.0	81.4
2025-10-05T00:04	10	0	0.1	0	0	350	0.3	349	351	9.0	81.6
2025-10-05T00:05	10	0	0.1	0	0	350	0.2	349	350	9.0	81.8
2025-10-05T00:06	10	0	0.1	0	0	350	0.2	349	350	9.0	81.3
2025-10-05T00:07	10	0	0.1	0	0	350	0.2	350	351	9.0	81.8
2025-10-05T00:08	10	0	0.1	0	0	350	0.3	349	350	9.0	81.9
2025-10-05T00:09	10	0	0.1	0	0	350	0.2	350	351	8.9	82.3
2025-10-05T00:10	10	0	0.1	0	0	350	0.3	350	351	9.0	81.4
2025-10-05T00:11	10	0	0.1	0	0	350	0.2	349	351	9.0	82.2
2025-10-05T00:12	10	0	0.1	0	0	350	0.2	350	351	9.0	81.9
2025-10-05T00:13	10	0	0.1	0	0	350	0.2	350	350	8.9	82.9
2025-10-05T00:14	10	0	0.0	0	0	350	0.2	350	351	8.9	82.8
2025-10-05T00:15	10	0	0.1	0	0	350	0.2	349	350	8.9	83.8
2025-10-05T00:16	10	0	0.1	0	0	350	0.2	350	351	8.8	84.1
2025-10-05T00:17	10	0	0.1	0	0	350	0.3	350	351	8.9	83.8
2025-10-05T00:18	10	0	0.1	0	0	351	0.2	350	351	8.9	83.5
2025-10-05T00:19	10	0	0.1	0	0	351	0.3	350	351	9.0	83.1
2025-10-05T00:20	10	0	0.1	0	0	351	0.2	350	351	8.9	83.3
2025-10-05T00:21	10	0	0.1	0	0	351	0.2	350	351	8.9	83.6
2025-10-05T00:22	10	0	0.1	0	0	351	0.2	350	351	8.9	83.8
2025-10-05T00:23	10	0	0.0	0	0	351	0.2	350	351	8.9	83.8
2025-10-05T00:24	10	0	0.0	0	0	351	0.2	350	351	9.0	83.3
2025-10-05T00:25	10	0	0.1	0	0	351	0.3	350	352	9.0	83.0
2025-10-05T00:26	10	0	0.1	0	0	351	0.2	351	352	9.0	83.1
2025-10-05T00:27	10	0	0.1	0	0	351	0.2	351	352	9.0	83.7
2025-10-05T00:28	10	0	0.1	0	0	352	0.2	351	352	9.0	83.3
2025-10-05T00:29	10	0	0.0	0	0	352	0.2	351	352	9.1	83.1
2025-10-05T00:30	10	0	0.0	0	0	352	0.2	351	352	9.1	83.0
2025-10-05T00:31	10	0	0.1	0	0	352	0.2	351	352	9.1	82.5
2025-10-05T00:32	10	0	0.1	0	0	352	0.3	351	352	9.1	82.6
2025-10-05T00:33	10	0	0.0	0	0	352	0.2	351	352	9.1	83.0
2025-10-05T00:34	10	0	0.1	0	0	352	0.2	351	352	9.1	83.1
2025-10-05T00:35	10	0	0.1	0	0	352	0.3	352	353	9.2	81.9
2025-10-05T00:36	10	0	0.1	0	0	352	0.3	352	353	9.4	79.4
2025-10-05T00:37	10	0	0.1	0	0	352	0.4	351	353	9.3	80.8
2025-10-05T00:38	10	0	0.1	0	0	352	0.2	352	353	9.2	81.7
2025-10-05T00:39	10	0	0.1	0	0	352	0.2	352	353	9.2	82.4
2025-10-05T00:40	10	0	0.0	0	0	353	0.2	352	353	9.1	82.7
2025-10-05T00:41	10	0	0.0	0	0	353	0.2	352	353	9.3	81.4
2025-10-05T00:42	10	0	0.1	0	0	353	0.3	352	353	9.2	82.0
2025-10-05T00:43	10	0	0.1	0	0	353	0.2	352	353	9.1	82.8
2025-10-05T00:44	10	0	0.1	0	0	352	0.3	352	353	9.1	82.6
2025-10-05T00:45	10	0	0.1	0	0	353	0.2	352	353	9.1	83.1
2025-10-05T00:46	10	0	0.1	0	0	353	0.2	352	353	9.1	83.8
2025-10-05T00:47	10	0	0.1	0	0	353	0.2	352	353	9.0	83.8
2025-10-05T00:48	10	0	0.1	0	0	352	0.3	352	353	9.0	84.6
2025-10-05T00:49	10	0	0.1	0	0	352	0.2	351	352	8.7	87.7
2025-10-05T00:50	10	0	0.1	-1	0	351	0.5	350	352	8.8	79.4
2025-10-05T00:51	10	-1	0.1	-1	-1	350	0.2	350	351	8.8	76.8
2025-10-05T00:52	10	-1	0.1	-1	-1	350	0.2	349	350	8.8	75.9
2025-10-05T00:53	10	-1	0.1	-1	-1	349	0.2	349	349	8.7	77.3
2025-10-05T00:54	10	-1	0.1	-1	-1	349	0.2	348	349	8.5	77.5
2025-10-05T00:55	10	-1	0.1	-1	-1	348	0.2	348	349	8.4	78.8
2025-10-05T00:56	10	-1	0.1	-1	-1	348	0.3	347	349	8.2	80.1
2025-10-05T00:57	10	-1	0.1	-1	-1	347	0.2	347	348	8.0	79.9
2025-10-05T00:58	10	-1	0.1	-1	-1	347	0.3	346	347	7.9	81.8
2025-10-05T00:59	10	-1	0.1	-1	-1	347	0.2	346	347	7.8	82.4
2025-10-05T01:00	10	-1	0.0	-1	-1	347	0.3	346	347	7.7	83.2
2025-10-05T01:01	10	-1	0.1	-1	-1	347	0.3	346	347	7.7	83.6
2025-10-05T01:02	10	-1	0.1	-1	-1	347	0.3	346	347	7.7	84.1
2025-10-05T01:03	10	-1	0.1	-1	-1	346	0.2	345	347	7.6	85.0
2025-10-05T01:04	10	-1	0.1	-1	-1	345	0.3	345	346	7.6	84.4
2025-10-05T01:05	10	-1	0.1	-1	-1	345	0.2	345	346	7.6	84.9
2025-10-05T01:06	10	-1	0.1	-1	-1	345	0.2	345	346	7.5	85.4
2025-10-05T01:07	10	-1	0.1	-1	-1	345	0.2	345	345	7.4	85.9
2025-10-05T01:08	10	-1	0.1	-1	-1	345	0.3	344	345	7.4	85.5
2025-10-05T01:09	10	-1	0.1	-1	-1	345	0.2	344	345	7.4	84.2
2025-10-05T01:10	10	-1	0.1	-1	-1	345	0.2	344	345	7.3	85.2
2025-10-05T01:11	10	-1	0.1	-1	-1	345	0.2	344	345	7.3	85.8
2025-10-05T01:12	10	-1	0.1	-1	-1	345	0.3	344	345	7.2	87.2
2025-10-05T01:13	10	-1	0.1	-1	-1	345	0.3	344	345	7.2	87.3
2025-10-05T01:14	10	-1	0.1	-1	-1	345	0.3	344	345	7.1	87.8
2025-10-05T01:15	10	-1	0.1	-1	-1	345	0.2	344	345	7.1	87.6
2025-10-05T01:16	10	-1	0.1	-1	-1	345	0.3	344	345	7.1	88.7
2025-10-05T01:17	10	-1	0.1	-1	0	345	0.3	344	345	7.1	89.6
2025-10-05T01:18	10	0	0.1	-1	0	345	0.3	344	345	7.1	88.1
2025-10-05T01:19	10	0	0.1	0	0	345	0.3	344	346	7.1	87.3
2025-10-05T01:20	10	0	0.1	0	0	345	0.2	344	345	7.1	87.9
2025-10-05T01:21	10	0	0.1	0	0	345	0.2	344	345	7.1	87.8
2025-10-05T01:22	10	0	0.1	0	0	344	0.2	344	345	7.1	88.7
2025-10-05T01:23	10	0	0.1	0	0	344	0.3	343	345	7.0	88.9
2025-10-05T01:24	10	0	0.1	-1	0	344	0.2	343	344	7.0	89.0
2025-10-05T01:25	10	0	0.1	-1	0	344	0.2	343	345	6.9	89.6
2025-10-05T01:26	10	-1	0.1	-1	0	344	0.2	343	344	7.0	88.7
2025-10-05T01:27	10	0	0.1	-1	0	344	0.2	343	344	7.0	87.8
2025-10-05T01:28	10	0	0.1	-1	0	343	0.2	343	344	7.1	87.3
2025-10-05T01:29	10	0	0.1	0	0	343	0.2	342	343	7.1	87.4
2025-10-05T01:30	10	0	0.1	0	0	342	0.3	341	343	7.1	88.3
2025-10-05T01:31	10	0	0.1	0	0	342	0.2	342	343	7.1	88.1
2025-10-05T01:32	10	0	0.1	0	0	342	0.3	342	343	7.2	86.5
2025-10-05T01:33	10	0	0.1	0	0	342	0.2	342	343	7.2	87.4
2025-10-05T01:34	10	0	0.1	0	0	343	0.3	342	343	7.1	88.4
2025-10-05T01:35	10	0	0.1	0	0	343	0.3	343	344	7.0	88.9
2025-10-05T01:36	10	0	0.1	0	0	344	0.2	343	344	7.1	88.4
2025-10-05T01:37	10	0	0.1	0	0	344	0.2	343	344	7.1	88.6
2025-10-05T01:38	10	0	0.1	0	0	344	0.2	343	344	6.9	90.4
2025-10-05T01:39	10	0	0.1	0	0	344	0.2	344	345	6.9	90.2
2025-10-05T01:40	10	0	0.1	0	0	344	0.2	344	345	6.9	90.6
2025-10-05T01:41	10	0	0.1	0	0	344	0.2	344	345	6.9	90.6
2025-10-05T01:42	10	0	0.1	0	0	344	0.2	344	344	6.9	90.9
2025-10-05T01:43	10	0	0.1	0	0	344	0.2	344	345	6.9	90.8
2025-10-05T01:44	10	0	0.1	0	0	345	0.3	344	345	6.9	90.3
2025-10-05T01:45	10	0	0.1	0	0	345	0.2	344	345	7.0	90.3
2025-10-05T01:46	10	0	0.1	0	0	345	0.3	344	345	7.0	90.7
2025-10-05T01:47	10	0	0.1	0	0	345	0.3	344	345	7.0	90.7
2025-10-05T01:48	10	0	0.1	0	0	345	0.3	344	345	7.0	90.4
2025-10-05T01:49	10	0	0.1	0	0	345	0.3	344	345	7.0	90.6
2025-10-05T01:50	10	0	0.1	0	0	345	0.2	345	345	7.1	89.5
2025-10-05T01:51	10	0	0.1	0	0	345	0.2	344	346	7.1	89.1
2025-10-05T01:52	10	0	0.1	0	0	345	0.2	345	345	7.1	89.2
2025-10-05T01:53	10	0	0.1	0	0	345	0.3	345	346	7.1	89.2
2025-10-05T01:54	10	0	0.1	0	0	345	0.2	345	346	7.1	89.7
2025-10-05T01:55	10	0	0.1	0	0	345	0.3	344	346	7.1	90.0
2025-10-05T01:56	10	0	0.1	0	0	345	0.2	345	345	7.1	90.0
2025-10-05T01:57	10	0	0.1	0	0	345	0.2	345	346	7.1	90.7
2025-10-05T01:58	10	0	0.1	0	0	345	0.2	345	346	7.1	89.9
2025-10-05T01:59	10	0	0.1	0	0	345	0.2	345	346	7.2	89.4
2025-10-05T02:00	10	0	0.1	0	0	345	0.2	345	346	7.2	88.6
2025-10-05T02:01	10	0	0.1	0	0	346	0.2	345	346	7.2	89.4
2025-10-05T02:02	10	0	0.1	0	0	345	0.2	345	346	7.2	89.6
2025-10-05T02:03	10	0	0.1	0	0	346	0.3	345	346	7.2	90.0
2025-10-05T02:04	10	0	0.1	0	0	346	0.2	345	346	7.2	89.7
2025-10-05T02:05	10	0	0.1	0	0	346	0.2	345	346	7.2	89.4
2025-10-05T02:06	10	0	0.1	0	0	346	0.2	345	346	7.2	90.4
2025-10-05T02:07	10	0	0.1	0	0	346	0.2	345	346	7.2	90.1
2025-10-05T02:08	10	0	0.1	0	0	346	0.2	345	346	7.2	90.4
2025-10-05T02:09	10	0	0.1	0	0	346	0.2	345	346	7.2	89.6
2025-10-05T02:10	10	0	0.1	0	0	346	0.2	345	346	7.2	89.9
2025-10-05T02:11	10	0	0.1	0	0	346	0.2	345	346	7.2	90.3
2025-10-05T02:12	10	0	0.1	0	0	346	0.2	345	347	7.1	90.9
2025-10-05T02:13	10	0	0.1	0	0	346	0.2	345	346	7.1	91.7
2025-10-05T02:14	10	0	0.1	0	0	346	0.2	346	347	7.1	91.8
2025-10-05T02:15	10	0	0.1	0	0	346	0.2	346	346	7.1	92.4
2025-10-05T02:16	10	0	0.1	0	0	346	0.3	346	347	7.1	92.1
2025-10-05T02:17	10	0	0.1	0	0	346	0.2	346	347	7.1	92.3
2025-10-05T02:18	10	0	0.1	0	0	346	0.2	346	347	7.1	92.3
2025-10-05T02:19	10	0	0.1	0	0	346	0.2	346	347	7.1	92.5
2025-10-05T02:20	10	0	0.1	0	0	346	0.2	346	347	7.1	92.3
2025-10-05T02:21	10	0	0.1	0	0	346	0.2	346	347	7.1	92.5
2025-10-05T02:22	10	0	0.1	0	0	346	0.2	346	347	7.2	91.6
2025-10-05T02:23	10	0	0.1	0	0	347	0.2	346	347	7.3	90.8
2025-10-05T02:24	10	0	0.1	0	0	347	0.2	346	347	7.3	90.3
2025-10-05T02:25	10	0	0.1	0	0	347	0.2	346	347	7.4	90.2
2025-10-05T02:26	10	0	0.1	0	0	347	0.2	346	347	7.4	90.0
2025-10-05T02:27	10	0	0.1	0	0	347	0.2	346	347	7.4	90.0
2025-10-05T02:28	10	0	0.1	0	0	347	0.2	346	347	7.4	90.4
2025-10-05T02:29	10	0	0.1	0	0	347	0.2	346	347	7.4	90.3
2025-10-05T02:30	10	0	0.1	0	0	347	0.2	347	347	7.4	90.7
2025-10-05T02:31	10	0	0.1	0	0	347	0.3	346	347	7.4	90.9
2025-10-05T02:32	10	0	0.1	0	0	347	0.2	346	347	7.4	90.6
2025-10-05T02:33	10	0	0.1	0	0	347	0.2	346	347	7.4	91.0
2025-10-05T02:34	10	0	0.1	0	0	347	0.3	346	347	7.4	90.9
2025-10-05T02:35	10	0	0.1	0	0	347	0.3	346	347	7.4	90.4
2025-10-05T02:36	10	0	0.1	0	0	346	0.3	346	347	7.4	90.4
2025-10-05T02:37	10	0	0.1	0	0	346	0.2	346	347	7.5	90.1
2025-10-05T02:38	10	0	0.0	0	0	346	0.3	345	347	7.4	91.0
2025-10-05T02:39	10	0	0.1	0	0	346	0.2	345	346	7.3	91.8
2025-10-05T02:40	10	0	0.1	0	0	345	0.3	345	346	7.3	92.0
2025-10-05T02:41	10	0	0.1	0	0	345	0.3	344	346	7.4	91.6
2025-10-05T02:42	10	0	0.1	0	0	344	0.2	344	345	7.4	91.7
2025-10-05T02:43	10	0	0.1	0	0	344	0.2	344	344	7.4	91.1
2025-10-05T02:44	10	0	0.1	0	0	344	0.3	343	345	7.5	90.7
2025-10-05T02:45	10	0	0.1	0	0	344	0.2	343	344	7.5	90.5
2025-10-05T02:46	10	0	0.1	0	0	343	0.2	343	344	7.5	90.3
2025-10-05T02:47	10	0	0.1	0	0	343	0.2	343	344	7.5	90.4
2025-10-05T02:48	10	0	0.0	0	0	343	0.2	343	344	7.4	91.0
2025-10-05T02:49	10	0	0.1	0	0	343	0.3	342	343	7.4	91.3
2025-10-05T02:50	10	0	0.1	0	0	343	0.2	342	343	7.3	91.5
2025-10-05T02:51	10	0	0.1	0	0	343	0.2	342	343	7.3	91.6
2025-10-05T02:52	10	0	0.1	0	0	343	0.2	343	344	7.3	91.7
2025-10-05T02:53	10	0	0.1	0	0	343	0.3	343	344	7.3	91.9
2025-10-05T02:54	10	0	0.1	0	0	344	0.3	343	344	7.3	92.2
2025-10-05T02:55	10	0	0.1	0	0	344	0.3	344	345	7.3	92.2
2025-10-05T02:56	10	0	0.1	0	0	344	0.2	344	345	7.3	92.4
2025-10-05T02:57	10	0	0.1	0	0	345	0.2	344	345	7.3	92.4
2025-10-05T02:58	10	0	0.1	0	0	345	0.3	344	346	7.3	92.2
2025-10-05T02:59	10	0	0.1	0	0	345	0.3	344	346	7.3	92.3
2025-10-05T03:00	10	0	0.1	0	0	345	0.2	345	346	7.3	92.7
2025-10-05T03:01	10	0	0.1	0	0	345	0.2	345	346	7.3	92.5
2025-10-05T03:02	10	0	0.1	0	0	346	0.2	345	346	7.4	91.5
2025-10-05T03:03	10	0	0.1	0	0	346	0.3	345	346	7.4	91.7
2025-10-05T03:04	10	0	0.1	0	0	346	0.3	345	347	7.4	91.5
2025-10-05T03:05	10	0	0.1	0	0	346	0.2	346	347	7.5	90.9
2025-10-05T03:06	10	0	0.1	0	0	346	0.3	345	347	7.5	91.1
2025-10-05T03:07	10	0	0.1	0	0	346	0.2	346	347	7.5	91.1
2025-10-05T03:08	10	0	0.1	0	0	346	0.2	346	347	7.5	91.1
2025-10-05T03:09	10	0	0.1	0	0	347	0.2	346	347	7.5	90.4
2025-10-05T03:10	10	0	0.1	0	0	346	0.3	346	347	7.6	90.1
2025-10-05T03:11	10	0	0.1	0	0	346	0.2	346	347	7.6	90.6
2025-10-05T03:12	10	0	0.1	0	0	346	0.2	346	347	7.5	90.7
2025-10-05T03:13	10	0	0.1	0	0	346	0.2	346	347	7.5	91.0
2025-10-05T03:14	10	0	0.1	0	0	347	0.2	346	347	7.5	90.7
2025-10-05T03:15	10	0	0.1	0	0	347	0.2	346	347	7.5	90.8
2025-10-05T03:16	10	0	0.1	0	0	346	0.2	346	347	7.5	91.2
2025-10-05T03:17	10	0	0.1	0	0	346	0.3	346	347	7.5	91.4
2025-10-05T03:18	10	0	0.1	0	0	346	0.2	346	347	7.5	91.3
2025-10-05T03:19	10	0	0.1	0	0	346	0.3	346	347	7.5	91.1
2025-10-05T03:20	10	0	0.1	0	0	346	0.2	346	347	7.6	91.1
2025-10-05T03:21	10	0	0.1	0	0	346	0.2	346	346	7.6	90.2
2025-10-05T03:22	10	0	0.0	0	0	346	0.2	346	347	7.6	90.2
2025-10-05T03:23	10	0	0.1	0	0	346	0.3	346	347	7.6	90.1
2025-10-05T03:24	10	0	0.1	0	0	346	0.3	346	347	7.6	90.6
2025-10-05T03:25	10	0	0.1	0	0	346	0.2	346	347	7.6	90.0
2025-10-05T03:26	10	0	0.1	0	0	347	0.2	346	347	7.7	89.4
2025-10-05T03:27	10	0	0.1	0	0	347	0.2	346	347	7.7	89.8
2025-10-05T03:28	10	0	0.1	0	0	347	0.2	346	347	7.7	89.0
2025-10-05T03:29	10	0	0.1	0	0	347	0.2	346	347	7.8	88.1
2025-10-05T03:30	10	0	0.1	0	0	347	0.3	346	347	7.8	88.4
2025-10-05T03:31	10	0	0.1	0	0	347	0.2	346	347	7.7	89.1
2025-10-05T03:32	10	0	0.1	0	0	347	0.2	346	347	7.7	89.5
2025-10-05T03:33	10	0	0.1	0	0	347	0.2	346	347	7.7	89.5
2025-10-05T03:34	10	0	0.1	0	0	347	0.2	346	347	7.6	90.2
2025-10-05T03:35	10	0	0.1	0	0	347	0.2	346	347	7.7	89.5
2025-10-05T03:36	10	0	0.1	0	0	347	0.3	346	348	7.7	89.3
2025-10-05T03:37	10	0	0.1	0	0	347	0.2	346	347	7.7	89.3
2025-10-05T03:38	10	0	0.1	-1	0	347	0.3	346	348	7.7	89.4
2025-10-05T03:39	10	0	0.1	0	0	347	0.2	347	348	7.7	89.0
2025-10-05T03:40	10	0	0.1	0	0	347	0.2	346	348	7.8	88.4
2025-10-05T03:41	10	0	0.1	-1	0	347	0.2	347	348	7.8	87.6
2025-10-05T03:42	10	0	0.1	-1	0	347	0.2	346	348	7.8	87.8
2025-10-05T03:43	10	0	0.1	0	0	347	0.2	347	348	7.8	87.4
2025-10-05T03:44	10	0	0.1	0	0	347	0.2	347	348	7.8	87.8
2025-10-05T03:45	10	0	0.1	0	0	347	0.3	346	348	7.8	88.4
2025-10-05T03:46	10	0	0.1	0	0	347	0.2	346	347	7.7	89.1
2025-10-05T03:47	10	0	0.1	0	0	347	0.3	346	347	7.7	89.3
2025-10-05T03:48	10	0	0.1	0	0	347	0.2	346	347	7.7	89.3
2025-10-05T03:49	10	0	0.1	0	0	347	0.2	346	347	7.7	89.8
2025-10-05T03:50	10	0	0.1	0	0	347	0.3	346	347	7.7	89.9
2025-10-05T03:51	10	0	0.1	0	0	347	0.3	346	347	7.7	90.3
2025-10-05T03:52	10	0	0.1	0	0	347	0.2	347	347	7.7	89.6
2025-10-05T03:53	10	0	0.1	0	0	347	0.3	346	347	7.7	89.7
2025-10-05T03:54	10	0	0.1	0	0	347	0.2	347	348	7.7	89.3
2025-10-05T03:55	10	0	0.1	0	0	347	0.2	346	347	7.7	89.1
2025-10-05T03:56	10	0	0.1	0	0	347	0.2	347	347	7.7	89.1
2025-10-05T03:57	10	0	0.1	-1	0	347	0.2	347	348	7.8	88.5
2025-10-05T03:58	10	0	0.1	-1	0	347	0.1	347	348	7.7	89.1
2025-10-05T03:59	10	0	0.1	-1	0	347	0.2	347	348	7.7	89.1
2025-10-05T04:00	10	0	0.1	-1	0	347	0.2	347	347	7.7	89.3
2025-10-05T04:01	10	0	0.1	-1	0	347	0.2	347	348	7.7	89.4
2025-10-05T04:02	10	0	0.1	-1	0	347	0.3	346	348	7.7	89.9
2025-10-05T04:03	10	0	0.0	0	0	347	0.2	346	347	7.7	89.6
2025-10-05T04:04	10	0	0.1	-1	0	347	0.2	346	347	7.8	89.1
2025-10-05T04:05	10	0	0.1	-1	0	347	0.2	346	347	7.8	89.1
2025-10-05T04:06	10	0	0.1	-1	0	347	0.2	346	347	7.7	89.4
2025-10-05T04:07	10	0	0.1	0	0	346	0.3	346	347	7.7	89.5
2025-10-05T04:08	10	0	0.1	-1	0	346	0.2	346	346	7.7	90.0
2025-10-05T04:09	10	0	0.1	-1	0	346	0.2	345	346	7.7	90.0
2025-10-05T04:10	10	0	0.1	-1	0	345	0.3	345	346	7.7	89.9
2025-10-05T04:11	10	0	0.1	-1	0	345	0.2	345	346	7.7	89.9
2025-10-05T04:12	10	-1	0.1	-1	0	345	0.3	345	346	7.6	90.6
2025-10-05T04:13	10	-1	0.1	-1	0	345	0.2	345	346	7.6	90.9
2025-10-05T04:14	10	-1	0.0	-1	0	346	0.2	345	346	7.6	91.1
2025-10-05T04:15	10	-1	0.1	-1	0	346	0.4	345	347	7.6	90.7
2025-10-05T04:16	10	-1	0.1	-1	0	346	0.3	346	347	7.6	90.7
2025-10-05T04:17	10	-1	0.1	-1	0	346	0.2	346	347	7.6	91.2
2025-10-05T04:18	10	0	0.1	-1	0	346	0.3	346	347	7.6	91.4
2025-10-05T04:19	10	0	0.1	-1	0	346	0.3	346	347	7.6	91.5
2025-10-05T04:20	10	0	0.1	-1	0	347	0.3	346	347	7.5	91.8
2025-10-05T04:21	10	0	0.1	0	0	347	0.2	346	347	7.5	92.0
2025-10-05T04:22	10	0	0.1	0	0	347	0.2	346	347	7.5	91.8
2025-10-05T04:23	10	0	0.1	0	0	347	0.2	346	347	7.6	91.4
2025-10-05T04:24	10	0	0.1	0	0	347	0.3	346	348	7.6	91.4
2025-10-05T04:25	10	0	0.1	0	0	347	0.2	346	347	7.6	91.6
2025-10-05T04:26	10	0	0.1	0	0	347	0.3	346	348	7.6	91.7
2025-10-05T04:27	10	0	0.1	0	0	347	0.3	346	347	7.5	91.8
2025-10-05T04:28	10	0	0.1	0	0	346	0.3	346	347	7.5	91.7
2025-10-05T04:29	10	0	0.1	0	0	346	0.2	346	347	7.6	91.6
2025-10-05T04:30	10	0	0.1	0	0	346	0.3	346	347	7.6	91.7
2025-10-05T04:31	10	0	0.1	0	0	346	0.2	345	346	7.5	92.1
2025-10-05T04:32	10	0	0.1	0	0	346	0.3	345	346	7.5	91.9
2025-10-05T04:33	10	0	0.1	0	0	346	0.3	345	346	7.5	92.2
2025-10-05T04:34	10	0	0.1	0	0	346	0.2	345	346	7.5	92.7
2025-10-05T04:35	10	0	0.1	0	0	346	0.2	345	346	7.5	92.3
2025-10-05T04:36	10	0	0.1	0	0	346	0.4	346	347	7.5	92.0
2025-10-05T04:37	10	0	0.1	0	0	346	0.3	346	347	7.5	92.0
2025-10-05T04:38	10	0	0.0	0	0	346	0.3	346	347	7.6	91.4
2025-10-05T04:39	10	0	0.1	0	0	347	0.2	346	347	7.5	91.9
2025-10-05T04:40	10	0	0.1	0	0	347	0.2	346	347	7.6	91.4
2025-10-05T04:41	10	0	0.1	0	0	347	0.3	346	347	7.6	91.2
2025-10-05T04:42	10	0	0.1	0	0	347	0.2	346	347	7.6	90.8
2025-10-05T04:43	10	0	0.1	0	0	347	0.2	346	347	7.6	90.5
2025-10-05T04:44	10	0	0.1	-1	0	346	0.2	346	347	7.6	91.3
2025-10-05T04:45	10	0	0.1	0	0	346	0.3	345	347	7.5	91.6
2025-10-05T04:46	10	0	0.1	0	0	346	0.2	345	346	7.6	90.5
2025-10-05T04:47	10	0	0.1	-1	0	346	0.2	345	346	7.7	89.6
2025-10-05T04:48	10	0	0.1	-1	0	345	0.3	345	346	7.7	88.4
2025-10-05T04:49	10	0	0.1	-1	0	345	0.3	344	345	7.7	89.1
2025-10-05T04:50	10	0	0.1	0	0	344	0.2	344	345	7.6	89.9
2025-10-05T04:51	10	0	0.1	0	0	344	0.3	343	345	7.6	89.8
2025-10-05T04:52	10	0	0.1	0	0	344	0.2	344	345	7.6	89.8
2025-10-05T04:53	10	0	0.1	0	0	344	0.3	344	345	7.5	90.4
2025-10-05T04:54	10	0	0.1	0	0	344	0.3	343	344	7.5	90.3
2025-10-05T04:55	10	0	0.0	0	0	344	0.2	343	344	7.5	90.2
2025-10-05T04:56	10	0	0.1	0	0	343	0.2	343	344	7.5	90.5
2025-10-05T04:57	10	0	0.1	0	0	344	0.3	343	344	7.5	90.5
2025-10-05T04:58	10	0	0.1	0	0	344	0.3	343	344	7.4	90.9
2025-10-05T04:59	10	0	0.1	0	0	344	0.2	343	344	7.4	90.7
2025-10-05T05:00	10	0	0.1	0	0	344	0.2	344	345	7.5	89.8
2025-10-05T05:01	10	0	0.1	0	0	344	0.2	344	345	7.5	90.1
2025-10-05T05:02	10	0	0.1	0	0	345	0.2	344	345	7.4	90.5
2025-10-05T05:03	10	0	0.1	0	0	345	0.4	344	346	7.4	90.8
2025-10-05T05:04	10	0	0.1	0	0	345	0.2	344	345	7.4	90.6
2025-10-05T05:05	10	0	0.1	0	0	345	0.3	344	345	7.4	90.8
2025-10-05T05:06	10	0	0.1	0	0	344	0.2	344	345	7.4	91.3
2025-10-05T05:07	10	0	0.1	0	0	345	0.2	344	345	7.4	91.4
2025-10-05T05:08	10	0	0.1	0	0	345	0.2	344	345	7.3	91.6
2025-10-05T05:09	10	0	0.1	0	0	345	0.2	344	345	7.3	91.8
2025-10-05T05:10	10	0	0.1	0	0	345	0.2	344	345	7.3	91.9
2025-10-05T05:11	10	0	0.1	0	0	345	0.2	345	346	7.3	91.7
2025-10-05T05:12	10	0	0.1	0	0	345	0.2	345	346	7.3	92.1
2025-10-05T05:13	10	0	0.1	0	0	345	0.3	345	346	7.3	92.0
2025-10-05T05:14	10	0	0.1	0	0	346	0.3	345	346	7.3	91.7
2025-10-05T05:15	10	0	0.0	0	0	346	0.2	345	346	7.4	91.6
2025-10-05T05:16	10	0	0.1	0	0	346	0.3	345	346	7.4	91.4
2025-10-05T05:17	10	0	0.1	0	0	346	0.2	346	346	7.4	91.5
2025-10-05T05:18	10	0	0.1	0	0	346	0.3	346	347	7.4	90.4
2025-10-05T05:19	10	0	0.1	0	0	346	0.2	346	347	7.5	90.1
2025-10-05T05:20	10	0	0.1	0	0	346	0.3	345	347	7.4	90.7
2025-10-05T05:21	10	0	0.1	0	0	346	0.2	346	347	7.4	90.9
2025-10-05T05:22	10	0	0.1	0	0	346	0.2	346	346	7.4	91.3
2025-10-05T05:23	10	0	0.1	0	0	346	0.2	345	346	7.3	91.9
2025-10-05T05:24	10	0	0.1	0	0	346	0.3	345	346	7.3	91.3
2025-10-05T05:25	10	0	0.1	0	0	345	0.2	345	346	7.4	91.3
2025-10-05T05:26	10	0	0.1	0	0	345	0.3	345	346	7.3	91.4
2025-10-05T05:27	10	0	0.1	0	0	345	0.2	345	346	7.4	90.9
2025-10-05T05:28	10	0	0.1	0	0	346	0.2	345	346	7.4	90.8
2025-10-05T05:29	10	0	0.1	0	0	345	0.2	345	346	7.4	91.0
2025-10-05T05:30	10	0	0.1	0	0	345	0.2	345	346	7.4	91.1
2025-10-05T05:31	10	0	0.1	0	0	345	0.2	345	346	7.4	90.7
2025-10-05T05:32	10	0	0.1	0	0	345	0.2	345	346	7.4	90.4
2025-10-05T05:33	10	0	0.1	0	0	345	0.3	345	346	7.5	89.7
2025-10-05T05:34	10	0	0.1	0	0	345	0.3	344	346	7.5	89.2
2025-10-05T05:35	10	0	0.1	0	0	345	0.3	345	346	7.5	89.8
2025-10-05T05:36	10	0	0.1	0	0	345	0.2	345	346	7.5	89.2
2025-10-05T05:37	10	0	0.1	0	0	345	0.2	345	346	7.5	89.5
2025-10-05T05:38	10	0	0.1	0	0	345	0.2	345	346	7.5	89.2
2025-10-05T05:39	10	0	0.1	0	0	346	0.2	345	346	7.5	89.5
2025-10-05T05:40	10	0	0.1	0	0	346	0.4	345	347	7.5	89.6
2025-10-05T05:41	10	0	0.0	0	1	346	0.3	345	346	7.5	90.0
2025-10-05T05:42	10	0	0.0	0	1	346	0.2	346	346	7.4	90.3
2025-10-05T05:43	10	0	0.0	0	1	346	0.3	345	347	7.5	89.9
2025-10-05T05:44	10	0	0.1	0	1	346	0.2	346	346	7.5	89.8
2025-10-05T05:45	10	1	0.1	0	1	346	0.2	345	347	7.4	90.4
2025-10-05T05:46	10	1	0.1	1	1	346	0.2	346	347	7.4	90.4
2025-10-05T05:47	10	1	0.1	1	1	346	0.2	346	347	7.4	90.7
2025-10-05T05:48	10	1	0.1	1	1	346	0.3	346	347	7.4	90.8
2025-10-05T05:49	10	1	0.1	1	1	346	0.2	346	347	7.4	91.0
2025-10-05T05:50	10	1	0.1	1	1	346	0.2	346	347	7.4	90.8
2025-10-05T05:51	10	1	0.1	1	1	347	0.2	346	347	7.5	90.5
2025-10-05T05:52	10	1	0.1	1	1	347	0.3	346	347	7.5	90.6
2025-10-05T05:53	10	1	0.1	1	1	347	0.2	346	347	7.5	90.2
2025-10-05T05:54	10	1	0.1	1	1	347	0.2	346	347	7.6	89.7
2025-10-05T05:55	10	1	0.1	1	1	347	0.2	346	347	7.6	89.4
2025-10-05T05:56	10	1	0.0	1	1	347	0.2	346	347	7.6	89.1
2025-10-05T05:57	10	1	0.1	0	1	347	0.2	346	347	7.6	89.1
2025-10-05T05:58	10	1	0.1	1	1	347	0.2	346	347	7.6	89.7
2025-10-05T05:59	10	1	0.1	1	1	347	0.2	346	347	7.5	90.0
2025-10-05T06:00	10	1	0.1	1	1	347	0.3	346	347	7.5	90.5
2025-10-05T06:01	10	1	0.1	1	1	347	0.2	346	347	7.5	90.2
2025-10-05T06:02	10	1	0.1	1	1	347	0.2	346	347	7.5	90.1
2025-10-05T06:03	10	1	0.1	1	1	347	0.2	346	347	7.5	90.4
2025-10-05T06:04	10	1	0.1	1	1	347	0.2	347	348	7.5	91.1
2025-10-05T06:05	10	1	0.1	1	2	347	0.2	346	347	7.4	91.4
2025-10-05T06:06	10	1	0.1	1	2	347	0.2	346	347	7.4	91.2
2025-10-05T06:07	10	2	0.0	1	2	347	0.3	346	348	7.5	90.8
2025-10-05T06:08	10	2	0.1	1	2	347	0.2	346	348	7.5	90.7
2025-10-05T06:09	10	2	0.1	2	2	347	0.2	347	347	7.5	90.8
2025-10-05T06:10	10	2	0.1	2	2	347	0.3	346	348	7.5	91.3
2025-10-05T06:11	10	2	0.1	2	2	347	0.2	346	347	7.5	90.8
2025-10-05T06:12	10	2	0.1	2	3	347	0.2	346	347	7.5	91.2
2025-10-05T06:13	10	3	0.1	2	3	347	0.3	346	347	7.4	91.7
2025-10-05T06:14	10	3	0.1	3	3	347	0.2	346	347	7.4	91.6
2025-10-05T06:15	10	3	0.1	3	3	347	0.3	346	347	7.5	91.6
2025-10-05T06:16	10	3	0.1	3	3	347	0.2	346	347	7.5	91.2
2025-10-05T06:17	10	3	0.1	3	3	347	0.2	346	347	7.5	91.5
2025-10-05T06:18	10	4	0.2	3	4	347	0.2	346	347	7.5	91.8
2025-10-05T06:19	10	4	0.2	4	5	347	0.2	346	347	7.5	91.2
2025-10-05T06:20	10	5	0.1	5	5	346	0.3	346	347	7.5	91.3
2025-10-05T06:21	10	5	0.1	5	5	346	0.2	346	347	7.5	91.5
2025-10-05T06:22	10	5	0.1	4	5	346	0.3	345	346	7.4	92.1
2025-10-05T06:23	10	4	0.1	4	5	346	0.2	345	346	7.5	91.9
2025-10-05T06:24	10	4	0.1	4	4	345	0.2	345	346	7.5	91.1
2025-10-05T06:25	10	4	0.1	4	4	345	0.2	345	346	7.6	90.1
2025-10-05T06:26	10	4	0.1	4	4	345	0.2	344	345	7.7	89.4
2025-10-05T06:27	10	4	0.1	4	4	345	0.2	345	345	7.7	89.1
2025-10-05T06:28	10	4	0.1	4	5	345	0.2	344	345	7.8	88.3
2025-10-05T06:29	10	5	0.1	4	5	345	0.3	344	345	7.8	88.0
2025-10-05T06:30	10	5	0.1	4	5	345	0.3	344	345	7.8	87.9
2025-10-05T06:31	10	5	0.2	5	5	345	0.2	344	345	7.8	88.2
2025-10-05T06:32	10	6	0.2	5	6	344	0.2	344	345	7.8	88.5
2025-10-05T06:33	10	6	0.2	6	7	344	0.2	344	345	7.8	88.6
2025-10-05T06:34	10	7	0.2	7	7	345	0.2	344	345	7.8	88.2
2025-10-05T06:35	10	8	0.2	7	8	345	0.2	345	345	7.9	87.7
2025-10-05T06:36	10	8	0.1	8	8	345	0.3	344	346	7.9	87.7
2025-10-05T06:37	10	9	0.2	8	9	345	0.2	345	346	7.9	87.3
2025-10-05T06:38	10	9	0.2	9	10	345	0.2	345	346	7.9	87.3
2025-10-05T06:39	10	10	0.2	10	11	345	0.2	344	345	7.9	88.1
2025-10-05T06:40	10	11	0.4	10	12	345	0.2	345	346	7.9	87.7
2025-10-05T06:41	10	12	0.4	12	13	346	0.2	345	346	8.0	86.6
2025-10-05T06:42	10	12	0.3	12	13	346	0.3	345	346	8.0	86.8
2025-10-05T06:43	10	13	0.4	13	14	346	0.3	346	347	8.0	86.8
2025-10-05T06:44	10	15	0.7	14	16	347	0.2	346	347	8.0	86.9
2025-10-05T06:45	10	18	0.8	17	19	347	0.3	347	348	8.0	86.9
2025-10-05T06:46	10	25	4.3	19	33	348	0.5	347	349	8.1	86.6
2025-10-05T06:47	10	36	10.4	23	56	350	1.0	348	352	8.0	87.8
2025-10-05T06:48	10	58	4.6	44	62	352	0.8	350	353	8.0	87.4
2025-10-05T06:49	10	36	7.3	29	56	352	0.4	351	353	8.1	87.6
2025-10-05T06:50	10	62	2.3	57	66	354	0.8	352	356	8.1	88.1
2025-10-05T06:51	10	67	0.2	66	67	356	0.4	355	356	8.1	88.6
2025-10-05T06:52	10	67	0.3	67	68	357	0.5	356	358	8.2	88.1
2025-10-05T06:53	10	68	0.1	68	68	357	0.3	357	358	8.3	88.3
2025-10-05T06:54	10	69	0.6	68	70	358	0.3	357	359	8.3	87.6
2025-10-05T06:55	10	71	0.5	70	72	358	0.3	357	359	8.3	87.7
2025-10-05T06:56	10	70	3.7	61	72	359	0.5	358	360	8.3	88.0
2025-10-05T06:57	10	69	3.9	59	73	359	0.3	358	360	8.3	87.9
2025-10-05T06:58	10	54	5.6	45	63	358	0.5	358	360	8.4	87.6
2025-10-05T06:59	10	61	9.8	45	71	358	0.3	357	358	8.4	87.7
2025-10-05T07:00	10	70	0.4	69	70	358	0.5	357	359	8.4	87.1
2025-10-05T07:01	10	69	0.2	69	70	358	0.4	358	359	8.4	86.8
2025-10-05T07:02	10	69	1.4	63	70	359	0.3	358	360	8.5	87.2
2025-10-05T07:03	10	59	3.9	54	65	359	0.3	359	360	8.6	87.1
2025-10-05T07:04	10	60	4.3	54	66	360	0.3	359	360	8.6	87.0
2025-10-05T07:05	10	59	3.8	54	65	359	0.5	358	360	8.6	86.7
2025-10-05T07:06	10	63	0.8	62	65	359	0.5	358	360	8.5	86.8
2025-10-05T07:07	10	69	1.6	65	70	360	0.2	359	360	8.6	87.2
2025-10-05T07:08	10	68	0.7	67	69	361	0.7	360	362	8.6	87.3
2025-10-05T07:09	10	69	2.3	61	70	362	0.5	361	362	8.7	88.1
2025-10-05T07:10	10	45	6.6	37	60	359	1.7	357	363	8.6	85.8
2025-10-05T07:11	10	59	7.1	41	67	359	0.6	358	360	8.6	85.9
2025-10-05T07:12	10	32	2.2	30	39	358	1.2	356	360	8.6	86.4
2025-10-05T07:13	10	30	0.4	30	31	357	0.5	356	358	8.6	86.2
2025-10-05T07:14	10	57	15.1	31	76	358	1.6	356	360	8.6	86.7
2025-10-05T07:15	10	47	6.0	37	56	359	0.5	358	360	8.6	87.2
2025-10-05T07:16	10	33	1.5	30	36	358	1.3	355	359	8.6	86.8
2025-10-05T07:17	10	30	0.4	29	30	356	0.3	356	357	8.6	86.3
2025-10-05T07:18	10	30	1.4	29	34	356	0.4	355	357	8.6	86.8
2025-10-05T07:19	10	47	18.2	33	83	356	0.6	355	358	8.5	86.2
2025-10-05T07:20	10	83	0.3	82	84	359	1.3	356	361	8.6	86.4
2025-10-05T07:21	10	80	2.3	76	83	361	0.3	360	361	8.6	87.0
2025-10-05T07:22	10	83	0.2	82	83	361	0.3	360	362	8.7	86.3
2025-10-05T07:23	10	83	0.1	82	83	360	0.6	359	361	8.7	86.0
2025-10-05T07:24	10	82	0.3	82	83	360	0.6	360	362	8.7	86.1
2025-10-05T07:25	10	80	2.1	76	82	361	0.4	360	362	8.8	86.2
2025-10-05T07:26	10	83	0.4	82	83	361	0.3	360	361	8.8	86.2
2025-10-05T07:27	10	68	14.8	45	83	360	0.7	359	361	8.8	86.2
2025-10-05T07:28	10	82	2.1	72	83	361	0.6	359	362	8.8	78.0
2025-10-05T07:29	10	83	0.1	83	83	361	0.6	360	362	8.8	81.9
2025-10-05T07:30	10	83	0.2	82	83	360	0.5	359	361	8.8	86.2
2025-10-05T07:31	10	83	0.4	82	83	361	0.3	361	362	8.8	86.2
2025-10-05T07:32	10	82	0.4	81	83	361	0.4	360	362	8.8	86.2
2025-10-05T07:33	10	82	0.3	82	83	361	0.4	360	362	8.9	84.3
2025-10-05T07:34	10	81	0.2	81	82	361	0.2	360	361	8.9	83.3
2025-10-05T07:35	10	82	0.4	82	83	360	0.5	359	361	8.9	82.9
2025-10-05T07:36	10	83	0.3	83	84	360	0.4	359	361	8.9	84.0
2025-10-05T07:37	10	83	0.3	83	84	361	0.3	360	361	8.9	84.4
2025-10-05T07:38	10	80	1.8	76	82	360	0.3	360	361	8.9	84.6
2025-10-05T07:39	10	73	1.9	71	77	359	0.4	359	361	8.9	84.7
2025-10-05T07:40	10	74	4.3	67	79	360	0.4	359	360	8.8	85.0
2025-10-05T07:41	10	60	3.7	54	67	359	0.3	359	360	8.9	85.3
2025-10-05T07:42	10	47	2.6	44	54	357	1.1	356	359	8.9	84.7
2025-10-05T07:43	10	52	2.9	46	56	357	0.3	356	357	8.8	83.6
2025-10-05T07:44	10	43	4.8	37	52	356	0.3	356	357	8.9	84.3
2025-10-05T07:45	10	71	18.9	42	90	357	1.3	355	359	8.8	83.8
2025-10-05T07:46	10	62	12.8	43	84	358	0.9	357	359	8.9	83.5
2025-10-05T07:47	10	58	6.8	45	70	358	0.4	357	359	8.9	83.7
2025-10-05T07:48	10	80	8.8	64	92	359	0.7	357	361	8.9	82.8
2025-10-05T07:49	10	92	0.2	92	93	361	0.4	360	362	8.9	81.9
2025-10-05T07:50	10	93	0.5	92	94	362	0.4	361	363	9.0	82.4
2025-10-05T07:51	10	95	0.5	94	96	364	0.6	363	365	9.1	83.0
2025-10-05T07:52	10	97	0.5	96	98	365	0.2	364	365	9.1	81.4
2025-10-05T07:53	10	98	0.6	98	99	365	0.5	364	366	9.1	81.6
2025-10-05T07:54	10	100	0.6	99	101	365	0.3	364	366	9.1	80.7
2025-10-05T07:55	10	100	1.2	98	101	365	0.4	364	366	9.2	79.2
2025-10-05T07:56	10	94	1.6	91	97	365	0.2	364	365	9.2	79.3
2025-10-05T07:57	10	75	15.0	41	91	365	0.7	363	366	9.3	81.5
2025-10-05T07:58	10	80	2.2	77	83	364	0.4	363	365	9.3	79.5
2025-10-05T07:59	10	82	1.4	80	86	363	0.2	362	364	9.3	79.3
2025-10-05T08:00	10	78	13.2	37	89	364	0.6	362	365	9.4	79.7
2025-10-05T08:01	10	53	17.1	28	89	361	0.8	360	363	9.5	79.9
2025-10-05T08:02	10	90	5.0	79	96	363	0.4	362	364	9.4	78.8
2025-10-05T08:03	10	91	1.4	86	93	364	0.3	363	364	9.4	78.7
2025-10-05T08:04	10	91	0.2	91	91	364	0.3	363	365	9.4	78.4
2025-10-05T08:05	10	92	0.5	91	92	364	0.2	364	365	9.5	78.4
2025-10-05T08:06	10	93	0.3	92	93	364	0.2	364	365	9.5	78.4
2025-10-05T08:07	10	94	0.4	93	94	364	0.4	363	365	9.5	76.8
2025-10-05T08:08	10	94	0.2	94	95	364	0.6	363	365	9.5	77.1
2025-10-05T08:09	10	94	2.5	86	96	364	0.5	363	365	9.6	76.8
2025-10-05T08:10	10	96	0.2	95	96	364	0.5	363	365	9.6	76.6
2025-10-05T08:11	10	96	0.3	95	96	365	0.3	365	366	9.6	76.9
2025-10-05T08:12	10	95	0.2	95	96	365	0.4	364	366	9.6	76.8
2025-10-05T08:13	10	95	0.1	95	96	366	0.5	365	367	9.7	77.0
2025-10-05T08:14	10	96	0.2	95	96	367	0.7	365	368	9.7	77.0
2025-10-05T08:15	10	96	0.2	96	97	367	0.5	366	368	9.8	77.6
2025-10-05T08:16	10	97	0.2	96	97	367	0.7	366	368	9.8	77.0
2025-10-05T08:17	10	97	0.2	97	97	366	0.3	366	367	9.8	74.8
2025-10-05T08:18	10	97	0.2	97	98	367	0.8	366	368	9.9	76.2
2025-10-05T08:19	10	98	0.4	98	99	367	0.5	367	368	9.9	75.7
2025-10-05T08:20	10	99	0.3	99	100	369	0.4	368	369	10.1	76.7
2025-10-05T08:21	10	100	0.2	100	101	369	0.4	368	370	10.0	75.4
2025-10-05T08:22	10	100	0.2	100	101	370	0.6	369	371	10.1	76.1
2025-10-05T08:23	10	101	0.1	100	101	369	0.8	368	370	10.0	74.9
2025-10-05T08:24	10	101	0.3	101	102	370	0.4	369	370	10.0	74.9
2025-10-05T08:25	10	102	0.2	101	102	369	0.6	368	370	10.1	74.9
2025-10-05T08:26	10	102	0.2	102	103	371	0.6	370	372	10.2	76.2
2025-10-05T08:27	10	103	0.5	103	104	371	0.4	370	371	10.1	75.0
2025-10-05T08:28	10	105	0.3	104	105	371	0.6	370	372	10.1	74.6
2025-10-05T08:29	10	105	0.2	104	105	372	0.5	371	373	10.2	74.8
2025-10-05T08:30	10	105	0.2	104	105	370	0.6	369	372	10.2	73.3
2025-10-05T08:31	10	106	0.3	105	106	371	0.9	370	372	10.2	74.1
2025-10-05T08:32	10	106	0.1	106	107	372	0.4	371	373	10.3	75.2
2025-10-05T08:33	10	106	0.1	106	106	373	0.9	371	374	10.3	74.4
2025-10-05T08:34	10	106	0.1	105	106	371	0.4	370	372	10.2	73.3
2025-10-05T08:35	10	106	0.3	106	107	372	1.1	371	374	10.3	74.4
2025-10-05T08:36	10	107	0.1	106	107	373	0.4	373	374	10.4	74.6
2025-10-05T08:37	10	107	0.2	107	107	374	0.3	374	375	10.4	74.0
2025-10-05T08:38	10	108	0.2	107	108	374	0.4	373	375	10.5	73.4
2025-10-05T08:39	10	108	0.2	108	108	375	0.3	374	375	10.5	73.2
2025-10-05T08:40	10	108	0.2	108	109	375	0.5	374	376	10.5	72.6
2025-10-05T08:41	10	109	0.3	109	110	375	0.5	374	376	10.6	73.3
2025-10-05T08:42	10	111	0.5	110	112	374	1.3	372	376	10.5	71.0
2025-10-05T08:43	10	113	1.1	112	115	373	0.3	372	374	10.5	71.1
2025-10-05T08:44	10	117	0.7	115	118	373	0.9	372	375	10.5	71.3
2025-10-05T08:45	10	116	0.9	115	117	372	0.5	371	373	10.4	70.7
2025-10-05T08:46	10	115	0.2	115	115	374	0.9	372	375	10.5	71.8
2025-10-05T08:47	10	116	0.3	115	116	374	0.6	373	375	10.5	72.0
2025-10-05T08:48	10	118	0.9	116	119	375	0.5	374	376	10.6	72.8
2025-10-05T08:49	10	121	0.6	119	121	375	0.8	374	376	10.6	72.8
2025-10-05T08:50	10	122	1.5	118	124	375	0.5	374	376	10.5	72.4
2025-10-05T08:51	10	127	1.6	122	130	375	0.4	374	376	10.5	72.3
2025-10-05T08:52	10	135	2.4	130	139	375	0.5	374	377	10.5	72.3
2025-10-05T08:53	10	141	1.3	139	143	378	0.9	376	380	10.6	72.8
2025-10-05T08:54	10	146	1.3	143	148	381	0.5	379	381	10.7	72.6
2025-10-05T08:55	10	150	1.3	148	152	381	0.4	381	382	10.6	71.6
2025-10-05T08:56	10	152	0.2	152	152	383	0.5	382	383	10.6	72.3
2025-10-05T08:57	10	153	0.9	152	155	385	1.0	383	387	10.8	72.8
2025-10-05T08:58	10	157	1.2	155	159	385	0.3	385	386	10.8	71.6
2025-10-05T08:59	10	161	1.2	159	163	386	0.4	385	387	10.8	71.3
2025-10-05T09:00	10	156	16.2	112	166	385	0.6	383	386	10.8	70.9
2025-10-05T09:01	10	115	18.3	88	152	382	1.4	379	385	10.8	70.1
2025-10-05T09:02	10	134	26.4	72	167	382	2.2	379	386	10.8	70.3
2025-10-05T09:03	10	87	7.9	71	100	382	0.7	380	383	11.1	70.3
2025-10-05T09:04	10	89	20.5	69	132	379	0.9	378	382	11.2	70.4
2025-10-05T09:05	10	96	19.5	78	137	380	1.0	378	381	11.1	68.6
2025-10-05T09:06	10	106	35.3	75	176	378	1.7	376	382	11.0	66.3
2025-10-05T09:07	10	138	25.3	94	176	382	1.0	379	383	11.0	66.2
2025-10-05T09:08	10	76	3.9	73	91	377	2.3	374	381	11.0	66.8
2025-10-05T09:09	10	71	2.0	68	75	374	0.6	373	375	11.0	66.9
2025-10-05T09:10	10	65	1.4	62	68	372	0.6	371	374	10.9	64.7
2025-10-05T09:11	10	66	4.3	62	76	371	0.4	370	372	10.8	64.0
2025-10-05T09:12	10	61	3.7	55	66	370	0.5	369	371	10.7	65.0
2025-10-05T09:13	10	52	1.6	50	55	368	0.5	368	369	10.7	64.1
2025-10-05T09:14	10	48	0.7	47	50	368	0.4	368	369	10.7	65.7
2025-10-05T09:15	10	45	0.9	44	47	368	0.2	367	368	10.8	64.9
2025-10-05T09:16	10	44	0.1	43	44	367	0.2	367	368	10.8	64.9
2025-10-05T09:17	10	45	0.5	44	46	367	0.3	366	367	10.7	65.1
2025-10-05T09:18	10	47	0.6	46	48	367	0.5	366	368	10.7	65.3
2025-10-05T09:19	10	48	0.3	48	49	367	0.4	367	368	10.7	66.9
2025-10-05T09:20	10	49	0.2	49	50	368	0.6	367	369	10.8	67.7
2025-10-05T09:21	10	50	0.2	50	51	369	0.2	368	369	10.8	66.5
2025-10-05T09:22	10	50	0.3	50	50	368	0.3	368	369	10.8	64.5
2025-10-05T09:23	10	49	0.5	48	50	368	0.3	367	369	10.8	63.5
2025-10-05T09:24	10	48	0.2	47	48	367	0.2	367	368	10.8	63.9
2025-10-05T09:25	10	48	0.3	47	48	367	0.5	366	367	10.7	62.4
2025-10-05T09:26	10	49	0.8	48	51	367	0.3	366	367	10.7	62.6
2025-10-05T09:27	10	53	1.0	51	54	368	0.5	367	369	10.7	64.1
2025-10-05T09:28	10	56	1.1	54	58	369	0.6	367	370	10.7	65.7
2025-10-05T09:29	10	64	4.7	58	72	370	0.7	369	372	10.8	66.3
2025-10-05T09:30	10	101	22.6	72	128	374	2.8	370	379	10.8	64.9
2025-10-05T09:31	10	165	14.4	131	183	380	2.2	377	384	10.9	64.8
2025-10-05T09:32	10	176	8.9	153	187	385	1.2	383	387	11.0	65.3
2025-10-05T09:33	10	155	11.8	138	179	385	0.9	383	387	11.1	65.2
2025-10-05T09:34	10	112	11.9	94	137	382	1.3	379	385	11.1	65.6
2025-10-05T09:35	10	84	6.5	72	93	379	1.2	376	381	11.2	66.4
2025-10-05T09:36	10	66	3.2	62	72	376	1.7	373	378	11.3	67.5
2025-10-05T09:37	10	61	0.4	60	62	373	0.5	372	374	11.0	67.1
2025-10-05T09:38	10	63	0.9	61	64	372	0.5	371	373	10.9	67.9
2025-10-05T09:39	10	65	0.5	64	66	372	0.4	371	372	10.8	67.5
2025-10-05T09:40	10	65	0.6	64	66	372	0.6	371	373	10.8	68.1
2025-10-05T09:41	10	62	1.2	60	64	371	0.4	370	372	10.7	67.0
2025-10-05T09:42	10	61	1.7	60	65	370	0.4	369	371	10.7	67.2
2025-10-05T09:43	10	61	2.7	57	65	370	0.5	369	371	10.7	68.0
2025-10-05T09:44	10	55	1.1	54	58	370	0.4	369	371	10.7	68.0
2025-10-05T09:45	10	52	1.1	50	54	369	0.3	369	370	10.7	68.5
2025-10-05T09:46	10	48	1.2	46	50	369	0.3	368	370	10.7	68.6
2025-10-05T09:47	10	44	1.1	42	46	369	0.5	368	370	10.7	69.0
2025-10-05T09:48	10	40	1.5	37	42	368	0.4	368	369	10.7	68.8
2025-10-05T09:49	10	36	0.3	36	37	368	0.6	366	369	10.7	69.5
2025-10-05T09:50	10	37	0.8	36	39	367	0.4	366	368	10.7	69.4
2025-10-05T09:51	10	42	1.8	39	45	367	0.8	365	368	10.7	68.1
2025-10-05T09:52	10	48	1.8	45	51	364	0.5	363	365	10.5	63.3
2025-10-05T09:53	10	54	1.8	51	57	364	0.4	363	365	10.3	62.0
2025-10-05T09:54	10	59	1.1	57	61	365	0.8	364	367	10.3	62.8
2025-10-05T09:55	10	62	0.5	61	63	367	0.4	366	367	10.3	62.5
2025-10-05T09:56	10	63	0.5	63	64	366	0.5	366	368	10.3	62.6
2025-10-05T09:57	10	65	4.1	59	75	368	0.3	367	369	10.4	65.0
2025-10-05T09:58	10	57	1.7	52	61	367	0.5	366	368	10.3	65.6
2025-10-05T09:59	10	49	1.1	48	52	366	0.4	365	367	10.3	67.8
2025-10-05T10:00	10	48	0.2	48	48	366	0.2	365	366	10.3	67.9
2025-10-05T10:01	10	49	0.8	48	51	366	0.3	365	366	10.3	68.3
2025-10-05T10:02	10	51	0.3	51	52	367	0.7	365	368	10.3	69.6
2025-10-05T10:03	10	51	0.6	50	52	368	0.3	367	369	10.3	70.3
2025-10-05T10:04	10	49	0.8	47	50	368	0.3	368	369	10.4	70.6
2025-10-05T10:05	10	46	0.4	46	47	367	0.5	366	368	10.4	69.7
2025-10-05T10:06	10	46	0.2	45	46	367	0.6	366	368	10.5	69.8
2025-10-05T10:07	10	47	0.8	46	49	367	0.3	366	367	10.5	69.1
2025-10-05T10:08	10	51	1.1	49	53	368	0.6	367	369	10.6	70.4
2025-10-05T10:09	10	55	1.4	53	57	368	0.4	367	369	10.6	67.9
2025-10-05T10:10	10	68	9.4	57	85	368	0.9	367	370	10.7	67.5
2025-10-05T10:11	10	105	22.0	75	150	372	2.1	368	375	10.7	66.4
2025-10-05T10:12	10	96	8.4	85	124	375	0.5	374	376	10.8	66.7
2025-10-05T10:13	10	92	19.2	78	164	374	0.8	373	377	10.8	67.3
2025-10-05T10:14	10	183	13.2	131	195	383	3.3	375	386	10.9	67.6
2025-10-05T10:15	10	106	25.7	76	156	381	3.1	375	386	11.0	66.8
2025-10-05T10:16	10	119	31.6	76	171	380	3.0	376	386	11.1	66.5
2025-10-05T10:17	10	149	47.7	61	188	386	2.6	380	390	11.3	66.6
2025-10-05T10:18	10	76	22.2	60	128	377	1.9	375	382	11.3	65.3
2025-10-05T10:19	10	125	25.6	75	161	382	1.7	378	384	11.4	66.6
2025-10-05T10:20	10	68	4.3	57	80	378	2.7	373	383	11.3	64.2
2025-10-05T10:21	10	148	42.5	57	179	380	5.1	372	387	11.2	63.8
2025-10-05T10:22	10	152	41.2	69	178	384	2.2	378	386	11.1	61.9
2025-10-05T10:23	10	57	4.7	51	68	375	2.1	373	381	11.2	61.6
2025-10-05T10:24	10	50	1.9	48	55	373	0.6	372	375	11.2	62.2
2025-10-05T10:25	10	46	1.0	44	48	372	0.8	371	374	11.2	61.5
2025-10-05T10:26	10	40	2.2	37	44	371	0.9	369	372	11.1	63.2
2025-10-05T10:27	10	33	2.2	29	36	369	0.3	369	370	11.1	65.0
2025-10-05T10:28	10	27	1.3	25	29	368	0.7	367	369	11.1	64.4
2025-10-05T10:29	10	23	0.7	22	25	367	0.4	366	368	11.1	64.2
2025-10-05T10:30	10	22	0.2	22	23	366	0.4	366	367	11.1	66.0
2025-10-05T10:31	10	24	1.1	23	27	364	1.3	362	366	10.9	67.9
2025-10-05T10:32	10	29	1.2	27	31	363	0.3	362	363	10.4	70.0
2025-10-05T10:33	10	31	0.3	31	32	360	1.4	358	363	9.9	70.9
2025-10-05T10:34	10	32	0.3	32	33	359	0.4	358	360	9.6	70.2
2025-10-05T10:35	10	34	0.6	33	35	359	0.6	358	360	9.6	69.4
2025-10-05T10:36	10	36	0.6	35	37	359	0.9	358	361	9.6	70.7
2025-10-05T10:37	10	38	0.6	37	39	360	0.5	360	361	9.6	72.0
2025-10-05T10:38	10	40	0.8	39	42	361	0.8	360	363	9.6	72.7
2025-10-05T10:39	10	42	0.1	42	42	362	0.9	361	364	9.7	71.9
2025-10-05T10:40	10	41	0.7	40	42	362	0.3	361	363	9.8	70.3
2025-10-05T10:41	10	39	0.4	38	40	362	0.5	362	363	9.8	70.8
2025-10-05T10:42	10	39	0.1	39	39	362	0.2	362	363	9.9	69.1
2025-10-05T10:43	10	39	0.4	39	40	363	0.7	361	364	10.0	69.8
2025-10-05T10:44	10	41	0.4	40	42	363	0.5	362	364	9.9	70.9
2025-10-05T10:45	10	42	0.2	42	42	362	0.5	361	363	9.9	70.8
2025-10-05T10:46	10	44	1.0	43	46	362	0.3	361	363	9.9	71.8
2025-10-05T10:47	10	49	1.7	46	52	362	0.4	362	363	9.9	71.9
2025-10-05T10:48	10	64	17.4	52	130	364	1.7	362	368	9.9	71.8
2025-10-05T10:49	10	125	15.5	92	140	371	1.7	366	373	10.0	72.4
2025-10-05T10:50	10	124	13.5	98	139	374	1.2	372	376	10.1	71.7
2025-10-05T10:51	10	113	37.2	78	187	373	1.6	371	377	10.2	69.3
2025-10-05T10:52	10	187	0.5	186	188	380	2.7	375	384	10.2	70.1
2025-10-05T10:53	10	188	0.5	188	189	384	1.1	383	387	10.2	70.8
2025-10-05T10:54	10	191	1.1	190	193	388	1.3	385	390	10.3	71.0
2025-10-05T10:55	10	197	2.0	193	201	392	1.1	389	393	10.5	70.7
2025-10-05T10:56	10	181	25.9	136	207	391	2.4	387	394	10.4	69.8
2025-10-05T10:57	10	130	25.0	101	169	388	2.5	383	390	10.6	70.1
2025-10-05T10:58	10	120	20.2	97	154	385	2.1	381	388	10.9	69.7
2025-10-05T10:59	10	166	24.5	99	191	387	3.2	381	391	10.8	68.3
2025-10-05T11:00	10	114	18.9	92	140	383	2.7	378	388	10.8	67.4
2025-10-05T11:01	10	96	5.5	92	111	379	0.4	379	381	10.9	68.1
2025-10-05T11:02	10	121	7.6	107	138	381	0.9	380	383	10.8	68.8
2025-10-05T11:03	10	91	8.8	84	120	379	1.7	377	382	10.6	68.6
2025-10-05T11:04	10	91	14.8	81	125	378	1.5	376	381	10.5	69.6
2025-10-05T11:05	10	87	3.3	82	93	378	0.5	377	379	10.6	70.0
2025-10-05T11:06	10	114	20.3	78	147	380	1.2	377	382	10.6	68.7
2025-10-05T11:07	10	63	6.5	53	77	378	1.7	375	381	10.7	69.4
2025-10-05T11:08	10	46	3.3	41	53	374	1.5	372	376	10.7	68.3
2025-10-05T11:09	10	37	2.2	34	41	371	0.7	370	373	10.7	68.5
2025-10-05T11:10	10	31	1.8	28	34	370	0.5	369	371	10.7	68.3
2025-10-05T11:11	10	25	1.2	23	28	368	0.9	367	370	10.7	69.2
2025-10-05T11:12	10	22	0.5	22	23	367	0.5	366	368	10.6	70.1
2025-10-05T11:13	10	21	0.2	21	22	366	0.3	365	367	10.6	71.5
2025-10-05T11:14	10	22	0.2	21	22	366	0.3	365	366	10.6	72.9
2025-10-05T11:15	10	23	0.6	22	24	366	0.5	365	367	10.5	73.6
2025-10-05T11:16	10	26	0.8	24	27	366	0.3	366	367	10.4	73.7
2025-10-05T11:17	10	27	0.1	27	28	366	0.3	366	367	10.4	74.8
2025-10-05T11:18	10	27	0.1	27	27	367	0.3	366	367	10.4	76.1
2025-10-05T11:19	10	29	0.8	27	30	367	0.3	366	367	10.4	75.8
2025-10-05T11:20	10	31	0.3	30	31	367	0.4	366	368	10.3	75.0
2025-10-05T11:21	10	31	0.2	31	32	367	0.2	367	368	10.3	75.6
2025-10-05T11:22	10	32	0.2	32	32	368	0.2	367	368	10.3	75.3
2025-10-05T11:23	10	32	0.3	31	32	368	0.4	367	369	10.3	74.5
2025-10-05T11:24	10	30	0.7	29	31	368	0.2	368	369	10.3	74.7
2025-10-05T11:25	10	28	0.8	26	29	368	0.3	367	369	10.4	74.9
2025-10-05T11:26	10	25	0.9	23	26	368	0.3	367	368	10.4	75.2
2025-10-05T11:27	10	21	1.0	20	23	367	0.4	366	367	10.3	73.2
2025-10-05T11:28	10	19	0.4	18	20	366	0.2	365	366	10.3	73.8
2025-10-05T11:29	10	18	0.2	18	19	365	0.3	365	366	10.3	73.8
2025-10-05T11:30	10	20	0.5	19	20	364	0.4	363	365	10.3	74.4
2025-10-05T11:31	10	21	0.7	20	23	363	0.3	363	364	10.3	76.6
2025-10-05T11:32	10	24	1.1	23	26	363	0.2	362	364	10.2	78.3
2025-10-05T11:33	10	28	1.2	27	31	364	0.3	363	364	10.0	80.4
2025-10-05T11:34	10	32	1.0	31	34	364	0.4	363	365	9.9	80.7
2025-10-05T11:35	10	36	0.8	34	37	364	0.3	364	365	9.8	80.0
2025-10-05T11:36	10	38	0.6	37	39	364	0.4	363	365	10.0	76.3
2025-10-05T11:37	10	40	0.6	39	41	363	0.3	362	363	10.0	72.8
2025-10-05T11:38	10	42	0.7	41	44	363	0.4	362	364	9.9	73.7
2025-10-05T11:39	10	45	1.0	44	47	363	0.3	362	364	9.9	72.9
2025-10-05T11:40	10	48	0.5	47	49	364	0.6	363	365	9.9	72.9
2025-10-05T11:41	10	52	1.8	49	55	365	0.6	364	366	9.8	75.2
2025-10-05T11:42	10	60	2.8	56	65	367	0.8	365	368	9.8	75.8
2025-10-05T11:43	10	63	1.7	60	66	369	0.5	367	369	9.9	76.9
2025-10-05T11:44	10	58	1.1	56	60	369	0.5	368	370	9.9	75.6
2025-10-05T11:45	10	55	0.7	54	56	368	0.4	367	369	10.0	75.1
2025-10-05T11:46	10	54	0.2	54	54	368	0.3	367	369	10.1	73.3
2025-10-05T11:47	10	53	0.4	52	54	368	0.5	368	369	10.2	73.8
2025-10-05T11:48	10	52	0.2	52	52	369	0.6	367	370	10.2	73.6
2025-10-05T11:49	10	52	0.3	51	52	369	0.3	368	369	10.3	74.8
2025-10-05T11:50	10	57	5.0	51	65	368	0.5	367	369	10.5	71.4
2025-10-05T11:51	10	48	1.4	46	51	367	0.7	365	368	10.6	68.3
2025-10-05T11:52	10	44	1.1	42	46	365	0.6	364	366	10.7	64.6
2025-10-05T11:53	10	42	0.3	42	43	364	0.3	363	365	10.7	64.3
2025-10-05T11:54	10	45	0.9	43	46	365	0.4	364	365	10.6	67.2
2025-10-05T11:55	10	44	0.2	44	45	364	0.5	363	365	10.6	65.9
2025-10-05T11:56	10	48	1.5	45	51	365	0.3	364	365	10.6	67.6
2025-10-05T11:57	10	45	0.5	44	46	364	0.5	364	366	10.6	67.2
2025-10-05T11:58	10	43	1.0	41	44	364	0.3	363	365	10.6	67.0
2025-10-05T11:59	10	41	0.6	41	43	365	0.2	364	365	10.6	68.3
2025-10-05T12:00	10	42	0.5	41	43	364	0.3	364	365	10.6	66.8
2025-10-05T12:01	10	43	0.2	43	44	365	0.2	364	365	10.6	67.8
2025-10-05T12:02	10	44	0.2	43	44	365	0.2	365	366	10.6	68.9
2025-10-05T12:03	10	45	0.7	44	47	365	0.5	364	366	10.5	68.6
2025-10-05T12:04	10	50	2.1	47	54	364	0.5	363	365	10.4	68.6
2025-10-05T12:05	10	66	9.8	54	85	364	0.4	363	365	10.2	69.6
2025-10-05T12:06	10	110	34.1	72	160	366	2.8	363	371	10.1	70.3
2025-10-05T12:07	10	102	8.3	90	122	369	0.3	368	370	10.2	69.6
2025-10-05T12:08	10	121	6.2	112	136	371	1.1	369	373	10.4	68.3
2025-10-05T12:09	10	88	7.4	80	110	371	0.5	370	372	10.5	67.5
2025-10-05T12:10	10	76	5.2	72	93	370	0.9	369	372	10.5	66.4
2025-10-05T12:11	10	84	9.3	76	102	370	0.8	369	372	10.6	68.2
2025-10-05T12:12	10	77	7.2	70	95	371	0.5	370	372	10.6	68.3
2025-10-05T12:13	10	69	1.2	67	70	371	0.3	370	372	10.7	69.6
2025-10-05T12:14	10	67	0.4	66	67	371	0.6	369	372	10.7	68.7
2025-10-05T12:15	10	65	0.4	64	66	370	0.4	369	370	10.7	67.2
2025-10-05T12:16	10	65	0.4	64	66	369	0.4	369	370	10.7	66.6
2025-10-05T12:17	10	67	0.8	66	69	371	0.8	369	372	10.7	68.5
2025-10-05T12:18	10	70	0.5	69	70	372	0.6	370	373	10.8	67.3
2025-10-05T12:19	10	69	0.5	69	70	371	0.4	371	372	10.8	67.9
2025-10-05T12:20	10	68	0.7	66	69	372	0.6	371	373	10.8	66.5
2025-10-05T12:21	10	66	0.4	65	66	373	0.3	372	373	10.9	67.1
2025-10-05T12:22	10	64	0.2	64	65	373	0.3	372	373	10.9	66.6
2025-10-05T12:23	10	64	0.1	64	64	373	0.4	372	374	10.9	66.7
2025-10-05T12:24	10	64	0.1	64	65	371	0.8	369	372	10.9	62.7
2025-10-05T12:25	10	66	1.0	64	68	371	0.4	370	372	11.0	64.5
2025-10-05T12:26	10	62	1.2	61	65	371	0.3	371	372	11.0	64.4
2025-10-05T12:27	10	70	7.1	62	86	370	0.4	370	371	11.1	64.0
2025-10-05T12:28	10	90	18.2	63	129	373	1.0	370	374	11.1	62.6
2025-10-05T12:29	10	57	2.2	55	63	372	0.7	371	373	11.2	63.6
2025-10-05T12:30	10	54	1.4	51	55	370	0.7	368	372	11.2	62.6
2025-10-05T12:31	10	49	0.7	48	51	370	0.3	369	370	11.2	63.9
2025-10-05T12:32	10	48	0.3	47	48	370	0.4	369	371	11.2	64.4
2025-10-05T12:33	10	47	0.1	47	48	370	0.8	369	371	11.2	64.8
2025-10-05T12:34	10	47	0.3	46	47	369	0.4	368	370	11.2	63.3
2025-10-05T12:35	10	45	0.5	44	46	368	0.2	367	369	11.2	63.9
2025-10-05T12:36	10	43	0.9	41	44	368	0.5	367	369	11.1	64.0
2025-10-05T12:37	10	40	0.7	39	41	366	1.1	364	368	10.7	65.3
2025-10-05T12:38	10	38	0.6	37	39	364	0.3	364	365	10.4	66.3
2025-10-05T12:39	10	36	0.4	36	37	363	0.6	363	365	10.4	66.9
2025-10-05T12:40	10	35	0.2	35	35	363	0.5	362	364	10.2	66.3
2025-10-05T12:41	10	35	0.4	35	36	363	0.3	362	363	10.2	67.5
2025-10-05T12:42	10	37	0.6	36	38	363	0.4	362	364	10.2	68.1
2025-10-05T12:43	10	39	0.8	38	41	362	0.3	362	363	10.1	68.2
2025-10-05T12:44	10	42	0.8	41	44	363	0.3	362	363	10.1	68.2
2025-10-05T12:45	10	45	1.0	44	47	363	0.4	362	364	10.0	67.3
2025-10-05T12:46	10	48	0.8	47	50	364	0.5	363	365	10.1	69.1
2025-10-05T12:47	10	50	0.3	50	51	364	0.2	364	365	10.1	67.9
2025-10-05T12:48	10	51	0.2	51	51	365	0.4	364	366	10.1	68.1
2025-10-05T12:49	10	51	0.2	51	52	365	0.4	364	366	10.2	68.6
2025-10-05T12:50	10	52	0.3	52	53	365	0.5	364	366	10.2	68.4
2025-10-05T12:51	10	52	0.3	52	53	366	0.6	364	367	10.3	68.1
2025-10-05T12:52	10	56	2.0	53	60	367	0.7	366	368	10.3	68.0
2025-10-05T12:53	10	62	0.9	60	63	369	0.4	367	369	10.3	68.4
2025-10-05T12:54	10	63	0.3	63	64	369	0.4	369	370	10.4	69.0
2025-10-05T12:55	10	67	1.8	64	70	371	0.9	369	373	10.5	68.5
2025-10-05T12:56	10	71	0.8	70	73	373	0.6	371	373	10.6	68.8
2025-10-05T12:57	10	76	4.2	73	91	372	0.5	371	373	10.6	65.8
2025-10-05T12:58	10	122	11.8	93	137	376	2.7	371	379	10.7	65.8
2025-10-05T12:59	10	101	8.2	86	113	376	0.8	374	378	10.8	64.8
2025-10-05T13:00	10	88	11.5	78	107	377	1.1	375	378	10.9	65.4
2025-10-05T13:01	10	85	3.6	79	92	376	0.6	375	377	10.9	64.8
2025-10-05T13:02	10	96	3.3	92	103	377	0.5	376	378	11.0	63.8
2025-10-05T13:03	10	86	5.9	77	95	376	0.6	375	377	11.0	63.8
2025-10-05T13:04	10	73	1.8	70	76	374	0.5	374	376	11.0	64.0
2025-10-05T13:05	10	69	0.5	68	70	374	0.6	373	375	11.1	65.3
2025-10-05T13:06	10	67	1.1	66	69	374	0.4	373	375	11.0	64.4
2025-10-05T13:07	10	76	4.0	70	85	374	0.8	373	376	11.1	64.8
2025-10-05T13:08	10	89	6.6	77	99	376	0.9	375	378	11.2	65.7
2025-10-05T13:09	10	82	3.2	80	93	376	0.9	374	377	11.2	63.7
2025-10-05T13:10	10	117	38.9	83	176	378	3.0	375	385	11.2	64.5
2025-10-05T13:11	10	126	22.7	91	175	383	0.9	381	385	11.3	64.2
2025-10-05T13:12	10	114	15.6	91	137	382	0.8	381	384	11.4	64.3
2025-10-05T13:13	10	148	17.2	116	175	385	1.3	382	386	11.4	63.3
2025-10-05T13:14	10	115	12.2	96	141	383	1.5	381	386	11.4	63.8
2025-10-05T13:15	10	109	22.8	89	148	381	0.9	380	383	11.4	63.8
2025-10-05T13:16	10	120	24.9	78	152	384	1.3	380	385	11.6	65.2
2025-10-05T13:17	10	74	4.1	69	82	379	1.5	377	382	11.5	64.5
2025-10-05T13:18	10	68	0.9	67	70	378	0.3	377	379	11.5	65.5
2025-10-05T13:19	10	69	2.4	67	73	378	0.3	377	378	11.5	66.0
2025-10-05T13:20	10	70	2.4	67	76	377	0.5	376	378	11.5	66.3
2025-10-05T13:21	10	101	23.0	71	139	379	2.1	376	383	11.6	67.0
2025-10-05T13:22	10	150	7.3	140	164	385	2.1	381	388	11.6	66.3
2025-10-05T13:23	10	133	10.0	116	151	387	0.6	386	388	11.8	66.6
2025-10-05T13:24	10	146	16.3	114	159	385	0.5	384	387	11.7	65.8
2025-10-05T13:25	10	116	22.4	79	143	385	1.1	383	388	11.8	67.4
2025-10-05T13:26	10	75	7.0	67	94	381	2.2	378	385	11.8	66.8
2025-10-05T13:27	10	63	4.3	60	80	377	1.8	374	381	11.6	65.6
2025-10-05T13:28	10	110	11.5	87	146	378	1.6	375	381	11.5	65.6
2025-10-05T13:29	10	158	7.4	140	167	385	2.2	379	388	11.7	66.3
2025-10-05T13:30	10	85	35.5	56	164	382	4.4	376	389	11.8	64.2
2025-10-05T13:31	10	135	33.3	73	167	382	3.1	376	386	11.8	62.2
2025-10-05T13:32	10	94	12.2	79	124	381	1.1	379	383	11.9	62.3
2025-10-05T13:33	10	84	9.3	72	104	380	2.1	376	383	11.9	61.2
2025-10-05T13:34	10	89	17.1	68	129	377	0.7	376	379	11.6	60.2
2025-10-05T13:35	10	85	3.8	78	93	378	0.4	377	379	11.7	61.8
2025-10-05T13:36	10	135	30.6	87	181	382	3.5	377	388	11.8	62.0
2025-10-05T13:37	10	105	29.2	69	166	384	2.3	380	387	11.9	61.6
2025-10-05T13:38	10	66	1.1	65	69	378	1.6	376	382	11.7	59.5
2025-10-05T13:39	10	64	0.3	64	65	376	0.5	375	377	11.6	60.9
2025-10-05T13:40	10	64	0.3	63	64	376	0.6	375	377	11.6	61.4
2025-10-05T13:41	10	62	0.6	61	63	374	0.7	373	376	11.6	60.0
2025-10-05T13:42	10	59	0.9	58	61	374	0.6	373	375	11.6	60.6
2025-10-05T13:43	10	57	0.8	55	58	373	0.5	372	373	11.5	59.1
2025-10-05T13:44	10	55	0.4	54	56	373	0.3	372	373	11.5	59.0
2025-10-05T13:45	10	54	0.3	53	54	373	0.2	372	373	11.5	60.1
2025-10-05T13:46	10	53	0.2	53	54	373	0.6	372	375	11.6	61.0
2025-10-05T13:47	10	56	2.6	54	64	374	0.3	374	375	11.6	61.2
2025-10-05T13:48	10	71	6.8	62	90	376	1.1	374	378	11.6	61.8
2025-10-05T13:49	10	60	0.9	59	62	375	1.1	373	377	11.7	61.0
2025-10-05T13:50	10	58	0.6	58	60	374	0.4	374	375	11.7	60.4
2025-10-05T13:51	10	57	0.5	56	58	374	0.3	373	374	11.6	60.0
2025-10-05T13:52	10	56	0.2	56	56	373	0.3	373	374	11.6	59.5
2025-10-05T13:53	10	55	0.2	55	56	373	0.5	372	374	11.6	59.2
2025-10-05T13:54	10	55	0.1	55	55	372	0.2	372	373	11.6	59.2
2025-10-05T13:55	10	56	1.2	55	59	372	0.5	372	373	11.6	58.7
2025-10-05T13:56	10	68	10.5	59	100	374	0.9	372	376	11.7	59.9
2025-10-05T13:57	10	87	7.8	78	100	377	0.5	376	377	11.7	58.7
2025-10-05T13:58	10	79	2.5	76	85	377	0.7	376	378	11.6	58.1
2025-10-05T13:59	10	78	1.2	76	81	378	0.4	377	379	11.8	60.5
2025-10-05T14:00	10	82	0.7	81	83	379	0.5	378	379	11.8	59.9
2025-10-05T14:01	10	84	0.6	83	86	379	0.4	378	379	11.8	58.5
2025-10-05T14:02	10	108	18.7	86	136	380	1.5	378	382	11.7	57.8
2025-10-05T14:03	10	157	19.3	107	184	386	2.9	380	389	11.9	58.5
2025-10-05T14:04	10	91	4.2	87	105	384	2.0	381	388	12.0	58.4
2025-10-05T14:05	10	90	9.9	79	107	383	0.9	381	384	12.0	58.9
2025-10-05T14:06	10	74	5.1	66	80	380	0.4	379	381	12.0	59.1
2025-10-05T14:07	10	60	3.0	55	65	379	0.9	378	381	12.0	58.7
2025-10-05T14:08	10	51	2.3	47	55	377	0.5	377	379	12.0	59.0
2025-10-05T14:09	10	42	2.6	38	47	376	0.6	375	377	12.0	59.7
2025-10-05T14:10	10	34	2.1	31	38	375	0.8	373	376	12.0	60.5
2025-10-05T14:11	10	27	1.6	25	30	373	0.9	371	374	11.9	60.8
2025-10-05T14:12	10	23	1.1	21	25	371	0.5	370	372	11.8	61.4
2025-10-05T14:13	10	19	0.8	18	21	371	0.4	370	371	11.8	61.8
2025-10-05T14:14	10	17	0.6	16	18	369	0.7	368	371	11.7	60.4
2025-10-05T14:15	10	15	0.5	14	16	368	0.3	367	369	11.7	60.8
2025-10-05T14:16	10	13	0.4	13	14	368	0.3	368	369	11.7	62.1
2025-10-05T14:17	10	12	0.5	11	13	368	0.2	367	368	11.7	62.1
2025-10-05T14:18	10	10	0.4	9	11	367	0.3	366	367	11.6	61.8
2025-10-05T14:19	10	9	0.3	8	9	366	0.3	365	367	11.6	61.0
2025-10-05T14:20	10	8	0.2	8	8	365	0.3	365	366	11.6	59.1
2025-10-05T14:21	10	7	0.1	7	8	365	0.2	364	366	11.5	60.8
2025-10-05T14:22	10	7	0.1	7	8	365	0.3	364	366	11.5	61.1
2025-10-05T14:23	10	7	0.1	7	8	365	0.2	364	365	11.5	61.4
2025-10-05T14:24	10	7	0.1	7	8	365	0.2	364	365	11.5	61.1
2025-10-05T14:25	10	7	0.1	7	8	364	0.5	363	365	11.4	61.7
2025-10-05T14:26	10	7	0.1	7	8	363	0.3	363	364	11.4	62.8
2025-10-05T14:27	10	8	0.1	8	8	362	0.3	362	363	11.3	63.6
2025-10-05T14:28	10	8	0.2	8	8	362	0.2	361	362	11.1	65.2
2025-10-05T14:29	10	9	0.2	8	9	361	0.2	360	361	10.9	67.7
2025-10-05T14:30	10	9	0.2	9	10	361	0.2	360	361	10.8	69.6
2025-10-05T14:31	10	10	0.4	10	11	360	0.3	360	361	10.7	72.2
2025-10-05T14:32	10	13	0.9	11	14	360	0.2	360	361	10.5	72.7
2025-10-05T14:33	10	16	0.9	14	17	360	0.4	359	361	10.4	74.2
2025-10-05T14:34	10	18	0.2	17	18	359	0.2	359	359	10.1	72.3
2025-10-05T14:35	10	17	0.3	17	18	359	0.4	358	360	10.0	72.2
2025-10-05T14:36	10	16	0.3	16	17	359	0.3	358	359	10.0	72.1
2025-10-05T14:37	10	15	0.3	15	16	359	0.4	358	360	9.9	73.8
2025-10-05T14:38	10	14	0.4	13	15	359	0.4	358	360	9.9	74.9
2025-10-05T14:39	10	13	0.5	12	14	359	0.2	358	359	9.8	74.8
2025-10-05T14:40	10	11	0.4	11	12	358	0.2	358	359	9.8	75.7
2025-10-05T14:41	10	11	0.1	10	11	358	0.3	357	359	9.7	76.7
2025-10-05T14:42	10	11	0.1	10	11	358	0.3	357	358	9.6	78.7
2025-10-05T14:43	10	11	0.2	11	11	358	0.2	357	359	9.5	79.2
2025-10-05T14:44	10	11	0.2	11	12	358	0.3	357	359	9.5	78.8
2025-10-05T14:45	10	12	0.2	11	12	358	0.4	357	359	9.5	79.9
2025-10-05T14:46	10	12	0.1	11	12	358	0.3	357	359	9.5	80.9
2025-10-05T14:47	10	12	0.2	11	12	358	0.3	358	359	9.5	79.4
2025-10-05T14:48	10	12	0.1	11	12	358	0.2	357	358	9.5	78.3
2025-10-05T14:49	10	12	0.2	11	12	358	0.3	357	358	9.5	78.2
2025-10-05T14:50	10	12	0.2	12	13	358	0.3	357	358	9.5	79.7
2025-10-05T14:51	10	13	0.2	12	13	357	0.2	357	358	9.4	80.6
2025-10-05T14:52	10	13	0.1	13	14	357	0.3	356	358	9.3	81.5
2025-10-05T14:53	10	14	0.1	14	14	357	0.2	357	358	9.3	81.2
2025-10-05T14:54	10	14	0.1	14	14	357	0.3	357	358	9.1	82.9
2025-10-05T14:55	10	14	0.2	14	15	358	0.3	357	358	9.1	84.2
2025-10-05T14:56	10	15	0.2	15	15	358	0.4	357	359	9.2	84.4
2025-10-05T14:57	10	15	0.2	15	16	358	0.3	358	359	9.2	85.2
2025-10-05T14:58	10	16	0.2	16	17	359	0.3	358	359	9.2	85.2
2025-10-05T14:59	10	17	0.3	16	17	359	0.3	358	360	9.2	84.5
2025-10-05T15:00	10	18	0.1	17	18	359	0.3	358	360	9.2	84.7
2025-10-05T15:01	10	18	0.2	18	18	359	0.3	359	360	9.2	84.7
2025-10-05T15:02	10	19	0.2	18	19	360	0.3	359	360	9.3	84.9
2025-10-05T15:03	10	19	0.1	19	19	360	0.2	359	360	9.3	83.4
2025-10-05T15:04	10	19	0.1	19	19	359	0.2	359	360	9.3	81.7
2025-10-05T15:05	10	19	0.1	19	19	360	0.2	359	360	9.4	82.3
2025-10-05T15:06	10	20	0.3	19	21	360	0.3	359	360	9.4	81.2
2025-10-05T15:07	10	22	0.6	21	23	360	0.3	359	361	9.4	82.8
2025-10-05T15:08	10	24	0.9	23	26	361	0.4	360	361	9.4	83.2
2025-10-05T15:09	10	27	0.7	26	28	361	0.4	360	362	9.4	82.6
2025-10-05T15:10	10	29	0.5	28	30	362	0.3	361	362	9.4	82.6
2025-10-05T15:11	10	30	0.5	29	31	362	0.3	362	363	9.4	83.9
2025-10-05T15:12	10	32	0.5	31	33	363	0.2	362	363	9.4	83.8
2025-10-05T15:13	10	34	0.4	33	35	363	0.3	363	364	9.4	83.5
2025-10-05T15:14	10	35	0.1	35	35	364	0.2	363	364	9.5	84.7
2025-10-05T15:15	10	34	0.7	32	35	364	0.3	363	364	9.5	84.5
2025-10-05T15:16	10	31	0.9	29	32	363	0.3	363	364	9.5	85.0
2025-10-05T15:17	10	28	0.6	27	29	363	0.5	362	364	9.5	85.6
2025-10-05T15:18	10	27	0.2	26	27	362	0.5	361	363	9.5	82.9
2025-10-05T15:19	10	26	0.3	25	26	362	0.2	361	362	9.6	82.7
2025-10-05T15:20	10	24	0.7	23	25	362	0.2	361	362	9.6	84.0
2025-10-05T15:21	10	21	0.8	20	23	361	0.3	360	362	9.6	83.1
2025-10-05T15:22	10	19	0.5	18	20	360	0.4	359	361	9.6	81.8
2025-10-05T15:23	10	18	0.1	18	19	360	0.3	359	360	9.6	82.4
2025-10-05T15:24	10	19	0.3	18	19	359	0.3	358	360	9.6	83.3
2025-10-05T15:25	10	20	0.3	19	20	359	0.4	358	359	9.5	83.6
2025-10-05T15:26	10	20	0.1	20	20	359	0.2	358	359	9.5	82.2
2025-10-05T15:27	10	20	0.1	20	20	358	0.4	358	359	9.5	81.2
2025-10-05T15:28	10	20	0.2	20	20	358	0.3	358	359	9.5	82.0
2025-10-05T15:29	10	20	0.2	20	20	358	0.2	358	359	9.5	82.7
2025-10-05T15:30	10	21	0.4	20	22	358	0.2	358	359	9.5	82.1
2025-10-05T15:31	10	25	3.1	22	35	358	0.4	357	359	9.5	81.1
2025-10-05T15:32	10	44	3.3	35	48	359	0.6	358	360	9.4	84.1
2025-10-05T15:33	10	32	4.8	24	44	360	0.3	359	360	9.4	85.4
2025-10-05T15:34	10	24	0.2	23	24	359	0.5	358	360	9.3	85.3
2025-10-05T15:35	10	25	1.0	24	27	359	0.3	358	359	9.3	84.7
2025-10-05T15:36	10	29	1.2	27	32	359	0.4	358	360	9.3	83.6
2025-10-05T15:37	10	56	17.9	32	85	360	1.5	358	363	9.3	83.9
2025-10-05T15:38	10	68	9.8	54	85	363	0.3	362	363	9.4	83.1
2025-10-05T15:39	10	64	7.5	52	73	363	0.5	362	364	9.4	82.6
2025-10-05T15:40	10	64	9.5	54	86	363	0.3	362	364	9.4	82.8
2025-10-05T15:41	10	87	0.2	86	87	365	0.7	363	366	9.4	81.8
2025-10-05T15:42	10	86	0.6	84	87	366	0.3	365	366	9.5	82.2
2025-10-05T15:43	10	84	0.3	83	84	366	0.3	365	366	9.5	81.8
2025-10-05T15:44	10	83	0.1	83	84	366	0.2	366	367	9.6	81.2
2025-10-05T15:45	10	83	0.3	82	83	366	0.4	365	367	9.6	81.0
2025-10-05T15:46	10	82	0.5	81	82	366	0.2	365	366	9.6	78.8
2025-10-05T15:47	10	80	0.7	78	81	366	0.4	366	367	9.7	79.2
2025-10-05T15:48	10	77	1.0	75	78	366	0.3	366	367	9.7	79.3
2025-10-05T15:49	10	73	0.8	72	75	366	0.4	365	367	9.7	79.5
2025-10-05T15:50	10	71	0.6	70	72	366	0.3	365	366	9.8	79.3
2025-10-05T15:51	10	69	0.4	68	70	365	0.6	364	366	9.7	78.2
2025-10-05T15:52	10	68	0.5	67	68	365	0.3	364	365	9.8	78.6
2025-10-05T15:53	10	66	0.6	65	67	365	0.2	364	365	9.8	79.2
2025-10-05T15:54	10	64	0.6	63	65	363	0.7	362	365	9.8	77.2
2025-10-05T15:55	10	62	0.6	61	63	363	0.5	362	364	9.8	77.7
2025-10-05T15:56	10	60	0.6	59	61	362	0.3	362	363	9.8	77.1
2025-10-05T15:57	10	58	0.4	57	59	362	0.4	362	363	9.8	77.3
2025-10-05T15:58	10	57	0.2	57	58	362	0.6	361	363	9.8	77.8
2025-10-05T15:59	10	56	0.6	55	57	361	0.5	360	362	9.8	76.7
2025-10-05T16:00	10	54	0.6	53	55	361	0.5	360	362	9.8	76.5
2025-10-05T16:01	10	53	0.4	52	53	360	0.2	360	361	9.8	77.6
2025-10-05T16:02	10	51	0.4	51	52	360	0.3	360	361	9.8	77.5
2025-10-05T16:03	10	50	0.5	49	51	360	0.3	359	361	9.9	77.5
2025-10-05T16:04	10	48	0.4	48	49	359	0.3	359	360	9.9	75.9
2025-10-05T16:05	10	47	0.3	47	48	359	0.4	358	360	9.9	76.3
2025-10-05T16:06	10	42	5.0	31	47	358	0.3	357	359	9.9	75.3
2025-10-05T16:07	10	35	7.7	24	44	357	0.3	357	358	9.8	75.9
2025-10-05T16:08	10	43	0.2	43	44	357	0.3	357	358	9.8	75.9
2025-10-05T16:09	10	43	0.1	42	43	357	0.2	357	358	9.8	77.6
2025-10-05T16:10	10	42	0.1	42	43	357	0.3	357	358	9.8	77.7
2025-10-05T16:11	10	42	0.1	41	42	357	0.3	356	358	9.8	77.4
2025-10-05T16:12	10	41	0.1	41	42	357	0.2	356	357	9.7	77.3
2025-10-05T16:13	10	41	0.1	41	42	357	0.3	356	358	9.7	78.0
2025-10-05T16:14	10	40	0.4	40	41	357	0.2	356	357	9.7	77.9
2025-10-05T16:15	10	39	0.4	38	40	357	0.3	356	357	9.7	78.2
2025-10-05T16:16	10	37	0.6	37	38	357	0.3	356	357	9.7	78.8
2025-10-05T16:17	10	37	0.1	37	37	357	0.3	356	357	9.7	77.5
2025-10-05T16:18	10	37	0.1	37	37	357	0.3	356	357	9.7	78.2
2025-10-05T16:19	10	37	0.1	36	37	357	0.2	357	358	9.7	77.9
2025-10-05T16:20	10	36	0.5	35	37	357	0.2	357	358	9.8	77.3
2025-10-05T16:21	10	35	1.0	31	36	357	0.2	357	358	9.8	77.2
2025-10-05T16:22	10	29	0.8	28	31	357	0.3	356	358	9.8	77.3
2025-10-05T16:23	10	31	1.1	28	32	357	0.3	356	358	9.8	77.9
2025-10-05T16:24	10	28	2.3	24	32	357	0.2	357	358	9.7	79.0
2025-10-05T16:25	10	32	0.4	31	33	358	0.3	357	358	9.7	78.7
2025-10-05T16:26	10	33	0.1	32	33	358	0.4	357	359	9.7	78.0
2025-10-05T16:27	10	28	3.9	19	32	358	0.3	357	359	9.8	78.3
2025-10-05T16:28	10	15	1.6	13	19	357	0.3	356	358	9.7	77.8
2025-10-05T16:29	10	12	0.7	11	13	357	0.3	356	357	9.7	78.1
2025-10-05T16:30	10	10	0.4	10	11	356	0.2	356	357	9.7	77.1
2025-10-05T16:31	10	9	0.2	9	10	356	0.2	356	356	9.7	77.5
2025-10-05T16:32	10	12	2.6	9	18	355	0.2	355	356	9.7	78.1
2025-10-05T16:33	10	21	1.0	18	21	355	0.3	355	356	9.7	77.3
2025-10-05T16:34	10	21	0.3	20	21	355	0.4	355	356	9.7	78.0
2025-10-05T16:35	10	20	0.3	20	21	355	0.3	355	356	9.6	78.6
2025-10-05T16:36	10	21	0.1	21	21	356	0.2	355	356	9.6	78.8
2025-10-05T16:37	10	20	0.3	20	21	355	0.3	355	356	9.6	78.3
2025-10-05T16:38	10	19	0.4	18	20	355	0.2	354	356	9.6	78.6
2025-10-05T16:39	10	17	1.0	15	18	355	0.3	355	356	9.6	77.9
2025-10-05T16:40	10	13	0.6	12	15	355	0.5	354	356	9.6	78.3
2025-10-05T16:41	10	11	0.7	10	12	354	0.3	353	355	9.5	79.7
2025-10-05T16:42	10	10	0.3	10	11	354	0.3	354	355	9.5	80.9
2025-10-05T16:43	10	12	0.2	11	12	354	0.2	353	354	9.5	80.9
2025-10-05T16:44	10	12	0.2	12	12	354	0.2	354	354	9.5	80.4
2025-10-05T16:45	10	11	0.5	10	12	354	0.2	353	354	9.4	81.1
2025-10-05T16:46	10	9	0.4	8	10	354	0.2	354	354	9.5	80.0
2025-10-05T16:47	10	8	0.1	8	8	354	0.2	353	354	9.4	80.9
2025-10-05T16:48	10	8	0.2	8	9	354	0.2	354	355	9.4	79.7
2025-10-05T16:49	10	7	0.2	7	8	354	0.3	354	355	9.5	79.3
2025-10-05T16:50	10	7	0.1	7	7	354	0.3	354	355	9.5	78.2
2025-10-05T16:51	10	7	0.1	6	7	354	0.2	354	355	9.5	78.7
2025-10-05T16:52	10	6	0.2	6	7	354	0.2	354	355	9.5	77.9
2025-10-05T16:53	10	5	0.3	4	6	354	0.3	353	354	9.6	77.3
2025-10-05T16:54	10	4	0.3	3	4	353	0.3	353	354	9.6	77.5
2025-10-05T16:55	10	3	0.2	3	4	352	0.3	352	353	9.5	78.2
2025-10-05T16:56	10	3	0.1	3	3	352	0.3	351	352	9.5	78.4
2025-10-05T16:57	10	2	0.1	2	3	351	0.3	350	351	9.4	78.8
2025-10-05T16:58	10	2	0.1	2	2	350	0.2	350	351	9.4	78.3
2025-10-05T16:59	10	2	0.1	2	2	350	0.2	350	351	9.4	78.0
2025-10-05T17:00	10	1	0.1	1	2	350	0.2	349	350	9.4	77.9
2025-10-05T17:01	10	1	0.1	1	2	349	0.2	349	350	9.3	78.2
2025-10-05T17:02	10	1	0.1	1	2	350	0.3	349	350	9.3	77.9
2025-10-05T17:03	10	1	0.1	1	1	350	0.3	349	350	9.4	77.9
2025-10-05T17:04	10	1	0.1	1	1	350	0.2	350	351	9.4	77.1
2025-10-05T17:05	10	1	0.1	1	1	350	0.2	350	351	9.4	77.1
2025-10-05T17:06	10	1	0.0	1	1	351	0.2	350	351	9.4	77.0
2025-10-05T17:07	10	1	0.0	1	1	351	0.2	350	351	9.4	77.4
2025-10-05T17:08	10	1	0.1	1	1	350	0.2	350	351	9.4	78.0
2025-10-05T17:09	10	1	0.1	0	1	350	0.3	350	351	9.3	78.0
2025-10-05T17:10	10	1	0.1	1	1	351	0.3	350	351	9.4	77.2
2025-10-05T17:11	10	1	0.1	1	1	350	0.4	350	351	9.3	78.1
2025-10-05T17:12	10	1	0.1	0	1	350	0.3	349	350	9.2	78.5
2025-10-05T17:13	10	1	0.1	0	1	349	0.2	349	350	9.2	78.8
2025-10-05T17:14	10	0	0.1	0	1	349	0.2	349	349	9.1	79.6
2025-10-05T17:15	10	0	0.1	0	1	349	0.3	349	350	9.1	78.5
2025-10-05T17:16	10	0	0.1	0	1	349	0.2	349	350	9.2	77.8
2025-10-05T17:17	10	0	0.1	0	0	349	0.3	349	350	9.1	78.9
2025-10-05T17:18	10	0	0.1	0	0	349	0.3	348	350	9.1	79.5
2025-10-05T17:19	10	0	0.1	0	1	349	0.3	348	349	9.0	79.8
2025-10-05T17:20	10	0	0.1	0	0	348	0.2	348	349	9.0	79.8
2025-10-05T17:21	10	0	0.1	0	0	348	0.3	348	349	9.0	79.6
2025-10-05T17:22	10	0	0.1	0	0	348	0.3	348	349	9.0	79.3
2025-10-05T17:23	10	0	0.1	0	0	348	0.2	348	349	9.1	78.8
2025-10-05T17:24	10	0	0.1	0	0	348	0.3	348	349	9.1	78.7
2025-10-05T17:25	10	0	0.1	0	0	348	0.2	348	348	8.9	80.6
2025-10-05T17:26	10	0	0.1	0	0	348	0.3	347	348	8.9	81.0
2025-10-05T17:27	10	0	0.1	0	0	348	0.3	347	348	8.8	81.4
2025-10-05T17:28	10	0	0.1	0	0	348	0.4	347	349	8.9	80.3
2025-10-05T17:29	10	0	0.1	0	0	348	0.3	347	349	8.9	80.1
2025-10-05T17:30	10	0	0.1	0	0	348	0.3	348	349	8.9	80.6
2025-10-05T17:31	10	0	0.1	0	0	349	0.2	348	349	8.8	81.5
2025-10-05T17:32	10	0	0.1	0	0	348	0.2	348	349	8.7	82.8
2025-10-05T17:33	10	0	0.1	0	0	348	0.2	348	349	8.6	83.3
2025-10-05T17:34	10	0	0.1	0	0	349	0.3	348	349	8.6	82.9
2025-10-05T17:35	10	0	0.1	0	0	349	0.3	348	350	8.6	83.0
2025-10-05T17:36	10	0	0.1	0	0	349	0.2	348	349	8.6	83.5
2025-10-05T17:37	10	0	0.1	0	0	349	0.2	348	349	8.5	84.4
2025-10-05T17:38	10	0	0.1	0	0	349	0.3	348	350	8.5	84.8
2025-10-05T17:39	10	0	0.1	0	0	349	0.2	349	350	8.4	85.1
2025-10-05T17:40	10	0	0.1	0	0	350	0.2	349	350	8.5	84.7
2025-10-05T17:41	10	0	0.1	0	0	349	0.2	349	350	8.5	84.8
2025-10-05T17:42	10	0	0.1	0	0	349	0.2	349	350	8.6	84.0
2025-10-05T17:43	10	0	0.1	0	0	349	0.3	349	350	8.7	83.7
2025-10-05T17:44	10	0	0.1	0	0	349	0.2	349	350	8.7	83.9
2025-10-05T17:45	10	0	0.1	0	0	349	0.3	349	350	8.6	84.3
2025-10-05T17:46	10	0	0.1	0	0	349	0.2	349	350	8.6	84.4
2025-10-05T17:47	10	0	0.0	0	0	350	0.3	349	350	8.6	85.0
2025-10-05T17:48	10	0	0.1	0	0	349	0.2	349	350	8.6	85.2
2025-10-05T17:49	10	0	0.1	0	0	349	0.3	349	350	8.6	84.7
2025-10-05T17:50	10	0	0.1	0	0	350	0.2	349	350	8.6	84.4
2025-10-05T17:51	10	0	0.1	0	0	349	0.2	349	350	8.6	84.5
2025-10-05T17:52	10	0	0.1	0	0	349	0.3	349	350	8.6	84.5
2025-10-05T17:53	10	0	0.1	0	0	350	0.2	349	350	8.6	84.6
2025-10-05T17:54	10	0	0.0	0	0	349	0.2	349	350	8.6	84.7
2025-10-05T17:55	10	0	0.1	0	0	349	0.2	349	350	8.6	85.0
2025-10-05T17:56	10	0	0.1	0	0	349	0.3	348	350	8.6	85.5
2025-10-05T17:57	10	0	0.1	0	0	349	0.2	349	350	8.6	85.3
2025-10-05T17:58	10	0	0.1	0	0	349	0.2	348	349	8.6	85.3
2025-10-05T17:59	10	0	0.1	0	0	349	0.3	349	350	8.6	85.0
2025-10-05T18:00	10	0	0.1	0	0	349	0.2	349	349	8.6	85.6
2025-10-05T18:01	10	0	0.1	0	0	349	0.3	348	349	8.6	86.0
2025-10-05T18:02	10	0	0.1	0	0	349	0.2	348	349	8.6	85.6
2025-10-05T18:03	10	0	0.1	0	0	348	0.2	348	349	8.6	86.1
2025-10-05T18:04	10	0	0.1	0	0	348	0.2	348	349	8.6	85.8
2025-10-05T18:05	10	0	0.1	0	0	348	0.2	347	349	8.6	85.8
2025-10-05T18:06	10	0	0.1	0	0	347	0.3	347	348	8.6	86.2
2025-10-05T18:07	10	0	0.1	0	0	347	0.2	347	348	8.6	86.1
2025-10-05T18:08	10	0	0.1	0	0	347	0.2	346	347	8.6	85.5
2025-10-05T18:09	10	0	0.1	0	0	347	0.2	346	347	8.6	85.3
2025-10-05T18:10	10	0	0.1	0	0	347	0.2	346	347	8.6	85.6
2025-10-05T18:11	10	0	0.1	0	0	346	0.3	346	347	8.5	85.9
2025-10-05T18:12	10	0	0.1	0	0	346	0.2	346	347	8.5	85.9
2025-10-05T18:13	10	0	0.1	0	0	346	0.2	345	347	8.6	85.4
2025-10-05T18:14	10	0	0.1	0	0	346	0.2	345	346	8.6	85.3
2025-10-05T18:15	10	0	0.1	0	0	346	0.2	345	347	8.5	85.7
2025-10-05T18:16	10	0	0.1	0	0	346	0.2	346	347	8.6	85.4
2025-10-05T18:17	10	0	0.1	0	0	345	0.3	345	346	8.6	85.3
2025-10-05T18:18	10	0	0.1	0	0	346	0.3	345	346	8.6	85.2
2025-10-05T18:19	10	0	0.1	0	0	346	0.3	345	346	8.6	85.1
2025-10-05T18:20	10	0	0.2	0	0	346	0.3	345	347	8.5	85.6
2025-10-05T18:21	10	0	0.2	0	0	346	0.2	345	346	8.5	85.5
2025-10-05T18:22	10	0	0.1	0	0	346	0.3	346	347	8.5	86.0
2025-10-05T18:23	10	0	0.1	0	0	346	0.2	346	347	8.5	85.6
2025-10-05T18:24	10	0	0.2	0	0	346	0.3	346	347	8.5	85.3
2025-10-05T18:25	10	0	0.1	0	0	346	0.2	346	347	8.6	84.8
2025-10-05T18:26	10	0	0.2	0	0	346	0.3	346	347	8.5	85.4
2025-10-05T18:27	10	0	0.1	0	0	347	0.3	346	347	8.5	85.2
2025-10-05T18:28	10	0	0.1	0	0	347	0.3	347	348	8.5	85.6
2025-10-05T18:29	10	0	0.1	0	0	348	0.4	347	349	8.5	85.0
2025-10-05T18:30	10	0	0.2	0	0	349	0.4	348	349	8.5	85.1
2025-10-05T18:31	10	0	0.2	0	0	349	0.3	348	349	8.5	85.2
2025-10-05T18:32	10	0	0.2	0	0	349	0.3	348	350	8.6	85.1
2025-10-05T18:33	10	0	0.1	0	0	348	0.3	348	349	8.5	86.2
2025-10-05T18:34	10	0	0.1	0	0	348	0.3	348	349	8.5	85.9
2025-10-05T18:35	10	0	0.2	-1	0	348	0.4	347	349	8.5	85.5
2025-10-05T18:36	10	0	0.2	-1	0	348	0.3	348	349	8.6	84.6
2025-10-05T18:37	10	0	0.1	-1	0	347	0.3	347	348	8.6	85.2
2025-10-05T18:38	10	0	0.1	-1	0	347	0.3	346	347	8.5	85.6
2025-10-05T18:39	10	0	0.1	0	0	346	0.3	346	347	8.5	86.0
2025-10-05T18:40	10	0	0.2	-1	0	346	0.4	346	347	8.5	85.2
2025-10-05T18:41	10	0	0.1	-1	0	346	0.2	346	347	8.6	84.8
2025-10-05T18:42	10	0	0.2	-1	0	346	0.2	346	347	8.6	85.0
2025-10-05T18:43	10	0	0.2	-1	0	347	0.3	346	347	8.6	84.8
2025-10-05T18:44	10	0	0.2	-1	0	347	0.3	346	347	8.6	84.4
2025-10-05T18:45	10	0	0.1	-1	0	347	0.3	346	348	8.6	83.9
2025-10-05T18:46	10	0	0.1	-1	0	347	0.3	346	347	8.6	84.5
2025-10-05T18:47	10	0	0.1	-1	0	347	0.2	346	347	8.6	84.4
2025-10-05T18:48	10	0	0.1	0	0	347	0.2	347	348	8.6	84.3
2025-10-05T18:49	10	0	0.1	-1	0	348	0.3	347	348	8.6	84.0
2025-10-05T18:50	10	0	0.1	0	0	348	0.2	348	349	8.6	84.5
2025-10-05T18:51	10	0	0.1	0	0	348	0.2	348	349	8.6	84.7
2025-10-05T18:52	10	0	0.1	0	0	348	0.2	348	349	8.5	85.3
2025-10-05T18:53	10	0	0.1	0	0	348	0.2	348	349	8.5	85.3
2025-10-05T18:54	10	0	0.1	0	0	349	0.2	348	349	8.5	85.2
2025-10-05T18:55	10	0	0.1	0	0	349	0.2	348	349	8.4	85.6
2025-10-05T18:56	10	0	0.1	0	0	349	0.2	348	349	8.5	85.1
2025-10-05T18:57	10	0	0.1	0	0	349	0.2	348	349	8.5	85.0
2025-10-05T18:58	10	0	0.1	0	0	349	0.2	348	349	8.5	85.1
2025-10-05T18:59	10	0	0.1	0	0	349	0.2	348	349	8.5	85.2
2025-10-05T19:00	10	0	0.1	0	0	349	0.2	348	349	8.5	85.1
2025-10-05T19:01	10	0	0.1	0	0	349	0.2	348	349	8.5	85.0
2025-10-05T19:02	10	0	0.1	0	0	349	0.3	348	349	8.5	85.2
2025-10-05T19:03	10	0	0.1	0	0	348	0.3	348	349	8.4	85.5
2025-10-05T19:04	10	0	0.1	-1	0	348	0.2	348	349	8.4	85.6
2025-10-05T19:05	10	0	0.0	0	0	348	0.2	348	349	8.4	85.5
2025-10-05T19:06	10	0	0.1	0	0	348	0.2	348	349	8.5	84.6
2025-10-05T19:07	10	0	0.1	0	0	348	0.2	348	349	8.5	84.4
2025-10-05T19:08	10	0	0.1	0	0	348	0.3	348	349	8.5	84.5
2025-10-05T19:09	10	0	0.1	0	0	348	0.3	348	349	8.5	85.3
2025-10-05T19:10	10	0	0.0	0	0	348	0.2	348	349	8.5	84.9
2025-10-05T19:11	10	0	0.1	0	0	348	0.2	348	349	8.5	84.3
2025-10-05T19:12	10	0	0.1	0	0	348	0.2	348	349	8.5	84.9
2025-10-05T19:13	10	0	0.1	0	0	348	0.2	348	349	8.5	84.7
2025-10-05T19:14	10	0	0.1	0	0	349	0.2	348	349	8.5	84.6
2025-10-05T19:15	10	0	0.1	0	0	349	0.2	348	349	8.5	84.0
2025-10-05T19:16	10	0	0.1	0	0	349	0.2	348	349	8.6	83.8
2025-10-05T19:17	10	0	0.1	0	0	349	0.2	348	349	8.7	82.6
2025-10-05T19:18	10	0	0.1	0	0	349	0.2	348	349	8.7	82.5
2025-10-05T19:19	10	0	0.1	0	0	348	0.3	348	349	8.6	83.2
2025-10-05T19:20	10	0	0.1	0	0	349	0.2	348	349	8.6	83.2
2025-10-05T19:21	10	0	0.1	0	0	348	0.2	348	349	8.6	83.5
2025-10-05T19:22	10	0	0.0	0	0	348	0.2	348	349	8.6	83.7
2025-10-05T19:23	10	0	0.1	0	0	348	0.2	348	349	8.5	84.0
2025-10-05T19:24	10	0	0.1	0	0	349	0.3	348	349	8.5	83.9
2025-10-05T19:25	10	0	0.1	0	0	349	0.2	348	349	8.5	83.9
2025-10-05T19:26	10	0	0.1	0	0	349	0.3	348	349	8.5	83.9
2025-10-05T19:27	10	0	0.1	0	0	349	0.2	349	350	8.4	81.1
2025-10-05T19:28	10	0	0.1	0	0	349	0.2	349	350	8.5	83.9
2025-10-05T19:29	10	0	0.1	0	0	349	0.2	348	349	8.5	83.9
2025-10-05T19:30	10	0	0.1	0	0	349	0.2	349	350	8.5	83.9
2025-10-05T19:31	10	0	0.1	0	0	349	0.2	349	350	8.5	83.9
2025-10-05T19:32	10	0	0.0	0	0	349	0.2	348	350	8.5	83.6
2025-10-05T19:33	10	0	0.1	0	0	349	0.2	349	350	8.5	83.6
2025-10-05T19:34	10	0	0.1	0	0	350	0.3	349	350	8.6	82.9
2025-10-05T19:35	10	0	0.1	0	0	349	0.3	349	350	8.5	83.7
2025-10-05T19:36	10	0	0.1	0	0	350	0.2	349	350	8.5	84.3
2025-10-05T19:37	10	0	0.1	0	0	350	0.3	349	350	8.5	83.4
2025-10-05T19:38	10	0	0.1	0	0	350	0.2	349	350	8.6	83.0
2025-10-05T19:39	10	0	0.1	0	0	350	0.3	349	350	8.6	82.6
2025-10-05T19:40	10	0	0.1	0	0	350	0.3	349	350	8.6	82.2
2025-10-05T19:41	10	0	0.1	0	0	350	0.2	349	350	8.6	82.5
2025-10-05T19:42	10	0	0.0	0	0	350	0.3	349	350	8.6	82.6
2025-10-05T19:43	10	0	0.1	0	0	350	0.3	350	351	8.6	82.1
2025-10-05T19:44	10	0	0.1	0	0	350	0.2	350	351	8.6	81.9
2025-10-05T19:45	10	0	0.1	0	0	350	0.2	350	351	8.6	82.1
2025-10-05T19:46	10	0	0.1	0	0	350	0.2	350	351	8.6	81.8
2025-10-05T19:47	10	0	0.1	0	0	350	0.2	349	351	8.6	81.8
2025-10-05T19:48	10	0	0.0	0	0	350	0.2	349	350	8.6	81.9
2025-10-05T19:49	10	0	0.1	0	0	350	0.3	349	351	8.6	82.2
2025-10-05T19:50	10	0	0.1	0	0	350	0.2	349	350	8.6	82.1
2025-10-05T19:51	10	0	0.1	0	0	350	0.2	349	351	8.6	81.9
2025-10-05T19:52	10	0	0.1	0	0	350	0.3	350	351	8.6	82.1
2025-10-05T19:53	10	0	0.1	0	0	350	0.2	349	351	8.6	81.9
2025-10-05T19:54	10	0	0.1	0	0	350	0.2	350	351	8.6	82.0
2025-10-05T19:55	10	0	0.1	0	0	350	0.2	350	351	8.6	81.2
2025-10-05T19:56	10	0	0.0	0	0	350	0.3	350	351	8.6	81.6
2025-10-05T19:57	10	0	0.1	0	0	350	0.3	350	351	8.6	81.9
2025-10-05T19:58	10	0	0.1	0	0	351	0.2	350	351	8.6	81.7
2025-10-05T19:59	10	0	0.1	0	0	351	0.2	350	351	8.6	81.4
2025-10-05T20:00	10	0	0.1	0	0	351	0.3	350	351	8.6	81.4
2025-10-05T20:01	10	0	0.1	0	0	351	0.2	350	351	8.7	81.2
2025-10-05T20:02	10	0	0.0	0	0	351	0.2	350	351	8.7	80.3
2025-10-05T20:03	10	0	0.1	0	0	351	0.3	350	351	8.8	79.9
2025-10-05T20:04	10	0	0.1	0	0	351	0.3	350	352	8.8	79.8
2025-10-05T20:05	10	0	0.1	0	0	351	0.2	351	351	8.8	80.0
2025-10-05T20:06	10	0	0.1	0	0	351	0.3	350	351	8.8	79.9
2025-10-05T20:07	10	0	0.1	0	0	351	0.3	350	352	8.7	80.3
2025-10-05T20:08	10	0	0.1	0	0	351	0.2	350	351	8.8	79.9
2025-10-05T20:09	10	0	0.1	0	0	351	0.3	350	351	8.7	80.8
2025-10-05T20:10	10	0	0.1	0	0	351	0.3	350	352	8.7	80.5
2025-10-05T20:11	10	0	0.1	0	0	351	0.3	350	352	8.8	80.0
2025-10-05T20:12	10	0	0.1	0	0	351	0.2	350	351	8.8	80.3
2025-10-05T20:13	10	0	0.1	0	0	351	0.3	350	351	8.8	80.7
2025-10-05T20:14	10	0	0.1	0	0	351	0.2	350	351	8.7	80.9
2025-10-05T20:15	10	0	0.1	0	0	351	0.3	350	351	8.8	80.9
2025-10-05T20:16	10	0	0.1	0	0	351	0.3	350	351	8.8	81.0
2025-10-05T20:17	10	0	0.1	0	0	351	0.2	351	351	8.8	80.4
2025-10-05T20:18	10	0	0.1	0	0	351	0.2	350	351	8.8	80.0
2025-10-05T20:19	10	0	0.1	0	0	351	0.2	350	351	8.8	81.3
2025-10-05T20:20	10	0	0.1	0	0	351	0.2	350	351	8.7	81.8
2025-10-05T20:21	10	0	0.1	0	0	351	0.2	350	351	8.7	81.8
2025-10-05T20:22	10	0	0.1	0	0	350	0.2	350	351	8.6	82.4
2025-10-05T20:23	10	0	0.1	0	0	350	0.2	349	350	8.5	83.9
2025-10-05T20:24	10	0	0.1	0	0	350	0.2	349	351	8.4	84.7
2025-10-05T20:25	10	0	0.1	0	0	350	0.2	349	350	8.4	84.8
2025-10-05T20:26	10	0	0.0	0	0	350	0.2	349	350	8.3	85.2
2025-10-05T20:27	10	0	0.1	0	0	350	0.2	349	350	8.3	85.5
2025-10-05T20:28	10	0	0.1	0	0	350	0.2	349	350	8.4	83.8
2025-10-05T20:29	10	0	0.1	0	0	350	0.2	349	350	8.4	83.3
2025-10-05T20:30	10	0	0.1	0	0	350	0.2	350	351	8.4	83.1
2025-10-05T20:31	10	0	0.1	0	0	350	0.2	350	351	8.4	83.2
2025-10-05T20:32	10	0	0.1	0	0	350	0.2	350	351	8.4	83.7
2025-10-05T20:33	10	0	0.1	0	0	351	0.3	350	351	8.4	83.5
2025-10-05T20:34	10	0	0.1	0	0	350	0.2	350	351	8.4	83.2
2025-10-05T20:35	10	0	0.1	0	0	350	0.2	350	351	8.4	84.6
2025-10-05T20:36	10	0	0.1	0	0	350	0.3	350	351	8.4	84.4
2025-10-05T20:37	10	0	0.1	0	0	350	0.2	350	351	8.4	83.8
2025-10-05T20:38	10	0	0.1	0	0	350	0.2	350	351	8.5	83.8
2025-10-05T20:39	10	0	0.1	0	0	350	0.2	350	351	8.5	83.7
2025-10-05T20:40	10	0	0.1	0	0	350	0.2	350	351	8.5	84.2
2025-10-05T20:41	10	0	0.1	0	0	350	0.2	350	350	8.4	84.7
2025-10-05T20:42	10	0	0.1	0	0	350	0.2	350	351	8.4	85.1
2025-10-05T20:43	10	0	0.1	0	0	350	0.2	350	351	8.4	84.8
2025-10-05T20:44	10	0	0.1	0	0	350	0.2	350	351	8.4	84.5
2025-10-05T20:45	10	0	0.1	0	0	350	0.3	350	351	8.4	84.7
2025-10-05T20:46	10	0	0.0	0	0	350	0.3	350	351	8.4	85.6
2025-10-05T20:47	10	0	0.1	0	0	350	0.2	350	351	8.4	85.3
2025-10-05T20:48	10	0	0.1	0	0	350	0.2	350	351	8.4	85.1
2025-10-05T20:49	10	0	0.1	0	0	351	0.3	350	351	8.4	85.4
2025-10-05T20:50	10	0	0.1	0	0	350	0.2	350	351	8.4	85.7
2025-10-05T20:51	10	0	0.0	0	0	351	0.2	350	351	8.3	86.0
2025-10-05T20:52	10	0	0.1	0	0	350	0.2	350	351	8.3	86.6
2025-10-05T20:53	10	0	0.1	0	0	351	0.2	350	351	8.2	87.3
2025-10-05T20:54	10	0	0.1	0	0	351	0.2	350	351	8.3	87.1
2025-10-05T20:55	10	0	0.1	0	0	351	0.3	350	351	8.2	89.0
2025-10-05T20:56	10	0	0.1	0	0	350	0.3	350	351	8.2	88.9
2025-10-05T20:57	10	0	0.1	0	0	350	0.3	350	351	8.1	90.0
2025-10-05T20:58	10	0	0.0	0	0	350	0.2	350	351	8.1	91.5
2025-10-05T20:59	10	0	0.1	0	0	350	0.3	349	351	8.0	92.1
2025-10-05T21:00	10	0	0.1	0	0	350	0.2	350	350	7.9	92.9
2025-10-05T21:01	10	0	0.1	0	0	350	0.3	349	351	8.0	92.9
2025-10-05T21:02	10	0	0.1	0	0	350	0.2	350	351	8.1	90.6
2025-10-05T21:03	10	0	0.1	0	0	350	0.2	350	351	8.2	90.3
2025-10-05T21:04	10	0	0.1	0	0	350	0.3	350	351	8.2	89.9
2025-10-05T21:05	10	0	0.1	0	0	350	0.3	350	351	8.2	90.7
2025-10-05T21:06	10	0	0.1	0	0	350	0.3	349	351	8.2	90.4
2025-10-05T21:07	10	0	0.1	0	0	350	0.2	350	351	8.1	92.0
2025-10-05T21:08	10	0	0.1	0	0	350	0.2	349	350	8.0	92.7
2025-10-05T21:09	10	0	0.1	0	0	350	0.2	350	350	8.0	92.3
2025-10-05T21:10	10	0	0.1	0	0	350	0.2	349	350	8.0	91.6
2025-10-05T21:11	10	0	0.1	0	0	350	0.2	350	351	8.1	91.1
2025-10-05T21:12	10	0	0.1	0	0	350	0.3	350	351	8.2	90.5
2025-10-05T21:13	10	0	0.1	0	0	350	0.2	350	351	8.2	90.4
2025-10-05T21:14	10	0	0.1	0	0	350	0.2	350	351	8.2	91.1
2025-10-05T21:15	10	0	0.1	0	0	350	0.2	350	351	8.1	91.9
2025-10-05T21:16	10	0	0.1	0	0	350	0.2	350	351	8.1	91.7
2025-10-05T21:17	10	0	0.1	0	0	350	0.2	350	351	8.1	91.0
2025-10-05T21:18	10	0	0.1	0	0	350	0.2	350	351	8.2	90.7
2025-10-05T21:19	10	0	0.1	0	0	350	0.2	350	351	8.2	90.4
2025-10-05T21:20	10	0	0.1	0	0	350	0.2	350	351	8.2	90.2
2025-10-05T21:21	10	0	0.1	0	0	351	0.2	350	351	8.2	90.8
2025-10-05T21:22	10	0	0.1	0	0	350	0.2	350	351	8.2	91.2
2025-10-05T21:23	10	0	0.1	0	0	350	0.2	350	351	8.2	90.8
2025-10-05T21:24	10	0	0.1	0	0	351	0.3	350	351	8.3	89.6
2025-10-05T21:25	10	0	0.1	0	0	350	0.2	350	351	8.3	89.7
2025-10-05T21:26	10	0	0.1	0	0	350	0.2	350	351	8.3	89.9
2025-10-05T21:27	10	0	0.1	0	0	350	0.3	350	351	8.3	89.9
2025-10-05T21:28	10	0	0.1	0	0	351	0.2	350	351	8.3	89.2
2025-10-05T21:29	10	0	0.1	0	0	351	0.2	350	351	8.3	88.9
2025-10-05T21:30	10	0	0.1	0	0	351	0.2	350	351	8.4	88.3
2025-10-05T21:31	10	0	0.1	0	0	351	0.2	350	351	8.4	88.4
2025-10-05T21:32	10	0	0.1	0	0	351	0.2	350	351	8.4	87.9
2025-10-05T21:33	10	0	0.1	0	0	351	0.3	350	351	8.4	88.3
2025-10-05T21:34	10	0	0.1	0	0	351	0.2	350	351	8.3	89.0
2025-10-05T21:35	10	0	0.1	0	0	351	0.2	350	351	8.3	89.2
2025-10-05T21:36	10	0	0.1	0	0	351	0.2	350	351	8.3	89.5
2025-10-05T21:37	10	0	0.1	0	0	351	0.2	350	351	8.3	89.8
2025-10-05T21:38	10	0	0.1	0	0	351	0.2	350	351	8.3	89.7
2025-10-05T21:39	10	0	0.1	0	0	351	0.2	350	352	8.3	89.2
2025-10-05T21:40	10	0	0.1	0	0	351	0.3	350	351	8.4	88.3
2025-10-05T21:41	10	0	0.1	0	0	351	0.2	350	351	8.5	86.7
2025-10-05T21:42	10	0	0.1	0	0	351	0.2	350	351	8.5	86.4
2025-10-05T21:43	10	0	0.1	0	0	351	0.2	350	351	8.4	87.8
2025-10-05T21:44	10	0	0.1	0	0	351	0.3	350	351	8.4	87.9
2025-10-05T21:45	10	0	0.1	0	0	350	0.2	350	351	8.4	87.7
2025-10-05T21:46	10	0	0.1	0	0	350	0.2	350	351	8.4	88.2
2025-10-05T21:47	10	0	0.0	0	0	350	0.2	350	351	8.4	89.2
2025-10-05T21:48	10	0	0.1	0	0	350	0.2	350	351	8.4	88.8
2025-10-05T21:49	10	0	0.1	0	0	350	0.3	350	351	8.4	88.2
2025-10-05T21:50	10	0	0.1	0	0	351	0.3	350	351	8.4	87.8
2025-10-05T21:51	10	0	0.1	0	0	351	0.2	350	351	8.4	88.1
2025-10-05T21:52	10	0	0.1	0	0	351	0.2	350	351	8.4	87.9
2025-10-05T21:53	10	0	0.1	0	0	351	0.2	350	351	8.4	87.9
2025-10-05T21:54	10	0	0.1	0	0	351	0.3	350	351	8.4	88.5
2025-10-05T21:55	10	0	0.1	0	0	351	0.2	350	351	8.4	89.0
2025-10-05T21:56	10	0	0.1	0	0	351	0.2	351	351	8.4	89.3
2025-10-05T21:57	10	0	0.1	0	0	351	0.2	350	351	8.4	89.1
2025-10-05T21:58	10	0	0.1	0	0	351	0.3	350	352	8.4	89.3
2025-10-05T21:59	10	0	0.1	0	0	351	0.3	350	351	8.4	89.6
2025-10-05T22:00	10	0	0.1	0	0	351	0.2	351	351	8.4	89.3
2025-10-05T22:01	10	0	0.1	0	0	351	0.2	350	352	8.4	89.2
2025-10-05T22:02	10	0	0.1	0	0	351	0.2	350	352	8.4	89.2
2025-10-05T22:03	10	0	0.1	0	0	351	0.2	351	352	8.4	89.6
2025-10-05T22:04	10	0	0.1	0	0	351	0.2	351	352	8.4	89.7
2025-10-05T22:05	10	0	0.1	0	0	351	0.2	351	352	8.3	90.0
2025-10-05T22:06	10	0	0.1	0	0	351	0.2	351	352	8.3	90.5
2025-10-05T22:07	10	0	0.1	0	0	351	0.2	351	352	8.3	90.6
2025-10-05T22:08	10	0	0.1	0	0	351	0.2	351	352	8.3	90.6
2025-10-05T22:09	10	0	0.1	0	0	351	0.2	351	352	8.3	90.2
2025-10-05T22:10	10	0	0.1	0	0	351	0.2	351	352	8.3	90.9
2025-10-05T22:11	10	0	0.1	0	0	351	0.2	351	352	8.3	90.7
2025-10-05T22:12	10	0	0.1	0	0	351	0.2	351	352	8.3	89.7
2025-10-05T22:13	10	0	0.1	0	0	351	0.2	351	352	8.4	89.0
2025-10-05T22:14	10	0	0.1	0	0	352	0.2	351	352	8.4	88.2
2025-10-05T22:15	10	0	0.1	0	0	351	0.2	351	352	8.4	88.5
2025-10-05T22:16	10	0	0.1	0	0	351	0.2	351	352	8.4	88.6
2025-10-05T22:17	10	0	0.1	0	0	351	0.3	351	352	8.4	88.6
2025-10-05T22:18	10	0	0.1	0	0	352	0.3	351	352	8.5	87.3
2025-10-05T22:19	10	0	0.1	0	0	352	0.2	351	352	8.5	87.7
2025-10-05T22:20	10	0	0.1	0	0	351	0.2	351	352	8.6	87.3
2025-10-05T22:21	10	0	0.1	0	0	351	0.2	351	352	8.5	89.3
2025-10-05T22:22	10	0	0.1	0	0	351	0.2	351	352	8.4	89.6
2025-10-05T22:23	10	0	0.1	0	0	351	0.2	351	352	8.4	89.9
2025-10-05T22:24	10	0	0.0	0	0	351	0.2	351	351	8.4	90.3
2025-10-05T22:25	10	0	0.1	0	0	351	0.2	351	352	8.3	91.3
2025-10-05T22:26	10	0	0.1	0	0	351	0.2	351	352	8.3	90.0
2025-10-05T22:27	10	0	0.1	0	0	351	0.2	351	352	8.4	89.1
2025-10-05T22:28	10	0	0.1	0	0	351	0.2	350	351	8.4	89.5
2025-10-05T22:29	10	0	0.1	0	0	351	0.3	350	351	8.3	91.1
2025-10-05T22:30	10	0	0.1	0	0	351	0.3	350	352	8.4	89.3
2025-10-05T22:31	10	0	0.1	0	0	351	0.2	351	351	8.4	88.8
2025-10-05T22:32	10	0	0.1	0	0	351	0.2	350	351	8.5	87.9
2025-10-05T22:33	10	0	0.1	0	0	351	0.3	350	351	8.4	89.0
2025-10-05T22:34	10	0	0.1	0	0	351	0.2	351	352	8.5	87.8
2025-10-05T22:35	10	0	0.1	0	0	351	0.2	351	352	8.6	86.7
2025-10-05T22:36	10	0	0.1	0	0	351	0.2	350	351	8.6	88.0
2025-10-05T22:37	10	0	0.1	0	0	351	0.2	350	351	8.5	88.9
2025-10-05T22:38	10	0	0.1	0	0	351	0.2	351	352	8.5	88.7
2025-10-05T22:39	10	0	0.1	0	0	351	0.2	351	351	8.5	89.1
2025-10-05T22:40	10	0	0.1	0	0	351	0.2	350	352	8.5	88.5
2025-10-05T22:41	10	0	0.0	0	0	351	0.2	350	351	8.4	89.9
2025-10-05T22:42	10	0	0.1	0	0	351	0.2	350	351	8.3	90.9
2025-10-05T22:43	10	0	0.1	0	0	351	0.2	351	351	8.2	91.6
2025-10-05T22:44	10	0	0.1	0	0	351	0.2	350	351	8.3	91.0
2025-10-05T22:45	10	0	0.1	0	0	351	0.3	350	351	8.2	92.0
2025-10-05T22:46	10	0	0.1	0	0	351	0.2	350	351	8.2	92.4
2025-10-05T22:47	10	0	0.1	0	0	351	0.3	350	351	8.2	92.4
2025-10-05T22:48	10	0	0.0	0	0	351	0.2	350	351	8.2	92.0
2025-10-05T22:49	10	0	0.1	0	0	351	0.2	350	351	8.2	91.9
2025-10-05T22:50	10	0	0.1	0	0	351	0.2	350	351	8.2	92.8
2025-10-05T22:51	10	0	0.1	0	0	351	0.2	350	351	8.1	93.8
2025-10-05T22:52	10	0	0.1	0	0	351	0.3	350	351	8.1	94.5
2025-10-05T22:53	10	0	0.1	0	0	351	0.2	350	351	8.0	95.1
2025-10-05T22:54	10	0	0.1	0	0	351	0.3	350	352	8.0	95.1
2025-10-05T22:55	10	0	0.1	0	0	351	0.2	350	351	8.0	94.9
2025-10-05T22:56	10	0	0.1	0	0	351	0.2	350	351	8.0	94.9
2025-10-05T22:57	10	0	0.1	0	0	350	0.2	350	351	8.0	94.9
2025-10-05T22:58	10	0	0.1	0	0	350	0.2	350	351	8.0	95.1
2025-10-05T22:59	10	0	0.1	0	0	350	0.2	350	351	8.0	94.7
2025-10-05T23:00	10	0	0.1	0	0	350	0.2	350	351	8.0	94.1
2025-10-05T23:01	10	0	0.0	0	0	350	0.2	349	351	8.1	94.0
2025-10-05T23:02	10	0	0.1	0	0	350	0.3	349	351	8.0	94.8
2025-10-05T23:03	10	0	0.1	0	0	349	0.2	349	350	8.0	95.1
2025-10-05T23:04	10	0	0.1	0	0	349	0.3	349	350	7.9	95.0
2025-10-05T23:05	10	0	0.1	0	0	349	0.2	348	349	8.0	94.9
2025-10-05T23:06	10	0	0.1	0	0	349	0.2	348	349	8.0	95.2
2025-10-05T23:07	10	0	0.1	0	0	348	0.3	348	349	8.0	94.9
2025-10-05T23:08	10	0	0.1	0	0	348	0.2	347	348	8.0	94.9
2025-10-05T23:09	10	0	0.1	0	0	347	0.2	347	348	7.9	95.1
2025-10-05T23:10	10	0	0.1	0	0	347	0.2	347	348	7.9	95.1
2025-10-05T23:11	10	0	0.0	0	0	347	0.2	346	347	8.0	94.2
2025-10-05T23:12	10	0	0.1	0	0	347	0.3	346	348	8.0	94.0
2025-10-05T23:13	10	0	0.1	0	0	347	0.2	347	347	8.0	93.9
2025-10-05T23:14	10	0	0.1	0	0	347	0.3	346	347	8.0	93.7
2025-10-05T23:15	10	0	0.1	0	0	347	0.2	346	347	8.0	93.9
2025-10-05T23:16	10	0	0.1	0	0	347	0.2	346	347	8.0	94.1
2025-10-05T23:17	10	0	0.1	0	0	347	0.3	347	348	8.0	94.0
2025-10-05T23:18	10	0	0.1	0	0	348	0.2	347	348	8.0	93.7
2025-10-05T23:19	10	0	0.1	0	0	348	0.2	347	348	8.0	94.1
2025-10-05T23:20	10	0	0.1	0	0	347	0.2	347	348	8.0	94.1
2025-10-05T23:21	10	0	0.1	0	0	348	0.2	347	348	8.0	94.2
2025-10-05T23:22	10	0	0.1	0	0	348	0.2	347	348	7.9	94.5
2025-10-05T23:23	10	0	0.1	0	0	348	0.2	347	348	7.9	95.0
2025-10-05T23:24	10	0	0.1	0	0	348	0.2	347	348	7.9	95.0
2025-10-05T23:25	10	0	0.1	0	0	348	0.2	347	348	7.9	94.7
2025-10-05T23:26	10	0	0.1	0	0	348	0.2	347	348	7.9	94.6
2025-10-05T23:27	10	0	0.1	0	0	348	0.3	347	349	7.9	94.3
2025-10-05T23:28	10	0	0.1	0	0	348	0.2	348	349	8.0	93.6
2025-10-05T23:29	10	0	0.1	0	0	348	0.3	348	349	8.1	92.9
2025-10-05T23:30	10	0	0.1	0	0	349	0.2	348	349	8.1	92.6
2025-10-05T23:31	10	0	0.1	0	0	349	0.3	348	350	8.2	91.8
2025-10-05T23:32	10	0	0.1	0	0	349	0.2	349	350	8.2	91.7
2025-10-05T23:33	10	0	0.1	0	0	350	0.2	349	350	8.2	91.4
2025-10-05T23:34	10	0	0.1	0	0	350	0.2	349	350	8.2	91.8
2025-10-05T23:35	10	0	0.1	0	0	350	0.2	349	350	8.2	92.2
2025-10-05T23:36	10	0	0.1	0	0	350	0.2	349	350	8.1	92.6
2025-10-05T23:37	10	0	0.1	0	0	350	0.2	349	350	8.1	93.0
2025-10-05T23:38	10	0	0.1	0	0	350	0.3	349	350	8.1	93.0
2025-10-05T23:39	10	0	0.1	0	0	350	0.2	350	351	8.1	93.6
2025-10-05T23:40	10	0	0.1	0	0	350	0.2	350	351	8.1	93.6
2025-10-05T23:41	10	0	0.1	0	0	350	0.2	350	351	8.1	93.6
2025-10-05T23:42	10	0	0.1	0	0	350	0.3	350	351	8.1	93.4
2025-10-05T23:43	10	0	0.1	0	0	350	0.2	350	350	8.1	93.2
2025-10-05T23:44	10	0	0.1	0	0	350	0.2	349	351	8.1	93.5
2025-10-05T23:45	10	0	0.1	0	0	350	0.2	350	351	8.1	93.4
2025-10-05T23:46	10	0	0.1	0	0	350	0.2	350	351	8.1	93.5
2025-10-05T23:47	10	0	0.1	0	0	350	0.2	350	351	8.1	93.9
2025-10-05T23:48	10	0	0.1	0	0	350	0.2	350	351	8.0	94.2
2025-10-05T23:49	10	0	0.1	0	0	350	0.3	350	351	8.0	94.2
2025-10-05T23:50	10	0	0.1	0	0	350	0.2	350	351	8.0	94.2
2025-10-05T23:51	10	0	0.1	0	0	350	0.2	350	351	8.0	94.2
2025-10-05T23:52	10	0	0.1	0	0	350	0.2	350	351	8.0	94.3
2025-10-05T23:53	10	0	0.1	0	0	350	0.2	350	351	8.0	94.7
2025-10-05T23:54	10	0	0.1	0	0	350	0.2	350	350	8.0	94.7
2025-10-05T23:55	10	0	0.1	0	0	350	0.2	350	351	8.0	94.8
2025-10-05T23:56	10	0	0.1	0	0	350	0.2	350	351	8.0	94.8
2025-10-05T23:57	10	0	0.1	0	0	350	0.2	350	350	8.0	95.1
2025-10-05T23:58	10	0	0.1	0	0	350	0.2	350	351	8.0	95.2
2025-10-05T23:59	10	0	0.1	0	0	350	0.2	350	350	8.0	95.2
2025-10-06T00:00	10	0	0.1	0	0	350	0.2	350	351	8.0	95.3
2025-10-06T00:01	10	0	0.1	0	0	350	0.3	350	351	8.0	95.2
2025-10-06T00:02	10	0	0.1	0	0	350	0.3	350	351	8.0	94.9
2025-10-06T00:03	10	0	0.1	0	0	350	0.2	349	351	8.1	94.8
2025-10-06T00:04	10	0	0.1	0	0	350	0.2	350	350	8.1	94.7
2025-10-06T00:05	10	0	0.1	0	0	350	0.2	350	351	8.1	94.8
2025-10-06T00:06	10	0	0.1	0	0	350	0.2	349	350	8.1	94.7
2025-10-06T00:07	10	0	0.1	0	0	350	0.3	349	350	8.1	94.6
2025-10-06T00:08	10	0	0.1	0	0	350	0.2	349	350	8.1	94.3
2025-10-06T00:09	10	0	0.1	0	0	350	0.2	349	350	8.1	94.2
2025-10-06T00:10	10	0	0.1	0	0	350	0.3	349	350	8.1	94.8
2025-10-06T00:11	10	0	0.1	0	0	349	0.3	349	350	8.1	95.0
2025-10-06T00:12	10	0	0.1	0	0	349	0.2	349	350	8.1	94.9
2025-10-06T00:13	10	0	0.1	0	0	349	0.2	348	349	8.1	94.9
2025-10-06T00:14	10	0	0.1	0	0	349	0.2	348	349	8.1	94.9
2025-10-06T00:15	10	0	0.1	0	0	348	0.3	347	349	8.1	95.1
2025-10-06T00:16	10	0	0.1	0	0	348	0.2	347	348	8.1	95.1
2025-10-06T00:17	10	0	0.1	0	0	347	0.2	347	348	8.1	95.0
2025-10-06T00:18	10	0	0.1	0	0	347	0.3	346	347	8.0	94.9
2025-10-06T00:19	10	0	0.1	0	0	346	0.2	346	347	8.1	94.8
2025-10-06T00:20	10	0	0.1	0	0	346	0.3	345	347	8.0	94.9
2025-10-06T00:21	10	0	0.1	0	0	346	0.2	345	346	8.0	95.1
2025-10-06T00:22	10	0	0.1	0	0	346	0.3	345	346	8.0	95.4
2025-10-06T00:23	10	0	0.1	0	0	346	0.2	345	346	8.0	95.7
2025-10-06T00:24	10	0	0.1	0	0	345	0.2	345	346	7.9	95.9
2025-10-06T00:25	10	0	0.1	0	0	345	0.3	345	346	7.9	96.0
2025-10-06T00:26	10	0	0.1	0	0	345	0.3	345	346	7.9	96.1
2025-10-06T00:27	10	0	0.1	0	0	345	0.2	345	346	7.9	96.1
2025-10-06T00:28	10	0	0.1	0	0	346	0.2	345	346	7.9	95.8
2025-10-06T00:29	10	0	0.1	0	0	346	0.3	345	346	7.9	95.6
2025-10-06T00:30	10	0	0.1	0	0	346	0.3	346	347	7.9	94.8
2025-10-06T00:31	10	0	0.1	0	0	347	0.2	346	347	8.0	94.6
2025-10-06T00:32	10	0	0.1	0	0	347	0.2	347	348	8.0	94.0
2025-10-06T00:33	10	0	0.1	0	0	347	0.2	347	348	8.0	94.0
2025-10-06T00:34	10	0	0.1	0	0	347	0.3	347	348	8.0	94.2
2025-10-06T00:35	10	0	0.1	0	0	348	0.2	347	348	8.0	94.4
2025-10-06T00:36	10	0	0.1	0	0	348	0.2	347	348	8.0	94.6
2025-10-06T00:37	10	0	0.1	0	0	348	0.2	347	348	8.0	94.8
2025-10-06T00:38	10	0	0.1	0	0	348	0.2	347	348	7.9	95.0
2025-10-06T00:39	10	0	0.1	0	0	348	0.2	348	348	7.9	95.2
2025-10-06T00:40	10	0	0.1	0	0	348	0.2	348	349	7.9	95.4
2025-10-06T00:41	10	0	0.1	0	0	348	0.2	348	349	7.9	95.3
2025-10-06T00:42	10	0	0.1	0	0	348	0.2	348	349	7.9	94.9
2025-10-06T00:43	10	0	0.1	0	0	349	0.2	348	349	8.0	94.9
2025-10-06T00:44	10	0	0.1	0	0	348	0.3	348	349	8.0	94.8
2025-10-06T00:45	10	0	0.1	0	0	348	0.2	348	349	8.0	94.6
2025-10-06T00:46	10	0	0.1	0	0	348	0.3	348	349	8.0	94.8
2025-10-06T00:47	10	0	0.1	0	0	348	0.2	347	348	8.0	94.6
2025-10-06T00:48	10	0	0.1	0	0	347	0.2	347	348	8.0	94.6
2025-10-06T00:49	10	0	0.1	0	0	347	0.3	346	348	7.9	94.8
2025-10-06T00:50	10	0	0.1	0	0	347	0.3	346	348	7.9	95.0
2025-10-06T00:51	10	0	0.1	0	0	347	0.3	346	347	7.9	95.0
2025-10-06T00:52	10	0	0.1	0	0	346	0.3	345	347	7.9	95.2
2025-10-06T00:53	10	0	0.1	0	0	346	0.3	345	346	7.9	95.2
2025-10-06T00:54	10	0	0.1	0	0	345	0.2	345	346	7.9	95.1
2025-10-06T00:55	10	0	0.1	0	0	345	0.2	345	346	7.9	95.1
2025-10-06T00:56	10	0	0.1	0	0	345	0.2	345	346	7.8	95.3
2025-10-06T00:57	10	0	0.1	0	0	345	0.2	345	346	7.8	95.2
2025-10-06T00:58	10	0	0.1	0	0	346	0.2	345	346	7.8	95.1
2025-10-06T00:59	10	0	0.1	0	0	346	0.3	345	346	7.8	95.2
2025-10-06T01:00	10	0	0.1	0	0	346	0.2	345	346	7.8	95.5
2025-10-06T01:01	10	0	0.1	0	0	346	0.2	345	346	7.8	95.1
2025-10-06T01:02	10	0	0.1	0	0	346	0.3	345	346	7.9	94.6
2025-10-06T01:03	10	0	0.1	0	0	346	0.2	345	346	7.9	94.4
2025-10-06T01:04	10	0	0.1	0	0	346	0.3	345	347	7.9	93.9
2025-10-06T01:05	10	0	0.1	0	0	346	0.3	346	347	7.9	93.8
2025-10-06T01:06	10	0	0.1	0	0	346	0.2	346	347	7.9	93.7
2025-10-06T01:07	10	0	0.1	0	0	346	0.2	346	347	7.9	93.6
2025-10-06T01:08	10	0	0.1	0	0	346	0.2	346	347	7.9	93.5
2025-10-06T01:09	10	0	0.1	0	0	346	0.2	345	346	7.8	93.9
2025-10-06T01:10	10	0	0.1	0	0	346	0.2	346	347	7.8	94.1
2025-10-06T01:11	10	0	0.1	0	0	346	0.2	345	346	7.8	94.1
2025-10-06T01:12	10	0	0.1	0	0	346	0.3	345	346	7.8	93.9
2025-10-06T01:13	10	0	0.1	0	0	346	0.2	345	346	7.8	93.5
2025-10-06T01:14	10	0	0.1	0	0	346	0.2	345	346	7.8	93.1
2025-10-06T01:15	10	0	0.1	0	0	345	0.3	345	346	7.8	93.0
2025-10-06T01:16	10	0	0.1	0	0	345	0.2	345	346	7.8	93.3
2025-10-06T01:17	10	0	0.1	0	0	345	0.2	345	346	7.8	93.4
2025-10-06T01:18	10	0	0.1	0	0	345	0.3	344	345	7.8	93.3
2025-10-06T01:19	10	0	0.1	0	0	345	0.3	344	345	7.8	93.1
2025-10-06T01:20	10	0	0.1	0	0	345	0.2	344	345	7.9	92.8
2025-10-06T01:21	10	0	0.1	0	0	345	0.2	344	345	7.8	92.7
2025-10-06T01:22	10	0	0.1	0	0	345	0.2	344	345	7.9	92.5
2025-10-06T01:23	10	0	0.1	0	0	345	0.2	345	345	7.8	92.4
2025-10-06T01:24	10	0	0.1	0	0	345	0.2	345	346	7.9	92.4
2025-10-06T01:25	10	0	0.1	0	0	345	0.2	345	346	7.8	92.5
2025-10-06T01:26	10	0	0.1	0	0	345	0.2	345	346	7.8	92.6
2025-10-06T01:27	10	0	0.1	0	0	345	0.2	344	346	7.8	92.9
2025-10-06T01:28	10	0	0.1	0	0	344	0.2	344	345	7.8	93.2
2025-10-06T01:29	10	0	0.1	0	0	344	0.3	344	345	7.8	93.1
2025-10-06T01:30	10	0	0.1	0	0	344	0.2	343	344	7.7	93.3
2025-10-06T01:31	10	0	0.1	0	0	344	0.2	344	345	7.8	93.0
2025-10-06T01:32	10	0	0.1	0	0	344	0.2	344	345	7.8	93.0
2025-10-06T01:33	10	0	0.1	0	0	344	0.2	344	344	7.8	92.8
2025-10-06T01:34	10	0	0.1	0	0	344	0.3	343	344	7.8	92.7
2025-10-06T01:35	10	0	0.1	0	0	344	0.4	343	345	7.8	92.9
2025-10-06T01:36	10	0	0.1	0	0	344	0.3	343	344	7.8	93.1
2025-10-06T01:37	10	0	0.1	0	0	344	0.2	343	344	7.8	93.3
2025-10-06T01:38	10	0	0.1	0	0	343	0.2	343	344	7.8	92.9
2025-10-06T01:39	10	0	0.1	0	0	344	0.3	343	344	7.8	92.8
2025-10-06T01:40	10	0	0.1	0	0	344	0.3	343	344	7.8	92.7
2025-10-06T01:41	10	0	0.1	0	0	344	0.3	343	344	7.8	92.6
2025-10-06T01:42	10	0	0.1	0	0	344	0.2	343	344	7.9	92.4
2025-10-06T01:43	10	0	0.1	0	0	344	0.3	343	344	7.8	92.6
2025-10-06T01:44	10	0	0.1	0	0	344	0.3	343	345	7.8	92.9
2025-10-06T01:45	10	0	0.1	0	0	344	0.2	344	344	7.8	93.2
2025-10-06T01:46	10	0	0.1	0	0	344	0.3	344	345	7.7	93.3
2025-10-06T01:47	10	0	0.1	0	0	344	0.2	344	345	7.7	93.4
2025-10-06T01:48	10	0	0.1	0	0	345	0.3	344	346	7.7	93.4
2025-10-06T01:49	10	0	0.1	0	0	345	0.2	344	346	7.7	93.6
2025-10-06T01:50	10	0	0.1	0	0	346	0.3	345	346	7.7	93.7
2025-10-06T01:51	10	0	0.1	0	0	346	0.2	345	347	7.7	93.6
2025-10-06T01:52	10	0	0.1	0	0	346	0.3	346	347	7.7	93.9
2025-10-06T01:53	10	0	0.1	0	0	347	0.2	346	347	7.7	93.9
2025-10-06T01:54	10	0	0.1	0	0	347	0.3	346	348	7.7	94.1
2025-10-06T01:55	10	0	0.1	0	0	347	0.2	347	348	7.6	94.3
2025-10-06T01:56	10	0	0.1	0	0	347	0.3	347	348	7.7	94.4
2025-10-06T01:57	10	0	0.1	0	0	348	0.3	347	348	7.7	94.2
2025-10-06T01:58	10	0	0.1	0	0	348	0.2	347	348	7.7	94.1
2025-10-06T01:59	10	0	0.1	0	0	348	0.3	347	349	7.7	94.3
2025-10-06T02:00	10	0	0.1	0	0	348	0.2	348	348	7.7	94.4
2025-10-06T02:01	10	0	0.1	0	0	348	0.3	347	349	7.7	94.2
2025-10-06T02:02	10	0	0.1	0	0	348	0.3	348	349	7.8	94.0
2025-10-06T02:03	10	0	0.1	0	0	348	0.2	348	349	7.8	94.2
2025-10-06T02:04	10	0	0.1	0	0	348	0.2	348	348	7.8	94.0
2025-10-06T02:05	10	0	0.1	0	0	348	0.2	348	349	7.8	94.1
2025-10-06T02:06	10	0	0.1	0	0	348	0.3	348	349	7.8	94.2
2025-10-06T02:07	10	0	0.1	0	0	348	0.3	347	349	7.8	94.0
2025-10-06T02:08	10	0	0.1	0	0	348	0.2	347	348	7.8	94.1
2025-10-06T02:09	10	0	0.1	0	0	348	0.2	347	348	7.8	93.8
2025-10-06T02:10	10	0	0.1	0	0	347	0.2	347	348	7.8	93.3
2025-10-06T02:11	10	0	0.1	0	0	347	0.2	347	348	7.8	93.4
2025-10-06T02:12	10	0	0.1	0	0	347	0.3	346	347	7.8	93.5
2025-10-06T02:13	10	0	0.1	0	0	346	0.3	346	347	7.8	93.9
2025-10-06T02:14	10	0	0.1	0	0	346	0.3	345	346	7.7	94.3
2025-10-06T02:15	10	0	0.1	-1	0	345	0.3	344	346	7.7	94.3
2025-10-06T02:16	10	0	0.1	0	0	345	0.3	344	345	7.7	94.5
2025-10-06T02:17	10	0	0.1	0	0	344	0.2	344	345	7.7	94.4
2025-10-06T02:18	10	0	0.1	0	0	344	0.2	343	345	7.7	94.7
2025-10-06T02:19	10	0	0.1	0	0	344	0.3	343	345	7.6	94.7
2025-10-06T02:20	10	0	0.1	0	0	344	0.2	343	344	7.6	94.7
2025-10-06T02:21	10	0	0.1	0	0	344	0.3	343	344	7.6	94.7
2025-10-06T02:22	10	0	0.1	0	0	343	0.2	343	344	7.6	94.9
2025-10-06T02:23	10	0	0.1	0	0	343	0.2	342	343	7.6	95.1
2025-10-06T02:24	10	0	0.1	0	0	343	0.3	342	343	7.5	95.0
2025-10-06T02:25	10	0	0.1	0	0	342	0.3	342	343	7.5	94.9
2025-10-06T02:26	10	0	0.1	0	0	342	0.3	342	343	7.5	94.8
2025-10-06T02:27	10	0	0.1	0	0	342	0.2	342	343	7.6	94.5
2025-10-06T02:28	10	0	0.1	0	0	342	0.3	341	343	7.5	94.6
2025-10-06T02:29	10	0	0.1	0	0	342	0.3	342	343	7.6	94.1
2025-10-06T02:30	10	0	0.1	0	0	342	0.2	342	343	7.6	93.9
2025-10-06T02:31	10	0	0.1	0	0	342	0.3	341	343	7.6	93.7
2025-10-06T02:32	10	0	0.1	0	0	342	0.2	341	342	7.5	93.8
2025-10-06T02:33	10	0	0.1	0	0	341	0.3	340	342	7.5	93.7
2025-10-06T02:34	10	0	0.1	0	0	341	0.2	341	342	7.6	93.3
2025-10-06T02:35	10	0	0.1	0	0	341	0.2	341	342	7.6	93.0
2025-10-06T02:36	10	0	0.1	0	0	341	0.2	341	341	7.6	92.3
2025-10-06T02:37	10	0	0.1	0	0	341	0.2	340	341	7.6	92.4
2025-10-06T02:38	10	0	0.1	0	0	341	0.2	341	341	7.5	92.8
2025-10-06T02:39	10	0	0.1	0	0	341	0.2	340	341	7.5	93.0
2025-10-06T02:40	10	0	0.1	0	0	341	0.2	340	341	7.5	93.1
2025-10-06T02:41	10	0	0.1	0	0	341	0.2	340	341	7.5	93.3
2025-10-06T02:42	10	0	0.1	0	0	341	0.4	340	342	7.5	93.4
2025-10-06T02:43	10	0	0.1	0	0	341	0.2	341	342	7.4	93.7
2025-10-06T02:44	10	0	0.1	0	0	341	0.3	341	342	7.4	93.8
2025-10-06T02:45	10	0	0.1	0	0	342	0.3	341	342	7.3	94.1
2025-10-06T02:46	10	0	0.1	0	0	342	0.3	342	343	7.3	94.0
2025-10-06T02:47	10	0	0.1	0	0	343	0.2	342	343	7.3	94.3
2025-10-06T02:48	10	0	0.1	0	0	343	0.3	342	343	7.3	94.5
2025-10-06T02:49	10	0	0.1	0	0	343	0.2	342	343	7.3	94.4
2025-10-06T02:50	10	0	0.1	0	0	343	0.3	343	344	7.3	94.3
2025-10-06T02:51	10	0	0.1	0	0	343	0.2	343	343	7.3	94.2
2025-10-06T02:52	10	0	0.1	0	0	343	0.3	343	344	7.4	94.2
2025-10-06T02:53	10	0	0.1	0	0	343	0.2	342	344	7.4	94.1
2025-10-06T02:54	10	0	0.1	0	0	343	0.3	342	344	7.4	93.8
2025-10-06T02:55	10	0	0.1	0	0	343	0.3	342	343	7.4	93.9
2025-10-06T02:56	10	0	0.1	0	0	343	0.2	342	343	7.4	93.9
2025-10-06T02:57	10	0	0.1	0	0	343	0.3	342	343	7.4	94.0
2025-10-06T02:58	10	0	0.1	0	0	342	0.2	342	343	7.4	94.0
2025-10-06T02:59	10	0	0.1	0	0	342	0.2	342	343	7.4	94.2
2025-10-06T03:00	10	0	0.1	0	0	342	0.3	342	343	7.4	94.0
2025-10-06T03:01	10	0	0.1	0	0	343	0.2	342	343	7.5	93.8
2025-10-06T03:02	10	0	0.1	0	0	343	0.2	342	343	7.5	93.8
2025-10-06T03:03	10	0	0.1	0	0	343	0.2	343	344	7.5	93.9
2025-10-06T03:04	10	0	0.1	0	0	343	0.2	343	344	7.5	93.9
2025-10-06T03:05	10	0	0.1	0	0	343	0.3	342	343	7.5	94.0
2025-10-06T03:06	10	0	0.1	0	0	343	0.2	342	343	7.5	94.0
2025-10-06T03:07	10	0	0.1	0	0	343	0.3	342	344	7.5	93.9
2025-10-06T03:08	10	0	0.1	0	0	343	0.3	343	344	7.5	93.7
2025-10-06T03:09	10	0	0.1	0	0	344	0.2	343	344	7.5	93.8
2025-10-06T03:10	10	0	0.1	0	0	344	0.3	343	345	7.5	93.7
2025-10-06T03:11	10	0	0.1	0	0	344	0.2	343	344	7.4	93.9
2025-10-06T03:12	10	0	0.1	0	0	344	0.2	343	344	7.4	94.1
2025-10-06T03:13	10	0	0.1	0	0	344	0.2	343	344	7.4	93.7
2025-10-06T03:14	10	0	0.1	0	0	343	0.2	343	344	7.4	93.9
2025-10-06T03:15	10	0	0.1	0	0	343	0.3	342	343	7.4	94.3
2025-10-06T03:16	10	0	0.1	0	0	342	0.3	341	343	7.4	94.2
2025-10-06T03:17	10	0	0.1	0	0	342	0.2	341	342	7.4	94.2
2025-10-06T03:18	10	0	0.1	0	0	342	0.3	341	342	7.4	94.0
2025-10-06T03:19	10	0	0.1	0	0	342	0.2	341	342	7.4	94.0
2025-10-06T03:20	10	0	0.1	0	0	341	0.3	341	342	7.3	94.1
2025-10-06T03:21	10	0	0.0	0	0	341	0.2	341	342	7.3	94.1
2025-10-06T03:22	10	0	0.1	0	0	341	0.3	340	342	7.3	94.3
2025-10-06T03:23	10	0	0.1	0	0	341	0.3	341	342	7.3	93.9
2025-10-06T03:24	10	0	0.1	0	0	341	0.3	340	341	7.3	94.1
2025-10-06T03:25	10	0	0.0	0	0	341	0.3	340	341	7.3	94.1
2025-10-06T03:26	10	0	0.1	0	0	341	0.3	340	341	7.3	94.2
2025-10-06T03:27	10	0	0.1	0	0	340	0.2	340	341	7.3	94.5
2025-10-06T03:28	10	0	0.1	0	0	340	0.3	339	341	7.3	94.1
2025-10-06T03:29	10	0	0.1	0	0	340	0.3	339	340	7.3	94.0
2025-10-06T03:30	10	0	0.1	0	0	340	0.2	339	340	7.3	93.9
2025-10-06T03:31	10	0	0.1	0	0	340	0.2	340	341	7.3	93.9
2025-10-06T03:32	10	0	0.1	0	0	340	0.3	340	341	7.3	93.9
2025-10-06T03:33	10	0	0.1	0	0	341	0.3	340	342	7.3	93.3
2025-10-06T03:34	10	0	0.1	0	0	341	0.2	340	341	7.4	93.0
2025-10-06T03:35	10	0	0.0	0	0	341	0.2	340	341	7.3	93.1
2025-10-06T03:36	10	0	0.1	0	0	341	0.2	341	342	7.4	92.7
2025-10-06T03:37	10	0	0.1	0	0	341	0.3	340	341	7.3	93.2
2025-10-06T03:38	10	0	0.1	0	0	341	0.2	340	341	7.3	93.3
2025-10-06T03:39	10	0	0.1	0	0	340	0.2	339	341	7.3	93.5
2025-10-06T03:40	10	0	0.1	0	0	340	0.2	339	340	7.2	93.8
2025-10-06T03:41	10	0	0.1	0	0	340	0.2	339	340	7.1	94.1
2025-10-06T03:42	10	0	0.1	0	0	340	0.2	339	341	7.1	94.3
2025-10-06T03:43	10	0	0.1	0	0	340	0.2	340	341	7.1	94.4
2025-10-06T03:44	10	0	0.1	0	0	341	0.2	340	341	7.1	94.6
2025-10-06T03:45	10	0	0.1	0	0	341	0.3	340	342	7.1	94.7
2025-10-06T03:46	10	0	0.1	0	0	342	0.3	341	342	7.1	94.6
2025-10-06T03:47	10	0	0.1	0	0	342	0.3	341	343	7.1	94.8
2025-10-06T03:48	10	0	0.1	0	0	342	0.2	342	343	7.1	94.7
2025-10-06T03:49	10	0	0.1	0	0	343	0.2	342	343	7.1	94.6
2025-10-06T03:50	10	0	0.0	0	0	343	0.3	342	343	7.1	94.7
2025-10-06T03:51	10	0	0.1	0	0	342	0.2	342	343	7.1	94.9
2025-10-06T03:52	10	0	0.1	0	0	342	0.2	342	343	7.1	94.8
2025-10-06T03:53	10	0	0.0	0	0	342	0.2	342	343	7.1	94.9
2025-10-06T03:54	10	0	0.0	0	0	342	0.2	341	342	7.1	94.7
2025-10-06T03:55	10	0	0.1	0	0	342	0.2	341	342	7.1	94.8
2025-10-06T03:56	10	0	0.1	0	0	342	0.3	341	342	7.1	94.9
2025-10-06T03:57	10	0	0.1	0	0	341	0.2	341	342	7.1	94.7
2025-10-06T03:58	10	0	0.1	0	0	342	0.3	341	342	7.1	94.4
2025-10-06T03:59	10	0	0.1	0	0	342	0.2	342	343	7.2	94.1
2025-10-06T04:00	10	0	0.1	0	0	342	0.2	341	342	7.2	94.0
2025-10-06T04:01	10	0	0.1	0	0	342	0.2	342	343	7.2	93.6
2025-10-06T04:02	10	0	0.1	0	0	343	0.3	342	343	7.3	93.5
2025-10-06T04:03	10	0	0.1	0	0	343	0.2	342	343	7.3	93.4
2025-10-06T04:04	10	0	0.1	0	0	343	0.3	343	344	7.3	93.1
2025-10-06T04:05	10	0	0.1	0	0	343	0.2	343	344	7.3	93.0
2025-10-06T04:06	10	0	0.1	0	0	344	0.2	343	344	7.3	93.4
2025-10-06T04:07	10	0	0.1	-1	0	344	0.3	343	345	7.3	93.5
2025-10-06T04:08	10	0	0.1	-1	0	344	0.2	343	345	7.4	92.1
2025-10-06T04:09	10	0	0.1	-1	0	344	0.2	344	345	7.5	91.8
2025-10-06T04:10	10	-1	0.1	-1	0	344	0.3	344	345	7.4	92.0
2025-10-06T04:11	10	-1	0.1	-1	0	344	0.2	344	345	7.4	92.5
2025-10-06T04:12	10	-1	0.0	-1	0	344	0.2	344	345	7.4	92.0
2025-10-06T04:13	10	-1	0.1	-1	0	345	0.2	344	345	7.6	90.8
2025-10-06T04:14	10	0	0.1	-1	0	345	0.3	344	345	7.6	90.6
2025-10-06T04:15	10	0	0.1	-1	0	344	0.1	344	345	7.7	90.0
2025-10-06T04:16	10	0	0.1	0	0	344	0.2	344	345	7.7	90.1
2025-10-06T04:17	10	0	0.0	0	0	344	0.3	343	344	7.6	90.5
2025-10-06T04:18	10	0	0.1	0	0	343	0.3	343	344	7.5	91.4
2025-10-06T04:19	10	0	0.1	0	0	343	0.3	342	343	7.4	91.7
2025-10-06T04:20	10	0	0.0	0	0	342	0.3	342	343	7.4	91.9
2025-10-06T04:21	10	0	0.1	0	0	342	0.3	341	342	7.4	91.8
2025-10-06T04:22	10	0	0.1	0	0	342	0.2	341	342	7.4	91.3
2025-10-06T04:23	10	0	0.1	0	0	341	0.2	341	342	7.4	91.1
2025-10-06T04:24	10	0	0.1	0	0	341	0.4	340	342	7.4	91.7
2025-10-06T04:25	10	0	0.1	0	0	340	0.3	339	341	7.3	92.3
2025-10-06T04:26	10	0	0.1	0	0	340	0.2	339	340	7.3	92.1
2025-10-06T04:27	10	0	0.1	0	0	339	0.2	339	340	7.3	92.2
2025-10-06T04:28	10	0	0.1	0	0	339	0.2	339	340	7.3	92.7
2025-10-06T04:29	10	0	0.1	0	0	339	0.2	339	340	7.2	93.0
2025-10-06T04:30	10	0	0.1	0	0	339	0.2	338	339	7.2	93.2
2025-10-06T04:31	10	0	0.1	0	0	339	0.3	339	340	7.3	93.2
2025-10-06T04:32	10	0	0.1	0	0	339	0.2	339	340	7.3	92.8
2025-10-06T04:33	10	0	0.1	0	0	339	0.2	338	339	7.3	92.8
2025-10-06T04:34	10	0	0.1	0	0	339	0.2	339	340	7.3	92.2
2025-10-06T04:35	10	0	0.1	0	0	339	0.3	338	339	7.3	92.2
2025-10-06T04:36	10	0	0.1	0	0	339	0.3	338	339	7.3	92.3
2025-10-06T04:37	10	0	0.1	0	0	338	0.3	337	338	7.3	92.3
2025-10-06T04:38	10	0	0.1	0	0	337	0.3	337	338	7.3	92.3
2025-10-06T04:39	10	0	0.1	0	0	338	0.2	337	338	7.3	92.5
2025-10-06T04:40	10	0	0.1	0	0	337	0.2	337	338	7.2	92.7
2025-10-06T04:41	10	0	0.1	0	0	337	0.3	337	338	7.2	92.9
2025-10-06T04:42	10	0	0.1	0	0	338	0.2	337	338	7.3	92.6
2025-10-06T04:43	10	0	0.1	0	0	337	0.3	337	338	7.3	92.5
2025-10-06T04:44	10	0	0.1	0	0	337	0.3	336	337	7.2	92.8
2025-10-06T04:45	10	0	0.1	0	0	336	0.3	336	337	7.2	93.1
2025-10-06T04:46	10	0	0.1	0	0	336	0.2	335	337	7.1	93.4
2025-10-06T04:47	10	0	0.1	0	0	336	0.2	335	336	7.1	93.5
2025-10-06T04:48	10	0	0.1	0	0	336	0.2	335	336	7.1	93.6
2025-10-06T04:49	10	0	0.0	0	0	336	0.3	335	337	7.1	93.5
2025-10-06T04:50	10	0	0.1	0	0	336	0.3	336	337	7.1	93.6
2025-10-06T04:51	10	0	0.1	0	0	336	0.2	336	337	7.1	93.6
2025-10-06T04:52	10	0	0.1	0	0	337	0.2	336	337	7.1	93.7
2025-10-06T04:53	10	0	0.1	0	0	336	0.3	335	337	7.1	93.6
2025-10-06T04:54	10	0	0.1	0	0	336	0.3	335	336	7.0	93.7
2025-10-06T04:55	10	0	0.1	0	0	335	0.3	334	335	7.0	93.8
2025-10-06T04:56	10	0	0.1	0	0	335	0.2	334	335	7.0	93.9
2025-10-06T04:57	10	0	0.1	0	0	334	0.3	334	335	7.0	94.1
2025-10-06T04:58	10	0	0.1	0	0	335	0.4	334	336	7.0	94.0
2025-10-06T04:59	10	0	0.1	0	0	334	0.3	334	335	7.0	94.2
2025-10-06T05:00	10	0	0.1	0	0	334	0.2	333	334	7.0	94.3
2025-10-06T05:01	10	0	0.0	0	0	334	0.3	333	334	6.9	94.4
2025-10-06T05:02	10	0	0.1	0	0	333	0.2	333	333	6.9	95.0
2025-10-06T05:03	10	0	0.1	0	0	333	0.3	333	334	6.8	94.7
2025-10-06T05:04	10	0	0.1	0	0	334	0.3	333	334	6.9	94.6
2025-10-06T05:05	10	0	0.1	0	0	335	0.3	334	335	7.0	94.5
2025-10-06T05:06	10	0	0.1	0	0	334	0.4	333	335	7.0	94.7
2025-10-06T05:07	10	0	0.1	0	0	333	0.3	333	334	6.9	94.8
2025-10-06T05:08	10	0	0.1	0	0	332	0.3	332	333	6.9	95.0
2025-10-06T05:09	10	0	0.0	0	0	331	0.3	331	332	6.8	95.2
2025-10-06T05:10	10	0	0.1	0	0	331	0.2	331	332	6.8	95.2
2025-10-06T05:11	10	0	0.1	0	0	331	0.2	330	331	6.8	95.1
2025-10-06T05:12	10	0	0.1	0	0	330	0.3	330	331	6.8	95.2
2025-10-06T05:13	10	0	0.1	0	0	330	0.2	329	330	6.8	95.2
2025-10-06T05:14	10	0	0.1	0	0	329	0.3	328	330	6.8	95.4
2025-10-06T05:15	10	0	0.1	0	0	328	0.3	328	329	6.8	95.5
2025-10-06T05:16	10	0	0.1	0	0	328	0.2	327	329	6.8	95.6
2025-10-06T05:17	10	0	0.1	0	0	328	0.2	327	328	6.8	95.6
2025-10-06T05:18	10	0	0.1	0	0	328	0.3	327	329	6.8	95.2
2025-10-06T05:19	10	0	0.1	0	0	328	0.2	327	328	6.8	95.5
2025-10-06T05:20	10	0	0.1	0	0	328	0.2	328	328	6.7	95.7
2025-10-06T05:21	10	0	0.1	0	0	328	0.3	328	329	6.8	95.4
2025-10-06T05:22	10	0	0.1	0	0	328	0.2	328	329	6.8	95.4
2025-10-06T05:23	10	0	0.1	0	0	328	0.2	328	329	6.8	95.6
2025-10-06T05:24	10	0	0.1	0	0	329	0.2	328	329	6.8	95.4
2025-10-06T05:25	10	0	0.1	0	0	329	0.2	329	329	6.8	95.5
2025-10-06T05:26	10	0	0.1	0	0	329	0.2	328	329	6.9	95.3
2025-10-06T05:27	10	0	0.1	0	0	328	0.2	328	329	6.8	95.8
2025-10-06T05:28	10	0	0.1	0	1	329	0.3	328	329	6.8	95.7
2025-10-06T05:29	10	0	0.1	0	1	329	0.3	328	330	6.7	95.8
2025-10-06T05:30	10	0	0.1	0	1	329	0.2	329	330	6.7	96.2
2025-10-06T05:31	10	0	0.1	0	1	330	0.2	329	330	6.7	96.4
2025-10-06T05:32	10	0	0.1	0	1	331	0.3	330	331	6.7	96.4
2025-10-06T05:33	10	0	0.1	0	1	331	0.2	330	331	6.7	96.2
2025-10-06T05:34	10	0	0.1	0	1	331	0.2	330	332	6.7	96.0
2025-10-06T05:35	10	0	0.1	0	1	331	0.2	331	332	6.7	95.9
2025-10-06T05:36	10	1	0.1	0	1	332	0.2	331	332	6.7	96.1
2025-10-06T05:37	10	1	0.1	0	1	332	0.2	331	332	6.7	96.2
2025-10-06T05:38	10	1	0.1	0	1	332	0.2	331	332	6.7	96.2
2025-10-06T05:39	10	1	0.1	0	1	332	0.3	331	332	6.7	96.4
2025-10-06T05:40	10	1	0.1	0	1	332	0.3	331	333	6.7	96.1
2025-10-06T05:41	10	1	0.1	1	1	332	0.2	332	333	6.7	95.9
2025-10-06T05:42	10	1	0.1	1	1	332	0.3	332	333	6.7	96.2
2025-10-06T05:43	10	1	0.1	1	1	333	0.3	332	334	6.7	96.2
2025-10-06T05:44	10	1	0.1	1	1	334	0.2	333	334	6.7	96.0
2025-10-06T05:45	10	1	0.1	1	1	334	0.3	333	335	6.7	96.1
2025-10-06T05:46	10	1	0.1	1	1	334	0.3	333	335	6.7	96.0
2025-10-06T05:47	10	1	0.1	1	1	334	0.2	333	334	6.7	96.1
2025-10-06T05:48	10	1	0.1	1	1	334	0.3	333	334	6.7	96.0
2025-10-06T05:49	10	1	0.1	1	2	334	0.3	333	335	6.6	96.3
2025-10-06T05:50	10	1	0.1	1	2	334	0.2	334	335	6.7	96.2
2025-10-06T05:51	10	1	0.1	1	2	334	0.2	334	335	6.6	96.4
2025-10-06T05:52	10	2	0.1	1	2	335	0.2	334	335	6.6	96.5
2025-10-06T05:53	10	2	0.1	1	2	335	0.3	334	336	6.6	96.2
2025-10-06T05:54	10	2	0.1	1	2	335	0.2	334	336	6.6	96.6
2025-10-06T05:55	10	2	0.1	1	2	335	0.2	335	336	6.6	96.3
2025-10-06T05:56	10	2	0.1	1	2	336	0.2	335	336	6.5	96.3
2025-10-06T05:57	10	2	0.1	1	2	336	0.3	335	336	6.6	95.8
2025-10-06T05:58	10	2	0.1	1	2	336	0.2	335	336	6.6	95.7
2025-10-06T05:59	10	2	0.2	1	2	336	0.2	335	337	6.7	95.5
2025-10-06T06:00	10	2	0.1	1	2	336	0.2	335	336	6.7	95.4
2025-10-06T06:01	10	2	0.1	1	2	336	0.2	335	336	6.8	95.3
2025-10-06T06:02	10	2	0.1	1	2	336	0.3	335	337	6.8	95.0
2025-10-06T06:03	10	2	0.1	2	2	336	0.2	336	337	6.8	95.1
2025-10-06T06:04	10	2	0.1	2	2	336	0.3	336	337	6.7	95.2
2025-10-06T06:05	10	2	0.2	2	2	336	0.3	336	337	6.7	95.3
2025-10-06T06:06	10	2	0.2	2	2	336	0.3	336	337	6.7	95.2
2025-10-06T06:07	10	2	0.1	2	2	336	0.2	336	337	6.7	95.2
2025-10-06T06:08	10	2	0.1	2	3	336	0.3	336	337	6.7	95.3
2025-10-06T06:09	10	2	0.1	2	3	336	0.2	336	337	6.7	95.1
2025-10-06T06:10	10	3	0.1	2	3	337	0.2	336	338	6.8	94.7
2025-10-06T06:11	10	3	0.1	2	3	337	0.2	336	337	6.8	94.5
2025-10-06T06:12	10	3	0.2	2	3	337	0.3	337	338	6.8	93.9
2025-10-06T06:13	10	3	0.1	3	3	337	0.2	337	338	6.8	94.0
2025-10-06T06:14	10	3	0.2	3	3	337	0.3	336	338	6.8	93.7
2025-10-06T06:15	10	3	0.1	3	3	337	0.2	336	337	6.9	93.3
2025-10-06T06:16	10	3	0.1	3	3	337	0.3	337	338	6.9	92.9
2025-10-06T06:17	10	3	0.1	3	3	337	0.2	337	338	6.9	92.8
2025-10-06T06:18	10	3	0.1	3	3	337	0.3	337	338	6.9	92.8
2025-10-06T06:19	10	3	0.1	3	4	337	0.2	337	338	6.9	92.8
2025-10-06T06:20	10	3	0.1	3	4	337	0.2	336	338	6.9	92.8
2025-10-06T06:21	10	4	0.2	3	4	337	0.3	336	338	6.9	92.7
2025-10-06T06:22	10	4	0.1	4	4	337	0.2	337	338	7.0	92.3
2025-10-06T06:23	10	4	0.2	4	5	337	0.2	337	338	7.0	92.0
2025-10-06T06:24	10	5	0.1	4	5	337	0.3	336	338	7.0	91.7
2025-10-06T06:25	10	5	0.1	5	5	337	0.2	337	338	6.9	92.1
2025-10-06T06:26	10	5	0.1	5	5	337	0.2	337	338	6.9	91.7
2025-10-06T06:27	10	5	0.1	5	5	337	0.3	337	338	7.0	91.5
2025-10-06T06:28	10	5	0.1	5	6	337	0.2	337	338	7.0	91.4
2025-10-06T06:29	10	6	0.2	5	6	338	0.2	337	338	7.1	90.9
2025-10-06T06:30	10	6	0.2	5	6	338	0.3	337	338	7.0	91.0
2025-10-06T06:31	10	6	0.2	6	7	338	0.2	337	338	7.0	91.1
2025-10-06T06:32	10	7	0.1	7	7	337	0.3	336	338	7.0	91.5
2025-10-06T06:33	10	7	0.2	7	8	337	0.2	336	337	6.9	91.9
2025-10-06T06:34	10	7	0.1	7	7	337	0.3	336	337	6.8	92.1
2025-10-06T06:35	10	7	0.2	7	7	337	0.2	337	337	6.9	91.8
2025-10-06T06:36	10	7	0.1	7	7	337	0.2	337	338	6.8	92.0
2025-10-06T06:37	10	7	0.1	7	7	337	0.2	337	338	6.8	92.3
2025-10-06T06:38	10	7	0.1	6	7	338	0.3	337	338	6.8	92.5
2025-10-06T06:39	10	7	0.2	6	7	338	0.3	337	338	6.8	92.9
2025-10-06T06:40	10	7	0.2	7	8	338	0.3	337	339	6.7	93.1
2025-10-06T06:41	10	9	0.6	8	10	338	0.3	337	339	6.7	93.3
2025-10-06T06:42	10	11	0.3	10	12	338	0.2	337	339	6.7	93.6
2025-10-06T06:43	10	12	0.5	12	13	338	0.3	337	339	6.7	93.4
2025-10-06T06:44	10	14	1.2	12	16	338	0.2	338	339	6.7	93.5
2025-10-06T06:45	10	16	0.8	14	17	338	0.3	338	339	6.7	93.7
2025-10-06T06:46	10	19	1.4	18	24	338	0.3	338	339	6.7	93.7
2025-10-06T06:47	10	37	5.7	24	43	340	1.1	338	342	6.7	94.1
2025-10-06T06:48	10	43	0.2	43	43	342	0.6	341	343	6.7	94.2
2025-10-06T06:49	10	43	0.2	43	44	343	0.4	342	344	6.7	94.3
2025-10-06T06:50	10	44	0.3	44	45	344	0.4	343	345	6.7	94.3
2025-10-06T06:51	10	45	0.3	45	46	344	0.2	344	345	6.6	94.7
2025-10-06T06:52	10	45	0.4	44	46	345	0.2	345	346	6.6	95.2
2025-10-06T06:53	10	47	0.6	45	48	345	0.3	344	346	6.5	95.8
2025-10-06T06:54	10	44	3.0	38	47	346	0.3	345	346	6.5	96.3
2025-10-06T06:55	10	43	3.5	37	46	345	0.3	344	346	6.4	96.5
2025-10-06T06:56	10	48	1.1	46	49	346	0.3	345	347	6.4	96.6
2025-10-06T06:57	10	49	0.6	48	50	346	0.2	346	347	6.5	96.6
2025-10-06T06:58	10	48	2.3	46	52	347	0.2	346	347	6.6	96.1
2025-10-06T06:59	10	53	0.4	52	53	348	0.3	347	348	6.7	95.8
2025-10-06T07:00	10	54	0.3	53	54	348	0.3	347	349	6.7	95.8
2025-10-06T07:01	10	55	0.3	54	55	349	0.3	348	350	6.8	95.8
2025-10-06T07:02	10	56	0.3	55	56	350	0.3	349	350	6.8	95.2
2025-10-06T07:03	10	57	0.4	56	58	350	0.2	350	351	6.8	95.2
2025-10-06T07:04	10	58	0.4	57	59	351	0.3	350	352	6.9	95.1
2025-10-06T07:05	10	59	0.4	59	60	351	0.3	351	352	6.9	94.8
2025-10-06T07:06	10	61	0.3	60	61	352	0.3	352	353	7.0	94.6
2025-10-06T07:07	10	62	0.4	61	63	353	0.5	352	354	7.0	94.4
2025-10-06T07:08	10	63	0.5	62	64	354	0.2	354	355	7.0	94.4
2025-10-06T07:09	10	65	0.6	64	66	355	0.3	354	356	7.0	94.3
2025-10-06T07:10	10	67	0.6	66	68	356	0.4	355	357	7.1	94.4
2025-10-06T07:11	10	69	0.6	68	70	357	0.3	357	358	7.4	93.9
2025-10-06T07:12	10	71	0.4	70	72	358	0.2	357	358	7.6	92.4
2025-10-06T07:13	10	72	0.3	72	73	358	0.2	357	358	7.6	91.3
2025-10-06T07:14	10	73	0.4	73	74	359	0.4	358	359	7.6	91.1
2025-10-06T07:15	10	75	0.6	74	76	359	0.3	359	360	7.7	91.4
2025-10-06T07:16	10	77	0.6	76	78	360	0.3	360	361	7.9	92.0
2025-10-06T07:17	10	79	0.4	78	80	361	0.4	360	362	7.8	90.7
2025-10-06T07:18	10	80	0.2	80	81	362	0.2	361	362	7.8	91.6
2025-10-06T07:19	10	81	0.1	81	81	362	0.2	362	362	7.8	91.7
2025-10-06T07:20	10	80	0.1	80	81	363	0.2	362	363	7.8	91.2
2025-10-06T07:21	10	80	0.5	79	80	363	0.4	362	364	7.8	91.2
2025-10-06T07:22	10	80	1.0	79	82	363	0.3	362	364	7.8	90.4
2025-10-06T07:23	10	82	0.2	82	83	364	0.4	363	365	7.9	90.7
2025-10-06T07:24	10	83	0.3	83	84	365	0.2	364	365	7.9	89.2
2025-10-06T07:25	10	84	0.4	84	85	364	0.4	364	365	7.9	90.7
2025-10-06T07:26	10	86	0.2	85	86	365	0.6	364	366	7.9	86.2
2025-10-06T07:27	10	86	0.1	86	86	366	0.3	365	366	7.9	89.2
2025-10-06T07:28	10	86	0.2	86	86	366	0.2	365	367	7.9	90.7
2025-10-06T07:29	10	85	0.2	85	86	366	0.3	366	367	7.9	90.7
2025-10-06T07:30	10	85	0.1	85	85	367	0.3	366	367	7.9	90.7
2025-10-06T07:31	10	85	0.1	85	85	367	0.5	366	367	8.5	87.4
2025-10-06T07:32	10	85	0.1	85	85	366	0.2	366	367	8.6	84.1
2025-10-06T07:33	10	85	0.1	85	85	366	0.3	365	367	8.5	87.0
2025-10-06T07:34	10	84	0.3	84	85	366	0.4	365	367	8.5	87.4
2025-10-06T07:35	10	83	0.6	82	84	365	0.5	364	366	8.4	87.8
2025-10-06T07:36	10	81	0.5	80	82	364	0.4	363	365	8.4	87.3
2025-10-06T07:37	10	80	0.2	80	81	364	0.2	363	364	8.4	87.1
2025-10-06T07:38	10	80	0.2	79	80	364	0.3	363	364	8.4	87.1
2025-10-06T07:39	10	80	0.1	79	80	364	0.3	363	365	8.6	85.6
2025-10-06T07:40	10	80	0.2	80	80	364	0.2	363	365	8.6	85.2
2025-10-06T07:41	10	81	0.1	81	81	365	0.4	364	366	8.8	86.3
2025-10-06T07:42	10	80	0.2	80	81	364	0.3	364	365	8.8	84.8
2025-10-06T07:43	10	80	0.2	79	80	364	0.2	364	365	8.8	85.6
2025-10-06T07:44	10	79	0.1	79	80	365	0.3	364	366	8.9	85.9
2025-10-06T07:45	10	79	0.1	79	79	365	0.5	364	366	9.1	85.2
2025-10-06T07:46	10	79	0.1	79	79	364	0.3	363	365	9.1	81.4
2025-10-06T07:47	10	80	0.1	79	80	365	0.3	364	365	9.2	83.5
2025-10-06T07:48	10	80	0.2	80	80	364	0.3	364	365	9.2	81.5
2025-10-06T07:49	10	81	0.2	80	81	365	0.5	364	366	9.2	80.9
2025-10-06T07:50	10	81	0.2	81	82	364	0.5	363	365	9.1	81.9
2025-10-06T07:51	10	82	0.2	82	82	363	0.3	363	364	9.0	81.3
2025-10-06T07:52	10	83	0.1	82	83	363	0.3	363	364	9.1	82.2
2025-10-06T07:53	10	82	0.6	81	83	364	0.5	363	365	9.1	83.1
2025-10-06T07:54	10	83	0.2	83	84	365	0.2	365	366	9.2	83.4
2025-10-06T07:55	10	84	0.3	84	84	365	0.5	364	366	9.2	81.0
2025-10-06T07:56	10	85	0.2	84	85	364	0.3	363	364	9.2	80.0
2025-10-06T07:57	10	85	0.2	85	86	364	0.2	364	365	9.2	80.5
2025-10-06T07:58	10	86	0.1	86	86	365	0.2	364	365	9.3	79.8
2025-10-06T07:59	10	86	0.2	86	87	365	0.2	365	366	9.4	80.2
2025-10-06T08:00	10	87	0.4	87	88	366	0.5	365	367	9.4	79.9
2025-10-06T08:01	10	88	1.0	86	89	365	0.3	365	366	9.4	79.0
2025-10-06T08:02	10	89	0.2	89	90	366	0.3	365	367	9.5	78.8
2025-10-06T08:03	10	90	0.2	89	91	366	0.2	366	367	9.6	78.3
2025-10-06T08:04	10	91	0.2	90	91	366	0.4	366	367	9.6	77.1
2025-10-06T08:05	10	91	0.4	91	92	367	0.2	367	368	9.7	76.3
2025-10-06T08:06	10	93	0.5	92	94	367	0.5	366	368	9.8	76.0
2025-10-06T08:07	10	91	2.0	87	93	368	0.2	367	369	9.9	76.6
2025-10-06T08:08	10	85	2.0	82	88	368	0.3	368	369	10.0	75.3
2025-10-06T08:09	10	92	2.0	88	94	369	0.7	368	371	10.1	74.1
2025-10-06T08:10	10	93	0.1	93	94	370	0.4	369	371	10.2	74.6
2025-10-06T08:11	10	94	0.4	93	94	372	0.8	371	374	10.4	74.7
2025-10-06T08:12	10	94	0.1	94	95	373	0.3	372	374	10.5	76.2
2025-10-06T08:13	10	95	0.2	95	95	373	0.3	372	373	10.4	72.5
2025-10-06T08:14	10	96	0.2	95	96	373	0.2	373	374	10.4	73.8
2025-10-06T08:15	10	96	0.2	96	97	374	0.5	373	375	10.4	75.2
2025-10-06T08:16	10	97	0.2	97	98	375	0.3	374	376	10.5	77.0
2025-10-06T08:17	10	98	0.3	97	98	374	0.3	373	375	10.3	78.5
2025-10-06T08:18	10	99	0.4	98	99	374	0.3	374	375	10.2	79.7
2025-10-06T08:19	10	100	0.4	99	101	374	0.5	373	375	10.1	78.7
2025-10-06T08:20	10	101	0.4	101	102	374	0.6	373	375	10.1	79.9
2025-10-06T08:21	10	103	0.5	102	104	375	0.3	374	376	10.1	79.2
2025-10-06T08:22	10	104	0.4	104	105	376	0.5	375	377	10.1	79.0
2025-10-06T08:23	10	106	0.5	105	107	376	0.5	375	377	10.0	77.8
2025-10-06T08:24	10	108	0.7	107	110	377	0.5	376	378	10.0	78.7
2025-10-06T08:25	10	110	0.8	109	112	376	0.6	375	377	10.1	77.3
2025-10-06T08:26	10	113	0.8	112	115	377	0.7	375	378	10.1	77.3
2025-10-06T08:27	10	117	1.1	115	119	378	0.5	377	379	10.2	78.3
2025-10-06T08:28	10	123	2.3	119	127	378	0.6	377	380	10.2	76.5
2025-10-06T08:29	10	86	19.5	64	126	378	1.7	375	380	10.2	77.0
2025-10-06T08:30	10	63	5.4	58	72	375	1.8	372	377	10.3	78.4
2025-10-06T08:31	10	67	3.3	60	72	373	0.6	372	374	10.3	76.8
2025-10-06T08:32	10	96	13.0	72	115	375	1.2	373	377	10.2	74.7
2025-10-06T08:33	10	90	10.9	75	109	376	0.8	375	377	10.2	75.2
2025-10-06T08:34	10	91	9.7	76	108	376	0.7	374	377	10.2	74.7
2025-10-06T08:35	10	90	9.4	82	110	377	0.3	377	378	10.2	76.0
2025-10-06T08:36	10	115	8.6	91	123	379	1.2	377	381	10.3	76.6
2025-10-06T08:37	10	115	9.0	103	131	382	0.8	381	384	10.4	76.3
2025-10-06T08:38	10	117	10.9	103	133	384	0.6	383	385	10.6	77.0
2025-10-06T08:39	10	102	3.8	94	108	384	0.3	383	384	10.6	76.2
2025-10-06T08:40	10	80	10.3	68	101	383	1.4	380	385	10.7	75.5
2025-10-06T08:41	10	68	0.7	67	70	380	0.4	379	381	10.7	75.2
2025-10-06T08:42	10	71	2.3	68	76	379	0.6	378	380	10.7	75.0
2025-10-06T08:43	10	71	2.7	68	76	378	0.5	377	379	10.7	74.9
2025-10-06T08:44	10	71	3.0	68	78	378	0.3	378	379	10.7	73.5
2025-10-06T08:45	10	84	5.7	73	94	379	0.8	378	381	10.7	74.8
2025-10-06T08:46	10	93	3.4	85	98	381	0.4	381	382	10.6	74.9
2025-10-06T08:47	10	85	0.8	83	86	381	0.5	380	382	10.6	75.1
2025-10-06T08:48	10	87	5.1	81	95	381	0.4	381	382	10.5	75.1
2025-10-06T08:49	10	86	2.9	82	92	382	0.6	382	384	10.6	74.6
2025-10-06T08:50	10	79	1.4	77	82	383	0.3	382	383	10.7	74.1
2025-10-06T08:51	10	77	0.6	76	78	383	0.2	382	383	10.8	74.4
2025-10-06T08:52	10	80	0.4	79	81	384	0.4	383	385	11.0	75.4
2025-10-06T08:53	10	86	2.7	80	89	383	0.4	383	385	10.8	72.5
2025-10-06T08:54	10	82	1.1	80	85	383	0.3	383	384	10.8	73.4
2025-10-06T08:55	10	78	0.7	77	80	383	0.2	383	384	10.9	73.9
2025-10-06T08:56	10	79	2.6	78	89	384	0.4	383	385	10.9	73.4
2025-10-06T08:57	10	89	5.9	80	99	386	0.8	384	387	11.1	75.4
2025-10-06T08:58	10	80	2.0	78	85	386	0.3	385	387	11.3	72.4
2025-10-06T08:59	10	98	9.8	84	114	388	1.0	385	389	11.4	72.7
2025-10-06T09:00	10	79	1.7	77	83	387	0.9	385	389	11.4	72.1
2025-10-06T09:01	10	83	4.0	78	90	386	0.4	385	386	11.2	72.3
2025-10-06T09:02	10	81	2.0	80	87	386	0.2	385	386	11.3	71.4
2025-10-06T09:03	10	79	1.6	78	85	386	0.3	385	387	11.4	70.5
2025-10-06T09:04	10	82	1.3	79	83	387	0.3	386	387	11.7	69.9
2025-10-06T09:05	10	87	4.3	81	93	387	0.4	386	388	11.7	72.0
2025-10-06T09:06	10	85	2.7	81	89	388	0.4	387	388	11.4	72.8
2025-10-06T09:07	10	84	3.6	80	90	387	0.6	386	388	11.1	72.5
2025-10-06T09:08	10	84	5.6	80	99	387	0.4	386	388	11.2	72.1
2025-10-06T09:09	10	92	9.6	80	109	388	1.1	386	390	11.2	71.9
2025-10-06T09:10	10	79	1.3	78	83	385	0.4	385	386	11.1	68.5
2025-10-06T09:11	10	83	1.4	81	86	386	0.2	385	386	11.2	70.0
2025-10-06T09:12	10	112	19.6	86	141	389	2.5	386	392	11.4	70.3
2025-10-06T09:13	10	95	7.1	85	107	390	1.0	388	391	11.6	72.2
2025-10-06T09:14	10	83	0.9	82	86	388	0.3	387	389	11.5	71.4
2025-10-06T09:15	10	96	6.5	86	105	389	0.7	387	390	11.4	71.2
2025-10-06T09:16	10	81	3.0	78	87	388	0.8	386	389	11.3	72.8
2025-10-06T09:17	10	109	22.0	79	145	388	1.8	386	392	11.2	73.8
2025-10-06T09:18	10	123	7.6	107	136	392	0.5	390	392	11.1	73.8
2025-10-06T09:19	10	127	16.1	104	150	392	1.0	391	394	11.1	70.6
2025-10-06T09:20	10	135	11.0	115	151	394	0.9	393	396	11.2	70.6
2025-10-06T09:21	10	106	4.4	100	114	392	1.2	391	395	11.3	70.4
2025-10-06T09:22	10	120	12.3	102	140	394	1.2	392	396	11.6	71.6
2025-10-06T09:23	10	86	6.3	80	101	392	1.6	389	394	11.6	71.5
2025-10-06T09:24	10	80	0.6	80	82	388	1.0	386	390	11.3	72.6
2025-10-06T09:25	10	85	2.0	82	89	388	0.4	387	389	11.3	73.2
2025-10-06T09:26	10	89	1.4	87	92	389	0.4	388	390	11.3	73.3
2025-10-06T09:27	10	90	1.9	88	94	388	0.4	387	388	11.1	71.8
2025-10-06T09:28	10	100	4.8	94	109	388	1.0	386	390	11.2	72.9
2025-10-06T09:29	10	97	4.4	92	109	389	0.5	388	391	11.3	73.6
2025-10-06T09:30	10	88	1.8	84	92	389	0.5	388	390	11.4	74.0
2025-10-06T09:31	10	80	2.2	76	84	386	1.0	385	388	11.3	72.8
2025-10-06T09:32	10	73	1.8	70	76	385	0.3	385	386	11.4	73.0
2025-10-06T09:33	10	68	0.9	67	70	384	1.2	382	385	11.3	71.8
2025-10-06T09:34	10	66	0.3	65	67	382	0.6	380	383	11.1	69.9
2025-10-06T09:35	10	66	0.5	65	67	381	0.2	381	382	11.1	69.5
2025-10-06T09:36	10	67	0.8	66	69	382	0.5	381	383	11.1	69.0
2025-10-06T09:37	10	69	0.4	68	70	383	0.4	382	384	11.2	70.7
2025-10-06T09:38	10	70	0.4	70	71	384	0.3	383	385	11.2	69.0
2025-10-06T09:39	10	71	0.2	70	71	385	0.4	384	385	11.3	71.2
2025-10-06T09:40	10	70	0.3	70	71	384	0.9	382	385	11.5	72.7
2025-10-06T09:41	10	76	8.3	71	101	383	0.5	382	384	11.3	69.9
2025-10-06T09:42	10	99	8.6	84	109	386	1.0	384	388	11.3	70.0
2025-10-06T09:43	10	87	5.3	82	96	386	0.3	385	387	11.4	70.1
2025-10-06T09:44	10	103	7.3	94	127	388	1.1	386	390	11.3	69.5
2025-10-06T09:45	10	171	16.4	130	189	395	3.9	388	401	11.4	70.8
2025-10-06T09:46	10	172	16.2	148	193	401	0.8	399	402	11.6	71.1
2025-10-06T09:47	10	139	5.3	132	147	399	1.7	396	402	11.8	71.4
2025-10-06T09:48	10	132	10.0	120	147	397	0.6	395	398	11.6	68.9
2025-10-06T09:49	10	128	6.8	120	140	396	0.2	396	397	11.6	70.2
2025-10-06T09:50	10	134	1.6	130	137	396	0.4	395	397	11.4	69.5
2025-10-06T09:51	10	111	11.8	96	130	395	1.1	393	397	11.4	69.6
2025-10-06T09:52	10	96	0.8	94	97	394	0.5	393	394	11.6	70.0
2025-10-06T09:53	10	96	3.6	94	104	392	0.6	391	393	11.5	69.6
2025-10-06T09:54	10	111	7.9	103	122	393	0.9	392	395	11.5	69.7
2025-10-06T09:55	10	136	7.6	119	148	397	1.3	394	399	11.8	69.8
2025-10-06T09:56	10	132	8.0	120	146	398	0.6	397	399	11.9	69.8
2025-10-06T09:57	10	139	7.1	127	151	400	0.5	399	401	12.2	67.7
2025-10-06T09:58	10	122	3.7	116	127	400	0.9	398	401	12.3	68.5
2025-10-06T09:59	10	128	1.7	126	131	397	0.6	396	398	11.9	66.4
2025-10-06T10:00	10	119	7.5	102	128	397	0.5	396	398	11.7	67.7
2025-10-06T10:01	10	109	12.6	100	140	395	0.9	394	397	11.6	67.1
2025-10-06T10:02	10	136	4.9	127	142	398	0.8	396	399	11.6	65.8
2025-10-06T10:03	10	145	10.0	133	162	399	0.9	398	401	11.6	58.7
2025-10-06T10:04	10	170	5.6	160	176	403	1.1	400	405	11.8	58.5
2025-10-06T10:05	10	181	2.0	176	184	406	1.0	404	407	12.0	58.4
2025-10-06T10:06	10	185	2.7	178	188	408	0.5	407	409	11.9	57.4
2025-10-06T10:07	10	183	6.5	165	190	409	0.6	408	410	12.0	58.8
2025-10-06T10:08	10	157	8.0	148	176	407	1.0	406	410	12.1	59.4
2025-10-06T10:09	10	185	6.8	175	193	410	0.8	409	411	12.3	61.4
2025-10-06T10:10	10	189	1.0	188	191	412	0.5	411	413	12.2	62.4
2025-10-06T10:11	10	178	8.6	166	189	412	0.5	410	413	12.3	63.8
2025-10-06T10:12	10	177	6.4	167	183	411	0.3	410	411	12.3	63.9
2025-10-06T10:13	10	180	0.8	179	182	410	0.4	410	411	12.2	63.9
2025-10-06T10:14	10	177	2.1	172	179	410	0.7	408	411	12.1	61.7
2025-10-06T10:15	10	127	38.8	67	172	405	4.3	396	410	11.9	59.1
2025-10-06T10:16	10	55	4.3	51	66	392	3.9	386	399	11.7	60.0
2025-10-06T10:17	10	50	0.2	50	51	385	1.5	382	388	11.6	58.6
2025-10-06T10:18	10	51	0.4	50	52	382	0.6	381	384	11.6	58.8
2025-10-06T10:19	10	54	3.7	51	62	381	0.3	380	382	11.5	58.6
2025-10-06T10:20	10	55	3.5	50	62	381	0.3	381	382	11.5	58.9
2025-10-06T10:21	10	51	0.8	50	53	381	0.4	381	382	11.6	59.7
2025-10-06T10:22	10	56	2.3	53	60	382	0.5	381	383	11.7	60.1
2025-10-06T10:23	10	66	3.5	60	73	383	0.8	382	385	11.9	59.9
2025-10-06T10:24	10	112	20.0	74	131	387	3.3	383	392	11.8	58.9
2025-10-06T10:25	10	138	15.7	111	156	394	2.0	390	397	11.8	59.4
2025-10-06T10:26	10	77	12.8	67	112	391	2.6	387	395	11.9	58.5
2025-10-06T10:27	10	85	13.2	67	106	388	1.1	386	390	12.0	59.7
2025-10-06T10:28	10	77	14.3	66	128	388	1.3	386	390	12.0	58.9
2025-10-06T10:29	10	169	7.7	134	173	395	4.0	387	401	11.9	58.0
2025-10-06T10:30	10	172	0.3	171	172	403	1.8	399	405	12.2	60.5
2025-10-06T10:31	10	171	0.2	171	171	405	0.7	404	407	12.6	60.7
2025-10-06T10:32	10	171	0.4	171	172	408	1.1	407	410	12.8	61.1
2025-10-06T10:33	10	173	1.8	170	176	408	1.8	405	410	12.7	59.5
2025-10-06T10:34	10	179	1.7	176	182	407	1.1	405	408	12.2	58.0
2025-10-06T10:35	10	188	3.2	183	194	408	1.0	406	410	11.9	57.1
2025-10-06T10:36	10	188	7.3	177	197	411	0.5	409	412	12.0	58.6
2025-10-06T10:37	10	160	6.8	149	177	410	1.1	408	412	12.0	57.9
2025-10-06T10:38	10	108	15.0	95	147	405	3.0	400	410	12.0	57.2
2025-10-06T10:39	10	96	1.6	94	99	400	0.7	399	402	12.1	57.6
2025-10-06T10:40	10	105	9.0	99	132	399	0.4	399	401	11.9	57.4
2025-10-06T10:41	10	157	11.6	134	170	405	2.9	400	410	12.2	59.0
2025-10-06T10:42	10	129	16.9	110	163	407	1.9	403	409	12.3	57.9
2025-10-06T10:43	10	108	1.0	106	110	402	1.2	400	404	12.2	55.9
2025-10-06T10:44	10	109	2.3	106	115	400	0.4	399	401	12.2	54.6
2025-10-06T10:45	10	113	1.9	107	116	401	0.4	401	402	12.4	54.6
2025-10-06T10:46	10	101	2.1	99	107	400	1.1	398	402	12.4	52.6
2025-10-06T10:47	10	98	0.4	97	99	399	0.2	399	399	12.4	53.6
2025-10-06T10:48	10	97	0.2	96	97	399	0.4	398	399	12.4	54.9
2025-10-06T10:49	10	96	0.4	95	96	397	0.4	397	399	12.2	52.4
2025-10-06T10:50	10	95	0.3	94	95	398	0.3	397	398	12.3	52.0
2025-10-06T10:51	10	94	0.2	94	94	398	0.3	397	398	12.4	52.8
2025-10-06T10:52	10	94	0.2	94	94	398	0.4	397	399	12.5	54.4
2025-10-06T10:53	10	95	0.5	94	96	399	0.2	398	399	12.7	55.5
2025-10-06T10:54	10	99	1.9	96	103	399	0.4	399	400	12.8	55.8
2025-10-06T10:55	10	115	12.7	103	151	401	1.4	399	404	12.8	54.9
2025-10-06T10:56	10	144	18.1	117	168	407	1.3	403	408	12.9	56.5
2025-10-06T10:57	10	110	3.3	105	117	404	0.9	403	406	13.1	56.1
2025-10-06T10:58	10	104	0.8	102	105	402	0.6	401	403	13.0	55.9
2025-10-06T10:59	10	95	3.9	89	102	401	1.0	399	403	12.8	54.6
2025-10-06T11:00	10	83	2.9	79	89	398	1.3	396	400	12.5	55.8
2025-10-06T11:01	10	77	1.2	75	79	394	1.1	393	397	12.6	56.6
2025-10-06T11:02	10	74	0.3	73	75	393	0.6	393	395	12.5	56.7
2025-10-06T11:03	10	74	0.4	73	75	393	0.4	393	394	12.5	57.1
2025-10-06T11:04	10	77	2.0	75	82	393	0.5	392	394	12.5	56.3
2025-10-06T11:05	10	87	3.0	82	91	393	0.5	392	394	12.4	55.5
2025-10-06T11:06	10	90	0.4	89	91	393	0.5	392	394	12.4	56.3
2025-10-06T11:07	10	88	1.2	86	90	393	0.2	392	393	12.5	56.6
2025-10-06T11:08	10	89	1.3	87	91	393	0.6	392	394	12.6	57.3
2025-10-06T11:09	10	91	2.0	89	94	392	0.3	391	392	12.5	55.1
2025-10-06T11:10	10	88	2.9	85	93	392	0.5	391	393	12.4	54.9
2025-10-06T11:11	10	85	0.4	84	86	392	0.3	392	393	12.4	55.8
2025-10-06T11:12	10	82	1.6	78	84	392	0.3	391	392	12.3	54.2
2025-10-06T11:13	10	74	2.4	70	78	391	0.5	390	392	12.3	53.3
2025-10-06T11:14	10	68	1.0	66	70	390	0.8	388	391	12.4	55.2
2025-10-06T11:15	10	66	0.2	66	67	388	0.5	387	389	12.3	55.0
2025-10-06T11:16	10	68	0.9	66	69	388	0.5	387	389	12.4	54.8
2025-10-06T11:17	10	67	1.0	65	69	389	0.3	389	390	12.6	57.0
2025-10-06T11:18	10	62	1.9	59	65	388	0.4	388	389	12.6	56.0
2025-10-06T11:19	10	57	1.4	54	59	387	0.4	386	388	12.4	54.1
2025-10-06T11:20	10	52	1.0	51	54	386	0.4	385	386	12.4	55.4
2025-10-06T11:21	10	56	3.3	51	61	385	0.4	385	386	12.4	56.8
2025-10-06T11:22	10	75	8.9	62	87	387	1.7	385	390	12.5	57.5
2025-10-06T11:23	10	84	2.0	82	87	391	0.6	390	392	12.7	58.6
2025-10-06T11:24	10	108	14.4	82	128	394	2.3	390	397	12.8	57.8
2025-10-06T11:25	10	112	8.6	101	128	398	0.5	396	399	12.8	57.3
2025-10-06T11:26	10	133	13.5	107	152	398	1.0	397	401	12.9	59.3
2025-10-06T11:27	10	150	1.3	148	152	403	1.2	400	404	13.1	58.6
2025-10-06T11:28	10	146	0.9	145	148	404	0.3	403	405	12.9	57.2
2025-10-06T11:29	10	143	0.6	142	145	402	0.6	401	404	12.7	55.1
2025-10-06T11:30	10	142	0.3	141	142	401	0.3	400	402	12.6	55.2
2025-10-06T11:31	10	141	0.1	141	142	402	0.7	400	403	12.6	55.2
2025-10-06T11:32	10	141	0.1	141	142	402	0.7	401	404	12.6	54.8
2025-10-06T11:33	10	142	0.1	141	142	402	0.4	401	403	12.6	54.5
2025-10-06T11:34	10	141	0.1	141	142	403	0.6	402	405	12.5	53.7
2025-10-06T11:35	10	141	0.1	141	142	405	0.2	404	405	12.5	54.3
2025-10-06T11:36	10	142	0.1	141	142	405	0.3	404	405	12.6	53.4
2025-10-06T11:37	10	142	0.1	141	142	405	0.5	404	406	12.7	53.0
2025-10-06T11:38	10	141	0.1	141	142	406	0.3	406	407	12.8	54.3
2025-10-06T11:39	10	141	0.1	141	142	407	0.3	406	408	12.8	53.5
2025-10-06T11:40	10	142	0.1	142	142	407	0.2	406	408	13.1	52.2
2025-10-06T11:41	10	142	0.1	142	142	408	0.2	407	408	13.2	52.3
2025-10-06T11:42	10	142	0.1	142	142	408	0.2	407	408	13.3	53.9
2025-10-06T11:43	10	142	0.1	142	142	408	0.3	407	408	13.5	53.5
2025-10-06T11:44	10	142	0.1	142	142	408	0.3	407	408	13.3	51.2
2025-10-06T11:45	10	142	0.1	141	142	407	0.6	406	407	12.9	50.4
2025-10-06T11:46	10	141	0.1	141	142	405	0.5	405	407	12.8	50.8
2025-10-06T11:47	10	141	0.1	141	141	406	0.3	405	406	12.7	49.0
2025-10-06T11:48	10	141	0.1	141	141	406	0.3	406	407	12.7	48.5
2025-10-06T11:49	10	141	0.1	141	141	407	0.3	406	408	12.9	49.5
2025-10-06T11:50	10	141	0.1	141	141	407	0.3	406	408	13.2	51.2
2025-10-06T11:51	10	141	0.1	141	141	408	0.3	407	408	13.1	50.6
2025-10-06T11:52	10	141	0.1	141	141	408	0.3	407	408	13.1	50.7
2025-10-06T11:53	10	141	0.1	141	141	408	0.3	408	409	13.4	48.9
2025-10-06T11:54	10	141	0.1	141	141	409	0.2	408	409	13.5	51.0
2025-10-06T11:55	10	141	0.1	141	141	408	0.3	407	409	13.4	52.0
2025-10-06T11:56	10	141	0.1	141	141	408	0.2	408	409	13.4	51.0
2025-10-06T11:57	10	141	0.1	141	141	408	0.3	408	409	13.7	49.3
2025-10-06T11:58	10	141	0.1	141	141	409	0.3	408	410	13.7	51.6
2025-10-06T11:59	10	141	0.1	141	141	408	0.8	406	409	13.7	49.6
2025-10-06T12:00	10	141	0.1	141	141	407	0.3	407	408	13.6	48.3
2025-10-06T12:01	10	141	0.1	141	142	407	0.6	406	408	13.4	48.3
2025-10-06T12:02	10	142	0.1	141	142	407	0.6	406	409	13.4	47.8
2025-10-06T12:03	10	142	0.1	141	142	409	0.4	408	410	13.4	49.0
2025-10-06T12:04	10	142	0.1	141	142	410	0.3	409	410	13.7	51.2
2025-10-06T12:05	10	141	0.1	141	142	409	0.4	408	410	13.5	50.2
2025-10-06T12:06	10	141	0.1	141	142	410	0.3	409	411	13.4	50.7
2025-10-06T12:07	10	141	0.1	141	141	409	0.3	409	410	13.6	52.2
2025-10-06T12:08	10	141	0.1	141	141	409	0.5	408	410	13.6	51.3
2025-10-06T12:09	10	141	0.1	141	141	408	0.3	407	409	13.4	49.2
2025-10-06T12:10	10	141	0.1	141	141	408	0.3	407	409	13.3	47.7
2025-10-06T12:11	10	141	0.1	141	141	409	0.3	408	409	13.6	46.8
2025-10-06T12:12	10	141	0.1	140	141	409	0.5	408	410	13.8	46.7
2025-10-06T12:13	10	141	0.1	140	141	408	0.2	408	409	13.6	45.6
2025-10-06T12:14	10	140	0.1	140	141	408	0.3	408	409	13.7	47.2
2025-10-06T12:15	10	140	0.1	140	141	409	0.3	408	410	13.8	47.8
2025-10-06T12:16	10	140	0.1	140	140	410	0.4	409	411	13.8	47.4
2025-10-06T12:17	10	140	0.1	140	140	410	0.4	409	411	13.9	48.1
2025-10-06T12:18	10	140	0.1	140	141	410	0.4	409	411	13.9	46.4
2025-10-06T12:19	10	140	0.1	140	141	411	0.4	410	412	14.0	47.1
2025-10-06T12:20	10	140	0.1	140	141	411	0.3	410	411	14.1	47.3
2025-10-06T12:21	10	140	0.2	140	141	411	0.2	410	411	13.9	47.3
2025-10-06T12:22	10	140	0.1	140	140	410	0.7	409	411	13.8	47.8
2025-10-06T12:23	10	140	0.2	139	141	409	0.4	409	410	13.7	46.4
2025-10-06T12:24	10	140	0.2	139	141	410	0.3	409	410	13.8	47.5
2025-10-06T12:25	10	140	0.4	139	141	409	0.4	408	410	13.9	49.8
2025-10-06T12:26	10	137	5.9	122	142	410	0.4	409	411	14.3	50.9
2025-10-06T12:27	10	141	1.2	138	142	409	1.5	406	411	14.0	46.2
2025-10-06T12:28	10	141	0.6	140	142	407	0.5	406	408	13.5	45.4
2025-10-06T12:29	10	140	0.2	139	140	406	0.8	404	407	13.5	46.4
2025-10-06T12:30	10	139	0.2	139	140	405	0.3	404	406	13.3	45.5
2025-10-06T12:31	10	139	0.1	139	139	405	0.4	404	406	13.3	45.4
2025-10-06T12:32	10	139	0.3	138	139	406	0.3	405	406	13.2	45.2
2025-10-06T12:33	10	139	0.1	139	139	407	0.4	406	407	13.4	47.4
2025-10-06T12:34	10	139	0.1	139	139	406	1.1	404	407	13.6	47.5
2025-10-06T12:35	10	139	0.2	139	140	405	0.6	404	406	13.4	46.1
2025-10-06T12:36	10	140	0.1	139	140	406	0.5	405	407	13.5	46.6
2025-10-06T12:37	10	139	0.9	136	140	406	0.5	405	407	13.4	46.6
2025-10-06T12:38	10	140	0.1	140	140	407	0.4	406	407	13.6	45.7
2025-10-06T12:39	10	140	0.1	140	140	407	0.4	407	408	13.7	46.5
2025-10-06T12:40	10	140	0.1	139	140	407	1.0	406	409	13.6	46.7
2025-10-06T12:41	10	139	0.2	139	140	407	0.4	406	408	13.4	46.6
2025-10-06T12:42	10	138	0.4	137	139	407	0.5	406	408	13.4	46.2
2025-10-06T12:43	10	137	0.4	136	137	406	0.3	406	407	13.4	46.0
2025-10-06T12:44	10	135	2.5	128	137	407	0.5	406	408	13.4	46.0
2025-10-06T12:45	10	136	0.2	136	136	408	0.5	407	409	13.6	46.8
2025-10-06T12:46	10	136	0.1	136	136	409	0.4	407	409	13.9	47.9
2025-10-06T12:47	10	136	0.1	136	136	406	1.3	404	408	13.8	46.0
2025-10-06T12:48	10	136	0.1	136	136	405	0.8	404	407	13.5	46.4
2025-10-06T12:49	10	136	0.3	136	137	407	0.3	406	407	13.7	47.2
2025-10-06T12:50	10	137	0.2	137	138	407	0.4	406	408	13.7	46.4
2025-10-06T12:51	10	138	0.2	137	138	407	0.5	406	408	13.7	46.7
2025-10-06T12:52	10	138	0.2	138	139	408	0.4	407	409	13.7	45.6
2025-10-06T12:53	10	137	2.0	133	139	405	0.8	404	407	13.5	45.7
2025-10-06T12:54	10	139	0.1	139	139	404	0.5	403	405	13.4	45.7
2025-10-06T12:55	10	136	4.1	128	140	405	0.5	404	406	13.4	45.5
2025-10-06T12:56	10	139	0.6	137	140	407	0.8	405	408	13.6	45.8
2025-10-06T12:57	10	130	5.3	118	139	407	0.5	406	407	13.6	45.7
2025-10-06T12:58	10	137	0.7	136	138	406	0.5	405	407	13.8	45.5
2025-10-06T12:59	10	135	0.7	134	136	407	0.6	405	408	14.0	45.6
2025-10-06T13:00	10	133	0.5	133	134	406	0.9	405	408	14.1	45.4
2025-10-06T13:01	10	134	0.3	133	134	406	0.3	405	406	14.1	46.8
2025-10-06T13:02	10	111	24.1	51	135	403	2.7	397	406	13.8	43.3
2025-10-06T13:03	10	25	8.4	17	48	391	4.7	384	399	13.6	43.8
2025-10-06T13:04	10	86	46.8	23	132	388	4.7	383	397	13.4	44.5
2025-10-06T13:05	10	131	0.3	131	132	399	2.1	394	402	13.6	46.7
2025-10-06T13:06	10	131	0.2	130	131	402	0.9	400	404	13.9	47.2
2025-10-06T13:07	10	130	0.1	130	131	403	0.4	402	404	13.9	46.4
2025-10-06T13:08	10	130	0.2	129	130	402	0.6	401	403	13.7	45.0
2025-10-06T13:09	10	130	0.2	129	130	401	0.2	401	402	13.6	44.6
2025-10-06T13:10	10	129	0.1	129	129	402	0.3	401	402	13.5	44.0
2025-10-06T13:11	10	129	0.1	129	129	403	1.0	402	405	13.5	44.7
2025-10-06T13:12	10	129	0.1	128	129	405	0.4	404	406	13.8	45.5
2025-10-06T13:13	10	128	0.1	128	129	403	0.5	402	404	13.5	43.5
2025-10-06T13:14	10	128	0.2	128	128	403	0.3	402	404	13.5	43.5
2025-10-06T13:15	10	127	0.1	127	128	404	0.7	402	405	13.6	43.4
2025-10-06T13:16	10	127	0.1	127	127	405	0.4	404	406	13.8	42.7
2025-10-06T13:17	10	127	0.1	127	127	405	0.2	405	406	13.7	43.2
2025-10-06T13:18	10	127	0.1	127	127	404	0.5	403	405	13.7	43.8
2025-10-06T13:19	10	127	0.2	126	127	405	0.5	404	406	13.8	44.7
2025-10-06T13:20	10	126	0.1	126	127	402	0.7	401	404	13.6	43.9
2025-10-06T13:21	10	126	0.2	126	126	402	0.4	402	403	13.8	45.8
2025-10-06T13:22	10	126	0.1	125	126	402	0.4	401	403	13.9	45.1
2025-10-06T13:23	10	125	0.1	125	126	401	0.5	400	402	13.6	42.5
2025-10-06T13:24	10	125	0.1	125	125	401	0.5	401	402	13.6	44.0
2025-10-06T13:25	10	124	0.1	124	125	401	0.3	401	402	13.6	44.3
2025-10-06T13:26	10	124	0.1	124	124	402	0.5	401	403	13.6	43.4
2025-10-06T13:27	10	124	0.1	124	124	403	0.4	402	404	13.7	43.9
2025-10-06T13:28	10	124	0.1	123	124	404	0.5	403	405	13.9	43.7
2025-10-06T13:29	10	123	0.1	123	124	404	0.4	404	405	13.9	43.7
2025-10-06T13:30	10	123	0.2	123	123	404	0.3	404	405	13.9	43.4
2025-10-06T13:31	10	123	0.1	122	123	402	0.8	401	404	13.9	43.3
2025-10-06T13:32	10	122	0.1	122	122	402	0.2	401	402	13.6	41.3
2025-10-06T13:33	10	122	0.1	122	122	402	0.3	402	403	13.6	41.9
2025-10-06T13:34	10	122	0.1	121	122	403	0.3	403	404	13.7	42.3
2025-10-06T13:35	10	121	0.2	121	122	404	0.4	403	405	13.8	42.3
2025-10-06T13:36	10	121	0.2	120	121	404	0.3	404	405	13.8	41.1
2025-10-06T13:37	10	120	0.1	120	120	404	0.2	403	404	13.7	41.2
2025-10-06T13:38	10	120	0.2	119	120	404	0.2	404	405	13.8	42.5
2025-10-06T13:39	10	119	0.1	119	120	404	0.2	404	405	13.9	42.0
2025-10-06T13:40	10	119	0.1	119	119	404	0.2	403	404	13.9	41.5
2025-10-06T13:41	10	119	0.1	119	119	404	0.2	403	404	14.0	41.7
2025-10-06T13:42	10	119	0.1	119	119	404	0.4	403	405	13.9	43.9
2025-10-06T13:43	10	118	0.1	118	119	404	0.4	404	405	13.9	46.2
2025-10-06T13:44	10	118	0.2	118	118	404	0.6	403	406	14.0	46.7
2025-10-06T13:45	10	118	0.2	117	118	403	0.2	403	404	14.0	45.9
2025-10-06T13:46	10	117	0.1	117	118	403	0.4	402	404	14.2	46.0
2025-10-06T13:47	10	117	0.2	117	117	403	0.2	403	404	14.2	44.3
2025-10-06T13:48	10	116	0.2	116	117	404	0.5	403	405	14.1	46.4
2025-10-06T13:49	10	116	0.2	115	116	402	1.4	400	405	13.9	47.6
2025-10-06T13:50	10	115	0.2	115	116	400	0.4	400	401	13.7	47.3
2025-10-06T13:51	10	115	0.2	114	115	401	0.9	399	402	13.7	46.6
2025-10-06T13:52	10	114	0.2	114	115	400	0.5	399	401	13.7	47.4
2025-10-06T13:53	10	114	0.1	114	114	400	0.3	400	401	13.9	47.7
2025-10-06T13:54	10	114	0.2	113	114	401	0.3	400	402	13.9	48.0
2025-10-06T13:55	10	113	0.1	113	113	400	0.5	400	401	13.9	47.7
2025-10-06T13:56	10	113	0.2	112	113	401	0.6	400	402	14.0	49.4
2025-10-06T13:57	10	112	0.2	112	113	399	0.5	399	401	14.0	48.7
2025-10-06T13:58	10	112	0.2	112	113	399	0.3	398	399	14.0	49.2
2025-10-06T13:59	10	111	0.2	111	112	397	0.6	396	399	13.7	49.1
2025-10-06T14:00	10	111	0.2	110	111	397	0.5	396	398	13.8	49.3
2025-10-06T14:01	10	110	0.2	110	111	397	0.8	396	399	13.8	49.4
2025-10-06T14:02	10	110	0.2	110	110	398	0.5	397	399	14.0	49.7
2025-10-06T14:03	10	110	0.2	109	111	396	0.8	395	398	13.8	49.9
2025-10-06T14:04	10	109	0.2	109	110	396	0.3	396	397	13.8	50.4
2025-10-06T14:05	10	109	0.2	109	110	397	0.5	396	398	13.8	50.2
2025-10-06T14:06	10	109	0.2	108	109	397	0.4	396	398	13.9	50.4
2025-10-06T14:07	10	108	0.2	108	109	398	0.5	397	399	14.1	51.2
2025-10-06T14:08	10	108	0.2	108	109	399	0.3	398	399	14.2	51.3
2025-10-06T14:09	10	108	0.2	107	108	398	0.4	397	398	14.1	50.4
2025-10-06T14:10	10	107	0.2	107	108	398	0.3	397	398	14.0	49.8
2025-10-06T14:11	10	107	0.2	107	108	397	0.6	396	398	14.1	52.2
2025-10-06T14:12	10	107	0.2	106	107	396	0.7	395	398	14.0	51.5
2025-10-06T14:13	10	106	0.2	106	107	397	0.6	396	398	13.9	51.0
2025-10-06T14:14	10	106	0.2	106	107	396	0.3	396	397	13.8	51.0
2025-10-06T14:15	10	106	0.1	106	106	397	0.7	396	398	13.8	51.3
2025-10-06T14:16	10	106	0.2	105	106	397	0.5	395	398	14.0	52.1
2025-10-06T14:17	10	105	0.2	105	106	398	0.5	397	399	13.9	51.5
2025-10-06T14:18	10	105	0.2	105	106	399	0.5	398	400	14.0	52.3
2025-10-06T14:19	10	105	0.2	104	105	398	0.9	396	400	14.0	52.4
2025-10-06T14:20	10	104	0.3	104	105	396	0.3	395	397	13.8	51.3
2025-10-06T14:21	10	104	0.2	103	104	396	0.7	395	398	13.8	52.6
2025-10-06T14:22	10	103	0.2	103	104	396	0.3	395	396	13.9	53.9
2025-10-06T14:23	10	103	0.2	102	103	395	0.6	394	396	13.8	53.2
2025-10-06T14:24	10	102	0.2	101	102	395	0.3	394	395	13.8	53.0
2025-10-06T14:25	10	101	0.2	101	102	396	0.7	394	397	13.8	52.8
2025-10-06T14:26	10	101	0.2	101	102	397	0.4	396	398	13.8	52.5
2025-10-06T14:27	10	101	0.3	100	101	397	0.4	397	398	13.9	52.1
2025-10-06T14:28	10	100	0.2	100	101	398	0.3	397	398	13.9	52.5
2025-10-06T14:29	10	100	0.2	99	100	397	0.5	396	398	14.0	52.7
2025-10-06T14:30	10	99	0.1	99	100	396	0.5	394	397	14.0	52.4
2025-10-06T14:31	10	99	0.2	98	99	397	0.6	396	398	13.9	52.4
2025-10-06T14:32	10	98	0.2	98	99	396	0.5	395	397	14.0	52.3
2025-10-06T14:33	10	98	0.2	97	98	395	0.8	393	396	14.1	52.2
2025-10-06T14:34	10	97	0.3	96	97	392	0.8	390	393	13.8	51.0
2025-10-06T14:35	10	96	0.2	96	97	391	0.3	390	392	13.9	50.8
2025-10-06T14:36	10	96	0.2	95	96	390	0.5	389	391	13.8	50.0
2025-10-06T14:37	10	95	0.2	95	96	390	0.3	390	391	13.8	50.8
2025-10-06T14:38	10	94	0.2	94	95	391	0.4	389	391	13.9	51.1
2025-10-06T14:39	10	94	0.1	94	94	389	0.3	389	390	13.8	50.1
2025-10-06T14:40	10	94	0.1	93	94	390	0.4	389	391	13.9	51.3
2025-10-06T14:41	10	93	0.2	93	93	390	0.6	389	391	13.8	51.9
2025-10-06T14:42	10	93	0.2	92	93	389	0.4	388	390	13.8	51.9
2025-10-06T14:43	10	92	0.1	92	92	390	0.4	389	390	13.7	51.5
2025-10-06T14:44	10	92	0.1	91	92	390	0.3	390	391	13.8	52.3
2025-10-06T14:45	10	91	0.2	91	92	390	0.3	389	391	13.9	52.5
2025-10-06T14:46	10	91	0.2	91	91	390	0.3	389	390	14.1	52.9
2025-10-06T14:47	10	91	0.1	90	91	389	0.2	389	390	13.9	51.7
2025-10-06T14:48	10	90	0.2	90	90	389	0.2	389	390	13.9	52.6
2025-10-06T14:49	10	89	0.2	89	90	388	0.4	388	389	13.8	52.0
2025-10-06T14:50	10	89	0.2	89	89	388	0.3	388	389	13.7	52.0
2025-10-06T14:51	10	88	0.1	88	89	389	0.3	389	390	13.8	52.6
2025-10-06T14:52	10	88	0.2	88	88	389	0.2	389	390	13.9	52.3
2025-10-06T14:53	10	87	0.2	87	88	389	0.3	389	390	14.0	53.5
2025-10-06T14:54	10	87	0.1	87	87	389	0.5	388	390	13.8	51.5
2025-10-06T14:55	10	86	0.2	86	87	389	0.3	388	389	13.6	51.8
2025-10-06T14:56	10	86	0.2	85	86	388	0.5	388	389	13.7	52.4
2025-10-06T14:57	10	85	0.2	85	85	387	0.6	386	388	13.6	51.7
2025-10-06T14:58	10	84	0.2	84	85	387	0.4	386	388	13.8	53.0
2025-10-06T14:59	10	84	0.2	84	85	388	0.7	387	389	13.9	53.2
2025-10-06T15:00	10	84	0.1	83	84	389	0.3	388	389	13.9	52.8
2025-10-06T15:01	10	83	0.1	83	84	388	0.3	387	389	13.9	52.7
2025-10-06T15:02	10	83	0.1	83	83	387	0.3	386	388	13.8	52.2
2025-10-06T15:03	10	82	0.2	82	83	386	0.3	386	387	13.8	52.3
2025-10-06T15:04	10	82	0.2	81	82	386	0.4	385	387	13.7	52.2
2025-10-06T15:05	10	81	0.2	81	81	385	0.3	384	386	13.6	51.3
2025-10-06T15:06	10	80	0.2	80	81	385	0.4	385	386	13.6	51.7
2025-10-06T15:07	10	80	0.1	80	80	386	0.3	385	387	13.8	53.2
2025-10-06T15:08	10	79	0.2	79	80	386	0.2	385	386	13.8	52.3
2025-10-06T15:09	10	79	0.2	78	79	385	0.4	384	386	13.8	52.4
2025-10-06T15:10	10	78	0.2	77	78	385	0.3	384	385	13.7	51.8
2025-10-06T15:11	10	77	0.1	77	78	384	0.3	384	385	13.7	51.9
2025-10-06T15:12	10	77	0.2	76	77	385	0.2	384	385	13.7	53.0
2025-10-06T15:13	10	76	0.2	76	77	384	0.3	383	385	13.6	52.0
2025-10-06T15:14	10	76	0.2	76	76	384	0.4	383	385	13.5	52.6
2025-10-06T15:15	10	75	0.2	75	76	383	0.3	383	384	13.5	52.6
2025-10-06T15:16	10	75	0.2	75	75	383	0.3	383	384	13.5	52.9
2025-10-06T15:17	10	75	0.1	75	75	383	0.4	383	384	13.5	52.8
2025-10-06T15:18	10	75	0.1	74	75	384	0.3	384	385	13.6	53.7
2025-10-06T15:19	10	75	0.1	74	75	385	0.5	384	386	13.7	53.8
2025-10-06T15:20	10	75	0.1	74	75	386	0.3	385	387	13.9	55.2
2025-10-06T15:21	10	75	0.2	75	76	385	0.3	385	386	13.8	53.9
2025-10-06T15:22	10	77	0.6	76	78	384	0.4	384	385	13.7	53.8
2025-10-06T15:23	10	79	0.6	78	80	384	0.4	384	385	13.6	53.7
2025-10-06T15:24	10	81	0.8	80	82	386	0.4	385	386	13.6	54.1
2025-10-06T15:25	10	84	1.0	82	86	386	0.3	386	387	13.7	54.7
2025-10-06T15:26	10	87	0.5	86	87	388	0.4	387	388	13.7	54.5
2025-10-06T15:27	10	87	0.2	87	88	388	0.4	388	389	13.7	54.4
2025-10-06T15:28	10	86	0.3	86	87	389	0.3	389	390	13.8	55.0
2025-10-06T15:29	10	86	0.1	85	86	390	0.3	389	391	13.9	55.5
2025-10-06T15:30	10	86	0.1	85	86	389	0.4	389	390	13.8	53.7
2025-10-06T15:31	10	86	0.1	86	86	390	0.4	389	390	13.8	54.6
2025-10-06T15:32	10	85	0.1	85	86	388	0.4	388	389	13.7	53.6
2025-10-06T15:33	10	85	0.1	85	85	389	0.5	388	390	13.8	54.3
2025-10-06T15:34	10	86	1.2	85	94	389	0.5	389	390	13.8	54.3
2025-10-06T15:35	10	85	0.1	85	86	390	0.4	389	390	13.9	55.3
2025-10-06T15:36	10	85	0.3	84	85	390	0.5	389	391	13.9	54.8
2025-10-06T15:37	10	84	0.2	84	84	391	0.5	390	392	13.9	55.6
2025-10-06T15:38	10	84	0.1	83	84	392	0.3	391	393	14.1	56.0
2025-10-06T15:39	10	83	0.2	83	84	392	0.2	391	392	14.1	55.4
2025-10-06T15:40	10	82	0.4	81	83	391	0.7	389	392	13.9	54.4
2025-10-06T15:41	10	81	0.1	81	82	390	0.2	389	390	13.8	54.2
2025-10-06T15:42	10	81	0.2	80	81	390	0.3	389	391	14.1	55.8
2025-10-06T15:43	10	79	0.5	78	80	389	0.3	388	390	13.9	54.2
2025-10-06T15:44	10	66	11.0	51	78	388	0.9	386	389	13.9	54.8
2025-10-06T15:45	10	64	3.3	56	69	387	0.5	386	388	13.9	55.0
2025-10-06T15:46	10	47	3.0	43	55	384	1.1	383	386	13.7	54.0
2025-10-06T15:47	10	63	9.3	49	72	384	0.9	383	385	13.7	54.7
2025-10-06T15:48	10	72	0.4	71	72	385	0.3	384	386	13.7	54.4
2025-10-06T15:49	10	72	0.2	71	72	386	0.6	385	387	13.7	55.4
2025-10-06T15:50	10	71	0.2	71	72	386	0.3	386	387	13.8	54.9
2025-10-06T15:51	10	70	0.5	69	71	386	0.3	386	387	13.8	54.7
2025-10-06T15:52	10	69	0.4	68	69	387	0.2	387	388	13.9	56.5
2025-10-06T15:53	10	68	1.1	67	75	387	0.3	386	387	13.9	56.5
2025-10-06T15:54	10	66	0.5	65	67	386	0.2	386	387	13.9	56.7
2025-10-06T15:55	10	64	0.5	64	65	386	0.3	386	387	13.9	56.2
2025-10-06T15:56	10	63	0.2	63	64	386	0.3	385	387	13.9	56.1
2025-10-06T15:57	10	63	0.2	62	63	386	0.3	385	386	13.9	55.4
2025-10-06T15:58	10	62	0.3	61	62	386	0.3	386	387	13.9	56.3
2025-10-06T15:59	10	61	0.5	60	61	386	0.3	385	386	13.9	57.4
2025-10-06T16:00	10	59	0.4	58	60	385	0.3	385	386	13.9	56.7
2025-10-06T16:01	10	58	0.4	57	59	385	0.2	385	386	13.9	57.4
2025-10-06T16:02	10	56	0.5	55	57	385	0.3	384	386	13.9	56.5
2025-10-06T16:03	10	54	0.5	53	55	384	0.2	384	385	13.9	55.1
2025-10-06T16:04	10	53	0.4	52	53	384	0.3	383	385	13.9	56.5
2025-10-06T16:05	10	51	0.5	50	52	383	0.5	382	384	13.9	56.2
2025-10-06T16:06	10	49	0.5	49	50	382	0.4	381	382	13.7	54.6
2025-10-06T16:07	10	48	0.4	47	49	381	0.2	381	382	13.7	55.3
2025-10-06T16:08	10	47	0.4	46	47	381	0.2	381	382	13.8	55.9
2025-10-06T16:09	10	45	0.4	44	46	381	0.3	380	382	13.7	56.6
2025-10-06T16:10	10	44	0.4	43	45	380	0.2	379	381	13.7	58.0
2025-10-06T16:11	10	43	0.3	42	43	380	0.3	379	380	13.7	57.2
2025-10-06T16:12	10	41	0.3	41	42	379	0.2	378	379	13.7	57.6
2025-10-06T16:13	10	41	0.3	40	41	378	0.4	377	379	13.6	56.8
2025-10-06T16:14	10	39	0.4	38	40	377	0.3	376	378	13.6	56.9
2025-10-06T16:15	10	38	0.3	37	39	377	0.2	376	377	13.6	58.1
2025-10-06T16:16	10	37	0.3	37	38	376	0.4	375	377	13.6	57.4
2025-10-06T16:17	10	37	0.2	36	37	376	0.2	375	376	13.6	56.7
2025-10-06T16:18	10	36	0.3	35	36	375	0.2	375	376	13.5	56.0
2025-10-06T16:19	10	34	0.8	32	35	375	0.2	374	375	13.5	56.6
2025-10-06T16:20	10	32	0.4	32	33	375	0.2	374	375	13.6	56.8
2025-10-06T16:21	10	33	0.4	32	33	375	0.3	374	375	13.6	57.5
2025-10-06T16:22	10	30	2.1	26	33	375	0.3	374	375	13.6	57.1
2025-10-06T16:23	10	23	1.9	20	26	374	0.3	373	374	13.5	57.5
2025-10-06T16:24	10	16	2.6	13	21	373	0.6	372	374	13.5	57.0
2025-10-06T16:25	10	12	0.7	10	13	372	0.2	372	373	13.5	57.6
2025-10-06T16:26	10	10	0.3	10	11	372	0.2	371	372	13.5	58.2
2025-10-06T16:27	10	10	0.3	10	11	371	0.3	370	372	13.4	59.1
2025-10-06T16:28	10	11	1.3	9	13	370	0.2	370	371	13.4	58.3
2025-10-06T16:29	10	10	1.2	8	13	370	0.3	369	371	13.3	58.7
2025-10-06T16:30	10	12	3.6	8	18	369	0.3	368	370	13.3	58.8
2025-10-06T16:31	10	18	1.6	16	21	369	0.4	368	370	13.3	58.3
2025-10-06T16:32	10	17	2.8	12	21	369	0.3	368	369	13.3	58.3
2025-10-06T16:33	10	11	0.6	10	12	368	0.2	368	369	13.3	58.6
2025-10-06T16:34	10	9	1.3	7	11	368	0.4	367	368	13.3	58.8
2025-10-06T16:35	10	6	0.7	5	8	366	0.5	365	367	13.2	59.4
2025-10-06T16:36	10	5	0.2	5	5	366	0.2	365	366	13.1	60.2
2025-10-06T16:37	10	5	0.2	5	5	365	0.2	364	365	13.0	60.9
2025-10-06T16:38	10	5	0.5	4	6	365	0.3	364	365	13.1	60.4
2025-10-06T16:39	10	5	0.2	4	5	364	0.2	364	364	13.1	59.3
2025-10-06T16:40	10	6	0.4	5	6	364	0.2	363	364	13.1	59.8
2025-10-06T16:41	10	5	0.3	4	5	364	0.3	363	364	13.1	59.3
2025-10-06T16:42	10	4	0.3	4	5	364	0.3	363	364	13.2	59.3
2025-10-06T16:43	10	4	0.1	4	4	363	0.3	362	364	13.1	59.5
2025-10-06T16:44	10	4	0.3	3	4	362	0.3	362	363	13.1	59.8
2025-10-06T16:45	10	3	0.1	3	3	362	0.3	361	362	13.0	60.5
2025-10-06T16:46	10	3	0.1	2	3	361	0.3	360	362	13.0	60.6
2025-10-06T16:47	10	2	0.1	2	3	361	0.2	360	361	12.9	60.9
2025-10-06T16:48	10	2	0.1	2	2	360	0.3	359	360	12.9	61.3
2025-10-06T16:49	10	2	0.1	2	2	360	0.2	360	360	12.8	61.0
2025-10-06T16:50	10	2	0.1	2	2	360	0.3	359	360	12.9	60.7
2025-10-06T16:51	10	2	0.1	2	2	360	0.2	359	360	12.8	61.0
2025-10-06T16:52	10	2	0.1	2	2	359	0.2	359	360	12.8	61.2
2025-10-06T16:53	10	2	0.1	2	2	359	0.2	359	359	12.7	61.5
2025-10-06T16:54	10	2	0.1	2	2	358	0.2	358	359	12.8	61.0
2025-10-06T16:55	10	2	0.1	1	2	358	0.2	358	359	12.8	61.1
2025-10-06T16:56	10	1	0.1	1	2	358	0.2	357	358	12.7	61.3
2025-10-06T16:57	10	1	0.2	1	2	358	0.3	357	359	12.7	61.4
2025-10-06T16:58	10	1	0.2	1	2	358	0.2	357	358	12.6	61.6
2025-10-06T16:59	10	1	0.2	1	2	357	0.2	357	358	12.6	61.7
2025-10-06T17:00	10	1	0.2	1	2	357	0.3	357	358	12.6	61.8
2025-10-06T17:01	10	1	0.2	1	2	356	0.3	356	357	12.5	62.6
2025-10-06T17:02	10	1	0.1	1	1	356	0.3	356	357	12.3	64.7
2025-10-06T17:03	10	1	0.1	1	1	356	0.2	355	356	12.1	66.1
2025-10-06T17:04	10	1	0.1	1	1	355	0.2	355	356	12.0	67.4
2025-10-06T17:05	10	1	0.1	1	1	355	0.2	355	356	11.9	68.2
2025-10-06T17:06	10	1	0.0	1	1	355	0.3	354	355	11.8	69.7
2025-10-06T17:07	10	1	0.0	0	1	355	0.2	354	355	11.7	70.3
2025-10-06T17:08	10	1	0.0	0	1	354	0.2	354	355	11.7	70.4
2025-10-06T17:09	10	0	0.1	0	1	354	0.2	354	355	11.7	70.1
2025-10-06T17:10	10	0	0.1	0	1	354	0.2	353	354	11.7	69.9
2025-10-06T17:11	10	0	0.1	0	1	353	0.3	352	354	11.7	70.3
2025-10-06T17:12	10	0	0.1	0	1	352	0.2	352	353	11.6	70.9
2025-10-06T17:13	10	0	0.1	0	0	352	0.2	351	352	11.5	71.4
2025-10-06T17:14	10	0	0.1	0	0	352	0.2	351	352	11.4	71.6
2025-10-06T17:15	10	0	0.1	0	0	352	0.2	351	352	11.4	71.3
2025-10-06T17:16	10	0	0.1	0	0	352	0.2	351	352	11.5	70.7
2025-10-06T17:17	10	0	0.1	0	0	352	0.3	351	352	11.6	69.9
2025-10-06T17:18	10	0	0.1	0	0	352	0.3	351	352	11.8	68.3
2025-10-06T17:19	10	0	0.1	0	0	352	0.3	351	352	11.9	67.0
2025-10-06T17:20	10	0	0.1	0	1	352	0.2	352	353	12.1	65.9
2025-10-06T17:21	10	0	0.1	0	1	352	0.3	352	353	12.0	66.9
2025-10-06T17:22	10	0	0.1	0	1	353	0.2	352	354	12.0	66.3
2025-10-06T17:23	10	0	0.1	0	1	353	0.3	352	353	12.1	66.3
2025-10-06T17:24	10	0	0.1	0	1	353	0.2	352	353	12.1	66.7
2025-10-06T17:25	10	0	0.1	0	1	353	0.3	352	353	12.0	67.1
2025-10-06T17:26	10	0	0.1	0	1	352	0.2	352	353	12.1	66.7
2025-10-06T17:27	10	0	0.1	0	1	352	0.3	351	352	12.0	67.4
2025-10-06T17:28	10	0	0.1	0	1	352	0.3	351	352	12.0	67.9
2025-10-06T17:29	10	0	0.1	0	1	352	0.2	351	352	11.9	68.4
2025-10-06T17:30	10	0	0.1	0	1	351	0.3	350	352	11.9	68.3
2025-10-06T17:31	10	0	0.1	0	0	351	0.2	350	352	11.9	68.8
2025-10-06T17:32	10	0	0.1	0	1	351	0.4	350	352	11.7	69.6
2025-10-06T17:33	10	0	0.1	0	0	351	0.3	350	352	11.8	69.0
2025-10-06T17:34	10	0	0.1	0	0	351	0.2	350	351	11.9	68.2
2025-10-06T17:35	10	0	0.1	0	0	351	0.2	350	351	11.9	68.3
2025-10-06T17:36	10	0	0.0	0	0	350	0.2	350	351	11.8	68.5
2025-10-06T17:37	10	0	0.1	0	0	350	0.2	350	351	11.8	68.4
2025-10-06T17:38	10	0	0.0	0	0	350	0.2	349	350	11.9	68.0
2025-10-06T17:39	10	0	0.1	0	0	349	0.2	349	350	11.9	68.0
2025-10-06T17:40	10	0	0.1	0	0	349	0.5	348	350	11.8	69.3
2025-10-06T17:41	10	0	0.1	0	0	348	0.3	347	349	11.6	70.1
2025-10-06T17:42	10	0	0.1	0	1	348	0.3	347	348	11.4	71.6
2025-10-06T17:43	10	0	0.1	0	0	348	0.5	347	349	11.5	70.9
2025-10-06T17:44	10	0	0.2	0	0	349	0.3	347	349	11.6	70.0
2025-10-06T17:45	10	0	0.1	0	0	349	0.3	348	349	11.6	69.9
2025-10-06T17:46	10	0	0.1	0	1	349	0.2	348	349	11.7	69.6
2025-10-06T17:47	10	0	0.2	0	1	349	0.3	348	350	11.6	70.6
2025-10-06T17:48	10	0	0.2	0	1	349	0.3	348	350	11.6	70.3
2025-10-06T17:49	10	0	0.1	0	1	349	0.3	348	349	11.6	70.6
2025-10-06T17:50	10	0	0.2	0	1	349	0.2	348	349	11.5	70.8
2025-10-06T17:51	10	0	0.1	0	1	349	0.6	348	350	11.6	70.6
2025-10-06T17:52	10	0	0.1	0	1	350	0.3	349	351	11.6	70.5
2025-10-06T17:53	10	0	0.1	0	1	351	0.3	350	351	11.6	70.2
2025-10-06T17:54	10	0	0.1	0	1	351	0.3	350	351	11.5	70.6
2025-10-06T17:55	10	0	0.1	0	1	351	0.2	350	351	11.4	70.9
2025-10-06T17:56	10	0	0.1	0	0	350	0.3	350	351	11.4	71.1
2025-10-06T17:57	10	0	0.0	0	0	350	0.3	350	351	11.4	70.9
2025-10-06T17:58	10	0	0.1	0	0	350	0.2	349	350	11.3	71.5
2025-10-06T17:59	10	0	0.1	0	0	350	0.3	349	350	11.1	73.0
2025-10-06T18:00	10	0	0.1	0	0	350	0.2	349	350	11.0	73.7
2025-10-06T18:01	10	0	0.1	0	0	350	0.3	349	351	10.9	74.5
2025-10-06T18:02	10	0	0.1	0	0	351	0.3	350	351	10.9	74.3
2025-10-06T18:03	10	0	0.1	0	0	350	0.2	350	351	10.9	74.0
2025-10-06T18:04	10	0	0.1	0	0	350	0.2	349	350	11.0	73.4
2025-10-06T18:05	10	0	0.0	0	0	350	0.3	349	350	11.2	72.1
2025-10-06T18:06	10	0	0.1	0	0	349	0.2	349	350	11.2	72.2
2025-10-06T18:07	10	0	0.1	0	0	349	0.3	348	350	11.2	72.1
2025-10-06T18:08	10	0	0.1	0	1	349	0.2	349	350	11.1	72.6
2025-10-06T18:09	10	0	0.1	0	0	349	0.3	349	350	11.2	71.8
2025-10-06T18:10	10	0	0.1	0	0	349	0.2	349	350	11.1	72.3
2025-10-06T18:11	10	0	0.0	0	0	350	0.3	349	351	11.3	71.7
2025-10-06T18:12	10	0	0.1	0	0	350	0.2	349	350	11.2	71.8
2025-10-06T18:13	10	0	0.1	0	0	349	0.3	349	350	11.2	72.2
2025-10-06T18:14	10	0	0.1	0	0	349	0.2	349	350	11.1	72.4
2025-10-06T18:15	10	0	0.1	0	0	348	0.3	348	349	11.1	72.7
2025-10-06T18:16	10	0	0.1	0	0	348	0.3	348	349	11.1	72.9
2025-10-06T18:17	10	0	0.1	0	0	347	0.2	347	348	11.1	72.9
2025-10-06T18:18	10	0	0.1	0	0	348	0.3	347	348	11.1	72.7
2025-10-06T18:19	10	0	0.1	0	0	348	0.3	347	349	11.1	72.5
2025-10-06T18:20	10	0	0.1	0	0	348	0.2	347	348	11.1	72.3
2025-10-06T18:21	10	0	0.1	0	0	348	0.3	348	349	11.1	72.3
2025-10-06T18:22	10	0	0.1	0	0	350	0.4	349	351	11.1	72.3
2025-10-06T18:23	10	0	0.1	0	1	350	0.2	350	351	11.1	72.0
2025-10-06T18:24	10	0	0.1	0	0	350	0.3	350	351	11.0	72.6
2025-10-06T18:25	10	0	0.1	0	0	351	0.5	350	352	10.8	73.9
2025-10-06T18:26	10	0	0.1	0	0	351	0.3	351	352	10.8	74.2
2025-10-06T18:27	10	0	0.1	0	0	352	0.4	352	353	10.8	73.8
2025-10-06T18:28	10	0	0.1	0	0	353	0.2	352	354	10.9	73.4
2025-10-06T18:29	10	0	0.1	0	1	353	0.3	353	354	11.0	72.7
2025-10-06T18:30	10	0	0.1	0	1	353	0.5	352	354	10.9	73.3
2025-10-06T18:31	10	0	0.1	0	1	353	0.2	352	353	10.6	76.0
2025-10-06T18:32	10	0	0.1	0	0	353	0.5	352	354	10.6	75.7
2025-10-06T18:33	10	0	0.1	0	0	354	0.5	353	355	10.8	73.9
2025-10-06T18:34	10	0	0.1	0	0	354	0.3	353	354	10.9	73.6
2025-10-06T18:35	10	0	0.1	0	0	355	0.6	353	356	10.4	76.1
2025-10-06T18:36	10	0	0.1	0	1	356	0.5	355	357	10.9	73.3
2025-10-06T18:37	10	0	0.1	0	1	357	0.4	356	358	11.2	71.9
2025-10-06T18:38	10	1	0.1	0	1	357	0.3	357	358	11.3	71.4
2025-10-06T18:39	10	1	0.1	0	1	358	0.4	357	359	11.2	71.9
2025-10-06T18:40	10	1	0.0	1	1	358	0.3	358	359	11.1	72.4
2025-10-06T18:41	10	1	0.1	0	1	358	0.2	358	359	11.1	72.2
2025-10-06T18:42	10	1	0.0	0	1	359	0.3	358	360	11.2	71.9
2025-10-06T18:43	10	1	0.0	0	1	359	0.3	358	359	11.2	71.7
2025-10-06T18:44	10	1	0.1	0	1	360	0.3	359	360	11.3	71.7
2025-10-06T18:45	10	1	0.0	1	1	360	0.2	359	360	11.2	71.9
2025-10-06T18:46	10	1	0.1	0	1	359	0.4	358	360	11.1	73.0
2025-10-06T18:47	10	0	0.1	0	1	359	0.2	359	360	10.9	74.2
2025-10-06T18:48	10	0	0.1	0	1	359	0.3	359	360	10.8	75.1
2025-10-06T18:49	10	0	0.1	0	0	359	0.2	358	359	10.6	76.0
2025-10-06T18:50	10	0	0.1	0	0	358	0.4	358	359	10.3	78.5
2025-10-06T18:51	10	0	0.1	0	0	358	0.2	358	358	10.1	79.9
2025-10-06T18:52	10	0	0.1	0	0	358	0.3	357	358	10.0	81.2
2025-10-06T18:53	10	0	0.1	0	0	357	0.3	357	358	10.0	80.9
2025-10-06T18:54	10	0	0.1	0	0	357	0.2	357	357	9.9	82.7
2025-10-06T18:55	10	0	0.1	0	0	356	0.2	356	357	9.8	82.5
2025-10-06T18:56	10	0	0.1	0	0	355	0.3	355	356	9.9	82.8
2025-10-06T18:57	10	0	0.1	0	0	355	0.2	354	355	9.9	82.0
2025-10-06T18:58	10	0	0.1	0	0	355	0.3	354	355	10.0	81.5
2025-10-06T18:59	10	0	0.1	0	0	354	0.3	354	355	10.1	80.8
2025-10-06T19:00	10	0	0.1	0	0	354	0.3	353	354	10.3	79.1
2025-10-06T19:01	10	0	0.1	0	1	353	0.2	353	354	10.2	79.6
2025-10-06T19:02	10	0	0.1	0	0	353	0.2	352	354	10.4	78.4
2025-10-06T19:03	10	0	0.1	0	1	353	0.3	352	354	10.5	76.7
2025-10-06T19:04	10	0	0.1	0	1	353	0.3	353	354	10.7	75.7
2025-10-06T19:05	10	0	0.1	0	1	353	0.2	352	353	10.8	75.3
2025-10-06T19:06	10	0	0.1	0	1	353	0.3	352	354	10.8	75.2
2025-10-06T19:07	10	0	0.1	0	1	353	0.2	353	354	10.8	75.2
2025-10-06T19:08	10	0	0.1	0	1	353	0.4	352	353	10.7	75.9
2025-10-06T19:09	10	0	0.1	0	1	352	0.3	352	353	10.5	77.7
2025-10-06T19:10	10	0	0.1	0	0	353	0.2	352	354	10.3	79.0
2025-10-06T19:11	10	0	0.1	0	0	353	0.3	352	353	10.2	80.2
2025-10-06T19:12	10	0	0.1	0	0	353	0.3	352	353	9.8	83.4
2025-10-06T19:13	10	0	0.1	0	0	353	0.3	352	354	9.6	85.9
2025-10-06T19:14	10	0	0.2	-1	0	353	0.3	352	354	9.5	85.6
2025-10-06T19:15	10	0	0.1	-1	0	353	0.3	353	354	9.5	85.3
2025-10-06T19:16	10	0	0.2	0	0	353	0.3	353	354	9.7	84.5
2025-10-06T19:17	10	0	0.1	0	0	353	0.2	353	354	9.6	85.5
2025-10-06T19:18	10	0	0.1	0	0	353	0.3	353	354	9.5	86.2
2025-10-06T19:19	10	0	0.1	0	1	354	0.3	353	354	9.4	86.7
2025-10-06T19:20	10	0	0.2	0	0	354	0.3	353	354	9.4	86.8
2025-10-06T19:21	10	0	0.1	0	0	354	0.3	353	355	9.5	85.8
2025-10-06T19:22	10	0	0.2	0	1	354	0.2	353	354	9.5	85.8
2025-10-06T19:23	10	0	0.1	0	0	354	0.3	353	355	9.5	85.8
2025-10-06T19:24	10	0	0.1	-1	0	354	0.2	353	355	9.5	85.8
2025-10-06T19:25	10	0	0.1	-1	0	354	0.4	354	355	9.5	85.8
2025-10-06T19:26	10	0	0.1	0	0	354	0.3	353	354	9.5	84.4
2025-10-06T19:27	10	0	0.1	0	0	354	0.2	353	355	9.5	85.8
2025-10-06T19:28	10	0	0.1	0	0	354	0.3	353	354	9.5	85.8
2025-10-06T19:29	10	0	0.1	0	0	354	0.3	353	354	9.5	85.8
2025-10-06T19:30	10	0	0.1	0	0	354	0.2	353	354	9.6	85.0
2025-10-06T19:31	10	0	0.1	0	0	354	0.2	353	354	9.6	84.6
2025-10-06T19:32	10	0	0.1	0	1	354	0.3	354	355	9.6	84.6
2025-10-06T19:33	10	0	0.1	0	0	355	0.4	354	356	9.9	82.8
2025-10-06T19:34	10	0	0.1	0	0	356	0.2	355	356	10.2	79.5
2025-10-06T19:35	10	0	0.0	0	0	356	0.2	355	356	10.3	79.0
2025-10-06T19:36	10	0	0.1	0	1	356	0.2	355	356	10.3	79.8
2025-10-06T19:37	10	0	0.1	0	1	356	0.3	355	356	10.2	81.4
2025-10-06T19:38	10	0	0.1	0	1	355	0.2	355	356	9.9	83.9
2025-10-06T19:39	10	0	0.1	0	0	355	0.2	355	356	9.8	84.9
2025-10-06T19:40	10	0	0.1	0	0	355	0.3	354	356	9.8	84.7
2025-10-06T19:41	10	0	0.1	0	0	355	0.3	354	355	9.8	85.8
2025-10-06T19:42	10	0	0.1	0	0	354	0.3	354	355	9.7	86.6
2025-10-06T19:43	10	0	0.1	0	0	354	0.3	353	354	9.7	86.1
2025-10-06T19:44	10	0	0.1	0	0	353	0.3	352	353	9.6	87.0
2025-10-06T19:45	10	0	0.1	0	0	352	0.3	352	353	9.6	87.0
2025-10-06T19:46	10	0	0.0	0	0	351	0.3	351	352	9.6	87.2
2025-10-06T19:47	10	0	0.1	0	0	351	0.3	350	351	9.6	86.6
2025-10-06T19:48	10	0	0.1	0	0	350	0.4	350	351	9.6	86.0
2025-10-06T19:49	10	0	0.1	0	0	350	0.2	349	350	9.6	87.0
2025-10-06T19:50	10	0	0.1	0	0	349	0.2	349	350	9.5	86.6
2025-10-06T19:51	10	0	0.1	0	0	349	0.3	348	349	9.5	87.6
2025-10-06T19:52	10	0	0.1	0	0	348	0.3	347	349	9.4	86.7
2025-10-06T19:53	10	0	0.1	0	0	348	0.3	347	348	9.5	86.6
2025-10-06T19:54	10	0	0.1	0	0	347	0.2	346	347	9.4	87.6
2025-10-06T19:55	10	0	0.1	0	0	346	0.2	346	347	9.3	89.0
2025-10-06T19:56	10	0	0.1	0	0	346	0.2	346	347	9.2	89.6
2025-10-06T19:57	10	0	0.1	0	0	346	0.2	346	347	9.1	89.2
2025-10-06T19:58	10	0	0.0	0	0	346	0.2	346	347	9.2	88.0
2025-10-06T19:59	10	0	0.1	0	0	347	0.2	346	347	9.2	87.2
2025-10-06T20:00	10	0	0.1	0	0	346	0.3	346	347	9.4	86.0
2025-10-06T20:01	10	0	0.1	0	0	346	0.2	345	346	9.4	86.5
2025-10-06T20:02	10	0	0.1	0	0	346	0.3	346	347	9.4	85.6
2025-10-06T20:03	10	0	0.1	0	0	346	0.2	346	347	9.6	84.8
2025-10-06T20:04	10	0	0.1	0	0	346	0.3	346	347	9.6	84.7
2025-10-06T20:05	10	0	0.1	0	0	347	0.3	347	348	9.6	84.5
2025-10-06T20:06	10	0	0.1	0	0	347	0.2	346	347	9.6	84.2
2025-10-06T20:07	10	0	0.1	0	0	347	0.2	347	347	9.7	83.6
2025-10-06T20:08	10	0	0.1	0	0	347	0.2	346	347	9.6	84.2
2025-10-06T20:09	10	0	0.1	0	0	347	0.2	346	347	9.6	84.7
2025-10-06T20:10	10	0	0.1	0	0	346	0.2	346	347	9.5	85.0
2025-10-06T20:11	10	0	0.1	0	0	346	0.2	346	347	9.4	85.9
2025-10-06T20:12	10	0	0.1	0	0	346	0.3	345	346	9.4	86.1
2025-10-06T20:13	10	0	0.1	0	0	345	0.3	345	346	9.4	86.6
2025-10-06T20:14	10	0	0.1	0	0	345	0.2	345	346	9.4	86.9
2025-10-06T20:15	10	0	0.1	0	0	345	0.2	345	346	9.4	87.5
2025-10-06T20:16	10	0	0.1	0	0	345	0.2	345	346	9.4	87.6
2025-10-06T20:17	10	0	0.1	0	0	345	0.2	345	346	9.3	88.0
2025-10-06T20:18	10	0	0.1	0	0	345	0.2	344	345	9.2	88.3
2025-10-06T20:19	10	0	0.1	0	0	344	0.3	344	345	9.2	88.9
2025-10-06T20:20	10	0	0.1	0	0	344	0.2	343	344	9.1	89.1
2025-10-06T20:21	10	0	0.1	0	0	344	0.2	343	344	9.1	89.1
2025-10-06T20:22	10	0	0.1	0	0	344	0.2	343	344	9.1	88.5
2025-10-06T20:23	10	0	0.1	0	1	343	0.2	343	344	9.1	88.4
2025-10-06T20:24	10	0	0.1	0	0	343	0.3	342	343	9.0	89.0
2025-10-06T20:25	10	0	0.1	0	0	343	0.2	342	343	9.0	89.1
2025-10-06T20:26	10	0	0.1	0	0	342	0.2	342	343	8.9	89.2
2025-10-06T20:27	10	0	0.1	0	0	342	0.2	341	342	8.9	89.6
2025-10-06T20:28	10	0	0.1	0	0	342	0.2	341	342	8.8	89.7
2025-10-06T20:29	10	0	0.1	0	0	342	0.3	341	343	8.7	90.4
2025-10-06T20:30	10	0	0.1	0	0	342	0.2	342	343	8.7	90.9
2025-10-06T20:31	10	0	0.1	0	0	342	0.2	342	343	8.7	90.8
2025-10-06T20:32	10	0	0.1	0	0	343	0.3	342	343	8.7	90.5
2025-10-06T20:33	10	0	0.1	0	0	343	0.3	342	343	8.7	90.6
2025-10-06T20:34	10	0	0.1	0	0	343	0.3	342	344	8.7	90.7
2025-10-06T20:35	10	0	0.1	0	0	344	0.3	343	345	8.7	91.0
2025-10-06T20:36	10	0	0.1	0	0	345	0.4	344	346	8.7	90.9
2025-10-06T20:37	10	0	0.1	0	0	346	0.4	345	347	8.7	90.9
2025-10-06T20:38	10	0	0.1	0	0	347	0.5	346	348	8.8	91.0
2025-10-06T20:39	10	0	0.1	0	0	348	0.4	347	349	8.8	90.8
2025-10-06T20:40	10	0	0.1	0	0	349	0.4	348	349	8.9	90.4
2025-10-06T20:41	10	0	0.1	0	0	349	0.3	349	350	8.9	89.8
2025-10-06T20:42	10	0	0.1	0	0	350	0.2	349	350	9.0	89.2
2025-10-06T20:43	10	0	0.1	0	0	350	0.3	350	351	9.0	88.9
2025-10-06T20:44	10	0	0.1	0	0	351	0.2	351	352	9.0	89.1
2025-10-06T20:45	10	0	0.1	0	0	351	0.2	351	352	9.0	89.3
2025-10-06T20:46	10	0	0.1	0	0	352	0.2	351	352	9.0	89.4
2025-10-06T20:47	10	0	0.1	0	0	352	0.2	352	352	8.9	90.0
2025-10-06T20:48	10	0	0.1	0	0	352	0.3	352	353	8.9	90.0
2025-10-06T20:49	10	0	0.1	0	0	353	0.2	352	353	8.9	90.0
2025-10-06T20:50	10	0	0.1	0	0	353	0.3	353	354	8.9	89.6
2025-10-06T20:51	10	0	0.1	0	0	354	0.2	353	354	9.0	89.2
2025-10-06T20:52	10	0	0.1	0	0	354	0.3	354	355	9.1	88.9
2025-10-06T20:53	10	0	0.1	0	0	354	0.2	354	355	9.1	88.8
2025-10-06T20:54	10	0	0.0	0	0	354	0.2	354	355	9.1	88.4
2025-10-06T20:55	10	0	0.1	0	0	355	0.2	354	356	9.1	88.1
2025-10-06T20:56	10	0	0.1	0	0	355	0.3	354	356	9.2	87.7
2025-10-06T20:57	10	0	0.1	0	0	355	0.3	354	355	9.1	89.1
2025-10-06T20:58	10	0	0.1	0	0	355	0.2	354	355	8.9	91.5
2025-10-06T20:59	10	0	0.1	0	0	355	0.3	354	356	8.8	91.8
2025-10-06T21:00	10	0	0.1	0	0	355	0.2	354	355	8.8	91.8
2025-10-06T21:01	10	0	0.1	0	0	355	0.3	354	356	8.8	91.3
2025-10-06T21:02	10	0	0.1	0	0	355	0.2	354	355	8.8	90.7
2025-10-06T21:03	10	0	0.1	0	0	355	0.2	354	355	8.8	90.6
2025-10-06T21:04	10	0	0.1	0	0	355	0.2	354	355	8.7	91.8
2025-10-06T21:05	10	0	0.1	0	0	354	0.3	354	355	8.6	92.4
2025-10-06T21:06	10	0	0.1	0	0	354	0.2	354	355	8.6	92.2
2025-10-06T21:07	10	0	0.1	0	0	355	0.2	354	355	8.6	91.4
2025-10-06T21:08	10	0	0.1	0	0	355	0.2	354	355	8.7	90.8
2025-10-06T21:09	10	0	0.1	0	0	355	0.2	354	355	8.7	90.8
2025-10-06T21:10	10	0	0.1	0	0	355	0.2	354	355	8.7	90.6
2025-10-06T21:11	10	0	0.1	0	0	355	0.2	355	355	8.7	90.6
2025-10-06T21:12	10	0	0.1	0	0	355	0.2	355	356	8.7	90.3
2025-10-06T21:13	10	0	0.1	0	0	355	0.3	355	356	8.7	90.4
2025-10-06T21:14	10	0	0.1	0	0	355	0.2	355	356	8.8	90.7
2025-10-06T21:15	10	0	0.1	0	0	355	0.2	354	356	8.8	90.0
2025-10-06T21:16	10	0	0.1	0	0	356	0.2	355	356	8.9	88.9
2025-10-06T21:17	10	0	0.1	0	0	356	0.3	355	356	8.9	88.1
2025-10-06T21:18	10	0	0.0	0	0	356	0.2	355	356	8.9	88.2
2025-10-06T21:19	10	0	0.0	0	0	356	0.2	355	356	9.0	87.8
2025-10-06T21:20	10	0	0.0	0	0	356	0.3	355	356	9.0	88.1
2025-10-06T21:21	10	0	0.1	0	0	356	0.2	355	356	9.0	88.4
2025-10-06T21:22	10	0	0.1	0	0	356	0.2	356	357	9.0	88.2
2025-10-06T21:23	10	0	0.1	0	0	356	0.2	356	357	9.0	88.2
2025-10-06T21:24	10	0	0.1	0	0	356	0.2	355	357	9.0	88.2
2025-10-06T21:25	10	0	0.1	0	0	356	0.3	356	357	9.0	88.5
2025-10-06T21:26	10	0	0.0	0	0	356	0.3	356	357	9.0	88.1
2025-10-06T21:27	10	0	0.1	0	0	357	0.2	356	357	9.0	87.7
2025-10-06T21:28	10	0	0.1	0	0	356	0.2	356	357	9.0	87.1
2025-10-06T21:29	10	0	0.1	0	0	357	0.2	356	357	9.0	86.8
2025-10-06T21:30	10	0	0.1	0	0	357	0.2	356	357	9.0	86.8
2025-10-06T21:31	10	0	0.1	0	0	357	0.2	356	357	9.1	87.2
2025-10-06T21:32	10	0	0.1	0	1	357	0.2	356	358	9.1	86.9
2025-10-06T21:33	10	0	0.1	0	0	357	0.3	356	357	9.1	86.8
2025-10-06T21:34	10	0	0.0	0	0	357	0.2	356	357	9.1	86.7
2025-10-06T21:35	10	0	0.1	0	0	357	0.2	356	357	9.2	86.5
2025-10-06T21:36	10	0	0.0	0	0	357	0.2	357	357	9.2	86.4
2025-10-06T21:37	10	0	0.1	0	0	357	0.3	356	358	9.2	85.9
2025-10-06T21:38	10	0	0.1	0	0	357	0.2	356	357	9.3	85.8
2025-10-06T21:39	10	0	0.0	0	0	357	0.3	356	357	9.3	86.9
2025-10-06T21:40	10	0	0.0	0	0	357	0.2	356	357	9.3	88.4
2025-10-06T21:41	10	0	0.0	0	0	357	0.2	356	357	9.3	89.0
2025-10-06T21:42	10	0	0.1	0	0	357	0.3	356	357	9.3	89.5
2025-10-06T21:43	10	0	0.1	0	0	357	0.2	356	357	9.2	89.5
2025-10-06T21:44	10	0	0.1	0	0	356	0.2	355	356	9.2	88.7
2025-10-06T21:45	10	0	0.1	0	0	356	0.2	355	356	9.1	88.2
2025-10-06T21:46	10	0	0.1	0	0	356	0.2	355	356	9.1	87.9
2025-10-06T21:47	10	0	0.1	0	0	355	0.3	355	356	9.1	88.9
2025-10-06T21:48	10	0	0.1	0	0	356	0.2	355	356	9.0	89.4
2025-10-06T21:49	10	0	0.1	0	0	356	0.2	355	356	9.0	89.5
2025-10-06T21:50	10	0	0.1	0	0	355	0.2	355	356	9.0	90.3
2025-10-06T21:51	10	0	0.1	0	0	355	0.2	355	356	9.0	90.8
2025-10-06T21:52	10	0	0.1	0	0	355	0.3	355	356	9.0	90.8
2025-10-06T21:53	10	0	0.1	0	0	355	0.3	355	356	9.0	92.1
2025-10-06T21:54	10	0	0.1	0	0	355	0.2	354	355	8.9	92.2
2025-10-06T21:55	10	0	0.0	0	0	355	0.3	354	355	8.9	92.4
2025-10-06T21:56	10	0	0.1	0	0	354	0.3	354	355	8.8	92.6
2025-10-06T21:57	10	0	0.1	0	0	354	0.2	354	355	8.8	92.9
2025-10-06T21:58	10	0	0.1	0	0	354	0.3	353	355	8.8	93.7
2025-10-06T21:59	10	0	0.1	0	0	354	0.2	354	355	8.7	92.9
2025-10-06T22:00	10	0	0.1	0	0	354	0.2	354	355	8.7	92.0
2025-10-06T22:01	10	0	0.1	0	0	354	0.2	354	355	8.7	91.8
2025-10-06T22:02	10	0	0.1	0	0	354	0.3	353	355	8.7	91.0
2025-10-06T22:03	10	0	0.1	0	0	354	0.2	353	354	8.7	91.2
2025-10-06T22:04	10	0	0.1	0	0	354	0.2	354	355	8.7	91.3
2025-10-06T22:05	10	0	0.1	0	0	354	0.3	353	354	8.8	91.9
2025-10-06T22:06	10	0	0.1	0	0	354	0.2	353	354	8.8	92.3
2025-10-06T22:07	10	0	0.0	0	0	354	0.2	353	355	8.8	92.6
2025-10-06T22:08	10	0	0.1	0	0	354	0.2	354	354	8.8	92.8
2025-10-06T22:09	10	0	0.1	0	0	354	0.3	353	355	8.8	93.0
2025-10-06T22:10	10	0	0.1	0	0	354	0.2	353	355	8.7	92.9
2025-10-06T22:11	10	0	0.1	0	0	354	0.2	354	355	8.8	93.1
2025-10-06T22:12	10	0	0.1	0	0	354	0.2	354	355	8.8	92.5
2025-10-06T22:13	10	0	0.1	0	0	354	0.3	353	355	8.8	91.5
2025-10-06T22:14	10	0	0.1	0	0	355	0.3	354	355	8.9	89.6
2025-10-06T22:15	10	0	0.1	0	0	355	0.3	354	355	9.0	88.9
2025-10-06T22:16	10	0	0.1	0	0	355	0.2	354	355	9.0	90.1
2025-10-06T22:17	10	0	0.1	0	0	355	0.2	354	355	9.0	90.2
2025-10-06T22:18	10	0	0.1	0	0	355	0.2	354	355	9.0	88.9
2025-10-06T22:19	10	0	0.1	0	0	355	0.2	354	355	9.0	88.4
2025-10-06T22:20	10	0	0.1	0	0	355	0.2	355	356	9.1	88.4
2025-10-06T22:21	10	0	0.1	0	0	355	0.2	354	356	9.1	88.5
2025-10-06T22:22	10	0	0.1	0	0	355	0.2	355	355	9.1	88.9
2025-10-06T22:23	10	0	0.1	0	0	355	0.3	354	355	9.1	89.3
2025-10-06T22:24	10	0	0.1	0	0	355	0.2	355	355	9.1	89.7
2025-10-06T22:25	10	0	0.1	0	0	355	0.2	354	355	9.0	90.7
2025-10-06T22:26	10	0	0.1	0	0	354	0.3	354	355	9.0	90.8
2025-10-06T22:27	10	0	0.1	0	0	354	0.2	353	354	9.0	91.2
2025-10-06T22:28	10	0	0.1	0	0	354	0.2	353	354	8.9	91.9
2025-10-06T22:29	10	0	0.1	0	0	354	0.2	353	354	8.9	92.4
2025-10-06T22:30	10	0	0.1	0	0	354	0.2	353	354	8.9	92.2
2025-10-06T22:31	10	0	0.1	0	0	353	0.2	353	354	8.9	92.1
2025-10-06T22:32	10	0	0.1	0	0	353	0.2	353	354	8.8	92.2
2025-10-06T22:33	10	0	0.1	0	0	353	0.2	353	354	8.8	92.1
2025-10-06T22:34	10	0	0.1	0	0	353	0.3	353	354	8.8	92.0
2025-10-06T22:35	10	0	0.1	0	0	354	0.2	353	354	8.8	92.1
2025-10-06T22:36	10	0	0.1	0	0	354	0.2	353	354	8.8	92.3
2025-10-06T22:37	10	0	0.1	0	0	354	0.2	353	354	8.8	92.8
2025-10-06T22:38	10	0	0.1	0	0	354	0.2	353	354	8.8	93.0
2025-10-06T22:39	10	0	0.1	0	0	354	0.2	353	354	8.8	93.2
2025-10-06T22:40	10	0	0.1	0	0	354	0.2	353	354	8.8	93.0
2025-10-06T22:41	10	0	0.1	0	0	354	0.2	353	354	8.8	92.5
2025-10-06T22:42	10	0	0.1	0	0	354	0.2	353	354	8.8	92.3
2025-10-06T22:43	10	0	0.1	0	0	354	0.2	354	354	8.8	92.6
2025-10-06T22:44	10	0	0.1	0	0	354	0.2	353	354	8.8	92.5
2025-10-06T22:45	10	0	0.1	0	0	354	0.2	354	355	8.8	92.0
2025-10-06T22:46	10	0	0.1	0	0	354	0.2	354	355	8.8	92.1
2025-10-06T22:47	10	0	0.1	0	0	354	0.2	354	355	8.9	91.9
2025-10-06T22:48	10	0	0.1	0	0	355	0.2	354	355	8.9	92.0
2025-10-06T22:49	10	0	0.1	0	0	355	0.2	354	355	8.9	93.0
2025-10-06T22:50	10	0	0.1	0	0	355	0.2	354	355	8.9	93.3
2025-10-06T22:51	10	0	0.1	0	0	355	0.2	354	355	8.8	93.2
2025-10-06T22:52	10	0	0.1	0	0	355	0.3	354	356	8.8	93.4
2025-10-06T22:53	10	0	0.1	0	0	355	0.2	355	355	8.8	93.5
2025-10-06T22:54	10	0	0.1	0	0	355	0.2	354	355	8.8	93.5
2025-10-06T22:55	10	0	0.1	0	0	355	0.2	354	355	8.8	92.6
2025-10-06T22:56	10	0	0.1	0	0	355	0.2	354	355	8.8	91.5
2025-10-06T22:57	10	0	0.1	0	0	355	0.2	354	355	8.8	91.6
2025-10-06T22:58	10	0	0.1	0	0	355	0.3	354	355	8.9	92.1
2025-10-06T22:59	10	0	0.1	0	0	355	0.2	354	355	8.9	92.0
2025-10-06T23:00	10	0	0.1	0	0	354	0.2	354	355	8.9	92.4
2025-10-06T23:01	10	0	0.1	0	0	354	0.2	354	355	8.9	93.5
2025-10-06T23:02	10	0	0.1	0	0	354	0.3	353	355	8.8	94.0
2025-10-06T23:03	10	0	0.1	0	0	354	0.3	353	354	8.7	92.4
2025-10-06T23:04	10	0	0.1	0	0	353	0.2	352	353	8.7	91.7
2025-10-06T23:05	10	0	0.1	0	0	353	0.2	352	353	8.7	91.5
2025-10-06T23:06	10	0	0.1	0	0	352	0.3	352	353	8.7	92.3
2025-10-06T23:07	10	0	0.1	0	0	352	0.3	351	353	8.7	91.8
2025-10-06T23:08	10	0	0.1	0	0	352	0.2	351	352	8.7	91.8
2025-10-06T23:09	10	0	0.1	0	0	351	0.2	351	352	8.7	91.4
2025-10-06T23:10	10	0	0.1	0	0	351	0.2	351	352	8.7	91.9
2025-10-06T23:11	10	0	0.1	0	0	351	0.2	351	352	8.7	91.8
2025-10-06T23:12	10	0	0.0	0	0	351	0.2	351	352	8.7	91.8
2025-10-06T23:13	10	0	0.1	0	0	351	0.2	351	351	8.7	92.1
2025-10-06T23:14	10	0	0.1	0	0	351	0.2	351	352	8.7	92.3
2025-10-06T23:15	10	0	0.1	0	0	351	0.2	351	352	8.7	92.0
2025-10-06T23:16	10	0	0.1	0	0	351	0.2	351	352	8.7	91.2
2025-10-06T23:17	10	0	0.1	0	0	351	0.2	351	352	8.7	90.4
2025-10-06T23:18	10	0	0.1	0	0	351	0.2	350	351	8.7	89.9
2025-10-06T23:19	10	0	0.1	0	0	351	0.2	350	351	8.7	89.4
2025-10-06T23:20	10	0	0.1	0	0	351	0.2	350	351	8.8	89.5
2025-10-06T23:21	10	0	0.1	0	0	351	0.2	350	351	8.7	89.8
2025-10-06T23:22	10	0	0.1	0	0	351	0.3	350	351	8.7	89.8
2025-10-06T23:23	10	0	0.1	0	0	351	0.2	351	351	8.7	89.9
2025-10-06T23:24	10	0	0.1	0	0	351	0.2	350	351	8.7	89.7
2025-10-06T23:25	10	0	0.1	0	0	351	0.2	350	351	8.7	89.6
2025-10-06T23:26	10	0	0.1	0	0	351	0.2	350	351	8.7	89.5
2025-10-06T23:27	10	0	0.1	0	0	351	0.2	350	351	8.8	89.2
2025-10-06T23:28	10	0	0.1	0	0	350	0.2	350	351	8.8	89.1
2025-10-06T23:29	10	0	0.1	0	0	350	0.2	350	351	8.8	89.0
2025-10-06T23:30	10	0	0.1	0	0	350	0.3	349	350	8.8	88.8
2025-10-06T23:31	10	0	0.1	0	0	349	0.2	349	350	8.8	89.3
2025-10-06T23:32	10	0	0.1	0	0	350	0.2	349	350	8.8	90.5
2025-10-06T23:33	10	0	0.1	0	0	349	0.3	349	350	8.8	91.3
2025-10-06T23:34	10	0	0.1	0	0	349	0.2	349	350	8.8	91.3
2025-10-06T23:35	10	0	0.1	0	0	348	0.3	348	349	8.8	91.1
2025-10-06T23:36	10	0	0.1	0	0	348	0.2	347	348	8.8	92.4
2025-10-06T23:37	10	0	0.1	0	0	347	0.3	346	348	8.7	92.9
2025-10-06T23:38	10	0	0.1	0	0	347	0.3	346	347	8.7	92.9
2025-10-06T23:39	10	0	0.1	0	0	347	0.3	346	347	8.7	93.6
2025-10-06T23:40	10	0	0.1	0	0	346	0.2	346	347	8.7	94.1
2025-10-06T23:41	10	0	0.1	0	0	346	0.2	345	346	8.7	94.6
2025-10-06T23:42	10	0	0.1	0	0	346	0.2	345	346	8.7	95.0
2025-10-06T23:43	10	0	0.0	0	0	345	0.2	345	346	8.7	95.6
2025-10-06T23:44	10	0	0.1	0	0	345	0.3	345	346	8.6	95.8
2025-10-06T23:45	10	0	0.1	0	0	345	0.2	345	345	8.6	95.9
2025-10-06T23:46	10	0	0.1	0	0	345	0.2	344	345	8.6	96.1
2025-10-06T23:47	10	0	0.1	0	0	344	0.3	344	345	8.5	96.2
2025-10-06T23:48	10	0	0.1	0	0	344	0.2	343	344	8.5	96.2
2025-10-06T23:49	10	0	0.1	0	0	343	0.2	343	344	8.5	96.3
2025-10-06T23:50	10	0	0.1	0	0	343	0.2	343	344	8.5	96.4
2025-10-06T23:51	10	0	0.1	0	0	343	0.2	342	343	8.5	96.4
2025-10-06T23:52	10	0	0.0	0	0	343	0.2	342	343	8.6	96.3
2025-10-06T23:53	10	0	0.0	0	0	343	0.2	343	343	8.6	96.1
2025-10-06T23:54	10	0	0.1	0	0	343	0.2	343	343	8.6	96.3
2025-10-06T23:55	10	0	0.1	0	0	343	0.3	343	344	8.5	96.4
2025-10-06T23:56	10	0	0.1	0	0	344	0.3	343	345	8.5	96.1
2025-10-06T23:57	10	0	0.1	0	0	345	0.2	344	345	8.5	95.7
2025-10-06T23:58	10	0	0.1	0	0	345	0.2	344	345	8.6	95.2
2025-10-06T23:59	10	0	0.1	0	0	345	0.2	345	345	8.6	94.9
2025-10-07T00:00	10	0	0.1	0	0	345	0.3	345	346	8.6	94.8
2025-10-07T00:01	10	0	0.1	0	0	346	0.2	345	346	8.6	95.0
2025-10-07T00:02	10	0	0.1	0	0	346	0.3	345	346	8.6	95.2
2025-10-07T00:03	10	0	0.1	0	0	346	0.3	345	347	8.6	95.1
2025-10-07T00:04	10	0	0.1	0	0	347	0.3	346	347	8.6	94.7
2025-10-07T00:05	10	0	0.1	0	0	347	0.2	346	347	8.7	94.0
2025-10-07T00:06	10	0	0.1	0	0	347	0.3	347	348	8.7	93.7
2025-10-07T00:07	10	0	0.1	0	0	347	0.2	347	348	8.7	93.0
2025-10-07T00:08	10	0	0.2	0	0	348	0.2	347	348	8.8	92.3
2025-10-07T00:09	10	0	0.1	0	1	348	0.2	348	348	8.9	90.8
2025-10-07T00:10	10	0	0.1	0	1	348	0.2	347	348	9.0	89.7
2025-10-07T00:11	10	0	0.1	0	1	348	0.2	347	348	9.0	90.8
2025-10-07T00:12	10	0	0.1	0	0	348	0.3	347	348	8.9	92.6
2025-10-07T00:13	10	0	0.1	0	1	347	0.4	346	348	8.8	93.0
2025-10-07T00:14	10	0	0.2	0	1	347	0.3	347	348	8.6	93.9
2025-10-07T00:15	10	0	0.1	0	0	347	0.2	347	348	8.6	94.3
2025-10-07T00:16	10	0	0.1	0	0	347	0.3	347	348	8.5	94.7
2025-10-07T00:17	10	0	0.1	0	1	347	0.3	347	348	8.4	94.7
2025-10-07T00:18	10	0	0.2	0	1	347	0.3	346	348	8.4	94.5
2025-10-07T00:19	10	0	0.1	0	0	347	0.4	346	347	8.4	94.6
2025-10-07T00:20	10	0	0.2	0	0	346	0.2	346	347	8.3	94.6
2025-10-07T00:21	10	0	0.2	0	0	346	0.3	345	346	8.2	94.7
2025-10-07T00:22	10	0	0.1	0	0	346	0.3	345	346	8.2	94.8
2025-10-07T00:23	10	0	0.1	0	0	345	0.3	345	346	8.2	94.8
2025-10-07T00:24	10	0	0.1	0	0	346	0.4	345	347	8.2	94.8
2025-10-07T00:25	10	0	0.2	0	0	346	0.3	346	347	8.2	95.1
2025-10-07T00:26	10	0	0.2	0	0	347	0.3	346	347	8.2	95.2
2025-10-07T00:27	10	0	0.1	0	1	347	0.3	346	348	8.2	95.2
2025-10-07T00:28	10	0	0.2	0	0	347	0.3	346	347	8.2	95.3
2025-10-07T00:29	10	0	0.2	0	1	347	0.3	347	348	8.2	95.2
2025-10-07T00:30	10	0	0.1	0	0	347	0.3	347	348	8.2	95.0
2025-10-07T00:31	10	0	0.2	0	0	348	0.3	347	348	8.2	94.6
2025-10-07T00:32	10	0	0.1	0	1	348	0.2	347	348	8.3	94.3
2025-10-07T00:33	10	0	0.1	0	0	348	0.2	348	348	8.3	94.1
2025-10-07T00:34	10	0	0.1	0	0	348	0.2	348	348	8.3	94.0
2025-10-07T00:35	10	0	0.1	0	0	348	0.2	348	349	8.2	93.9
2025-10-07T00:36	10	0	0.1	0	0	349	0.3	348	350	8.2	93.9
2025-10-07T00:37	10	0	0.1	0	0	349	0.3	348	350	8.2	94.1
2025-10-07T00:38	10	0	0.1	0	0	349	0.3	349	350	8.2	94.4
2025-10-07T00:39	10	0	0.1	0	0	350	0.2	349	350	8.2	94.3
2025-10-07T00:40	10	0	0.1	0	0	350	0.2	349	350	8.3	94.0
2025-10-07T00:41	10	0	0.1	0	0	350	0.3	350	351	8.3	93.7
2025-10-07T00:42	10	0	0.1	0	0	351	0.2	350	351	8.3	93.7
2025-10-07T00:43	10	0	0.1	0	0	351	0.2	350	351	8.3	93.7
2025-10-07T00:44	10	0	0.1	0	0	351	0.2	350	351	8.3	93.9
2025-10-07T00:45	10	0	0.1	0	0	351	0.2	350	351	8.2	94.3
2025-10-07T00:46	10	0	0.1	0	0	351	0.3	350	352	8.2	94.2
2025-10-07T00:47	10	0	0.1	0	0	351	0.2	351	352	8.3	94.1
2025-10-07T00:48	10	0	0.2	0	1	351	0.2	351	352	8.3	93.9
2025-10-07T00:49	10	0	0.1	0	0	351	0.2	351	352	8.2	94.0
2025-10-07T00:50	10	0	0.1	0	0	351	0.3	351	352	8.2	94.0
2025-10-07T00:51	10	0	0.1	0	1	351	0.3	351	352	8.2	93.7
2025-10-07T00:52	10	0	0.2	0	1	351	0.3	351	352	8.3	93.2
2025-10-07T00:53	10	0	0.2	0	1	352	0.2	351	352	8.3	93.3
2025-10-07T00:54	10	0	0.1	0	0	352	0.2	351	352	8.3	93.5
2025-10-07T00:55	10	0	0.1	0	0	352	0.3	351	352	8.3	93.6
2025-10-07T00:56	10	0	0.1	0	0	352	0.3	351	352	8.3	94.0
2025-10-07T00:57	10	0	0.1	0	0	352	0.2	351	352	8.3	94.2
2025-10-07T00:58	10	0	0.1	0	0	352	0.3	351	353	8.3	93.9
2025-10-07T00:59	10	0	0.1	0	0	352	0.2	352	353	8.4	93.6
2025-10-07T01:00	10	0	0.1	0	0	352	0.3	352	353	8.4	93.5
2025-10-07T01:01	10	0	0.1	0	0	352	0.2	352	353	8.4	93.3
2025-10-07T01:02	10	0	0.1	0	0	353	0.3	352	353	8.4	92.9
2025-10-07T01:03	10	0	0.1	0	1	353	0.3	352	354	8.5	92.4
2025-10-07T01:04	10	0	0.1	0	0	353	0.3	352	354	8.6	91.8
2025-10-07T01:05	10	0	0.1	0	1	353	0.3	352	354	8.6	91.5
2025-10-07T01:06	10	0	0.1	0	0	353	0.2	353	354	8.6	91.3
2025-10-07T01:07	10	0	0.2	0	1	353	0.2	353	354	8.7	91.3
2025-10-07T01:08	10	0	0.1	0	0	353	0.2	353	354	8.6	91.8
2025-10-07T01:09	10	0	0.1	0	0	353	0.2	353	354	8.6	91.8
2025-10-07T01:10	10	0	0.1	0	0	354	0.3	353	354	8.7	91.8
2025-10-07T01:11	10	0	0.1	0	0	354	0.3	353	354	8.6	91.7
2025-10-07T01:12	10	0	0.1	0	1	354	0.2	353	354	8.7	91.3
2025-10-07T01:13	10	0	0.1	0	0	354	0.3	353	354	8.7	91.5
2025-10-07T01:14	10	0	0.1	0	0	354	0.2	353	354	8.6	92.2
2025-10-07T01:15	10	0	0.1	0	1	354	0.2	353	354	8.6	92.2
2025-10-07T01:16	10	0	0.1	0	0	354	0.3	353	354	8.7	91.6
2025-10-07T01:17	10	0	0.1	0	1	354	0.3	353	354	8.7	91.9
2025-10-07T01:18	10	0	0.1	0	1	354	0.3	353	354	8.6	92.5
2025-10-07T01:19	10	0	0.2	0	0	354	0.3	353	355	8.6	93.1
2025-10-07T01:20	10	0	0.2	0	1	354	0.2	353	355	8.6	93.0
2025-10-07T01:21	10	0	0.1	0	0	354	0.2	354	355	8.6	92.0
2025-10-07T01:22	10	0	0.2	0	1	354	0.3	354	355	8.7	90.8
2025-10-07T01:23	10	0	0.1	0	0	354	0.3	354	355	8.8	89.9
2025-10-07T01:24	10	0	0.1	0	0	355	0.3	354	355	8.9	89.0
2025-10-07T01:25	10	0	0.2	0	1	354	0.3	354	355	8.9	89.1
2025-10-07T01:26	10	0	0.1	0	1	355	0.3	354	355	8.9	89.1
2025-10-07T01:27	10	0	0.1	0	1	355	0.3	354	355	8.9	89.4
2025-10-07T01:28	10	0	0.1	0	1	354	0.3	354	355	8.8	89.9
2025-10-07T01:29	10	0	0.1	0	1	354	0.3	354	355	8.8	89.9
2025-10-07T01:30	10	0	0.1	0	0	355	0.3	354	355	8.8	89.3
2025-10-07T01:31	10	0	0.2	0	1	354	0.2	354	355	8.9	89.3
2025-10-07T01:32	10	0	0.1	0	1	355	0.2	354	355	8.8	90.5
2025-10-07T01:33	10	0	0.1	0	1	355	0.2	354	355	8.8	90.9
2025-10-07T01:34	10	0	0.1	0	0	355	0.2	354	355	8.8	90.8
2025-10-07T01:35	10	0	0.1	0	1	354	0.2	354	355	8.8	90.7
2025-10-07T01:36	10	0	0.1	0	1	354	0.2	354	355	8.8	90.7
2025-10-07T01:37	10	0	0.1	0	0	354	0.2	354	355	8.8	90.9
2025-10-07T01:38	10	0	0.1	0	0	354	0.3	353	355	8.7	91.3
2025-10-07T01:39	10	0	0.1	0	1	354	0.3	353	355	8.7	91.6
2025-10-07T01:40	10	0	0.1	0	1	354	0.3	353	355	8.6	92.0
2025-10-07T01:41	10	0	0.1	0	1	354	0.2	353	354	8.6	91.8
2025-10-07T01:42	10	0	0.1	0	0	353	0.3	353	354	8.6	92.1
2025-10-07T01:43	10	0	0.2	0	1	353	0.2	353	354	8.5	93.0
2025-10-07T01:44	10	0	0.1	0	0	353	0.2	353	354	8.4	93.6
2025-10-07T01:45	10	0	0.1	0	1	353	0.3	353	354	8.4	93.5
2025-10-07T01:46	10	0	0.1	0	0	353	0.2	352	354	8.3	93.8
2025-10-07T01:47	10	0	0.2	0	0	352	0.3	352	353	8.3	94.1
2025-10-07T01:48	10	0	0.1	0	0	352	0.3	352	353	8.3	94.3
2025-10-07T01:49	10	0	0.1	0	0	352	0.2	352	353	8.3	94.3
2025-10-07T01:50	10	0	0.1	0	0	352	0.2	352	353	8.3	94.3
2025-10-07T01:51	10	0	0.1	0	0	352	0.2	352	353	8.3	94.5
2025-10-07T01:52	10	0	0.2	0	0	352	0.3	351	353	8.3	94.5
2025-10-07T01:53	10	0	0.1	0	0	352	0.3	351	353	8.3	94.5
2025-10-07T01:54	10	0	0.1	0	0	352	0.2	352	352	8.3	94.6
2025-10-07T01:55	10	0	0.1	0	0	352	0.2	352	353	8.3	95.0
2025-10-07T01:56	10	0	0.1	0	0	352	0.2	352	353	8.3	94.9
2025-10-07T01:57	10	0	0.2	0	1	352	0.2	352	352	8.3	94.6
2025-10-07T01:58	10	0	0.1	0	0	352	0.3	352	353	8.3	94.7
2025-10-07T01:59	10	0	0.1	0	0	352	0.2	351	353	8.3	94.8
2025-10-07T02:00	10	0	0.1	0	0	352	0.4	351	353	8.2	94.9
2025-10-07T02:01	10	0	0.1	0	0	352	0.2	351	352	8.2	94.8
2025-10-07T02:02	10	0	0.1	0	0	352	0.3	351	353	8.2	94.8
2025-10-07T02:03	10	0	0.1	0	0	352	0.3	351	352	8.3	94.7
2025-10-07T02:04	10	0	0.1	0	0	351	0.3	351	352	8.3	94.6
2025-10-07T02:05	10	0	0.1	0	0	351	0.2	350	352	8.2	95.0
2025-10-07T02:06	10	0	0.1	0	0	351	0.2	351	352	8.3	95.5
2025-10-07T02:07	10	0	0.1	0	0	351	0.2	350	351	8.2	95.6
2025-10-07T02:08	10	0	0.1	0	0	351	0.3	350	351	8.2	95.5
2025-10-07T02:09	10	0	0.1	0	0	351	0.2	350	351	8.2	95.6
2025-10-07T02:10	10	0	0.1	0	0	351	0.2	350	351	8.2	95.7
2025-10-07T02:11	10	0	0.1	0	0	350	0.2	350	351	8.2	95.7
2025-10-07T02:12	10	0	0.1	0	0	350	0.3	349	351	8.2	95.7
2025-10-07T02:13	10	0	0.2	0	0	350	0.2	349	351	8.1	95.8
2025-10-07T02:14	10	0	0.1	0	0	350	0.3	349	350	8.2	96.0
2025-10-07T02:15	10	0	0.1	0	0	350	0.3	349	351	8.2	96.2
2025-10-07T02:16	10	0	0.1	0	0	350	0.3	349	351	8.1	96.2
2025-10-07T02:17	10	0	0.2	0	1	350	0.3	349	351	8.1	96.3
2025-10-07T02:18	10	0	0.1	0	1	350	0.2	350	351	8.1	96.5
2025-10-07T02:19	10	0	0.2	0	0	350	0.3	349	351	8.1	96.7
2025-10-07T02:20	10	0	0.1	0	1	351	0.3	350	351	8.1	96.3
2025-10-07T02:21	10	0	0.1	0	0	351	0.3	350	352	8.1	96.5
2025-10-07T02:22	10	0	0.1	0	0	351	0.2	350	351	8.1	96.6
2025-10-07T02:23	10	0	0.1	0	0	351	0.3	350	352	8.1	96.3
2025-10-07T02:24	10	0	0.1	0	0	351	0.3	350	352	8.0	96.5
2025-10-07T02:25	10	0	0.1	0	0	351	0.2	350	351	8.0	96.5
2025-10-07T02:26	10	0	0.2	0	0	351	0.2	350	351	8.0	96.3
2025-10-07T02:27	10	0	0.1	0	0	350	0.2	350	351	8.0	96.3
2025-10-07T02:28	10	0	0.1	0	0	351	0.2	350	351	8.0	96.0
2025-10-07T02:29	10	0	0.1	-1	0	350	0.3	350	351	8.0	95.8
2025-10-07T02:30	10	0	0.1	0	0	350	0.3	350	351	8.0	95.4
2025-10-07T02:31	10	0	0.2	0	0	350	0.3	349	351	8.1	94.7
2025-10-07T02:32	10	0	0.2	0	0	350	0.3	349	350	8.1	94.8
2025-10-07T02:33	10	0	0.1	0	0	349	0.3	349	350	8.0	95.0
2025-10-07T02:34	10	0	0.1	-1	0	349	0.3	348	350	8.0	95.2
2025-10-07T02:35	10	0	0.2	-1	0	349	0.2	348	349	7.9	95.3
2025-10-07T02:36	10	0	0.2	0	0	348	0.3	348	349	7.9	95.3
2025-10-07T02:37	10	0	0.1	0	0	348	0.3	348	349	8.0	95.2
2025-10-07T02:38	10	0	0.1	0	0	348	0.2	347	348	8.0	95.3
2025-10-07T02:39	10	0	0.2	-1	0	348	0.3	347	348	8.0	95.1
2025-10-07T02:40	10	0	0.1	0	0	347	0.2	347	348	8.0	95.3
2025-10-07T02:41	10	0	0.1	0	1	347	0.3	346	348	8.0	95.4
2025-10-07T02:42	10	0	0.2	0	0	347	0.2	346	347	8.0	95.0
2025-10-07T02:43	10	0	0.1	0	0	347	0.2	346	347	8.1	94.6
2025-10-07T02:44	10	0	0.1	0	0	346	0.3	346	347	8.1	94.5
2025-10-07T02:45	10	0	0.1	0	0	346	0.2	346	347	8.1	94.4
2025-10-07T02:46	10	0	0.1	0	0	346	0.3	345	346	8.1	94.2
2025-10-07T02:47	10	0	0.1	0	0	345	0.2	344	345	8.1	94.0
2025-10-07T02:48	10	0	0.1	0	0	344	0.3	344	345	8.1	94.1
2025-10-07T02:49	10	0	0.1	0	0	344	0.2	343	344	8.1	94.1
2025-10-07T02:50	10	0	0.2	0	1	343	0.3	342	344	8.1	94.2
2025-10-07T02:51	10	0	0.1	0	0	343	0.3	342	343	8.0	94.3
2025-10-07T02:52	10	0	0.1	0	0	342	0.3	341	342	8.0	94.6
2025-10-07T02:53	10	0	0.1	0	0	342	0.2	341	342	8.0	94.6
2025-10-07T02:54	10	0	0.1	0	0	341	0.3	341	342	7.9	94.6
2025-10-07T02:55	10	0	0.1	0	0	341	0.2	340	341	7.9	95.2
2025-10-07T02:56	10	0	0.1	0	1	341	0.2	340	341	7.9	95.2
2025-10-07T02:57	10	0	0.1	0	0	340	0.2	340	341	7.8	95.4
2025-10-07T02:58	10	0	0.1	0	0	340	0.2	340	341	7.8	95.5
2025-10-07T02:59	10	0	0.1	0	0	340	0.2	340	340	7.7	95.8
2025-10-07T03:00	10	0	0.1	0	0	340	0.2	340	340	7.7	95.9
2025-10-07T03:01	10	0	0.1	0	0	340	0.2	339	340	7.8	95.9
2025-10-07T03:02	10	0	0.1	0	0	340	0.2	339	340	7.8	95.9
2025-10-07T03:03	10	0	0.1	0	0	339	0.2	339	340	7.8	95.9
2025-10-07T03:04	10	0	0.1	0	0	339	0.2	339	340	7.9	95.6
2025-10-07T03:05	10	0	0.1	0	0	339	0.2	338	339	8.0	95.5
2025-10-07T03:06	10	0	0.1	0	0	338	0.2	338	339	8.0	95.4
2025-10-07T03:07	10	0	0.1	0	0	338	0.2	337	338	7.9	95.6
2025-10-07T03:08	10	0	0.1	0	0	338	0.2	337	339	7.9	95.7
2025-10-07T03:09	10	0	0.1	0	0	338	0.2	337	338	7.9	96.0
2025-10-07T03:10	10	0	0.1	0	0	337	0.3	337	338	7.8	96.3
2025-10-07T03:11	10	0	0.1	0	0	337	0.3	336	337	7.8	96.4
2025-10-07T03:12	10	0	0.1	0	0	336	0.2	336	337	7.8	96.4
2025-10-07T03:13	10	0	0.1	0	0	336	0.2	336	337	7.7	96.6
2025-10-07T03:14	10	0	0.1	0	0	336	0.2	335	337	7.7	96.8
2025-10-07T03:15	10	0	0.1	0	0	336	0.2	335	336	7.7	97.0
2025-10-07T03:16	10	0	0.1	0	0	336	0.2	335	336	7.6	97.4
2025-10-07T03:17	10	0	0.1	0	0	336	0.3	335	336	7.6	97.3
2025-10-07T03:18	10	0	0.1	0	0	336	0.2	335	336	7.6	97.2
2025-10-07T03:19	10	0	0.1	0	0	336	0.2	335	336	7.7	97.1
2025-10-07T03:20	10	0	0.1	0	0	336	0.2	335	336	7.7	97.2
2025-10-07T03:21	10	0	0.1	0	0	336	0.3	335	336	7.7	97.2
2025-10-07T03:22	10	0	0.1	0	0	335	0.2	335	336	7.7	97.4
2025-10-07T03:23	10	0	0.1	0	0	335	0.2	335	336	7.7	97.3
2025-10-07T03:24	10	0	0.1	0	0	335	0.2	335	335	7.7	97.1
2025-10-07T03:25	10	0	0.1	0	0	335	0.2	334	336	7.7	97.0
2025-10-07T03:26	10	0	0.1	0	0	335	0.3	335	336	7.7	97.1
2025-10-07T03:27	10	0	0.1	0	0	335	0.2	335	336	7.7	97.1
2025-10-07T03:28	10	0	0.1	0	0	335	0.3	334	336	7.8	96.9
2025-10-07T03:29	10	0	0.1	0	0	335	0.2	335	336	7.8	96.8
2025-10-07T03:30	10	0	0.1	0	0	335	0.2	335	335	7.8	96.7
2025-10-07T03:31	10	0	0.1	0	0	335	0.2	335	336	7.8	96.8
2025-10-07T03:32	10	0	0.1	0	0	335	0.2	335	336	7.8	96.7
2025-10-07T03:33	10	0	0.1	0	0	335	0.2	335	336	7.9	96.6
2025-10-07T03:34	10	0	0.1	0	0	336	0.2	335	336	7.9	96.4
2025-10-07T03:35	10	0	0.1	0	0	336	0.3	335	336	7.9	96.0
2025-10-07T03:36	10	0	0.1	0	0	336	0.2	335	336	7.9	95.7
2025-10-07T03:37	10	0	0.1	0	0	336	0.2	335	336	7.8	95.4
2025-10-07T03:38	10	0	0.1	0	0	335	0.3	335	336	7.8	95.3
2025-10-07T03:39	10	0	0.1	0	0	335	0.2	335	335	7.6	95.2
2025-10-07T03:40	10	0	0.1	0	0	335	0.3	335	336	7.6	95.2
2025-10-07T03:41	10	0	0.1	0	0	336	0.2	335	336	7.6	95.3
2025-10-07T03:42	10	0	0.1	0	0	336	0.5	335	337	7.5	95.5
2025-10-07T03:43	10	0	0.1	0	0	338	0.4	337	338	7.4	95.7
2025-10-07T03:44	10	0	0.1	0	0	339	0.3	338	339	7.3	96.2
2025-10-07T03:45	10	0	0.1	0	0	339	0.2	339	340	7.3	96.5
2025-10-07T03:46	10	0	0.1	0	0	339	0.2	339	340	7.2	96.7
2025-10-07T03:47	10	0	0.1	0	0	339	0.2	339	340	7.2	96.9
2025-10-07T03:48	10	0	0.1	0	0	339	0.2	339	340	7.2	96.9
2025-10-07T03:49	10	0	0.1	0	0	339	0.2	338	339	7.2	97.2
2025-10-07T03:50	10	0	0.1	0	0	338	0.3	337	339	7.1	97.3
2025-10-07T03:51	10	0	0.1	0	0	338	0.3	337	338	7.0	97.4
2025-10-07T03:52	10	0	0.1	0	0	338	0.3	337	338	7.0	97.8
2025-10-07T03:53	10	0	0.1	0	0	337	0.3	336	337	6.9	97.7
2025-10-07T03:54	10	0	0.1	0	0	337	0.3	337	338	6.9	97.6
2025-10-07T03:55	10	0	0.1	0	0	337	0.2	337	338	7.0	97.9
2025-10-07T03:56	10	0	0.1	0	0	337	0.2	337	338	7.0	98.1
2025-10-07T03:57	10	0	0.1	0	0	338	0.4	337	339	7.0	97.7
2025-10-07T03:58	10	0	0.1	0	0	338	0.3	338	339	7.0	97.5
2025-10-07T03:59	10	0	0.1	0	0	338	0.2	338	339	7.0	97.4
2025-10-07T04:00	10	0	0.1	0	0	338	0.3	338	339	7.0	97.2
2025-10-07T04:01	10	0	0.1	0	0	338	0.2	338	338	6.9	97.4
2025-10-07T04:02	10	0	0.1	-1	0	338	0.2	337	338	6.9	97.3
2025-10-07T04:03	10	0	0.1	0	0	338	0.3	337	338	6.9	97.1
2025-10-07T04:04	10	0	0.1	0	0	337	0.2	337	338	6.9	97.4
2025-10-07T04:05	10	0	0.1	0	0	337	0.2	337	338	6.8	97.3
2025-10-07T04:06	10	0	0.1	0	0	337	0.2	336	337	6.9	97.3
2025-10-07T04:07	10	0	0.1	0	0	337	0.3	336	337	7.0	97.3
2025-10-07T04:08	10	0	0.1	0	0	337	0.2	336	337	7.0	97.3
2025-10-07T04:09	10	0	0.1	0	0	336	0.2	336	337	7.0	97.6
2025-10-07T04:10	10	0	0.1	0	0	336	0.3	335	337	7.1	97.5
2025-10-07T04:11	10	0	0.1	0	0	336	0.3	335	336	7.0	97.6
2025-10-07T04:12	10	0	0.1	0	0	335	0.3	335	336	6.9	97.3
2025-10-07T04:13	10	0	0.1	0	0	335	0.2	335	336	6.9	97.0
2025-10-07T04:14	10	0	0.1	0	0	335	0.2	335	336	7.0	96.9
2025-10-07T04:15	10	0	0.1	0	0	335	0.3	334	335	7.0	97.1
2025-10-07T04:16	10	0	0.1	0	0	334	0.3	333	334	7.0	97.1
2025-10-07T04:17	10	0	0.1	0	0	333	0.3	333	334	6.9	97.0
2025-10-07T04:18	10	0	0.1	0	0	333	0.2	333	334	7.0	96.9
2025-10-07T04:19	10	0	0.1	0	0	333	0.2	333	334	7.1	96.9
2025-10-07T04:20	10	0	0.1	0	0	333	0.2	333	334	7.1	96.8
2025-10-07T04:21	10	0	0.1	0	0	333	0.3	332	334	7.1	96.8
2025-10-07T04:22	10	0	0.1	0	0	333	0.2	332	333	7.0	96.9
2025-10-07T04:23	10	0	0.1	0	0	333	0.3	332	333	7.0	97.0
2025-10-07T04:24	10	0	0.1	0	0	333	0.2	332	333	7.0	97.0
2025-10-07T04:25	10	0	0.1	0	0	333	0.2	332	333	7.0	96.7
2025-10-07T04:26	10	0	0.1	0	0	333	0.3	332	333	7.1	96.2
2025-10-07T04:27	10	0	0.1	0	0	332	0.2	332	333	7.1	96.1
2025-10-07T04:28	10	0	0.1	0	0	333	0.2	332	333	7.1	96.2
2025-10-07T04:29	10	0	0.1	0	0	333	0.2	332	333	7.1	96.2
2025-10-07T04:30	10	0	0.1	0	0	333	0.2	333	334	7.0	96.2
2025-10-07T04:31	10	0	0.1	0	0	333	0.3	333	334	7.0	96.1
2025-10-07T04:32	10	0	0.1	0	0	333	0.2	333	334	7.0	96.2
2025-10-07T04:33	10	0	0.1	0	0	333	0.2	333	334	7.0	96.3
2025-10-07T04:34	10	0	0.1	0	0	333	0.2	333	334	7.0	96.4
2025-10-07T04:35	10	0	0.1	0	0	333	0.2	333	334	7.0	96.4
2025-10-07T04:36	10	0	0.1	0	0	333	0.3	332	334	7.1	96.4
2025-10-07T04:37	10	0	0.0	0	0	333	0.2	332	333	7.0	96.6
2025-10-07T04:38	10	0	0.1	0	0	333	0.2	332	333	6.9	96.8
2025-10-07T04:39	10	0	0.1	0	0	333	0.2	332	333	7.0	96.7
2025-10-07T04:40	10	0	0.0	0	0	333	0.2	332	333	7.0	96.8
2025-10-07T04:41	10	0	0.1	0	0	333	0.2	332	333	6.9	96.7
2025-10-07T04:42	10	0	0.1	0	0	333	0.2	332	333	6.9	96.6
2025-10-07T04:43	10	0	0.1	0	0	332	0.2	332	333	6.9	96.6
2025-10-07T04:44	10	0	0.1	0	0	332	0.2	332	333	6.9	96.9
2025-10-07T04:45	10	0	0.1	0	0	332	0.2	331	332	6.8	97.9
2025-10-07T04:46	10	0	0.0	0	0	332	0.2	331	332	6.9	97.4
2025-10-07T04:47	10	0	0.0	0	0	332	0.2	331	332	6.8	97.1
2025-10-07T04:48	10	0	0.1	0	0	332	0.2	331	332	6.9	96.7
2025-10-07T04:49	10	0	0.1	0	0	331	0.2	331	332	7.0	96.5
2025-10-07T04:50	10	0	0.0	0	0	331	0.3	331	332	6.9	96.2
2025-10-07T04:51	10	0	0.1	0	0	331	0.3	331	332	6.7	96.2
2025-10-07T04:52	10	0	0.1	0	0	332	0.2	331	332	6.8	96.4
2025-10-07T04:53	10	0	0.1	0	0	331	0.2	331	332	6.8	96.6
2025-10-07T04:54	10	0	0.1	0	0	331	0.2	331	332	6.8	96.5
2025-10-07T04:55	10	0	0.1	0	0	331	0.2	330	331	6.7	96.7
2025-10-07T04:56	10	0	0.1	0	0	331	0.3	330	331	6.7	96.7
2025-10-07T04:57	10	0	0.1	0	0	331	0.3	331	332	6.6	96.6
2025-10-07T04:58	10	0	0.1	0	0	332	0.2	331	332	6.7	96.9
2025-10-07T04:59	10	0	0.1	0	0	332	0.2	331	332	6.7	97.1
2025-10-07T05:00	10	0	0.1	0	0	332	0.2	331	332	6.8	97.4
2025-10-07T05:01	10	0	0.1	0	0	332	0.3	331	332	6.7	97.7
2025-10-07T05:02	10	0	0.1	0	0	331	0.2	331	332	6.7	97.7
2025-10-07T05:03	10	0	0.1	0	0	331	0.2	331	332	6.6	97.9
2025-10-07T05:04	10	0	0.1	0	0	331	0.3	330	331	6.5	97.8
2025-10-07T05:05	10	0	0.1	0	0	331	0.2	330	331	6.6	97.8
2025-10-07T05:06	10	0	0.1	0	0	331	0.2	330	331	6.6	97.8
2025-10-07T05:07	10	0	0.1	0	0	330	0.3	330	331	6.5	98.0
2025-10-07T05:08	10	0	0.1	0	0	330	0.2	330	330	6.5	98.1
2025-10-07T05:09	10	0	0.1	0	0	330	0.2	329	330	6.4	98.2
2025-10-07T05:10	10	0	0.1	0	0	329	0.2	329	330	6.4	98.3
2025-10-07T05:11	10	0	0.1	0	0	330	0.3	329	330	6.4	98.3
2025-10-07T05:12	10	0	0.1	0	0	330	0.3	329	330	6.4	98.5
2025-10-07T05:13	10	0	0.1	0	0	330	0.3	329	330	6.3	98.6
2025-10-07T05:14	10	0	0.1	0	0	329	0.2	329	330	6.3	98.5
2025-10-07T05:15	10	0	0.0	0	0	329	0.2	329	330	6.3	98.5
2025-10-07T05:16	10	0	0.1	0	0	330	0.3	329	330	6.4	98.2
2025-10-07T05:17	10	0	0.0	0	0	329	0.2	329	330	6.5	98.0
2025-10-07T05:18	10	0	0.1	0	0	330	0.2	329	330	6.6	98.1
2025-10-07T05:19	10	0	0.0	0	0	329	0.3	329	330	6.5	98.1
2025-10-07T05:20	10	0	0.1	0	0	330	0.2	329	330	6.3	98.1
2025-10-07T05:21	10	0	0.1	0	0	330	0.3	329	331	6.3	97.8
2025-10-07T05:22	10	0	0.0	0	0	330	0.4	329	331	6.4	97.8
2025-10-07T05:23	10	0	0.0	0	0	331	0.3	330	332	6.3	97.6
2025-10-07T05:24	10	0	0.1	0	0	331	0.3	331	332	6.2	97.8
2025-10-07T05:25	10	0	0.1	0	0	331	0.3	331	332	6.2	97.9
2025-10-07T05:26	10	0	0.1	0	0	332	0.2	331	332	6.2	97.9
2025-10-07T05:27	10	0	0.1	0	0	332	0.3	331	333	6.2	97.8
2025-10-07T05:28	10	0	0.1	0	0	332	0.2	332	333	6.2	97.7
2025-10-07T05:29	10	0	0.0	0	0	332	0.2	331	333	6.2	97.8
2025-10-07T05:30	10	0	0.1	0	1	332	0.2	331	332	6.1	97.8
2025-10-07T05:31	10	0	0.1	0	1	331	0.2	331	332	6.2	97.9
2025-10-07T05:32	10	0	0.1	0	1	331	0.2	331	331	6.1	97.9
2025-10-07T05:33	10	0	0.1	0	1	331	0.3	330	332	6.1	97.5
2025-10-07T05:34	10	0	0.1	0	1	331	0.2	331	332	6.3	97.4
2025-10-07T05:35	10	1	0.1	0	1	332	0.2	331	332	6.4	97.3
2025-10-07T05:36	10	1	0.0	1	1	332	0.2	331	332	6.4	97.4
2025-10-07T05:37	10	1	0.0	0	1	332	0.3	331	332	6.4	97.3
2025-10-07T05:38	10	1	0.1	0	1	332	0.2	331	332	6.4	97.3
2025-10-07T05:39	10	1	0.0	1	1	332	0.2	331	332	6.5	97.1
2025-10-07T05:40	10	1	0.1	1	1	332	0.3	331	333	6.4	97.3
2025-10-07T05:41	10	1	0.1	1	1	333	0.4	332	334	6.4	97.0
2025-10-07T05:42	10	1	0.1	1	1	333	0.2	333	334	6.4	97.2
2025-10-07T05:43	10	1	0.1	1	1	333	0.3	333	334	6.4	97.5
2025-10-07T05:44	10	1	0.1	1	1	333	0.2	333	334	6.4	97.4
2025-10-07T05:45	10	1	0.1	1	1	333	0.3	333	334	6.3	97.5
2025-10-07T05:46	10	1	0.1	1	2	333	0.2	333	334	6.3	97.1
2025-10-07T05:47	10	1	0.1	1	2	333	0.3	332	334	6.2	97.2
2025-10-07T05:48	10	2	0.1	1	2	334	0.2	333	334	6.4	97.0
2025-10-07T05:49	10	2	0.1	2	2	333	0.2	333	334	6.4	97.1
2025-10-07T05:50	10	2	0.1	2	2	333	0.2	333	334	6.4	96.9
2025-10-07T05:51	10	2	0.2	2	2	333	0.2	333	334	6.4	96.8
2025-10-07T05:52	10	2	0.1	2	2	333	0.3	332	334	6.4	97.0
2025-10-07T05:53	10	2	0.1	2	2	333	0.2	332	334	6.5	96.9
2025-10-07T05:54	10	2	0.1	2	2	334	0.3	333	334	6.4	97.1
2025-10-07T05:55	10	2	0.1	2	2	334	0.3	333	334	6.5	96.9
2025-10-07T05:56	10	2	0.1	2	2	334	0.3	333	334	6.5	97.2
2025-10-07T05:57	10	2	0.1	2	3	334	0.2	333	334	6.5	97.2
2025-10-07T05:58	10	2	0.1	2	3	334	0.3	333	334	6.5	97.2
2025-10-07T05:59	10	2	0.1	2	3	334	0.2	333	334	6.5	97.3
2025-10-07T06:00	10	3	0.1	2	3	334	0.2	334	335	6.5	97.2
2025-10-07T06:01	10	3	0.1	2	3	334	0.2	333	335	6.5	97.5
2025-10-07T06:02	10	3	0.1	2	3	334	0.3	333	335	6.4	97.4
2025-10-07T06:03	10	3	0.1	2	3	334	0.3	333	335	6.5	97.4
2025-10-07T06:04	10	3	0.1	3	3	334	0.2	333	335	6.4	97.4
2025-10-07T06:05	10	3	0.1	3	3	334	0.3	333	335	6.6	96.9
2025-10-07T06:06	10	3	0.2	3	3	335	0.2	334	335	6.7	97.1
2025-10-07T06:07	10	3	0.1	3	3	335	0.3	334	336	6.6	96.9
2025-10-07T06:08	10	3	0.1	3	3	335	0.2	335	336	6.7	96.5
2025-10-07T06:09	10	3	0.1	3	4	335	0.3	335	336	6.7	96.5
2025-10-07T06:10	10	4	0.3	3	4	335	0.2	335	336	6.8	96.1
2025-10-07T06:11	10	5	0.4	4	6	336	0.3	335	336	6.8	96.0
2025-10-07T06:12	10	7	1.1	6	9	336	0.3	335	336	6.8	95.9
2025-10-07T06:13	10	11	1.1	9	13	336	0.3	335	336	6.8	95.8
2025-10-07T06:14	10	15	0.8	13	16	336	0.3	335	337	6.6	96.0
2025-10-07T06:15	10	16	0.3	16	17	337	0.3	336	337	6.5	96.1
2025-10-07T06:16	10	17	0.2	17	18	337	0.3	336	337	6.5	96.3
2025-10-07T06:17	10	18	0.2	17	18	337	0.3	337	338	6.4	96.3
2025-10-07T06:18	10	19	0.2	18	19	338	0.3	337	338	6.4	96.2
2025-10-07T06:19	10	19	0.2	19	20	338	0.3	337	339	6.7	96.0
2025-10-07T06:20	10	20	0.2	19	20	339	0.4	338	339	6.8	96.3
2025-10-07T06:21	10	21	0.3	20	21	339	0.3	338	339	6.7	96.2
2025-10-07T06:22	10	21	0.3	21	22	339	0.5	338	340	6.6	95.7
2025-10-07T06:23	10	22	0.2	22	23	340	0.3	339	341	6.9	95.8
2025-10-07T06:24	10	23	0.3	22	23	340	0.3	339	341	7.0	95.8
2025-10-07T06:25	10	24	0.2	23	24	340	0.3	340	341	7.0	95.6
2025-10-07T06:26	10	24	0.2	24	25	341	0.2	340	341	6.8	94.9
2025-10-07T06:27	10	25	0.2	25	26	341	0.2	341	342	6.8	94.9
2025-10-07T06:28	10	26	0.3	25	26	342	0.2	341	342	6.7	95.2
2025-10-07T06:29	10	26	0.3	26	27	342	0.3	341	342	6.7	95.1
2025-10-07T06:30	10	27	0.2	27	27	342	0.3	341	342	6.7	95.4
2025-10-07T06:31	10	28	0.2	27	28	342	0.2	342	343	6.7	95.3
2025-10-07T06:32	10	28	0.2	28	29	343	0.3	342	344	6.7	95.1
2025-10-07T06:33	10	29	0.3	29	30	343	0.2	343	344	6.8	95.3
2025-10-07T06:34	10	30	0.2	29	30	343	0.2	342	344	6.8	96.0
2025-10-07T06:35	10	31	0.2	30	31	343	0.2	343	344	6.7	96.1
2025-10-07T06:36	10	31	0.2	31	32	344	0.2	343	344	6.7	95.9
2025-10-07T06:37	10	32	0.2	32	32	344	0.2	343	344	6.7	96.0
2025-10-07T06:38	10	33	0.2	32	33	344	0.2	344	345	6.6	96.1
2025-10-07T06:39	10	33	0.2	33	34	344	0.3	344	345	6.6	96.2
2025-10-07T06:40	10	34	0.2	34	35	345	0.2	344	345	6.7	96.4
2025-10-07T06:41	10	35	0.2	34	35	345	0.2	345	346	6.7	96.3
2025-10-07T06:42	10	36	0.2	35	36	345	0.2	345	346	6.8	96.3
2025-10-07T06:43	10	36	0.2	36	37	345	0.2	345	346	6.8	96.0
2025-10-07T06:44	10	37	0.2	37	38	346	0.2	345	346	6.9	95.7
2025-10-07T06:45	10	38	0.2	37	38	346	0.2	346	346	6.9	95.3
2025-10-07T06:46	10	38	0.2	38	39	347	0.3	346	347	6.9	94.7
2025-10-07T06:47	10	39	0.2	39	40	347	0.3	346	348	7.0	94.4
2025-10-07T06:48	10	40	0.2	39	40	347	0.2	347	348	7.1	94.4
2025-10-07T06:49	10	41	0.2	40	41	348	0.2	347	348	7.1	94.5
2025-10-07T06:50	10	41	0.2	41	42	348	0.2	348	349	7.1	94.6
2025-10-07T06:51	10	42	0.2	42	43	349	0.3	348	349	7.2	94.2
2025-10-07T06:52	10	43	0.2	42	43	349	0.2	349	350	7.2	93.9
2025-10-07T06:53	10	43	0.2	43	44	349	0.2	349	350	7.2	93.8
2025-10-07T06:54	10	44	0.2	44	45	349	0.2	349	350	7.2	93.5
2025-10-07T06:55	10	45	0.2	44	45	350	0.2	349	350	7.3	92.5
2025-10-07T06:56	10	46	0.2	45	46	350	0.2	350	351	7.4	92.7
2025-10-07T06:57	10	46	0.2	46	47	351	0.2	351	351	7.4	92.9
2025-10-07T06:58	10	47	0.2	47	47	352	0.3	351	352	7.5	93.1
2025-10-07T06:59	10	48	0.2	47	48	352	0.2	351	352	7.6	93.1
2025-10-07T07:00	10	48	0.2	48	49	353	0.2	352	353	7.6	93.0
2025-10-07T07:01	10	49	0.2	49	49	353	0.3	352	353	7.7	92.1
2025-10-07T07:02	10	50	0.2	49	50	353	0.2	352	353	7.6	91.6
2025-10-07T07:03	10	50	0.2	50	51	353	0.3	352	353	7.6	91.7
2025-10-07T07:04	10	51	0.2	51	51	353	0.3	352	353	7.6	92.1
2025-10-07T07:05	10	52	0.2	51	52	353	0.3	352	354	7.6	93.1
2025-10-07T07:06	10	52	0.2	52	53	354	0.2	353	354	7.5	93.8
2025-10-07T07:07	10	53	0.2	53	54	353	0.2	353	354	7.4	94.1
2025-10-07T07:08	10	54	0.2	53	54	354	0.2	353	354	7.4	94.5
2025-10-07T07:09	10	54	0.2	54	55	354	0.3	354	355	7.4	94.5
2025-10-07T07:10	10	55	0.2	55	55	354	0.3	354	355	7.4	94.4
2025-10-07T07:11	10	56	0.2	55	56	354	0.2	354	355	7.4	93.7
2025-10-07T07:12	10	56	0.2	56	57	355	0.2	355	356	7.5	93.2
2025-10-07T07:13	10	57	0.2	57	57	356	0.2	355	356	7.6	93.0
2025-10-07T07:14	10	58	0.2	57	58	356	0.2	356	356	7.6	92.8
2025-10-07T07:15	10	58	0.2	58	59	356	0.2	356	357	7.6	92.7
2025-10-07T07:16	10	59	0.2	59	60	357	0.2	357	357	7.7	92.6
2025-10-07T07:17	10	60	0.2	59	60	357	0.2	357	358	7.7	92.6
2025-10-07T07:18	10	60	0.2	60	61	357	0.3	357	358	7.7	92.2
2025-10-07T07:19	10	61	0.2	61	61	358	0.2	357	358	7.8	92.1
2025-10-07T07:20	10	62	0.2	61	62	358	0.2	357	359	7.8	92.3
2025-10-07T07:21	10	62	0.2	62	63	358	0.2	358	359	7.9	92.0
2025-10-07T07:22	10	63	0.2	63	63	358	0.2	358	359	7.9	85.8
2025-10-07T07:23	10	63	0.2	63	64	359	0.3	358	359	7.9	87.3
2025-10-07T07:24	10	64	0.2	64	65	359	0.2	358	359	7.9	91.9
2025-10-07T07:25	10	65	0.2	64	65	360	0.3	359	360	7.9	91.9
2025-10-07T07:26	10	65	0.3	65	66	360	0.2	360	361	7.9	91.9
2025-10-07T07:27	10	66	0.2	66	66	360	0.2	360	361	7.9	91.9
2025-10-07T07:28	10	67	0.2	66	67	361	0.2	360	361	7.9	91.9
2025-10-07T07:29	10	67	0.2	67	68	361	0.2	360	361	8.2	89.8
2025-10-07T07:30	10	68	0.2	68	68	361	0.2	360	361	8.5	88.1
2025-10-07T07:31	10	69	0.2	68	69	361	0.3	361	362	8.5	89.0
2025-10-07T07:32	10	69	0.1	69	69	361	0.2	361	362	8.6	89.4
2025-10-07T07:33	10	68	0.7	67	69	362	0.3	361	362	8.6	88.7
2025-10-07T07:34	10	67	1.5	65	69	362	0.2	361	363	8.7	89.1
2025-10-07T07:35	10	71	0.8	69	71	363	0.4	362	363	8.8	88.5
2025-10-07T07:36	10	72	0.2	71	72	363	0.4	363	364	8.8	88.8
2025-10-07T07:37	10	72	0.2	72	73	364	0.2	363	364	8.8	89.7
2025-10-07T07:38	10	73	0.2	72	73	364	0.3	364	365	8.8	89.3
2025-10-07T07:39	10	73	0.2	73	74	365	0.2	364	365	8.8	89.3
2025-10-07T07:40	10	74	0.2	74	74	365	0.3	365	366	8.9	88.7
2025-10-07T07:41	10	75	0.2	74	75	366	0.2	365	366	8.9	88.5
2025-10-07T07:42	10	75	0.2	75	75	366	0.2	365	366	8.9	88.3
2025-10-07T07:43	10	76	0.2	75	76	366	0.2	366	367	9.0	87.8
2025-10-07T07:44	10	76	0.2	76	77	367	0.2	366	367	9.1	87.9
2025-10-07T07:45	10	77	0.2	77	77	367	0.2	366	367	9.2	86.5
2025-10-07T07:46	10	78	0.2	77	78	367	0.2	367	368	9.3	87.0
2025-10-07T07:47	10	78	0.2	78	79	368	0.2	367	368	9.2	87.8
2025-10-07T07:48	10	79	0.2	79	79	368	0.3	368	369	9.1	87.3
2025-10-07T07:49	10	79	0.2	79	80	369	0.3	368	369	9.4	87.7
2025-10-07T07:50	10	80	0.2	80	80	369	0.2	368	369	9.5	86.4
2025-10-07T07:51	10	81	0.2	80	81	369	0.2	369	370	9.7	85.6
2025-10-07T07:52	10	81	0.2	81	82	370	0.2	369	370	9.7	84.4
2025-10-07T07:53	10	82	0.2	81	82	370	0.3	370	371	9.9	83.7
2025-10-07T07:54	10	82	0.2	82	83	371	0.3	371	372	10.0	83.4
2025-10-07T07:55	10	82	0.3	82	83	371	0.3	370	371	9.8	85.0
2025-10-07T07:56	10	83	0.5	82	84	371	0.3	371	372	9.8	84.7
2025-10-07T07:57	10	84	0.2	83	84	372	0.3	371	372	9.8	83.9
2025-10-07T07:58	10	84	0.2	84	85	372	0.2	371	372	9.8	83.4
2025-10-07T07:59	10	85	0.2	84	85	372	0.3	371	373	10.2	82.7
2025-10-07T08:00	10	85	0.2	85	86	372	0.2	372	373	10.2	82.9
2025-10-07T08:01	10	86	0.1	85	86	373	0.3	372	373	10.4	81.7
2025-10-07T08:02	10	86	0.1	86	86	373	0.2	373	374	10.8	80.4
2025-10-07T08:03	10	87	0.3	86	87	373	0.3	373	374	10.7	79.4
2025-10-07T08:04	10	87	0.1	87	88	374	0.2	373	374	10.9	79.0
2025-10-07T08:05	10	88	0.2	87	88	375	0.3	374	376	11.1	79.6
2025-10-07T08:06	10	88	0.2	88	88	375	0.2	375	376	10.9	81.7
2025-10-07T08:07	10	89	0.2	88	89	375	0.2	374	375	10.8	80.8
2025-10-07T08:08	10	89	0.2	89	89	375	0.3	374	376	10.5	81.8
2025-10-07T08:09	10	90	0.2	89	90	375	0.2	375	376	10.5	81.9
2025-10-07T08:10	10	90	0.1	90	90	376	0.2	375	377	10.5	82.0
2025-10-07T08:11	10	91	0.1	90	91	376	0.2	376	377	10.5	81.8
2025-10-07T08:12	10	91	0.2	91	91	377	0.4	376	378	10.5	83.3
2025-10-07T08:13	10	92	0.1	91	92	377	0.2	377	378	10.3	84.4
2025-10-07T08:14	10	92	0.1	92	92	377	0.5	376	378	10.1	85.0
2025-10-07T08:15	10	92	0.1	92	93	377	0.4	376	377	10.0	85.5
2025-10-07T08:16	10	93	0.1	92	93	376	0.6	375	377	9.9	85.7
2025-10-07T08:17	10	93	0.2	93	93	377	0.4	376	377	9.9	85.8
2025-10-07T08:18	10	94	0.1	94	95	377	0.3	377	378	9.9	85.9
2025-10-07T08:19	10	94	0.5	93	95	378	0.3	377	378	10.0	86.0
2025-10-07T08:20	10	94	0.6	93	95	378	0.2	377	379	10.0	85.7
2025-10-07T08:21	10	96	0.4	95	96	379	0.4	378	380	10.1	85.7
2025-10-07T08:22	10	96	0.2	96	97	378	0.6	377	380	10.1	84.9
2025-10-07T08:23	10	97	0.2	96	97	378	0.3	377	379	10.1	84.6
2025-10-07T08:24	10	97	0.2	97	98	379	0.2	378	379	10.1	84.6
2025-10-07T08:25	10	98	0.2	97	98	380	0.3	379	380	10.3	84.6
2025-10-07T08:26	10	98	0.2	98	98	380	0.3	379	381	10.3	84.1
2025-10-07T08:27	10	99	0.2	98	99	381	0.3	380	382	10.4	83.9
2025-10-07T08:28	10	99	0.2	99	99	380	0.4	379	381	10.3	82.9
2025-10-07T08:29	10	100	0.1	99	100	380	0.3	379	381	10.3	83.3
2025-10-07T08:30	10	100	0.1	100	100	381	0.3	380	382	10.5	83.5
2025-10-07T08:31	10	100	0.1	100	101	381	0.4	380	382	10.5	83.1
2025-10-07T08:32	10	101	0.1	100	101	382	0.2	381	382	10.5	82.5
2025-10-07T08:33	10	101	0.1	101	102	382	0.2	381	382	10.5	82.9
2025-10-07T08:34	10	102	0.1	101	102	383	0.3	382	383	10.8	83.1
2025-10-07T08:35	10	102	0.1	102	102	382	0.3	381	383	10.7	82.3
2025-10-07T08:36	10	103	0.1	102	103	382	0.5	381	383	10.7	82.4
2025-10-07T08:37	10	103	0.2	103	103	381	0.3	381	382	10.6	81.9
2025-10-07T08:38	10	103	0.1	103	104	381	0.2	381	382	10.6	81.6
2025-10-07T08:39	10	104	0.1	104	104	382	0.4	381	382	10.7	81.1
2025-10-07T08:40	10	104	0.2	104	105	382	0.2	381	382	10.6	80.8
2025-10-07T08:41	10	105	0.1	105	105	382	0.3	381	382	10.6	80.6
2025-10-07T08:42	10	105	0.1	105	105	382	0.3	382	383	10.7	80.5
2025-10-07T08:43	10	106	0.2	105	106	382	0.2	382	383	10.8	80.3
2025-10-07T08:44	10	106	0.1	106	107	383	0.4	382	384	10.8	80.1
2025-10-07T08:45	10	107	0.2	107	107	384	0.4	383	384	10.8	80.8
2025-10-07T08:46	10	107	0.9	104	108	384	0.3	383	384	10.9	80.2
2025-10-07T08:47	10	102	0.9	101	104	384	0.3	383	384	10.9	79.7
2025-10-07T08:48	10	104	0.6	103	105	384	0.2	384	385	11.0	80.3
2025-10-07T08:49	10	107	0.9	105	108	385	0.4	384	386	11.0	79.6
2025-10-07T08:50	10	108	0.3	108	109	386	0.5	385	387	11.1	79.7
2025-10-07T08:51	10	106	3.1	101	111	387	0.5	386	388	11.2	80.4
2025-10-07T08:52	10	104	3.3	101	111	386	0.6	384	387	11.2	80.3
2025-10-07T08:53	10	111	0.4	110	112	386	0.2	386	386	11.3	80.1
2025-10-07T08:54	10	112	0.1	112	112	387	0.6	386	388	11.3	80.0
2025-10-07T08:55	10	112	0.2	112	113	388	0.3	388	389	11.4	80.2
2025-10-07T08:56	10	113	0.2	113	114	388	0.5	387	389	11.5	80.1
2025-10-07T08:57	10	114	0.3	113	114	387	0.5	386	388	11.3	79.1
2025-10-07T08:58	10	110	2.0	105	114	387	0.3	386	387	11.1	79.2
2025-10-07T08:59	10	106	3.6	100	112	388	0.4	387	389	11.3	80.0
2025-10-07T09:00	10	107	2.3	103	110	388	0.3	388	389	11.5	79.6
2025-10-07T09:01	10	105	4.2	98	109	388	0.4	387	389	11.6	79.2
2025-10-07T09:02	10	110	4.1	103	116	389	1.0	387	391	11.6	79.6
2025-10-07T09:03	10	118	0.4	116	118	391	0.5	391	392	11.9	80.5
2025-10-07T09:04	10	119	0.4	118	120	392	0.2	392	393	11.9	80.2
2025-10-07T09:05	10	119	0.5	118	120	392	0.6	391	393	11.9	80.2
2025-10-07T09:06	10	101	7.9	95	120	388	1.6	386	392	11.4	78.7
2025-10-07T09:07	10	88	5.2	71	95	387	0.5	386	388	11.3	79.7
2025-10-07T09:08	10	91	9.2	70	102	387	0.8	385	388	11.5	80.5
2025-10-07T09:09	10	88	4.1	80	94	387	0.9	385	388	11.6	80.2
2025-10-07T09:10	10	79	1.6	76	85	384	0.5	384	386	11.3	79.3
2025-10-07T09:11	10	86	3.2	81	92	386	0.7	384	387	11.4	79.7
2025-10-07T09:12	10	105	6.2	88	111	386	0.9	385	388	11.3	79.5
2025-10-07T09:13	10	111	0.7	110	112	387	0.3	387	388	11.4	79.4
2025-10-07T09:14	10	113	1.1	112	115	387	0.5	386	388	11.3	79.2
2025-10-07T09:15	10	114	0.8	113	115	388	0.6	387	389	11.4	79.2
2025-10-07T09:16	10	113	1.5	110	115	389	0.5	388	390	11.5	79.0
2025-10-07T09:17	10	113	2.0	110	116	390	0.3	389	391	11.6	79.3
2025-10-07T09:18	10	116	1.5	113	119	389	0.4	388	390	11.5	79.0
2025-10-07T09:19	10	113	1.2	111	115	389	0.3	389	390	11.4	78.9
2025-10-07T09:20	10	110	3.3	105	115	390	0.2	389	390	11.6	78.8
2025-10-07T09:21	10	117	1.3	115	119	391	0.6	390	392	11.8	78.4
2025-10-07T09:22	10	121	3.3	114	126	392	0.8	391	393	11.9	77.8
2025-10-07T09:23	10	116	6.8	104	125	392	0.3	391	392	11.8	77.3
2025-10-07T09:24	10	124	2.5	115	127	393	0.5	391	394	11.8	77.6
2025-10-07T09:25	10	128	0.6	127	129	394	0.4	393	395	12.0	77.3
2025-10-07T09:26	10	123	2.5	118	127	393	0.4	392	394	12.1	76.4
2025-10-07T09:27	10	122	1.2	120	124	393	0.4	392	394	11.9	76.0
2025-10-07T09:28	10	125	0.9	123	126	395	0.7	394	396	12.0	76.8
2025-10-07T09:29	10	119	5.5	98	124	395	0.4	394	396	12.1	76.4
2025-10-07T09:30	10	106	12.2	81	119	394	0.5	393	395	12.2	76.1
2025-10-07T09:31	10	93	15.9	62	112	393	1.4	389	394	12.3	75.9
2025-10-07T09:32	10	94	10.2	64	106	390	0.4	388	390	12.1	75.2
2025-10-07T09:33	10	73	20.1	43	101	388	1.0	386	390	12.2	75.5
2025-10-07T09:34	10	95	26.2	51	122	388	2.5	385	393	12.1	74.4
2025-10-07T09:35	10	121	0.8	120	122	394	1.1	392	396	12.2	74.7
2025-10-07T09:36	10	115	3.6	111	122	394	1.1	392	396	12.2	75.0
2025-10-07T09:37	10	119	1.3	116	120	393	0.4	393	394	12.1	75.3
2025-10-07T09:38	10	120	0.6	119	121	394	0.5	393	395	12.1	74.7
2025-10-07T09:39	10	119	1.0	117	120	396	0.5	395	397	12.4	75.3
2025-10-07T09:40	10	117	1.1	115	118	394	1.2	392	397	12.6	73.7
2025-10-07T09:41	10	116	1.1	115	118	392	0.4	391	393	12.3	72.8
2025-10-07T09:42	10	119	0.6	117	120	394	0.6	393	395	12.6	73.8
2025-10-07T09:43	10	119	1.3	117	121	396	0.8	394	397	12.6	72.9
2025-10-07T09:44	10	118	0.7	116	119	397	0.3	396	398	12.8	73.4
2025-10-07T09:45	10	121	2.0	117	124	396	0.3	396	397	12.8	74.2
2025-10-07T09:46	10	123	0.3	123	124	396	0.9	394	397	12.7	73.8
2025-10-07T09:47	10	125	0.8	123	126	395	0.3	394	396	12.4	73.8
2025-10-07T09:48	10	127	0.3	126	127	396	0.4	395	397	12.6	74.3
2025-10-07T09:49	10	127	0.5	126	128	397	0.4	396	397	12.8	74.2
2025-10-07T09:50	10	129	0.3	128	129	398	0.4	397	399	12.8	73.4
2025-10-07T09:51	10	129	0.1	129	130	399	0.3	398	400	12.8	73.1
2025-10-07T09:52	10	129	0.1	129	130	399	0.4	399	400	12.9	72.6
2025-10-07T09:53	10	130	0.1	129	130	398	1.0	396	399	13.0	71.3
2025-10-07T09:54	10	130	0.1	130	130	396	0.2	395	396	12.8	71.2
2025-10-07T09:55	10	130	0.1	130	130	397	0.3	396	397	12.8	71.5
2025-10-07T09:56	10	130	0.1	130	130	398	0.6	396	399	12.9	72.2
2025-10-07T09:57	10	131	0.2	130	131	396	0.4	395	397	12.8	71.3
2025-10-07T09:58	10	126	3.9	120	131	396	0.5	395	397	12.8	71.6
2025-10-07T09:59	10	122	1.9	119	126	398	0.9	397	400	13.2	72.9
2025-10-07T10:00	10	124	1.1	123	126	398	0.8	397	399	13.1	70.8
2025-10-07T10:01	10	125	1.0	123	126	398	0.4	397	399	13.1	71.1
2025-10-07T10:02	10	126	0.5	126	128	398	0.6	397	399	12.9	70.9
2025-10-07T10:03	10	129	0.7	128	130	399	0.4	398	400	13.0	71.2
2025-10-07T10:04	10	131	0.2	130	131	399	0.4	399	400	12.8	70.9
2025-10-07T10:05	10	131	0.1	131	131	400	0.4	399	401	12.9	71.8
2025-10-07T10:06	10	131	0.2	131	131	399	0.7	398	400	13.1	71.7
2025-10-07T10:07	10	131	0.3	130	132	399	0.5	398	399	13.1	71.0
2025-10-07T10:08	10	131	0.7	130	132	399	0.3	398	399	13.1	70.5
2025-10-07T10:09	10	132	0.3	131	132	400	0.4	399	401	13.3	71.2
2025-10-07T10:10	10	131	0.1	131	132	399	0.4	398	400	13.3	71.1
2025-10-07T10:11	10	132	0.1	132	132	399	0.6	398	400	13.4	71.2
2025-10-07T10:12	10	132	0.3	131	132	400	0.4	399	401	13.2	71.1
2025-10-07T10:13	10	132	0.4	131	133	400	1.0	399	402	13.2	71.5
2025-10-07T10:14	10	133	0.1	132	133	401	0.6	400	403	13.3	70.3
2025-10-07T10:15	10	133	0.1	133	133	403	0.4	402	403	13.4	70.9
2025-10-07T10:16	10	133	0.6	132	133	402	0.4	401	402	13.4	70.7
2025-10-07T10:17	10	130	2.9	126	134	401	0.4	400	402	13.4	71.1
2025-10-07T10:18	10	127	3.3	121	132	401	0.2	400	401	13.4	70.4
2025-10-07T10:19	10	125	3.0	119	129	400	0.6	399	401	13.4	70.0
2025-10-07T10:20	10	122	8.8	105	131	398	0.8	397	400	13.4	69.5
2025-10-07T10:21	10	132	4.0	116	134	399	0.9	398	401	13.5	69.6
2025-10-07T10:22	10	134	0.3	133	134	401	1.2	400	403	13.4	69.2
2025-10-07T10:23	10	134	0.2	134	135	405	1.1	403	407	13.6	70.4
2025-10-07T10:24	10	134	0.3	134	135	406	0.3	405	407	13.9	70.4
2025-10-07T10:25	10	133	1.6	129	135	407	0.4	406	408	14.0	69.7
2025-10-07T10:26	10	135	0.4	134	135	406	0.5	404	407	13.9	68.6
2025-10-07T10:27	10	135	0.1	135	135	406	0.8	404	407	14.1	68.9
2025-10-07T10:28	10	135	0.2	135	136	406	0.3	405	406	13.9	67.3
2025-10-07T10:29	10	135	0.3	134	135	405	0.8	403	406	13.9	68.8
2025-10-07T10:30	10	135	0.2	135	136	405	0.8	403	406	14.1	69.4
2025-10-07T10:31	10	132	1.4	131	135	406	0.4	405	407	13.9	69.4
2025-10-07T10:32	10	136	1.4	131	136	406	0.4	406	407	14.0	69.8
2025-10-07T10:33	10	136	0.2	136	137	407	0.4	406	408	14.1	69.2
2025-10-07T10:34	10	136	1.4	132	137	406	1.0	404	408	14.1	67.8
2025-10-07T10:35	10	136	0.1	136	137	407	1.1	405	408	14.0	66.5
2025-10-07T10:36	10	134	2.5	130	137	405	1.4	403	408	14.0	66.2
2025-10-07T10:37	10	135	1.7	131	136	403	0.5	402	404	13.7	67.1
2025-10-07T10:38	10	136	0.1	136	136	405	0.9	404	407	13.9	67.6
2025-10-07T10:39	10	136	0.1	136	136	406	0.5	405	407	13.8	67.3
2025-10-07T10:40	10	136	0.1	136	136	406	0.2	405	406	13.9	67.8
2025-10-07T10:41	10	136	0.1	136	136	405	0.3	405	406	14.2	67.6
2025-10-07T10:42	10	136	0.2	136	137	405	0.3	405	406	14.3	66.5
2025-10-07T10:43	10	137	0.1	137	137	405	0.4	404	406	14.3	65.7
2025-10-07T10:44	10	137	0.2	136	137	404	0.6	403	405	14.1	65.6
2025-10-07T10:45	10	137	0.2	136	137	406	0.8	405	407	14.0	66.8
2025-10-07T10:46	10	137	0.1	137	137	408	0.9	407	410	14.3	67.6
2025-10-07T10:47	10	137	0.2	137	138	409	0.4	408	409	14.6	67.6
2025-10-07T10:48	10	138	0.1	137	138	408	0.3	408	409	14.4	66.5
2025-10-07T10:49	10	137	0.1	137	138	409	0.8	407	410	14.5	66.9
2025-10-07T10:50	10	137	0.5	136	138	406	0.7	405	407	14.3	64.8
2025-10-07T10:51	10	135	0.2	135	136	406	0.8	405	408	14.3	65.4
2025-10-07T10:52	10	132	1.7	129	135	406	0.7	405	408	14.3	65.3
2025-10-07T10:53	10	135	1.3	132	137	407	0.3	406	408	14.4	65.6
2025-10-07T10:54	10	137	0.7	136	138	406	0.9	404	408	14.3	64.8
2025-10-07T10:55	10	138	0.2	137	138	404	0.4	404	405	14.2	64.5
2025-10-07T10:56	10	138	0.2	138	139	405	0.5	403	406	14.2	64.8
2025-10-07T10:57	10	138	0.2	138	139	408	0.9	406	409	14.3	65.5
2025-10-07T10:58	10	139	0.1	139	139	408	0.6	407	409	14.4	65.7
2025-10-07T10:59	10	139	0.1	139	140	409	1.0	408	411	14.6	67.2
2025-10-07T11:00	10	139	0.1	139	140	409	0.4	408	410	14.7	64.3
2025-10-07T11:01	10	140	0.3	140	140	407	0.4	406	408	14.5	63.4
2025-10-07T11:02	10	138	3.4	130	140	407	0.3	407	408	14.4	63.5
2025-10-07T11:03	10	138	3.5	130	141	406	0.4	405	407	14.2	64.3
2025-10-07T11:04	10	135	3.2	129	139	407	1.0	406	409	14.3	64.7
2025-10-07T11:05	10	139	0.6	138	140	408	0.4	407	409	14.5	64.5
2025-10-07T11:06	10	131	4.4	122	139	408	0.5	407	409	14.5	65.1
2025-10-07T11:07	10	136	3.8	130	141	406	1.0	405	409	14.3	64.1
2025-10-07T11:08	10	141	1.2	139	142	408	1.0	406	410	14.3	64.8
2025-10-07T11:09	10	131	5.8	122	141	411	0.5	409	412	14.7	65.8
2025-10-07T11:10	10	124	2.8	121	130	409	1.4	406	411	14.8	64.7
2025-10-07T11:11	10	131	2.6	125	134	406	0.4	405	407	14.6	65.2
2025-10-07T11:12	10	131	2.1	126	134	407	0.6	405	407	14.6	65.1
2025-10-07T11:13	10	130	5.7	122	139	408	0.7	407	409	14.6	64.3
2025-10-07T11:14	10	114	18.1	81	138	406	1.7	404	409	14.7	64.3
2025-10-07T11:15	10	134	3.7	125	138	408	0.9	406	409	14.9	65.2
2025-10-07T11:16	10	101	17.2	75	125	405	1.9	402	408	14.8	64.6
2025-10-07T11:17	10	105	3.2	101	110	405	0.3	404	405	14.7	65.0
2025-10-07T11:18	10	105	1.8	101	108	405	0.3	404	405	14.8	65.9
2025-10-07T11:19	10	103	2.2	99	107	405	0.3	404	405	15.0	64.6
2025-10-07T11:20	10	111	4.4	105	118	406	0.6	405	407	15.1	65.6
2025-10-07T11:21	10	123	2.9	118	128	408	0.5	406	408	15.0	64.4
2025-10-07T11:22	10	132	3.0	129	140	409	1.1	407	411	14.9	65.0
2025-10-07T11:23	10	121	21.8	77	142	407	2.1	405	411	15.0	65.2
2025-10-07T11:24	10	120	11.2	91	132	405	0.9	403	406	14.9	64.9
2025-10-07T11:25	10	121	16.7	84	134	406	1.1	404	407	14.9	65.6
2025-10-07T11:26	10	132	1.3	130	134	408	1.1	406	410	14.8	65.2
2025-10-07T11:27	10	136	2.1	131	138	410	1.1	408	412	14.9	65.5
2025-10-07T11:28	10	134	2.2	131	137	412	0.3	411	413	15.2	66.1
2025-10-07T11:29	10	130	2.1	125	133	412	0.5	410	412	15.3	65.9
2025-10-07T11:30	10	125	1.1	123	126	408	1.4	406	411	15.0	64.1
2025-10-07T11:31	10	119	3.1	115	125	409	0.4	408	409	15.1	65.3
2025-10-07T11:32	10	109	3.6	104	115	408	1.1	406	410	15.2	64.7
2025-10-07T11:33	10	92	11.5	61	104	405	1.2	403	407	14.9	64.0
2025-10-07T11:34	10	90	1.0	88	92	405	0.3	404	405	15.0	65.1
2025-10-07T11:35	10	85	3.6	79	89	405	0.7	404	406	15.3	65.3
2025-10-07T11:36	10	92	3.1	86	99	404	0.3	403	405	15.4	65.2
2025-10-07T11:37	10	110	5.7	99	118	404	0.4	404	405	15.4	65.3
2025-10-07T11:38	10	122	1.5	118	124	406	0.9	404	407	15.1	64.8
2025-10-07T11:39	10	125	3.4	121	131	408	1.0	406	410	15.2	65.0
2025-10-07T11:40	10	129	1.7	127	132	409	0.6	408	410	15.1	63.8
2025-10-07T11:41	10	130	2.2	127	133	410	1.2	408	412	15.2	64.7
2025-10-07T11:42	10	136	2.5	132	139	413	0.9	412	415	15.5	66.0
2025-10-07T11:43	10	139	0.4	138	140	415	0.3	414	416	15.6	65.4
2025-10-07T11:44	10	137	1.2	136	139	413	1.1	412	415	15.4	64.1
2025-10-07T11:45	10	139	0.2	139	140	413	0.7	411	414	15.3	64.3
2025-10-07T11:46	10	141	1.5	139	143	412	0.6	411	414	15.2	64.0
2025-10-07T11:47	10	143	0.3	143	144	414	0.5	413	415	15.1	64.1
2025-10-07T11:48	10	144	1.2	142	147	414	0.4	413	415	15.1	64.2
2025-10-07T11:49	10	148	0.5	147	148	414	0.3	413	415	15.3	64.0
2025-10-07T11:50	10	149	0.6	148	150	415	0.5	414	416	15.2	64.1
2025-10-07T11:51	10	151	0.5	150	152	415	1.0	413	417	15.2	63.0
2025-10-07T11:52	10	152	0.3	152	153	417	0.3	417	418	15.4	64.3
2025-10-07T11:53	10	153	0.1	153	153	417	0.6	416	419	15.3	63.9
2025-10-07T11:54	10	151	1.2	149	153	417	0.4	416	418	15.4	63.6
2025-10-07T11:55	10	147	1.3	144	149	418	0.3	417	418	15.3	64.2
2025-10-07T11:56	10	141	1.1	140	144	417	0.8	416	418	15.4	64.5
2025-10-07T11:57	10	139	0.8	138	140	416	1.0	414	417	15.6	64.3
2025-10-07T11:58	10	142	1.4	139	144	414	0.3	414	415	15.4	62.7
2025-10-07T11:59	10	144	0.5	143	145	417	1.1	415	419	15.4	63.7
2025-10-07T12:00	10	132	12.7	110	144	416	1.2	414	418	15.4	62.8
2025-10-07T12:01	10	126	4.3	116	131	413	0.9	412	415	15.6	63.3
2025-10-07T12:02	10	121	1.7	119	124	412	0.4	411	413	15.5	62.9
2025-10-07T12:03	10	114	2.6	108	119	412	0.9	410	413	15.6	63.8
2025-10-07T12:04	10	121	1.6	117	123	412	0.9	410	413	15.3	62.9
2025-10-07T12:05	10	122	0.4	121	123	413	0.3	413	414	15.5	63.3
2025-10-07T12:06	10	120	1.0	118	122	413	0.3	413	414	15.4	62.8
2025-10-07T12:07	10	115	1.6	114	118	415	0.4	414	415	15.6	64.1
2025-10-07T12:08	10	117	2.9	113	121	414	0.4	414	415	15.9	63.3
2025-10-07T12:09	10	125	2.9	121	131	415	0.5	414	416	16.1	63.6
2025-10-07T12:10	10	134	2.2	131	138	415	0.6	414	416	15.9	62.7
2025-10-07T12:11	10	138	1.2	135	139	416	0.5	415	417	15.9	63.0
2025-10-07T12:12	10	131	10.4	100	138	414	1.0	412	415	15.7	62.1
2025-10-07T12:13	10	138	1.8	135	141	414	0.6	413	415	15.7	62.0
2025-10-07T12:14	10	137	1.8	134	140	414	0.3	413	414	15.6	61.8
2025-10-07T12:15	10	139	1.0	136	140	414	0.6	413	415	15.7	62.8
2025-10-07T12:16	10	140	1.1	136	141	414	0.9	413	416	16.0	62.4
2025-10-07T12:17	10	141	0.7	139	142	413	0.2	413	414	15.8	62.0
2025-10-07T12:18	10	142	0.2	141	142	414	0.6	412	415	15.6	61.7
2025-10-07T12:19	10	141	0.6	140	142	413	0.3	412	413	15.4	61.8
2025-10-07T12:20	10	140	1.1	137	142	414	0.7	413	415	15.5	63.2
2025-10-07T12:21	10	139	0.4	138	140	415	0.3	414	415	15.8	62.5
2025-10-07T12:22	10	140	0.5	139	141	415	0.7	414	416	15.7	62.1
2025-10-07T12:23	10	135	13.8	91	142	417	0.9	415	419	16.1	63.5
2025-10-07T12:24	10	140	0.2	140	141	419	0.3	418	419	16.0	61.5
2025-10-07T12:25	10	140	0.2	140	141	419	0.3	418	419	16.1	62.6
2025-10-07T12:26	10	140	0.2	140	141	417	1.0	415	419	16.4	63.6
2025-10-07T12:27	10	140	0.2	139	140	414	0.6	413	416	16.3	61.6
2025-10-07T12:28	10	139	0.2	139	140	414	0.4	414	415	15.9	61.5
2025-10-07T12:29	10	139	0.2	138	139	415	0.7	414	417	15.8	61.3
2025-10-07T12:30	10	139	0.2	138	139	418	0.9	417	420	15.9	62.1
2025-10-07T12:31	10	138	0.5	138	139	417	0.6	417	419	16.1	61.5
2025-10-07T12:32	10	136	0.5	135	137	419	0.5	418	420	16.3	62.9
2025-10-07T12:33	10	138	1.2	136	140	418	1.0	416	420	16.2	61.7
2025-10-07T12:34	10	140	0.2	140	140	417	0.7	416	418	15.8	60.2
2025-10-07T12:35	10	140	0.1	140	140	419	0.6	418	420	15.9	60.8
2025-10-07T12:36	10	140	0.3	139	141	421	0.4	420	422	16.1	61.8
2025-10-07T12:37	10	127	11.2	110	140	419	1.6	416	421	16.2	61.3
2025-10-07T12:38	10	128	11.0	110	140	417	0.7	416	419	16.5	62.7
2025-10-07T12:39	10	139	0.3	138	139	418	0.9	416	419	16.5	61.8
2025-10-07T12:40	10	139	0.1	139	139	418	1.0	416	420	16.4	61.6
2025-10-07T12:41	10	139	0.1	139	139	418	1.0	417	420	16.5	61.0
2025-10-07T12:42	10	139	0.1	138	139	419	0.8	417	420	16.3	61.2
2025-10-07T12:43	10	139	0.1	138	139	419	0.4	419	420	16.5	61.9
2025-10-07T12:44	10	138	0.1	138	139	418	0.5	417	419	16.4	60.8
2025-10-07T12:45	10	138	0.2	138	139	419	0.4	418	419	16.6	62.1
2025-10-07T12:46	10	139	0.2	139	139	418	0.5	418	419	16.5	61.1
2025-10-07T12:47	10	140	0.1	139	140	418	0.3	417	418	16.4	61.6
2025-10-07T12:48	10	140	0.1	139	140	418	0.4	417	419	16.4	61.7
2025-10-07T12:49	10	139	0.1	139	140	416	1.1	414	418	16.4	61.1
2025-10-07T12:50	10	140	0.2	139	140	415	0.3	414	416	16.2	61.4
2025-10-07T12:51	10	140	0.1	140	140	414	0.6	413	416	16.2	61.6
2025-10-07T12:52	10	140	0.1	140	141	415	0.3	414	416	16.3	62.2
2025-10-07T12:53	10	141	0.3	140	142	415	0.3	415	416	16.2	61.8
2025-10-07T12:54	10	142	0.4	141	142	416	0.3	415	416	16.2	61.7
2025-10-07T12:55	10	142	0.3	142	143	416	0.5	415	417	16.5	61.8
2025-10-07T12:56	10	139	3.3	132	143	418	0.4	417	419	16.6	62.2
2025-10-07T12:57	10	132	0.6	131	133	416	0.7	415	417	16.6	61.6
2025-10-07T12:58	10	130	0.6	129	131	417	1.1	415	419	16.6	61.7
2025-10-07T12:59	10	129	1.0	127	130	418	0.6	417	420	16.7	61.8
2025-10-07T13:00	10	125	1.8	122	128	418	0.8	416	419	16.8	62.2
2025-10-07T13:01	10	116	2.4	112	122	415	0.6	415	417	16.7	62.2
2025-10-07T13:02	10	120	1.7	118	124	416	0.5	414	417	16.7	62.4
2025-10-07T13:03	10	126	1.5	124	128	414	0.5	414	415	16.6	61.6
2025-10-07T13:04	10	131	1.6	128	134	414	0.5	413	415	16.6	61.5
2025-10-07T13:05	10	137	1.0	134	138	416	0.4	415	417	16.8	62.0
2025-10-07T13:06	10	139	0.5	138	140	416	0.6	415	417	16.7	62.3
2025-10-07T13:07	10	139	0.6	138	140	416	0.6	415	417	16.7	61.8
2025-10-07T13:08	10	129	6.1	117	137	415	0.6	414	416	16.8	61.8
2025-10-07T13:09	10	131	0.6	130	132	414	0.3	413	415	16.6	61.5
2025-10-07T13:10	10	127	2.3	124	130	417	0.8	415	418	16.9	62.5
2025-10-07T13:11	10	125	2.9	117	128	417	0.9	414	417	16.9	61.5
2025-10-07T13:12	10	132	9.1	117	141	416	1.2	414	418	16.8	61.8
2025-10-07T13:13	10	108	13.4	91	134	417	1.0	416	419	17.0	62.5
2025-10-07T13:14	10	111	8.7	98	122	416	0.5	415	416	17.2	62.1
2025-10-07T13:15	10	118	11.8	100	137	415	0.6	414	416	17.2	62.6
2025-10-07T13:16	10	139	0.4	138	140	417	1.3	415	419	16.9	61.4
2025-10-07T13:17	10	136	2.0	130	139	418	1.1	415	419	17.0	62.0
2025-10-07T13:18	10	105	13.2	89	129	414	1.5	411	416	16.7	61.6
2025-10-07T13:19	10	102	5.0	94	110	412	0.4	411	413	16.8	61.7
2025-10-07T13:20	10	96	7.3	78	108	413	0.9	410	413	16.8	61.7
2025-10-07T13:21	10	86	8.3	78	101	410	0.5	409	411	16.8	61.8
2025-10-07T13:22	10	101	3.2	96	108	410	0.5	409	411	16.8	61.8
2025-10-07T13:23	10	95	2.7	90	100	409	0.3	409	410	16.7	61.3
2025-10-07T13:24	10	90	1.1	88	92	410	0.7	409	412	17.0	62.7
2025-10-07T13:25	10	85	4.8	77	91	411	0.4	410	412	17.0	62.3
2025-10-07T13:26	10	78	0.5	77	79	410	0.9	409	411	17.0	61.7
2025-10-07T13:27	10	77	1.4	73	79	409	0.3	409	410	17.0	62.2
2025-10-07T13:28	10	78	3.4	72	82	409	0.5	408	410	17.0	61.3
2025-10-07T13:29	10	80	1.2	78	82	409	0.6	408	410	16.9	61.7
2025-10-07T13:30	10	80	0.7	78	81	410	0.2	410	411	17.0	61.6
2025-10-07T13:31	10	82	0.6	81	83	410	0.3	409	411	17.2	62.1
2025-10-07T13:32	10	83	0.4	82	84	410	0.3	409	410	17.2	62.2
2025-10-07T13:33	10	90	4.0	84	97	410	0.5	409	411	17.2	62.4
2025-10-07T13:34	10	101	1.5	97	103	411	0.5	410	412	17.1	61.7
2025-10-07T13:35	10	115	6.5	103	124	412	1.1	410	413	17.0	61.4
2025-10-07T13:36	10	114	11.4	91	125	413	0.4	412	414	17.0	61.3
2025-10-07T13:37	10	94	2.5	90	97	411	0.4	411	412	17.0	61.6
2025-10-07T13:38	10	100	2.6	96	107	411	0.3	411	412	17.1	61.4
2025-10-07T13:39	10	113	5.5	105	120	413	0.5	412	413	17.0	61.2
2025-10-07T13:40	10	104	10.5	72	111	414	0.5	413	414	17.3	62.1
2025-10-07T13:41	10	89	15.1	68	114	412	0.8	410	413	17.2	61.3
2025-10-07T13:42	10	99	24.3	63	132	412	1.1	410	413	17.2	61.4
2025-10-07T13:43	10	95	8.1	77	103	411	1.0	410	413	17.2	61.7
2025-10-07T13:44	10	109	2.4	103	112	414	0.8	413	416	17.3	62.1
2025-10-07T13:45	10	98	3.1	94	105	415	0.3	414	416	17.5	62.5
2025-10-07T13:46	10	94	3.4	88	100	415	0.6	413	416	17.6	62.1
2025-10-07T13:47	10	80	9.7	58	90	411	1.6	408	414	17.6	61.9
2025-10-07T13:48	10	51	3.6	46	57	407	1.5	404	409	17.4	60.8
2025-10-07T13:49	10	42	3.0	38	47	404	0.9	402	406	17.4	61.7
2025-10-07T13:50	10	37	0.9	35	38	401	1.0	399	403	17.3	61.4
2025-10-07T13:51	10	33	0.6	32	35	398	0.5	397	400	17.0	61.0
2025-10-07T13:52	10	32	0.4	31	32	397	0.3	397	398	17.0	61.4
2025-10-07T13:53	10	31	0.3	30	31	397	0.2	396	397	17.0	62.3
2025-10-07T13:54	10	30	0.2	29	30	397	0.2	396	397	17.1	62.6
2025-10-07T13:55	10	29	0.2	29	29	396	0.2	395	396	17.1	62.9
2025-10-07T13:56	10	29	0.2	28	29	395	0.3	394	396	17.0	62.3
2025-10-07T13:57	10	28	0.1	28	28	394	0.3	393	395	16.9	63.3
2025-10-07T13:58	10	28	0.1	28	28	394	0.3	393	395	16.9	64.0
2025-10-07T13:59	10	28	0.1	28	28	394	0.2	393	394	16.9	63.1
2025-10-07T14:00	10	28	0.1	28	28	394	0.2	393	394	16.9	63.5
2025-10-07T14:01	10	29	0.7	28	30	394	0.3	393	394	16.9	63.9
2025-10-07T14:02	10	29	0.2	29	30	393	0.2	393	394	16.8	64.7
2025-10-07T14:03	10	28	0.5	27	29	393	0.3	392	393	16.6	64.4
2025-10-07T14:04	10	27	0.3	27	28	392	0.2	392	393	16.6	64.9
2025-10-07T14:05	10	27	0.2	27	28	392	0.2	391	392	16.5	64.8
2025-10-07T14:06	10	28	0.4	27	28	391	0.2	391	392	16.5	65.1
2025-10-07T14:07	10	29	0.9	28	31	391	0.2	391	392	16.4	65.7
2025-10-07T14:08	10	32	1.3	31	35	392	0.5	391	393	16.4	65.5
2025-10-07T14:09	10	34	1.0	32	36	392	0.3	391	393	16.4	65.6
2025-10-07T14:10	10	33	1.1	31	35	392	0.2	392	393	16.4	65.2
2025-10-07T14:11	10	33	1.1	31	35	392	0.2	392	393	16.5	64.8
2025-10-07T14:12	10	29	0.8	28	31	392	0.5	391	393	16.5	64.4
2025-10-07T14:13	10	27	0.7	26	28	391	0.3	390	392	16.5	63.1
2025-10-07T14:14	10	26	0.4	25	27	390	0.3	389	391	16.5	63.1
2025-10-07T14:15	10	25	0.2	24	25	390	0.3	389	390	16.5	63.4
2025-10-07T14:16	10	24	0.1	24	25	390	0.3	389	390	16.5	62.9
2025-10-07T14:17	10	24	0.2	24	25	390	0.3	389	390	16.5	63.2
2025-10-07T14:18	10	24	0.1	24	24	389	0.2	389	390	16.5	63.0
2025-10-07T14:19	10	24	0.2	24	24	389	0.3	388	390	16.5	63.3
2025-10-07T14:20	10	24	0.1	23	24	389	0.2	389	389	16.5	64.1
2025-10-07T14:21	10	24	0.2	24	24	389	0.3	388	390	16.4	63.9
2025-10-07T14:22	10	24	0.2	24	25	389	0.3	388	389	16.4	64.4
2025-10-07T14:23	10	25	0.2	24	25	389	0.3	388	389	16.4	64.5
2025-10-07T14:24	10	26	0.4	25	26	389	0.3	388	389	16.4	63.7
2025-10-07T14:25	10	27	0.4	26	27	389	0.3	389	390	16.4	64.2
2025-10-07T14:26	10	28	0.4	27	28	389	0.2	389	390	16.4	65.1
2025-10-07T14:27	10	28	0.3	27	28	389	0.2	389	390	16.4	64.7
2025-10-07T14:28	10	27	0.2	27	28	389	0.2	389	390	16.4	64.2
2025-10-07T14:29	10	28	0.2	27	28	389	0.2	389	390	16.4	64.7
2025-10-07T14:30	10	29	0.8	28	30	389	0.3	389	390	16.4	65.4
2025-10-07T14:31	10	32	0.7	30	33	390	0.3	389	391	16.4	65.9
2025-10-07T14:32	10	30	1.4	29	33	390	0.2	390	391	16.4	65.6
2025-10-07T14:33	10	31	0.9	29	32	390	0.3	390	391	16.4	66.1
2025-10-07T14:34	10	30	0.9	29	32	390	0.1	390	391	16.4	65.3
2025-10-07T14:35	10	32	0.8	31	34	391	0.2	390	391	16.4	65.3
2025-10-07T14:36	10	28	2.1	26	33	390	0.3	389	391	16.4	65.3
2025-10-07T14:37	10	27	0.5	26	28	390	0.2	389	390	16.4	65.3
2025-10-07T14:38	10	29	1.2	27	31	389	0.2	389	390	16.5	65.2
2025-10-07T14:39	10	31	1.8	27	33	390	0.2	389	390	16.5	65.8
2025-10-07T14:40	10	24	0.9	24	27	389	0.2	389	390	16.5	65.4
2025-10-07T14:41	10	23	0.1	23	24	389	0.3	388	389	16.5	65.1
2025-10-07T14:42	10	24	0.2	23	24	389	0.2	388	389	16.4	65.9
2025-10-07T14:43	10	25	0.4	24	25	389	0.3	388	389	16.5	65.8
2025-10-07T14:44	10	25	0.9	24	27	389	0.3	388	389	16.5	65.9
2025-10-07T14:45	10	23	0.2	23	24	389	0.2	388	389	16.4	66.8
2025-10-07T14:46	10	23	0.1	23	23	389	0.2	388	389	16.5	65.4
2025-10-07T14:47	10	23	0.1	22	23	389	0.2	388	389	16.5	66.2
2025-10-07T14:48	10	23	0.1	22	23	389	0.2	388	389	16.5	66.6
2025-10-07T14:49	10	22	0.1	22	23	389	0.2	388	389	16.5	66.8
2025-10-07T14:50	10	22	0.1	22	22	389	0.2	388	389	16.5	66.0
2025-10-07T14:51	10	22	0.1	22	22	388	0.2	388	389	16.5	66.1
2025-10-07T14:52	10	22	0.1	22	22	388	0.2	388	389	16.5	67.0
2025-10-07T14:53	10	22	0.1	22	22	388	0.2	388	389	16.5	66.3
2025-10-07T14:54	10	22	0.1	22	22	388	0.3	387	389	16.5	66.4
2025-10-07T14:55	10	22	0.1	22	22	388	0.2	388	389	16.4	67.0
2025-10-07T14:56	10	22	0.1	22	22	388	0.2	387	388	16.4	67.0
2025-10-07T14:57	10	22	0.1	22	22	388	0.2	388	389	16.4	67.0
2025-10-07T14:58	10	22	0.1	22	22	388	0.1	388	388	16.4	67.2
2025-10-07T14:59	10	22	0.1	22	22	388	0.2	388	389	16.5	66.4
2025-10-07T15:00	10	22	0.1	22	23	388	0.2	387	388	16.4	66.7
2025-10-07T15:01	10	22	0.1	22	23	388	0.2	388	388	16.4	66.2
2025-10-07T15:02	10	23	0.1	22	23	388	0.3	387	388	16.5	66.1
2025-10-07T15:03	10	23	0.1	22	23	388	0.2	387	388	16.4	67.0
2025-10-07T15:04	10	23	0.1	23	23	388	0.2	387	388	16.4	66.7
2025-10-07T15:05	10	24	0.2	23	24	388	0.2	387	388	16.4	66.9
2025-10-07T15:06	10	24	0.2	24	25	388	0.2	388	389	16.4	66.1
2025-10-07T15:07	10	25	0.2	24	25	388	0.2	388	389	16.4	66.6
2025-10-07T15:08	10	26	0.2	25	26	388	0.2	388	388	16.4	67.0
2025-10-07T15:09	10	26	0.2	26	27	389	0.3	388	390	16.4	66.6
2025-10-07T15:10	10	27	0.2	26	27	389	0.2	389	389	16.4	66.6
2025-10-07T15:11	10	27	0.2	27	28	389	0.3	389	390	16.4	66.5
2025-10-07T15:12	10	28	0.2	27	28	389	0.3	389	390	16.4	66.7
2025-10-07T15:13	10	28	0.2	28	28	389	0.3	389	390	16.4	66.7
2025-10-07T15:14	10	28	0.1	27	28	389	0.3	389	390	16.4	66.8
2025-10-07T15:15	10	28	0.1	28	28	390	0.2	389	390	16.4	66.7
2025-10-07T15:16	10	28	0.1	28	28	390	0.3	389	390	16.4	66.6
2025-10-07T15:17	10	28	0.1	27	28	389	0.2	388	389	16.4	66.6
2025-10-07T15:18	10	27	0.1	27	28	389	0.3	389	390	16.4	66.5
2025-10-07T15:19	10	27	0.1	27	27	389	0.2	389	390	16.4	66.8
2025-10-07T15:20	10	27	0.1	27	27	389	0.2	389	390	16.4	66.2
2025-10-07T15:21	10	27	0.1	27	27	389	0.3	388	390	16.4	66.8
2025-10-07T15:22	10	27	0.1	27	27	389	0.3	389	390	16.4	67.5
2025-10-07T15:23	10	27	0.1	27	27	389	0.2	389	389	16.3	67.6
2025-10-07T15:24	10	27	0.1	27	27	389	0.3	389	390	16.3	67.9
2025-10-07T15:25	10	27	0.1	27	27	389	0.2	389	390	16.4	67.6
2025-10-07T15:26	10	27	0.1	27	27	389	0.3	389	390	16.4	67.4
2025-10-07T15:27	10	27	0.1	27	28	390	0.3	389	390	16.4	67.6
2025-10-07T15:28	10	27	0.1	27	28	390	0.3	389	390	16.4	67.0
2025-10-07T15:29	10	28	0.5	27	29	389	0.2	389	390	16.4	67.2
2025-10-07T15:30	10	29	0.3	28	30	390	0.2	390	391	16.5	67.2
2025-10-07T15:31	10	29	0.7	28	30	390	0.2	389	390	16.4	67.9
2025-10-07T15:32	10	29	1.2	28	32	390	0.2	390	391	16.4	67.7
2025-10-07T15:33	10	35	1.7	32	39	390	0.4	390	391	16.4	67.8
2025-10-07T15:34	10	41	1.7	39	45	391	0.3	390	391	16.5	67.3
2025-10-07T15:35	10	33	4.1	29	39	391	0.4	390	391	16.5	67.1
2025-10-07T15:36	10	38	7.6	29	52	391	0.6	389	392	16.5	67.4
2025-10-07T15:37	10	35	1.6	32	38	391	0.3	390	391	16.4	67.6
2025-10-07T15:38	10	39	6.8	31	50	391	0.4	390	392	16.4	67.6
2025-10-07T15:39	10	38	7.2	28	51	391	0.5	390	392	16.5	67.3
2025-10-07T15:40	10	28	0.9	26	29	390	0.4	389	391	16.5	67.3
2025-10-07T15:41	10	26	0.6	25	27	389	0.2	389	390	16.4	67.7
2025-10-07T15:42	10	26	0.7	25	28	389	0.2	389	389	16.4	66.9
2025-10-07T15:43	10	26	1.4	24	28	389	0.3	388	390	16.4	66.6
2025-10-07T15:44	10	29	1.1	26	30	389	0.3	388	389	16.4	67.4
2025-10-07T15:45	10	24	0.6	23	26	388	0.4	388	389	16.3	67.7
2025-10-07T15:46	10	24	0.7	23	25	388	0.2	388	388	16.3	67.8
2025-10-07T15:47	10	22	0.4	22	23	388	0.3	387	388	16.2	67.9
2025-10-07T15:48	10	21	0.3	20	22	387	0.3	387	388	16.2	67.8
2025-10-07T15:49	10	20	0.2	20	20	387	0.3	386	388	16.3	66.7
2025-10-07T15:50	10	19	0.2	19	20	387	0.2	386	387	16.3	66.9
2025-10-07T15:51	10	19	0.2	18	19	386	0.3	386	387	16.2	67.3
2025-10-07T15:52	10	18	0.2	18	18	386	0.3	386	387	16.2	67.7
2025-10-07T15:53	10	17	0.2	17	18	386	0.2	386	386	16.2	67.7
2025-10-07T15:54	10	17	0.2	16	17	386	0.3	385	386	16.1	68.0
2025-10-07T15:55	10	16	0.2	16	17	385	0.4	385	386	16.2	67.8
2025-10-07T15:56	10	16	0.2	15	16	385	0.4	385	386	16.2	67.4
2025-10-07T15:57	10	15	0.2	15	15	385	0.3	384	385	16.1	68.4
2025-10-07T15:58	10	14	0.2	14	15	384	0.2	384	385	16.0	68.9
2025-10-07T15:59	10	14	0.2	13	14	384	0.2	384	385	16.0	69.0
2025-10-07T16:00	10	13	0.2	13	13	384	0.2	383	384	16.0	69.4
2025-10-07T16:01	10	13	0.2	12	13	383	0.3	383	384	16.0	69.3
2025-10-07T16:02	10	12	0.1	12	12	383	0.3	382	384	16.0	69.3
2025-10-07T16:03	10	12	0.1	12	12	383	0.3	382	383	15.9	69.6
2025-10-07T16:04	10	12	0.1	11	12	383	0.2	382	383	15.9	69.5
2025-10-07T16:05	10	11	0.1	11	12	383	0.3	382	383	16.0	69.1
2025-10-07T16:06	10	11	0.1	11	11	382	0.3	382	383	16.0	69.0
2025-10-07T16:07	10	11	0.1	11	11	382	0.3	381	383	16.0	69.0
2025-10-07T16:08	10	11	0.1	11	11	382	0.3	381	383	16.0	68.8
2025-10-07T16:09	10	11	0.1	10	11	382	0.2	381	382	15.9	69.3
2025-10-07T16:10	10	11	0.1	10	11	382	0.3	382	383	16.0	68.3
2025-10-07T16:11	10	11	0.1	10	11	382	0.3	381	383	16.0	68.5
2025-10-07T16:12	10	11	0.1	10	11	381	0.3	381	382	15.9	69.6
2025-10-07T16:13	10	11	0.1	10	11	382	0.2	381	382	15.9	69.4
2025-10-07T16:14	10	11	0.1	10	11	382	0.2	381	382	15.8	69.8
2025-10-07T16:15	10	11	0.1	10	11	381	0.2	381	382	15.8	69.8
2025-10-07T16:16	10	11	0.1	10	11	381	0.2	381	381	15.8	70.5
2025-10-07T16:17	10	11	0.1	10	11	381	0.3	380	382	15.8	70.6
2025-10-07T16:18	10	11	0.1	10	11	381	0.3	380	381	15.7	71.1
2025-10-07T16:19	10	11	0.4	11	12	381	0.3	380	381	15.7	71.2
2025-10-07T16:20	10	15	2.1	12	19	381	0.4	380	382	15.7	70.9
2025-10-07T16:21	10	22	1.2	19	23	382	0.6	381	383	15.7	70.6
2025-10-07T16:22	10	16	2.2	13	20	381	0.3	381	382	15.8	70.4
2025-10-07T16:23	10	21	2.1	17	24	382	0.4	381	382	15.8	70.0
2025-10-07T16:24	10	13	1.6	11	17	381	0.4	380	382	15.8	69.8
2025-10-07T16:25	10	11	0.2	11	12	380	0.3	380	381	15.8	69.9
2025-10-07T16:26	10	11	0.2	10	12	380	0.2	380	381	15.7	70.2
2025-10-07T16:27	10	10	0.6	9	11	380	0.5	379	381	15.7	70.7
2025-10-07T16:28	10	9	0.2	9	10	379	0.3	379	380	15.6	71.0
2025-10-07T16:29	10	9	0.2	8	9	379	0.3	378	380	15.6	71.2
2025-10-07T16:30	10	8	0.2	8	9	379	0.3	378	379	15.6	71.1
2025-10-07T16:31	10	9	0.5	8	10	378	0.3	378	379	15.6	71.0
2025-10-07T16:32	10	11	1.0	10	13	378	0.3	377	379	15.6	71.1
2025-10-07T16:33	10	14	0.8	13	16	378	0.3	377	379	15.5	71.5
2025-10-07T16:34	10	17	0.7	16	18	378	0.3	377	378	15.5	71.6
2025-10-07T16:35	10	19	0.8	18	20	378	0.3	377	379	15.5	71.6
2025-10-07T16:36	10	19	0.3	19	20	378	0.2	377	379	15.5	71.5
2025-10-07T16:37	10	18	0.5	17	19	378	0.3	377	378	15.5	71.1
2025-10-07T16:38	10	17	0.4	16	18	378	0.3	377	378	15.5	71.1
2025-10-07T16:39	10	16	0.4	15	17	378	0.2	377	378	15.5	71.2
2025-10-07T16:40	10	14	0.6	13	15	377	0.3	377	378	15.5	71.0
2025-10-07T16:41	10	13	0.4	12	14	377	0.3	376	378	15.5	71.4
2025-10-07T16:42	10	12	0.3	11	12	377	0.3	376	378	15.5	71.4
2025-10-07T16:43	10	11	0.4	10	11	376	0.3	376	377	15.5	71.6
2025-10-07T16:44	10	10	0.4	9	10	376	0.3	375	377	15.5	71.3
2025-10-07T16:45	10	8	0.6	7	9	376	0.3	375	377	15.5	71.2
2025-10-07T16:46	10	7	0.2	6	8	376	0.3	375	377	15.5	71.4
2025-10-07T16:47	10	6	0.2	6	7	376	0.2	375	376	15.4	71.5
2025-10-07T16:48	10	6	0.2	5	7	376	0.3	375	377	15.5	71.0
2025-10-07T16:49	10	5	0.3	5	6	376	0.2	375	377	15.5	70.8
2025-10-07T16:50	10	4	0.2	4	5	376	0.2	376	377	15.5	70.8
2025-10-07T16:51	10	3	0.2	3	4	376	0.3	375	377	15.4	71.1
2025-10-07T16:52	10	3	0.2	3	4	375	0.4	375	376	15.4	71.3
2025-10-07T16:53	10	3	0.2	2	3	375	0.3	374	375	15.3	72.0
2025-10-07T16:54	10	2	0.2	2	3	375	0.3	374	375	15.3	71.5
2025-10-07T16:55	10	2	0.1	2	2	375	0.2	375	375	15.3	71.5
2025-10-07T16:56	10	2	0.1	2	2	374	0.3	374	375	15.2	71.7
2025-10-07T16:57	10	2	0.1	2	2	374	0.3	373	374	15.2	71.7
2025-10-07T16:58	10	2	0.1	2	2	374	0.4	373	374	15.2	71.8
2025-10-07T16:59	10	2	0.1	1	2	373	0.2	372	374	15.1	71.8
2025-10-07T17:00	10	2	0.1	1	2	373	0.3	372	374	15.1	72.0
2025-10-07T17:01	10	1	0.1	1	2	373	0.3	372	374	15.1	71.4
2025-10-07T17:02	10	1	0.1	1	1	373	0.3	372	373	15.1	71.7
2025-10-07T17:03	10	2	0.1	1	2	373	0.2	372	373	15.1	71.7
2025-10-07T17:04	10	2	0.1	2	2	373	0.3	373	374	15.2	71.1
2025-10-07T17:05	10	2	0.1	2	2	373	0.3	373	374	15.2	70.9
2025-10-07T17:06	10	2	0.1	1	2	373	0.4	372	374	15.1	71.6
2025-10-07T17:07	10	1	0.1	1	1	372	0.3	371	373	15.0	72.1
2025-10-07T17:08	10	1	0.1	1	1	373	0.3	372	373	15.1	71.1
2025-10-07T17:09	10	1	0.1	1	1	373	0.4	372	374	15.1	70.8
2025-10-07T17:10	10	1	0.1	1	1	373	0.4	372	373	15.1	71.3
2025-10-07T17:11	10	1	0.1	0	1	373	0.2	372	373	15.0	71.5
2025-10-07T17:12	10	1	0.0	0	1	372	0.2	371	372	14.9	71.8
2025-10-07T17:13	10	0	0.1	0	1	372	0.2	371	372	14.9	72.1
2025-10-07T17:14	10	0	0.1	0	1	372	0.2	371	372	14.9	71.6
2025-10-07T17:15	10	0	0.1	0	1	372	0.2	371	372	14.9	72.1
2025-10-07T17:16	10	0	0.1	0	1	371	0.3	371	372	14.8	72.6
2025-10-07T17:17	10	0	0.1	0	0	371	0.4	370	372	14.8	72.5
2025-10-07T17:18	10	0	0.1	0	0	371	0.2	370	371	14.8	72.5
2025-10-07T17:19	10	0	0.1	0	1	370	0.3	370	371	14.8	72.9
2025-10-07T17:20	10	0	0.1	0	0	370	0.3	370	371	14.8	73.0
2025-10-07T17:21	10	0	0.1	0	1	370	0.4	370	371	14.8	73.3
2025-10-07T17:22	10	0	0.1	0	0	369	0.2	369	370	14.7	73.6
2025-10-07T17:23	10	0	0.1	0	0	369	0.3	368	369	14.7	73.6
2025-10-07T17:24	10	0	0.1	0	0	368	0.3	368	369	14.6	73.9
2025-10-07T17:25	10	0	0.1	0	0	369	0.5	368	370	14.6	73.3
2025-10-07T17:26	10	0	0.1	0	0	369	0.2	368	370	14.6	73.7
2025-10-07T17:27	10	0	0.1	0	0	370	0.4	369	370	14.5	73.8
2025-10-07T17:28	10	0	0.1	0	0	370	0.3	369	370	14.6	73.4
2025-10-07T17:29	10	0	0.1	0	0	370	0.2	369	370	14.5	73.9
2025-10-07T17:30	10	0	0.1	0	0	369	0.3	369	370	14.5	74.2
2025-10-07T17:31	10	0	0.1	0	0	369	0.2	368	369	14.4	74.6
2025-10-07T17:32	10	0	0.1	0	0	369	0.2	368	369	14.4	74.4
2025-10-07T17:33	10	0	0.1	0	0	368	0.3	368	369	14.4	74.9
2025-10-07T17:34	10	0	0.1	0	1	368	0.3	367	368	14.3	75.6
2025-10-07T17:35	10	0	0.1	0	1	368	0.2	367	368	14.3	75.5
2025-10-07T17:36	10	0	0.1	0	1	368	0.4	367	369	14.3	75.3
2025-10-07T17:37	10	0	0.1	0	0	368	0.3	368	369	14.3	75.2
2025-10-07T17:38	10	0	0.1	0	0	368	0.2	368	369	14.3	75.2
2025-10-07T17:39	10	0	0.1	0	0	368	0.2	368	368	14.3	75.3
2025-10-07T17:40	10	0	0.1	0	0	367	0.4	367	369	14.2	76.0
2025-10-07T17:41	10	0	0.1	0	1	367	0.3	367	368	14.2	75.9
2025-10-07T17:42	10	0	0.1	0	0	367	0.3	367	368	14.2	75.8
2025-10-07T17:43	10	0	0.1	0	0	367	0.3	366	368	14.2	75.9
2025-10-07T17:44	10	0	0.1	0	0	367	0.2	367	368	14.2	75.8
2025-10-07T17:45	10	0	0.1	0	0	367	0.2	367	368	14.2	75.6
2025-10-07T17:46	10	0	0.1	0	0	367	0.4	366	367	14.2	75.8
2025-10-07T17:47	10	0	0.1	0	0	366	0.2	366	367	14.1	76.2
2025-10-07T17:48	10	0	0.1	0	0	365	0.6	364	366	14.0	76.9
2025-10-07T17:49	10	0	0.1	0	0	364	0.3	363	365	13.8	77.6
2025-10-07T17:50	10	0	0.1	0	1	363	0.4	362	364	13.7	78.2
2025-10-07T17:51	10	0	0.1	0	1	362	0.4	361	363	13.5	79.2
2025-10-07T17:52	10	0	0.1	0	0	362	0.3	361	362	13.5	79.3
2025-10-07T17:53	10	0	0.1	0	0	361	0.2	361	361	13.5	79.1
2025-10-07T17:54	10	0	0.1	0	1	361	0.3	360	361	13.4	79.6
2025-10-07T17:55	10	0	0.1	0	1	360	0.3	360	361	13.5	79.2
2025-10-07T17:56	10	0	0.1	0	1	360	0.3	359	360	13.6	78.8
2025-10-07T17:57	10	0	0.1	0	0	359	0.2	359	360	13.6	78.8
2025-10-07T17:58	10	0	0.1	0	0	359	0.2	359	360	13.5	79.1
2025-10-07T17:59	10	0	0.1	0	1	359	0.2	359	359	13.6	78.8
2025-10-07T18:00	10	0	0.1	0	1	359	0.2	358	360	13.5	79.0
2025-10-07T18:01	10	0	0.1	0	1	359	0.2	358	359	13.5	79.2
2025-10-07T18:02	10	0	0.1	0	0	359	0.3	359	360	13.5	78.9
2025-10-07T18:03	10	0	0.1	0	1	359	0.2	359	360	13.5	79.3
2025-10-07T18:04	10	0	0.1	0	1	358	0.2	358	359	13.4	79.4
2025-10-07T18:05	10	0	0.1	0	0	358	0.2	358	359	13.5	79.0
2025-10-07T18:06	10	0	0.1	0	0	358	0.3	357	359	13.5	79.2
2025-10-07T18:07	10	0	0.1	0	0	358	0.2	357	358	13.4	79.2
2025-10-07T18:08	10	0	0.1	0	0	358	0.3	357	359	13.5	79.1
2025-10-07T18:09	10	0	0.1	0	0	359	0.4	358	360	13.6	78.2
2025-10-07T18:10	10	0	0.1	0	0	360	0.5	359	361	13.7	77.6
2025-10-07T18:11	10	0	0.1	0	0	360	0.2	360	361	13.8	77.1
2025-10-07T18:12	10	0	0.1	0	0	361	0.3	360	361	13.7	77.3
2025-10-07T18:13	10	0	0.1	0	1	360	0.2	360	361	13.7	77.3
2025-10-07T18:14	10	0	0.1	0	1	360	0.2	359	360	13.7	77.2
2025-10-07T18:15	10	0	0.1	0	1	360	0.3	359	360	13.7	77.5
2025-10-07T18:16	10	0	0.1	0	1	359	0.3	358	360	13.7	77.7
2025-10-07T18:17	10	0	0.1	0	1	359	0.3	359	360	13.6	78.1
2025-10-07T18:18	10	0	0.1	0	1	360	0.3	359	360	13.6	78.1
2025-10-07T18:19	10	0	0.1	0	0	360	0.2	359	360	13.5	78.4
2025-10-07T18:20	10	0	0.1	0	1	360	0.2	359	360	13.5	78.4
2025-10-07T18:21	10	0	0.1	0	1	360	0.2	359	360	13.5	78.6
2025-10-07T18:22	10	0	0.2	0	1	360	0.3	359	360	13.5	78.5
2025-10-07T18:23	10	0	0.2	0	1	360	0.3	359	361	13.5	78.7
2025-10-07T18:24	10	0	0.2	0	1	360	0.2	359	360	13.4	79.0
2025-10-07T18:25	10	0	0.2	0	1	360	0.2	360	361	13.4	79.1
2025-10-07T18:26	10	0	0.1	0	0	360	0.2	359	361	13.5	79.1
2025-10-07T18:27	10	0	0.1	0	1	360	0.3	359	361	13.5	79.1
2025-10-07T18:28	10	0	0.1	0	1	360	0.2	360	361	13.4	79.7
2025-10-07T18:29	10	0	0.1	0	0	360	0.2	360	361	13.4	80.1
2025-10-07T18:30	10	0	0.1	0	1	360	0.2	359	360	13.4	80.2
2025-10-07T18:31	10	0	0.1	0	1	360	0.2	359	360	13.4	80.3
2025-10-07T18:32	10	0	0.1	0	1	360	0.2	359	360	13.4	80.4
2025-10-07T18:33	10	0	0.1	0	0	360	0.2	359	360	13.3	80.6
2025-10-07T18:34	10	1	0.1	0	1	359	0.2	359	360	13.3	80.6
2025-10-07T18:35	10	1	0.1	0	1	359	0.2	358	359	13.3	80.8
2025-10-07T18:36	10	1	0.1	0	1	359	0.3	358	359	13.2	81.2
2025-10-07T18:37	10	1	0.1	0	1	358	0.2	357	358	13.2	81.3
2025-10-07T18:38	10	1	0.1	0	1	357	0.2	357	358	13.1	81.6
2025-10-07T18:39	10	1	0.1	0	1	357	0.3	356	357	13.1	81.8
2025-10-07T18:40	10	1	0.1	0	1	357	0.2	356	357	13.1	82.0
2025-10-07T18:41	10	1	0.1	0	1	356	0.2	356	357	13.1	82.0
2025-10-07T18:42	10	1	0.1	0	1	356	0.3	355	356	13.0	82.1
2025-10-07T18:43	10	1	0.1	0	1	356	0.2	355	356	13.0	82.3
2025-10-07T18:44	10	1	0.1	0	1	355	0.3	355	356	12.9	82.4
2025-10-07T18:45	10	1	0.1	0	1	355	0.3	355	356	12.8	83.1
2025-10-07T18:46	10	1	0.1	0	1	355	0.3	354	355	12.8	83.0
2025-10-07T18:47	10	1	0.1	0	1	354	0.2	354	355	12.9	82.8
2025-10-07T18:48	10	1	0.1	0	1	355	0.3	354	355	12.9	82.6
2025-10-07T18:49	10	0	0.1	0	1	354	0.3	354	355	12.9	82.5
2025-10-07T18:50	10	0	0.1	0	1	354	0.2	353	355	12.9	82.3
2025-10-07T18:51	10	0	0.1	0	1	354	0.3	353	355	12.9	82.3
2025-10-07T18:52	10	1	0.1	0	1	354	0.3	353	354	12.8	82.8
2025-10-07T18:53	10	0	0.1	0	1	353	0.2	353	354	12.8	82.8
2025-10-07T18:54	10	0	0.1	0	1	353	0.3	352	354	12.8	83.1
2025-10-07T18:55	10	0	0.1	0	1	353	0.2	352	353	12.8	82.9
2025-10-07T18:56	10	0	0.1	0	1	352	0.2	352	353	12.8	82.8
2025-10-07T18:57	10	1	0.1	0	1	352	0.3	352	353	12.8	82.9
2025-10-07T18:58	10	1	0.1	0	1	352	0.2	352	353	12.8	82.8
2025-10-07T18:59	10	1	0.1	0	1	352	0.2	352	353	12.8	82.9
2025-10-07T19:00	10	0	0.1	0	1	352	0.2	352	353	12.8	83.0
2025-10-07T19:01	10	1	0.1	0	1	352	0.3	352	353	12.8	83.1
2025-10-07T19:02	10	1	0.1	0	1	352	0.2	352	353	12.8	82.9
2025-10-07T19:03	10	1	0.1	0	1	352	0.2	352	353	12.7	83.3
2025-10-07T19:04	10	1	0.1	0	1	352	0.2	352	353	12.7	83.3
2025-10-07T19:05	10	1	0.1	0	1	352	0.2	352	353	12.7	83.6
2025-10-07T19:06	10	0	0.1	0	1	353	0.3	352	353	12.7	83.5
2025-10-07T19:07	10	0	0.1	0	1	353	0.3	352	354	12.6	83.6
2025-10-07T19:08	10	0	0.1	0	1	353	0.2	353	353	12.6	83.7
2025-10-07T19:09	10	1	0.1	0	1	353	0.2	352	353	12.7	83.7
2025-10-07T19:10	10	0	0.1	0	1	352	0.3	352	353	12.6	83.9
2025-10-07T19:11	10	0	0.1	0	1	352	0.3	351	353	12.6	84.1
2025-10-07T19:12	10	1	0.1	0	1	352	0.2	351	352	12.5	84.2
2025-10-07T19:13	10	1	0.1	0	1	351	0.3	351	352	12.6	83.9
2025-10-07T19:14	10	1	0.1	0	1	351	0.2	351	352	12.6	83.8
2025-10-07T19:15	10	0	0.1	0	1	352	0.3	351	352	12.6	83.4
2025-10-07T19:16	10	1	0.1	0	1	351	0.4	350	352	12.6	83.5
2025-10-07T19:17	10	0	0.1	0	1	352	0.4	351	353	12.5	83.3
2025-10-07T19:18	10	0	0.1	0	1	352	0.3	352	353	12.7	82.8
2025-10-07T19:19	10	0	0.1	0	1	352	0.3	352	353	12.6	83.0
2025-10-07T19:20	10	0	0.1	0	1	353	0.6	352	354	12.4	83.7
2025-10-07T19:21	10	0	0.1	0	1	354	0.3	353	354	12.4	83.8
2025-10-07T19:22	10	0	0.1	0	1	353	0.3	353	354	12.4	81.0
2025-10-07T19:23	10	0	0.1	0	1	353	0.3	353	354	12.4	83.7
2025-10-07T19:24	10	0	0.1	0	1	353	0.3	352	354	12.4	83.8
2025-10-07T19:25	10	1	0.1	0	1	353	0.3	352	353	12.4	83.8
2025-10-07T19:26	10	0	0.1	0	1	353	0.4	352	354	12.4	83.8
2025-10-07T19:27	10	0	0.1	0	1	352	0.4	352	353	12.4	83.8
2025-10-07T19:28	10	0	0.1	0	1	353	0.3	352	353	12.4	83.2
2025-10-07T19:29	10	0	0.1	0	1	353	0.2	352	353	12.5	82.5
2025-10-07T19:30	10	0	0.1	0	1	353	0.4	352	354	12.4	83.5
2025-10-07T19:31	10	0	0.1	0	1	353	0.3	352	353	12.3	83.9
2025-10-07T19:32	10	0	0.1	0	1	353	0.3	352	353	12.3	83.8
2025-10-07T19:33	10	0	0.1	0	1	352	0.3	351	353	12.4	83.4
2025-10-07T19:34	10	0	0.1	0	1	352	0.4	351	352	12.4	83.3
2025-10-07T19:35	10	0	0.0	0	1	352	0.3	351	352	12.3	83.5
2025-10-07T19:36	10	0	0.1	0	1	351	0.3	351	352	12.3	83.9
2025-10-07T19:37	10	0	0.1	0	1	351	0.3	350	352	12.3	84.1
2025-10-07T19:38	10	0	0.1	0	1	351	0.5	350	352	12.3	83.8
2025-10-07T19:39	10	0	0.1	0	1	350	0.2	350	351	12.2	84.4
2025-10-07T19:40	10	0	0.1	0	1	350	0.3	350	351	12.1	84.7
2025-10-07T19:41	10	0	0.1	0	1	349	0.2	349	350	12.1	85.0
2025-10-07T19:42	10	0	0.1	0	1	350	0.3	349	350	12.1	84.7
2025-10-07T19:43	10	0	0.1	0	1	350	0.3	350	351	12.1	84.7
2025-10-07T19:44	10	0	0.1	0	0	350	0.2	349	350	12.1	84.7
2025-10-07T19:45	10	0	0.1	0	1	350	0.3	349	350	12.1	84.6
2025-10-07T19:46	10	0	0.1	0	1	349	0.2	349	350	12.1	84.8
2025-10-07T19:47	10	0	0.1	0	1	350	0.2	349	350	12.1	84.8
2025-10-07T19:48	10	0	0.1	0	1	350	0.4	349	351	12.1	85.0
2025-10-07T19:49	10	0	0.1	0	1	350	0.2	350	351	12.1	85.0
2025-10-07T19:50	10	0	0.1	0	1	350	0.3	349	350	12.1	85.1
2025-10-07T19:51	10	0	0.1	0	1	349	0.3	349	350	12.0	85.5
2025-10-07T19:52	10	0	0.1	0	0	349	0.2	349	350	11.9	85.9
2025-10-07T19:53	10	0	0.1	0	1	349	0.3	348	349	11.9	86.2
2025-10-07T19:54	10	0	0.1	0	1	349	0.4	348	350	11.8	86.3
2025-10-07T19:55	10	0	0.1	0	1	350	0.3	349	350	11.7	86.5
2025-10-07T19:56	10	0	0.1	0	1	350	0.3	349	351	11.6	86.9
2025-10-07T19:57	10	0	0.1	0	0	350	0.2	349	350	11.6	87.2
2025-10-07T19:58	10	0	0.1	0	1	350	0.3	349	350	11.6	87.3
2025-10-07T19:59	10	0	0.1	0	0	350	0.3	349	350	11.6	87.4
2025-10-07T20:00	10	0	0.1	0	0	350	0.2	349	351	11.6	87.5
2025-10-07T20:01	10	0	0.1	0	0	350	0.2	349	350	11.6	87.4
2025-10-07T20:02	10	0	0.1	0	0	350	0.2	349	350	11.7	87.2
2025-10-07T20:03	10	0	0.1	0	1	349	0.2	349	350	11.8	86.9
2025-10-07T20:04	10	0	0.1	0	1	349	0.2	349	350	11.8	86.8
2025-10-07T20:05	10	0	0.1	0	1	349	0.2	348	350	11.8	86.8
2025-10-07T20:06	10	0	0.0	0	0	349	0.3	349	350	12.0	85.7
2025-10-07T20:07	10	0	0.1	0	0	351	0.7	350	352	12.0	85.4
2025-10-07T20:08	10	0	0.0	0	0	351	0.4	351	352	12.1	85.1
2025-10-07T20:09	10	0	0.1	0	1	351	0.3	350	351	12.0	85.2
2025-10-07T20:10	10	0	0.1	0	1	350	0.2	350	351	12.0	85.3
2025-10-07T20:11	10	0	0.1	0	1	350	0.3	349	351	11.9	85.6
2025-10-07T20:12	10	0	0.1	0	1	350	0.3	349	350	11.9	85.6
2025-10-07T20:13	10	0	0.1	0	1	350	0.2	349	350	12.0	85.2
2025-10-07T20:14	10	0	0.1	0	1	350	0.2	349	350	11.9	85.4
2025-10-07T20:15	10	0	0.1	0	1	349	0.3	349	350	11.9	85.3
2025-10-07T20:16	10	0	0.1	0	1	349	0.2	348	349	11.9	85.6
2025-10-07T20:17	10	0	0.1	0	1	349	0.3	348	350	11.9	85.4
2025-10-07T20:18	10	0	0.1	0	0	349	0.3	349	350	11.9	85.3
2025-10-07T20:19	10	0	0.1	0	1	349	0.3	349	350	11.9	85.6
2025-10-07T20:20	10	0	0.1	0	1	349	0.4	348	350	11.8	85.6
2025-10-07T20:21	10	0	0.1	0	0	349	0.3	348	350	11.8	85.7
2025-10-07T20:22	10	0	0.1	0	1	349	0.3	349	350	11.8	85.5
2025-10-07T20:23	10	0	0.1	0	1	350	0.3	349	350	11.9	85.5
2025-10-07T20:24	10	0	0.1	0	1	350	0.2	349	350	12.0	85.2
2025-10-07T20:25	10	0	0.1	0	1	350	0.2	349	350	11.8	85.4
2025-10-07T20:26	10	0	0.1	0	1	350	0.2	350	351	11.7	85.8
2025-10-07T20:27	10	0	0.1	0	1	350	0.2	349	350	11.7	86.1
2025-10-07T20:28	10	0	0.1	0	1	350	0.3	349	350	11.7	86.1
2025-10-07T20:29	10	0	0.1	0	1	350	0.4	350	351	11.7	86.3
2025-10-07T20:30	10	0	0.1	0	0	351	0.5	350	352	11.9	85.8
2025-10-07T20:31	10	0	0.1	0	1	351	0.3	350	351	11.7	85.9
2025-10-07T20:32	10	0	0.1	0	1	350	0.3	349	350	11.7	86.2
2025-10-07T20:33	10	0	0.1	0	1	350	0.2	349	350	11.6	86.7
2025-10-07T20:34	10	0	0.1	0	1	349	0.2	348	349	11.5	86.9
2025-10-07T20:35	10	0	0.1	0	1	349	0.2	349	350	11.5	87.1
2025-10-07T20:36	10	0	0.1	0	1	349	0.2	348	349	11.6	86.7
2025-10-07T20:37	10	0	0.1	0	1	349	0.2	348	349	11.6	86.6
2025-10-07T20:38	10	0	0.1	0	1	349	0.2	348	349	11.7	86.3
2025-10-07T20:39	10	0	0.1	0	1	348	0.3	347	349	11.7	86.1
2025-10-07T20:40	10	0	0.1	0	1	348	0.2	348	348	11.6	86.2
2025-10-07T20:41	10	0	0.1	0	1	348	0.3	347	349	11.7	85.9
2025-10-07T20:42	10	0	0.1	0	1	348	0.2	348	349	11.7	85.8
2025-10-07T20:43	10	0	0.1	0	1	348	0.2	347	349	11.7	85.7
2025-10-07T20:44	10	0	0.1	0	1	348	0.2	347	348	11.8	85.5
2025-10-07T20:45	10	0	0.1	0	1	347	0.3	347	348	11.8	85.3
2025-10-07T20:46	10	0	0.2	0	1	347	0.3	346	348	11.8	85.5
2025-10-07T20:47	10	0	0.1	0	1	347	0.3	347	348	11.7	85.4
2025-10-07T20:48	10	0	0.1	0	1	347	0.2	346	347	11.8	85.3
2025-10-07T20:49	10	0	0.1	0	1	347	0.3	347	348	11.7	85.7
2025-10-07T20:50	10	0	0.2	0	1	347	0.3	346	347	11.6	86.2
2025-10-07T20:51	10	0	0.1	0	1	347	0.2	347	347	11.5	86.7
2025-10-07T20:52	10	0	0.1	0	1	347	0.3	346	347	11.5	86.7
2025-10-07T20:53	10	0	0.1	0	1	346	0.3	346	347	11.5	86.7
2025-10-07T20:54	10	1	0.2	0	1	346	0.4	345	347	11.5	86.9
2025-10-07T20:55	10	0	0.1	0	1	346	0.4	345	347	11.3	87.2
2025-10-07T20:56	10	0	0.1	0	1	346	0.3	345	347	11.3	87.6
2025-10-07T20:57	10	0	0.2	0	1	345	0.3	345	346	11.3	87.8
2025-10-07T20:58	10	0	0.1	0	1	346	0.4	345	347	11.3	87.8
2025-10-07T20:59	10	0	0.1	0	1	347	0.3	346	347	11.1	88.5
2025-10-07T21:00	10	0	0.1	0	1	346	0.2	346	347	10.9	89.7
2025-10-07T21:01	10	0	0.2	0	1	346	0.3	346	347	10.8	90.7
2025-10-07T21:02	10	0	0.2	0	1	347	0.3	346	348	10.8	91.2
2025-10-07T21:03	10	0	0.2	0	1	347	0.4	347	348	10.8	91.6
2025-10-07T21:04	10	0	0.1	0	1	348	0.6	347	350	10.7	91.8
2025-10-07T21:05	10	0	0.1	0	1	349	0.2	348	349	10.6	92.2
2025-10-07T21:06	10	0	0.1	0	1	348	0.3	348	349	10.6	92.3
2025-10-07T21:07	10	0	0.0	0	0	348	0.2	347	348	10.6	91.9
2025-10-07T21:08	10	0	0.1	0	0	348	0.2	347	348	10.6	91.5
2025-10-07T21:09	10	0	0.1	0	0	347	0.2	347	348	10.6	91.4
2025-10-07T21:10	10	0	0.1	0	0	347	0.2	346	347	10.6	91.4
2025-10-07T21:11	10	0	0.1	0	0	346	0.2	346	347	10.5	91.5
2025-10-07T21:12	10	0	0.1	0	0	346	0.2	345	346	10.4	91.8
2025-10-07T21:13	10	0	0.1	0	1	346	0.3	345	347	10.5	92.1
2025-10-07T21:14	10	0	0.1	0	0	346	0.2	345	346	10.5	92.2
2025-10-07T21:15	10	0	0.1	0	0	345	0.3	345	346	10.7	91.6
2025-10-07T21:16	10	0	0.1	0	0	345	0.3	345	346	10.8	90.9
2025-10-07T21:17	10	0	0.1	0	0	346	0.3	345	347	10.7	90.9
2025-10-07T21:18	10	0	0.1	0	0	346	0.3	345	346	10.6	91.2
2025-10-07T21:19	10	0	0.0	0	0	345	0.3	345	346	10.4	91.9
2025-10-07T21:20	10	0	0.1	0	0	345	0.3	344	345	10.4	92.3
2025-10-07T21:21	10	0	0.1	0	0	345	0.2	344	345	10.4	92.7
2025-10-07T21:22	10	0	0.1	0	0	345	0.3	344	345	10.4	93.2
2025-10-07T21:23	10	0	0.1	0	0	346	0.4	345	347	10.3	93.9
2025-10-07T21:24	10	0	0.1	0	0	347	0.3	346	347	10.2	94.3
2025-10-07T21:25	10	0	0.1	0	0	347	0.2	346	347	10.1	94.6
2025-10-07T21:26	10	0	0.1	0	0	346	0.3	346	347	10.1	94.5
2025-10-07T21:27	10	0	0.1	0	0	346	0.3	345	346	10.1	94.3
2025-10-07T21:28	10	0	0.1	0	0	346	0.2	345	346	10.2	94.0
2025-10-07T21:29	10	0	0.1	0	0	346	0.3	345	347	10.1	94.0
2025-10-07T21:30	10	0	0.1	0	0	346	0.3	346	347	10.1	93.8
2025-10-07T21:31	10	0	0.1	0	0	346	0.2	346	347	10.2	93.8
2025-10-07T21:32	10	0	0.1	0	0	346	0.3	345	347	10.1	93.9
2025-10-07T21:33	10	0	0.1	0	0	346	0.3	345	346	10.2	94.1
2025-10-07T21:34	10	0	0.1	0	0	346	0.2	345	346	10.3	93.9
2025-10-07T21:35	10	0	0.1	0	0	346	0.3	345	346	10.4	93.4
2025-10-07T21:36	10	0	0.1	0	0	346	0.2	345	347	10.5	93.2
2025-10-07T21:37	10	0	0.1	0	1	346	0.2	345	346	10.5	92.9
2025-10-07T21:38	10	0	0.1	0	1	345	0.3	344	346	10.4	92.7
2025-10-07T21:39	10	0	0.1	0	1	345	0.3	344	345	10.3	92.8
2025-10-07T21:40	10	0	0.1	0	1	344	0.2	344	345	10.2	92.9
2025-10-07T21:41	10	0	0.1	0	0	344	0.2	344	345	10.2	93.1
2025-10-07T21:42	10	0	0.1	0	1	344	0.3	343	344	10.1	93.1
2025-10-07T21:43	10	0	0.1	0	0	343	0.3	343	344	10.0	93.2
2025-10-07T21:44	10	0	0.1	0	0	344	0.2	343	344	9.9	93.8
2025-10-07T21:45	10	0	0.1	0	0	344	0.2	343	344	9.9	94.3
2025-10-07T21:46	10	0	0.1	0	0	343	0.2	343	344	9.9	94.6
2025-10-07T21:47	10	0	0.1	0	0	343	0.3	343	344	9.8	94.8
2025-10-07T21:48	10	0	0.1	0	0	344	0.2	343	344	9.9	94.9
2025-10-07T21:49	10	0	0.1	0	0	344	0.2	343	344	10.0	95.0
2025-10-07T21:50	10	0	0.1	0	0	344	0.3	343	345	10.0	95.1
2025-10-07T21:51	10	0	0.1	0	0	345	0.4	344	346	10.0	94.8
2025-10-07T21:52	10	0	0.1	0	0	345	0.3	345	346	10.1	94.4
2025-10-07T21:53	10	0	0.1	0	0	345	0.3	344	346	10.2	94.2
2025-10-07T21:54	10	0	0.1	0	0	345	0.2	344	345	10.2	93.9
2025-10-07T21:55	10	0	0.1	0	0	345	0.2	344	345	10.1	93.9
2025-10-07T21:56	10	0	0.1	0	0	345	0.3	344	346	10.2	93.9
2025-10-07T21:57	10	0	0.1	0	0	345	0.2	345	346	10.3	93.8
2025-10-07T21:58	10	0	0.1	0	0	344	0.5	343	345	10.2	93.8
2025-10-07T21:59	10	0	0.1	0	0	344	0.2	344	345	9.9	94.2
2025-10-07T22:00	10	0	0.1	0	0	344	0.2	344	345	9.9	94.5
2025-10-07T22:01	10	0	0.1	0	0	344	0.3	343	345	9.9	94.9
2025-10-07T22:02	10	0	0.1	0	0	344	0.2	343	344	9.7	95.0
2025-10-07T22:03	10	0	0.1	0	0	345	0.5	344	346	9.8	94.8
2025-10-07T22:04	10	0	0.1	0	0	345	0.2	344	345	10.0	94.9
2025-10-07T22:05	10	0	0.1	0	0	345	0.4	344	345	10.0	95.1
2025-10-07T22:06	10	0	0.1	0	0	344	0.3	343	345	9.9	95.0
2025-10-07T22:07	10	0	0.1	0	0	344	0.2	343	344	9.9	94.6
2025-10-07T22:08	10	0	0.1	0	0	344	0.3	343	345	9.9	94.6
2025-10-07T22:09	10	0	0.1	0	0	344	0.2	344	344	9.9	94.8
2025-10-07T22:10	10	0	0.1	0	1	344	0.2	343	344	9.9	94.9
2025-10-07T22:11	10	0	0.1	0	0	344	0.2	343	344	10.0	94.9
2025-10-07T22:12	10	0	0.1	0	0	343	0.3	343	344	9.9	94.6
2025-10-07T22:13	10	0	0.1	0	1	343	0.3	342	343	9.7	94.5
2025-10-07T22:14	10	0	0.1	0	0	343	0.3	342	343	9.6	94.9
2025-10-07T22:15	10	0	0.1	0	0	342	0.2	342	343	9.4	95.4
2025-10-07T22:16	10	0	0.1	0	0	342	0.2	341	343	9.4	95.7
2025-10-07T22:17	10	0	0.1	0	0	342	0.2	341	342	9.3	95.9
2025-10-07T22:18	10	0	0.1	0	0	342	0.2	341	342	9.4	96.3
2025-10-07T22:19	10	0	0.1	0	0	341	0.3	340	341	9.4	96.5
2025-10-07T22:20	10	0	0.1	0	0	341	0.3	340	341	9.3	96.6
2025-10-07T22:21	10	0	0.1	0	0	340	0.2	340	341	9.3	96.8
2025-10-07T22:22	10	0	0.1	0	0	340	0.2	339	340	9.2	97.0
2025-10-07T22:23	10	0	0.1	0	0	340	0.2	339	340	9.1	96.9
2025-10-07T22:24	10	0	0.1	0	0	340	0.2	339	340	9.2	97.0
2025-10-07T22:25	10	0	0.1	0	0	340	0.2	339	340	9.2	97.1
2025-10-07T22:26	10	0	0.1	0	0	339	0.2	339	340	9.1	97.4
2025-10-07T22:27	10	0	0.1	0	0	339	0.2	339	340	9.1	97.6
2025-10-07T22:28	10	0	0.1	0	0	340	0.3	339	341	9.1	97.5
2025-10-07T22:29	10	0	0.1	0	0	339	0.2	339	340	9.2	97.5
2025-10-07T22:30	10	0	0.1	0	0	339	0.2	339	340	9.2	97.4
2025-10-07T22:31	10	0	0.1	0	0	339	0.2	339	340	9.2	97.8
2025-10-07T22:32	10	0	0.1	0	0	339	0.3	339	340	9.2	97.7
2025-10-07T22:33	10	0	0.1	0	0	339	0.2	339	340	9.2	97.7
2025-10-07T22:34	10	0	0.1	0	0	339	0.3	338	340	9.2	97.6
2025-10-07T22:35	10	0	0.1	0	0	339	0.2	338	339	9.1	97.4
2025-10-07T22:36	10	0	0.1	0	0	339	0.3	338	339	9.2	97.6
2025-10-07T22:37	10	0	0.1	0	0	339	0.3	338	340	9.3	98.0
2025-10-07T22:38	10	0	0.1	0	0	339	0.2	338	339	9.3	97.9
2025-10-07T22:39	10	0	0.1	0	0	339	0.2	338	339	9.3	97.9
2025-10-07T22:40	10	0	0.1	0	0	338	0.2	338	339	9.2	98.2
2025-10-07T22:41	10	0	0.1	0	0	339	0.2	338	339	9.1	98.5
2025-10-07T22:42	10	0	0.1	0	0	339	0.2	338	339	9.1	98.4
2025-10-07T22:43	10	0	0.1	0	0	338	0.3	338	339	9.1	98.7
2025-10-07T22:44	10	0	0.1	0	0	338	0.3	338	339	9.1	98.7
2025-10-07T22:45	10	0	0.1	0	0	338	0.2	337	338	9.0	98.2
2025-10-07T22:46	10	0	0.1	0	0	337	0.3	337	338	9.0	98.2
2025-10-07T22:47	10	0	0.1	0	0	337	0.2	337	338	8.8	98.5
2025-10-07T22:48	10	0	0.1	0	0	337	0.3	336	338	8.8	98.4
2025-10-07T22:49	10	0	0.1	0	0	337	0.3	337	338	8.9	98.6
2025-10-07T22:50	10	0	0.1	0	0	338	0.2	337	338	9.0	98.2
2025-10-07T22:51	10	0	0.1	0	0	338	0.2	337	338	9.1	98.2
2025-10-07T22:52	10	0	0.1	0	0	338	0.2	337	338	9.1	98.0
2025-10-07T22:53	10	0	0.1	0	0	338	0.2	337	338	9.1	97.9
2025-10-07T22:54	10	0	0.1	0	0	338	0.3	337	339	9.1	97.5
2025-10-07T22:55	10	0	0.1	0	0	338	0.3	338	339	9.1	97.5
2025-10-07T22:56	10	0	0.1	0	0	338	0.2	338	339	9.2	97.4
2025-10-07T22:57	10	0	0.1	0	0	339	0.3	338	340	9.1	97.7
2025-10-07T22:58	10	0	0.1	0	0	339	0.2	338	339	8.9	98.3
2025-10-07T22:59	10	0	0.1	0	0	338	0.2	338	339	8.7	98.1
2025-10-07T23:00	10	0	0.1	0	0	338	0.2	338	338	8.6	97.9
2025-10-07T23:01	10	0	0.1	0	0	338	0.3	338	339	8.5	97.7
2025-10-07T23:02	10	0	0.1	0	0	338	0.2	337	338	8.5	97.8
2025-10-07T23:03	10	0	0.1	0	0	338	0.2	337	338	8.5	97.9
2025-10-07T23:04	10	0	0.1	0	0	338	0.3	338	339	8.6	97.8
2025-10-07T23:05	10	0	0.1	0	0	339	0.4	338	340	8.7	97.9
2025-10-07T23:06	10	0	0.1	0	0	339	0.2	339	340	8.8	98.3
2025-10-07T23:07	10	0	0.1	0	0	339	0.2	339	340	8.9	98.7
2025-10-07T23:08	10	0	0.0	0	0	339	0.3	338	340	8.8	99.0
2025-10-07T23:09	10	0	0.0	0	0	340	0.2	339	340	8.7	98.4
2025-10-07T23:10	10	0	0.1	0	0	340	0.2	340	341	8.7	98.2
2025-10-07T23:11	10	0	0.1	0	0	340	0.3	339	340	8.7	98.4
2025-10-07T23:12	10	0	0.1	0	0	339	0.2	339	340	8.6	98.3
2025-10-07T23:13	10	0	0.1	0	1	339	0.2	338	339	8.8	98.1
2025-10-07T23:14	10	0	0.1	0	0	338	0.3	337	339	8.8	98.4
2025-10-07T23:15	10	0	0.1	0	0	338	0.2	337	338	8.7	98.8
2025-10-07T23:16	10	0	0.1	0	0	338	0.3	337	338	8.7	98.6
2025-10-07T23:17	10	0	0.1	0	0	338	0.2	338	339	8.8	98.7
2025-10-07T23:18	10	0	0.1	0	0	338	0.3	337	339	8.9	98.7
2025-10-07T23:19	10	0	0.1	0	0	339	0.2	339	340	9.0	98.6
2025-10-07T23:20	10	0	0.1	0	0	339	0.2	339	340	9.0	98.6
2025-10-07T23:21	10	0	0.1	0	0	339	0.3	338	340	9.1	98.6
2025-10-07T23:22	10	0	0.1	0	1	339	0.3	339	340	9.1	98.5
2025-10-07T23:23	10	0	0.1	0	1	338	0.4	338	339	8.8	98.9
2025-10-07T23:24	10	0	0.2	0	1	338	0.3	337	339	8.6	98.6
2025-10-07T23:25	10	0	0.2	0	0	338	0.3	337	338	8.5	98.6
2025-10-07T23:26	10	0	0.1	0	0	338	0.3	337	338	8.5	98.9
2025-10-07T23:27	10	0	0.2	0	1	337	0.2	337	338	8.6	98.8
2025-10-07T23:28	10	0	0.1	0	0	337	0.2	337	338	8.7	98.8
2025-10-07T23:29	10	0	0.1	0	1	337	0.2	336	337	8.7	99.0
2025-10-07T23:30	10	0	0.1	0	1	337	0.3	337	338	8.7	99.2
2025-10-07T23:31	10	0	0.1	0	0	337	0.3	337	338	8.7	98.9
2025-10-07T23:32	10	0	0.2	0	0	337	0.2	337	338	8.7	99.0
2025-10-07T23:33	10	0	0.1	0	1	337	0.4	336	338	8.6	99.2
2025-10-07T23:34	10	0	0.1	0	1	337	0.3	336	338	8.5	99.3
2025-10-07T23:35	10	0	0.1	0	0	337	0.2	337	338	8.5	99.0
2025-10-07T23:36	10	0	0.2	0	1	337	0.3	336	338	8.6	99.1
2025-10-07T23:37	10	0	0.1	0	1	337	0.2	336	337	8.6	99.2
2025-10-07T23:38	10	0	0.1	0	1	337	0.3	336	337	8.6	99.4
2025-10-07T23:39	10	0	0.2	0	1	337	0.2	337	338	8.6	99.3
2025-10-07T23:40	10	0	0.2	0	1	337	0.4	336	338	8.6	99.3
2025-10-07T23:41	10	0	0.2	0	1	337	0.2	336	337	8.5	99.6
2025-10-07T23:42	10	0	0.1	0	0	336	0.2	336	337	8.4	99.6
2025-10-07T23:43	10	0	0.2	0	1	336	0.3	336	337	8.3	99.3
2025-10-07T23:44	10	0	0.1	0	0	337	0.2	336	337	8.3	99.4
2025-10-07T23:45	10	0	0.2	0	0	337	0.2	336	338	8.2	99.2
2025-10-07T23:46	10	0	0.2	0	1	337	0.2	336	337	8.2	98.9
2025-10-07T23:47	10	0	0.2	0	0	337	0.2	336	337	8.3	99.1
2025-10-07T23:48	10	0	0.2	0	1	336	0.3	336	337	8.2	99.4
2025-10-07T23:49	10	0	0.1	0	0	336	0.2	336	337	8.2	99.4
2025-10-07T23:50	10	0	0.2	0	1	336	0.3	335	336	8.2	99.9
2025-10-07T23:51	10	0	0.1	0	0	336	0.2	335	336	8.2	99.9
2025-10-07T23:52	10	0	0.1	0	0	336	0.3	335	336	8.3	99.3
2025-10-07T23:53	10	0	0.1	0	1	336	0.3	335	337	8.3	99.4
2025-10-07T23:54	10	0	0.1	0	0	336	0.2	336	337	8.3	99.4
2025-10-07T23:55	10	0	0.2	0	1	336	0.2	336	337	8.4	99.6
2025-10-07T23:56	10	0	0.2	0	1	336	0.3	336	337	8.3	99.9
2025-10-07T23:57	10	0	0.1	0	0	337	0.2	336	337	8.4	99.7
2025-10-07T23:58	10	0	0.2	0	0	337	0.2	336	337	8.4	99.8
2025-10-07T23:59	10	0	0.2	0	1	337	0.2	336	337	8.4	99.7
2025-10-08T00:00	10	0	0.2	0	1	337	0.3	336	338	8.3	99.6
2025-10-08T00:01	10	0	0.1	0	0	337	0.2	336	337	8.3	99.7
2025-10-08T00:02	10	0	0.1	0	0	337	0.2	337	337	8.3	99.7
2025-10-08T00:03	10	0	0.1	0	1	337	0.2	336	337	8.4	99.4
2025-10-08T00:04	10	0	0.1	0	0	337	0.3	337	338	8.4	99.3
2025-10-08T00:05	10	0	0.1	0	0	338	0.2	337	338	8.6	99.5
2025-10-08T00:06	10	0	0.1	0	1	337	0.2	337	338	8.4	99.9
2025-10-08T00:07	10	0	0.1	0	0	337	0.2	337	338	8.4	99.8
2025-10-08T00:08	10	0	0.1	0	0	337	0.2	337	337	8.4	99.8
2025-10-08T00:09	10	0	0.1	0	0	337	0.2	337	337	8.4	99.6
2025-10-08T00:10	10	0	0.1	0	0	337	0.2	336	337	8.3	100.0
2025-10-08T00:11	10	0	0.1	0	0	337	0.2	336	337	8.2	99.7
2025-10-08T00:12	10	0	0.1	0	0	337	0.2	336	337	8.2	99.6
2025-10-08T00:13	10	0	0.1	0	0	337	0.2	336	337	8.3	99.3
2025-10-08T00:14	10	0	0.1	0	0	337	0.3	336	337	8.5	99.4
2025-10-08T00:15	10	0	0.1	0	0	337	0.2	336	337	8.7	99.7
2025-10-08T00:16	10	0	0.1	0	0	337	0.2	336	337	8.6	99.9
2025-10-08T00:17	10	0	0.1	0	0	337	0.2	336	337	8.7	99.6
2025-10-08T00:18	10	0	0.0	0	0	337	0.2	337	338	8.7	99.7
2025-10-08T00:19	10	0	0.1	0	0	337	0.2	337	338	8.6	99.7
2025-10-08T00:20	10	0	0.1	0	0	337	0.2	337	338	8.7	99.7
2025-10-08T00:21	10	0	0.1	0	0	337	0.2	336	337	8.6	99.9
2025-10-08T00:22	10	0	0.1	0	0	336	0.3	335	337	8.4	100.2
2025-10-08T00:23	10	0	0.1	0	0	335	0.3	335	336	8.4	100.1
2025-10-08T00:24	10	0	0.1	0	0	335	0.4	334	336	8.1	100.2
2025-10-08T00:25	10	0	0.1	0	0	335	0.2	334	335	7.9	99.6
2025-10-08T00:26	10	0	0.1	0	0	335	0.2	334	335	7.9	99.3
2025-10-08T00:27	10	0	0.1	0	0	335	0.2	334	335	8.0	99.2
2025-10-08T00:28	10	0	0.0	0	0	335	0.3	334	336	8.0	99.3
2025-10-08T00:29	10	0	0.1	0	0	335	0.4	334	336	8.2	99.1
2025-10-08T00:30	10	0	0.1	0	0	336	0.3	335	337	8.4	99.0
2025-10-08T00:31	10	0	0.1	0	0	337	0.2	336	337	8.5	99.4
2025-10-08T00:32	10	0	0.1	0	0	337	0.3	336	337	8.5	99.4
2025-10-08T00:33	10	0	0.1	0	0	337	0.2	337	338	8.5	99.3
2025-10-08T00:34	10	0	0.1	0	0	338	0.2	337	338	8.4	99.1
2025-10-08T00:35	10	0	0.1	0	0	338	0.2	337	338	8.2	99.7
2025-10-08T00:36	10	0	0.1	0	0	337	0.2	337	338	8.0	99.3
2025-10-08T00:37	10	0	0.1	0	0	337	0.2	337	338	8.0	99.2
2025-10-08T00:38	10	0	0.0	0	0	337	0.2	336	337	8.1	99.5
2025-10-08T00:39	10	0	0.1	0	0	336	0.3	336	337	7.9	99.9
2025-10-08T00:40	10	0	0.1	0	0	336	0.3	335	336	7.8	99.6
2025-10-08T00:41	10	0	0.1	0	0	336	0.3	335	336	7.8	99.4
2025-10-08T00:42	10	0	0.1	0	0	336	0.4	336	337	8.0	99.1
2025-10-08T00:43	10	0	0.1	0	0	337	0.4	336	338	8.0	99.6
2025-10-08T00:44	10	0	0.1	0	0	337	0.2	337	338	8.1	99.6
2025-10-08T00:45	10	0	0.1	0	0	337	0.2	337	338	7.9	100.1
2025-10-08T00:46	10	0	0.1	0	0	337	0.2	336	337	7.7	99.5
2025-10-08T00:47	10	0	0.1	0	0	337	0.3	336	338	7.7	99.4
2025-10-08T00:48	10	0	0.1	0	0	336	0.3	336	337	7.7	99.4
2025-10-08T00:49	10	0	0.1	0	0	336	0.2	335	336	7.7	99.3
2025-10-08T00:50	10	0	0.0	0	0	335	0.2	335	336	7.7	99.4
2025-10-08T00:51	10	0	0.1	0	0	335	0.2	334	335	7.6	99.3
2025-10-08T00:52	10	0	0.1	0	0	335	0.2	335	336	7.7	99.1
2025-10-08T00:53	10	0	0.1	0	0	335	0.2	335	336	7.8	99.1
2025-10-08T00:54	10	0	0.1	0	0	335	0.2	334	335	7.9	99.1
2025-10-08T00:55	10	0	0.1	0	0	335	0.2	334	335	7.8	99.2
2025-10-08T00:56	10	0	0.1	0	0	335	0.2	335	335	7.7	99.3
2025-10-08T00:57	10	0	0.1	0	0	336	0.4	335	337	7.6	99.2
2025-10-08T00:58	10	0	0.1	0	0	337	0.4	336	338	7.7	99.0
2025-10-08T00:59	10	0	0.1	0	0	338	0.3	337	338	7.7	99.1
2025-10-08T01:00	10	0	0.1	0	0	338	0.2	337	338	7.7	99.0
2025-10-08T01:01	10	0	0.1	0	0	338	0.3	337	338	7.8	99.0
2025-10-08T01:02	10	0	0.1	0	0	337	0.3	337	338	7.8	99.0
2025-10-08T01:03	10	0	0.1	0	0	337	0.2	337	338	7.9	99.1
2025-10-08T01:04	10	0	0.1	0	0	336	0.4	335	337	7.8	99.4
2025-10-08T01:05	10	0	0.1	0	0	336	0.2	336	337	7.8	99.0
2025-10-08T01:06	10	0	0.1	0	0	337	0.2	336	337	8.0	99.0
2025-10-08T01:07	10	0	0.1	0	0	337	0.2	336	337	8.1	99.2
2025-10-08T01:08	10	0	0.1	0	0	337	0.3	336	337	8.1	99.4
2025-10-08T01:09	10	0	0.1	0	0	337	0.2	337	338	8.0	99.5
2025-10-08T01:10	10	0	0.1	0	0	337	0.3	336	337	8.0	99.7
2025-10-08T01:11	10	0	0.1	0	0	337	0.4	336	337	7.9	99.5
2025-10-08T01:12	10	0	0.1	0	0	337	0.4	336	337	7.8	99.3
2025-10-08T01:13	10	0	0.1	0	0	337	0.2	337	337	8.0	98.8
2025-10-08T01:14	10	0	0.1	0	0	337	0.2	336	338	8.1	98.9
2025-10-08T01:15	10	0	0.1	0	0	337	0.2	336	337	8.2	98.9
2025-10-08T01:16	10	0	0.1	0	0	337	0.3	336	338	8.2	99.1
2025-10-08T01:17	10	0	0.1	0	0	337	0.3	336	337	8.3	98.9
2025-10-08T01:18	10	0	0.1	0	0	337	0.2	336	337	8.3	99.1
2025-10-08T01:19	10	0	0.1	0	0	336	0.3	336	337	8.2	99.0
2025-10-08T01:20	10	0	0.1	0	0	336	0.3	336	337	8.1	98.9
2025-10-08T01:21	10	0	0.1	0	0	337	0.2	336	337	8.2	98.7
2025-10-08T01:22	10	0	0.1	0	0	337	0.3	336	337	8.3	98.6
2025-10-08T01:23	10	0	0.1	0	0	336	0.6	334	337	8.1	98.9
2025-10-08T01:24	10	0	0.1	0	0	335	0.3	334	336	8.0	98.5
2025-10-08T01:25	10	0	0.1	0	0	334	0.4	334	335	8.1	98.8
2025-10-08T01:26	10	0	0.1	0	0	334	0.3	334	335	7.9	98.7
2025-10-08T01:27	10	0	0.1	0	0	334	0.4	334	335	8.0	98.5
2025-10-08T01:28	10	0	0.1	0	0	335	0.2	334	335	8.2	98.8
2025-10-08T01:29	10	0	0.1	0	0	334	0.2	334	335	8.1	98.7
2025-10-08T01:30	10	0	0.1	0	0	335	0.3	334	335	8.1	98.6
2025-10-08T01:31	10	0	0.1	0	0	336	0.5	335	337	8.1	98.6
2025-10-08T01:32	10	0	0.1	0	0	338	0.5	337	338	8.2	98.3
2025-10-08T01:33	10	0	0.1	0	0	338	0.3	338	339	8.2	98.6
2025-10-08T01:34	10	0	0.1	0	0	338	0.3	338	339	8.1	98.8
2025-10-08T01:35	10	0	0.0	0	0	338	0.4	337	339	8.0	98.6
2025-10-08T01:36	10	0	0.1	0	0	337	0.3	336	337	8.0	98.6
2025-10-08T01:37	10	0	0.1	0	0	336	0.3	335	337	8.0	98.7
2025-10-08T01:38	10	0	0.1	0	0	336	0.3	335	336	7.9	98.8
2025-10-08T01:39	10	0	0.1	0	0	335	0.2	335	336	7.9	98.9
2025-10-08T01:40	10	0	0.1	0	0	335	0.2	335	336	7.8	99.3
2025-10-08T01:41	10	0	0.0	0	0	335	0.3	334	335	7.8	99.4
2025-10-08T01:42	10	0	0.1	0	0	334	0.2	334	335	7.7	99.8
2025-10-08T01:43	10	0	0.0	0	0	334	0.2	333	334	7.6	99.3
2025-10-08T01:44	10	0	0.1	0	0	333	0.2	333	334	7.6	98.8
2025-10-08T01:45	10	0	0.1	0	0	333	0.3	332	334	7.5	99.0
2025-10-08T01:46	10	0	0.1	0	0	333	0.2	332	333	7.5	98.8
2025-10-08T01:47	10	0	0.1	0	0	333	0.2	332	333	7.5	99.1
2025-10-08T01:48	10	0	0.1	0	0	333	0.2	332	333	7.5	99.5
2025-10-08T01:49	10	0	0.0	0	0	333	0.2	332	333	7.4	99.9
2025-10-08T01:50	10	0	0.1	0	0	333	0.2	332	333	7.5	99.2
2025-10-08T01:51	10	0	0.1	0	0	333	0.2	332	333	7.5	98.7
2025-10-08T01:52	10	0	0.0	0	0	333	0.3	333	334	7.4	98.7
2025-10-08T01:53	10	0	0.1	0	0	334	0.3	333	334	7.4	98.8
2025-10-08T01:54	10	0	0.1	0	0	334	0.3	333	334	7.3	98.8
2025-10-08T01:55	10	0	0.1	0	0	334	0.2	333	334	7.3	98.9
2025-10-08T01:56	10	0	0.1	0	0	334	0.2	333	334	7.2	99.1
2025-10-08T01:57	10	0	0.1	0	0	334	0.2	333	334	7.2	99.0
2025-10-08T01:58	10	0	0.1	0	0	334	0.3	333	334	7.1	99.2
2025-10-08T01:59	10	0	0.1	0	0	333	0.2	333	334	7.0	99.0
2025-10-08T02:00	10	0	0.1	0	0	333	0.2	333	334	7.0	98.9
2025-10-08T02:01	10	0	0.1	0	0	334	0.2	333	334	7.0	99.1
2025-10-08T02:02	10	0	0.1	0	0	333	0.3	333	334	7.1	99.0
2025-10-08T02:03	10	0	0.1	0	0	333	0.3	332	333	7.1	99.3
2025-10-08T02:04	10	0	0.1	0	0	333	0.3	332	333	7.0	99.3
2025-10-08T02:05	10	0	0.1	0	0	333	0.3	332	333	6.9	99.2
2025-10-08T02:06	10	0	0.1	0	0	333	0.3	332	333	6.9	99.1
2025-10-08T02:07	10	0	0.1	0	0	333	0.3	332	333	7.0	99.0
2025-10-08T02:08	10	0	0.1	0	0	332	0.3	331	333	7.0	99.4
2025-10-08T02:09	10	0	0.1	0	0	332	0.2	332	333	7.0	99.3
2025-10-08T02:10	10	0	0.1	0	0	332	0.2	331	332	7.0	99.6
2025-10-08T02:11	10	0	0.1	0	0	332	0.3	331	332	6.9	99.6
2025-10-08T02:12	10	0	0.1	0	0	331	0.3	331	332	6.9	99.6
2025-10-08T02:13	10	0	0.1	0	0	332	0.3	331	332	6.9	99.7
2025-10-08T02:14	10	0	0.1	0	0	332	0.3	331	332	6.9	99.6
2025-10-08T02:15	10	0	0.1	0	0	331	0.2	331	332	7.0	99.9
2025-10-08T02:16	10	0	0.1	0	0	331	0.2	331	332	6.9	100.4
2025-10-08T02:17	10	0	0.1	0	0	331	0.3	330	331	6.9	99.9
2025-10-08T02:18	10	0	0.1	0	0	331	0.2	330	331	6.9	99.6
2025-10-08T02:19	10	0	0.1	0	0	330	0.2	330	331	6.9	99.6
2025-10-08T02:20	10	0	0.1	0	0	330	0.3	330	331	6.9	99.3
2025-10-08T02:21	10	0	0.1	0	0	330	0.2	330	331	7.0	99.4
2025-10-08T02:22	10	0	0.1	0	0	331	0.2	330	331	7.0	99.4
2025-10-08T02:23	10	0	0.1	0	0	331	0.2	330	331	6.9	99.7
2025-10-08T02:24	10	0	0.1	0	0	331	0.2	331	332	6.8	99.8
2025-10-08T02:25	10	0	0.1	0	0	331	0.3	330	332	6.8	99.8
2025-10-08T02:26	10	0	0.1	0	0	331	0.2	331	331	6.9	99.9
2025-10-08T02:27	10	0	0.1	0	0	331	0.3	330	331	6.8	99.9
2025-10-08T02:28	10	0	0.1	0	0	331	0.2	331	332	6.8	100.1
2025-10-08T02:29	10	0	0.1	0	0	331	0.3	331	332	6.7	99.9
2025-10-08T02:30	10	0	0.1	0	0	331	0.3	331	332	6.8	99.8
2025-10-08T02:31	10	0	0.1	0	0	331	0.2	331	332	6.8	99.9
2025-10-08T02:32	10	0	0.1	0	0	331	0.2	331	332	6.8	99.8
2025-10-08T02:33	10	0	0.1	0	0	331	0.2	331	332	6.8	100.0
2025-10-08T02:34	10	0	0.1	0	0	331	0.2	331	332	6.7	99.9
2025-10-08T02:35	10	0	0.1	0	0	331	0.2	331	332	6.7	99.9
2025-10-08T02:36	10	0	0.1	0	0	331	0.2	330	331	6.6	99.9
2025-10-08T02:37	10	0	0.1	0	0	331	0.3	330	331	6.5	99.9
2025-10-08T02:38	10	0	0.1	0	0	330	0.2	329	331	6.4	100.1
2025-10-08T02:39	10	0	0.1	0	0	330	0.2	329	330	6.4	99.5
2025-10-08T02:40	10	0	0.1	0	0	330	0.3	330	331	6.6	99.0
2025-10-08T02:41	10	0	0.1	0	0	331	0.3	330	331	6.7	99.4
2025-10-08T02:42	10	0	0.1	0	0	331	0.5	330	332	6.7	99.4
2025-10-08T02:43	10	0	0.1	0	0	332	0.2	331	332	6.8	99.8
2025-10-08T02:44	10	0	0.1	0	0	332	0.3	331	333	6.7	99.6
2025-10-08T02:45	10	0	0.1	0	0	333	0.5	332	334	6.8	99.3
2025-10-08T02:46	10	0	0.1	0	0	334	0.2	333	334	6.8	99.6
2025-10-08T02:47	10	0	0.1	0	0	334	0.2	333	334	6.8	99.5
2025-10-08T02:48	10	0	0.0	0	0	334	0.3	333	335	6.9	99.3
2025-10-08T02:49	10	0	0.1	0	0	334	0.2	334	334	7.0	99.5
2025-10-08T02:50	10	0	0.1	0	0	334	0.3	333	334	7.1	99.4
2025-10-08T02:51	10	0	0.1	0	0	333	0.3	333	334	7.1	99.8
2025-10-08T02:52	10	0	0.1	0	0	333	0.2	333	334	7.1	99.8
2025-10-08T02:53	10	0	0.1	0	0	333	0.3	332	333	7.1	100.0
2025-10-08T02:54	10	0	0.1	0	0	332	0.3	332	333	7.1	100.2
2025-10-08T02:55	10	0	0.1	0	0	332	0.2	332	333	6.9	100.7
2025-10-08T02:56	10	0	0.1	0	0	332	0.2	332	333	6.9	100.4
2025-10-08T02:57	10	0	0.1	0	0	332	0.2	332	332	6.9	99.7
2025-10-08T02:58	10	0	0.1	0	0	332	0.2	331	332	6.8	100.0
2025-10-08T02:59	10	0	0.1	0	0	332	0.2	331	332	6.8	100.1
2025-10-08T03:00	10	0	0.1	0	0	332	0.2	331	332	6.7	100.0
2025-10-08T03:01	10	0	0.1	0	0	331	0.2	331	332	6.6	99.9
2025-10-08T03:02	10	0	0.1	0	0	332	0.4	331	332	6.5	99.8
2025-10-08T03:03	10	0	0.1	0	0	332	0.2	331	332	6.5	99.8
2025-10-08T03:04	10	0	0.1	0	0	332	0.3	331	332	6.4	99.8
2025-10-08T03:05	10	0	0.1	0	0	332	0.3	332	333	6.7	99.0
2025-10-08T03:06	10	0	0.1	0	0	333	0.6	332	334	7.0	98.9
2025-10-08T03:07	10	0	0.1	0	0	334	0.4	333	335	7.6	99.0
2025-10-08T03:08	10	0	0.1	0	0	334	0.3	334	335	7.7	99.8
2025-10-08T03:09	10	0	0.1	0	0	334	0.3	334	335	7.8	99.4
2025-10-08T03:10	10	0	0.1	0	0	334	0.3	333	335	7.7	99.4
2025-10-08T03:11	10	0	0.1	0	0	334	0.4	333	335	7.7	99.6
2025-10-08T03:12	10	0	0.1	0	0	333	0.4	333	334	7.4	99.6
2025-10-08T03:13	10	0	0.1	0	0	333	0.4	332	333	7.3	99.2
2025-10-08T03:14	10	0	0.1	0	0	333	0.4	332	333	7.2	99.1
2025-10-08T03:15	10	0	0.1	0	0	332	0.2	332	333	7.1	99.3
2025-10-08T03:16	10	0	0.1	0	0	332	0.3	331	332	7.1	99.3
2025-10-08T03:17	10	0	0.1	0	0	331	0.3	331	332	7.0	99.5
2025-10-08T03:18	10	0	0.1	0	0	331	0.2	331	332	7.3	98.7
2025-10-08T03:19	10	0	0.1	0	0	332	0.2	331	332	7.4	99.1
2025-10-08T03:20	10	0	0.1	0	0	331	0.2	331	332	7.4	99.2
2025-10-08T03:21	10	0	0.1	0	0	331	0.2	331	332	7.4	99.0
2025-10-08T03:22	10	0	0.1	0	0	332	0.2	331	332	7.3	99.0
2025-10-08T03:23	10	0	0.1	0	0	332	0.3	331	332	7.3	99.1
2025-10-08T03:24	10	0	0.1	0	0	332	0.2	331	332	7.2	99.0
2025-10-08T03:25	10	0	0.1	0	0	332	0.3	331	333	7.2	98.9
2025-10-08T03:26	10	0	0.1	0	0	333	0.3	332	334	7.2	98.8
2025-10-08T03:27	10	0	0.1	0	0	334	0.3	333	335	7.2	99.0
2025-10-08T03:28	10	0	0.1	0	0	334	0.3	333	334	7.1	99.2
2025-10-08T03:29	10	0	0.1	0	0	333	0.3	333	334	7.0	99.0
2025-10-08T03:30	10	0	0.1	0	0	333	0.2	333	333	7.0	98.9
2025-10-08T03:31	10	0	0.1	0	0	333	0.2	332	333	7.0	99.1
2025-10-08T03:32	10	0	0.1	0	0	333	0.3	332	333	6.9	99.4
2025-10-08T03:33	10	0	0.1	0	0	332	0.2	332	333	6.7	99.8
2025-10-08T03:34	10	0	0.1	0	0	332	0.2	332	333	6.7	99.6
2025-10-08T03:35	10	0	0.1	0	0	332	0.3	332	333	6.7	99.2
2025-10-08T03:36	10	0	0.1	0	0	332	0.2	332	333	6.8	99.2
2025-10-08T03:37	10	0	0.1	0	0	333	0.2	332	333	6.7	99.2
2025-10-08T03:38	10	0	0.1	0	0	333	0.2	332	333	6.7	99.3
2025-10-08T03:39	10	0	0.1	0	0	333	0.3	333	334	6.7	99.1
2025-10-08T03:40	10	0	0.1	0	0	333	0.2	332	333	6.6	99.5
2025-10-08T03:41	10	0	0.1	0	0	332	0.3	332	333	6.5	99.9
2025-10-08T03:42	10	0	0.1	0	0	332	0.3	332	333	6.5	99.6
2025-10-08T03:43	10	0	0.1	0	0	332	0.2	331	332	6.7	99.4
2025-10-08T03:44	10	0	0.1	0	0	332	0.3	331	333	6.7	99.5
2025-10-08T03:45	10	0	0.1	0	0	332	0.2	332	333	6.9	99.1
2025-10-08T03:46	10	0	0.1	0	0	332	0.3	331	332	6.7	99.7
2025-10-08T03:47	10	0	0.1	0	0	331	0.2	330	331	6.6	99.5
2025-10-08T03:48	10	0	0.1	0	0	331	0.3	330	332	6.8	99.1
2025-10-08T03:49	10	0	0.0	0	0	331	0.3	331	332	6.9	99.2
2025-10-08T03:50	10	0	0.1	0	0	331	0.2	331	332	6.9	99.6
2025-10-08T03:51	10	0	0.1	0	0	332	0.3	331	332	6.7	99.7
2025-10-08T03:52	10	0	0.1	0	0	332	0.3	331	332	6.7	99.1
2025-10-08T03:53	10	0	0.1	0	0	332	0.2	331	333	6.7	99.6
2025-10-08T03:54	10	0	0.1	0	0	332	0.2	331	332	6.7	99.6
2025-10-08T03:55	10	0	0.1	0	0	332	0.2	332	332	6.7	99.4
2025-10-08T03:56	10	0	0.0	0	0	332	0.2	332	333	6.7	99.6
2025-10-08T03:57	10	0	0.1	0	0	332	0.2	331	332	6.8	99.4
2025-10-08T03:58	10	0	0.1	0	0	331	0.3	330	332	6.6	99.9
2025-10-08T03:59	10	0	0.1	0	0	331	0.2	330	332	6.7	99.5
2025-10-08T04:00	10	0	0.1	0	0	331	0.3	330	332	6.7	99.7
2025-10-08T04:01	10	0	0.1	0	0	331	0.3	330	331	6.7	99.7
2025-10-08T04:02	10	0	0.1	0	0	331	0.2	330	331	6.7	99.5
2025-10-08T04:03	10	0	0.1	0	0	330	0.2	330	331	6.8	99.7
2025-10-08T04:04	10	0	0.1	0	0	330	0.2	330	331	6.8	100.0
2025-10-08T04:05	10	0	0.1	0	0	330	0.3	330	331	6.7	99.8
2025-10-08T04:06	10	0	0.1	0	0	331	0.3	330	332	6.6	100.0
2025-10-08T04:07	10	0	0.1	0	0	331	0.3	331	332	6.7	99.5
2025-10-08T04:08	10	0	0.1	0	0	331	0.2	331	332	6.7	99.5
2025-10-08T04:09	10	0	0.1	0	0	331	0.3	330	332	6.7	99.5
2025-10-08T04:10	10	0	0.1	0	0	331	0.3	330	332	6.7	99.4
2025-10-08T04:11	10	0	0.1	0	0	331	0.2	331	332	6.8	99.7
2025-10-08T04:12	10	0	0.1	0	0	331	0.2	331	332	6.8	99.7
2025-10-08T04:13	10	0	0.1	0	0	332	0.3	331	332	6.8	99.5
2025-10-08T04:14	10	0	0.1	0	0	332	0.4	331	333	7.0	99.3
2025-10-08T04:15	10	0	0.1	0	0	333	0.5	333	334	7.0	99.6
2025-10-08T04:16	10	0	0.1	0	0	335	0.4	334	336	7.1	99.1
2025-10-08T04:17	10	0	0.1	0	0	335	0.3	335	336	7.1	99.6
2025-10-08T04:18	10	0	0.1	0	0	335	0.3	335	336	7.1	99.5
2025-10-08T04:19	10	0	0.1	0	0	335	0.2	335	335	7.1	99.5
2025-10-08T04:20	10	0	0.1	0	1	334	0.4	334	335	7.1	99.7
2025-10-08T04:21	10	0	0.1	0	0	334	0.2	333	334	7.0	99.5
2025-10-08T04:22	10	0	0.1	0	1	333	0.4	333	334	6.9	99.4
2025-10-08T04:23	10	0	0.1	0	0	333	0.2	332	333	6.8	99.6
2025-10-08T04:24	10	0	0.1	0	0	333	0.2	332	333	6.7	99.7
2025-10-08T04:25	10	0	0.1	0	0	333	0.2	332	333	6.7	99.4
2025-10-08T04:26	10	0	0.1	0	0	333	0.2	332	333	6.7	99.4
2025-10-08T04:27	10	0	0.1	0	0	332	0.3	332	333	6.7	99.6
2025-10-08T04:28	10	0	0.1	0	0	332	0.3	331	332	6.6	99.7
2025-10-08T04:29	10	0	0.1	0	0	331	0.3	330	331	6.5	99.9
2025-10-08T04:30	10	0	0.1	0	0	330	0.3	330	331	6.5	99.9
2025-10-08T04:31	10	0	0.1	0	0	330	0.4	330	331	6.5	99.7
2025-10-08T04:32	10	0	0.1	0	0	331	0.3	330	332	6.5	99.4
2025-10-08T04:33	10	0	0.1	0	0	331	0.2	331	332	6.5	99.5
2025-10-08T04:34	10	0	0.1	0	0	331	0.2	331	332	6.5	99.6
2025-10-08T04:35	10	0	0.1	0	0	332	0.3	331	333	6.5	99.6
2025-10-08T04:36	10	0	0.1	0	0	332	0.5	332	334	6.6	99.3
2025-10-08T04:37	10	0	0.1	0	0	334	0.7	333	335	6.7	99.3
2025-10-08T04:38	10	0	0.1	-1	0	335	0.2	335	336	6.7	99.5
2025-10-08T04:39	10	0	0.1	0	0	335	0.2	335	336	6.7	99.4
2025-10-08T04:40	10	0	0.1	0	0	335	0.2	335	336	6.7	99.5
2025-10-08T04:41	10	0	0.1	0	0	336	0.2	335	336	6.7	99.5
2025-10-08T04:42	10	0	0.1	0	0	335	0.3	335	336	6.6	99.4
2025-10-08T04:43	10	0	0.1	0	0	335	0.2	335	336	6.5	99.6
2025-10-08T04:44	10	0	0.1	0	0	335	0.2	335	335	6.5	99.9
2025-10-08T04:45	10	0	0.1	0	0	335	0.3	334	335	6.5	99.8
2025-10-08T04:46	10	0	0.1	0	0	334	0.3	333	335	6.6	99.8
2025-10-08T04:47	10	0	0.1	0	0	334	0.2	333	334	6.6	99.7
2025-10-08T04:48	10	0	0.1	0	0	334	0.2	333	334	6.6	99.7
2025-10-08T04:49	10	0	0.1	0	0	334	0.2	333	334	6.6	99.8
2025-10-08T04:50	10	0	0.1	0	0	334	0.3	333	334	6.5	99.5
2025-10-08T04:51	10	0	0.1	0	0	334	0.2	334	335	6.4	99.6
2025-10-08T04:52	10	0	0.1	0	0	334	0.3	334	335	6.3	99.6
2025-10-08T04:53	10	0	0.1	0	0	334	0.3	333	334	6.2	99.6
2025-10-08T04:54	10	0	0.1	0	0	334	0.3	333	334	6.3	99.4
2025-10-08T04:55	10	0	0.2	-1	0	333	0.3	333	334	6.3	99.7
2025-10-08T04:56	10	0	0.1	0	0	333	0.3	333	334	6.4	99.4
2025-10-08T04:57	10	0	0.1	0	0	334	0.3	333	334	6.5	99.8
2025-10-08T04:58	10	0	0.1	0	0	334	0.3	333	335	6.6	99.5
2025-10-08T04:59	10	0	0.1	0	0	334	0.2	334	335	6.6	99.7
2025-10-08T05:00	10	0	0.1	0	0	335	0.3	334	336	6.6	99.6
2025-10-08T05:01	10	0	0.1	0	0	335	0.2	335	336	6.7	99.6
2025-10-08T05:02	10	0	0.2	0	0	336	0.3	335	336	6.7	99.7
2025-10-08T05:03	10	0	0.1	0	0	336	0.2	335	336	6.9	99.5
2025-10-08T05:04	10	0	0.1	0	0	336	0.3	335	336	6.7	99.7
2025-10-08T05:05	10	0	0.1	0	0	336	0.3	335	336	6.7	99.3
2025-10-08T05:06	10	0	0.1	0	0	335	0.3	335	336	6.7	99.5
2025-10-08T05:07	10	0	0.1	0	0	335	0.5	334	336	6.5	100.1
2025-10-08T05:08	10	0	0.1	-1	0	334	0.3	334	335	6.3	100.2
2025-10-08T05:09	10	0	0.1	0	0	334	0.2	334	335	6.5	99.4
2025-10-08T05:10	10	0	0.1	0	0	334	0.2	334	335	6.6	99.5
2025-10-08T05:11	10	0	0.1	0	0	334	0.2	333	334	6.5	99.8
2025-10-08T05:12	10	0	0.1	0	0	333	0.2	333	334	6.5	99.7
2025-10-08T05:13	10	0	0.1	0	0	333	0.3	333	334	6.4	99.9
2025-10-08T05:14	10	0	0.2	0	1	333	0.2	333	334	6.3	100.0
2025-10-08T05:15	10	0	0.1	0	0	333	0.2	332	333	6.3	100.0
2025-10-08T05:16	10	0	0.1	0	1	333	0.3	333	334	6.3	99.8
2025-10-08T05:17	10	0	0.1	0	0	334	0.3	333	334	6.3	99.8
2025-10-08T05:18	10	0	0.1	0	0	334	0.4	334	335	6.2	100.1
2025-10-08T05:19	10	0	0.1	0	0	335	0.7	334	337	6.4	99.1
2025-10-08T05:20	10	0	0.1	0	0	337	0.7	336	338	6.7	99.0
2025-10-08T05:21	10	0	0.1	0	0	338	0.6	337	340	6.9	99.3
2025-10-08T05:22	10	0	0.1	0	0	339	0.3	339	340	6.9	99.6
2025-10-08T05:23	10	0	0.1	0	0	340	0.3	339	341	6.7	99.6
2025-10-08T05:24	10	0	0.1	0	0	341	0.3	340	341	6.7	99.5
2025-10-08T05:25	10	0	0.1	0	0	341	0.3	341	342	6.7	99.5
2025-10-08T05:26	10	0	0.1	0	0	341	0.3	340	342	6.6	99.7
2025-10-08T05:27	10	0	0.1	0	0	341	0.3	340	341	6.5	100.0
2025-10-08T05:28	10	0	0.1	0	1	341	0.3	341	342	6.6	99.7
2025-10-08T05:29	10	0	0.1	0	0	342	0.3	342	343	6.6	99.6
2025-10-08T05:30	10	0	0.1	0	0	343	0.3	342	343	6.7	99.5
2025-10-08T05:31	10	0	0.1	0	0	343	0.3	343	344	6.7	99.4
2025-10-08T05:32	10	0	0.1	0	1	343	0.2	343	344	6.7	99.7
2025-10-08T05:33	10	0	0.1	0	1	344	0.3	343	344	6.6	99.7
2025-10-08T05:34	10	0	0.1	0	1	344	0.3	343	344	6.6	99.8
2025-10-08T05:35	10	0	0.1	0	1	344	0.2	343	344	6.5	100.3
2025-10-08T05:36	10	0	0.1	0	1	344	0.2	343	344	6.4	100.1
2025-10-08T05:37	10	0	0.1	0	1	344	0.5	343	345	6.5	99.3
2025-10-08T05:38	10	0	0.1	0	1	344	0.2	343	344	6.8	99.6
2025-10-08T05:39	10	0	0.1	0	1	344	0.2	343	345	6.8	100.0
2025-10-08T05:40	10	1	0.1	0	1	344	0.2	344	344	6.7	99.8
2025-10-08T05:41	10	1	0.1	0	1	344	0.3	344	345	6.7	99.6
2025-10-08T05:42	10	1	0.1	0	1	344	0.3	343	345	6.9	99.6
2025-10-08T05:43	10	1	0.1	0	1	345	0.3	344	345	7.0	99.4
2025-10-08T05:44	10	1	0.1	0	1	345	0.3	343	345	6.9	100.1
2025-10-08T05:45	10	1	0.1	1	1	344	0.3	343	345	6.6	99.9
2025-10-08T05:46	10	1	0.1	1	1	344	0.2	343	344	6.5	99.7
2025-10-08T05:47	10	1	0.1	1	1	344	0.3	343	344	6.5	99.9
2025-10-08T05:48	10	1	0.1	1	1	343	0.3	343	344	6.5	99.9
2025-10-08T05:49	10	1	0.1	1	1	344	0.3	343	344	6.5	99.4
2025-10-08T05:50	10	1	0.1	1	1	344	0.3	343	344	6.5	99.1
2025-10-08T05:51	10	1	0.1	1	2	344	0.3	343	345	6.6	99.1
2025-10-08T05:52	10	2	0.1	1	2	344	0.2	344	345	6.5	99.4
2025-10-08T05:53	10	2	0.1	1	2	344	0.2	344	345	6.5	99.3
2025-10-08T05:54	10	2	0.1	2	2	344	0.2	343	344	6.4	99.1
2025-10-08T05:55	10	2	0.1	2	2	343	0.3	343	344	6.4	99.4
2025-10-08T05:56	10	2	0.1	2	2	343	0.2	342	343	6.3	99.6
2025-10-08T05:57	10	2	0.1	2	2	343	0.2	342	343	6.3	99.4
2025-10-08T05:58	10	2	0.1	2	2	342	0.3	341	343	6.3	99.2
2025-10-08T05:59	10	2	0.1	2	3	342	0.3	342	343	6.6	99.4
2025-10-08T06:00	10	2	0.1	2	3	342	0.2	341	342	6.6	99.6
2025-10-08T06:01	10	3	0.1	2	3	342	0.2	341	342	6.8	99.2
2025-10-08T06:02	10	3	0.1	2	3	342	0.3	341	342	6.9	99.5
2025-10-08T06:03	10	3	0.1	2	3	341	0.2	341	342	6.9	99.4
2025-10-08T06:04	10	3	0.1	3	3	341	0.3	340	342	6.8	99.3
2025-10-08T06:05	10	3	0.1	3	4	341	0.3	340	341	7.0	99.1
2025-10-08T06:06	10	4	0.1	3	4	340	0.3	340	341	7.2	99.2
2025-10-08T06:07	10	4	0.1	4	4	341	0.2	340	341	7.5	99.4
2025-10-08T06:08	10	4	0.2	4	5	340	0.4	339	341	7.4	99.8
2025-10-08T06:09	10	5	0.2	4	5	339	0.4	339	340	7.0	99.6
2025-10-08T06:10	10	5	0.1	5	5	339	0.2	339	340	6.8	98.5
2025-10-08T06:11	10	5	0.1	5	6	340	0.3	339	340	6.6	98.6
2025-10-08T06:12	10	6	0.2	6	6	340	0.3	340	341	6.6	99.0
2025-10-08T06:13	10	6	0.2	6	7	341	0.3	341	342	6.7	99.2
2025-10-08T06:14	10	7	0.1	6	7	342	0.3	341	343	6.7	99.0
2025-10-08T06:15	10	7	0.1	6	7	343	0.4	342	344	6.8	99.4
2025-10-08T06:16	10	7	0.1	6	7	344	0.3	344	345	6.9	99.7
2025-10-08T06:17	10	7	0.2	7	8	345	0.3	344	345	6.8	99.6
2025-10-08T06:18	10	8	0.2	7	8	346	0.3	345	346	6.9	98.6
2025-10-08T06:19	10	8	0.1	8	9	346	0.3	345	346	6.8	98.3
2025-10-08T06:20	10	9	0.1	8	9	346	0.2	346	347	6.8	98.2
2025-10-08T06:21	10	8	0.1	8	8	347	0.3	346	348	6.8	98.3
2025-10-08T06:22	10	9	0.1	8	9	347	0.2	346	347	6.8	98.3
2025-10-08T06:23	10	9	0.1	9	9	347	0.3	347	348	6.8	98.5
2025-10-08T06:24	10	9	0.1	9	9	347	0.2	347	348	6.8	98.7
2025-10-08T06:25	10	9	0.1	9	9	348	0.3	347	348	6.9	98.8
2025-10-08T06:26	10	9	0.1	9	10	348	0.2	347	348	6.9	98.9
2025-10-08T06:27	10	10	0.1	9	10	348	0.2	347	348	6.9	99.3
2025-10-08T06:28	10	10	0.1	10	10	348	0.2	348	348	6.9	99.3
2025-10-08T06:29	10	10	0.1	10	10	348	0.3	348	349	6.9	99.0
2025-10-08T06:30	10	10	0.1	10	11	348	0.2	348	349	6.9	99.0
2025-10-08T06:31	10	11	0.1	10	11	348	0.2	348	349	6.9	98.9
2025-10-08T06:32	10	11	0.1	11	11	349	0.2	348	349	6.9	98.9
2025-10-08T06:33	10	11	0.1	10	11	349	0.2	348	349	6.9	98.9
2025-10-08T06:34	10	10	0.1	10	11	349	0.2	348	349	6.9	99.1
2025-10-08T06:35	10	11	0.1	10	11	349	0.3	348	349	6.9	99.3
2025-10-08T06:36	10	11	0.1	11	11	349	0.3	349	350	7.0	99.5
2025-10-08T06:37	10	11	0.1	11	11	350	0.3	349	350	6.9	99.5
2025-10-08T06:38	10	12	0.1	11	12	350	0.3	350	351	7.0	99.9
2025-10-08T06:39	10	12	0.1	12	12	351	0.3	350	351	7.0	100.0
2025-10-08T06:40	10	12	0.1	12	12	351	0.2	350	351	7.0	99.9
2025-10-08T06:41	10	12	0.2	12	12	351	0.2	350	351	7.0	99.7
2025-10-08T06:42	10	13	0.3	12	13	351	0.3	351	352	7.1	99.4
2025-10-08T06:43	10	14	0.2	13	14	351	0.2	351	352	7.1	99.6
2025-10-08T06:44	10	13	0.1	13	14	352	0.2	351	352	7.1	99.6
2025-10-08T06:45	10	13	0.1	13	13	352	0.2	352	353	7.1	99.3
2025-10-08T06:46	10	13	0.1	13	13	352	0.2	352	353	7.1	99.4
2025-10-08T06:47	10	13	0.1	13	13	353	0.2	352	353	7.1	99.3
2025-10-08T06:48	10	13	0.1	13	13	353	0.3	352	353	7.1	99.3
2025-10-08T06:49	10	13	0.1	13	13	353	0.3	353	354	7.2	99.3
2025-10-08T06:50	10	13	0.1	13	13	354	0.3	353	354	7.2	99.3
2025-10-08T06:51	10	13	0.1	13	13	354	0.2	353	355	7.2	99.3
2025-10-08T06:52	10	12	0.2	12	13	354	0.2	354	355	7.2	99.4
2025-10-08T06:53	10	12	0.2	12	13	354	0.2	354	355	7.3	99.4
2025-10-08T06:54	10	13	0.2	13	13	354	0.2	354	355	7.3	99.2
2025-10-08T06:55	10	13	0.1	13	13	354	0.2	354	355	7.3	99.0
2025-10-08T06:56	10	13	0.1	13	13	355	0.2	354	355	7.4	99.0
2025-10-08T06:57	10	13	0.1	13	13	355	0.2	354	355	7.4	99.1
2025-10-08T06:58	10	13	0.1	13	13	355	0.2	354	355	7.4	99.2
2025-10-08T06:59	10	13	0.1	13	13	355	0.3	355	356	7.5	99.2
2025-10-08T07:00	10	13	0.2	13	13	356	0.3	355	356	7.6	99.3
2025-10-08T07:01	10	12	0.1	12	13	356	0.2	356	356	7.6	99.3
2025-10-08T07:02	10	12	0.1	12	12	356	0.2	356	357	7.7	99.2
2025-10-08T07:03	10	12	0.1	12	12	356	0.3	356	357	7.8	99.3
2025-10-08T07:04	10	12	0.1	12	12	356	0.2	356	357	7.8	99.3
2025-10-08T07:05	10	12	0.1	12	12	356	0.2	356	357	7.9	99.3
2025-10-08T07:06	10	12	0.1	12	12	357	0.2	356	357	7.9	99.2
2025-10-08T07:07	10	12	0.3	12	13	357	0.2	356	357	7.9	99.1
2025-10-08T07:08	10	13	0.2	13	13	357	0.3	356	358	8.0	99.1
2025-10-08T07:09	10	13	0.1	13	14	357	0.2	357	358	8.1	99.1
2025-10-08T07:10	10	12	0.8	11	13	358	0.3	357	358	8.1	98.9
2025-10-08T07:11	10	9	0.5	9	11	358	0.2	357	358	8.2	99.1
2025-10-08T07:12	10	10	0.6	9	11	358	0.2	357	358	8.2	99.0
2025-10-08T07:13	10	12	0.3	11	12	358	0.2	358	359	8.3	99.1
2025-10-08T07:14	10	11	0.2	11	12	358	0.2	358	359	8.3	99.2
2025-10-08T07:15	10	11	0.2	11	12	358	0.2	358	359	8.4	99.1
2025-10-08T07:16	10	12	0.2	12	12	359	0.3	358	359	8.4	99.2
2025-10-08T07:17	10	11	0.3	10	12	359	0.3	359	360	8.5	99.2
2025-10-08T07:18	10	11	0.4	10	12	359	0.3	358	360	8.5	98.8
2025-10-08T07:19	10	13	0.7	12	14	359	0.2	359	360	8.5	98.7
2025-10-08T07:20	10	15	0.2	14	15	359	0.2	359	360	8.5	98.7
2025-10-08T07:21	10	15	0.3	15	16	360	0.2	359	360	8.5	98.7
2025-10-08T07:22	10	16	0.3	16	17	360	0.3	359	361	8.5	98.7
2025-10-08T07:23	10	17	0.1	17	17	360	0.2	360	361	8.5	98.7
2025-10-08T07:24	10	16	1.0	14	17	361	0.3	360	361	8.5	98.7
2025-10-08T07:25	10	15	1.1	14	17	361	0.2	360	361	8.5	98.7
2025-10-08T07:26	10	18	0.2	17	18	361	0.3	361	362	8.5	98.7
2025-10-08T07:27	10	15	1.3	13	17	361	0.2	361	362	8.6	97.6
2025-10-08T07:28	10	14	0.7	13	15	361	0.2	361	362	8.7	96.3
2025-10-08T07:29	10	16	0.7	15	17	362	0.3	361	362	8.7	96.9
2025-10-08T07:30	10	17	0.1	17	17	362	0.2	361	362	8.8	97.4
2025-10-08T07:31	10	17	0.1	17	17	362	0.2	362	363	8.9	97.8
2025-10-08T07:32	10	17	0.1	17	17	363	0.3	362	363	8.9	97.7
2025-10-08T07:33	10	17	0.1	17	18	362	0.2	362	363	8.8	97.3
2025-10-08T07:34	10	18	0.1	18	18	362	0.3	361	363	8.8	97.4
2025-10-08T07:35	10	18	0.1	18	18	362	0.2	361	362	8.7	97.7
2025-10-08T07:36	10	18	0.1	18	18	362	0.2	362	363	8.8	97.5
2025-10-08T07:37	10	18	0.1	18	18	362	0.2	361	362	8.7	97.6
2025-10-08T07:38	10	18	0.1	18	19	362	0.2	362	363	8.7	97.3
2025-10-08T07:39	10	19	0.1	18	19	362	0.3	362	363	8.7	97.4
2025-10-08T07:40	10	19	0.3	18	19	363	0.2	362	363	8.8	97.4
2025-10-08T07:41	10	20	0.3	19	20	363	0.3	363	364	8.8	97.8
2025-10-08T07:42	10	21	0.3	20	22	364	0.3	363	364	8.8	98.0
2025-10-08T07:43	10	22	0.3	21	23	364	0.2	363	364	8.9	97.9
2025-10-08T07:44	10	23	0.3	23	24	364	0.2	363	364	9.0	98.0
2025-10-08T07:45	10	23	0.1	23	24	364	0.2	364	365	8.9	98.0
2025-10-08T07:46	10	23	0.3	22	23	365	0.3	364	365	9.0	98.2
2025-10-08T07:47	10	22	0.1	22	22	365	0.2	364	365	9.0	98.3
2025-10-08T07:48	10	22	0.2	22	23	365	0.2	364	365	9.0	98.2
2025-10-08T07:49	10	23	0.4	23	24	365	0.2	364	365	9.0	98.2
2025-10-08T07:50	10	25	0.5	24	26	365	0.2	365	366	9.0	98.2
2025-10-08T07:51	10	26	0.3	26	27	366	0.3	365	366	9.0	98.2
2025-10-08T07:52	10	27	0.1	27	27	366	0.2	366	367	9.1	97.9
2025-10-08T07:53	10	27	0.1	27	28	367	0.3	366	367	9.1	97.7
2025-10-08T07:54	10	27	0.1	27	27	367	0.3	366	367	9.1	97.5
2025-10-08T07:55	10	27	0.1	27	27	367	0.3	366	367	9.2	97.7
2025-10-08T07:56	10	28	0.4	27	28	367	0.2	366	367	9.2	97.4
2025-10-08T07:57	10	29	0.2	29	29	367	0.2	367	368	9.3	97.7
2025-10-08T07:58	10	29	0.1	29	29	368	0.3	367	368	9.3	97.6
2025-10-08T07:59	10	28	0.2	28	29	368	0.2	367	368	9.3	97.3
2025-10-08T08:00	10	28	0.1	28	28	368	0.2	367	368	9.3	97.2
2025-10-08T08:01	10	28	0.1	28	28	368	0.2	368	369	9.4	97.0
2025-10-08T08:02	10	28	0.2	27	28	368	0.2	367	368	9.4	97.1
2025-10-08T08:03	10	26	0.2	26	27	368	0.3	368	369	9.4	97.0
2025-10-08T08:04	10	29	1.0	27	30	369	0.2	368	369	9.4	97.1
2025-10-08T08:05	10	31	0.4	30	31	369	0.3	368	370	9.5	97.1
2025-10-08T08:06	10	31	0.2	31	32	369	0.2	369	370	9.5	97.2
2025-10-08T08:07	10	30	0.2	30	31	369	0.2	369	370	9.5	97.1
2025-10-08T08:08	10	30	0.1	30	30	370	0.3	369	370	9.5	97.1
2025-10-08T08:09	10	30	0.4	30	31	370	0.3	369	370	9.6	97.5
2025-10-08T08:10	10	30	0.2	30	31	370	0.3	369	370	9.5	97.5
2025-10-08T08:11	10	29	0.5	28	30	370	0.2	369	370	9.5	97.3
2025-10-08T08:12	10	28	0.4	27	29	369	0.2	369	370	9.6	97.4
2025-10-08T08:13	10	26	0.6	25	27	369	0.3	369	370	9.7	97.7
2025-10-08T08:14	10	25	0.5	24	25	369	0.2	368	369	9.5	97.7
2025-10-08T08:15	10	23	0.6	21	24	369	0.3	368	369	9.6	97.5
2025-10-08T08:16	10	21	0.3	20	21	368	0.3	367	369	9.6	97.8
2025-10-08T08:17	10	22	0.2	21	22	368	0.2	367	368	9.5	97.6
2025-10-08T08:18	10	22	0.1	22	22	367	0.3	367	368	9.5	97.4
2025-10-08T08:19	10	22	0.2	22	23	367	0.3	367	368	9.4	97.6
2025-10-08T08:20	10	22	0.2	22	23	367	0.3	367	368	9.5	97.6
2025-10-08T08:21	10	22	0.3	21	22	368	0.2	367	368	9.5	98.0
2025-10-08T08:22	10	21	0.2	20	21	368	0.3	368	369	9.5	97.8
2025-10-08T08:23	10	21	0.1	20	21	368	0.3	367	369	9.6	97.8
2025-10-08T08:24	10	21	0.2	21	21	368	0.2	367	369	9.6	98.0
2025-10-08T08:25	10	21	0.1	21	21	368	0.2	368	368	9.5	97.8
2025-10-08T08:26	10	21	0.2	20	21	368	0.3	367	368	9.5	97.7
2025-10-08T08:27	10	21	0.2	21	22	368	0.2	367	368	9.6	98.1
2025-10-08T08:28	10	22	0.1	22	22	368	0.2	367	369	9.6	98.4
2025-10-08T08:29	10	22	0.4	21	23	368	0.3	368	369	9.7	98.2
2025-10-08T08:30	10	23	0.3	23	24	369	0.3	368	370	9.8	98.2
2025-10-08T08:31	10	25	0.4	24	25	369	0.2	368	369	9.9	97.8
2025-10-08T08:32	10	26	0.4	25	27	369	0.2	368	369	9.7	97.7
2025-10-08T08:33	10	27	0.2	27	28	369	0.2	368	369	9.6	97.3
2025-10-08T08:34	10	26	1.0	24	28	369	0.2	369	370	9.7	97.2
2025-10-08T08:35	10	26	1.7	24	29	369	0.3	368	370	9.7	97.2
2025-10-08T08:36	10	32	1.4	29	34	369	0.2	368	369	9.6	97.0
2025-10-08T08:37	10	35	0.6	34	36	369	0.4	368	370	9.6	97.0
2025-10-08T08:38	10	36	0.2	35	36	370	0.4	369	371	9.6	96.6
2025-10-08T08:39	10	33	1.8	30	35	370	0.3	370	371	9.7	96.7
2025-10-08T08:40	10	30	0.7	29	31	371	0.2	370	371	9.7	96.8
2025-10-08T08:41	10	30	0.7	29	31	371	0.2	370	371	9.7	96.8
2025-10-08T08:42	10	30	0.9	29	31	371	0.2	370	372	9.8	96.7
2025-10-08T08:43	10	31	0.7	29	31	371	0.3	370	371	9.8	96.7
2025-10-08T08:44	10	25	1.6	24	29	371	0.3	370	371	9.7	96.3
2025-10-08T08:45	10	25	0.9	23	26	370	0.3	370	371	9.7	96.3
2025-10-08T08:46	10	29	1.3	27	31	371	0.5	370	372	9.8	96.2
2025-10-08T08:47	10	34	1.7	31	37	371	0.3	370	372	9.7	96.2
2025-10-08T08:48	10	38	0.4	37	39	372	0.3	371	372	9.7	96.5
2025-10-08T08:49	10	37	0.6	36	38	372	0.2	372	373	9.8	96.7
2025-10-08T08:50	10	35	0.6	34	36	372	0.2	372	373	9.9	96.3
2025-10-08T08:51	10	32	0.9	31	34	372	0.3	372	373	9.9	96.3
2025-10-08T08:52	10	36	1.5	33	38	373	0.2	372	373	9.9	96.3
2025-10-08T08:53	10	38	0.4	37	38	373	0.2	373	374	9.9	96.1
2025-10-08T08:54	10	36	0.1	36	37	374	0.2	373	374	9.9	96.2
2025-10-08T08:55	10	36	0.4	35	37	374	0.3	373	374	9.9	96.3
2025-10-08T08:56	10	35	0.4	34	35	373	0.3	372	374	9.9	96.2
2025-10-08T08:57	10	34	0.2	33	34	373	0.2	372	373	10.0	96.6
2025-10-08T08:58	10	34	0.2	34	34	373	0.3	372	373	9.9	96.2
2025-10-08T08:59	10	35	0.3	34	35	372	0.2	372	373	9.8	95.9
2025-10-08T09:00	10	36	0.5	35	37	373	0.3	372	373	9.9	96.0
2025-10-08T09:01	10	37	0.2	37	38	372	0.4	371	373	10.0	96.3
2025-10-08T09:02	10	38	0.1	37	38	372	0.2	371	372	9.8	95.8
2025-10-08T09:03	10	38	0.3	37	38	372	0.3	371	373	9.7	95.7
2025-10-08T09:04	10	36	0.2	36	37	372	0.2	372	373	9.8	95.9
2025-10-08T09:05	10	37	0.3	37	38	373	0.3	372	373	9.8	96.1
2025-10-08T09:06	10	38	0.4	38	39	373	0.4	373	374	9.9	96.2
2025-10-08T09:07	10	40	0.5	39	41	374	0.2	373	374	10.0	96.4
2025-10-08T09:08	10	42	0.3	41	42	374	0.3	373	374	9.9	96.4
2025-10-08T09:09	10	42	0.1	42	42	375	0.4	374	376	9.9	95.9
2025-10-08T09:10	10	42	0.3	41	42	375	0.4	374	376	10.0	95.9
2025-10-08T09:11	10	41	0.2	40	41	374	0.3	374	375	9.9	95.5
2025-10-08T09:12	10	40	0.4	39	40	374	0.3	373	375	9.9	95.5
2025-10-08T09:13	10	38	0.8	36	39	374	0.2	374	375	9.9	95.6
2025-10-08T09:14	10	35	0.7	34	36	374	0.3	374	375	9.9	95.4
2025-10-08T09:15	10	33	0.4	33	34	374	0.2	373	374	9.9	95.5
2025-10-08T09:16	10	33	0.2	32	33	373	0.3	373	374	10.0	95.6
2025-10-08T09:17	10	34	0.3	33	34	373	0.4	372	373	9.9	95.5
2025-10-08T09:18	10	35	0.3	34	35	373	0.3	372	373	9.9	95.8
2025-10-08T09:19	10	36	0.2	35	36	373	0.3	372	373	9.9	95.9
2025-10-08T09:20	10	36	0.1	36	36	373	0.3	373	374	9.9	95.9
2025-10-08T09:21	10	36	0.4	36	37	373	0.3	373	374	9.9	96.0
2025-10-08T09:22	10	38	0.5	37	39	374	0.3	373	374	10.0	95.9
2025-10-08T09:23	10	40	0.8	39	42	373	0.2	373	374	9.9	95.8
2025-10-08T09:24	10	43	0.7	41	44	374	0.4	373	375	9.9	95.7
2025-10-08T09:25	10	44	0.2	44	44	374	0.2	374	374	9.9	95.9
2025-10-08T09:26	10	44	0.2	44	44	374	0.3	374	375	9.8	95.7
2025-10-08T09:27	10	43	0.2	43	44	374	0.3	374	375	9.9	95.9
2025-10-08T09:28	10	42	0.1	42	43	375	0.3	374	376	9.9	96.0
2025-10-08T09:29	10	43	0.1	42	43	375	0.3	374	376	9.9	95.9
2025-10-08T09:30	10	43	0.1	43	43	376	0.4	375	376	10.1	95.9
2025-10-08T09:31	10	43	0.2	43	43	375	0.3	375	376	10.0	95.7
2025-10-08T09:32	10	41	0.7	40	43	375	0.2	374	375	10.0	95.3
2025-10-08T09:33	10	38	0.8	37	40	375	0.4	374	375	10.0	95.5
2025-10-08T09:34	10	37	0.2	37	38	374	0.3	373	375	9.9	95.3
2025-10-08T09:35	10	39	0.6	38	40	374	0.3	374	375	10.0	95.3
2025-10-08T09:36	10	42	0.9	40	43	375	0.6	374	376	10.1	95.5
2025-10-08T09:37	10	43	0.1	43	43	376	0.3	375	377	10.2	95.6
2025-10-08T09:38	10	42	0.3	42	43	377	0.3	376	377	10.2	95.2
2025-10-08T09:39	10	42	0.2	42	42	377	0.3	376	378	10.3	95.2
2025-10-08T09:40	10	43	0.2	42	43	377	0.2	377	378	10.2	94.7
2025-10-08T09:41	10	44	0.3	43	44	377	0.2	377	378	10.3	94.6
2025-10-08T09:42	10	45	0.3	44	45	377	0.4	377	378	10.2	94.1
2025-10-08T09:43	10	45	0.1	45	45	377	0.2	377	378	10.2	93.8
2025-10-08T09:44	10	45	0.1	45	45	378	0.4	378	379	10.3	94.2
2025-10-08T09:45	10	46	0.1	45	46	378	0.3	378	379	10.3	94.1
2025-10-08T09:46	10	46	0.2	45	46	378	0.3	378	379	10.3	94.0
2025-10-08T09:47	10	47	0.5	46	48	379	0.2	378	379	10.5	94.5
2025-10-08T09:48	10	49	0.4	48	49	379	0.2	379	380	10.3	93.8
2025-10-08T09:49	10	50	0.3	49	50	379	0.3	379	380	10.4	93.6
2025-10-08T09:50	10	49	0.7	48	50	380	0.3	379	380	10.6	93.7
2025-10-08T09:51	10	45	1.5	43	48	379	0.5	378	380	10.5	92.9
2025-10-08T09:52	10	42	0.5	42	43	379	0.2	378	379	10.5	92.8
2025-10-08T09:53	10	45	0.6	44	46	379	0.3	378	380	10.5	92.4
2025-10-08T09:54	10	44	0.3	44	45	379	0.4	378	380	10.5	92.6
2025-10-08T09:55	10	46	1.0	44	48	379	0.3	378	379	10.5	92.6
2025-10-08T09:56	10	48	0.2	48	48	379	0.2	379	380	10.5	92.4
2025-10-08T09:57	10	49	0.4	48	50	380	0.4	379	381	10.6	92.3
2025-10-08T09:58	10	50	0.2	49	50	380	0.3	379	381	10.6	92.7
2025-10-08T09:59	10	49	0.3	48	49	380	0.5	379	381	10.5	93.1
2025-10-08T10:00	10	48	0.2	48	49	379	0.3	378	380	10.4	92.9
2025-10-08T10:01	10	48	0.1	48	49	379	0.4	378	379	10.4	93.3
2025-10-08T10:02	10	49	0.4	48	50	379	0.5	378	380	10.5	93.2
2025-10-08T10:03	10	50	0.4	49	51	379	0.3	378	380	10.5	93.1
2025-10-08T10:04	10	51	0.2	50	52	380	0.3	379	381	10.5	93.0
2025-10-08T10:05	10	50	0.2	50	51	381	0.3	380	382	10.6	93.4
2025-10-08T10:06	10	50	0.1	50	50	381	0.3	380	381	10.6	93.0
2025-10-08T10:07	10	50	0.2	49	50	381	0.3	380	382	10.6	92.8
2025-10-08T10:08	10	50	0.1	49	50	381	0.6	380	382	10.7	93.2
2025-10-08T10:09	10	49	0.2	49	50	381	0.3	380	381	10.6	92.6
2025-10-08T10:10	10	48	0.4	48	49	381	0.3	380	382	10.8	93.5
2025-10-08T10:11	10	47	0.4	46	48	381	0.3	380	381	10.7	92.8
2025-10-08T10:12	10	45	0.6	45	46	381	0.3	380	381	10.8	92.9
2025-10-08T10:13	10	45	0.3	45	46	380	0.3	379	381	10.6	92.5
2025-10-08T10:14	10	44	0.6	43	45	379	0.6	377	380	10.6	92.6
2025-10-08T10:15	10	44	0.3	43	44	378	0.2	378	379	10.5	92.6
2025-10-08T10:16	10	45	0.6	44	46	378	0.2	378	379	10.4	92.8
2025-10-08T10:17	10	46	0.3	45	46	378	0.2	378	379	10.4	93.1
2025-10-08T10:18	10	44	0.4	44	45	378	0.3	378	379	10.6	93.3
2025-10-08T10:19	10	44	0.2	44	45	378	0.3	378	379	10.5	92.9
2025-10-08T10:20	10	45	0.1	45	45	379	0.3	378	379	10.5	92.7
2025-10-08T10:21	10	45	0.1	45	45	379	0.5	379	381	10.6	92.8
2025-10-08T10:22	10	44	0.6	43	45	380	0.2	379	380	10.6	93.0
2025-10-08T10:23	10	42	0.7	41	43	379	0.5	378	380	10.6	92.5
2025-10-08T10:24	10	40	0.3	40	41	378	0.2	377	378	10.6	92.5
2025-10-08T10:25	10	40	0.1	40	40	378	0.2	377	378	10.6	92.7
2025-10-08T10:26	10	40	0.1	40	40	377	0.2	377	377	10.5	92.5
2025-10-08T10:27	10	39	0.3	39	40	378	0.4	377	379	10.6	92.7
2025-10-08T10:28	10	39	0.1	39	39	379	0.2	378	379	10.7	92.5
2025-10-08T10:29	10	40	0.4	39	40	378	0.4	377	379	10.8	92.4
2025-10-08T10:30	10	40	0.1	40	41	377	0.3	377	378	10.7	92.4
2025-10-08T10:31	10	41	0.1	41	41	378	0.2	377	378	10.7	92.9
2025-10-08T10:32	10	41	0.2	40	41	378	0.2	377	378	10.7	92.7
2025-10-08T10:33	10	40	0.3	39	40	378	0.3	377	379	10.7	92.5
2025-10-08T10:34	10	39	0.1	39	39	378	0.2	378	379	10.7	92.4
2025-10-08T10:35	10	40	0.2	39	40	378	0.4	377	379	10.7	92.2
2025-10-08T10:36	10	41	0.8	40	42	380	0.4	379	381	10.9	92.6
2025-10-08T10:37	10	42	0.2	42	42	379	0.6	378	380	10.8	92.3
2025-10-08T10:38	10	43	0.5	42	43	378	0.3	378	379	10.7	92.2
2025-10-08T10:39	10	43	0.3	42	43	378	0.2	377	378	10.6	92.7
2025-10-08T10:40	10	42	0.2	42	43	378	0.2	377	378	10.7	92.8
2025-10-08T10:41	10	43	0.1	43	43	378	0.2	378	379	10.6	92.6
2025-10-08T10:42	10	42	0.3	42	43	379	0.3	378	379	10.7	92.5
2025-10-08T10:43	10	41	0.3	41	42	379	0.3	378	380	10.8	92.3
2025-10-08T10:44	10	41	0.1	41	41	379	0.3	379	380	10.9	92.4
2025-10-08T10:45	10	40	0.3	40	41	379	0.4	378	380	10.9	91.9
2025-10-08T10:46	10	40	0.2	40	40	378	0.3	378	379	10.8	91.5
2025-10-08T10:47	10	41	0.1	40	41	379	0.4	378	379	10.8	91.5
2025-10-08T10:48	10	40	0.3	39	40	379	0.3	379	380	10.8	91.3
2025-10-08T10:49	10	39	0.1	39	39	379	0.2	379	379	10.8	91.4
2025-10-08T10:50	10	39	0.3	38	39	379	0.3	379	380	10.9	91.9
2025-10-08T10:51	10	38	0.3	37	38	380	0.3	379	380	11.0	91.9
2025-10-08T10:52	10	36	0.5	35	37	379	0.3	378	379	11.0	91.4
2025-10-08T10:53	10	35	0.2	35	35	379	0.2	379	380	11.1	91.3
2025-10-08T10:54	10	34	0.3	34	35	379	0.3	378	380	11.0	90.9
2025-10-08T10:55	10	34	0.1	34	34	378	0.4	377	379	10.9	91.5
2025-10-08T10:56	10	34	0.2	34	34	378	0.3	376	378	10.9	91.4
2025-10-08T10:57	10	35	0.3	34	36	377	0.4	376	378	11.0	91.4
2025-10-08T10:58	10	37	1.0	36	39	377	0.4	376	377	10.9	91.3
2025-10-08T10:59	10	40	0.4	39	40	378	0.5	377	379	11.0	91.7
2025-10-08T11:00	10	41	0.5	40	42	379	0.3	378	379	11.0	91.6
2025-10-08T11:01	10	42	0.5	42	43	379	0.2	379	379	10.9	91.4
2025-10-08T11:02	10	45	0.6	43	45	379	0.4	378	380	11.0	91.6
2025-10-08T11:03	10	46	0.2	46	47	378	0.4	377	379	10.9	91.1
2025-10-08T11:04	10	47	0.2	46	47	378	0.4	377	379	10.8	91.1
2025-10-08T11:05	10	47	0.1	47	48	379	0.3	378	379	10.8	91.9
2025-10-08T11:06	10	48	0.2	47	48	380	0.4	379	380	10.9	92.1
2025-10-08T11:07	10	49	0.3	48	49	380	0.3	379	381	10.9	92.2
2025-10-08T11:08	10	50	0.5	49	51	380	0.2	379	380	10.9	91.9
2025-10-08T11:09	10	52	0.6	51	53	381	0.3	380	382	10.9	91.8
2025-10-08T11:10	10	54	0.9	53	55	381	0.3	381	382	10.9	91.4
2025-10-08T11:11	10	55	0.1	55	55	382	0.3	381	383	11.0	91.7
2025-10-08T11:12	10	55	0.1	55	55	382	0.3	382	383	11.0	91.7
2025-10-08T11:13	10	55	0.2	55	55	382	0.2	382	383	10.9	91.3
2025-10-08T11:14	10	55	0.2	55	55	383	0.2	382	383	10.9	91.4
2025-10-08T11:15	10	54	0.5	53	55	383	0.4	383	384	11.0	91.6
2025-10-08T11:16	10	52	0.9	50	53	384	0.2	383	384	11.0	91.5
2025-10-08T11:17	10	51	0.8	50	52	383	0.3	383	384	11.1	91.6
2025-10-08T11:18	10	52	0.1	52	53	383	0.2	383	384	11.0	91.0
2025-10-08T11:19	10	51	0.9	49	52	383	0.2	383	384	11.2	91.0
2025-10-08T11:20	10	48	0.6	47	49	384	0.2	383	384	11.3	90.6
2025-10-08T11:21	10	48	0.1	48	48	383	0.2	383	384	11.3	90.3
2025-10-08T11:22	10	48	0.2	48	48	384	0.2	383	384	11.3	90.1
2025-10-08T11:23	10	50	0.8	48	51	383	0.5	382	384	11.2	90.3
2025-10-08T11:24	10	51	0.2	50	51	382	0.5	382	383	11.1	90.8
2025-10-08T11:25	10	49	0.5	49	50	382	0.2	381	382	11.0	91.2
2025-10-08T11:26	10	51	1.6	49	54	382	0.3	382	383	11.0	91.3
2025-10-08T11:27	10	59	2.1	54	61	384	0.6	382	385	11.1	91.4
2025-10-08T11:28	10	63	1.2	61	65	385	0.5	384	386	11.1	91.3
2025-10-08T11:29	10	66	0.3	65	66	387	0.5	386	388	11.3	91.2
2025-10-08T11:30	10	67	1.2	66	70	387	0.4	386	388	11.3	91.1
2025-10-08T11:31	10	71	0.5	70	71	387	0.2	386	387	11.1	90.5
2025-10-08T11:32	10	68	0.5	68	69	387	0.4	387	388	11.1	90.7
2025-10-08T11:33	10	68	0.1	68	68	388	0.5	387	389	11.4	91.1
2025-10-08T11:34	10	70	1.9	68	73	386	0.5	385	387	11.3	90.2
2025-10-08T11:35	10	75	0.8	74	76	387	0.8	385	389	11.3	90.7
2025-10-08T11:36	10	76	0.4	75	77	389	0.4	388	390	11.3	90.6
2025-10-08T11:37	10	78	0.7	77	80	389	0.3	388	389	11.3	89.7
2025-10-08T11:38	10	83	2.5	80	89	390	0.8	389	391	11.4	89.3
2025-10-08T11:39	10	89	0.8	87	90	392	0.5	391	393	11.5	89.5
2025-10-08T11:40	10	85	1.4	83	88	392	0.8	390	393	11.4	89.1
2025-10-08T11:41	10	80	2.2	75	83	391	0.3	390	391	11.4	89.4
2025-10-08T11:42	10	71	2.0	68	75	390	0.6	389	391	11.4	89.7
2025-10-08T11:43	10	68	0.2	67	68	388	0.5	387	390	11.4	89.6
2025-10-08T11:44	10	67	0.8	65	68	389	0.3	388	389	11.4	89.7
2025-10-08T11:45	10	65	0.4	64	65	389	0.4	389	390	11.6	89.6
2025-10-08T11:46	10	64	0.4	63	65	389	0.4	388	390	11.7	89.7
2025-10-08T11:47	10	65	0.4	65	66	390	0.3	389	390	11.7	89.4
2025-10-08T11:48	10	65	0.2	65	66	390	0.3	389	391	11.7	88.8
2025-10-08T11:49	10	65	0.1	65	65	391	0.3	390	391	11.8	89.1
2025-10-08T11:50	10	64	0.5	63	65	390	0.5	389	391	11.9	89.1
2025-10-08T11:51	10	62	1.5	59	64	389	0.4	388	390	11.8	88.4
2025-10-08T11:52	10	59	0.5	58	60	389	0.2	388	389	11.7	89.2
2025-10-08T11:53	10	61	0.6	60	62	389	0.3	388	389	11.6	89.3
2025-10-08T11:54	10	62	0.2	62	62	389	0.3	388	389	11.6	89.4
2025-10-08T11:55	10	62	0.3	62	63	389	0.3	388	389	11.7	89.4
2025-10-08T11:56	10	64	1.0	63	66	388	0.2	388	389	11.6	89.1
2025-10-08T11:57	10	67	0.4	66	67	388	0.2	388	389	11.6	89.0
2025-10-08T11:58	10	61	3.0	56	66	388	0.3	388	389	11.6	88.9
2025-10-08T11:59	10	56	0.1	56	57	388	0.2	388	389	11.7	89.0
2025-10-08T12:00	10	57	0.3	56	57	388	0.2	388	389	11.8	89.2
2025-10-08T12:01	10	56	0.8	54	57	388	0.2	388	389	11.8	88.8
2025-10-08T12:02	10	55	0.2	54	55	389	0.3	388	390	11.9	88.9
2025-10-08T12:03	10	54	0.3	53	55	389	0.3	388	390	11.9	88.5
2025-10-08T12:04	10	52	0.4	52	53	388	0.3	388	389	12.0	88.4
2025-10-08T12:05	10	53	0.8	52	54	388	0.2	388	389	12.1	88.3
2025-10-08T12:06	10	55	0.3	54	55	388	0.2	388	389	12.0	87.9
2025-10-08T12:07	10	57	1.0	56	59	389	0.2	388	389	12.1	88.4
2025-10-08T12:08	10	60	0.7	59	61	388	0.3	388	389	11.9	87.6
2025-10-08T12:09	10	64	1.3	61	66	389	0.3	388	389	11.9	87.5
2025-10-08T12:10	10	67	0.6	66	68	390	0.8	388	391	11.9	88.3
2025-10-08T12:11	10	71	1.7	68	74	390	0.3	389	390	11.9	88.2
2025-10-08T12:12	10	76	0.7	74	77	391	0.7	390	392	11.8	88.2
2025-10-08T12:13	10	74	0.6	73	75	391	0.7	390	393	11.8	88.3
2025-10-08T12:14	10	72	0.6	71	73	391	0.3	390	391	11.8	88.4
2025-10-08T12:15	10	71	0.3	70	71	391	0.2	391	392	11.9	88.8
2025-10-08T12:16	10	70	0.3	69	71	391	0.3	390	392	11.9	88.6
2025-10-08T12:17	10	69	0.4	68	70	391	0.5	390	392	12.0	88.3
2025-10-08T12:18	10	67	0.3	67	68	390	0.2	390	391	11.9	88.0
2025-10-08T12:19	10	67	0.2	67	68	390	0.3	389	391	11.9	88.3
2025-10-08T12:20	10	69	0.5	67	69	391	0.3	390	391	12.0	88.2
2025-10-08T12:21	10	69	0.2	68	69	390	0.4	389	391	11.9	87.7
2025-10-08T12:22	10	69	0.3	68	69	390	0.3	389	391	11.9	87.8
2025-10-08T12:23	10	70	0.4	69	71	391	0.4	390	392	12.0	87.9
2025-10-08T12:24	10	72	0.9	71	74	390	0.5	390	391	12.0	87.6
2025-10-08T12:25	10	75	0.6	74	76	391	0.6	390	393	12.0	87.5
2025-10-08T12:26	10	75	0.4	74	76	392	0.3	391	392	12.1	87.9
2025-10-08T12:27	10	75	0.4	75	76	392	0.4	391	392	12.1	87.6
2025-10-08T12:28	10	78	0.9	76	79	392	0.2	391	392	12.0	87.4
2025-10-08T12:29	10	80	0.4	79	80	393	0.4	392	394	12.1	87.5
2025-10-08T12:30	10	79	0.5	79	80	392	0.6	391	393	12.3	87.1
2025-10-08T12:31	10	80	0.6	79	81	392	0.3	391	392	12.3	86.8
2025-10-08T12:32	10	80	0.4	80	81	393	0.5	392	394	12.3	86.8
2025-10-08T12:33	10	80	0.4	80	81	392	0.8	391	393	12.3	86.4
2025-10-08T12:34	10	80	0.3	80	81	392	0.5	391	393	12.2	86.5
2025-10-08T12:35	10	82	0.5	81	83	393	0.4	391	393	12.2	86.1
2025-10-08T12:36	10	82	0.2	82	82	395	0.7	393	396	12.4	86.6
2025-10-08T12:37	10	82	0.4	81	83	394	0.6	393	395	12.4	86.1
2025-10-08T12:38	10	83	0.3	82	83	394	0.4	393	395	12.4	85.9
2025-10-08T12:39	10	81	0.5	80	82	394	0.4	393	395	12.3	85.7
2025-10-08T12:40	10	83	2.0	81	87	394	0.4	393	395	12.3	86.0
2025-10-08T12:41	10	90	1.9	87	94	396	1.1	394	398	12.4	86.3
2025-10-08T12:42	10	94	0.8	93	95	396	0.3	396	397	12.6	85.3
2025-10-08T12:43	10	97	2.2	94	100	398	0.7	397	399	12.7	85.1
2025-10-08T12:44	10	91	3.6	87	99	398	1.0	396	399	12.5	84.6
2025-10-08T12:45	10	83	1.8	81	87	396	0.4	395	397	12.4	84.9
2025-10-08T12:46	10	83	1.3	81	85	397	0.4	396	397	12.4	85.0
2025-10-08T12:47	10	82	1.9	80	85	397	0.4	397	398	12.7	85.1
2025-10-08T12:48	10	79	0.5	78	80	397	0.8	395	398	12.9	86.1
2025-10-08T12:49	10	78	0.2	78	79	394	0.9	393	396	12.5	84.6
2025-10-08T12:50	10	79	0.2	79	80	393	0.3	393	394	12.5	85.7
2025-10-08T12:51	10	79	0.2	78	79	393	0.4	392	394	12.4	85.9
2025-10-08T12:52	10	79	0.5	78	80	393	0.4	393	394	12.3	85.7
2025-10-08T12:53	10	84	1.5	81	87	395	0.7	394	396	12.4	85.7
2025-10-08T12:54	10	89	1.7	87	93	397	0.3	396	397	12.5	85.8
2025-10-08T12:55	10	97	2.1	93	100	397	0.4	396	398	12.4	85.7
2025-10-08T12:56	10	107	5.3	100	117	398	1.2	397	400	12.4	85.5
2025-10-08T12:57	10	129	6.8	117	138	403	1.9	399	406	12.6	84.8
2025-10-08T12:58	10	135	5.2	129	144	406	1.0	405	408	12.9	84.1
2025-10-08T12:59	10	131	5.6	124	141	407	0.5	406	408	13.0	84.3
2025-10-08T13:00	10	141	8.8	130	155	407	0.6	405	408	12.9	84.2
2025-10-08T13:01	10	134	5.8	125	142	406	0.4	405	407	12.8	84.4
2025-10-08T13:02	10	144	5.5	131	156	407	0.5	406	408	12.8	84.1
2025-10-08T13:03	10	156	6.1	147	165	409	0.7	407	410	12.9	84.4
2025-10-08T13:04	10	121	15.3	95	146	407	1.9	404	410	12.9	84.0
2025-10-08T13:05	10	86	3.0	84	94	400	2.7	397	406	12.7	84.2
2025-10-08T13:06	10	84	0.1	83	84	398	0.4	397	399	12.7	84.9
2025-10-08T13:07	10	84	0.2	84	85	398	0.3	398	399	12.8	84.3
2025-10-08T13:08	10	83	0.8	82	84	398	0.8	397	399	13.0	84.4
2025-10-08T13:09	10	90	6.3	82	102	397	0.4	396	398	12.8	84.2
2025-10-08T13:10	10	108	4.9	95	114	398	0.7	396	399	12.6	84.4
2025-10-08T13:11	10	91	1.2	89	95	398	0.2	397	398	12.7	84.3
2025-10-08T13:12	10	89	2.2	86	92	398	0.2	397	399	12.7	84.4
2025-10-08T13:13	10	84	2.0	82	91	397	0.5	396	398	12.7	84.3
2025-10-08T13:14	10	110	7.1	92	119	400	1.5	397	402	12.8	84.1
2025-10-08T13:15	10	85	8.4	78	108	400	1.5	397	402	12.9	84.0
2025-10-08T13:16	10	77	0.9	75	78	396	0.8	395	398	12.9	83.6
2025-10-08T13:17	10	75	0.2	74	75	397	0.5	396	398	13.0	83.4
2025-10-08T13:18	10	73	0.4	73	74	396	0.3	396	397	13.3	84.4
2025-10-08T13:19	10	72	0.6	71	73	396	0.3	395	397	13.3	83.5
2025-10-08T13:20	10	71	0.4	71	72	394	0.7	393	396	13.0	83.1
2025-10-08T13:21	10	74	1.2	72	76	394	0.3	393	395	12.8	83.5
2025-10-08T13:22	10	79	2.0	76	83	395	0.4	394	396	12.9	83.6
2025-10-08T13:23	10	87	2.7	83	93	397	0.9	395	399	12.9	83.3
2025-10-08T13:24	10	103	4.4	94	108	400	1.4	398	403	13.2	82.8
2025-10-08T13:25	10	109	2.4	107	114	403	0.5	402	404	13.4	83.1
2025-10-08T13:26	10	112	4.0	100	118	403	0.4	403	404	13.5	82.9
2025-10-08T13:27	10	93	3.9	86	99	402	0.7	400	403	13.3	82.5
2025-10-08T13:28	10	103	13.2	86	131	402	1.1	401	404	13.4	83.1
2025-10-08T13:29	10	120	8.7	106	132	404	0.6	402	405	13.5	83.3
2025-10-08T13:30	10	146	7.3	132	157	406	1.1	404	408	13.6	82.1
2025-10-08T13:31	10	158	3.8	144	161	409	1.1	407	411	13.5	82.1
2025-10-08T13:32	10	147	8.9	135	157	408	0.8	407	410	13.3	82.2
2025-10-08T13:33	10	151	1.9	148	156	410	0.5	408	411	13.4	83.7
2025-10-08T13:34	10	152	0.5	151	153	408	0.7	407	410	13.4	82.9
2025-10-08T13:35	10	146	4.3	139	152	406	1.1	405	409	13.1	83.0
2025-10-08T13:36	10	128	9.5	100	139	406	0.7	404	407	13.1	83.8
2025-10-08T13:37	10	81	5.9	75	98	401	2.2	398	406	13.2	83.8
2025-10-08T13:38	10	100	6.2	86	109	399	0.5	398	400	13.1	84.1
2025-10-08T13:39	10	103	5.5	98	115	399	0.6	398	400	13.0	84.3
2025-10-08T13:40	10	107	10.0	95	128	400	0.8	398	401	13.1	84.2
2025-10-08T13:41	10	133	7.8	121	143	402	1.5	400	405	13.1	84.2
2025-10-08T13:42	10	143	1.7	141	146	403	0.8	402	405	13.0	84.1
2025-10-08T13:43	10	147	0.4	146	147	406	0.5	405	407	13.2	83.9
2025-10-08T13:44	10	147	0.7	146	148	405	0.4	404	406	13.1	83.5
2025-10-08T13:45	10	148	0.2	147	148	406	0.3	406	407	13.0	83.8
2025-10-08T13:46	10	141	5.2	129	147	405	0.2	405	406	13.0	83.9
2025-10-08T13:47	10	118	4.1	114	129	405	0.3	405	406	13.4	84.6
2025-10-08T13:48	10	123	3.3	115	128	404	1.5	402	406	13.4	83.3
2025-10-08T13:49	10	125	2.0	122	128	403	0.2	402	403	13.1	83.6
2025-10-08T13:50	10	125	2.1	121	128	402	0.8	401	404	13.2	84.3
2025-10-08T13:51	10	119	4.2	113	126	400	0.6	399	401	13.0	84.2
2025-10-08T13:52	10	129	0.9	127	130	401	0.4	401	402	12.9	84.2
2025-10-08T13:53	10	123	5.0	116	130	402	0.4	401	403	13.1	84.3
2025-10-08T13:54	10	114	0.8	113	116	401	1.0	399	402	13.0	84.0
2025-10-08T13:55	10	119	1.6	115	122	401	0.8	399	402	12.9	84.0
2025-10-08T13:56	10	119	1.6	115	121	402	0.6	401	403	13.2	84.4
2025-10-08T13:57	10	106	3.0	103	114	400	0.4	399	401	13.1	84.6
2025-10-08T13:58	10	109	4.3	99	112	400	0.3	399	400	13.0	84.0
2025-10-08T13:59	10	111	4.7	100	118	401	0.8	400	402	13.1	84.4
2025-10-08T14:00	10	117	1.8	114	119	402	0.3	402	403	13.3	83.8
2025-10-08T14:01	10	104	7.8	92	114	401	1.5	399	404	13.5	83.0
2025-10-08T14:02	10	88	3.9	82	94	398	0.5	397	399	13.5	82.4
2025-10-08T14:03	10	75	7.5	67	92	396	1.5	394	399	13.5	82.3
2025-10-08T14:04	10	83	4.9	75	93	395	0.3	394	396	13.2	82.8
2025-10-08T14:05	10	97	1.9	93	100	396	0.8	394	397	13.2	83.5
2025-10-08T14:06	10	100	0.6	99	101	397	0.4	396	397	13.2	83.7
2025-10-08T14:07	10	101	0.9	100	103	397	0.3	396	398	13.1	83.4
2025-10-08T14:08	10	106	2.0	103	110	397	0.6	396	399	13.1	83.5
2025-10-08T14:09	10	111	0.4	110	111	399	0.3	398	400	13.1	83.3
2025-10-08T14:10	10	106	5.3	93	111	399	0.5	398	399	13.2	83.4
2025-10-08T14:11	10	91	0.5	90	93	397	0.3	397	398	13.2	83.3
2025-10-08T14:12	10	96	2.5	91	100	398	0.2	397	398	13.3	83.3
2025-10-08T14:13	10	103	1.6	100	105	398	0.4	397	399	13.3	82.8
2025-10-08T14:14	10	106	0.8	105	108	399	0.6	398	400	13.3	82.7
2025-10-08T14:15	10	108	0.2	107	108	399	0.3	398	399	13.4	82.1
2025-10-08T14:16	10	106	0.9	105	107	399	0.3	398	400	13.5	82.9
2025-10-08T14:17	10	104	2.1	98	106	399	0.2	398	400	13.5	82.3
2025-10-08T14:18	10	89	3.3	85	97	398	0.9	396	399	13.5	81.7
2025-10-08T14:19	10	93	2.8	88	96	397	0.3	396	397	13.4	82.1
2025-10-08T14:20	10	96	0.3	95	96	398	0.4	397	398	13.8	83.4
2025-10-08T14:21	10	92	1.9	88	95	397	0.5	396	398	13.7	82.4
2025-10-08T14:22	10	84	1.9	82	88	394	1.3	392	397	13.4	82.8
2025-10-08T14:23	10	88	3.4	83	92	393	0.2	392	394	13.3	83.7
2025-10-08T14:24	10	91	0.3	90	92	392	0.2	392	393	13.2	84.2
2025-10-08T14:25	10	91	0.3	90	92	392	0.3	392	393	13.1	84.2
2025-10-08T14:26	10	90	1.6	89	95	393	0.4	392	394	13.1	84.0
2025-10-08T14:27	10	92	4.0	84	96	393	0.4	393	394	13.2	84.0
2025-10-08T14:28	10	82	0.9	81	84	393	0.4	392	394	13.3	83.9
2025-10-08T14:29	10	85	0.7	84	86	393	0.3	392	393	13.5	83.6
2025-10-08T14:30	10	87	2.2	84	92	393	0.4	392	394	13.4	83.0
2025-10-08T14:31	10	92	1.6	90	94	394	0.6	392	395	13.5	83.3
2025-10-08T14:32	10	87	1.4	86	90	392	0.5	391	393	13.4	82.9
2025-10-08T14:33	10	94	2.8	89	98	393	0.5	392	394	13.5	83.5
2025-10-08T14:34	10	93	2.7	89	97	393	0.3	392	394	13.3	83.9
2025-10-08T14:35	10	90	1.5	88	93	392	0.3	392	393	13.3	84.3
2025-10-08T14:36	10	97	1.3	94	98	393	0.6	392	394	13.3	84.0
2025-10-08T14:37	10	94	3.4	84	97	393	0.3	393	394	13.3	84.0
2025-10-08T14:38	10	82	4.4	76	88	393	0.4	392	394	13.3	83.7
2025-10-08T14:39	10	68	9.3	56	86	391	1.6	388	393	13.4	83.9
2025-10-08T14:40	10	67	9.2	54	79	389	0.8	388	390	13.2	83.6
2025-10-08T14:41	10	79	5.0	63	83	390	0.9	388	391	13.2	83.9
2025-10-08T14:42	10	74	7.4	55	83	391	0.4	390	392	13.3	83.8
2025-10-08T14:43	10	63	13.4	44	80	389	0.8	388	391	13.4	83.8
2025-10-08T14:44	10	80	2.0	76	83	391	0.5	390	392	13.5	84.0
2025-10-08T14:45	10	78	3.3	73	83	391	0.4	391	392	13.5	83.9
2025-10-08T14:46	10	80	2.0	77	83	392	0.5	391	393	13.5	83.9
2025-10-08T14:47	10	72	2.4	69	77	390	0.6	389	392	13.4	83.9
2025-10-08T14:48	10	71	1.4	70	73	389	0.4	388	390	13.2	84.1
2025-10-08T14:49	10	71	1.5	69	75	388	0.3	387	389	13.1	84.8
2025-10-08T14:50	10	81	2.1	75	83	389	0.5	387	389	13.1	84.8
2025-10-08T14:51	10	81	2.5	77	84	389	0.3	388	390	13.1	85.3
2025-10-08T14:52	10	90	2.5	84	93	390	0.8	389	391	13.0	85.3
2025-10-08T14:53	10	92	1.5	87	93	392	0.4	391	392	13.1	85.4
2025-10-08T14:54	10	85	3.0	81	90	391	0.5	390	392	13.2	85.1
2025-10-08T14:55	10	91	0.4	90	92	392	0.5	391	393	13.3	85.1
2025-10-08T14:56	10	92	0.3	91	93	391	0.3	390	392	13.2	85.0
2025-10-08T14:57	10	90	0.9	88	91	390	0.5	390	392	13.2	84.8
2025-10-08T14:58	10	85	3.5	78	88	390	0.4	389	391	13.3	84.6
2025-10-08T14:59	10	81	1.8	78	83	390	0.2	390	391	13.3	84.5
2025-10-08T15:00	10	77	2.8	74	82	390	0.4	389	391	13.3	84.2
2025-10-08T15:01	10	79	0.5	79	81	390	0.3	389	390	13.3	84.0
2025-10-08T15:02	10	80	0.9	79	82	389	0.3	389	390	13.4	84.1
2025-10-08T15:03	10	78	5.8	63	82	390	0.3	389	390	13.4	84.0
2025-10-08T15:04	10	69	6.1	60	77	389	0.4	388	390	13.4	84.2
2025-10-08T15:05	10	78	0.4	77	79	389	0.5	388	390	13.4	84.3
2025-10-08T15:06	10	76	0.7	75	77	388	0.3	388	389	13.2	84.6
2025-10-08T15:07	10	71	5.6	55	75	389	0.4	388	390	13.3	84.7
2025-10-08T15:08	10	54	6.3	47	65	388	0.5	387	389	13.4	84.9
2025-10-08T15:09	10	62	1.5	60	65	388	0.3	387	388	13.5	84.6
2025-10-08T15:10	10	53	7.9	36	60	388	0.9	386	389	13.5	84.4
2025-10-08T15:11	10	31	1.5	30	36	384	1.0	383	386	13.4	83.9
2025-10-08T15:12	10	40	3.5	34	46	383	0.2	383	383	13.3	84.5
2025-10-08T15:13	10	42	5.4	29	47	383	0.3	382	384	13.3	84.5
2025-10-08T15:14	10	22	2.5	20	29	381	0.8	380	383	13.3	84.9
2025-10-08T15:15	10	26	3.8	20	32	380	0.3	379	381	13.3	84.9
2025-10-08T15:16	10	39	4.5	32	46	381	0.6	380	382	13.3	84.9
2025-10-08T15:17	10	40	3.7	34	46	382	0.3	381	382	13.3	84.6
2025-10-08T15:18	10	33	1.3	31	35	381	0.2	380	381	13.3	84.7
2025-10-08T15:19	10	35	0.5	34	36	381	0.2	380	381	13.2	85.3
2025-10-08T15:20	10	39	1.6	36	41	381	0.4	380	382	13.2	85.4
2025-10-08T15:21	10	42	0.9	41	43	381	0.2	381	382	13.2	85.1
2025-10-08T15:22	10	45	2.7	42	50	381	0.4	381	382	13.2	84.7
2025-10-08T15:23	10	53	1.1	51	54	383	0.5	381	384	13.3	84.7
2025-10-08T15:24	10	53	0.8	52	55	383	0.2	382	384	13.3	84.7
2025-10-08T15:25	10	57	0.9	55	58	383	0.4	383	384	13.3	84.5
2025-10-08T15:26	10	57	0.2	57	57	384	0.2	383	384	13.3	84.7
2025-10-08T15:27	10	58	0.5	57	59	384	0.2	383	384	13.3	85.3
2025-10-08T15:28	10	59	1.0	56	60	383	0.2	383	384	13.3	84.6
2025-10-08T15:29	10	51	3.1	46	56	383	0.4	382	384	13.3	84.7
2025-10-08T15:30	10	47	0.5	46	48	382	0.4	382	383	13.2	84.7
2025-10-08T15:31	10	45	1.1	43	46	382	0.3	381	382	13.2	84.8
2025-10-08T15:32	10	33	5.9	23	42	381	0.6	380	382	13.3	85.2
2025-10-08T15:33	10	20	1.1	19	23	378	0.9	377	380	13.3	84.8
2025-10-08T15:34	10	23	1.9	20	25	378	0.2	377	378	13.2	84.8
2025-10-08T15:35	10	24	1.0	22	25	377	0.2	377	378	13.2	85.3
2025-10-08T15:36	10	21	0.7	20	22	377	0.4	376	378	13.2	85.1
2025-10-08T15:37	10	20	0.8	19	22	376	0.2	376	376	13.1	85.2
2025-10-08T15:38	10	25	1.7	22	28	376	0.2	376	377	13.1	85.4
2025-10-08T15:39	10	26	1.1	24	28	376	0.2	376	377	13.1	85.6
2025-10-08T15:40	10	22	0.9	21	24	376	0.3	376	377	13.1	85.7
2025-10-08T15:41	10	20	0.7	18	21	376	0.3	375	376	13.1	85.8
2025-10-08T15:42	10	18	0.4	17	18	375	0.3	374	376	13.1	86.1
2025-10-08T15:43	10	17	0.2	16	17	375	0.3	374	376	13.1	86.2
2025-10-08T15:44	10	16	0.4	15	17	374	0.2	374	375	13.1	86.5
2025-10-08T15:45	10	15	0.2	15	15	374	0.2	374	375	13.0	86.5
2025-10-08T15:46	10	15	0.2	14	15	374	0.2	373	374	13.0	86.4
2025-10-08T15:47	10	14	0.1	14	15	374	0.3	373	374	13.0	86.7
2025-10-08T15:48	10	14	0.1	14	15	373	0.2	373	374	13.0	86.7
2025-10-08T15:49	10	14	0.2	14	15	373	0.2	373	374	13.0	86.9
2025-10-08T15:50	10	14	0.2	14	14	373	0.2	373	374	12.9	87.1
2025-10-08T15:51	10	14	0.2	13	15	373	0.2	372	374	12.9	87.6
2025-10-08T15:52	10	14	0.1	13	14	373	0.2	372	373	12.9	87.7
2025-10-08T15:53	10	13	0.2	13	14	372	0.3	372	373	12.9	87.4
2025-10-08T15:54	10	13	0.2	13	14	372	0.2	372	373	12.9	87.5
2025-10-08T15:55	10	13	0.2	13	14	372	0.2	371	372	12.9	87.7
2025-10-08T15:56	10	14	0.1	13	14	371	0.3	371	372	12.9	87.9
2025-10-08T15:57	10	14	0.4	14	15	371	0.2	371	372	12.9	87.9
2025-10-08T15:58	10	16	0.9	15	18	371	0.4	371	372	12.9	87.4
2025-10-08T15:59	10	19	0.7	18	20	372	0.3	371	372	12.9	87.5
2025-10-08T16:00	10	20	0.1	20	20	372	0.2	372	372	12.9	87.3
2025-10-08T16:01	10	24	3.0	20	30	373	0.5	372	374	12.9	87.2
2025-10-08T16:02	10	33	1.0	30	34	373	0.5	372	374	12.9	87.3
2025-10-08T16:03	10	33	0.2	32	33	374	0.2	374	375	12.9	87.1
2025-10-08T16:04	10	33	0.2	33	34	375	0.3	374	375	12.9	87.2
2025-10-08T16:05	10	33	0.2	32	33	375	0.3	374	375	12.9	87.3
2025-10-08T16:06	10	33	0.2	32	33	375	0.3	374	375	12.9	87.7
2025-10-08T16:07	10	33	0.1	32	33	375	0.2	374	375	12.9	87.7
2025-10-08T16:08	10	32	0.4	32	33	375	0.2	374	375	12.9	87.5
2025-10-08T16:09	10	34	0.4	33	34	375	0.2	374	375	12.9	87.1
2025-10-08T16:10	10	34	0.2	34	35	375	0.2	375	375	12.9	87.2
2025-10-08T16:11	10	35	0.1	35	36	375	0.2	374	375	12.9	87.2
2025-10-08T16:12	10	36	0.3	35	36	375	0.2	374	376	12.9	87.2
2025-10-08T16:13	10	36	0.1	36	36	375	0.2	374	375	12.8	87.3
2025-10-08T16:14	10	35	0.7	33	36	375	0.2	374	375	12.8	87.6
2025-10-08T16:15	10	30	1.5	28	33	375	0.3	374	376	12.8	87.7
2025-10-08T16:16	10	28	0.2	28	28	374	0.3	374	375	12.8	87.6
2025-10-08T16:17	10	31	1.2	28	32	374	0.2	374	375	12.8	87.8
2025-10-08T16:18	10	33	0.1	32	33	374	0.3	374	375	12.8	87.6
2025-10-08T16:19	10	32	0.4	31	32	374	0.3	374	375	12.8	87.8
2025-10-08T16:20	10	30	0.5	29	31	374	0.3	373	375	12.7	88.2
2025-10-08T16:21	10	29	0.2	29	29	374	0.3	373	374	12.7	88.2
2025-10-08T16:22	10	28	0.6	27	29	373	0.2	373	374	12.7	88.7
2025-10-08T16:23	10	25	1.2	23	27	373	0.2	373	374	12.6	89.3
2025-10-08T16:24	10	21	0.6	20	23	373	0.2	373	374	12.5	89.8
2025-10-08T16:25	10	21	0.1	20	21	373	0.2	372	373	12.5	89.8
2025-10-08T16:26	10	21	0.2	20	21	372	0.3	372	373	12.5	90.0
2025-10-08T16:27	10	21	0.2	20	21	372	0.2	372	373	12.5	89.7
2025-10-08T16:28	10	21	0.2	21	22	372	0.2	372	373	12.6	89.5
2025-10-08T16:29	10	20	1.0	19	22	372	0.3	371	372	12.6	89.3
2025-10-08T16:30	10	16	1.4	14	18	372	0.4	371	372	12.5	89.2
2025-10-08T16:31	10	12	0.6	12	14	371	0.3	371	372	12.4	89.2
2025-10-08T16:32	10	11	0.2	11	12	371	0.2	371	371	12.4	88.9
2025-10-08T16:33	10	11	0.2	11	11	370	0.2	370	371	12.4	89.2
2025-10-08T16:34	10	11	0.2	10	11	370	0.3	369	371	12.4	89.4
2025-10-08T16:35	10	10	0.2	10	11	369	0.2	369	370	12.4	89.8
2025-10-08T16:36	10	10	0.2	10	10	369	0.3	368	370	12.3	90.0
2025-10-08T16:37	10	10	0.1	9	10	369	0.2	368	369	12.3	90.1
2025-10-08T16:38	10	9	0.1	9	9	368	0.2	368	369	12.3	90.3
2025-10-08T16:39	10	9	0.3	8	9	368	0.3	367	368	12.3	90.2
2025-10-08T16:40	10	8	0.2	8	8	367	0.2	367	368	12.3	90.2
2025-10-08T16:41	10	7	0.1	7	8	367	0.2	367	368	12.3	90.3
2025-10-08T16:42	10	7	0.2	7	7	367	0.2	366	367	12.3	90.4
2025-10-08T16:43	10	6	0.1	6	7	366	0.2	366	367	12.2	90.7
2025-10-08T16:44	10	6	0.1	6	6	366	0.2	365	366	12.2	90.7
2025-10-08T16:45	10	6	0.1	5	6	365	0.3	365	366	12.2	90.5
2025-10-08T16:46	10	6	0.2	5	6	365	0.2	365	366	12.2	90.4
2025-10-08T16:47	10	5	0.2	5	5	365	0.2	365	365	12.2	90.5
2025-10-08T16:48	10	5	0.2	4	5	365	0.3	364	365	12.2	90.5
2025-10-08T16:49	10	4	0.2	4	4	364	0.2	364	365	12.2	90.6
2025-10-08T16:50	10	4	0.2	3	4	364	0.2	363	364	12.2	90.6
2025-10-08T16:51	10	3	0.1	3	3	364	0.2	363	364	12.1	90.9
2025-10-08T16:52	10	3	0.1	2	3	363	0.2	363	364	12.1	90.8
2025-10-08T16:53	10	2	0.2	2	3	363	0.2	362	363	12.1	90.9
2025-10-08T16:54	10	2	0.1	2	2	362	0.2	362	363	12.1	91.0
2025-10-08T16:55	10	2	0.1	2	2	362	0.3	362	363	12.1	90.9
2025-10-08T16:56	10	2	0.1	1	2	362	0.3	361	363	12.1	90.8
2025-10-08T16:57	10	1	0.1	1	2	361	0.3	361	362	12.1	91.0
2025-10-08T16:58	10	2	0.1	1	2	360	0.4	360	361	12.1	91.2
2025-10-08T16:59	10	2	0.1	1	2	360	0.3	359	360	12.0	91.4
2025-10-08T17:00	10	1	0.1	1	2	359	0.3	358	360	11.9	91.5
2025-10-08T17:01	10	1	0.1	1	1	358	0.3	358	359	11.9	91.7
2025-10-08T17:02	10	1	0.1	1	1	358	0.2	357	358	11.9	92.0
2025-10-08T17:03	10	1	0.1	1	1	358	0.2	357	358	11.8	92.2
2025-10-08T17:04	10	1	0.1	1	1	357	0.2	357	358	11.8	92.2
2025-10-08T17:05	10	1	0.1	1	1	357	0.2	356	357	11.8	92.4
2025-10-08T17:06	10	1	0.1	1	1	356	0.2	356	357	11.7	92.6
2025-10-08T17:07	10	1	0.1	1	1	356	0.2	356	357	11.7	92.6
2025-10-08T17:08	10	1	0.1	1	1	356	0.2	355	356	11.7	92.7
2025-10-08T17:09	10	1	0.1	1	1	356	0.2	355	356	11.7	93.0
2025-10-08T17:10	10	1	0.1	0	1	355	0.2	355	356	11.7	93.1
2025-10-08T17:11	10	1	0.1	1	1	355	0.2	355	356	11.7	93.1
2025-10-08T17:12	10	1	0.1	0	1	355	0.3	355	356	11.7	93.4
2025-10-08T17:13	10	1	0.1	0	1	355	0.2	354	356	11.7	93.3
2025-10-08T17:14	10	1	0.1	0	1	354	0.2	354	355	11.7	93.3
2025-10-08T17:15	10	1	0.1	0	1	354	0.2	354	355	11.7	93.4
2025-10-08T17:16	10	1	0.1	0	1	354	0.2	354	355	11.7	93.4
2025-10-08T17:17	10	0	0.1	0	1	354	0.2	354	355	11.7	93.5
2025-10-08T17:18	10	0	0.1	0	1	354	0.2	354	355	11.7	93.6
2025-10-08T17:19	10	0	0.2	0	1	354	0.3	354	355	11.6	93.6
2025-10-08T17:20	10	0	0.1	0	1	354	0.3	354	355	11.6	93.6
2025-10-08T17:21	10	0	0.2	0	1	354	0.2	354	354	11.6	93.7
2025-10-08T17:22	10	0	0.2	0	1	354	0.3	353	354	11.6	93.7
2025-10-08T17:23	10	0	0.2	0	1	354	0.3	353	354	11.6	93.7
2025-10-08T17:24	10	1	0.2	0	1	353	0.2	353	354	11.6	93.9
2025-10-08T17:25	10	0	0.1	0	1	353	0.2	353	354	11.6	93.9
2025-10-08T17:26	10	0	0.1	0	1	353	0.2	353	354	11.6	93.9
2025-10-08T17:27	10	0	0.1	0	1	353	0.2	353	354	11.5	93.9
2025-10-08T17:28	10	0	0.1	0	1	353	0.2	353	354	11.5	94.1
2025-10-08T17:29	10	0	0.1	0	1	353	0.2	352	353	11.4	94.4
2025-10-08T17:30	10	0	0.1	0	1	353	0.2	352	353	11.4	94.5
2025-10-08T17:31	10	0	0.1	0	1	352	0.3	352	353	11.4	94.5
2025-10-08T17:32	10	0	0.1	0	1	352	0.2	351	352	11.4	94.7
2025-10-08T17:33	10	0	0.0	0	1	352	0.2	351	352	11.4	94.6
2025-10-08T17:34	10	0	0.1	0	1	352	0.3	351	352	11.3	94.9
2025-10-08T17:35	10	0	0.1	0	1	351	0.2	351	352	11.3	95.3
2025-10-08T17:36	10	0	0.1	0	1	351	0.2	351	351	11.2	95.3
2025-10-08T17:37	10	0	0.1	0	1	351	0.3	351	352	11.1	95.4
2025-10-08T17:38	10	0	0.1	0	1	351	0.2	351	352	11.1	95.3
2025-10-08T17:39	10	0	0.1	0	1	351	0.2	351	352	11.1	95.3
2025-10-08T17:40	10	0	0.1	0	1	352	0.2	351	352	11.0	95.4
2025-10-08T17:41	10	0	0.1	0	1	352	0.2	351	352	11.0	95.4
2025-10-08T17:42	10	0	0.1	0	1	352	0.2	351	352	11.0	95.8
2025-10-08T17:43	10	0	0.1	0	1	352	0.2	351	352	11.0	96.2
2025-10-08T17:44	10	0	0.1	0	1	351	0.2	351	352	10.9	96.3
2025-10-08T17:45	10	0	0.0	0	1	351	0.2	351	352	10.9	96.2
2025-10-08T17:46	10	0	0.1	0	1	352	0.2	351	352	10.9	96.0
2025-10-08T17:47	10	0	0.1	0	1	351	0.2	351	352	10.9	96.1
2025-10-08T17:48	10	0	0.1	0	1	352	0.2	351	352	10.9	96.2
2025-10-08T17:49	10	0	0.1	0	1	352	0.2	351	352	10.9	96.5
2025-10-08T17:50	10	0	0.1	0	0	352	0.2	351	352	10.9	96.8
2025-10-08T17:51	10	0	0.1	0	1	352	0.3	351	352	10.9	96.9
2025-10-08T17:52	10	0	0.1	0	1	352	0.3	351	353	10.9	96.9
2025-10-08T17:53	10	0	0.1	0	1	352	0.2	352	352	10.9	97.2
2025-10-08T17:54	10	0	0.1	0	1	352	0.2	352	353	10.9	96.9
2025-10-08T17:55	10	0	0.1	0	1	352	0.2	352	353	10.8	97.3
2025-10-08T17:56	10	0	0.1	0	1	352	0.3	352	353	10.8	97.4
2025-10-08T17:57	10	0	0.1	0	1	352	0.2	352	353	10.8	97.0
2025-10-08T17:58	10	0	0.1	0	1	352	0.2	352	353	10.8	96.9
2025-10-08T17:59	10	0	0.1	0	1	353	0.3	352	353	10.9	96.5
2025-10-08T18:00	10	0	0.1	0	1	353	0.2	352	353	10.9	96.5
2025-10-08T18:01	10	0	0.1	0	1	353	0.2	352	353	10.9	96.6
2025-10-08T18:02	10	0	0.1	0	1	353	0.2	352	353	10.9	96.6
2025-10-08T18:03	10	0	0.1	0	1	353	0.2	352	353	10.9	96.6
2025-10-08T18:04	10	0	0.1	0	1	353	0.2	352	353	10.9	96.5
2025-10-08T18:05	10	0	0.1	0	1	353	0.2	352	353	10.9	96.5
2025-10-08T18:06	10	0	0.1	0	1	353	0.3	352	353	11.0	96.4
2025-10-08T18:07	10	0	0.1	0	1	353	0.2	352	354	11.0	96.4
2025-10-08T18:08	10	0	0.1	0	1	353	0.2	352	353	11.0	96.2
2025-10-08T18:09	10	0	0.1	0	1	353	0.2	352	353	11.0	96.3
2025-10-08T18:10	10	0	0.1	0	1	353	0.2	352	354	11.0	96.3
2025-10-08T18:11	10	0	0.1	0	1	353	0.3	352	354	10.9	96.3
2025-10-08T18:12	10	0	0.1	0	1	353	0.2	352	353	10.9	96.4
2025-10-08T18:13	10	0	0.1	0	1	352	0.2	352	353	10.9	96.4
2025-10-08T18:14	10	0	0.1	0	1	352	0.2	352	353	10.9	96.5
2025-10-08T18:15	10	0	0.1	0	1	352	0.2	352	352	10.9	96.6
2025-10-08T18:16	10	0	0.1	0	1	352	0.2	351	352	10.9	96.7
2025-10-08T18:17	10	0	0.1	0	1	352	0.2	351	352	10.8	96.9
2025-10-08T18:18	10	0	0.1	0	1	352	0.3	351	353	10.8	97.4
2025-10-08T18:19	10	0	0.1	0	1	352	0.2	352	353	10.7	97.6
2025-10-08T18:20	10	0	0.1	0	1	352	0.3	351	353	10.7	97.2
2025-10-08T18:21	10	0	0.1	0	1	352	0.2	351	352	10.7	96.9
2025-10-08T18:22	10	0	0.1	0	1	351	0.2	351	352	10.6	96.9
2025-10-08T18:23	10	0	0.1	0	1	351	0.2	350	351	10.6	97.2
2025-10-08T18:24	10	0	0.0	0	1	350	0.3	349	351	10.6	97.4
2025-10-08T18:25	10	0	0.1	0	1	350	0.2	349	350	10.6	97.4
2025-10-08T18:26	10	0	0.1	0	1	349	0.2	349	350	10.5	97.4
2025-10-08T18:27	10	0	0.1	0	1	349	0.2	349	350	10.5	97.5
2025-10-08T18:28	10	0	0.1	0	1	349	0.3	348	349	10.5	97.6
2025-10-08T18:29	10	0	0.1	0	1	349	0.2	349	350	10.5	97.6
2025-10-08T18:30	10	0	0.1	0	1	349	0.2	349	350	10.5	97.6
2025-10-08T18:31	10	0	0.1	0	1	349	0.2	349	350	10.6	97.6
2025-10-08T18:32	10	0	0.1	0	1	349	0.2	348	349	10.6	97.6
2025-10-08T18:33	10	0	0.1	0	0	349	0.2	348	349	10.6	97.4
2025-10-08T18:34	10	0	0.0	0	0	349	0.2	348	349	10.6	97.4
2025-10-08T18:35	10	0	0.1	0	1	349	0.2	348	349	10.6	97.6
2025-10-08T18:36	10	0	0.1	0	0	349	0.2	349	350	10.6	97.6
2025-10-08T18:37	10	0	0.1	0	0	349	0.2	349	350	10.6	98.0
2025-10-08T18:38	10	0	0.0	0	0	349	0.2	349	350	10.6	97.8
2025-10-08T18:39	10	0	0.1	0	1	349	0.2	349	350	10.6	97.8
2025-10-08T18:40	10	0	0.1	0	1	349	0.2	349	350	10.5	98.0
2025-10-08T18:41	10	0	0.1	0	1	349	0.2	348	349	10.5	98.4
2025-10-08T18:42	10	0	0.1	0	1	349	0.3	348	349	10.5	98.4
2025-10-08T18:43	10	0	0.1	0	1	348	0.2	348	349	10.4	98.0
2025-10-08T18:44	10	0	0.1	0	1	348	0.2	348	349	10.3	97.9
2025-10-08T18:45	10	0	0.1	0	0	348	0.3	347	348	10.2	98.3
2025-10-08T18:46	10	0	0.1	0	0	348	0.2	347	348	10.1	98.2
2025-10-08T18:47	10	0	0.1	0	0	347	0.3	347	348	10.1	98.1
2025-10-08T18:48	10	0	0.0	0	0	348	0.3	347	348	10.1	98.2
2025-10-08T18:49	10	0	0.1	0	0	348	0.2	347	348	10.2	98.6
2025-10-08T18:50	10	0	0.1	0	1	348	0.3	347	349	10.2	98.4
2025-10-08T18:51	10	0	0.1	0	1	348	0.2	348	349	10.3	98.3
2025-10-08T18:52	10	0	0.1	0	0	348	0.3	348	349	10.3	98.6
2025-10-08T18:53	10	0	0.1	0	1	348	0.2	348	349	10.3	98.5
2025-10-08T18:54	10	0	0.1	0	1	348	0.2	348	349	10.3	98.3
2025-10-08T18:55	10	0	0.1	0	1	349	0.2	348	349	10.3	98.4
2025-10-08T18:56	10	0	0.1	0	1	349	0.3	348	349	10.4	98.3
2025-10-08T18:57	10	0	0.1	0	1	349	0.2	348	349	10.4	98.5
2025-10-08T18:58	10	0	0.1	0	1	348	0.2	348	349	10.4	98.3
2025-10-08T18:59	10	0	0.1	0	1	349	0.3	348	349	10.3	98.2
2025-10-08T19:00	10	0	0.1	0	1	348	0.3	348	349	10.2	98.3
2025-10-08T19:01	10	0	0.2	0	1	348	0.1	348	349	10.1	98.4
2025-10-08T19:02	10	0	0.2	0	1	348	0.2	347	348	10.1	98.4
2025-10-08T19:03	10	0	0.1	0	1	348	0.3	348	349	10.1	97.9
2025-10-08T19:04	10	0	0.1	0	1	348	0.2	348	349	10.1	97.8
2025-10-08T19:05	10	0	0.1	0	0	348	0.3	348	349	10.1	98.1
2025-10-08T19:06	10	0	0.1	0	1	348	0.2	348	349	10.0	98.3
2025-10-08T19:07	10	0	0.1	0	1	348	0.3	348	349	10.1	98.6
2025-10-08T19:08	10	0	0.1	0	1	348	0.2	348	348	10.0	98.7
2025-10-08T19:09	10	0	0.1	0	1	348	0.3	347	349	10.1	98.9
2025-10-08T19:10	10	0	0.1	0	1	348	0.3	347	348	10.1	99.0
2025-10-08T19:11	10	0	0.1	0	0	348	0.2	347	348	10.0	99.2
2025-10-08T19:12	10	0	0.1	0	0	348	0.2	347	348	10.0	99.2
2025-10-08T19:13	10	0	0.1	0	0	348	0.2	347	348	10.0	99.3
2025-10-08T19:14	10	0	0.1	0	1	348	0.2	348	349	9.9	99.4
2025-10-08T19:15	10	0	0.1	0	0	349	0.3	348	349	9.9	99.5
2025-10-08T19:16	10	0	0.1	0	1	349	0.2	348	349	9.9	99.4
2025-10-08T19:17	10	0	0.1	0	1	348	0.2	348	349	9.8	99.5
2025-10-08T19:18	10	0	0.1	0	1	348	0.3	348	349	9.8	99.3
2025-10-08T19:19	10	0	0.1	0	1	348	0.2	347	348	9.8	97.6
2025-10-08T19:20	10	0	0.1	0	1	348	0.2	347	348	9.8	99.3
2025-10-08T19:21	10	0	0.1	0	1	348	0.2	347	348	9.8	96.0
2025-10-08T19:22	10	0	0.1	0	0	348	0.2	347	348	9.8	94.3
2025-10-08T19:23	10	0	0.1	0	0	347	0.2	347	348	9.8	99.3
2025-10-08T19:24	10	0	0.1	0	0	347	0.2	347	348	9.8	99.3
2025-10-08T19:25	10	0	0.1	0	0	347	0.2	347	348	9.8	99.3
2025-10-08T19:26	10	0	0.1	0	0	347	0.2	347	348	9.8	98.3
2025-10-08T19:27	10	0	0.1	0	0	347	0.3	347	348	9.8	97.6
2025-10-08T19:28	10	0	0.1	0	1	347	0.2	347	348	9.8	98.7
2025-10-08T19:29	10	0	0.1	0	1	347	0.3	347	348	9.8	99.4
2025-10-08T19:30	10	0	0.1	0	0	347	0.2	347	348	9.8	99.4
2025-10-08T19:31	10	0	0.1	0	0	347	0.2	347	347	9.8	99.5
2025-10-08T19:32	10	0	0.1	0	0	347	0.3	347	348	9.8	99.6
2025-10-08T19:33	10	0	0.0	0	0	347	0.2	347	348	9.9	99.6
2025-10-08T19:34	10	0	0.1	0	1	347	0.2	347	348	9.8	99.8
2025-10-08T19:35	10	0	0.1	0	0	347	0.2	346	347	9.9	99.8
2025-10-08T19:36	10	0	0.1	0	0	347	0.2	347	347	9.8	100.0
2025-10-08T19:37	10	0	0.1	0	1	347	0.2	346	347	9.8	100.2
2025-10-08T19:38	10	0	0.1	0	1	347	0.2	346	347	9.7	100.0
2025-10-08T19:39	10	0	0.1	0	0	347	0.2	346	347	9.7	100.0
2025-10-08T19:40	10	0	0.1	0	0	347	0.2	346	347	9.7	100.0
2025-10-08T19:41	10	0	0.1	0	0	347	0.2	346	347	9.6	99.9
2025-10-08T19:42	10	0	0.0	0	0	346	0.3	346	347	9.7	99.9
2025-10-08T19:43	10	0	0.1	0	0	346	0.2	345	347	9.6	100.0
2025-10-08T19:44	10	0	0.1	0	0	346	0.3	345	346	9.7	100.0
2025-10-08T19:45	10	0	0.1	0	0	346	0.2	345	346	9.6	100.0
2025-10-08T19:46	10	0	0.1	0	0	346	0.3	345	347	9.7	99.7
2025-10-08T19:47	10	0	0.1	0	0	346	0.2	345	346	9.8	99.9
2025-10-08T19:48	10	0	0.1	0	0	345	0.3	345	346	9.7	100.1
2025-10-08T19:49	10	0	0.1	0	0	346	0.2	345	346	9.6	100.0
2025-10-08T19:50	10	0	0.1	0	0	345	0.3	345	346	9.7	99.9
2025-10-08T19:51	10	0	0.1	0	0	345	0.3	345	346	9.7	100.3
2025-10-08T19:52	10	0	0.1	0	0	345	0.2	345	346	9.6	100.4
2025-10-08T19:53	10	0	0.1	0	0	345	0.3	345	346	9.6	100.2
2025-10-08T19:54	10	0	0.1	0	0	345	0.2	345	346	9.7	99.7
2025-10-08T19:55	10	0	0.1	0	0	345	0.3	345	346	9.8	99.6
2025-10-08T19:56	10	0	0.1	0	1	346	0.2	345	346	9.8	99.7
2025-10-08T19:57	10	0	0.1	0	0	346	0.2	345	346	9.9	99.8
2025-10-08T19:58	10	0	0.1	0	1	346	0.3	345	347	9.9	99.9
2025-10-08T19:59	10	0	0.1	0	0	346	0.3	346	347	9.9	99.9
2025-10-08T20:00	10	0	0.1	0	0	347	0.2	346	347	9.9	100.0
2025-10-08T20:01	10	0	0.1	0	1	347	0.3	347	348	9.9	100.3
2025-10-08T20:02	10	0	0.1	0	0	348	0.3	347	348	9.9	100.1
2025-10-08T20:03	10	0	0.1	0	1	349	0.2	348	349	9.9	100.2
2025-10-08T20:04	10	0	0.1	0	0	349	0.3	349	350	9.8	100.3
2025-10-08T20:05	10	0	0.1	0	0	350	0.3	349	350	9.8	100.1
2025-10-08T20:06	10	0	0.1	0	0	350	0.2	350	351	9.9	100.0
2025-10-08T20:07	10	0	0.1	0	0	351	0.3	350	352	9.9	99.9
2025-10-08T20:08	10	0	0.1	0	0	351	0.3	351	352	10.0	99.8
2025-10-08T20:09	10	0	0.1	0	1	352	0.3	351	352	9.9	100.1
2025-10-08T20:10	10	0	0.1	0	1	352	0.2	351	353	9.9	100.1
2025-10-08T20:11	10	0	0.1	0	1	353	0.3	352	353	9.9	100.2
2025-10-08T20:12	10	0	0.1	0	0	354	0.4	353	355	9.9	100.1
2025-10-08T20:13	10	0	0.1	0	0	355	0.5	354	356	10.0	100.3
2025-10-08T20:14	10	0	0.1	0	0	356	0.5	355	357	10.0	100.4
2025-10-08T20:15	10	0	0.1	0	0	357	0.3	357	358	10.0	100.5
2025-10-08T20:16	10	0	0.1	0	0	358	0.3	357	359	10.0	100.6
2025-10-08T20:17	10	0	0.1	0	0	359	0.3	358	359	10.0	100.7
2025-10-08T20:18	10	0	0.1	0	0	359	0.2	359	360	9.9	100.7
2025-10-08T20:19	10	0	0.1	0	0	359	0.2	359	360	9.9	100.8
2025-10-08T20:20	10	0	0.1	0	1	360	0.2	359	360	9.9	100.6
2025-10-08T20:21	10	0	0.1	0	0	360	0.2	359	360	9.9	100.7
2025-10-08T20:22	10	0	0.1	0	0	360	0.3	360	361	9.9	100.8
2025-10-08T20:23	10	0	0.1	0	0	360	0.2	360	361	9.9	101.0
2025-10-08T20:24	10	0	0.1	0	0	361	0.2	360	361	10.0	101.0
2025-10-08T20:25	10	0	0.1	0	0	361	0.2	360	361	9.9	101.1
2025-10-08T20:26	10	0	0.1	0	0	361	0.2	360	361	10.0	101.1
2025-10-08T20:27	10	0	0.1	0	0	361	0.2	360	361	9.9	101.3
2025-10-08T20:28	10	0	0.1	0	0	360	0.3	359	361	9.8	101.2
2025-10-08T20:29	10	0	0.1	0	0	360	0.2	360	361	9.8	101.1
2025-10-08T20:30	10	0	0.1	0	1	360	0.3	359	361	9.7	101.1
2025-10-08T20:31	10	0	0.1	0	0	360	0.2	360	360	9.7	101.3
2025-10-08T20:32	10	0	0.1	0	0	360	0.3	359	360	9.6	100.9
2025-10-08T20:33	10	0	0.1	0	0	360	0.2	359	360	9.6	100.9
2025-10-08T20:34	10	0	0.1	0	0	360	0.2	359	360	9.6	100.9
2025-10-08T20:35	10	0	0.1	0	0	360	0.3	360	361	9.6	100.9
2025-10-08T20:36	10	0	0.1	0	0	360	0.3	360	361	9.8	100.8
2025-10-08T20:37	10	0	0.1	0	0	361	0.2	360	361	9.8	101.0
2025-10-08T20:38	10	0	0.1	0	0	361	0.2	360	361	9.9	100.8
2025-10-08T20:39	10	0	0.1	0	0	361	0.2	361	362	9.9	100.9
2025-10-08T20:40	10	0	0.1	0	1	361	0.2	361	362	9.9	100.8
2025-10-08T20:41	10	0	0.1	0	1	361	0.2	361	362	10.0	101.0
2025-10-08T20:42	10	0	0.1	0	1	361	0.2	361	362	9.9	101.2
2025-10-08T20:43	10	0	0.1	0	0	361	0.3	361	362	9.8	101.0
2025-10-08T20:44	10	0	0.1	0	1	362	0.3	361	362	9.8	100.8
2025-10-08T20:45	10	0	0.1	0	0	362	0.2	361	362	9.9	100.8
2025-10-08T20:46	10	0	0.1	0	0	362	0.2	361	362	9.9	100.7
2025-10-08T20:47	10	0	0.1	0	1	362	0.2	361	362	9.9	100.7
2025-10-08T20:48	10	0	0.0	0	0	362	0.2	361	362	9.9	100.6
2025-10-08T20:49	10	0	0.1	0	0	362	0.2	362	362	9.9	100.4
2025-10-08T20:50	10	0	0.1	0	0	362	0.2	361	362	9.9	100.5
2025-10-08T20:51	10	0	0.1	0	1	362	0.2	361	362	9.9	100.5
2025-10-08T20:52	10	0	0.1	0	0	362	0.3	361	362	9.9	100.6
2025-10-08T20:53	10	0	0.1	0	0	362	0.2	361	362	9.9	100.6
2025-10-08T20:54	10	0	0.1	0	0	362	0.2	361	362	9.9	100.7
2025-10-08T20:55	10	0	0.1	0	0	362	0.2	362	362	9.9	100.9
2025-10-08T20:56	10	0	0.0	0	0	362	0.2	361	362	9.9	100.7
2025-10-08T20:57	10	0	0.1	0	1	362	0.2	361	362	9.9	100.6
2025-10-08T20:58	10	0	0.1	0	0	362	0.2	361	362	9.9	100.8
2025-10-08T20:59	10	0	0.1	0	0	362	0.2	361	362	9.9	100.6
2025-10-08T21:00	10	0	0.1	0	1	362	0.2	361	362	9.9	100.7
2025-10-08T21:01	10	0	0.0	0	0	362	0.2	361	362	10.0	100.6
2025-10-08T21:02	10	0	0.0	0	0	362	0.3	361	362	10.0	100.6
2025-10-08T21:03	10	0	0.1	0	1	362	0.2	361	362	10.0	100.9
2025-10-08T21:04	10	0	0.1	0	1	362	0.2	361	362	10.0	101.0
2025-10-08T21:05	10	0	0.1	0	1	362	0.2	361	362	10.0	100.9
2025-10-08T21:06	10	0	0.1	0	0	362	0.3	361	363	10.0	100.6
2025-10-08T21:07	10	0	0.1	0	0	362	0.2	362	363	10.0	100.7
2025-10-08T21:08	10	0	0.1	0	1	362	0.3	361	362	10.0	101.2
2025-10-08T21:09	10	0	0.1	0	0	362	0.2	361	363	10.0	101.2
2025-10-08T21:10	10	0	0.1	0	0	362	0.3	361	362	10.0	100.9
2025-10-08T21:11	10	0	0.1	0	0	362	0.4	361	363	9.9	100.8
2025-10-08T21:12	10	0	0.1	0	0	362	0.2	361	362	9.9	101.0
2025-10-08T21:13	10	0	0.1	0	0	361	0.2	361	362	9.9	100.9
2025-10-08T21:14	10	0	0.1	0	0	361	0.2	361	362	9.9	101.2
2025-10-08T21:15	10	0	0.1	0	0	361	0.2	361	362	9.9	101.0
2025-10-08T21:16	10	0	0.1	0	0	361	0.2	361	362	9.9	101.2
2025-10-08T21:17	10	0	0.1	0	0	361	0.2	361	362	9.9	101.2
2025-10-08T21:18	10	0	0.1	0	0	361	0.3	361	362	9.9	101.0
2025-10-08T21:19	10	0	0.1	0	0	362	0.2	361	362	9.9	101.1
2025-10-08T21:20	10	0	0.1	0	0	361	0.2	361	362	9.9	101.2
2025-10-08T21:21	10	0	0.1	0	0	361	0.3	361	362	9.9	101.2
2025-10-08T21:22	10	0	0.1	0	0	361	0.2	361	362	9.9	101.2
2025-10-08T21:23	10	0	0.1	0	0	362	0.2	361	362	9.9	101.4
2025-10-08T21:24	10	0	0.1	0	0	362	0.2	361	362	9.9	101.4
2025-10-08T21:25	10	0	0.1	0	0	361	0.2	361	362	9.9	101.2
2025-10-08T21:26	10	0	0.1	0	0	362	0.2	361	362	9.9	101.3
2025-10-08T21:27	10	0	0.1	0	0	362	0.2	361	362	9.9	101.4
2025-10-08T21:28	10	0	0.1	0	0	361	0.3	361	362	9.9	101.6
2025-10-08T21:29	10	0	0.1	0	0	361	0.3	361	362	9.9	101.5
2025-10-08T21:30	10	0	0.1	0	0	361	0.2	361	362	9.9	101.2
2025-10-08T21:31	10	0	0.1	0	0	361	0.2	361	362	9.9	101.4
2025-10-08T21:32	10	0	0.1	0	0	362	0.2	361	362	9.9	101.6
2025-10-08T21:33	10	0	0.1	0	0	362	0.3	361	362	9.9	101.6
2025-10-08T21:34	10	0	0.1	0	0	362	0.2	361	362	9.9	101.6
2025-10-08T21:35	10	0	0.1	0	0	362	0.2	361	362	9.9	101.3
2025-10-08T21:36	10	0	0.1	0	0	361	0.3	361	362	9.9	101.3
2025-10-08T21:37	10	0	0.1	0	0	362	0.2	361	362	9.9	101.8
2025-10-08T21:38	10	0	0.1	0	0	362	0.2	361	362	9.9	101.9
2025-10-08T21:39	10	0	0.1	0	0	362	0.3	361	362	9.9	101.5
2025-10-08T21:40	10	0	0.1	0	0	362	0.2	361	362	9.9	101.5
2025-10-08T21:41	10	0	0.1	0	0	362	0.3	361	362	9.9	101.7
2025-10-08T21:42	10	0	0.1	0	0	362	0.3	361	362	9.9	101.7
2025-10-08T21:43	10	0	0.1	0	0	362	0.3	361	362	9.9	101.5
2025-10-08T21:44	10	0	0.1	0	0	362	0.2	361	362	9.8	101.3
2025-10-08T21:45	10	0	0.1	0	0	362	0.2	361	362	9.9	101.5
2025-10-08T21:46	10	0	0.1	0	0	362	0.2	361	362	9.9	101.6
2025-10-08T21:47	10	0	0.1	0	0	362	0.3	361	362	9.9	101.6
2025-10-08T21:48	10	0	0.1	0	0	362	0.3	361	363	9.9	101.7
2025-10-08T21:49	10	0	0.1	0	0	362	0.2	361	363	9.9	101.7
2025-10-08T21:50	10	0	0.1	0	0	362	0.3	361	363	9.9	101.9
2025-10-08T21:51	10	0	0.1	0	0	362	0.3	362	363	9.9	102.1
2025-10-08T21:52	10	0	0.0	0	0	362	0.2	361	362	9.9	102.1
2025-10-08T21:53	10	0	0.1	0	0	362	0.3	361	362	9.9	101.9
2025-10-08T21:54	10	0	0.1	0	0	362	0.3	361	362	9.8	101.7
2025-10-08T21:55	10	0	0.1	0	0	362	0.2	361	362	9.8	101.6
2025-10-08T21:56	10	0	0.1	0	0	362	0.3	361	362	9.8	101.7
2025-10-08T21:57	10	0	0.1	0	0	361	0.2	361	362	9.8	101.5
2025-10-08T21:58	10	0	0.1	0	0	361	0.2	361	362	9.8	101.4
2025-10-08T21:59	10	0	0.0	0	0	361	0.2	361	362	9.8	101.3
2025-10-08T22:00	10	0	0.1	0	0	362	0.2	361	362	9.8	101.5
2025-10-08T22:01	10	0	0.1	0	0	361	0.2	361	362	9.8	101.6
2025-10-08T22:02	10	0	0.1	0	0	361	0.2	361	362	9.8	101.5
2025-10-08T22:03	10	0	0.1	0	0	361	0.2	361	362	9.8	101.6
2025-10-08T22:04	10	0	0.1	0	0	361	0.2	361	362	9.8	101.6
2025-10-08T22:05	10	0	0.1	0	0	361	0.2	361	362	9.8	101.4
2025-10-08T22:06	10	0	0.1	0	0	361	0.3	361	362	9.8	101.7
2025-10-08T22:07	10	0	0.1	0	0	361	0.2	361	362	9.8	101.5
2025-10-08T22:08	10	0	0.1	0	0	361	0.2	361	362	9.8	101.4
2025-10-08T22:09	10	0	0.1	0	0	361	0.2	361	362	9.7	101.6
2025-10-08T22:10	10	0	0.1	0	1	361	0.2	361	362	9.7	101.4
2025-10-08T22:11	10	0	0.1	0	0	361	0.2	361	362	9.7	101.6
2025-10-08T22:12	10	0	0.1	0	0	361	0.3	361	362	9.7	101.6
2025-10-08T22:13	10	0	0.1	0	0	361	0.2	361	362	9.7	101.6
2025-10-08T22:14	10	0	0.1	0	0	361	0.2	361	362	9.7	101.7
2025-10-08T22:15	10	0	0.1	0	0	361	0.2	361	362	9.7	101.9
2025-10-08T22:16	10	0	0.1	0	1	361	0.3	361	362	9.7	102.0
2025-10-08T22:17	10	0	0.1	0	0	362	0.3	361	362	9.8	102.1
2025-10-08T22:18	10	0	0.1	0	0	361	0.2	361	362	9.8	102.1
2025-10-08T22:19	10	0	0.1	0	1	362	0.2	361	362	9.8	102.1
2025-10-08T22:20	10	0	0.1	0	1	361	0.2	361	362	9.8	102.2
2025-10-08T22:21	10	0	0.1	0	0	361	0.2	361	362	9.8	102.1
2025-10-08T22:22	10	0	0.1	0	1	361	0.2	361	362	9.8	102.5
2025-10-08T22:23	10	0	0.1	0	1	362	0.2	361	362	9.8	102.4
2025-10-08T22:24	10	0	0.0	0	0	362	0.2	361	362	9.8	102.1
2025-10-08T22:25	10	0	0.1	0	0	362	0.3	361	362	9.8	101.5
2025-10-08T22:26	10	0	0.1	0	0	362	0.2	361	362	9.8	101.6
2025-10-08T22:27	10	0	0.0	0	0	362	0.2	361	362	9.8	101.7
2025-10-08T22:28	10	0	0.1	0	0	362	0.2	361	362	9.8	101.7
2025-10-08T22:29	10	0	0.1	0	0	362	0.3	361	362	9.8	101.5
2025-10-08T22:30	10	0	0.1	0	0	362	0.2	361	362	9.8	101.4
2025-10-08T22:31	10	0	0.1	0	0	361	0.2	361	362	9.8	101.4
2025-10-08T22:32	10	0	0.1	0	0	362	0.2	361	362	9.8	101.6
2025-10-08T22:33	10	0	0.1	0	0	361	0.2	361	362	9.8	101.5
2025-10-08T22:34	10	0	0.1	0	0	362	0.2	361	362	9.8	101.4
2025-10-08T22:35	10	0	0.1	0	0	362	0.2	361	362	9.8	101.4
2025-10-08T22:36	10	0	0.1	0	0	361	0.3	361	362	9.8	101.3
2025-10-08T22:37	10	0	0.1	0	1	361	0.2	361	362	9.8	101.5
2025-10-08T22:38	10	0	0.1	0	0	362	0.3	361	362	9.8	101.8
2025-10-08T22:39	10	0	0.1	0	0	362	0.2	361	362	9.8	101.6
2025-10-08T22:40	10	0	0.0	0	0	362	0.2	361	362	9.9	101.4
2025-10-08T22:41	10	0	0.1	0	0	362	0.2	361	362	9.8	101.6
2025-10-08T22:42	10	0	0.1	0	0	361	0.2	361	362	9.8	101.8
2025-10-08T22:43	10	0	0.1	0	0	361	0.3	361	362	9.8	101.8
2025-10-08T22:44	10	0	0.1	0	0	361	0.2	361	362	9.7	101.4
2025-10-08T22:45	10	0	0.1	0	0	361	0.2	360	361	9.7	101.7
2025-10-08T22:46	10	0	0.1	0	0	361	0.2	361	362	9.8	101.7
2025-10-08T22:47	10	0	0.1	0	0	361	0.3	361	362	9.7	101.6
2025-10-08T22:48	10	0	0.1	0	0	361	0.3	360	362	9.7	101.8
2025-10-08T22:49	10	0	0.1	0	0	361	0.2	360	361	9.7	101.5
2025-10-08T22:50	10	0	0.1	0	0	361	0.2	360	361	9.7	101.5
2025-10-08T22:51	10	0	0.1	0	0	361	0.2	360	361	9.7	101.5
2025-10-08T22:52	10	0	0.1	0	0	361	0.2	360	361	9.7	101.3
2025-10-08T22:53	10	0	0.1	0	0	361	0.3	360	361	9.6	101.3
2025-10-08T22:54	10	0	0.1	0	0	361	0.2	360	361	9.6	101.4
2025-10-08T22:55	10	0	0.1	0	0	360	0.2	360	361	9.6	101.4
2025-10-08T22:56	10	0	0.1	0	0	361	0.2	360	361	9.6	101.4
2025-10-08T22:57	10	0	0.1	0	0	360	0.2	360	361	9.6	101.6
2025-10-08T22:58	10	0	0.1	0	0	360	0.3	360	361	9.6	101.6
2025-10-08T22:59	10	0	0.1	0	0	360	0.2	360	361	9.5	101.3
2025-10-08T23:00	10	0	0.1	0	0	360	0.2	360	361	9.5	101.3
2025-10-08T23:01	10	0	0.1	0	0	360	0.2	360	360	9.5	101.4
2025-10-08T23:02	10	0	0.1	0	0	360	0.2	360	361	9.5	101.3
2025-10-08T23:03	10	0	0.1	0	0	360	0.3	359	360	9.5	101.4
2025-10-08T23:04	10	0	0.1	0	0	360	0.2	359	361	9.5	101.3
2025-10-08T23:05	10	0	0.1	0	0	360	0.2	360	361	9.5	101.5
2025-10-08T23:06	10	0	0.1	0	0	360	0.2	359	360	9.5	101.5
2025-10-08T23:07	10	0	0.1	0	0	360	0.2	359	360	9.4	101.5
2025-10-08T23:08	10	0	0.1	0	0	360	0.2	359	360	9.4	101.5
2025-10-08T23:09	10	0	0.1	0	0	360	0.2	359	360	9.4	101.6
2025-10-08T23:10	10	0	0.1	0	0	360	0.2	359	360	9.5	101.7
2025-10-08T23:11	10	0	0.1	0	1	360	0.3	359	360	9.4	101.9
2025-10-08T23:12	10	0	0.1	0	0	360	0.3	359	360	9.4	101.9
2025-10-08T23:13	10	0	0.1	0	0	360	0.2	359	360	9.4	102.1
2025-10-08T23:14	10	0	0.1	0	1	359	0.3	359	360	9.4	101.8
2025-10-08T23:15	10	0	0.1	0	0	360	0.2	359	360	9.5	101.8
2025-10-08T23:16	10	0	0.1	0	0	360	0.3	359	361	9.5	101.7
2025-10-08T23:17	10	0	0.1	0	0	360	0.2	360	361	9.5	101.7
2025-10-08T23:18	10	0	0.1	0	0	360	0.2	360	361	9.5	102.0
2025-10-08T23:19	10	0	0.1	0	0	360	0.3	360	361	9.5	102.1
2025-10-08T23:20	10	0	0.1	0	0	360	0.2	359	360	9.5	101.8
2025-10-08T23:21	10	0	0.1	0	0	360	0.2	360	360	9.5	101.4
2025-10-08T23:22	10	0	0.1	0	0	360	0.3	359	360	9.5	101.6
2025-10-08T23:23	10	0	0.1	0	0	360	0.2	359	361	9.5	101.8
2025-10-08T23:24	10	0	0.1	0	0	360	0.2	360	360	9.5	101.9
2025-10-08T23:25	10	0	0.1	0	1	360	0.3	360	361	9.5	102.1
2025-10-08T23:26	10	0	0.1	0	0	360	0.3	360	361	9.5	102.2
2025-10-08T23:27	10	0	0.1	0	0	360	0.2	360	361	9.6	102.0
2025-10-08T23:28	10	0	0.1	0	1	360	0.2	360	361	9.5	102.1
2025-10-08T23:29	10	0	0.1	0	0	360	0.2	360	361	9.5	102.2
2025-10-08T23:30	10	0	0.1	0	1	360	0.2	360	361	9.5	102.3
2025-10-08T23:31	10	0	0.1	0	0	360	0.2	360	361	9.5	101.9
2025-10-08T23:32	10	0	0.1	0	0	360	0.2	360	361	9.5	101.9
2025-10-08T23:33	10	0	0.1	0	0	360	0.2	360	361	9.5	102.0
2025-10-08T23:34	10	0	0.1	0	0	360	0.2	360	361	9.5	101.9
2025-10-08T23:35	10	0	0.1	0	0	360	0.2	359	361	9.5	101.8
2025-10-08T23:36	10	0	0.1	0	0	360	0.2	359	360	9.4	101.7
2025-10-08T23:37	10	0	0.1	0	0	360	0.2	359	360	9.4	101.7
2025-10-08T23:38	10	0	0.1	0	0	360	0.2	360	361	9.4	101.9
2025-10-08T23:39	10	0	0.1	0	0	360	0.2	359	360	9.4	101.9
2025-10-08T23:40	10	0	0.1	0	0	360	0.2	360	361	9.5	102.1
2025-10-08T23:41	10	0	0.1	0	0	360	0.2	360	361	9.5	102.2
2025-10-08T23:42	10	0	0.1	0	0	360	0.3	359	361	9.5	102.3
2025-10-08T23:43	10	0	0.1	0	0	360	0.2	360	361	9.5	102.4
2025-10-08T23:44	10	0	0.1	0	0	360	0.2	359	361	9.5	102.4
2025-10-08T23:45	10	0	0.1	0	1	360	0.2	360	361	9.5	102.1
2025-10-08T23:46	10	0	0.1	0	0	360	0.2	360	361	9.5	101.9
2025-10-08T23:47	10	0	0.1	0	0	360	0.2	359	360	9.4	102.2
2025-10-08T23:48	10	0	0.1	0	0	360	0.2	360	360	9.4	102.2
2025-10-08T23:49	10	0	0.1	0	0	360	0.3	359	361	9.4	102.1
2025-10-08T23:50	10	0	0.1	0	0	360	0.2	359	360	9.4	102.1
2025-10-08T23:51	10	0	0.1	0	1	360	0.2	360	360	9.4	102.0
2025-10-08T23:52	10	0	0.1	0	0	360	0.2	359	360	9.4	102.0
2025-10-08T23:53	10	0	0.1	0	0	360	0.3	359	360	9.4	101.9
2025-10-08T23:54	10	0	0.1	0	0	360	0.2	360	361	9.4	101.8
2025-10-08T23:55	10	0	0.1	0	0	360	0.2	359	360	9.4	101.9
2025-10-08T23:56	10	0	0.1	0	0	360	0.2	359	360	9.4	101.8
2025-10-08T23:57	10	0	0.1	0	0	360	0.2	359	360	9.4	101.7
2025-10-08T23:58	10	0	0.1	0	0	360	0.2	359	360	9.4	102.0
2025-10-08T23:59	10	0	0.1	0	0	360	0.2	360	361	9.4	101.9
2025-10-09T00:00	10	0	0.1	0	0	360	0.2	359	360	9.4	102.0
2025-10-09T00:01	10	0	0.1	0	0	360	0.2	359	360	9.4	102.2
2025-10-09T00:02	10	0	0.1	0	0	360	0.2	359	360	9.3	102.1
2025-10-09T00:03	10	0	0.1	0	0	360	0.2	359	360	9.3	101.8
2025-10-09T00:04	10	0	0.1	0	0	360	0.2	359	360	9.3	101.7
2025-10-09T00:05	10	0	0.1	0	0	360	0.2	359	360	9.3	101.7
2025-10-09T00:06	10	0	0.1	0	0	359	0.2	359	360	9.3	101.8
2025-10-09T00:07	10	0	0.1	0	0	360	0.2	359	360	9.3	102.0
2025-10-09T00:08	10	0	0.1	0	0	360	0.2	359	360	9.3	102.2
2025-10-09T00:09	10	0	0.1	0	0	360	0.2	359	360	9.3	102.0
2025-10-09T00:10	10	0	0.1	0	0	360	0.2	359	360	9.3	102.1
2025-10-09T00:11	10	0	0.1	0	0	360	0.2	359	360	9.3	101.9
2025-10-09T00:12	10	0	0.1	0	0	360	0.2	359	360	9.3	101.9
2025-10-09T00:13	10	0	0.1	0	0	360	0.3	359	361	9.4	101.6
2025-10-09T00:14	10	0	0.1	0	0	360	0.3	359	360	9.3	101.7
2025-10-09T00:15	10	0	0.1	0	0	360	0.2	359	360	9.3	101.6
2025-10-09T00:16	10	0	0.1	0	0	360	0.2	359	360	9.3	101.8
2025-10-09T00:17	10	0	0.1	0	0	359	0.2	359	360	9.3	101.8
2025-10-09T00:18	10	0	0.1	0	0	359	0.3	359	360	9.3	102.1
2025-10-09T00:19	10	0	0.1	0	1	359	0.2	359	360	9.3	102.5
2025-10-09T00:20	10	0	0.1	0	0	359	0.2	359	360	9.2	102.5
2025-10-09T00:21	10	0	0.1	0	0	360	0.2	359	360	9.2	102.9
2025-10-09T00:22	10	0	0.1	0	0	359	0.2	359	360	9.2	102.7
2025-10-09T00:23	10	0	0.1	0	0	359	0.2	359	360	9.2	102.4
2025-10-09T00:24	10	0	0.1	0	0	359	0.2	359	360	9.2	102.3
2025-10-09T00:25	10	0	0.1	0	0	359	0.3	359	360	9.2	101.8
2025-10-09T00:26	10	0	0.1	0	0	359	0.3	359	360	9.2	101.7
2025-10-09T00:27	10	0	0.1	0	0	359	0.2	359	360	9.2	101.7
2025-10-09T00:28	10	0	0.1	0	0	359	0.2	359	360	9.2	101.6
2025-10-09T00:29	10	0	0.1	0	0	359	0.2	358	359	9.2	101.8
2025-10-09T00:30	10	0	0.1	0	0	359	0.3	358	359	9.2	101.9
2025-10-09T00:31	10	0	0.1	0	0	359	0.2	358	359	9.1	101.8
2025-10-09T00:32	10	0	0.1	0	0	359	0.2	358	359	9.1	101.7
2025-10-09T00:33	10	0	0.1	0	0	359	0.2	359	360	9.2	101.8
2025-10-09T00:34	10	0	0.1	0	0	359	0.2	358	359	9.2	101.9
2025-10-09T00:35	10	0	0.1	0	0	359	0.2	358	360	9.2	101.8
2025-10-09T00:36	10	0	0.1	0	0	359	0.2	358	359	9.2	102.1
2025-10-09T00:37	10	0	0.1	0	0	359	0.2	359	360	9.2	102.1
2025-10-09T00:38	10	0	0.1	0	0	359	0.2	358	359	9.2	101.9
2025-10-09T00:39	10	0	0.1	0	0	359	0.3	358	359	9.2	102.0
2025-10-09T00:40	10	0	0.1	0	0	359	0.3	358	359	9.1	101.9
2025-10-09T00:41	10	0	0.1	0	0	359	0.3	358	360	9.2	101.8
2025-10-09T00:42	10	0	0.1	0	0	359	0.2	359	360	9.2	101.7
2025-10-09T00:43	10	0	0.1	0	1	359	0.2	358	359	9.2	101.8
2025-10-09T00:44	10	0	0.1	0	0	359	0.2	358	359	9.1	101.9
2025-10-09T00:45	10	0	0.1	0	0	359	0.2	358	359	9.1	101.9
2025-10-09T00:46	10	0	0.1	0	0	359	0.2	358	359	9.1	101.9
2025-10-09T00:47	10	0	0.1	0	0	359	0.2	358	359	9.1	101.8
2025-10-09T00:48	10	0	0.1	0	0	359	0.2	358	359	9.1	101.7
2025-10-09T00:49	10	0	0.1	0	0	359	0.2	358	359	9.1	101.6
2025-10-09T00:50	10	0	0.1	0	0	359	0.2	358	359	9.1	101.4
2025-10-09T00:51	10	0	0.1	0	0	359	0.3	358	359	9.1	101.4
2025-10-09T00:52	10	0	0.1	0	0	359	0.3	358	359	9.1	101.4
2025-10-09T00:53	10	0	0.1	0	0	358	0.3	358	359	9.1	101.7
2025-10-09T00:54	10	0	0.1	0	0	358	0.3	358	359	9.0	101.6
2025-10-09T00:55	10	0	0.1	0	0	358	0.3	358	359	9.0	101.7
2025-10-09T00:56	10	0	0.1	0	0	358	0.2	357	359	8.9	101.6
2025-10-09T00:57	10	0	0.1	0	0	358	0.2	357	358	8.9	101.6
2025-10-09T00:58	10	0	0.5	0	4	358	0.2	358	359	8.9	101.6
2025-10-09T00:59	10	0	0.2	0	1	358	0.2	357	358	8.9	101.7
2025-10-09T01:00	10	0	0.1	0	0	358	0.2	357	358	8.9	101.5
2025-10-09T01:01	10	0	0.1	0	0	358	0.3	357	359	8.9	101.8
2025-10-09T01:02	10	0	0.1	0	0	358	0.2	357	358	8.9	101.7
2025-10-09T01:03	10	0	0.1	0	0	358	0.2	357	358	8.9	101.9
2025-10-09T01:04	10	0	0.1	0	0	358	0.2	357	358	8.9	102.0
2025-10-09T01:05	10	0	0.1	0	0	358	0.3	357	359	8.9	102.0
2025-10-09T01:06	10	0	0.1	0	0	358	0.3	357	359	9.0	102.0
2025-10-09T01:07	10	0	0.1	0	0	358	0.2	358	358	9.0	102.1
2025-10-09T01:08	10	0	0.1	0	0	358	0.2	358	359	9.0	101.9
2025-10-09T01:09	10	0	0.0	0	0	358	0.2	358	359	9.0	101.9
2025-10-09T01:10	10	0	0.1	0	0	358	0.2	358	359	9.0	101.9
2025-10-09T01:11	10	0	0.1	0	0	358	0.2	358	359	9.0	101.9
2025-10-09T01:12	10	0	0.1	0	0	358	0.3	358	359	9.0	101.9
2025-10-09T01:13	10	0	0.1	0	0	358	0.2	358	359	9.1	101.8
2025-10-09T01:14	10	0	0.1	0	0	358	0.2	358	359	9.1	101.7
2025-10-09T01:15	10	0	0.1	0	0	358	0.2	358	359	9.1	101.9
2025-10-09T01:16	10	0	0.0	0	0	359	0.2	358	359	9.1	102.0
2025-10-09T01:17	10	0	0.1	0	0	358	0.2	358	359	9.1	101.9
2025-10-09T01:18	10	0	0.0	0	0	359	0.3	358	359	9.1	101.9
2025-10-09T01:19	10	0	0.1	0	0	358	0.2	358	359	9.1	101.8
2025-10-09T01:20	10	0	0.1	0	0	359	0.2	358	359	9.1	101.8
2025-10-09T01:21	10	0	0.0	0	0	359	0.2	358	359	9.1	101.8
2025-10-09T01:22	10	0	0.1	0	0	359	0.2	358	359	9.1	101.7
2025-10-09T01:23	10	0	0.0	0	0	359	0.2	358	359	9.1	101.7
2025-10-09T01:24	10	0	0.1	0	0	359	0.3	358	359	9.1	101.8
2025-10-09T01:25	10	0	0.1	0	0	359	0.2	358	359	9.1	101.8
2025-10-09T01:26	10	0	0.0	0	0	359	0.2	358	359	9.1	101.9
2025-10-09T01:27	10	0	0.0	0	0	359	0.2	358	359	9.1	101.7
2025-10-09T01:28	10	0	0.0	0	0	359	0.2	358	359	9.1	101.8
2025-10-09T01:29	10	0	0.1	0	0	359	0.2	358	359	9.1	101.8
2025-10-09T01:30	10	0	0.1	0	0	359	0.2	358	359	9.1	101.7
2025-10-09T01:31	10	0	0.1	0	0	359	0.2	358	359	9.1	101.7
2025-10-09T01:32	10	0	0.1	0	0	359	0.2	358	359	9.1	101.7
2025-10-09T01:33	10	0	0.0	0	0	359	0.2	358	359	9.1	102.1
2025-10-09T01:34	10	0	0.1	0	1	359	0.2	358	359	9.1	102.1
2025-10-09T01:35	10	0	0.1	0	0	359	0.3	359	360	9.1	102.6
2025-10-09T01:36	10	0	0.1	0	0	359	0.2	358	359	9.2	102.3
2025-10-09T01:37	10	0	0.3	0	3	359	0.2	358	359	9.2	102.2
2025-10-09T01:38	10	0	0.1	0	0	359	0.3	359	360	9.2	102.0
2025-10-09T01:39	10	0	0.0	0	0	359	0.2	359	360	9.2	101.7
2025-10-09T01:40	10	0	0.1	0	0	359	0.2	359	359	9.2	101.6
2025-10-09T01:41	10	0	0.0	0	0	359	0.2	359	360	9.2	101.9
2025-10-09T01:42	10	0	0.0	0	0	359	0.2	358	360	9.2	102.2
2025-10-09T01:43	10	0	0.0	0	0	359	0.2	359	359	9.2	102.3
2025-10-09T01:44	10	0	0.0	0	0	359	0.2	359	360	9.2	101.9
2025-10-09T01:45	10	0	0.1	0	0	359	0.2	359	360	9.2	102.0
2025-10-09T01:46	10	0	0.1	0	0	359	0.2	359	360	9.2	101.9
2025-10-09T01:47	10	0	0.0	0	0	359	0.2	359	360	9.2	101.7
2025-10-09T01:48	10	0	0.1	0	0	359	0.2	359	360	9.2	101.4
2025-10-09T01:49	10	0	0.1	0	0	359	0.2	359	360	9.2	101.4
2025-10-09T01:50	10	0	0.0	0	0	359	0.2	359	360	9.3	101.5
2025-10-09T01:51	10	0	0.0	0	0	359	0.2	359	360	9.3	102.0
2025-10-09T01:52	10	0	0.1	0	0	359	0.2	359	360	9.3	102.3
2025-10-09T01:53	10	0	0.1	0	0	359	0.2	359	360	9.3	102.6
2025-10-09T01:54	10	0	0.0	0	0	359	0.2	359	360	9.3	101.9
2025-10-09T01:55	10	0	0.1	0	0	359	0.3	359	360	9.3	101.5
2025-10-09T01:56	10	0	0.0	0	0	359	0.2	359	360	9.3	101.4
2025-10-09T01:57	10	0	0.0	0	0	359	0.2	359	360	9.3	101.6
2025-10-09T01:58	10	0	0.1	0	0	359	0.2	359	360	9.3	101.7
2025-10-09T01:59	10	0	0.1	0	0	359	0.2	359	360	9.3	102.2
2025-10-09T02:00	10	0	0.0	0	0	359	0.2	359	360	9.3	102.5
2025-10-09T02:01	10	0	0.1	0	0	359	0.2	359	360	9.3	102.6
2025-10-09T02:02	10	0	0.0	0	0	359	0.2	359	360	9.3	102.7
2025-10-09T02:03	10	0	0.1	0	0	360	0.2	359	360	9.3	102.5
2025-10-09T02:04	10	0	0.1	0	0	359	0.2	359	360	9.3	102.3
2025-10-09T02:05	10	0	0.1	0	0	359	0.3	359	360	9.3	102.0
2025-10-09T02:06	10	0	0.1	0	0	359	0.2	359	360	9.3	101.5
2025-10-09T02:07	10	0	0.1	0	0	359	0.2	359	360	9.2	101.5
2025-10-09T02:08	10	0	0.1	0	0	359	0.2	359	360	9.2	101.8
2025-10-09T02:09	10	0	0.1	0	0	359	0.3	359	360	9.2	101.8
2025-10-09T02:10	10	0	0.1	0	0	359	0.2	358	359	9.2	101.5
2025-10-09T02:11	10	0	0.1	0	0	359	0.2	358	359	9.2	101.6
2025-10-09T02:12	10	0	0.1	0	0	359	0.2	359	359	9.1	101.7
2025-10-09T02:13	10	0	0.1	0	0	359	0.2	359	359	9.1	101.6
2025-10-09T02:14	10	0	0.1	0	0	359	0.2	358	359	9.1	101.5
2025-10-09T02:15	10	0	0.1	0	0	359	0.2	358	359	9.2	101.6
2025-10-09T02:16	10	0	0.1	0	0	359	0.2	358	359	9.2	101.6
2025-10-09T02:17	10	0	0.1	0	0	359	0.2	358	359	9.2	101.7
2025-10-09T02:18	10	0	0.1	0	0	359	0.2	358	360	9.2	101.6
2025-10-09T02:19	10	0	0.1	0	0	359	0.2	358	359	9.1	101.7
2025-10-09T02:20	10	0	0.1	0	0	359	0.1	359	359	9.1	102.1
2025-10-09T02:21	10	0	0.1	0	0	359	0.3	358	360	9.1	102.2
2025-10-09T02:22	10	0	0.1	0	0	359	0.2	358	359	9.1	102.0
2025-10-09T02:23	10	0	0.1	0	0	359	0.2	358	359	9.1	102.0
2025-10-09T02:24	10	0	0.1	0	0	359	0.3	358	359	9.1	101.9
2025-10-09T02:25	10	0	0.1	0	0	359	0.2	358	359	9.1	102.0
2025-10-09T02:26	10	0	0.1	0	0	359	0.2	358	359	9.1	102.2
2025-10-09T02:27	10	0	0.1	0	0	359	0.2	358	359	9.1	102.4
2025-10-09T02:28	10	0	0.1	0	0	358	0.2	358	359	9.1	102.2
2025-10-09T02:29	10	0	0.1	0	0	359	0.2	358	359	9.1	102.2
2025-10-09T02:30	10	0	0.1	0	0	359	0.3	358	359	9.1	102.0
2025-10-09T02:31	10	0	0.1	0	0	359	0.2	358	359	9.1	102.1
2025-10-09T02:32	10	0	0.1	0	0	359	0.2	358	359	9.1	102.2
2025-10-09T02:33	10	0	0.1	0	0	359	0.2	358	359	9.1	102.2
2025-10-09T02:34	10	0	0.1	0	0	359	0.2	358	359	9.1	102.1
2025-10-09T02:35	10	0	0.1	0	0	359	0.2	358	359	9.1	102.2
2025-10-09T02:36	10	0	0.1	0	0	359	0.2	358	359	9.1	102.1
2025-10-09T02:37	10	0	0.1	0	0	359	0.2	358	359	9.1	102.1
2025-10-09T02:38	10	0	0.1	0	0	359	0.2	358	359	9.1	102.2
2025-10-09T02:39	10	0	0.1	0	0	359	0.2	358	359	9.1	102.0
2025-10-09T02:40	10	0	0.1	0	0	359	0.2	358	359	9.1	101.9
2025-10-09T02:41	10	0	0.1	0	0	359	0.2	358	359	9.1	101.7
2025-10-09T02:42	10	0	0.1	0	0	359	0.2	359	359	9.2	101.9
2025-10-09T02:43	10	0	0.1	0	0	359	0.2	358	359	9.2	102.1
2025-10-09T02:44	10	0	0.0	0	0	359	0.2	358	359	9.2	102.5
2025-10-09T02:45	10	0	0.0	0	0	359	0.2	358	359	9.2	102.8
2025-10-09T02:46	10	0	0.1	0	0	359	0.2	358	359	9.2	103.0
2025-10-09T02:47	10	0	0.1	0	0	359	0.2	358	359	9.2	103.3
2025-10-09T02:48	10	0	0.1	0	0	359	0.2	358	360	9.2	103.3
2025-10-09T02:49	10	0	0.1	0	0	359	0.2	359	360	9.2	103.5
2025-10-09T02:50	10	0	0.0	0	0	359	0.2	359	360	9.2	103.2
2025-10-09T02:51	10	0	0.1	0	0	359	0.2	359	360	9.2	102.9
2025-10-09T02:52	10	0	0.0	0	0	359	0.2	359	360	9.2	102.6
2025-10-09T02:53	10	0	0.1	0	0	359	0.2	359	360	9.2	102.4
2025-10-09T02:54	10	0	0.0	0	0	359	0.2	359	360	9.3	101.9
2025-10-09T02:55	10	0	0.1	0	0	359	0.3	359	360	9.3	102.1
2025-10-09T02:56	10	0	0.1	0	0	359	0.2	359	360	9.3	102.4
2025-10-09T02:57	10	0	0.1	0	0	359	0.2	359	360	9.3	102.2
2025-10-09T02:58	10	0	0.0	0	0	360	0.2	359	360	9.3	101.9
2025-10-09T02:59	10	0	0.0	0	0	360	0.2	359	360	9.3	102.3
2025-10-09T03:00	10	0	0.1	0	0	360	0.2	359	360	9.3	102.4
2025-10-09T03:01	10	0	0.0	0	0	360	0.2	359	360	9.3	102.4
2025-10-09T03:02	10	0	0.1	0	0	360	0.2	359	360	9.3	102.5
2025-10-09T03:03	10	0	0.1	0	0	360	0.2	359	360	9.3	102.4
2025-10-09T03:04	10	0	0.1	0	0	360	0.2	359	360	9.3	101.9
2025-10-09T03:05	10	0	0.0	0	0	360	0.2	359	360	9.4	101.7
2025-10-09T03:06	10	0	0.0	0	0	360	0.2	360	360	9.4	101.9
2025-10-09T03:07	10	0	0.1	0	0	360	0.2	359	360	9.4	102.2
2025-10-09T03:08	10	0	0.1	0	0	360	0.3	359	360	9.4	102.1
2025-10-09T03:09	10	0	0.1	0	0	360	0.2	359	360	9.3	101.7
2025-10-09T03:10	10	0	0.1	0	0	359	0.2	359	360	9.3	101.6
2025-10-09T03:11	10	0	0.1	0	0	359	0.2	359	360	9.3	101.5
2025-10-09T03:12	10	0	0.1	0	0	359	0.2	359	360	9.3	101.4
2025-10-09T03:13	10	0	0.0	0	0	359	0.2	359	360	9.3	101.4
2025-10-09T03:14	10	0	0.1	0	0	359	0.2	359	360	9.3	101.7
2025-10-09T03:15	10	0	0.1	0	0	359	0.2	359	360	9.3	102.1
2025-10-09T03:16	10	0	0.1	0	0	359	0.2	359	360	9.3	102.1
2025-10-09T03:17	10	0	0.1	0	0	359	0.3	358	360	9.2	102.1
2025-10-09T03:18	10	0	0.1	0	0	359	0.2	359	360	9.2	102.2
2025-10-09T03:19	10	0	0.1	0	0	359	0.2	358	359	9.2	102.1
2025-10-09T03:20	10	0	0.1	0	0	359	0.3	358	360	9.2	102.0
2025-10-09T03:21	10	0	0.1	0	0	359	0.2	359	360	9.2	101.9
2025-10-09T03:22	10	0	0.1	0	0	359	0.2	358	359	9.2	101.9
2025-10-09T03:23	10	0	0.1	0	0	359	0.2	358	359	9.2	101.8
2025-10-09T03:24	10	0	0.1	0	0	359	0.2	358	359	9.2	101.7
2025-10-09T03:25	10	0	0.1	0	0	359	0.2	359	359	9.2	101.8
2025-10-09T03:26	10	0	0.1	0	0	359	0.2	358	359	9.2	101.9
2025-10-09T03:27	10	0	0.1	0	0	359	0.3	358	360	9.2	101.9
2025-10-09T03:28	10	0	0.1	0	0	359	0.2	359	360	9.2	101.9
2025-10-09T03:29	10	0	0.1	0	0	359	0.2	359	360	9.2	102.0
2025-10-09T03:30	10	0	0.1	0	0	359	0.3	359	360	9.2	102.0
2025-10-09T03:31	10	0	0.0	0	0	359	0.2	359	360	9.2	102.0
2025-10-09T03:32	10	0	0.1	0	0	359	0.2	359	360	9.2	102.1
2025-10-09T03:33	10	0	0.1	0	0	359	0.2	359	360	9.2	102.1
2025-10-09T03:34	10	0	0.0	0	0	359	0.2	359	360	9.2	101.4
2025-10-09T03:35	10	0	0.1	0	0	359	0.3	358	360	9.2	101.3
2025-10-09T03:36	10	0	0.1	0	0	359	0.2	359	360	9.3	101.3
2025-10-09T03:37	10	0	0.0	0	0	359	0.2	359	360	9.3	101.3
2025-10-09T03:38	10	0	0.1	0	0	359	0.3	359	360	9.3	101.5
2025-10-09T03:39	10	0	0.1	0	0	359	0.3	359	360	9.3	101.6
2025-10-09T03:40	10	0	0.1	0	0	359	0.2	359	360	9.3	101.7
2025-10-09T03:41	10	0	0.1	0	0	359	0.2	359	360	9.3	101.8
2025-10-09T03:42	10	0	0.1	0	0	359	0.2	359	360	9.3	101.4
2025-10-09T03:43	10	0	0.1	0	0	359	0.2	359	360	9.3	101.9
2025-10-09T03:44	10	0	0.1	0	0	359	0.3	359	360	9.3	102.3
2025-10-09T03:45	10	0	0.0	0	0	359	0.2	359	360	9.3	102.7
2025-10-09T03:46	10	0	0.1	0	0	359	0.3	358	360	9.3	103.3
2025-10-09T03:47	10	0	0.1	0	0	359	0.2	359	360	9.2	103.2
2025-10-09T03:48	10	0	0.0	0	0	359	0.2	359	359	9.2	102.8
2025-10-09T03:49	10	0	0.1	0	0	359	0.2	359	359	9.2	102.5
2025-10-09T03:50	10	0	0.1	0	0	359	0.2	359	360	9.2	102.2
2025-10-09T03:51	10	0	0.0	0	0	359	0.2	359	360	9.2	102.3
2025-10-09T03:52	10	0	0.1	0	0	359	0.2	359	360	9.2	103.3
2025-10-09T03:53	10	0	0.0	0	0	359	0.2	359	360	9.2	103.3
2025-10-09T03:54	10	0	0.1	0	0	359	0.2	358	360	9.2	103.0
2025-10-09T03:55	10	0	0.1	0	0	359	0.2	358	360	9.2	102.8
2025-10-09T03:56	10	0	0.1	0	0	359	0.2	358	359	9.1	102.8
2025-10-09T03:57	10	0	0.1	0	0	359	0.2	358	359	9.1	102.7
2025-10-09T03:58	10	0	0.1	0	0	358	0.2	358	359	9.1	102.7
2025-10-09T03:59	10	0	0.1	0	0	359	0.2	358	359	9.1	102.8
2025-10-09T04:00	10	0	0.1	0	0	359	0.2	358	359	9.1	102.9
2025-10-09T04:01	10	0	0.1	0	0	359	0.2	358	359	9.1	103.0
2025-10-09T04:02	10	0	0.1	0	0	359	0.2	358	359	9.1	102.9
2025-10-09T04:03	10	0	0.1	0	0	358	0.2	358	359	9.1	103.0
2025-10-09T04:04	10	0	0.1	0	0	359	0.2	358	359	9.1	102.9
2025-10-09T04:05	10	0	0.1	0	0	359	0.2	358	359	9.1	102.7
2025-10-09T04:06	10	0	0.1	0	0	358	0.2	358	359	9.1	102.8
2025-10-09T04:07	10	0	0.1	0	0	358	0.2	358	359	9.1	102.8
2025-10-09T04:08	10	0	0.1	0	0	359	0.2	358	359	9.1	102.8
2025-10-09T04:09	10	0	0.1	0	0	358	0.2	358	359	9.1	102.8
2025-10-09T04:10	10	0	0.1	0	0	358	0.2	358	359	9.1	102.9
2025-10-09T04:11	10	0	0.1	0	0	358	0.3	358	359	9.1	102.8
2025-10-09T04:12	10	0	0.1	0	0	358	0.3	358	359	9.1	102.7
2025-10-09T04:13	10	0	0.1	0	0	359	0.2	358	359	9.1	102.4
2025-10-09T04:14	10	0	0.1	0	0	358	0.3	358	359	9.1	102.3
2025-10-09T04:15	10	0	0.1	0	0	359	0.2	358	359	9.1	102.6
2025-10-09T04:16	10	0	0.1	0	0	359	0.2	358	359	9.1	102.8
2025-10-09T04:17	10	0	0.1	0	0	359	0.2	358	359	9.1	103.1
2025-10-09T04:18	10	0	0.1	0	0	359	0.3	358	359	9.1	103.4
2025-10-09T04:19	10	0	0.1	0	0	359	0.2	359	359	9.1	103.6
2025-10-09T04:20	10	0	0.1	0	0	359	0.2	358	359	9.1	103.2
2025-10-09T04:21	10	0	0.1	0	0	359	0.3	358	360	9.1	103.5
2025-10-09T04:22	10	0	0.1	0	0	359	0.2	358	359	9.1	102.8
2025-10-09T04:23	10	0	0.1	0	0	359	0.3	359	360	9.2	102.3
2025-10-09T04:24	10	0	0.1	0	0	359	0.2	358	359	9.2	102.4
2025-10-09T04:25	10	0	0.1	0	0	359	0.2	358	359	9.2	102.8
2025-10-09T04:26	10	0	0.1	0	0	359	0.3	358	360	9.2	102.6
2025-10-09T04:27	10	0	0.0	0	0	359	0.2	358	359	9.2	102.4
2025-10-09T04:28	10	0	0.1	0	0	359	0.3	358	359	9.1	102.2
2025-10-09T04:29	10	0	0.1	0	0	359	0.2	358	359	9.2	102.1
2025-10-09T04:30	10	0	0.1	0	0	359	0.2	359	359	9.2	102.0
2025-10-09T04:31	10	0	0.1	0	0	359	0.2	358	360	9.2	102.4
2025-10-09T04:32	10	0	0.1	0	0	359	0.2	359	360	9.2	102.6
2025-10-09T04:33	10	0	0.0	0	0	359	0.2	358	360	9.2	102.3
2025-10-09T04:34	10	0	0.1	0	0	359	0.2	359	360	9.1	102.1
2025-10-09T04:35	10	0	0.1	0	0	359	0.2	358	359	9.2	102.0
2025-10-09T04:36	10	0	0.1	0	0	359	0.2	358	359	9.2	101.9
2025-10-09T04:37	10	0	0.1	0	0	359	0.2	358	359	9.2	101.8
2025-10-09T04:38	10	0	0.1	0	0	359	0.3	358	359	9.2	101.8
2025-10-09T04:39	10	0	0.1	0	0	359	0.2	358	359	9.2	102.1
2025-10-09T04:40	10	0	0.1	0	0	359	0.2	358	359	9.1	102.5
2025-10-09T04:41	10	0	0.1	0	0	358	0.2	358	359	9.1	102.3
2025-10-09T04:42	10	0	0.1	0	0	359	0.2	358	359	9.1	102.3
2025-10-09T04:43	10	0	0.1	0	0	358	0.2	358	359	9.1	102.2
2025-10-09T04:44	10	0	0.1	0	0	358	0.2	358	359	9.1	102.2
2025-10-09T04:45	10	0	0.1	0	0	358	0.2	358	359	9.0	102.4
2025-10-09T04:46	10	0	0.1	0	0	358	0.2	357	359	9.0	102.3
2025-10-09T04:47	10	0	0.1	0	0	358	0.2	358	358	9.0	102.3
2025-10-09T04:48	10	0	0.1	0	0	358	0.2	358	359	9.0	102.2
2025-10-09T04:49	10	0	0.1	0	0	358	0.2	358	358	9.0	102.3
2025-10-09T04:50	10	0	0.1	0	0	358	0.2	357	358	9.0	102.3
2025-10-09T04:51	10	0	0.1	0	0	358	0.2	358	358	9.0	102.0
2025-10-09T04:52	10	0	0.1	0	0	358	0.2	358	358	9.0	102.3
2025-10-09T04:53	10	0	0.1	0	0	358	0.2	358	359	9.1	102.2
2025-10-09T04:54	10	0	0.1	0	0	358	0.2	358	359	9.1	102.3
2025-10-09T04:55	10	0	0.1	0	0	358	0.3	357	359	9.1	102.3
2025-10-09T04:56	10	0	0.1	0	0	358	0.2	358	359	9.1	102.2
2025-10-09T04:57	10	0	0.1	0	0	358	0.3	358	359	9.1	102.3
2025-10-09T04:58	10	0	0.1	0	0	358	0.3	358	359	9.1	102.2
2025-10-09T04:59	10	0	0.1	0	0	358	0.2	358	359	9.1	102.2
2025-10-09T05:00	10	0	0.1	0	0	358	0.2	358	359	9.0	102.2
2025-10-09T05:01	10	0	0.1	0	0	358	0.2	358	358	9.0	102.1
2025-10-09T05:02	10	0	0.1	0	0	358	0.2	357	359	9.0	102.0
2025-10-09T05:03	10	0	0.1	0	0	358	0.2	358	359	9.1	102.2
2025-10-09T05:04	10	0	0.1	0	0	358	0.2	358	359	9.0	102.3
2025-10-09T05:05	10	0	0.1	0	0	358	0.2	358	359	9.0	102.1
2025-10-09T05:06	10	0	0.1	0	0	358	0.2	358	359	9.0	102.0
2025-10-09T05:07	10	0	0.1	0	0	358	0.2	358	359	9.0	102.0
2025-10-09T05:08	10	0	0.1	0	0	359	0.2	358	359	9.0	102.1
2025-10-09T05:09	10	0	0.1	0	0	358	0.2	358	359	9.0	101.7
2025-10-09T05:10	10	0	0.1	0	0	358	0.2	358	359	9.0	101.6
2025-10-09T05:11	10	0	0.1	0	0	358	0.2	358	359	9.0	101.7
2025-10-09T05:12	10	0	0.1	0	0	358	0.2	358	359	9.0	101.7
2025-10-09T05:13	10	0	0.1	0	0	358	0.2	358	359	9.0	101.8
2025-10-09T05:14	10	0	0.1	0	0	359	0.2	358	359	9.0	101.7
2025-10-09T05:15	10	0	0.1	0	0	359	0.3	358	359	9.1	101.7
2025-10-09T05:16	10	0	0.1	0	0	359	0.2	358	359	9.1	101.8
2025-10-09T05:17	10	0	0.1	0	0	359	0.2	358	359	9.1	102.0
2025-10-09T05:18	10	0	0.1	0	0	359	0.2	358	359	9.1	102.1
2025-10-09T05:19	10	0	0.1	0	0	359	0.2	358	359	9.1	102.1
2025-10-09T05:20	10	0	0.0	0	0	359	0.2	358	359	9.1	102.3
2025-10-09T05:21	10	0	0.1	0	0	359	0.2	358	359	9.1	102.1
2025-10-09T05:22	10	0	0.1	0	0	358	0.2	358	359	9.0	102.2
2025-10-09T05:23	10	0	0.1	0	0	358	0.2	358	359	9.0	102.1
2025-10-09T05:24	10	0	0.1	0	0	358	0.2	358	359	9.0	102.1
2025-10-09T05:25	10	0	0.1	0	0	358	0.2	358	359	9.0	102.1
2025-10-09T05:26	10	0	0.1	0	0	358	0.2	358	358	8.9	102.1
2025-10-09T05:27	10	0	0.1	0	0	358	0.2	358	358	8.9	102.0
2025-10-09T05:28	10	0	0.1	0	0	358	0.2	357	359	8.9	102.0
2025-10-09T05:29	10	0	0.1	0	0	358	0.3	357	358	8.9	102.0
2025-10-09T05:30	10	0	0.1	0	0	358	0.3	357	358	9.0	101.9
2025-10-09T05:31	10	0	0.1	0	0	358	0.3	357	358	8.9	102.0
2025-10-09T05:32	10	0	0.1	0	0	358	0.3	357	358	8.9	102.0
2025-10-09T05:33	10	0	0.1	0	0	358	0.2	358	358	9.0	102.3
2025-10-09T05:34	10	0	0.0	0	0	358	0.2	358	359	9.0	102.4
2025-10-09T05:35	10	0	0.0	0	0	358	0.3	358	359	9.0	102.2
2025-10-09T05:36	10	0	0.0	0	0	358	0.2	358	359	9.0	101.7
2025-10-09T05:37	10	0	0.1	0	1	358	0.2	358	359	9.0	101.6
2025-10-09T05:38	10	0	0.1	0	1	358	0.2	358	359	9.0	101.6
2025-10-09T05:39	10	0	0.1	0	1	358	0.2	358	359	9.0	101.6
2025-10-09T05:40	10	1	0.1	0	1	359	0.2	358	359	9.0	101.6
2025-10-09T05:41	10	1	0.1	0	1	359	0.2	358	359	9.1	101.8
2025-10-09T05:42	10	1	0.1	0	1	358	0.2	358	359	9.1	102.0
2025-10-09T05:43	10	1	0.1	1	1	359	0.2	358	359	9.1	102.0
2025-10-09T05:44	10	1	0.1	1	1	359	0.2	359	359	9.1	102.5
2025-10-09T05:45	10	1	0.1	1	1	359	0.2	359	360	9.1	102.0
2025-10-09T05:46	10	1	0.1	1	1	359	0.2	359	360	9.1	101.8
2025-10-09T05:47	10	1	0.1	1	1	359	0.2	359	359	9.2	102.2
2025-10-09T05:48	10	1	0.1	1	1	359	0.2	359	360	9.2	102.2
2025-10-09T05:49	10	1	0.0	1	1	359	0.2	359	360	9.2	101.7
2025-10-09T05:50	10	1	0.1	1	1	359	0.2	359	360	9.2	101.5
2025-10-09T05:51	10	1	0.1	1	1	359	0.2	359	360	9.2	101.6
2025-10-09T05:52	10	1	0.1	1	1	359	0.2	359	360	9.2	101.4
2025-10-09T05:53	10	1	0.1	1	2	359	0.2	358	359	9.2	101.2
2025-10-09T05:54	10	2	0.1	1	2	359	0.3	358	359	9.2	101.0
2025-10-09T05:55	10	2	0.1	2	2	359	0.2	358	359	9.2	101.0
2025-10-09T05:56	10	2	0.1	2	2	359	0.3	358	359	9.1	101.0
2025-10-09T05:57	10	2	0.2	2	3	359	0.3	358	359	9.1	101.0
2025-10-09T05:58	10	3	0.2	3	4	359	0.2	358	359	9.2	101.0
2025-10-09T05:59	10	4	0.1	3	4	358	0.2	358	359	9.1	101.0
2025-10-09T06:00	10	4	0.1	4	4	358	0.2	358	359	9.2	101.0
2025-10-09T06:01	10	4	0.1	3	4	358	0.2	358	359	9.2	101.1
2025-10-09T06:02	10	3	0.1	3	4	358	0.2	358	359	9.2	101.1
2025-10-09T06:03	10	3	0.1	3	3	359	0.2	358	359	9.2	101.3
2025-10-09T06:04	10	3	0.1	3	3	359	0.2	358	359	9.2	101.3
2025-10-09T06:05	10	4	0.3	3	4	359	0.3	359	360	9.2	101.4
2025-10-09T06:06	10	4	0.2	4	5	360	0.2	359	360	9.2	101.4
2025-10-09T06:07	10	5	0.1	4	5	360	0.3	359	361	9.2	101.5
2025-10-09T06:08	10	4	0.1	4	5	360	0.2	360	361	9.3	101.6
2025-10-09T06:09	10	4	0.1	4	4	360	0.2	360	361	9.3	101.6
2025-10-09T06:10	10	4	0.1	4	5	360	0.2	360	361	9.2	101.3
2025-10-09T06:11	10	5	0.1	4	5	360	0.2	360	361	9.2	101.3
2025-10-09T06:12	10	4	0.1	4	5	360	0.2	360	361	9.2	101.3
2025-10-09T06:13	10	4	0.2	3	4	361	0.2	360	361	9.3	101.3
2025-10-09T06:14	10	3	0.2	3	3	361	0.3	360	361	9.3	101.4
2025-10-09T06:15	10	2	0.2	2	3	360	0.2	360	361	9.3	101.6
2025-10-09T06:16	10	2	0.1	2	3	360	0.3	360	361	9.3	101.6
2025-10-09T06:17	10	3	0.2	2	3	360	0.2	360	361	9.3	101.4
2025-10-09T06:18	10	4	0.4	3	4	361	0.3	360	361	9.3	101.5
2025-10-09T06:19	10	5	0.2	4	5	361	0.3	360	361	9.3	101.5
2025-10-09T06:20	10	5	0.1	5	5	361	0.2	361	362	9.3	101.6
2025-10-09T06:21	10	5	0.1	5	5	361	0.2	360	362	9.3	101.8
2025-10-09T06:22	10	4	0.2	4	5	361	0.3	360	362	9.3	101.7
2025-10-09T06:23	10	4	0.1	4	4	361	0.2	361	362	9.3	101.5
2025-10-09T06:24	10	4	0.1	4	4	361	0.2	361	362	9.3	101.5
2025-10-09T06:25	10	4	0.1	4	4	361	0.3	361	362	9.3	101.3
2025-10-09T06:26	10	4	0.1	4	4	362	0.2	361	362	9.3	101.5
2025-10-09T06:27	10	4	0.1	4	4	361	0.2	361	362	9.3	101.4
2025-10-09T06:28	10	4	0.2	4	4	361	0.2	361	362	9.2	101.3
2025-10-09T06:29	10	5	0.4	4	5	361	0.2	360	361	9.1	101.2
2025-10-09T06:30	10	6	0.4	5	6	361	0.2	361	362	9.1	101.2
2025-10-09T06:31	10	7	0.1	6	7	361	0.2	361	362	9.2	101.3
2025-10-09T06:32	10	7	0.1	7	7	362	0.2	361	362	9.2	101.2
2025-10-09T06:33	10	7	0.1	7	7	362	0.3	361	363	9.2	101.3
2025-10-09T06:34	10	7	0.1	7	7	362	0.2	361	362	9.1	101.0
2025-10-09T06:35	10	7	0.1	7	7	362	0.2	361	362	9.1	101.0
2025-10-09T06:36	10	7	0.1	7	8	362	0.3	361	363	9.1	101.0
2025-10-09T06:37	10	7	0.2	7	8	362	0.2	361	362	9.1	100.8
2025-10-09T06:38	10	7	0.3	6	7	362	0.2	361	362	9.0	100.7
2025-10-09T06:39	10	6	0.1	6	6	362	0.2	361	362	9.0	100.6
2025-10-09T06:40	10	6	0.1	6	6	362	0.3	361	362	9.0	100.7
2025-10-09T06:41	10	6	0.1	6	7	362	0.2	361	362	9.1	100.8
2025-10-09T06:42	10	7	0.1	6	7	362	0.3	361	363	9.1	100.8
2025-10-09T06:43	10	7	0.1	7	7	362	0.3	361	363	9.1	100.6
2025-10-09T06:44	10	7	0.1	7	7	362	0.2	362	363	9.2	100.6
2025-10-09T06:45	10	7	0.1	7	7	362	0.2	362	363	9.2	100.7
2025-10-09T06:46	10	6	0.2	6	7	362	0.3	362	363	9.2	100.8
2025-10-09T06:47	10	6	0.3	5	6	362	0.2	361	362	9.2	100.8
2025-10-09T06:48	10	5	0.1	5	5	362	0.2	362	363	9.2	100.8
2025-10-09T06:49	10	5	0.1	5	6	362	0.2	361	362	9.2	101.0
2025-10-09T06:50	10	6	0.1	5	6	362	0.3	362	363	9.2	101.0
2025-10-09T06:51	10	6	0.1	6	6	362	0.2	362	363	9.3	101.1
2025-10-09T06:52	10	6	0.2	5	6	363	0.3	362	363	9.3	101.1
2025-10-09T06:53	10	5	0.1	5	5	363	0.3	362	363	9.3	100.9
2025-10-09T06:54	10	5	0.1	5	5	362	0.3	362	363	9.3	100.8
2025-10-09T06:55	10	5	0.2	5	6	363	0.2	362	363	9.3	100.9
2025-10-09T06:56	10	6	0.2	6	6	363	0.3	362	363	9.3	101.0
2025-10-09T06:57	10	6	0.1	6	6	363	0.2	362	363	9.4	100.8
2025-10-09T06:58	10	6	0.1	6	7	363	0.2	362	363	9.4	100.8
2025-10-09T06:59	10	7	0.2	7	7	363	0.2	363	364	9.4	100.8
2025-10-09T07:00	10	8	0.3	7	8	363	0.2	363	364	9.5	100.9
2025-10-09T07:01	10	9	0.1	8	9	363	0.2	363	364	9.4	101.1
2025-10-09T07:02	10	9	0.1	8	9	364	0.3	363	364	9.5	100.9
2025-10-09T07:03	10	8	0.1	8	9	363	0.3	363	364	9.4	100.7
2025-10-09T07:04	10	9	0.5	9	10	364	0.3	363	364	9.5	100.7
2025-10-09T07:05	10	12	0.7	10	13	364	0.3	363	364	9.5	100.6
2025-10-09T07:06	10	13	0.5	13	14	364	0.2	364	365	9.5	100.6
2025-10-09T07:07	10	15	0.3	14	15	364	0.2	364	365	9.5	100.4
2025-10-09T07:08	10	16	0.2	15	16	365	0.2	364	365	9.5	100.1
2025-10-09T07:09	10	16	0.2	16	17	365	0.3	364	365	9.5	100.0
2025-10-09T07:10	10	17	0.2	17	17	365	0.3	365	366	9.6	100.2
2025-10-09T07:11	10	18	0.1	17	18	366	0.3	365	366	9.6	100.3
2025-10-09T07:12	10	18	0.1	17	18	366	0.4	365	367	9.6	100.2
2025-10-09T07:13	10	18	0.1	17	18	366	0.2	366	367	9.7	100.5
2025-10-09T07:14	10	18	0.2	18	18	366	0.2	366	367	9.6	100.4
2025-10-09T07:15	10	18	0.2	18	19	366	0.2	366	367	9.6	100.4
2025-10-09T07:16	10	19	0.1	19	19	367	0.2	366	367	9.6	100.4
2025-10-09T07:17	10	18	0.2	18	19	367	0.3	366	368	9.7	100.1
2025-10-09T07:18	10	17	0.3	17	18	367	0.2	367	368	9.7	100.0
2025-10-09T07:19	10	16	0.4	16	17	367	0.2	367	368	9.7	100.0
2025-10-09T07:20	10	16	0.2	15	16	367	0.2	367	368	9.7	100.0
2025-10-09T07:21	10	16	0.2	16	17	367	0.2	367	368	9.7	100.0
2025-10-09T07:22	10	17	0.2	17	17	367	0.3	367	368	9.7	100.0
2025-10-09T07:23	10	18	0.2	17	18	368	0.2	368	369	9.7	100.0
2025-10-09T07:24	10	18	0.2	18	19	368	0.3	368	369	9.7	100.0
2025-10-09T07:25	10	19	0.2	19	19	368	0.2	368	369	9.7	99.2
2025-10-09T07:26	10	19	0.1	19	20	368	0.3	368	369	9.8	98.0
2025-10-09T07:27	10	19	0.1	19	20	369	0.2	368	369	9.9	98.7
2025-10-09T07:28	10	19	0.2	19	19	368	0.3	368	369	9.9	99.0
2025-10-09T07:29	10	19	0.1	19	19	368	0.2	368	369	9.8	98.7
2025-10-09T07:30	10	19	0.1	18	19	368	0.3	368	369	9.8	98.6
2025-10-09T07:31	10	19	0.1	18	19	368	0.2	368	369	9.8	98.8
2025-10-09T07:32	10	19	0.3	19	20	369	0.2	368	369	9.9	99.3
2025-10-09T07:33	10	20	0.3	19	21	369	0.3	368	369	9.9	99.6
2025-10-09T07:34	10	21	0.2	20	21	369	0.3	369	370	9.9	99.6
2025-10-09T07:35	10	21	0.2	21	22	369	0.3	369	370	9.9	99.3
2025-10-09T07:36	10	22	0.2	22	23	370	0.2	369	370	9.9	98.9
2025-10-09T07:37	10	23	0.1	22	23	370	0.2	369	370	9.9	99.0
2025-10-09T07:38	10	23	0.1	23	23	370	0.3	369	371	9.9	99.0
2025-10-09T07:39	10	23	0.1	23	23	370	0.3	369	370	10.0	99.0
2025-10-09T07:40	10	24	0.3	23	24	370	0.3	370	371	9.9	99.3
2025-10-09T07:41	10	24	0.2	24	25	371	0.2	370	371	9.9	99.4
2025-10-09T07:42	10	25	0.1	25	25	371	0.2	370	371	9.9	99.4
2025-10-09T07:43	10	25	0.2	25	26	371	0.2	371	372	10.0	99.3
2025-10-09T07:44	10	26	0.4	26	27	371	0.2	371	372	10.1	99.0
2025-10-09T07:45	10	28	0.5	27	28	372	0.3	371	372	10.1	99.1
2025-10-09T07:46	10	29	0.3	29	29	372	0.3	371	372	10.0	98.9
2025-10-09T07:47	10	29	0.1	29	30	372	0.2	372	373	10.1	99.1
2025-10-09T07:48	10	29	0.1	29	30	372	0.2	372	373	10.1	99.0
2025-10-09T07:49	10	28	0.3	28	29	373	0.3	372	373	10.1	99.5
2025-10-09T07:50	10	28	0.1	27	28	373	0.2	372	373	10.2	99.4
2025-10-09T07:51	10	28	0.2	27	28	373	0.3	372	373	10.2	99.7
2025-10-09T07:52	10	28	0.2	28	29	373	0.3	373	374	10.2	99.1
2025-10-09T07:53	10	29	0.1	29	29	373	0.2	372	374	10.2	98.8
2025-10-09T07:54	10	29	0.1	29	29	373	0.2	372	373	10.2	99.1
2025-10-09T07:55	10	30	0.2	29	30	373	0.2	372	373	10.2	98.7
2025-10-09T07:56	10	31	0.5	30	32	373	0.2	372	373	10.3	98.4
2025-10-09T07:57	10	32	0.4	31	33	373	0.3	372	374	10.2	98.5
2025-10-09T07:58	10	33	0.4	33	34	374	0.2	373	374	10.2	98.7
2025-10-09T07:59	10	35	0.4	34	35	374	0.5	373	375	10.2	99.0
2025-10-09T08:00	10	35	0.2	35	35	375	0.2	374	375	10.3	99.2
2025-10-09T08:01	10	34	0.2	34	35	374	0.3	374	375	10.3	98.5
2025-10-09T08:02	10	35	0.4	34	36	374	0.2	374	375	10.3	98.4
2025-10-09T08:03	10	36	0.5	36	37	374	0.3	374	375	10.3	98.6
2025-10-09T08:04	10	39	0.6	37	39	375	0.2	374	375	10.3	98.5
2025-10-09T08:05	10	41	0.7	39	42	375	0.4	374	376	10.4	99.5
2025-10-09T08:06	10	40	0.5	39	41	376	0.2	376	377	10.4	98.9
2025-10-09T08:07	10	38	0.7	37	39	376	0.3	375	376	10.4	98.9
2025-10-09T08:08	10	36	0.3	36	37	375	0.3	375	377	10.4	99.0
2025-10-09T08:09	10	37	0.9	36	38	375	0.2	375	376	10.5	99.1
2025-10-09T08:10	10	38	0.4	38	39	375	0.3	375	375	10.5	99.0
2025-10-09T08:11	10	42	1.2	39	44	375	0.2	375	376	10.4	98.7
2025-10-09T08:12	10	44	0.6	43	44	375	0.3	375	376	10.4	98.6
2025-10-09T08:13	10	44	0.2	44	45	376	0.3	375	376	10.4	98.7
2025-10-09T08:14	10	45	0.3	45	46	377	0.4	376	377	10.4	98.5
2025-10-09T08:15	10	47	1.7	45	52	377	0.2	377	378	10.5	98.8
2025-10-09T08:16	10	56	3.3	51	62	378	0.5	377	379	10.6	99.1
2025-10-09T08:17	10	58	0.6	56	59	379	0.2	379	380	10.6	99.0
2025-10-09T08:18	10	56	0.9	55	58	379	0.2	379	380	10.6	98.8
2025-10-09T08:19	10	57	0.6	56	58	380	0.2	379	380	10.6	97.9
2025-10-09T08:20	10	62	5.2	56	71	380	0.5	380	381	10.5	98.2
2025-10-09T08:21	10	58	1.7	56	61	381	0.2	381	381	10.6	98.3
2025-10-09T08:22	10	57	2.6	53	63	381	0.2	381	381	10.6	97.9
2025-10-09T08:23	10	52	0.8	51	53	381	0.6	380	382	10.5	97.5
2025-10-09T08:24	10	51	0.2	51	52	380	0.2	379	380	10.5	97.0
2025-10-09T08:25	10	50	0.5	49	51	380	0.3	379	381	10.5	97.3
2025-10-09T08:26	10	49	0.3	48	49	380	0.2	379	380	10.4	97.3
2025-10-09T08:27	10	48	0.6	47	49	381	0.3	380	381	10.6	98.1
2025-10-09T08:28	10	45	0.7	44	47	381	0.3	380	381	10.6	99.4
2025-10-09T08:29	10	43	0.6	42	45	380	0.2	380	381	10.7	98.1
2025-10-09T08:30	10	42	0.2	42	43	380	0.3	380	381	10.7	97.4
2025-10-09T08:31	10	43	0.2	42	43	380	0.3	379	380	10.7	97.1
2025-10-09T08:32	10	43	0.2	43	44	380	0.3	379	380	10.7	96.9
2025-10-09T08:33	10	43	0.2	43	44	380	0.3	379	380	10.7	97.0
2025-10-09T08:34	10	44	0.2	44	45	380	0.3	379	381	10.7	97.2
2025-10-09T08:35	10	44	0.3	44	45	380	0.4	379	381	10.8	96.1
2025-10-09T08:36	10	43	0.5	42	44	380	0.3	379	380	10.7	95.9
2025-10-09T08:37	10	42	0.3	41	42	379	0.3	379	380	10.7	96.2
2025-10-09T08:38	10	41	0.4	40	41	380	0.3	379	381	10.7	96.6
2025-10-09T08:39	10	40	0.1	39	40	381	0.2	380	381	10.7	96.4
2025-10-09T08:40	10	40	0.5	40	41	381	0.2	380	381	10.8	96.0
2025-10-09T08:41	10	43	1.2	42	46	381	0.2	380	381	10.8	95.4
2025-10-09T08:42	10	47	0.9	46	49	382	0.4	380	382	10.9	95.8
2025-10-09T08:43	10	49	0.2	49	50	383	0.3	382	383	11.1	95.9
2025-10-09T08:44	10	49	0.4	48	50	382	0.5	381	384	11.1	94.7
2025-10-09T08:45	10	47	0.6	46	48	382	0.3	381	382	11.0	94.3
2025-10-09T08:46	10	46	0.1	46	46	381	0.3	381	382	11.1	94.5
2025-10-09T08:47	10	47	0.5	46	48	381	0.2	380	381	11.1	94.3
2025-10-09T08:48	10	49	0.7	48	51	382	0.2	381	382	11.2	94.5
2025-10-09T08:49	10	51	0.8	50	53	382	0.5	381	383	11.2	94.6
2025-10-09T08:50	10	53	0.3	53	54	383	0.2	383	384	11.3	94.6
2025-10-09T08:51	10	54	0.2	54	55	384	0.2	383	384	11.3	94.3
2025-10-09T08:52	10	55	0.4	55	56	384	0.3	383	384	11.3	94.3
2025-10-09T08:53	10	58	0.9	56	59	384	0.2	383	384	11.2	94.3
2025-10-09T08:54	10	60	0.2	60	60	384	0.4	384	385	11.3	94.5
2025-10-09T08:55	10	61	0.6	60	62	385	0.3	384	386	11.4	94.7
2025-10-09T08:56	10	64	0.9	63	65	385	0.3	385	386	11.4	94.3
2025-10-09T08:57	10	63	1.0	61	65	385	0.5	384	386	11.4	93.7
2025-10-09T08:58	10	61	0.5	60	61	385	0.4	384	386	11.3	93.8
2025-10-09T08:59	10	61	0.5	60	62	386	0.5	384	386	11.4	94.2
2025-10-09T09:00	10	60	0.2	60	60	385	0.4	384	386	11.4	93.2
2025-10-09T09:01	10	60	0.1	60	60	385	0.3	384	385	11.3	92.5
2025-10-09T09:02	10	60	0.2	60	61	385	0.4	384	386	11.3	92.9
2025-10-09T09:03	10	59	0.3	59	60	385	0.2	384	385	11.4	92.6
2025-10-09T09:04	10	60	0.4	59	60	385	0.2	384	385	11.4	92.6
2025-10-09T09:05	10	61	0.7	60	63	386	0.5	385	387	11.3	93.5
2025-10-09T09:06	10	63	0.3	63	64	388	0.5	387	389	11.5	93.9
2025-10-09T09:07	10	63	0.2	63	64	387	0.6	386	388	11.5	92.6
2025-10-09T09:08	10	63	0.1	63	63	387	0.3	386	388	11.6	93.2
2025-10-09T09:09	10	62	0.7	61	63	387	0.7	386	388	11.7	93.0
2025-10-09T09:10	10	59	1.4	57	62	386	0.7	384	387	11.6	92.7
2025-10-09T09:11	10	56	0.7	55	57	385	0.3	384	385	11.5	92.9
2025-10-09T09:12	10	55	0.2	54	55	385	0.3	384	385	11.4	92.7
2025-10-09T09:13	10	57	1.0	55	59	386	0.6	384	386	11.4	92.9
2025-10-09T09:14	10	60	0.9	59	62	386	0.3	385	386	11.5	92.4
2025-10-09T09:15	10	63	2.1	61	66	385	0.3	385	386	11.5	92.5
2025-10-09T09:16	10	70	3.3	66	80	386	0.5	385	387	11.5	92.2
2025-10-09T09:17	10	75	2.7	69	80	387	0.2	386	387	11.6	92.2
2025-10-09T09:18	10	80	1.6	78	83	388	0.4	387	388	11.6	92.4
2025-10-09T09:19	10	83	8.1	77	103	388	0.8	387	390	11.5	91.9
2025-10-09T09:20	10	98	7.2	90	113	391	0.7	389	392	11.6	92.1
2025-10-09T09:21	10	92	4.9	87	102	390	0.3	390	391	11.6	91.7
2025-10-09T09:22	10	88	5.5	80	96	391	0.5	390	392	11.7	92.3
2025-10-09T09:23	10	78	0.7	77	80	391	0.3	390	391	11.9	92.8
2025-10-09T09:24	10	80	0.7	78	80	391	0.5	390	391	12.1	92.8
2025-10-09T09:25	10	81	1.0	80	83	390	0.6	389	392	11.8	92.0
2025-10-09T09:26	10	79	2.1	75	82	389	0.2	389	390	11.7	92.6
2025-10-09T09:27	10	73	0.6	72	75	389	0.4	388	390	11.8	92.9
2025-10-09T09:28	10	72	0.7	71	74	389	0.3	389	390	12.0	92.9
2025-10-09T09:29	10	81	4.1	74	89	390	0.4	389	391	11.8	91.9
2025-10-09T09:30	10	83	3.4	77	90	391	0.4	390	392	11.8	92.1
2025-10-09T09:31	10	73	1.8	71	77	389	1.2	388	391	11.9	92.3
2025-10-09T09:32	10	68	1.8	64	71	389	0.3	388	389	11.8	92.4
2025-10-09T09:33	10	63	0.6	62	64	388	0.4	387	389	11.9	92.4
2025-10-09T09:34	10	60	1.2	58	62	387	0.4	386	388	11.9	92.0
2025-10-09T09:35	10	60	0.8	58	62	386	0.3	386	387	12.0	92.2
2025-10-09T09:36	10	67	3.4	62	73	387	0.6	386	389	11.9	92.0
2025-10-09T09:37	10	81	4.5	73	88	390	0.8	388	391	12.0	92.2
2025-10-09T09:38	10	88	1.7	84	90	391	0.4	390	392	12.0	91.9
2025-10-09T09:39	10	81	2.0	77	84	392	0.5	390	392	12.0	92.3
2025-10-09T09:40	10	79	5.5	73	87	391	0.4	390	391	12.1	92.2
2025-10-09T09:41	10	81	3.5	74	85	390	0.4	390	391	12.1	92.4
2025-10-09T09:42	10	68	2.4	65	73	390	0.7	389	391	12.3	91.9
2025-10-09T09:43	10	61	3.0	57	65	389	0.5	388	390	12.0	91.9
2025-10-09T09:44	10	62	3.1	57	66	388	0.3	387	389	11.9	91.8
2025-10-09T09:45	10	70	1.9	66	73	389	0.4	388	390	11.9	91.8
2025-10-09T09:46	10	79	2.6	74	83	390	0.5	388	390	12.1	91.9
2025-10-09T09:47	10	85	3.0	78	89	390	0.3	389	390	12.0	91.7
2025-10-09T09:48	10	76	1.8	74	81	389	0.4	389	390	11.9	92.0
2025-10-09T09:49	10	85	2.4	81	91	391	0.8	389	393	12.0	92.2
2025-10-09T09:50	10	119	14.0	92	135	396	3.0	391	400	12.1	92.2
2025-10-09T09:51	10	125	9.1	111	136	400	0.8	399	401	12.2	91.5
2025-10-09T09:52	10	115	11.0	101	136	399	1.2	397	401	12.1	90.6
2025-10-09T09:53	10	117	8.7	105	132	398	1.0	397	400	12.1	91.0
2025-10-09T09:54	10	122	11.8	100	138	400	0.6	399	402	12.3	91.5
2025-10-09T09:55	10	105	7.3	98	121	398	1.0	397	401	12.4	90.9
2025-10-09T09:56	10	132	6.2	122	140	400	1.1	398	401	12.3	90.8
2025-10-09T09:57	10	126	8.8	112	141	402	0.5	401	403	12.4	90.8
2025-10-09T09:58	10	153	8.1	129	159	404	1.1	402	405	12.5	90.5
2025-10-09T09:59	10	154	0.4	153	156	406	0.7	405	408	12.6	90.6
2025-10-09T10:00	10	151	1.3	149	153	407	0.6	406	408	13.2	92.1
2025-10-09T10:01	10	150	1.0	148	152	406	0.3	406	407	12.9	89.1
2025-10-09T10:02	10	153	0.9	151	154	408	0.4	407	409	12.8	89.1
2025-10-09T10:03	10	154	0.4	154	155	408	0.3	408	409	12.9	90.2
2025-10-09T10:04	10	153	1.6	150	156	409	0.5	408	410	13.2	89.8
2025-10-09T10:05	10	148	1.3	145	150	409	1.2	407	411	13.2	88.9
2025-10-09T10:06	10	144	0.8	142	145	406	1.0	405	408	13.2	88.6
2025-10-09T10:07	10	140	1.8	137	143	405	0.6	404	406	12.9	88.1
2025-10-09T10:08	10	136	3.7	129	140	405	0.4	404	406	12.9	88.8
2025-10-09T10:09	10	131	4.7	122	138	405	0.6	404	406	13.1	88.5
2025-10-09T10:10	10	128	18.7	88	143	404	1.2	401	405	13.1	88.5
2025-10-09T10:11	10	74	18.9	60	131	398	2.4	395	403	13.1	88.5
2025-10-09T10:12	10	138	1.2	133	139	402	2.4	397	405	13.0	88.8
2025-10-09T10:13	10	138	0.7	137	139	404	0.4	404	405	13.1	88.3
2025-10-09T10:14	10	139	0.4	138	140	406	0.8	404	407	13.2	87.8
2025-10-09T10:15	10	142	1.5	140	145	408	1.1	407	410	13.5	88.0
2025-10-09T10:16	10	149	2.1	145	151	409	1.5	406	410	13.5	87.1
2025-10-09T10:17	10	146	10.7	116	156	406	0.8	404	407	13.1	87.6
2025-10-09T10:18	10	139	10.1	115	148	404	0.3	403	404	12.9	87.5
2025-10-09T10:19	10	127	18.2	98	147	405	1.0	403	407	13.0	88.3
2025-10-09T10:20	10	145	9.4	121	151	407	1.6	404	409	13.2	87.8
2025-10-09T10:21	10	130	15.3	94	149	407	1.0	405	409	13.4	87.3
2025-10-09T10:22	10	123	20.0	80	144	407	1.9	403	409	13.6	86.8
2025-10-09T10:23	10	142	9.5	118	149	406	1.6	403	408	13.8	86.9
2025-10-09T10:24	10	143	1.4	140	145	408	0.3	407	408	13.8	86.1
2025-10-09T10:25	10	142	4.1	134	147	410	0.8	408	411	13.8	87.4
2025-10-09T10:26	10	138	7.6	122	155	409	0.5	408	410	13.7	86.2
2025-10-09T10:27	10	131	20.3	87	152	409	0.8	407	411	13.9	85.9
2025-10-09T10:28	10	125	25.8	85	158	408	1.5	405	410	14.1	85.4
2025-10-09T10:29	10	156	10.6	116	166	408	0.5	407	409	13.9	85.4
2025-10-09T10:30	10	131	18.1	85	162	407	1.1	405	409	13.7	85.8
2025-10-09T10:31	10	86	10.0	76	125	403	1.3	401	407	13.9	85.9
2025-10-09T10:32	10	140	4.8	132	150	405	1.7	402	407	13.7	85.4
2025-10-09T10:33	10	142	5.0	131	148	409	0.7	407	410	13.8	85.7
2025-10-09T10:34	10	122	26.9	74	147	409	1.8	404	411	14.1	86.0
2025-10-09T10:35	10	98	13.2	79	121	404	0.7	403	405	14.1	85.0
2025-10-09T10:36	10	141	8.4	97	148	406	2.1	402	410	14.0	85.4
2025-10-09T10:37	10	121	18.2	87	145	407	1.6	406	410	14.1	85.7
2025-10-09T10:38	10	116	30.9	59	153	404	2.3	400	407	13.9	85.6
2025-10-09T10:39	10	148	3.1	144	153	407	0.7	404	407	13.8	85.9
2025-10-09T10:40	10	142	1.1	140	144	407	0.4	407	408	14.0	86.0
2025-10-09T10:41	10	130	14.7	85	141	406	1.0	404	408	13.9	85.5
2025-10-09T10:42	10	131	18.0	85	142	404	0.3	403	405	13.7	85.6
2025-10-09T10:43	10	121	18.9	90	140	403	0.6	402	404	13.9	86.1
2025-10-09T10:44	10	138	3.8	130	142	404	1.0	403	406	14.0	86.2
2025-10-09T10:45	10	142	0.8	140	143	405	0.6	403	406	13.8	85.9
2025-10-09T10:46	10	143	0.5	141	143	406	0.2	405	406	13.7	86.2
2025-10-09T10:47	10	143	1.4	141	147	407	0.5	406	408	13.7	86.1
2025-10-09T10:48	10	149	0.8	146	150	409	0.5	408	410	13.9	85.7
2025-10-09T10:49	10	121	25.1	80	147	404	1.7	402	408	14.1	85.2
2025-10-09T10:50	10	143	2.2	139	146	406	0.9	404	407	13.9	85.7
2025-10-09T10:51	10	133	9.8	102	142	404	0.5	403	405	13.8	85.8
2025-10-09T10:52	10	92	29.7	56	143	402	1.8	399	405	13.8	86.0
2025-10-09T10:53	10	115	20.5	71	143	404	0.6	403	406	13.9	85.7
2025-10-09T10:54	10	136	12.1	95	148	407	1.5	403	409	14.0	85.5
2025-10-09T10:55	10	144	1.8	142	147	409	1.0	407	410	14.1	84.6
2025-10-09T10:56	10	142	1.0	139	143	409	1.0	407	411	14.5	83.8
2025-10-09T10:57	10	141	4.6	131	146	410	1.0	408	411	14.4	83.2
2025-10-09T10:58	10	146	1.5	143	148	413	1.2	411	415	14.6	83.0
2025-10-09T10:59	10	149	1.2	147	151	415	0.8	414	417	14.9	83.4
2025-10-09T11:00	10	151	0.3	150	152	415	0.4	414	416	14.9	83.0
2025-10-09T11:01	10	153	0.8	151	154	413	1.0	411	415	14.8	82.7
2025-10-09T11:02	10	153	0.4	152	153	411	0.7	410	413	14.4	82.9
2025-10-09T11:03	10	153	0.7	151	154	413	0.6	412	415	14.7	83.6
2025-10-09T11:04	10	149	0.6	149	151	410	1.2	408	413	14.4	83.0
2025-10-09T11:05	10	148	1.3	145	149	411	0.6	410	412	14.6	83.2
2025-10-09T11:06	10	147	0.6	145	148	408	1.3	406	411	14.3	82.8
2025-10-09T11:07	10	143	1.3	141	145	407	0.8	406	409	14.2	83.3
2025-10-09T11:08	10	142	0.5	141	142	410	0.7	409	412	14.3	83.7
2025-10-09T11:09	10	138	2.5	132	141	408	0.9	407	410	14.3	82.9
2025-10-09T11:10	10	140	0.8	138	140	408	0.4	407	409	14.5	82.9
2025-10-09T11:11	10	140	0.8	139	142	408	0.5	407	409	14.5	82.5
2025-10-09T11:12	10	138	3.8	130	144	410	0.7	408	411	14.8	82.4
2025-10-09T11:13	10	144	0.9	142	146	411	1.1	409	413	14.8	81.9
2025-10-09T11:14	10	146	0.8	145	148	411	1.0	409	413	14.8	81.4
2025-10-09T11:15	10	151	1.1	148	152	410	0.5	409	411	14.6	81.8
2025-10-09T11:16	10	148	7.9	131	154	411	0.5	410	412	14.9	82.0
2025-10-09T11:17	10	151	4.1	141	156	414	1.1	411	416	15.2	80.5
2025-10-09T11:18	10	156	1.1	155	159	415	0.5	414	416	15.3	80.6
2025-10-09T11:19	10	144	20.8	98	162	414	1.2	412	416	15.2	80.7
2025-10-09T11:20	10	163	0.9	161	164	417	0.5	415	418	15.4	80.8
2025-10-09T11:21	10	156	10.8	128	163	415	0.6	414	416	15.4	81.3
2025-10-09T11:22	10	162	0.8	160	163	418	0.7	416	419	15.3	81.4
2025-10-09T11:23	10	159	0.4	158	160	418	0.5	417	419	15.4	80.9
2025-10-09T11:24	10	160	0.5	159	160	415	1.1	413	418	15.2	80.8
2025-10-09T11:25	10	159	0.5	159	161	416	1.1	414	418	15.3	80.1
2025-10-09T11:26	10	162	0.8	161	164	417	0.5	415	418	15.3	81.2
2025-10-09T11:27	10	163	0.3	163	164	419	1.0	417	421	15.4	81.6
2025-10-09T11:28	10	166	3.0	161	169	421	1.2	420	424	15.8	79.8
2025-10-09T11:29	10	170	1.3	168	173	423	2.0	419	426	16.0	79.7
2025-10-09T11:30	10	173	0.7	172	174	419	0.5	418	420	15.4	79.3
2025-10-09T11:31	10	173	0.5	172	174	417	1.1	416	420	15.3	79.8
2025-10-09T11:32	10	172	2.1	167	175	416	0.5	415	418	15.4	78.5
2025-10-09T11:33	10	178	3.0	173	183	420	2.5	416	424	15.4	78.1
2025-10-09T11:34	10	183	1.1	181	185	424	0.4	423	424	15.8	77.9
2025-10-09T11:35	10	159	18.8	140	185	422	2.0	419	425	15.9	78.5
2025-10-09T11:36	10	177	12.1	155	190	421	0.6	419	421	15.7	78.8
2025-10-09T11:37	10	193	5.1	180	198	424	2.4	420	427	15.7	79.8
2025-10-09T11:38	10	188	9.1	173	199	425	1.6	422	427	16.1	77.8
2025-10-09T11:39	10	172	13.6	122	187	423	1.6	419	424	15.7	77.4
2025-10-09T11:40	10	117	8.6	107	137	415	2.4	412	421	15.7	79.0
2025-10-09T11:41	10	78	7.8	71	105	409	2.4	405	414	15.3	79.3
2025-10-09T11:42	10	69	1.1	67	71	406	0.5	405	408	15.4	79.5
2025-10-09T11:43	10	65	0.6	65	67	404	1.6	402	407	15.3	80.0
2025-10-09T11:44	10	66	1.4	64	70	403	0.7	402	405	15.3	79.8
2025-10-09T11:45	10	66	0.4	65	67	403	0.9	402	405	15.4	79.8
2025-10-09T11:46	10	68	1.2	66	71	401	0.4	401	402	15.2	80.4
2025-10-09T11:47	10	76	4.6	71	88	402	1.3	401	405	15.2	81.1
2025-10-09T11:48	10	94	19.9	84	169	406	1.3	404	411	15.5	80.6
2025-10-09T11:49	10	112	33.8	87	178	411	1.5	409	413	15.6	79.4
2025-10-09T11:50	10	89	0.7	88	91	409	1.1	407	410	15.6	79.1
2025-10-09T11:51	10	91	7.6	83	108	407	0.5	406	408	15.4	79.4
2025-10-09T11:52	10	82	0.6	80	83	407	0.8	405	408	15.6	79.9
2025-10-09T11:53	10	77	2.1	74	80	405	0.6	404	406	15.3	80.3
2025-10-09T11:54	10	72	1.0	70	74	403	0.9	401	404	15.1	81.5
2025-10-09T11:55	10	69	1.1	67	70	401	0.7	400	402	15.0	81.5
2025-10-09T11:56	10	66	0.7	65	67	401	0.4	399	402	15.1	81.6
2025-10-09T11:57	10	64	0.3	64	65	400	0.4	399	401	15.1	80.6
2025-10-09T11:58	10	63	0.2	63	64	400	0.3	399	401	15.1	81.2
2025-10-09T11:59	10	63	0.1	62	63	400	0.5	399	401	15.1	80.8
2025-10-09T12:00	10	63	0.3	63	64	399	0.3	398	400	15.1	80.3
2025-10-09T12:01	10	63	0.2	63	64	398	0.4	397	399	15.1	79.7
2025-10-09T12:02	10	64	1.3	63	66	398	0.5	397	399	15.1	79.9
2025-10-09T12:03	10	73	4.4	66	78	400	1.2	398	402	15.2	79.8
2025-10-09T12:04	10	80	7.5	75	98	400	0.8	399	401	15.1	79.7
2025-10-09T12:05	10	98	27.9	80	162	402	1.8	401	407	15.2	79.6
2025-10-09T12:06	10	119	18.4	97	154	407	0.7	405	409	15.3	79.1
2025-10-09T12:07	10	142	26.7	97	177	410	1.3	407	411	15.4	78.6
2025-10-09T12:08	10	111	10.7	97	127	407	0.6	406	408	15.4	78.3
2025-10-09T12:09	10	135	7.2	122	150	409	1.6	407	412	15.5	78.3
2025-10-09T12:10	10	132	13.8	103	152	411	0.3	410	412	15.6	78.2
2025-10-09T12:11	10	98	2.8	91	103	408	1.0	407	411	15.7	78.4
2025-10-09T12:12	10	93	2.4	90	97	406	0.8	405	408	15.5	78.3
2025-10-09T12:13	10	91	3.0	88	97	406	0.5	405	407	15.4	78.6
2025-10-09T12:14	10	127	32.5	91	176	408	2.0	405	412	15.5	78.4
2025-10-09T12:15	10	108	31.1	83	170	410	2.7	405	413	15.6	78.3
2025-10-09T12:16	10	79	2.0	75	82	406	0.5	405	407	15.5	78.2
2025-10-09T12:17	10	73	1.0	71	75	405	0.7	404	406	15.7	77.7
2025-10-09T12:18	10	70	0.8	68	71	404	0.4	403	405	15.6	77.5
2025-10-09T12:19	10	67	0.7	66	68	404	0.3	403	404	15.7	78.6
2025-10-09T12:20	10	65	0.3	65	66	403	0.6	402	404	15.6	78.4
2025-10-09T12:21	10	65	0.1	65	66	402	0.6	401	403	15.6	78.8
2025-10-09T12:22	10	67	1.2	65	69	401	0.4	400	402	15.5	78.9
2025-10-09T12:23	10	72	3.1	68	79	401	0.6	400	403	15.5	79.1
2025-10-09T12:24	10	79	14.1	68	111	402	0.9	401	404	15.5	79.3
2025-10-09T12:25	10	93	12.6	75	115	404	0.5	402	405	15.5	79.3
2025-10-09T12:26	10	129	28.8	83	165	405	3.4	401	411	15.4	79.3
2025-10-09T12:27	10	141	15.3	101	166	410	0.7	408	411	15.7	78.6
2025-10-09T12:28	10	160	1.9	157	166	413	1.6	410	415	15.9	78.0
2025-10-09T12:29	10	156	1.5	155	159	414	1.0	412	416	15.9	76.4
2025-10-09T12:30	10	153	1.1	151	155	412	0.5	411	413	15.8	75.9
2025-10-09T12:31	10	153	1.7	150	155	415	1.6	412	417	16.1	76.3
2025-10-09T12:32	10	156	0.8	154	157	416	1.1	414	418	16.1	76.0
2025-10-09T12:33	10	99	44.2	52	157	415	5.3	407	421	16.4	75.1
2025-10-09T12:34	10	161	9.1	111	164	415	2.7	408	418	16.3	74.5
2025-10-09T12:35	10	133	29.1	85	164	415	2.8	410	418	16.3	74.2
2025-10-09T12:36	10	148	23.6	108	177	412	1.1	411	414	16.3	74.1
2025-10-09T12:37	10	177	4.6	157	182	415	1.3	413	417	16.2	74.0
2025-10-09T12:38	10	151	12.6	130	170	416	0.7	414	417	16.3	73.4
2025-10-09T12:39	10	158	17.8	125	184	416	1.2	415	419	16.4	73.2
2025-10-09T12:40	10	88	13.6	73	127	413	3.2	409	420	16.4	73.0
2025-10-09T12:41	10	71	1.0	69	73	407	1.8	405	411	16.2	73.6
2025-10-09T12:42	10	68	0.4	67	69	404	0.8	402	406	15.9	72.6
2025-10-09T12:43	10	65	1.1	64	67	402	0.7	401	404	15.9	73.4
2025-10-09T12:44	10	62	0.8	61	63	401	0.3	401	402	15.9	74.0
2025-10-09T12:45	10	60	0.4	59	61	402	0.3	401	403	15.9	74.3
2025-10-09T12:46	10	59	0.5	58	60	401	0.6	400	402	15.7	74.7
2025-10-09T12:47	10	56	1.2	54	58	400	0.3	400	401	15.7	75.8
2025-10-09T12:48	10	51	1.4	49	54	399	0.5	399	400	15.8	76.2
2025-10-09T12:49	10	48	0.6	47	49	398	0.6	396	399	15.8	76.1
2025-10-09T12:50	10	45	0.7	44	47	396	0.6	395	397	15.6	75.4
2025-10-09T12:51	10	52	3.6	47	61	395	0.4	394	396	15.5	76.0
2025-10-09T12:52	10	75	22.8	58	128	397	1.5	395	401	15.6	76.0
2025-10-09T12:53	10	89	17.0	63	124	399	0.9	397	400	15.5	75.7
2025-10-09T12:54	10	78	10.3	63	104	399	1.0	397	401	15.6	75.3
2025-10-09T12:55	10	133	16.4	98	148	404	3.1	399	408	15.6	75.2
2025-10-09T12:56	10	151	2.8	145	153	407	1.0	406	409	15.6	75.0
2025-10-09T12:57	10	153	0.4	152	154	410	0.9	408	411	15.8	75.1
2025-10-09T12:58	10	153	1.1	151	156	414	1.2	411	415	16.0	75.2
2025-10-09T12:59	10	141	15.0	107	156	413	1.1	411	414	16.2	74.6
2025-10-09T13:00	10	105	26.8	65	149	411	2.2	407	413	16.3	74.5
2025-10-09T13:01	10	120	21.3	83	145	410	1.1	408	412	16.4	74.1
2025-10-09T13:02	10	115	38.2	58	157	410	2.2	405	413	16.2	73.7
2025-10-09T13:03	10	55	11.5	47	91	403	1.7	401	407	16.3	73.8
2025-10-09T13:04	10	51	17.2	39	92	401	2.3	397	404	16.0	74.1
2025-10-09T13:05	10	66	25.5	42	121	400	1.4	397	402	15.9	74.8
2025-10-09T13:06	10	45	18.8	33	92	397	1.8	395	400	15.8	74.5
2025-10-09T13:07	10	53	22.4	33	122	395	0.9	394	398	15.8	74.6
2025-10-09T13:08	10	120	19.0	84	138	402	3.0	397	407	15.8	74.7
2025-10-09T13:09	10	75	30.4	41	127	403	1.9	400	406	15.9	74.7
2025-10-09T13:10	10	73	41.4	40	138	401	2.2	398	406	16.1	74.8
2025-10-09T13:11	10	128	13.9	100	141	408	1.3	405	410	16.2	74.5
2025-10-09T13:12	10	119	23.3	59	139	408	1.2	404	410	16.1	74.3
2025-10-09T13:13	10	126	32.7	57	148	405	2.1	402	408	15.9	73.8
2025-10-09T13:14	10	141	3.8	132	145	409	0.4	408	409	16.0	74.1
2025-10-09T13:15	10	111	24.8	51	132	406	1.6	401	408	15.9	74.0
2025-10-09T13:16	10	99	33.8	53	142	403	2.1	400	407	16.0	74.1
2025-10-09T13:17	10	129	13.0	91	142	409	1.2	406	410	16.2	74.0
2025-10-09T13:18	10	133	17.6	92	145	411	1.4	408	412	16.4	73.9
2025-10-09T13:19	10	86	33.8	54	143	408	1.9	405	412	16.5	73.9
2025-10-09T13:20	10	101	24.9	58	137	406	1.9	404	409	16.2	74.0
2025-10-09T13:21	10	48	3.0	46	62	401	1.9	398	406	16.1	74.6
2025-10-09T13:22	10	68	12.4	48	94	401	1.0	399	402	16.1	74.9
2025-10-09T13:23	10	89	33.0	42	133	403	1.8	400	406	16.2	74.7
2025-10-09T13:24	10	42	3.8	39	52	400	1.0	399	403	16.3	74.3
2025-10-09T13:25	10	39	3.1	37	50	398	0.9	397	400	16.3	74.6
2025-10-09T13:26	10	39	1.0	38	43	397	0.3	396	397	16.1	74.4
2025-10-09T13:27	10	80	37.8	43	136	399	2.9	396	405	16.0	75.3
2025-10-09T13:28	10	115	18.9	81	139	406	1.1	403	408	16.1	74.8
2025-10-09T13:29	10	104	32.3	61	142	407	2.0	403	409	16.2	74.8
2025-10-09T13:30	10	75	29.1	50	132	403	2.2	400	406	16.1	74.7
2025-10-09T13:31	10	60	17.7	50	122	401	0.8	400	404	16.2	74.7
2025-10-09T13:32	10	140	5.2	122	146	408	2.5	402	411	16.4	74.8
2025-10-09T13:33	10	88	29.0	40	127	407	1.9	403	410	16.5	73.8
2025-10-09T13:34	10	36	1.5	34	40	400	2.4	396	405	16.3	73.3
2025-10-09T13:35	10	39	8.7	28	52	396	1.0	394	398	16.1	74.0
2025-10-09T13:36	10	26	1.3	24	28	394	0.7	393	395	16.0	74.5
2025-10-09T13:37	10	32	10.8	24	73	393	0.4	392	394	15.8	74.8
2025-10-09T13:38	10	112	8.5	79	117	399	3.1	392	403	15.8	75.5
2025-10-09T13:39	10	113	4.4	103	119	404	1.3	401	406	16.0	76.0
2025-10-09T13:40	10	116	16.6	56	126	409	1.3	405	410	16.1	75.5
2025-10-09T13:41	10	83	29.5	34	118	405	0.9	403	407	16.2	74.7
2025-10-09T13:42	10	43	22.9	31	113	400	1.5	398	404	16.2	75.0
2025-10-09T13:43	10	91	35.1	29	118	403	1.3	401	405	16.1	74.6
2025-10-09T13:44	10	35	9.2	29	61	398	1.3	397	402	16.2	74.4
2025-10-09T13:45	10	41	13.9	32	79	396	0.6	395	398	16.1	73.9
2025-10-09T13:46	10	82	32.4	35	119	399	1.7	397	402	16.0	73.0
2025-10-09T13:47	10	39	4.5	35	50	395	0.9	394	397	15.9	74.3
2025-10-09T13:48	10	102	26.0	40	119	399	3.4	394	404	16.0	74.4
2025-10-09T13:49	10	76	41.7	22	118	401	2.9	396	405	16.1	73.6
2025-10-09T13:50	10	40	31.1	22	113	395	1.3	393	398	16.0	73.8
2025-10-09T13:51	10	109	5.8	94	113	399	1.2	396	402	16.0	73.5
2025-10-09T13:52	10	114	0.2	113	114	401	0.6	400	402	15.9	73.0
2025-10-09T13:53	10	113	0.3	113	114	402	0.3	402	403	15.9	72.4
2025-10-09T13:54	10	112	0.1	112	113	404	0.4	403	405	16.0	73.0
2025-10-09T13:55	10	115	1.0	113	116	403	0.5	403	405	16.0	73.1
2025-10-09T13:56	10	104	12.5	77	115	405	0.4	404	405	16.1	73.1
2025-10-09T13:57	10	108	12.2	70	115	406	0.7	404	407	16.3	72.5
2025-10-09T13:58	10	64	22.0	38	111	402	1.6	400	405	16.3	72.6
2025-10-09T13:59	10	111	0.8	110	113	405	1.0	403	406	16.3	72.2
2025-10-09T14:00	10	109	3.1	102	112	403	0.4	402	404	16.1	71.7
2025-10-09T14:01	10	111	0.5	110	111	403	0.4	403	404	16.1	71.6
2025-10-09T14:02	10	109	0.4	108	110	405	0.3	404	406	16.2	71.9
2025-10-09T14:03	10	110	0.3	110	111	405	0.6	404	406	16.2	71.8
2025-10-09T14:04	10	110	0.3	110	111	404	0.3	403	404	16.3	71.6
2025-10-09T14:05	10	105	8.0	89	115	405	0.6	403	406	16.4	71.6
2025-10-09T14:06	10	117	0.7	115	118	405	0.7	404	406	16.4	71.3
2025-10-09T14:07	10	116	0.8	114	117	405	0.4	404	406	16.4	71.3
2025-10-09T14:08	10	112	5.9	94	115	405	0.4	404	405	16.2	71.3
2025-10-09T14:09	10	100	22.6	46	117	404	0.9	401	405	16.0	71.5
2025-10-09T14:10	10	74	30.7	41	118	401	1.6	399	404	16.1	71.9
2025-10-09T14:11	10	95	21.5	54	122	402	1.4	400	404	16.1	71.6
2025-10-09T14:12	10	119	3.3	108	123	404	0.7	403	405	16.1	71.4
2025-10-09T14:13	10	48	14.8	40	102	400	3.1	396	406	16.1	71.2
2025-10-09T14:14	10	59	13.5	42	86	397	0.6	396	399	16.0	71.4
2025-10-09T14:15	10	35	2.4	32	42	395	1.1	393	397	15.9	71.6
2025-10-09T14:16	10	32	0.1	32	32	394	0.3	393	394	15.9	72.0
2025-10-09T14:17	10	33	0.4	32	34	394	0.2	393	394	16.0	73.0
2025-10-09T14:18	10	53	19.3	34	97	395	1.6	393	399	16.1	73.7
2025-10-09T14:19	10	112	2.9	101	115	402	2.6	396	406	16.1	73.7
2025-10-09T14:20	10	116	0.3	115	116	405	0.9	403	406	16.2	74.3
2025-10-09T14:21	10	114	1.3	111	116	407	0.5	406	408	16.4	73.9
2025-10-09T14:22	10	92	24.6	38	111	406	1.6	402	408	16.4	73.4
2025-10-09T14:23	10	33	2.5	29	38	399	2.2	396	404	16.3	73.6
2025-10-09T14:24	10	33	6.4	26	60	395	1.1	393	397	16.2	74.0
2025-10-09T14:25	10	100	7.1	67	105	398	2.0	393	401	16.0	74.3
2025-10-09T14:26	10	106	0.4	105	106	402	1.3	400	404	16.2	74.5
2025-10-09T14:27	10	105	0.5	104	106	405	0.6	404	406	16.3	74.6
2025-10-09T14:28	10	101	2.4	93	104	403	0.8	402	405	16.2	73.2
2025-10-09T14:29	10	40	19.6	27	92	399	2.9	394	404	16.0	72.6
2025-10-09T14:30	10	32	6.2	27	55	394	0.7	394	396	16.0	73.4
2025-10-09T14:31	10	94	16.5	48	107	398	2.3	393	401	16.0	73.5
2025-10-09T14:32	10	39	1.7	36	45	398	0.9	397	400	16.2	73.9
2025-10-09T14:33	10	33	1.5	30	36	395	1.0	393	397	16.0	73.9
2025-10-09T14:34	10	27	1.8	24	30	393	0.9	391	394	15.9	73.4
2025-10-09T14:35	10	21	1.2	19	24	391	0.7	390	392	15.8	73.4
2025-10-09T14:36	10	18	0.6	17	19	389	0.3	388	390	15.9	73.5
2025-10-09T14:37	10	17	0.1	17	17	389	0.4	388	390	15.9	73.8
2025-10-09T14:38	10	19	3.4	17	32	388	0.3	388	389	15.9	73.4
2025-10-09T14:39	10	37	20.2	22	90	389	0.9	388	392	15.9	74.1
2025-10-09T14:40	10	94	0.5	92	95	395	1.9	391	397	15.9	73.8
2025-10-09T14:41	10	94	0.2	93	94	396	0.5	395	397	15.9	73.2
2025-10-09T14:42	10	92	0.2	92	93	397	0.4	396	397	15.9	73.5
2025-10-09T14:43	10	92	0.2	91	92	398	1.0	396	399	16.0	74.1
2025-10-09T14:44	10	91	0.4	90	92	399	0.4	398	400	16.1	74.1
2025-10-09T14:45	10	88	1.7	84	90	400	0.2	399	400	16.2	73.5
2025-10-09T14:46	10	86	2.1	81	89	399	0.8	397	400	16.2	73.2
2025-10-09T14:47	10	88	0.6	87	89	397	0.3	397	398	16.1	73.1
2025-10-09T14:48	10	88	0.5	86	88	397	0.4	396	397	16.1	72.8
2025-10-09T14:49	10	87	1.2	85	89	398	0.6	397	399	16.1	73.0
2025-10-09T14:50	10	88	0.5	87	88	398	0.4	397	399	16.1	72.5
2025-10-09T14:51	10	87	0.3	86	87	398	0.3	397	398	16.1	72.6
2025-10-09T14:52	10	87	0.1	87	87	398	0.2	398	399	16.1	72.4
2025-10-09T14:53	10	87	0.1	86	87	398	0.2	398	399	16.2	72.1
2025-10-09T14:54	10	86	0.1	86	86	398	0.2	397	398	16.2	72.1
2025-10-09T14:55	10	86	0.2	86	87	398	0.4	397	398	16.1	72.1
2025-10-09T14:56	10	86	0.2	85	86	397	0.3	397	398	16.1	72.1
2025-10-09T14:57	10	86	0.2	86	86	397	0.2	397	398	16.1	71.8
2025-10-09T14:58	10	86	0.2	86	86	398	0.2	397	398	16.1	72.2
2025-10-09T14:59	10	87	0.2	86	87	398	0.3	398	399	16.1	72.3
2025-10-09T15:00	10	86	0.4	85	87	397	0.5	396	398	16.0	71.6
2025-10-09T15:01	10	85	0.2	85	86	396	0.6	395	398	16.0	71.4
2025-10-09T15:02	10	84	0.2	84	85	396	0.3	395	396	15.9	71.7
2025-10-09T15:03	10	77	7.1	63	85	395	0.7	394	396	15.9	71.6
2025-10-09T15:04	10	73	13.0	35	81	395	0.4	393	395	15.9	72.0
2025-10-09T15:05	10	25	2.5	24	34	391	1.6	388	394	15.8	72.0
2025-10-09T15:06	10	27	4.9	24	41	389	0.4	389	390	15.8	72.4
2025-10-09T15:07	10	28	5.7	22	41	389	0.5	388	390	15.7	72.9
2025-10-09T15:08	10	23	0.5	23	24	389	0.2	388	389	15.7	73.1
2025-10-09T15:09	10	26	0.8	25	27	389	0.2	388	389	15.7	73.4
2025-10-09T15:10	10	30	1.7	27	33	389	0.4	388	390	15.7	73.7
2025-10-09T15:11	10	36	1.3	33	38	390	0.7	389	392	15.7	74.0
2025-10-09T15:12	10	38	0.2	38	39	391	0.4	390	392	15.7	74.8
2025-10-09T15:13	10	41	6.3	37	60	392	0.3	391	392	15.7	74.4
2025-10-09T15:14	10	81	6.9	61	85	394	1.3	391	395	15.8	74.3
2025-10-09T15:15	10	80	8.4	51	85	395	0.5	394	396	15.9	74.4
2025-10-09T15:16	10	58	13.1	43	79	394	0.4	393	395	15.9	73.8
2025-10-09T15:17	10	78	5.5	66	83	395	0.5	394	396	16.0	73.7
2025-10-09T15:18	10	69	6.4	48	77	395	0.5	394	396	16.0	73.7
2025-10-09T15:19	10	43	10.0	33	65	393	0.6	392	395	15.9	74.1
2025-10-09T15:20	10	50	12.9	30	66	393	0.8	392	394	15.9	74.3
2025-10-09T15:21	10	29	0.4	28	30	391	0.6	390	393	15.8	74.4
2025-10-09T15:22	10	28	0.2	28	28	390	0.3	390	391	15.7	74.9
2025-10-09T15:23	10	28	0.2	27	28	390	0.4	389	390	15.7	75.3
2025-10-09T15:24	10	27	0.3	26	28	390	0.3	389	390	15.6	75.7
2025-10-09T15:25	10	25	0.5	25	26	389	0.3	388	390	15.6	75.2
2025-10-09T15:26	10	24	0.5	23	25	388	0.3	387	389	15.5	75.1
2025-10-09T15:27	10	23	0.2	22	23	387	0.3	387	388	15.5	75.1
2025-10-09T15:28	10	21	0.4	20	22	387	0.3	386	387	15.5	74.7
2025-10-09T15:29	10	20	0.2	20	21	386	0.3	385	387	15.5	74.8
2025-10-09T15:30	10	22	1.5	20	25	386	0.3	385	386	15.5	75.3
2025-10-09T15:31	10	26	6.0	19	36	386	0.4	385	386	15.4	75.4
2025-10-09T15:32	10	19	0.2	19	20	385	0.2	385	386	15.4	75.1
2025-10-09T15:33	10	20	0.3	19	20	385	0.3	384	385	15.4	75.6
2025-10-09T15:34	10	21	0.8	20	24	385	0.3	384	385	15.3	75.8
2025-10-09T15:35	10	24	0.5	23	25	385	0.3	384	385	15.3	76.0
2025-10-09T15:36	10	39	10.0	25	56	386	1.1	384	387	15.3	76.1
2025-10-09T15:37	10	28	2.0	25	33	385	0.4	385	386	15.3	76.1
2025-10-09T15:38	10	25	0.4	24	26	385	0.2	384	386	15.3	76.5
2025-10-09T15:39	10	23	1.2	22	26	385	0.2	384	385	15.3	76.8
2025-10-09T15:40	10	22	0.2	22	22	384	0.2	384	385	15.3	77.3
2025-10-09T15:41	10	25	1.1	22	26	385	0.6	383	386	15.3	76.7
2025-10-09T15:42	10	22	0.3	21	23	385	0.3	384	386	15.3	76.2
2025-10-09T15:43	10	22	0.3	21	22	385	0.3	385	386	15.3	76.7
2025-10-09T15:44	10	23	0.3	22	24	386	0.2	385	386	15.3	77.0
2025-10-09T15:45	10	24	0.2	24	24	386	0.3	385	387	15.2	77.4
2025-10-09T15:46	10	24	0.2	23	24	386	0.2	386	386	15.2	77.8
2025-10-09T15:47	10	24	1.0	23	27	386	0.2	386	387	15.2	78.1
2025-10-09T15:48	10	26	1.8	24	29	387	0.2	386	387	15.2	77.8
2025-10-09T15:49	10	23	0.6	22	24	387	0.2	386	387	15.3	77.3
2025-10-09T15:50	10	22	0.1	21	22	386	0.2	386	387	15.3	76.5
2025-10-09T15:51	10	25	1.8	21	28	386	0.3	386	387	15.3	77.0
2025-10-09T15:52	10	21	1.2	19	24	386	0.2	386	387	15.3	76.2
2025-10-09T15:53	10	19	0.4	18	19	386	0.3	385	387	15.3	76.1
2025-10-09T15:54	10	17	0.3	17	18	386	0.2	385	387	15.3	76.9
2025-10-09T15:55	10	17	1.1	16	19	386	0.2	385	386	15.3	76.6
2025-10-09T15:56	10	16	0.5	15	17	385	0.3	385	386	15.3	76.0
2025-10-09T15:57	10	15	0.1	15	15	385	0.2	385	386	15.2	76.8
2025-10-09T15:58	10	16	0.5	15	17	385	0.3	385	386	15.2	77.4
2025-10-09T15:59	10	16	0.2	15	17	385	0.3	384	386	15.2	76.9
2025-10-09T16:00	10	18	1.1	16	20	385	0.2	384	385	15.2	77.4
2025-10-09T16:01	10	18	1.3	16	21	384	0.2	384	385	15.1	77.4
2025-10-09T16:02	10	18	1.0	17	21	384	0.3	383	385	15.1	76.6
2025-10-09T16:03	10	21	4.9	16	32	383	0.4	383	384	15.1	77.1
2025-10-09T16:04	10	25	3.9	21	32	384	0.4	383	384	15.1	77.4
2025-10-09T16:05	10	24	1.2	21	26	383	0.2	383	384	15.1	77.4
2025-10-09T16:06	10	18	2.5	15	23	383	0.4	382	384	15.0	77.6
2025-10-09T16:07	10	16	2.0	14	19	382	0.2	381	382	15.0	77.9
2025-10-09T16:08	10	18	0.7	16	19	382	0.2	381	382	15.0	78.2
2025-10-09T16:09	10	19	1.8	15	22	382	0.3	381	382	15.0	77.5
2025-10-09T16:10	10	18	4.4	13	26	382	0.2	381	382	15.0	76.5
2025-10-09T16:11	10	25	1.0	24	27	382	0.2	381	382	15.0	76.6
2025-10-09T16:12	10	24	0.4	24	25	382	0.3	381	382	15.0	76.6
2025-10-09T16:13	10	25	0.5	24	27	382	0.2	381	382	15.0	77.3
2025-10-09T16:14	10	29	1.0	27	30	381	0.3	381	382	14.9	78.0
2025-10-09T16:15	10	22	2.4	19	26	381	0.4	380	382	14.9	78.4
2025-10-09T16:16	10	24	2.4	21	28	381	0.3	380	381	14.9	79.1
2025-10-09T16:17	10	27	1.7	20	28	381	0.3	380	381	14.8	79.9
2025-10-09T16:18	10	13	3.2	10	19	380	0.6	379	381	14.8	80.3
2025-10-09T16:19	10	10	0.4	9	11	379	0.2	378	379	14.7	80.7
2025-10-09T16:20	10	12	2.4	9	16	379	0.2	378	379	14.7	81.0
2025-10-09T16:21	10	12	1.6	10	16	378	0.3	378	379	14.6	81.2
2025-10-09T16:22	10	9	0.7	8	11	378	0.3	377	378	14.6	81.2
2025-10-09T16:23	10	7	0.3	7	8	378	0.3	377	378	14.6	81.5
2025-10-09T16:24	10	7	0.1	6	7	377	0.3	377	378	14.5	81.6
2025-10-09T16:25	10	6	0.1	6	7	377	0.2	377	377	14.5	81.8
2025-10-09T16:26	10	6	0.1	6	6	377	0.4	376	378	14.5	81.7
2025-10-09T16:27	10	6	0.1	5	6	377	0.2	377	377	14.5	81.7
2025-10-09T16:28	10	5	0.1	5	6	377	0.1	376	377	14.4	81.9
2025-10-09T16:29	10	5	0.1	5	5	377	0.3	376	377	14.4	81.8
2025-10-09T16:30	10	5	0.2	5	5	377	0.2	376	377	14.4	81.8
2025-10-09T16:31	10	5	0.1	5	5	376	0.3	376	377	14.4	81.9
2025-10-09T16:32	10	5	0.2	5	5	376	0.5	375	377	14.4	81.8
2025-10-09T16:33	10	4	0.2	4	5	377	0.4	376	377	14.4	81.6
2025-10-09T16:34	10	4	0.1	4	4	377	0.2	376	377	14.4	81.7
2025-10-09T16:35	10	4	0.1	4	4	377	0.3	376	377	14.4	81.5
2025-10-09T16:36	10	4	0.1	4	4	377	0.3	376	378	14.3	81.7
2025-10-09T16:37	10	4	0.1	4	4	377	0.3	377	378	14.3	81.6
2025-10-09T16:38	10	4	0.1	4	4	377	0.3	376	378	14.3	82.1
2025-10-09T16:39	10	4	0.1	4	4	377	0.3	377	378	14.3	81.7
2025-10-09T16:40	10	3	0.1	3	4	377	0.3	376	378	14.3	81.9
2025-10-09T16:41	10	3	0.1	3	3	377	0.2	376	377	14.2	82.5
2025-10-09T16:42	10	3	0.1	3	3	376	0.4	375	377	14.2	82.8
2025-10-09T16:43	10	3	0.1	2	3	376	0.4	375	376	14.2	82.7
2025-10-09T16:44	10	2	0.1	2	3	376	0.3	375	377	14.2	82.6
2025-10-09T16:45	10	2	0.1	2	2	376	0.2	375	376	14.1	83.1
2025-10-09T16:46	10	2	0.1	2	2	376	0.3	375	376	14.1	83.1
2025-10-09T16:47	10	2	0.1	2	2	376	0.2	375	376	14.1	83.3
2025-10-09T16:48	10	2	0.1	2	2	376	0.3	375	376	14.1	83.2
2025-10-09T16:49	10	2	0.1	1	2	376	0.2	375	376	14.1	83.4
2025-10-09T16:50	10	1	0.1	1	2	376	0.2	376	377	14.1	83.3
2025-10-09T16:51	10	1	0.1	1	2	377	0.3	376	377	14.1	83.4
2025-10-09T16:52	10	1	0.1	1	1	377	0.3	376	377	14.1	83.3
2025-10-09T16:53	10	1	0.1	1	1	377	0.2	376	377	14.0	83.6
2025-10-09T16:54	10	1	0.1	1	1	377	0.2	377	378	14.0	84.0
2025-10-09T16:55	10	1	0.1	1	1	377	0.2	376	377	14.0	83.7
2025-10-09T16:56	10	1	0.1	1	1	377	0.3	376	378	14.0	83.9
2025-10-09T16:57	10	1	0.1	1	1	377	0.2	377	377	14.0	83.8
2025-10-09T16:58	10	1	0.1	1	1	377	0.3	377	378	14.0	83.9
2025-10-09T16:59	10	1	0.1	1	1	377	0.2	376	377	13.9	84.3
2025-10-09T17:00	10	1	0.1	1	1	377	0.3	376	377	13.9	84.7
2025-10-09T17:01	10	1	0.1	1	1	377	0.3	376	378	13.9	84.3
2025-10-09T17:02	10	1	0.1	1	1	377	0.3	377	378	13.9	83.8
2025-10-09T17:03	10	1	0.1	1	1	377	0.3	376	378	13.9	83.8
2025-10-09T17:04	10	1	0.1	1	1	377	0.2	377	378	13.9	84.4
2025-10-09T17:05	10	1	0.1	1	1	377	0.2	377	378	13.9	84.1
2025-10-09T17:06	10	1	0.1	1	1	377	0.2	376	377	13.9	84.4
2025-10-09T17:07	10	1	0.1	1	1	377	0.3	376	378	13.9	84.1
2025-10-09T17:08	10	1	0.1	1	1	377	0.2	377	378	13.9	83.5
2025-10-09T17:09	10	1	0.1	1	1	377	0.2	377	378	13.9	83.9
2025-10-09T17:10	10	1	0.0	1	1	377	0.2	377	377	13.9	84.2
2025-10-09T17:11	10	1	0.0	1	1	377	0.3	376	378	13.9	84.1
2025-10-09T17:12	10	1	0.0	1	1	377	0.3	376	378	13.9	84.2
2025-10-09T17:13	10	1	0.1	1	1	377	0.2	377	378	13.9	84.0
2025-10-09T17:14	10	1	0.1	1	1	377	0.3	376	378	13.9	84.2
2025-10-09T17:15	10	1	0.1	1	1	377	0.2	377	378	13.9	84.4
2025-10-09T17:16	10	1	0.1	1	1	377	0.3	376	378	13.9	84.5
2025-10-09T17:17	10	1	0.1	1	1	377	0.2	377	378	13.9	84.4
2025-10-09T17:18	10	1	0.1	1	1	377	0.3	377	378	13.9	84.6
2025-10-09T17:19	10	1	0.0	1	1	377	0.2	377	378	13.9	84.1
2025-10-09T17:20	10	1	0.0	1	1	377	0.3	377	378	13.9	84.5
2025-10-09T17:21	10	1	0.1	1	1	378	0.3	377	378	13.9	84.1
2025-10-09T17:22	10	1	0.0	1	1	377	0.2	377	378	13.9	84.1
2025-10-09T17:23	10	1	0.0	1	1	378	0.3	377	378	13.9	83.5
2025-10-09T17:24	10	1	0.0	1	1	377	0.2	377	378	13.9	83.7
2025-10-09T17:25	10	1	0.1	1	1	378	0.3	377	378	13.9	83.9
2025-10-09T17:26	10	1	0.1	1	1	378	0.3	377	378	13.9	83.3
2025-10-09T17:27	10	1	0.0	1	1	377	0.2	377	378	13.9	83.4
2025-10-09T17:28	10	1	0.1	1	1	377	0.3	377	378	13.9	83.5
2025-10-09T17:29	10	1	0.0	1	1	377	0.3	377	378	13.9	83.5
2025-10-09T17:30	10	1	0.0	1	1	377	0.2	377	378	13.9	83.2
2025-10-09T17:31	10	1	0.0	1	1	377	0.2	377	378	13.9	83.6
2025-10-09T17:32	10	1	0.0	1	1	377	0.2	376	378	13.8	83.7
2025-10-09T17:33	10	1	0.1	1	1	377	0.3	376	377	13.8	83.5
2025-10-09T17:34	10	1	0.0	1	1	377	0.2	376	377	13.8	83.9
2025-10-09T17:35	10	1	0.1	1	1	377	0.2	377	377	13.8	83.6
2025-10-09T17:36	10	1	0.0	1	1	377	0.3	376	378	13.8	83.3
2025-10-09T17:37	10	1	0.1	0	1	377	0.2	376	377	13.8	83.7
2025-10-09T17:38	10	1	0.1	1	1	377	0.3	376	377	13.8	83.5
2025-10-09T17:39	10	1	0.0	1	1	377	0.2	376	377	13.8	83.0
2025-10-09T17:40	10	1	0.0	1	1	377	0.2	377	378	13.8	83.4
2025-10-09T17:41	10	1	0.1	1	1	377	0.2	376	377	13.8	83.9
2025-10-09T17:42	10	1	0.1	0	1	377	0.2	377	378	13.8	83.5
2025-10-09T17:43	10	1	0.1	0	1	377	0.3	376	378	13.8	83.5
2025-10-09T17:44	10	1	0.1	0	1	377	0.3	377	378	13.8	83.2
2025-10-09T17:45	10	1	0.1	0	1	377	0.2	376	377	13.8	83.3
2025-10-09T17:46	10	1	0.0	1	1	377	0.2	376	377	13.8	83.3
2025-10-09T17:47	10	1	0.1	1	1	377	0.2	376	377	13.7	83.4
2025-10-09T17:48	10	1	0.1	0	1	376	0.3	376	377	13.7	83.7
2025-10-09T17:49	10	1	0.1	0	1	376	0.2	376	377	13.7	83.6
2025-10-09T17:50	10	1	0.2	0	1	376	0.2	376	377	13.7	83.5
2025-10-09T17:51	10	1	0.1	0	1	376	0.3	375	377	13.7	83.6
2025-10-09T17:52	10	1	0.1	0	1	377	0.2	376	377	13.7	82.9
2025-10-09T17:53	10	1	0.1	0	1	376	0.2	376	377	13.7	82.9
2025-10-09T17:54	10	1	0.1	0	1	376	0.2	376	377	13.7	83.1
2025-10-09T17:55	10	1	0.2	0	1	376	0.2	376	377	13.7	82.9
2025-10-09T17:56	10	1	0.2	0	1	376	0.3	376	377	13.7	82.8
2025-10-09T17:57	10	1	0.1	0	1	376	0.2	376	377	13.7	83.0
2025-10-09T17:58	10	1	0.2	0	1	376	0.3	376	377	13.7	82.9
2025-10-09T17:59	10	1	0.2	0	1	376	0.3	376	377	13.7	83.0
2025-10-09T18:00	10	1	0.2	0	1	377	0.3	376	377	13.7	82.9
2025-10-09T18:01	10	1	0.2	0	1	376	0.3	376	377	13.7	82.7
2025-10-09T18:02	10	1	0.2	0	1	376	0.3	376	377	13.7	82.8
2025-10-09T18:03	10	1	0.1	0	1	376	0.3	376	377	13.7	82.4
2025-10-09T18:04	10	1	0.2	0	1	376	0.3	376	377	13.7	82.6
2025-10-09T18:05	10	1	0.1	0	1	376	0.2	376	377	13.7	82.8
2025-10-09T18:06	10	1	0.1	0	1	376	0.3	375	377	13.6	83.2
2025-10-09T18:07	10	1	0.1	0	1	376	0.4	375	377	13.6	83.1
2025-10-09T18:08	10	1	0.1	0	1	376	0.3	375	376	13.7	82.7
2025-10-09T18:09	10	1	0.2	0	1	376	0.3	375	377	13.6	83.1
2025-10-09T18:10	10	1	0.1	0	1	376	0.2	375	376	13.6	83.3
2025-10-09T18:11	10	1	0.2	0	1	376	0.3	375	377	13.6	83.3
2025-10-09T18:12	10	1	0.1	0	1	375	0.3	375	376	13.6	83.1
2025-10-09T18:13	10	1	0.2	0	1	375	0.3	375	376	13.6	83.3
2025-10-09T18:14	10	1	0.1	0	1	375	0.3	374	375	13.6	83.5
2025-10-09T18:15	10	1	0.2	0	1	375	0.4	374	375	13.6	83.3
2025-10-09T18:16	10	1	0.1	0	1	375	0.3	374	376	13.6	83.0
2025-10-09T18:17	10	1	0.2	0	1	374	0.2	374	375	13.6	83.6
2025-10-09T18:18	10	1	0.1	0	1	374	0.4	373	375	13.5	83.4
2025-10-09T18:19	10	0	0.1	0	1	374	0.2	374	375	13.5	83.4
2025-10-09T18:20	10	1	0.1	0	1	374	0.2	374	375	13.5	83.6
2025-10-09T18:21	10	1	0.1	0	1	375	0.2	374	375	13.5	83.8
2025-10-09T18:22	10	1	0.1	0	1	375	0.2	374	375	13.5	83.8
2025-10-09T18:23	10	1	0.1	0	1	375	0.2	374	375	13.5	83.7
2025-10-09T18:24	10	1	0.1	0	1	375	0.3	374	376	13.5	83.9
2025-10-09T18:25	10	1	0.1	0	1	375	0.3	374	376	13.5	83.6
2025-10-09T18:26	10	1	0.1	0	1	375	0.3	375	376	13.5	83.6
2025-10-09T18:27	10	1	0.2	0	1	375	0.3	374	376	13.5	83.5
2025-10-09T18:28	10	1	0.1	0	1	376	0.3	375	376	13.6	83.4
2025-10-09T18:29	10	1	0.1	0	1	376	0.3	375	376	13.6	83.4
2025-10-09T18:30	10	1	0.1	0	1	376	0.3	375	376	13.6	83.4
2025-10-09T18:31	10	1	0.1	0	1	376	0.2	375	376	13.5	83.8
2025-10-09T18:32	10	1	0.1	0	1	376	0.2	375	376	13.5	83.7
2025-10-09T18:33	10	1	0.1	0	1	376	0.2	375	376	13.5	83.8
2025-10-09T18:34	10	1	0.1	0	1	376	0.3	375	376	13.5	83.6
2025-10-09T18:35	10	1	0.1	0	1	376	0.1	375	376	13.5	83.5
2025-10-09T18:36	10	1	0.1	0	1	376	0.2	375	376	13.5	83.7
2025-10-09T18:37	10	1	0.1	0	1	376	0.2	375	376	13.5	83.8
2025-10-09T18:38	10	1	0.1	0	1	376	0.3	375	376	13.5	83.5
2025-10-09T18:39	10	1	0.1	0	1	376	0.2	375	376	13.5	83.4
2025-10-09T18:40	10	1	0.1	0	1	376	0.2	375	376	13.5	83.4
2025-10-09T18:41	10	1	0.1	0	1	376	0.2	375	376	13.5	83.7
2025-10-09T18:42	10	1	0.0	1	1	376	0.2	375	376	13.5	83.4
2025-10-09T18:43	10	1	0.1	0	1	376	0.2	375	376	13.5	83.3
2025-10-09T18:44	10	1	0.1	1	1	376	0.2	375	376	13.5	83.3
2025-10-09T18:45	10	1	0.1	0	1	376	0.3	375	376	13.5	83.3
2025-10-09T18:46	10	1	0.0	0	1	376	0.2	375	376	13.5	83.1
2025-10-09T18:47	10	1	0.0	1	1	376	0.2	375	376	13.5	82.8
2025-10-09T18:48	10	1	0.1	1	1	376	0.2	375	376	13.5	83.2
2025-10-09T18:49	10	1	0.1	0	1	375	0.2	375	376	13.5	83.1
2025-10-09T18:50	10	1	0.0	1	1	375	0.2	375	376	13.5	82.7
2025-10-09T18:51	10	1	0.0	1	1	375	0.2	375	376	13.5	83.0
2025-10-09T18:52	10	1	0.1	1	1	375	0.3	375	376	13.5	82.4
2025-10-09T18:53	10	1	0.1	0	1	375	0.3	375	376	13.5	82.5
2025-10-09T18:54	10	1	0.1	0	1	375	0.2	375	376	13.5	82.1
2025-10-09T18:55	10	1	0.1	0	1	375	0.2	375	376	13.5	82.5
2025-10-09T18:56	10	1	0.1	0	1	375	0.2	375	376	13.4	82.4
2025-10-09T18:57	10	1	0.0	0	1	375	0.2	375	376	13.4	82.2
2025-10-09T18:58	10	1	0.0	1	1	375	0.2	375	376	13.5	81.9
2025-10-09T18:59	10	1	0.1	0	1	375	0.2	375	376	13.5	81.6
2025-10-09T19:00	10	1	0.1	1	1	375	0.2	375	376	13.5	81.5
2025-10-09T19:01	10	1	0.1	0	1	375	0.2	375	376	13.5	81.3
2025-10-09T19:02	10	1	0.0	1	1	375	0.2	375	376	13.5	81.2
2025-10-09T19:03	10	1	0.0	1	1	376	0.2	375	376	13.5	81.1
2025-10-09T19:04	10	1	0.0	1	1	376	0.2	375	376	13.5	81.1
2025-10-09T19:05	10	1	0.1	0	1	375	0.2	375	376	13.5	81.3
2025-10-09T19:06	10	1	0.0	1	1	375	0.2	375	376	13.5	81.1
2025-10-09T19:07	10	1	0.0	1	1	376	0.2	375	376	13.5	81.4
2025-10-09T19:08	10	1	0.0	1	1	376	0.3	375	376	13.5	81.3
2025-10-09T19:09	10	1	0.0	1	1	375	0.2	375	376	13.5	81.7
2025-10-09T19:10	10	1	0.2	1	2	376	0.2	375	376	13.5	81.1
2025-10-09T19:11	10	1	0.1	1	1	375	0.3	375	376	13.5	81.1
2025-10-09T19:12	10	1	0.1	1	1	375	0.2	375	376	13.5	81.4
2025-10-09T19:13	10	1	0.0	1	1	375	0.3	375	376	13.5	81.5
2025-10-09T19:14	10	1	0.0	1	1	376	0.2	375	376	13.5	81.2
2025-10-09T19:15	10	1	0.0	1	1	375	0.2	375	376	13.5	80.9
2025-10-09T19:16	10	1	0.0	1	1	375	0.2	375	376	13.4	81.4
2025-10-09T19:17	10	1	0.1	1	1	375	0.2	375	376	13.4	78.7
2025-10-09T19:18	10	1	0.0	0	1	375	0.2	375	376	13.4	81.4
2025-10-09T19:19	10	1	0.1	0	1	375	0.2	375	376	13.4	81.4
2025-10-09T19:20	10	1	0.0	1	1	375	0.3	374	375	13.4	77.4
2025-10-09T19:21	10	1	0.1	0	1	375	0.2	374	375	13.4	81.4
2025-10-09T19:22	10	1	0.0	1	1	375	0.2	374	376	13.4	81.4
2025-10-09T19:23	10	1	0.1	0	1	375	0.3	375	376	13.4	81.4
2025-10-09T19:24	10	1	0.1	0	1	375	0.2	375	376	13.4	81.1
2025-10-09T19:25	10	1	0.1	0	1	375	0.3	375	376	13.4	81.2
2025-10-09T19:26	10	1	0.1	0	1	375	0.3	375	376	13.4	81.7
2025-10-09T19:27	10	1	0.1	0	1	375	0.3	374	375	13.4	81.6
2025-10-09T19:28	10	1	0.1	0	1	375	0.2	375	376	13.4	81.9
2025-10-09T19:29	10	1	0.0	0	1	375	0.2	375	376	13.4	82.4
2025-10-09T19:30	10	1	0.0	1	1	375	0.2	375	376	13.4	82.2
2025-10-09T19:31	10	1	0.0	1	1	375	0.3	375	376	13.4	82.1
2025-10-09T19:32	10	1	0.0	1	1	375	0.2	375	376	13.4	82.2
2025-10-09T19:33	10	1	0.1	0	1	375	0.3	374	376	13.4	82.4
2025-10-09T19:34	10	1	0.1	0	1	375	0.2	375	376	13.4	82.4
2025-10-09T19:35	10	1	0.1	0	1	375	0.2	374	375	13.4	82.5
2025-10-09T19:36	10	1	0.1	0	1	375	0.2	374	375	13.4	82.8
2025-10-09T19:37	10	1	0.0	1	1	375	0.3	375	376	13.4	82.8
2025-10-09T19:38	10	1	0.0	1	1	375	0.2	375	376	13.4	82.6
2025-10-09T19:39	10	1	0.0	1	1	375	0.2	375	376	13.4	82.7
2025-10-09T19:40	10	1	0.1	1	1	375	0.3	375	376	13.4	83.0
2025-10-09T19:41	10	1	0.1	0	1	375	0.2	375	375	13.4	83.2
2025-10-09T19:42	10	1	0.1	0	1	375	0.2	374	376	13.4	83.3
2025-10-09T19:43	10	1	0.0	1	1	375	0.3	374	376	13.4	83.4
2025-10-09T19:44	10	1	0.1	0	1	375	0.3	374	376	13.4	83.4
2025-10-09T19:45	10	1	0.1	0	1	375	0.2	375	376	13.4	83.6
2025-10-09T19:46	10	1	0.1	0	1	375	0.2	375	376	13.4	83.5
2025-10-09T19:47	10	1	0.1	0	1	375	0.2	375	376	13.4	83.5
2025-10-09T19:48	10	1	0.1	1	1	375	0.2	375	376	13.4	83.7
2025-10-09T19:49	10	1	0.1	1	1	375	0.2	375	375	13.4	83.8
2025-10-09T19:50	10	1	0.1	0	1	375	0.2	375	376	13.4	83.7
2025-10-09T19:51	10	1	0.0	1	1	375	0.2	375	376	13.3	84.1
2025-10-09T19:52	10	1	0.1	1	1	375	0.2	374	376	13.3	84.2
2025-10-09T19:53	10	1	0.1	1	1	375	0.2	375	376	13.3	84.3
2025-10-09T19:54	10	1	0.0	1	1	375	0.2	375	376	13.4	84.2
2025-10-09T19:55	10	1	0.1	1	1	376	0.2	375	376	13.4	84.0
2025-10-09T19:56	10	1	0.1	0	1	375	0.2	375	376	13.4	84.3
2025-10-09T19:57	10	1	0.1	0	1	375	0.2	375	376	13.4	84.5
2025-10-09T19:58	10	1	0.0	1	1	375	0.2	375	376	13.4	84.5
2025-10-09T19:59	10	1	0.1	0	1	375	0.2	375	376	13.3	84.8
2025-10-09T20:00	10	1	0.1	1	1	375	0.2	375	376	13.3	84.9
2025-10-09T20:01	10	1	0.0	1	1	375	0.2	375	376	13.3	84.6
2025-10-09T20:02	10	1	0.1	1	1	375	0.2	375	376	13.4	84.5
2025-10-09T20:03	10	1	0.1	1	1	375	0.2	375	376	13.4	84.3
2025-10-09T20:04	10	0	0.1	0	1	375	0.2	375	376	13.4	84.7
2025-10-09T20:05	10	0	0.1	0	1	375	0.2	375	376	13.4	84.6
2025-10-09T20:06	10	0	0.1	0	1	375	0.2	375	376	13.3	84.8
2025-10-09T20:07	10	0	0.1	0	1	375	0.2	375	376	13.4	84.7
2025-10-09T20:08	10	1	0.6	0	4	375	0.2	375	376	13.4	84.7
2025-10-09T20:09	10	0	0.1	0	1	376	0.3	375	376	13.4	84.5
2025-10-09T20:10	10	0	0.1	0	1	376	0.2	375	376	13.4	84.5
2025-10-09T20:11	10	0	0.0	0	1	375	0.2	375	376	13.4	84.7
2025-10-09T20:12	10	0	0.0	0	1	375	0.2	375	376	13.3	84.8
2025-10-09T20:13	10	0	0.1	0	1	375	0.2	375	376	13.3	85.0
2025-10-09T20:14	10	0	0.1	0	1	375	0.3	374	376	13.3	85.1
2025-10-09T20:15	10	0	0.1	0	1	375	0.2	375	376	13.3	85.0
2025-10-09T20:16	10	0	0.1	0	1	375	0.2	375	376	13.3	84.9
2025-10-09T20:17	10	1	0.1	0	1	375	0.2	375	376	13.3	85.0
2025-10-09T20:18	10	0	0.1	0	1	375	0.2	375	376	13.3	84.9
2025-10-09T20:19	10	0	0.1	0	1	375	0.2	375	376	13.3	85.1
2025-10-09T20:20	10	0	0.0	0	1	375	0.2	375	376	13.3	84.8
2025-10-09T20:21	10	0	0.1	0	1	375	0.2	375	376	13.3	84.7
2025-10-09T20:22	10	0	0.0	0	1	375	0.2	375	376	13.3	84.9
2025-10-09T20:23	10	0	0.0	0	1	375	0.2	375	376	13.3	84.8
2025-10-09T20:24	10	0	0.1	0	1	375	0.2	374	375	13.3	84.9
2025-10-09T20:25	10	0	0.1	0	1	375	0.2	374	375	13.3	85.4
2025-10-09T20:26	10	0	0.1	0	1	375	0.2	374	375	13.3	85.2
2025-10-09T20:27	10	1	0.0	1	1	375	0.2	374	375	13.3	85.2
2025-10-09T20:28	10	1	0.0	1	1	375	0.2	375	375	13.3	84.9
2025-10-09T20:29	10	1	0.1	1	1	375	0.3	374	376	13.4	84.8
2025-10-09T20:30	10	1	0.1	1	1	375	0.2	375	375	13.3	85.1
2025-10-09T20:31	10	0	0.1	0	1	375	0.2	374	375	13.3	85.3
2025-10-09T20:32	10	0	0.0	0	1	375	0.2	374	376	13.3	85.1
2025-10-09T20:33	10	0	0.0	0	1	375	0.2	374	375	13.3	85.0
2025-10-09T20:34	10	0	0.1	0	1	375	0.3	374	375	13.3	85.0
2025-10-09T20:35	10	0	0.0	0	1	375	0.2	374	375	13.3	85.1
2025-10-09T20:36	10	0	0.1	0	1	375	0.2	374	376	13.3	85.3
2025-10-09T20:37	10	0	0.0	0	1	375	0.2	374	375	13.3	85.3
2025-10-09T20:38	10	0	0.0	0	1	375	0.2	374	375	13.3	85.3
2025-10-09T20:39	10	0	0.0	0	1	375	0.2	374	375	13.3	85.3
2025-10-09T20:40	10	0	0.0	0	1	375	0.2	374	376	13.3	85.2
2025-10-09T20:41	10	0	0.0	0	1	375	0.2	374	376	13.3	85.3
2025-10-09T20:42	10	0	0.0	0	1	375	0.2	375	376	13.3	85.6
2025-10-09T20:43	10	0	0.0	0	1	375	0.2	375	375	13.3	85.5
2025-10-09T20:44	10	0	0.0	0	1	375	0.2	375	375	13.3	85.5
2025-10-09T20:45	10	0	0.0	0	1	375	0.2	375	376	13.3	85.3
2025-10-09T20:46	10	0	0.1	0	1	375	0.2	375	376	13.3	85.4
2025-10-09T20:47	10	0	0.0	0	1	375	0.2	375	376	13.3	85.7
2025-10-09T20:48	10	0	0.1	0	1	375	0.2	375	375	13.3	85.8
2025-10-09T20:49	10	0	0.0	0	1	375	0.2	374	375	13.3	85.6
2025-10-09T20:50	10	0	0.1	0	1	375	0.2	375	376	13.3	85.5
2025-10-09T20:51	10	0	0.1	0	1	375	0.2	375	376	13.3	85.5
2025-10-09T20:52	10	0	0.1	0	1	375	0.2	375	376	13.3	85.6
2025-10-09T20:53	10	0	0.1	0	1	375	0.3	374	376	13.3	85.5
2025-10-09T20:54	10	0	0.1	0	1	375	0.2	375	376	13.4	85.3
2025-10-09T20:55	10	0	0.1	0	1	375	0.2	375	376	13.4	85.3
2025-10-09T20:56	10	0	0.1	0	1	375	0.3	375	376	13.4	85.2
2025-10-09T20:57	10	0	0.1	0	1	375	0.2	375	376	13.4	85.3
2025-10-09T20:58	10	1	0.1	1	1	375	0.2	375	376	13.4	85.1
2025-10-09T20:59	10	1	0.0	1	1	375	0.2	375	376	13.5	84.6
2025-10-09T21:00	10	1	0.1	0	1	375	0.2	375	376	13.4	84.8
2025-10-09T21:01	10	1	0.1	0	1	375	0.2	375	376	13.5	84.4
2025-10-09T21:02	10	1	0.1	0	1	375	0.2	375	375	13.4	84.8
2025-10-09T21:03	10	1	0.1	1	1	375	0.3	374	376	13.5	84.6
2025-10-09T21:04	10	1	0.1	0	1	375	0.3	374	375	13.4	85.2
2025-10-09T21:05	10	1	0.1	0	1	375	0.2	374	375	13.4	84.9
2025-10-09T21:06	10	1	0.1	0	1	375	0.3	374	376	13.5	84.4
2025-10-09T21:07	10	1	0.1	0	1	375	0.3	374	376	13.6	83.6
2025-10-09T21:08	10	1	0.1	0	1	375	0.3	374	375	13.6	83.5
2025-10-09T21:09	10	1	0.1	0	1	375	0.3	374	375	13.6	83.9
2025-10-09T21:10	10	1	0.1	0	1	374	0.2	374	375	13.6	83.8
2025-10-09T21:11	10	1	0.1	0	1	374	0.2	374	375	13.6	83.6
2025-10-09T21:12	10	1	0.1	0	1	374	0.4	373	375	13.5	83.8
2025-10-09T21:13	10	1	0.1	0	1	374	0.3	373	374	13.5	84.0
2025-10-09T21:14	10	1	0.1	0	1	374	0.2	373	374	13.6	83.6
2025-10-09T21:15	10	1	0.1	0	1	374	0.2	373	374	13.6	83.5
2025-10-09T21:16	10	1	0.1	0	1	374	0.3	373	374	13.6	83.5
2025-10-09T21:17	10	1	0.1	0	1	374	0.2	373	374	13.5	83.7
2025-10-09T21:18	10	1	0.1	0	1	374	0.2	373	374	13.6	83.5
2025-10-09T21:19	10	1	0.1	0	1	374	0.2	373	375	13.6	83.6
2025-10-09T21:20	10	1	0.1	1	1	375	0.4	374	375	13.6	83.2
2025-10-09T21:21	10	1	0.0	0	1	375	0.3	374	375	13.6	83.3
2025-10-09T21:22	10	1	0.1	0	1	375	0.2	374	375	13.5	83.6
2025-10-09T21:23	10	1	0.1	0	1	375	0.3	374	375	13.6	83.6
2025-10-09T21:24	10	1	0.1	0	1	375	0.2	375	376	13.6	83.4
2025-10-09T21:25	10	1	0.1	0	1	375	0.3	374	376	13.6	83.5
2025-10-09T21:26	10	1	0.1	0	1	375	0.3	374	376	13.5	83.8
2025-10-09T21:27	10	1	0.1	0	1	375	0.3	374	376	13.5	83.7
2025-10-09T21:28	10	1	0.1	0	1	375	0.4	374	375	13.5	84.0
2025-10-09T21:29	10	1	0.0	0	1	375	0.3	374	376	13.6	83.6
2025-10-09T21:30	10	1	0.1	0	1	375	0.2	374	375	13.5	83.9
2025-10-09T21:31	10	1	0.1	0	1	375	0.3	374	376	13.5	83.7
2025-10-09T21:32	10	1	0.1	0	1	375	0.3	374	375	13.5	83.9
2025-10-09T21:33	10	1	0.1	0	1	375	0.2	374	375	13.6	83.6
2025-10-09T21:34	10	1	0.1	0	1	375	0.2	374	375	13.6	83.6
2025-10-09T21:35	10	1	0.1	0	1	375	0.2	374	375	13.5	83.9
2025-10-09T21:36	10	1	0.1	0	1	375	0.2	374	376	13.5	84.0
2025-10-09T21:37	10	1	0.1	0	1	375	0.2	374	375	13.5	84.4
2025-10-09T21:38	10	1	0.1	0	1	375	0.3	374	376	13.4	84.6
2025-10-09T21:39	10	1	0.1	0	1	375	0.2	374	375	13.4	84.5
2025-10-09T21:40	10	1	0.1	0	1	375	0.2	374	375	13.4	84.8
2025-10-09T21:41	10	1	0.1	0	1	375	0.3	374	375	13.4	85.3
2025-10-09T21:42	10	1	0.1	0	1	375	0.3	374	375	13.3	85.5
2025-10-09T21:43	10	1	0.1	0	1	374	0.2	374	375	13.3	86.1
2025-10-09T21:44	10	0	0.1	0	1	374	0.2	374	375	13.2	86.3
2025-10-09T21:45	10	0	0.1	0	1	374	0.2	374	375	13.2	86.3
2025-10-09T21:46	10	0	0.1	0	0	374	0.2	374	375	13.2	86.1
2025-10-09T21:47	10	0	0.1	0	1	374	0.2	374	375	13.2	86.4
2025-10-09T21:48	10	0	0.1	0	0	374	0.2	373	374	13.2	86.6
2025-10-09T21:49	10	0	0.1	0	1	374	0.2	373	375	13.2	86.6
2025-10-09T21:50	10	0	0.1	0	1	374	0.3	373	374	13.2	86.5
2025-10-09T21:51	10	0	0.1	0	1	374	0.3	373	374	13.2	86.4
2025-10-09T21:52	10	0	0.1	0	1	373	0.2	373	374	13.2	86.3
2025-10-09T21:53	10	0	0.1	0	1	373	0.2	373	374	13.2	86.3
2025-10-09T21:54	10	0	0.1	0	1	373	0.2	373	374	13.2	86.3
2025-10-09T21:55	10	0	0.1	0	0	373	0.2	373	374	13.2	86.2
2025-10-09T21:56	10	0	0.1	0	0	373	0.2	373	373	13.2	86.4
2025-10-09T21:57	10	0	0.1	0	0	373	0.3	372	374	13.2	86.3
2025-10-09T21:58	10	0	0.1	0	1	372	0.3	372	373	13.2	86.3
2025-10-09T21:59	10	0	0.1	0	1	372	0.3	372	373	13.2	86.0
2025-10-09T22:00	10	0	0.1	0	1	372	0.3	372	373	13.2	86.2
2025-10-09T22:01	10	0	0.1	0	1	372	0.3	371	372	13.1	86.5
2025-10-09T22:02	10	0	0.1	0	1	371	0.3	371	372	13.1	86.4
2025-10-09T22:03	10	0	0.1	0	1	371	0.3	370	372	13.1	86.8
2025-10-09T22:04	10	0	0.1	0	1	371	0.2	370	371	13.1	86.8
2025-10-09T22:05	10	0	0.1	0	1	371	0.2	370	372	13.1	86.8
2025-10-09T22:06	10	0	0.1	0	1	371	0.2	370	372	13.1	86.7
2025-10-09T22:07	10	0	0.1	0	1	370	0.2	370	371	13.1	86.9
2025-10-09T22:08	10	0	0.1	0	1	370	0.2	370	371	13.0	87.0
2025-10-09T22:09	10	0	0.1	0	1	370	0.3	369	371	13.0	87.0
2025-10-09T22:10	10	0	0.1	0	1	370	0.2	370	371	13.1	86.8
2025-10-09T22:11	10	0	0.1	0	1	370	0.3	370	371	13.1	86.5
2025-10-09T22:12	10	0	0.1	0	1	370	0.4	369	371	13.1	86.5
2025-10-09T22:13	10	0	0.1	0	1	370	0.2	369	370	13.1	86.6
2025-10-09T22:14	10	0	0.1	0	1	370	0.3	369	370	13.1	86.2
2025-10-09T22:15	10	0	0.1	0	1	370	0.2	369	370	13.1	86.5
2025-10-09T22:16	10	0	0.1	0	1	369	0.3	369	370	13.0	86.8
2025-10-09T22:17	10	0	0.1	0	1	370	0.3	369	370	13.0	87.0
2025-10-09T22:18	10	0	0.1	0	1	370	0.3	370	371	13.0	87.0
2025-10-09T22:19	10	0	0.1	0	1	371	0.4	370	372	13.0	86.9
2025-10-09T22:20	10	0	0.1	0	0	371	0.3	371	372	13.0	86.8
2025-10-09T22:21	10	0	0.1	0	0	372	0.2	371	372	13.0	86.7
2025-10-09T22:22	10	0	0.1	0	0	372	0.3	371	372	13.0	86.7
2025-10-09T22:23	10	0	0.1	0	1	372	0.2	371	372	13.0	86.8
2025-10-09T22:24	10	0	0.1	0	1	372	0.3	371	372	13.0	87.2
2025-10-09T22:25	10	0	0.1	0	1	372	0.3	371	372	13.0	86.8
2025-10-09T22:26	10	0	0.1	0	1	372	0.2	371	373	13.0	86.8
2025-10-09T22:27	10	0	0.1	0	1	371	0.2	371	372	13.0	86.8
2025-10-09T22:28	10	0	0.1	0	1	372	0.3	371	372	13.0	86.6
2025-10-09T22:29	10	0	0.1	0	1	372	0.4	371	372	13.0	86.5
2025-10-09T22:30	10	0	0.1	0	1	372	0.3	371	372	13.0	86.7
2025-10-09T22:31	10	0	0.1	0	1	372	0.3	371	373	13.0	86.4
2025-10-09T22:32	10	0	0.1	0	1	372	0.3	371	372	13.0	86.5
2025-10-09T22:33	10	0	0.1	0	1	372	0.2	371	372	13.0	86.5
2025-10-09T22:34	10	0	0.1	0	1	372	0.2	371	373	13.1	86.3
2025-10-09T22:35	10	0	0.1	0	1	372	0.3	371	373	13.0	86.5
2025-10-09T22:36	10	0	0.1	0	1	372	0.2	372	373	13.0	86.6
2025-10-09T22:37	10	0	0.1	0	1	372	0.2	371	373	13.0	86.7
2025-10-09T22:38	10	0	0.1	0	1	372	0.3	371	373	13.0	86.9
2025-10-09T22:39	10	0	0.1	0	1	372	0.2	371	373	13.0	87.1
2025-10-09T22:40	10	0	0.1	0	1	372	0.3	371	373	13.0	86.9
2025-10-09T22:41	10	0	0.1	0	1	372	0.2	371	373	13.0	86.3
2025-10-09T22:42	10	0	0.1	0	0	373	0.3	372	373	13.1	86.2
2025-10-09T22:43	10	0	0.1	0	1	373	0.2	372	373	13.0	86.5
2025-10-09T22:44	10	0	0.1	0	1	373	0.2	372	373	13.0	86.4
2025-10-09T22:45	10	0	0.1	0	1	372	0.3	372	373	13.0	86.6
2025-10-09T22:46	10	0	0.1	0	1	372	0.2	372	373	13.0	86.9
2025-10-09T22:47	10	0	0.1	0	1	372	0.3	372	373	13.0	87.2
2025-10-09T22:48	10	0	0.1	0	1	372	0.2	372	373	12.9	87.4
2025-10-09T22:49	10	0	0.1	0	1	372	0.2	372	373	13.0	87.1
2025-10-09T22:50	10	0	0.1	0	1	372	0.3	371	372	13.0	87.1
2025-10-09T22:51	10	0	0.1	0	1	372	0.3	371	372	13.0	87.2
2025-10-09T22:52	10	0	0.1	0	1	371	0.3	370	372	12.9	87.5
2025-10-09T22:53	10	0	0.1	0	1	371	0.3	370	371	12.9	87.4
2025-10-09T22:54	10	0	0.1	0	1	370	0.3	369	371	12.9	87.6
2025-10-09T22:55	10	0	0.1	0	1	370	0.2	369	370	12.9	87.7
2025-10-09T22:56	10	0	0.1	0	1	370	0.2	370	371	12.9	87.6
2025-10-09T22:57	10	0	0.1	0	1	370	0.3	369	371	12.9	87.7
2025-10-09T22:58	10	0	0.1	0	1	370	0.2	370	371	12.9	88.1
2025-10-09T22:59	10	0	0.1	0	1	370	0.3	370	371	12.9	88.1
2025-10-09T23:00	10	0	0.1	0	1	370	0.3	369	370	12.9	87.9
2025-10-09T23:01	10	0	0.1	0	1	370	0.2	369	370	12.8	88.4
2025-10-09T23:02	10	0	0.1	0	1	369	0.2	369	370	12.8	88.5
2025-10-09T23:03	10	0	0.1	0	1	370	0.2	369	370	12.8	88.5
2025-10-09T23:04	10	0	0.1	0	1	370	0.2	369	370	12.8	88.3
2025-10-09T23:05	10	0	0.1	0	1	369	0.2	369	370	12.8	88.4
2025-10-09T23:06	10	0	0.1	0	1	368	0.3	368	369	12.8	88.7
2025-10-09T23:07	10	0	0.1	0	1	368	0.2	368	369	12.8	89.0
2025-10-09T23:08	10	0	0.1	0	1	368	0.2	368	369	12.8	89.1
2025-10-09T23:09	10	0	0.1	0	1	368	0.2	367	368	12.7	89.4
2025-10-09T23:10	10	0	0.1	0	1	368	0.2	367	368	12.7	89.7
2025-10-09T23:11	10	0	0.1	0	1	368	0.4	367	369	12.7	89.7
2025-10-09T23:12	10	0	0.1	0	1	368	0.2	368	369	12.6	89.8
2025-10-09T23:13	10	0	0.1	0	0	369	0.3	368	369	12.7	89.6
2025-10-09T23:14	10	0	0.1	0	1	369	0.2	368	369	12.6	89.7
2025-10-09T23:15	10	0	0.1	0	0	369	0.4	369	370	12.7	89.3
2025-10-09T23:16	10	0	0.1	0	0	370	0.3	369	370	12.7	89.5
2025-10-09T23:17	10	0	0.1	0	0	369	0.2	369	370	12.6	89.7
2025-10-09T23:18	10	0	0.1	0	1	369	0.4	369	370	12.6	89.6
2025-10-09T23:19	10	0	0.1	0	0	370	0.2	369	370	12.6	89.3
2025-10-09T23:20	10	0	0.1	0	0	369	0.2	369	370	12.6	89.6
2025-10-09T23:21	10	0	0.1	0	0	369	0.3	369	370	12.6	89.4
2025-10-09T23:22	10	0	0.1	0	0	370	0.2	369	370	12.6	89.5
2025-10-09T23:23	10	0	0.1	0	0	369	0.2	369	370	12.6	89.7
2025-10-09T23:24	10	0	0.1	0	0	369	0.2	368	370	12.6	89.8
2025-10-09T23:25	10	0	0.1	0	0	369	0.3	368	370	12.6	89.8
2025-10-09T23:26	10	0	0.1	0	0	369	0.2	369	370	12.6	89.6
2025-10-09T23:27	10	0	0.1	0	0	369	0.3	369	370	12.5	89.8
2025-10-09T23:28	10	0	0.1	0	0	369	0.2	368	369	12.5	90.0
2025-10-09T23:29	10	0	0.1	0	0	369	0.2	368	369	12.5	89.9
2025-10-09T23:30	10	0	0.1	0	0	368	0.2	368	369	12.5	89.9
2025-10-09T23:31	10	0	0.1	0	0	368	0.2	368	369	12.5	89.8
2025-10-09T23:32	10	0	0.1	0	0	368	0.4	367	369	12.5	89.7
2025-10-09T23:33	10	0	0.1	0	0	368	0.2	368	369	12.5	89.8
2025-10-09T23:34	10	0	0.1	0	0	368	0.2	368	369	12.4	90.1
2025-10-09T23:35	10	0	0.1	0	0	368	0.2	368	369	12.4	90.0
2025-10-09T23:36	10	0	0.1	0	0	368	0.2	368	368	12.4	90.1
2025-10-09T23:37	10	0	0.1	0	0	368	0.2	368	369	12.4	90.0
2025-10-09T23:38	10	0	0.1	0	0	368	0.3	368	369	12.4	90.1
2025-10-09T23:39	10	0	0.1	0	0	368	0.2	368	369	12.4	90.3
2025-10-09T23:40	10	0	0.1	0	0	368	0.2	368	369	12.4	90.2
2025-10-09T23:41	10	0	0.1	0	0	368	0.2	368	369	12.4	90.3
2025-10-09T23:42	10	0	0.1	0	0	368	0.2	368	369	12.4	90.4
2025-10-09T23:43	10	0	0.1	0	0	369	0.3	368	369	12.4	90.4
2025-10-09T23:44	10	0	0.1	0	0	369	0.2	368	369	12.4	90.5
2025-10-09T23:45	10	0	0.1	0	0	369	0.2	368	369	12.4	90.7
2025-10-09T23:46	10	0	0.1	0	0	369	0.2	368	370	12.4	90.2
2025-10-09T23:47	10	0	0.1	0	0	368	0.3	368	369	12.4	90.0
2025-10-09T23:48	10	0	0.1	0	0	368	0.2	367	368	12.4	90.0
2025-10-09T23:49	10	0	0.1	0	0	368	0.4	367	368	12.4	90.1
2025-10-09T23:50	10	0	0.1	0	0	367	0.2	367	368	12.4	90.1
2025-10-09T23:51	10	0	0.1	0	0	367	0.2	366	367	12.4	90.3
2025-10-09T23:52	10	0	0.1	0	0	366	0.2	366	367	12.3	90.6
2025-10-09T23:53	10	0	0.1	0	0	367	0.3	366	368	12.3	90.8
2025-10-09T23:54	10	0	0.1	0	0	367	0.4	367	369	12.3	90.7
2025-10-09T23:55	10	0	0.1	0	0	368	0.3	368	369	12.3	90.5
2025-10-09T23:56	10	0	0.1	0	0	368	0.2	368	369	12.3	90.6
2025-10-09T23:57	10	0	0.1	0	0	368	0.3	367	369	12.3	90.7
2025-10-09T23:58	10	0	0.1	0	0	367	0.2	367	368	12.3	90.7
2025-10-09T23:59	10	0	0.1	0	0	367	0.3	366	367	12.3	90.3
2025-10-10T00:00	10	0	0.1	0	0	366	0.4	365	367	12.3	90.6
2025-10-10T00:01	10	0	0.1	0	0	365	0.2	365	366	12.2	90.7
2025-10-10T00:02	10	0	0.1	0	1	364	0.4	363	365	12.2	90.6
2025-10-10T00:03	10	0	0.1	0	0	364	0.3	363	364	12.2	91.0
2025-10-10T00:04	10	0	0.1	0	0	364	0.3	364	365	12.2	90.8
2025-10-10T00:05	10	0	0.1	0	0	364	0.3	363	364	12.2	90.7
2025-10-10T00:06	10	0	0.1	0	0	363	0.3	363	364	12.1	90.9
2025-10-10T00:07	10	0	0.1	0	0	363	0.4	362	364	12.1	91.0
2025-10-10T00:08	10	0	0.1	0	0	363	0.3	362	364	12.1	90.9
2025-10-10T00:09	10	0	0.1	0	0	363	0.5	362	364	12.1	91.0
2025-10-10T00:10	10	0	0.0	0	0	363	0.3	362	363	12.1	91.1
2025-10-10T00:11	10	0	0.1	0	0	363	0.2	362	363	12.0	91.1
2025-10-10T00:12	10	0	0.1	0	0	362	0.2	362	363	12.0	91.1
2025-10-10T00:13	10	0	0.1	0	0	362	0.3	361	362	12.0	91.2
2025-10-10T00:14	10	0	0.1	0	0	361	0.3	360	362	11.9	91.5
2025-10-10T00:15	10	0	0.1	0	0	361	0.3	361	362	11.9	91.6
2025-10-10T00:16	10	0	0.1	0	0	362	0.3	361	362	11.9	91.5
2025-10-10T00:17	10	0	0.1	0	0	362	0.4	361	362	11.9	91.4
2025-10-10T00:18	10	0	0.1	0	0	361	0.3	360	362	11.9	91.6
2025-10-10T00:19	10	0	0.1	0	0	360	0.3	360	361	11.8	91.8
2025-10-10T00:20	10	0	0.1	0	0	360	0.3	360	361	11.8	91.7
2025-10-10T00:21	10	0	0.1	0	0	360	0.3	359	360	11.8	92.1
2025-10-10T00:22	10	0	0.1	0	0	359	0.2	359	360	11.8	92.3
2025-10-10T00:23	10	0	0.1	0	0	358	0.3	358	359	11.7	92.2
2025-10-10T00:24	10	0	0.1	0	0	358	0.4	358	359	11.7	92.4
2025-10-10T00:25	10	0	0.1	0	0	359	0.2	358	359	11.7	92.4
2025-10-10T00:26	10	0	0.1	0	0	359	0.4	358	360	11.6	92.5
2025-10-10T00:27	10	0	0.1	0	0	359	0.2	359	360	11.6	92.5
2025-10-10T00:28	10	0	0.1	0	0	359	0.2	358	359	11.6	92.8
2025-10-10T00:29	10	0	0.1	0	0	360	0.8	358	361	11.6	92.5
2025-10-10T00:30	10	0	0.1	0	0	360	0.3	360	361	11.7	92.3
2025-10-10T00:31	10	0	0.1	0	0	360	0.3	359	360	11.7	92.4
2025-10-10T00:32	10	0	0.0	0	0	359	0.4	358	360	11.6	92.5
2025-10-10T00:33	10	0	0.1	0	0	358	0.2	358	359	11.7	92.4
2025-10-10T00:34	10	0	0.1	0	0	357	0.4	356	358	11.6	92.7
2025-10-10T00:35	10	0	0.1	0	0	358	0.4	357	358	11.6	92.8
2025-10-10T00:36	10	0	0.6	0	4	358	0.3	358	359	11.6	92.8
2025-10-10T00:37	10	0	0.1	0	0	359	0.3	358	360	11.6	92.7
2025-10-10T00:38	10	0	0.1	0	0	358	0.2	358	359	11.6	92.9
2025-10-10T00:39	10	0	0.1	0	0	358	0.3	357	359	11.5	93.1
2025-10-10T00:40	10	0	0.1	0	0	357	0.3	357	358	11.5	93.3
2025-10-10T00:41	10	0	0.1	0	0	357	0.2	357	358	11.4	93.5
2025-10-10T00:42	10	0	0.1	0	0	358	0.3	357	358	11.5	93.2
2025-10-10T00:43	10	0	0.1	0	1	358	0.3	358	359	11.5	92.8
2025-10-10T00:44	10	0	0.1	0	0	359	0.4	358	360	11.5	93.0
2025-10-10T00:45	10	0	0.1	0	0	360	0.3	359	361	11.6	92.6
2025-10-10T00:46	10	0	0.1	0	0	360	0.2	359	360	11.6	92.5
2025-10-10T00:47	10	0	0.1	0	0	359	0.3	359	360	11.6	92.6
2025-10-10T00:48	10	0	0.1	0	0	359	0.3	359	360	11.6	92.6
2025-10-10T00:49	10	0	0.1	0	1	359	0.3	359	360	11.6	92.6
2025-10-10T00:50	10	0	0.1	0	1	359	0.2	358	359	11.6	92.3
2025-10-10T00:51	10	0	0.1	0	0	359	0.3	358	359	11.6	92.5
2025-10-10T00:52	10	0	0.1	0	1	359	0.3	358	359	11.6	92.4
2025-10-10T00:53	10	0	0.1	0	1	358	0.2	358	359	11.5	92.8
2025-10-10T00:54	10	0	0.1	0	1	358	0.3	357	359	11.4	93.0
2025-10-10T00:55	10	0	0.1	0	0	359	0.3	358	360	11.5	92.8
2025-10-10T00:56	10	0	0.1	0	0	358	0.3	358	359	11.4	93.1
2025-10-10T00:57	10	0	0.1	0	0	358	0.3	358	359	11.4	93.2
2025-10-10T00:58	10	0	0.1	0	0	358	0.3	357	359	11.4	93.1
2025-10-10T00:59	10	0	0.1	0	0	358	0.4	357	359	11.4	93.3
2025-10-10T01:00	10	0	0.1	0	1	357	0.3	356	357	11.4	93.4
2025-10-10T01:01	10	0	0.1	0	1	357	0.3	356	358	11.4	93.0
2025-10-10T01:02	10	0	0.1	0	1	357	0.3	357	358	11.4	93.1
2025-10-10T01:03	10	0	0.1	0	1	357	0.3	356	357	11.4	93.3
2025-10-10T01:04	10	0	0.1	0	1	357	0.3	357	358	11.5	92.7
2025-10-10T01:05	10	0	0.1	0	1	357	0.3	356	357	11.4	92.9
2025-10-10T01:06	10	0	0.1	0	1	357	0.3	356	357	11.4	92.9
2025-10-10T01:07	10	0	0.1	0	1	357	0.4	356	358	11.4	92.9
2025-10-10T01:08	10	0	0.1	0	1	357	0.3	356	358	11.4	93.0
2025-10-10T01:09	10	0	0.2	0	1	357	0.4	356	358	11.4	92.9
2025-10-10T01:10	10	0	0.1	0	0	357	0.4	356	357	11.3	93.1
2025-10-10T01:11	10	0	0.2	0	1	356	0.2	355	356	11.4	93.2
2025-10-10T01:12	10	0	0.2	0	1	356	0.2	355	356	11.4	93.2
2025-10-10T01:13	10	0	0.2	0	1	356	0.3	355	357	11.4	93.0
2025-10-10T01:14	10	0	0.1	0	0	357	0.3	356	357	11.4	92.6
2025-10-10T01:15	10	0	0.1	0	1	356	0.2	355	356	11.4	92.7
2025-10-10T01:16	10	0	0.1	0	0	356	0.3	355	357	11.4	92.5
2025-10-10T01:17	10	0	0.2	0	1	356	0.4	355	357	11.4	92.7
2025-10-10T01:18	10	0	0.1	0	0	355	0.2	355	356	11.4	92.6
2025-10-10T01:19	10	0	0.1	0	0	355	0.3	354	356	11.3	92.9
2025-10-10T01:20	10	0	0.1	0	1	355	0.3	354	355	11.2	93.2
2025-10-10T01:21	10	0	0.8	0	6	355	0.3	354	356	11.2	93.3
2025-10-10T01:22	10	0	0.1	0	1	356	0.4	355	357	11.3	92.9
2025-10-10T01:23	10	0	0.1	0	0	357	0.3	356	358	11.3	93.1
2025-10-10T01:24	10	0	0.2	0	1	356	0.3	356	357	11.3	93.3
2025-10-10T01:25	10	0	0.1	0	1	356	0.3	356	357	11.3	93.3
2025-10-10T01:26	10	0	0.2	0	1	356	0.3	356	357	11.2	93.2
2025-10-10T01:27	10	0	0.1	0	1	357	0.4	356	358	11.2	93.2
2025-10-10T01:28	10	0	0.1	0	1	358	0.3	357	358	11.2	93.2
2025-10-10T01:29	10	0	0.1	0	1	358	0.3	357	358	11.2	93.2
2025-10-10T01:30	10	0	0.1	0	1	358	0.2	358	359	11.3	93.2
2025-10-10T01:31	10	0	0.1	0	1	358	0.3	358	359	11.2	93.4
2025-10-10T01:32	10	0	0.1	0	1	358	0.3	358	359	11.2	93.4
2025-10-10T01:33	10	0	0.2	0	1	359	0.3	358	359	11.2	93.5
2025-10-10T01:34	10	0	0.1	0	1	358	0.2	358	359	11.2	93.6
2025-10-10T01:35	10	0	0.1	0	1	359	0.3	358	360	11.2	93.5
2025-10-10T01:36	10	0	0.1	0	1	359	0.3	359	360	11.2	93.6
2025-10-10T01:37	10	0	0.1	0	1	360	0.2	359	360	11.2	93.8
2025-10-10T01:38	10	0	0.1	0	1	360	0.3	360	361	11.2	93.5
2025-10-10T01:39	10	0	0.1	0	1	360	0.2	360	361	11.2	93.4
2025-10-10T01:40	10	0	0.1	0	1	361	0.2	360	361	11.2	93.7
2025-10-10T01:41	10	0	0.1	0	0	361	0.2	361	362	11.1	93.5
2025-10-10T01:42	10	0	0.1	0	0	361	0.3	361	362	11.2	93.2
2025-10-10T01:43	10	0	0.1	0	0	361	0.2	361	362	11.2	93.1
2025-10-10T01:44	10	0	0.1	0	0	362	0.3	361	362	11.2	93.0
2025-10-10T01:45	10	0	0.1	0	0	363	0.3	362	363	11.2	92.8
2025-10-10T01:46	10	0	0.1	0	0	363	0.3	362	364	11.2	92.8
2025-10-10T01:47	10	0	0.1	0	0	363	0.2	362	363	11.2	92.8
2025-10-10T01:48	10	0	0.1	0	0	363	0.3	363	364	11.2	92.6
2025-10-10T01:49	10	0	0.1	0	0	363	0.2	363	364	11.2	92.8
2025-10-10T01:50	10	0	0.1	0	0	364	0.2	363	364	11.1	93.1
2025-10-10T01:51	10	0	0.1	0	0	364	0.2	363	364	11.1	93.1
2025-10-10T01:52	10	0	0.1	0	0	364	0.2	364	364	11.2	92.4
2025-10-10T01:53	10	0	0.1	0	0	364	0.2	363	364	11.1	92.7
2025-10-10T01:54	10	0	0.1	0	0	364	0.2	364	365	11.2	92.1
2025-10-10T01:55	10	0	0.1	0	1	364	0.2	364	365	11.2	92.2
2025-10-10T01:56	10	0	0.1	0	0	364	0.2	364	365	11.2	92.2
2025-10-10T01:57	10	0	0.1	0	0	365	0.2	364	365	11.2	92.1
2025-10-10T01:58	10	0	0.1	0	0	364	0.2	364	365	11.2	91.9
2025-10-10T01:59	10	0	0.1	0	0	365	0.3	364	365	11.2	91.9
2025-10-10T02:00	10	0	0.1	0	0	365	0.2	364	365	11.2	91.7
2025-10-10T02:01	10	0	0.1	0	0	365	0.2	364	365	11.2	91.8
2025-10-10T02:02	10	0	0.1	0	0	365	0.2	364	365	11.2	91.8
2025-10-10T02:03	10	0	0.1	0	0	364	0.2	364	365	11.2	92.0
2025-10-10T02:04	10	0	0.0	0	0	365	0.2	364	365	11.2	91.7
2025-10-10T02:05	10	0	0.1	0	0	365	0.2	364	365	11.3	91.1
2025-10-10T02:06	10	0	0.1	0	0	365	0.2	364	365	11.3	91.1
2025-10-10T02:07	10	0	0.1	0	0	365	0.2	364	365	11.3	90.9
2025-10-10T02:08	10	0	0.1	0	0	365	0.2	364	365	11.3	90.8
2025-10-10T02:09	10	0	0.1	0	0	365	0.2	364	365	11.3	90.7
2025-10-10T02:10	10	0	0.1	0	0	365	0.3	364	365	11.3	90.7
2025-10-10T02:11	10	0	0.1	0	0	365	0.2	364	365	11.3	91.0
2025-10-10T02:12	10	0	0.1	0	0	365	0.2	364	365	11.2	91.2
2025-10-10T02:13	10	0	0.1	0	0	365	0.3	364	365	11.3	90.7
2025-10-10T02:14	10	0	0.1	0	0	365	0.2	364	365	11.2	91.1
2025-10-10T02:15	10	0	0.1	0	0	364	0.2	364	365	11.2	91.4
2025-10-10T02:16	10	0	0.1	0	0	364	0.2	364	365	11.1	91.4
2025-10-10T02:17	10	0	0.1	0	1	364	0.2	364	365	11.2	91.0
2025-10-10T02:18	10	0	0.1	0	1	365	0.1	364	365	11.2	91.1
2025-10-10T02:19	10	0	0.1	0	1	364	0.2	364	365	11.2	91.0
2025-10-10T02:20	10	0	0.1	0	0	365	0.2	364	365	11.2	90.7
2025-10-10T02:21	10	0	0.1	0	0	364	0.2	364	365	11.2	90.6
2025-10-10T02:22	10	0	0.1	0	1	365	0.2	364	365	11.2	90.4
2025-10-10T02:23	10	0	0.1	0	0	364	0.2	364	365	11.2	90.4
2025-10-10T02:24	10	0	0.1	0	0	364	0.2	364	365	11.3	90.2
2025-10-10T02:25	10	0	0.1	0	0	365	0.2	364	365	11.3	90.0
2025-10-10T02:26	10	0	0.1	0	0	365	0.2	364	365	11.3	90.3
2025-10-10T02:27	10	0	0.1	0	0	365	0.2	364	365	11.3	90.1
2025-10-10T02:28	10	0	0.1	0	0	365	0.2	364	365	11.3	90.0
2025-10-10T02:29	10	0	0.1	0	0	364	0.2	364	365	11.2	90.6
2025-10-10T02:30	10	0	0.1	0	0	364	0.2	364	365	11.3	89.9
2025-10-10T02:31	10	0	0.1	0	0	364	0.2	364	364	11.3	89.8
2025-10-10T02:32	10	0	0.1	0	0	364	0.2	363	364	11.3	89.8
2025-10-10T02:33	10	0	0.1	0	0	364	0.2	363	365	11.3	89.5
2025-10-10T02:34	10	0	0.1	0	0	364	0.2	363	364	11.2	89.8
2025-10-10T02:35	10	0	0.1	0	0	364	0.2	364	365	11.2	89.4
2025-10-10T02:36	10	0	0.1	0	1	364	0.2	363	364	11.3	88.5
2025-10-10T02:37	10	0	0.1	0	0	364	0.2	363	364	11.3	89.1
2025-10-10T02:38	10	0	0.1	0	0	364	0.2	363	364	11.2	89.8
2025-10-10T02:39	10	0	0.1	0	0	364	0.2	363	364	11.2	89.3
2025-10-10T02:40	10	0	0.1	0	0	364	0.2	363	364	11.2	89.1
2025-10-10T02:41	10	0	0.1	0	0	364	0.2	363	364	11.2	89.2
2025-10-10T02:42	10	0	0.1	0	1	364	0.2	363	364	11.2	88.9
2025-10-10T02:43	10	0	0.1	0	0	364	0.2	363	364	11.2	88.9
2025-10-10T02:44	10	0	0.1	0	0	363	0.2	363	364	11.2	89.1
2025-10-10T02:45	10	0	0.1	0	0	363	0.2	363	364	11.1	89.4
2025-10-10T02:46	10	0	0.1	0	0	363	0.2	363	364	11.1	89.3
2025-10-10T02:47	10	0	0.1	0	0	363	0.2	363	364	11.1	89.8
2025-10-10T02:48	10	0	0.1	0	0	363	0.3	362	363	11.1	90.0
2025-10-10T02:49	10	0	0.0	0	0	363	0.2	363	363	11.0	90.5
2025-10-10T02:50	10	0	0.1	0	0	363	0.2	362	363	11.1	89.9
2025-10-10T02:51	10	0	0.1	0	0	363	0.3	362	364	11.1	89.6
2025-10-10T02:52	10	0	0.1	0	0	363	0.2	362	363	11.0	90.0
2025-10-10T02:53	10	0	0.1	0	0	363	0.2	362	363	11.0	89.9
2025-10-10T02:54	10	0	0.1	0	0	363	0.3	362	363	11.1	89.6
2025-10-10T02:55	10	0	0.1	0	0	363	0.2	362	363	11.1	89.4
2025-10-10T02:56	10	0	0.1	0	0	363	0.2	362	363	11.0	89.6
2025-10-10T02:57	10	0	0.1	0	0	363	0.2	362	363	11.0	89.7
2025-10-10T02:58	10	0	0.1	0	0	363	0.2	362	363	11.0	89.8
2025-10-10T02:59	10	0	0.1	0	0	363	0.2	362	363	11.0	89.7
2025-10-10T03:00	10	0	0.1	0	0	363	0.2	362	363	11.0	89.3
2025-10-10T03:01	10	0	0.1	0	0	363	0.3	362	363	11.0	89.5
2025-10-10T03:02	10	0	0.1	0	0	363	0.2	362	363	11.0	89.6
2025-10-10T03:03	10	0	0.1	0	0	363	0.3	362	363	11.0	89.7
2025-10-10T03:04	10	0	0.1	0	0	363	0.2	362	363	11.0	89.5
2025-10-10T03:05	10	0	0.1	0	0	362	0.2	362	363	11.0	89.6
2025-10-10T03:06	10	0	0.1	0	0	363	0.3	362	363	11.0	89.5
2025-10-10T03:07	10	0	0.1	0	0	362	0.2	362	363	11.0	89.6
2025-10-10T03:08	10	0	0.1	0	0	362	0.3	362	363	11.0	89.8
2025-10-10T03:09	10	0	0.1	0	0	362	0.2	362	363	10.9	89.8
2025-10-10T03:10	10	0	0.0	0	0	362	0.2	362	362	10.9	89.9
2025-10-10T03:11	10	0	0.1	0	0	362	0.2	361	363	10.9	90.1
2025-10-10T03:12	10	0	0.1	0	0	362	0.2	362	362	10.9	90.1
2025-10-10T03:13	10	0	0.0	0	0	362	0.2	362	363	10.9	89.9
2025-10-10T03:14	10	0	0.1	0	0	362	0.3	361	362	10.9	90.0
2025-10-10T03:15	10	0	0.1	0	0	362	0.2	362	362	10.9	90.4
2025-10-10T03:16	10	0	0.1	0	0	362	0.3	361	362	10.9	90.2
2025-10-10T03:17	10	0	0.1	0	0	362	0.2	361	362	10.9	90.3
2025-10-10T03:18	10	0	0.1	0	0	362	0.2	361	362	10.8	90.4
2025-10-10T03:19	10	0	0.1	0	0	361	0.2	361	362	10.8	90.5
2025-10-10T03:20	10	0	0.1	0	0	362	0.2	361	362	10.8	90.4
2025-10-10T03:21	10	0	0.1	0	0	362	0.2	361	362	10.8	90.6
2025-10-10T03:22	10	0	0.1	0	0	361	0.2	361	362	10.8	90.8
2025-10-10T03:23	10	0	0.1	0	0	361	0.2	361	362	10.7	90.9
2025-10-10T03:24	10	0	0.1	0	0	361	0.3	361	362	10.7	90.9
2025-10-10T03:25	10	0	0.1	0	0	361	0.3	360	362	10.8	90.5
2025-10-10T03:26	10	0	0.1	0	0	361	0.2	360	361	10.8	90.5
2025-10-10T03:27	10	0	0.1	0	0	361	0.3	360	361	10.7	90.6
2025-10-10T03:28	10	0	0.1	0	0	361	0.2	360	361	10.7	90.5
2025-10-10T03:29	10	0	0.1	0	0	361	0.2	360	361	10.7	90.7
2025-10-10T03:30	10	0	0.1	0	0	361	0.3	360	361	10.7	90.6
2025-10-10T03:31	10	0	0.1	0	0	361	0.2	360	361	10.7	91.0
2025-10-10T03:32	10	0	0.1	0	0	361	0.2	360	361	10.7	90.8
2025-10-10T03:33	10	0	0.1	0	0	360	0.2	360	361	10.7	90.7
2025-10-10T03:34	10	0	0.1	0	0	360	0.2	360	360	10.7	90.8
2025-10-10T03:35	10	0	0.1	0	0	360	0.2	359	360	10.7	90.2
2025-10-10T03:36	10	0	0.1	0	0	360	0.2	359	360	10.7	90.4
2025-10-10T03:37	10	0	0.1	0	0	360	0.3	359	360	10.7	90.4
2025-10-10T03:38	10	0	0.1	0	0	359	0.2	359	360	10.7	90.4
2025-10-10T03:39	10	0	0.1	0	0	359	0.2	359	360	10.7	90.3
2025-10-10T03:40	10	0	0.1	0	0	359	0.2	359	359	10.7	90.2
2025-10-10T03:41	10	0	0.1	0	0	359	0.3	358	359	10.7	90.1
2025-10-10T03:42	10	0	0.1	0	0	359	0.3	358	359	10.7	90.2
2025-10-10T03:43	10	0	0.1	0	0	359	0.3	358	359	10.7	90.1
2025-10-10T03:44	10	0	0.1	0	0	358	0.3	357	359	10.6	90.2
2025-10-10T03:45	10	0	0.1	0	0	358	0.2	358	358	10.6	90.2
2025-10-10T03:46	10	0	0.1	0	0	358	0.2	357	358	10.6	90.3
2025-10-10T03:47	10	0	0.1	0	0	358	0.2	357	358	10.6	90.0
2025-10-10T03:48	10	0	0.1	0	0	358	0.2	358	358	10.6	89.9
2025-10-10T03:49	10	0	0.1	0	0	358	0.2	358	359	10.6	89.9
2025-10-10T03:50	10	0	0.1	0	0	358	0.3	357	359	10.6	89.9
2025-10-10T03:51	10	0	0.1	0	0	358	0.4	358	359	10.6	89.7
2025-10-10T03:52	10	0	0.1	0	0	359	0.3	358	359	10.6	89.4
2025-10-10T03:53	10	0	0.1	0	0	358	0.2	358	359	10.6	89.8
2025-10-10T03:54	10	0	0.1	0	0	358	0.2	358	359	10.6	89.8
2025-10-10T03:55	10	0	0.1	0	0	358	0.2	357	358	10.6	89.8
2025-10-10T03:56	10	0	0.1	0	0	358	0.2	357	358	10.6	89.8
2025-10-10T03:57	10	0	0.1	0	0	358	0.2	358	358	10.6	89.4
2025-10-10T03:58	10	0	0.1	0	0	358	0.3	357	358	10.6	89.3
2025-10-10T03:59	10	0	0.1	0	0	357	0.2	357	358	10.6	89.5
2025-10-10T04:00	10	0	0.1	0	0	357	0.3	357	358	10.6	89.1
2025-10-10T04:01	10	0	0.1	0	0	357	0.2	356	357	10.6	89.5
2025-10-10T04:02	10	0	0.1	0	0	357	0.3	357	358	10.6	89.0
2025-10-10T04:03	10	0	0.1	0	0	357	0.2	357	358	10.6	89.0
2025-10-10T04:04	10	0	0.1	0	0	357	0.3	356	357	10.6	89.1
2025-10-10T04:05	10	0	0.1	0	0	357	0.3	356	357	10.6	89.1
2025-10-10T04:06	10	0	0.1	0	0	356	0.3	355	357	10.6	89.3
2025-10-10T04:07	10	0	0.1	0	0	356	0.3	355	356	10.5	89.5
2025-10-10T04:08	10	0	0.1	0	0	355	0.3	355	356	10.5	89.4
2025-10-10T04:09	10	0	0.1	0	0	356	0.2	355	356	10.5	89.5
2025-10-10T04:10	10	0	0.1	0	0	355	0.2	355	356	10.5	89.5
2025-10-10T04:11	10	0	0.1	0	0	355	0.3	354	356	10.5	89.4
2025-10-10T04:12	10	0	0.1	0	0	355	0.3	355	356	10.5	89.3
2025-10-10T04:13	10	0	0.0	0	0	355	0.2	354	356	10.5	89.5
2025-10-10T04:14	10	0	0.1	0	0	355	0.2	355	356	10.5	89.3
2025-10-10T04:15	10	0	0.1	0	0	355	0.2	355	356	10.5	89.3
2025-10-10T04:16	10	0	0.1	0	0	355	0.2	355	356	10.5	89.5
2025-10-10T04:17	10	0	0.1	0	0	355	0.3	354	355	10.5	89.2
2025-10-10T04:18	10	0	0.1	0	0	354	0.2	354	355	10.4	89.6
2025-10-10T04:19	10	0	0.1	0	0	354	0.2	354	355	10.4	89.7
2025-10-10T04:20	10	0	0.1	0	0	354	0.2	354	355	10.5	89.4
2025-10-10T04:21	10	0	0.1	0	0	354	0.2	353	354	10.5	89.3
2025-10-10T04:22	10	0	0.1	0	0	354	0.3	354	355	10.5	89.2
2025-10-10T04:23	10	0	0.1	0	0	354	0.2	353	355	10.5	89.3
2025-10-10T04:24	10	0	0.1	0	0	354	0.4	353	355	10.5	89.3
2025-10-10T04:25	10	0	0.1	0	0	354	0.3	354	355	10.4	89.3
2025-10-10T04:26	10	0	0.1	0	0	354	0.3	353	354	10.4	89.7
2025-10-10T04:27	10	0	0.1	0	0	354	0.2	353	354	10.4	89.7
2025-10-10T04:28	10	0	0.1	0	0	353	0.2	353	354	10.4	89.4
2025-10-10T04:29	10	0	0.1	0	0	354	0.2	353	354	10.4	89.5
2025-10-10T04:30	10	0	0.1	0	0	354	0.2	353	354	10.4	89.6
2025-10-10T04:31	10	0	0.1	0	0	353	0.3	353	354	10.4	89.8
2025-10-10T04:32	10	0	0.1	0	0	353	0.3	353	354	10.4	89.9
2025-10-10T04:33	10	0	0.1	0	0	354	0.3	353	354	10.3	90.0
2025-10-10T04:34	10	0	0.1	0	0	354	0.2	353	354	10.3	90.1
2025-10-10T04:35	10	0	0.1	0	0	354	0.2	354	354	10.3	90.4
2025-10-10T04:36	10	0	0.1	0	0	353	0.2	353	354	10.2	90.5
2025-10-10T04:37	10	0	0.1	0	0	353	0.2	353	354	10.3	90.4
2025-10-10T04:38	10	0	0.1	0	0	353	0.2	353	354	10.3	90.4
2025-10-10T04:39	10	0	0.1	0	0	354	0.2	353	354	10.2	90.8
2025-10-10T04:40	10	0	0.1	0	0	353	0.3	352	354	10.2	91.0
2025-10-10T04:41	10	0	0.1	0	0	353	0.2	352	353	10.2	91.0
2025-10-10T04:42	10	0	0.1	0	0	352	0.2	352	353	10.1	91.1
2025-10-10T04:43	10	0	0.5	0	4	352	0.2	352	352	10.1	91.2
2025-10-10T04:44	10	0	0.1	0	0	351	0.3	350	352	10.1	91.4
2025-10-10T04:45	10	0	0.1	0	0	351	0.2	351	352	10.1	91.1
2025-10-10T04:46	10	0	0.1	0	0	351	0.2	351	352	10.1	91.2
2025-10-10T04:47	10	0	0.1	0	0	351	0.2	351	352	10.1	91.4
2025-10-10T04:48	10	0	0.1	0	0	351	0.3	350	352	10.1	91.4
2025-10-10T04:49	10	0	0.1	0	0	351	0.2	350	351	10.1	91.6
2025-10-10T04:50	10	0	0.1	0	1	350	0.2	350	351	10.0	91.8
2025-10-10T04:51	10	0	0.1	0	0	351	0.3	350	351	10.0	91.6
2025-10-10T04:52	10	0	0.1	0	0	351	0.2	351	352	10.0	91.6
2025-10-10T04:53	10	0	0.1	0	0	351	0.3	350	352	10.1	91.3
2025-10-10T04:54	10	0	0.1	0	0	351	0.3	350	352	10.1	91.3
2025-10-10T04:55	10	0	0.1	0	0	352	0.3	351	352	10.1	91.2
2025-10-10T04:56	10	0	0.1	0	0	353	0.4	352	353	10.1	91.2
2025-10-10T04:57	10	0	0.1	0	0	353	0.3	353	354	10.0	91.5
2025-10-10T04:58	10	0	0.1	0	0	354	0.3	353	354	10.1	91.4
2025-10-10T04:59	10	0	0.1	0	1	355	0.4	354	356	10.0	91.5
2025-10-10T05:00	10	0	0.1	0	0	355	0.2	355	356	10.1	91.2
2025-10-10T05:01	10	0	0.1	0	0	356	0.3	355	356	10.1	91.1
2025-10-10T05:02	10	0	0.1	0	0	356	0.2	355	356	10.1	91.1
2025-10-10T05:03	10	0	0.1	0	0	356	0.3	355	356	10.1	91.3
2025-10-10T05:04	10	0	0.1	0	0	356	0.2	356	357	10.1	91.2
2025-10-10T05:05	10	0	0.1	0	0	357	0.2	356	357	10.2	91.0
2025-10-10T05:06	10	0	0.1	0	0	357	0.2	356	357	10.2	90.8
2025-10-10T05:07	10	0	0.1	0	0	357	0.3	357	358	10.3	90.6
2025-10-10T05:08	10	0	0.1	0	0	358	0.3	357	358	10.3	90.6
2025-10-10T05:09	10	0	0.1	0	0	358	0.2	357	358	10.3	90.2
2025-10-10T05:10	10	0	0.1	0	0	358	0.3	357	359	10.3	90.1
2025-10-10T05:11	10	0	0.1	0	0	358	0.3	357	358	10.4	89.7
2025-10-10T05:12	10	0	0.1	0	0	358	0.2	357	359	10.4	89.7
2025-10-10T05:13	10	0	0.1	0	0	358	0.3	357	358	10.4	89.6
2025-10-10T05:14	10	0	0.1	0	0	358	0.2	357	358	10.4	89.8
2025-10-10T05:15	10	0	0.1	0	1	358	0.3	357	358	10.4	89.8
2025-10-10T05:16	10	0	0.1	0	0	358	0.3	357	358	10.3	89.9
2025-10-10T05:17	10	0	0.1	0	0	358	0.2	357	358	10.4	89.5
2025-10-10T05:18	10	0	0.1	0	0	358	0.3	357	359	10.4	89.4
2025-10-10T05:19	10	0	0.1	0	0	358	0.3	357	358	10.4	89.6
2025-10-10T05:20	10	0	0.1	0	0	358	0.2	357	358	10.3	89.8
2025-10-10T05:21	10	0	0.1	0	0	358	0.2	357	358	10.4	89.7
2025-10-10T05:22	10	0	0.1	0	0	357	0.3	357	358	10.4	89.8
2025-10-10T05:23	10	0	0.1	0	0	357	0.2	357	358	10.3	89.8
2025-10-10T05:24	10	0	0.1	0	0	357	0.2	357	358	10.3	89.7
2025-10-10T05:25	10	0	0.1	0	0	358	0.2	357	358	10.4	89.3
2025-10-10T05:26	10	0	0.1	0	0	358	0.2	357	358	10.4	89.6
2025-10-10T05:27	10	0	0.1	0	0	358	0.3	357	358	10.3	89.8
2025-10-10T05:28	10	0	0.1	0	0	358	0.2	357	358	10.3	89.7
2025-10-10T05:29	10	0	0.1	0	0	358	0.2	357	358	10.4	89.4
2025-10-10T05:30	10	0	0.1	0	1	358	0.2	357	358	10.4	89.5
2025-10-10T05:31	10	0	0.1	0	0	357	0.3	357	358	10.3	89.6
2025-10-10T05:32	10	0	0.1	0	1	357	0.3	357	358	10.3	89.6
2025-10-10T05:33	10	0	0.1	0	1	357	0.2	357	357	10.3	89.7
2025-10-10T05:34	10	0	0.1	0	1	357	0.3	357	358	10.4	89.2
2025-10-10T05:35	10	0	0.0	0	1	357	0.2	357	358	10.3	89.5
2025-10-10T05:36	10	0	0.0	0	1	357	0.3	356	358	10.3	89.5
2025-10-10T05:37	10	0	0.1	0	1	357	0.3	357	358	10.3	89.4
2025-10-10T05:38	10	1	0.1	0	1	357	0.2	357	358	10.3	89.5
2025-10-10T05:39	10	1	0.1	0	1	357	0.2	357	357	10.3	89.8
2025-10-10T05:40	10	1	0.1	0	1	357	0.2	357	358	10.3	89.4
2025-10-10T05:41	10	1	0.1	0	1	358	0.2	357	358	10.4	89.2
2025-10-10T05:42	10	1	0.1	0	1	358	0.3	357	358	10.3	89.5
2025-10-10T05:43	10	1	0.1	1	1	358	0.3	357	358	10.3	89.6
2025-10-10T05:44	10	1	0.1	0	1	358	0.3	357	358	10.3	89.4
2025-10-10T05:45	10	1	0.1	1	1	358	0.3	357	359	10.4	89.1
2025-10-10T05:46	10	1	0.1	1	1	358	0.2	357	358	10.3	89.4
2025-10-10T05:47	10	1	0.1	1	1	358	0.3	357	358	10.3	89.5
2025-10-10T05:48	10	1	0.1	1	1	357	0.2	357	358	10.3	89.5
2025-10-10T05:49	10	1	0.1	1	1	356	0.4	356	357	10.3	89.9
2025-10-10T05:50	10	2	0.1	1	2	356	0.3	355	356	10.2	90.5
2025-10-10T05:51	10	2	0.1	2	2	355	0.2	355	355	10.1	90.6
2025-10-10T05:52	10	2	0.1	2	2	355	0.3	354	355	10.1	90.6
2025-10-10T05:53	10	2	0.1	2	3	355	0.2	354	355	10.2	90.4
2025-10-10T05:54	10	3	0.1	2	3	355	0.2	354	355	10.1	90.8
2025-10-10T05:55	10	3	0.2	3	3	354	0.3	354	355	10.1	90.6
2025-10-10T05:56	10	3	0.1	3	3	354	0.2	354	355	10.0	91.1
2025-10-10T05:57	10	4	0.2	3	4	354	0.3	353	355	10.0	91.0
2025-10-10T05:58	10	4	0.1	4	4	354	0.2	353	355	10.1	90.8
2025-10-10T05:59	10	4	0.1	4	4	354	0.2	354	355	10.0	91.2
2025-10-10T06:00	10	4	0.1	4	5	354	0.3	353	354	10.0	91.4
2025-10-10T06:01	10	5	0.1	4	5	354	0.2	353	354	10.0	91.2
2025-10-10T06:02	10	5	0.1	5	5	353	0.3	353	354	10.0	91.4
2025-10-10T06:03	10	5	0.2	5	6	353	0.2	353	354	9.9	91.6
2025-10-10T06:04	10	5	0.1	5	5	353	0.3	353	354	9.9	91.8
2025-10-10T06:05	10	5	0.1	5	5	353	0.2	353	354	9.9	91.4
2025-10-10T06:06	10	5	0.1	5	6	353	0.3	352	354	9.9	91.6
2025-10-10T06:07	10	6	0.1	5	6	353	0.3	352	353	9.9	91.6
2025-10-10T06:08	10	6	0.1	6	6	353	0.2	353	354	9.9	90.9
2025-10-10T06:09	10	6	0.1	6	6	353	0.3	353	354	9.9	91.3
2025-10-10T06:10	10	6	0.1	6	6	353	0.2	352	353	9.9	91.1
2025-10-10T06:11	10	6	0.1	5	6	353	0.2	352	353	9.9	91.1
2025-10-10T06:12	10	6	0.1	5	6	353	0.3	352	354	9.9	90.8
2025-10-10T06:13	10	6	0.1	6	6	353	0.2	352	353	9.9	90.9
2025-10-10T06:14	10	6	0.2	6	6	353	0.2	352	353	9.9	91.1
2025-10-10T06:15	10	7	0.3	6	7	353	0.3	352	353	9.9	91.1
2025-10-10T06:16	10	8	0.4	7	9	353	0.3	352	354	9.9	90.7
2025-10-10T06:17	10	10	0.6	9	11	353	0.2	352	353	9.9	91.0
2025-10-10T06:18	10	11	0.4	11	12	353	0.2	352	353	9.9	91.0
2025-10-10T06:19	10	12	0.3	12	13	353	0.3	352	353	9.9	91.1
2025-10-10T06:20	10	13	0.2	13	14	353	0.2	353	353	9.9	90.8
2025-10-10T06:21	10	14	0.1	14	14	353	0.2	353	354	10.0	90.6
2025-10-10T06:22	10	14	0.4	14	15	353	0.2	353	353	9.9	90.7
2025-10-10T06:23	10	15	0.3	15	16	353	0.3	352	354	10.0	90.5
2025-10-10T06:24	10	16	0.2	16	16	354	0.2	353	354	10.0	90.1
2025-10-10T06:25	10	16	0.2	16	17	354	0.2	354	354	10.0	90.3
2025-10-10T06:26	10	17	0.3	17	18	354	0.3	353	354	9.9	90.7
2025-10-10T06:27	10	18	0.3	18	18	354	0.2	353	354	9.9	90.8
2025-10-10T06:28	10	19	0.3	18	20	354	0.3	354	355	9.9	90.4
2025-10-10T06:29	10	20	0.2	20	20	355	0.2	354	355	10.0	90.3
2025-10-10T06:30	10	20	0.3	20	21	355	0.3	354	355	10.0	90.2
2025-10-10T06:31	10	21	0.2	21	21	355	0.2	355	356	10.0	90.2
2025-10-10T06:32	10	22	0.2	21	22	356	0.2	355	356	10.0	90.1
2025-10-10T06:33	10	22	0.1	22	22	356	0.2	355	356	10.1	89.7
2025-10-10T06:34	10	22	0.1	22	22	356	0.3	356	357	10.1	89.3
2025-10-10T06:35	10	22	0.1	22	23	356	0.2	356	356	10.1	89.6
2025-10-10T06:36	10	23	0.1	23	23	357	0.3	356	357	10.1	89.3
2025-10-10T06:37	10	23	0.2	23	24	357	0.2	356	357	10.1	89.1
2025-10-10T06:38	10	24	0.3	23	24	357	0.2	356	357	10.2	89.1
2025-10-10T06:39	10	25	0.3	24	25	357	0.3	357	358	10.1	89.0
2025-10-10T06:40	10	26	0.3	25	26	357	0.2	357	358	10.2	88.7
2025-10-10T06:41	10	26	0.2	25	26	357	0.2	357	358	10.2	88.8
2025-10-10T06:42	10	25	0.4	24	26	358	0.2	357	358	10.2	88.8
2025-10-10T06:43	10	24	0.7	23	25	358	0.2	357	358	10.2	88.8
2025-10-10T06:44	10	20	3.3	16	25	357	0.3	357	358	10.1	89.1
2025-10-10T06:45	10	14	1.3	12	16	357	0.4	356	358	10.1	89.2
2025-10-10T06:46	10	14	3.0	12	22	357	0.3	356	358	10.1	89.5
2025-10-10T06:47	10	27	3.0	22	31	358	0.4	357	358	10.1	89.6
2025-10-10T06:48	10	27	2.1	24	30	358	0.2	357	358	10.1	89.7
2025-10-10T06:49	10	25	1.2	24	29	358	0.2	357	358	10.1	89.6
2025-10-10T06:50	10	28	2.5	22	30	358	0.2	358	359	10.1	89.4
2025-10-10T06:51	10	15	1.9	13	21	358	0.4	357	359	10.2	89.4
2025-10-10T06:52	10	14	0.7	14	17	358	0.2	357	358	10.1	89.4
2025-10-10T06:53	10	20	1.5	17	24	358	0.3	357	358	10.2	89.4
2025-10-10T06:54	10	29	2.6	24	34	358	0.4	357	359	10.2	89.2
2025-10-10T06:55	10	36	1.1	34	38	359	0.4	358	360	10.2	89.1
2025-10-10T06:56	10	38	0.7	36	39	360	0.3	359	360	10.2	89.0
2025-10-10T06:57	10	36	0.5	35	37	360	0.3	359	361	10.2	89.0
2025-10-10T06:58	10	33	2.1	30	37	361	0.2	360	361	10.3	88.9
2025-10-10T06:59	10	28	1.6	25	31	361	0.3	360	361	10.3	88.8
2025-10-10T07:00	10	24	0.5	23	25	361	0.3	360	361	10.3	88.8
2025-10-10T07:01	10	21	0.8	20	23	360	0.3	359	361	10.3	89.0
2025-10-10T07:02	10	20	0.2	19	20	360	0.3	359	360	10.2	88.9
2025-10-10T07:03	10	20	0.1	20	20	360	0.2	359	360	10.2	89.2
2025-10-10T07:04	10	21	0.2	20	21	360	0.2	359	361	10.2	89.3
2025-10-10T07:05	10	20	0.4	19	21	360	0.2	359	360	10.2	89.6
2025-10-10T07:06	10	20	0.7	19	21	360	0.2	359	360	10.2	89.5
2025-10-10T07:07	10	22	0.2	21	22	360	0.2	359	360	10.2	89.7
2025-10-10T07:08	10	23	0.4	22	24	360	0.2	359	360	10.1	89.8
2025-10-10T07:09	10	22	1.1	21	25	360	0.2	359	360	10.1	89.8
2025-10-10T07:10	10	26	0.4	26	27	360	0.3	359	361	10.1	89.8
2025-10-10T07:11	10	28	2.2	24	31	360	0.2	360	361	10.1	89.5
2025-10-10T07:12	10	23	0.2	23	24	360	0.3	360	361	10.2	89.6
2025-10-10T07:13	10	23	0.2	22	24	360	0.3	359	361	10.1	89.6
2025-10-10T07:14	10	23	0.1	23	23	360	0.2	360	361	10.1	89.6
2025-10-10T07:15	10	23	0.1	23	24	360	0.3	360	361	10.2	89.9
2025-10-10T07:16	10	23	0.1	23	24	361	0.2	360	361	10.2	84.0
2025-10-10T07:17	10	23	0.3	23	24	361	0.2	361	362	10.2	90.0
2025-10-10T07:18	10	24	0.2	24	25	362	0.3	361	362	10.2	90.0
2025-10-10T07:19	10	23	0.4	22	24	362	0.3	362	363	10.2	90.0
2025-10-10T07:20	10	22	0.3	21	22	363	0.2	362	363	10.2	90.0
2025-10-10T07:21	10	21	0.1	21	21	363	0.2	363	364	10.2	90.0
2025-10-10T07:22	10	21	0.1	21	21	364	0.3	363	364	10.2	90.0
2025-10-10T07:23	10	21	0.2	21	21	365	0.3	364	365	10.2	89.9
2025-10-10T07:24	10	22	0.1	21	22	365	0.3	364	365	10.3	89.9
2025-10-10T07:25	10	21	0.1	21	22	365	0.2	365	366	10.3	90.3
2025-10-10T07:26	10	21	0.1	21	21	366	0.2	365	367	10.3	90.9
2025-10-10T07:27	10	21	0.1	21	21	366	0.3	365	366	10.3	90.2
2025-10-10T07:28	10	21	0.1	21	22	366	0.3	365	367	10.4	90.7
2025-10-10T07:29	10	22	0.2	21	22	366	0.2	366	367	10.4	90.8
2025-10-10T07:30	10	22	0.2	22	22	367	0.3	367	368	10.4	90.9
2025-10-10T07:31	10	22	0.1	22	23	368	0.3	367	369	10.5	90.6
2025-10-10T07:32	10	22	0.2	22	23	368	0.3	367	369	10.5	90.4
2025-10-10T07:33	10	22	0.1	22	22	368	0.3	367	368	10.4	90.2
2025-10-10T07:34	10	22	0.1	22	22	367	0.3	367	368	10.5	90.2
2025-10-10T07:35	10	22	0.1	22	22	368	0.3	367	368	10.5	90.2
2025-10-10T07:36	10	22	0.2	21	22	367	0.2	367	368	10.5	90.0
2025-10-10T07:37	10	21	0.2	21	22	368	0.2	367	368	10.5	90.0
2025-10-10T07:38	10	21	0.1	21	21	368	0.3	367	369	10.5	90.3
2025-10-10T07:39	10	21	0.1	21	21	368	0.4	367	369	10.5	89.7
2025-10-10T07:40	10	21	0.2	21	22	367	0.3	367	368	10.5	89.8
2025-10-10T07:41	10	22	0.2	21	22	368	0.3	367	368	10.5	90.0
2025-10-10T07:42	10	23	0.2	22	23	368	0.2	368	369	10.5	90.1
2025-10-10T07:43	10	24	0.5	23	25	369	0.4	368	370	10.6	90.3
2025-10-10T07:44	10	25	0.2	25	25	370	0.2	369	370	10.6	90.2
2025-10-10T07:45	10	25	0.2	25	26	370	0.3	369	370	10.7	90.3
2025-10-10T07:46	10	26	0.2	26	27	371	0.3	370	371	10.7	90.2
2025-10-10T07:47	10	26	0.3	26	27	371	0.2	370	371	10.7	89.8
2025-10-10T07:48	10	25	0.5	24	26	370	0.3	370	371	10.7	89.9
2025-10-10T07:49	10	24	0.1	24	24	370	0.4	369	370	10.7	89.6
2025-10-10T07:50	10	23	0.2	23	24	369	0.2	368	369	10.7	89.6
2025-10-10T07:51	10	23	0.5	22	25	369	0.3	368	370	10.7	89.8
2025-10-10T07:52	10	21	0.4	21	22	369	0.4	368	369	10.8	89.7
2025-10-10T07:53	10	21	0.2	20	21	369	0.3	368	370	10.8	89.5
2025-10-10T07:54	10	22	0.2	21	22	369	0.3	369	370	10.8	89.7
2025-10-10T07:55	10	22	0.2	21	22	370	0.3	369	370	10.8	89.7
2025-10-10T07:56	10	20	0.4	20	21	369	0.3	369	370	10.8	89.5
2025-10-10T07:57	10	20	0.1	20	20	369	0.2	369	370	10.8	89.7
2025-10-10T07:58	10	21	0.3	20	21	370	0.3	369	370	10.9	90.0
2025-10-10T07:59	10	21	0.2	21	21	370	0.3	369	370	10.9	89.6
2025-10-10T08:00	10	20	0.2	20	21	369	0.2	369	370	10.8	89.4
2025-10-10T08:01	10	21	0.2	20	21	370	0.2	369	370	10.9	89.7
2025-10-10T08:02	10	21	0.1	21	21	369	0.4	368	370	10.9	89.5
2025-10-10T08:03	10	21	0.3	20	21	369	0.3	368	369	10.9	89.2
2025-10-10T08:04	10	21	0.6	20	22	368	0.2	368	369	10.9	89.3
2025-10-10T08:05	10	23	0.4	22	23	369	0.3	368	369	10.9	89.6
2025-10-10T08:06	10	24	0.2	23	24	370	0.3	369	370	10.9	89.4
2025-10-10T08:07	10	24	0.2	24	25	370	0.2	370	370	10.9	89.5
2025-10-10T08:08	10	25	0.2	24	25	370	0.3	370	371	10.9	89.5
2025-10-10T08:09	10	26	0.2	25	26	370	0.3	369	371	11.0	89.4
2025-10-10T08:10	10	27	0.1	26	27	371	0.3	370	372	11.0	89.4
2025-10-10T08:11	10	27	0.1	27	27	372	0.3	371	372	11.1	89.7
2025-10-10T08:12	10	27	0.1	26	27	372	0.2	371	372	11.1	89.8
2025-10-10T08:13	10	26	0.1	26	27	372	0.3	371	372	11.1	89.3
2025-10-10T08:14	10	26	0.1	26	26	371	0.3	370	371	11.0	89.0
2025-10-10T08:15	10	25	0.3	25	26	371	0.2	370	372	11.1	89.3
2025-10-10T08:16	10	25	0.1	25	25	371	0.3	371	372	11.1	89.3
2025-10-10T08:17	10	25	0.2	25	25	372	0.2	371	372	11.1	89.4
2025-10-10T08:18	10	25	0.2	25	25	371	0.2	371	371	11.1	88.8
2025-10-10T08:19	10	25	0.1	24	25	371	0.2	370	371	11.1	88.9
2025-10-10T08:20	10	25	0.1	25	25	370	0.2	370	371	11.1	88.9
2025-10-10T08:21	10	24	0.4	24	25	371	0.3	371	372	11.2	89.5
2025-10-10T08:22	10	23	0.2	23	24	371	0.3	371	372	11.2	89.3
2025-10-10T08:23	10	23	0.2	23	24	371	0.3	370	372	11.2	89.1
2025-10-10T08:24	10	24	0.2	23	24	371	0.2	371	372	11.2	89.0
2025-10-10T08:25	10	24	0.2	23	24	372	0.2	371	372	11.3	88.9
2025-10-10T08:26	10	23	0.2	23	23	372	0.3	371	372	11.3	88.8
2025-10-10T08:27	10	22	0.1	22	23	371	0.2	371	371	11.3	88.1
2025-10-10T08:28	10	23	0.3	22	24	372	0.3	371	372	11.3	88.4
2025-10-10T08:29	10	23	0.5	22	24	373	0.3	372	373	11.4	88.5
2025-10-10T08:30	10	22	0.1	21	22	373	0.2	372	373	11.4	88.4
2025-10-10T08:31	10	22	0.1	21	22	372	0.4	372	373	11.4	87.9
2025-10-10T08:32	10	22	0.1	22	22	372	0.2	372	373	11.4	88.5
2025-10-10T08:33	10	21	0.6	20	22	372	0.3	371	373	11.4	87.7
2025-10-10T08:34	10	19	0.2	19	20	372	0.3	371	372	11.4	87.9
2025-10-10T08:35	10	19	0.2	19	20	371	0.2	371	372	11.4	87.7
2025-10-10T08:36	10	18	0.3	18	19	371	0.2	371	372	11.4	87.6
2025-10-10T08:37	10	18	0.2	18	18	371	0.2	371	372	11.4	87.8
2025-10-10T08:38	10	19	0.5	18	20	371	0.2	371	372	11.4	87.5
2025-10-10T08:39	10	21	0.6	20	22	372	0.4	371	373	11.5	87.8
2025-10-10T08:40	10	23	0.5	22	23	373	0.5	372	374	11.5	87.8
2025-10-10T08:41	10	23	0.1	23	24	374	0.2	373	374	11.5	87.8
2025-10-10T08:42	10	23	0.1	23	23	374	0.2	373	374	11.6	87.8
2025-10-10T08:43	10	22	0.2	22	23	373	0.3	373	374	11.6	87.6
2025-10-10T08:44	10	23	0.5	22	24	372	0.3	372	373	11.5	87.2
2025-10-10T08:45	10	25	0.3	24	25	373	0.3	372	374	11.5	87.5
2025-10-10T08:46	10	24	0.7	23	26	373	0.2	373	374	11.6	87.6
2025-10-10T08:47	10	22	0.6	21	23	374	0.2	374	375	11.6	87.4
2025-10-10T08:48	10	21	0.5	21	22	374	0.2	374	375	11.6	87.9
2025-10-10T08:49	10	23	0.6	22	24	374	0.3	373	374	11.6	87.2
2025-10-10T08:50	10	24	0.1	24	24	374	0.3	373	374	11.6	87.3
2025-10-10T08:51	10	24	0.2	24	25	374	0.2	373	375	11.6	87.0
2025-10-10T08:52	10	26	0.8	24	27	374	0.3	373	375	11.6	87.3
2025-10-10T08:53	10	28	0.2	27	28	374	0.3	374	375	11.6	86.9
2025-10-10T08:54	10	27	0.3	26	27	374	0.3	374	375	11.6	87.0
2025-10-10T08:55	10	26	0.2	26	26	374	0.2	374	375	11.6	87.1
2025-10-10T08:56	10	26	0.1	26	26	374	0.3	373	374	11.6	86.9
2025-10-10T08:57	10	25	0.3	25	26	374	0.2	373	374	11.7	86.9
2025-10-10T08:58	10	24	0.2	24	25	374	0.2	374	375	11.7	87.2
2025-10-10T08:59	10	24	0.1	24	24	375	0.2	374	375	11.7	86.7
2025-10-10T09:00	10	24	0.2	23	24	375	0.2	374	375	11.8	87.6
2025-10-10T09:01	10	23	0.2	23	24	375	0.2	374	375	11.8	86.8
2025-10-10T09:02	10	22	0.4	21	23	375	0.3	374	375	11.9	86.7
2025-10-10T09:03	10	20	0.5	20	21	374	0.3	373	375	11.9	86.9
2025-10-10T09:04	10	19	0.3	19	20	374	0.3	373	374	11.9	85.8
2025-10-10T09:05	10	19	0.2	19	20	374	0.3	373	374	11.9	86.0
2025-10-10T09:06	10	20	0.3	19	20	374	0.3	373	374	11.9	86.4
2025-10-10T09:07	10	20	0.2	20	21	374	0.3	373	374	11.9	85.5
2025-10-10T09:08	10	20	0.2	19	20	373	0.2	373	374	11.9	85.6
2025-10-10T09:09	10	20	0.2	19	20	373	0.3	373	375	11.9	85.8
2025-10-10T09:10	10	20	0.2	20	20	374	0.3	373	375	12.0	86.1
2025-10-10T09:11	10	19	0.4	18	20	374	0.3	374	375	12.0	85.7
2025-10-10T09:12	10	19	0.3	19	20	374	0.2	373	374	12.0	85.7
2025-10-10T09:13	10	20	0.3	19	20	374	0.3	373	374	12.0	85.4
2025-10-10T09:14	10	18	0.8	16	19	373	0.3	373	374	11.9	85.6
2025-10-10T09:15	10	17	0.5	16	18	373	0.3	372	374	11.9	85.7
2025-10-10T09:16	10	18	0.1	18	19	373	0.3	372	374	12.0	85.8
2025-10-10T09:17	10	18	0.2	18	19	374	0.3	373	374	12.0	86.1
2025-10-10T09:18	10	19	0.2	18	19	374	0.3	373	374	12.0	86.0
2025-10-10T09:19	10	18	0.2	18	19	374	0.3	373	375	12.0	86.2
2025-10-10T09:20	10	18	0.2	17	18	374	0.2	374	375	12.0	86.1
2025-10-10T09:21	10	18	0.3	17	19	375	0.2	374	375	12.0	85.9
2025-10-10T09:22	10	18	0.2	18	19	374	0.3	374	375	12.0	85.5
2025-10-10T09:23	10	18	0.3	17	18	374	0.4	373	375	12.1	85.7
2025-10-10T09:24	10	17	0.2	16	17	374	0.3	373	375	12.1	86.0
2025-10-10T09:25	10	18	0.7	17	19	374	0.3	373	374	12.1	85.8
2025-10-10T09:26	10	20	0.6	19	21	373	0.2	373	374	12.0	85.7
2025-10-10T09:27	10	22	0.4	21	23	374	0.3	373	374	12.0	85.7
2025-10-10T09:28	10	23	0.4	22	24	374	0.2	373	374	12.0	85.3
2025-10-10T09:29	10	22	0.8	21	23	374	0.2	373	374	12.0	85.4
2025-10-10T09:30	10	20	0.3	20	21	374	0.3	373	375	12.0	85.1
2025-10-10T09:31	10	20	0.2	20	21	373	0.2	373	374	12.0	85.3
2025-10-10T09:32	10	22	0.4	21	22	374	0.3	373	374	12.0	85.5
2025-10-10T09:33	10	22	0.3	21	22	374	0.3	373	375	12.0	85.0
2025-10-10T09:34	10	21	0.3	21	22	374	0.3	373	374	12.0	85.0
2025-10-10T09:35	10	20	0.2	20	21	373	0.2	373	374	11.9	84.8
2025-10-10T09:36	10	21	0.1	20	21	372	0.3	372	373	11.9	84.8
2025-10-10T09:37	10	21	0.1	20	21	373	0.2	372	373	11.9	85.0
2025-10-10T09:38	10	21	0.2	21	22	373	0.2	372	374	11.9	85.3
2025-10-10T09:39	10	22	0.3	21	22	373	0.2	373	374	12.0	85.3
2025-10-10T09:40	10	23	0.3	22	23	374	0.2	373	374	12.0	85.5
2025-10-10T09:41	10	23	0.1	23	24	374	0.2	374	374	12.0	85.2
2025-10-10T09:42	10	23	0.1	23	23	374	0.2	374	375	12.0	85.1
2025-10-10T09:43	10	24	0.3	23	24	374	0.2	374	375	12.1	85.5
2025-10-10T09:44	10	25	0.3	24	25	375	0.4	374	376	12.1	85.4
2025-10-10T09:45	10	26	0.4	25	26	376	0.3	375	377	12.2	85.5
2025-10-10T09:46	10	26	0.2	26	27	377	0.4	376	377	12.2	85.4
2025-10-10T09:47	10	27	0.3	26	28	377	0.2	376	377	12.2	85.2
2025-10-10T09:48	10	28	0.5	27	29	376	0.2	376	377	12.2	85.0
2025-10-10T09:49	10	30	0.2	29	30	376	0.2	376	377	12.2	85.0
2025-10-10T09:50	10	30	0.2	29	30	377	0.2	376	377	12.1	85.0
2025-10-10T09:51	10	28	1.0	26	30	377	0.2	376	377	12.2	85.2
2025-10-10T09:52	10	25	0.5	24	26	377	0.3	377	378	12.2	85.3
2025-10-10T09:53	10	24	0.2	24	24	376	0.6	375	377	12.2	84.8
2025-10-10T09:54	10	23	0.2	23	24	375	0.4	374	376	12.2	84.7
2025-10-10T09:55	10	23	0.3	23	24	375	0.2	374	375	12.2	84.8
2025-10-10T09:56	10	25	0.6	24	26	375	0.2	375	376	12.2	84.7
2025-10-10T09:57	10	27	0.4	26	28	375	0.3	375	376	12.1	84.8
2025-10-10T09:58	10	30	1.2	28	32	375	0.3	375	376	12.2	84.9
2025-10-10T09:59	10	33	0.7	32	34	376	0.3	376	377	12.2	84.9
2025-10-10T10:00	10	35	0.6	34	36	377	0.5	376	378	12.2	84.9
2025-10-10T10:01	10	37	0.4	36	37	378	0.3	378	379	12.3	84.6
2025-10-10T10:02	10	37	0.6	36	38	377	0.3	376	378	12.2	83.8
2025-10-10T10:03	10	34	1.2	32	35	377	0.4	376	377	12.3	83.9
2025-10-10T10:04	10	30	0.6	30	32	376	0.2	376	377	12.3	83.8
2025-10-10T10:05	10	29	0.2	29	30	376	0.2	376	377	12.3	83.7
2025-10-10T10:06	10	32	1.0	30	33	376	0.3	376	377	12.4	83.6
2025-10-10T10:07	10	35	1.1	33	37	377	0.5	376	379	12.4	83.7
2025-10-10T10:08	10	37	0.1	37	37	379	0.4	378	380	12.5	83.7
2025-10-10T10:09	10	37	0.2	36	37	378	0.4	377	379	12.4	83.4
2025-10-10T10:10	10	37	0.4	36	38	378	0.3	377	378	12.4	83.5
2025-10-10T10:11	10	38	0.2	38	39	377	0.4	377	378	12.3	83.2
2025-10-10T10:12	10	37	0.5	36	38	377	0.3	376	377	12.3	83.2
2025-10-10T10:13	10	36	0.4	35	37	376	0.2	376	377	12.3	83.3
2025-10-10T10:14	10	35	0.1	35	36	377	0.2	376	377	12.3	83.7
2025-10-10T10:15	10	36	0.5	35	37	378	0.5	377	379	12.4	84.0
2025-10-10T10:16	10	38	0.4	37	38	378	0.2	378	379	12.4	83.5
2025-10-10T10:17	10	38	0.2	38	39	377	0.5	376	378	12.3	83.3
2025-10-10T10:18	10	39	0.6	38	40	377	0.2	376	377	12.3	83.4
2025-10-10T10:19	10	40	0.1	40	40	377	0.3	377	378	12.3	83.4
2025-10-10T10:20	10	40	0.1	40	41	378	0.2	378	379	12.4	83.6
2025-10-10T10:21	10	39	0.6	38	40	379	0.3	379	380	12.4	83.5
2025-10-10T10:22	10	38	0.1	38	39	379	0.5	378	380	12.4	83.7
2025-10-10T10:23	10	39	0.3	39	40	380	0.4	380	381	12.6	83.7
2025-10-10T10:24	10	40	0.1	39	40	379	0.3	379	380	12.5	83.5
2025-10-10T10:25	10	40	0.2	39	40	380	0.2	379	380	12.6	83.6
2025-10-10T10:26	10	40	0.1	39	40	379	0.4	378	380	12.6	83.6
2025-10-10T10:27	10	41	0.7	40	42	378	0.2	378	379	12.4	83.1
2025-10-10T10:28	10	43	0.5	42	43	379	0.2	379	379	12.5	83.4
2025-10-10T10:29	10	44	0.2	43	44	380	0.2	379	380	12.5	83.3
2025-10-10T10:30	10	44	0.2	44	45	380	0.3	379	381	12.5	83.2
2025-10-10T10:31	10	45	0.1	44	45	380	0.3	380	381	12.5	83.3
2025-10-10T10:32	10	45	0.4	45	46	382	0.4	381	382	12.6	83.1
2025-10-10T10:33	10	46	0.1	46	46	382	0.3	381	383	12.7	82.8
2025-10-10T10:34	10	47	0.4	46	48	380	0.3	380	381	12.5	82.4
2025-10-10T10:35	10	48	0.1	47	48	381	0.3	380	381	12.6	82.5
2025-10-10T10:36	10	47	0.2	47	48	380	0.3	379	381	12.6	82.3
2025-10-10T10:37	10	48	0.4	48	49	379	0.3	379	380	12.5	82.2
2025-10-10T10:38	10	50	0.4	49	50	381	0.7	380	382	12.6	82.4
2025-10-10T10:39	10	51	0.2	50	51	382	0.2	382	383	12.7	82.9
2025-10-10T10:40	10	51	0.1	51	51	382	0.3	382	383	12.6	82.8
2025-10-10T10:41	10	52	0.6	51	53	382	0.3	381	382	12.6	82.4
2025-10-10T10:42	10	54	0.5	53	55	381	0.2	380	381	12.5	82.2
2025-10-10T10:43	10	56	1.2	55	59	383	0.8	381	384	12.6	82.8
2025-10-10T10:44	10	64	3.6	59	70	385	0.5	384	386	12.8	83.2
2025-10-10T10:45	10	74	1.4	70	76	387	1.1	384	388	12.8	83.1
2025-10-10T10:46	10	76	0.9	75	78	388	0.3	387	388	12.9	82.8
2025-10-10T10:47	10	75	5.1	67	85	386	0.4	386	387	12.8	82.2
2025-10-10T10:48	10	62	2.1	60	66	385	1.1	383	387	12.8	82.1
2025-10-10T10:49	10	56	2.7	52	60	383	0.6	382	384	12.6	82.0
2025-10-10T10:50	10	55	2.6	52	61	381	0.4	381	382	12.6	82.2
2025-10-10T10:51	10	61	5.0	53	71	382	0.2	381	382	12.7	82.0
2025-10-10T10:52	10	80	15.1	62	112	385	1.8	382	387	12.7	81.9
2025-10-10T10:53	10	58	3.1	55	64	385	0.9	383	386	12.9	81.7
2025-10-10T10:54	10	72	11.7	58	93	384	1.2	382	386	12.9	81.4
2025-10-10T10:55	10	77	15.0	59	105	385	1.1	383	387	12.9	80.6
2025-10-10T10:56	10	128	6.6	106	132	388	2.3	384	391	12.8	80.4
2025-10-10T10:57	10	132	3.4	129	140	391	0.6	390	393	12.9	80.5
2025-10-10T10:58	10	145	2.4	140	148	395	1.7	392	398	12.9	80.7
2025-10-10T10:59	10	149	1.6	147	153	399	0.9	397	400	13.2	80.7
2025-10-10T11:00	10	153	3.8	142	157	400	1.4	397	402	13.5	80.1
2025-10-10T11:01	10	96	25.5	73	143	394	3.0	390	398	13.3	79.4
2025-10-10T11:02	10	94	29.9	68	165	390	1.1	388	393	13.2	79.7
2025-10-10T11:03	10	135	20.9	100	166	393	1.0	392	395	13.1	79.7
2025-10-10T11:04	10	94	15.8	75	122	393	0.8	391	394	13.3	79.6
2025-10-10T11:05	10	78	11.1	70	110	391	1.3	388	392	13.2	79.3
2025-10-10T11:06	10	80	7.2	71	101	389	0.8	387	390	13.1	79.4
2025-10-10T11:07	10	84	15.0	74	127	388	1.2	387	391	13.2	79.3
2025-10-10T11:08	10	68	2.1	65	74	388	1.3	387	391	13.3	78.7
2025-10-10T11:09	10	135	31.1	72	176	392	3.8	385	397	13.3	78.3
2025-10-10T11:10	10	73	7.4	66	100	390	1.7	388	394	13.2	78.6
2025-10-10T11:11	10	123	28.1	83	156	393	2.7	389	398	13.3	79.0
2025-10-10T11:12	10	121	37.9	64	156	396	2.4	391	398	13.3	78.5
2025-10-10T11:13	10	54	8.5	47	77	389	1.8	387	393	13.3	78.7
2025-10-10T11:14	10	49	1.6	47	52	386	1.1	384	388	13.4	78.6
2025-10-10T11:15	10	55	1.6	52	58	385	0.4	384	386	13.1	78.6
2025-10-10T11:16	10	63	2.7	58	68	386	0.6	385	387	13.2	78.8
2025-10-10T11:17	10	78	14.5	68	137	388	1.0	386	391	13.3	78.8
2025-10-10T11:18	10	142	15.0	121	173	396	2.7	389	399	13.4	78.0
2025-10-10T11:19	10	86	22.7	60	150	395	2.3	391	399	13.3	78.3
2025-10-10T11:20	10	52	3.3	48	59	389	2.0	385	393	13.3	78.5
2025-10-10T11:21	10	48	1.0	47	51	386	0.6	385	387	13.3	78.7
2025-10-10T11:22	10	105	45.9	51	157	389	4.6	384	397	13.3	78.4
2025-10-10T11:23	10	143	30.8	84	168	399	2.4	394	403	13.4	78.2
2025-10-10T11:24	10	78	2.3	75	83	395	2.3	392	399	13.5	77.8
2025-10-10T11:25	10	85	16.4	75	129	393	1.2	392	396	13.5	78.5
2025-10-10T11:26	10	72	4.9	65	83	394	1.1	392	396	13.8	77.9
2025-10-10T11:27	10	82	15.2	65	112	393	1.1	391	395	13.8	77.7
2025-10-10T11:28	10	120	22.4	87	163	396	1.8	393	400	13.9	77.1
2025-10-10T11:29	10	104	40.4	66	165	396	4.1	390	402	13.7	76.8
2025-10-10T11:30	10	68	4.4	64	79	390	0.7	389	392	13.6	77.2
2025-10-10T11:31	10	150	35.6	80	178	396	3.9	390	402	13.6	76.9
2025-10-10T11:32	10	83	18.7	74	152	396	3.0	392	402	13.6	77.0
2025-10-10T11:33	10	80	3.6	70	86	395	0.3	394	395	13.7	77.4
2025-10-10T11:34	10	62	3.1	58	70	393	0.5	392	394	13.7	77.2
2025-10-10T11:35	10	56	1.2	54	58	392	1.3	390	394	13.8	77.2
2025-10-10T11:36	10	54	0.2	53	54	390	0.6	388	391	13.8	77.8
2025-10-10T11:37	10	55	1.5	53	58	389	0.2	388	389	13.7	78.1
2025-10-10T11:38	10	54	0.3	53	54	388	0.5	387	389	13.6	78.1
2025-10-10T11:39	10	51	1.3	49	53	387	0.4	386	388	13.5	77.9
2025-10-10T11:40	10	50	1.1	49	52	387	0.2	386	387	13.5	78.2
2025-10-10T11:41	10	57	4.5	53	72	386	0.2	386	387	13.5	78.1
2025-10-10T11:42	10	77	15.4	65	118	389	1.1	386	390	13.5	78.2
2025-10-10T11:43	10	76	14.5	65	115	391	1.5	388	393	13.7	78.0
2025-10-10T11:44	10	65	10.8	55	89	390	1.7	386	392	13.5	77.4
2025-10-10T11:45	10	52	1.2	50	55	386	0.4	385	387	13.5	77.9
2025-10-10T11:46	10	51	0.8	50	52	385	0.3	385	386	13.5	77.9
2025-10-10T11:47	10	53	0.3	52	53	386	0.4	385	387	13.6	77.9
2025-10-10T11:48	10	50	1.0	48	52	386	0.4	385	387	13.5	77.8
2025-10-10T11:49	10	45	1.5	42	47	385	0.4	384	386	13.6	78.2
2025-10-10T11:50	10	40	1.1	38	42	384	0.5	383	385	13.6	78.1
2025-10-10T11:51	10	39	0.4	38	40	383	0.2	383	383	13.5	78.2
2025-10-10T11:52	10	43	2.1	40	47	383	0.3	383	384	13.5	78.5
2025-10-10T11:53	10	68	22.5	46	111	386	2.1	382	388	13.6	78.6
2025-10-10T11:54	10	40	3.3	37	48	384	1.0	383	386	13.6	78.2
2025-10-10T11:55	10	38	0.9	37	40	382	0.7	381	384	13.5	77.9
2025-10-10T11:56	10	38	1.6	36	42	381	0.4	380	382	13.4	78.1
2025-10-10T11:57	10	44	6.9	37	61	381	0.5	380	383	13.4	78.5
2025-10-10T11:58	10	122	24.2	63	146	389	4.2	380	393	13.5	78.5
2025-10-10T11:59	10	133	9.2	108	142	395	1.7	390	397	13.7	78.6
2025-10-10T12:00	10	140	9.1	114	147	398	1.5	396	401	14.0	78.3
2025-10-10T12:01	10	147	0.9	146	150	402	1.0	400	404	14.2	77.2
2025-10-10T12:02	10	133	16.6	99	151	402	2.1	399	405	14.1	76.4
2025-10-10T12:03	10	146	2.3	139	149	399	0.5	398	400	13.8	76.0
2025-10-10T12:04	10	125	16.7	91	145	399	1.4	396	401	14.0	76.2
2025-10-10T12:05	10	114	26.8	81	154	396	1.9	394	401	13.9	75.9
2025-10-10T12:06	10	152	7.2	125	156	401	0.5	400	402	14.0	75.9
2025-10-10T12:07	10	83	23.9	57	124	398	3.1	393	402	14.1	75.7
2025-10-10T12:08	10	91	40.6	57	159	395	2.0	392	399	14.2	75.4
2025-10-10T12:09	10	152	12.0	133	164	401	2.6	398	405	14.3	75.2
2025-10-10T12:10	10	145	22.5	94	164	403	1.4	401	406	14.3	74.5
2025-10-10T12:11	10	160	0.7	159	161	404	1.5	401	406	14.1	74.8
2025-10-10T12:12	10	161	0.9	160	163	408	0.8	406	409	14.4	74.6
2025-10-10T12:13	10	163	1.7	161	166	408	0.6	407	410	14.6	74.7
2025-10-10T12:14	10	166	0.8	165	168	409	0.5	408	409	14.4	73.7
2025-10-10T12:15	10	170	1.0	168	171	410	0.5	408	410	14.4	74.2
2025-10-10T12:16	10	148	16.3	118	170	408	1.3	406	411	14.3	73.9
2025-10-10T12:17	10	174	2.0	163	175	411	1.0	408	412	14.5	74.3
2025-10-10T12:18	10	123	24.9	89	172	407	2.7	403	412	14.5	73.6
2025-10-10T12:19	10	66	5.8	61	91	401	2.1	398	405	14.4	74.4
2025-10-10T12:20	10	65	3.2	61	80	397	1.4	395	400	14.4	73.9
2025-10-10T12:21	10	129	30.6	77	175	400	2.7	395	405	14.6	74.6
2025-10-10T12:22	10	177	3.3	173	182	407	1.8	404	410	14.6	73.2
2025-10-10T12:23	10	161	26.8	107	187	410	1.3	407	413	14.7	73.2
2025-10-10T12:24	10	115	33.7	80	181	406	4.5	401	414	14.7	73.4
2025-10-10T12:25	10	140	27.7	95	182	408	1.1	405	410	14.8	73.3
2025-10-10T12:26	10	85	10.7	70	105	401	2.4	398	406	14.6	73.2
2025-10-10T12:27	10	149	30.3	76	172	405	4.1	399	410	14.7	73.7
2025-10-10T12:28	10	148	15.7	119	165	407	1.8	405	410	14.7	73.4
2025-10-10T12:29	10	113	23.3	77	154	404	1.3	401	406	14.7	73.1
2025-10-10T12:30	10	154	1.1	153	156	407	1.3	404	410	14.7	73.1
2025-10-10T12:31	10	145	18.3	89	154	410	1.0	407	411	14.9	73.3
2025-10-10T12:32	10	127	25.5	72	155	406	1.4	404	408	14.8	72.9
2025-10-10T12:33	10	154	7.3	131	159	408	0.7	406	409	14.7	73.1
2025-10-10T12:34	10	157	1.0	155	158	410	1.2	408	412	14.9	73.4
2025-10-10T12:35	10	160	1.5	158	163	412	0.4	411	413	15.1	73.0
2025-10-10T12:36	10	141	26.0	92	167	409	2.3	405	412	14.8	72.7
2025-10-10T12:37	10	151	23.5	89	174	408	1.0	406	410	14.8	73.1
2025-10-10T12:38	10	99	29.5	63	145	405	2.7	399	408	14.8	73.1
2025-10-10T12:39	10	60	1.6	58	62	397	2.0	395	402	14.7	73.1
2025-10-10T12:40	10	56	1.5	54	59	395	0.9	393	396	14.9	72.9
2025-10-10T12:41	10	49	2.4	47	56	391	1.1	390	393	14.5	72.4
2025-10-10T12:42	10	51	4.4	48	63	390	0.4	389	391	14.4	72.9
2025-10-10T12:43	10	75	28.9	51	125	391	2.1	389	396	14.4	73.3
2025-10-10T12:44	10	64	23.2	47	114	394	1.5	392	397	14.7	73.4
2025-10-10T12:45	10	117	45.3	48	155	396	4.4	391	403	14.8	73.2
2025-10-10T12:46	10	130	27.7	84	154	402	1.7	398	404	14.7	73.0
2025-10-10T12:47	10	93	21.9	63	132	400	1.1	398	402	15.0	73.2
2025-10-10T12:48	10	123	23.9	82	151	400	2.2	397	404	14.9	72.7
2025-10-10T12:49	10	61	15.7	49	104	397	2.5	394	402	14.9	73.2
2025-10-10T12:50	10	57	8.7	52	94	396	0.8	395	397	15.0	73.5
2025-10-10T12:51	10	72	19.9	55	128	396	0.9	394	398	15.1	73.1
2025-10-10T12:52	10	123	15.7	91	146	399	2.0	396	403	15.0	72.5
2025-10-10T12:53	10	131	25.3	86	159	402	1.4	399	405	15.0	72.5
2025-10-10T12:54	10	125	36.3	73	160	405	2.0	400	407	15.1	72.8
2025-10-10T12:55	10	79	16.0	65	124	400	1.1	399	402	15.0	72.6
2025-10-10T12:56	10	77	29.1	52	131	399	2.5	396	403	15.0	71.9
2025-10-10T12:57	10	49	1.1	48	52	395	1.4	393	397	15.0	72.1
2025-10-10T12:58	10	52	2.5	49	56	393	0.3	392	393	14.9	72.5
2025-10-10T12:59	10	70	23.5	54	124	394	1.5	392	398	14.9	72.8
2025-10-10T13:00	10	74	25.3	53	124	396	2.0	393	398	14.9	72.3
2025-10-10T13:01	10	51	0.7	50	52	392	0.6	391	393	14.8	72.2
2025-10-10T13:02	10	51	1.2	50	54	392	0.4	391	393	14.8	72.6
2025-10-10T13:03	10	58	5.5	54	79	392	0.3	391	393	14.9	72.1
2025-10-10T13:04	10	60	5.5	57	79	393	0.3	392	393	14.8	72.5
2025-10-10T13:05	10	60	1.2	58	62	394	0.8	392	395	15.1	72.7
2025-10-10T13:06	10	71	13.1	59	104	395	1.0	394	397	15.2	72.2
2025-10-10T13:07	10	50	4.2	44	59	394	1.0	392	396	15.1	71.6
2025-10-10T13:08	10	42	0.7	41	44	391	0.8	390	393	15.0	71.5
2025-10-10T13:09	10	44	1.7	42	48	390	0.4	389	390	14.9	71.3
2025-10-10T13:10	10	50	1.6	48	53	390	0.3	389	391	14.9	71.9
2025-10-10T13:11	10	59	3.7	54	70	391	0.7	390	392	14.9	71.9
2025-10-10T13:12	10	107	28.7	58	141	396	2.3	391	399	14.9	71.6
2025-10-10T13:13	10	54	1.4	51	57	394	0.7	393	396	15.0	71.3
2025-10-10T13:14	10	48	0.7	48	50	393	0.4	392	394	15.2	71.9
2025-10-10T13:15	10	50	1.9	48	53	393	0.4	392	394	15.3	71.6
2025-10-10T13:16	10	54	2.7	51	58	393	0.3	392	394	15.3	71.2
2025-10-10T13:17	10	64	3.6	59	73	393	0.4	393	394	15.1	70.2
2025-10-10T13:18	10	93	8.7	74	108	397	2.2	393	400	15.1	70.6
2025-10-10T13:19	10	77	14.3	62	107	399	1.0	397	400	15.3	70.6
2025-10-10T13:20	10	61	2.7	57	68	396	0.8	395	398	15.4	69.8
2025-10-10T13:21	10	66	12.5	55	93	393	0.8	392	395	15.2	69.3
2025-10-10T13:22	10	50	1.3	48	54	392	0.5	391	394	15.2	69.9
2025-10-10T13:23	10	58	8.7	48	76	393	0.7	392	394	15.3	70.1
2025-10-10T13:24	10	48	1.1	47	51	393	0.4	392	393	15.3	70.7
2025-10-10T13:25	10	50	1.8	49	57	392	0.4	391	393	15.3	70.2
2025-10-10T13:26	10	104	20.7	58	122	396	3.0	391	399	15.3	70.0
2025-10-10T13:27	10	52	10.7	45	90	393	2.3	390	398	15.3	69.5
2025-10-10T13:28	10	46	1.1	45	49	390	0.5	389	391	15.3	69.9
2025-10-10T13:29	10	47	3.4	44	59	390	0.3	389	391	15.2	70.1
2025-10-10T13:30	10	81	22.8	44	120	392	1.9	388	394	15.2	69.6
2025-10-10T13:31	10	41	0.6	40	43	390	1.1	388	393	15.2	69.6
2025-10-10T13:32	10	48	11.3	41	76	389	0.4	388	390	15.1	69.9
2025-10-10T13:33	10	93	17.4	73	122	393	2.4	389	398	15.2	70.5
2025-10-10T13:34	10	86	32.6	49	123	396	1.7	393	398	15.3	70.0
2025-10-10T13:35	10	82	27.1	49	114	394	1.6	392	396	15.4	69.9
2025-10-10T13:36	10	112	1.1	110	114	397	1.0	395	398	15.4	69.3
2025-10-10T13:37	10	71	27.4	45	115	395	2.8	391	399	15.4	69.1
2025-10-10T13:38	10	51	4.6	45	58	391	0.5	390	392	15.3	69.3
2025-10-10T13:39	10	48	1.2	47	51	390	0.7	388	391	15.2	69.4
2025-10-10T13:40	10	53	3.1	50	64	390	0.3	389	390	15.3	69.7
2025-10-10T13:41	10	74	15.1	56	103	391	0.8	390	394	15.2	69.5
2025-10-10T13:42	10	99	14.6	57	115	395	1.6	392	397	15.3	69.2
2025-10-10T13:43	10	43	3.6	38	54	392	1.7	389	396	15.3	69.5
2025-10-10T13:44	10	48	17.5	38	104	389	0.6	388	390	15.2	69.7
2025-10-10T13:45	10	118	4.1	106	123	394	2.5	389	397	15.2	69.8
2025-10-10T13:46	10	110	9.9	94	123	397	0.5	396	398	15.4	69.5
2025-10-10T13:47	10	110	3.6	100	114	399	0.9	397	400	15.5	69.6
2025-10-10T13:48	10	56	20.2	43	104	396	2.7	392	401	15.7	69.7
2025-10-10T13:49	10	73	24.3	45	110	393	1.2	392	396	15.6	68.7
2025-10-10T13:50	10	100	14.7	74	114	394	1.2	392	397	15.4	68.6
2025-10-10T13:51	10	114	1.8	111	117	397	0.7	396	398	15.4	68.9
2025-10-10T13:52	10	82	25.7	49	118	396	1.8	393	398	15.4	68.9
2025-10-10T13:53	10	82	9.6	65	97	396	1.0	394	398	15.6	69.4
2025-10-10T13:54	10	105	11.1	78	112	399	1.3	396	400	15.6	69.2
2025-10-10T13:55	10	104	2.2	102	109	400	0.3	399	400	15.6	68.7
2025-10-10T13:56	10	113	2.7	106	115	400	0.3	399	401	15.6	67.6
2025-10-10T13:57	10	99	12.0	73	113	399	1.0	398	401	15.7	67.9
2025-10-10T13:58	10	111	2.1	107	114	399	0.3	399	400	15.6	67.2
2025-10-10T13:59	10	95	16.2	61	113	399	1.0	397	401	15.6	67.3
2025-10-10T14:00	10	107	16.6	63	117	399	1.2	397	400	15.8	67.4
2025-10-10T14:01	10	111	5.0	103	117	400	0.3	399	400	15.6	67.7
2025-10-10T14:02	10	103	0.8	101	104	400	0.3	400	401	15.7	68.4
2025-10-10T14:03	10	63	22.4	41	101	398	2.8	394	402	15.9	68.7
2025-10-10T14:04	10	86	12.3	47	100	398	1.7	395	400	15.7	68.1
2025-10-10T14:05	10	79	27.2	47	114	398	1.3	396	400	15.7	68.8
2025-10-10T14:06	10	89	20.4	57	114	399	0.8	397	400	15.7	68.6
2025-10-10T14:07	10	86	17.8	57	107	399	1.2	397	401	15.8	69.1
2025-10-10T14:08	10	98	14.2	56	111	400	0.8	398	401	15.9	68.7
2025-10-10T14:09	10	97	5.4	88	109	399	0.8	398	401	15.8	68.0
2025-10-10T14:10	10	113	1.0	110	114	400	0.6	398	400	15.7	67.4
2025-10-10T14:11	10	110	1.0	108	112	400	0.5	399	401	15.7	67.4
2025-10-10T14:12	10	111	1.9	107	114	400	0.2	399	400	15.6	66.9
2025-10-10T14:13	10	88	14.5	61	108	398	1.3	396	400	15.6	67.4
2025-10-10T14:14	10	63	21.1	41	110	396	1.5	394	399	15.6	67.7
2025-10-10T14:15	10	101	8.6	87	112	398	0.9	395	399	15.6	67.9
2025-10-10T14:16	10	99	1.6	96	102	398	0.4	397	399	15.6	68.1
2025-10-10T14:17	10	91	1.3	90	95	399	0.3	398	399	15.7	68.0
2025-10-10T14:18	10	92	0.9	90	93	399	0.3	399	400	15.8	68.1
2025-10-10T14:19	10	91	0.8	90	92	399	0.3	398	400	15.9	68.1
2025-10-10T14:20	10	95	1.2	93	96	399	0.4	398	399	15.8	67.3
2025-10-10T14:21	10	93	0.3	93	94	398	0.3	397	398	15.8	67.5
2025-10-10T14:22	10	91	1.1	89	93	399	0.2	398	399	15.8	68.1
2025-10-10T14:23	10	90	0.3	89	90	399	0.4	398	399	15.9	68.4
2025-10-10T14:24	10	89	1.1	86	90	398	0.8	396	399	15.8	67.9
2025-10-10T14:25	10	80	7.8	52	85	397	0.4	396	397	15.7	67.3
2025-10-10T14:26	10	32	9.5	25	66	393	2.3	390	398	15.8	68.3
2025-10-10T14:27	10	82	5.1	69	87	394	1.3	392	396	15.7	68.3
2025-10-10T14:28	10	81	1.9	79	84	395	0.2	395	396	15.6	68.4
2025-10-10T14:29	10	90	4.5	82	98	396	0.9	394	397	15.7	68.1
2025-10-10T14:30	10	101	1.4	98	103	398	0.8	396	400	15.8	68.4
2025-10-10T14:31	10	84	10.0	63	98	397	1.1	394	398	15.9	67.2
2025-10-10T14:32	10	76	4.7	63	79	394	0.3	393	394	15.7	66.5
2025-10-10T14:33	10	87	2.4	80	91	394	0.3	393	395	15.7	66.6
2025-10-10T14:34	10	93	0.8	91	94	395	0.5	394	396	15.7	67.0
2025-10-10T14:35	10	95	0.7	93	96	397	0.6	396	398	15.9	67.2
2025-10-10T14:36	10	93	0.7	90	94	397	0.3	397	398	15.9	67.1
2025-10-10T14:37	10	64	17.8	30	89	396	1.0	393	397	15.9	67.3
2025-10-10T14:38	10	46	13.0	29	67	393	0.6	391	394	15.9	67.2
2025-10-10T14:39	10	45	15.1	29	74	391	0.6	389	392	15.7	67.5
2025-10-10T14:40	10	72	15.0	38	86	392	1.3	390	394	15.7	67.4
2025-10-10T14:41	10	44	10.7	29	67	390	1.5	388	393	15.6	67.1
2025-10-10T14:42	10	59	11.3	35	69	389	0.5	388	391	15.5	66.7
2025-10-10T14:43	10	57	17.7	37	79	389	1.0	387	391	15.5	67.5
2025-10-10T14:44	10	79	0.6	77	80	391	0.7	390	392	15.6	67.4
2025-10-10T14:45	10	82	0.7	80	83	393	0.8	392	394	15.6	67.9
2025-10-10T14:46	10	74	3.9	68	81	394	0.3	393	394	15.7	67.9
2025-10-10T14:47	10	75	0.2	75	76	394	0.2	393	394	15.7	67.5
2025-10-10T14:48	10	73	0.5	73	75	392	0.3	392	393	15.7	67.2
2025-10-10T14:49	10	73	0.7	71	74	392	0.3	392	393	15.7	67.4
2025-10-10T14:50	10	69	1.7	65	72	392	0.7	390	393	15.7	66.9
2025-10-10T14:51	10	59	2.8	56	65	390	0.4	389	391	15.6	67.1
2025-10-10T14:52	10	56	0.2	56	56	390	0.2	389	390	15.7	67.2
2025-10-10T14:53	10	58	1.4	56	61	390	0.3	390	391	15.7	67.6
2025-10-10T14:54	10	64	1.3	61	65	391	0.5	390	392	15.7	68.1
2025-10-10T14:55	10	65	0.3	65	66	392	0.2	391	392	15.8	68.1
2025-10-10T14:56	10	66	2.0	64	71	392	0.4	391	393	15.8	68.5
2025-10-10T14:57	10	77	3.2	71	82	393	0.3	392	394	15.8	68.4
2025-10-10T14:58	10	82	0.2	82	82	394	0.5	393	395	15.8	68.2
2025-10-10T14:59	10	82	0.1	82	82	395	0.3	394	396	15.9	68.2
2025-10-10T15:00	10	82	0.3	81	82	394	0.5	393	395	15.9	67.4
2025-10-10T15:01	10	81	1.0	78	82	394	0.3	393	395	15.8	67.5
2025-10-10T15:02	10	74	4.1	66	79	394	0.4	393	394	15.9	67.9
2025-10-10T15:03	10	75	5.4	65	79	394	0.3	393	394	15.9	68.2
2025-10-10T15:04	10	78	0.4	78	79	392	0.6	391	394	15.8	66.8
2025-10-10T15:05	10	77	0.2	77	78	392	0.5	391	392	15.8	66.5
2025-10-10T15:06	10	76	0.1	76	77	391	0.3	391	392	15.7	66.4
2025-10-10T15:07	10	76	0.1	76	76	391	0.3	391	392	15.8	66.3
2025-10-10T15:08	10	76	0.1	76	76	391	0.2	390	391	15.7	65.7
2025-10-10T15:09	10	75	0.3	75	76	391	0.3	390	391	15.7	65.6
2025-10-10T15:10	10	75	0.2	74	75	390	0.3	390	391	15.7	65.9
2025-10-10T15:11	10	74	0.2	73	74	391	0.2	390	391	15.7	66.8
2025-10-10T15:12	10	73	0.2	73	74	391	0.2	390	391	15.7	66.7
2025-10-10T15:13	10	73	0.1	73	73	391	0.4	390	392	15.7	66.8
2025-10-10T15:14	10	73	0.2	73	73	391	0.2	390	391	15.7	67.3
2025-10-10T15:15	10	72	0.7	71	73	390	0.2	390	391	15.7	67.4
2025-10-10T15:16	10	67	2.4	61	70	390	0.3	390	391	15.8	66.9
2025-10-10T15:17	10	67	2.9	60	69	390	0.2	389	390	15.7	67.0
2025-10-10T15:18	10	63	4.7	56	68	390	0.4	389	391	15.7	67.3
2025-10-10T15:19	10	68	2.3	60	69	390	0.3	389	391	15.7	68.2
2025-10-10T15:20	10	69	0.3	68	69	390	0.3	390	391	15.7	68.1
2025-10-10T15:21	10	68	0.1	68	68	391	0.3	390	391	15.8	68.8
2025-10-10T15:22	10	67	0.4	66	68	390	0.3	390	391	15.8	68.8
2025-10-10T15:23	10	65	0.7	64	66	389	0.3	389	390	15.7	67.8
2025-10-10T15:24	10	63	0.8	62	64	389	0.4	388	390	15.7	68.1
2025-10-10T15:25	10	62	0.4	62	63	389	0.2	389	389	15.7	68.2
2025-10-10T15:26	10	61	0.7	60	62	388	0.4	388	389	15.7	67.8
2025-10-10T15:27	10	60	1.0	58	61	388	0.2	388	389	15.7	68.0
2025-10-10T15:28	10	60	0.1	60	61	388	0.2	387	388	15.6	67.6
2025-10-10T15:29	10	60	0.2	59	60	388	0.2	387	388	15.7	68.3
2025-10-10T15:30	10	59	0.2	59	60	388	0.3	387	389	15.6	68.7
2025-10-10T15:31	10	59	0.1	59	59	388	0.2	387	388	15.6	68.3
2025-10-10T15:32	10	59	0.3	58	59	388	0.3	387	388	15.6	68.6
2025-10-10T15:33	10	57	0.4	57	58	388	0.2	387	388	15.7	68.6
2025-10-10T15:34	10	56	0.3	56	57	387	0.3	386	388	15.6	68.3
2025-10-10T15:35	10	56	0.1	55	56	387	0.2	387	388	15.7	68.9
2025-10-10T15:36	10	55	0.6	54	56	387	0.2	386	387	15.6	68.7
2025-10-10T15:37	10	53	0.6	52	54	386	0.2	386	387	15.6	68.6
2025-10-10T15:38	10	52	0.6	51	53	386	0.3	385	387	15.6	68.9
2025-10-10T15:39	10	53	0.2	53	54	386	0.2	385	386	15.6	68.3
2025-10-10T15:40	10	52	0.4	52	53	386	0.2	385	386	15.6	69.2
2025-10-10T15:41	10	52	0.1	51	52	385	0.2	385	386	15.5	69.4
2025-10-10T15:42	10	52	0.1	51	52	386	0.2	385	386	15.5	69.5
2025-10-10T15:43	10	51	0.1	51	52	385	0.3	385	386	15.5	68.3
2025-10-10T15:44	10	51	0.2	50	51	385	0.3	384	385	15.4	68.2
2025-10-10T15:45	10	50	0.1	50	50	385	0.2	384	385	15.4	68.8
2025-10-10T15:46	10	50	0.1	50	50	384	0.3	384	385	15.4	68.5
2025-10-10T15:47	10	50	0.1	49	50	384	0.3	383	385	15.4	69.1
2025-10-10T15:48	10	49	0.2	49	50	384	0.3	383	385	15.4	69.1
2025-10-10T15:49	10	48	0.3	48	49	384	0.3	383	384	15.4	69.2
2025-10-10T15:50	10	48	0.1	47	48	384	0.2	383	384	15.4	69.6
2025-10-10T15:51	10	48	0.2	47	48	384	0.2	383	384	15.3	69.7
2025-10-10T15:52	10	47	0.3	46	47	383	0.2	383	384	15.3	70.0
2025-10-10T15:53	10	46	0.2	46	46	383	0.3	383	384	15.3	69.3
2025-10-10T15:54	10	45	0.2	45	46	383	0.3	383	384	15.3	69.3
2025-10-10T15:55	10	44	0.4	44	45	383	0.2	382	383	15.3	69.0
2025-10-10T15:56	10	42	0.9	41	44	383	0.2	382	383	15.3	69.9
2025-10-10T15:57	10	39	0.6	38	41	382	0.3	382	383	15.3	69.9
2025-10-10T15:58	10	39	0.3	38	39	382	0.2	382	382	15.2	70.2
2025-10-10T15:59	10	40	0.2	39	40	382	0.3	381	382	15.2	70.0
2025-10-10T16:00	10	39	0.3	39	40	382	0.2	381	382	15.2	69.9
2025-10-10T16:01	10	38	0.2	38	39	382	0.2	381	382	15.2	70.3
2025-10-10T16:02	10	39	0.2	39	40	382	0.2	381	382	15.2	69.9
2025-10-10T16:03	10	39	0.2	39	40	382	0.2	381	382	15.2	69.8
2025-10-10T16:04	10	38	0.3	38	39	381	0.3	381	382	15.3	68.9
2025-10-10T16:05	10	37	0.3	37	38	381	0.3	380	382	15.3	69.6
2025-10-10T16:06	10	36	0.3	36	37	381	0.2	380	382	15.3	69.8
2025-10-10T16:07	10	35	0.2	35	36	381	0.3	380	381	15.2	69.8
2025-10-10T16:08	10	34	0.4	34	35	381	0.3	380	381	15.2	69.9
2025-10-10T16:09	10	33	0.6	32	34	380	0.2	380	381	15.2	69.9
2025-10-10T16:10	10	31	0.4	30	32	380	0.3	379	381	15.2	69.9
2025-10-10T16:11	10	29	0.4	29	30	380	0.3	379	380	15.2	70.3
2025-10-10T16:12	10	29	0.2	28	29	379	0.2	379	380	15.2	70.3
2025-10-10T16:13	10	28	0.3	27	28	379	0.2	379	380	15.1	70.5
2025-10-10T16:14	10	27	0.3	26	27	379	0.2	378	379	15.1	70.6
2025-10-10T16:15	10	26	0.1	26	26	378	0.2	378	379	15.1	71.1
2025-10-10T16:16	10	26	0.1	26	26	378	0.4	377	379	15.0	71.5
2025-10-10T16:17	10	26	0.1	25	26	378	0.3	378	379	15.1	71.3
2025-10-10T16:18	10	25	0.4	24	26	378	0.3	377	378	15.1	71.4
2025-10-10T16:19	10	23	0.6	22	24	377	0.3	377	378	15.0	71.4
2025-10-10T16:20	10	21	0.6	20	22	377	0.3	376	378	15.0	71.8
2025-10-10T16:21	10	19	0.8	17	20	377	0.3	376	377	15.0	71.5
2025-10-10T16:22	10	16	0.9	14	17	377	0.2	376	378	15.0	71.6
2025-10-10T16:23	10	13	1.0	11	14	376	0.3	376	377	15.0	71.6
2025-10-10T16:24	10	10	0.5	9	11	376	0.3	376	377	15.0	71.4
2025-10-10T16:25	10	9	0.2	9	9	376	0.3	375	376	15.0	71.6
2025-10-10T16:26	10	8	0.1	8	9	375	0.4	374	376	14.9	72.6
2025-10-10T16:27	10	8	0.2	8	8	374	0.2	374	375	14.8	72.8
2025-10-10T16:28	10	8	0.1	7	8	374	0.3	374	375	14.8	72.3
2025-10-10T16:29	10	7	0.2	7	8	374	0.3	374	375	14.9	72.1
2025-10-10T16:30	10	7	0.1	7	7	374	0.2	374	375	14.9	71.9
2025-10-10T16:31	10	7	0.1	6	7	374	0.3	373	375	14.8	71.9
2025-10-10T16:32	10	6	0.1	6	6	374	0.3	373	374	14.8	72.0
2025-10-10T16:33	10	6	0.1	6	6	373	0.3	373	374	14.8	72.3
2025-10-10T16:34	10	6	0.2	5	6	373	0.2	372	373	14.7	72.6
2025-10-10T16:35	10	5	0.1	5	6	373	0.2	372	373	14.8	72.3
2025-10-10T16:36	10	5	0.1	5	5	373	0.2	372	373	14.8	72.3
2025-10-10T16:37	10	5	0.1	5	5	373	0.3	372	373	14.8	72.2
2025-10-10T16:38	10	4	0.1	4	5	372	0.3	372	373	14.7	72.4
2025-10-10T16:39	10	4	0.1	4	4	372	0.3	371	372	14.6	73.1
2025-10-10T16:40	10	4	0.2	3	4	372	0.2	371	372	14.7	72.8
2025-10-10T16:41	10	3	0.1	3	4	371	0.3	371	372	14.6	73.1
2025-10-10T16:42	10	3	0.1	3	3	371	0.2	371	371	14.6	73.3
2025-10-10T16:43	10	3	0.1	3	3	371	0.2	370	371	14.6	73.4
2025-10-10T16:44	10	3	0.1	2	3	370	0.2	369	370	14.6	73.6
2025-10-10T16:45	10	3	0.1	2	3	369	0.3	368	370	14.5	73.8
2025-10-10T16:46	10	2	0.1	2	3	368	0.3	368	369	14.5	74.0
2025-10-10T16:47	10	2	0.2	2	3	367	0.3	367	368	14.5	74.0
2025-10-10T16:48	10	2	0.2	2	3	367	0.2	366	367	14.4	74.5
2025-10-10T16:49	10	2	0.2	1	2	366	0.3	365	367	14.4	74.4
2025-10-10T16:50	10	2	0.2	1	2	365	0.3	364	366	14.4	74.6
2025-10-10T16:51	10	1	0.2	1	2	364	0.4	363	365	14.4	74.6
2025-10-10T16:52	10	1	0.2	1	2	364	0.3	363	364	14.4	74.5
2025-10-10T16:53	10	1	0.1	1	1	364	0.3	363	364	14.4	74.4
2025-10-10T16:54	10	1	0.1	1	1	364	0.2	363	364	14.4	74.8
2025-10-10T16:55	10	1	0.1	1	1	364	0.3	363	364	14.3	74.8
2025-10-10T16:56	10	1	0.1	1	1	363	0.3	363	364	14.4	74.6
2025-10-10T16:57	10	1	0.1	0	1	363	0.3	362	363	14.3	74.8
2025-10-10T16:58	10	1	0.1	0	1	362	0.2	362	363	14.3	74.8
2025-10-10T16:59	10	1	0.0	0	1	362	0.2	361	362	14.3	75.1
2025-10-10T17:00	10	1	0.1	0	1	361	0.2	361	362	14.2	75.3
2025-10-10T17:01	10	1	0.1	0	1	361	0.2	360	361	14.2	75.2
2025-10-10T17:02	10	1	0.1	0	1	361	0.4	360	362	14.2	75.4
2025-10-10T17:03	10	1	0.1	0	1	361	0.3	361	362	14.1	75.8
2025-10-10T17:04	10	1	0.1	0	1	361	0.3	360	361	14.1	76.0
2025-10-10T17:05	10	1	0.1	0	1	360	0.3	359	360	14.1	76.2
2025-10-10T17:06	10	1	0.0	1	1	360	0.2	359	360	14.0	76.6
2025-10-10T17:07	10	1	0.1	0	1	360	0.3	360	361	14.1	76.1
2025-10-10T17:08	10	1	0.0	1	1	361	0.4	360	361	14.0	76.3
2025-10-10T17:09	10	1	0.0	0	1	361	0.3	360	362	14.0	76.2
2025-10-10T17:10	10	1	0.1	0	1	361	0.2	360	361	13.9	76.6
2025-10-10T17:11	10	1	0.1	0	1	360	0.4	359	361	13.9	76.6
2025-10-10T17:12	10	0	0.1	0	1	360	0.3	359	361	13.9	76.7
2025-10-10T17:13	10	0	0.1	0	1	360	0.3	359	361	13.9	76.8
2025-10-10T17:14	10	0	0.1	0	0	361	0.3	360	361	13.8	77.0
2025-10-10T17:15	10	0	0.1	0	0	360	0.3	359	361	13.8	77.2
2025-10-10T17:16	10	0	0.1	0	0	359	0.2	359	360	13.8	77.3
2025-10-10T17:17	10	0	0.1	0	0	359	0.2	359	360	13.7	77.8
2025-10-10T17:18	10	0	0.1	0	0	359	0.3	359	360	13.8	77.6
2025-10-10T17:19	10	0	0.1	0	0	359	0.2	358	359	13.8	77.7
2025-10-10T17:20	10	0	0.1	0	0	358	0.3	358	359	13.8	77.6
2025-10-10T17:21	10	0	0.1	0	0	358	0.3	357	358	13.8	77.6
2025-10-10T17:22	10	0	0.1	0	0	357	0.3	357	358	13.7	78.0
2025-10-10T17:23	10	0	0.1	0	0	357	0.3	356	357	13.6	78.4
2025-10-10T17:24	10	0	0.1	0	1	357	0.3	356	357	13.6	78.6
2025-10-10T17:25	10	1	0.8	0	6	356	0.3	355	357	13.6	78.4
2025-10-10T17:26	10	0	0.1	0	1	356	0.2	355	356	13.5	78.9
2025-10-10T17:27	10	0	0.1	0	1	356	0.3	355	356	13.5	79.1
2025-10-10T17:28	10	0	0.1	0	1	355	0.3	355	356	13.4	79.2
2025-10-10T17:29	10	0	0.1	0	1	355	0.3	354	356	13.4	79.3
2025-10-10T17:30	10	0	0.1	0	1	355	0.3	354	355	13.2	80.4
2025-10-10T17:31	10	0	0.1	0	1	354	0.2	354	355	13.1	80.7
2025-10-10T17:32	10	0	0.1	0	1	354	0.3	354	355	13.0	81.6
2025-10-10T17:33	10	0	0.1	0	1	355	0.2	354	355	13.1	81.3
2025-10-10T17:34	10	0	0.1	0	1	355	0.2	354	355	13.1	81.3
2025-10-10T17:35	10	0	0.1	0	0	355	0.3	354	356	13.2	80.3
2025-10-10T17:36	10	0	0.1	0	1	356	0.3	355	357	13.3	79.8
2025-10-10T17:37	10	0	0.1	0	1	356	0.3	356	357	13.4	79.5
2025-10-10T17:38	10	0	0.1	0	1	356	0.6	355	357	13.4	79.2
2025-10-10T17:39	10	0	0.1	0	1	358	0.5	357	359	13.4	78.7
2025-10-10T17:40	10	0	0.1	0	1	359	0.3	358	359	13.5	78.4
2025-10-10T17:41	10	0	0.1	0	0	358	0.3	358	359	13.4	78.7
2025-10-10T17:42	10	0	0.1	0	0	358	0.3	358	359	13.4	78.7
2025-10-10T17:43	10	0	0.1	0	0	358	0.2	357	358	13.4	78.8
2025-10-10T17:44	10	0	0.1	0	0	358	0.3	357	358	13.4	78.9
2025-10-10T17:45	10	0	0.1	0	0	357	0.2	357	358	13.3	79.1
2025-10-10T17:46	10	0	0.1	0	0	357	0.3	357	358	13.3	79.2
2025-10-10T17:47	10	0	0.1	0	0	358	0.2	357	358	13.3	79.2
2025-10-10T17:48	10	0	0.1	0	0	358	0.2	357	358	13.3	79.2
2025-10-10T17:49	10	0	0.1	0	0	357	0.3	356	357	13.3	79.3
2025-10-10T17:50	10	0	0.1	0	0	356	0.3	356	357	13.3	79.4
2025-10-10T17:51	10	0	0.1	0	0	356	0.2	356	357	13.3	79.3
2025-10-10T17:52	10	0	0.1	0	0	356	0.2	356	357	13.3	79.4
2025-10-10T17:53	10	0	0.1	0	1	356	0.3	356	357	13.2	79.7
2025-10-10T17:54	10	0	0.1	0	1	356	0.3	355	356	13.2	79.9
2025-10-10T17:55	10	0	0.1	0	1	355	0.2	355	356	13.1	80.2
2025-10-10T17:56	10	0	0.1	0	1	355	0.2	355	356	13.1	80.4
2025-10-10T17:57	10	0	0.1	0	1	355	0.3	354	355	13.1	80.6
2025-10-10T17:58	10	0	0.1	0	1	354	0.3	353	354	13.1	80.7
2025-10-10T17:59	10	0	0.1	0	1	353	0.2	353	354	13.0	81.1
2025-10-10T18:00	10	0	0.2	0	1	353	0.3	353	354	12.9	81.2
2025-10-10T18:01	10	0	0.2	0	1	353	0.3	352	353	12.9	81.4
2025-10-10T18:02	10	0	0.2	0	1	352	0.2	352	353	12.9	81.5
2025-10-10T18:03	10	0	0.2	0	1	352	0.3	351	353	12.8	81.7
2025-10-10T18:04	10	0	0.2	0	1	352	0.2	351	352	12.9	81.6
2025-10-10T18:05	10	0	0.2	0	1	352	0.3	351	353	12.9	81.6
2025-10-10T18:06	10	0	0.2	0	1	352	0.2	352	353	12.9	81.6
2025-10-10T18:07	10	0	0.2	0	1	352	0.2	352	353	12.9	81.3
2025-10-10T18:08	10	0	0.2	0	1	352	0.2	352	353	12.9	81.4
2025-10-10T18:09	10	0	0.1	0	1	353	0.3	352	353	12.9	81.4
2025-10-10T18:10	10	0	0.1	0	1	353	0.2	352	353	12.8	81.6
2025-10-10T18:11	10	0	0.1	0	1	352	0.3	352	353	12.8	81.6
2025-10-10T18:12	10	0	0.1	0	1	353	0.2	352	353	12.8	81.6
2025-10-10T18:13	10	0	0.1	0	0	352	0.2	352	353	12.8	81.6
2025-10-10T18:14	10	0	0.1	0	1	352	0.2	352	353	12.8	81.7
2025-10-10T18:15	10	0	0.1	0	1	352	0.3	351	352	12.6	82.3
2025-10-10T18:16	10	0	0.1	0	1	352	0.2	351	352	12.6	82.3
2025-10-10T18:17	10	0	0.1	0	0	352	0.3	352	353	12.6	82.4
2025-10-10T18:18	10	0	0.1	0	0	352	0.2	352	353	12.6	82.4
2025-10-10T18:19	10	0	0.1	0	0	352	0.2	352	352	12.6	82.2
2025-10-10T18:20	10	0	0.1	0	0	352	0.2	352	353	12.6	82.1
2025-10-10T18:21	10	0	0.1	0	0	352	0.2	351	352	12.5	82.7
2025-10-10T18:22	10	0	0.0	0	0	352	0.3	352	353	12.6	82.7
2025-10-10T18:23	10	0	0.1	0	0	352	0.3	351	353	12.4	83.1
2025-10-10T18:24	10	0	0.1	0	0	351	0.2	351	352	12.4	83.2
2025-10-10T18:25	10	0	0.1	0	1	352	0.2	351	352	12.4	83.5
2025-10-10T18:26	10	0	0.1	0	0	352	0.2	351	352	12.4	83.8
2025-10-10T18:27	10	0	0.1	0	0	352	0.2	351	352	12.3	84.0
2025-10-10T18:28	10	0	0.1	0	0	351	0.2	351	352	12.2	84.6
2025-10-10T18:29	10	0	0.1	0	0	351	0.2	350	351	12.1	85.0
2025-10-10T18:30	10	0	0.1	0	0	350	0.3	349	351	12.1	85.3
2025-10-10T18:31	10	0	0.1	0	0	350	0.3	349	350	12.1	85.6
2025-10-10T18:32	10	0	0.1	0	0	350	0.2	349	350	12.1	85.4
2025-10-10T18:33	10	0	0.1	0	0	349	0.2	349	350	12.0	85.7
2025-10-10T18:34	10	0	0.1	0	0	349	0.3	349	350	12.0	85.9
2025-10-10T18:35	10	0	0.1	0	0	349	0.3	349	350	12.0	86.0
2025-10-10T18:36	10	0	0.1	0	0	350	0.3	349	350	11.9	86.2
2025-10-10T18:37	10	0	0.1	0	0	350	0.2	350	351	11.9	86.3
2025-10-10T18:38	10	0	0.1	0	0	350	0.2	350	351	12.0	86.1
2025-10-10T18:39	10	0	0.1	0	0	350	0.3	350	351	12.1	85.7
2025-10-10T18:40	10	0	0.1	0	0	350	0.2	350	351	12.1	85.5
2025-10-10T18:41	10	0	0.1	0	0	350	0.2	350	351	12.1	85.7
2025-10-10T18:42	10	0	0.1	0	0	350	0.3	349	351	12.0	85.8
2025-10-10T18:43	10	0	0.1	0	0	350	0.2	349	351	12.1	85.7
2025-10-10T18:44	10	0	0.1	0	1	349	0.2	349	350	12.0	85.8
2025-10-10T18:45	10	0	0.1	0	0	350	0.2	349	350	12.0	85.9
2025-10-10T18:46	10	0	0.1	0	0	349	0.3	349	350	12.1	85.9
2025-10-10T18:47	10	0	0.1	0	0	349	0.3	349	350	12.1	85.8
2025-10-10T18:48	10	0	0.1	0	0	350	0.3	348	350	12.1	85.7
2025-10-10T18:49	10	0	0.1	0	0	350	0.3	349	350	12.1	85.8
2025-10-10T18:50	10	0	0.1	0	0	350	0.3	349	350	12.1	85.7
2025-10-10T18:51	10	0	0.1	0	0	350	0.3	349	351	12.1	85.6
2025-10-10T18:52	10	0	0.1	0	0	350	0.3	350	351	12.1	85.5
2025-10-10T18:53	10	0	0.1	0	0	351	0.2	350	352	12.2	85.0
2025-10-10T18:54	10	0	0.1	0	0	351	0.4	351	352	12.2	85.1
2025-10-10T18:55	10	0	0.1	0	1	352	0.4	352	353	12.2	85.1
2025-10-10T18:56	10	0	0.1	0	0	354	0.6	352	355	12.3	84.9
2025-10-10T18:57	10	0	0.1	0	1	355	0.3	355	356	12.2	84.9
2025-10-10T18:58	10	0	0.1	0	1	356	0.2	355	356	12.2	84.9
2025-10-10T18:59	10	0	0.1	0	1	356	0.3	356	357	12.2	84.9
2025-10-10T19:00	10	0	0.1	0	1	357	0.2	356	357	12.2	84.8
2025-10-10T19:01	10	0	0.1	0	0	358	0.3	357	358	12.3	84.7
2025-10-10T19:02	10	0	0.1	0	0	358	0.3	358	359	12.3	84.8
2025-10-10T19:03	10	0	0.1	0	0	358	0.2	358	359	12.3	84.8
2025-10-10T19:04	10	0	0.1	0	0	358	0.3	357	359	12.2	85.0
2025-10-10T19:05	10	0	0.1	0	1	358	0.3	357	359	12.2	85.2
2025-10-10T19:06	10	0	0.1	0	0	359	0.3	358	360	12.3	85.1
2025-10-10T19:07	10	0	0.1	0	0	359	0.3	358	359	12.2	85.3
2025-10-10T19:08	10	0	0.1	0	0	358	0.3	358	359	12.2	85.5
2025-10-10T19:09	10	0	0.1	0	0	358	0.3	358	359	12.3	85.4
2025-10-10T19:10	10	0	0.1	0	0	359	0.3	358	359	12.2	85.4
2025-10-10T19:11	10	0	0.1	0	0	359	0.3	358	359	12.3	85.2
2025-10-10T19:12	10	0	0.1	0	0	358	0.3	358	359	12.2	85.5
2025-10-10T19:13	10	0	0.1	0	0	358	0.2	358	359	12.2	85.6
2025-10-10T19:14	10	0	0.1	0	0	358	0.3	357	359	12.2	85.7
2025-10-10T19:15	10	0	0.1	0	0	358	0.3	357	358	12.2	85.7
2025-10-10T19:16	10	0	0.0	0	0	357	0.3	356	358	12.2	85.7
2025-10-10T19:17	10	0	0.1	0	0	357	0.2	356	357	12.2	85.7
2025-10-10T19:18	10	0	0.1	0	0	357	0.4	356	357	12.2	85.7
2025-10-10T19:19	10	0	0.1	0	0	356	0.3	355	357	12.2	85.7
2025-10-10T19:20	10	0	0.0	0	0	356	0.3	355	357	12.2	85.7
2025-10-10T19:21	10	0	0.1	0	0	356	0.2	355	356	12.2	85.7
2025-10-10T19:22	10	0	0.1	0	0	356	0.2	356	357	12.2	85.6
2025-10-10T19:23	10	0	0.1	0	0	356	0.2	355	357	12.1	85.5
2025-10-10T19:24	10	0	0.1	0	0	356	0.3	355	356	12.1	86.1
2025-10-10T19:25	10	0	0.1	0	0	356	0.2	355	356	12.1	86.5
2025-10-10T19:26	10	0	0.1	0	0	355	0.3	355	356	12.0	86.6
2025-10-10T19:27	10	0	0.1	0	0	355	0.4	354	356	12.0	86.8
2025-10-10T19:28	10	0	0.1	0	0	354	0.2	354	355	11.9	87.0
2025-10-10T19:29	10	0	0.1	0	0	354	0.3	354	355	11.9	87.1
2025-10-10T19:30	10	0	0.1	0	0	355	0.3	354	356	11.9	86.8
2025-10-10T19:31	10	0	0.1	0	0	356	0.3	355	357	11.9	86.7
2025-10-10T19:32	10	0	0.1	0	0	356	0.5	355	357	11.9	86.7
2025-10-10T19:33	10	0	0.1	0	0	357	0.5	356	358	12.0	86.3
2025-10-10T19:34	10	0	0.1	0	0	357	0.3	357	358	11.9	86.5
2025-10-10T19:35	10	0	0.0	0	0	357	0.2	357	358	12.0	86.2
2025-10-10T19:36	10	0	0.1	0	0	357	0.3	356	358	12.0	86.2
2025-10-10T19:37	10	0	0.1	0	0	356	0.3	356	357	12.0	86.3
2025-10-10T19:38	10	0	0.1	0	0	357	0.3	356	358	12.0	85.9
2025-10-10T19:39	10	0	0.1	0	0	357	0.3	356	358	12.0	86.3
2025-10-10T19:40	10	0	0.1	0	0	356	0.3	356	357	11.9	86.6
2025-10-10T19:41	10	0	0.1	0	0	356	0.2	356	356	11.9	86.9
2025-10-10T19:42	10	0	0.1	0	0	356	0.2	355	356	11.9	86.7
2025-10-10T19:43	10	0	0.1	0	0	355	0.2	355	356	11.9	86.8
2025-10-10T19:44	10	0	0.1	0	0	355	0.3	355	356	11.9	86.7
2025-10-10T19:45	10	0	0.1	0	0	355	0.3	354	355	11.8	87.0
2025-10-10T19:46	10	0	0.1	0	0	355	0.3	354	355	11.8	87.3
2025-10-10T19:47	10	0	0.1	0	0	354	0.2	354	355	11.8	87.3
2025-10-10T19:48	10	0	0.1	0	0	355	0.8	354	356	11.9	86.6
2025-10-10T19:49	10	0	0.1	0	0	356	0.4	355	356	11.9	86.7
2025-10-10T19:50	10	0	0.1	0	0	356	0.4	355	356	11.8	86.9
2025-10-10T19:51	10	0	0.1	0	0	357	0.3	356	357	11.9	86.7
2025-10-10T19:52	10	0	0.1	0	0	356	0.2	356	357	11.9	86.1
2025-10-10T19:53	10	0	0.1	0	0	356	0.3	355	357	11.9	86.2
2025-10-10T19:54	10	0	0.1	0	0	357	0.6	356	358	12.1	85.5
2025-10-10T19:55	10	0	0.1	0	0	358	0.3	357	359	12.2	84.6
2025-10-10T19:56	10	0	0.1	0	1	357	0.3	356	358	12.1	85.0
2025-10-10T19:57	10	0	0.1	0	0	357	0.3	356	358	12.2	84.9
2025-10-10T19:58	10	0	0.1	0	1	357	0.4	356	358	12.1	85.3
2025-10-10T19:59	10	0	0.2	0	1	356	0.6	355	357	12.1	85.4
2025-10-10T20:00	10	0	0.1	0	1	355	0.3	354	356	12.1	85.7
2025-10-10T20:01	10	0	0.2	0	1	354	0.4	353	355	12.1	85.4
2025-10-10T20:02	10	0	0.2	0	1	354	0.3	353	354	12.0	85.7
2025-10-10T20:03	10	0	0.2	0	1	355	0.5	354	356	12.1	85.4
2025-10-10T20:04	10	0	0.2	0	1	355	0.4	354	356	12.1	85.6
2025-10-10T20:05	10	0	0.1	0	1	355	0.3	354	355	11.9	86.0
2025-10-10T20:06	10	0	0.1	0	1	353	0.5	352	354	11.9	86.2
2025-10-10T20:07	10	0	0.2	0	1	352	0.3	352	353	11.9	86.2
2025-10-10T20:08	10	0	0.1	0	1	352	0.2	351	353	12.0	86.0
2025-10-10T20:09	10	0	0.1	0	1	353	0.6	351	354	12.0	86.1
2025-10-10T20:10	10	0	0.2	0	1	353	0.4	353	354	12.0	86.0
2025-10-10T20:11	10	0	0.1	0	0	353	0.4	352	353	12.0	86.2
2025-10-10T20:12	10	0	0.2	0	1	352	0.5	351	352	11.9	86.4
2025-10-10T20:13	10	0	0.1	0	1	351	0.3	350	351	11.9	86.5
2025-10-10T20:14	10	0	0.1	0	1	351	0.3	350	351	11.9	86.6
2025-10-10T20:15	10	0	0.1	0	1	351	0.2	350	351	11.9	86.7
2025-10-10T20:16	10	0	0.1	0	1	350	0.3	350	351	11.9	86.7
2025-10-10T20:17	10	0	0.2	0	1	350	0.2	350	351	11.9	86.6
2025-10-10T20:18	10	0	0.1	0	1	350	0.3	350	351	11.9	86.8
2025-10-10T20:19	10	0	0.2	0	1	351	0.4	350	352	11.8	86.8
2025-10-10T20:20	10	0	0.2	0	1	352	0.2	351	353	11.8	86.9
2025-10-10T20:21	10	0	0.1	0	1	352	0.2	352	353	11.9	86.8
2025-10-10T20:22	10	0	0.2	0	1	351	0.3	351	352	11.9	86.8
2025-10-10T20:23	10	0	0.1	0	1	351	0.2	350	352	11.9	86.9
2025-10-10T20:24	10	0	0.1	0	1	351	0.3	351	352	11.8	86.8
2025-10-10T20:25	10	0	0.1	0	1	352	0.5	351	353	11.8	86.9
2025-10-10T20:26	10	0	0.1	0	0	352	0.5	351	353	11.7	87.1
2025-10-10T20:27	10	0	0.2	0	1	353	0.3	352	353	11.8	87.1
2025-10-10T20:28	10	0	0.1	0	1	352	0.3	351	353	11.8	87.0
2025-10-10T20:29	10	0	0.1	0	1	352	0.2	351	352	11.8	86.9
2025-10-10T20:30	10	0	0.2	0	1	352	0.2	351	352	11.9	86.8
2025-10-10T20:31	10	0	0.1	0	1	351	0.3	350	352	11.9	86.7
2025-10-10T20:32	10	0	0.2	0	1	350	0.3	350	351	11.8	86.9
2025-10-10T20:33	10	0	0.1	0	1	350	0.3	349	350	11.7	87.2
2025-10-10T20:34	10	0	0.1	0	1	349	0.3	349	350	11.6	87.9
2025-10-10T20:35	10	0	0.1	0	1	349	0.3	348	349	11.6	88.2
2025-10-10T20:36	10	0	0.1	0	0	348	0.3	347	349	11.6	88.3
2025-10-10T20:37	10	0	0.1	0	1	348	0.3	347	348	11.6	88.2
2025-10-10T20:38	10	0	0.1	0	1	348	0.2	347	348	11.5	88.5
2025-10-10T20:39	10	0	0.2	0	1	348	0.3	348	349	11.5	88.8
2025-10-10T20:40	10	0	0.1	0	0	348	0.3	347	349	11.4	89.2
2025-10-10T20:41	10	0	0.1	0	1	348	0.3	347	348	11.4	89.2
2025-10-10T20:42	10	0	0.2	0	1	347	0.3	346	348	11.4	89.3
2025-10-10T20:43	10	0	0.1	0	1	347	0.3	346	348	11.3	89.6
2025-10-10T20:44	10	0	0.1	0	1	347	0.2	346	347	11.3	89.7
2025-10-10T20:45	10	0	0.1	0	1	346	0.2	346	347	11.3	89.8
2025-10-10T20:46	10	0	0.1	0	0	346	0.2	346	347	11.4	89.7
2025-10-10T20:47	10	0	0.1	0	0	345	0.3	345	346	11.4	89.4
2025-10-10T20:48	10	0	0.1	0	0	345	0.2	345	346	11.5	89.2
2025-10-10T20:49	10	0	0.1	0	1	345	0.3	344	346	11.5	88.9
2025-10-10T20:50	10	0	0.1	0	0	345	0.3	345	346	11.5	88.7
2025-10-10T20:51	10	0	0.1	0	0	345	0.2	345	346	11.5	88.9
2025-10-10T20:52	10	0	0.1	0	1	345	0.2	345	346	11.5	89.2
2025-10-10T20:53	10	0	0.1	0	0	346	0.4	345	347	11.5	88.8
2025-10-10T20:54	10	0	0.1	0	1	347	0.6	346	348	11.6	88.5
2025-10-10T20:55	10	0	0.1	0	0	347	0.6	346	348	11.6	88.4
2025-10-10T20:56	10	0	0.1	0	0	347	0.4	346	348	11.2	89.2
2025-10-10T20:57	10	0	0.1	0	0	347	0.3	346	347	11.0	90.0
2025-10-10T20:58	10	0	0.1	0	0	346	0.3	346	347	10.8	90.7
2025-10-10T20:59	10	0	0.1	0	0	347	0.4	346	348	10.7	91.3
2025-10-10T21:00	10	0	0.1	0	0	347	0.4	347	348	11.0	91.7
2025-10-10T21:01	10	0	0.1	0	0	347	0.3	346	347	11.2	91.5
2025-10-10T21:02	10	0	0.1	0	0	346	0.2	345	346	11.2	91.1
2025-10-10T21:03	10	0	0.1	0	0	347	0.6	346	348	11.4	89.7
2025-10-10T21:04	10	0	0.1	0	0	348	0.5	347	349	11.6	88.7
2025-10-10T21:05	10	0	0.0	0	0	349	0.7	348	350	11.4	88.9
2025-10-10T21:06	10	0	0.1	0	0	350	1.0	348	352	11.5	88.8
2025-10-10T21:07	10	0	0.1	0	0	352	1.1	350	354	11.8	87.8
2025-10-10T21:08	10	0	0.1	0	0	352	0.8	351	354	11.8	87.4
2025-10-10T21:09	10	0	0.1	0	0	351	0.4	350	352	11.4	88.2
2025-10-10T21:10	10	0	0.1	0	0	351	0.4	350	351	11.3	89.2
2025-10-10T21:11	10	0	0.1	0	0	350	0.3	349	351	11.3	89.4
2025-10-10T21:12	10	0	0.1	0	0	350	0.3	350	351	11.4	89.2
2025-10-10T21:13	10	0	0.1	0	0	352	0.7	351	353	11.5	88.8
2025-10-10T21:14	10	0	0.0	0	0	353	0.3	353	354	11.5	88.7
2025-10-10T21:15	10	0	0.1	0	0	354	0.6	353	355	11.5	88.8
2025-10-10T21:16	10	0	0.1	0	0	355	0.3	355	356	11.5	88.7
2025-10-10T21:17	10	0	0.1	0	0	356	0.5	356	357	11.6	88.4
2025-10-10T21:18	10	0	0.1	0	0	357	0.3	357	358	11.6	88.2
2025-10-10T21:19	10	0	0.1	0	0	358	0.3	357	359	11.4	88.7
2025-10-10T21:20	10	0	0.1	0	0	359	0.4	358	360	11.4	89.1
2025-10-10T21:21	10	0	0.1	0	0	360	0.3	359	360	11.4	88.9
2025-10-10T21:22	10	0	0.1	0	0	360	0.4	360	361	11.5	88.7
2025-10-10T21:23	10	0	0.1	0	0	361	0.4	360	362	11.5	88.7
2025-10-10T21:24	10	0	0.1	0	0	362	0.3	361	362	11.5	88.6
2025-10-10T21:25	10	0	0.1	0	0	362	0.2	362	363	11.5	88.7
2025-10-10T21:26	10	0	0.1	0	0	362	0.3	362	363	11.4	89.1
2025-10-10T21:27	10	0	0.1	0	0	363	0.3	362	363	11.5	88.7
2025-10-10T21:28	10	0	0.1	0	0	363	0.2	362	363	11.5	88.6
2025-10-10T21:29	10	0	0.1	0	0	363	0.2	363	364	11.5	88.6
2025-10-10T21:30	10	0	0.1	0	0	363	0.2	363	364	11.6	88.0
2025-10-10T21:31	10	0	0.1	0	0	364	0.3	363	365	11.6	88.2
2025-10-10T21:32	10	0	0.1	0	0	364	0.3	363	364	11.7	87.7
2025-10-10T21:33	10	0	0.1	0	0	364	0.2	363	365	11.6	87.9
2025-10-10T21:34	10	0	0.1	0	0	364	0.2	364	365	11.6	88.1
2025-10-10T21:35	10	0	0.1	0	0	364	0.2	364	364	11.6	88.2
2025-10-10T21:36	10	0	0.1	0	0	364	0.2	364	365	11.6	88.0
2025-10-10T21:37	10	0	0.0	0	0	364	0.2	364	365	11.6	88.0
2025-10-10T21:38	10	0	0.1	0	0	364	0.2	364	365	11.6	87.9
2025-10-10T21:39	10	0	0.1	0	0	365	0.2	364	365	11.6	87.8
2025-10-10T21:40	10	0	0.1	0	0	365	0.2	364	365	11.6	88.2
2025-10-10T21:41	10	0	0.1	0	0	365	0.2	364	365	11.6	88.2
2025-10-10T21:42	10	0	0.1	0	0	365	0.2	364	365	11.6	88.2
2025-10-10T21:43	10	0	0.1	0	0	365	0.2	364	365	11.6	88.3
2025-10-10T21:44	10	0	0.0	0	0	365	0.3	364	366	11.6	88.2
2025-10-10T21:45	10	0	0.1	0	0	365	0.3	364	366	11.6	88.1
2025-10-10T21:46	10	0	0.1	0	0	365	0.2	365	366	11.6	87.9
2025-10-10T21:47	10	0	0.1	0	0	365	0.3	364	365	11.6	87.9
2025-10-10T21:48	10	0	0.1	0	0	365	0.2	365	366	11.7	87.6
2025-10-10T21:49	10	0	0.1	0	0	365	0.2	365	366	11.7	87.0
2025-10-10T21:50	10	0	0.1	0	0	365	0.2	365	366	11.7	87.0
2025-10-10T21:51	10	0	0.1	0	0	365	0.2	365	366	11.7	87.3
2025-10-10T21:52	10	0	0.1	0	0	365	0.3	365	366	11.7	87.2
2025-10-10T21:53	10	0	0.1	0	0	365	0.2	365	366	11.7	87.2
2025-10-10T21:54	10	0	0.0	0	0	365	0.2	364	365	11.6	87.9
2025-10-10T21:55	10	0	0.1	0	0	365	0.3	365	366	11.6	87.7
2025-10-10T21:56	10	0	0.1	0	0	365	0.2	365	366	11.6	87.7
2025-10-10T21:57	10	0	0.1	0	0	365	0.2	365	366	11.6	87.6
2025-10-10T21:58	10	0	0.1	0	0	365	0.2	365	366	11.6	87.8
2025-10-10T21:59	10	0	0.1	0	0	365	0.2	365	366	11.6	87.4
2025-10-10T22:00	10	0	0.1	0	0	365	0.2	365	366	11.6	88.0
2025-10-10T22:01	10	0	0.1	0	0	365	0.2	365	365	11.6	88.0
2025-10-10T22:02	10	0	0.1	0	0	365	0.2	365	366	11.6	87.6
2025-10-10T22:03	10	0	0.1	0	0	365	0.2	365	365	11.6	88.0
2025-10-10T22:04	10	0	0.1	0	0	365	0.2	365	366	11.5	88.2
2025-10-10T22:05	10	0	0.5	0	3	365	0.2	364	365	11.5	88.7
2025-10-10T22:06	10	0	0.1	0	0	365	0.2	364	365	11.5	88.7
2025-10-10T22:07	10	0	0.1	0	0	365	0.2	365	365	11.5	88.5
2025-10-10T22:08	10	0	0.1	0	0	365	0.2	365	366	11.5	88.5
2025-10-10T22:09	10	0	0.1	0	0	365	0.3	365	366	11.4	89.0
2025-10-10T22:10	10	0	0.1	0	0	365	0.3	364	365	11.4	89.0
2025-10-10T22:11	10	0	0.1	0	0	365	0.2	364	365	11.4	89.7
2025-10-10T22:12	10	0	0.1	0	0	365	0.2	364	365	11.3	89.6
2025-10-10T22:13	10	0	0.1	0	0	364	0.2	364	365	11.3	89.8
2025-10-10T22:14	10	0	0.1	0	0	364	0.2	364	365	11.2	89.8
2025-10-10T22:15	10	0	0.1	0	0	364	0.2	364	365	11.2	89.9
2025-10-10T22:16	10	0	0.1	0	0	364	0.2	364	365	11.1	90.1
2025-10-10T22:17	10	0	0.1	0	0	364	0.2	364	365	11.1	90.2
2025-10-10T22:18	10	0	0.1	0	0	364	0.2	363	364	11.1	90.2
2025-10-10T22:19	10	0	0.1	0	0	364	0.2	364	365	11.0	90.2
2025-10-10T22:20	10	0	0.1	0	0	364	0.2	363	364	11.0	90.3
2025-10-10T22:21	10	0	0.1	0	0	364	0.2	363	364	11.0	90.4
2025-10-10T22:22	10	0	0.1	0	0	364	0.2	363	364	11.0	90.3
2025-10-10T22:23	10	0	0.1	0	0	364	0.2	364	365	11.1	90.0
2025-10-10T22:24	10	0	0.1	0	0	364	0.2	363	365	11.1	89.8
2025-10-10T22:25	10	0	0.1	0	0	364	0.2	364	364	11.1	89.7
2025-10-10T22:26	10	0	0.1	0	1	364	0.2	364	365	11.1	89.7
2025-10-10T22:27	10	0	0.0	0	0	364	0.2	364	365	11.1	89.8
2025-10-10T22:28	10	0	0.5	0	3	364	0.2	364	365	11.1	89.8
2025-10-10T22:29	10	0	0.1	0	0	364	0.2	363	365	11.1	89.8
2025-10-10T22:30	10	0	0.1	0	0	364	0.2	364	365	11.1	90.2
2025-10-10T22:31	10	0	0.1	0	0	364	0.2	364	365	11.1	90.0
2025-10-10T22:32	10	0	0.1	0	0	364	0.2	364	365	11.1	89.9
2025-10-10T22:33	10	0	0.1	0	0	364	0.2	364	365	11.2	89.8
2025-10-10T22:34	10	0	0.1	0	1	364	0.2	364	365	11.2	89.8
2025-10-10T22:35	10	0	0.1	0	0	364	0.2	364	365	11.2	89.9
2025-10-10T22:36	10	0	0.1	0	0	364	0.2	364	365	11.2	89.8
2025-10-10T22:37	10	0	0.1	0	0	364	0.2	364	364	11.2	89.8
2025-10-10T22:38	10	0	0.1	0	0	364	0.2	364	364	11.2	89.4
2025-10-10T22:39	10	0	0.1	0	0	364	0.2	364	364	11.2	89.3
2025-10-10T22:40	10	0	0.1	0	0	364	0.2	363	365	11.2	89.5
2025-10-10T22:41	10	0	0.1	0	0	364	0.2	364	365	11.2	89.5
2025-10-10T22:42	10	0	0.1	0	0	364	0.2	364	365	11.2	89.5
2025-10-10T22:43	10	0	0.1	0	0	364	0.2	364	365	11.2	89.4
2025-10-10T22:44	10	0	0.1	0	0	364	0.3	364	364	11.2	89.4
2025-10-10T22:45	10	0	0.1	0	0	364	0.2	363	364	11.2	89.4
2025-10-10T22:46	10	0	0.1	0	0	364	0.2	363	364	11.2	89.4
2025-10-10T22:47	10	0	0.1	0	1	364	0.3	363	364	11.2	89.5
2025-10-10T22:48	10	0	0.1	0	0	364	0.2	363	364	11.2	89.3
2025-10-10T22:49	10	0	0.1	0	0	363	0.2	363	364	11.2	89.4
2025-10-10T22:50	10	0	0.1	0	1	363	0.2	363	364	11.2	89.4
2025-10-10T22:51	10	0	0.1	0	1	363	0.2	363	364	11.2	89.5
2025-10-10T22:52	10	0	0.1	0	0	363	0.2	363	364	11.2	89.5
2025-10-10T22:53	10	0	0.1	0	0	363	0.2	363	364	11.2	89.4
2025-10-10T22:54	10	0	0.1	0	1	363	0.2	363	364	11.2	89.2
2025-10-10T22:55	10	0	0.1	0	0	363	0.2	363	364	11.2	89.4
2025-10-10T22:56	10	0	0.1	0	0	363	0.2	363	363	11.1	89.4
2025-10-10T22:57	10	0	0.1	0	1	363	0.2	363	364	11.2	89.2
2025-10-10T22:58	10	0	0.1	0	0	363	0.2	363	364	11.2	88.8
2025-10-10T22:59	10	0	0.1	0	1	363	0.3	363	364	11.2	88.7
2025-10-10T23:00	10	0	0.1	0	0	363	0.2	363	364	11.2	89.2
2025-10-10T23:01	10	0	0.1	0	1	363	0.3	362	364	11.2	89.0
2025-10-10T23:02	10	0	0.2	0	1	363	0.2	363	363	11.2	89.0
2025-10-10T23:03	10	0	0.1	0	0	363	0.2	363	364	11.2	89.2
2025-10-10T23:04	10	0	0.1	0	1	363	0.2	362	363	11.1	89.3
2025-10-10T23:05	10	0	0.1	0	1	363	0.2	363	363	11.2	89.0
2025-10-10T23:06	10	0	0.1	0	1	363	0.3	363	364	11.2	88.9
2025-10-10T23:07	10	0	0.1	0	0	363	0.2	363	363	11.2	88.9
2025-10-10T23:08	10	0	0.1	0	1	363	0.3	362	364	11.2	88.9
2025-10-10T23:09	10	0	0.2	0	1	363	0.3	362	364	11.2	88.7
2025-10-10T23:10	10	0	0.1	0	0	363	0.2	363	364	11.2	88.8
2025-10-10T23:11	10	0	0.2	0	1	363	0.2	363	364	11.2	88.6
2025-10-10T23:12	10	0	0.1	0	1	363	0.2	362	363	11.2	88.9
2025-10-10T23:13	10	0	0.1	0	1	363	0.2	362	364	11.2	88.8
2025-10-10T23:14	10	0	0.1	0	0	363	0.2	362	363	11.2	89.2
2025-10-10T23:15	10	0	0.1	0	1	363	0.3	362	364	11.1	89.4
2025-10-10T23:16	10	0	0.2	0	1	362	0.3	362	363	11.2	89.0
2025-10-10T23:17	10	0	0.1	0	0	362	0.2	362	363	11.2	89.1
2025-10-10T23:18	10	0	0.1	0	0	363	0.2	362	363	11.1	89.1
2025-10-10T23:19	10	0	0.1	0	0	363	0.2	362	363	11.1	89.1
2025-10-10T23:20	10	0	0.1	0	0	363	0.2	362	363	11.1	89.0
2025-10-10T23:21	10	0	0.1	0	0	363	0.2	362	363	11.2	88.9
2025-10-10T23:22	10	0	0.1	0	0	363	0.2	362	363	11.1	89.1
2025-10-10T23:23	10	0	0.1	0	0	363	0.2	362	363	11.2	89.0
2025-10-10T23:24	10	0	0.1	0	0	363	0.2	362	363	11.1	89.3
2025-10-10T23:25	10	0	0.1	0	0	363	0.2	362	363	11.1	89.1
2025-10-10T23:26	10	0	0.1	0	0	363	0.2	362	363	11.1	89.0
2025-10-10T23:27	10	0	0.1	0	0	363	0.2	362	363	11.2	88.7
2025-10-10T23:28	10	0	0.1	0	0	363	0.3	362	363	11.1	89.1
2025-10-10T23:29	10	0	0.1	0	0	362	0.2	362	363	11.1	89.6
2025-10-10T23:30	10	0	0.1	0	0	362	0.2	362	363	11.1	89.6
2025-10-10T23:31	10	0	0.1	0	0	363	0.2	362	363	11.1	89.8
2025-10-10T23:32	10	0	0.1	0	0	362	0.2	362	363	11.0	90.1
2025-10-10T23:33	10	0	0.1	0	0	363	0.3	362	363	11.0	90.1
2025-10-10T23:34	10	0	0.1	0	0	362	0.2	362	363	11.0	90.1
2025-10-10T23:35	10	0	0.1	0	0	363	0.2	362	363	11.0	89.9
2025-10-10T23:36	10	0	0.1	0	1	363	0.2	362	363	11.0	90.2
2025-10-10T23:37	10	0	0.1	0	0	363	0.2	362	363	11.0	90.4
2025-10-10T23:38	10	0	0.1	0	0	363	0.2	362	363	11.0	90.4
2025-10-10T23:39	10	0	0.1	0	0	363	0.2	363	363	11.0	90.2
2025-10-10T23:40	10	0	0.1	0	0	363	0.2	363	364	11.0	90.3
2025-10-10T23:41	10	0	0.1	0	0	363	0.2	362	363	11.0	90.0
2025-10-10T23:42	10	0	0.1	0	0	363	0.2	363	364	11.0	90.1
2025-10-10T23:43	10	0	0.1	0	0	363	0.2	363	364	11.0	90.1
2025-10-10T23:44	10	0	0.1	0	0	363	0.3	363	364	11.0	90.1
2025-10-10T23:45	10	0	0.1	0	0	363	0.2	362	363	11.0	90.1
2025-10-10T23:46	10	0	0.1	0	0	363	0.2	363	364	11.0	90.1
2025-10-10T23:47	10	0	0.1	0	0	363	0.2	363	364	11.0	90.1
2025-10-10T23:48	10	0	0.1	0	0	363	0.2	363	364	11.0	90.1
2025-10-10T23:49	10	0	0.1	0	0	363	0.3	363	364	11.0	90.2
2025-10-10T23:50	10	0	0.1	0	1	364	0.2	363	364	11.0	90.3
2025-10-10T23:51	10	0	0.1	0	0	364	0.2	363	364	11.1	89.8
2025-10-10T23:52	10	0	0.1	0	0	364	0.2	363	364	11.1	89.7
2025-10-10T23:53	10	0	0.1	0	0	364	0.2	363	364	11.1	89.6
2025-10-10T23:54	10	0	0.1	0	0	364	0.2	363	364	11.1	89.8
2025-10-10T23:55	10	0	0.1	0	0	364	0.2	363	364	11.1	89.7
2025-10-10T23:56	10	0	0.1	0	0	364	0.2	363	364	11.1	89.9
2025-10-10T23:57	10	0	0.1	0	1	364	0.2	363	364	11.1	89.8
2025-10-10T23:58	10	0	0.1	0	0	364	0.2	363	364	11.0	90.3
2025-10-10T23:59	10	0	0.1	0	0	364	0.2	363	364	11.0	90.3
2025-10-11T00:00	10	0	0.1	0	0	364	0.2	363	364	11.0	90.2
2025-10-11T00:01	10	0	0.1	0	0	364	0.2	363	364	11.0	90.2
2025-10-11T00:02	10	0	0.1	0	0	364	0.2	363	364	11.1	90.1
2025-10-11T00:03	10	0	0.1	0	0	364	0.2	363	364	11.1	90.0
2025-10-11T00:04	10	0	0.1	0	0	364	0.2	363	364	11.1	89.9
2025-10-11T00:05	10	0	0.1	0	0	364	0.2	363	364	11.1	89.9
2025-10-11T00:06	10	0	0.1	0	0	364	0.2	363	364	11.1	90.2
2025-10-11T00:07	10	0	0.1	0	0	364	0.2	363	364	11.1	90.3
2025-10-11T00:08	10	0	0.1	0	0	364	0.3	363	364	11.0	90.4
2025-10-11T00:09	10	0	0.1	0	0	364	0.2	363	364	11.0	90.6
2025-10-11T00:10	10	0	0.1	0	0	364	0.2	364	364	11.0	90.3
2025-10-11T00:11	10	0	0.1	0	0	364	0.2	363	364	11.0	90.7
2025-10-11T00:12	10	0	0.1	0	0	363	0.2	363	364	10.9	91.2
2025-10-11T00:13	10	0	0.1	0	0	363	0.2	363	364	10.8	91.6
2025-10-11T00:14	10	0	0.1	0	0	363	0.2	363	364	10.8	91.6
2025-10-11T00:15	10	0	0.1	0	0	363	0.2	363	364	10.8	91.7
2025-10-11T00:16	10	0	0.1	0	0	363	0.2	363	364	10.8	91.8
2025-10-11T00:17	10	0	0.1	0	0	363	0.2	363	364	10.8	92.0
2025-10-11T00:18	10	0	0.1	0	0	363	0.2	363	364	10.8	92.1
2025-10-11T00:19	10	0	0.1	0	0	363	0.2	363	363	10.8	91.8
2025-10-11T00:20	10	0	0.1	0	0	363	0.2	363	364	10.8	92.2
2025-10-11T00:21	10	0	0.1	0	0	363	0.2	363	363	10.8	91.7
2025-10-11T00:22	10	0	0.1	0	0	363	0.2	362	363	10.8	91.6
2025-10-11T00:23	10	0	0.1	0	0	363	0.2	362	363	10.8	91.2
2025-10-11T00:24	10	0	0.1	0	0	362	0.3	362	363	10.9	90.9
2025-10-11T00:25	10	0	0.1	0	0	362	0.2	362	363	10.8	91.2
2025-10-11T00:26	10	0	0.1	0	0	362	0.2	361	362	10.8	91.6
2025-10-11T00:27	10	0	0.1	0	0	362	0.3	361	362	10.8	91.5
2025-10-11T00:28	10	0	0.1	0	0	361	0.2	361	362	10.8	91.1
2025-10-11T00:29	10	0	0.1	0	0	361	0.2	361	362	10.8	90.9
2025-10-11T00:30	10	0	0.1	0	0	361	0.2	361	361	10.8	91.2
2025-10-11T00:31	10	0	0.1	0	0	361	0.2	361	361	10.8	91.2
2025-10-11T00:32	10	0	0.1	0	0	361	0.2	361	361	10.8	91.0
2025-10-11T00:33	10	0	0.1	0	0	361	0.3	360	361	10.8	91.1
2025-10-11T00:34	10	0	0.1	0	0	361	0.3	360	361	10.7	91.3
2025-10-11T00:35	10	0	0.1	0	0	360	0.2	360	361	10.7	91.4
2025-10-11T00:36	10	0	0.1	0	0	361	0.2	360	361	10.7	91.4
2025-10-11T00:37	10	0	0.1	0	0	360	0.2	360	361	10.7	91.3
2025-10-11T00:38	10	0	0.1	0	0	360	0.2	360	360	10.7	91.2
2025-10-11T00:39	10	0	0.1	0	0	360	0.3	359	360	10.6	91.5
2025-10-11T00:40	10	0	0.1	0	0	359	0.3	359	360	10.6	91.7
2025-10-11T00:41	10	0	0.1	0	0	359	0.2	359	359	10.6	91.7
2025-10-11T00:42	10	0	0.1	0	0	359	0.3	358	359	10.5	91.8
2025-10-11T00:43	10	0	0.1	0	0	359	0.2	358	359	10.5	91.7
2025-10-11T00:44	10	0	0.1	0	0	359	0.2	358	359	10.5	91.5
2025-10-11T00:45	10	0	0.1	0	0	359	0.3	358	359	10.5	91.9
2025-10-11T00:46	10	0	0.1	0	0	359	0.3	358	359	10.4	92.0
2025-10-11T00:47	10	0	0.1	0	0	359	0.3	358	359	10.4	92.1
2025-10-11T00:48	10	0	0.1	0	0	359	0.2	358	359	10.4	92.3
2025-10-11T00:49	10	0	0.1	0	0	359	0.2	358	359	10.3	92.8
2025-10-11T00:50	10	0	0.1	0	0	359	0.2	358	359	10.3	92.9
2025-10-11T00:51	10	0	0.1	0	0	358	0.2	358	359	10.2	93.3
2025-10-11T00:52	10	0	0.1	0	0	359	0.3	358	360	10.3	92.9
2025-10-11T00:53	10	0	0.1	0	0	359	0.2	358	359	10.3	92.7
2025-10-11T00:54	10	0	0.1	0	0	359	0.3	358	359	10.3	92.7
2025-10-11T00:55	10	0	0.1	0	0	359	0.2	358	359	10.3	92.6
2025-10-11T00:56	10	0	0.1	0	0	359	0.3	358	359	10.3	92.6
2025-10-11T00:57	10	0	0.1	0	0	359	0.2	359	360	10.3	92.5
2025-10-11T00:58	10	0	0.1	0	0	359	0.2	359	360	10.3	92.4
2025-10-11T00:59	10	0	0.1	0	0	360	0.3	359	360	10.3	92.3
2025-10-11T01:00	10	0	0.1	0	0	360	0.2	359	360	10.3	91.8
2025-10-11T01:01	10	0	0.1	0	0	360	0.3	359	360	10.4	91.4
2025-10-11T01:02	10	0	0.1	0	0	360	0.3	359	360	10.4	91.5
2025-10-11T01:03	10	0	0.1	0	0	360	0.2	359	360	10.4	91.2
2025-10-11T01:04	10	0	0.1	0	0	360	0.2	360	361	10.4	91.2
2025-10-11T01:05	10	0	0.1	0	0	360	0.3	360	361	10.4	91.3
2025-10-11T01:06	10	0	0.1	0	0	360	0.3	360	361	10.4	91.1
2025-10-11T01:07	10	0	0.1	0	0	360	0.2	360	361	10.3	91.4
2025-10-11T01:08	10	0	0.1	0	0	361	0.4	360	361	10.3	91.3
2025-10-11T01:09	10	0	0.1	0	0	360	0.3	360	361	10.4	90.9
2025-10-11T01:10	10	0	0.1	0	0	360	0.3	360	361	10.4	90.6
2025-10-11T01:11	10	0	0.1	0	0	360	0.3	360	361	10.4	90.9
2025-10-11T01:12	10	0	0.1	0	0	361	0.2	360	361	10.4	90.8
2025-10-11T01:13	10	0	0.1	0	0	361	0.2	360	361	10.4	90.7
2025-10-11T01:14	10	0	0.1	0	0	361	0.2	360	361	10.4	90.7
2025-10-11T01:15	10	0	0.1	0	0	361	0.2	360	361	10.4	90.4
2025-10-11T01:16	10	0	0.1	0	0	361	0.2	360	361	10.3	90.7
2025-10-11T01:17	10	0	0.1	0	0	361	0.2	360	361	10.3	90.8
2025-10-11T01:18	10	0	0.1	0	0	361	0.2	360	361	10.3	90.7
2025-10-11T01:19	10	0	0.1	0	0	360	0.2	360	361	10.3	90.6
2025-10-11T01:20	10	0	0.0	0	0	360	0.2	360	361	10.3	90.7
2025-10-11T01:21	10	0	0.1	0	0	360	0.2	360	361	10.3	90.8
2025-10-11T01:22	10	0	0.0	0	0	361	0.2	360	361	10.3	90.7
2025-10-11T01:23	10	0	0.1	0	0	361	0.2	360	361	10.3	90.7
2025-10-11T01:24	10	0	0.1	0	0	360	0.2	360	361	10.3	90.4
2025-10-11T01:25	10	0	0.1	0	0	360	0.2	360	361	10.3	90.9
2025-10-11T01:26	10	0	0.1	0	0	360	0.2	360	361	10.3	90.5
2025-10-11T01:27	10	0	0.1	0	0	360	0.2	360	361	10.3	90.7
2025-10-11T01:28	10	0	0.1	0	0	360	0.3	360	361	10.3	90.8
2025-10-11T01:29	10	0	0.1	0	0	361	0.3	360	361	10.3	90.8
2025-10-11T01:30	10	0	0.1	0	0	360	0.2	360	361	10.3	90.7
2025-10-11T01:31	10	0	0.1	0	0	361	0.3	360	361	10.3	90.8
2025-10-11T01:32	10	0	0.1	0	0	361	0.2	360	361	10.3	90.7
2025-10-11T01:33	10	0	0.1	0	0	360	0.2	360	361	10.3	90.8
2025-10-11T01:34	10	0	0.1	0	0	360	0.3	360	361	10.3	90.5
2025-10-11T01:35	10	0	0.1	0	0	361	0.2	360	361	10.3	90.4
2025-10-11T01:36	10	0	0.1	0	0	360	0.2	360	361	10.3	90.4
2025-10-11T01:37	10	0	0.1	0	0	360	0.2	360	361	10.3	90.2
2025-10-11T01:38	10	0	0.1	0	0	360	0.2	360	361	10.3	90.5
2025-10-11T01:39	10	0	0.1	0	0	360	0.2	360	361	10.3	90.4
2025-10-11T01:40	10	0	0.1	0	0	360	0.3	360	361	10.3	90.3
2025-10-11T01:41	10	0	0.1	0	0	360	0.2	360	361	10.2	90.6
2025-10-11T01:42	10	0	0.1	0	0	360	0.2	360	361	10.2	90.5
2025-10-11T01:43	10	0	0.1	0	0	360	0.2	360	361	10.2	90.5
2025-10-11T01:44	10	0	0.1	0	0	360	0.2	360	361	10.2	90.5
2025-10-11T01:45	10	0	0.1	0	0	360	0.3	360	361	10.2	90.8
2025-10-11T01:46	10	0	0.1	0	0	360	0.2	360	361	10.2	90.8
2025-10-11T01:47	10	0	0.1	0	0	360	0.2	360	361	10.2	90.8
2025-10-11T01:48	10	0	0.1	0	0	360	0.2	360	361	10.2	90.6
2025-10-11T01:49	10	0	0.1	0	0	360	0.2	360	361	10.2	90.5
2025-10-11T01:50	10	0	0.1	0	0	360	0.2	360	361	10.2	90.7
2025-10-11T01:51	10	0	0.1	0	0	360	0.3	360	361	10.2	90.6
2025-10-11T01:52	10	0	0.1	0	0	360	0.2	360	361	10.2	90.6
2025-10-11T01:53	10	0	0.1	0	0	360	0.2	360	361	10.2	90.7
2025-10-11T01:54	10	0	0.1	0	0	360	0.2	360	361	10.2	90.5
2025-10-11T01:55	10	0	0.1	0	0	360	0.3	359	361	10.2	90.6
2025-10-11T01:56	10	0	0.1	0	0	360	0.2	360	361	10.2	90.6
2025-10-11T01:57	10	0	0.1	0	0	360	0.2	360	360	10.2	90.4
2025-10-11T01:58	10	0	0.1	0	0	360	0.3	359	361	10.2	90.6
2025-10-11T01:59	10	0	0.1	0	0	360	0.2	360	361	10.2	90.6
2025-10-11T02:00	10	0	0.1	0	0	360	0.2	359	361	10.1	90.9
2025-10-11T02:01	10	0	0.1	0	0	360	0.3	360	361	10.1	90.9
2025-10-11T02:02	10	0	0.1	0	0	360	0.2	360	360	10.1	91.0
2025-10-11T02:03	10	0	0.1	0	0	360	0.3	359	361	10.2	90.7
2025-10-11T02:04	10	0	0.1	0	0	360	0.2	359	360	10.2	90.6
2025-10-11T02:05	10	0	0.1	0	0	360	0.2	359	360	10.1	90.7
2025-10-11T02:06	10	0	0.1	0	0	360	0.2	359	360	10.1	90.6
2025-10-11T02:07	10	0	0.1	0	0	360	0.2	359	360	10.1	90.9
2025-10-11T02:08	10	0	0.1	0	0	360	0.3	359	360	10.1	90.8
2025-10-11T02:09	10	0	0.1	0	0	360	0.3	359	360	10.1	90.8
2025-10-11T02:10	10	0	0.1	0	0	360	0.3	359	360	10.1	90.7
2025-10-11T02:11	10	0	0.1	0	0	360	0.2	359	360	10.1	91.1
2025-10-11T02:12	10	0	0.1	0	0	360	0.2	359	360	10.1	91.3
2025-10-11T02:13	10	0	0.1	0	0	360	0.3	359	360	10.1	91.2
2025-10-11T02:14	10	0	0.1	0	0	360	0.3	359	360	10.1	91.0
2025-10-11T02:15	10	0	0.1	0	0	360	0.2	359	360	10.1	90.9
2025-10-11T02:16	10	0	0.1	0	0	360	0.2	359	360	10.1	90.9
2025-10-11T02:17	10	0	0.1	0	0	360	0.3	359	360	10.1	91.1
2025-10-11T02:18	10	0	0.1	0	0	359	0.3	359	360	10.1	91.2
2025-10-11T02:19	10	0	0.1	0	0	360	0.2	359	360	10.1	91.5
2025-10-11T02:20	10	0	0.1	0	0	359	0.2	359	360	10.0	91.4
2025-10-11T02:21	10	0	0.1	0	0	359	0.2	359	360	10.0	91.3
2025-10-11T02:22	10	0	0.1	0	0	359	0.2	359	360	10.0	91.4
2025-10-11T02:23	10	0	0.1	0	0	359	0.2	359	360	10.0	91.6
2025-10-11T02:24	10	0	0.1	0	0	359	0.3	358	359	10.0	91.4
2025-10-11T02:25	10	0	0.1	0	0	359	0.2	359	360	10.0	91.4
2025-10-11T02:26	10	0	0.1	0	0	359	0.3	358	359	10.0	91.3
2025-10-11T02:27	10	0	0.1	0	0	359	0.2	358	359	10.0	91.3
2025-10-11T02:28	10	0	0.1	0	0	359	0.3	358	359	10.0	91.4
2025-10-11T02:29	10	0	0.1	0	0	359	0.2	358	359	10.0	91.6
2025-10-11T02:30	10	0	0.1	0	0	359	0.3	358	359	10.0	91.4
2025-10-11T02:31	10	0	0.1	0	0	358	0.3	358	359	10.0	91.5
2025-10-11T02:32	10	0	0.1	0	0	359	0.3	358	359	10.0	91.5
2025-10-11T02:33	10	0	0.1	0	0	358	0.3	358	359	9.9	91.4
2025-10-11T02:34	10	0	0.1	0	0	358	0.3	358	359	9.9	91.4
2025-10-11T02:35	10	0	0.1	0	0	358	0.2	358	359	9.9	91.5
2025-10-11T02:36	10	0	0.1	0	0	358	0.2	358	359	9.9	91.6
2025-10-11T02:37	10	0	0.1	0	0	358	0.2	357	358	9.9	91.7
2025-10-11T02:38	10	0	0.1	-1	0	358	0.3	358	359	9.9	91.7
2025-10-11T02:39	10	0	0.1	0	0	358	0.4	358	359	9.9	91.8
2025-10-11T02:40	10	0	0.1	-1	0	358	0.2	358	359	9.9	91.6
2025-10-11T02:41	10	0	0.1	0	0	358	0.2	358	359	9.9	91.9
2025-10-11T02:42	10	0	0.1	-1	0	359	0.3	358	359	9.9	91.8
2025-10-11T02:43	10	0	0.1	0	0	359	0.2	358	359	9.9	91.8
2025-10-11T02:44	10	0	0.1	0	0	359	0.2	358	359	9.9	92.0
2025-10-11T02:45	10	0	0.1	0	0	359	0.2	358	359	9.9	92.1
2025-10-11T02:46	10	0	0.1	0	0	359	0.2	358	359	9.8	92.3
2025-10-11T02:47	10	0	0.1	0	0	359	0.2	358	359	9.9	92.2
2025-10-11T02:48	10	0	0.1	0	0	358	0.2	358	359	9.8	92.3
2025-10-11T02:49	10	0	0.1	0	0	359	0.2	358	359	9.8	92.5
2025-10-11T02:50	10	0	0.1	0	0	359	0.2	358	359	9.8	92.5
2025-10-11T02:51	10	0	0.1	0	0	359	0.2	358	359	9.8	92.4
2025-10-11T02:52	10	0	0.1	0	0	358	0.2	358	359	9.8	92.2
2025-10-11T02:53	10	0	0.1	0	0	358	0.3	358	359	9.8	92.4
2025-10-11T02:54	10	0	0.1	0	0	359	0.2	358	359	9.8	92.4
2025-10-11T02:55	10	0	0.1	0	0	359	0.2	358	359	9.9	92.1
2025-10-11T02:56	10	0	0.1	0	0	359	0.2	358	359	9.9	92.3
2025-10-11T02:57	10	0	0.1	0	0	359	0.3	358	359	9.8	92.4
2025-10-11T02:58	10	0	0.1	0	0	359	0.2	358	359	9.9	92.2
2025-10-11T02:59	10	0	0.1	0	0	359	0.2	358	359	9.8	92.4
2025-10-11T03:00	10	0	0.1	0	0	359	0.2	358	359	9.8	92.6
2025-10-11T03:01	10	0	0.1	0	0	359	0.2	358	359	9.9	92.3
2025-10-11T03:02	10	0	0.1	0	0	359	0.2	358	359	9.9	92.3
2025-10-11T03:03	10	0	0.1	0	0	359	0.2	358	359	9.9	92.2
2025-10-11T03:04	10	0	0.1	0	0	359	0.2	358	359	9.9	91.9
2025-10-11T03:05	10	0	0.1	0	0	359	0.2	358	359	9.9	92.4
2025-10-11T03:06	10	0	0.1	0	0	359	0.2	358	360	9.9	92.3
2025-10-11T03:07	10	0	0.1	0	0	359	0.2	358	359	9.9	92.2
2025-10-11T03:08	10	0	0.1	0	0	359	0.2	358	359	9.9	92.5
2025-10-11T03:09	10	0	0.1	0	0	359	0.3	358	359	9.9	92.3
2025-10-11T03:10	10	0	0.1	0	0	359	0.2	358	359	9.9	92.2
2025-10-11T03:11	10	0	0.1	0	0	359	0.2	358	359	9.9	92.1
2025-10-11T03:12	10	0	0.1	0	0	359	0.2	358	359	9.9	92.3
2025-10-11T03:13	10	0	0.1	0	0	359	0.3	358	359	9.9	92.1
2025-10-11T03:14	10	0	0.1	0	0	359	0.2	358	359	9.9	92.2
2025-10-11T03:15	10	0	0.1	0	0	359	0.2	358	359	9.9	92.1
2025-10-11T03:16	10	0	0.1	0	0	359	0.2	359	359	9.9	92.0
2025-10-11T03:17	10	0	0.1	0	0	359	0.2	358	359	9.9	92.3
2025-10-11T03:18	10	0	0.1	0	0	359	0.2	358	359	9.9	92.4
2025-10-11T03:19	10	0	0.1	0	0	359	0.2	358	359	9.9	92.3
2025-10-11T03:20	10	0	0.1	0	0	359	0.2	358	359	9.9	92.5
2025-10-11T03:21	10	0	0.1	0	0	359	0.2	359	360	9.9	92.2
2025-10-11T03:22	10	0	0.1	0	0	359	0.2	359	360	9.9	92.0
2025-10-11T03:23	10	0	0.1	0	0	359	0.2	359	360	9.9	92.0
2025-10-11T03:24	10	0	0.1	0	0	359	0.2	359	359	9.9	92.0
2025-10-11T03:25	10	0	0.1	0	0	359	0.2	359	359	9.9	92.3
2025-10-11T03:26	10	0	0.1	0	0	359	0.2	359	360	9.9	92.0
2025-10-11T03:27	10	0	0.1	0	0	359	0.3	359	360	9.9	91.9
2025-10-11T03:28	10	0	0.1	0	0	359	0.2	359	360	9.9	92.0
2025-10-11T03:29	10	0	0.1	0	0	359	0.2	359	360	9.9	92.0
2025-10-11T03:30	10	0	0.1	0	0	359	0.3	359	360	9.9	91.9
2025-10-11T03:31	10	0	0.1	0	0	359	0.2	359	360	9.9	92.1
2025-10-11T03:32	10	0	0.1	0	0	360	0.2	359	360	9.9	92.2
2025-10-11T03:33	10	0	0.1	0	0	359	0.2	359	360	9.9	92.3
2025-10-11T03:34	10	0	0.1	0	0	360	0.3	359	360	9.9	92.3
2025-10-11T03:35	10	0	0.1	0	0	360	0.2	359	360	9.9	92.6
2025-10-11T03:36	10	0	0.1	0	0	360	0.2	359	360	9.9	92.6
2025-10-11T03:37	10	0	0.1	0	0	360	0.2	359	360	9.9	92.3
2025-10-11T03:38	10	0	0.1	0	0	360	0.2	359	360	9.9	92.3
2025-10-11T03:39	10	0	0.1	0	0	360	0.2	359	360	9.9	92.1
2025-10-11T03:40	10	0	0.1	0	0	360	0.2	359	360	9.9	92.3
2025-10-11T03:41	10	0	0.1	0	0	360	0.2	359	360	9.9	92.0
2025-10-11T03:42	10	0	0.1	0	0	360	0.2	359	360	9.9	92.1
2025-10-11T03:43	10	0	0.1	0	0	360	0.2	359	360	9.9	92.1
2025-10-11T03:44	10	0	0.1	0	0	359	0.3	359	360	9.9	92.3
2025-10-11T03:45	10	0	0.1	0	0	359	0.3	359	360	9.9	92.1
2025-10-11T03:46	10	0	0.1	0	0	359	0.2	359	360	9.9	92.1
2025-10-11T03:47	10	0	0.1	0	0	360	0.2	359	360	9.9	92.0
2025-10-11T03:48	10	0	0.1	0	0	360	0.2	359	360	9.9	91.9
2025-10-11T03:49	10	0	0.1	0	0	359	0.2	359	360	9.9	92.0
2025-10-11T03:50	10	0	0.1	0	0	359	0.2	359	360	9.9	92.1
2025-10-11T03:51	10	0	0.1	0	0	359	0.2	359	360	9.9	91.9
2025-10-11T03:52	10	0	0.1	0	0	359	0.3	359	360	9.9	92.1
2025-10-11T03:53	10	0	0.1	0	0	360	0.2	359	360	9.9	91.9
2025-10-11T03:54	10	0	0.1	0	0	359	0.3	359	360	9.9	91.7
2025-10-11T03:55	10	0	0.1	0	0	359	0.3	359	360	9.9	91.6
2025-10-11T03:56	10	0	0.1	0	0	360	0.2	359	360	9.9	91.9
2025-10-11T03:57	10	0	0.1	0	0	359	0.2	359	360	9.9	92.1
2025-10-11T03:58	10	0	0.1	0	0	359	0.2	359	360	10.0	91.6
2025-10-11T03:59	10	0	0.1	0	0	359	0.2	359	360	10.0	91.4
2025-10-11T04:00	10	0	0.1	0	0	360	0.3	359	360	10.0	91.4
2025-10-11T04:01	10	0	0.1	0	0	360	0.2	359	360	10.0	91.5
2025-10-11T04:02	10	0	0.1	0	0	360	0.2	359	360	10.0	91.7
2025-10-11T04:03	10	0	0.1	0	0	360	0.2	359	360	10.0	91.3
2025-10-11T04:04	10	0	0.1	0	0	360	0.2	359	360	10.0	91.6
2025-10-11T04:05	10	0	0.1	0	0	360	0.3	359	360	10.0	91.7
2025-10-11T04:06	10	0	0.1	0	0	359	0.2	359	360	10.0	91.6
2025-10-11T04:07	10	0	0.1	0	0	360	0.2	359	360	10.0	91.7
2025-10-11T04:08	10	0	0.1	0	0	360	0.2	359	360	10.0	91.9
2025-10-11T04:09	10	0	0.1	0	0	360	0.2	359	360	10.0	91.8
2025-10-11T04:10	10	0	0.1	0	0	360	0.2	359	360	9.9	92.3
2025-10-11T04:11	10	0	0.1	0	0	360	0.2	359	360	10.0	92.2
2025-10-11T04:12	10	0	0.1	0	0	360	0.2	359	360	10.0	92.2
2025-10-11T04:13	10	0	0.1	0	0	360	0.2	359	360	9.9	92.3
2025-10-11T04:14	10	0	0.1	0	0	360	0.2	359	360	9.9	92.3
2025-10-11T04:15	10	0	0.1	0	0	360	0.3	359	360	9.9	92.4
2025-10-11T04:16	10	0	0.1	0	0	360	0.1	359	360	9.9	92.4
2025-10-11T04:17	10	0	0.1	0	0	360	0.2	359	360	9.9	92.6
2025-10-11T04:18	10	0	0.1	0	0	360	0.2	359	360	9.9	92.4
2025-10-11T04:19	10	0	0.1	0	0	360	0.3	359	360	9.9	92.4
2025-10-11T04:20	10	0	0.1	0	0	360	0.2	359	360	9.9	92.5
2025-10-11T04:21	10	0	0.1	0	0	360	0.3	359	360	9.9	92.4
2025-10-11T04:22	10	0	0.1	0	0	360	0.2	359	360	10.0	92.2
2025-10-11T04:23	10	0	0.1	0	0	359	0.2	359	360	10.0	92.2
2025-10-11T04:24	10	0	0.1	0	0	360	0.2	359	360	10.0	92.3
2025-10-11T04:25	10	0	0.1	0	0	360	0.2	359	360	9.9	92.6
2025-10-11T04:26	10	0	0.1	0	0	360	0.2	359	360	9.9	92.5
2025-10-11T04:27	10	0	0.1	0	0	360	0.2	359	360	9.9	92.4
2025-10-11T04:28	10	0	0.1	0	0	360	0.2	359	360	9.9	92.6
2025-10-11T04:29	10	0	0.1	0	0	360	0.2	359	360	9.9	92.8
2025-10-11T04:30	10	0	0.1	0	0	360	0.2	359	360	9.9	93.0
2025-10-11T04:31	10	0	0.1	0	0	360	0.2	359	360	9.9	92.7
2025-10-11T04:32	10	0	0.1	0	0	360	0.2	359	360	9.9	93.1
2025-10-11T04:33	10	0	0.1	0	0	360	0.2	359	360	9.9	92.4
2025-10-11T04:34	10	0	0.1	0	0	360	0.3	359	360	9.9	92.5
2025-10-11T04:35	10	0	0.1	0	0	360	0.2	359	360	9.9	92.3
2025-10-11T04:36	10	0	0.1	0	0	360	0.2	359	360	10.0	92.2
2025-10-11T04:37	10	0	0.1	0	0	360	0.2	359	360	10.0	92.3
2025-10-11T04:38	10	0	0.1	0	0	360	0.2	359	360	10.0	92.3
2025-10-11T04:39	10	0	0.1	0	0	360	0.3	359	360	10.0	92.2
2025-10-11T04:40	10	0	0.1	0	0	360	0.2	359	360	9.9	92.7
2025-10-11T04:41	10	0	0.1	0	0	360	0.2	359	360	9.9	92.6
2025-10-11T04:42	10	0	0.1	0	0	360	0.2	359	360	9.9	92.4
2025-10-11T04:43	10	0	0.1	0	0	360	0.2	359	360	9.9	92.4
2025-10-11T04:44	10	0	0.1	0	0	360	0.2	359	360	9.9	92.7
2025-10-11T04:45	10	0	0.1	0	0	360	0.2	359	360	9.9	92.7
2025-10-11T04:46	10	0	0.1	0	0	360	0.2	359	360	9.9	93.1
2025-10-11T04:47	10	0	0.1	0	0	360	0.3	359	360	9.9	92.8
2025-10-11T04:48	10	0	0.1	0	0	360	0.2	359	360	9.9	92.8
2025-10-11T04:49	10	0	0.1	0	0	360	0.2	360	361	9.9	92.9
2025-10-11T04:50	10	0	0.1	0	0	360	0.2	360	361	9.9	93.1
2025-10-11T04:51	10	0	0.1	0	0	360	0.2	359	360	9.9	92.8
2025-10-11T04:52	10	0	0.1	0	0	360	0.2	359	360	9.9	92.5
2025-10-11T04:53	10	0	0.1	0	0	360	0.2	359	360	9.9	92.6
2025-10-11T04:54	10	0	0.1	0	0	360	0.2	359	360	9.9	92.9
2025-10-11T04:55	10	0	0.1	0	0	360	0.3	359	360	9.9	92.8
2025-10-11T04:56	10	0	0.1	0	0	360	0.2	359	360	9.9	92.5
2025-10-11T04:57	10	0	0.1	0	0	360	0.2	360	360	9.9	92.7
2025-10-11T04:58	10	0	0.1	0	0	360	0.2	360	360	9.9	92.8
2025-10-11T04:59	10	0	0.1	0	0	360	0.2	359	360	9.9	92.7
2025-10-11T05:00	10	0	0.1	0	0	360	0.3	360	361	10.0	92.9
2025-10-11T05:01	10	0	0.1	0	0	360	0.2	359	360	10.0	92.6
2025-10-11T05:02	10	0	0.1	0	0	360	0.2	359	360	10.0	92.7
2025-10-11T05:03	10	0	0.1	0	0	360	0.3	359	361	9.9	92.9
2025-10-11T05:04	10	0	0.1	0	0	360	0.2	359	360	9.9	92.8
2025-10-11T05:05	10	0	0.1	0	0	360	0.2	360	361	9.9	92.7
2025-10-11T05:06	10	0	0.1	0	0	360	0.2	360	361	9.9	93.0
2025-10-11T05:07	10	0	0.1	0	0	360	0.3	359	361	9.9	93.2
2025-10-11T05:08	10	0	0.1	0	0	360	0.2	360	360	9.9	93.1
2025-10-11T05:09	10	0	0.1	0	0	360	0.2	360	361	9.9	92.9
2025-10-11T05:10	10	0	0.1	0	0	360	0.2	359	360	9.9	92.7
2025-10-11T05:11	10	0	0.1	0	0	360	0.2	359	360	9.9	92.9
2025-10-11T05:12	10	0	0.1	0	0	360	0.2	359	360	9.9	93.0
2025-10-11T05:13	10	0	0.1	0	0	360	0.2	359	360	9.9	92.8
2025-10-11T05:14	10	0	0.1	0	0	360	0.2	359	360	9.9	93.0
2025-10-11T05:15	10	0	0.1	0	0	360	0.2	360	360	9.9	93.1
2025-10-11T05:16	10	0	0.1	0	0	360	0.2	360	361	9.9	93.0
2025-10-11T05:17	10	0	0.1	0	0	360	0.2	359	360	9.9	93.0
2025-10-11T05:18	10	0	0.1	0	0	360	0.2	360	360	9.9	93.0
2025-10-11T05:19	10	0	0.1	0	0	360	0.2	360	361	9.9	93.0
2025-10-11T05:20	10	0	0.1	0	0	360	0.2	360	360	9.9	92.9
2025-10-11T05:21	10	0	0.1	0	0	360	0.2	359	361	10.0	92.6
2025-10-11T05:22	10	0	0.1	0	0	360	0.2	359	361	9.9	93.1
2025-10-11T05:23	10	0	0.1	0	0	360	0.2	359	361	9.9	93.1
2025-10-11T05:24	10	0	0.1	0	0	360	0.3	360	361	9.9	93.0
2025-10-11T05:25	10	0	0.1	0	0	360	0.2	359	361	9.9	92.9
2025-10-11T05:26	10	0	0.1	0	0	360	0.2	360	361	9.9	93.3
2025-10-11T05:27	10	0	0.1	0	0	360	0.2	360	360	9.9	93.3
2025-10-11T05:28	10	0	0.1	0	0	360	0.3	360	361	9.9	93.1
2025-10-11T05:29	10	0	0.1	0	0	360	0.2	360	361	9.9	93.3
2025-10-11T05:30	10	0	0.1	0	0	360	0.2	360	361	9.9	93.4
2025-10-11T05:31	10	0	0.1	0	0	360	0.2	360	361	9.9	93.0
2025-10-11T05:32	10	0	0.1	0	0	360	0.2	360	361	9.9	93.2
2025-10-11T05:33	10	0	0.1	0	0	360	0.3	359	361	9.9	92.9
2025-10-11T05:34	10	0	0.1	0	0	360	0.3	360	361	10.0	92.9
2025-10-11T05:35	10	0	0.1	0	0	360	0.2	360	361	10.0	92.9
2025-10-11T05:36	10	0	0.1	0	0	360	0.2	359	360	10.0	93.0
2025-10-11T05:37	10	0	0.1	0	0	360	0.2	359	360	10.0	92.6
2025-10-11T05:38	10	0	0.1	0	0	360	0.3	359	361	10.0	92.8
2025-10-11T05:39	10	0	0.1	0	0	360	0.2	359	360	10.0	92.7
2025-10-11T05:40	10	0	0.1	0	0	360	0.2	359	360	10.0	92.7
2025-10-11T05:41	10	0	0.1	0	0	360	0.3	359	361	10.0	92.8
2025-10-11T05:42	10	0	0.1	0	0	360	0.2	360	360	10.0	92.9
2025-10-11T05:43	10	0	0.1	0	0	360	0.2	359	361	10.0	92.6
2025-10-11T05:44	10	0	0.1	0	0	360	0.3	359	361	10.0	92.7
2025-10-11T05:45	10	0	0.1	0	0	360	0.2	360	361	10.0	92.8
2025-10-11T05:46	10	0	0.1	0	0	360	0.2	360	361	10.0	92.7
2025-10-11T05:47	10	0	0.1	0	0	360	0.2	360	360	10.0	92.8
2025-10-11T05:48	10	0	0.1	0	0	360	0.2	360	360	10.0	92.8
2025-10-11T05:49	10	0	0.1	0	0	360	0.3	359	360	10.0	92.7
2025-10-11T05:50	10	0	0.1	0	0	360	0.2	360	360	10.0	92.5
2025-10-11T05:51	10	0	0.1	0	0	360	0.2	359	360	10.0	92.7
2025-10-11T05:52	10	0	0.1	0	0	360	0.2	360	361	10.0	92.7
2025-10-11T05:53	10	0	0.1	0	0	360	0.2	360	360	10.0	92.8
2025-10-11T05:54	10	0	0.1	0	0	360	0.2	360	361	10.0	92.7
2025-10-11T05:55	10	0	0.1	0	0	360	0.2	360	361	10.0	93.0
2025-10-11T05:56	10	0	0.1	0	0	360	0.2	360	361	10.0	93.2
2025-10-11T05:57	10	0	0.1	0	1	360	0.2	360	361	10.0	92.8
2025-10-11T05:58	10	0	0.1	0	1	360	0.3	360	361	10.0	92.9
2025-10-11T05:59	10	0	0.1	0	1	360	0.2	360	361	10.0	92.7
2025-10-11T06:00	10	0	0.1	0	1	360	0.2	360	361	10.0	92.9
2025-10-11T06:01	10	1	0.1	0	1	360	0.2	360	361	10.0	92.5
2025-10-11T06:02	10	1	0.1	0	1	360	0.3	360	361	10.0	92.5
2025-10-11T06:03	10	1	0.1	0	1	360	0.3	360	361	10.0	92.9
2025-10-11T06:04	10	1	0.1	1	1	360	0.3	360	361	10.0	92.7
2025-10-11T06:05	10	1	0.1	0	1	360	0.2	360	361	10.0	92.6
2025-10-11T06:06	10	1	0.1	0	1	360	0.3	360	361	10.0	92.9
2025-10-11T06:07	10	1	0.1	1	1	360	0.2	360	361	10.0	93.0
2025-10-11T06:08	10	1	0.1	1	1	360	0.3	360	361	10.0	92.5
2025-10-11T06:09	10	1	0.1	1	1	360	0.2	360	361	10.0	92.5
2025-10-11T06:10	10	1	0.1	1	1	360	0.3	360	361	10.0	92.4
2025-10-11T06:11	10	1	0.1	1	1	360	0.3	359	361	10.0	92.6
2025-10-11T06:12	10	1	0.1	1	1	360	0.2	360	361	10.0	92.8
2025-10-11T06:13	10	1	0.1	1	1	360	0.3	360	361	10.0	93.0
2025-10-11T06:14	10	1	0.1	1	1	360	0.3	359	361	10.0	92.8
2025-10-11T06:15	10	1	0.1	1	1	360	0.2	360	361	10.0	92.7
2025-10-11T06:16	10	1	0.1	1	1	360	0.3	360	361	10.0	92.7
2025-10-11T06:17	10	1	0.1	1	1	360	0.2	360	361	10.0	93.0
2025-10-11T06:18	10	1	0.1	1	1	360	0.2	360	361	10.0	93.0
2025-10-11T06:19	10	1	0.1	1	1	360	0.2	360	361	10.0	92.9
2025-10-11T06:20	10	1	0.1	1	2	361	0.2	360	361	10.0	93.1
2025-10-11T06:21	10	1	0.1	1	2	361	0.2	360	361	10.0	93.3
2025-10-11T06:22	10	1	0.1	1	2	361	0.2	360	361	10.0	93.1
2025-10-11T06:23	10	2	0.1	1	2	360	0.2	360	361	10.0	92.8
2025-10-11T06:24	10	2	0.1	1	2	361	0.2	360	361	10.0	93.1
2025-10-11T06:25	10	2	0.1	2	2	360	0.2	360	361	10.0	93.2
2025-10-11T06:26	10	2	0.1	2	2	361	0.2	360	361	10.0	93.2
2025-10-11T06:27	10	2	0.1	2	2	361	0.2	360	361	10.0	93.2
2025-10-11T06:28	10	2	0.1	2	2	361	0.2	360	361	10.0	93.3
2025-10-11T06:29	10	2	0.1	2	2	361	0.3	360	361	10.0	92.8
2025-10-11T06:30	10	2	0.1	2	2	361	0.2	360	361	10.0	93.1
2025-10-11T06:31	10	2	0.1	2	2	360	0.3	360	361	10.0	92.5
2025-10-11T06:32	10	2	0.1	2	2	361	0.2	360	361	10.0	92.6
2025-10-11T06:33	10	2	0.1	2	2	361	0.2	360	361	10.0	92.6
2025-10-11T06:34	10	2	0.1	2	2	361	0.2	360	361	10.0	92.5
2025-10-11T06:35	10	2	0.1	2	2	360	0.3	360	361	10.0	92.5
2025-10-11T06:36	10	2	0.1	2	2	361	0.3	360	361	10.0	92.5
2025-10-11T06:37	10	2	0.1	2	2	361	0.3	360	362	10.0	92.8
2025-10-11T06:38	10	2	0.1	2	3	361	0.2	360	361	10.0	92.8
2025-10-11T06:39	10	2	0.1	2	3	361	0.2	360	361	10.0	92.6
2025-10-11T06:40	10	2	0.1	2	3	361	0.3	360	361	10.0	92.6
2025-10-11T06:41	10	2	0.1	2	3	361	0.2	360	361	10.0	92.6
2025-10-11T06:42	10	3	0.1	3	3	361	0.3	360	361	10.0	92.8
2025-10-11T06:43	10	3	0.1	3	3	361	0.2	360	361	10.0	92.7
2025-10-11T06:44	10	3	0.1	3	3	361	0.2	360	361	10.0	92.8
2025-10-11T06:45	10	3	0.1	3	3	361	0.2	361	361	10.0	92.9
2025-10-11T06:46	10	3	0.1	3	3	361	0.2	360	361	10.0	92.8
2025-10-11T06:47	10	3	0.1	3	3	361	0.2	361	361	10.0	92.9
2025-10-11T06:48	10	3	0.1	3	3	361	0.2	361	362	10.0	92.9
2025-10-11T06:49	10	3	0.1	3	3	361	0.2	361	362	10.0	92.8
2025-10-11T06:50	10	3	0.1	3	4	361	0.2	361	361	10.0	92.7
2025-10-11T06:51	10	3	0.1	3	4	361	0.2	360	361	10.0	92.8
2025-10-11T06:52	10	4	0.1	3	4	361	0.3	360	361	10.0	92.9
2025-10-11T06:53	10	4	0.1	3	4	361	0.2	361	362	10.0	93.2
2025-10-11T06:54	10	4	0.1	3	4	361	0.2	361	362	10.0	93.1
2025-10-11T06:55	10	4	0.1	3	4	361	0.3	360	362	10.0	93.0
2025-10-11T06:56	10	4	0.1	3	4	361	0.2	360	361	10.0	92.8
2025-10-11T06:57	10	4	0.1	3	4	361	0.3	360	362	10.0	92.7
2025-10-11T06:58	10	4	0.1	4	4	361	0.3	360	362	10.0	92.9
2025-10-11T06:59	10	4	0.1	4	4	361	0.3	360	361	10.0	92.7
2025-10-11T07:00	10	4	0.2	4	5	361	0.2	360	362	10.0	92.8
2025-10-11T07:01	10	5	0.1	5	5	361	0.2	361	362	10.0	93.1
2025-10-11T07:02	10	5	0.1	5	5	361	0.3	361	362	10.0	93.1
2025-10-11T07:03	10	5	0.1	5	5	362	0.3	361	362	10.0	93.1
2025-10-11T07:04	10	5	0.1	5	5	362	0.3	361	362	10.0	93.0
2025-10-11T07:05	10	5	0.1	5	5	361	0.3	361	362	10.0	92.9
2025-10-11T07:06	10	5	0.1	5	5	361	0.2	361	362	10.0	92.7
2025-10-11T07:07	10	5	0.1	5	5	361	0.3	360	362	10.0	92.8
2025-10-11T07:08	10	5	0.1	5	5	361	0.2	361	361	10.0	92.6
2025-10-11T07:09	10	5	0.1	5	5	361	0.2	361	362	10.0	92.8
2025-10-11T07:10	10	5	0.1	5	5	361	0.2	361	362	10.0	92.5
2025-10-11T07:11	10	5	0.1	5	5	361	0.2	361	362	10.0	92.4
2025-10-11T07:12	10	5	0.1	5	6	361	0.3	361	362	10.0	92.3
2025-10-11T07:13	10	6	0.1	5	6	362	0.2	361	362	10.0	92.6
2025-10-11T07:14	10	6	0.1	5	6	362	0.3	361	362	10.0	92.6
2025-10-11T07:15	10	6	0.1	5	6	362	0.2	361	362	10.0	92.6
2025-10-11T07:16	10	6	0.1	5	6	362	0.3	361	362	10.0	92.6
2025-10-11T07:17	10	6	0.1	5	6	362	0.2	361	362	9.8	92.6
2025-10-11T07:18	10	6	0.1	5	6	362	0.2	361	362	10.0	92.6
2025-10-11T07:19	10	6	0.1	5	6	361	0.2	361	362	10.0	92.6
2025-10-11T07:20	10	6	0.1	6	6	362	0.2	361	362	10.0	92.6
2025-10-11T07:21	10	6	0.1	6	6	362	0.3	361	362	10.0	92.3
2025-10-11T07:22	10	6	0.2	6	7	362	0.3	361	362	10.1	92.2
2025-10-11T07:23	10	7	0.1	6	7	362	0.2	361	362	10.1	92.6
2025-10-11T07:24	10	7	0.1	7	7	362	0.2	362	363	10.1	92.6
2025-10-11T07:25	10	7	0.1	7	7	362	0.2	362	363	10.1	92.8
2025-10-11T07:26	10	7	0.1	7	7	363	0.2	362	363	10.1	92.8
2025-10-11T07:27	10	7	0.1	7	7	362	0.3	362	363	10.1	92.5
2025-10-11T07:28	10	7	0.1	7	8	362	0.3	361	363	10.1	92.4
2025-10-11T07:29	10	7	0.1	7	8	362	0.2	362	363	10.1	92.6
2025-10-11T07:30	10	7	0.1	7	8	363	0.2	362	363	10.1	92.6
2025-10-11T07:31	10	7	0.1	7	8	362	0.2	362	363	10.1	92.4
2025-10-11T07:32	10	8	0.1	7	8	363	0.3	362	363	10.1	92.5
2025-10-11T07:33	10	8	0.1	8	8	363	0.2	362	363	10.1	92.4
2025-10-11T07:34	10	8	0.1	7	8	363	0.2	362	363	10.1	92.4
2025-10-11T07:35	10	8	0.1	8	8	363	0.2	362	363	10.1	92.2
2025-10-11T07:36	10	8	0.1	8	8	363	0.2	362	363	10.1	92.3
2025-10-11T07:37	10	8	0.1	8	8	362	0.2	362	363	10.1	92.1
2025-10-11T07:38	10	8	0.1	8	9	363	0.3	362	363	10.1	92.4
2025-10-11T07:39	10	9	0.1	8	9	363	0.2	362	364	10.1	92.6
2025-10-11T07:40	10	9	0.1	9	9	363	0.2	362	363	10.1	92.3
2025-10-11T07:41	10	9	0.1	9	9	363	0.2	363	364	10.1	92.3
2025-10-11T07:42	10	9	0.1	9	9	363	0.3	363	364	10.1	92.3
2025-10-11T07:43	10	9	0.1	8	9	363	0.2	363	364	10.1	92.5
2025-10-11T07:44	10	9	0.2	9	9	363	0.2	363	364	10.1	92.7
2025-10-11T07:45	10	9	0.1	9	10	364	0.2	363	364	10.2	92.6
2025-10-11T07:46	10	10	0.1	9	10	364	0.3	363	364	10.1	92.4
2025-10-11T07:47	10	10	0.1	9	10	364	0.2	363	364	10.1	92.1
2025-10-11T07:48	10	10	0.1	10	10	364	0.2	363	364	10.1	92.2
2025-10-11T07:49	10	10	0.1	10	10	364	0.2	363	364	10.1	92.0
2025-10-11T07:50	10	10	0.1	10	10	363	0.3	363	364	10.1	92.0
2025-10-11T07:51	10	10	0.1	10	10	364	0.3	363	364	10.2	92.1
2025-10-11T07:52	10	10	0.1	10	10	364	0.2	363	364	10.2	92.1
2025-10-11T07:53	10	10	0.1	10	10	363	0.3	363	364	10.1	92.0
2025-10-11T07:54	10	10	0.1	9	10	363	0.2	362	364	10.1	92.0
2025-10-11T07:55	10	10	0.1	10	10	364	0.3	363	364	10.1	92.1
2025-10-11T07:56	10	10	0.2	10	11	363	0.2	363	364	10.1	91.8
2025-10-11T07:57	10	11	0.1	11	11	364	0.3	363	364	10.2	91.9
2025-10-11T07:58	10	11	0.1	11	12	364	0.3	363	364	10.1	91.7
2025-10-11T07:59	10	11	0.1	11	11	364	0.2	363	364	10.2	91.9
2025-10-11T08:00	10	11	0.1	11	12	364	0.2	364	365	10.2	92.0
2025-10-11T08:01	10	12	0.2	11	12	364	0.2	364	365	10.2	91.9
2025-10-11T08:02	10	12	0.3	12	13	364	0.2	364	365	10.2	91.6
2025-10-11T08:03	10	13	0.1	13	13	364	0.2	364	365	10.2	91.5
2025-10-11T08:04	10	13	0.1	13	13	364	0.2	364	364	10.2	91.5
2025-10-11T08:05	10	13	0.1	12	13	364	0.2	364	365	10.2	91.5
2025-10-11T08:06	10	13	0.1	13	13	364	0.2	364	365	10.2	91.6
2025-10-11T08:07	10	13	0.2	12	13	364	0.3	364	365	10.2	91.5
2025-10-11T08:08	10	12	0.2	11	12	365	0.3	364	365	10.3	91.7
2025-10-11T08:09	10	11	0.1	11	12	365	0.2	364	365	10.3	91.6
2025-10-11T08:10	10	12	0.2	11	12	365	0.3	364	365	10.2	91.3
2025-10-11T08:11	10	12	0.1	12	12	365	0.3	364	365	10.3	91.5
2025-10-11T08:12	10	12	0.2	12	13	365	0.3	364	365	10.3	91.2
2025-10-11T08:13	10	13	0.2	13	13	365	0.3	364	366	10.3	91.3
2025-10-11T08:14	10	14	0.2	13	14	365	0.3	364	365	10.3	90.9
2025-10-11T08:15	10	14	0.1	13	14	365	0.3	364	365	10.3	91.1
2025-10-11T08:16	10	13	0.2	13	13	365	0.3	364	365	10.3	90.7
2025-10-11T08:17	10	13	0.1	12	13	365	0.2	364	365	10.3	90.9
2025-10-11T08:18	10	13	0.1	12	13	364	0.2	364	365	10.3	90.7
2025-10-11T08:19	10	13	0.1	13	13	365	0.3	364	366	10.3	90.8
2025-10-11T08:20	10	13	0.1	13	13	365	0.3	364	366	10.3	91.1
2025-10-11T08:21	10	13	0.3	13	14	365	0.2	365	366	10.3	91.0
2025-10-11T08:22	10	14	0.2	14	15	365	0.2	365	366	10.3	90.6
2025-10-11T08:23	10	15	0.1	14	15	365	0.3	365	366	10.3	90.4
2025-10-11T08:24	10	15	0.1	15	15	365	0.2	364	365	10.3	90.5
2025-10-11T08:25	10	15	0.1	15	15	365	0.2	365	366	10.3	90.4
2025-10-11T08:26	10	15	0.1	15	15	365	0.3	364	366	10.3	90.3
2025-10-11T08:27	10	15	0.1	15	15	366	0.3	365	366	10.4	90.5
2025-10-11T08:28	10	15	0.1	15	15	366	0.3	366	367	10.4	90.5
2025-10-11T08:29	10	15	0.1	15	15	366	0.2	365	367	10.4	90.0
2025-10-11T08:30	10	15	0.1	15	15	366	0.3	366	367	10.4	90.3
2025-10-11T08:31	10	15	0.1	15	16	366	0.2	366	367	10.5	90.3
2025-10-11T08:32	10	15	0.1	15	16	367	0.3	366	367	10.5	90.0
2025-10-11T08:33	10	15	0.1	15	15	367	0.3	366	367	10.5	90.0
2025-10-11T08:34	10	15	0.1	15	15	366	0.3	366	367	10.4	89.8
2025-10-11T08:35	10	15	0.1	15	15	366	0.4	365	367	10.5	90.1
2025-10-11T08:36	10	15	0.1	15	15	367	0.2	366	367	10.5	90.1
2025-10-11T08:37	10	15	0.1	15	15	367	0.3	366	367	10.5	89.9
2025-10-11T08:38	10	15	0.1	15	15	366	0.3	365	366	10.5	89.7
2025-10-11T08:39	10	15	0.1	15	16	366	0.2	365	366	10.4	89.5
2025-10-11T08:40	10	16	0.1	16	16	366	0.3	365	367	10.4	89.7
2025-10-11T08:41	10	16	0.1	16	16	366	0.2	366	367	10.4	89.7
2025-10-11T08:42	10	16	0.1	16	16	366	0.2	366	366	10.4	89.6
2025-10-11T08:43	10	16	0.1	15	16	367	0.2	366	367	10.5	89.9
2025-10-11T08:44	10	15	0.1	15	16	367	0.3	366	367	10.4	89.5
2025-10-11T08:45	10	15	0.1	15	15	366	0.2	366	367	10.5	89.6
2025-10-11T08:46	10	15	0.1	15	15	367	0.3	366	367	10.5	89.6
2025-10-11T08:47	10	15	0.1	15	15	367	0.3	367	368	10.5	89.8
2025-10-11T08:48	10	15	0.1	14	15	367	0.2	366	367	10.5	89.7
2025-10-11T08:49	10	15	0.1	15	15	367	0.2	366	368	10.6	89.5
2025-10-11T08:50	10	15	0.2	15	16	367	0.2	366	367	10.5	89.0
2025-10-11T08:51	10	16	0.2	16	16	367	0.2	366	367	10.5	88.7
2025-10-11T08:52	10	16	0.2	16	17	367	0.2	366	367	10.5	88.8
2025-10-11T08:53	10	17	0.1	17	17	367	0.2	366	367	10.6	89.0
2025-10-11T08:54	10	17	0.1	17	17	367	0.2	366	367	10.5	88.4
2025-10-11T08:55	10	17	0.1	17	17	367	0.3	366	367	10.6	88.9
2025-10-11T08:56	10	17	0.1	17	17	367	0.3	366	368	10.6	88.9
2025-10-11T08:57	10	17	0.1	17	18	367	0.3	367	368	10.6	88.9
2025-10-11T08:58	10	18	0.1	17	18	368	0.2	367	368	10.6	88.8
2025-10-11T08:59	10	18	0.1	18	18	368	0.3	367	368	10.6	88.8
2025-10-11T09:00	10	18	0.1	18	18	368	0.2	367	369	10.6	88.5
2025-10-11T09:01	10	18	0.1	18	18	368	0.2	367	368	10.6	88.3
2025-10-11T09:02	10	18	0.1	18	18	368	0.3	368	369	10.7	88.8
2025-10-11T09:03	10	18	0.1	17	18	368	0.3	367	369	10.7	88.3
2025-10-11T09:04	10	18	0.1	17	18	368	0.3	367	368	10.6	87.8
2025-10-11T09:05	10	18	0.3	18	19	368	0.3	367	368	10.6	87.9
2025-10-11T09:06	10	19	0.2	19	20	368	0.2	368	369	10.7	88.2
2025-10-11T09:07	10	20	0.2	20	20	368	0.3	368	369	10.7	87.9
2025-10-11T09:08	10	21	0.2	20	21	368	0.2	367	369	10.7	87.9
2025-10-11T09:09	10	21	0.1	21	22	368	0.3	368	369	10.7	88.2
2025-10-11T09:10	10	22	0.1	21	22	369	0.4	368	370	10.8	88.2
2025-10-11T09:11	10	22	0.1	21	22	369	0.3	369	370	10.8	87.8
2025-10-11T09:12	10	22	0.1	22	22	369	0.3	368	369	10.7	87.3
2025-10-11T09:13	10	22	0.2	22	22	369	0.2	368	369	10.7	87.3
2025-10-11T09:14	10	22	0.1	22	22	369	0.3	368	369	10.7	87.4
2025-10-11T09:15	10	22	0.1	22	22	369	0.3	368	370	10.8	87.9
2025-10-11T09:16	10	22	0.1	21	22	369	0.2	369	370	10.8	87.9
2025-10-11T09:17	10	22	0.1	21	22	369	0.3	368	370	10.8	87.5
2025-10-11T09:18	10	21	0.1	21	21	369	0.2	368	369	10.7	87.5
2025-10-11T09:19	10	21	0.1	21	22	369	0.2	369	369	10.8	87.7
2025-10-11T09:20	10	21	0.3	20	21	369	0.2	369	370	10.8	87.7
2025-10-11T09:21	10	20	0.3	19	20	370	0.2	369	370	10.8	88.0
2025-10-11T09:22	10	19	0.2	19	19	370	0.3	370	371	10.9	88.4
2025-10-11T09:23	10	19	0.1	19	19	370	0.3	370	371	10.9	88.0
2025-10-11T09:24	10	19	0.2	19	20	370	0.2	370	371	10.9	87.5
2025-10-11T09:25	10	20	0.2	20	20	370	0.4	369	370	10.9	87.6
2025-10-11T09:26	10	21	0.2	20	21	369	0.3	368	370	10.8	86.7
2025-10-11T09:27	10	21	0.2	21	22	369	0.2	369	370	10.9	87.0
2025-10-11T09:28	10	22	0.1	22	22	369	0.3	368	370	10.9	87.0
2025-10-11T09:29	10	22	0.1	22	22	370	0.3	369	370	10.9	87.1
2025-10-11T09:30	10	22	0.1	22	22	370	0.3	369	371	10.9	87.5
2025-10-11T09:31	10	22	0.1	22	22	370	0.3	369	370	10.9	87.0
2025-10-11T09:32	10	23	0.3	22	23	370	0.3	369	370	10.9	86.6
2025-10-11T09:33	10	24	0.3	23	24	370	0.3	369	371	10.9	87.2
2025-10-11T09:34	10	25	0.3	24	25	370	0.2	370	371	10.9	87.2
2025-10-11T09:35	10	26	0.2	25	26	370	0.2	370	371	10.9	86.8
2025-10-11T09:36	10	26	0.1	26	26	371	0.3	370	371	10.9	86.8
2025-10-11T09:37	10	26	0.1	25	26	371	0.3	370	371	10.9	86.7
2025-10-11T09:38	10	25	0.1	25	26	370	0.2	370	371	10.9	86.3
2025-10-11T09:39	10	25	0.1	25	25	370	0.3	370	371	10.9	86.9
2025-10-11T09:40	10	25	0.1	25	25	371	0.3	370	371	10.9	86.8
2025-10-11T09:41	10	25	0.1	24	25	371	0.3	370	372	10.9	87.1
2025-10-11T09:42	10	25	0.1	25	25	372	0.3	371	372	11.0	87.2
2025-10-11T09:43	10	25	0.1	25	25	371	0.2	370	371	11.0	86.8
2025-10-11T09:44	10	25	0.1	25	25	371	0.3	371	372	11.0	86.7
2025-10-11T09:45	10	25	0.1	25	26	372	0.3	371	372	11.0	87.1
2025-10-11T09:46	10	26	0.2	26	26	371	0.4	371	372	11.0	86.5
2025-10-11T09:47	10	26	0.1	26	27	371	0.4	370	372	10.9	86.8
2025-10-11T09:48	10	27	0.1	26	27	372	0.2	371	372	11.0	87.2
2025-10-11T09:49	10	27	0.1	27	27	372	0.3	372	373	11.1	87.2
2025-10-11T09:50	10	27	0.1	27	27	373	0.2	372	373	11.1	86.5
2025-10-11T09:51	10	27	0.1	27	27	373	0.3	372	373	11.1	87.0
2025-10-11T09:52	10	27	0.1	27	28	372	0.3	371	373	11.1	86.8
2025-10-11T09:53	10	27	0.1	27	27	372	0.2	372	373	11.1	86.9
2025-10-11T09:54	10	27	0.1	27	27	373	0.2	372	373	11.1	87.1
2025-10-11T09:55	10	27	0.0	27	27	373	0.2	372	373	11.1	86.2
2025-10-11T09:56	10	27	0.1	27	27	373	0.2	372	373	11.1	86.7
2025-10-11T09:57	10	27	0.1	27	27	373	0.2	373	374	11.2	86.7
2025-10-11T09:58	10	27	0.1	27	27	373	0.4	372	374	11.1	86.3
2025-10-11T09:59	10	27	0.1	27	28	372	0.3	372	373	11.1	85.7
2025-10-11T10:00	10	28	0.1	28	28	372	0.2	372	373	11.1	85.6
2025-10-11T10:01	10	28	0.2	28	29	373	0.2	372	373	11.2	86.0
2025-10-11T10:02	10	29	0.2	28	29	373	0.3	372	374	11.2	86.1
2025-10-11T10:03	10	29	0.1	29	30	373	0.4	372	373	11.1	85.6
2025-10-11T10:04	10	30	0.1	29	30	372	0.3	371	373	11.1	85.4
2025-10-11T10:05	10	30	0.1	29	30	373	0.3	372	373	11.1	85.7
2025-10-11T10:06	10	30	0.1	30	30	373	0.2	372	373	11.2	85.8
2025-10-11T10:07	10	30	0.1	30	30	373	0.2	373	374	11.2	86.0
2025-10-11T10:08	10	30	0.1	30	31	373	0.3	373	374	11.2	85.5
2025-10-11T10:09	10	30	0.1	30	31	374	0.3	373	374	11.2	85.6
2025-10-11T10:10	10	30	0.2	30	31	374	0.2	374	375	11.2	85.6
2025-10-11T10:11	10	30	0.2	29	31	374	0.3	374	375	11.3	85.8
2025-10-11T10:12	10	29	0.3	29	30	374	0.8	372	375	11.2	85.4
2025-10-11T10:13	10	28	0.3	28	29	372	0.4	371	373	11.1	85.2
2025-10-11T10:14	10	28	0.3	27	28	371	0.4	370	372	11.1	85.5
2025-10-11T10:15	10	27	0.2	27	28	371	0.3	371	372	11.1	85.2
2025-10-11T10:16	10	27	0.2	27	27	371	0.2	370	371	11.1	85.2
2025-10-11T10:17	10	27	0.2	27	27	371	0.3	370	371	11.1	85.1
2025-10-11T10:18	10	27	0.2	26	27	371	0.2	370	371	11.1	85.2
2025-10-11T10:19	10	27	0.1	27	27	371	0.3	371	372	11.1	84.9
2025-10-11T10:20	10	27	0.1	27	27	371	0.2	370	372	11.1	85.0
2025-10-11T10:21	10	27	0.2	27	28	371	0.3	371	372	11.1	85.1
2025-10-11T10:22	10	28	0.1	27	28	372	0.4	371	373	11.1	85.2
2025-10-11T10:23	10	28	0.2	28	29	372	0.2	372	373	11.2	85.1
2025-10-11T10:24	10	29	0.2	28	29	373	0.3	372	373	11.2	84.8
2025-10-11T10:25	10	30	0.2	29	30	373	0.3	372	373	11.2	85.0
2025-10-11T10:26	10	30	0.2	30	31	373	0.3	373	374	11.2	84.9
2025-10-11T10:27	10	31	0.2	31	31	373	0.4	372	374	11.2	84.7
2025-10-11T10:28	10	31	0.2	31	32	372	0.2	371	373	11.2	84.8
2025-10-11T10:29	10	32	0.1	31	32	372	0.2	372	373	11.2	84.9
2025-10-11T10:30	10	32	0.1	32	32	372	0.3	372	373	11.2	84.8
2025-10-11T10:31	10	32	0.1	32	32	372	0.2	371	372	11.2	84.9
2025-10-11T10:32	10	32	0.2	31	32	372	0.2	372	373	11.1	84.6
2025-10-11T10:33	10	31	0.2	31	32	373	0.3	372	373	11.2	85.1
2025-10-11T10:34	10	30	0.4	30	31	373	0.3	372	373	11.3	84.8
2025-10-11T10:35	10	29	0.3	29	30	373	0.3	372	373	11.2	84.7
2025-10-11T10:36	10	29	0.1	29	29	373	0.3	372	374	11.3	84.7
2025-10-11T10:37	10	29	0.2	28	29	373	0.3	372	373	11.2	84.5
2025-10-11T10:38	10	29	0.2	28	29	373	0.3	372	374	11.2	84.7
2025-10-11T10:39	10	28	0.2	28	29	373	0.2	373	374	11.2	84.5
2025-10-11T10:40	10	28	0.2	27	28	373	0.4	372	374	11.3	84.6
2025-10-11T10:41	10	27	0.1	27	28	372	0.3	372	373	11.2	84.0
2025-10-11T10:42	10	28	0.2	27	28	371	0.3	371	372	11.2	83.9
2025-10-11T10:43	10	28	0.2	28	28	372	0.3	371	372	11.2	84.4
2025-10-11T10:44	10	28	0.2	28	29	372	0.2	372	373	11.3	84.2
2025-10-11T10:45	10	29	0.2	28	29	372	0.3	372	373	11.2	84.2
2025-10-11T10:46	10	29	0.1	29	29	372	0.2	371	372	11.2	84.3
2025-10-11T10:47	10	29	0.2	29	30	372	0.3	371	373	11.2	84.4
2025-10-11T10:48	10	30	0.3	30	31	372	0.2	371	372	11.2	84.0
2025-10-11T10:49	10	31	0.3	30	31	372	0.2	371	372	11.1	84.0
2025-10-11T10:50	10	32	0.2	31	32	372	0.3	372	373	11.2	84.1
2025-10-11T10:51	10	32	0.1	32	32	373	0.3	372	374	11.2	84.1
2025-10-11T10:52	10	32	0.1	32	32	374	0.4	372	374	11.3	84.3
2025-10-11T10:53	10	32	0.2	32	32	373	0.2	373	374	11.4	83.6
2025-10-11T10:54	10	32	0.2	32	33	374	0.4	373	374	11.4	83.7
2025-10-11T10:55	10	32	0.3	31	33	374	0.2	373	374	11.3	83.4
2025-10-11T10:56	10	31	0.3	30	32	373	0.4	372	374	11.2	83.4
2025-10-11T10:57	10	30	0.4	29	31	373	0.3	372	373	11.3	83.5
2025-10-11T10:58	10	28	0.4	28	29	373	0.3	372	374	11.3	83.6
2025-10-11T10:59	10	28	0.1	27	28	374	0.2	373	374	11.3	83.4
2025-10-11T11:00	10	28	0.3	28	29	373	0.2	373	374	11.3	83.3
2025-10-11T11:01	10	29	0.4	29	30	374	0.2	373	374	11.3	83.7
2025-10-11T11:02	10	31	0.4	30	31	374	0.3	373	375	11.3	84.0
2025-10-11T11:03	10	32	0.3	31	32	373	0.4	373	374	11.3	83.7
2025-10-11T11:04	10	32	0.2	32	32	373	0.4	372	374	11.3	83.6
2025-10-11T11:05	10	32	0.2	32	33	374	0.3	373	375	11.3	83.9
2025-10-11T11:06	10	33	0.2	32	33	374	0.3	373	374	11.3	83.1
2025-10-11T11:07	10	33	0.2	32	33	373	0.2	373	374	11.3	83.2
2025-10-11T11:08	10	33	0.2	33	34	373	0.2	373	374	11.3	82.6
2025-10-11T11:09	10	33	0.1	33	34	373	0.3	372	373	11.3	82.4
2025-10-11T11:10	10	33	0.1	33	34	373	0.2	373	374	11.3	82.7
2025-10-11T11:11	10	33	0.1	33	33	373	0.2	373	374	11.4	82.7
2025-10-11T11:12	10	33	0.2	32	33	374	0.2	373	374	11.4	82.4
2025-10-11T11:13	10	32	0.2	32	32	373	0.2	373	374	11.3	82.0
2025-10-11T11:14	10	32	0.1	31	32	374	0.3	372	374	11.3	82.1
2025-10-11T11:15	10	31	0.1	31	32	373	0.2	373	374	11.3	82.4
2025-10-11T11:16	10	31	0.1	31	32	374	0.5	373	375	11.4	82.7
2025-10-11T11:17	10	31	0.1	31	32	375	0.3	374	375	11.4	83.1
2025-10-11T11:18	10	31	0.2	31	31	375	0.3	375	376	11.5	82.9
2025-10-11T11:19	10	30	0.2	30	31	376	0.2	375	376	11.5	83.1
2025-10-11T11:20	10	30	0.3	29	30	375	0.4	374	376	11.5	83.2
2025-10-11T11:21	10	29	0.3	28	29	375	0.3	375	376	11.6	83.8
2025-10-11T11:22	10	28	0.2	28	29	376	0.2	375	376	11.6	83.4
2025-10-11T11:23	10	28	0.1	28	28	375	0.3	375	376	11.6	82.7
2025-10-11T11:24	10	27	0.1	27	28	376	0.3	375	376	11.6	82.9
2025-10-11T11:25	10	27	0.1	27	28	375	0.5	374	376	11.6	82.4
2025-10-11T11:26	10	27	0.1	27	28	375	0.4	374	375	11.6	82.2
2025-10-11T11:27	10	28	0.1	27	28	373	0.3	373	374	11.4	81.7
2025-10-11T11:28	10	28	0.1	28	28	374	0.2	373	374	11.5	82.4
2025-10-11T11:29	10	28	0.1	28	28	374	0.2	374	375	11.5	81.9
2025-10-11T11:30	10	28	0.1	28	28	373	0.2	373	374	11.5	82.0
2025-10-11T11:31	10	28	0.1	27	28	373	0.3	372	374	11.4	81.9
2025-10-11T11:32	10	28	0.1	28	28	373	0.2	373	374	11.4	82.3
2025-10-11T11:33	10	28	0.2	28	28	374	0.4	373	374	11.5	82.1
2025-10-11T11:34	10	28	0.1	28	28	373	0.4	372	374	11.4	81.7
2025-10-11T11:35	10	29	0.2	28	29	374	0.3	373	374	11.5	82.3
2025-10-11T11:36	10	29	0.2	29	30	374	0.3	373	374	11.4	81.8
2025-10-11T11:37	10	30	0.2	30	30	373	0.2	373	374	11.4	81.7
2025-10-11T11:38	10	30	0.1	30	31	373	0.3	372	373	11.4	81.6
2025-10-11T11:39	10	30	0.1	30	31	373	0.3	372	373	11.4	82.0
2025-10-11T11:40	10	30	0.1	30	30	373	0.2	372	373	11.4	81.8
2025-10-11T11:41	10	30	0.1	30	30	373	0.2	373	374	11.4	82.0
2025-10-11T11:42	10	30	0.1	30	30	373	0.2	373	374	11.4	81.7
2025-10-11T11:43	10	30	0.1	30	30	374	0.3	373	374	11.4	81.9
2025-10-11T11:44	10	29	0.2	29	30	374	0.3	373	374	11.5	81.6
2025-10-11T11:45	10	29	0.3	28	29	374	0.2	373	374	11.5	81.4
2025-10-11T11:46	10	28	0.2	27	28	374	0.3	373	374	11.5	81.6
2025-10-11T11:47	10	27	0.1	27	27	374	0.3	374	375	11.6	81.9
2025-10-11T11:48	10	27	0.1	27	28	375	0.3	374	376	11.6	82.1
2025-10-11T11:49	10	27	0.1	27	28	375	0.6	374	376	11.6	82.0
2025-10-11T11:50	10	28	0.1	27	28	374	0.2	373	374	11.5	81.3
2025-10-11T11:51	10	28	0.1	28	28	375	0.2	374	375	11.5	81.4
2025-10-11T11:52	10	28	0.1	28	29	374	0.3	374	375	11.5	81.7
2025-10-11T11:53	10	29	0.2	29	29	375	0.3	374	376	11.6	81.9
2025-10-11T11:54	10	30	0.2	29	30	376	0.3	375	377	11.6	83.0
2025-10-11T11:55	10	30	0.1	30	30	376	0.1	376	376	11.7	82.2
2025-10-11T11:56	10	30	0.1	30	31	376	0.2	375	377	11.6	81.8
2025-10-11T11:57	10	31	0.1	30	31	376	0.3	375	376	11.6	81.5
2025-10-11T11:58	10	30	0.1	30	31	376	0.3	375	377	11.6	81.7
2025-10-11T11:59	10	30	0.1	30	30	376	0.3	375	376	11.6	81.6
2025-10-11T12:00	10	30	0.1	29	30	375	0.4	374	376	11.6	81.6
2025-10-11T12:01	10	30	0.1	29	30	376	0.4	375	376	11.6	81.9
2025-10-11T12:02	10	30	0.1	30	30	376	0.4	376	377	11.7	82.2
2025-10-11T12:03	10	30	0.1	30	30	377	0.2	376	377	11.8	82.0
2025-10-11T12:04	10	30	0.1	30	31	377	0.3	376	377	11.8	81.6
2025-10-11T12:05	10	30	0.2	30	30	377	0.3	376	377	11.8	81.6
2025-10-11T12:06	10	29	0.1	29	30	376	0.6	374	377	11.7	81.2
2025-10-11T12:07	10	29	0.1	29	30	375	0.2	374	375	11.6	80.7
2025-10-11T12:08	10	30	0.1	29	30	375	0.3	374	376	11.6	81.5
2025-10-11T12:09	10	30	0.2	30	30	375	0.2	375	376	11.6	81.8
2025-10-11T12:10	10	31	0.1	30	31	375	0.2	375	376	11.6	81.7
2025-10-11T12:11	10	31	0.1	31	31	375	0.2	375	376	11.6	81.2
2025-10-11T12:12	10	31	0.1	31	31	375	0.2	375	375	11.6	81.3
2025-10-11T12:13	10	31	0.1	31	31	376	0.4	375	376	11.6	81.5
2025-10-11T12:14	10	32	0.2	31	32	376	0.2	376	377	11.7	82.0
2025-10-11T12:15	10	33	0.1	32	33	376	0.3	376	376	11.7	81.8
2025-10-11T12:16	10	33	0.1	32	33	377	0.4	376	377	11.8	81.3
2025-10-11T12:17	10	32	0.1	32	33	376	0.2	376	377	11.8	81.1
2025-10-11T12:18	10	32	0.1	32	32	376	0.2	376	377	11.8	81.0
2025-10-11T12:19	10	32	0.1	32	32	376	0.2	376	377	11.8	81.1
2025-10-11T12:20	10	33	0.2	32	33	377	0.2	376	377	11.8	81.1
2025-10-11T12:21	10	33	0.1	33	34	377	0.2	376	377	11.8	81.0
2025-10-11T12:22	10	34	0.1	33	34	376	0.3	376	377	11.8	81.0
2025-10-11T12:23	10	33	0.1	33	34	377	0.2	376	377	11.8	81.2
2025-10-11T12:24	10	33	0.1	33	33	377	0.3	376	377	11.8	80.8
2025-10-11T12:25	10	33	0.0	33	33	376	0.4	375	377	11.7	80.9
2025-10-11T12:26	10	33	0.1	33	34	376	0.2	375	376	11.7	81.0
2025-10-11T12:27	10	34	0.2	33	34	376	0.4	375	377	11.8	81.3
2025-10-11T12:28	10	34	0.2	34	34	376	0.3	376	377	11.8	80.0
2025-10-11T12:29	10	34	0.1	34	35	376	0.3	376	377	11.8	80.4
2025-10-11T12:30	10	35	0.1	34	35	377	0.4	376	377	11.8	80.9
2025-10-11T12:31	10	35	0.1	35	35	378	0.4	377	379	11.9	81.1
2025-10-11T12:32	10	35	0.1	35	35	378	0.2	377	378	11.9	80.9
2025-10-11T12:33	10	35	0.1	35	35	378	0.5	377	379	11.9	81.0
2025-10-11T12:34	10	35	0.1	35	35	377	0.3	376	377	11.8	81.0
2025-10-11T12:35	10	35	0.1	35	36	376	0.2	376	377	11.8	80.8
2025-10-11T12:36	10	36	0.1	35	36	376	0.3	375	377	11.8	80.9
2025-10-11T12:37	10	35	0.1	35	36	375	0.3	375	376	11.7	80.6
2025-10-11T12:38	10	35	0.2	34	35	376	0.3	375	376	11.7	80.7
2025-10-11T12:39	10	34	0.3	33	35	376	0.3	375	376	11.7	80.5
2025-10-11T12:40	10	33	0.2	33	34	377	0.6	375	378	11.8	81.2
2025-10-11T12:41	10	33	0.1	33	33	377	0.2	377	378	11.9	80.8
2025-10-11T12:42	10	32	0.1	32	33	376	0.5	376	378	11.8	79.6
2025-10-11T12:43	10	32	0.1	32	32	375	0.3	375	376	11.7	79.7
2025-10-11T12:44	10	32	0.1	32	32	375	0.2	375	376	11.7	79.8
2025-10-11T12:45	10	32	0.1	32	32	375	0.2	375	376	11.8	79.9
2025-10-11T12:46	10	32	0.1	32	32	375	0.2	375	376	11.8	79.9
2025-10-11T12:47	10	32	0.1	31	32	375	0.2	375	376	11.8	79.8
2025-10-11T12:48	10	31	0.1	31	32	376	0.3	375	377	11.8	80.0
2025-10-11T12:49	10	32	0.1	31	32	376	0.3	375	376	11.8	79.9
2025-10-11T12:50	10	32	0.1	31	32	376	0.3	375	377	11.8	80.3
2025-10-11T12:51	10	31	0.1	31	32	376	0.3	375	376	11.8	79.8
2025-10-11T12:52	10	31	0.1	31	31	375	0.3	375	376	11.8	80.2
2025-10-11T12:53	10	31	0.1	31	31	376	0.3	376	377	11.9	80.3
2025-10-11T12:54	10	30	0.1	30	31	375	0.4	375	376	11.8	79.7
2025-10-11T12:55	10	30	0.2	30	30	375	0.2	375	376	11.7	79.9
2025-10-11T12:56	10	29	0.2	29	30	375	0.2	375	376	11.7	80.2
2025-10-11T12:57	10	29	0.2	29	29	375	0.2	375	376	11.8	80.3
2025-10-11T12:58	10	28	0.2	28	29	375	0.3	374	375	11.7	80.1
2025-10-11T12:59	10	28	0.2	27	28	375	0.2	374	375	11.7	80.3
2025-10-11T13:00	10	27	0.1	27	27	375	0.3	374	376	11.7	80.7
2025-10-11T13:01	10	27	0.1	27	27	376	0.2	375	376	11.8	80.9
2025-10-11T13:02	10	27	0.1	27	27	376	0.3	375	376	11.8	80.9
2025-10-11T13:03	10	27	0.1	27	27	376	0.2	376	377	11.8	80.8
2025-10-11T13:04	10	27	0.1	27	27	376	0.2	376	377	11.9	81.4
2025-10-11T13:05	10	27	0.1	27	27	376	0.2	375	376	11.8	80.6
2025-10-11T13:06	10	27	0.1	27	27	376	0.2	376	376	11.8	80.6
2025-10-11T13:07	10	26	0.2	26	27	376	0.3	376	377	11.9	81.3
2025-10-11T13:08	10	26	0.1	26	26	377	0.3	376	377	11.9	82.0
2025-10-11T13:09	10	26	0.1	26	26	376	0.2	376	377	11.9	80.7
2025-10-11T13:10	10	26	0.1	26	26	377	0.3	376	377	11.9	80.6
2025-10-11T13:11	10	26	0.1	25	26	376	0.3	376	377	11.9	80.4
2025-10-11T13:12	10	25	0.1	25	26	376	0.3	376	377	11.9	80.5
2025-10-11T13:13	10	25	0.1	25	25	376	0.3	375	377	11.9	80.3
2025-10-11T13:14	10	25	0.1	24	25	376	0.3	375	376	12.0	80.3
2025-10-11T13:15	10	24	0.1	24	25	375	0.3	374	376	11.9	80.1
2025-10-11T13:16	10	24	0.1	24	24	375	0.3	374	375	11.9	80.3
2025-10-11T13:17	10	24	0.1	24	24	375	0.3	374	375	11.8	80.4
2025-10-11T13:18	10	24	0.1	24	24	375	0.2	374	375	11.8	80.4
2025-10-11T13:19	10	24	0.1	24	24	375	0.3	374	375	11.8	80.5
2025-10-11T13:20	10	24	0.1	23	24	374	0.2	374	375	11.9	80.6
2025-10-11T13:21	10	23	0.1	23	24	375	0.3	374	376	11.9	80.8
2025-10-11T13:22	10	23	0.1	23	23	375	0.3	374	376	11.9	80.8
2025-10-11T13:23	10	24	0.1	23	24	375	0.3	375	376	11.9	81.1
2025-10-11T13:24	10	24	0.2	24	24	375	0.5	374	376	11.9	80.4
2025-10-11T13:25	10	24	0.1	24	25	375	0.2	374	375	11.8	80.4
2025-10-11T13:26	10	25	0.2	24	25	375	0.2	375	375	11.9	80.9
2025-10-11T13:27	10	25	0.1	25	25	376	0.3	375	376	11.9	80.5
2025-10-11T13:28	10	26	0.1	25	26	376	0.3	375	377	11.9	80.6
2025-10-11T13:29	10	26	0.1	26	26	375	0.4	374	376	11.8	80.1
2025-10-11T13:30	10	26	0.1	26	26	375	0.3	374	376	11.8	80.4
2025-10-11T13:31	10	26	0.1	26	26	376	0.3	375	376	11.9	80.6
2025-10-11T13:32	10	25	0.2	25	26	376	0.3	376	377	12.0	81.3
2025-10-11T13:33	10	25	0.2	25	25	376	0.6	375	377	11.9	80.6
2025-10-11T13:34	10	24	0.2	24	25	375	0.2	375	376	11.9	80.7
2025-10-11T13:35	10	24	0.2	23	24	375	0.3	374	375	11.9	80.5
2025-10-11T13:36	10	23	0.1	23	23	375	0.2	374	375	11.8	80.3
2025-10-11T13:37	10	23	0.1	23	23	375	0.2	375	376	11.9	80.6
2025-10-11T13:38	10	23	0.1	22	23	375	0.3	374	375	11.8	80.0
2025-10-11T13:39	10	23	0.1	23	23	375	0.4	374	376	11.9	80.5
2025-10-11T13:40	10	23	0.1	23	23	375	0.3	375	376	11.9	80.8
2025-10-11T13:41	10	23	0.1	23	24	375	0.3	374	375	11.9	81.1
2025-10-11T13:42	10	24	0.1	23	24	374	0.2	374	375	11.8	80.8
2025-10-11T13:43	10	24	0.1	24	24	375	0.3	373	375	11.9	81.5
2025-10-11T13:44	10	24	0.1	24	25	375	0.3	374	375	11.9	81.1
2025-10-11T13:45	10	25	0.1	25	25	375	0.3	375	376	11.9	81.0
2025-10-11T13:46	10	25	0.1	25	25	375	0.3	375	376	11.9	81.2
2025-10-11T13:47	10	25	0.1	25	25	376	0.2	375	376	11.9	81.4
2025-10-11T13:48	10	25	0.1	25	25	375	0.4	375	376	11.9	81.0
2025-10-11T13:49	10	24	0.2	24	25	375	0.3	374	375	11.8	81.1
2025-10-11T13:50	10	24	0.1	24	24	375	0.3	375	376	11.9	81.5
2025-10-11T13:51	10	24	0.1	23	24	375	0.2	375	376	11.9	81.2
2025-10-11T13:52	10	23	0.2	23	24	375	0.2	375	376	11.9	81.2
2025-10-11T13:53	10	23	0.2	22	23	375	0.3	374	376	11.9	80.7
2025-10-11T13:54	10	22	0.2	22	23	375	0.2	374	375	11.8	81.1
2025-10-11T13:55	10	22	0.1	22	22	375	0.2	375	376	11.9	81.3
2025-10-11T13:56	10	23	0.1	22	23	375	0.4	374	376	11.9	81.4
2025-10-11T13:57	10	23	0.1	23	23	375	0.2	374	375	11.8	80.7
2025-10-11T13:58	10	23	0.1	23	23	375	0.3	374	375	11.9	81.0
2025-10-11T13:59	10	24	0.1	23	24	375	0.3	374	375	11.8	80.6
2025-10-11T14:00	10	24	0.1	24	24	375	0.2	374	375	11.9	80.7
2025-10-11T14:01	10	24	0.1	24	24	374	0.2	374	375	11.9	80.3
2025-10-11T14:02	10	24	0.1	24	24	375	0.2	374	375	11.9	80.4
2025-10-11T14:03	10	24	0.1	24	24	375	0.2	374	375	11.9	80.2
2025-10-11T14:04	10	24	0.1	24	24	374	0.3	374	375	11.9	80.0
2025-10-11T14:05	10	24	0.1	23	24	375	0.3	374	375	11.9	80.0
2025-10-11T14:06	10	23	0.1	23	24	375	0.2	374	375	11.9	80.2
2025-10-11T14:07	10	23	0.1	23	23	375	0.2	375	376	12.0	80.8
2025-10-11T14:08	10	23	0.1	23	23	376	0.2	375	376	12.0	80.8
2025-10-11T14:09	10	23	0.1	22	23	376	0.3	375	376	12.0	80.6
2025-10-11T14:10	10	22	0.2	22	23	375	0.3	374	376	11.9	80.3
2025-10-11T14:11	10	22	0.1	21	22	375	0.2	374	375	12.0	80.7
2025-10-11T14:12	10	21	0.1	21	22	375	0.2	374	375	12.0	80.6
2025-10-11T14:13	10	21	0.1	21	22	375	0.2	374	375	12.0	80.6
2025-10-11T14:14	10	21	0.1	21	22	375	0.2	374	375	11.9	80.4
2025-10-11T14:15	10	21	0.1	21	22	375	0.2	374	375	12.0	80.7
2025-10-11T14:16	10	21	0.1	21	22	375	0.3	374	375	12.0	80.7
2025-10-11T14:17	10	21	0.1	21	21	374	0.3	373	375	11.9	80.2
2025-10-11T14:18	10	21	0.1	21	21	374	0.2	374	375	11.9	80.6
2025-10-11T14:19	10	20	0.1	20	21	374	0.4	374	375	11.9	81.2
2025-10-11T14:20	10	20	0.1	20	20	375	0.2	374	375	11.9	81.0
2025-10-11T14:21	10	20	0.1	20	20	374	0.2	374	375	11.9	80.3
2025-10-11T14:22	10	20	0.1	19	20	374	0.2	374	375	11.9	80.3
2025-10-11T14:23	10	20	0.1	20	20	374	0.3	373	374	11.9	80.1
2025-10-11T14:24	10	20	0.1	20	20	374	0.2	373	374	11.9	80.5
2025-10-11T14:25	10	20	0.1	20	20	374	0.3	373	375	11.9	80.7
2025-10-11T14:26	10	20	0.1	20	20	375	0.2	374	375	11.9	81.0
2025-10-11T14:27	10	20	0.1	20	20	375	0.3	374	376	11.9	81.2
2025-10-11T14:28	10	20	0.1	20	20	375	0.3	375	376	12.0	81.3
2025-10-11T14:29	10	20	0.1	20	20	374	0.3	374	375	11.9	80.7
2025-10-11T14:30	10	19	0.2	19	20	374	0.2	374	375	11.9	79.8
2025-10-11T14:31	10	19	0.2	18	19	374	0.2	374	375	11.9	80.6
2025-10-11T14:32	10	18	0.2	18	18	374	0.3	374	375	11.9	80.9
2025-10-11T14:33	10	18	0.2	17	18	374	0.2	374	375	11.9	80.6
2025-10-11T14:34	10	17	0.2	17	17	374	0.2	373	374	11.9	80.8
2025-10-11T14:35	10	17	0.1	16	17	374	0.3	373	374	11.9	80.6
2025-10-11T14:36	10	16	0.1	16	16	373	0.3	372	373	11.9	80.5
2025-10-11T14:37	10	16	0.2	15	16	373	0.2	372	373	11.9	80.6
2025-10-11T14:38	10	15	0.1	15	15	373	0.2	372	373	11.9	81.0
2025-10-11T14:39	10	15	0.1	15	15	372	0.2	372	373	11.9	80.6
2025-10-11T14:40	10	15	0.1	15	15	372	0.2	372	373	11.9	81.0
2025-10-11T14:41	10	15	0.1	15	15	372	0.3	371	373	11.9	80.3
2025-10-11T14:42	10	15	0.1	15	15	372	0.2	372	373	11.9	80.6
2025-10-11T14:43	10	15	0.1	15	15	372	0.2	372	373	11.9	80.4
2025-10-11T14:44	10	15	0.0	15	15	372	0.2	372	373	11.9	80.6
2025-10-11T14:45	10	15	0.1	15	15	373	0.3	372	373	11.9	80.8
2025-10-11T14:46	10	15	0.1	15	15	373	0.2	372	373	11.9	81.0
2025-10-11T14:47	10	15	0.1	15	16	373	0.2	372	373	11.9	80.8
2025-10-11T14:48	10	15	0.1	15	15	373	0.2	372	373	11.9	80.6
2025-10-11T14:49	10	15	0.1	15	15	373	0.2	372	373	11.9	80.6
2025-10-11T14:50	10	15	0.1	15	15	372	0.2	372	373	11.9	80.5
2025-10-11T14:51	10	15	0.1	15	15	372	0.2	372	373	11.9	80.3
2025-10-11T14:52	10	15	0.1	15	15	372	0.2	371	372	11.9	80.5
2025-10-11T14:53	10	15	0.1	15	15	372	0.2	372	373	11.9	80.8
2025-10-11T14:54	10	15	0.1	15	15	373	0.3	372	373	11.9	80.8
2025-10-11T14:55	10	15	0.1	15	15	373	0.2	373	374	11.9	81.3
2025-10-11T14:56	10	15	0.1	15	15	374	0.3	373	374	11.9	81.3
2025-10-11T14:57	10	15	0.1	15	15	373	0.2	373	373	11.9	81.0
2025-10-11T14:58	10	15	0.1	15	15	373	0.3	372	373	11.9	80.2
2025-10-11T14:59	10	15	0.1	14	15	373	0.3	372	373	11.9	80.1
2025-10-11T15:00	10	14	0.1	14	15	372	0.3	372	373	11.9	79.9
2025-10-11T15:01	10	14	0.1	14	14	372	0.2	372	372	11.9	79.8
2025-10-11T15:02	10	14	0.1	14	14	372	0.2	371	372	11.9	79.7
2025-10-11T15:03	10	14	0.1	13	14	372	0.2	371	372	11.9	79.9
2025-10-11T15:04	10	13	0.1	13	14	372	0.3	371	372	11.9	79.9
2025-10-11T15:05	10	13	0.1	13	13	372	0.2	372	373	11.9	80.2
2025-10-11T15:06	10	13	0.1	12	13	372	0.2	372	373	11.9	80.1
2025-10-11T15:07	10	13	0.1	12	13	373	0.2	372	373	12.0	80.2
2025-10-11T15:08	10	12	0.1	12	13	372	0.3	372	373	11.9	79.9
2025-10-11T15:09	10	12	0.1	12	12	372	0.3	371	373	11.9	80.8
2025-10-11T15:10	10	12	0.1	12	12	372	0.4	371	372	11.9	80.2
2025-10-11T15:11	10	12	0.1	11	12	371	0.2	370	372	11.9	80.0
2025-10-11T15:12	10	11	0.1	11	11	371	0.3	370	372	11.9	80.4
2025-10-11T15:13	10	11	0.1	11	11	371	0.2	371	372	11.9	80.0
2025-10-11T15:14	10	11	0.1	11	11	371	0.2	371	372	11.9	80.1
2025-10-11T15:15	10	11	0.1	10	11	371	0.2	371	372	11.9	80.3
2025-10-11T15:16	10	10	0.1	10	11	371	0.2	370	371	11.9	80.4
2025-10-11T15:17	10	10	0.1	10	11	371	0.2	370	371	11.9	80.0
2025-10-11T15:18	10	10	0.1	10	11	371	0.2	370	371	11.9	80.6
2025-10-11T15:19	10	10	0.1	10	11	371	0.3	370	372	11.9	80.4
2025-10-11T15:20	10	11	0.1	10	11	371	0.2	370	371	11.8	80.0
2025-10-11T15:21	10	11	0.1	10	11	371	0.2	370	371	11.8	80.1
2025-10-11T15:22	10	11	0.1	11	11	370	0.3	370	371	11.8	80.0
2025-10-11T15:23	10	11	0.1	11	11	370	0.2	370	371	11.8	80.0
2025-10-11T15:24	10	11	0.1	11	11	370	0.3	370	371	11.8	80.2
2025-10-11T15:25	10	11	0.1	11	11	371	0.3	370	371	11.8	80.0
2025-10-11T15:26	10	11	0.1	11	11	371	0.3	370	371	11.8	80.3
2025-10-11T15:27	10	11	0.1	11	11	371	0.2	370	371	11.8	80.0
2025-10-11T15:28	10	11	0.1	11	11	371	0.2	370	371	11.8	80.1
2025-10-11T15:29	10	11	0.1	10	11	371	0.2	370	371	11.8	80.0
2025-10-11T15:30	10	11	0.1	11	11	371	0.2	370	371	11.9	80.0
2025-10-11T15:31	10	11	0.1	10	11	371	0.3	370	372	11.9	80.1
2025-10-11T15:32	10	11	0.1	10	11	371	0.2	370	371	11.9	80.4
2025-10-11T15:33	10	11	0.1	10	11	371	0.2	371	372	11.9	80.2
2025-10-11T15:34	10	11	0.1	11	11	371	0.2	371	372	11.9	80.4
2025-10-11T15:35	10	11	0.1	11	11	371	0.3	370	372	11.9	80.3
2025-10-11T15:36	10	11	0.1	10	11	371	0.2	370	371	11.9	79.7
2025-10-11T15:37	10	10	0.1	10	11	371	0.2	371	372	11.8	79.8
2025-10-11T15:38	10	10	0.1	10	10	371	0.2	371	371	11.9	80.2
2025-10-11T15:39	10	10	0.1	10	10	371	0.3	370	371	11.9	80.3
2025-10-11T15:40	10	10	0.1	9	10	371	0.2	371	371	11.9	80.5
2025-10-11T15:41	10	9	0.1	9	9	371	0.2	370	371	11.9	80.3
2025-10-11T15:42	10	9	0.1	9	9	371	0.2	370	371	11.9	80.7
2025-10-11T15:43	10	9	0.1	8	9	370	0.2	370	371	11.8	80.1
2025-10-11T15:44	10	8	0.1	8	9	370	0.2	370	371	11.8	80.1
2025-10-11T15:45	10	8	0.1	8	8	370	0.2	370	371	11.8	80.3
2025-10-11T15:46	10	8	0.1	8	8	370	0.2	370	371	11.8	80.2
2025-10-11T15:47	10	8	0.1	7	8	370	0.2	370	370	11.8	80.7
2025-10-11T15:48	10	7	0.1	7	8	370	0.2	369	371	11.8	81.1
2025-10-11T15:49	10	7	0.1	7	7	370	0.2	369	371	11.8	81.1
2025-10-11T15:50	10	7	0.1	7	7	370	0.2	370	370	11.8	80.5
2025-10-11T15:51	10	7	0.1	7	7	370	0.2	369	370	11.8	80.7
2025-10-11T15:52	10	7	0.1	7	7	370	0.3	370	371	11.8	80.9
2025-10-11T15:53	10	7	0.1	7	7	370	0.2	370	370	11.8	80.8
2025-10-11T15:54	10	7	0.1	7	7	370	0.3	369	371	11.8	80.9
2025-10-11T15:55	10	7	0.1	6	7	370	0.2	370	371	11.8	80.8
2025-10-11T15:56	10	7	0.1	7	7	370	0.3	369	370	11.8	80.8
2025-10-11T15:57	10	7	0.1	6	7	370	0.2	370	370	11.8	81.6
2025-10-11T15:58	10	6	0.1	6	6	370	0.2	370	371	11.8	81.6
2025-10-11T15:59	10	6	0.1	6	6	370	0.2	370	371	11.8	81.0
2025-10-11T16:00	10	6	0.1	6	6	370	0.2	370	371	11.8	81.4
2025-10-11T16:01	10	6	0.1	6	6	370	0.2	370	371	11.9	81.9
2025-10-11T16:02	10	6	0.1	5	6	370	0.2	369	371	11.8	80.8
2025-10-11T16:03	10	6	0.1	5	6	370	0.2	370	370	11.8	80.7
2025-10-11T16:04	10	5	0.1	5	6	370	0.3	369	370	11.8	81.1
2025-10-11T16:05	10	5	0.1	5	6	370	0.3	369	370	11.8	81.7
2025-10-11T16:06	10	5	0.1	5	6	370	0.2	369	370	11.8	81.9
2025-10-11T16:07	10	5	0.1	5	5	370	0.2	369	371	11.8	81.3
2025-10-11T16:08	10	5	0.1	5	5	369	0.3	369	370	11.8	80.9
2025-10-11T16:09	10	5	0.1	5	5	369	0.2	369	370	11.8	80.7
2025-10-11T16:10	10	5	0.1	5	5	369	0.2	369	370	11.8	80.9
2025-10-11T16:11	10	5	0.1	5	5	369	0.3	369	370	11.8	80.5
2025-10-11T16:12	10	5	0.1	4	5	369	0.2	369	370	11.8	80.7
2025-10-11T16:13	10	4	0.1	4	5	369	0.2	369	370	11.8	80.7
2025-10-11T16:14	10	4	0.1	4	4	369	0.2	368	369	11.8	80.9
2025-10-11T16:15	10	4	0.1	4	4	369	0.2	369	369	11.8	80.9
2025-10-11T16:16	10	4	0.1	4	4	369	0.3	368	369	11.8	80.2
2025-10-11T16:17	10	4	0.1	4	4	369	0.2	368	369	11.8	80.2
2025-10-11T16:18	10	4	0.1	4	4	369	0.2	368	369	11.8	80.1
2025-10-11T16:19	10	4	0.1	3	4	368	0.2	368	369	11.8	80.3
2025-10-11T16:20	10	3	0.1	3	4	369	0.2	368	369	11.8	80.1
2025-10-11T16:21	10	3	0.1	3	4	368	0.2	368	369	11.8	80.1
2025-10-11T16:22	10	3	0.1	3	4	368	0.2	368	369	11.8	80.1
2025-10-11T16:23	10	3	0.1	3	4	368	0.2	368	369	11.8	80.4
2025-10-11T16:24	10	3	0.1	3	3	368	0.2	368	369	11.8	80.9
2025-10-11T16:25	10	3	0.1	3	3	368	0.3	368	369	11.8	80.7
2025-10-11T16:26	10	3	0.1	3	3	368	0.2	368	369	11.8	81.0
2025-10-11T16:27	10	3	0.1	3	3	368	0.2	368	369	11.8	80.3
2025-10-11T16:28	10	3	0.1	3	3	368	0.2	367	369	11.8	80.9
2025-10-11T16:29	10	3	0.1	3	3	368	0.2	367	369	11.8	80.7
2025-10-11T16:30	10	3	0.1	2	3	368	0.2	367	368	11.8	80.8
2025-10-11T16:31	10	2	0.1	2	3	368	0.2	368	368	11.8	80.7
2025-10-11T16:32	10	2	0.1	2	2	368	0.2	367	368	11.8	80.6
2025-10-11T16:33	10	2	0.1	2	2	368	0.2	367	368	11.8	80.7
2025-10-11T16:34	10	2	0.1	2	2	368	0.2	367	368	11.8	81.0
2025-10-11T16:35	10	2	0.1	2	2	368	0.2	368	368	11.8	80.9
2025-10-11T16:36	10	2	0.1	2	2	368	0.3	367	368	11.8	80.8
2025-10-11T16:37	10	2	0.1	2	2	368	0.2	367	368	11.8	80.7
2025-10-11T16:38	10	2	0.1	2	2	368	0.2	367	369	11.8	81.0
2025-10-11T16:39	10	2	0.1	1	2	368	0.2	367	368	11.8	80.4
2025-10-11T16:40	10	1	0.1	1	2	368	0.2	367	368	11.8	80.3
2025-10-11T16:41	10	1	0.1	1	2	368	0.2	367	368	11.8	81.0
2025-10-11T16:42	10	1	0.1	1	1	368	0.2	367	368	11.8	80.9
2025-10-11T16:43	10	1	0.1	1	1	368	0.2	367	368	11.8	81.2
2025-10-11T16:44	10	1	0.1	1	1	368	0.2	367	368	11.8	81.1
2025-10-11T16:45	10	1	0.1	1	1	368	0.2	367	368	11.8	80.9
2025-10-11T16:46	10	1	0.1	1	1	368	0.2	367	368	11.8	80.8
2025-10-11T16:47	10	1	0.1	1	1	368	0.2	367	368	11.8	80.8
2025-10-11T16:48	10	1	0.1	1	1	367	0.3	367	368	11.8	80.8
2025-10-11T16:49	10	1	0.1	1	1	367	0.3	367	368	11.8	81.0
2025-10-11T16:50	10	1	0.1	1	1	368	0.2	367	368	11.8	81.2
2025-10-11T16:51	10	1	0.1	1	1	368	0.2	367	368	11.8	81.3
2025-10-11T16:52	10	1	0.1	1	1	367	0.2	367	368	11.8	80.6
2025-10-11T16:53	10	1	0.1	1	1	367	0.2	367	368	11.8	80.5
2025-10-11T16:54	10	1	0.0	1	1	367	0.2	367	368	11.8	80.3
2025-10-11T16:55	10	1	0.1	1	1	367	0.2	367	368	11.8	80.4
2025-10-11T16:56	10	1	0.1	1	1	367	0.2	367	368	11.8	80.3
2025-10-11T16:57	10	1	0.1	1	1	367	0.2	367	368	11.8	81.0
2025-10-11T16:58	10	1	0.1	1	1	367	0.2	367	368	11.7	81.2
2025-10-11T16:59	10	1	0.1	1	1	367	0.2	367	368	11.8	80.9
2025-10-11T17:00	10	1	0.1	1	1	367	0.2	367	368	11.7	80.9
2025-10-11T17:01	10	1	0.0	1	1	367	0.2	367	368	11.7	81.3
2025-10-11T17:02	10	1	0.1	1	1	367	0.2	367	368	11.7	81.1
2025-10-11T17:03	10	1	0.0	1	1	367	0.3	366	368	11.7	81.5
2025-10-11T17:04	10	1	0.0	1	1	367	0.2	367	367	11.7	81.8
2025-10-11T17:05	10	1	0.1	1	1	367	0.2	367	368	11.7	82.0
2025-10-11T17:06	10	1	0.0	1	1	367	0.2	367	368	11.7	81.7
2025-10-11T17:07	10	1	0.0	1	1	367	0.2	367	368	11.7	81.5
2025-10-11T17:08	10	1	0.0	1	1	367	0.2	367	368	11.7	81.9
2025-10-11T17:09	10	1	0.0	1	1	367	0.2	367	368	11.7	81.8
2025-10-11T17:10	10	1	0.0	1	1	367	0.2	367	368	11.7	82.0
2025-10-11T17:11	10	1	0.0	1	1	367	0.2	367	368	11.7	82.6
2025-10-11T17:12	10	1	0.0	1	1	367	0.3	366	368	11.6	82.8
2025-10-11T17:13	10	1	0.0	1	1	367	0.2	367	367	11.7	82.3
2025-10-11T17:14	10	1	0.0	0	1	367	0.2	367	368	11.7	81.9
2025-10-11T17:15	10	1	0.0	1	1	367	0.3	366	368	11.7	82.4
2025-10-11T17:16	10	1	0.0	1	1	367	0.2	367	367	11.7	82.0
2025-10-11T17:17	10	1	0.0	1	1	367	0.2	367	368	11.7	81.9
2025-10-11T17:18	10	1	0.1	1	1	367	0.2	367	367	11.7	82.0
2025-10-11T17:19	10	1	0.1	0	1	367	0.2	366	367	11.6	82.4
2025-10-11T17:20	10	1	0.1	0	1	367	0.2	366	367	11.6	82.7
2025-10-11T17:21	10	1	0.0	1	1	367	0.2	366	367	11.6	82.8
2025-10-11T17:22	10	1	0.0	0	1	367	0.2	367	367	11.6	82.6
2025-10-11T17:23	10	1	0.0	0	1	367	0.2	366	367	11.6	82.7
2025-10-11T17:24	10	1	0.1	0	1	367	0.2	366	367	11.6	83.1
2025-10-11T17:25	10	1	0.1	0	1	367	0.3	366	367	11.6	83.1
2025-10-11T17:26	10	1	0.1	0	1	367	0.2	366	367	11.6	83.1
2025-10-11T17:27	10	1	0.1	0	1	367	0.2	366	367	11.6	83.2
2025-10-11T17:28	10	1	0.1	0	1	367	0.3	366	367	11.6	82.5
2025-10-11T17:29	10	0	0.1	0	0	367	0.2	366	367	11.7	81.5
2025-10-11T17:30	10	1	0.0	1	1	367	0.2	366	367	11.7	81.7
2025-10-11T17:31	10	1	0.1	0	1	367	0.2	366	367	11.7	81.5
2025-10-11T17:32	10	1	0.1	0	1	367	0.2	366	367	11.7	81.8
2025-10-11T17:33	10	1	0.1	0	1	367	0.2	366	367	11.7	82.1
2025-10-11T17:34	10	1	0.1	0	1	367	0.2	366	367	11.7	82.2
2025-10-11T17:35	10	1	0.1	0	1	367	0.2	366	367	11.7	82.1
2025-10-11T17:36	10	1	0.1	0	1	367	0.2	366	367	11.7	82.3
2025-10-11T17:37	10	1	0.1	0	1	367	0.2	366	367	11.6	82.5
2025-10-11T17:38	10	1	0.1	0	1	366	0.2	366	367	11.6	82.8
2025-10-11T17:39	10	1	0.1	0	1	366	0.3	366	367	11.6	82.3
2025-10-11T17:40	10	1	0.0	0	1	366	0.2	366	367	11.6	82.9
2025-10-11T17:41	10	1	0.0	0	1	366	0.2	366	367	11.6	82.3
2025-10-11T17:42	10	1	0.1	0	1	367	0.2	366	367	11.6	82.5
2025-10-11T17:43	10	1	0.0	0	1	366	0.2	366	367	11.6	83.0
2025-10-11T17:44	10	1	0.1	0	1	366	0.2	366	367	11.6	82.6
2025-10-11T17:45	10	1	0.1	0	1	366	0.2	366	367	11.6	82.5
2025-10-11T17:46	10	1	0.1	0	1	366	0.3	366	367	11.6	82.3
2025-10-11T17:47	10	1	0.1	0	1	366	0.2	366	367	11.6	82.4
2025-10-11T17:48	10	1	0.1	0	1	366	0.2	366	367	11.6	82.1
2025-10-11T17:49	10	1	0.1	0	1	366	0.2	366	367	11.6	82.1
2025-10-11T17:50	10	1	0.1	0	1	366	0.2	366	367	11.6	82.5
2025-10-11T17:51	10	1	0.1	1	1	366	0.2	366	367	11.6	82.3
2025-10-11T17:52	10	1	0.1	0	1	366	0.2	366	367	11.6	82.6
2025-10-11T17:53	10	1	0.1	0	1	366	0.2	366	367	11.6	82.9
2025-10-11T17:54	10	1	0.1	0	1	366	0.2	366	367	11.6	83.1
2025-10-11T17:55	10	1	0.0	0	1	366	0.3	366	367	11.6	82.8
2025-10-11T17:56	10	1	0.0	0	1	366	0.2	366	367	11.6	83.0
2025-10-11T17:57	10	1	0.1	0	1	366	0.2	366	367	11.6	82.9
2025-10-11T17:58	10	1	0.1	0	1	366	0.2	366	367	11.6	83.1
2025-10-11T17:59	10	1	0.1	0	1	366	0.2	366	367	11.6	83.4
2025-10-11T18:00	10	1	0.0	1	1	366	0.2	366	367	11.5	83.7
2025-10-11T18:01	10	0	0.0	0	0	366	0.2	366	367	11.5	83.7
2025-10-11T18:02	10	0	0.0	0	0	366	0.2	366	367	11.5	83.4
2025-10-11T18:03	10	0	0.0	0	0	366	0.2	366	366	11.5	83.7
2025-10-11T18:04	10	0	0.0	0	0	366	0.2	366	367	11.5	83.6
2025-10-11T18:05	10	0	0.1	0	0	366	0.2	366	367	11.5	83.7
2025-10-11T18:06	10	0	0.1	0	0	366	0.2	366	366	11.5	83.5
2025-10-11T18:07	10	0	0.0	0	1	366	0.2	366	367	11.5	83.6
2025-10-11T18:08	10	0	0.1	0	0	366	0.2	366	366	11.5	83.6
2025-10-11T18:09	10	0	0.1	0	1	366	0.2	366	366	11.5	83.7
2025-10-11T18:10	10	0	0.1	0	0	366	0.2	366	367	11.5	83.8
2025-10-11T18:11	10	0	0.0	0	1	366	0.2	366	367	11.5	84.0
2025-10-11T18:12	10	0	0.1	0	0	366	0.2	366	366	11.5	84.0
2025-10-11T18:13	10	0	0.0	0	0	366	0.2	366	367	11.5	84.0
2025-10-11T18:14	10	0	0.0	0	0	366	0.2	366	367	11.5	83.9
2025-10-11T18:15	10	0	0.1	0	0	366	0.2	366	367	11.5	83.9
2025-10-11T18:16	10	0	0.1	0	1	366	0.2	365	366	11.4	84.8
2025-10-11T18:17	10	0	0.1	0	0	366	0.2	366	366	11.4	84.8
2025-10-11T18:18	10	0	0.1	0	1	366	0.2	365	366	11.4	84.8
2025-10-11T18:19	10	0	0.1	0	1	366	0.2	366	366	11.4	84.8
2025-10-11T18:20	10	0	0.0	0	0	366	0.2	365	367	11.4	85.0
2025-10-11T18:21	10	0	0.1	0	1	366	0.2	365	366	11.4	85.3
2025-10-11T18:22	10	0	0.1	0	1	366	0.2	366	366	11.4	85.1
2025-10-11T18:23	10	0	0.1	0	1	366	0.2	365	366	11.4	85.3
2025-10-11T18:24	10	0	0.1	0	1	366	0.2	365	366	11.4	85.5
2025-10-11T18:25	10	0	0.0	0	0	366	0.2	366	366	11.4	85.6
2025-10-11T18:26	10	0	0.1	0	0	366	0.2	365	366	11.4	85.3
2025-10-11T18:27	10	0	0.1	0	0	366	0.2	366	366	11.4	85.0
2025-10-11T18:28	10	0	0.0	0	1	366	0.2	365	366	11.4	85.3
2025-10-11T18:29	10	0	0.0	0	1	366	0.2	365	366	11.4	85.2
2025-10-11T18:30	10	0	0.0	0	1	366	0.2	365	366	11.4	85.0
2025-10-11T18:31	10	0	0.1	0	1	366	0.2	365	366	11.4	84.7
2025-10-11T18:32	10	0	0.1	0	1	366	0.2	365	366	11.4	84.7
2025-10-11T18:33	10	0	0.0	0	0	366	0.2	365	366	11.4	84.7
2025-10-11T18:34	10	0	0.0	0	0	365	0.2	365	366	11.4	84.5
2025-10-11T18:35	10	0	0.0	0	0	366	0.2	365	366	11.4	84.8
2025-10-11T18:36	10	0	0.0	0	1	365	0.2	365	366	11.4	84.3
2025-10-11T18:37	10	0	0.0	0	1	365	0.2	365	365	11.4	84.6
2025-10-11T18:38	10	0	0.1	0	1	365	0.3	364	366	11.4	84.5
2025-10-11T18:39	10	0	0.0	0	1	365	0.2	365	366	11.4	84.4
2025-10-11T18:40	10	0	0.0	0	1	365	0.2	365	365	11.4	84.7
2025-10-11T18:41	10	0	0.1	0	1	365	0.3	365	366	11.4	84.8
2025-10-11T18:42	10	0	0.0	0	0	365	0.2	365	366	11.4	84.0
2025-10-11T18:43	10	0	0.0	0	0	365	0.2	365	366	11.4	84.1
2025-10-11T18:44	10	0	0.0	0	0	365	0.3	365	366	11.4	84.3
2025-10-11T18:45	10	0	0.0	0	0	365	0.2	365	366	11.4	84.9
2025-10-11T18:46	10	0	0.0	0	0	365	0.2	365	366	11.4	85.0
2025-10-11T18:47	10	0	0.1	0	1	365	0.2	365	366	11.4	84.6
2025-10-11T18:48	10	0	0.0	0	1	365	0.2	365	365	11.4	85.1
2025-10-11T18:49	10	0	0.0	0	0	365	0.2	365	365	11.4	84.9
2025-10-11T18:50	10	0	0.1	0	1	365	0.2	364	366	11.4	84.5
2025-10-11T18:51	10	0	0.1	0	0	365	0.2	364	365	11.4	84.4
2025-10-11T18:52	10	0	0.1	0	0	364	0.2	364	365	11.4	84.5
2025-10-11T18:53	10	0	0.1	0	0	364	0.2	364	365	11.4	84.5
2025-10-11T18:54	10	0	0.1	0	0	364	0.2	364	365	11.4	84.1
2025-10-11T18:55	10	0	0.1	0	0	364	0.2	364	365	11.4	84.3
2025-10-11T18:56	10	0	0.1	0	0	364	0.2	364	364	11.4	84.3
2025-10-11T18:57	10	0	0.1	0	1	364	0.2	364	365	11.3	84.4
2025-10-11T18:58	10	0	0.1	0	0	365	0.2	364	365	11.3	84.5
2025-10-11T18:59	10	0	0.1	0	0	364	0.2	364	365	11.3	84.0
2025-10-11T19:00	10	0	0.1	0	0	364	0.2	364	365	11.3	84.6
2025-10-11T19:01	10	0	0.1	0	0	364	0.2	363	364	11.3	84.5
2025-10-11T19:02	10	0	0.1	0	0	364	0.2	363	364	11.2	84.6
2025-10-11T19:03	10	0	0.1	0	0	363	0.1	363	364	11.2	84.6
2025-10-11T19:04	10	0	0.1	0	0	363	0.2	363	364	11.2	84.9
2025-10-11T19:05	10	0	0.1	0	1	363	0.2	363	363	11.2	84.8
2025-10-11T19:06	10	0	0.1	0	1	363	0.2	363	364	11.2	85.1
2025-10-11T19:07	10	0	0.1	0	0	363	0.2	363	364	11.2	85.3
2025-10-11T19:08	10	0	0.1	0	0	363	0.2	363	364	11.2	85.2
2025-10-11T19:09	10	0	0.1	0	0	363	0.2	363	364	11.2	85.2
2025-10-11T19:10	10	0	0.1	0	0	363	0.2	363	364	11.2	84.6
2025-10-11T19:11	10	0	0.1	0	0	364	0.2	363	364	11.2	84.9
2025-10-11T19:12	10	0	0.1	0	1	363	0.2	363	364	11.2	84.9
2025-10-11T19:13	10	0	0.1	0	1	363	0.2	363	364	11.2	84.9
2025-10-11T19:14	10	0	0.1	0	0	363	0.2	362	363	11.2	84.9
2025-10-11T19:15	10	0	0.1	0	1	363	0.3	362	363	11.2	84.9
2025-10-11T19:16	10	0	0.1	0	0	362	0.2	362	363	11.2	84.9
2025-10-11T19:17	10	0	0.1	0	1	362	0.2	362	363	11.2	84.9
2025-10-11T19:18	10	0	0.1	0	0	362	0.2	362	363	11.2	84.9
2025-10-11T19:19	10	0	0.1	0	1	362	0.2	362	362	11.2	84.9
2025-10-11T19:20	10	0	0.1	0	1	362	0.2	361	362	11.2	84.8
2025-10-11T19:21	10	0	0.1	0	0	362	0.2	362	363	11.1	84.8
2025-10-11T19:22	10	0	0.1	0	1	362	0.2	362	363	11.1	85.8
2025-10-11T19:23	10	0	0.1	0	0	362	0.2	362	363	11.1	86.1
2025-10-11T19:24	10	0	0.1	0	0	363	0.2	362	363	11.1	86.3
2025-10-11T19:25	10	0	0.1	0	0	363	0.2	362	363	11.1	86.0
2025-10-11T19:26	10	0	0.1	0	1	363	0.2	363	363	11.1	85.9
2025-10-11T19:27	10	0	0.1	0	0	363	0.2	363	364	11.1	85.8
2025-10-11T19:28	10	0	0.1	0	1	363	0.2	363	364	11.1	85.8
2025-10-11T19:29	10	0	0.1	0	1	363	0.2	363	364	11.1	86.1
2025-10-11T19:30	10	0	0.1	0	1	363	0.3	363	364	11.1	86.0
2025-10-11T19:31	10	0	0.1	0	1	363	0.2	363	364	11.1	86.0
2025-10-11T19:32	10	0	0.2	0	1	363	0.3	362	364	11.1	85.6
2025-10-11T19:33	10	0	0.1	0	1	363	0.2	363	364	11.1	85.7
2025-10-11T19:34	10	0	0.1	0	1	363	0.2	363	364	11.1	86.0
2025-10-11T19:35	10	0	0.2	0	1	363	0.3	362	364	11.1	87.3
2025-10-11T19:36	10	0	0.1	0	1	363	0.2	362	363	11.0	88.3
2025-10-11T19:37	10	0	0.1	0	1	363	0.2	362	363	11.0	88.4
2025-10-11T19:38	10	0	0.1	0	1	362	0.2	362	363	11.0	88.5
2025-10-11T19:39	10	0	0.1	0	1	362	0.3	362	363	11.0	88.7
2025-10-11T19:40	10	0	0.1	0	1	362	0.3	362	363	10.9	88.8
2025-10-11T19:41	10	0	0.1	0	0	362	0.2	362	363	10.9	88.9
2025-10-11T19:42	10	0	0.1	0	1	363	0.2	362	363	10.9	89.1
2025-10-11T19:43	10	0	0.1	0	1	363	0.3	362	363	10.9	89.3
2025-10-11T19:44	10	0	0.1	0	1	363	0.2	362	363	10.9	88.7
2025-10-11T19:45	10	0	0.1	0	0	363	0.2	362	363	10.9	88.0
2025-10-11T19:46	10	0	0.1	0	1	363	0.3	362	363	10.9	87.5
2025-10-11T19:47	10	0	0.2	0	1	363	0.3	362	364	11.0	87.0
2025-10-11T19:48	10	0	0.1	0	1	363	0.2	362	363	11.0	87.2
2025-10-11T19:49	10	0	0.2	0	1	363	0.3	362	363	10.9	88.3
2025-10-11T19:50	10	0	0.1	0	1	363	0.2	362	363	10.9	88.3
2025-10-11T19:51	10	0	0.1	0	1	363	0.3	362	363	11.0	87.6
2025-10-11T19:52	10	0	0.1	0	1	363	0.3	362	363	11.0	87.3
2025-10-11T19:53	10	0	0.1	0	1	362	0.2	362	363	11.0	87.9
2025-10-11T19:54	10	0	0.1	0	1	362	0.2	362	363	10.9	88.4
2025-10-11T19:55	10	0	0.1	0	1	362	0.3	362	363	10.9	88.2
2025-10-11T19:56	10	0	0.1	0	1	362	0.3	361	363	10.9	88.7
2025-10-11T19:57	10	0	0.1	0	1	362	0.3	361	362	10.9	89.3
2025-10-11T19:58	10	0	0.1	0	1	362	0.2	361	362	10.8	89.7
2025-10-11T19:59	10	0	0.1	0	1	362	0.2	361	362	10.8	89.6
2025-10-11T20:00	10	0	0.1	0	1	362	0.2	362	362	10.8	89.1
2025-10-11T20:01	10	0	0.1	0	1	362	0.2	361	362	10.8	89.0
2025-10-11T20:02	10	0	0.1	0	1	362	0.3	361	363	10.9	89.1
2025-10-11T20:03	10	0	0.2	0	1	362	0.2	361	363	10.9	88.5
2025-10-11T20:04	10	0	0.2	0	1	362	0.3	361	362	10.9	87.9
2025-10-11T20:05	10	0	0.1	0	1	362	0.2	361	362	10.9	87.6
2025-10-11T20:06	10	0	0.1	0	1	362	0.3	361	363	10.9	87.4
2025-10-11T20:07	10	0	0.1	0	1	362	0.2	361	362	10.9	87.1
2025-10-11T20:08	10	0	0.1	0	1	361	0.3	361	362	10.9	87.7
2025-10-11T20:09	10	0	0.1	0	0	361	0.4	360	362	10.9	87.8
2025-10-11T20:10	10	0	0.2	0	1	361	0.2	360	361	10.9	87.9
2025-10-11T20:11	10	0	0.1	0	1	360	0.2	360	361	10.8	88.2
2025-10-11T20:12	10	0	0.1	0	0	361	0.2	360	361	10.8	88.6
2025-10-11T20:13	10	0	0.1	0	0	360	0.3	360	361	10.7	89.8
2025-10-11T20:14	10	0	0.1	0	1	360	0.2	360	361	10.7	90.5
2025-10-11T20:15	10	0	0.1	0	1	360	0.2	360	361	10.7	89.2
2025-10-11T20:16	10	0	0.1	0	0	360	0.3	360	361	10.7	88.5
2025-10-11T20:17	10	0	0.1	0	1	360	0.2	360	361	10.7	89.1
2025-10-11T20:18	10	0	0.1	0	1	360	0.2	360	361	10.7	88.9
2025-10-11T20:19	10	0	0.1	0	0	361	0.3	360	361	10.7	88.2
2025-10-11T20:20	10	0	0.1	0	0	360	0.2	360	361	10.7	88.5
2025-10-11T20:21	10	0	0.1	0	0	361	0.4	360	362	10.7	88.2
2025-10-11T20:22	10	0	0.1	0	0	361	0.3	360	361	10.7	88.5
2025-10-11T20:23	10	0	0.1	0	1	361	0.2	360	361	10.7	88.2
2025-10-11T20:24	10	0	0.0	0	0	361	0.2	361	361	10.7	88.0
2025-10-11T20:25	10	0	0.1	0	1	361	0.2	360	361	10.6	88.7
2025-10-11T20:26	10	0	0.1	0	1	361	0.2	361	362	10.6	88.5
2025-10-11T20:27	10	0	0.1	0	0	361	0.2	361	361	10.6	88.5
2025-10-11T20:28	10	0	0.1	0	0	361	0.2	361	362	10.6	88.6
2025-10-11T20:29	10	0	0.1	0	0	361	0.2	361	362	10.7	88.3
2025-10-11T20:30	10	0	0.1	0	1	361	0.2	361	362	10.7	88.4
2025-10-11T20:31	10	0	0.1	0	1	361	0.2	361	362	10.7	87.8
2025-10-11T20:32	10	0	0.1	0	0	361	0.2	361	362	10.7	88.1
2025-10-11T20:33	10	0	0.1	0	1	361	0.2	361	362	10.7	88.3
2025-10-11T20:34	10	0	0.1	0	1	361	0.2	361	362	10.6	88.6
2025-10-11T20:35	10	0	0.1	0	1	361	0.2	360	362	10.6	88.8
2025-10-11T20:36	10	0	0.1	0	1	361	0.2	360	362	10.6	88.8
2025-10-11T20:37	10	0	0.1	0	1	361	0.3	360	362	10.6	89.2
2025-10-11T20:38	10	0	0.1	0	1	361	0.3	360	361	10.6	89.3
2025-10-11T20:39	10	0	0.1	0	1	360	0.2	360	361	10.6	89.0
2025-10-11T20:40	10	0	0.1	0	0	360	0.3	360	361	10.6	89.0
2025-10-11T20:41	10	0	0.1	0	1	360	0.2	359	360	10.6	89.1
2025-10-11T20:42	10	0	0.1	0	1	359	0.2	359	360	10.6	89.2
2025-10-11T20:43	10	0	0.1	0	1	359	0.2	359	360	10.6	88.8
2025-10-11T20:44	10	0	0.1	0	1	359	0.2	359	360	10.6	88.8
2025-10-11T20:45	10	0	0.1	0	1	358	0.3	358	359	10.6	89.1
2025-10-11T20:46	10	0	0.1	0	1	358	0.2	358	359	10.6	89.1
2025-10-11T20:47	10	0	0.1	0	0	358	0.2	357	358	10.6	89.1
2025-10-11T20:48	10	0	0.1	0	1	358	0.2	357	358	10.6	89.3
2025-10-11T20:49	10	0	0.1	0	0	358	0.2	357	358	10.5	89.7
2025-10-11T20:50	10	0	0.1	0	1	358	0.2	357	358	10.5	89.9
2025-10-11T20:51	10	0	0.1	0	0	357	0.2	357	358	10.5	90.2
2025-10-11T20:52	10	0	0.1	0	1	357	0.2	357	358	10.4	91.2
2025-10-11T20:53	10	0	0.1	0	1	357	0.2	357	357	10.4	90.8
2025-10-11T20:54	10	0	0.1	0	1	357	0.2	356	357	10.4	90.5
2025-10-11T20:55	10	0	0.1	0	0	356	0.2	356	357	10.4	90.9
2025-10-11T20:56	10	0	0.1	0	1	356	0.2	356	357	10.4	90.2
2025-10-11T20:57	10	0	0.1	0	0	356	0.2	355	357	10.4	90.2
2025-10-11T20:58	10	0	0.1	0	0	356	0.2	356	357	10.4	90.6
2025-10-11T20:59	10	0	0.1	0	0	356	0.3	356	357	10.4	90.7
2025-10-11T21:00	10	0	0.1	0	0	357	0.2	356	357	10.4	91.4
2025-10-11T21:01	10	0	0.1	0	0	357	0.2	357	358	10.4	91.8
2025-10-11T21:02	10	0	0.1	0	0	357	0.2	357	358	10.4	91.6
2025-10-11T21:03	10	0	0.1	0	0	358	0.2	357	358	10.4	91.1
2025-10-11T21:04	10	0	0.1	0	0	357	0.2	357	358	10.4	91.0
2025-10-11T21:05	10	0	0.1	0	0	357	0.2	357	358	10.4	91.2
2025-10-11T21:06	10	0	0.1	0	0	358	0.2	357	358	10.3	91.7
2025-10-11T21:07	10	0	0.1	0	0	358	0.2	357	358	10.3	92.8
2025-10-11T21:08	10	0	0.1	0	0	358	0.2	357	358	10.3	93.3
2025-10-11T21:09	10	0	0.1	0	0	358	0.2	358	358	10.3	93.2
2025-10-11T21:10	10	0	0.1	0	0	358	0.2	358	358	10.3	93.1
2025-10-11T21:11	10	0	0.1	0	0	358	0.2	358	358	10.3	93.0
2025-10-11T21:12	10	0	0.1	0	0	358	0.2	357	358	10.3	92.9
2025-10-11T21:13	10	0	0.1	0	0	358	0.3	357	358	10.3	93.0
2025-10-11T21:14	10	0	0.1	0	0	358	0.2	357	358	10.3	93.4
2025-10-11T21:15	10	0	0.1	0	0	358	0.2	357	358	10.3	93.6
2025-10-11T21:16	10	0	0.0	0	0	358	0.2	357	358	10.3	93.6
2025-10-11T21:17	10	0	0.1	0	0	358	0.3	357	358	10.3	93.4
2025-10-11T21:18	10	0	0.1	0	0	358	0.2	358	359	10.3	93.3
2025-10-11T21:19	10	0	0.1	0	0	358	0.2	358	359	10.3	92.9
2025-10-11T21:20	10	0	0.1	0	0	358	0.2	358	359	10.3	92.3
2025-10-11T21:21	10	0	0.1	0	0	358	0.2	358	359	10.4	91.8
2025-10-11T21:22	10	0	0.1	0	0	358	0.2	358	359	10.4	91.2
2025-10-11T21:23	10	0	0.1	0	0	358	0.3	358	359	10.4	90.9
2025-10-11T21:24	10	0	0.1	0	0	358	0.2	358	359	10.5	90.7
2025-10-11T21:25	10	0	0.1	0	0	358	0.2	358	359	10.5	90.3
2025-10-11T21:26	10	0	0.1	0	0	358	0.3	358	359	10.5	90.0
2025-10-11T21:27	10	0	0.1	0	0	359	0.2	358	359	10.5	89.6
2025-10-11T21:28	10	0	0.1	0	0	359	0.2	358	359	10.6	89.4
2025-10-11T21:29	10	0	0.0	0	0	359	0.2	358	359	10.6	89.3
2025-10-11T21:30	10	0	0.1	0	0	359	0.2	359	360	10.6	89.5
2025-10-11T21:31	10	0	0.1	0	0	359	0.2	359	360	10.5	90.1
2025-10-11T21:32	10	0	0.1	0	0	359	0.2	359	360	10.5	90.8
2025-10-11T21:33	10	0	0.1	0	0	359	0.2	359	360	10.4	91.6
2025-10-11T21:34	10	0	0.1	0	0	360	0.2	359	360	10.4	91.6
2025-10-11T21:35	10	0	0.1	0	0	360	0.2	359	360	10.4	91.6
2025-10-11T21:36	10	0	0.1	0	0	360	0.2	359	360	10.4	92.3
2025-10-11T21:37	10	0	0.1	0	0	360	0.2	360	360	10.3	93.3
2025-10-11T21:38	10	0	0.1	0	0	360	0.2	360	360	10.3	92.8
2025-10-11T21:39	10	0	0.1	0	0	360	0.2	359	360	10.3	92.8
2025-10-11T21:40	10	0	0.1	0	0	360	0.2	359	360	10.3	92.9
2025-10-11T21:41	10	0	0.1	0	0	360	0.2	359	360	10.3	92.8
2025-10-11T21:42	10	0	0.1	0	0	360	0.2	359	360	10.3	92.8
2025-10-11T21:43	10	0	0.1	0	0	360	0.2	360	360	10.3	92.8
2025-10-11T21:44	10	0	0.0	0	0	360	0.2	360	361	10.3	92.6
2025-10-11T21:45	10	0	0.1	0	0	360	0.3	360	361	10.3	92.6
2025-10-11T21:46	10	0	0.0	0	0	360	0.2	360	361	10.3	92.4
2025-10-11T21:47	10	0	0.1	0	0	361	0.2	360	361	10.3	92.3
2025-10-11T21:48	10	0	0.1	0	0	361	0.2	360	361	10.4	92.1
2025-10-11T21:49	10	0	0.1	0	0	361	0.2	360	361	10.4	92.1
2025-10-11T21:50	10	0	0.1	0	0	361	0.2	360	361	10.4	92.1
2025-10-11T21:51	10	0	0.0	0	0	361	0.2	360	361	10.4	92.1
2025-10-11T21:52	10	0	0.0	0	0	361	0.2	360	361	10.3	92.6
2025-10-11T21:53	10	0	0.1	0	0	361	0.2	361	361	10.3	92.8
2025-10-11T21:54	10	0	0.1	0	0	361	0.2	360	362	10.3	92.8
2025-10-11T21:55	10	0	0.0	0	0	361	0.2	361	362	10.3	93.2
2025-10-11T21:56	10	0	0.1	0	0	361	0.2	361	362	10.3	93.3
2025-10-11T21:57	10	0	0.1	0	0	361	0.2	361	362	10.3	93.6
2025-10-11T21:58	10	0	0.1	0	0	361	0.2	361	362	10.3	93.7
2025-10-11T21:59	10	0	0.1	0	0	361	0.2	361	362	10.3	94.1
2025-10-11T22:00	10	0	0.1	0	0	361	0.2	361	362	10.3	94.3
2025-10-11T22:01	10	0	0.1	0	0	361	0.3	361	362	10.3	94.3
2025-10-11T22:02	10	0	0.1	0	0	362	0.2	361	362	10.3	94.4
2025-10-11T22:03	10	0	0.1	0	0	362	0.2	361	362	10.3	94.2
2025-10-11T22:04	10	0	0.1	0	0	362	0.2	361	362	10.3	94.1
2025-10-11T22:05	10	0	0.0	0	0	362	0.2	361	362	10.3	94.2
2025-10-11T22:06	10	0	0.1	0	0	362	0.3	361	363	10.3	94.8
2025-10-11T22:07	10	0	0.0	0	0	362	0.3	361	363	10.3	94.9
2025-10-11T22:08	10	0	0.1	0	0	362	0.2	362	363	10.3	93.3
2025-10-11T22:09	10	0	0.1	0	0	362	0.2	362	363	10.4	92.2
2025-10-11T22:10	10	0	0.1	0	0	362	0.2	362	363	10.4	91.8
2025-10-11T22:11	10	0	0.1	0	0	362	0.2	362	363	10.4	91.3
2025-10-11T22:12	10	0	0.0	0	0	362	0.2	362	363	10.4	91.6
2025-10-11T22:13	10	0	0.0	0	0	362	0.2	362	363	10.4	91.6
2025-10-11T22:14	10	0	0.0	0	0	363	0.2	362	363	10.4	91.3
2025-10-11T22:15	10	0	0.1	0	0	363	0.3	362	363	10.4	90.7
2025-10-11T22:16	10	0	0.1	0	0	363	0.3	362	363	10.4	90.3
2025-10-11T22:17	10	0	0.0	0	0	363	0.2	363	364	10.4	90.5
2025-10-11T22:18	10	0	0.0	0	0	363	0.2	362	363	10.4	90.1
2025-10-11T22:19	10	0	0.0	0	0	363	0.2	363	364	10.4	89.4
2025-10-11T22:20	10	0	0.0	0	0	363	0.2	362	363	10.5	89.4
2025-10-11T22:21	10	0	0.1	0	0	363	0.2	363	364	10.5	89.6
2025-10-11T22:22	10	0	0.1	0	1	363	0.2	363	363	10.5	89.3
2025-10-11T22:23	10	0	0.0	0	0	363	0.2	363	363	10.5	89.5
2025-10-11T22:24	10	0	0.1	0	1	363	0.2	363	364	10.6	89.5
2025-10-11T22:25	10	0	0.0	0	0	363	0.2	362	363	10.6	89.5
2025-10-11T22:26	10	0	0.0	0	0	363	0.2	362	363	10.6	89.4
2025-10-11T22:27	10	0	0.1	0	1	363	0.2	363	363	10.6	89.4
2025-10-11T22:28	10	0	0.0	0	0	363	0.2	363	364	10.6	91.3
2025-10-11T22:29	10	0	0.1	0	0	363	0.2	362	363	10.5	91.5
2025-10-11T22:30	10	0	0.0	0	0	363	0.2	362	363	10.5	91.0
2025-10-11T22:31	10	0	0.1	0	0	363	0.2	362	363	10.5	90.8
2025-10-11T22:32	10	0	0.0	0	0	363	0.2	362	363	10.5	91.3
2025-10-11T22:33	10	0	0.1	0	1	363	0.2	362	363	10.5	91.9
2025-10-11T22:34	10	0	0.0	0	0	363	0.2	362	363	10.5	91.8
2025-10-11T22:35	10	0	0.1	0	0	363	0.3	362	363	10.5	91.3
2025-10-11T22:36	10	0	0.1	0	0	363	0.2	363	363	10.6	90.1
2025-10-11T22:37	10	0	0.0	0	0	363	0.2	363	363	10.6	88.8
2025-10-11T22:38	10	0	0.1	0	0	363	0.3	362	364	10.6	88.6
2025-10-11T22:39	10	0	0.0	0	0	363	0.2	363	363	10.6	91.1
2025-10-11T22:40	10	0	0.0	0	0	363	0.2	363	363	10.6	91.4
2025-10-11T22:41	10	0	0.1	0	0	363	0.3	362	363	10.5	92.9
2025-10-11T22:42	10	0	0.1	0	0	363	0.2	362	363	10.4	93.8
2025-10-11T22:43	10	0	0.1	0	0	362	0.2	362	363	10.4	94.2
2025-10-11T22:44	10	0	0.0	0	0	362	0.2	362	363	10.3	94.5
2025-10-11T22:45	10	0	0.1	0	0	362	0.2	362	363	10.3	94.7
2025-10-11T22:46	10	0	0.0	0	0	362	0.2	362	363	10.3	94.5
2025-10-11T22:47	10	0	0.1	0	0	362	0.3	362	363	10.3	94.5
2025-10-11T22:48	10	0	0.1	0	0	362	0.2	362	363	10.3	94.6
2025-10-11T22:49	10	0	0.1	0	0	362	0.2	362	363	10.3	94.7
2025-10-11T22:50	10	0	0.1	0	0	362	0.2	362	363	10.3	94.7
2025-10-11T22:51	10	0	0.0	0	0	362	0.3	362	363	10.3	94.7
2025-10-11T22:52	10	0	0.1	0	0	362	0.2	362	363	10.3	94.7
2025-10-11T22:53	10	0	0.1	0	0	362	0.2	361	363	10.2	94.8
2025-10-11T22:54	10	0	0.0	0	0	362	0.2	362	362	10.2	94.8
2025-10-11T22:55	10	0	0.1	0	0	362	0.2	361	362	10.2	94.9
2025-10-11T22:56	10	0	0.1	0	0	362	0.2	361	362	10.2	95.1
2025-10-11T22:57	10	0	0.1	0	0	362	0.2	361	362	10.1	95.2
2025-10-11T22:58	10	0	0.1	0	0	362	0.2	361	362	10.1	95.2
2025-10-11T22:59	10	0	0.1	0	0	362	0.2	362	362	10.2	95.0
2025-10-11T23:00	10	0	0.1	0	0	362	0.3	361	362	10.2	95.0
2025-10-11T23:01	10	0	0.1	0	0	362	0.2	361	362	10.2	94.8
2025-10-11T23:02	10	0	0.1	0	0	362	0.2	362	363	10.2	94.5
2025-10-11T23:03	10	0	0.1	0	0	362	0.3	362	363	10.2	94.4
2025-10-11T23:04	10	0	0.1	0	0	362	0.2	361	362	10.2	94.6
2025-10-11T23:05	10	0	0.1	0	0	362	0.3	361	363	10.1	94.8
2025-10-11T23:06	10	0	0.1	0	0	361	0.3	361	362	10.0	95.0
2025-10-11T23:07	10	0	0.1	0	0	362	0.2	361	362	10.0	95.3
2025-10-11T23:08	10	0	0.1	0	0	361	0.2	361	362	10.1	95.4
2025-10-11T23:09	10	0	0.0	0	0	362	0.2	361	362	10.1	95.5
2025-10-11T23:10	10	0	0.0	0	0	362	0.2	361	362	10.1	95.1
2025-10-11T23:11	10	0	0.1	0	0	362	0.2	361	362	10.2	94.5
2025-10-11T23:12	10	0	0.1	0	0	362	0.3	361	362	10.2	94.3
2025-10-11T23:13	10	0	0.1	0	0	361	0.2	361	362	10.1	94.4
2025-10-11T23:14	10	0	0.1	0	0	361	0.2	361	362	10.0	94.5
2025-10-11T23:15	10	0	0.1	0	0	361	0.2	361	361	10.0	94.6
2025-10-11T23:16	10	0	0.0	0	0	361	0.2	361	361	10.0	94.6
2025-10-11T23:17	10	0	0.1	0	0	361	0.2	361	362	10.0	94.7
2025-10-11T23:18	10	0	0.1	0	0	361	0.2	361	362	10.0	94.6
2025-10-11T23:19	10	0	0.1	0	0	361	0.2	361	362	10.1	94.4
2025-10-11T23:20	10	0	0.1	0	0	361	0.2	361	362	10.1	94.2
2025-10-11T23:21	10	0	0.1	0	0	361	0.2	361	362	10.1	94.1
2025-10-11T23:22	10	0	0.1	0	0	362	0.3	361	362	10.1	93.8
2025-10-11T23:23	10	0	0.1	0	0	361	0.2	361	362	10.1	93.7
2025-10-11T23:24	10	0	0.0	0	0	361	0.2	361	362	10.1	93.8
2025-10-11T23:25	10	0	0.1	0	0	362	0.2	361	362	10.1	93.7
2025-10-11T23:26	10	0	0.1	0	0	362	0.2	361	362	10.1	93.8
2025-10-11T23:27	10	0	0.1	0	0	361	0.3	361	362	10.1	93.9
2025-10-11T23:28	10	0	0.0	0	0	361	0.2	361	362	10.1	93.9
2025-10-11T23:29	10	0	0.0	0	0	361	0.2	361	362	10.1	93.8
2025-10-11T23:30	10	0	0.0	0	0	361	0.3	361	362	10.1	93.9
2025-10-11T23:31	10	0	0.1	0	0	362	0.2	361	362	10.1	93.8
2025-10-11T23:32	10	0	0.0	0	0	362	0.3	361	362	10.1	93.7
2025-10-11T23:33	10	0	0.0	0	0	362	0.2	361	362	10.2	93.8
2025-10-11T23:34	10	0	0.1	0	0	362	0.2	361	362	10.2	93.8
2025-10-11T23:35	10	0	0.0	0	0	362	0.2	361	362	10.2	93.8
2025-10-11T23:36	10	0	0.0	0	0	362	0.2	361	362	10.2	93.8
2025-10-11T23:37	10	0	0.0	0	0	362	0.3	361	363	10.2	93.6
2025-10-11T23:38	10	0	0.1	0	0	362	0.2	361	362	10.2	93.3
2025-10-11T23:39	10	0	0.0	0	0	362	0.3	361	362	10.2	93.3
2025-10-11T23:40	10	0	0.0	0	0	362	0.2	361	362	10.2	93.2
2025-10-11T23:41	10	0	0.1	0	0	361	0.2	361	362	10.1	92.8
2025-10-11T23:42	10	0	0.1	0	0	361	0.2	361	362	10.1	92.9
2025-10-11T23:43	10	0	0.0	0	0	361	0.2	361	362	10.1	92.8
2025-10-11T23:44	10	0	0.1	0	0	361	0.2	361	362	10.0	92.9
2025-10-11T23:45	10	0	0.0	0	0	361	0.2	361	362	10.1	92.9
2025-10-11T23:46	10	0	0.1	0	0	361	0.2	361	362	10.2	93.3
2025-10-11T23:47	10	0	0.1	0	0	362	0.2	361	362	10.2	93.3
2025-10-11T23:48	10	0	0.0	0	0	362	0.2	361	362	10.2	93.2
2025-10-11T23:49	10	0	0.0	0	0	361	0.3	361	362	10.2	93.0
2025-10-11T23:50	10	0	0.0	0	0	362	0.2	361	362	10.2	92.8
2025-10-11T23:51	10	0	0.1	0	0	362	0.2	361	362	10.2	92.4
2025-10-11T23:52	10	0	0.0	0	0	362	0.2	361	362	10.2	92.2
2025-10-11T23:53	10	0	0.1	0	0	361	0.2	361	362	10.2	92.7
2025-10-11T23:54	10	0	0.1	0	0	361	0.3	361	362	10.1	93.8
2025-10-11T23:55	10	0	0.1	0	0	361	0.3	361	362	10.1	94.4
2025-10-11T23:56	10	0	0.1	0	0	361	0.2	360	361	10.0	94.8
2025-10-11T23:57	10	0	0.1	0	0	361	0.2	361	362	10.0	94.8
2025-10-11T23:58	10	0	0.1	0	0	361	0.2	360	362	10.0	94.8
2025-10-11T23:59	10	0	0.1	0	0	361	0.2	361	362	10.0	94.6
2025-10-12T00:00	10	0	0.1	0	0	361	0.2	361	362	10.0	94.1
2025-10-12T00:01	10	0	0.1	0	0	361	0.2	361	362	10.0	94.1
2025-10-12T00:02	10	0	0.1	0	0	361	0.2	361	361	10.0	94.6
2025-10-12T00:03	10	0	0.1	0	0	361	0.2	360	361	9.9	94.4
2025-10-12T00:04	10	0	0.1	0	0	361	0.2	361	362	10.0	94.2
2025-10-12T00:05	10	0	0.1	0	0	361	0.2	361	362	10.0	94.9
2025-10-12T00:06	10	0	0.1	0	0	361	0.2	361	361	10.0	95.3
2025-10-12T00:07	10	0	0.1	0	0	361	0.2	360	361	9.9	95.6
2025-10-12T00:08	10	0	0.1	0	0	361	0.2	360	361	9.8	95.9
2025-10-12T00:09	10	0	0.1	0	0	360	0.2	360	361	9.8	95.9
2025-10-12T00:10	10	0	0.1	0	0	360	0.2	360	361	9.8	96.0
2025-10-12T00:11	10	0	0.1	0	0	361	0.2	360	361	9.8	95.9
2025-10-12T00:12	10	0	0.1	0	0	361	0.2	360	361	9.8	95.8
2025-10-12T00:13	10	0	0.1	0	0	360	0.2	360	361	9.8	95.5
2025-10-12T00:14	10	0	0.1	0	0	360	0.2	360	361	9.8	95.4
2025-10-12T00:15	10	0	0.1	0	0	360	0.2	360	361	9.8	95.6
2025-10-12T00:16	10	0	0.1	0	0	360	0.2	360	361	9.8	95.9
2025-10-12T00:17	10	0	0.1	0	0	361	0.2	360	361	9.8	95.9
2025-10-12T00:18	10	0	0.1	0	0	361	0.2	360	361	9.8	96.2
2025-10-12T00:19	10	0	0.1	0	0	361	0.2	360	361	9.8	96.3
2025-10-12T00:20	10	0	0.1	0	0	361	0.3	360	362	9.8	96.3
2025-10-12T00:21	10	0	0.1	0	0	361	0.2	360	361	9.8	96.2
2025-10-12T00:22	10	0	0.1	0	0	361	0.2	360	361	9.8	96.1
2025-10-12T00:23	10	0	0.1	0	0	361	0.2	360	361	9.8	95.9
2025-10-12T00:24	10	0	0.1	0	0	361	0.2	360	361	9.8	95.8
2025-10-12T00:25	10	0	0.0	0	0	361	0.2	360	361	9.8	95.8
2025-10-12T00:26	10	0	0.1	0	0	361	0.2	360	361	9.8	95.5
2025-10-12T00:27	10	0	0.1	0	0	361	0.2	360	361	9.8	95.3
2025-10-12T00:28	10	0	0.1	0	0	361	0.2	360	361	9.8	95.2
2025-10-12T00:29	10	0	0.1	0	0	361	0.2	360	361	9.9	94.9
2025-10-12T00:30	10	0	0.1	0	0	361	0.2	360	361	9.9	95.0
2025-10-12T00:31	10	0	0.1	0	0	361	0.3	360	361	9.9	95.0
2025-10-12T00:32	10	0	0.1	0	0	361	0.3	360	361	9.9	94.6
2025-10-12T00:33	10	0	0.1	0	0	361	0.2	360	361	10.0	94.5
2025-10-12T00:34	10	0	0.0	0	0	361	0.2	360	361	10.0	94.4
2025-10-12T00:35	10	0	0.1	0	0	361	0.2	361	362	10.0	94.3
2025-10-12T00:36	10	0	0.0	0	0	361	0.2	361	362	10.1	94.3
2025-10-12T00:37	10	0	0.0	0	0	361	0.2	361	362	10.1	94.3
2025-10-12T00:38	10	0	0.1	0	0	361	0.2	361	362	10.1	94.2
2025-10-12T00:39	10	0	0.1	0	0	361	0.2	361	362	10.1	94.0
2025-10-12T00:40	10	0	0.0	0	0	361	0.2	361	362	10.1	94.3
2025-10-12T00:41	10	0	0.1	0	0	361	0.3	361	362	10.0	94.5
2025-10-12T00:42	10	0	0.0	0	0	361	0.2	361	362	10.1	94.6
2025-10-12T00:43	10	0	0.0	0	0	361	0.2	361	362	10.1	94.0
2025-10-12T00:44	10	0	0.0	0	0	361	0.2	361	362	10.1	94.2
2025-10-12T00:45	10	0	0.0	0	0	361	0.2	361	362	10.1	94.5
2025-10-12T00:46	10	0	0.1	0	1	361	0.3	361	362	10.0	94.9
2025-10-12T00:47	10	0	0.1	0	0	361	0.2	361	362	10.0	95.1
2025-10-12T00:48	10	0	0.1	0	0	361	0.2	360	362	10.0	94.7
2025-10-12T00:49	10	0	0.0	0	0	361	0.2	361	362	10.0	94.7
2025-10-12T00:50	10	0	0.1	0	0	362	0.2	361	362	10.0	94.8
2025-10-12T00:51	10	0	0.1	0	0	361	0.3	361	362	10.0	94.6
2025-10-12T00:52	10	0	0.0	0	0	361	0.2	361	362	10.0	94.6
2025-10-12T00:53	10	0	0.1	0	0	361	0.3	361	362	10.0	94.8
2025-10-12T00:54	10	0	0.1	0	0	361	0.3	361	362	10.0	95.2
2025-10-12T00:55	10	0	0.1	0	0	361	0.2	361	362	10.0	94.5
2025-10-12T00:56	10	0	0.0	0	0	361	0.2	361	362	10.0	94.2
2025-10-12T00:57	10	0	0.1	0	0	361	0.2	361	362	10.0	93.9
2025-10-12T00:58	10	0	0.1	0	0	361	0.3	361	362	10.1	94.1
2025-10-12T00:59	10	0	0.0	0	0	362	0.3	361	362	10.1	94.7
2025-10-12T01:00	10	0	0.1	0	0	361	0.2	361	362	10.1	95.0
2025-10-12T01:01	10	0	0.0	0	0	362	0.2	361	362	10.1	94.1
2025-10-12T01:02	10	0	0.1	0	0	361	0.2	361	362	10.1	94.1
2025-10-12T01:03	10	0	0.0	0	0	361	0.2	361	362	10.1	94.2
2025-10-12T01:04	10	0	0.1	0	0	361	0.2	361	362	10.1	93.9
2025-10-12T01:05	10	0	0.1	0	0	361	0.2	361	362	10.1	93.7
2025-10-12T01:06	10	0	0.1	0	0	361	0.2	361	362	10.1	93.7
2025-10-12T01:07	10	0	0.0	0	0	362	0.2	361	362	10.1	93.8
2025-10-12T01:08	10	0	0.1	0	0	361	0.3	361	362	10.1	93.6
2025-10-12T01:09	10	0	0.0	0	0	361	0.2	361	362	10.1	93.6
2025-10-12T01:10	10	0	0.0	0	0	361	0.2	361	362	10.1	93.9
2025-10-12T01:11	10	0	0.1	0	0	362	0.2	361	362	10.1	93.9
2025-10-12T01:12	10	0	0.1	0	0	362	0.2	361	362	10.1	94.1
2025-10-12T01:13	10	0	0.1	0	0	361	0.2	361	362	10.1	94.1
2025-10-12T01:14	10	0	0.1	0	0	361	0.2	361	362	10.1	93.8
2025-10-12T01:15	10	0	0.1	0	0	361	0.2	361	362	10.1	93.8
2025-10-12T01:16	10	0	0.0	0	0	362	0.2	361	362	10.2	94.1
2025-10-12T01:17	10	0	0.1	0	0	361	0.2	361	362	10.2	94.4
2025-10-12T01:18	10	0	0.1	0	0	362	0.2	361	362	10.2	94.5
2025-10-12T01:19	10	0	0.1	0	0	362	0.2	361	362	10.2	94.5
2025-10-12T01:20	10	0	0.1	0	0	361	0.2	361	362	10.1	94.9
2025-10-12T01:21	10	0	0.1	0	0	362	0.2	361	362	10.1	95.0
2025-10-12T01:22	10	0	0.1	0	0	361	0.2	361	362	10.1	94.7
2025-10-12T01:23	10	0	0.0	0	0	362	0.2	361	362	10.1	94.5
2025-10-12T01:24	10	0	0.1	0	0	362	0.2	361	362	10.1	94.6
2025-10-12T01:25	10	0	0.0	0	0	361	0.3	361	362	10.1	94.6
2025-10-12T01:26	10	0	0.1	0	0	362	0.2	361	362	10.1	94.6
2025-10-12T01:27	10	0	0.1	0	0	362	0.2	361	362	10.1	94.3
2025-10-12T01:28	10	0	0.1	0	0	362	0.2	361	362	10.1	94.3
2025-10-12T01:29	10	0	0.0	0	0	362	0.2	361	362	10.1	95.1
2025-10-12T01:30	10	0	0.1	0	0	362	0.3	361	362	10.1	95.1
2025-10-12T01:31	10	0	0.0	0	0	362	0.2	361	362	10.1	95.1
2025-10-12T01:32	10	0	0.1	0	0	362	0.2	361	362	10.1	95.2
2025-10-12T01:33	10	0	0.1	0	0	361	0.3	361	362	10.1	94.8
2025-10-12T01:34	10	0	0.1	0	1	362	0.2	361	362	10.1	94.7
2025-10-12T01:35	10	0	0.1	0	0	362	0.2	361	362	10.1	94.6
2025-10-12T01:36	10	0	0.1	0	0	362	0.2	361	362	10.1	94.8
2025-10-12T01:37	10	0	0.1	0	0	362	0.2	361	362	10.1	95.1
2025-10-12T01:38	10	0	0.1	0	1	362	0.2	361	362	10.1	95.1
2025-10-12T01:39	10	0	0.1	0	1	362	0.3	361	362	10.1	94.9
2025-10-12T01:40	10	0	0.1	0	0	362	0.2	361	362	10.1	94.5
2025-10-12T01:41	10	0	0.1	0	0	362	0.3	361	362	10.1	94.4
2025-10-12T01:42	10	0	0.1	0	0	361	0.2	361	362	10.1	94.5
2025-10-12T01:43	10	0	0.1	0	1	362	0.2	361	362	10.1	94.1
2025-10-12T01:44	10	0	0.1	0	0	362	0.2	361	362	10.1	94.1
2025-10-12T01:45	10	0	0.1	0	0	362	0.2	361	362	10.1	94.3
2025-10-12T01:46	10	0	0.0	0	0	362	0.2	361	362	10.1	94.5
2025-10-12T01:47	10	0	0.1	0	1	362	0.2	361	362	10.1	94.1
2025-10-12T01:48	10	0	0.1	0	0	362	0.2	361	362	10.1	93.9
2025-10-12T01:49	10	0	0.1	0	0	362	0.3	361	362	10.2	93.6
2025-10-12T01:50	10	0	0.1	0	1	362	0.3	361	362	10.2	93.3
2025-10-12T01:51	10	0	0.1	0	0	362	0.2	361	362	10.2	93.4
2025-10-12T01:52	10	0	0.1	0	0	362	0.3	361	363	10.2	93.5
2025-10-12T01:53	10	0	0.1	0	0	362	0.2	361	362	10.2	93.5
2025-10-12T01:54	10	0	0.1	0	0	362	0.2	361	362	10.1	94.2
2025-10-12T01:55	10	0	0.1	0	0	361	0.3	361	362	10.1	93.9
2025-10-12T01:56	10	0	0.1	0	0	361	0.3	360	362	10.1	93.8
2025-10-12T01:57	10	0	0.1	0	0	361	0.2	361	362	10.1	93.9
2025-10-12T01:58	10	0	0.1	0	0	361	0.3	361	362	10.1	93.9
2025-10-12T01:59	10	0	0.1	0	0	361	0.2	361	362	10.1	94.1
2025-10-12T02:00	10	0	0.1	0	0	362	0.2	361	362	10.2	93.7
2025-10-12T02:01	10	0	0.1	0	0	362	0.2	361	362	10.2	93.5
2025-10-12T02:02	10	0	0.1	0	0	362	0.2	361	362	10.2	93.3
2025-10-12T02:03	10	0	0.0	0	0	362	0.2	361	362	10.3	92.9
2025-10-12T02:04	10	0	0.1	0	0	362	0.3	361	362	10.4	90.8
2025-10-12T02:05	10	0	0.1	0	0	362	0.2	361	362	10.4	90.4
2025-10-12T02:06	10	0	0.0	0	0	362	0.2	361	362	10.3	92.1
2025-10-12T02:07	10	0	0.0	0	0	362	0.3	361	362	10.3	93.0
2025-10-12T02:08	10	0	0.1	0	0	362	0.3	361	362	10.2	93.2
2025-10-12T02:09	10	0	0.1	0	0	362	0.2	361	362	10.2	93.5
2025-10-12T02:10	10	0	0.1	0	0	362	0.2	361	362	10.2	93.8
2025-10-12T02:11	10	0	0.1	0	0	362	0.2	361	362	10.2	93.9
2025-10-12T02:12	10	0	0.1	0	0	361	0.2	361	362	10.2	94.1
2025-10-12T02:13	10	0	0.0	0	0	362	0.2	361	362	10.2	94.0
2025-10-12T02:14	10	0	0.1	0	0	362	0.2	361	362	10.2	94.1
2025-10-12T02:15	10	0	0.0	0	0	362	0.2	361	362	10.2	94.0
2025-10-12T02:16	10	0	0.1	0	0	362	0.2	361	362	10.2	93.5
2025-10-12T02:17	10	0	0.1	0	0	362	0.2	361	362	10.2	93.8
2025-10-12T02:18	10	0	0.1	0	0	362	0.2	361	362	10.2	93.3
2025-10-12T02:19	10	0	0.1	0	0	362	0.2	361	362	10.2	93.4
2025-10-12T02:20	10	0	0.1	0	0	362	0.2	361	362	10.2	93.6
2025-10-12T02:21	10	0	0.1	0	0	362	0.2	361	362	10.2	94.1
2025-10-12T02:22	10	0	0.1	0	0	361	0.2	361	362	10.1	94.4
2025-10-12T02:23	10	0	0.1	0	0	361	0.2	361	362	10.1	94.5
2025-10-12T02:24	10	0	0.1	0	0	361	0.3	361	362	10.1	94.3
2025-10-12T02:25	10	0	0.1	0	0	361	0.2	361	362	10.1	94.7
2025-10-12T02:26	10	0	0.1	0	0	361	0.2	361	362	10.1	94.6
2025-10-12T02:27	10	0	0.1	0	0	361	0.3	361	362	10.1	94.3
2025-10-12T02:28	10	0	0.1	0	0	362	0.2	361	362	10.1	93.9
2025-10-12T02:29	10	0	0.1	0	0	361	0.2	361	362	10.1	94.3
2025-10-12T02:30	10	0	0.1	0	0	361	0.2	361	362	10.1	94.4
2025-10-12T02:31	10	0	0.1	0	0	361	0.3	361	362	10.1	94.6
2025-10-12T02:32	10	0	0.1	0	0	361	0.2	361	362	10.1	94.9
2025-10-12T02:33	10	0	0.1	0	0	361	0.2	361	362	10.1	95.2
2025-10-12T02:34	10	0	0.1	0	0	361	0.2	361	362	10.1	95.4
2025-10-12T02:35	10	0	0.1	0	0	361	0.2	361	362	10.1	95.8
2025-10-12T02:36	10	0	0.1	0	0	361	0.2	361	362	10.1	95.8
2025-10-12T02:37	10	0	0.1	0	0	361	0.2	361	362	10.1	96.1
2025-10-12T02:38	10	0	0.1	0	0	361	0.2	361	362	10.1	95.9
2025-10-12T02:39	10	0	0.1	0	0	361	0.2	361	362	10.0	96.0
2025-10-12T02:40	10	0	0.1	0	0	361	0.2	361	362	10.0	96.1
2025-10-12T02:41	10	0	0.1	0	0	361	0.3	361	362	10.0	95.2
2025-10-12T02:42	10	0	0.1	0	0	361	0.2	361	362	10.0	95.0
2025-10-12T02:43	10	0	0.1	0	0	361	0.2	361	362	10.0	95.0
2025-10-12T02:44	10	0	0.1	0	0	361	0.2	361	361	10.0	95.1
2025-10-12T02:45	10	0	0.1	0	0	361	0.2	361	362	10.0	95.3
2025-10-12T02:46	10	0	0.1	0	0	361	0.2	361	362	10.0	95.4
2025-10-12T02:47	10	0	0.1	0	0	361	0.2	361	362	10.0	95.4
2025-10-12T02:48	10	0	0.1	0	0	361	0.3	360	362	10.0	95.3
2025-10-12T02:49	10	0	0.1	0	0	361	0.2	360	361	10.0	95.2
2025-10-12T02:50	10	0	0.1	0	0	361	0.2	360	361	10.0	94.8
2025-10-12T02:51	10	0	0.1	0	0	361	0.2	361	362	10.0	94.7
2025-10-12T02:52	10	0	0.1	0	0	361	0.2	360	362	10.0	94.6
2025-10-12T02:53	10	0	0.1	0	0	361	0.2	360	361	10.0	94.3
2025-10-12T02:54	10	0	0.1	0	0	361	0.3	360	362	10.0	94.2
2025-10-12T02:55	10	0	0.1	0	0	361	0.2	360	361	10.0	94.1
2025-10-12T02:56	10	0	0.1	0	0	361	0.2	361	361	10.0	93.9
2025-10-12T02:57	10	0	0.1	0	0	361	0.2	360	361	10.0	93.9
2025-10-12T02:58	10	0	0.1	0	0	361	0.2	360	361	10.0	93.9
2025-10-12T02:59	10	0	0.1	0	0	361	0.2	361	362	10.0	94.2
2025-10-12T03:00	10	0	0.1	0	0	361	0.2	360	362	10.0	94.1
2025-10-12T03:01	10	0	0.1	0	0	361	0.2	361	361	10.0	94.0
2025-10-12T03:02	10	0	0.1	0	0	361	0.2	361	361	10.0	94.1
2025-10-12T03:03	10	0	0.1	0	0	361	0.2	360	361	10.0	94.5
2025-10-12T03:04	10	0	0.0	0	0	361	0.2	360	361	10.0	94.3
2025-10-12T03:05	10	0	0.1	0	0	361	0.2	360	362	10.0	93.9
2025-10-12T03:06	10	0	0.1	0	0	361	0.2	361	361	10.0	93.7
2025-10-12T03:07	10	0	0.1	0	0	361	0.2	360	362	10.0	94.1
2025-10-12T03:08	10	0	0.1	0	0	361	0.2	361	362	10.0	94.1
2025-10-12T03:09	10	0	0.1	0	0	361	0.2	361	361	10.0	93.9
2025-10-12T03:10	10	0	0.1	0	0	361	0.2	361	361	10.0	93.8
2025-10-12T03:11	10	0	0.1	0	0	361	0.3	360	362	10.1	93.6
2025-10-12T03:12	10	0	0.1	0	0	361	0.2	361	362	10.1	93.6
2025-10-12T03:13	10	0	0.1	0	0	361	0.3	360	361	10.0	93.8
2025-10-12T03:14	10	0	0.0	0	0	361	0.2	360	361	10.0	93.8
2025-10-12T03:15	10	0	0.1	0	0	361	0.2	360	361	10.0	93.8
2025-10-12T03:16	10	0	0.1	0	0	361	0.3	361	362	10.1	93.6
2025-10-12T03:17	10	0	0.1	0	0	361	0.2	361	362	10.1	93.3
2025-10-12T03:18	10	0	0.1	0	0	361	0.3	360	361	10.1	93.3
2025-10-12T03:19	10	0	0.0	0	0	361	0.2	361	361	10.0	93.5
2025-10-12T03:20	10	0	0.1	0	0	361	0.2	360	362	10.0	93.5
2025-10-12T03:21	10	0	0.1	0	0	361	0.2	360	361	10.1	93.7
2025-10-12T03:22	10	0	0.1	0	0	361	0.2	360	361	10.1	93.7
2025-10-12T03:23	10	0	0.1	0	0	361	0.3	360	361	10.1	93.9
2025-10-12T03:24	10	0	0.1	0	0	361	0.2	361	362	10.0	93.7
2025-10-12T03:25	10	0	0.1	0	0	361	0.3	360	361	10.0	93.5
2025-10-12T03:26	10	0	0.1	0	0	361	0.3	360	361	9.9	94.1
2025-10-12T03:27	10	0	0.1	0	0	361	0.2	360	361	9.9	94.5
2025-10-12T03:28	10	0	0.1	0	0	360	0.2	360	361	9.9	94.4
2025-10-12T03:29	10	0	0.1	0	0	361	0.2	360	361	9.9	94.6
2025-10-12T03:30	10	0	0.1	0	0	360	0.3	360	361	9.9	94.7
2025-10-12T03:31	10	0	0.1	0	1	361	0.3	360	361	9.9	94.7
2025-10-12T03:32	10	0	0.1	0	0	361	0.2	360	361	9.9	94.5
2025-10-12T03:33	10	0	0.1	0	0	361	0.2	360	361	9.9	94.6
2025-10-12T03:34	10	0	0.1	0	0	361	0.2	360	361	9.9	94.6
2025-10-12T03:35	10	0	0.1	0	0	361	0.3	360	361	9.9	94.3
2025-10-12T03:36	10	0	0.0	0	0	361	0.2	360	361	10.0	93.8
2025-10-12T03:37	10	0	0.1	0	0	361	0.3	360	361	10.0	94.0
2025-10-12T03:38	10	0	0.1	0	0	361	0.2	360	361	10.0	93.6
2025-10-12T03:39	10	0	0.1	0	0	361	0.3	360	361	10.0	93.5
2025-10-12T03:40	10	0	0.1	0	0	361	0.3	360	361	10.0	93.7
2025-10-12T03:41	10	0	0.1	0	0	361	0.2	360	361	10.0	93.6
2025-10-12T03:42	10	0	0.1	0	0	361	0.2	360	361	10.0	93.8
2025-10-12T03:43	10	0	0.1	0	0	361	0.2	360	361	10.0	94.2
2025-10-12T03:44	10	0	0.0	0	0	361	0.3	360	361	10.0	94.1
2025-10-12T03:45	10	0	0.1	0	0	361	0.2	360	361	10.0	94.0
2025-10-12T03:46	10	0	0.1	0	0	361	0.2	360	361	10.0	94.2
2025-10-12T03:47	10	0	0.1	0	0	361	0.2	360	361	10.0	94.2
2025-10-12T03:48	10	0	0.1	0	0	361	0.2	360	361	10.0	94.1
2025-10-12T03:49	10	0	0.1	0	0	361	0.3	360	361	10.0	94.3
2025-10-12T03:50	10	0	0.1	0	0	361	0.2	360	361	10.0	94.3
2025-10-12T03:51	10	0	0.1	0	0	361	0.2	360	361	10.0	94.3
2025-10-12T03:52	10	0	0.1	0	0	360	0.3	360	361	10.0	94.5
2025-10-12T03:53	10	0	0.1	0	0	360	0.2	360	361	10.0	94.6
2025-10-12T03:54	10	0	0.1	0	0	360	0.2	360	361	10.0	94.8
2025-10-12T03:55	10	0	0.1	0	0	361	0.2	360	361	10.0	94.8
2025-10-12T03:56	10	0	0.1	0	0	361	0.2	360	361	10.0	94.8
2025-10-12T03:57	10	0	0.1	0	0	360	0.2	360	361	10.0	94.9
2025-10-12T03:58	10	0	0.1	0	0	360	0.3	360	361	9.9	95.1
2025-10-12T03:59	10	0	0.1	0	0	361	0.2	360	361	9.9	95.0
2025-10-12T04:00	10	0	0.1	0	0	360	0.2	360	361	9.9	95.0
2025-10-12T04:01	10	0	0.1	0	0	361	0.2	360	361	9.9	95.2
2025-10-12T04:02	10	0	0.1	0	0	361	0.2	360	361	9.9	95.4
2025-10-12T04:03	10	0	0.0	0	0	360	0.2	360	361	9.9	95.2
2025-10-12T04:04	10	0	0.1	0	0	360	0.2	360	361	9.9	95.1
2025-10-12T04:05	10	0	0.1	0	0	361	0.2	360	361	9.9	94.8
2025-10-12T04:06	10	0	0.1	0	0	361	0.2	360	361	10.0	94.9
2025-10-12T04:07	10	0	0.1	0	0	360	0.2	360	361	10.0	94.9
2025-10-12T04:08	10	0	0.1	0	0	361	0.3	360	361	10.0	94.9
2025-10-12T04:09	10	0	0.1	0	0	361	0.2	360	361	10.0	94.9
2025-10-12T04:10	10	0	0.1	0	0	361	0.2	360	361	10.0	95.0
2025-10-12T04:11	10	0	0.1	0	1	360	0.2	360	361	9.9	95.4
2025-10-12T04:12	10	0	0.1	0	0	361	0.2	360	361	9.9	95.4
2025-10-12T04:13	10	0	0.1	0	0	360	0.2	360	361	9.9	95.4
2025-10-12T04:14	10	0	0.1	0	0	360	0.2	360	361	9.9	95.6
2025-10-12T04:15	10	0	0.1	0	0	360	0.2	360	361	9.9	95.6
2025-10-12T04:16	10	0	0.1	0	0	360	0.2	360	361	9.9	95.9
2025-10-12T04:17	10	0	0.1	0	0	360	0.2	360	361	9.9	95.8
2025-10-12T04:18	10	0	0.1	0	0	360	0.2	360	361	9.9	95.8
2025-10-12T04:19	10	0	0.1	0	0	360	0.2	360	361	9.9	95.6
2025-10-12T04:20	10	0	0.6	0	3	360	0.2	360	361	9.9	95.7
2025-10-12T04:21	10	0	0.1	0	0	360	0.2	360	361	9.9	95.9
2025-10-12T04:22	10	0	0.1	0	0	360	0.2	360	361	9.9	96.1
2025-10-12T04:23	10	0	0.1	0	0	360	0.2	360	361	9.9	96.1
2025-10-12T04:24	10	0	0.1	0	0	360	0.2	360	361	9.9	95.9
2025-10-12T04:25	10	0	0.1	0	0	360	0.2	360	361	9.9	96.0
2025-10-12T04:26	10	0	0.1	0	0	360	0.2	360	361	9.9	96.3
2025-10-12T04:27	10	0	0.1	0	0	360	0.2	360	361	9.9	96.9
2025-10-12T04:28	10	0	0.1	0	0	360	0.2	360	361	9.9	97.0
2025-10-12T04:29	10	0	0.1	0	1	360	0.2	360	361	9.9	96.7
2025-10-12T04:30	10	0	0.1	0	1	360	0.2	360	361	9.9	96.8
2025-10-12T04:31	10	0	0.1	0	0	360	0.2	360	361	9.9	96.8
2025-10-12T04:32	10	0	0.1	0	0	361	0.2	360	361	9.9	96.3
2025-10-12T04:33	10	0	0.1	0	0	360	0.2	360	361	9.9	95.8
2025-10-12T04:34	10	0	0.1	0	0	360	0.2	360	361	9.9	95.8
2025-10-12T04:35	10	0	0.1	0	0	360	0.3	360	361	9.9	95.8
2025-10-12T04:36	10	0	0.1	0	0	360	0.3	360	361	9.9	96.1
2025-10-12T04:37	10	0	0.1	0	0	360	0.2	360	361	9.9	95.8
2025-10-12T04:38	10	0	0.1	0	0	360	0.2	360	361	9.9	95.5
2025-10-12T04:39	10	0	0.1	0	0	360	0.2	360	361	9.9	95.7
2025-10-12T04:40	10	0	0.1	0	0	360	0.2	360	361	9.9	95.8
2025-10-12T04:41	10	0	0.1	0	0	360	0.2	360	361	9.9	96.1
2025-10-12T04:42	10	0	0.0	0	0	360	0.3	360	361	9.9	95.9
2025-10-12T04:43	10	0	0.1	0	1	361	0.2	360	361	9.9	95.5
2025-10-12T04:44	10	0	0.0	0	0	361	0.2	360	361	9.9	95.4
2025-10-12T04:45	10	0	0.1	0	0	360	0.2	360	361	9.9	95.5
2025-10-12T04:46	10	0	0.1	0	0	360	0.2	360	361	9.9	95.7
2025-10-12T04:47	10	0	0.1	0	0	360	0.2	360	361	9.9	95.9
2025-10-12T04:48	10	0	0.1	0	0	361	0.2	360	361	9.9	96.0
2025-10-12T04:49	10	0	0.1	0	0	360	0.2	360	361	9.9	95.9
2025-10-12T04:50	10	0	0.1	0	0	360	0.2	360	361	9.9	95.7
2025-10-12T04:51	10	0	0.0	0	0	360	0.2	360	361	9.9	95.6
2025-10-12T04:52	10	0	0.1	0	0	360	0.3	360	361	9.9	95.6
2025-10-12T04:53	10	0	0.1	0	0	360	0.3	360	361	9.9	95.7
2025-10-12T04:54	10	0	0.1	0	0	360	0.2	360	361	9.9	95.9
2025-10-12T04:55	10	0	0.1	0	0	360	0.2	360	361	9.9	95.9
2025-10-12T04:56	10	0	0.1	0	0	360	0.2	360	361	9.9	95.8
2025-10-12T04:57	10	0	0.0	0	0	360	0.2	360	361	9.9	95.8
2025-10-12T04:58	10	0	0.1	0	0	360	0.2	360	361	9.9	95.9
2025-10-12T04:59	10	0	0.1	0	0	360	0.2	360	361	9.9	96.0
2025-10-12T05:00	10	0	0.0	0	0	360	0.2	360	361	9.9	95.9
2025-10-12T05:01	10	0	0.1	0	0	360	0.2	360	361	9.9	95.9
2025-10-12T05:02	10	0	0.1	0	0	360	0.2	360	361	9.9	96.1
2025-10-12T05:03	10	0	0.1	0	0	360	0.2	360	361	9.9	96.0
2025-10-12T05:04	10	0	0.1	0	0	360	0.2	360	361	9.8	96.0
2025-10-12T05:05	10	0	0.1	0	0	360	0.2	360	361	9.8	96.3
2025-10-12T05:06	10	0	0.1	0	0	360	0.2	360	361	9.8	96.5
2025-10-12T05:07	10	0	0.1	0	0	360	0.2	359	361	9.8	96.7
2025-10-12T05:08	10	0	0.1	0	0	360	0.2	360	361	9.8	96.7
2025-10-12T05:09	10	0	0.1	0	0	360	0.2	360	361	9.8	96.3
2025-10-12T05:10	10	0	0.1	0	0	360	0.3	360	361	9.8	96.3
2025-10-12T05:11	10	0	0.1	0	0	360	0.3	360	361	9.8	96.4
2025-10-12T05:12	10	0	0.1	0	0	360	0.3	360	361	9.8	96.3
2025-10-12T05:13	10	0	0.1	0	0	360	0.2	359	361	9.8	96.4
2025-10-12T05:14	10	0	0.1	0	0	360	0.2	360	361	9.8	96.5
2025-10-12T05:15	10	0	0.1	0	0	360	0.2	360	361	9.8	96.6
2025-10-12T05:16	10	0	0.0	0	0	360	0.2	360	361	9.8	97.1
2025-10-12T05:17	10	0	0.0	0	0	360	0.2	360	361	9.8	96.9
2025-10-12T05:18	10	0	0.1	0	0	360	0.2	360	361	9.8	96.6
2025-10-12T05:19	10	0	0.1	0	0	360	0.2	360	361	9.9	96.1
2025-10-12T05:20	10	0	0.1	0	0	360	0.2	360	361	9.9	96.2
2025-10-12T05:21	10	0	0.0	0	0	360	0.2	360	361	9.9	96.6
2025-10-12T05:22	10	0	0.0	0	0	360	0.2	360	361	9.9	96.3
2025-10-12T05:23	10	0	0.1	0	0	360	0.2	360	361	9.9	96.3
2025-10-12T05:24	10	0	0.1	0	0	360	0.2	360	361	9.9	96.4
2025-10-12T05:25	10	0	0.1	0	0	360	0.3	360	361	9.9	96.6
2025-10-12T05:26	10	0	0.1	0	0	360	0.2	360	361	9.8	96.7
2025-10-12T05:27	10	0	0.0	0	0	360	0.2	360	361	9.8	97.0
2025-10-12T05:28	10	0	0.1	0	0	360	0.2	360	361	9.8	97.3
2025-10-12T05:29	10	0	0.0	0	0	360	0.2	360	361	9.8	96.9
2025-10-12T05:30	10	0	0.1	0	0	360	0.2	360	361	9.8	96.6
2025-10-12T05:31	10	0	0.0	0	1	360	0.2	360	361	9.8	96.6
2025-10-12T05:32	10	0	0.1	0	0	360	0.2	360	361	9.8	96.7
2025-10-12T05:33	10	0	0.0	0	0	360	0.2	360	361	9.9	96.4
2025-10-12T05:34	10	0	0.0	0	0	360	0.2	360	361	9.9	96.3
2025-10-12T05:35	10	0	0.1	0	1	360	0.2	360	361	9.9	96.3
2025-10-12T05:36	10	0	0.0	0	0	360	0.2	360	361	9.9	96.2
2025-10-12T05:37	10	0	0.0	0	0	361	0.3	360	361	9.9	96.2
2025-10-12T05:38	10	0	0.0	0	0	360	0.2	360	361	9.9	96.4
2025-10-12T05:39	10	0	0.0	0	0	360	0.2	360	361	9.8	96.3
2025-10-12T05:40	10	0	0.1	0	1	360	0.2	360	361	9.8	96.4
2025-10-12T05:41	10	0	0.0	0	0	360	0.2	360	361	9.8	96.6
2025-10-12T05:42	10	0	0.0	0	1	360	0.2	360	360	9.8	96.5
2025-10-12T05:43	10	0	0.0	0	1	360	0.2	360	360	9.7	96.9
2025-10-12T05:44	10	0	0.1	0	1	360	0.2	359	360	9.7	97.1
2025-10-12T05:45	10	0	0.1	0	1	360	0.2	359	360	9.7	97.2
2025-10-12T05:46	10	0	0.1	0	1	360	0.2	359	360	9.7	97.3
2025-10-12T05:47	10	0	0.1	0	1	360	0.2	359	360	9.7	97.2
2025-10-12T05:48	10	0	0.1	0	1	360	0.2	360	360	9.7	97.1
2025-10-12T05:49	10	0	0.1	0	1	360	0.3	359	360	9.7	97.1
2025-10-12T05:50	10	0	0.0	0	1	360	0.3	359	361	9.7	97.0
2025-10-12T05:51	10	1	0.1	0	1	360	0.2	359	360	9.7	97.0
2025-10-12T05:52	10	1	0.1	0	1	360	0.2	359	360	9.7	97.1
2025-10-12T05:53	10	1	0.1	0	1	360	0.2	359	360	9.7	97.1
2025-10-12T05:54	10	1	0.1	0	1	360	0.2	359	360	9.7	97.3
2025-10-12T05:55	10	1	0.1	1	1	360	0.3	359	360	9.7	97.5
2025-10-12T05:56	10	1	0.1	1	1	360	0.2	359	360	9.6	97.4
2025-10-12T05:57	10	1	0.1	1	1	360	0.2	359	360	9.6	97.3
2025-10-12T05:58	10	1	0.1	1	1	360	0.2	359	360	9.6	97.5
2025-10-12T05:59	10	1	0.1	1	1	360	0.3	359	360	9.6	97.5
2025-10-12T06:00	10	1	0.1	1	1	360	0.2	360	360	9.6	97.5
2025-10-12T06:01	10	1	0.1	1	1	360	0.2	359	360	9.6	97.6
2025-10-12T06:02	10	1	0.1	1	1	360	0.2	359	360	9.6	97.7
2025-10-12T06:03	10	1	0.1	1	1	360	0.2	360	360	9.6	97.8
2025-10-12T06:04	10	1	0.1	1	2	360	0.3	360	361	9.6	97.5
2025-10-12T06:05	10	2	0.1	1	2	360	0.2	360	360	9.6	97.5
2025-10-12T06:06	10	2	0.1	1	2	360	0.2	360	361	9.6	97.5
2025-10-12T06:07	10	2	0.1	2	2	360	0.2	360	361	9.6	97.4
2025-10-12T06:08	10	2	0.1	2	2	360	0.2	360	361	9.6	97.3
2025-10-12T06:09	10	2	0.1	2	2	360	0.2	360	361	9.6	97.3
2025-10-12T06:10	10	2	0.1	2	2	360	0.2	360	361	9.6	97.3
2025-10-12T06:11	10	2	0.1	2	2	360	0.2	360	361	9.6	97.3
2025-10-12T06:12	10	2	0.1	2	2	360	0.2	360	361	9.6	97.3
2025-10-12T06:13	10	2	0.1	2	2	361	0.2	360	361	9.7	97.3
2025-10-12T06:14	10	2	0.1	2	2	361	0.2	360	361	9.7	97.1
2025-10-12T06:15	10	2	0.1	2	3	361	0.2	360	361	9.7	96.9
2025-10-12T06:16	10	3	0.1	2	3	361	0.2	360	361	9.7	96.9
2025-10-12T06:17	10	3	0.1	3	3	361	0.2	360	361	9.7	96.8
2025-10-12T06:18	10	3	0.1	3	3	361	0.2	360	361	9.7	96.8
2025-10-12T06:19	10	3	0.1	3	3	361	0.2	360	361	9.7	96.8
2025-10-12T06:20	10	3	0.1	3	3	361	0.3	360	361	9.7	96.9
2025-10-12T06:21	10	3	0.1	3	3	361	0.2	361	361	9.7	96.9
2025-10-12T06:22	10	3	0.1	3	4	361	0.2	360	361	9.7	96.8
2025-10-12T06:23	10	4	0.1	3	4	361	0.2	360	362	9.7	96.9
2025-10-12T06:24	10	4	0.1	4	4	361	0.2	361	362	9.7	97.2
2025-10-12T06:25	10	4	0.1	4	4	361	0.2	361	362	9.7	97.4
2025-10-12T06:26	10	4	0.1	4	4	361	0.3	361	362	9.7	97.4
2025-10-12T06:27	10	4	0.1	4	4	362	0.3	361	362	9.7	97.0
2025-10-12T06:28	10	4	0.1	4	4	362	0.2	361	362	9.7	96.7
2025-10-12T06:29	10	4	0.1	4	5	362	0.2	361	362	9.7	96.5
2025-10-12T06:30	10	5	0.1	4	5	362	0.2	361	362	9.7	96.5
2025-10-12T06:31	10	5	0.1	5	5	362	0.3	361	362	9.7	96.6
2025-10-12T06:32	10	5	0.1	5	5	362	0.2	361	363	9.7	96.6
2025-10-12T06:33	10	5	0.1	5	5	362	0.2	362	362	9.7	96.5
2025-10-12T06:34	10	5	0.1	5	5	362	0.2	362	363	9.8	96.4
2025-10-12T06:35	10	5	0.1	5	6	362	0.2	362	363	9.8	96.4
2025-10-12T06:36	10	6	0.1	5	6	362	0.2	362	363	9.8	96.2
2025-10-12T06:37	10	6	0.1	6	6	362	0.2	362	363	9.8	95.9
2025-10-12T06:38	10	6	0.1	6	6	362	0.2	362	363	9.8	96.1
2025-10-12T06:39	10	6	0.1	6	6	363	0.2	362	363	9.8	96.1
2025-10-12T06:40	10	6	0.1	6	6	363	0.2	362	363	9.8	95.9
2025-10-12T06:41	10	6	0.1	6	6	363	0.2	362	363	9.8	95.8
2025-10-12T06:42	10	6	0.1	6	7	363	0.2	362	363	9.8	95.7
2025-10-12T06:43	10	7	0.1	6	7	363	0.2	363	364	9.8	95.7
2025-10-12T06:44	10	7	0.1	7	7	363	0.2	363	364	9.8	95.7
2025-10-12T06:45	10	7	0.1	7	7	363	0.3	363	364	9.8	95.8
2025-10-12T06:46	10	7	0.1	7	7	363	0.2	363	364	9.8	95.6
2025-10-12T06:47	10	7	0.1	7	7	363	0.3	363	364	9.8	95.8
2025-10-12T06:48	10	7	0.1	7	7	363	0.3	363	364	9.9	96.2
2025-10-12T06:49	10	7	0.1	7	8	364	0.3	363	364	9.9	96.1
2025-10-12T06:50	10	8	0.1	7	8	363	0.2	363	364	9.9	96.1
2025-10-12T06:51	10	8	0.1	8	8	364	0.3	363	364	9.9	95.7
2025-10-12T06:52	10	8	0.1	8	8	364	0.2	363	364	9.8	95.5
2025-10-12T06:53	10	8	0.1	8	9	364	0.2	363	364	9.9	95.8
2025-10-12T06:54	10	9	0.1	8	9	364	0.2	364	365	9.9	96.0
2025-10-12T06:55	10	9	0.1	9	9	364	0.2	364	365	9.9	95.8
2025-10-12T06:56	10	9	0.1	9	9	364	0.2	364	365	9.9	95.7
2025-10-12T06:57	10	9	0.1	9	9	364	0.2	364	365	9.9	95.6
2025-10-12T06:58	10	9	0.1	9	10	365	0.2	364	365	9.9	95.4
2025-10-12T06:59	10	10	0.1	9	10	365	0.3	364	365	10.0	95.5
2025-10-12T07:00	10	10	0.1	10	10	365	0.2	364	365	10.0	95.4
2025-10-12T07:01	10	10	0.1	10	10	365	0.2	365	366	10.0	94.9
2025-10-12T07:02	10	10	0.1	10	10	365	0.2	365	365	10.0	94.8
2025-10-12T07:03	10	10	0.1	10	10	365	0.2	364	366	10.0	94.7
2025-10-12T07:04	10	10	0.1	10	10	365	0.2	365	366	10.0	94.8
2025-10-12T07:05	10	10	0.1	10	11	365	0.3	365	366	10.0	95.0
2025-10-12T07:06	10	11	0.1	10	11	365	0.2	365	366	10.0	95.0
2025-10-12T07:07	10	11	0.1	11	11	366	0.2	365	366	10.0	94.6
2025-10-12T07:08	10	11	0.1	11	11	365	0.3	365	366	10.0	94.5
2025-10-12T07:09	10	11	0.1	11	11	365	0.2	365	366	10.0	94.5
2025-10-12T07:10	10	11	0.1	11	11	366	0.2	365	366	10.0	94.6
2025-10-12T07:11	10	11	0.1	11	12	366	0.2	366	366	10.0	94.4
2025-10-12T07:12	10	12	0.1	11	12	366	0.2	365	367	10.0	91.2
2025-10-12T07:13	10	12	0.1	12	12	366	0.2	365	367	10.0	88.1
2025-10-12T07:14	10	12	0.1	12	12	366	0.2	366	367	10.0	94.4
2025-10-12T07:15	10	12	0.1	12	12	366	0.2	366	367	10.0	94.4
2025-10-12T07:16	10	12	0.1	12	12	366	0.2	366	367	10.0	94.4
2025-10-12T07:17	10	12	0.1	12	12	366	0.2	366	367	10.0	94.4
2025-10-12T07:18	10	12	0.1	12	12	367	0.2	366	367	10.0	94.4
2025-10-12T07:19	10	12	0.1	12	12	366	0.2	366	367	10.1	93.7
2025-10-12T07:20	10	12	0.1	12	13	366	0.2	366	367	10.1	92.5
2025-10-12T07:21	10	13	0.1	12	13	367	0.2	366	367	10.2	93.0
2025-10-12T07:22	10	13	0.1	13	13	367	0.2	366	367	10.2	93.3
2025-10-12T07:23	10	13	0.1	13	13	367	0.3	366	367	10.2	93.2
2025-10-12T07:24	10	13	0.1	13	13	367	0.2	366	367	10.2	93.4
2025-10-12T07:25	10	13	0.1	13	14	367	0.2	367	368	10.3	93.5
2025-10-12T07:26	10	14	0.1	13	14	367	0.2	367	368	10.3	93.5
2025-10-12T07:27	10	14	0.1	14	14	368	0.3	367	368	10.3	93.7
2025-10-12T07:28	10	14	0.1	14	14	368	0.3	367	368	10.3	93.3
2025-10-12T07:29	10	14	0.1	14	15	368	0.2	367	368	10.3	93.4
2025-10-12T07:30	10	15	0.1	14	15	368	0.2	367	369	10.3	93.3
2025-10-12T07:31	10	15	0.1	15	15	368	0.2	368	369	10.3	93.6
2025-10-12T07:32	10	15	0.1	15	16	368	0.2	368	369	10.3	93.9
2025-10-12T07:33	10	16	0.1	15	16	369	0.2	368	369	10.3	94.1
2025-10-12T07:34	10	16	0.1	16	16	368	0.2	368	369	10.3	93.8
2025-10-12T07:35	10	16	0.1	16	16	369	0.2	368	369	10.3	93.6
2025-10-12T07:36	10	16	0.1	16	17	369	0.2	368	369	10.3	93.8
2025-10-12T07:37	10	17	0.1	17	17	369	0.2	368	369	10.3	93.9
2025-10-12T07:38	10	17	0.1	17	17	369	0.2	369	369	10.3	93.8
2025-10-12T07:39	10	17	0.1	17	18	369	0.2	369	370	10.4	93.8
2025-10-12T07:40	10	18	0.1	17	18	369	0.2	369	370	10.4	93.7
2025-10-12T07:41	10	18	0.1	18	18	370	0.2	369	370	10.4	93.6
2025-10-12T07:42	10	18	0.1	18	18	370	0.2	369	370	10.4	93.4
2025-10-12T07:43	10	18	0.1	18	19	370	0.2	370	371	10.5	93.1
2025-10-12T07:44	10	19	0.1	19	19	370	0.2	370	370	10.5	93.0
2025-10-12T07:45	10	19	0.1	19	19	370	0.2	369	370	10.4	93.2
2025-10-12T07:46	10	19	0.1	19	19	370	0.2	369	370	10.4	93.3
2025-10-12T07:47	10	19	0.1	19	19	369	0.2	369	370	10.4	93.4
2025-10-12T07:48	10	19	0.1	19	19	370	0.2	369	370	10.4	93.7
2025-10-12T07:49	10	19	0.1	19	19	370	0.2	369	370	10.4	93.8
2025-10-12T07:50	10	19	0.1	19	19	370	0.2	369	370	10.4	94.2
2025-10-12T07:51	10	19	0.1	19	20	369	0.2	369	370	10.4	94.0
2025-10-12T07:52	10	20	0.1	19	20	369	0.2	369	370	10.3	93.9
2025-10-12T07:53	10	20	0.1	20	20	369	0.2	369	370	10.3	94.1
2025-10-12T07:54	10	20	0.1	20	21	369	0.2	369	370	10.3	94.1
2025-10-12T07:55	10	21	0.1	21	21	369	0.3	369	370	10.3	94.1
2025-10-12T07:56	10	21	0.2	21	22	369	0.3	369	370	10.3	93.8
2025-10-12T07:57	10	22	0.1	22	22	370	0.2	369	370	10.3	93.5
2025-10-12T07:58	10	22	0.1	22	22	370	0.3	369	370	10.4	93.4
2025-10-12T07:59	10	23	0.2	22	23	370	0.2	369	370	10.4	92.5
2025-10-12T08:00	10	23	0.2	23	23	371	0.3	370	371	10.4	92.7
2025-10-12T08:01	10	24	0.2	23	24	371	0.3	370	372	10.5	92.9
2025-10-12T08:02	10	24	0.2	24	24	371	0.3	371	372	10.5	92.6
2025-10-12T08:03	10	25	0.2	24	25	371	0.3	371	372	10.5	92.4
2025-10-12T08:04	10	25	0.2	25	26	372	0.2	371	372	10.5	92.6
2025-10-12T08:05	10	26	0.2	26	26	372	0.2	371	372	10.5	92.6
2025-10-12T08:06	10	26	0.1	26	27	372	0.3	372	373	10.5	92.9
2025-10-12T08:07	10	27	0.1	27	27	372	0.2	372	373	10.5	92.8
2025-10-12T08:08	10	27	0.1	27	27	373	0.2	372	373	10.6	92.9
2025-10-12T08:09	10	27	0.1	27	28	372	0.3	372	373	10.6	92.6
2025-10-12T08:10	10	28	0.1	27	28	373	0.2	372	373	10.6	92.9
2025-10-12T08:11	10	28	0.1	28	28	373	0.2	373	374	10.7	93.1
2025-10-12T08:12	10	28	0.1	28	28	373	0.2	372	374	10.7	92.9
2025-10-12T08:13	10	28	0.1	28	28	373	0.2	372	373	10.6	92.5
2025-10-12T08:14	10	28	0.1	28	28	373	0.2	372	373	10.7	92.6
2025-10-12T08:15	10	28	0.1	28	28	373	0.2	373	374	10.7	92.4
2025-10-12T08:16	10	28	0.1	28	28	373	0.3	373	374	10.8	92.2
2025-10-12T08:17	10	28	0.1	28	28	374	0.3	373	374	10.8	91.4
2025-10-12T08:18	10	28	0.2	28	29	374	0.2	373	374	10.9	90.4
2025-10-12T08:19	10	29	0.2	28	29	374	0.3	373	375	10.9	90.6
2025-10-12T08:20	10	29	0.2	29	30	374	0.3	373	374	10.9	90.7
2025-10-12T08:21	10	30	0.1	29	30	374	0.3	373	374	10.9	89.5
2025-10-12T08:22	10	30	0.1	30	31	374	0.2	374	375	10.9	89.5
2025-10-12T08:23	10	30	0.2	30	31	374	0.3	374	375	10.9	89.2
2025-10-12T08:24	10	31	0.1	30	31	375	0.3	374	375	10.9	90.3
2025-10-12T08:25	10	31	0.1	31	31	374	0.2	374	375	10.9	90.8
2025-10-12T08:26	10	31	0.1	31	31	375	0.2	374	375	10.9	91.1
2025-10-12T08:27	10	31	0.1	31	31	374	0.3	374	375	10.9	90.3
2025-10-12T08:28	10	31	0.1	31	31	374	0.4	373	375	10.8	89.6
2025-10-12T08:29	10	31	0.1	30	31	374	0.3	373	375	10.8	90.3
2025-10-12T08:30	10	30	0.1	30	31	374	0.2	373	374	10.8	90.3
2025-10-12T08:31	10	30	0.2	30	31	373	0.4	372	374	10.8	89.8
2025-10-12T08:32	10	30	0.2	30	31	373	0.3	372	374	10.8	89.9
2025-10-12T08:33	10	30	0.1	30	31	374	0.4	373	374	10.8	90.0
2025-10-12T08:34	10	31	0.1	30	31	374	0.2	373	374	10.9	89.7
2025-10-12T08:35	10	31	0.1	31	31	374	0.3	374	375	10.9	89.8
2025-10-12T08:36	10	31	0.2	31	32	374	0.2	374	375	10.9	89.7
2025-10-12T08:37	10	31	0.1	31	32	374	0.4	373	375	10.9	88.6
2025-10-12T08:38	10	32	0.1	31	32	373	0.2	373	374	10.8	88.0
2025-10-12T08:39	10	32	0.2	31	32	374	0.2	373	374	10.9	88.8
2025-10-12T08:40	10	32	0.2	31	32	373	0.3	373	374	10.9	89.0
2025-10-12T08:41	10	31	0.2	31	32	373	0.3	372	374	10.9	88.9
2025-10-12T08:42	10	31	0.2	31	32	373	0.3	373	374	10.9	88.9
2025-10-12T08:43	10	31	0.1	31	32	373	0.3	373	374	10.9	88.6
2025-10-12T08:44	10	31	0.2	31	32	373	0.3	373	374	10.9	88.2
2025-10-12T08:45	10	32	0.1	31	32	374	0.3	373	374	10.9	87.7
2025-10-12T08:46	10	32	0.2	31	32	374	0.4	374	375	11.0	89.3
2025-10-12T08:47	10	32	0.1	32	32	375	0.3	374	375	11.0	88.3
2025-10-12T08:48	10	32	0.2	32	32	374	0.3	374	375	11.1	88.3
2025-10-12T08:49	10	32	0.2	32	32	374	0.3	373	375	10.9	87.5
2025-10-12T08:50	10	32	0.1	32	32	374	0.3	373	375	11.0	88.1
2025-10-12T08:51	10	32	0.2	32	33	374	0.3	373	374	11.0	87.9
2025-10-12T08:52	10	32	0.1	32	33	374	0.3	373	375	11.1	88.3
2025-10-12T08:53	10	32	0.2	32	33	374	0.3	373	374	11.0	87.9
2025-10-12T08:54	10	32	0.1	32	33	374	0.3	373	374	11.0	88.0
2025-10-12T08:55	10	32	0.1	32	33	373	0.3	373	374	11.0	87.6
2025-10-12T08:56	10	32	0.1	32	33	373	0.3	372	373	11.0	86.7
2025-10-12T08:57	10	32	0.1	32	33	373	0.2	373	374	11.0	86.6
2025-10-12T08:58	10	33	0.2	32	33	373	0.3	373	374	11.0	86.9
2025-10-12T08:59	10	33	0.2	32	33	373	0.3	373	374	11.0	86.7
2025-10-12T09:00	10	33	0.1	32	33	373	0.2	373	374	11.0	86.2
2025-10-12T09:01	10	33	0.1	32	33	373	0.3	373	374	11.1	86.2
2025-10-12T09:02	10	33	0.1	32	33	374	0.3	373	374	11.1	86.1
2025-10-12T09:03	10	33	0.2	32	33	374	0.2	374	375	11.2	85.1
2025-10-12T09:04	10	33	0.2	33	34	374	0.3	373	374	11.1	84.7
2025-10-12T09:05	10	34	0.2	34	35	374	0.4	373	375	11.2	85.3
2025-10-12T09:06	10	35	0.2	34	35	374	0.3	373	374	11.1	85.7
2025-10-12T09:07	10	35	0.1	34	35	374	0.3	373	375	11.2	86.1
2025-10-12T09:08	10	35	0.2	35	35	374	0.3	374	375	11.2	85.2
2025-10-12T09:09	10	35	0.1	35	35	374	0.3	373	375	11.2	84.9
2025-10-12T09:10	10	35	0.2	34	36	374	0.3	374	375	11.2	84.9
2025-10-12T09:11	10	35	0.2	34	35	375	0.3	374	375	11.2	84.9
2025-10-12T09:12	10	34	0.2	34	35	375	0.4	375	377	11.3	85.1
2025-10-12T09:13	10	34	0.2	34	35	376	0.2	375	377	11.4	85.6
2025-10-12T09:14	10	34	0.1	34	35	375	0.5	374	376	11.3	83.4
2025-10-12T09:15	10	34	0.1	34	34	375	0.3	374	376	11.2	83.9
2025-10-12T09:16	10	34	0.2	34	35	375	0.3	375	376	11.3	84.7
2025-10-12T09:17	10	34	0.2	34	34	375	0.5	374	376	11.3	83.5
2025-10-12T09:18	10	34	0.1	33	34	375	0.3	374	375	11.2	83.9
2025-10-12T09:19	10	34	0.1	33	34	375	0.3	374	375	11.3	83.7
2025-10-12T09:20	10	34	0.1	34	34	375	0.3	374	376	11.3	84.1
2025-10-12T09:21	10	34	0.1	33	34	376	0.4	375	376	11.4	84.0
2025-10-12T09:22	10	34	0.1	33	34	376	0.2	375	376	11.4	83.3
2025-10-12T09:23	10	34	0.1	33	34	376	0.3	375	376	11.4	83.6
2025-10-12T09:24	10	34	0.1	34	34	376	0.3	375	376	11.4	83.3
2025-10-12T09:25	10	34	0.1	34	34	375	0.3	375	376	11.3	82.3
2025-10-12T09:26	10	34	0.1	34	34	376	0.4	375	376	11.3	82.8
2025-10-12T09:27	10	34	0.2	34	35	376	0.4	375	376	11.3	82.2
2025-10-12T09:28	10	34	0.1	34	35	375	0.3	375	376	11.3	82.5
2025-10-12T09:29	10	34	0.1	34	35	374	0.4	374	375	11.2	82.4
2025-10-12T09:30	10	34	0.1	34	35	374	0.3	373	375	11.2	82.7
2025-10-12T09:31	10	35	0.1	34	35	374	0.4	374	375	11.2	82.7
2025-10-12T09:32	10	35	0.1	34	35	375	0.3	374	375	11.3	82.4
2025-10-12T09:33	10	35	0.1	35	35	374	0.2	374	375	11.3	82.2
2025-10-12T09:34	10	35	0.1	35	35	375	0.3	374	376	11.3	82.6
2025-10-12T09:35	10	35	0.1	35	35	375	0.3	375	376	11.4	82.3
2025-10-12T09:36	10	35	0.1	35	35	375	0.3	374	375	11.3	81.8
2025-10-12T09:37	10	35	0.2	35	36	374	0.2	374	375	11.3	81.6
2025-10-12T09:38	10	35	0.1	35	35	374	0.2	374	375	11.3	81.6
2025-10-12T09:39	10	35	0.1	35	35	374	0.2	374	374	11.2	81.3
2025-10-12T09:40	10	35	0.1	35	35	374	0.2	373	375	11.3	81.6
2025-10-12T09:41	10	35	0.1	35	36	374	0.2	373	374	11.3	81.3
2025-10-12T09:42	10	35	0.1	35	36	374	0.2	373	374	11.3	81.3
2025-10-12T09:43	10	35	0.1	35	36	374	0.3	373	374	11.3	81.1
2025-10-12T09:44	10	36	0.1	35	36	374	0.3	374	375	11.2	80.9
2025-10-12T09:45	10	36	0.1	36	36	375	0.4	374	376	11.2	80.8
2025-10-12T09:46	10	36	0.1	36	36	375	0.4	374	376	11.3	80.8
2025-10-12T09:47	10	36	0.1	36	37	376	0.2	375	376	11.4	81.7
2025-10-12T09:48	10	36	0.1	36	37	376	0.2	375	376	11.4	80.9
2025-10-12T09:49	10	36	0.1	36	36	376	0.2	375	376	11.4	80.9
2025-10-12T09:50	10	36	0.1	36	37	375	0.2	375	376	11.4	80.6
2025-10-12T09:51	10	37	0.1	36	37	375	0.3	375	376	11.4	80.4
2025-10-12T09:52	10	37	0.1	37	37	376	0.4	375	377	11.4	81.0
2025-10-12T09:53	10	37	0.1	37	37	376	0.4	375	377	11.5	79.9
2025-10-12T09:54	10	37	0.1	37	37	376	0.4	375	377	11.4	79.6
2025-10-12T09:55	10	37	0.1	37	37	377	0.2	376	377	11.4	79.7
2025-10-12T09:56	10	37	0.1	37	38	376	0.3	376	377	11.4	79.8
2025-10-12T09:57	10	38	0.1	37	38	375	0.5	374	376	11.3	78.8
2025-10-12T09:58	10	38	0.1	38	38	375	0.2	374	375	11.2	78.8
2025-10-12T09:59	10	38	0.1	38	38	375	0.3	374	376	11.3	78.7
2025-10-12T10:00	10	38	0.1	38	39	375	0.2	375	376	11.4	78.9
2025-10-12T10:01	10	38	0.1	38	39	376	0.5	375	377	11.4	79.2
2025-10-12T10:02	10	39	0.1	38	39	377	0.3	376	378	11.5	79.5
2025-10-12T10:03	10	38	0.1	38	39	376	0.4	375	377	11.5	78.4
2025-10-12T10:04	10	38	0.1	38	38	376	0.3	375	376	11.3	78.1
2025-10-12T10:05	10	38	0.1	38	38	375	0.5	374	376	11.3	78.3
2025-10-12T10:06	10	38	0.1	38	38	375	0.3	374	376	11.3	78.4
2025-10-12T10:07	10	38	0.1	38	38	376	0.3	375	376	11.4	78.4
2025-10-12T10:08	10	38	0.1	38	38	376	0.2	376	377	11.4	79.0
2025-10-12T10:09	10	39	0.1	38	39	377	0.3	376	377	11.5	79.3
2025-10-12T10:10	10	39	0.1	39	39	376	0.5	375	377	11.4	78.3
2025-10-12T10:11	10	39	0.1	39	39	375	0.2	375	376	11.4	78.8
2025-10-12T10:12	10	40	0.1	39	40	376	0.3	375	376	11.4	78.9
2025-10-12T10:13	10	40	0.2	40	40	376	0.3	376	377	11.5	79.2
2025-10-12T10:14	10	40	0.1	40	41	375	0.3	375	376	11.4	78.4
2025-10-12T10:15	10	41	0.1	40	41	375	0.2	375	376	11.3	78.6
2025-10-12T10:16	10	41	0.1	41	41	376	0.4	375	377	11.4	79.4
2025-10-12T10:17	10	41	0.1	41	41	376	0.2	375	376	11.4	79.4
2025-10-12T10:18	10	41	0.1	41	41	376	0.4	375	376	11.4	79.3
2025-10-12T10:19	10	42	0.1	41	42	376	0.4	375	377	11.4	79.4
2025-10-12T10:20	10	42	0.1	42	42	377	0.2	376	377	11.5	79.4
2025-10-12T10:21	10	42	0.1	42	42	377	0.2	377	378	11.4	79.7
2025-10-12T10:22	10	42	0.1	42	42	378	0.3	377	378	11.6	80.3
2025-10-12T10:23	10	42	0.1	42	43	378	0.2	378	379	11.6	79.5
2025-10-12T10:24	10	43	0.1	42	43	378	0.3	377	379	11.6	79.3
2025-10-12T10:25	10	43	0.1	43	43	378	0.2	378	379	11.6	79.9
2025-10-12T10:26	10	43	0.1	43	43	378	0.4	377	379	11.5	80.3
2025-10-12T10:27	10	43	0.1	43	43	377	0.3	377	378	11.4	80.2
2025-10-12T10:28	10	43	0.1	43	43	378	0.3	377	379	11.5	81.1
2025-10-12T10:29	10	43	0.1	43	43	379	0.3	378	379	11.6	81.0
2025-10-12T10:30	10	44	0.1	43	44	379	0.2	378	379	11.6	80.6
2025-10-12T10:31	10	44	0.1	44	44	379	0.3	378	380	11.6	80.6
2025-10-12T10:32	10	44	0.1	44	44	378	0.2	378	379	11.5	80.5
2025-10-12T10:33	10	44	0.1	44	44	378	0.3	378	379	11.5	81.0
2025-10-12T10:34	10	44	0.1	44	45	378	0.4	377	378	11.5	80.5
2025-10-12T10:35	10	45	0.1	44	45	377	0.3	377	378	11.4	80.3
2025-10-12T10:36	10	45	0.1	45	45	378	0.3	377	378	11.5	80.8
2025-10-12T10:37	10	45	0.1	45	45	377	0.3	377	378	11.5	80.1
2025-10-12T10:38	10	46	0.1	45	46	377	0.3	376	378	11.4	80.2
2025-10-12T10:39	10	46	0.1	46	46	377	0.3	377	378	11.5	80.3
2025-10-12T10:40	10	46	0.1	46	46	377	0.2	376	377	11.5	80.1
2025-10-12T10:41	10	46	0.1	46	46	377	0.4	377	378	11.4	80.0
2025-10-12T10:42	10	46	0.1	46	46	377	0.4	376	378	11.6	80.1
2025-10-12T10:43	10	46	0.1	46	47	378	0.2	377	378	11.5	79.7
2025-10-12T10:44	10	46	0.1	46	47	378	0.3	377	379	11.5	79.8
2025-10-12T10:45	10	47	0.1	46	47	379	0.4	378	380	11.7	79.9
2025-10-12T10:46	10	47	0.2	47	48	380	0.3	379	380	11.7	80.0
2025-10-12T10:47	10	48	0.2	47	48	380	0.3	379	381	11.7	79.9
2025-10-12T10:48	10	48	0.1	48	49	381	0.4	380	382	11.8	80.2
2025-10-12T10:49	10	49	0.1	48	49	381	0.3	381	382	11.9	80.7
2025-10-12T10:50	10	49	0.1	49	49	382	0.4	381	383	12.0	80.0
2025-10-12T10:51	10	49	0.0	49	49	382	0.3	381	383	11.9	79.4
2025-10-12T10:52	10	49	0.1	49	49	382	0.2	381	382	11.9	80.5
2025-10-12T10:53	10	49	0.2	49	49	382	0.5	381	383	11.9	78.8
2025-10-12T10:54	10	48	0.2	48	49	381	0.3	381	382	11.7	78.5
2025-10-12T10:55	10	48	0.2	47	48	382	0.4	381	382	11.7	78.9
2025-10-12T10:56	10	47	0.2	47	47	381	0.2	380	381	11.7	79.4
2025-10-12T10:57	10	47	0.1	46	47	381	0.3	380	381	11.7	79.7
2025-10-12T10:58	10	46	0.1	46	46	380	0.4	379	380	11.6	79.5
2025-10-12T10:59	10	46	0.2	45	46	379	0.3	379	380	11.6	79.7
2025-10-12T11:00	10	46	0.1	45	46	380	0.4	379	380	11.6	79.5
2025-10-12T11:01	10	45	0.1	45	46	380	0.3	380	381	11.9	80.9
2025-10-12T11:02	10	46	0.2	45	46	380	0.4	380	381	11.9	79.8
2025-10-12T11:03	10	46	0.2	46	47	381	0.3	380	381	11.9	79.2
2025-10-12T11:04	10	47	0.2	47	48	380	0.2	380	381	11.8	79.2
2025-10-12T11:05	10	48	0.2	48	48	380	0.3	380	381	11.6	78.9
2025-10-12T11:06	10	48	0.1	48	49	380	0.2	379	380	11.6	79.0
2025-10-12T11:07	10	48	0.1	48	49	380	0.2	380	380	11.6	79.1
2025-10-12T11:08	10	48	0.1	48	48	380	0.3	379	380	11.6	79.3
2025-10-12T11:09	10	48	0.2	47	48	380	0.3	379	381	11.6	79.7
2025-10-12T11:10	10	47	0.1	47	48	380	0.4	379	381	11.6	79.4
2025-10-12T11:11	10	47	0.1	47	47	379	0.2	378	379	11.6	79.0
2025-10-12T11:12	10	47	0.1	47	47	379	0.3	379	380	11.6	79.3
2025-10-12T11:13	10	47	0.1	46	47	379	0.2	379	380	11.6	79.0
2025-10-12T11:14	10	46	0.1	46	47	379	0.3	379	380	11.6	79.3
2025-10-12T11:15	10	47	0.1	46	47	380	0.3	379	380	11.7	79.5
2025-10-12T11:16	10	47	0.1	47	47	379	0.3	378	379	11.6	78.8
2025-10-12T11:17	10	47	0.1	47	47	380	0.5	379	381	11.7	79.6
2025-10-12T11:18	10	47	0.1	47	48	380	0.4	379	381	11.8	79.5
2025-10-12T11:19	10	48	0.2	47	48	380	0.3	379	381	11.7	79.2
2025-10-12T11:20	10	48	0.1	48	48	380	0.3	379	381	11.7	79.1
2025-10-12T11:21	10	48	0.1	48	48	379	0.3	378	380	11.6	78.7
2025-10-12T11:22	10	48	0.1	48	48	378	0.3	378	379	11.6	79.2
2025-10-12T11:23	10	48	0.1	48	48	379	0.3	378	379	11.6	78.6
2025-10-12T11:24	10	48	0.1	47	48	379	0.5	378	380	11.7	78.8
2025-10-12T11:25	10	47	0.1	47	48	380	0.5	379	381	11.7	78.6
2025-10-12T11:26	10	47	0.1	47	48	381	0.3	380	381	11.8	79.0
2025-10-12T11:27	10	48	0.1	47	48	380	0.3	379	381	11.8	78.1
2025-10-12T11:28	10	48	0.1	48	48	380	0.3	380	381	11.8	78.6
2025-10-12T11:29	10	48	0.2	48	49	380	0.4	379	381	11.7	78.4
2025-10-12T11:30	10	49	0.2	48	49	380	0.3	380	381	11.7	78.4
2025-10-12T11:31	10	49	0.2	49	50	381	0.3	380	381	11.6	78.4
2025-10-12T11:32	10	50	0.2	50	50	381	0.3	380	382	11.7	79.0
2025-10-12T11:33	10	50	0.1	50	50	382	0.3	381	383	11.7	79.3
2025-10-12T11:34	10	50	0.1	50	51	383	0.3	382	383	11.9	79.9
2025-10-12T11:35	10	50	0.1	50	51	382	0.6	381	383	11.9	79.1
2025-10-12T11:36	10	50	0.1	50	50	381	0.3	381	382	11.8	78.4
2025-10-12T11:37	10	50	0.1	50	50	382	0.3	381	383	11.8	78.2
2025-10-12T11:38	10	50	0.1	50	50	381	0.3	381	382	11.7	77.8
2025-10-12T11:39	10	50	0.2	50	51	381	0.2	380	381	11.7	78.0
2025-10-12T11:40	10	51	0.2	51	51	380	0.4	380	381	11.7	77.7
2025-10-12T11:41	10	51	0.1	51	52	382	0.3	381	382	11.8	77.6
2025-10-12T11:42	10	52	0.1	51	52	382	0.6	381	383	11.9	77.9
2025-10-12T11:43	10	52	0.1	52	52	383	0.4	382	384	11.9	77.6
2025-10-12T11:44	10	52	0.1	52	53	382	0.4	381	382	11.8	77.2
2025-10-12T11:45	10	53	0.1	52	53	382	0.3	381	383	11.9	77.1
2025-10-12T11:46	10	52	0.1	52	53	382	0.4	381	383	11.8	76.6
2025-10-12T11:47	10	52	0.1	52	52	382	0.3	382	383	11.8	77.0
2025-10-12T11:48	10	52	0.1	52	52	383	0.2	382	383	11.9	77.7
2025-10-12T11:49	10	52	0.1	51	52	381	0.6	381	383	11.8	77.8
2025-10-12T11:50	10	52	0.1	51	52	381	0.3	380	382	11.7	78.3
2025-10-12T11:51	10	51	0.1	51	52	381	0.2	381	381	11.7	78.3
2025-10-12T11:52	10	51	0.1	51	52	381	0.3	381	382	11.8	78.4
2025-10-12T11:53	10	51	0.1	51	51	382	0.7	381	383	11.9	78.5
2025-10-12T11:54	10	51	0.1	51	51	382	0.7	381	383	12.0	78.4
2025-10-12T11:55	10	51	0.2	50	51	381	0.3	381	382	11.8	77.5
2025-10-12T11:56	10	50	0.2	50	50	382	0.4	381	382	11.8	77.9
2025-10-12T11:57	10	49	0.2	49	50	382	0.5	380	382	11.9	77.8
2025-10-12T11:58	10	49	0.2	49	49	381	0.3	381	382	11.9	78.1
2025-10-12T11:59	10	49	0.2	48	49	382	0.4	381	383	11.9	78.5
2025-10-12T12:00	10	48	0.2	48	48	382	0.4	381	383	12.0	78.4
2025-10-12T12:01	10	47	0.2	47	48	381	0.3	380	382	11.8	77.8
2025-10-12T12:02	10	47	0.2	46	47	381	0.4	380	382	11.9	77.7
2025-10-12T12:03	10	46	0.3	45	46	381	0.3	380	382	11.8	78.5
2025-10-12T12:04	10	45	0.3	45	46	382	0.3	381	383	11.9	79.1
2025-10-12T12:05	10	44	0.1	44	45	382	0.4	381	383	12.0	79.5
2025-10-12T12:06	10	45	0.1	44	45	383	0.3	382	383	12.1	78.8
2025-10-12T12:07	10	45	0.2	45	45	382	0.2	382	383	12.1	78.9
2025-10-12T12:08	10	45	0.1	45	46	382	0.2	381	382	12.0	78.7
2025-10-12T12:09	10	45	0.1	45	46	382	0.3	381	383	12.1	78.7
2025-10-12T12:10	10	46	0.1	46	46	380	0.6	379	381	11.9	76.8
2025-10-12T12:11	10	46	0.1	46	46	380	0.4	379	381	11.8	77.3
2025-10-12T12:12	10	46	0.1	46	46	380	0.4	378	380	11.8	77.1
2025-10-12T12:13	10	46	0.1	46	46	380	0.3	380	381	11.8	77.7
2025-10-12T12:14	10	46	0.1	46	46	380	0.4	380	381	11.8	77.3
2025-10-12T12:15	10	46	0.1	46	46	381	0.3	380	382	11.9	77.6
2025-10-12T12:16	10	46	0.1	46	46	382	0.3	381	382	11.9	77.7
2025-10-12T12:17	10	46	0.1	46	46	380	0.4	380	382	11.8	77.5
2025-10-12T12:18	10	46	0.1	46	46	380	0.3	379	381	11.8	77.5
2025-10-12T12:19	10	46	0.1	46	46	379	0.3	379	380	11.8	77.7
2025-10-12T12:20	10	46	0.1	46	46	380	0.2	380	381	11.9	77.8
2025-10-12T12:21	10	46	0.1	46	46	381	0.5	380	382	12.0	78.3
2025-10-12T12:22	10	46	0.1	46	46	380	0.4	380	381	11.9	77.2
2025-10-12T12:23	10	46	0.1	46	46	380	0.3	379	380	11.9	77.4
2025-10-12T12:24	10	46	0.1	45	46	380	0.3	379	381	11.9	77.5
2025-10-12T12:25	10	45	0.1	45	45	379	0.3	379	380	11.9	78.0
2025-10-12T12:26	10	45	0.1	45	45	380	0.4	379	381	11.9	78.2
2025-10-12T12:27	10	44	0.1	44	45	381	0.3	380	381	12.0	78.3
2025-10-12T12:28	10	44	0.1	44	44	381	0.3	380	381	12.0	77.7
2025-10-12T12:29	10	43	0.1	43	44	381	0.2	381	381	12.0	78.4
2025-10-12T12:30	10	43	0.2	43	43	380	0.3	379	381	11.9	77.9
2025-10-12T12:31	10	43	0.1	42	43	380	0.2	379	380	11.9	77.2
2025-10-12T12:32	10	42	0.1	42	42	379	0.3	379	380	11.8	77.3
2025-10-12T12:33	10	42	0.1	42	42	380	0.3	379	381	11.9	78.8
2025-10-12T12:34	10	42	0.1	42	42	381	0.3	380	381	12.0	78.0
2025-10-12T12:35	10	42	0.1	41	42	380	0.3	380	381	12.0	77.8
2025-10-12T12:36	10	41	0.2	41	42	381	0.3	380	382	12.1	77.9
2025-10-12T12:37	10	41	0.2	40	41	381	0.3	380	381	12.1	77.6
2025-10-12T12:38	10	40	0.2	39	40	380	0.5	380	381	12.0	77.2
2025-10-12T12:39	10	39	0.3	38	39	380	0.3	379	381	11.9	77.2
2025-10-12T12:40	10	38	0.3	38	39	380	0.4	379	380	12.0	77.0
2025-10-12T12:41	10	37	0.2	37	38	379	0.3	378	380	12.0	77.7
2025-10-12T12:42	10	37	0.2	36	37	379	0.3	378	379	12.0	77.8
2025-10-12T12:43	10	36	0.2	35	36	378	0.3	378	379	12.0	77.7
2025-10-12T12:44	10	35	0.2	35	36	378	0.3	378	379	12.0	77.3
2025-10-12T12:45	10	34	0.2	34	35	379	0.4	378	379	12.0	77.5
2025-10-12T12:46	10	34	0.2	33	34	378	0.3	378	379	12.0	78.1
2025-10-12T12:47	10	33	0.2	33	33	378	0.6	377	379	11.9	77.2
2025-10-12T12:48	10	32	0.2	32	33	377	0.2	376	377	11.9	77.5
2025-10-12T12:49	10	32	0.1	32	32	377	0.2	376	377	11.9	77.7
2025-10-12T12:50	10	32	0.1	32	32	377	0.2	376	377	12.0	78.0
2025-10-12T12:51	10	32	0.2	32	33	376	0.3	376	377	11.9	77.2
2025-10-12T12:52	10	33	0.3	33	33	376	0.2	376	377	11.9	77.4
2025-10-12T12:53	10	34	0.2	33	34	377	0.4	376	378	12.0	77.7
2025-10-12T12:54	10	34	0.1	34	35	377	0.4	376	378	11.9	77.0
2025-10-12T12:55	10	35	0.1	34	35	377	0.4	376	377	11.8	77.1
2025-10-12T12:56	10	35	0.1	35	35	377	0.3	376	378	11.9	77.5
2025-10-12T12:57	10	35	0.1	35	35	377	0.2	377	378	11.9	77.6
2025-10-12T12:58	10	35	0.1	34	35	377	0.3	376	377	11.8	76.9
2025-10-12T12:59	10	34	0.1	34	35	377	0.2	376	377	11.9	77.5
2025-10-12T13:00	10	34	0.1	34	34	378	0.3	377	378	12.0	78.0
2025-10-12T13:01	10	34	0.1	34	34	377	0.3	377	378	11.9	77.4
2025-10-12T13:02	10	34	0.1	34	34	377	0.4	376	378	11.9	77.7
2025-10-12T13:03	10	34	0.1	34	34	376	0.3	375	377	11.8	77.1
2025-10-12T13:04	10	34	0.1	34	34	376	0.2	375	376	11.8	77.3
2025-10-12T13:05	10	35	0.1	34	35	376	0.2	376	377	11.8	77.1
2025-10-12T13:06	10	35	0.1	35	35	377	0.4	376	378	11.9	77.7
2025-10-12T13:07	10	35	0.1	35	35	377	0.2	377	378	12.0	77.3
2025-10-12T13:08	10	35	0.1	35	35	377	0.2	376	378	11.9	77.1
2025-10-12T13:09	10	35	0.1	34	35	376	0.2	376	377	11.9	76.8
2025-10-12T13:10	10	34	0.1	34	34	377	0.3	376	377	11.9	76.9
2025-10-12T13:11	10	34	0.1	33	34	378	0.4	377	378	12.0	77.5
2025-10-12T13:12	10	33	0.2	33	34	378	0.2	377	378	12.0	77.6
2025-10-12T13:13	10	33	0.2	33	33	378	0.3	377	378	12.0	77.2
2025-10-12T13:14	10	33	0.1	32	33	377	0.3	377	378	11.9	77.4
2025-10-12T13:15	10	32	0.1	32	33	378	0.3	377	378	12.0	78.2
2025-10-12T13:16	10	32	0.1	32	33	376	0.3	376	377	11.9	76.6
2025-10-12T13:17	10	32	0.1	32	33	376	0.2	375	376	11.8	77.1
2025-10-12T13:18	10	32	0.1	32	33	376	0.3	375	377	11.9	77.7
2025-10-12T13:19	10	32	0.1	32	33	377	0.2	377	377	11.8	77.1
2025-10-12T13:20	10	33	0.1	32	33	377	0.3	376	377	11.9	77.6
2025-10-12T13:21	10	33	0.1	33	33	376	0.3	376	377	11.8	77.1
2025-10-12T13:22	10	33	0.1	33	33	376	0.3	376	377	11.8	77.3
2025-10-12T13:23	10	33	0.1	33	33	377	0.3	376	377	11.8	77.6
2025-10-12T13:24	10	33	0.1	33	33	377	0.3	377	378	11.9	77.8
2025-10-12T13:25	10	33	0.1	33	33	378	0.4	377	378	11.9	77.8
2025-10-12T13:26	10	33	0.1	33	34	379	0.4	378	379	12.0	78.2
2025-10-12T13:27	10	34	0.1	33	34	378	0.2	378	379	12.0	77.5
2025-10-12T13:28	10	34	0.1	33	34	379	0.3	378	379	12.1	78.2
2025-10-12T13:29	10	33	0.1	33	34	378	0.4	377	379	12.1	77.5
2025-10-12T13:30	10	33	0.1	33	33	377	0.4	376	378	12.0	77.4
2025-10-12T13:31	10	33	0.2	32	33	377	0.4	376	378	11.9	77.2
2025-10-12T13:32	10	32	0.1	32	33	376	0.3	376	377	11.8	77.0
2025-10-12T13:33	10	32	0.1	32	32	376	0.2	376	377	11.8	77.7
2025-10-12T13:34	10	32	0.1	32	32	376	0.2	376	377	11.9	77.7
2025-10-12T13:35	10	32	0.1	32	32	376	0.3	375	376	11.9	77.6
2025-10-12T13:36	10	32	0.1	32	32	376	0.2	376	377	11.9	77.4
2025-10-12T13:37	10	32	0.1	32	32	376	0.3	376	377	11.9	77.6
2025-10-12T13:38	10	32	0.1	32	32	377	0.3	376	378	11.9	77.9
2025-10-12T13:39	10	32	0.1	32	32	377	0.3	376	377	11.9	77.0
2025-10-12T13:40	10	32	0.1	31	32	377	0.3	376	377	11.9	77.7
2025-10-12T13:41	10	31	0.1	31	32	378	0.3	377	378	12.0	78.0
2025-10-12T13:42	10	31	0.2	31	31	378	0.4	377	378	12.0	77.6
2025-10-12T13:43	10	31	0.1	30	31	378	0.2	377	378	12.1	78.0
2025-10-12T13:44	10	30	0.2	30	30	378	0.4	377	379	12.0	77.0
2025-10-12T13:45	10	29	0.2	29	30	377	0.2	377	378	12.1	77.1
2025-10-12T13:46	10	29	0.2	28	29	377	0.2	377	378	12.1	77.4
2025-10-12T13:47	10	28	0.1	28	29	377	0.3	377	378	12.1	76.7
2025-10-12T13:48	10	28	0.1	28	29	378	0.3	377	378	12.1	77.6
2025-10-12T13:49	10	29	0.1	28	29	377	0.3	377	378	12.1	77.1
2025-10-12T13:50	10	29	0.1	29	29	377	0.3	377	378	12.1	77.2
2025-10-12T13:51	10	29	0.1	29	29	377	0.3	376	377	12.0	76.8
2025-10-12T13:52	10	29	0.1	29	29	376	0.3	376	377	11.9	76.5
2025-10-12T13:53	10	29	0.1	29	29	376	0.3	375	377	11.9	76.5
2025-10-12T13:54	10	29	0.1	29	29	376	0.2	376	376	11.9	76.9
2025-10-12T13:55	10	29	0.1	28	29	376	0.4	376	377	11.9	76.5
2025-10-12T13:56	10	28	0.1	28	29	377	0.3	377	378	12.0	77.0
2025-10-12T13:57	10	28	0.1	28	29	377	0.3	377	378	12.0	77.1
2025-10-12T13:58	10	28	0.1	28	28	377	0.2	376	377	12.0	76.9
2025-10-12T13:59	10	28	0.1	28	28	376	0.3	376	377	12.0	76.4
2025-10-12T14:00	10	28	0.1	28	28	376	0.3	376	377	12.0	76.3
2025-10-12T14:01	10	28	0.1	28	28	376	0.3	375	376	11.9	76.3
2025-10-12T14:02	10	28	0.1	28	28	375	0.3	375	376	11.9	75.9
2025-10-12T14:03	10	28	0.1	28	28	376	0.3	375	377	11.9	76.1
2025-10-12T14:04	10	28	0.1	28	28	376	0.3	376	377	12.0	76.3
2025-10-12T14:05	10	28	0.1	28	29	376	0.2	376	377	12.0	76.3
2025-10-12T14:06	10	29	0.1	28	29	376	0.4	375	376	12.0	75.8
2025-10-12T14:07	10	28	0.1	28	29	375	0.3	375	376	12.0	75.8
2025-10-12T14:08	10	28	0.1	28	28	376	0.4	375	377	12.0	76.3
2025-10-12T14:09	10	28	0.2	28	28	376	0.2	375	376	12.0	75.9
2025-10-12T14:10	10	27	0.2	27	28	375	0.4	374	376	11.9	75.8
2025-10-12T14:11	10	27	0.2	26	27	375	0.3	375	376	11.9	76.5
2025-10-12T14:12	10	26	0.1	26	27	376	0.3	375	376	12.0	76.2
2025-10-12T14:13	10	26	0.1	26	27	376	0.3	375	376	12.0	76.2
2025-10-12T14:14	10	27	0.2	26	27	376	0.3	375	377	12.1	76.3
2025-10-12T14:15	10	27	0.2	27	28	375	0.2	375	376	12.0	75.6
2025-10-12T14:16	10	28	0.2	28	28	375	0.3	375	376	12.0	75.0
2025-10-12T14:17	10	28	0.1	28	28	375	0.3	375	376	12.0	74.5
2025-10-12T14:18	10	28	0.1	28	28	375	0.2	374	375	11.9	74.2
2025-10-12T14:19	10	28	0.1	28	28	375	0.2	375	376	11.8	74.1
2025-10-12T14:20	10	28	0.1	27	28	376	0.3	375	376	11.9	74.8
2025-10-12T14:21	10	28	0.1	27	28	376	0.3	375	376	11.9	75.2
2025-10-12T14:22	10	28	0.1	27	28	376	0.3	375	376	11.9	75.4
2025-10-12T14:23	10	27	0.2	27	28	376	0.3	375	376	11.9	75.7
2025-10-12T14:24	10	27	0.2	26	27	376	0.3	375	377	11.9	75.9
2025-10-12T14:25	10	26	0.2	26	26	376	0.3	376	377	11.9	76.3
2025-10-12T14:26	10	26	0.1	25	26	376	0.2	376	377	11.9	76.5
2025-10-12T14:27	10	25	0.1	25	25	376	0.3	375	376	11.9	76.6
2025-10-12T14:28	10	25	0.2	24	25	375	0.3	375	376	11.9	76.2
2025-10-12T14:29	10	24	0.2	24	24	375	0.3	374	375	11.9	76.6
2025-10-12T14:30	10	24	0.1	23	24	374	0.3	374	375	11.9	76.1
2025-10-12T14:31	10	23	0.1	23	24	374	0.3	374	375	11.9	75.8
2025-10-12T14:32	10	23	0.1	23	23	374	0.3	373	375	11.9	76.0
2025-10-12T14:33	10	23	0.1	23	23	374	0.2	373	374	11.9	75.9
2025-10-12T14:34	10	23	0.1	23	23	374	0.4	373	375	11.9	76.9
2025-10-12T14:35	10	23	0.1	23	23	374	0.3	373	375	11.9	75.8
2025-10-12T14:36	10	23	0.1	23	23	374	0.2	374	374	11.8	75.8
2025-10-12T14:37	10	23	0.1	23	23	373	0.3	373	374	11.8	75.6
2025-10-12T14:38	10	23	0.1	22	23	374	0.3	373	374	11.8	75.7
2025-10-12T14:39	10	23	0.1	22	23	374	0.3	374	375	11.9	76.9
2025-10-12T14:40	10	23	0.1	22	23	374	0.2	374	375	11.9	76.5
2025-10-12T14:41	10	22	0.1	22	23	374	0.2	374	375	11.9	76.1
2025-10-12T14:42	10	22	0.1	22	22	375	0.2	374	375	11.9	75.9
2025-10-12T14:43	10	22	0.2	21	22	374	0.2	374	375	11.9	75.6
2025-10-12T14:44	10	21	0.1	21	22	374	0.4	373	375	11.9	75.0
2025-10-12T14:45	10	21	0.1	21	21	374	0.2	373	374	11.9	75.1
2025-10-12T14:46	10	21	0.1	21	21	373	0.3	373	374	11.8	74.8
2025-10-12T14:47	10	21	0.1	21	21	373	0.2	372	373	11.8	74.3
2025-10-12T14:48	10	21	0.1	21	21	373	0.2	372	373	11.8	74.6
2025-10-12T14:49	10	21	0.1	21	21	373	0.3	372	373	11.8	74.8
2025-10-12T14:50	10	21	0.1	21	21	373	0.2	372	373	11.8	74.7
2025-10-12T14:51	10	21	0.1	20	21	372	0.3	371	373	11.8	74.1
2025-10-12T14:52	10	20	0.1	20	21	372	0.2	371	372	11.8	74.6
2025-10-12T14:53	10	20	0.1	20	20	372	0.2	372	373	11.8	74.6
2025-10-12T14:54	10	20	0.1	20	20	373	0.3	372	374	11.8	74.8
2025-10-12T14:55	10	20	0.2	19	20	373	0.3	372	374	11.9	75.1
2025-10-12T14:56	10	19	0.3	18	20	372	0.3	372	373	11.8	74.8
2025-10-12T14:57	10	18	0.3	18	19	372	0.2	372	373	11.8	75.1
2025-10-12T14:58	10	17	0.2	17	18	372	0.2	372	373	11.8	74.8
2025-10-12T14:59	10	17	0.2	16	17	372	0.2	371	372	11.8	75.0
2025-10-12T15:00	10	16	0.2	16	16	372	0.2	371	372	11.8	75.6
2025-10-12T15:01	10	16	0.1	15	16	372	0.3	371	372	11.7	75.9
2025-10-12T15:02	10	15	0.1	15	15	372	0.2	371	372	11.7	76.4
2025-10-12T15:03	10	15	0.1	15	15	372	0.3	371	372	11.7	76.0
2025-10-12T15:04	10	15	0.1	15	15	372	0.2	372	372	11.7	76.4
2025-10-12T15:05	10	14	0.1	14	15	372	0.4	371	373	11.7	76.6
2025-10-12T15:06	10	14	0.1	14	14	371	0.3	370	371	11.7	76.6
2025-10-12T15:07	10	14	0.1	14	14	371	0.2	370	371	11.6	76.2
2025-10-12T15:08	10	14	0.1	14	14	370	0.3	369	371	11.6	75.7
2025-10-12T15:09	10	14	0.1	14	14	370	0.3	370	371	11.6	75.8
2025-10-12T15:10	10	14	0.2	14	15	370	0.2	369	371	11.6	75.4
2025-10-12T15:11	10	15	0.1	14	15	370	0.3	370	371	11.6	75.9
2025-10-12T15:12	10	15	0.1	15	15	370	0.2	370	371	11.6	76.3
2025-10-12T15:13	10	14	0.2	14	15	370	0.3	369	371	11.6	76.1
2025-10-12T15:14	10	14	0.2	13	14	370	0.2	370	371	11.6	76.1
2025-10-12T15:15	10	13	0.2	13	14	371	0.2	370	371	11.6	76.3
2025-10-12T15:16	10	13	0.1	13	13	370	0.2	370	371	11.6	76.4
2025-10-12T15:17	10	13	0.1	13	13	370	0.3	370	371	11.6	76.7
2025-10-12T15:18	10	13	0.1	13	13	371	0.2	370	371	11.7	76.8
2025-10-12T15:19	10	13	0.1	12	13	370	0.4	370	371	11.7	76.3
2025-10-12T15:20	10	12	0.1	12	13	370	0.2	370	371	11.7	77.5
2025-10-12T15:21	10	12	0.1	12	12	370	0.3	370	371	11.7	77.9
2025-10-12T15:22	10	12	0.1	12	13	371	0.2	370	371	11.7	76.9
2025-10-12T15:23	10	13	0.1	12	13	370	0.2	370	371	11.7	76.6
2025-10-12T15:24	10	13	0.1	12	13	370	0.2	370	371	11.7	76.9
2025-10-12T15:25	10	13	0.1	13	13	371	0.2	371	371	11.7	77.4
2025-10-12T15:26	10	13	0.2	13	14	371	0.2	371	372	11.8	78.3
2025-10-12T15:27	10	14	0.2	14	15	371	0.2	371	372	11.8	78.0
2025-10-12T15:28	10	14	0.1	14	15	371	0.3	371	372	11.7	77.4
2025-10-12T15:29	10	15	0.1	15	15	371	0.2	371	372	11.7	77.4
2025-10-12T15:30	10	15	0.1	14	15	372	0.3	371	372	11.7	76.7
2025-10-12T15:31	10	14	0.2	14	15	372	0.2	371	372	11.7	76.8
2025-10-12T15:32	10	14	0.1	13	14	372	0.2	371	372	11.7	76.3
2025-10-12T15:33	10	13	0.1	13	14	371	0.3	370	372	11.7	75.9
2025-10-12T15:34	10	13	0.1	13	13	371	0.2	371	371	11.7	76.2
2025-10-12T15:35	10	13	0.1	13	13	371	0.2	370	371	11.7	76.0
2025-10-12T15:36	10	13	0.1	13	14	371	0.3	370	371	11.7	76.5
2025-10-12T15:37	10	14	0.1	13	14	371	0.2	370	371	11.7	76.3
2025-10-12T15:38	10	14	0.1	13	14	371	0.2	370	371	11.7	76.8
2025-10-12T15:39	10	14	0.1	13	14	371	0.2	370	371	11.7	76.5
2025-10-12T15:40	10	13	0.1	13	14	371	0.2	370	371	11.7	76.8
2025-10-12T15:41	10	13	0.2	12	13	371	0.2	370	371	11.7	76.6
2025-10-12T15:42	10	12	0.1	12	13	370	0.2	370	371	11.7	76.5
2025-10-12T15:43	10	13	0.2	12	13	370	0.3	369	370	11.7	76.8
2025-10-12T15:44	10	13	0.1	13	13	369	0.2	369	370	11.7	76.6
2025-10-12T15:45	10	14	0.1	13	14	370	0.2	369	370	11.7	76.7
2025-10-12T15:46	10	14	0.1	14	14	370	0.3	370	371	11.7	77.2
2025-10-12T15:47	10	14	0.1	14	14	370	0.2	370	371	11.8	76.9
2025-10-12T15:48	10	14	0.2	13	14	370	0.2	370	371	11.8	77.5
2025-10-12T15:49	10	13	0.4	12	13	370	0.3	370	371	11.8	76.9
2025-10-12T15:50	10	11	0.3	11	12	370	0.3	369	370	11.8	76.2
2025-10-12T15:51	10	10	0.2	10	11	369	0.3	368	370	11.7	76.1
2025-10-12T15:52	10	10	0.1	10	10	369	0.2	368	369	11.7	75.8
2025-10-12T15:53	10	10	0.2	10	11	368	0.2	368	369	11.7	76.3
2025-10-12T15:54	10	11	0.1	11	11	368	0.2	368	369	11.7	76.2
2025-10-12T15:55	10	11	0.1	11	12	368	0.2	368	369	11.7	73.5
2025-10-12T15:56	10	11	0.2	11	11	368	0.3	367	368	11.7	73.4
2025-10-12T15:57	10	11	0.1	11	11	368	0.2	367	368	11.7	74.4
2025-10-12T15:58	10	11	0.1	11	11	368	0.2	367	368	11.7	75.2
2025-10-12T15:59	10	10	0.2	10	11	367	0.3	367	368	11.6	75.2
2025-10-12T16:00	10	10	0.2	10	10	367	0.3	366	367	11.6	74.3
2025-10-12T16:01	10	9	0.1	9	10	367	0.3	366	367	11.6	74.7
2025-10-12T16:02	10	9	0.1	9	10	366	0.2	366	367	11.6	74.8
2025-10-12T16:03	10	9	0.1	9	10	366	0.3	366	367	11.6	74.6
2025-10-12T16:04	10	9	0.1	9	10	366	0.2	365	366	11.6	74.9
2025-10-12T16:05	10	9	0.2	8	10	366	0.3	365	366	11.6	74.2
2025-10-12T16:06	10	8	0.4	7	9	365	0.3	365	366	11.6	73.9
2025-10-12T16:07	10	7	0.3	6	7	364	0.3	364	365	11.6	73.9
2025-10-12T16:08	10	6	0.2	6	6	363	0.3	363	364	11.6	75.1
2025-10-12T16:09	10	6	0.1	5	6	362	0.4	362	363	11.5	75.8
2025-10-12T16:10	10	6	0.1	6	6	362	0.3	361	362	11.5	74.8
2025-10-12T16:11	10	6	0.1	6	6	361	0.2	361	362	11.5	74.6
2025-10-12T16:12	10	6	0.1	6	6	361	0.2	360	361	11.5	74.1
2025-10-12T16:13	10	7	0.2	6	7	360	0.2	360	361	11.6	74.3
2025-10-12T16:14	10	7	0.1	7	7	360	0.2	360	361	11.5	75.2
2025-10-12T16:15	10	7	0.1	7	8	361	0.3	360	361	11.4	75.6
2025-10-12T16:16	10	8	0.1	7	8	361	0.3	361	362	11.4	76.0
2025-10-12T16:17	10	7	0.2	7	7	362	0.3	361	362	11.4	76.2
2025-10-12T16:18	10	7	0.2	6	7	362	0.3	362	363	11.4	76.0
2025-10-12T16:19	10	6	0.1	6	7	363	0.2	362	363	11.4	75.8
2025-10-12T16:20	10	6	0.1	6	6	363	0.2	363	364	11.4	76.3
2025-10-12T16:21	10	6	0.2	5	6	363	0.2	363	364	11.4	76.6
2025-10-12T16:22	10	5	0.1	5	5	364	0.3	363	364	11.4	76.5
2025-10-12T16:23	10	5	0.1	5	5	364	0.2	363	364	11.4	76.3
2025-10-12T16:24	10	5	0.1	4	5	364	0.2	363	364	11.4	76.2
2025-10-12T16:25	10	4	0.1	4	5	364	0.2	364	364	11.4	76.2
2025-10-12T16:26	10	4	0.1	4	4	364	0.2	364	365	11.4	76.1
2025-10-12T16:27	10	4	0.1	4	4	364	0.2	364	365	11.4	76.4
2025-10-12T16:28	10	4	0.1	4	4	364	0.2	363	364	11.4	75.9
2025-10-12T16:29	10	4	0.1	3	4	364	0.2	364	364	11.4	76.4
2025-10-12T16:30	10	3	0.1	3	4	364	0.3	363	364	11.4	76.5
2025-10-12T16:31	10	3	0.1	3	3	364	0.3	364	365	11.4	75.9
2025-10-12T16:32	10	3	0.1	3	3	365	0.2	364	365	11.4	75.9
2025-10-12T16:33	10	2	0.1	2	3	365	0.2	364	365	11.4	76.1
2025-10-12T16:34	10	2	0.1	2	2	365	0.2	364	365	11.4	76.1
2025-10-12T16:35	10	2	0.1	2	2	364	0.2	364	365	11.5	75.6
2025-10-12T16:36	10	2	0.1	2	2	364	0.2	364	365	11.5	76.1
2025-10-12T16:37	10	2	0.1	2	2	364	0.2	364	365	11.4	76.3
2025-10-12T16:38	10	2	0.1	2	2	364	0.2	364	365	11.4	76.8
2025-10-12T16:39	10	2	0.1	1	2	364	0.2	364	365	11.4	76.7
2025-10-12T16:40	10	2	0.1	1	2	364	0.2	364	365	11.4	76.9
2025-10-12T16:41	10	1	0.1	1	2	364	0.2	364	364	11.4	77.1
2025-10-12T16:42	10	1	0.1	1	1	364	0.2	364	365	11.4	77.1
2025-10-12T16:43	10	1	0.1	1	1	364	0.2	363	364	11.4	77.1
2025-10-12T16:44	10	1	0.1	1	1	364	0.2	364	365	11.4	77.4
2025-10-12T16:45	10	1	0.1	1	1	364	0.3	363	365	11.4	78.0
2025-10-12T16:46	10	1	0.1	1	1	364	0.2	363	364	11.4	78.3
2025-10-12T16:47	10	1	0.1	1	1	364	0.2	363	364	11.4	77.9
2025-10-12T16:48	10	1	0.1	1	1	364	0.2	364	365	11.4	77.2
2025-10-12T16:49	10	1	0.1	1	1	364	0.2	363	364	11.4	77.6
2025-10-12T16:50	10	1	0.1	1	1	364	0.2	363	364	11.4	77.5
2025-10-12T16:51	10	1	0.1	1	1	364	0.3	363	365	11.4	76.9
2025-10-12T16:52	10	1	0.1	1	1	364	0.2	364	365	11.4	77.0
2025-10-12T16:53	10	1	0.1	1	1	364	0.2	364	365	11.4	77.1
2025-10-12T16:54	10	1	0.1	1	1	364	0.2	364	364	11.4	77.0
2025-10-12T16:55	10	1	0.0	1	1	364	0.2	364	365	11.4	77.1
2025-10-12T16:56	10	1	0.1	1	1	364	0.3	363	365	11.4	77.3
2025-10-12T16:57	10	1	0.1	1	1	364	0.2	364	365	11.4	77.5
2025-10-12T16:58	10	1	0.0	1	1	364	0.2	364	365	11.4	77.9
2025-10-12T16:59	10	1	0.1	1	1	364	0.2	364	365	11.4	77.6
2025-10-12T17:00	10	1	0.1	1	1	364	0.2	364	365	11.4	77.6
2025-10-12T17:01	10	1	0.0	1	1	365	0.2	364	365	11.4	77.6
2025-10-12T17:02	10	1	0.0	1	1	365	0.2	364	365	11.4	78.4
2025-10-12T17:03	10	1	0.0	1	1	365	0.2	364	365	11.4	78.4
2025-10-12T17:04	10	1	0.1	1	1	365	0.2	364	365	11.4	78.5
2025-10-12T17:05	10	1	0.1	1	1	365	0.3	364	365	11.4	78.2
2025-10-12T17:06	10	1	0.0	1	1	365	0.2	364	365	11.4	78.0
2025-10-12T17:07	10	1	0.0	1	1	365	0.1	365	365	11.4	78.3
2025-10-12T17:08	10	1	0.0	1	1	365	0.2	364	365	11.4	78.2
2025-10-12T17:09	10	1	0.0	1	1	365	0.2	364	365	11.4	78.2
2025-10-12T17:10	10	1	0.0	1	1	365	0.2	365	366	11.4	78.4
2025-10-12T17:11	10	1	0.0	1	1	365	0.2	365	366	11.4	77.6
2025-10-12T17:12	10	1	0.0	1	1	365	0.2	365	366	11.4	77.9
2025-10-12T17:13	10	1	0.1	0	1	365	0.2	365	365	11.4	78.1
2025-10-12T17:14	10	1	0.0	1	1	365	0.2	365	366	11.4	77.7
2025-10-12T17:15	10	1	0.0	1	1	365	0.2	365	365	11.5	77.5
2025-10-12T17:16	10	1	0.0	1	1	365	0.2	364	365	11.5	77.7
2025-10-12T17:17	10	0	0.1	0	1	365	0.2	364	365	11.4	77.9
2025-10-12T17:18	10	0	0.0	0	1	365	0.2	364	365	11.4	78.1
2025-10-12T17:19	10	0	0.1	0	1	365	0.3	364	365	11.4	78.3
2025-10-12T17:20	10	0	0.0	0	1	365	0.2	364	365	11.4	78.3
2025-10-12T17:21	10	0	0.0	0	0	365	0.2	364	365	11.4	78.2
2025-10-12T17:22	10	0	0.0	0	1	365	0.2	364	365	11.4	78.2
2025-10-12T17:23	10	0	0.1	0	1	365	0.2	364	365	11.4	79.1
2025-10-12T17:24	10	0	0.0	0	1	365	0.2	364	365	11.3	79.1
2025-10-12T17:25	10	0	0.0	0	0	365	0.2	364	365	11.3	79.6
2025-10-12T17:26	10	0	0.1	0	1	365	0.2	364	365	11.3	79.8
2025-10-12T17:27	10	0	0.1	0	0	365	0.2	364	365	11.3	79.8
2025-10-12T17:28	10	0	0.1	0	0	365	0.3	364	365	11.2	80.4
2025-10-12T17:29	10	0	0.1	0	1	364	0.3	364	365	11.2	81.0
2025-10-12T17:30	10	0	0.1	0	1	364	0.2	363	364	11.1	81.2
2025-10-12T17:31	10	0	0.1	0	0	364	0.2	363	364	11.1	81.1
2025-10-12T17:32	10	0	0.1	0	0	363	0.2	363	364	11.1	81.0
2025-10-12T17:33	10	0	0.1	0	1	363	0.2	362	364	11.1	80.4
2025-10-12T17:34	10	0	0.1	0	0	362	0.2	362	363	11.1	80.3
2025-10-12T17:35	10	0	0.1	0	1	362	0.2	361	362	11.1	80.1
2025-10-12T17:36	10	0	0.1	0	1	361	0.2	361	362	11.1	79.9
2025-10-12T17:37	10	0	0.0	0	1	361	0.2	361	361	11.1	80.0
2025-10-12T17:38	10	0	0.1	0	1	361	0.3	361	362	11.1	79.9
2025-10-12T17:39	10	0	0.1	0	1	362	0.2	361	362	11.1	79.7
2025-10-12T17:40	10	0	0.0	0	1	362	0.3	361	362	11.1	79.7
2025-10-12T17:41	10	0	0.1	0	0	362	0.2	361	362	11.2	79.7
2025-10-12T17:42	10	0	0.1	0	1	362	0.2	362	362	11.1	80.6
2025-10-12T17:43	10	0	0.1	0	0	362	0.2	361	362	11.1	80.8
2025-10-12T17:44	10	0	0.1	0	1	362	0.2	362	363	11.1	81.7
2025-10-12T17:45	10	0	0.1	0	1	362	0.2	362	363	11.1	82.5
2025-10-12T17:46	10	0	0.1	0	1	362	0.2	362	363	11.1	81.9
2025-10-12T17:47	10	0	0.1	0	0	362	0.2	361	362	11.0	82.4
2025-10-12T17:48	10	0	0.1	0	0	361	0.2	361	362	11.0	82.6
2025-10-12T17:49	10	0	0.1	0	1	361	0.2	361	362	11.0	83.2
2025-10-12T17:50	10	0	0.1	0	1	361	0.3	360	361	11.0	83.3
2025-10-12T17:51	10	0	0.1	0	1	360	0.3	359	360	10.9	83.7
2025-10-12T17:52	10	0	0.1	0	1	359	0.3	358	360	10.9	83.7
2025-10-12T17:53	10	0	0.1	0	0	358	0.4	357	359	10.9	83.4
2025-10-12T17:54	10	0	0.1	0	1	357	0.3	356	358	10.9	82.7
2025-10-12T17:55	10	0	0.1	0	1	356	0.4	355	357	10.9	82.9
2025-10-12T17:56	10	0	0.1	0	1	354	0.4	354	355	10.9	83.8
2025-10-12T17:57	10	0	0.1	0	1	353	0.4	352	354	10.8	85.1
2025-10-12T17:58	10	0	0.1	0	0	352	0.3	351	353	10.7	85.7
2025-10-12T17:59	10	0	0.1	0	1	351	0.3	350	352	10.7	86.4
2025-10-12T18:00	10	0	0.1	0	0	350	0.3	349	351	10.6	86.7
2025-10-12T18:01	10	0	0.1	0	1	349	0.3	348	349	10.6	86.0
2025-10-12T18:02	10	0	0.1	0	1	348	0.3	348	349	10.6	85.9
2025-10-12T18:03	10	0	0.1	0	0	347	0.2	347	348	10.6	86.0
2025-10-12T18:04	10	0	0.1	0	0	347	0.3	346	347	10.6	85.4
2025-10-12T18:05	10	0	0.1	0	1	346	0.2	346	347	10.6	86.7
2025-10-12T18:06	10	0	0.1	0	1	346	0.2	345	346	10.6	89.0
2025-10-12T18:07	10	0	0.2	0	1	345	0.2	345	346	10.5	88.9
2025-10-12T18:08	10	0	0.1	0	0	345	0.2	345	346	10.5	88.0
2025-10-12T18:09	10	0	0.1	0	1	345	0.2	345	345	10.5	87.5
2025-10-12T18:10	10	0	0.1	0	0	344	0.2	344	345	10.5	86.7
2025-10-12T18:11	10	0	0.1	0	1	344	0.3	344	345	10.5	87.4
2025-10-12T18:12	10	0	0.2	0	1	344	0.3	343	345	10.4	88.1
2025-10-12T18:13	10	0	0.2	0	1	344	0.2	343	344	10.4	88.4
2025-10-12T18:14	10	0	0.2	0	1	343	0.3	343	344	10.4	88.8
2025-10-12T18:15	10	0	0.2	0	1	343	0.2	343	344	10.4	88.9
2025-10-12T18:16	10	0	0.2	0	1	343	0.2	342	343	10.4	88.7
2025-10-12T18:17	10	0	0.1	0	1	343	0.2	342	343	10.4	88.0
2025-10-12T18:18	10	0	0.1	0	1	343	0.2	342	343	10.4	87.6
2025-10-12T18:19	10	0	0.2	0	1	342	0.2	342	343	10.4	87.4
2025-10-12T18:20	10	0	0.1	0	1	342	0.2	342	343	10.4	88.2
2025-10-12T18:21	10	0	0.2	0	1	342	0.2	342	343	10.2	90.0
2025-10-12T18:22	10	0	0.1	0	1	343	0.2	342	343	10.1	90.6
2025-10-12T18:23	10	0	0.1	0	0	343	0.2	343	343	10.0	90.9
2025-10-12T18:24	10	0	0.1	0	0	343	0.2	343	344	10.0	91.3
2025-10-12T18:25	10	0	0.1	0	0	344	0.2	343	344	9.9	91.5
2025-10-12T18:26	10	0	0.1	0	0	344	0.3	343	344	9.9	91.7
2025-10-12T18:27	10	0	0.1	0	1	344	0.2	344	344	9.9	92.0
2025-10-12T18:28	10	0	0.1	0	0	344	0.2	344	345	9.8	92.0
2025-10-12T18:29	10	0	0.1	0	0	345	0.3	344	345	9.8	91.6
2025-10-12T18:30	10	0	0.1	0	0	345	0.2	344	345	9.8	91.7
2025-10-12T18:31	10	0	0.1	0	0	344	0.2	344	345	9.8	91.6
2025-10-12T18:33	10	0	0.1	0	0	344	0.2	344	345	9.8	91.3
2025-10-12T18:34	10	0	0.1	0	0	344	0.3	344	345	9.9	91.0
2025-10-12T18:35	10	0	0.1	0	0	344	0.2	344	345	9.9	90.8
2025-10-12T18:36	10	0	0.1	0	0	345	0.2	344	345	9.9	90.6
2025-10-12T18:37	10	0	0.1	0	0	344	0.2	344	345	9.9	90.4
2025-10-12T18:38	10	0	0.1	0	0	344	0.2	344	345	9.9	90.5
2025-10-12T18:39	10	0	0.1	0	0	344	0.2	343	344	9.9	90.9
2025-10-12T18:40	10	0	0.1	0	0	344	0.2	344	344	10.0	91.0
2025-10-12T18:41	10	0	0.1	0	0	344	0.2	344	345	9.9	91.0
2025-10-12T18:42	10	0	0.0	0	0	345	0.3	344	345	10.0	90.6
2025-10-12T18:43	10	0	0.0	0	0	345	0.2	344	345	10.2	89.0
2025-10-12T18:44	10	0	0.1	0	0	345	0.2	344	346	10.1	89.6
2025-10-12T18:45	10	0	0.1	0	0	345	0.2	344	345	10.0	90.2
2025-10-12T18:46	10	0	0.1	0	0	345	0.2	345	346	10.0	90.4
2025-10-12T18:47	10	0	0.1	0	0	346	0.2	345	346	10.1	89.9
2025-10-12T18:48	10	0	0.1	0	0	345	0.2	345	346	10.3	88.7
2025-10-12T18:49	10	0	0.1	0	0	345	0.2	345	346	10.3	88.2
2025-10-12T18:50	10	0	0.1	0	0	344	0.3	344	345	10.2	87.7
2025-10-12T18:51	10	0	0.1	0	0	344	0.3	344	345	9.9	87.9
2025-10-12T18:52	10	0	0.1	0	0	344	0.2	343	344	9.8	88.3
2025-10-12T18:53	10	0	0.1	0	0	344	0.3	343	344	9.7	88.7
2025-10-12T18:54	10	0	0.1	0	0	343	0.3	343	344	9.4	90.4
2025-10-12T18:55	10	0	0.1	0	0	343	0.3	343	344	9.7	89.2
2025-10-12T18:56	10	0	0.1	0	0	342	0.3	342	343	9.6	89.5
2025-10-12T18:57	10	0	0.1	0	0	342	0.2	342	343	9.6	89.1
2025-10-12T18:58	10	0	0.1	0	0	342	0.3	341	343	9.6	89.1
2025-10-12T18:59	10	0	0.1	0	0	342	0.3	341	342	9.4	89.6
2025-10-12T19:00	10	0	0.1	0	0	342	0.3	341	342	9.5	89.1
2025-10-12T19:01	10	0	0.1	0	0	341	0.2	340	341	9.4	89.8
2025-10-12T19:02	10	0	0.1	0	0	341	0.2	340	342	9.4	89.4
2025-10-12T19:03	10	0	0.1	0	0	341	0.3	340	341	9.3	90.0
2025-10-12T19:04	10	0	0.1	0	0	341	0.2	340	341	9.3	90.2
2025-10-12T19:05	10	0	0.1	0	0	340	0.3	340	341	9.2	90.9
2025-10-12T19:06	10	0	0.1	0	0	340	0.3	339	341	9.0	91.5
2025-10-12T19:07	10	0	0.1	0	0	340	0.2	340	341	9.0	92.1
2025-10-12T19:08	10	0	0.1	0	0	340	0.3	340	341	9.1	92.4
2025-10-12T19:09	10	0	0.1	0	1	340	0.3	339	340	9.2	92.3
2025-10-12T19:10	10	0	0.1	0	0	339	0.3	339	340	9.1	89.6
2025-10-12T19:11	10	0	0.1	0	0	339	0.2	339	340	9.1	89.7
2025-10-12T19:12	10	0	0.1	0	0	339	0.2	338	339	9.0	88.1
2025-10-12T19:13	10	0	0.1	0	0	338	0.2	338	339	9.1	92.7
2025-10-12T19:14	10	0	0.1	0	0	338	0.2	338	339	9.1	91.3
2025-10-12T19:15	10	0	0.1	0	0	338	0.2	338	339	9.1	92.7
2025-10-12T19:16	10	0	0.1	0	0	339	0.4	338	340	9.1	92.7
2025-10-12T19:17	10	0	0.1	0	0	339	0.3	339	340	9.1	92.7
2025-10-12T19:18	10	0	0.1	0	0	340	0.5	339	341	9.1	91.2
2025-10-12T19:19	10	0	0.1	0	0	341	0.3	340	341	9.3	88.5
2025-10-12T19:20	10	0	0.1	0	0	341	0.2	341	342	9.4	88.5
2025-10-12T19:21	10	0	0.1	0	0	341	0.2	340	341	9.5	88.6
2025-10-12T19:22	10	0	0.1	0	0	341	0.3	340	341	9.5	88.3
2025-10-12T19:23	10	0	0.1	0	0	341	0.3	340	341	9.6	88.0
2025-10-12T19:24	10	0	0.1	0	0	341	0.3	340	341	9.6	88.1
2025-10-12T19:25	10	0	0.1	0	0	340	0.2	340	341	9.4	89.7
2025-10-12T19:26	10	0	0.1	0	0	340	0.2	340	341	9.2	90.5
2025-10-12T19:27	10	0	0.1	0	0	341	0.3	341	342	9.3	90.3
2025-10-12T19:28	10	0	0.1	0	0	341	0.2	341	342	9.5	89.2
2025-10-12T19:29	10	0	0.1	0	0	341	0.2	341	342	9.6	88.7
2025-10-12T19:30	10	0	0.1	0	0	342	0.3	341	342	9.4	89.1
2025-10-12T19:31	10	0	0.1	0	0	342	0.2	342	343	9.4	89.3
2025-10-12T19:32	10	0	0.1	0	0	343	0.2	342	343	9.4	89.7
2025-10-12T19:33	10	0	0.1	0	0	343	0.2	342	343	9.4	89.3
2025-10-12T19:34	10	0	0.1	0	0	343	0.2	342	344	9.4	89.8
2025-10-12T19:35	10	0	0.0	0	0	343	0.3	342	344	9.3	90.1
2025-10-12T19:36	10	0	0.1	0	0	344	0.3	343	344	9.2	90.7
2025-10-12T19:37	10	0	0.1	0	0	344	0.3	343	345	9.2	90.7
2025-10-12T19:38	10	0	0.1	0	0	344	0.3	344	345	9.3	90.5
2025-10-12T19:39	10	0	0.1	0	0	344	0.2	344	345	9.3	90.4
2025-10-12T19:40	10	0	0.1	0	0	345	0.2	344	345	9.3	90.3
2025-10-12T19:41	10	0	0.1	0	0	345	0.3	344	345	9.3	90.3
2025-10-12T19:42	10	0	0.1	0	0	345	0.4	344	346	9.3	90.4
2025-10-12T19:43	10	0	0.1	0	0	346	0.3	345	346	9.3	90.5
2025-10-12T19:44	10	0	0.1	0	0	346	0.2	346	347	9.3	90.4
2025-10-12T19:45	10	0	0.1	0	0	347	0.3	346	347	9.3	90.2
2025-10-12T19:46	10	0	0.1	0	0	347	0.2	346	347	9.4	89.4
2025-10-12T19:47	10	0	0.1	0	0	347	0.3	347	348	9.5	88.9
2025-10-12T19:48	10	0	0.1	0	0	347	0.2	347	348	9.5	88.6
2025-10-12T19:49	10	0	0.0	0	0	347	0.3	346	347	9.5	88.8
2025-10-12T19:50	10	0	0.1	0	0	347	0.3	346	347	9.5	88.5
2025-10-12T19:51	10	0	0.1	0	0	346	0.3	346	347	9.6	88.3
2025-10-12T19:52	10	0	0.1	0	0	346	0.3	346	347	9.6	88.3
2025-10-12T19:53	10	0	0.1	0	0	346	0.2	346	347	9.6	88.1
2025-10-12T19:54	10	0	0.1	0	0	346	0.3	345	346	9.6	88.3
2025-10-12T19:55	10	0	0.1	0	1	345	0.4	344	346	9.5	88.8
2025-10-12T19:56	10	0	0.1	0	0	345	0.3	344	345	9.2	89.7
2025-10-12T19:57	10	0	0.1	0	0	345	0.2	344	345	9.0	90.4
2025-10-12T19:58	10	0	0.1	0	0	344	0.2	344	345	9.1	90.6
2025-10-12T19:59	10	0	0.1	0	0	345	0.2	344	345	9.3	90.2
2025-10-12T20:00	10	0	0.1	0	0	345	0.3	344	346	9.4	90.0
2025-10-12T20:01	10	0	0.1	0	0	345	0.2	345	346	9.4	89.8
2025-10-12T20:02	10	0	0.1	0	0	345	0.2	345	346	9.4	89.4
2025-10-12T20:03	10	0	0.1	0	0	346	0.2	345	346	9.4	89.4
2025-10-12T20:04	10	0	0.1	0	0	346	0.2	346	346	9.4	89.7
2025-10-12T20:05	10	0	0.1	0	0	347	0.3	346	347	9.4	89.9
2025-10-12T20:06	10	0	0.1	0	0	348	0.2	347	348	9.3	90.1
2025-10-12T20:07	10	0	0.1	0	0	348	0.2	348	349	9.3	90.2
2025-10-12T20:08	10	0	0.1	0	0	349	0.3	348	349	9.3	90.3
2025-10-12T20:09	10	0	0.1	0	0	349	0.3	349	350	9.2	90.2
2025-10-12T20:10	10	0	0.1	0	0	350	0.2	350	351	9.2	90.4
2025-10-12T20:11	10	0	0.1	0	0	350	0.2	349	351	9.1	90.7
2025-10-12T20:12	10	0	0.1	0	0	350	0.4	350	351	9.0	91.3
2025-10-12T20:13	10	0	0.1	0	0	351	0.2	350	351	9.0	91.6
2025-10-12T20:14	10	0	0.1	0	0	351	0.3	350	352	9.0	91.8
2025-10-12T20:15	10	0	0.1	0	0	351	0.3	350	352	9.0	91.6
2025-10-12T20:16	10	0	0.1	0	0	352	0.3	351	353	9.1	91.1
2025-10-12T20:17	10	0	0.1	0	0	352	0.2	352	352	9.2	90.8
2025-10-12T20:18	10	0	0.1	0	0	352	0.2	351	353	9.1	90.9
2025-10-12T20:19	10	0	0.1	0	1	352	0.2	351	353	9.2	90.8
2025-10-12T20:20	10	0	0.1	0	0	352	0.2	352	353	9.2	90.7
2025-10-12T20:21	10	0	0.1	0	0	352	0.2	352	353	9.2	90.8
2025-10-12T20:22	10	0	0.1	0	0	353	0.2	352	353	9.2	90.5
2025-10-12T20:23	10	0	0.1	0	0	353	0.2	353	354	9.3	90.3
2025-10-12T20:24	10	0	0.1	0	0	353	0.2	353	354	9.3	90.1
2025-10-12T20:25	10	0	0.1	0	1	354	0.3	353	354	9.3	90.3
2025-10-12T20:26	10	0	0.1	0	0	354	0.2	353	354	9.2	90.5
2025-10-12T20:27	10	0	0.1	0	0	354	0.2	353	354	9.2	90.7
2025-10-12T20:28	10	0	0.1	0	0	354	0.3	353	355	9.1	90.9
2025-10-12T20:29	10	0	0.1	0	1	354	0.2	354	355	9.1	91.0
2025-10-12T20:30	10	0	0.1	0	1	354	0.3	354	355	9.1	90.9
2025-10-12T20:31	10	0	0.1	0	1	355	0.2	354	355	9.1	91.4
2025-10-12T20:32	10	0	0.1	0	0	355	0.2	354	355	9.0	91.8
2025-10-12T20:33	10	0	0.1	0	0	355	0.2	354	355	9.0	92.0
2025-10-12T20:34	10	0	0.1	0	0	355	0.2	354	355	9.0	92.0
2025-10-12T20:35	10	0	0.1	0	0	355	0.2	354	355	9.0	92.2
2025-10-12T20:36	10	0	0.1	0	0	355	0.2	354	355	9.0	92.5
2025-10-12T20:37	10	0	0.1	0	0	355	0.3	354	356	9.0	92.8
2025-10-12T20:38	10	0	0.1	0	0	355	0.2	354	355	9.0	92.3
2025-10-12T20:39	10	0	0.1	0	0	355	0.2	355	356	9.0	92.3
2025-10-12T20:40	10	0	0.1	0	0	355	0.2	355	356	9.0	92.1
2025-10-12T20:41	10	0	0.1	0	0	355	0.2	355	356	9.0	91.9
2025-10-12T20:42	10	0	0.1	0	0	355	0.3	355	356	9.1	92.0
2025-10-12T20:43	10	0	0.1	0	1	356	0.2	355	356	9.1	92.2
2025-10-12T20:44	10	0	0.1	0	1	356	0.2	355	356	9.1	92.6
2025-10-12T20:45	10	0	0.1	0	1	356	0.3	355	357	9.1	92.5
2025-10-12T20:46	10	0	0.1	0	0	356	0.2	355	356	9.1	92.2
2025-10-12T20:47	10	0	0.1	0	0	356	0.2	355	356	9.1	92.7
2025-10-12T20:48	10	0	0.1	0	0	356	0.2	355	356	9.1	93.3
2025-10-12T20:49	10	0	0.1	0	0	355	0.2	355	356	9.1	93.4
2025-10-12T20:50	10	0	0.1	0	0	355	0.3	355	356	9.2	93.1
2025-10-12T20:51	10	0	0.1	0	0	355	0.2	355	356	9.2	93.2
2025-10-12T20:52	10	0	0.1	0	0	356	0.2	355	356	9.2	93.2
2025-10-12T20:53	10	0	0.1	0	0	356	0.2	355	356	9.2	92.8
2025-10-12T20:54	10	0	0.1	0	1	356	0.2	356	357	9.2	92.5
2025-10-12T20:55	10	0	0.1	0	1	356	0.2	356	356	9.3	92.4
2025-10-12T20:56	10	0	0.1	0	0	356	0.2	356	357	9.3	92.4
2025-10-12T20:57	10	0	0.1	0	0	357	0.2	356	357	9.4	91.5
2025-10-12T20:58	10	0	0.1	0	0	357	0.2	356	357	9.4	91.1
2025-10-12T20:59	10	0	0.1	0	0	357	0.2	357	357	9.5	90.8
2025-10-12T21:00	10	0	0.1	0	0	357	0.2	357	358	9.4	91.3
2025-10-12T21:01	10	0	0.1	0	1	357	0.2	357	358	9.4	91.6
2025-10-12T21:02	10	0	0.1	0	1	357	0.2	356	358	9.5	91.1
2025-10-12T21:03	10	0	0.1	0	0	357	0.2	357	358	9.5	90.7
2025-10-12T21:04	10	0	0.1	0	1	357	0.2	357	358	9.5	91.5
2025-10-12T21:05	10	0	0.1	0	1	358	0.2	357	358	9.5	91.1
2025-10-12T21:06	10	0	0.0	0	0	358	0.3	357	358	9.5	91.1
2025-10-12T21:07	10	0	0.0	0	0	357	0.2	357	358	9.4	92.3
2025-10-12T21:08	10	0	0.1	0	0	358	0.3	357	358	9.4	93.1
2025-10-12T21:09	10	0	0.1	0	0	358	0.3	357	358	9.4	93.5
2025-10-12T21:10	10	0	0.1	0	1	357	0.2	357	358	9.3	93.2
2025-10-12T21:11	10	0	0.1	0	0	357	0.2	357	358	9.3	93.0
2025-10-12T21:12	10	0	0.1	0	0	357	0.2	357	358	9.3	93.1
2025-10-12T21:13	10	0	0.1	0	0	357	0.2	357	358	9.3	93.4
2025-10-12T21:14	10	0	0.1	0	1	357	0.2	357	358	9.2	94.0
2025-10-12T21:15	10	0	0.1	0	0	357	0.2	357	358	9.2	94.4
2025-10-12T21:16	10	0	0.1	0	0	358	0.2	357	358	9.2	94.5
2025-10-12T21:17	10	0	0.1	0	0	357	0.2	356	358	9.2	94.4
2025-10-12T21:18	10	0	0.1	0	0	358	0.2	357	358	9.2	94.8
2025-10-12T21:19	10	0	0.1	0	0	357	0.2	357	358	9.2	95.3
2025-10-12T21:20	10	0	0.1	0	0	358	0.2	357	358	9.2	95.5
2025-10-12T21:21	10	0	0.1	0	0	357	0.1	357	358	9.2	95.4
2025-10-12T21:22	10	0	0.1	0	0	357	0.2	357	358	9.2	94.8
2025-10-12T21:23	10	0	0.1	0	0	358	0.2	357	358	9.2	94.5
2025-10-12T21:24	10	0	0.1	0	0	357	0.2	357	358	9.2	94.3
2025-10-12T21:25	10	0	0.1	0	0	357	0.2	357	358	9.2	94.5
2025-10-12T21:26	10	0	0.1	0	0	357	0.2	357	358	9.2	94.9
2025-10-12T21:27	10	0	0.1	0	0	358	0.2	357	358	9.2	95.3
2025-10-12T21:28	10	0	0.1	0	0	358	0.3	357	358	9.2	95.5
2025-10-12T21:29	10	0	0.1	0	0	358	0.2	357	358	9.2	95.7
2025-10-12T21:30	10	0	0.1	0	0	358	0.2	357	358	9.2	95.4
2025-10-12T21:31	10	0	0.1	0	0	357	0.3	357	358	9.1	95.6
2025-10-12T21:32	10	0	0.1	0	0	358	0.3	357	358	9.2	95.5
2025-10-12T21:33	10	0	0.1	0	0	358	0.2	357	358	9.2	95.5
2025-10-12T21:34	10	0	0.1	0	0	358	0.2	357	358	9.2	95.8
2025-10-12T21:35	10	0	0.1	0	0	358	0.2	357	358	9.2	95.8
2025-10-12T21:36	10	0	0.1	0	0	358	0.2	357	358	9.2	95.6
2025-10-12T21:37	10	0	0.1	0	0	358	0.3	357	359	9.2	95.7
2025-10-12T21:38	10	0	0.1	0	0	358	0.2	357	358	9.2	95.6
2025-10-12T21:39	10	0	0.1	0	0	358	0.2	357	358	9.3	95.3
2025-10-12T21:40	10	0	0.1	0	0	358	0.2	357	358	9.3	95.4
2025-10-12T21:41	10	0	0.1	0	0	358	0.2	358	359	9.3	95.3
2025-10-12T21:42	10	0	0.1	0	0	358	0.2	358	358	9.3	95.1
2025-10-12T21:43	10	0	0.1	0	0	358	0.2	358	358	9.3	95.3
2025-10-12T21:44	10	0	0.0	0	0	358	0.2	358	359	9.3	95.2
2025-10-12T21:45	10	0	0.1	0	0	358	0.2	358	359	9.4	95.0
2025-10-12T21:46	10	0	0.1	0	0	358	0.2	358	359	9.4	94.7
2025-10-12T21:47	10	0	0.1	0	0	359	0.2	358	359	9.4	94.1
2025-10-12T21:48	10	0	0.1	0	0	358	0.2	358	359	9.4	93.9
2025-10-12T21:49	10	0	0.0	0	0	359	0.1	358	359	9.5	94.0
2025-10-12T21:50	10	0	0.1	0	0	359	0.2	358	359	9.5	93.7
2025-10-12T21:51	10	0	0.0	0	0	359	0.2	358	359	9.5	93.4
2025-10-12T21:52	10	0	0.0	0	0	359	0.2	358	359	9.5	93.5
2025-10-12T21:53	10	0	0.1	0	0	359	0.2	358	359	9.5	93.7
2025-10-12T21:54	10	0	0.1	0	0	359	0.2	358	359	9.5	93.7
2025-10-12T21:55	10	0	0.1	0	0	359	0.2	358	359	9.5	93.5
2025-10-12T21:56	10	0	0.1	0	0	359	0.2	358	359	9.5	93.7
2025-10-12T21:57	10	0	0.0	0	0	359	0.2	358	359	9.4	93.9
2025-10-12T21:58	10	0	0.1	0	0	359	0.2	358	359	9.4	94.4
2025-10-12T21:59	10	0	0.1	0	0	359	0.2	358	359	9.4	94.7
2025-10-12T22:00	10	0	0.1	0	0	358	0.2	358	359	9.4	95.0
2025-10-12T22:01	10	0	0.1	0	0	358	0.2	358	359	9.4	94.9
2025-10-12T22:02	10	0	0.0	0	0	358	0.2	358	359	9.4	94.8
2025-10-12T22:03	10	0	0.1	0	0	358	0.2	358	359	9.4	94.2
2025-10-12T22:04	10	0	0.1	0	0	358	0.1	358	359	9.4	94.3
2025-10-12T22:05	10	0	0.1	0	0	359	0.2	358	359	9.4	93.6
2025-10-12T22:06	10	0	0.1	0	0	358	0.2	358	359	9.4	93.5
2025-10-12T22:07	10	0	0.1	0	0	359	0.2	358	359	9.5	92.6
2025-10-12T22:08	10	0	0.1	0	0	359	0.2	358	359	9.5	91.9
2025-10-12T22:09	10	0	0.0	0	0	359	0.3	358	359	9.5	93.1
2025-10-12T22:10	10	0	0.1	0	0	358	0.2	358	359	9.5	93.3
2025-10-12T22:11	10	0	0.0	0	0	359	0.2	358	359	9.4	93.4
2025-10-12T22:12	10	0	0.1	0	0	358	0.2	358	359	9.4	93.6
2025-10-12T22:13	10	0	0.1	0	0	358	0.2	358	359	9.4	93.9
2025-10-12T22:14	10	0	0.1	0	0	359	0.2	358	359	9.4	94.4
2025-10-12T22:15	10	0	0.1	0	0	358	0.2	358	359	9.4	94.6
2025-10-12T22:16	10	0	0.1	0	0	359	0.2	358	359	9.4	94.9
2025-10-12T22:17	10	0	0.1	0	0	359	0.2	358	359	9.5	94.8
2025-10-12T22:18	10	0	0.1	0	0	359	0.2	358	359	9.5	94.8
2025-10-12T22:19	10	0	0.1	0	0	359	0.2	359	359	9.5	94.7
2025-10-12T22:20	10	0	0.1	0	0	359	0.2	358	359	9.5	93.7
2025-10-12T22:21	10	0	0.1	0	0	359	0.2	358	360	9.5	93.5
2025-10-12T22:22	10	0	0.1	0	0	359	0.2	359	360	9.5	92.6
2025-10-12T22:23	10	0	0.0	0	0	359	0.2	359	359	9.6	92.6
2025-10-12T22:24	10	0	0.0	0	0	359	0.2	359	360	9.6	92.7
2025-10-12T22:25	10	0	0.1	0	0	359	0.2	359	360	9.6	93.1
2025-10-12T22:26	10	0	0.1	0	0	359	0.2	358	359	9.6	93.8
2025-10-12T22:27	10	0	0.1	0	0	359	0.2	358	359	9.5	94.4
2025-10-12T22:28	10	0	0.1	0	0	359	0.2	359	359	9.5	94.3
2025-10-12T22:29	10	0	0.1	0	0	359	0.2	359	359	9.5	94.2
2025-10-12T22:30	10	0	0.1	0	0	359	0.2	358	360	9.5	94.3
2025-10-12T22:31	10	0	0.1	0	0	359	0.2	359	359	9.5	94.4
2025-10-12T22:32	10	0	0.1	0	0	359	0.2	359	360	9.5	94.9
2025-10-12T22:33	10	0	0.1	0	0	359	0.2	359	359	9.5	94.4
2025-10-12T22:34	10	0	0.1	0	0	359	0.2	359	360	9.5	94.2
2025-10-12T22:35	10	0	0.1	0	0	359	0.2	358	359	9.5	94.3
2025-10-12T22:36	10	0	0.1	0	0	359	0.2	359	360	9.5	94.6
2025-10-12T22:37	10	0	0.1	0	0	359	0.2	359	360	9.6	94.8
2025-10-12T22:38	10	0	0.1	0	0	359	0.2	359	360	9.6	95.2
2025-10-12T22:39	10	0	0.1	0	0	359	0.3	359	360	9.6	95.1
2025-10-12T22:40	10	0	0.1	0	0	359	0.2	359	360	9.6	95.1
2025-10-12T22:41	10	0	0.1	0	0	359	0.2	359	360	9.6	95.1
2025-10-12T22:42	10	0	0.1	0	0	359	0.3	358	360	9.6	95.0
2025-10-12T22:43	10	0	0.1	0	0	359	0.2	359	360	9.6	94.6
2025-10-12T22:44	10	0	0.1	0	0	359	0.3	358	360	9.6	94.5
2025-10-12T22:45	10	0	0.1	0	0	359	0.2	359	360	9.6	94.4
2025-10-12T22:46	10	0	0.1	0	0	359	0.2	359	360	9.6	94.0
2025-10-12T22:47	10	0	0.1	0	0	359	0.2	358	360	9.6	93.5
2025-10-12T22:48	10	0	0.1	0	0	359	0.2	359	360	9.6	93.5
2025-10-12T22:49	10	0	0.1	0	0	359	0.2	359	360	9.6	93.4
2025-10-12T22:50	10	0	0.1	0	0	359	0.2	359	360	9.6	92.9
2025-10-12T22:51	10	0	0.1	0	0	359	0.2	359	360	9.6	93.0
2025-10-12T22:52	10	0	0.1	0	0	359	0.3	359	360	9.6	93.3
2025-10-12T22:53	10	0	0.1	0	0	359	0.2	359	360	9.6	93.6
2025-10-12T22:54	10	0	0.1	0	0	359	0.2	359	360	9.6	93.6
2025-10-12T22:55	10	0	0.1	0	0	359	0.2	359	360	9.6	93.7
2025-10-12T22:56	10	0	0.1	0	0	359	0.2	359	360	9.6	93.6
2025-10-12T22:57	10	0	0.1	0	0	359	0.3	359	360	9.6	93.1
2025-10-12T22:58	10	0	0.1	0	0	359	0.2	359	360	9.6	93.2
2025-10-12T22:59	10	0	0.1	0	0	359	0.2	359	360	9.6	93.7
2025-10-12T23:00	10	0	0.1	0	0	359	0.2	359	360	9.6	93.7
2025-10-12T23:01	10	0	0.1	0	0	359	0.2	358	360	9.6	93.2
2025-10-12T23:02	10	0	0.1	0	0	359	0.2	359	360	9.6	93.1
2025-10-12T23:03	10	0	0.1	0	0	359	0.2	358	359	9.6	93.0
2025-10-12T23:04	10	0	0.1	0	0	359	0.2	358	359	9.6	93.2
2025-10-12T23:05	10	0	0.1	0	0	359	0.2	358	359	9.6	93.1
2025-10-12T23:06	10	0	0.1	0	0	359	0.2	358	359	9.6	93.0
2025-10-12T23:07	10	0	0.1	0	0	359	0.2	358	359	9.6	93.1
2025-10-12T23:08	10	0	0.1	0	0	359	0.2	358	359	9.6	93.2
2025-10-12T23:09	10	0	0.1	0	0	359	0.2	358	359	9.6	92.8
2025-10-12T23:10	10	0	0.1	0	0	359	0.2	358	359	9.6	92.6
2025-10-12T23:11	10	0	0.1	0	0	359	0.2	358	359	9.6	93.0
2025-10-12T23:12	10	0	0.1	0	0	359	0.2	358	359	9.6	93.0
2025-10-12T23:13	10	0	0.1	0	0	359	0.2	358	359	9.6	93.1
2025-10-12T23:14	10	0	0.1	0	0	359	0.2	358	359	9.6	93.2
2025-10-12T23:15	10	0	0.1	0	0	359	0.2	358	359	9.6	93.7
2025-10-12T23:16	10	0	0.1	0	0	359	0.2	358	359	9.6	94.3
2025-10-12T23:17	10	0	0.1	0	0	359	0.2	358	359	9.5	93.9
2025-10-12T23:18	10	0	0.1	0	0	359	0.2	358	359	9.5	93.6
2025-10-12T23:19	10	0	0.1	0	0	359	0.2	358	359	9.5	93.4
2025-10-12T23:20	10	0	0.1	0	0	358	0.2	358	359	9.5	93.8
2025-10-12T23:21	10	0	0.1	0	0	358	0.2	358	359	9.5	93.9
2025-10-12T23:22	10	0	0.1	0	0	358	0.2	358	359	9.5	93.4
2025-10-12T23:23	10	0	0.1	0	0	359	0.2	358	359	9.5	93.5
2025-10-12T23:24	10	0	0.1	0	0	359	0.2	358	359	9.5	93.8
2025-10-12T23:25	10	0	0.1	0	0	358	0.2	358	359	9.5	93.8
2025-10-12T23:26	10	0	0.1	0	0	358	0.2	358	359	9.5	93.5
2025-10-12T23:27	10	0	0.1	0	0	359	0.2	358	359	9.5	92.9
2025-10-12T23:28	10	0	0.1	0	0	359	0.2	358	359	9.5	92.8
2025-10-12T23:29	10	0	0.1	0	0	359	0.2	358	359	9.5	92.8
2025-10-12T23:30	10	0	0.1	0	0	359	0.2	358	359	9.5	93.1
2025-10-12T23:31	10	0	0.1	0	0	359	0.2	358	359	9.5	93.3
2025-10-12T23:32	10	0	0.1	0	0	359	0.2	358	359	9.5	93.4
2025-10-12T23:33	10	0	0.1	0	0	359	0.3	358	359	9.5	93.2
2025-10-12T23:34	10	0	0.1	0	0	359	0.3	358	359	9.5	93.5
2025-10-12T23:35	10	0	0.1	0	0	359	0.2	358	359	9.5	93.8
2025-10-12T23:36	10	0	0.1	0	0	359	0.2	358	359	9.5	93.5
2025-10-12T23:37	10	0	0.1	0	0	359	0.2	359	359	9.5	93.2
2025-10-12T23:38	10	0	0.1	0	0	359	0.2	358	359	9.5	93.3
2025-10-12T23:39	10	0	0.1	0	0	359	0.2	358	359	9.6	93.7
2025-10-12T23:40	10	0	0.1	0	0	359	0.2	358	359	9.6	94.1
2025-10-12T23:41	10	0	0.1	0	0	359	0.3	358	359	9.5	93.9
2025-10-12T23:42	10	0	0.1	0	0	359	0.3	358	359	9.5	95.2
2025-10-12T23:43	10	0	0.1	0	0	359	0.2	358	359	9.5	95.2
2025-10-12T23:44	10	0	0.1	0	0	359	0.2	358	359	9.5	93.5
2025-10-12T23:45	10	0	0.1	0	1	359	0.2	358	359	9.5	93.8
2025-10-12T23:46	10	0	0.1	0	0	359	0.2	358	359	9.5	93.9
2025-10-12T23:47	10	0	0.1	0	0	359	0.2	358	359	9.5	93.4
2025-10-12T23:48	10	0	0.1	0	0	358	0.2	358	359	9.5	93.1
2025-10-12T23:49	10	0	0.1	0	0	358	0.2	358	359	9.5	92.8
2025-10-12T23:50	10	0	0.1	0	0	358	0.2	358	359	9.4	92.9
2025-10-12T23:51	10	0	0.1	0	0	358	0.2	357	359	9.4	92.6
2025-10-12T23:52	10	0	0.1	0	0	358	0.3	357	358	9.4	93.6
2025-10-12T23:53	10	0	0.1	0	0	358	0.3	357	358	9.3	94.6
2025-10-12T23:54	10	0	0.1	0	0	357	0.2	357	358	9.2	95.1
2025-10-12T23:55	10	0	0.1	0	0	357	0.3	357	358	9.1	95.2
2025-10-12T23:56	10	0	0.1	0	0	357	0.2	356	357	9.0	94.8
2025-10-12T23:57	10	0	0.1	0	0	356	0.3	356	357	8.9	94.7
2025-10-12T23:58	10	0	0.1	0	0	356	0.2	356	357	8.9	94.8
2025-10-12T23:59	10	0	0.1	0	0	356	0.2	356	357	8.9	95.0
2025-10-13T00:00	10	0	0.1	0	0	356	0.3	356	357	8.9	95.1
2025-10-13T00:01	10	0	0.1	0	0	356	0.2	356	357	8.9	95.2
2025-10-13T00:02	10	0	0.1	0	0	356	0.3	355	357	8.9	95.4
2025-10-13T00:03	10	0	0.1	0	0	356	0.2	356	357	8.8	94.7
2025-10-13T00:04	10	0	0.1	0	0	356	0.2	356	356	8.8	94.8
2025-10-13T00:05	10	0	0.1	0	0	356	0.2	356	357	8.8	95.1
2025-10-13T00:06	10	0	0.1	0	0	356	0.2	356	357	8.8	95.1
2025-10-13T00:07	10	0	0.1	0	0	356	0.2	356	357	8.8	94.6
2025-10-13T00:08	10	0	0.1	0	0	356	0.2	356	357	8.8	94.3
2025-10-13T00:09	10	0	0.1	0	0	356	0.2	356	357	8.9	94.4
2025-10-13T00:10	10	0	0.1	0	0	356	0.2	356	357	8.9	94.5
2025-10-13T00:11	10	0	0.1	0	0	356	0.2	356	357	8.9	94.3
2025-10-13T00:12	10	0	0.1	0	0	356	0.2	356	357	8.9	94.2
2025-10-13T00:13	10	0	0.1	0	0	356	0.2	356	357	8.9	94.5
2025-10-13T00:14	10	0	0.1	0	0	356	0.2	356	357	8.9	94.4
2025-10-13T00:15	10	0	0.1	0	0	357	0.3	356	357	8.9	94.8
2025-10-13T00:16	10	0	0.1	0	0	356	0.2	356	357	8.9	94.7
2025-10-13T00:17	10	0	0.1	0	0	356	0.2	356	357	8.9	94.3
2025-10-13T00:18	10	0	0.1	0	0	357	0.2	356	357	8.9	94.4
2025-10-13T00:19	10	0	0.1	0	0	357	0.3	356	357	8.9	94.7
2025-10-13T00:20	10	0	0.1	0	0	357	0.2	356	357	8.9	95.1
2025-10-13T00:21	10	0	0.1	0	0	356	0.2	356	357	8.9	94.6
2025-10-13T00:22	10	0	0.1	0	0	357	0.2	356	357	8.9	94.4
2025-10-13T00:23	10	0	0.1	0	0	357	0.2	356	357	8.9	94.3
2025-10-13T00:24	10	0	0.1	0	0	357	0.2	356	357	8.9	94.1
2025-10-13T00:25	10	0	0.1	0	0	357	0.2	356	357	8.9	94.1
2025-10-13T00:26	10	0	0.1	0	0	357	0.2	356	357	8.9	94.0
2025-10-13T00:27	10	0	0.1	0	0	357	0.2	356	357	8.9	94.3
2025-10-13T00:28	10	0	0.1	0	0	357	0.3	356	357	9.0	94.3
2025-10-13T00:29	10	0	0.1	0	0	357	0.2	356	357	9.0	94.0
2025-10-13T00:30	10	0	0.0	0	0	357	0.2	357	357	9.0	94.0
2025-10-13T00:31	10	0	0.1	0	0	357	0.2	356	357	9.0	94.1
2025-10-13T00:32	10	0	0.1	0	0	357	0.2	356	357	9.0	94.5
2025-10-13T00:33	10	0	0.1	0	0	357	0.2	356	357	9.0	94.6
2025-10-13T00:34	10	0	0.1	0	0	357	0.2	356	358	9.0	94.2
2025-10-13T00:35	10	0	0.1	0	0	357	0.2	357	357	9.0	94.1
2025-10-13T00:36	10	0	0.1	0	0	357	0.2	356	357	9.0	93.7
2025-10-13T00:37	10	0	0.1	0	0	357	0.2	356	357	9.0	93.5
2025-10-13T00:38	10	0	0.1	0	0	357	0.2	356	357	9.0	93.7
2025-10-13T00:39	10	0	0.1	0	0	357	0.2	356	358	9.0	93.9
2025-10-13T00:40	10	0	0.1	0	0	357	0.2	357	357	9.0	94.3
2025-10-13T00:41	10	0	0.0	0	0	357	0.2	357	357	9.0	94.0
2025-10-13T00:42	10	0	0.1	0	0	357	0.2	357	357	9.0	94.0
2025-10-13T00:43	10	0	0.1	0	0	357	0.2	356	357	9.0	94.0
2025-10-13T00:44	10	0	0.1	0	0	357	0.2	356	357	9.0	93.7
2025-10-13T00:45	10	0	0.1	0	0	357	0.2	357	358	9.0	93.3
2025-10-13T00:46	10	0	0.1	0	0	357	0.2	357	358	9.0	93.1
2025-10-13T00:47	10	0	0.0	0	0	357	0.2	356	358	9.0	93.1
2025-10-13T00:48	10	0	0.0	0	0	357	0.2	356	358	9.0	93.2
2025-10-13T00:49	10	0	0.1	0	0	357	0.2	356	357	9.0	93.5
2025-10-13T00:50	10	0	0.1	0	0	357	0.2	357	358	9.0	93.9
2025-10-13T00:51	10	0	0.1	0	0	357	0.2	356	358	9.0	93.5
2025-10-13T00:52	10	0	0.1	0	0	357	0.2	357	358	9.0	93.6
2025-10-13T00:53	10	0	0.1	0	0	357	0.3	357	358	9.0	93.6
2025-10-13T00:54	10	0	0.1	0	0	357	0.2	357	358	9.0	93.3
2025-10-13T00:55	10	0	0.1	0	0	357	0.2	357	358	9.0	93.1
2025-10-13T00:56	10	0	0.1	0	0	357	0.2	356	358	9.0	93.3
2025-10-13T00:57	10	0	0.1	0	0	357	0.2	357	358	9.0	93.4
2025-10-13T00:58	10	0	0.1	0	0	357	0.2	357	358	9.0	93.4
2025-10-13T00:59	10	0	0.1	0	0	357	0.2	357	358	9.1	93.3
2025-10-13T01:00	10	0	0.1	0	0	357	0.2	357	358	9.1	93.6
2025-10-13T01:01	10	0	0.1	0	0	357	0.2	357	358	9.1	93.4
2025-10-13T01:02	10	0	0.1	0	0	357	0.2	356	358	9.1	93.4
2025-10-13T01:03	10	0	0.1	0	0	357	0.2	357	358	9.1	93.4
2025-10-13T01:04	10	0	0.1	0	0	357	0.2	357	358	9.1	93.6
2025-10-13T01:05	10	0	0.1	0	0	357	0.2	357	358	9.1	93.3
2025-10-13T01:06	10	0	0.1	0	0	357	0.2	357	358	9.1	93.0
2025-10-13T01:07	10	0	0.1	0	0	357	0.2	357	358	9.1	92.9
2025-10-13T01:08	10	0	0.1	0	0	357	0.2	357	358	9.1	93.1
2025-10-13T01:09	10	0	0.1	0	0	357	0.3	356	358	9.1	93.2
2025-10-13T01:10	10	0	0.1	0	0	357	0.2	357	358	9.1	93.1
2025-10-13T01:11	10	0	0.1	0	0	357	0.2	357	358	9.1	93.1
2025-10-13T01:12	10	0	0.1	0	0	357	0.2	357	358	9.1	93.0
2025-10-13T01:13	10	0	0.1	0	0	357	0.2	357	358	9.1	92.9
2025-10-13T01:14	10	0	0.1	0	0	357	0.2	357	358	9.1	92.9
2025-10-13T01:15	10	0	0.1	0	0	357	0.2	357	358	9.1	93.1
2025-10-13T01:16	10	0	0.1	0	0	357	0.2	357	358	9.1	93.2
2025-10-13T01:17	10	0	0.1	0	0	357	0.3	357	358	9.1	92.9
2025-10-13T01:18	10	0	0.1	0	0	357	0.2	356	358	9.1	93.1
2025-10-13T01:19	10	0	0.1	0	0	357	0.2	356	357	9.1	93.4
2025-10-13T01:20	10	0	0.1	0	0	357	0.2	356	357	9.1	92.9
2025-10-13T01:21	10	0	0.1	0	0	357	0.3	356	357	9.1	92.6
2025-10-13T01:22	10	0	0.1	0	0	357	0.3	356	357	9.2	92.8
2025-10-13T01:23	10	0	0.1	0	0	356	0.2	356	357	9.2	93.1
2025-10-13T01:24	10	0	0.0	0	0	356	0.2	356	357	9.2	93.1
2025-10-13T01:25	10	0	0.1	0	0	356	0.2	356	357	9.2	92.9
2025-10-13T01:26	10	0	0.1	0	0	357	0.2	356	357	9.2	92.8
2025-10-13T01:27	10	0	0.1	0	0	357	0.1	356	357	9.2	92.9
2025-10-13T01:28	10	0	0.1	0	0	357	0.2	356	357	9.2	92.8
2025-10-13T01:29	10	0	0.1	0	0	357	0.2	356	357	9.2	92.6
2025-10-13T01:30	10	0	0.1	0	0	357	0.3	356	357	9.2	92.3
2025-10-13T01:31	10	0	0.1	0	0	357	0.2	356	357	9.2	92.4
2025-10-13T01:32	10	0	0.1	0	0	357	0.2	356	357	9.2	92.3
2025-10-13T01:33	10	0	0.1	0	0	357	0.2	356	357	9.2	92.5
2025-10-13T01:34	10	0	0.1	0	0	357	0.2	356	357	9.2	92.8
2025-10-13T01:35	10	0	0.1	0	0	357	0.2	357	358	9.2	92.6
2025-10-13T01:36	10	0	0.1	0	0	357	0.3	356	358	9.2	92.6
2025-10-13T01:37	10	0	0.1	0	0	357	0.2	356	357	9.2	92.5
2025-10-13T01:38	10	0	0.1	0	0	357	0.2	356	357	9.2	92.6
2025-10-13T01:39	10	0	0.1	0	0	357	0.2	356	357	9.1	93.0
2025-10-13T01:40	10	0	0.1	0	0	357	0.2	356	357	9.1	93.0
2025-10-13T01:41	10	0	0.1	0	0	356	0.2	356	357	9.1	92.9
2025-10-13T01:42	10	0	0.1	0	0	356	0.2	356	357	9.1	93.2
2025-10-13T01:43	10	0	0.1	0	0	356	0.2	356	357	9.1	93.4
2025-10-13T01:44	10	0	0.1	0	0	356	0.2	356	357	9.1	93.5
2025-10-13T01:45	10	0	0.1	0	0	356	0.2	356	357	9.1	93.3
2025-10-13T01:46	10	0	0.1	0	0	356	0.2	356	357	9.1	93.1
2025-10-13T01:47	10	0	0.1	0	0	356	0.2	356	356	9.1	93.4
2025-10-13T01:48	10	0	0.1	0	0	356	0.2	356	357	9.1	93.3
2025-10-13T01:49	10	0	0.1	0	0	356	0.2	355	356	9.1	93.6
2025-10-13T01:50	10	0	0.1	0	0	356	0.2	355	356	9.1	94.2
2025-10-13T01:51	10	0	0.1	0	0	356	0.2	356	356	9.1	94.7
2025-10-13T01:52	10	0	0.1	0	0	356	0.2	356	357	9.1	94.2
2025-10-13T01:53	10	0	0.1	0	0	356	0.2	356	357	9.1	93.9
2025-10-13T01:54	10	0	0.0	0	0	356	0.3	355	356	9.1	93.9
2025-10-13T01:55	10	0	0.1	0	0	356	0.2	355	356	9.1	94.0
2025-10-13T01:56	10	0	0.1	0	0	356	0.2	355	356	9.1	94.2
2025-10-13T01:57	10	0	0.1	0	0	356	0.2	356	356	9.1	94.5
2025-10-13T01:58	10	0	0.1	0	0	356	0.2	355	356	9.1	94.5
2025-10-13T01:59	10	0	0.1	0	0	356	0.2	356	356	9.1	94.2
2025-10-13T02:00	10	0	0.1	0	0	356	0.2	356	357	9.0	94.3
2025-10-13T02:01	10	0	0.1	0	0	356	0.2	356	357	9.1	94.6
2025-10-13T02:02	10	0	0.1	0	0	356	0.2	356	357	9.1	94.9
2025-10-13T02:03	10	0	0.1	0	0	356	0.2	356	357	9.0	94.8
2025-10-13T02:04	10	0	0.1	0	0	356	0.2	356	357	9.0	95.4
2025-10-13T02:05	10	0	0.1	0	0	356	0.3	356	357	9.0	95.6
2025-10-13T02:06	10	0	0.1	0	0	356	0.2	356	357	9.1	95.3
2025-10-13T02:07	10	0	0.1	0	0	356	0.2	356	357	9.1	95.1
2025-10-13T02:08	10	0	0.1	0	0	356	0.2	356	357	9.0	94.9
2025-10-13T02:09	10	0	0.1	0	0	356	0.2	356	357	9.0	94.7
2025-10-13T02:10	10	0	0.1	0	0	356	0.3	356	357	9.0	94.6
2025-10-13T02:11	10	0	0.1	0	0	356	0.2	356	357	9.0	94.4
2025-10-13T02:12	10	0	0.1	0	0	356	0.2	356	357	9.1	94.4
2025-10-13T02:13	10	0	0.1	0	0	356	0.2	356	357	9.1	94.8
2025-10-13T02:14	10	0	0.1	0	0	356	0.2	356	357	9.1	95.2
2025-10-13T02:15	10	0	0.1	0	0	356	0.2	356	357	9.1	95.0
2025-10-13T02:16	10	0	0.1	0	0	356	0.2	356	357	9.1	94.6
2025-10-13T02:17	10	0	0.1	0	0	356	0.2	356	357	9.1	94.9
2025-10-13T02:18	10	0	0.1	0	0	356	0.2	356	357	9.1	95.4
2025-10-13T02:19	10	0	0.1	0	0	356	0.2	356	357	9.1	95.6
2025-10-13T02:20	10	0	0.1	0	0	356	0.2	356	357	9.1	95.0
2025-10-13T02:21	10	0	0.1	0	0	356	0.2	356	357	9.1	94.4
2025-10-13T02:22	10	0	0.1	0	0	356	0.2	356	357	9.1	93.9
2025-10-13T02:23	10	0	0.1	0	0	356	0.2	355	356	9.1	93.8
2025-10-13T02:24	10	0	0.1	0	0	356	0.2	356	357	9.1	93.9
2025-10-13T02:25	10	0	0.1	0	0	356	0.2	356	356	9.1	94.1
2025-10-13T02:26	10	0	0.1	0	0	356	0.2	355	356	9.0	94.2
2025-10-13T02:27	10	0	0.1	0	0	356	0.2	356	357	9.0	94.3
2025-10-13T02:28	10	0	0.1	0	0	356	0.3	355	357	9.0	94.0
2025-10-13T02:29	10	0	0.1	0	0	356	0.2	356	357	9.0	94.1
2025-10-13T02:30	10	0	0.1	0	0	356	0.2	355	356	9.0	94.1
2025-10-13T02:31	10	0	0.1	0	0	356	0.2	356	357	9.0	94.1
2025-10-13T02:32	10	0	0.1	0	0	356	0.2	356	357	9.0	93.8
2025-10-13T02:33	10	0	0.1	0	0	356	0.2	356	357	9.1	93.7
2025-10-13T02:34	10	0	0.1	0	0	356	0.3	356	357	9.1	94.1
2025-10-13T02:35	10	0	0.1	0	0	356	0.3	356	357	9.1	94.6
2025-10-13T02:36	10	0	0.0	0	0	356	0.2	356	357	9.1	94.2
2025-10-13T02:37	10	0	0.1	0	0	356	0.2	356	357	9.1	94.0
2025-10-13T02:38	10	0	0.1	0	0	356	0.2	355	357	9.0	94.3
2025-10-13T02:39	10	0	0.1	0	0	356	0.2	356	357	9.0	94.4
2025-10-13T02:40	10	0	0.1	0	0	356	0.2	356	357	9.0	94.2
2025-10-13T02:41	10	0	0.1	0	0	356	0.2	356	357	9.0	94.0
2025-10-13T02:42	10	0	0.1	0	0	356	0.2	356	357	9.1	94.1
2025-10-13T02:43	10	0	0.1	0	0	356	0.2	356	357	9.1	94.2
2025-10-13T02:44	10	0	0.1	0	0	356	0.2	356	357	9.1	94.4
2025-10-13T02:45	10	0	0.1	0	0	356	0.2	356	357	9.1	94.7
2025-10-13T02:46	10	0	0.1	0	0	356	0.2	356	357	9.1	94.6
2025-10-13T02:47	10	0	0.1	0	0	356	0.2	356	357	9.1	94.8
2025-10-13T02:48	10	0	0.1	0	0	357	0.2	356	357	9.1	94.4
2025-10-13T02:49	10	0	0.1	0	0	357	0.2	356	357	9.1	94.4
2025-10-13T02:50	10	0	0.1	0	0	356	0.2	356	357	9.1	94.5
2025-10-13T02:51	10	0	0.1	0	0	357	0.2	356	357	9.1	94.7
2025-10-13T02:52	10	0	0.1	0	0	357	0.3	356	357	9.1	94.9
2025-10-13T02:53	10	0	0.1	0	0	357	0.2	356	357	9.1	95.0
2025-10-13T02:54	10	0	0.1	0	0	357	0.2	356	357	9.1	95.2
2025-10-13T02:55	10	0	0.1	0	0	357	0.2	356	357	9.1	94.5
2025-10-13T02:56	10	0	0.1	0	0	357	0.2	356	357	9.1	94.1
2025-10-13T02:57	10	0	0.1	0	0	357	0.2	356	357	9.1	93.8
2025-10-13T02:58	10	0	0.1	0	0	357	0.2	356	357	9.1	93.5
2025-10-13T02:59	10	0	0.1	0	0	357	0.2	356	357	9.1	93.2
2025-10-13T03:00	10	0	0.1	0	0	357	0.2	356	357	9.1	92.7
2025-10-13T03:01	10	0	0.1	0	0	357	0.2	356	357	9.1	92.0
2025-10-13T03:02	10	0	0.1	0	0	357	0.2	356	357	9.1	92.7
2025-10-13T03:03	10	0	0.1	0	0	357	0.2	356	357	9.1	93.9
2025-10-13T03:04	10	0	0.1	0	0	357	0.3	356	357	9.1	94.0
2025-10-13T03:05	10	0	0.1	0	0	357	0.2	356	357	9.1	93.6
2025-10-13T03:06	10	0	0.1	0	0	357	0.2	356	357	9.1	93.4
2025-10-13T03:07	10	0	0.1	0	0	357	0.2	356	357	9.1	93.2
2025-10-13T03:08	10	0	0.1	0	0	357	0.2	356	357	9.1	93.4
2025-10-13T03:09	10	0	0.1	0	0	357	0.3	356	357	9.1	93.4
2025-10-13T03:10	10	0	0.1	0	0	357	0.2	356	357	9.1	93.3
2025-10-13T03:11	10	0	0.1	0	0	357	0.3	356	357	9.1	93.3
2025-10-13T03:12	10	0	0.1	0	0	357	0.2	356	357	9.1	93.1
2025-10-13T03:13	10	0	0.1	0	0	357	0.2	356	357	9.1	93.2
2025-10-13T03:14	10	0	0.0	0	0	357	0.2	356	357	9.1	93.6
2025-10-13T03:15	10	0	0.1	0	0	357	0.2	356	357	9.1	93.4
2025-10-13T03:16	10	0	0.1	0	0	357	0.2	356	357	9.1	92.9
2025-10-13T03:17	10	0	0.1	0	0	356	0.2	356	357	9.1	92.9
2025-10-13T03:18	10	0	0.1	0	0	356	0.3	356	357	9.1	92.9
2025-10-13T03:19	10	0	0.1	0	0	357	0.2	356	357	9.1	93.3
2025-10-13T03:20	10	0	0.1	0	0	356	0.2	356	357	9.1	93.4
2025-10-13T03:21	10	0	0.1	0	0	357	0.2	356	357	9.1	92.8
2025-10-13T03:22	10	0	0.1	0	0	357	0.2	356	357	9.1	92.6
2025-10-13T03:23	10	0	0.1	0	0	357	0.2	356	357	9.1	92.3
2025-10-13T03:24	10	0	0.1	0	0	356	0.2	356	357	9.1	92.2
2025-10-13T03:25	10	0	0.1	0	0	356	0.2	356	357	9.1	92.8
2025-10-13T03:26	10	0	0.1	0	0	356	0.2	356	357	9.1	92.9
2025-10-13T03:27	10	0	0.1	0	0	356	0.2	356	357	9.1	93.5
2025-10-13T03:28	10	0	0.1	0	0	356	0.2	356	357	9.1	93.3
2025-10-13T03:29	10	0	0.1	0	0	356	0.2	356	357	9.1	93.2
2025-10-13T03:30	10	0	0.1	0	0	356	0.3	356	357	9.1	93.0
2025-10-13T03:31	10	0	0.1	0	0	356	0.3	356	357	9.1	93.1
2025-10-13T03:32	10	0	0.0	0	0	357	0.2	356	357	9.1	93.4
2025-10-13T03:33	10	0	0.1	0	0	357	0.2	356	357	9.1	93.2
2025-10-13T03:34	10	0	0.1	0	0	357	0.3	356	357	9.1	93.2
2025-10-13T03:35	10	0	0.1	0	0	357	0.3	356	357	9.1	93.4
2025-10-13T03:36	10	0	0.1	0	0	356	0.2	356	357	9.1	93.8
2025-10-13T03:37	10	0	0.1	0	0	357	0.2	356	357	9.1	93.5
2025-10-13T03:38	10	0	0.1	0	0	357	0.2	356	357	9.1	93.6
2025-10-13T03:39	10	0	0.1	0	0	357	0.3	356	357	9.1	94.2
2025-10-13T03:40	10	0	0.1	0	0	356	0.2	356	357	9.1	93.7
2025-10-13T03:41	10	0	0.1	0	0	357	0.2	356	357	9.1	93.6
2025-10-13T03:42	10	0	0.0	0	0	357	0.2	356	357	9.1	93.8
2025-10-13T03:43	10	0	0.1	0	0	357	0.3	356	357	9.1	93.2
2025-10-13T03:44	10	0	0.1	0	0	357	0.2	356	357	9.1	92.6
2025-10-13T03:45	10	0	0.1	0	0	356	0.2	356	357	9.1	92.6
2025-10-13T03:46	10	0	0.1	0	0	356	0.2	356	357	9.1	92.6
2025-10-13T03:47	10	0	0.1	0	0	356	0.2	356	357	9.1	92.9
2025-10-13T03:48	10	0	0.1	0	0	356	0.2	356	357	9.1	93.5
2025-10-13T03:49	10	0	0.1	0	0	356	0.2	356	357	9.1	93.2
2025-10-13T03:50	10	0	0.1	0	0	356	0.2	356	357	9.1	92.6
2025-10-13T03:51	10	0	0.1	0	0	356	0.2	356	357	9.1	92.9
2025-10-13T03:52	10	0	0.1	0	0	356	0.2	356	357	9.1	92.9
2025-10-13T03:53	10	0	0.1	0	0	356	0.2	356	357	9.1	92.9
2025-10-13T03:54	10	0	0.1	0	0	356	0.2	356	357	9.1	92.6
2025-10-13T03:55	10	0	0.1	0	0	356	0.2	356	357	9.1	92.4
2025-10-13T03:56	10	0	0.1	0	0	356	0.2	356	357	9.1	92.3
2025-10-13T03:57	10	0	0.1	0	0	356	0.2	356	357	9.1	92.4
2025-10-13T03:58	10	0	0.1	0	0	356	0.2	356	357	9.1	92.8
2025-10-13T03:59	10	0	0.1	0	0	356	0.2	356	357	9.1	92.5
2025-10-13T04:00	10	0	0.1	0	0	356	0.2	356	357	9.2	92.2
2025-10-13T04:01	10	0	0.1	0	0	356	0.2	356	357	9.2	92.3
2025-10-13T04:02	10	0	0.1	0	0	356	0.2	356	357	9.2	91.9
2025-10-13T04:03	10	0	0.1	0	0	356	0.3	355	357	9.1	92.3
2025-10-13T04:04	10	0	0.1	0	0	356	0.2	355	357	9.1	92.4
2025-10-13T04:05	10	0	0.1	0	0	356	0.2	356	357	9.1	92.2
2025-10-13T04:06	10	0	0.1	0	0	356	0.2	356	357	9.1	92.1
2025-10-13T04:07	10	0	0.1	0	0	356	0.3	356	357	9.1	92.4
2025-10-13T04:08	10	0	0.1	0	0	356	0.2	356	357	9.1	92.7
2025-10-13T04:09	10	0	0.1	0	0	356	0.2	356	357	9.1	92.7
2025-10-13T04:10	10	0	0.1	0	0	356	0.2	356	357	9.1	92.8
2025-10-13T04:11	10	0	0.1	0	0	356	0.2	356	357	9.1	92.6
2025-10-13T04:12	10	0	0.1	0	0	356	0.2	356	357	9.1	92.8
2025-10-13T04:13	10	0	0.1	0	0	356	0.2	356	357	9.1	92.7
2025-10-13T04:14	10	0	0.1	0	0	356	0.2	356	357	9.1	92.8
2025-10-13T04:15	10	0	0.1	0	0	356	0.2	356	357	9.1	93.0
2025-10-13T04:16	10	0	0.1	0	0	356	0.2	356	357	9.1	92.9
2025-10-13T04:17	10	0	0.1	0	0	356	0.2	356	357	9.1	92.9
2025-10-13T04:18	10	0	0.1	0	0	356	0.2	356	357	9.1	92.5
2025-10-13T04:19	10	0	0.1	0	0	356	0.2	356	357	9.1	91.9
2025-10-13T04:20	10	0	0.1	0	0	356	0.2	356	357	9.1	92.3
2025-10-13T04:21	10	0	0.1	0	0	356	0.2	356	357	9.1	92.3
2025-10-13T04:22	10	0	0.1	0	0	356	0.2	355	357	9.1	92.5
2025-10-13T04:23	10	0	0.1	0	0	356	0.2	356	357	9.1	92.5
2025-10-13T04:24	10	0	0.1	0	0	356	0.2	356	357	9.1	91.9
2025-10-13T04:25	10	0	0.1	0	0	356	0.2	356	357	9.1	92.2
2025-10-13T04:26	10	0	0.1	0	0	356	0.2	356	357	9.1	92.6
2025-10-13T04:27	10	0	0.1	0	0	356	0.2	356	357	9.1	92.5
2025-10-13T04:28	10	0	0.1	0	0	356	0.2	356	357	9.1	92.1
2025-10-13T04:29	10	0	0.1	0	0	356	0.2	356	357	9.1	92.5
2025-10-13T04:30	10	0	0.1	0	0	356	0.2	356	357	9.1	91.9
2025-10-13T04:31	10	0	0.1	0	0	356	0.3	356	357	9.1	92.1
2025-10-13T04:32	10	0	0.1	0	0	356	0.2	356	357	9.1	92.1
2025-10-13T04:33	10	0	0.1	0	0	356	0.2	356	357	9.1	92.2
2025-10-13T04:34	10	0	0.1	0	0	356	0.2	356	356	9.1	92.8
2025-10-13T04:35	10	0	0.1	0	0	356	0.2	356	356	9.1	92.3
2025-10-13T04:36	10	0	0.1	0	0	356	0.2	356	357	9.1	92.0
2025-10-13T04:37	10	0	0.1	0	0	356	0.2	356	356	9.1	91.8
2025-10-13T04:38	10	0	0.1	0	0	356	0.2	355	357	9.1	91.3
2025-10-13T04:39	10	0	0.1	0	0	356	0.2	355	356	9.1	91.7
2025-10-13T04:40	10	0	0.1	0	0	356	0.2	356	357	9.1	91.8
2025-10-13T04:41	10	0	0.1	0	0	356	0.2	356	357	9.1	92.2
2025-10-13T04:42	10	0	0.1	0	0	356	0.2	356	357	9.1	92.2
2025-10-13T04:43	10	0	0.1	0	0	356	0.2	356	357	9.1	92.1
2025-10-13T04:44	10	0	0.1	0	0	356	0.2	355	357	9.1	92.3
2025-10-13T04:45	10	0	0.1	0	0	356	0.2	356	357	9.1	92.5
2025-10-13T04:46	10	0	0.1	0	0	356	0.2	356	357	9.1	92.3
2025-10-13T04:47	10	0	0.1	0	0	356	0.2	356	357	9.1	92.5
2025-10-13T04:48	10	0	0.1	0	0	356	0.2	356	357	9.1	92.4
2025-10-13T04:49	10	0	0.1	0	0	356	0.2	356	356	9.1	92.6
2025-10-13T04:50	10	0	0.1	0	0	356	0.2	356	357	9.1	93.0
2025-10-13T04:51	10	0	0.1	0	0	356	0.2	356	356	9.1	92.7
2025-10-13T04:52	10	0	0.1	0	0	356	0.2	356	356	9.1	92.6
2025-10-13T04:53	10	0	0.1	0	0	356	0.2	356	357	9.1	92.7
2025-10-13T04:54	10	0	0.1	0	0	356	0.2	356	356	9.1	92.5
2025-10-13T04:55	10	0	0.1	0	0	356	0.2	356	357	9.1	92.8
2025-10-13T04:56	10	0	0.1	0	0	356	0.2	356	357	9.1	92.8
2025-10-13T04:57	10	0	0.1	0	0	356	0.2	356	357	9.1	93.1
2025-10-13T04:58	10	0	0.1	0	0	356	0.2	356	357	9.1	92.9
2025-10-13T04:59	10	0	0.1	0	0	356	0.2	356	356	9.1	92.6
2025-10-13T05:00	10	0	0.1	0	0	356	0.2	356	357	9.1	92.5
2025-10-13T05:01	10	0	0.1	0	0	356	0.2	356	357	9.1	92.4
2025-10-13T05:02	10	0	0.1	0	0	356	0.2	355	356	9.1	92.4
2025-10-13T05:03	10	0	0.1	0	0	356	0.2	356	357	9.1	92.3
2025-10-13T05:04	10	0	0.1	0	0	356	0.2	355	356	9.1	92.2
2025-10-13T05:05	10	0	0.1	0	0	356	0.3	355	357	9.1	92.3
2025-10-13T05:06	10	0	0.1	0	0	356	0.2	355	356	9.1	92.6
2025-10-13T05:07	10	0	0.1	0	0	356	0.2	356	356	9.1	92.8
2025-10-13T05:08	10	0	0.1	0	0	356	0.2	355	356	9.1	92.8
2025-10-13T05:09	10	0	0.1	0	0	356	0.2	356	356	9.1	92.6
2025-10-13T05:10	10	0	0.1	0	0	356	0.2	355	356	9.1	92.3
2025-10-13T05:11	10	0	0.1	0	0	356	0.2	355	356	9.1	92.3
2025-10-13T05:12	10	0	0.1	0	0	356	0.2	356	357	9.1	92.1
2025-10-13T05:13	10	0	0.1	0	0	356	0.2	356	356	9.1	92.2
2025-10-13T05:14	10	0	0.1	0	0	356	0.2	356	356	9.1	92.2
2025-10-13T05:15	10	0	0.1	0	0	356	0.2	356	356	9.1	92.0
2025-10-13T05:16	10	0	0.1	0	0	356	0.3	355	357	9.1	91.8
2025-10-13T05:17	10	0	0.1	0	0	356	0.2	356	357	9.1	91.6
2025-10-13T05:18	10	0	0.1	0	0	356	0.2	355	356	9.1	92.0
2025-10-13T05:19	10	0	0.1	0	0	356	0.2	355	356	9.1	91.8
2025-10-13T05:20	10	0	0.1	0	0	356	0.2	356	356	9.1	91.9
2025-10-13T05:21	10	0	0.1	0	0	356	0.2	356	357	9.1	91.4
2025-10-13T05:22	10	0	0.1	0	0	356	0.2	355	356	9.1	91.1
2025-10-13T05:23	10	0	0.1	0	0	356	0.2	355	356	9.2	91.1
2025-10-13T05:24	10	0	0.1	0	0	356	0.2	355	356	9.2	91.2
2025-10-13T05:25	10	0	0.0	0	0	356	0.2	355	356	9.1	91.3
2025-10-13T05:26	10	0	0.1	0	0	356	0.2	355	356	9.1	91.3
2025-10-13T05:27	10	0	0.1	0	0	356	0.2	355	356	9.2	90.9
2025-10-13T05:28	10	0	0.0	0	0	356	0.2	355	356	9.1	91.3
2025-10-13T05:29	10	0	0.1	0	0	356	0.2	356	357	9.1	91.6
2025-10-13T05:30	10	0	0.1	0	0	356	0.1	356	356	9.1	91.9
2025-10-13T05:31	10	0	0.1	0	0	356	0.2	356	357	9.1	91.8
2025-10-13T05:32	10	0	0.1	0	0	356	0.2	356	356	9.1	91.4
2025-10-13T05:33	10	0	0.1	0	0	356	0.2	356	357	9.1	91.7
2025-10-13T05:34	10	0	0.1	0	0	356	0.2	356	357	9.1	91.8
2025-10-13T05:35	10	0	0.1	0	0	356	0.2	356	357	9.1	91.8
2025-10-13T05:36	10	0	0.1	0	0	356	0.2	356	356	9.1	91.9
2025-10-13T05:37	10	0	0.1	0	0	356	0.2	356	357	9.1	91.9
2025-10-13T05:38	10	0	0.1	0	0	356	0.2	356	357	9.1	91.9
2025-10-13T05:39	10	0	0.1	0	0	356	0.2	356	356	9.1	91.9
2025-10-13T05:40	10	0	0.0	0	0	356	0.2	356	356	9.1	92.0
2025-10-13T05:41	10	0	0.1	0	0	356	0.2	355	356	9.1	92.1
2025-10-13T05:42	10	0	0.0	0	0	356	0.2	356	357	9.1	92.0
2025-10-13T05:43	10	0	0.1	0	0	356	0.3	356	357	9.1	92.5
2025-10-13T05:44	10	0	0.0	0	0	356	0.2	356	357	9.1	92.3
2025-10-13T05:45	10	0	0.0	0	0	356	0.2	356	357	9.1	92.1
2025-10-13T05:46	10	0	0.0	0	0	356	0.3	356	357	9.1	91.9
2025-10-13T05:47	10	0	0.0	0	0	356	0.2	356	357	9.1	92.1
2025-10-13T05:48	10	0	0.1	0	1	356	0.2	356	357	9.1	92.0
2025-10-13T05:49	10	0	0.0	0	0	356	0.2	356	357	9.1	91.8
2025-10-13T05:50	10	0	0.0	0	0	356	0.2	356	357	9.1	91.8
2025-10-13T05:51	10	0	0.0	0	0	356	0.2	356	357	9.1	92.0
2025-10-13T05:52	10	0	0.1	0	0	356	0.2	356	357	9.1	92.0
2025-10-13T05:53	10	0	0.0	0	0	356	0.2	356	357	9.1	91.9
2025-10-13T05:54	10	0	0.1	0	0	356	0.2	356	357	9.1	92.6
2025-10-13T05:55	10	0	0.1	0	1	356	0.2	356	357	9.1	92.4
2025-10-13T05:56	10	0	0.1	0	1	356	0.2	356	357	9.1	92.2
2025-10-13T05:57	10	1	0.1	0	1	356	0.2	356	357	9.1	92.6
2025-10-13T05:58	10	1	0.1	0	1	356	0.2	356	357	9.1	92.7
2025-10-13T05:59	10	1	0.1	1	1	356	0.2	356	357	9.1	92.4
2025-10-13T06:00	10	1	0.1	1	1	356	0.2	356	357	9.1	92.3
2025-10-13T06:01	10	1	0.1	1	1	356	0.2	356	357	9.1	92.7
2025-10-13T06:02	10	1	0.0	1	1	356	0.2	356	357	9.1	92.7
2025-10-13T06:03	10	1	0.1	1	1	356	0.2	356	357	9.1	92.6
2025-10-13T06:04	10	1	0.1	1	1	356	0.2	356	357	9.1	92.4
2025-10-13T06:05	10	1	0.1	1	1	356	0.2	356	357	9.1	92.2
2025-10-13T06:06	10	1	0.1	1	1	357	0.2	356	357	9.1	92.2
2025-10-13T06:07	10	1	0.1	1	1	357	0.2	356	357	9.1	92.1
2025-10-13T06:08	10	1	0.1	1	1	357	0.2	356	357	9.1	92.2
2025-10-13T06:09	10	1	0.0	1	1	357	0.2	356	357	9.1	92.3
2025-10-13T06:10	10	1	0.1	1	2	357	0.2	356	357	9.1	92.3
2025-10-13T06:11	10	2	0.1	1	2	357	0.2	356	357	9.1	92.1
2025-10-13T06:12	10	2	0.1	1	2	357	0.2	356	357	9.1	92.5
2025-10-13T06:13	10	2	0.1	2	2	357	0.2	356	357	9.1	92.5
2025-10-13T06:14	10	2	0.1	2	2	357	0.2	357	357	9.1	92.6
2025-10-13T06:15	10	2	0.1	2	2	357	0.2	357	358	9.1	93.3
2025-10-13T06:16	10	2	0.1	2	2	357	0.2	357	358	9.1	93.0
2025-10-13T06:17	10	2	0.1	2	2	357	0.2	357	358	9.1	92.6
2025-10-13T06:18	10	2	0.1	2	2	357	0.2	357	357	9.1	93.1
2025-10-13T06:19	10	2	0.1	2	2	357	0.2	357	358	9.1	92.7
2025-10-13T06:20	10	2	0.1	2	2	357	0.2	357	358	9.1	92.5
2025-10-13T06:21	10	2	0.1	2	2	357	0.2	357	358	9.2	91.8
2025-10-13T06:22	10	2	0.1	2	3	358	0.2	357	358	9.2	92.2
2025-10-13T06:23	10	2	0.1	2	3	358	0.3	357	358	9.2	92.2
2025-10-13T06:24	10	3	0.1	2	3	358	0.3	357	358	9.2	92.4
2025-10-13T06:25	10	3	0.1	2	3	357	0.2	357	358	9.2	92.5
2025-10-13T06:26	10	3	0.1	2	3	357	0.2	357	358	9.2	92.2
2025-10-13T06:27	10	3	0.1	3	3	357	0.2	357	358	9.2	91.9
2025-10-13T06:28	10	3	0.0	3	3	358	0.2	357	358	9.2	91.6
2025-10-13T06:29	10	3	0.0	3	3	357	0.2	357	358	9.2	91.6
2025-10-13T06:30	10	3	0.1	3	3	358	0.3	357	358	9.2	91.7
2025-10-13T06:31	10	3	0.1	3	3	358	0.2	357	358	9.2	91.7
2025-10-13T06:32	10	3	0.1	3	3	357	0.2	357	358	9.2	92.0
2025-10-13T06:33	10	3	0.1	3	4	358	0.2	357	358	9.2	91.7
2025-10-13T06:34	10	4	0.1	3	4	358	0.2	357	358	9.2	91.6
2025-10-13T06:35	10	4	0.1	3	4	358	0.2	357	359	9.3	91.8
2025-10-13T06:36	10	4	0.1	4	4	358	0.2	357	359	9.3	92.0
2025-10-13T06:37	10	4	0.1	4	4	358	0.2	358	359	9.3	91.8
2025-10-13T06:38	10	4	0.1	4	4	358	0.2	358	359	9.3	91.8
2025-10-13T06:39	10	4	0.1	4	4	358	0.2	357	359	9.3	91.5
2025-10-13T06:40	10	4	0.1	4	5	358	0.2	357	358	9.3	91.3
2025-10-13T06:41	10	5	0.1	4	5	358	0.3	357	358	9.2	91.4
2025-10-13T06:42	10	5	0.1	5	5	358	0.2	357	358	9.2	91.5
2025-10-13T06:43	10	5	0.1	5	5	358	0.2	357	358	9.2	91.8
2025-10-13T06:44	10	5	0.1	4	5	358	0.2	358	358	9.2	91.1
2025-10-13T06:45	10	5	0.1	4	5	358	0.2	357	358	9.2	91.1
2025-10-13T06:46	10	5	0.1	4	5	358	0.2	357	358	9.2	91.7
2025-10-13T06:47	10	5	0.1	4	5	358	0.2	358	358	9.3	91.8
2025-10-13T06:48	10	5	0.1	5	5	358	0.2	358	359	9.3	91.6
2025-10-13T06:49	10	5	0.1	5	5	358	0.2	358	359	9.3	91.5
2025-10-13T06:50	10	5	0.1	5	5	358	0.2	358	359	9.3	91.5
2025-10-13T06:51	10	5	0.1	5	5	358	0.2	358	359	9.3	91.0
2025-10-13T06:52	10	5	0.1	5	5	358	0.2	358	359	9.3	91.0
2025-10-13T06:53	10	5	0.1	5	5	358	0.2	358	359	9.3	90.9
2025-10-13T06:54	10	5	0.1	5	5	358	0.2	358	359	9.3	90.9
2025-10-13T06:55	10	5	0.1	5	5	358	0.2	358	359	9.3	91.2
2025-10-13T06:56	10	5	0.1	5	5	358	0.2	358	359	9.3	91.6
2025-10-13T06:57	10	5	0.1	5	6	358	0.2	358	359	9.3	91.4
2025-10-13T06:58	10	6	0.1	5	6	358	0.2	358	359	9.3	91.7
2025-10-13T06:59	10	6	0.1	5	6	358	0.3	358	359	9.3	91.8
2025-10-13T07:00	10	6	0.1	6	6	358	0.2	358	359	9.3	91.9
2025-10-13T07:01	10	6	0.1	6	6	358	0.2	358	359	9.3	91.7
2025-10-13T07:02	10	6	0.1	6	6	359	0.2	358	359	9.3	91.6
2025-10-13T07:03	10	6	0.1	6	6	359	0.3	358	359	9.3	91.4
2025-10-13T07:04	10	6	0.1	6	6	359	0.2	358	359	9.3	91.5
2025-10-13T07:05	10	6	0.1	6	6	359	0.3	358	359	9.3	92.1
2025-10-13T07:06	10	6	0.1	6	7	359	0.2	358	359	9.3	92.1
2025-10-13T07:07	10	7	0.1	6	7	359	0.2	359	360	9.3	91.7
2025-10-13T07:08	10	7	0.1	7	7	359	0.2	359	360	9.3	91.6
2025-10-13T07:09	10	7	0.1	7	7	359	0.2	359	360	9.3	91.8
2025-10-13T07:10	10	7	0.0	7	7	359	0.2	359	360	9.4	88.9
2025-10-13T07:11	10	7	0.1	7	7	359	0.2	359	360	9.4	91.9
2025-10-13T07:12	10	7	0.1	7	7	359	0.2	359	360	9.4	89.1
2025-10-13T07:13	10	7	0.1	7	7	359	0.2	359	360	9.4	91.9
2025-10-13T07:14	10	7	0.1	7	7	359	0.2	359	360	9.4	91.9
2025-10-13T07:15	10	7	0.1	7	7	360	0.2	359	360	9.4	91.9
2025-10-13T07:16	10	7	0.1	7	7	360	0.2	359	360	9.4	91.9
2025-10-13T07:17	10	7	0.1	7	7	360	0.2	359	360	9.4	91.3
2025-10-13T07:18	10	8	0.1	7	8	359	0.2	359	360	9.4	90.4
2025-10-13T07:19	10	8	0.1	8	8	360	0.2	359	360	9.4	91.0
2025-10-13T07:20	10	8	0.1	8	8	359	0.2	359	360	9.4	90.7
2025-10-13T07:21	10	8	0.1	8	8	360	0.2	359	360	9.4	90.8
2025-10-13T07:22	10	9	0.1	8	9	360	0.2	359	360	9.4	91.1
2025-10-13T07:23	10	9	0.1	9	9	360	0.2	359	360	9.4	91.2
2025-10-13T07:24	10	9	0.1	9	9	360	0.3	359	360	9.4	91.2
2025-10-13T07:25	10	9	0.1	9	9	360	0.2	359	360	9.4	91.4
2025-10-13T07:26	10	9	0.1	9	10	360	0.2	359	360	9.4	91.1
2025-10-13T07:27	10	10	0.1	9	10	360	0.2	359	360	9.4	91.5
2025-10-13T07:28	10	10	0.1	10	10	360	0.2	360	361	9.4	91.9
2025-10-13T07:29	10	10	0.1	10	10	360	0.2	360	361	9.4	91.1
2025-10-13T07:30	10	10	0.1	10	10	360	0.2	360	361	9.4	91.2
2025-10-13T07:31	10	10	0.1	10	10	361	0.3	360	361	9.4	91.3
2025-10-13T07:32	10	10	0.1	10	11	361	0.2	361	362	9.4	91.7
2025-10-13T07:33	10	11	0.1	10	11	361	0.3	361	362	9.5	91.6
2025-10-13T07:34	10	11	0.1	11	11	362	0.2	361	362	9.5	91.5
2025-10-13T07:35	10	11	0.1	11	11	362	0.2	361	362	9.5	90.8
2025-10-13T07:36	10	11	0.1	11	11	361	0.2	361	362	9.5	90.0
2025-10-13T07:37	10	11	0.1	11	11	362	0.2	361	362	9.5	90.4
2025-10-13T07:38	10	11	0.1	11	11	361	0.2	361	362	9.5	90.2
2025-10-13T07:39	10	11	0.1	11	11	362	0.3	361	362	9.5	90.7
2025-10-13T07:40	10	11	0.1	11	11	362	0.2	362	362	9.6	91.0
2025-10-13T07:41	10	11	0.1	11	11	362	0.2	362	362	9.6	90.8
2025-10-13T07:42	10	11	0.1	11	11	362	0.2	362	363	9.6	91.0
2025-10-13T07:43	10	11	0.1	11	12	362	0.2	362	363	9.6	91.2
2025-10-13T07:44	10	12	0.1	11	12	362	0.2	362	363	9.6	91.4
2025-10-13T07:45	10	12	0.1	12	12	362	0.3	361	363	9.6	91.3
2025-10-13T07:46	10	12	0.1	12	13	362	0.3	361	362	9.5	90.8
2025-10-13T07:47	10	13	0.2	12	13	362	0.2	361	362	9.5	90.3
2025-10-13T07:48	10	13	0.1	13	13	362	0.2	361	362	9.5	90.6
2025-10-13T07:49	10	14	0.1	13	14	362	0.2	361	362	9.5	90.2
2025-10-13T07:50	10	14	0.1	14	14	362	0.2	362	362	9.5	90.6
2025-10-13T07:51	10	14	0.1	14	14	362	0.2	362	363	9.5	90.9
2025-10-13T07:52	10	14	0.0	14	14	362	0.3	362	363	9.5	90.5
2025-10-13T07:53	10	14	0.1	14	14	362	0.3	362	363	9.5	90.2
2025-10-13T07:54	10	14	0.1	14	14	362	0.2	362	362	9.5	90.5
2025-10-13T07:55	10	14	0.1	14	14	362	0.2	362	363	9.5	90.8
2025-10-13T07:56	10	14	0.1	14	14	362	0.3	361	362	9.5	90.5
2025-10-13T07:57	10	14	0.1	14	14	361	0.2	361	362	9.5	90.3
2025-10-13T07:58	10	15	0.1	14	15	362	0.3	361	362	9.5	90.8
2025-10-13T07:59	10	15	0.1	15	15	362	0.2	362	363	9.5	91.0
2025-10-13T08:00	10	15	0.2	15	16	362	0.2	362	363	9.6	90.9
2025-10-13T08:01	10	16	0.1	15	16	362	0.2	362	363	9.6	90.6
2025-10-13T08:02	10	16	0.1	16	16	363	0.3	362	364	9.6	91.1
2025-10-13T08:03	10	16	0.1	16	16	363	0.2	362	363	9.6	90.4
2025-10-13T08:04	10	16	0.1	16	16	363	0.2	363	364	9.6	90.3
2025-10-13T08:05	10	16	0.1	16	17	363	0.2	363	364	9.6	90.2
2025-10-13T08:06	10	16	0.1	16	16	363	0.3	363	364	9.7	90.5
2025-10-13T08:07	10	16	0.1	16	16	364	0.2	363	364	9.7	90.6
2025-10-13T08:08	10	16	0.2	15	16	364	0.3	363	364	9.7	89.5
2025-10-13T08:09	10	15	0.1	15	15	363	0.2	362	363	9.6	89.2
2025-10-13T08:10	10	15	0.1	15	15	363	0.2	363	364	9.6	89.6
2025-10-13T08:11	10	14	0.1	14	15	364	0.3	363	364	9.7	90.4
2025-10-13T08:12	10	14	0.1	14	15	364	0.3	363	364	9.7	90.3
2025-10-13T08:13	10	14	0.1	14	15	364	0.3	363	364	9.7	89.9
2025-10-13T08:14	10	14	0.1	14	15	364	0.2	363	364	9.7	90.2
2025-10-13T08:15	10	15	0.1	14	15	364	0.3	363	364	9.7	90.0
2025-10-13T08:16	10	15	0.1	14	15	364	0.2	363	364	9.8	90.2
2025-10-13T08:17	10	15	0.1	14	15	363	0.3	363	364	9.8	90.1
2025-10-13T08:18	10	15	0.1	14	15	363	0.3	363	364	9.7	89.9
2025-10-13T08:19	10	15	0.1	14	15	364	0.3	363	364	9.8	90.3
2025-10-13T08:20	10	15	0.1	14	15	364	0.3	363	364	9.8	89.4
2025-10-13T08:21	10	15	0.1	15	15	363	0.2	363	364	9.8	89.0
2025-10-13T08:22	10	15	0.1	15	15	364	0.3	363	364	9.8	89.6
2025-10-13T08:23	10	15	0.1	15	15	364	0.2	363	365	9.8	89.6
2025-10-13T08:24	10	15	0.1	15	15	364	0.3	363	364	9.8	89.3
2025-10-13T08:25	10	15	0.1	15	15	363	0.3	363	364	9.8	89.3
2025-10-13T08:26	10	15	0.1	15	15	364	0.3	363	364	9.8	89.3
2025-10-13T08:27	10	15	0.1	15	16	364	0.3	363	364	9.8	88.7
2025-10-13T08:28	10	16	0.1	15	16	364	0.2	363	364	9.8	88.8
2025-10-13T08:29	10	16	0.1	16	16	364	0.3	363	364	9.8	88.5
2025-10-13T08:30	10	16	0.1	16	16	364	0.2	363	364	9.8	88.4
2025-10-13T08:31	10	16	0.1	16	17	363	0.2	363	364	9.8	88.2
2025-10-13T08:32	10	17	0.1	16	17	363	0.3	363	364	9.8	88.3
2025-10-13T08:33	10	17	0.1	17	17	363	0.2	363	364	9.8	88.3
2025-10-13T08:34	10	17	0.2	17	18	363	0.3	362	364	9.7	88.1
2025-10-13T08:35	10	18	0.2	17	18	363	0.3	362	363	9.7	88.1
2025-10-13T08:36	10	18	0.2	18	19	363	0.3	363	364	9.8	88.3
2025-10-13T08:37	10	19	0.1	19	19	364	0.2	363	364	9.8	88.0
2025-10-13T08:38	10	19	0.2	19	20	364	0.3	363	364	9.8	88.2
2025-10-13T08:39	10	20	0.1	20	20	364	0.3	363	364	9.8	88.3
2025-10-13T08:40	10	20	0.2	20	20	364	0.2	363	364	9.8	88.1
2025-10-13T08:41	10	21	0.2	20	21	363	0.3	363	364	9.7	88.0
2025-10-13T08:42	10	21	0.2	21	21	364	0.4	364	365	9.8	88.3
2025-10-13T08:43	10	22	0.2	21	22	365	0.2	364	365	9.9	88.1
2025-10-13T08:44	10	22	0.1	22	22	365	0.3	364	365	9.9	86.9
2025-10-13T08:45	10	22	0.1	22	23	365	0.3	364	365	9.8	86.7
2025-10-13T08:46	10	22	0.1	22	23	365	0.2	364	365	9.9	87.4
2025-10-13T08:47	10	22	0.1	22	22	364	0.3	364	365	9.8	87.7
2025-10-13T08:48	10	22	0.1	22	22	364	0.3	364	365	9.8	87.1
2025-10-13T08:49	10	22	0.2	22	23	365	0.2	364	365	9.9	87.4
2025-10-13T08:50	10	23	0.2	23	24	365	0.2	365	366	9.9	87.4
2025-10-13T08:51	10	24	0.1	24	24	365	0.3	365	366	9.9	87.9
2025-10-13T08:52	10	24	0.1	23	24	366	0.3	365	366	10.0	85.2
2025-10-13T08:53	10	23	0.1	23	23	365	0.4	364	366	9.9	85.6
2025-10-13T08:54	10	23	0.1	23	24	365	0.2	364	365	9.9	84.3
2025-10-13T08:55	10	23	0.1	23	24	365	0.2	365	365	9.9	86.8
2025-10-13T08:56	10	24	0.2	23	24	365	0.2	365	366	9.9	87.1
2025-10-13T08:57	10	24	0.1	24	24	365	0.2	364	366	9.9	86.6
2025-10-13T08:58	10	24	0.1	24	24	365	0.3	365	366	9.9	86.7
2025-10-13T08:59	10	24	0.2	23	24	365	0.2	364	365	9.9	86.8
2025-10-13T09:00	10	23	0.3	22	23	365	0.3	365	366	9.9	87.0
2025-10-13T09:01	10	22	0.2	22	23	366	0.3	365	366	9.9	86.9
2025-10-13T09:02	10	22	0.1	21	22	365	0.3	365	366	9.9	86.9
2025-10-13T09:03	10	21	0.1	21	22	365	0.2	365	366	9.9	86.7
2025-10-13T09:04	10	21	0.1	21	22	365	0.2	365	366	10.0	86.8
2025-10-13T09:05	10	21	0.1	21	21	365	0.2	365	366	10.0	86.3
2025-10-13T09:06	10	21	0.1	21	21	365	0.3	365	366	10.0	85.5
2025-10-13T09:07	10	21	0.1	21	21	366	0.2	366	367	10.1	86.2
2025-10-13T09:08	10	21	0.1	21	21	366	0.2	365	366	10.1	85.0
2025-10-13T09:09	10	21	0.1	21	21	366	0.3	365	366	10.1	85.4
2025-10-13T09:10	10	21	0.1	21	21	366	0.2	366	366	10.1	86.3
2025-10-13T09:11	10	21	0.1	21	21	366	0.2	366	367	10.1	87.0
2025-10-13T09:12	10	21	0.1	21	21	366	0.2	366	367	10.1	86.8
2025-10-13T09:13	10	21	0.1	21	21	367	0.3	366	368	10.1	86.5
2025-10-13T09:14	10	21	0.1	21	21	367	0.3	367	368	10.2	87.4
2025-10-13T09:15	10	21	0.1	21	21	367	0.4	366	368	10.2	86.3
2025-10-13T09:16	10	21	0.1	21	21	367	0.3	366	367	10.1	84.8
2025-10-13T09:17	10	21	0.1	20	21	366	0.3	365	367	10.1	84.9
2025-10-13T09:18	10	20	0.1	20	21	365	0.3	365	366	10.1	85.4
2025-10-13T09:19	10	20	0.1	20	20	365	0.4	365	366	10.1	84.1
2025-10-13T09:20	10	20	0.1	20	20	365	0.3	364	365	10.0	84.2
2025-10-13T09:21	10	20	0.1	20	21	365	0.2	365	366	10.1	84.8
2025-10-13T09:22	10	20	0.1	20	21	366	0.3	365	366	10.1	84.9
2025-10-13T09:23	10	20	0.1	20	21	366	0.2	365	366	10.2	85.9
2025-10-13T09:24	10	21	0.1	20	21	365	0.3	365	366	10.1	83.5
2025-10-13T09:25	10	21	0.1	21	21	366	0.3	365	366	10.1	84.7
2025-10-13T09:26	10	21	0.1	21	21	366	0.2	365	366	10.1	83.8
2025-10-13T09:27	10	21	0.1	21	21	366	0.3	365	367	10.2	83.8
2025-10-13T09:28	10	21	0.1	20	21	366	0.2	366	367	10.2	83.6
2025-10-13T09:29	10	21	0.1	21	21	366	0.4	365	366	10.1	82.7
2025-10-13T09:30	10	21	0.1	21	21	365	0.2	365	366	10.1	83.1
2025-10-13T09:31	10	21	0.1	21	21	365	0.2	364	365	10.1	83.6
2025-10-13T09:32	10	21	0.1	21	22	365	0.3	365	366	10.1	83.7
2025-10-13T09:33	10	22	0.1	21	22	366	0.2	365	366	10.1	83.8
2025-10-13T09:34	10	22	0.1	22	22	366	0.2	365	366	10.1	83.9
2025-10-13T09:35	10	22	0.1	21	22	366	0.3	365	366	10.1	84.3
2025-10-13T09:36	10	22	0.1	21	22	366	0.2	365	366	10.1	83.6
2025-10-13T09:37	10	21	0.1	21	22	366	0.2	365	366	10.1	82.9
2025-10-13T09:38	10	21	0.1	21	22	366	0.3	365	366	10.1	83.2
2025-10-13T09:39	10	21	0.1	21	21	365	0.2	365	366	10.0	83.6
2025-10-13T09:40	10	21	0.1	21	21	366	0.2	365	366	10.1	84.0
2025-10-13T09:41	10	21	0.1	21	21	366	0.3	366	367	10.2	84.0
2025-10-13T09:42	10	21	0.2	21	21	366	0.3	365	367	10.2	82.9
2025-10-13T09:43	10	20	0.2	20	21	366	0.2	365	366	10.3	82.3
2025-10-13T09:44	10	20	0.2	20	20	365	0.2	365	366	10.2	82.1
2025-10-13T09:45	10	19	0.1	19	20	366	0.2	365	366	10.2	82.7
2025-10-13T09:46	10	19	0.1	19	19	366	0.2	365	367	10.3	83.2
2025-10-13T09:47	10	19	0.1	19	19	366	0.2	366	367	10.3	83.5
2025-10-13T09:48	10	19	0.1	19	19	366	0.3	365	367	10.3	83.8
2025-10-13T09:49	10	19	0.1	19	19	366	0.2	365	366	10.2	83.1
2025-10-13T09:50	10	19	0.1	19	19	366	0.2	365	366	10.3	83.8
2025-10-13T09:51	10	19	0.1	19	19	366	0.2	365	366	10.3	83.9
2025-10-13T09:52	10	19	0.1	19	19	366	0.3	365	366	10.2	84.1
2025-10-13T09:53	10	19	0.1	19	19	365	0.2	365	366	10.2	84.4
2025-10-13T09:54	10	19	0.1	19	19	366	0.3	365	366	10.2	84.7
2025-10-13T09:55	10	19	0.1	19	20	366	0.2	365	366	10.2	84.5
2025-10-13T09:56	10	20	0.1	20	20	367	0.3	366	367	10.3	84.9
2025-10-13T09:57	10	20	0.1	20	20	367	0.3	366	368	10.3	85.3
2025-10-13T09:58	10	20	0.1	20	20	367	0.2	366	368	10.4	85.1
2025-10-13T09:59	10	20	0.1	20	20	367	0.3	367	368	10.4	84.7
2025-10-13T10:00	10	20	0.1	20	21	368	0.3	367	368	10.4	84.3
2025-10-13T10:01	10	21	0.1	20	21	367	0.2	367	368	10.3	84.2
2025-10-13T10:02	10	21	0.1	21	21	368	0.4	367	368	10.4	84.2
2025-10-13T10:03	10	21	0.1	21	21	368	0.3	367	368	10.4	84.4
2025-10-13T10:04	10	21	0.1	21	21	367	0.3	367	368	10.3	83.8
2025-10-13T10:05	10	21	0.1	20	21	367	0.3	366	368	10.4	83.3
2025-10-13T10:06	10	20	0.1	20	21	367	0.2	367	368	10.4	82.9
2025-10-13T10:07	10	20	0.1	20	20	367	0.2	367	368	10.3	82.8
2025-10-13T10:08	10	20	0.1	20	20	367	0.2	367	368	10.3	83.0
2025-10-13T10:09	10	21	0.1	20	21	368	0.2	367	368	10.4	82.8
2025-10-13T10:10	10	21	0.1	21	21	368	0.2	368	369	10.4	83.4
2025-10-13T10:11	10	21	0.1	21	21	368	0.2	368	369	10.4	83.3
2025-10-13T10:12	10	22	0.1	21	22	368	0.4	367	368	10.4	82.3
2025-10-13T10:13	10	22	0.1	22	22	367	0.3	366	368	10.3	80.3
2025-10-13T10:14	10	22	0.1	22	22	367	0.2	366	367	10.3	81.3
2025-10-13T10:15	10	22	0.2	22	23	367	0.2	366	368	10.3	81.0
2025-10-13T10:16	10	23	0.1	23	23	367	0.2	366	367	10.3	80.4
2025-10-13T10:17	10	23	0.1	23	24	367	0.2	366	368	10.2	81.0
2025-10-13T10:18	10	24	0.1	23	24	368	0.3	367	368	10.3	81.4
2025-10-13T10:19	10	24	0.1	24	24	367	0.3	366	367	10.3	80.4
2025-10-13T10:20	10	24	0.1	24	24	367	0.2	366	368	10.3	81.3
2025-10-13T10:21	10	24	0.1	24	25	368	0.4	367	368	10.3	81.5
2025-10-13T10:22	10	25	0.1	25	25	368	0.4	367	369	10.4	81.5
2025-10-13T10:23	10	25	0.1	25	25	369	0.2	368	369	10.4	80.9
2025-10-13T10:24	10	25	0.1	25	25	369	0.2	368	369	10.4	80.7
2025-10-13T10:25	10	25	0.1	25	25	369	0.3	368	369	10.4	80.3
2025-10-13T10:26	10	25	0.1	25	25	369	0.2	368	369	10.4	79.9
2025-10-13T10:27	10	25	0.1	25	25	369	0.3	368	369	10.4	79.7
2025-10-13T10:28	10	25	0.0	25	25	368	0.3	368	369	10.4	79.8
2025-10-13T10:29	10	25	0.1	25	26	368	0.2	367	368	10.4	79.7
2025-10-13T10:30	10	25	0.1	25	25	368	0.2	368	369	10.4	79.0
2025-10-13T10:31	10	25	0.0	25	25	368	0.2	368	369	10.4	79.9
2025-10-13T10:32	10	25	0.1	25	25	369	0.3	368	369	10.4	79.8
2025-10-13T10:33	10	25	0.1	25	25	368	0.2	368	369	10.4	79.2
2025-10-13T10:34	10	25	0.1	25	25	368	0.2	368	369	10.4	79.4
2025-10-13T10:35	10	25	0.1	25	26	368	0.3	368	369	10.4	79.1
2025-10-13T10:36	10	26	0.2	26	26	368	0.3	367	368	10.5	79.1
2025-10-13T10:37	10	26	0.1	26	26	368	0.2	368	369	10.5	78.7
2025-10-13T10:38	10	27	0.1	26	27	368	0.3	367	368	10.4	78.1
2025-10-13T10:39	10	27	0.1	26	27	368	0.2	367	368	10.4	78.8
2025-10-13T10:40	10	27	0.1	27	27	368	0.3	368	369	10.5	79.0
2025-10-13T10:41	10	27	0.1	27	27	369	0.2	368	369	10.5	78.9
2025-10-13T10:42	10	27	0.1	27	27	369	0.2	368	370	10.5	79.4
2025-10-13T10:43	10	27	0.1	27	28	369	0.2	368	369	10.5	79.1
2025-10-13T10:44	10	27	0.0	27	28	368	0.2	368	369	10.5	79.3
2025-10-13T10:45	10	27	0.1	27	28	368	0.3	368	369	10.5	78.7
2025-10-13T10:46	10	27	0.1	27	27	368	0.2	368	368	10.4	78.5
2025-10-13T10:47	10	27	0.1	27	27	368	0.2	368	369	10.4	78.7
2025-10-13T10:48	10	27	0.1	27	27	369	0.2	368	369	10.4	79.0
2025-10-13T10:49	10	27	0.1	27	27	369	0.3	368	370	10.4	77.9
2025-10-13T10:50	10	27	0.1	27	27	368	0.2	368	368	10.4	77.7
2025-10-13T10:51	10	27	0.2	27	27	367	0.3	367	368	10.4	77.8
2025-10-13T10:52	10	26	0.2	26	27	367	0.2	367	368	10.4	77.8
2025-10-13T10:53	10	26	0.1	26	26	368	0.3	367	368	10.4	78.2
2025-10-13T10:54	10	26	0.1	26	26	368	0.2	367	368	10.5	78.3
2025-10-13T10:55	10	26	0.1	26	26	368	0.2	368	369	10.6	78.9
2025-10-13T10:56	10	26	0.1	26	27	369	0.2	368	369	10.6	79.1
2025-10-13T10:57	10	27	0.1	26	27	369	0.4	368	370	10.6	78.3
2025-10-13T10:58	10	27	0.2	27	27	369	0.3	368	369	10.6	78.9
2025-10-13T10:59	10	27	0.1	27	28	369	0.3	368	370	10.6	79.1
2025-10-13T11:00	10	28	0.1	28	28	368	0.2	368	369	10.5	78.1
2025-10-13T11:01	10	28	0.1	28	28	368	0.2	367	368	10.5	78.5
2025-10-13T11:02	10	28	0.1	28	29	368	0.3	367	368	10.6	78.6
2025-10-13T11:03	10	29	0.2	28	29	368	0.3	367	368	10.5	77.8
2025-10-13T11:04	10	29	0.2	29	30	368	0.3	367	369	10.5	78.1
2025-10-13T11:05	10	30	0.2	29	30	368	0.3	368	369	10.6	77.9
2025-10-13T11:06	10	30	0.2	30	31	369	0.3	368	370	10.6	78.3
2025-10-13T11:07	10	31	0.2	30	31	370	0.6	369	371	10.7	79.1
2025-10-13T11:08	10	31	0.2	31	32	371	0.2	370	372	10.7	78.4
2025-10-13T11:09	10	32	0.1	32	32	371	0.2	370	371	10.7	78.4
2025-10-13T11:10	10	32	0.1	32	32	372	0.4	371	373	10.8	78.0
2025-10-13T11:11	10	32	0.1	32	33	371	0.6	370	372	10.7	77.1
2025-10-13T11:12	10	32	0.1	32	33	371	0.2	370	371	10.6	77.0
2025-10-13T11:13	10	33	0.1	32	33	371	0.3	371	372	10.7	77.6
2025-10-13T11:14	10	33	0.1	33	33	372	0.2	371	372	10.7	77.8
2025-10-13T11:15	10	33	0.0	33	33	372	0.2	371	372	10.8	77.6
2025-10-13T11:16	10	33	0.1	33	33	372	0.2	372	373	10.8	77.1
2025-10-13T11:17	10	33	0.1	33	33	372	0.3	372	373	10.8	77.3
2025-10-13T11:18	10	33	0.1	33	34	372	0.3	371	372	10.8	77.4
2025-10-13T11:19	10	33	0.1	33	34	371	0.4	370	372	10.8	77.5
2025-10-13T11:20	10	34	0.1	33	34	371	0.5	370	372	10.7	76.9
2025-10-13T11:21	10	34	0.1	34	34	370	0.3	369	371	10.6	76.5
2025-10-13T11:22	10	34	0.1	34	34	370	0.2	370	371	10.7	76.6
2025-10-13T11:23	10	35	0.2	34	35	371	0.2	370	371	10.7	76.7
2025-10-13T11:24	10	35	0.2	35	36	371	0.3	370	371	10.7	77.0
2025-10-13T11:25	10	36	0.1	35	36	371	0.2	370	371	10.7	76.5
2025-10-13T11:26	10	36	0.2	36	36	371	0.3	370	371	10.6	76.4
2025-10-13T11:27	10	36	0.1	36	36	371	0.4	371	372	10.6	76.2
2025-10-13T11:28	10	36	0.1	35	36	373	0.5	372	373	10.7	76.5
2025-10-13T11:29	10	36	0.1	35	36	373	0.4	372	373	10.8	76.7
2025-10-13T11:30	10	36	0.2	35	36	372	0.2	372	373	10.8	76.6
2025-10-13T11:31	10	36	0.1	35	36	373	0.5	372	373	10.8	77.7
2025-10-13T11:32	10	35	0.2	35	35	373	0.4	372	374	10.9	77.6
2025-10-13T11:33	10	34	0.3	34	35	372	0.5	371	373	10.8	76.4
2025-10-13T11:34	10	33	0.3	33	34	371	0.3	370	372	10.7	76.4
2025-10-13T11:35	10	33	0.2	32	33	370	0.3	370	371	10.7	77.0
2025-10-13T11:36	10	32	0.2	32	33	370	0.2	370	371	10.8	77.3
2025-10-13T11:37	10	32	0.1	31	32	371	0.2	370	372	10.7	76.9
2025-10-13T11:38	10	32	0.1	31	32	371	0.3	370	372	10.7	77.2
2025-10-13T11:39	10	32	0.2	31	32	370	0.3	370	371	10.8	76.9
2025-10-13T11:40	10	32	0.2	32	33	370	0.3	369	371	10.7	75.7
2025-10-13T11:41	10	33	0.3	32	34	370	0.3	369	371	10.7	75.6
2025-10-13T11:42	10	34	0.3	33	35	371	0.5	370	372	10.7	75.7
2025-10-13T11:43	10	35	0.3	34	36	371	0.3	371	372	10.8	76.2
2025-10-13T11:44	10	35	0.1	35	36	371	0.2	371	372	10.8	76.3
2025-10-13T11:45	10	36	0.1	35	36	371	0.3	371	372	10.8	76.4
2025-10-13T11:46	10	35	0.1	35	36	372	0.4	371	373	10.9	76.9
2025-10-13T11:47	10	35	0.1	35	35	372	0.6	371	373	10.9	76.2
2025-10-13T11:48	10	35	0.1	35	35	371	0.3	371	372	10.8	76.0
2025-10-13T11:49	10	35	0.1	35	35	372	0.3	371	372	10.8	76.1
2025-10-13T11:50	10	35	0.1	35	35	372	0.3	372	373	10.9	76.6
2025-10-13T11:51	10	35	0.1	35	35	372	0.3	372	373	10.8	76.0
2025-10-13T11:52	10	35	0.2	35	35	372	0.3	371	372	10.8	76.1
2025-10-13T11:53	10	35	0.1	35	35	372	0.2	371	373	10.8	76.3
2025-10-13T11:54	10	35	0.1	35	35	372	0.2	371	373	10.8	75.3
2025-10-13T11:55	10	35	0.1	35	35	372	0.3	371	373	10.8	75.0
2025-10-13T11:56	10	35	0.1	35	35	372	0.3	371	373	10.8	75.2
2025-10-13T11:57	10	35	0.1	35	35	373	0.3	372	374	10.8	76.1
2025-10-13T11:58	10	35	0.2	35	36	373	0.3	372	374	10.8	76.0
2025-10-13T11:59	10	35	0.1	35	35	373	0.2	373	374	10.8	75.8
2025-10-13T12:00	10	35	0.2	34	35	374	0.4	373	374	10.9	76.7
2025-10-13T12:01	10	34	0.2	34	35	373	0.5	372	374	11.0	76.8
2025-10-13T12:02	10	34	0.2	33	34	373	0.2	372	373	10.9	75.6
2025-10-13T12:03	10	33	0.2	33	34	373	0.3	372	374	10.9	76.7
2025-10-13T12:04	10	33	0.2	33	34	373	0.2	372	373	11.0	76.9
2025-10-13T12:05	10	33	0.2	33	34	373	0.3	372	374	11.0	76.2
2025-10-13T12:06	10	34	0.2	33	34	372	0.2	372	373	10.9	76.0
2025-10-13T12:07	10	34	0.2	34	34	373	0.2	372	373	11.0	76.5
2025-10-13T12:08	10	34	0.2	34	35	373	0.3	372	373	10.9	75.9
2025-10-13T12:09	10	34	0.3	33	34	373	0.2	372	373	10.9	75.9
2025-10-13T12:10	10	33	0.2	33	33	373	0.3	372	373	11.0	76.4
2025-10-13T12:11	10	32	0.2	32	33	373	0.2	373	373	11.0	76.2
2025-10-13T12:12	10	32	0.1	32	32	373	0.2	372	373	11.0	76.4
2025-10-13T12:13	10	32	0.1	32	33	373	0.2	372	373	11.0	76.3
2025-10-13T12:14	10	33	0.2	32	33	373	0.2	372	374	11.0	76.2
2025-10-13T12:15	10	33	0.2	33	34	373	0.2	372	373	11.0	75.9
2025-10-13T12:16	10	34	0.2	34	35	373	0.3	373	374	11.0	76.3
2025-10-13T12:17	10	35	0.1	34	35	374	0.2	373	374	11.0	77.0
2025-10-13T12:18	10	35	0.1	35	35	374	0.3	373	374	11.1	76.4
2025-10-13T12:19	10	35	0.1	35	35	374	0.3	373	374	11.0	75.8
2025-10-13T12:20	10	35	0.1	35	36	374	0.3	373	374	11.0	75.5
2025-10-13T12:21	10	35	0.1	35	35	373	0.2	373	374	10.9	75.0
2025-10-13T12:22	10	35	0.1	35	35	373	0.2	373	374	10.9	75.2
2025-10-13T12:23	10	35	0.1	34	35	374	0.4	373	374	10.9	75.6
2025-10-13T12:24	10	35	0.1	34	35	374	0.2	373	374	11.0	76.0
2025-10-13T12:25	10	34	0.1	34	34	374	0.2	374	375	11.0	76.4
2025-10-13T12:26	10	34	0.1	33	34	374	0.3	374	375	11.0	76.6
2025-10-13T12:27	10	34	0.1	33	34	375	0.2	374	375	11.1	76.8
2025-10-13T12:28	10	34	0.1	33	34	374	0.2	374	375	11.1	76.2
2025-10-13T12:29	10	34	0.1	34	34	374	0.2	374	375	11.1	75.9
2025-10-13T12:30	10	34	0.1	34	34	374	0.3	374	375	11.1	76.2
2025-10-13T12:31	10	34	0.1	34	34	374	0.3	374	375	11.1	75.3
2025-10-13T12:32	10	34	0.1	34	34	375	0.2	374	375	11.1	76.1
2025-10-13T12:33	10	34	0.1	34	35	375	0.3	374	376	11.1	76.4
2025-10-13T12:34	10	35	0.1	34	35	374	0.5	374	376	11.1	76.5
2025-10-13T12:35	10	35	0.1	34	35	373	0.4	373	374	11.1	75.2
2025-10-13T12:36	10	35	0.1	34	35	374	0.4	373	375	11.0	75.6
2025-10-13T12:37	10	34	0.1	34	35	374	0.2	374	375	11.1	76.6
2025-10-13T12:38	10	34	0.2	33	34	373	0.3	373	374	11.1	75.1
2025-10-13T12:39	10	33	0.2	33	34	373	0.2	373	374	11.1	75.7
2025-10-13T12:40	10	33	0.1	33	33	373	0.3	372	374	11.0	75.5
2025-10-13T12:41	10	33	0.1	32	33	373	0.3	372	373	11.0	74.5
2025-10-13T12:42	10	33	0.1	33	33	373	0.2	372	373	11.1	74.3
2025-10-13T12:43	10	33	0.1	33	33	373	0.2	373	374	11.1	75.0
2025-10-13T12:44	10	33	0.1	33	33	373	0.3	373	374	11.1	74.5
2025-10-13T12:45	10	33	0.1	32	33	373	0.5	372	374	11.1	74.8
2025-10-13T12:46	10	32	0.1	32	33	372	0.3	372	373	11.1	74.5
2025-10-13T12:47	10	32	0.1	32	32	373	0.3	372	374	11.1	74.4
2025-10-13T12:48	10	32	0.1	31	32	373	0.2	373	374	11.2	75.9
2025-10-13T12:49	10	31	0.1	31	32	374	0.2	373	374	11.3	76.6
2025-10-13T12:50	10	31	0.1	31	31	374	0.3	374	375	11.2	75.2
2025-10-13T12:51	10	31	0.1	31	31	375	0.2	374	375	11.2	75.7
2025-10-13T12:52	10	31	0.1	31	32	374	0.3	374	375	11.2	75.0
2025-10-13T12:53	10	32	0.1	31	32	374	0.2	374	375	11.2	75.0
2025-10-13T12:54	10	31	0.1	31	32	374	0.2	374	375	11.2	74.8
2025-10-13T12:55	10	31	0.1	31	31	374	0.3	373	374	11.2	75.0
2025-10-13T12:56	10	31	0.1	31	31	374	0.3	373	375	11.2	75.5
2025-10-13T12:57	10	30	0.1	30	31	374	0.3	373	375	11.3	76.1
2025-10-13T12:58	10	30	0.1	30	30	373	0.3	373	374	11.3	74.7
2025-10-13T12:59	10	30	0.1	30	30	373	0.3	373	374	11.3	75.0
2025-10-13T13:00	10	31	0.2	30	31	374	0.3	373	374	11.3	74.8
2025-10-13T13:01	10	31	0.2	31	32	374	0.3	373	374	11.3	75.7
2025-10-13T13:02	10	32	0.1	32	32	373	0.2	373	374	11.4	76.3
2025-10-13T13:03	10	32	0.1	32	32	373	0.2	373	374	11.4	76.5
2025-10-13T13:04	10	32	0.1	32	33	374	0.4	373	375	11.4	76.0
2025-10-13T13:05	10	33	0.1	32	33	375	0.3	375	376	11.5	76.8
2025-10-13T13:06	10	33	0.1	32	33	375	0.3	374	375	11.4	74.9
2025-10-13T13:07	10	33	0.1	32	33	375	0.2	374	375	11.4	75.5
2025-10-13T13:08	10	33	0.1	33	33	375	0.3	374	375	11.4	75.4
2025-10-13T13:09	10	33	0.1	33	33	375	0.3	374	375	11.4	75.9
2025-10-13T13:10	10	33	0.1	33	33	375	0.2	375	376	11.5	76.2
2025-10-13T13:11	10	33	0.1	33	34	375	0.2	375	376	11.4	75.7
2025-10-13T13:12	10	34	0.2	33	34	376	0.3	375	376	11.5	75.9
2025-10-13T13:13	10	34	0.1	34	34	376	0.2	375	376	11.4	75.4
2025-10-13T13:14	10	34	0.1	34	35	376	0.3	375	376	11.5	76.3
2025-10-13T13:15	10	34	0.1	34	34	376	0.4	375	376	11.5	76.4
2025-10-13T13:16	10	34	0.1	34	35	375	0.4	374	376	11.5	75.6
2025-10-13T13:17	10	35	0.3	34	36	375	0.2	374	375	11.5	74.5
2025-10-13T13:18	10	36	0.4	35	37	374	0.2	374	375	11.5	74.4
2025-10-13T13:19	10	38	0.4	37	38	374	0.2	373	374	11.5	74.5
2025-10-13T13:20	10	39	0.2	38	39	374	0.3	374	375	11.4	74.6
2025-10-13T13:21	10	39	0.1	39	39	374	0.4	373	375	11.4	74.8
2025-10-13T13:22	10	39	0.1	39	39	375	0.4	375	376	11.5	75.0
2025-10-13T13:23	10	39	0.1	38	39	376	0.3	375	377	11.5	74.8
2025-10-13T13:24	10	39	0.1	38	39	377	0.4	376	378	11.6	75.4
2025-10-13T13:25	10	38	0.1	38	38	377	0.2	377	378	11.6	75.4
2025-10-13T13:26	10	38	0.1	38	38	377	0.3	377	378	11.6	75.2
2025-10-13T13:27	10	38	0.1	37	38	378	0.4	377	378	11.7	75.0
2025-10-13T13:28	10	37	0.1	37	37	376	0.4	376	377	11.6	73.7
2025-10-13T13:29	10	37	0.2	36	37	376	0.2	376	377	11.6	74.9
2025-10-13T13:30	10	36	0.2	35	36	377	0.4	376	378	11.6	74.5
2025-10-13T13:31	10	35	0.3	34	36	378	0.2	377	378	11.7	75.4
2025-10-13T13:32	10	34	0.2	34	34	377	0.4	377	378	11.7	76.0
2025-10-13T13:33	10	33	0.2	33	34	377	0.2	376	377	11.7	75.9
2025-10-13T13:34	10	33	0.1	33	33	377	0.3	377	378	11.7	76.7
2025-10-13T13:35	10	33	0.1	33	33	377	0.5	376	378	11.8	75.8
2025-10-13T13:36	10	33	0.1	33	33	376	0.3	376	377	11.7	75.3
2025-10-13T13:37	10	32	0.1	32	33	376	0.4	375	376	11.7	75.3
2025-10-13T13:38	10	32	0.1	32	32	376	0.2	375	376	11.7	75.3
2025-10-13T13:39	10	33	0.2	32	33	376	0.4	375	377	11.7	74.7
2025-10-13T13:40	10	33	0.1	33	33	377	0.3	376	377	11.7	75.1
2025-10-13T13:41	10	33	0.1	33	33	376	0.3	376	377	11.7	74.6
2025-10-13T13:42	10	32	0.2	32	33	376	0.3	375	376	11.7	74.4
2025-10-13T13:43	10	32	0.3	31	32	376	0.3	375	377	11.7	74.8
2025-10-13T13:44	10	31	0.3	30	31	376	0.2	376	376	11.7	74.8
2025-10-13T13:45	10	30	0.2	29	30	375	0.3	375	376	11.7	75.5
2025-10-13T13:46	10	29	0.1	29	29	375	0.2	375	376	11.7	75.1
2025-10-13T13:47	10	29	0.1	29	29	375	0.3	375	376	11.8	75.3
2025-10-13T13:48	10	29	0.1	28	29	375	0.2	375	376	11.7	75.0
2025-10-13T13:49	10	29	0.1	28	29	375	0.3	375	376	11.8	74.8
2025-10-13T13:50	10	29	0.1	28	29	375	0.2	375	376	11.8	74.4
2025-10-13T13:51	10	29	0.2	29	29	376	0.2	375	376	11.8	75.3
2025-10-13T13:52	10	30	0.2	29	30	375	0.2	375	376	11.9	75.6
2025-10-13T13:53	10	30	0.2	30	31	375	0.3	375	376	11.9	75.4
2025-10-13T13:54	10	31	0.1	31	31	376	0.3	375	377	11.8	75.4
2025-10-13T13:55	10	31	0.2	30	31	376	0.3	375	376	11.8	75.8
2025-10-13T13:56	10	30	0.2	30	30	375	0.3	374	376	11.8	74.9
2025-10-13T13:57	10	29	0.3	29	30	375	0.3	374	376	11.8	74.6
2025-10-13T13:58	10	28	0.4	28	29	375	0.3	375	376	11.8	74.8
2025-10-13T13:59	10	27	0.3	27	28	375	0.2	374	375	11.8	74.8
2025-10-13T14:00	10	26	0.3	26	27	374	0.3	373	375	11.8	74.9
2025-10-13T14:01	10	25	0.2	25	26	374	0.3	373	374	11.9	75.3
2025-10-13T14:02	10	24	0.2	24	25	372	0.3	372	373	11.8	74.1
2025-10-13T14:03	10	24	0.2	23	24	372	0.2	372	373	11.8	74.8
2025-10-13T14:04	10	24	0.1	23	24	372	0.3	371	373	11.8	74.4
2025-10-13T14:05	10	23	0.1	23	24	372	0.2	372	373	11.8	74.9
2025-10-13T14:06	10	23	0.3	22	23	372	0.2	372	373	11.8	75.1
2025-10-13T14:07	10	22	0.2	22	22	372	0.2	372	373	11.8	74.4
2025-10-13T14:08	10	21	0.1	21	22	372	0.2	372	373	11.8	74.8
2025-10-13T14:09	10	21	0.1	21	22	373	0.3	372	373	11.8	75.4
2025-10-13T14:10	10	22	0.1	21	22	373	0.3	372	373	11.8	74.8
2025-10-13T14:11	10	22	0.1	22	22	372	0.2	372	373	11.8	75.5
2025-10-13T14:12	10	22	0.1	22	22	372	0.3	372	373	11.8	75.0
2025-10-13T14:13	10	22	0.1	22	22	372	0.3	371	373	11.8	75.4
2025-10-13T14:14	10	22	0.1	22	22	372	0.2	372	373	11.8	74.9
2025-10-13T14:15	10	22	0.1	22	22	373	0.2	372	373	11.8	75.8
2025-10-13T14:16	10	22	0.1	22	22	373	0.2	373	373	11.8	75.8
2025-10-13T14:17	10	22	0.1	22	23	373	0.3	372	373	11.8	75.8
2025-10-13T14:18	10	23	0.1	22	23	373	0.2	372	373	11.8	75.6
2025-10-13T14:19	10	23	0.1	23	23	373	0.2	372	373	11.8	75.9
2025-10-13T14:20	10	23	0.1	23	24	373	0.2	372	373	11.8	76.0
2025-10-13T14:21	10	24	0.1	23	24	373	0.2	372	373	11.8	76.3
2025-10-13T14:22	10	24	0.1	23	24	373	0.2	372	373	11.8	75.2
2025-10-13T14:23	10	23	0.1	23	24	373	0.2	372	373	11.8	75.6
2025-10-13T14:24	10	23	0.1	23	23	372	0.3	372	373	11.8	75.9
2025-10-13T14:25	10	23	0.1	23	23	372	0.3	372	373	11.8	75.8
2025-10-13T14:26	10	23	0.1	23	23	373	0.3	372	373	11.8	76.0
2025-10-13T14:27	10	23	0.1	23	23	373	0.2	372	373	11.9	75.3
2025-10-13T14:28	10	23	0.1	23	24	373	0.2	373	374	11.9	75.8
2025-10-13T14:29	10	24	0.1	24	24	374	0.2	373	374	11.9	75.6
2025-10-13T14:30	10	24	0.1	23	24	374	0.2	373	374	11.9	76.5
2025-10-13T14:31	10	23	0.1	23	24	373	0.3	373	374	11.9	76.1
2025-10-13T14:32	10	23	0.1	23	23	373	0.2	372	374	11.9	74.9
2025-10-13T14:33	10	23	0.1	23	23	373	0.3	372	374	11.9	75.2
2025-10-13T14:34	10	23	0.1	22	23	373	0.2	373	374	11.9	75.3
2025-10-13T14:35	10	22	0.1	22	23	373	0.3	372	373	11.9	74.5
2025-10-13T14:36	10	23	0.1	22	23	373	0.2	372	373	11.9	74.2
2025-10-13T14:37	10	23	0.1	23	23	373	0.2	372	373	11.9	73.7
2025-10-13T14:38	10	23	0.1	22	23	373	0.2	373	374	11.9	73.7
2025-10-13T14:39	10	22	0.1	22	23	373	0.3	372	373	12.0	73.6
2025-10-13T14:40	10	22	0.1	22	22	373	0.2	372	374	12.0	74.0
2025-10-13T14:41	10	22	0.2	22	23	373	0.2	372	373	12.0	72.7
2025-10-13T14:42	10	23	0.2	23	23	373	0.2	373	374	12.1	73.4
2025-10-13T14:43	10	23	0.1	23	24	374	0.3	373	374	12.1	72.9
2025-10-13T14:44	10	23	0.1	23	23	374	0.2	373	374	12.1	72.7
2025-10-13T14:45	10	23	0.2	23	23	374	0.2	373	374	12.0	72.8
2025-10-13T14:46	10	22	0.2	22	23	373	0.3	372	374	12.0	72.9
2025-10-13T14:47	10	22	0.2	21	22	373	0.3	372	374	12.0	73.8
2025-10-13T14:48	10	21	0.1	21	21	374	0.2	373	374	12.1	73.3
2025-10-13T14:49	10	21	0.1	21	21	373	0.3	372	374	12.1	72.7
2025-10-13T14:50	10	20	0.2	20	21	373	0.2	372	374	12.1	73.3
2025-10-13T14:51	10	20	0.1	20	20	372	0.3	372	373	12.1	72.5
2025-10-13T14:52	10	20	0.1	20	20	372	0.3	372	373	12.0	73.0
2025-10-13T14:53	10	19	0.2	19	20	372	0.2	372	373	12.0	73.2
2025-10-13T14:54	10	19	0.1	19	19	372	0.2	372	372	12.0	73.1
2025-10-13T14:55	10	18	0.1	18	19	372	0.2	371	372	12.0	72.8
2025-10-13T14:56	10	18	0.1	18	18	371	0.2	371	372	12.0	72.8
2025-10-13T14:57	10	18	0.2	17	18	371	0.2	371	372	12.0	72.9
2025-10-13T14:58	10	17	0.2	17	17	372	0.2	371	372	12.0	73.6
2025-10-13T14:59	10	16	0.2	16	17	372	0.2	371	372	12.0	74.1
2025-10-13T15:00	10	16	0.2	15	16	371	0.2	371	372	12.0	74.3
2025-10-13T15:01	10	16	0.1	15	16	371	0.2	371	372	12.0	74.1
2025-10-13T15:02	10	15	0.2	15	15	371	0.3	371	372	12.0	73.9
2025-10-13T15:03	10	15	0.1	15	15	372	0.3	371	372	12.0	74.2
2025-10-13T15:04	10	15	0.1	14	15	371	0.4	370	372	12.0	73.9
2025-10-13T15:05	10	14	0.2	14	15	371	0.2	371	372	12.0	73.9
2025-10-13T15:06	10	14	0.1	14	14	371	0.2	370	371	12.0	73.8
2025-10-13T15:07	10	14	0.1	14	14	371	0.3	370	372	12.0	74.3
2025-10-13T15:08	10	14	0.1	14	14	371	0.2	370	371	12.0	74.0
2025-10-13T15:09	10	14	0.1	14	14	371	0.2	370	371	11.9	73.3
2025-10-13T15:10	10	14	0.1	14	14	370	0.2	369	371	11.9	73.5
2025-10-13T15:11	10	14	0.2	13	14	370	0.2	370	371	11.9	73.8
2025-10-13T15:12	10	13	0.2	13	14	370	0.2	370	371	12.0	73.3
2025-10-13T15:13	10	13	0.2	12	13	370	0.2	369	370	12.0	73.2
2025-10-13T15:14	10	12	0.1	12	13	370	0.2	369	370	11.9	73.4
2025-10-13T15:15	10	12	0.1	12	13	370	0.2	369	370	11.9	73.9
2025-10-13T15:16	10	12	0.1	12	13	370	0.3	369	370	11.9	74.2
2025-10-13T15:17	10	12	0.1	12	13	370	0.2	370	370	11.9	73.6
2025-10-13T15:18	10	12	0.1	12	12	370	0.2	369	370	11.9	73.3
2025-10-13T15:19	10	12	0.1	12	12	370	0.3	369	370	11.9	73.0
2025-10-13T15:20	10	12	0.1	12	12	369	0.3	369	370	11.9	71.6
2025-10-13T15:21	10	12	0.1	11	12	369	0.2	369	369	11.9	71.7
2025-10-13T15:22	10	11	0.1	11	12	369	0.2	369	370	11.9	72.3
2025-10-13T15:23	10	11	0.1	11	11	369	0.2	369	370	11.9	72.4
2025-10-13T15:24	10	11	0.1	11	11	369	0.2	369	369	11.9	72.5
2025-10-13T15:25	10	11	0.1	10	11	369	0.2	369	370	11.9	72.4
2025-10-13T15:26	10	11	0.1	10	11	369	0.3	368	370	11.9	72.4
2025-10-13T15:27	10	10	0.1	10	11	369	0.3	368	370	11.9	72.8
2025-10-13T15:28	10	10	0.1	10	11	369	0.3	368	369	11.9	71.5
2025-10-13T15:29	10	10	0.1	10	10	368	0.3	367	369	11.9	71.4
2025-10-13T15:30	10	10	0.1	9	10	368	0.2	368	369	11.9	71.4
2025-10-13T15:31	10	10	0.1	9	10	368	0.2	368	369	11.9	71.5
2025-10-13T15:32	10	9	0.1	9	10	368	0.2	368	369	11.9	71.6
2025-10-13T15:33	10	9	0.1	9	10	368	0.2	368	369	11.9	71.7
2025-10-13T15:34	10	9	0.1	9	9	368	0.2	367	368	11.9	70.9
2025-10-13T15:35	10	9	0.1	9	9	368	0.2	367	368	11.9	71.4
2025-10-13T15:36	10	9	0.1	8	9	368	0.2	367	368	11.9	71.7
2025-10-13T15:37	10	9	0.1	8	9	368	0.2	367	368	11.9	72.1
2025-10-13T15:38	10	9	0.1	9	9	368	0.2	368	368	11.9	72.3
2025-10-13T15:39	10	9	0.1	9	9	368	0.2	367	368	11.9	72.7
2025-10-13T15:40	10	9	0.1	9	9	368	0.2	368	369	11.9	73.1
2025-10-13T15:41	10	9	0.1	9	9	368	0.2	368	368	11.8	73.3
2025-10-13T15:42	10	8	0.2	8	9	368	0.2	367	368	11.9	72.4
2025-10-13T15:43	10	8	0.1	8	8	368	0.2	367	368	11.9	73.0
2025-10-13T15:44	10	8	0.2	7	8	367	0.2	367	368	11.8	73.4
2025-10-13T15:45	10	8	0.1	7	8	368	0.2	367	368	11.8	73.9
2025-10-13T15:46	10	8	0.1	7	8	368	0.3	367	368	11.8	74.1
2025-10-13T15:47	10	7	0.1	7	8	368	0.3	367	368	11.8	74.1
2025-10-13T15:48	10	7	0.1	7	7	367	0.2	367	368	11.8	74.4
2025-10-13T15:49	10	7	0.1	7	7	367	0.2	367	368	11.8	74.8
2025-10-13T15:50	10	7	0.1	7	7	367	0.2	367	368	11.7	75.4
2025-10-13T15:51	10	7	0.1	7	7	367	0.3	367	368	11.7	75.1
2025-10-13T15:52	10	7	0.1	7	7	367	0.2	367	368	11.7	74.9
2025-10-13T15:53	10	7	0.1	7	7	367	0.3	366	368	11.7	74.9
2025-10-13T15:54	10	7	0.1	6	7	367	0.3	366	368	11.7	75.6
2025-10-13T15:55	10	7	0.1	7	7	367	0.2	367	368	11.7	75.3
2025-10-13T15:56	10	7	0.1	7	7	367	0.2	367	368	11.8	74.7
2025-10-13T15:57	10	7	0.1	6	7	367	0.2	366	367	11.7	75.1
2025-10-13T15:58	10	6	0.1	6	7	367	0.2	367	368	11.7	75.5
2025-10-13T15:59	10	6	0.1	6	6	367	0.2	367	367	11.7	74.7
2025-10-13T16:00	10	6	0.1	6	6	367	0.2	366	367	11.7	75.4
2025-10-13T16:01	10	6	0.1	5	6	367	0.2	366	367	11.7	75.4
2025-10-13T16:02	10	5	0.1	5	5	367	0.3	366	367	11.7	75.4
2025-10-13T16:03	10	5	0.1	5	5	367	0.2	366	367	11.7	75.9
2025-10-13T16:04	10	5	0.1	5	5	367	0.2	366	367	11.7	76.3
2025-10-13T16:05	10	4	0.1	4	5	366	0.2	366	367	11.7	75.6
2025-10-13T16:06	10	4	0.1	4	4	366	0.3	365	367	11.7	75.5
2025-10-13T16:07	10	4	0.1	4	4	366	0.2	366	367	11.6	76.2
2025-10-13T16:08	10	4	0.1	4	4	366	0.2	366	367	11.6	76.4
2025-10-13T16:09	10	4	0.1	4	4	366	0.3	365	366	11.6	76.9
2025-10-13T16:10	10	4	0.1	3	4	366	0.2	365	366	11.6	77.4
2025-10-13T16:11	10	3	0.1	3	4	366	0.2	366	366	11.5	77.8
2025-10-13T16:12	10	3	0.1	3	3	366	0.2	365	366	11.5	77.8
2025-10-13T16:13	10	3	0.1	3	3	366	0.2	365	366	11.5	77.6
2025-10-13T16:14	10	3	0.1	3	3	366	0.3	365	367	11.5	77.4
2025-10-13T16:15	10	3	0.1	3	3	366	0.2	365	366	11.5	77.6
2025-10-13T16:16	10	3	0.1	2	3	366	0.3	365	366	11.5	77.5
2025-10-13T16:17	10	3	0.1	2	3	366	0.2	365	366	11.5	77.6
2025-10-13T16:18	10	2	0.1	2	3	365	0.2	365	366	11.5	78.0
2025-10-13T16:19	10	2	0.1	2	3	365	0.2	365	366	11.5	77.8
2025-10-13T16:20	10	2	0.1	2	2	365	0.2	365	366	11.5	78.1
2025-10-13T16:21	10	2	0.1	2	2	365	0.2	365	366	11.5	78.2
2025-10-13T16:22	10	2	0.1	2	2	365	0.2	365	366	11.4	78.8
2025-10-13T16:23	10	2	0.1	2	2	365	0.2	365	366	11.4	78.4
2025-10-13T16:24	10	2	0.1	2	2	365	0.2	365	366	11.4	78.6
2025-10-13T16:25	10	2	0.1	2	2	365	0.2	365	366	11.5	77.8
2025-10-13T16:26	10	2	0.1	2	2	365	0.2	365	366	11.5	78.2
2025-10-13T16:27	10	2	0.1	2	2	365	0.2	365	366	11.5	77.8
2025-10-13T16:28	10	2	0.1	1	2	365	0.2	364	365	11.4	78.1
2025-10-13T16:29	10	2	0.0	1	2	365	0.2	364	365	11.4	78.4
2025-10-13T16:30	10	2	0.1	1	2	365	0.3	364	365	11.4	78.3
2025-10-13T16:31	10	1	0.1	1	2	365	0.2	364	365	11.4	78.4
2025-10-13T16:32	10	1	0.1	1	1	365	0.3	364	365	11.4	78.6
2025-10-13T16:33	10	1	0.1	1	1	365	0.3	364	365	11.4	79.1
2025-10-13T16:34	10	1	0.1	1	1	365	0.2	364	365	11.4	78.9
2025-10-13T16:35	10	1	0.1	1	1	365	0.2	364	365	11.4	79.1
2025-10-13T16:36	10	1	0.1	1	1	365	0.2	364	365	11.3	79.3
2025-10-13T16:37	10	1	0.1	1	1	364	0.2	364	365	11.3	79.6
2025-10-13T16:38	10	1	0.1	1	1	364	0.2	364	365	11.3	79.6
2025-10-13T16:39	10	1	0.1	1	1	364	0.3	364	365	11.3	79.7
2025-10-13T16:40	10	1	0.1	1	1	364	0.2	364	365	11.3	79.1
2025-10-13T16:41	10	1	0.0	1	1	364	0.2	364	365	11.3	79.0
2025-10-13T16:42	10	1	0.1	1	1	364	0.2	364	365	11.4	78.5
2025-10-13T16:43	10	1	0.0	1	1	364	0.2	364	365	11.3	79.1
2025-10-13T16:44	10	1	0.1	0	1	364	0.2	364	365	11.3	78.8
2025-10-13T16:45	10	1	0.0	0	1	364	0.3	363	364	11.3	79.2
2025-10-13T16:46	10	1	0.1	0	1	364	0.2	364	364	11.3	79.2
2025-10-13T16:47	10	1	0.0	0	1	364	0.2	363	364	11.3	78.9
2025-10-13T16:48	10	1	0.1	0	1	364	0.2	364	365	11.3	78.8
2025-10-13T16:49	10	1	0.1	0	1	364	0.2	364	364	11.3	79.2
2025-10-13T16:50	10	1	0.2	0	2	364	0.2	363	364	11.3	79.6
2025-10-13T16:51	10	1	1.1	0	9	364	0.3	363	364	11.3	79.5
2025-10-13T16:52	10	0	0.1	0	1	364	0.2	363	364	11.3	79.1
2025-10-13T16:53	10	0	0.1	0	1	364	0.3	363	364	11.3	79.2
2025-10-13T16:54	10	0	0.1	0	1	364	0.2	363	364	11.3	79.5
2025-10-13T16:55	10	0	0.1	0	1	364	0.2	363	364	11.2	79.9
2025-10-13T16:56	10	0	0.1	0	1	363	0.2	363	364	11.2	80.2
2025-10-13T16:57	10	0	0.1	0	0	364	0.2	363	364	11.2	79.8
2025-10-13T16:58	10	0	0.1	0	0	364	0.1	363	364	11.2	79.6
2025-10-13T16:59	10	0	0.1	0	0	364	0.2	363	364	11.2	79.9
2025-10-13T17:00	10	0	0.1	0	1	363	0.2	363	364	11.2	79.6
2025-10-13T17:01	10	0	0.1	0	0	363	0.2	363	364	11.2	79.6
2025-10-13T17:02	10	0	0.1	0	1	363	0.2	363	364	11.2	79.9
2025-10-13T17:03	10	0	0.1	0	1	364	0.2	363	364	11.2	79.6
2025-10-13T17:04	10	0	0.1	0	1	363	0.2	363	364	11.2	80.1
2025-10-13T17:05	10	0	0.1	0	1	364	0.2	363	364	11.2	80.3
2025-10-13T17:06	10	0	0.1	0	0	364	0.2	363	364	11.2	80.1
2025-10-13T17:07	10	0	0.1	0	0	363	0.2	363	364	11.2	80.5
2025-10-13T17:08	10	0	0.1	0	0	363	0.2	363	364	11.2	80.6
2025-10-13T17:09	10	0	0.1	0	0	363	0.2	363	364	11.2	80.5
2025-10-13T17:10	10	0	0.1	0	0	363	0.2	363	364	11.1	80.8
2025-10-13T17:11	10	0	0.1	0	1	363	0.2	363	364	11.1	81.1
2025-10-13T17:12	10	0	0.1	0	1	363	0.2	363	364	11.1	80.8
2025-10-13T17:13	10	0	0.1	0	0	363	0.2	363	364	11.1	81.0
2025-10-13T17:14	10	0	0.1	0	0	363	0.2	363	364	11.1	81.3
2025-10-13T17:15	10	0	0.1	0	1	363	0.2	363	364	11.1	80.9
2025-10-13T17:16	10	0	0.1	0	1	363	0.2	363	364	11.1	80.6
2025-10-13T17:17	10	0	0.1	0	0	363	0.2	363	364	11.1	80.9
2025-10-13T17:18	10	0	0.1	0	1	363	0.3	363	364	11.1	81.0
2025-10-13T17:19	10	0	0.1	0	1	363	0.2	363	364	11.1	81.1
2025-10-13T17:20	10	0	0.1	0	1	363	0.2	363	364	11.1	81.5
2025-10-13T17:21	10	0	0.1	0	1	363	0.2	363	363	11.1	81.6
2025-10-13T17:22	10	0	0.1	0	1	363	0.2	363	364	11.1	81.0
2025-10-13T17:23	10	0	0.1	0	1	363	0.2	363	364	11.1	81.1
2025-10-13T17:24	10	0	0.1	0	1	363	0.3	362	364	11.1	80.9
2025-10-13T17:25	10	0	0.1	0	1	363	0.2	363	364	11.1	80.6
2025-10-13T17:26	10	0	0.1	0	1	363	0.2	363	364	11.1	80.8
2025-10-13T17:27	10	0	0.1	0	1	363	0.3	362	364	11.1	81.3
2025-10-13T17:28	10	0	0.1	0	1	363	0.2	363	364	11.1	82.0
2025-10-13T17:29	10	0	0.1	0	1	363	0.3	362	364	11.0	82.1
2025-10-13T17:30	10	0	0.2	0	1	363	0.2	363	363	11.1	81.6
2025-10-13T17:31	10	0	0.1	0	1	363	0.3	362	363	11.1	81.5
2025-10-13T17:32	10	1	0.1	0	1	363	0.2	363	364	11.1	81.7
2025-10-13T17:33	10	0	0.1	0	1	363	0.2	362	364	11.1	81.7
2025-10-13T17:34	10	0	0.1	0	1	363	0.3	362	364	11.0	81.9
2025-10-13T17:35	10	0	0.2	0	1	363	0.3	362	364	11.1	81.3
2025-10-13T17:36	10	0	0.1	0	1	363	0.2	363	364	11.1	81.0
2025-10-13T17:37	10	0	0.1	0	1	363	0.3	362	364	11.1	81.2
2025-10-13T17:38	10	0	0.1	0	1	363	0.3	362	363	11.1	81.6
2025-10-13T17:39	10	0	0.1	0	1	363	0.2	363	364	11.0	81.4
2025-10-13T17:40	10	0	0.1	0	1	363	0.2	362	363	11.0	81.6
2025-10-13T17:41	10	0	0.2	0	1	363	0.2	363	364	11.0	81.6
2025-10-13T17:42	10	0	0.1	0	1	363	0.3	362	363	11.0	81.8
2025-10-13T17:43	10	0	0.1	0	1	363	0.3	362	364	11.0	82.1
2025-10-13T17:44	10	0	0.1	0	1	363	0.2	362	363	11.0	81.9
2025-10-13T17:45	10	0	0.1	0	1	363	0.2	362	363	11.0	81.3
2025-10-13T17:46	10	0	0.1	0	1	363	0.2	362	363	11.0	82.1
2025-10-13T17:47	10	0	0.1	0	1	363	0.2	363	363	11.0	81.6
2025-10-13T17:48	10	0	0.2	0	1	363	0.2	363	363	11.0	81.3
2025-10-13T17:49	10	0	0.2	0	1	363	0.3	362	363	11.0	81.5
2025-10-13T17:50	10	0	0.1	0	1	363	0.2	362	363	11.0	81.4
2025-10-13T17:51	10	0	0.2	0	1	363	0.3	362	364	11.0	81.3
2025-10-13T17:52	10	0	0.2	0	1	363	0.2	362	363	11.0	81.4
2025-10-13T17:53	10	0	0.1	0	1	363	0.2	362	363	11.0	81.9
2025-10-13T17:54	10	0	0.1	0	1	363	0.2	362	363	11.0	82.2
2025-10-13T17:55	10	0	0.1	0	1	363	0.2	363	363	11.0	81.7
2025-10-13T17:56	10	0	0.1	0	1	363	0.2	362	364	11.0	81.9
2025-10-13T17:57	10	0	0.1	0	1	363	0.2	362	363	11.0	81.8
2025-10-13T17:58	10	0	0.1	0	1	363	0.3	362	364	11.0	81.7
2025-10-13T17:59	10	0	0.1	0	1	363	0.2	362	363	11.0	81.6
2025-10-13T18:00	10	0	0.1	0	1	363	0.2	362	363	11.0	81.3
2025-10-13T18:01	10	0	0.1	0	1	363	0.3	362	363	11.0	81.3
2025-10-13T18:02	10	0	0.1	0	1	363	0.2	362	363	11.0	81.1
2025-10-13T18:03	10	0	0.1	0	0	363	0.2	362	363	11.0	81.7
2025-10-13T18:04	10	0	0.1	0	1	363	0.2	362	363	10.9	81.8
2025-10-13T18:05	10	0	0.1	0	1	362	0.2	362	363	11.0	81.2
2025-10-13T18:06	10	0	0.1	0	0	362	0.2	362	363	10.9	81.4
2025-10-13T18:07	10	0	0.1	0	1	362	0.2	362	363	11.0	81.3
2025-10-13T18:08	10	0	0.2	0	1	363	0.2	362	363	10.9	81.5
2025-10-13T18:09	10	1	1.5	0	10	363	0.2	362	363	11.0	80.5
2025-10-13T18:10	10	0	0.1	0	1	363	0.3	362	363	11.0	80.9
2025-10-13T18:11	10	0	0.1	0	1	362	0.2	362	363	10.9	81.2
2025-10-13T18:12	10	0	0.1	0	1	362	0.2	362	363	11.0	80.9
2025-10-13T18:13	10	0	0.1	0	1	362	0.2	362	363	11.0	81.1
2025-10-13T18:14	10	0	0.1	0	1	362	0.3	362	363	10.9	81.5
2025-10-13T18:15	10	0	0.1	0	1	362	0.3	362	363	10.9	81.0
2025-10-13T18:16	10	0	0.1	0	1	362	0.2	362	363	11.0	80.9
2025-10-13T18:17	10	0	0.1	0	1	362	0.2	362	363	10.9	80.9
2025-10-13T18:18	10	0	0.1	0	1	362	0.2	362	363	10.9	81.0
2025-10-13T18:19	10	0	0.1	0	0	362	0.2	362	363	10.9	81.1
2025-10-13T18:20	10	0	0.1	0	1	362	0.2	362	363	10.9	80.8
2025-10-13T18:21	10	0	0.1	0	1	362	0.2	362	363	10.9	81.0
2025-10-13T18:22	10	0	0.1	0	1	362	0.2	362	363	10.9	81.1
2025-10-13T18:23	10	0	0.1	0	0	362	0.2	361	362	10.9	81.3
2025-10-13T18:24	10	0	0.1	0	1	362	0.2	362	362	10.9	81.1
2025-10-13T18:25	10	0	0.1	0	1	362	0.3	361	363	10.9	81.8
2025-10-13T18:26	10	0	0.1	0	1	362	0.2	362	363	10.9	81.6
2025-10-13T18:27	10	0	0.1	0	1	362	0.2	361	362	10.9	81.4
2025-10-13T18:28	10	0	0.1	0	1	362	0.2	362	362	10.9	81.5
2025-10-13T18:29	10	0	0.1	0	1	362	0.2	362	363	10.9	80.9
2025-10-13T18:30	10	0	0.1	0	0	362	0.2	361	363	10.9	80.7
2025-10-13T18:31	10	0	0.1	0	1	362	0.2	362	363	10.9	80.8
2025-10-13T18:32	10	0	0.1	0	1	362	0.2	362	363	10.9	81.0
2025-10-13T18:33	10	0	0.1	0	1	362	0.2	362	363	10.9	81.2
2025-10-13T18:34	10	0	0.1	0	0	362	0.2	361	362	10.9	81.2
2025-10-13T18:35	10	0	0.1	0	0	362	0.2	361	362	10.8	81.5
2025-10-13T18:36	10	0	0.1	0	1	362	0.2	361	362	10.9	81.0
2025-10-13T18:37	10	0	0.1	0	1	362	0.2	361	362	10.9	80.7
2025-10-13T18:38	10	0	0.1	0	1	362	0.2	361	362	10.9	80.9
2025-10-13T18:39	10	0	0.1	0	1	362	0.2	362	362	10.9	80.5
2025-10-13T18:40	10	0	0.1	0	1	362	0.2	361	363	10.9	81.1
2025-10-13T18:41	10	0	0.1	0	1	362	0.2	362	362	10.9	80.7
2025-10-13T18:42	10	0	0.1	0	1	362	0.2	361	362	10.9	80.4
2025-10-13T18:43	10	0	0.1	0	1	362	0.2	362	362	10.9	80.7
2025-10-13T18:44	10	0	0.1	0	1	362	0.2	361	362	10.9	81.1
2025-10-13T18:45	10	0	0.1	0	1	362	0.2	361	362	10.9	80.4
2025-10-13T18:46	10	0	0.1	0	1	362	0.2	361	362	10.9	80.5
2025-10-13T18:47	10	0	0.1	0	1	362	0.2	362	362	10.9	80.2
2025-10-13T18:48	10	0	0.1	0	0	362	0.2	361	362	10.9	80.3
2025-10-13T18:49	10	0	0.1	0	1	362	0.2	361	362	10.9	80.4
2025-10-13T18:50	10	0	0.1	0	1	362	0.2	361	362	10.9	80.4
2025-10-13T18:51	10	0	0.1	0	1	362	0.2	361	362	10.9	80.3
2025-10-13T18:52	10	0	0.1	0	1	362	0.2	361	362	10.8	80.7
2025-10-13T18:53	10	0	0.1	0	1	362	0.2	361	362	10.8	80.6
2025-10-13T18:54	10	0	0.1	0	1	361	0.2	361	362	10.8	81.2
2025-10-13T18:55	10	0	0.1	0	1	362	0.2	361	362	10.8	81.1
2025-10-13T18:56	10	0	0.0	0	1	362	0.2	361	362	10.8	80.2
2025-10-13T18:57	10	0	0.1	0	1	362	0.2	361	362	10.8	80.3
2025-10-13T18:58	10	0	0.1	0	1	362	0.2	361	362	10.8	80.5
2025-10-13T18:59	10	1	0.4	0	4	362	0.2	361	362	10.8	80.4
2025-10-13T19:00	10	0	0.1	0	1	362	0.2	361	362	10.8	79.8
2025-10-13T19:01	10	0	0.1	0	1	362	0.2	361	362	10.8	80.3
2025-10-13T19:02	10	0	0.1	0	1	361	0.2	361	362	10.8	79.9
2025-10-13T19:03	10	0	0.1	0	0	362	0.2	361	362	10.8	79.8
2025-10-13T19:04	10	0	0.1	0	0	362	0.3	361	362	10.8	79.6
2025-10-13T19:05	10	0	0.1	0	1	362	0.2	361	362	10.8	79.7
2025-10-13T19:06	10	0	0.1	0	1	361	0.2	361	362	10.8	80.2
2025-10-13T19:07	10	0	0.1	0	1	362	0.2	361	362	10.8	80.0
2025-10-13T19:08	10	0	0.1	0	1	362	0.2	361	362	10.8	79.7
2025-10-13T19:09	10	0	0.1	0	1	361	0.2	361	362	10.7	77.2
2025-10-13T19:10	10	0	0.0	0	1	362	0.2	361	362	10.8	79.8
2025-10-13T19:11	10	0	0.0	0	1	362	0.3	361	362	10.8	79.8
2025-10-13T19:12	10	0	0.5	0	4	361	0.2	361	362	10.8	79.8
2025-10-13T19:13	10	0	0.1	0	0	361	0.2	361	362	10.8	79.8
2025-10-13T19:14	10	0	0.1	0	1	362	0.2	361	362	10.8	79.8
2025-10-13T19:15	10	0	0.1	0	1	361	0.2	361	362	10.8	79.8
2025-10-13T19:16	10	0	0.1	0	0	362	0.2	361	362	10.8	79.8
2025-10-13T19:17	10	0	0.1	0	1	362	0.2	361	362	10.8	79.8
2025-10-13T19:18	10	0	0.0	0	0	362	0.1	361	362	10.8	80.6
2025-10-13T19:19	10	0	0.1	0	1	361	0.2	361	362	10.8	80.8
2025-10-13T19:20	10	0	0.1	0	1	361	0.2	361	362	10.8	80.8
2025-10-13T19:21	10	0	0.1	0	1	361	0.3	361	362	10.7	81.3
2025-10-13T19:22	10	0	0.1	0	1	361	0.2	361	362	10.7	81.3
2025-10-13T19:23	10	0	0.1	0	1	361	0.2	361	362	10.7	81.1
2025-10-13T19:24	10	0	0.1	0	0	361	0.2	361	362	10.7	81.0
2025-10-13T19:25	10	0	0.1	0	1	361	0.2	361	362	10.8	80.9
2025-10-13T19:26	10	0	0.1	0	1	361	0.3	361	362	10.7	81.4
2025-10-13T19:27	10	0	0.1	0	1	361	0.2	361	362	10.7	81.6
2025-10-13T19:28	10	0	0.1	0	0	361	0.2	361	362	10.7	81.6
2025-10-13T19:29	10	0	0.1	0	0	361	0.2	361	362	10.7	81.6
2025-10-13T19:30	10	0	0.1	0	1	361	0.2	361	362	10.7	82.0
2025-10-13T19:31	10	0	0.1	0	0	361	0.2	361	362	10.7	82.2
2025-10-13T19:32	10	0	0.1	0	1	361	0.2	361	362	10.6	82.4
2025-10-13T19:33	10	0	0.1	0	1	361	0.2	361	362	10.6	82.2
2025-10-13T19:34	10	0	0.1	0	1	361	0.2	361	362	10.7	81.9
2025-10-13T19:35	10	0	0.1	0	1	361	0.2	361	362	10.7	81.8
2025-10-13T19:36	10	0	0.1	0	1	361	0.2	361	362	10.7	81.8
2025-10-13T19:37	10	0	0.1	0	1	361	0.2	361	362	10.7	81.4
2025-10-13T19:38	10	0	0.1	0	0	361	0.2	361	362	10.7	81.3
2025-10-13T19:39	10	0	0.1	0	0	361	0.3	361	362	10.7	81.2
2025-10-13T19:40	10	0	0.1	0	0	361	0.2	361	362	10.7	81.4
2025-10-13T19:41	10	0	0.1	0	0	361	0.2	361	362	10.7	81.7
2025-10-13T19:42	10	0	0.0	0	0	361	0.2	361	362	10.7	81.5
2025-10-13T19:43	10	0	0.1	0	1	361	0.2	361	362	10.7	81.7
2025-10-13T19:44	10	0	0.1	0	0	361	0.2	361	361	10.7	81.9
2025-10-13T19:45	10	0	0.1	0	0	361	0.2	361	362	10.7	82.0
2025-10-13T19:46	10	0	0.1	0	0	361	0.2	361	362	10.6	82.3
2025-10-13T19:47	10	0	0.1	0	0	361	0.2	360	361	10.6	82.7
2025-10-13T19:48	10	0	0.1	0	0	361	0.2	360	362	10.6	82.3
2025-10-13T19:49	10	0	0.1	0	1	361	0.2	361	362	10.6	82.3
2025-10-13T19:50	10	0	0.1	0	1	361	0.2	361	361	10.6	82.8
2025-10-13T19:51	10	0	0.1	0	1	361	0.2	361	361	10.6	82.5
2025-10-13T19:52	10	0	0.1	0	1	361	0.2	361	362	10.6	82.2
2025-10-13T19:53	10	0	0.1	0	1	361	0.2	361	362	10.6	82.5
2025-10-13T19:54	10	0	0.1	0	1	361	0.3	361	362	10.6	82.7
2025-10-13T19:55	10	0	0.1	0	1	361	0.2	361	362	10.6	82.9
2025-10-13T19:56	10	0	0.0	0	0	361	0.2	361	362	10.6	82.9
2025-10-13T19:57	10	0	0.1	0	1	361	0.2	361	362	10.6	82.9
2025-10-13T19:58	10	0	0.1	0	1	361	0.2	361	362	10.6	83.2
2025-10-13T19:59	10	0	0.1	0	1	361	0.2	361	362	10.6	83.1
2025-10-13T20:00	10	0	0.1	0	0	361	0.2	361	362	10.6	83.3
2025-10-13T20:01	10	0	0.1	0	0	361	0.2	361	362	10.6	83.4
2025-10-13T20:02	10	0	0.1	0	0	361	0.2	361	361	10.6	83.9
2025-10-13T20:03	10	0	0.1	0	1	361	0.3	361	362	10.6	83.4
2025-10-13T20:04	10	0	0.1	0	1	361	0.2	361	362	10.6	83.5
2025-10-13T20:05	10	0	0.1	0	0	361	0.2	361	361	10.6	83.1
2025-10-13T20:06	10	0	0.1	0	1	361	0.2	361	362	10.6	83.0
2025-10-13T20:07	10	0	0.1	0	1	361	0.2	361	362	10.6	83.3
2025-10-13T20:08	10	0	0.1	0	1	361	0.2	360	361	10.6	83.7
2025-10-13T20:09	10	0	0.0	0	0	361	0.3	360	362	10.6	83.9
2025-10-13T20:10	10	0	0.1	0	1	361	0.2	360	361	10.6	84.0
2025-10-13T20:11	10	0	0.1	0	1	361	0.3	361	362	10.6	84.1
2025-10-13T20:12	10	0	0.0	0	0	361	0.2	361	362	10.6	84.0
2025-10-13T20:13	10	0	0.1	0	1	361	0.2	361	362	10.6	83.9
2025-10-13T20:14	10	0	0.1	0	1	361	0.2	361	362	10.6	83.8
2025-10-13T20:15	10	0	0.1	0	0	361	0.2	360	361	10.6	84.2
2025-10-13T20:16	10	0	0.1	0	1	361	0.2	361	362	10.6	84.1
2025-10-13T20:17	10	0	0.1	0	1	361	0.2	361	362	10.6	84.0
2025-10-13T20:18	10	0	0.1	0	0	361	0.2	361	362	10.6	84.3
2025-10-13T20:19	10	0	0.1	0	1	361	0.2	360	361	10.6	84.1
2025-10-13T20:20	10	0	0.1	0	0	361	0.2	361	361	10.6	84.4
2025-10-13T20:21	10	0	0.1	0	1	361	0.2	361	362	10.6	84.4
2025-10-13T20:22	10	0	0.1	0	1	361	0.2	361	362	10.5	84.7
2025-10-13T20:23	10	0	0.1	0	1	361	0.3	361	362	10.6	84.5
2025-10-13T20:24	10	0	0.1	0	1	361	0.2	361	362	10.6	84.5
2025-10-13T20:25	10	0	0.1	0	1	361	0.2	361	362	10.5	84.7
2025-10-13T20:26	10	0	0.1	0	1	361	0.2	360	361	10.5	84.6
2025-10-13T20:27	10	0	0.1	0	0	361	0.2	361	362	10.5	85.1
2025-10-13T20:28	10	0	0.0	0	1	361	0.2	361	362	10.5	85.1
2025-10-13T20:29	10	0	0.1	0	1	361	0.2	361	361	10.5	85.3
2025-10-13T20:30	10	0	0.1	0	1	361	0.2	361	362	10.5	85.3
2025-10-13T20:31	10	0	0.1	0	1	361	0.2	361	362	10.5	85.2
2025-10-13T20:32	10	0	0.1	0	1	361	0.2	360	361	10.5	84.9
2025-10-13T20:33	10	0	0.1	0	1	361	0.2	360	361	10.5	85.2
2025-10-13T20:34	10	0	0.1	0	1	361	0.2	361	361	10.5	85.1
2025-10-13T20:35	10	0	0.1	0	1	361	0.2	361	361	10.5	84.8
2025-10-13T20:36	10	0	0.1	0	1	361	0.2	361	362	10.5	85.3
2025-10-13T20:37	10	0	0.1	0	0	361	0.3	360	361	10.5	85.1
2025-10-13T20:38	10	0	0.1	0	1	361	0.3	360	361	10.5	85.2
2025-10-13T20:39	10	0	0.1	0	1	361	0.2	361	361	10.5	85.5
2025-10-13T20:40	10	0	0.1	0	1	361	0.2	360	361	10.5	85.4
2025-10-13T20:41	10	0	0.1	0	1	361	0.3	360	362	10.5	85.4
2025-10-13T20:42	10	0	0.1	0	1	361	0.2	360	361	10.5	85.4
2025-10-13T20:43	10	0	0.1	0	0	361	0.2	360	361	10.5	85.5
2025-10-13T20:44	10	0	0.1	0	0	361	0.2	361	362	10.5	85.6
2025-10-13T20:45	10	0	0.1	0	0	361	0.2	361	362	10.5	84.9
2025-10-13T20:46	10	0	0.1	0	0	361	0.2	361	361	10.5	85.3
2025-10-13T20:47	10	0	0.1	0	0	361	0.2	361	361	10.5	85.3
2025-10-13T20:48	10	0	0.1	0	0	361	0.2	361	361	10.5	85.7
2025-10-13T20:49	10	0	0.1	0	0	361	0.2	360	361	10.5	85.3
2025-10-13T20:50	10	0	0.1	0	0	361	0.3	360	362	10.5	85.1
2025-10-13T20:51	10	0	0.1	0	0	361	0.2	361	361	10.5	85.6
2025-10-13T20:52	10	0	0.1	0	0	361	0.3	360	362	10.5	85.7
2025-10-13T20:53	10	0	0.1	0	0	361	0.2	361	362	10.5	85.6
2025-10-13T20:54	10	0	0.1	0	0	361	0.2	360	361	10.4	86.0
2025-10-13T20:55	10	0	0.1	0	0	361	0.2	360	361	10.4	86.3
2025-10-13T20:56	10	0	0.1	0	0	361	0.2	360	361	10.4	86.2
2025-10-13T20:57	10	0	0.1	0	0	361	0.2	361	362	10.4	86.2
2025-10-13T20:58	10	0	0.1	0	0	361	0.2	360	362	10.4	86.4
2025-10-13T20:59	10	0	0.1	0	0	361	0.2	360	361	10.4	86.3
2025-10-13T21:00	10	0	0.1	0	0	361	0.3	360	361	10.4	86.2
2025-10-13T21:01	10	0	0.1	0	0	361	0.2	360	361	10.4	85.9
2025-10-13T21:02	10	0	0.1	0	0	361	0.2	360	361	10.4	85.9
2025-10-13T21:03	10	0	0.1	0	0	361	0.2	360	361	10.4	86.0
2025-10-13T21:04	10	0	0.1	0	0	361	0.2	360	361	10.4	86.1
2025-10-13T21:05	10	0	0.1	0	0	361	0.2	360	361	10.4	86.2
2025-10-13T21:06	10	0	0.1	0	0	361	0.2	360	361	10.4	86.2
2025-10-13T21:07	10	0	0.0	0	0	361	0.2	360	361	10.4	86.3
2025-10-13T21:08	10	0	0.1	0	0	361	0.2	360	361	10.4	86.3
2025-10-13T21:09	10	0	0.1	0	0	361	0.2	360	361	10.4	86.0
2025-10-13T21:10	10	0	0.1	0	0	361	0.2	360	361	10.4	86.3
2025-10-13T21:11	10	0	0.1	0	0	361	0.2	360	361	10.4	86.5
2025-10-13T21:12	10	0	0.1	0	0	361	0.2	360	361	10.4	86.4
2025-10-13T21:13	10	0	0.1	0	0	361	0.2	360	361	10.4	86.5
2025-10-13T21:14	10	0	0.1	0	0	361	0.2	360	361	10.4	86.7
2025-10-13T21:15	10	0	0.1	0	0	361	0.2	360	361	10.4	86.7
2025-10-13T21:16	10	0	0.1	0	0	361	0.2	360	361	10.4	86.5
2025-10-13T21:17	10	0	0.1	0	0	361	0.2	360	361	10.4	86.4
2025-10-13T21:18	10	0	0.1	0	0	361	0.2	360	361	10.4	86.6
2025-10-13T21:19	10	0	0.1	0	0	361	0.2	360	361	10.4	86.7
2025-10-13T21:20	10	0	0.1	0	0	361	0.2	360	361	10.4	86.8
2025-10-13T21:21	10	0	0.1	0	0	361	0.2	360	361	10.4	86.8
2025-10-13T21:22	10	0	0.1	0	0	361	0.2	360	361	10.4	86.8
2025-10-13T21:23	10	0	0.1	0	0	361	0.2	360	361	10.4	86.7
2025-10-13T21:24	10	0	0.1	0	0	361	0.2	360	361	10.4	86.8
2025-10-13T21:25	10	0	0.1	0	0	361	0.2	360	361	10.3	87.2
2025-10-13T21:26	10	0	0.1	0	0	361	0.2	360	361	10.4	86.9
2025-10-13T21:27	10	0	0.1	0	0	361	0.2	360	361	10.3	87.0
2025-10-13T21:28	10	0	0.1	0	0	361	0.2	360	361	10.3	87.3
2025-10-13T21:29	10	0	0.1	0	0	360	0.3	360	361	10.3	87.2
2025-10-13T21:30	10	0	0.1	0	0	361	0.2	360	361	10.3	87.3
2025-10-13T21:31	10	0	0.1	0	0	361	0.2	360	361	10.3	87.0
2025-10-13T21:32	10	0	0.1	0	0	361	0.2	360	361	10.3	87.0
2025-10-13T21:33	10	0	0.1	0	0	361	0.2	360	361	10.3	87.3
2025-10-13T21:34	10	0	0.1	0	0	361	0.3	360	361	10.3	87.4
2025-10-13T21:35	10	0	0.1	0	0	361	0.2	360	361	10.3	87.3
2025-10-13T21:36	10	0	0.1	0	0	360	0.2	360	361	10.3	87.5
2025-10-13T21:37	10	0	0.1	0	0	361	0.2	360	361	10.3	87.3
2025-10-13T21:38	10	0	0.1	0	0	361	0.2	360	361	10.3	87.3
2025-10-13T21:39	10	0	0.1	0	0	361	0.2	360	361	10.3	87.7
2025-10-13T21:40	10	0	0.1	0	0	361	0.3	360	361	10.3	87.9
2025-10-13T21:41	10	0	0.1	0	0	361	0.2	360	361	10.3	87.8
2025-10-13T21:42	10	0	0.1	0	0	360	0.2	360	361	10.3	87.8
2025-10-13T21:43	10	0	0.1	0	0	360	0.2	360	361	10.3	87.9
2025-10-13T21:44	10	0	0.1	0	0	360	0.2	360	361	10.3	87.9
2025-10-13T21:45	10	0	0.1	0	0	361	0.2	360	361	10.3	88.0
2025-10-13T21:46	10	0	0.1	0	0	361	0.2	360	361	10.3	87.8
2025-10-13T21:47	10	0	0.1	0	0	361	0.2	360	361	10.3	87.5
2025-10-13T21:48	10	0	0.1	0	0	361	0.3	360	361	10.3	87.6
2025-10-13T21:49	10	0	0.1	0	0	361	0.2	360	361	10.3	87.5
2025-10-13T21:50	10	0	0.1	0	0	360	0.2	360	361	10.3	87.7
2025-10-13T21:51	10	0	0.1	0	0	360	0.2	360	361	10.3	88.0
2025-10-13T21:52	10	0	0.1	0	0	360	0.3	359	361	10.3	88.1
2025-10-13T21:53	10	0	0.1	0	0	360	0.3	360	361	10.2	88.3
2025-10-13T21:54	10	0	0.1	0	0	360	0.2	360	361	10.3	87.8
2025-10-13T21:55	10	0	0.1	0	0	360	0.2	360	361	10.2	88.3
2025-10-13T21:56	10	0	0.1	0	0	360	0.2	360	361	10.2	88.2
2025-10-13T21:57	10	0	0.1	0	0	361	0.2	360	361	10.3	88.0
2025-10-13T21:58	10	0	0.1	0	0	360	0.2	360	361	10.2	88.3
2025-10-13T21:59	10	0	0.1	0	0	360	0.2	360	361	10.2	88.0
2025-10-13T22:00	10	0	0.1	0	0	360	0.2	360	361	10.2	88.1
2025-10-13T22:01	10	0	0.1	0	0	360	0.2	360	361	10.2	88.3
2025-10-13T22:02	10	0	0.1	0	0	360	0.3	360	361	10.2	87.9
2025-10-13T22:03	10	0	0.1	0	0	360	0.2	360	361	10.2	87.8
2025-10-13T22:04	10	0	0.1	0	0	360	0.2	360	361	10.2	88.1
2025-10-13T22:05	10	0	0.1	0	0	360	0.2	360	361	10.2	88.1
2025-10-13T22:06	10	0	0.1	0	0	360	0.2	360	361	10.2	88.3
2025-10-13T22:07	10	0	0.1	0	0	360	0.2	360	361	10.2	88.0
2025-10-13T22:08	10	0	0.1	0	0	360	0.2	360	361	10.2	88.1
2025-10-13T22:09	10	0	0.1	0	0	360	0.2	360	361	10.2	88.1
2025-10-13T22:10	10	0	0.1	0	0	360	0.2	359	361	10.2	88.2
2025-10-13T22:11	10	0	0.1	0	0	360	0.2	360	361	10.2	88.0
2025-10-13T22:12	10	0	0.0	0	0	360	0.2	360	361	10.2	88.1
2025-10-13T22:13	10	0	0.1	0	0	360	0.2	360	361	10.2	88.2
2025-10-13T22:14	10	0	0.1	0	0	360	0.2	360	361	10.2	88.3
2025-10-13T22:15	10	0	0.1	0	0	360	0.2	360	361	10.2	88.6
2025-10-13T22:16	10	0	0.1	0	0	360	0.2	360	361	10.2	88.3
2025-10-13T22:17	10	0	0.1	0	0	360	0.3	360	361	10.2	88.2
2025-10-13T22:18	10	0	0.1	0	0	360	0.2	360	361	10.2	88.1
2025-10-13T22:19	10	0	0.1	0	0	360	0.2	360	361	10.2	88.4
2025-10-13T22:20	10	0	0.1	0	0	360	0.2	360	361	10.2	88.3
2025-10-13T22:21	10	0	0.1	0	0	360	0.2	360	361	10.2	88.4
2025-10-13T22:22	10	0	0.1	0	0	360	0.2	360	361	10.2	88.0
2025-10-13T22:23	10	0	0.1	0	0	360	0.2	360	361	10.2	88.0
2025-10-13T22:24	10	0	0.1	0	0	360	0.3	360	361	10.2	88.3
2025-10-13T22:25	10	0	0.1	0	0	360	0.2	360	361	10.2	88.3
2025-10-13T22:26	10	0	0.1	0	0	360	0.2	360	361	10.2	88.4
2025-10-13T22:27	10	0	0.1	0	0	360	0.3	360	361	10.2	88.6
2025-10-13T22:28	10	0	0.1	0	0	360	0.2	360	361	10.2	88.7
2025-10-13T22:29	10	0	0.1	0	0	360	0.3	359	361	10.2	88.7
2025-10-13T22:30	10	0	0.1	0	0	360	0.2	360	361	10.2	88.9
2025-10-13T22:31	10	0	0.1	0	0	360	0.3	360	361	10.2	89.0
2025-10-13T22:32	10	0	0.1	0	0	360	0.3	360	361	10.2	89.1
2025-10-13T22:33	10	0	0.1	0	0	360	0.2	360	361	10.2	88.8
2025-10-13T22:34	10	0	0.1	0	0	360	0.3	360	361	10.2	88.4
2025-10-13T22:35	10	0	0.1	0	0	360	0.3	359	361	10.2	88.8
2025-10-13T22:36	10	0	0.1	0	0	360	0.2	360	361	10.1	89.2
2025-10-13T22:37	10	0	0.1	0	0	360	0.2	360	361	10.2	88.9
2025-10-13T22:38	10	0	0.1	0	0	360	0.2	360	361	10.1	88.9
2025-10-13T22:39	10	0	0.1	0	0	360	0.2	359	361	10.1	89.0
2025-10-13T22:40	10	0	0.1	0	0	360	0.2	360	361	10.2	88.8
2025-10-13T22:41	10	0	0.1	0	0	360	0.2	360	361	10.1	89.0
2025-10-13T22:42	10	0	0.1	0	0	360	0.2	360	361	10.2	88.9
2025-10-13T22:43	10	0	0.1	0	0	360	0.2	360	361	10.1	89.1
2025-10-13T22:44	10	0	0.1	0	0	360	0.3	360	361	10.1	89.2
2025-10-13T22:45	10	0	0.1	0	0	360	0.3	359	361	10.1	89.0
2025-10-13T22:46	10	0	0.1	0	0	360	0.2	360	361	10.1	89.1
2025-10-13T22:47	10	0	0.1	0	0	360	0.2	360	361	10.1	89.0
2025-10-13T22:48	10	0	0.1	0	0	360	0.2	360	361	10.2	88.6
2025-10-13T22:49	10	0	0.1	0	0	360	0.2	360	361	10.2	88.6
2025-10-13T22:50	10	0	0.1	0	0	360	0.2	360	361	10.2	88.4
2025-10-13T22:51	10	0	0.1	0	0	360	0.2	360	361	10.2	88.3
2025-10-13T22:52	10	0	0.1	0	0	360	0.2	360	361	10.2	88.3
2025-10-13T22:53	10	0	0.1	0	0	360	0.2	360	361	10.2	88.3
2025-10-13T22:54	10	0	0.1	0	0	360	0.2	360	361	10.2	88.4
2025-10-13T22:55	10	0	0.1	0	0	360	0.2	360	361	10.2	88.6
2025-10-13T22:56	10	0	0.5	0	3	360	0.2	359	361	10.2	88.6
2025-10-13T22:57	10	0	0.1	0	0	360	0.2	360	361	10.2	88.8
2025-10-13T22:58	10	0	0.1	0	0	360	0.2	360	361	10.2	88.8
2025-10-13T22:59	10	0	0.1	0	0	360	0.3	360	361	10.1	89.1
2025-10-13T23:00	10	0	0.1	0	0	360	0.2	360	361	10.1	89.0
2025-10-13T23:01	10	0	0.1	0	0	360	0.2	360	361	10.1	88.9
2025-10-13T23:02	10	0	0.1	0	0	360	0.2	360	361	10.1	88.9
2025-10-13T23:03	10	0	0.1	0	0	360	0.2	360	361	10.2	88.7
2025-10-13T23:04	10	0	0.1	0	0	360	0.2	359	360	10.2	88.7
2025-10-13T23:05	10	0	0.1	0	0	360	0.2	360	360	10.1	89.0
2025-10-13T23:06	10	0	0.1	0	0	360	0.2	360	360	10.1	89.0
2025-10-13T23:07	10	0	0.1	0	0	360	0.2	360	361	10.1	88.8
2025-10-13T23:08	10	0	0.1	0	0	360	0.2	360	361	10.1	88.9
2025-10-13T23:09	10	0	0.1	0	0	360	0.2	360	361	10.2	88.8
2025-10-13T23:10	10	0	0.1	0	0	360	0.2	360	361	10.1	89.0
2025-10-13T23:11	10	0	0.1	0	0	360	0.2	360	361	10.2	88.9
2025-10-13T23:12	10	0	0.1	0	0	360	0.2	359	360	10.2	88.8
2025-10-13T23:13	10	0	0.1	0	0	360	0.2	359	360	10.2	88.8
2025-10-13T23:14	10	0	0.1	0	0	360	0.2	359	361	10.2	88.9
2025-10-13T23:15	10	0	0.1	0	0	360	0.2	360	361	10.2	88.8
2025-10-13T23:16	10	0	0.1	0	0	360	0.2	359	361	10.2	88.8
2025-10-13T23:17	10	0	0.1	0	0	360	0.3	360	361	10.2	89.0
2025-10-13T23:18	10	0	0.1	0	0	360	0.2	360	361	10.2	89.1
2025-10-13T23:19	10	0	0.1	0	0	360	0.2	360	360	10.1	89.4
2025-10-13T23:20	10	0	0.1	0	0	360	0.2	360	361	10.1	89.2
2025-10-13T23:21	10	0	0.1	0	0	360	0.2	359	360	10.1	89.9
2025-10-13T23:22	10	0	0.1	0	0	360	0.2	359	361	10.1	89.9
2025-10-13T23:23	10	0	0.1	0	0	360	0.3	359	361	10.1	89.6
2025-10-13T23:24	10	0	0.1	0	0	360	0.2	360	360	10.1	89.9
2025-10-13T23:25	10	0	0.1	0	0	360	0.2	360	361	10.1	90.3
2025-10-13T23:26	10	0	0.1	0	0	360	0.3	359	361	10.1	90.1
2025-10-13T23:27	10	0	0.1	0	0	360	0.2	360	361	10.1	89.9
2025-10-13T23:28	10	0	0.1	0	0	360	0.2	360	361	10.1	90.1
2025-10-13T23:29	10	0	0.1	0	0	360	0.2	359	361	10.1	89.9
2025-10-13T23:30	10	0	0.1	0	0	360	0.2	360	361	10.1	90.1
2025-10-13T23:31	10	0	0.1	0	0	360	0.2	360	361	10.1	89.5
2025-10-13T23:32	10	0	0.1	0	0	360	0.2	359	361	10.1	89.2
2025-10-13T23:33	10	0	0.1	0	0	360	0.2	359	361	10.1	89.4
2025-10-13T23:34	10	0	0.1	0	0	360	0.2	360	361	10.1	89.6
2025-10-13T23:35	10	0	0.1	0	0	360	0.3	359	360	10.1	89.5
2025-10-13T23:36	10	0	0.1	0	0	360	0.3	359	360	10.1	89.9
2025-10-13T23:37	10	0	0.1	0	0	360	0.2	360	361	10.1	90.2
2025-10-13T23:38	10	0	0.1	0	0	360	0.2	360	360	10.1	90.4
2025-10-13T23:39	10	0	0.1	0	0	360	0.2	360	360	10.0	90.9
2025-10-13T23:40	10	0	0.1	0	0	360	0.2	360	360	10.0	90.7
2025-10-13T23:41	10	0	0.1	0	0	360	0.2	360	361	10.0	90.8
2025-10-13T23:42	10	0	0.1	0	0	360	0.2	359	360	10.0	90.9
2025-10-13T23:43	10	0	0.1	0	0	360	0.2	360	360	10.0	91.0
2025-10-13T23:44	10	0	0.1	0	0	360	0.2	360	361	10.0	90.9
2025-10-13T23:45	10	0	0.1	0	0	360	0.2	360	361	10.0	91.1
2025-10-13T23:46	10	0	0.1	0	0	360	0.3	359	361	10.0	91.2
2025-10-13T23:47	10	0	0.1	0	0	360	0.2	360	361	10.0	91.1
2025-10-13T23:48	10	0	0.1	0	0	360	0.2	360	361	10.0	90.9
2025-10-13T23:49	10	0	0.1	0	0	360	0.3	359	360	10.0	90.9
2025-10-13T23:50	10	0	0.1	0	0	360	0.2	359	360	10.0	91.2
2025-10-13T23:51	10	0	0.1	0	0	360	0.2	359	360	10.0	91.0
2025-10-13T23:52	10	0	0.1	0	0	360	0.2	359	360	10.0	91.0
2025-10-13T23:53	10	0	0.0	0	0	360	0.2	360	361	10.0	91.1
2025-10-13T23:54	10	0	0.1	0	0	360	0.2	360	360	10.0	91.4
2025-10-13T23:55	10	0	0.1	0	0	360	0.2	360	361	10.0	91.7
2025-10-13T23:56	10	0	0.1	0	0	360	0.2	360	361	10.0	91.6
2025-10-13T23:57	10	0	0.1	0	0	360	0.2	360	361	10.0	91.1
2025-10-13T23:58	10	0	0.1	0	0	360	0.3	360	361	10.0	90.5
2025-10-13T23:59	10	0	0.1	0	0	360	0.2	360	361	10.0	90.1
2025-10-14T00:00	10	0	0.1	0	0	360	0.2	360	361	10.0	90.2
2025-10-14T00:01	10	0	0.1	0	0	360	0.2	359	360	10.1	89.8
2025-10-14T00:02	10	0	0.1	0	0	360	0.2	360	360	10.1	90.1
2025-10-14T00:03	10	0	0.1	0	0	360	0.3	359	361	10.1	90.1
2025-10-14T00:04	10	0	0.1	0	0	360	0.3	359	361	10.1	90.1
2025-10-14T00:05	10	0	0.1	0	0	360	0.2	360	361	10.1	90.0
2025-10-14T00:06	10	0	0.1	0	0	360	0.3	359	361	10.1	90.0
2025-10-14T00:07	10	0	0.1	0	0	360	0.2	360	360	10.1	89.9
2025-10-14T00:08	10	0	0.1	0	0	360	0.2	359	360	10.1	90.1
2025-10-14T00:09	10	0	0.1	0	0	360	0.3	359	361	10.1	90.1
2025-10-14T00:10	10	0	0.1	0	0	360	0.2	360	360	10.0	90.3
2025-10-14T00:11	10	0	0.1	0	1	360	0.3	359	360	10.1	90.5
2025-10-14T00:12	10	0	0.1	0	0	360	0.2	359	360	10.0	90.5
2025-10-14T00:13	10	0	0.1	0	0	360	0.2	359	360	10.0	90.7
2025-10-14T00:14	10	0	0.1	0	0	360	0.2	359	360	10.0	90.7
2025-10-14T00:15	10	0	0.1	0	0	360	0.2	359	360	10.0	90.8
2025-10-14T00:16	10	0	0.1	0	0	360	0.2	359	360	10.0	90.8
2025-10-14T00:17	10	0	0.1	0	0	360	0.2	360	360	10.0	90.9
2025-10-14T00:18	10	0	0.1	0	0	360	0.3	359	360	10.0	91.0
2025-10-14T00:19	10	0	0.1	0	0	360	0.3	359	360	10.0	91.1
2025-10-14T00:20	10	0	0.1	0	0	360	0.3	359	361	10.0	91.2
2025-10-14T00:21	10	0	0.1	0	0	360	0.2	359	360	10.0	91.3
2025-10-14T00:22	10	0	0.1	0	0	360	0.2	359	360	10.0	91.3
2025-10-14T00:23	10	0	0.1	0	0	360	0.2	359	360	10.0	91.6
2025-10-14T00:24	10	0	0.1	0	0	360	0.2	359	360	10.0	91.7
2025-10-14T00:25	10	0	0.1	0	0	360	0.2	359	360	9.9	92.1
2025-10-14T00:26	10	0	0.1	0	0	360	0.2	359	360	9.9	92.5
2025-10-14T00:27	10	0	0.1	0	0	360	0.3	359	360	9.9	92.8
2025-10-14T00:28	10	0	0.1	0	0	360	0.2	359	360	9.9	92.8
2025-10-14T00:29	10	0	0.1	0	1	360	0.2	359	360	9.9	92.8
2025-10-14T00:30	10	0	0.1	0	0	360	0.2	359	360	9.9	92.7
2025-10-14T00:31	10	0	0.1	0	0	360	0.2	359	361	9.9	92.5
2025-10-14T00:32	10	0	0.1	0	0	360	0.2	359	360	9.9	92.4
2025-10-14T00:33	10	0	0.1	0	0	360	0.2	359	360	9.9	92.4
2025-10-14T00:34	10	0	0.1	0	0	360	0.2	359	360	9.9	92.3
2025-10-14T00:35	10	0	0.1	0	0	360	0.2	359	360	9.9	92.2
2025-10-14T00:36	10	0	0.4	0	3	360	0.2	359	360	9.9	92.1
2025-10-14T00:37	10	0	0.1	0	0	360	0.2	359	360	9.9	92.0
2025-10-14T00:38	10	0	0.1	0	0	360	0.2	359	360	9.9	92.0
2025-10-14T00:39	10	0	0.1	0	0	360	0.2	359	360	9.9	92.0
2025-10-14T00:40	10	0	0.1	0	0	360	0.2	359	360	9.9	92.0
2025-10-14T00:41	10	0	0.1	0	0	360	0.2	359	360	9.9	91.9
2025-10-14T00:42	10	0	0.1	0	0	360	0.2	359	360	9.9	91.9
2025-10-14T00:43	10	0	0.1	0	0	360	0.2	359	360	9.9	91.9
2025-10-14T00:44	10	0	0.1	0	0	360	0.2	359	360	9.9	91.9
2025-10-14T00:45	10	0	0.1	0	0	360	0.2	359	360	10.0	91.8
2025-10-14T00:46	10	0	0.1	0	0	360	0.2	359	360	10.0	92.1
2025-10-14T00:47	10	0	0.1	0	0	360	0.2	359	360	9.9	92.0
2025-10-14T00:48	10	0	0.1	0	0	360	0.2	359	360	9.9	91.9
2025-10-14T00:49	10	0	0.1	0	0	360	0.2	359	360	9.9	91.5
2025-10-14T00:50	10	0	0.1	0	0	360	0.2	359	360	9.9	91.6
2025-10-14T00:51	10	0	0.1	0	0	360	0.2	359	360	9.9	91.7
2025-10-14T00:52	10	0	0.1	0	0	360	0.2	359	360	9.9	91.9
2025-10-14T00:53	10	0	0.1	0	0	360	0.2	359	360	9.9	92.0
2025-10-14T00:54	10	0	0.1	0	0	360	0.2	359	360	9.9	91.8
2025-10-14T00:55	10	0	0.1	0	0	360	0.2	359	360	9.9	91.7
2025-10-14T00:56	10	0	0.1	0	0	360	0.2	359	360	9.9	91.7
2025-10-14T00:57	10	0	0.1	0	0	360	0.2	359	360	9.9	91.7
2025-10-14T00:58	10	0	0.1	0	0	360	0.3	359	360	9.9	91.7
2025-10-14T00:59	10	0	0.1	0	0	360	0.2	359	360	9.9	91.9
2025-10-14T01:00	10	0	0.1	0	1	359	0.2	359	360	9.9	92.1
2025-10-14T01:01	10	0	0.1	0	1	360	0.2	359	360	9.9	92.4
2025-10-14T01:02	10	0	0.1	0	0	360	0.2	359	360	9.9	92.5
2025-10-14T01:03	10	0	0.1	0	0	360	0.2	359	360	9.9	92.2
2025-10-14T01:04	10	0	0.1	0	0	360	0.2	359	360	9.9	92.1
2025-10-14T01:05	10	0	0.1	0	0	360	0.3	359	360	9.9	92.1
2025-10-14T01:06	10	0	0.1	0	0	360	0.2	359	360	9.9	92.6
2025-10-14T01:07	10	0	0.1	0	0	360	0.2	359	360	9.9	93.3
2025-10-14T01:08	10	0	0.1	0	0	359	0.2	359	360	9.9	93.6
2025-10-14T01:09	10	0	0.1	0	0	359	0.2	359	360	9.9	93.5
2025-10-14T01:10	10	0	0.1	0	0	360	0.3	359	360	9.9	93.2
2025-10-14T01:11	10	0	0.1	0	0	359	0.2	359	360	9.9	92.7
2025-10-14T01:12	10	0	0.1	0	0	360	0.2	359	360	9.9	92.5
2025-10-14T01:13	10	0	0.1	0	0	359	0.3	359	360	9.9	92.6
2025-10-14T01:14	10	0	0.1	0	0	359	0.3	359	360	9.9	92.9
2025-10-14T01:15	10	0	0.1	0	0	360	0.2	359	360	9.9	93.3
2025-10-14T01:16	10	0	0.1	0	0	359	0.2	359	360	9.9	93.2
2025-10-14T01:17	10	0	0.1	0	0	359	0.2	359	360	9.9	92.9
2025-10-14T01:18	10	0	0.1	0	0	360	0.2	359	360	9.9	92.6
2025-10-14T01:19	10	0	0.1	0	0	359	0.3	359	360	9.9	92.4
2025-10-14T01:20	10	0	0.1	0	0	359	0.2	359	360	9.9	92.4
2025-10-14T01:21	10	0	0.1	0	0	359	0.2	359	360	9.9	92.0
2025-10-14T01:22	10	0	0.1	0	0	359	0.2	359	360	9.9	91.5
2025-10-14T01:23	10	0	0.1	0	0	359	0.2	359	360	9.9	91.7
2025-10-14T01:24	10	0	0.1	0	0	359	0.2	359	360	9.9	92.1
2025-10-14T01:25	10	0	0.1	0	0	359	0.2	359	360	9.9	92.4
2025-10-14T01:26	10	0	0.1	0	0	359	0.3	359	360	9.9	92.6
2025-10-14T01:27	10	0	0.1	0	0	359	0.3	359	360	9.9	92.7
2025-10-14T01:28	10	0	0.1	0	0	359	0.2	359	360	9.9	92.9
2025-10-14T01:29	10	0	0.1	0	0	359	0.3	359	360	9.9	93.0
2025-10-14T01:30	10	0	0.1	0	0	359	0.2	359	359	9.9	93.3
2025-10-14T01:31	10	0	0.1	0	0	359	0.2	359	360	9.9	93.6
2025-10-14T01:32	10	0	0.1	0	0	359	0.2	359	360	9.9	93.8
2025-10-14T01:33	10	0	0.1	0	0	359	0.3	359	360	9.9	93.9
2025-10-14T01:34	10	0	0.1	0	0	359	0.2	358	360	9.9	94.0
2025-10-14T01:35	10	0	0.1	0	0	359	0.2	358	359	9.8	94.1
2025-10-14T01:36	10	0	0.1	0	0	359	0.3	358	360	9.8	94.3
2025-10-14T01:37	10	0	0.1	0	0	359	0.2	358	359	9.8	94.6
2025-10-14T01:38	10	0	0.1	0	0	359	0.2	359	359	9.8	94.8
2025-10-14T01:39	10	0	0.1	0	0	359	0.2	359	360	9.8	94.9
2025-10-14T01:40	10	0	0.1	0	0	359	0.2	358	359	9.8	95.1
2025-10-14T01:41	10	0	0.1	0	0	359	0.2	358	359	9.8	95.2
2025-10-14T01:42	10	0	0.1	0	0	359	0.2	359	360	9.8	94.5
2025-10-14T01:43	10	0	0.1	0	0	359	0.2	359	360	9.8	93.5
2025-10-14T01:44	10	0	0.1	0	0	359	0.2	359	360	9.8	93.6
2025-10-14T01:45	10	0	0.1	0	0	359	0.2	359	359	9.8	93.7
2025-10-14T01:46	10	0	0.1	0	0	359	0.2	358	359	9.8	94.1
2025-10-14T01:47	10	0	0.1	0	0	359	0.2	359	360	9.8	94.3
2025-10-14T01:48	10	0	0.1	0	0	359	0.2	359	360	9.8	94.3
2025-10-14T01:49	10	0	0.1	0	0	359	0.2	358	359	9.8	94.4
2025-10-14T01:50	10	0	0.1	0	0	359	0.2	359	360	9.8	94.5
2025-10-14T01:51	10	0	0.1	0	0	359	0.2	359	360	9.8	94.4
2025-10-14T01:52	10	0	0.1	0	0	359	0.2	359	360	9.8	94.6
2025-10-14T01:53	10	0	0.1	0	0	359	0.2	359	360	9.8	94.9
2025-10-14T01:54	10	0	0.1	0	0	359	0.2	359	360	9.8	95.2
2025-10-14T01:55	10	0	0.1	0	0	359	0.2	359	360	9.8	95.3
2025-10-14T01:56	10	0	0.1	0	0	359	0.2	359	360	9.8	95.0
2025-10-14T01:57	10	0	0.1	0	0	359	0.2	359	360	9.8	94.4
2025-10-14T01:58	10	0	0.1	0	0	359	0.3	359	360	9.8	94.0
2025-10-14T01:59	10	0	0.1	0	0	359	0.2	359	360	9.8	93.8
2025-10-14T02:00	10	0	0.1	0	0	359	0.2	359	360	9.8	93.7
2025-10-14T02:01	10	0	0.1	0	0	359	0.2	359	360	9.8	93.8
2025-10-14T02:02	10	0	0.1	0	0	359	0.2	359	360	9.8	93.7
2025-10-14T02:03	10	0	0.1	0	0	359	0.2	359	360	9.8	93.9
2025-10-14T02:04	10	0	0.1	0	0	359	0.2	359	360	9.8	94.0
2025-10-14T02:05	10	0	0.1	0	0	359	0.2	359	360	9.8	94.0
2025-10-14T02:06	10	0	0.1	0	0	359	0.3	358	360	9.8	94.1
2025-10-14T02:07	10	0	0.1	0	0	359	0.3	358	360	9.8	93.8
2025-10-14T02:08	10	0	0.1	0	0	359	0.2	359	360	9.8	93.4
2025-10-14T02:09	10	0	0.1	0	0	359	0.3	359	360	9.8	93.6
2025-10-14T02:10	10	0	0.1	0	0	359	0.2	359	360	9.8	93.8
2025-10-14T02:11	10	0	0.1	0	0	359	0.2	359	360	9.8	93.8
2025-10-14T02:12	10	0	0.1	0	0	359	0.2	359	360	9.8	94.0
2025-10-14T02:13	10	0	0.1	0	0	359	0.2	358	360	9.8	93.8
2025-10-14T02:14	10	0	0.1	0	0	359	0.3	358	360	9.9	92.9
2025-10-14T02:15	10	0	0.1	0	0	359	0.2	359	360	9.9	93.1
2025-10-14T02:16	10	0	0.1	0	0	359	0.2	359	359	9.9	93.4
2025-10-14T02:17	10	0	0.1	0	0	359	0.2	359	359	9.9	93.6
2025-10-14T02:18	10	0	0.1	0	0	359	0.2	358	359	9.8	93.7
2025-10-14T02:19	10	0	0.1	0	0	359	0.2	359	359	9.8	94.1
2025-10-14T02:20	10	0	0.1	0	0	359	0.3	358	360	9.8	94.0
2025-10-14T02:21	10	0	0.1	0	0	359	0.2	358	359	9.8	94.1
2025-10-14T02:22	10	0	0.1	0	0	359	0.2	358	359	9.8	93.7
2025-10-14T02:23	10	0	0.1	0	0	359	0.2	359	359	9.8	94.0
2025-10-14T02:24	10	0	0.1	0	0	359	0.1	359	359	9.8	94.4
2025-10-14T02:25	10	0	0.1	0	0	359	0.2	358	360	9.8	94.5
2025-10-14T02:26	10	0	0.1	0	0	359	0.3	358	359	9.8	94.6
2025-10-14T02:27	10	0	0.1	0	0	359	0.2	358	359	9.8	94.7
2025-10-14T02:28	10	0	0.1	0	0	359	0.3	358	359	9.8	94.7
2025-10-14T02:29	10	0	0.1	0	0	359	0.2	358	359	9.8	94.9
2025-10-14T02:30	10	0	0.1	0	0	359	0.2	358	360	9.8	95.0
2025-10-14T02:31	10	0	0.1	0	0	359	0.2	358	359	9.8	95.1
2025-10-14T02:32	10	0	0.1	0	0	359	0.3	358	359	9.8	95.0
2025-10-14T02:33	10	0	0.1	0	0	359	0.2	358	359	9.8	94.8
2025-10-14T02:34	10	0	0.1	0	0	359	0.3	358	359	9.8	94.7
2025-10-14T02:35	10	0	0.1	0	0	359	0.2	359	359	9.8	94.6
2025-10-14T02:36	10	0	0.1	0	0	359	0.2	358	360	9.8	94.4
2025-10-14T02:37	10	0	0.1	0	0	359	0.2	358	360	9.8	94.4
2025-10-14T02:38	10	0	0.1	0	0	359	0.2	359	359	9.8	94.1
2025-10-14T02:39	10	0	0.1	0	0	359	0.2	358	360	9.8	94.0
2025-10-14T02:40	10	0	0.1	0	0	359	0.3	359	360	9.8	94.3
2025-10-14T02:41	10	0	0.1	0	0	359	0.3	359	360	9.8	94.3
2025-10-14T02:42	10	0	0.1	0	0	359	0.2	359	359	9.8	94.4
2025-10-14T02:43	10	0	0.1	0	0	359	0.2	358	359	9.8	94.5
2025-10-14T02:44	10	0	0.1	0	0	359	0.2	359	359	9.8	94.5
2025-10-14T02:45	10	0	0.1	0	0	359	0.2	358	359	9.8	94.8
2025-10-14T02:46	10	0	0.1	0	0	359	0.2	358	359	9.7	95.4
2025-10-14T02:47	10	0	0.1	0	0	359	0.2	358	359	9.7	95.7
2025-10-14T02:48	10	0	0.1	0	0	359	0.2	358	359	9.7	95.6
2025-10-14T02:49	10	0	0.1	0	0	359	0.2	358	359	9.7	95.6
2025-10-14T02:50	10	0	0.1	0	0	359	0.2	358	359	9.7	95.8
2025-10-14T02:51	10	0	0.1	0	0	359	0.2	358	359	9.6	95.8
2025-10-14T02:52	10	0	0.1	0	0	359	0.2	358	359	9.6	95.8
2025-10-14T02:53	10	0	0.1	0	0	359	0.3	358	359	9.6	95.9
2025-10-14T02:54	10	0	0.1	0	0	358	0.2	358	359	9.6	95.9
2025-10-14T02:55	10	0	0.1	0	0	358	0.2	358	359	9.7	95.8
2025-10-14T02:56	10	0	0.1	0	0	358	0.2	358	359	9.7	95.7
2025-10-14T02:57	10	0	0.1	0	0	358	0.3	358	359	9.7	95.6
2025-10-14T02:58	10	0	0.1	0	0	358	0.2	358	359	9.7	95.6
2025-10-14T02:59	10	0	0.1	0	0	358	0.2	358	359	9.7	95.4
2025-10-14T03:00	10	0	0.1	0	0	358	0.2	358	359	9.7	95.3
2025-10-14T03:01	10	0	0.1	0	0	358	0.2	358	359	9.6	95.4
2025-10-14T03:02	10	0	0.1	0	0	358	0.2	358	359	9.6	95.1
2025-10-14T03:03	10	0	0.1	0	0	358	0.2	358	359	9.6	95.2
2025-10-14T03:04	10	0	0.1	0	0	358	0.2	357	359	9.6	95.9
2025-10-14T03:05	10	0	0.1	0	0	358	0.2	358	359	9.6	96.2
2025-10-14T03:06	10	0	0.1	0	0	358	0.3	358	359	9.6	95.9
2025-10-14T03:07	10	0	0.1	0	0	358	0.3	358	359	9.6	95.6
2025-10-14T03:08	10	0	0.1	0	0	358	0.2	358	359	9.6	95.1
2025-10-14T03:09	10	0	0.1	0	0	358	0.2	358	359	9.7	94.6
2025-10-14T03:10	10	0	0.1	0	0	358	0.2	358	359	9.7	94.7
2025-10-14T03:11	10	0	0.1	0	0	358	0.2	358	359	9.7	94.9
2025-10-14T03:12	10	0	0.1	0	0	358	0.2	358	359	9.7	94.8
2025-10-14T03:13	10	0	0.1	0	0	358	0.3	358	359	9.7	95.1
2025-10-14T03:14	10	0	0.1	0	0	358	0.2	358	359	9.7	95.3
2025-10-14T03:15	10	0	0.1	0	0	358	0.2	358	359	9.7	95.6
2025-10-14T03:16	10	0	0.1	0	0	358	0.3	358	359	9.7	95.8
2025-10-14T03:17	10	0	0.1	0	0	358	0.2	358	359	9.6	95.4
2025-10-14T03:18	10	0	0.1	0	0	358	0.3	358	359	9.6	95.7
2025-10-14T03:19	10	0	0.1	0	0	358	0.2	358	359	9.6	95.9
2025-10-14T03:20	10	0	0.1	0	0	358	0.2	358	359	9.6	95.9
2025-10-14T03:21	10	0	0.1	0	0	358	0.2	358	359	9.6	95.9
2025-10-14T03:22	10	0	0.1	0	0	358	0.2	357	358	9.6	96.1
2025-10-14T03:23	10	0	0.1	0	0	358	0.2	358	358	9.6	96.3
2025-10-14T03:24	10	0	0.1	0	0	358	0.2	358	359	9.6	96.3
2025-10-14T03:25	10	0	0.1	0	0	358	0.2	357	358	9.6	96.1
2025-10-14T03:26	10	0	0.1	0	0	358	0.2	358	358	9.6	96.0
2025-10-14T03:27	10	0	0.1	0	0	358	0.2	358	359	9.6	96.0
2025-10-14T03:28	10	0	0.1	0	0	358	0.2	358	359	9.6	96.0
2025-10-14T03:29	10	0	0.1	0	0	358	0.2	358	359	9.6	95.6
2025-10-14T03:30	10	0	0.1	0	0	358	0.3	357	359	9.6	95.7
2025-10-14T03:31	10	0	0.1	0	0	358	0.3	357	358	9.6	95.3
2025-10-14T03:32	10	0	0.1	0	0	358	0.2	357	359	9.6	95.9
2025-10-14T03:33	10	0	0.1	0	0	358	0.3	357	359	9.6	96.5
2025-10-14T03:34	10	0	0.1	0	1	358	0.2	358	359	9.6	96.4
2025-10-14T03:35	10	0	0.1	0	0	358	0.2	357	358	9.6	95.9
2025-10-14T03:36	10	0	0.1	0	0	358	0.2	357	358	9.6	95.8
2025-10-14T03:37	10	0	0.1	0	0	358	0.2	357	358	9.6	95.8
2025-10-14T03:38	10	0	0.1	0	0	358	0.2	357	358	9.6	95.4
2025-10-14T03:39	10	0	0.1	0	0	358	0.2	357	358	9.6	95.6
2025-10-14T03:40	10	0	0.1	0	0	358	0.3	357	358	9.6	95.5
2025-10-14T03:41	10	0	0.1	0	0	358	0.3	357	358	9.6	95.7
2025-10-14T03:42	10	0	0.1	0	0	358	0.2	357	358	9.6	95.8
2025-10-14T03:43	10	0	0.1	0	0	358	0.2	357	358	9.6	95.9
2025-10-14T03:44	10	0	0.1	0	0	358	0.2	357	358	9.6	96.0
2025-10-14T03:45	10	0	0.1	0	0	358	0.2	357	358	9.6	96.0
2025-10-14T03:46	10	0	0.1	0	0	358	0.2	357	358	9.6	96.1
2025-10-14T03:47	10	0	0.1	0	0	358	0.2	357	358	9.6	96.0
2025-10-14T03:48	10	0	0.1	0	0	358	0.2	357	358	9.6	96.0
2025-10-14T03:49	10	0	0.1	0	0	358	0.2	357	358	9.6	95.9
2025-10-14T03:50	10	0	0.1	0	0	358	0.2	357	358	9.6	95.6
2025-10-14T03:51	10	0	0.1	0	0	358	0.2	357	358	9.6	95.4
2025-10-14T03:52	10	0	0.1	0	0	358	0.2	357	358	9.6	95.4
2025-10-14T03:53	10	0	0.1	0	0	358	0.2	357	358	9.6	95.2
2025-10-14T03:54	10	0	0.1	0	0	358	0.3	357	358	9.6	95.1
2025-10-14T03:55	10	0	0.1	0	0	358	0.3	357	359	9.6	95.1
2025-10-14T03:56	10	0	0.1	0	0	358	0.2	357	358	9.6	95.2
2025-10-14T03:57	10	0	0.1	0	0	358	0.2	357	358	9.6	95.2
2025-10-14T03:58	10	0	0.1	0	0	358	0.2	357	358	9.6	94.9
2025-10-14T03:59	10	0	0.1	0	0	358	0.2	357	358	9.6	94.7
2025-10-14T04:00	10	0	0.1	0	0	358	0.2	357	358	9.6	94.7
2025-10-14T04:01	10	0	0.1	0	0	358	0.2	358	358	9.6	94.5
2025-10-14T04:02	10	0	0.1	0	0	358	0.2	357	358	9.6	94.4
2025-10-14T04:03	10	0	0.1	0	0	358	0.2	357	358	9.6	94.5
2025-10-14T04:04	10	0	0.1	0	0	358	0.2	357	358	9.6	94.6
2025-10-14T04:05	10	0	0.1	0	0	358	0.2	357	359	9.6	94.7
2025-10-14T04:06	10	0	0.1	0	0	358	0.2	357	358	9.6	94.8
2025-10-14T04:07	10	0	0.1	0	0	358	0.3	357	359	9.6	94.7
2025-10-14T04:08	10	0	0.1	0	0	358	0.2	357	358	9.6	94.8
2025-10-14T04:09	10	0	0.1	0	0	358	0.2	358	359	9.6	95.1
2025-10-14T04:10	10	0	0.1	0	0	358	0.2	357	359	9.6	94.8
2025-10-14T04:11	10	0	0.1	0	0	358	0.2	357	359	9.6	94.4
2025-10-14T04:12	10	0	0.1	0	0	358	0.2	358	358	9.6	94.2
2025-10-14T04:13	10	0	0.1	0	0	358	0.2	358	359	9.6	93.9
2025-10-14T04:14	10	0	0.1	0	0	358	0.2	358	358	9.6	94.2
2025-10-14T04:15	10	0	0.1	0	0	358	0.2	357	359	9.6	94.5
2025-10-14T04:16	10	0	0.1	0	0	358	0.2	357	358	9.6	94.9
2025-10-14T04:17	10	0	0.1	0	0	358	0.2	357	358	9.6	95.1
2025-10-14T04:18	10	0	0.1	0	0	358	0.3	357	358	9.6	95.7
2025-10-14T04:19	10	0	0.1	0	0	358	0.2	358	358	9.6	95.4
2025-10-14T04:20	10	0	0.1	0	0	358	0.2	357	358	9.6	95.3
2025-10-14T04:21	10	0	0.1	0	0	358	0.2	357	358	9.6	95.6
2025-10-14T04:22	10	0	0.1	0	0	358	0.3	357	358	9.5	95.7
2025-10-14T04:23	10	0	0.1	0	0	358	0.3	357	358	9.5	95.8
2025-10-14T04:24	10	0	0.1	0	0	358	0.2	357	358	9.5	96.1
2025-10-14T04:25	10	0	0.1	0	0	358	0.2	357	358	9.5	96.3
2025-10-14T04:26	10	0	0.1	0	0	358	0.2	357	358	9.5	96.3
2025-10-14T04:27	10	0	0.1	0	0	358	0.2	357	358	9.5	96.3
2025-10-14T04:28	10	0	0.1	0	0	358	0.2	357	358	9.5	96.1
2025-10-14T04:29	10	0	0.1	0	0	358	0.2	357	358	9.5	95.9
2025-10-14T04:30	10	0	0.1	0	0	358	0.2	357	358	9.5	96.0
2025-10-14T04:31	10	0	0.1	0	0	358	0.2	357	358	9.5	96.1
2025-10-14T04:32	10	0	0.1	0	0	358	0.2	357	358	9.5	96.2
2025-10-14T04:33	10	0	0.1	0	0	358	0.3	357	358	9.5	96.3
2025-10-14T04:34	10	0	0.1	0	0	358	0.2	357	359	9.5	96.1
2025-10-14T04:35	10	0	0.1	0	0	358	0.3	357	358	9.5	96.1
2025-10-14T04:36	10	0	0.1	0	0	358	0.2	357	358	9.5	96.2
2025-10-14T04:37	10	0	0.1	0	0	358	0.3	357	358	9.5	96.3
2025-10-14T04:38	10	0	0.1	0	0	358	0.2	357	358	9.5	96.4
2025-10-14T04:39	10	0	0.1	0	0	358	0.2	357	358	9.5	96.4
2025-10-14T04:40	10	0	0.1	0	1	358	0.3	357	358	9.5	96.1
2025-10-14T04:41	10	0	0.1	0	0	358	0.2	357	358	9.5	95.8
2025-10-14T04:42	10	0	0.1	0	0	358	0.2	357	358	9.5	95.8
2025-10-14T04:43	10	0	0.1	0	0	358	0.2	357	358	9.5	95.8
2025-10-14T04:44	10	0	0.1	0	1	358	0.2	357	358	9.5	95.5
2025-10-14T04:45	10	0	0.1	0	0	358	0.2	357	358	9.5	95.4
2025-10-14T04:46	10	0	0.1	0	0	358	0.2	357	358	9.6	95.4
2025-10-14T04:47	10	0	0.1	0	0	357	0.2	357	358	9.6	95.5
2025-10-14T04:48	10	0	0.1	0	0	358	0.3	357	358	9.6	95.8
2025-10-14T04:49	10	0	0.1	0	0	358	0.2	357	358	9.6	96.0
2025-10-14T04:50	10	0	0.1	0	0	357	0.2	357	358	9.6	95.8
2025-10-14T04:51	10	0	0.1	0	0	357	0.2	357	358	9.6	95.8
2025-10-14T04:52	10	0	0.1	0	0	357	0.2	357	358	9.6	95.5
2025-10-14T04:53	10	0	0.1	0	0	357	0.2	357	358	9.6	95.2
2025-10-14T04:54	10	0	0.1	0	0	357	0.2	357	358	9.6	95.2
2025-10-14T04:55	10	0	0.1	0	0	358	0.2	357	358	9.6	95.0
2025-10-14T04:56	10	0	0.1	0	0	357	0.2	357	358	9.6	94.8
2025-10-14T04:57	10	0	0.1	0	0	357	0.2	357	358	9.6	95.3
2025-10-14T04:58	10	0	0.1	0	0	357	0.2	357	358	9.6	95.5
2025-10-14T04:59	10	0	0.1	0	0	357	0.2	357	358	9.5	95.7
2025-10-14T05:00	10	0	0.1	0	0	357	0.3	357	358	9.5	95.6
2025-10-14T05:01	10	0	0.1	0	0	357	0.2	357	358	9.5	95.3
2025-10-14T05:02	10	0	0.1	0	0	357	0.2	357	358	9.5	95.2
2025-10-14T05:03	10	0	0.1	0	0	357	0.2	356	358	9.5	95.3
2025-10-14T05:04	10	0	0.1	0	0	357	0.2	357	358	9.5	95.3
2025-10-14T05:05	10	0	0.1	0	0	357	0.2	357	358	9.5	95.3
2025-10-14T05:06	10	0	0.1	0	0	357	0.2	357	358	9.5	95.3
2025-10-14T05:07	10	0	0.1	0	0	357	0.3	357	358	9.5	95.2
2025-10-14T05:08	10	0	0.1	0	0	357	0.2	357	358	9.5	95.4
2025-10-14T05:09	10	0	0.1	0	0	358	0.2	357	358	9.5	95.5
2025-10-14T05:10	10	0	0.1	0	0	358	0.2	357	358	9.5	95.4
2025-10-14T05:11	10	0	0.1	0	0	358	0.2	357	358	9.5	95.5
2025-10-14T05:12	10	0	0.1	0	0	357	0.3	357	358	9.5	95.7
2025-10-14T05:13	10	0	0.1	0	0	358	0.3	357	358	9.5	95.8
2025-10-14T05:14	10	0	0.1	0	0	357	0.2	357	358	9.5	95.8
2025-10-14T05:15	10	0	0.1	0	0	357	0.2	357	358	9.5	95.7
2025-10-14T05:16	10	0	0.1	0	0	358	0.3	357	358	9.5	95.6
2025-10-14T05:17	10	0	0.1	0	0	358	0.3	357	358	9.5	95.6
2025-10-14T05:18	10	0	0.1	0	0	357	0.2	357	358	9.5	95.7
2025-10-14T05:19	10	0	0.1	0	0	357	0.2	357	358	9.5	96.1
2025-10-14T05:20	10	0	0.1	0	0	357	0.2	357	358	9.5	95.9
2025-10-14T05:21	10	0	0.1	0	0	357	0.2	357	358	9.5	96.1
2025-10-14T05:22	10	0	0.1	0	0	357	0.3	357	358	9.5	96.3
2025-10-14T05:23	10	0	0.1	0	0	357	0.2	357	358	9.5	96.3
2025-10-14T05:24	10	0	0.1	0	0	357	0.2	357	358	9.5	96.5
2025-10-14T05:25	10	0	0.1	0	0	357	0.2	357	358	9.5	96.4
2025-10-14T05:26	10	0	0.1	0	0	357	0.2	357	358	9.5	96.5
2025-10-14T05:27	10	0	0.1	0	0	357	0.2	357	358	9.4	96.5
2025-10-14T05:28	10	0	0.1	0	0	357	0.2	357	358	9.4	96.6
2025-10-14T05:29	10	0	0.1	0	0	357	0.2	357	358	9.4	96.7
2025-10-14T05:30	10	0	0.1	0	0	357	0.2	357	358	9.4	96.7
2025-10-14T05:31	10	0	0.1	0	0	357	0.3	357	358	9.4	96.8
2025-10-14T05:32	10	0	0.1	0	0	357	0.2	357	358	9.4	96.9
2025-10-14T05:33	10	0	0.1	0	1	357	0.2	357	358	9.4	96.9
2025-10-14T05:34	10	0	0.1	0	0	357	0.2	357	358	9.4	96.8
2025-10-14T05:35	10	0	0.1	0	0	357	0.2	357	358	9.4	96.8
2025-10-14T05:36	10	0	0.1	0	1	357	0.2	357	358	9.4	96.8
2025-10-14T05:37	10	0	0.1	0	1	357	0.2	357	358	9.4	96.8
2025-10-14T05:38	10	0	0.1	0	0	357	0.3	357	358	9.4	96.9
2025-10-14T05:39	10	0	0.1	0	0	357	0.2	357	358	9.4	96.8
2025-10-14T05:40	10	0	0.1	0	1	358	0.2	357	358	9.4	96.8
2025-10-14T05:41	10	0	0.1	0	0	357	0.2	357	358	9.4	96.7
2025-10-14T05:42	10	0	0.1	0	1	358	0.3	357	358	9.4	96.7
2025-10-14T05:43	10	0	0.1	0	1	357	0.2	357	358	9.4	96.6
2025-10-14T05:44	10	0	0.1	0	1	358	0.2	357	358	9.4	96.5
2025-10-14T05:45	10	0	0.1	0	1	358	0.2	357	358	9.4	96.5
2025-10-14T05:46	10	0	0.1	0	1	358	0.2	357	358	9.4	96.4
2025-10-14T05:47	10	0	0.1	0	1	358	0.2	357	358	9.4	96.6
2025-10-14T05:48	10	0	0.1	0	1	358	0.2	357	358	9.4	96.5
2025-10-14T05:49	10	0	0.1	0	1	358	0.2	357	358	9.4	96.5
2025-10-14T05:50	10	0	0.1	0	1	358	0.2	357	358	9.4	96.4
2025-10-14T05:51	10	0	0.1	0	1	358	0.2	357	358	9.5	96.3
2025-10-14T05:52	10	0	0.1	0	1	358	0.3	357	358	9.5	96.7
2025-10-14T05:53	10	1	0.1	0	1	358	0.2	357	358	9.5	96.8
2025-10-14T05:54	10	1	0.1	0	1	358	0.3	357	358	9.5	96.6
2025-10-14T05:55	10	1	0.1	0	1	358	0.2	358	358	9.5	96.9
2025-10-14T05:56	10	1	0.1	0	1	358	0.3	357	359	9.5	96.6
2025-10-14T05:57	10	1	0.1	1	1	358	0.3	357	359	9.5	96.3
2025-10-14T05:58	10	1	0.1	1	1	358	0.2	358	359	9.5	96.0
2025-10-14T05:59	10	1	0.1	1	1	358	0.2	358	359	9.5	96.1
2025-10-14T06:00	10	1	0.1	1	1	358	0.2	358	359	9.5	96.5
2025-10-14T06:01	10	1	0.1	1	1	358	0.2	358	359	9.5	96.4
2025-10-14T06:02	10	1	0.1	1	1	358	0.2	358	359	9.5	96.4
2025-10-14T06:03	10	1	0.1	1	1	359	0.3	358	359	9.5	96.3
2025-10-14T06:04	10	1	0.1	1	1	358	0.2	358	359	9.5	96.1
2025-10-14T06:05	10	1	0.1	1	1	358	0.2	358	359	9.5	96.2
2025-10-14T06:06	10	1	0.1	1	2	359	0.2	358	359	9.5	96.4
2025-10-14T06:07	10	1	0.1	1	2	359	0.2	358	359	9.5	95.9
2025-10-14T06:08	10	2	0.1	1	2	359	0.2	358	359	9.5	95.9
2025-10-14T06:09	10	2	0.1	1	2	359	0.2	358	359	9.5	95.5
2025-10-14T06:10	10	2	0.1	2	2	359	0.2	358	359	9.5	95.5
2025-10-14T06:11	10	2	0.1	2	2	359	0.2	358	359	9.5	95.7
2025-10-14T06:12	10	2	0.1	2	2	359	0.2	358	359	9.6	95.5
2025-10-14T06:13	10	2	0.1	2	2	359	0.2	359	360	9.6	95.3
2025-10-14T06:14	10	2	0.1	2	3	359	0.2	359	360	9.6	95.1
2025-10-14T06:15	10	3	0.1	2	3	359	0.2	359	360	9.6	94.7
2025-10-14T06:16	10	3	0.1	2	3	359	0.3	358	360	9.6	95.2
2025-10-14T06:17	10	3	0.1	3	3	359	0.2	359	360	9.6	95.1
2025-10-14T06:18	10	3	0.1	3	3	360	0.2	359	360	9.6	95.2
2025-10-14T06:19	10	3	0.1	3	3	360	0.2	359	360	9.6	95.1
2025-10-14T06:20	10	3	0.1	3	3	360	0.2	359	360	9.6	95.2
2025-10-14T06:21	10	3	0.1	3	4	360	0.2	359	360	9.6	95.1
2025-10-14T06:22	10	3	0.1	3	4	360	0.2	359	360	9.6	95.2
2025-10-14T06:23	10	3	0.1	3	4	360	0.2	359	360	9.7	95.0
2025-10-14T06:24	10	4	0.1	3	4	360	0.2	360	361	9.7	95.0
2025-10-14T06:25	10	4	0.1	4	4	360	0.2	360	361	9.7	95.0
2025-10-14T06:26	10	4	0.1	4	4	360	0.2	360	361	9.7	94.6
2025-10-14T06:27	10	4	0.1	4	4	360	0.2	360	361	9.7	95.0
2025-10-14T06:28	10	4	0.1	4	4	360	0.2	360	361	9.7	94.9
2025-10-14T06:29	10	4	0.1	4	4	360	0.2	360	361	9.7	94.4
2025-10-14T06:30	10	4	0.1	4	5	360	0.2	359	361	9.7	94.3
2025-10-14T06:31	10	4	0.1	4	5	360	0.2	360	361	9.8	93.6
2025-10-14T06:32	10	5	0.1	4	5	360	0.3	360	361	9.8	93.2
2025-10-14T06:33	10	5	0.1	4	5	361	0.3	360	361	9.8	93.3
2025-10-14T06:34	10	5	0.1	5	5	360	0.2	360	361	9.8	93.6
2025-10-14T06:35	10	5	0.1	5	5	361	0.2	360	361	9.8	94.2
2025-10-14T06:36	10	5	0.1	5	5	361	0.2	361	361	9.8	94.5
2025-10-14T06:37	10	5	0.1	5	5	361	0.2	361	361	9.8	94.2
2025-10-14T06:38	10	6	0.1	5	6	361	0.2	361	361	9.8	94.3
2025-10-14T06:39	10	6	0.1	5	6	361	0.2	361	362	9.8	94.4
2025-10-14T06:40	10	6	0.1	6	6	361	0.3	361	362	9.8	94.6
2025-10-14T06:41	10	6	0.1	6	6	361	0.2	361	362	9.8	93.7
2025-10-14T06:42	10	6	0.1	6	6	361	0.3	361	362	9.8	93.7
2025-10-14T06:43	10	6	0.1	6	6	362	0.3	361	362	9.8	93.9
2025-10-14T06:44	10	6	0.1	6	6	361	0.3	361	362	9.8	93.2
2025-10-14T06:45	10	6	0.1	6	7	361	0.2	361	362	9.8	92.7
2025-10-14T06:46	10	7	0.1	6	7	362	0.2	361	362	9.8	92.4
2025-10-14T06:47	10	7	0.1	7	7	362	0.3	361	362	9.8	92.4
2025-10-14T06:48	10	7	0.1	7	7	362	0.2	361	362	9.8	92.5
2025-10-14T06:49	10	7	0.1	7	7	362	0.2	361	362	9.8	92.7
2025-10-14T06:50	10	7	0.1	7	7	362	0.2	361	362	9.8	93.0
2025-10-14T06:51	10	7	0.1	7	8	362	0.2	361	363	9.9	93.1
2025-10-14T06:52	10	8	0.1	7	8	362	0.2	362	363	9.9	93.3
2025-10-14T06:53	10	8	0.1	8	8	362	0.3	361	363	9.9	92.7
2025-10-14T06:54	10	8	0.1	8	8	362	0.2	362	363	9.9	92.8
2025-10-14T06:55	10	8	0.1	8	8	362	0.2	362	363	9.9	92.7
2025-10-14T06:56	10	8	0.1	8	9	362	0.2	362	362	9.9	93.0
2025-10-14T06:57	10	9	0.1	8	9	362	0.2	362	363	9.8	92.5
2025-10-14T06:58	10	9	0.2	8	9	362	0.2	362	362	9.8	92.4
2025-10-14T06:59	10	9	0.1	9	9	362	0.2	362	363	9.8	92.8
2025-10-14T07:00	10	9	0.1	9	10	363	0.2	362	363	9.9	92.8
2025-10-14T07:01	10	9	0.1	9	10	363	0.2	362	363	9.9	92.8
2025-10-14T07:02	10	10	0.1	9	10	363	0.3	362	363	9.9	92.6
2025-10-14T07:03	10	10	0.1	9	10	363	0.2	362	363	9.9	92.3
2025-10-14T07:04	10	10	0.1	9	10	363	0.2	362	363	9.9	92.4
2025-10-14T07:05	10	10	0.1	10	10	363	0.2	362	363	9.9	92.4
2025-10-14T07:06	10	10	0.1	10	10	363	0.2	362	363	9.9	92.5
2025-10-14T07:07	10	10	0.1	10	10	363	0.2	363	364	9.9	92.4
2025-10-14T07:08	10	10	0.1	10	10	363	0.2	363	364	9.9	90.6
2025-10-14T07:09	10	10	0.1	10	10	363	0.2	363	364	9.9	89.4
2025-10-14T07:10	10	10	0.1	10	11	363	0.2	363	364	9.9	92.2
2025-10-14T07:11	10	11	0.1	10	11	363	0.2	363	364	9.9	90.7
2025-10-14T07:12	10	11	0.1	11	11	364	0.2	363	364	9.9	92.2
2025-10-14T07:13	10	11	0.1	11	11	364	0.2	363	364	9.9	92.2
2025-10-14T07:14	10	11	0.1	11	11	364	0.3	363	365	9.9	92.2
2025-10-14T07:15	10	11	0.1	11	12	364	0.2	364	365	9.9	92.1
2025-10-14T07:16	10	12	0.1	11	12	365	0.3	364	365	10.0	91.4
2025-10-14T07:17	10	12	0.1	12	12	365	0.3	364	365	10.0	91.2
2025-10-14T07:18	10	12	0.1	12	12	365	0.2	364	365	10.0	90.7
2025-10-14T07:19	10	12	0.1	12	12	365	0.2	364	365	10.0	91.5
2025-10-14T07:20	10	12	0.1	12	13	365	0.3	364	365	10.0	91.8
2025-10-14T07:21	10	13	0.1	12	13	365	0.3	364	366	10.0	92.0
2025-10-14T07:22	10	13	0.1	13	13	365	0.2	364	365	10.1	91.7
2025-10-14T07:23	10	13	0.1	13	13	365	0.2	364	365	10.1	91.7
2025-10-14T07:24	10	13	0.1	13	14	365	0.3	364	365	10.1	91.9
2025-10-14T07:25	10	14	0.1	14	14	365	0.2	365	365	10.1	91.4
2025-10-14T07:26	10	14	0.1	14	14	365	0.2	365	366	10.1	91.5
2025-10-14T07:27	10	14	0.1	14	15	366	0.3	365	366	10.1	91.1
2025-10-14T07:28	10	14	0.1	14	15	366	0.2	365	366	10.1	91.7
2025-10-14T07:29	10	15	0.1	14	15	366	0.3	365	366	10.1	91.0
2025-10-14T07:30	10	15	0.1	15	15	365	0.3	365	366	10.1	90.1
2025-10-14T07:31	10	15	0.2	15	15	365	0.3	365	366	10.1	90.5
2025-10-14T07:32	10	15	0.1	15	16	366	0.2	365	366	10.2	91.1
2025-10-14T07:33	10	16	0.1	15	16	366	0.3	365	367	10.2	91.0
2025-10-14T07:34	10	16	0.1	16	16	366	0.3	365	367	10.2	90.8
2025-10-14T07:35	10	16	0.1	16	16	367	0.2	366	367	10.2	91.1
2025-10-14T07:36	10	16	0.1	16	17	367	0.2	366	367	10.2	90.9
2025-10-14T07:37	10	17	0.1	16	17	367	0.2	366	367	10.2	90.3
2025-10-14T07:38	10	17	0.1	16	17	367	0.2	366	367	10.2	90.4
2025-10-14T07:39	10	17	0.1	17	17	367	0.2	367	368	10.3	90.9
2025-10-14T07:40	10	17	0.2	17	18	367	0.3	366	368	10.3	90.9
2025-10-14T07:41	10	18	0.2	17	18	367	0.3	367	368	10.3	90.6
2025-10-14T07:42	10	18	0.2	18	19	367	0.2	367	368	10.3	89.9
2025-10-14T07:43	10	19	0.2	18	19	368	0.2	367	368	10.3	90.2
2025-10-14T07:44	10	19	0.1	19	19	368	0.2	367	368	10.3	90.5
2025-10-14T07:45	10	19	0.1	19	20	368	0.2	368	369	10.3	91.0
2025-10-14T07:46	10	20	0.1	19	20	368	0.2	368	369	10.4	90.4
2025-10-14T07:47	10	20	0.1	20	20	368	0.2	368	369	10.3	89.8
2025-10-14T07:48	10	20	0.1	20	21	368	0.2	368	368	10.3	89.1
2025-10-14T07:49	10	21	0.1	20	21	368	0.2	368	369	10.4	89.2
2025-10-14T07:50	10	21	0.1	21	21	369	0.2	368	369	10.4	89.0
2025-10-14T07:51	10	21	0.1	21	21	369	0.3	368	369	10.4	89.0
2025-10-14T07:52	10	21	0.1	21	22	368	0.3	367	369	10.3	88.9
2025-10-14T07:53	10	22	0.1	21	22	368	0.2	368	369	10.3	89.1
2025-10-14T07:54	10	22	0.1	21	22	368	0.2	367	368	10.3	89.2
2025-10-14T07:55	10	22	0.1	21	22	368	0.2	367	369	10.3	89.2
2025-10-14T07:56	10	22	0.1	22	22	369	0.2	368	369	10.4	89.5
2025-10-14T07:57	10	22	0.1	22	22	369	0.2	369	370	10.4	89.1
2025-10-14T07:58	10	22	0.1	22	22	369	0.3	368	369	10.4	88.4
2025-10-14T07:59	10	22	0.1	22	23	369	0.2	368	369	10.4	88.6
2025-10-14T08:00	10	22	0.1	22	23	369	0.2	369	370	10.4	88.7
2025-10-14T08:01	10	22	0.1	22	23	369	0.3	369	370	10.4	88.4
2025-10-14T08:02	10	23	0.1	22	23	369	0.3	368	370	10.5	88.5
2025-10-14T08:03	10	23	0.1	23	23	370	0.2	369	370	10.5	88.7
2025-10-14T08:04	10	23	0.1	23	24	370	0.2	369	370	10.5	88.9
2025-10-14T08:05	10	24	0.1	24	24	370	0.2	370	370	10.5	88.9
2025-10-14T08:06	10	24	0.2	24	24	370	0.2	370	371	10.5	89.1
2025-10-14T08:07	10	25	0.2	24	25	370	0.2	370	371	10.5	88.8
2025-10-14T08:08	10	25	0.2	25	25	371	0.2	370	371	10.6	88.8
2025-10-14T08:09	10	26	0.2	25	26	370	0.3	370	371	10.6	88.3
2025-10-14T08:10	10	26	0.2	26	27	371	0.2	370	371	10.6	88.2
2025-10-14T08:11	10	27	0.2	27	27	370	0.2	370	371	10.6	88.4
2025-10-14T08:12	10	28	0.2	27	28	371	0.3	370	371	10.5	88.2
2025-10-14T08:13	10	28	0.2	28	29	371	0.2	370	371	10.5	87.3
2025-10-14T08:14	10	29	0.2	28	29	371	0.3	370	371	10.5	87.9
2025-10-14T08:15	10	29	0.1	29	29	371	0.3	370	371	10.6	88.1
2025-10-14T08:16	10	29	0.2	29	30	371	0.2	371	372	10.6	87.7
2025-10-14T08:17	10	30	0.2	30	30	371	0.2	371	372	10.6	87.2
2025-10-14T08:18	10	31	0.2	30	31	372	0.3	371	372	10.6	87.3
2025-10-14T08:19	10	31	0.2	31	32	372	0.3	371	373	10.7	87.5
2025-10-14T08:20	10	32	0.1	32	32	372	0.3	371	372	10.6	86.8
2025-10-14T08:21	10	33	0.3	32	33	372	0.2	371	372	10.6	86.9
2025-10-14T08:22	10	33	0.3	33	34	372	0.2	372	373	10.6	87.1
2025-10-14T08:23	10	35	0.3	34	35	372	0.3	372	373	10.6	87.3
2025-10-14T08:24	10	36	0.3	35	36	373	0.2	372	373	10.7	87.2
2025-10-14T08:25	10	37	0.3	36	37	373	0.3	372	374	10.7	86.6
2025-10-14T08:26	10	38	0.4	37	38	373	0.3	373	374	10.6	86.5
2025-10-14T08:27	10	39	0.4	39	40	373	0.3	372	373	10.6	86.3
2025-10-14T08:28	10	41	0.4	40	41	373	0.4	373	374	10.7	86.2
2025-10-14T08:29	10	42	0.3	41	42	374	0.4	373	375	10.8	86.2
2025-10-14T08:30	10	43	0.3	43	44	375	0.4	375	376	10.9	85.8
2025-10-14T08:31	10	45	0.9	44	47	376	0.2	375	376	10.9	85.3
2025-10-14T08:32	10	47	0.5	46	47	376	0.4	375	377	10.9	84.7
2025-10-14T08:33	10	46	0.3	46	47	376	0.2	376	377	10.9	84.7
2025-10-14T08:34	10	46	0.1	46	46	376	0.2	376	377	10.9	83.5
2025-10-14T08:35	10	46	0.1	46	46	376	0.3	376	377	11.0	84.1
2025-10-14T08:36	10	46	0.4	46	47	377	0.3	376	377	11.1	84.5
2025-10-14T08:37	10	47	0.1	46	47	377	0.2	377	377	11.1	83.1
2025-10-14T08:38	10	47	0.1	47	47	377	0.2	376	377	11.0	82.8
2025-10-14T08:39	10	48	0.1	47	48	377	0.2	377	378	11.0	82.6
2025-10-14T08:40	10	48	0.2	48	49	377	0.3	377	378	11.1	82.5
2025-10-14T08:41	10	49	0.1	48	49	378	0.3	377	378	11.0	82.2
2025-10-14T08:42	10	49	0.1	48	49	378	0.2	377	378	11.0	82.5
2025-10-14T08:43	10	48	0.1	48	49	378	0.2	377	378	11.0	82.5
2025-10-14T08:44	10	48	0.1	48	49	378	0.2	377	378	10.9	82.7
2025-10-14T08:45	10	49	0.3	48	49	377	0.2	377	378	11.0	82.8
2025-10-14T08:46	10	50	0.4	49	50	378	0.2	377	378	11.0	82.7
2025-10-14T08:47	10	51	0.2	50	51	379	0.4	378	380	11.1	82.8
2025-10-14T08:48	10	51	0.1	51	52	380	0.4	379	381	11.3	83.1
2025-10-14T08:49	10	51	0.1	51	51	380	0.2	380	381	11.3	82.5
2025-10-14T08:50	10	51	0.1	51	51	381	0.2	380	381	11.4	82.4
2025-10-14T08:51	10	51	0.1	50	51	381	0.2	380	381	11.4	80.8
2025-10-14T08:52	10	50	0.1	50	51	380	0.4	379	381	11.3	80.3
2025-10-14T08:53	10	50	0.1	50	51	380	0.3	379	380	11.3	80.6
2025-10-14T08:54	10	50	0.1	50	51	379	0.8	378	381	11.3	79.7
2025-10-14T08:55	10	50	0.2	50	51	379	0.3	378	379	11.2	79.6
2025-10-14T08:56	10	50	0.2	49	50	379	0.2	378	379	11.2	79.9
2025-10-14T08:57	10	49	0.2	49	50	378	0.3	378	379	11.2	81.3
2025-10-14T08:58	10	48	0.3	48	49	379	0.3	378	380	11.2	82.4
2025-10-14T08:59	10	48	0.2	47	48	379	0.3	379	380	11.2	81.9
2025-10-14T09:00	10	47	0.2	47	48	380	0.4	379	381	11.4	82.4
2025-10-14T09:01	10	47	0.2	47	48	379	0.4	378	380	11.3	82.8
2025-10-14T09:02	10	48	0.2	47	48	379	0.4	378	380	11.3	83.9
2025-10-14T09:03	10	48	0.2	48	49	379	0.3	378	380	11.3	83.2
2025-10-14T09:04	10	49	0.2	49	49	380	0.4	379	380	11.3	83.2
2025-10-14T09:05	10	49	0.1	49	50	380	0.3	379	380	11.3	81.3
2025-10-14T09:06	10	49	0.3	48	49	380	0.3	379	380	11.3	81.9
2025-10-14T09:07	10	48	0.4	47	49	379	0.6	377	380	11.2	81.5
2025-10-14T09:08	10	47	0.3	46	47	378	0.5	377	379	11.1	81.9
2025-10-14T09:09	10	46	0.2	46	47	377	0.4	376	378	11.0	81.9
2025-10-14T09:10	10	46	0.3	45	46	377	0.4	376	378	11.0	81.9
2025-10-14T09:11	10	45	0.2	44	45	377	0.2	377	378	11.2	82.7
2025-10-14T09:12	10	44	0.2	44	45	377	0.3	376	378	11.2	82.3
2025-10-14T09:13	10	45	0.3	44	45	377	0.3	376	378	11.2	82.7
2025-10-14T09:14	10	46	0.2	45	46	377	0.2	376	377	11.1	81.7
2025-10-14T09:15	10	45	0.6	44	46	377	0.5	376	378	11.1	80.6
2025-10-14T09:16	10	44	0.2	44	45	376	0.2	376	377	11.1	79.4
2025-10-14T09:17	10	45	0.3	45	46	376	0.3	375	377	11.0	80.6
2025-10-14T09:18	10	46	0.3	46	47	376	0.3	375	376	11.1	81.6
2025-10-14T09:19	10	47	0.3	47	48	376	0.3	376	377	11.1	82.8
2025-10-14T09:20	10	48	0.2	48	48	376	0.3	376	377	11.0	82.6
2025-10-14T09:21	10	49	0.2	48	49	377	0.2	376	377	11.1	82.8
2025-10-14T09:22	10	49	0.2	49	50	377	0.2	377	378	11.2	82.6
2025-10-14T09:23	10	50	0.4	50	51	378	0.7	377	379	11.1	81.9
2025-10-14T09:24	10	51	0.3	51	52	379	0.3	379	380	11.3	82.3
2025-10-14T09:25	10	52	0.2	52	53	379	0.3	378	379	11.3	82.3
2025-10-14T09:26	10	53	0.1	52	53	379	0.3	378	379	11.2	82.1
2025-10-14T09:27	10	53	0.1	52	53	379	0.5	378	380	11.1	82.8
2025-10-14T09:28	10	52	0.3	51	53	380	0.4	379	381	11.2	83.7
2025-10-14T09:29	10	51	0.3	50	51	380	0.2	380	381	11.2	83.5
2025-10-14T09:30	10	50	0.1	50	51	380	0.2	379	380	11.2	83.6
2025-10-14T09:31	10	51	0.4	51	52	379	0.2	379	380	11.3	82.7
2025-10-14T09:32	10	53	0.5	52	54	380	0.3	379	381	11.4	81.9
2025-10-14T09:33	10	54	0.2	53	54	380	0.2	379	380	11.3	79.7
2025-10-14T09:34	10	54	0.2	54	54	380	0.2	379	380	11.2	78.9
2025-10-14T09:35	10	53	0.3	53	53	380	0.3	380	381	11.3	79.1
2025-10-14T09:36	10	52	0.4	51	53	381	0.6	380	382	11.3	80.5
2025-10-14T09:37	10	51	0.3	50	51	381	0.2	381	382	11.4	82.1
2025-10-14T09:38	10	50	0.2	50	50	380	0.4	379	381	11.4	82.4
2025-10-14T09:39	10	49	0.3	49	50	379	0.4	379	381	11.4	81.7
2025-10-14T09:40	10	48	0.3	48	49	380	0.4	379	380	11.4	81.3
2025-10-14T09:41	10	48	0.2	47	48	380	0.3	379	380	11.4	81.2
2025-10-14T09:42	10	47	0.2	47	47	380	0.4	379	380	11.4	81.9
2025-10-14T09:43	10	47	0.1	46	47	380	0.3	379	381	11.5	82.6
2025-10-14T09:44	10	47	0.1	46	47	379	0.6	378	381	11.5	82.7
2025-10-14T09:45	10	47	0.1	47	47	379	0.3	378	379	11.5	82.7
2025-10-14T09:46	10	47	0.1	47	47	378	0.4	378	379	11.4	82.3
2025-10-14T09:47	10	47	0.1	47	47	378	0.3	377	378	11.3	82.5
2025-10-14T09:48	10	47	0.1	47	47	379	0.5	378	380	11.4	82.8
2025-10-14T09:49	10	47	0.1	47	47	378	0.3	378	379	11.3	82.5
2025-10-14T09:50	10	47	0.2	47	47	379	0.6	378	381	11.3	83.1
2025-10-14T09:51	10	48	0.2	47	48	379	0.4	378	380	11.3	82.2
2025-10-14T09:52	10	48	0.1	48	48	380	0.6	379	381	11.4	82.9
2025-10-14T09:53	10	48	0.1	48	48	380	0.4	379	381	11.4	82.6
2025-10-14T09:54	10	48	0.2	48	48	379	0.2	378	379	11.3	82.5
2025-10-14T09:55	10	48	0.1	47	48	380	0.6	379	381	11.4	83.1
2025-10-14T09:56	10	47	0.1	47	47	380	0.5	379	381	11.4	82.6
2025-10-14T09:57	10	47	0.1	47	47	379	0.2	378	379	11.4	82.4
2025-10-14T09:58	10	47	0.1	47	47	379	0.2	378	379	11.5	82.3
2025-10-14T09:59	10	47	0.1	47	47	379	0.5	378	380	11.5	82.1
2025-10-14T10:00	10	47	0.1	47	47	380	0.3	379	380	11.6	82.0
2025-10-14T10:01	10	47	0.1	47	47	379	0.3	379	380	11.6	81.1
2025-10-14T10:02	10	47	0.1	47	47	379	0.3	378	379	11.5	80.9
2025-10-14T10:03	10	47	0.1	46	47	379	0.2	379	379	11.4	80.6
2025-10-14T10:04	10	46	0.1	46	47	379	0.4	379	380	11.4	80.6
2025-10-14T10:05	10	46	0.1	46	47	380	0.3	379	380	11.4	81.0
2025-10-14T10:06	10	47	0.1	46	47	379	0.4	379	380	11.4	81.1
2025-10-14T10:07	10	46	0.1	46	46	379	0.3	379	380	11.6	81.5
2025-10-14T10:08	10	46	0.3	45	46	379	0.2	379	380	11.5	80.5
2025-10-14T10:09	10	45	0.2	44	45	379	0.4	378	379	11.6	81.0
2025-10-14T10:10	10	44	0.1	44	45	379	0.3	378	379	11.4	80.9
2025-10-14T10:11	10	44	0.1	44	44	379	0.4	378	380	11.4	81.3
2025-10-14T10:12	10	44	0.1	44	44	380	0.3	379	380	11.6	81.7
2025-10-14T10:13	10	43	0.2	43	44	380	0.3	380	381	11.7	81.9
2025-10-14T10:14	10	43	0.2	42	43	380	0.6	379	381	11.6	81.3
2025-10-14T10:15	10	42	0.1	42	42	379	0.3	379	380	11.6	81.8
2025-10-14T10:16	10	42	0.1	42	42	380	0.4	379	381	11.6	81.7
2025-10-14T10:17	10	42	0.1	42	42	381	0.2	380	381	11.8	81.9
2025-10-14T10:18	10	42	0.1	41	42	379	0.9	378	381	11.6	80.2
2025-10-14T10:19	10	42	0.1	41	42	378	0.3	377	379	11.5	80.4
2025-10-14T10:20	10	42	0.1	41	42	379	0.3	378	380	11.7	81.0
2025-10-14T10:21	10	42	0.1	42	42	378	0.5	377	379	11.6	80.9
2025-10-14T10:22	10	42	0.1	42	42	378	0.3	377	379	11.5	81.3
2025-10-14T10:23	10	42	0.1	42	42	379	0.2	378	379	11.5	81.1
2025-10-14T10:24	10	42	0.1	42	42	379	0.3	378	379	11.5	80.9
2025-10-14T10:25	10	42	0.1	42	42	379	0.3	378	379	11.6	80.7
2025-10-14T10:26	10	42	0.2	41	42	378	0.3	378	379	11.6	80.9
2025-10-14T10:27	10	41	0.2	41	41	378	0.3	378	379	11.6	81.0
2025-10-14T10:28	10	40	0.2	40	41	378	0.2	377	378	11.5	80.7
2025-10-14T10:29	10	40	0.2	39	40	378	0.3	378	379	11.6	81.4
2025-10-14T10:30	10	39	0.2	39	39	379	0.5	379	380	11.6	81.6
2025-10-14T10:31	10	39	0.1	38	39	380	0.3	379	380	11.8	81.8
2025-10-14T10:32	10	39	0.2	38	39	379	0.3	378	380	11.7	80.8
2025-10-14T10:33	10	39	0.3	39	40	379	0.2	379	380	11.7	81.4
2025-10-14T10:34	10	40	0.2	40	41	379	0.3	378	379	11.7	81.0
2025-10-14T10:35	10	41	0.2	40	42	379	0.3	379	380	11.7	81.5
2025-10-14T10:36	10	42	0.3	41	42	380	0.3	379	380	11.7	81.0
2025-10-14T10:37	10	43	0.2	42	43	379	0.3	379	380	11.7	79.6
2025-10-14T10:38	10	43	0.1	43	44	379	0.4	379	380	11.6	79.8
2025-10-14T10:39	10	44	0.3	43	44	381	0.4	380	381	11.7	80.9
2025-10-14T10:40	10	45	0.2	44	45	381	0.2	381	382	11.8	80.9
2025-10-14T10:41	10	45	0.2	45	46	381	0.4	380	381	11.7	79.8
2025-10-14T10:42	10	46	0.1	46	46	380	0.3	380	381	11.7	80.4
2025-10-14T10:43	10	46	0.1	46	46	380	0.3	380	381	11.6	79.9
2025-10-14T10:44	10	46	0.1	46	46	380	0.2	380	381	11.7	80.4
2025-10-14T10:45	10	46	0.1	46	46	381	0.3	380	381	11.8	80.4
2025-10-14T10:46	10	46	0.1	46	47	380	0.3	379	380	11.7	78.9
2025-10-14T10:47	10	47	0.1	46	47	381	0.5	380	381	11.7	79.3
2025-10-14T10:48	10	47	0.1	47	47	382	0.3	381	382	11.9	79.9
2025-10-14T10:49	10	47	0.1	47	47	382	0.3	381	382	11.9	80.3
2025-10-14T10:50	10	47	0.1	46	47	383	0.4	382	383	12.0	80.9
2025-10-14T10:51	10	47	0.1	46	47	383	0.2	383	384	12.1	80.2
2025-10-14T10:52	10	47	0.1	46	47	383	0.3	382	384	12.1	79.4
2025-10-14T10:53	10	47	0.1	46	47	382	0.4	381	383	12.0	79.4
2025-10-14T10:54	10	46	0.1	46	47	382	0.4	381	382	11.9	78.8
2025-10-14T10:55	10	47	0.1	46	47	382	0.3	381	382	11.8	79.4
2025-10-14T10:56	10	47	0.1	47	47	383	0.3	382	383	11.9	79.7
2025-10-14T10:57	10	47	0.1	47	47	383	0.2	382	383	12.0	79.2
2025-10-14T10:58	10	47	0.1	47	47	383	0.3	382	384	12.0	78.7
2025-10-14T10:59	10	47	0.1	47	47	383	0.4	383	384	12.1	79.6
2025-10-14T11:00	10	47	0.1	47	48	384	0.2	383	384	12.0	78.0
2025-10-14T11:01	10	47	0.1	47	47	382	0.8	381	384	11.9	77.3
2025-10-14T11:02	10	47	0.1	47	48	381	0.2	381	382	11.8	77.5
2025-10-14T11:03	10	47	0.1	47	48	382	0.4	381	383	11.9	77.9
2025-10-14T11:04	10	48	0.1	47	48	383	0.4	382	384	12.1	78.7
2025-10-14T11:05	10	47	0.1	47	48	381	0.5	380	382	12.1	77.1
2025-10-14T11:06	10	47	0.1	47	47	381	0.2	380	382	11.9	76.7
2025-10-14T11:07	10	47	0.1	47	47	381	0.3	380	382	11.9	78.2
2025-10-14T11:08	10	47	0.1	46	47	382	0.2	381	382	12.0	77.9
2025-10-14T11:09	10	46	0.3	45	46	382	0.3	381	382	12.0	78.2
2025-10-14T11:10	10	45	0.4	44	46	382	0.4	381	382	12.1	78.6
2025-10-14T11:11	10	44	0.3	43	44	382	0.3	381	383	12.2	78.6
2025-10-14T11:12	10	43	0.2	42	43	381	0.4	380	382	12.1	77.9
2025-10-14T11:13	10	42	0.1	42	43	381	0.3	380	381	12.0	77.1
2025-10-14T11:14	10	42	0.2	42	42	381	0.5	380	382	12.0	77.3
2025-10-14T11:15	10	41	0.3	41	42	380	0.3	379	381	11.9	77.3
2025-10-14T11:16	10	40	0.4	39	41	380	0.3	379	380	11.9	77.2
2025-10-14T11:17	10	39	0.4	38	40	379	0.2	379	380	11.8	77.6
2025-10-14T11:18	10	38	0.3	37	38	380	0.3	379	381	11.9	77.6
2025-10-14T11:19	10	37	0.3	36	37	380	0.4	379	381	12.0	77.9
2025-10-14T11:20	10	36	0.4	35	36	380	0.2	380	381	12.1	78.1
2025-10-14T11:21	10	34	0.4	33	35	381	0.3	380	381	12.1	77.8
2025-10-14T11:22	10	33	0.4	32	33	380	0.3	379	381	12.1	78.2
2025-10-14T11:23	10	32	0.2	31	32	380	0.2	379	380	12.1	78.1
2025-10-14T11:24	10	31	0.1	31	32	379	0.3	379	380	12.1	77.1
2025-10-14T11:25	10	32	0.3	32	32	379	0.3	379	380	12.2	77.5
2025-10-14T11:26	10	33	0.3	32	33	379	0.3	378	379	12.1	76.6
2025-10-14T11:27	10	34	0.3	33	34	378	0.3	378	379	12.1	77.6
2025-10-14T11:28	10	35	0.2	34	35	378	0.2	378	379	12.0	77.0
2025-10-14T11:29	10	35	0.2	35	36	378	0.3	378	379	12.0	77.2
2025-10-14T11:30	10	36	0.2	35	36	378	0.2	378	379	12.0	76.8
2025-10-14T11:31	10	36	0.1	36	36	378	0.4	377	379	12.0	76.7
2025-10-14T11:32	10	36	0.2	36	36	379	0.3	378	379	12.0	76.6
2025-10-14T11:33	10	35	0.2	35	36	379	0.2	378	379	12.1	76.8
2025-10-14T11:34	10	35	0.2	34	35	379	0.2	378	379	12.1	76.6
2025-10-14T11:35	10	34	0.3	33	34	379	0.4	378	380	12.1	77.1
2025-10-14T11:36	10	32	0.4	32	33	377	0.5	376	378	12.0	76.7
2025-10-14T11:37	10	31	0.3	31	32	377	0.3	376	377	12.0	76.9
2025-10-14T11:38	10	30	0.2	30	31	376	0.3	376	377	12.0	77.3
2025-10-14T11:39	10	30	0.1	30	30	376	0.2	376	376	12.0	77.2
2025-10-14T11:40	10	29	0.1	29	30	376	0.4	375	377	11.9	77.7
2025-10-14T11:41	10	29	0.1	29	30	377	0.2	376	377	12.0	78.6
2025-10-14T11:42	10	29	0.1	29	29	377	0.2	376	377	12.0	78.3
2025-10-14T11:43	10	29	0.1	29	29	377	0.3	376	377	12.0	78.4
2025-10-14T11:44	10	29	0.1	28	29	377	0.3	376	377	12.1	78.0
2025-10-14T11:45	10	29	0.1	28	29	377	0.2	376	377	12.0	77.5
2025-10-14T11:46	10	29	0.1	29	29	377	0.4	376	377	12.1	77.8
2025-10-14T11:47	10	29	0.1	29	29	377	0.3	377	378	12.1	78.2
2025-10-14T11:48	10	29	0.1	29	29	378	0.3	377	378	12.2	78.1
2025-10-14T11:49	10	30	0.2	29	30	377	0.3	377	378	12.2	77.4
2025-10-14T11:50	10	30	0.1	30	30	377	0.3	376	378	12.2	77.6
2025-10-14T11:51	10	30	0.1	30	31	377	0.3	376	377	12.1	75.9
2025-10-14T11:52	10	31	0.1	30	31	377	0.2	376	377	12.0	76.1
2025-10-14T11:53	10	31	0.1	31	31	377	0.3	376	378	12.0	76.6
2025-10-14T11:54	10	31	0.1	31	31	377	0.3	376	377	12.1	76.9
2025-10-14T11:55	10	31	0.2	31	32	377	0.5	376	378	12.1	77.7
2025-10-14T11:56	10	32	0.1	32	32	378	0.3	378	379	12.2	77.2
2025-10-14T11:57	10	32	0.1	32	32	378	0.3	377	378	12.2	76.4
2025-10-14T11:58	10	32	0.1	31	32	378	0.3	378	379	12.2	76.8
2025-10-14T11:59	10	31	0.1	31	32	378	0.2	378	379	12.3	76.6
2025-10-14T12:00	10	32	0.1	31	32	378	0.5	377	379	12.2	75.4
2025-10-14T12:01	10	32	0.1	32	32	377	0.4	376	378	12.3	76.2
2025-10-14T12:02	10	32	0.2	31	32	377	0.3	377	378	12.2	75.5
2025-10-14T12:03	10	31	0.2	31	32	377	0.4	376	377	12.1	75.4
2025-10-14T12:04	10	31	0.1	30	31	377	0.2	376	377	12.0	75.7
2025-10-14T12:05	10	30	0.2	30	30	377	0.2	376	377	12.0	76.1
2025-10-14T12:06	10	30	0.2	29	30	377	0.2	376	377	12.0	76.1
2025-10-14T12:07	10	29	0.3	29	29	377	0.3	376	377	12.0	76.5
2025-10-14T12:08	10	28	0.2	28	29	375	0.3	375	376	12.0	76.4
2025-10-14T12:09	10	28	0.2	27	28	375	0.3	375	376	12.0	76.9
2025-10-14T12:10	10	27	0.1	27	28	376	0.3	375	376	12.0	76.6
2025-10-14T12:11	10	27	0.2	27	27	376	0.3	375	376	12.0	75.9
2025-10-14T12:12	10	26	0.1	26	27	376	0.3	375	377	12.0	76.5
2025-10-14T12:13	10	26	0.2	26	26	376	0.3	375	377	12.0	77.3
2025-10-14T12:14	10	25	0.2	25	26	375	0.4	374	376	12.0	75.3
2025-10-14T12:15	10	25	0.1	25	25	374	0.2	374	375	11.9	74.6
2025-10-14T12:16	10	24	0.1	24	25	374	0.3	373	374	11.9	74.8
2025-10-14T12:17	10	24	0.2	23	24	374	0.2	374	374	11.9	75.6
2025-10-14T12:18	10	23	0.1	23	24	374	0.2	374	375	11.9	76.1
2025-10-14T12:19	10	23	0.1	23	23	374	0.2	373	374	11.9	75.2
2025-10-14T12:20	10	23	0.1	23	24	374	0.2	373	374	11.9	75.2
2025-10-14T12:21	10	24	0.1	23	24	374	0.3	373	374	11.9	75.2
2025-10-14T12:22	10	23	0.1	23	24	374	0.2	373	374	11.9	75.7
2025-10-14T12:23	10	23	0.1	23	23	373	0.2	373	374	11.9	75.9
2025-10-14T12:24	10	23	0.1	23	23	373	0.2	373	374	11.9	76.0
2025-10-14T12:25	10	23	0.1	23	23	373	0.3	373	374	11.9	76.1
2025-10-14T12:26	10	22	0.1	22	23	373	0.2	373	374	11.9	75.6
2025-10-14T12:27	10	22	0.1	22	22	374	0.3	373	374	11.9	76.2
2025-10-14T12:28	10	22	0.1	22	22	374	0.2	374	375	11.9	76.3
2025-10-14T12:29	10	22	0.1	21	22	374	0.3	373	374	11.9	76.1
2025-10-14T12:30	10	21	0.1	21	22	374	0.2	373	374	11.9	75.9
2025-10-14T12:31	10	21	0.1	21	22	374	0.2	373	374	11.9	76.7
2025-10-14T12:32	10	21	0.1	21	22	373	0.3	373	374	11.9	76.3
2025-10-14T12:33	10	22	0.1	21	22	374	0.3	373	375	11.9	76.8
2025-10-14T12:34	10	22	0.1	22	22	374	0.2	374	375	11.9	76.2
2025-10-14T12:35	10	22	0.1	22	22	374	0.4	373	374	11.9	75.9
2025-10-14T12:36	10	22	0.1	22	23	374	0.3	373	374	11.9	76.5
2025-10-14T12:37	10	23	0.1	22	23	374	0.3	373	375	12.0	77.7
2025-10-14T12:38	10	23	0.1	22	23	374	0.2	374	375	12.0	77.3
2025-10-14T12:39	10	23	0.1	22	23	374	0.2	374	375	11.9	77.4
2025-10-14T12:40	10	23	0.1	22	23	375	0.3	374	375	11.9	77.2
2025-10-14T12:41	10	22	0.1	22	23	375	0.2	374	375	12.0	76.8
2025-10-14T12:42	10	22	0.1	22	23	374	0.3	373	374	11.9	75.7
2025-10-14T12:43	10	22	0.1	22	23	373	0.3	373	374	11.9	75.6
2025-10-14T12:44	10	22	0.1	22	23	373	0.2	372	373	12.0	75.4
2025-10-14T12:45	10	23	0.2	22	23	373	0.3	372	374	12.0	76.0
2025-10-14T12:46	10	23	0.2	23	24	373	0.3	373	374	12.0	76.0
2025-10-14T12:47	10	24	0.1	24	24	374	0.3	373	374	12.0	75.7
2025-10-14T12:48	10	24	0.1	24	24	374	0.3	373	375	12.0	76.2
2025-10-14T12:49	10	24	0.1	24	25	374	0.4	374	375	12.1	75.9
2025-10-14T12:50	10	24	0.1	24	25	375	0.2	374	375	12.1	76.1
2025-10-14T12:51	10	25	0.1	25	25	374	0.3	374	375	12.1	75.8
2025-10-14T12:52	10	25	0.2	25	26	375	0.2	374	375	12.1	75.7
2025-10-14T12:53	10	26	0.1	25	26	374	0.3	373	375	12.0	74.6
2025-10-14T12:54	10	26	0.1	26	26	373	0.3	373	374	12.0	74.7
2025-10-14T12:55	10	26	0.1	26	26	373	0.2	373	374	12.0	74.7
2025-10-14T12:56	10	26	0.1	26	26	374	0.3	374	375	12.1	75.2
2025-10-14T12:57	10	26	0.1	26	26	375	0.2	374	375	12.1	75.2
2025-10-14T12:58	10	26	0.1	26	26	374	0.2	373	375	12.1	75.2
2025-10-14T12:59	10	26	0.1	26	26	375	0.4	374	376	12.1	75.6
2025-10-14T13:00	10	26	0.1	26	26	375	0.5	374	376	12.1	75.4
2025-10-14T13:01	10	26	0.1	26	26	373	0.2	373	374	12.0	74.6
2025-10-14T13:02	10	26	0.1	26	26	373	0.2	373	374	12.0	74.8
2025-10-14T13:03	10	26	0.1	26	26	373	0.3	372	374	12.0	74.6
2025-10-14T13:04	10	26	0.1	26	26	373	0.2	372	373	11.9	74.2
2025-10-14T13:05	10	27	0.2	26	27	374	0.5	373	374	12.0	75.0
2025-10-14T13:06	10	28	0.3	27	28	375	0.3	374	375	12.1	75.2
2025-10-14T13:07	10	28	0.2	28	29	375	0.3	375	376	12.1	75.0
2025-10-14T13:08	10	29	0.1	28	29	376	0.3	375	376	12.1	75.9
2025-10-14T13:09	10	28	0.2	28	29	376	0.2	375	376	12.1	75.6
2025-10-14T13:10	10	27	0.3	27	28	376	0.2	375	376	12.1	75.2
2025-10-14T13:11	10	26	0.4	25	27	375	0.5	374	376	12.1	74.5
2025-10-14T13:12	10	25	0.3	25	26	374	0.3	373	375	12.1	74.1
2025-10-14T13:13	10	24	0.2	24	25	374	0.3	373	374	12.1	73.8
2025-10-14T13:14	10	24	0.2	23	24	373	0.3	372	374	12.0	73.5
2025-10-14T13:15	10	23	0.2	23	23	372	0.3	372	373	12.0	73.8
2025-10-14T13:16	10	23	0.1	22	23	373	0.3	372	373	12.0	74.2
2025-10-14T13:17	10	22	0.1	22	23	372	0.2	372	372	12.0	74.1
2025-10-14T13:18	10	22	0.1	22	22	372	0.2	372	373	12.0	74.6
2025-10-14T13:19	10	23	0.1	22	23	373	0.2	372	373	12.0	75.0
2025-10-14T13:20	10	23	0.2	23	23	372	0.2	372	373	12.0	75.0
2025-10-14T13:21	10	23	0.1	23	24	373	0.3	372	374	12.0	75.1
2025-10-14T13:22	10	24	0.2	24	24	372	0.3	372	373	12.0	74.8
2025-10-14T13:23	10	24	0.1	24	25	372	0.2	372	373	11.9	74.8
2025-10-14T13:24	10	25	0.2	24	25	372	0.3	372	373	11.9	75.1
2025-10-14T13:25	10	25	0.2	25	26	372	0.2	372	373	12.0	75.3
2025-10-14T13:26	10	26	0.2	26	27	373	0.2	372	373	12.0	75.6
2025-10-14T13:27	10	27	0.2	27	27	373	0.2	373	374	12.0	75.7
2025-10-14T13:28	10	28	0.3	27	29	374	0.3	374	375	12.1	75.7
2025-10-14T13:29	10	29	0.3	28	29	374	0.3	374	375	12.1	75.5
2025-10-14T13:30	10	30	0.2	29	30	374	0.3	374	375	12.1	76.0
2025-10-14T13:31	10	31	0.2	30	31	375	0.4	374	376	12.1	76.1
2025-10-14T13:32	10	31	0.2	31	32	376	0.2	375	376	12.1	76.6
2025-10-14T13:33	10	32	0.1	31	32	376	0.2	375	376	12.1	76.7
2025-10-14T13:34	10	32	0.1	32	32	376	0.2	375	376	12.1	76.6
2025-10-14T13:35	10	32	0.1	32	32	376	0.2	376	376	12.1	76.5
2025-10-14T13:36	10	32	0.1	32	32	376	0.3	375	376	12.1	76.5
2025-10-14T13:37	10	32	0.1	32	33	376	0.5	375	377	12.1	76.0
2025-10-14T13:38	10	33	0.1	33	33	375	0.2	374	375	12.1	75.5
2025-10-14T13:39	10	33	0.1	33	33	375	0.2	375	376	12.1	76.1
2025-10-14T13:40	10	33	0.1	32	33	375	0.2	375	376	12.1	75.6
2025-10-14T13:41	10	33	0.1	32	33	375	0.3	375	376	12.1	75.6
2025-10-14T13:42	10	32	0.1	32	33	375	0.2	375	376	12.1	75.7
2025-10-14T13:43	10	32	0.2	32	32	375	0.3	374	376	12.1	75.2
2025-10-14T13:44	10	31	0.2	31	32	375	0.3	374	375	12.0	74.9
2025-10-14T13:45	10	31	0.2	30	31	375	0.2	374	375	12.1	75.2
2025-10-14T13:46	10	30	0.2	30	30	375	0.3	374	376	12.1	75.6
2025-10-14T13:47	10	30	0.1	29	30	375	0.3	375	376	12.1	75.9
2025-10-14T13:48	10	29	0.1	29	30	376	0.2	376	376	12.2	76.1
2025-10-14T13:49	10	29	0.1	29	29	376	0.2	376	377	12.2	76.0
2025-10-14T13:50	10	28	0.2	28	29	376	0.3	375	376	12.2	75.9
2025-10-14T13:51	10	28	0.1	28	28	376	0.3	375	376	12.3	76.1
2025-10-14T13:52	10	27	0.2	27	28	375	0.3	374	375	12.2	75.6
2025-10-14T13:53	10	27	0.1	27	27	375	0.3	374	375	12.2	75.7
2025-10-14T13:54	10	26	0.1	26	27	374	0.4	373	375	12.1	75.3
2025-10-14T13:55	10	26	0.1	26	26	373	0.3	373	374	12.0	75.3
2025-10-14T13:56	10	26	0.1	26	26	373	0.3	372	374	12.0	75.6
2025-10-14T13:57	10	26	0.1	25	26	373	0.3	373	374	12.1	76.1
2025-10-14T13:58	10	25	0.1	25	26	373	0.2	373	374	12.1	76.1
2025-10-14T13:59	10	25	0.1	25	25	373	0.2	373	374	12.1	76.2
2025-10-14T14:00	10	25	0.1	25	25	373	0.2	373	374	12.1	76.2
2025-10-14T14:01	10	25	0.1	25	25	373	0.3	373	374	12.0	76.3
2025-10-14T14:02	10	25	0.1	25	25	373	0.3	373	374	12.1	76.2
2025-10-14T14:03	10	25	0.1	25	25	374	0.2	373	374	12.1	76.2
2025-10-14T14:04	10	25	0.1	25	26	373	0.2	373	374	12.0	75.6
2025-10-14T14:05	10	25	0.1	25	26	373	0.3	372	374	12.0	75.7
2025-10-14T14:06	10	25	0.1	25	26	373	0.3	372	374	12.0	75.3
2025-10-14T14:07	10	25	0.1	25	26	373	0.2	373	373	12.0	75.8
2025-10-14T14:08	10	26	0.1	25	26	373	0.2	373	373	12.0	75.9
2025-10-14T14:09	10	26	0.1	26	26	373	0.2	372	373	12.0	75.1
2025-10-14T14:10	10	26	0.1	26	26	373	0.3	372	373	12.0	74.8
2025-10-14T14:11	10	26	0.1	26	26	373	0.3	372	373	12.0	74.2
2025-10-14T14:12	10	26	0.1	26	27	373	0.3	372	374	12.0	74.4
2025-10-14T14:13	10	26	0.1	26	27	373	0.2	372	374	12.0	75.1
2025-10-14T14:14	10	26	0.1	26	26	373	0.2	372	373	12.0	74.3
2025-10-14T14:15	10	26	0.1	26	26	373	0.3	372	373	12.0	74.1
2025-10-14T14:16	10	26	0.1	25	26	373	0.2	373	373	12.0	74.5
2025-10-14T14:17	10	25	0.1	25	26	373	0.4	372	374	12.0	74.3
2025-10-14T14:18	10	25	0.1	25	26	372	0.2	372	373	11.9	73.8
2025-10-14T14:19	10	25	0.1	25	25	372	0.2	372	373	11.9	74.3
2025-10-14T14:20	10	25	0.1	25	25	373	0.3	372	373	12.0	74.9
2025-10-14T14:21	10	25	0.1	25	25	373	0.2	372	374	11.9	74.2
2025-10-14T14:22	10	25	0.1	25	25	373	0.2	373	374	11.9	74.0
2025-10-14T14:23	10	25	0.1	25	26	373	0.3	372	374	11.9	74.4
2025-10-14T14:24	10	25	0.1	25	26	373	0.3	373	374	12.0	74.9
2025-10-14T14:25	10	26	0.1	25	26	374	0.3	373	374	12.0	75.2
2025-10-14T14:26	10	26	0.1	26	26	374	0.3	373	375	12.0	75.0
2025-10-14T14:27	10	26	0.1	25	26	374	0.3	374	375	12.0	75.6
2025-10-14T14:28	10	25	0.1	25	26	374	0.3	374	375	12.0	75.0
2025-10-14T14:29	10	25	0.1	25	25	374	0.3	373	374	12.0	75.2
2025-10-14T14:30	10	25	0.2	25	25	373	0.3	372	374	11.9	75.2
2025-10-14T14:31	10	25	0.1	24	25	373	0.2	372	373	12.0	75.4
2025-10-14T14:32	10	24	0.2	24	24	373	0.2	373	374	11.9	75.3
2025-10-14T14:33	10	24	0.1	23	24	373	0.3	372	374	11.9	75.3
2025-10-14T14:34	10	23	0.1	23	24	373	0.3	372	373	11.9	75.6
2025-10-14T14:35	10	23	0.1	23	23	373	0.3	372	374	11.9	75.8
2025-10-14T14:36	10	23	0.1	23	23	372	0.3	372	373	11.9	75.3
2025-10-14T14:37	10	23	0.1	22	23	372	0.2	372	372	11.9	75.3
2025-10-14T14:38	10	22	0.1	22	23	373	0.2	372	373	11.9	76.2
2025-10-14T14:39	10	22	0.1	22	22	373	0.2	372	373	11.9	76.5
2025-10-14T14:40	10	22	0.1	22	22	373	0.2	372	373	11.9	76.5
2025-10-14T14:41	10	22	0.1	22	22	373	0.3	372	373	11.9	77.3
2025-10-14T14:42	10	22	0.1	22	22	373	0.2	372	373	11.9	76.9
2025-10-14T14:43	10	22	0.1	21	22	372	0.2	372	373	11.9	76.6
2025-10-14T14:44	10	21	0.1	21	21	373	0.3	372	373	11.9	77.0
2025-10-14T14:45	10	21	0.1	21	21	372	0.2	372	373	11.9	76.5
2025-10-14T14:46	10	20	0.1	20	21	372	0.3	371	372	11.9	77.5
2025-10-14T14:47	10	20	0.1	20	20	372	0.2	371	372	11.8	77.0
2025-10-14T14:48	10	20	0.1	19	20	371	0.2	371	372	11.8	77.0
2025-10-14T14:49	10	19	0.1	19	19	372	0.2	371	372	11.8	77.4
2025-10-14T14:50	10	19	0.1	19	19	372	0.2	371	372	11.9	77.5
2025-10-14T14:51	10	19	0.1	19	19	371	0.3	371	372	11.8	76.9
2025-10-14T14:52	10	18	0.1	18	19	371	0.3	371	372	11.8	77.3
2025-10-14T14:53	10	18	0.1	18	18	372	0.3	371	372	11.9	77.8
2025-10-14T14:54	10	18	0.1	17	18	372	0.2	371	372	11.9	77.5
2025-10-14T14:55	10	17	0.1	17	18	372	0.2	371	372	11.9	78.1
2025-10-14T14:56	10	17	0.1	17	17	372	0.3	371	373	11.9	77.8
2025-10-14T14:57	10	17	0.1	17	17	372	0.2	372	373	11.9	77.8
2025-10-14T14:58	10	17	0.1	17	17	372	0.2	372	373	11.9	77.5
2025-10-14T14:59	10	17	0.1	17	17	372	0.2	371	372	11.9	77.3
2025-10-14T15:00	10	17	0.1	17	17	371	0.3	371	372	11.9	76.7
2025-10-14T15:01	10	17	0.1	17	17	371	0.3	370	371	11.9	76.5
2025-10-14T15:02	10	17	0.1	16	17	370	0.2	370	371	11.8	76.9
2025-10-14T15:03	10	16	0.1	16	17	371	0.3	370	371	11.8	76.9
2025-10-14T15:04	10	16	0.1	16	17	371	0.2	370	371	11.8	77.3
2025-10-14T15:05	10	16	0.1	16	16	371	0.2	370	371	11.8	76.9
2025-10-14T15:06	10	16	0.1	16	16	371	0.2	370	371	11.8	77.0
2025-10-14T15:07	10	16	0.1	16	16	370	0.2	370	371	11.8	77.0
2025-10-14T15:08	10	16	0.1	16	16	370	0.2	370	371	11.8	76.9
2025-10-14T15:09	10	16	0.1	16	16	370	0.2	370	371	11.8	77.0
2025-10-14T15:10	10	16	0.1	16	16	370	0.3	370	371	11.8	76.9
2025-10-14T15:11	10	15	0.1	15	16	370	0.2	370	371	11.8	77.2
2025-10-14T15:12	10	15	0.1	15	15	370	0.2	369	370	11.8	77.4
2025-10-14T15:13	10	15	0.1	14	15	370	0.2	369	370	11.8	77.4
2025-10-14T15:14	10	14	0.1	14	14	370	0.3	369	370	11.8	77.4
2025-10-14T15:15	10	14	0.1	14	14	370	0.3	369	370	11.8	77.1
2025-10-14T15:16	10	14	0.1	14	14	369	0.2	369	370	11.8	76.7
2025-10-14T15:17	10	14	0.1	14	14	369	0.2	368	369	11.8	77.0
2025-10-14T15:18	10	14	0.1	13	14	369	0.3	369	370	11.7	77.3
2025-10-14T15:19	10	13	0.1	13	14	369	0.3	369	370	11.7	77.1
2025-10-14T15:20	10	13	0.1	13	13	370	0.3	369	370	11.7	77.2
2025-10-14T15:21	10	13	0.1	13	13	370	0.2	369	370	11.8	76.6
2025-10-14T15:22	10	13	0.1	13	13	369	0.3	369	370	11.7	75.8
2025-10-14T15:23	10	13	0.1	13	13	369	0.3	368	369	11.7	75.5
2025-10-14T15:24	10	13	0.1	12	13	369	0.2	368	369	11.7	75.9
2025-10-14T15:25	10	12	0.1	12	13	369	0.2	368	369	11.7	75.9
2025-10-14T15:26	10	12	0.1	12	12	368	0.2	368	369	11.7	75.6
2025-10-14T15:27	10	12	0.1	12	12	368	0.3	368	369	11.7	75.3
2025-10-14T15:28	10	12	0.1	12	12	368	0.2	368	368	11.7	75.5
2025-10-14T15:29	10	12	0.1	11	12	368	0.3	367	369	11.6	76.1
2025-10-14T15:30	10	11	0.1	11	12	368	0.2	368	369	11.6	75.9
2025-10-14T15:31	10	11	0.1	11	11	368	0.2	368	369	11.6	76.6
2025-10-14T15:32	10	11	0.1	11	11	368	0.2	368	369	11.6	77.2
2025-10-14T15:33	10	11	0.1	11	11	368	0.2	368	369	11.6	76.9
2025-10-14T15:34	10	11	0.1	11	11	368	0.3	367	369	11.6	76.9
2025-10-14T15:35	10	10	0.1	10	11	368	0.2	367	368	11.6	77.5
2025-10-14T15:36	10	10	0.1	10	10	368	0.2	368	369	11.6	77.3
2025-10-14T15:37	10	10	0.2	9	10	368	0.2	368	369	11.6	77.3
2025-10-14T15:38	10	9	0.1	9	10	368	0.2	367	368	11.6	77.2
2025-10-14T15:39	10	9	0.1	9	9	368	0.2	367	368	11.6	77.1
2025-10-14T15:40	10	9	0.1	9	9	367	0.2	367	368	11.5	77.5
2025-10-14T15:41	10	8	0.1	8	9	367	0.3	366	368	11.5	77.1
2025-10-14T15:42	10	8	0.1	8	8	367	0.3	366	367	11.5	76.9
2025-10-14T15:43	10	8	0.1	8	8	367	0.2	367	367	11.5	76.9
2025-10-14T15:44	10	7	0.1	7	8	367	0.3	366	367	11.5	77.5
2025-10-14T15:45	10	7	0.1	7	7	367	0.2	366	367	11.5	77.5
2025-10-14T15:46	10	7	0.1	7	7	367	0.2	366	367	11.4	77.5
2025-10-14T15:47	10	7	0.1	7	7	367	0.2	366	367	11.4	77.4
2025-10-14T15:48	10	7	0.1	6	7	367	0.2	366	367	11.4	77.7
2025-10-14T15:49	10	6	0.1	6	7	366	0.3	366	367	11.4	77.9
2025-10-14T15:50	10	6	0.1	6	6	366	0.2	366	367	11.4	78.0
2025-10-14T15:51	10	6	0.1	6	6	366	0.2	366	367	11.4	77.9
2025-10-14T15:52	10	6	0.1	6	6	366	0.2	366	367	11.4	77.4
2025-10-14T15:53	10	6	0.1	6	6	366	0.2	366	367	11.4	77.8
2025-10-14T15:54	10	6	0.1	6	6	366	0.2	366	367	11.4	78.0
2025-10-14T15:55	10	6	0.1	6	6	366	0.2	366	367	11.4	78.2
2025-10-14T15:56	10	6	0.1	6	6	366	0.2	365	367	11.4	77.5
2025-10-14T15:57	10	6	0.1	5	6	366	0.2	366	366	11.4	78.4
2025-10-14T15:58	10	5	0.1	5	6	366	0.2	366	367	11.4	78.6
2025-10-14T15:59	10	5	0.1	5	5	366	0.3	365	367	11.4	78.2
2025-10-14T16:00	10	5	0.1	5	5	366	0.2	365	366	11.4	78.4
2025-10-14T16:01	10	5	0.1	5	5	366	0.2	365	366	11.3	78.6
2025-10-14T16:02	10	5	0.1	4	5	366	0.2	365	366	11.4	78.2
2025-10-14T16:03	10	4	0.1	4	5	366	0.2	365	366	11.4	78.1
2025-10-14T16:04	10	4	0.1	4	5	365	0.2	365	366	11.3	78.6
2025-10-14T16:05	10	4	0.1	4	4	366	0.2	365	366	11.3	78.5
2025-10-14T16:06	10	4	0.1	4	4	366	0.3	365	366	11.3	78.2
2025-10-14T16:07	10	4	0.1	4	4	365	0.2	365	366	11.3	78.2
2025-10-14T16:08	10	4	0.1	4	4	365	0.3	365	366	11.3	78.7
2025-10-14T16:09	10	4	0.1	4	4	365	0.2	365	366	11.3	79.0
2025-10-14T16:10	10	4	0.1	4	4	365	0.2	365	366	11.3	78.6
2025-10-14T16:11	10	4	0.1	3	4	365	0.2	365	366	11.3	78.5
2025-10-14T16:12	10	3	0.1	3	4	365	0.2	364	366	11.3	78.2
2025-10-14T16:13	10	3	0.1	3	3	365	0.2	365	365	11.3	78.6
2025-10-14T16:14	10	3	0.1	3	3	365	0.2	364	365	11.3	78.7
2025-10-14T16:15	10	3	0.1	3	3	365	0.2	365	365	11.3	78.1
2025-10-14T16:16	10	3	0.1	3	3	365	0.2	364	365	11.3	78.1
2025-10-14T16:17	10	3	0.1	3	3	365	0.3	364	366	11.3	78.1
2025-10-14T16:18	10	3	0.1	3	3	365	0.2	364	365	11.3	78.7
2025-10-14T16:19	10	3	0.1	2	3	365	0.2	364	365	11.3	78.8
2025-10-14T16:20	10	3	0.1	2	3	365	0.3	364	365	11.3	79.2
2025-10-14T16:21	10	2	0.1	2	3	365	0.2	364	365	11.3	78.1
2025-10-14T16:22	10	2	0.1	2	2	364	0.2	364	365	11.3	78.6
2025-10-14T16:23	10	2	0.1	2	2	365	0.3	364	365	11.2	79.0
2025-10-14T16:24	10	2	0.1	2	2	364	0.2	364	365	11.2	78.8
2025-10-14T16:25	10	2	0.1	2	2	364	0.2	364	365	11.3	78.2
2025-10-14T16:26	10	2	0.1	2	2	364	0.2	364	365	11.3	78.2
2025-10-14T16:27	10	2	0.1	1	2	364	0.2	364	365	11.3	78.0
2025-10-14T16:28	10	2	0.1	1	2	364	0.2	364	365	11.3	78.3
2025-10-14T16:29	10	2	0.1	1	2	364	0.2	364	365	11.3	78.2
2025-10-14T16:30	10	2	0.1	1	2	364	0.3	364	365	11.3	78.4
2025-10-14T16:31	10	1	0.1	1	2	364	0.2	364	365	11.3	77.4
2025-10-14T16:32	10	1	0.1	1	2	364	0.2	363	364	11.3	78.0
2025-10-14T16:33	10	1	0.1	1	2	364	0.2	363	365	11.2	78.7
2025-10-14T16:34	10	1	0.1	1	2	364	0.3	363	365	11.3	78.1
2025-10-14T16:35	10	1	0.1	1	1	364	0.2	363	365	11.3	78.1
2025-10-14T16:36	10	1	0.1	1	1	364	0.2	363	364	11.3	78.0
2025-10-14T16:37	10	1	0.1	1	1	364	0.2	363	364	11.3	78.5
2025-10-14T16:38	10	1	0.1	1	1	364	0.2	363	364	11.2	78.9
2025-10-14T16:39	10	1	0.1	1	1	364	0.2	364	364	11.2	78.8
2025-10-14T16:40	10	1	0.1	1	1	364	0.2	363	364	11.2	78.7
2025-10-14T16:41	10	1	0.1	1	1	364	0.3	363	364	11.2	79.3
2025-10-14T16:42	10	1	0.1	1	1	364	0.3	363	364	11.2	78.5
2025-10-14T16:43	10	1	0.1	1	1	364	0.2	363	364	11.2	78.7
2025-10-14T16:44	10	1	0.1	1	1	364	0.2	363	364	11.3	78.4
2025-10-14T16:45	10	1	0.1	1	1	364	0.3	363	364	11.2	78.5
2025-10-14T16:46	10	1	0.1	1	1	363	0.2	363	364	11.2	78.5
2025-10-14T16:47	10	1	0.1	0	1	363	0.3	363	364	11.2	78.7
2025-10-14T16:48	10	1	0.1	0	1	363	0.3	363	364	11.2	78.8
2025-10-14T16:49	10	1	0.1	0	1	363	0.2	363	364	11.2	79.0
2025-10-14T16:50	10	1	0.1	0	1	363	0.3	363	364	11.2	79.2
2025-10-14T16:51	10	1	0.1	0	1	363	0.3	363	364	11.2	78.5
2025-10-14T16:52	10	1	0.1	0	1	363	0.3	362	364	11.2	78.7
2025-10-14T16:53	10	1	0.1	0	1	363	0.3	362	364	11.2	79.2
2025-10-14T16:54	10	1	0.1	0	1	363	0.2	362	363	11.2	78.9
2025-10-14T16:55	10	1	0.1	0	1	363	0.2	362	363	11.2	78.9
2025-10-14T16:56	10	1	0.1	0	1	363	0.2	362	363	11.1	79.1
2025-10-14T16:57	10	1	0.1	0	1	363	0.2	362	363	11.1	79.3
2025-10-14T16:58	10	0	0.1	0	1	362	0.2	362	363	11.1	79.4
2025-10-14T16:59	10	1	0.1	0	1	362	0.2	362	363	11.1	79.3
2025-10-14T17:00	10	0	0.1	0	1	362	0.3	362	363	11.1	79.4
2025-10-14T17:01	10	0	0.1	0	1	362	0.2	361	363	11.1	79.7
2025-10-14T17:02	10	0	0.1	0	1	361	0.2	361	362	11.1	79.2
2025-10-14T17:03	10	0	0.1	0	1	361	0.3	360	361	11.1	79.6
2025-10-14T17:04	10	0	0.1	0	0	360	0.3	360	361	11.1	79.4
2025-10-14T17:05	10	0	0.1	0	1	359	0.3	359	360	11.0	79.9
2025-10-14T17:06	10	0	0.1	0	0	359	0.3	359	360	11.0	79.8
2025-10-14T17:07	10	0	0.1	0	0	358	0.3	358	359	11.0	79.7
2025-10-14T17:08	10	0	0.1	0	0	358	0.4	357	359	11.0	80.1
2025-10-14T17:09	10	0	0.1	0	0	357	0.3	356	358	10.9	80.4
2025-10-14T17:10	10	0	0.1	0	0	356	0.3	356	357	10.9	80.1
2025-10-14T17:11	10	0	0.1	0	0	356	0.2	355	356	10.9	80.2
2025-10-14T17:12	10	0	0.1	0	0	356	0.2	355	356	11.0	79.5
2025-10-14T17:13	10	0	0.1	0	0	355	0.3	355	356	10.9	80.0
2025-10-14T17:14	10	0	0.1	0	0	355	0.3	354	355	10.9	80.3
2025-10-14T17:15	10	0	0.1	0	0	354	0.2	354	355	10.8	80.6
2025-10-14T17:16	10	0	0.1	0	0	354	0.3	353	355	10.8	80.8
2025-10-14T17:17	10	0	0.1	0	0	354	0.3	353	354	10.8	80.8
2025-10-14T17:18	10	0	0.1	0	0	353	0.2	353	354	10.8	80.9
2025-10-14T17:19	10	0	0.1	0	0	353	0.3	352	353	10.7	81.0
2025-10-14T17:20	10	0	0.1	0	0	352	0.3	352	353	10.7	81.2
2025-10-14T17:21	10	0	0.0	0	0	352	0.2	352	352	10.7	81.5
2025-10-14T17:22	10	0	0.1	0	0	351	0.2	351	352	10.6	81.6
2025-10-14T17:23	10	0	0.1	0	0	351	0.3	351	352	10.6	81.5
2025-10-14T17:24	10	0	0.0	0	0	351	0.2	351	352	10.6	81.8
2025-10-14T17:25	10	0	0.1	0	0	351	0.2	350	351	10.5	82.1
2025-10-14T17:26	10	0	0.1	0	0	351	0.2	350	351	10.6	81.8
2025-10-14T17:27	10	0	0.1	0	0	351	0.3	350	351	10.5	82.1
2025-10-14T17:28	10	0	0.1	0	0	351	0.5	350	352	10.5	81.9
2025-10-14T17:29	10	0	0.1	0	0	352	0.2	351	352	10.6	81.7
2025-10-14T17:30	10	0	0.1	0	0	351	0.3	351	352	10.5	82.3
2025-10-14T17:31	10	0	0.1	0	0	351	0.2	351	352	10.5	82.2
2025-10-14T17:32	10	0	0.1	0	0	351	0.3	351	352	10.4	82.5
2025-10-14T17:33	10	0	0.1	0	0	351	0.3	350	351	10.4	82.6
2025-10-14T17:34	10	0	0.1	0	0	351	0.3	350	351	10.4	82.7
2025-10-14T17:35	10	0	0.1	0	0	351	0.2	350	351	10.4	82.5
2025-10-14T17:36	10	0	0.1	0	0	350	0.2	350	351	10.3	83.2
2025-10-14T17:37	10	0	0.1	0	0	350	0.3	349	351	10.3	83.1
2025-10-14T17:38	10	0	0.1	0	0	350	0.5	349	351	10.3	83.1
2025-10-14T17:39	10	0	0.1	0	0	351	0.3	350	351	10.3	82.9
2025-10-14T17:40	10	0	0.1	0	0	350	0.2	350	351	10.3	83.0
2025-10-14T17:41	10	0	0.1	0	0	350	0.2	349	350	10.2	83.2
2025-10-14T17:42	10	0	0.1	0	0	350	0.3	349	350	10.2	83.3
2025-10-14T17:43	10	0	0.1	0	0	350	0.2	350	350	10.2	83.2
2025-10-14T17:44	10	0	0.1	0	0	350	0.2	349	350	10.1	83.5
2025-10-14T17:45	10	0	0.1	0	0	350	0.3	349	350	10.2	83.4
2025-10-14T17:46	10	0	0.1	0	0	349	0.3	348	350	10.1	83.8
2025-10-14T17:47	10	0	0.1	0	0	349	0.3	349	350	10.1	83.7
2025-10-14T17:48	10	0	0.1	0	0	348	0.2	348	349	10.1	84.0
2025-10-14T17:49	10	0	0.1	0	0	349	0.2	348	349	10.0	84.2
2025-10-14T17:50	10	0	0.1	0	0	349	0.2	348	349	10.1	84.2
2025-10-14T17:51	10	0	0.1	0	0	348	0.3	348	349	10.0	84.3
2025-10-14T17:52	10	0	0.1	0	0	348	0.2	347	348	9.9	84.7
2025-10-14T17:53	10	0	0.1	0	0	348	0.2	347	348	10.0	84.3
2025-10-14T17:54	10	0	0.1	0	0	348	0.2	347	348	10.0	84.5
2025-10-14T17:55	10	0	0.1	0	0	348	0.3	347	349	10.0	84.2
2025-10-14T17:56	10	0	0.1	0	0	348	0.3	348	349	10.0	84.2
2025-10-14T17:57	10	0	0.1	0	0	348	0.3	348	349	10.0	84.0
2025-10-14T17:58	10	0	0.1	0	0	349	0.3	348	349	10.0	84.1
2025-10-14T17:59	10	0	0.1	0	0	349	0.3	348	350	10.0	84.1
2025-10-14T18:00	10	0	0.1	0	0	349	0.3	348	349	10.0	83.9
2025-10-14T18:01	10	0	0.1	0	0	349	0.2	348	349	10.0	84.0
2025-10-14T18:02	10	0	0.1	0	0	349	0.3	348	349	10.0	84.0
2025-10-14T18:03	10	0	0.1	0	0	348	0.3	348	349	9.9	84.2
2025-10-14T18:04	10	0	0.1	0	0	348	0.2	348	349	10.0	84.1
2025-10-14T18:05	10	0	0.1	0	0	348	0.3	347	349	9.9	84.3
2025-10-14T18:06	10	0	0.1	0	0	347	0.3	347	348	9.9	84.4
2025-10-14T18:07	10	0	0.1	0	0	346	0.4	345	347	9.8	84.7
2025-10-14T18:08	10	0	0.1	0	0	345	0.3	344	346	9.5	85.9
2025-10-14T18:09	10	0	0.1	0	0	344	0.5	343	345	9.4	86.5
2025-10-14T18:10	10	0	0.1	0	0	342	0.3	342	343	9.4	87.2
2025-10-14T18:11	10	0	0.1	0	0	341	0.3	341	342	9.3	87.8
2025-10-14T18:12	10	0	0.1	0	0	340	0.3	340	341	9.3	87.8
2025-10-14T18:13	10	0	0.1	0	0	340	0.2	340	340	9.3	87.9
2025-10-14T18:14	10	0	0.1	0	0	339	0.2	339	340	9.3	87.7
2025-10-14T18:15	10	0	0.1	0	0	339	0.3	338	340	9.3	88.0
2025-10-14T18:16	10	0	0.1	0	0	338	0.2	338	339	9.2	88.3
2025-10-14T18:17	10	0	0.1	0	0	338	0.2	338	339	9.2	88.3
2025-10-14T18:18	10	0	0.1	0	0	338	0.2	337	338	9.1	88.6
2025-10-14T18:19	10	0	0.1	0	0	338	0.2	337	338	9.1	88.7
2025-10-14T18:20	10	0	0.1	0	0	337	0.2	337	338	9.1	88.7
2025-10-14T18:21	10	0	0.1	0	0	338	0.2	337	338	9.1	88.9
2025-10-14T18:22	10	0	0.1	0	0	337	0.2	337	338	9.1	89.1
2025-10-14T18:23	10	0	0.1	0	0	337	0.3	337	338	9.0	89.4
2025-10-14T18:24	10	0	0.1	0	0	337	0.2	337	338	9.1	89.0
2025-10-14T18:25	10	0	0.1	0	0	337	0.2	337	338	9.1	89.0
2025-10-14T18:26	10	0	0.1	0	0	337	0.2	337	338	9.1	89.0
2025-10-14T18:27	10	0	0.1	0	0	337	0.3	336	338	9.1	89.1
2025-10-14T18:28	10	0	0.1	0	0	337	0.2	337	338	9.1	89.1
2025-10-14T18:29	10	0	0.1	0	0	337	0.3	336	337	9.1	89.0
2025-10-14T18:30	10	0	0.1	0	0	336	0.3	336	337	9.1	89.2
2025-10-14T18:31	10	0	0.1	0	0	336	0.2	336	337	9.0	89.2
2025-10-14T18:32	10	0	0.1	0	0	336	0.2	336	337	9.0	89.2
2025-10-14T18:33	10	0	0.1	0	0	336	0.3	335	337	9.0	89.5
2025-10-14T18:34	10	0	0.1	0	0	336	0.2	335	336	8.9	89.7
2025-10-14T18:35	10	0	0.1	0	0	336	0.2	335	336	8.9	89.8
2025-10-14T18:36	10	0	0.1	0	0	336	0.2	335	336	8.9	89.7
2025-10-14T18:37	10	0	0.1	0	0	336	0.2	335	336	8.9	89.6
2025-10-14T18:38	10	0	0.1	0	0	336	0.3	335	336	8.9	89.7
2025-10-14T18:39	10	0	0.1	0	0	336	0.2	335	336	8.9	89.7
2025-10-14T18:40	10	0	0.1	0	0	335	0.2	335	336	8.9	89.4
2025-10-14T18:41	10	0	0.1	0	0	335	0.2	335	336	9.0	89.4
2025-10-14T18:42	10	0	0.0	0	0	335	0.1	335	335	9.0	89.3
2025-10-14T18:43	10	0	0.1	0	0	335	0.3	335	336	8.9	89.3
2025-10-14T18:44	10	0	0.1	0	0	335	0.2	335	336	8.9	89.4
2025-10-14T18:45	10	0	0.1	0	0	335	0.2	334	335	8.9	89.6
2025-10-14T18:46	10	0	0.1	0	0	335	0.3	334	335	8.9	89.6
2025-10-14T18:47	10	0	0.0	0	0	335	0.2	335	336	8.9	89.4
2025-10-14T18:48	10	0	0.1	0	0	335	0.2	334	335	8.9	89.4
2025-10-14T18:49	10	0	0.1	0	0	335	0.2	334	335	9.0	89.2
2025-10-14T18:50	10	0	0.1	0	0	335	0.2	334	335	8.9	89.2
2025-10-14T18:51	10	0	0.1	0	0	334	0.2	334	335	9.0	89.0
2025-10-14T18:52	10	0	0.1	0	0	334	0.3	334	335	9.0	89.0
2025-10-14T18:53	10	0	0.1	0	0	334	0.2	334	335	9.0	88.8
2025-10-14T18:54	10	0	0.1	0	0	334	0.2	333	334	8.9	89.1
2025-10-14T18:55	10	0	0.1	0	0	334	0.2	333	334	8.9	89.1
2025-10-14T18:56	10	0	0.1	0	0	334	0.2	333	334	8.9	89.0
2025-10-14T18:57	10	0	0.1	0	0	334	0.2	333	334	8.9	89.4
2025-10-14T18:58	10	0	0.1	0	0	334	0.3	333	335	8.8	89.9
2025-10-14T18:59	10	0	0.1	0	0	334	0.2	334	335	8.7	90.2
2025-10-14T19:00	10	0	0.1	0	0	335	0.2	334	335	8.7	90.4
2025-10-14T19:01	10	0	0.1	0	0	334	0.3	334	335	8.7	90.5
2025-10-14T19:02	10	0	0.1	0	0	334	0.2	334	335	8.7	90.4
2025-10-14T19:03	10	0	0.1	0	0	334	0.2	334	335	8.7	90.5
2025-10-14T19:04	10	0	0.1	0	0	334	0.2	333	335	8.6	90.7
2025-10-14T19:05	10	0	0.1	0	0	334	0.2	334	335	8.6	91.0
2025-10-14T19:06	10	0	0.1	0	0	334	0.2	333	334	8.5	91.2
2025-10-14T19:07	10	0	0.1	0	0	334	0.3	333	334	8.5	91.3
2025-10-14T19:08	10	0	0.1	0	0	334	0.2	333	334	8.5	91.3
2025-10-14T19:09	10	0	0.1	0	0	333	0.2	333	334	8.5	91.3
2025-10-14T19:10	10	0	0.1	0	0	333	0.3	332	334	8.5	91.3
2025-10-14T19:11	10	0	0.1	0	0	333	0.2	333	334	8.5	91.3
2025-10-14T19:12	10	0	0.1	0	0	333	0.3	333	334	8.5	91.3
2025-10-14T19:13	10	0	0.1	0	0	333	0.3	332	333	8.5	91.3
2025-10-14T19:14	10	0	0.1	0	0	333	0.2	332	333	8.5	90.9
2025-10-14T19:15	10	0	0.1	0	1	332	0.3	332	333	8.5	89.9
2025-10-14T19:16	10	0	0.1	0	0	332	0.3	332	333	8.5	90.4
2025-10-14T19:17	10	0	0.1	0	0	332	0.2	332	333	8.5	90.9
2025-10-14T19:18	10	0	0.2	0	1	332	0.3	332	333	8.5	91.3
2025-10-14T19:19	10	0	0.1	0	0	332	0.2	331	332	8.5	91.3
2025-10-14T19:20	10	0	0.1	0	0	332	0.3	331	332	8.4	91.5
2025-10-14T19:21	10	0	0.1	0	0	332	0.2	331	332	8.4	91.8
2025-10-14T19:22	10	0	0.1	0	0	332	0.2	332	333	8.4	91.9
2025-10-14T19:23	10	0	0.2	0	0	332	0.3	332	333	8.4	91.9
2025-10-14T19:24	10	0	0.2	0	0	332	0.3	331	333	8.4	91.7
2025-10-14T19:25	10	0	0.1	0	1	332	0.3	331	333	8.4	91.8
2025-10-14T19:26	10	0	0.1	0	0	332	0.2	332	333	8.5	91.4
2025-10-14T19:27	10	0	0.1	0	0	333	0.2	332	333	8.5	91.3
2025-10-14T19:28	10	0	0.2	0	0	333	0.2	332	334	8.5	91.1
2025-10-14T19:29	10	0	0.1	0	0	333	0.3	332	334	8.5	91.0
2025-10-14T19:30	10	0	0.1	0	0	333	0.2	333	334	8.5	90.9
2025-10-14T19:31	10	0	0.1	0	0	333	0.2	333	334	8.6	90.7
2025-10-14T19:32	10	0	0.1	0	0	333	0.3	333	334	8.6	90.5
2025-10-14T19:33	10	0	0.1	0	0	333	0.2	332	333	8.6	90.2
2025-10-14T19:34	10	0	0.1	0	0	333	0.3	332	333	8.6	90.1
2025-10-14T19:35	10	0	0.1	0	0	333	0.2	332	333	8.6	90.1
2025-10-14T19:36	10	0	0.1	0	0	332	0.2	332	333	8.6	90.1
2025-10-14T19:37	10	0	0.1	0	0	332	0.2	332	333	8.6	90.2
2025-10-14T19:38	10	0	0.1	0	0	332	0.2	332	333	8.6	90.7
2025-10-14T19:39	10	0	0.1	0	0	332	0.2	332	333	8.5	91.1
2025-10-14T19:40	10	0	0.1	0	0	332	0.3	331	333	8.4	91.4
2025-10-14T19:41	10	0	0.0	0	0	332	0.2	331	332	8.4	91.6
2025-10-14T19:42	10	0	0.1	0	0	332	0.2	331	332	8.3	91.9
2025-10-14T19:43	10	0	0.1	0	0	331	0.3	331	332	8.3	92.3
2025-10-14T19:44	10	0	0.1	0	0	331	0.2	331	332	8.3	92.6
2025-10-14T19:45	10	0	0.1	0	0	331	0.2	331	332	8.3	92.6
2025-10-14T19:46	10	0	0.1	0	0	331	0.2	330	331	8.3	92.6
2025-10-14T19:47	10	0	0.1	0	0	331	0.2	331	332	8.2	92.7
2025-10-14T19:48	10	0	0.1	0	0	331	0.2	331	332	8.2	92.9
2025-10-14T19:49	10	0	0.1	0	0	331	0.2	331	332	8.1	93.2
2025-10-14T19:50	10	0	0.1	0	0	331	0.2	331	332	8.1	93.4
2025-10-14T19:51	10	0	0.1	0	0	331	0.2	331	332	8.1	93.4
2025-10-14T19:52	10	0	0.1	0	0	331	0.3	330	332	8.0	93.4
2025-10-14T19:53	10	0	0.1	0	0	331	0.2	330	332	8.0	93.4
2025-10-14T19:54	10	0	0.1	0	0	331	0.2	330	331	7.9	93.5
2025-10-14T19:55	10	0	0.1	0	0	330	0.2	330	331	7.8	93.8
2025-10-14T19:56	10	0	0.1	0	0	330	0.2	330	331	7.8	94.1
2025-10-14T19:57	10	0	0.1	0	0	330	0.2	329	331	7.7	94.5
2025-10-14T19:58	10	0	0.1	0	0	330	0.3	329	331	7.7	94.9
2025-10-14T19:59	10	0	0.1	0	0	330	0.2	330	331	7.8	94.9
2025-10-14T20:00	10	0	0.0	0	0	330	0.2	330	331	7.8	94.8
2025-10-14T20:01	10	0	0.1	0	0	330	0.2	330	331	7.8	94.8
2025-10-14T20:02	10	0	0.1	0	0	331	0.2	330	331	7.8	94.7
2025-10-14T20:03	10	0	0.1	0	0	331	0.3	330	331	7.8	94.7
2025-10-14T20:04	10	0	0.0	0	0	330	0.2	330	331	7.8	94.9
2025-10-14T20:05	10	0	0.1	0	0	330	0.2	330	331	7.8	94.9
2025-10-14T20:06	10	0	0.1	0	0	330	0.2	330	331	7.8	94.9
2025-10-14T20:07	10	0	0.1	0	0	331	0.2	330	331	7.8	95.0
2025-10-14T20:08	10	0	0.1	0	0	331	0.2	330	331	7.8	95.0
2025-10-14T20:09	10	0	0.1	0	0	331	0.2	330	331	7.8	95.2
2025-10-14T20:10	10	0	0.1	0	0	331	0.2	330	331	7.8	95.5
2025-10-14T20:11	10	0	0.1	0	0	331	0.2	330	331	7.8	95.4
2025-10-14T20:12	10	0	0.1	0	0	331	0.3	330	331	7.9	95.1
2025-10-14T20:13	10	0	0.1	0	0	330	0.3	330	331	7.9	94.8
2025-10-14T20:14	10	0	0.1	0	0	330	0.2	330	330	7.7	95.3
2025-10-14T20:15	10	0	0.0	0	0	330	0.3	330	331	7.6	95.5
2025-10-14T20:16	10	0	0.1	0	0	330	0.2	330	331	7.7	95.5
2025-10-14T20:17	10	0	0.1	0	0	330	0.2	330	331	7.8	95.6
2025-10-14T20:18	10	0	0.1	0	0	330	0.2	330	330	7.8	95.4
2025-10-14T20:19	10	0	0.1	0	0	330	0.2	330	331	7.8	95.4
2025-10-14T20:20	10	0	0.1	0	0	330	0.2	329	330	7.7	95.7
2025-10-14T20:21	10	0	0.1	0	0	330	0.2	329	330	7.6	95.8
2025-10-14T20:22	10	0	0.1	0	0	330	0.2	329	330	7.6	95.6
2025-10-14T20:23	10	0	0.1	0	0	330	0.2	329	330	7.8	95.4
2025-10-14T20:24	10	0	0.1	0	0	330	0.3	329	330	7.8	95.3
2025-10-14T20:25	10	0	0.1	0	0	329	0.2	329	330	7.7	95.4
2025-10-14T20:26	10	0	0.1	0	0	329	0.2	329	330	7.7	95.3
2025-10-14T20:27	10	0	0.1	0	0	329	0.2	328	329	7.7	95.3
2025-10-14T20:28	10	0	0.1	0	0	329	0.2	328	329	7.7	95.3
2025-10-14T20:29	10	0	0.1	0	0	329	0.3	328	330	7.8	95.2
2025-10-14T20:30	10	0	0.1	0	0	329	0.2	329	330	7.9	95.0
2025-10-14T20:31	10	0	0.1	0	0	329	0.2	328	329	8.0	94.8
2025-10-14T20:32	10	0	0.1	0	0	329	0.2	329	329	8.0	94.5
2025-10-14T20:33	10	0	0.1	0	0	329	0.2	328	330	7.9	94.9
2025-10-14T20:34	10	0	0.1	0	0	329	0.3	329	330	7.8	94.8
2025-10-14T20:35	10	0	0.1	0	0	329	0.2	329	329	7.8	94.8
2025-10-14T20:36	10	0	0.1	0	0	329	0.2	328	329	7.6	95.2
2025-10-14T20:37	10	0	0.1	0	0	329	0.2	328	329	7.6	95.0
2025-10-14T20:38	10	0	0.1	0	0	328	0.3	328	329	7.6	95.0
2025-10-14T20:39	10	0	0.1	0	0	328	0.2	328	329	7.6	95.3
2025-10-14T20:40	10	0	0.1	0	0	328	0.2	328	328	7.6	95.3
2025-10-14T20:41	10	0	0.1	0	0	328	0.3	327	329	7.6	95.2
2025-10-14T20:42	10	0	0.1	0	0	328	0.2	328	329	7.7	95.2
2025-10-14T20:43	10	0	0.1	0	0	328	0.3	328	329	7.8	95.2
2025-10-14T20:44	10	0	0.1	0	0	328	0.2	328	329	7.8	95.1
2025-10-14T20:45	10	0	0.1	0	0	328	0.3	328	329	7.8	95.0
2025-10-14T20:46	10	0	0.1	0	0	328	0.3	328	329	7.9	94.8
2025-10-14T20:47	10	0	0.1	0	0	329	0.2	328	329	7.9	94.6
2025-10-14T20:48	10	0	0.1	0	0	329	0.3	328	329	8.0	94.3
2025-10-14T20:49	10	0	0.1	0	0	329	0.2	328	329	8.0	94.0
2025-10-14T20:50	10	0	0.1	0	0	329	0.2	328	329	7.9	94.2
2025-10-14T20:51	10	0	0.1	0	0	329	0.2	328	329	8.0	93.8
2025-10-14T20:52	10	0	0.1	0	0	329	0.2	328	329	8.0	93.9
2025-10-14T20:53	10	0	0.1	0	0	329	0.3	328	329	7.9	93.9
2025-10-14T20:54	10	0	0.1	0	0	329	0.2	328	329	7.8	94.6
2025-10-14T20:55	10	0	0.1	0	0	328	0.3	328	329	7.8	94.8
2025-10-14T20:56	10	0	0.1	0	0	328	0.3	327	328	7.7	94.7
2025-10-14T20:57	10	0	0.1	0	0	328	0.3	327	329	7.6	94.6
2025-10-14T20:58	10	0	0.1	0	0	327	0.3	327	328	7.6	94.9
2025-10-14T20:59	10	0	0.1	0	0	327	0.2	327	327	7.4	95.4
2025-10-14T21:00	10	0	0.1	0	0	327	0.3	327	328	7.4	95.2
2025-10-14T21:01	10	0	0.1	0	0	327	0.2	326	327	7.3	95.3
2025-10-14T21:02	10	0	0.1	0	0	327	0.3	326	328	7.3	95.4
2025-10-14T21:03	10	0	0.1	0	0	327	0.2	327	328	7.3	95.7
2025-10-14T21:04	10	0	0.1	0	0	327	0.2	327	327	7.3	95.9
2025-10-14T21:05	10	0	0.1	0	0	327	0.2	327	328	7.3	96.1
2025-10-14T21:06	10	0	0.1	0	0	327	0.2	327	328	7.3	96.2
2025-10-14T21:07	10	0	0.1	0	0	328	0.2	327	328	7.4	96.3
2025-10-14T21:08	10	0	0.1	0	0	328	0.4	327	329	7.5	95.9
2025-10-14T21:09	10	0	0.1	0	0	328	0.3	328	329	7.6	95.5
2025-10-14T21:10	10	0	0.1	0	0	329	0.2	328	329	7.4	95.8
2025-10-14T21:11	10	0	0.1	0	0	329	0.2	328	329	7.3	96.0
2025-10-14T21:12	10	0	0.1	0	0	329	0.2	329	330	7.3	96.0
2025-10-14T21:13	10	0	0.1	0	0	329	0.3	329	330	7.4	95.7
2025-10-14T21:14	10	0	0.1	0	0	329	0.2	328	329	7.3	95.8
2025-10-14T21:15	10	0	0.1	0	0	329	0.3	328	329	7.3	96.1
2025-10-14T21:16	10	0	0.1	0	0	328	0.2	328	329	7.3	96.2
2025-10-14T21:17	10	0	0.1	0	0	328	0.3	327	329	7.3	96.4
2025-10-14T21:18	10	0	0.1	0	0	328	0.2	327	328	7.2	96.6
2025-10-14T21:19	10	0	0.1	0	0	328	0.2	328	329	7.3	96.5
2025-10-14T21:20	10	0	0.1	0	0	328	0.3	328	329	7.4	96.3
2025-10-14T21:21	10	0	0.1	0	0	328	0.2	328	329	7.3	96.8
2025-10-14T21:22	10	0	0.1	0	0	328	0.3	327	329	7.1	96.8
2025-10-14T21:23	10	0	0.1	0	0	328	0.3	327	328	7.1	97.1
2025-10-14T21:24	10	0	0.1	0	0	328	0.3	327	328	7.2	97.1
2025-10-14T21:25	10	0	0.1	0	0	327	0.3	327	328	7.1	97.4
2025-10-14T21:26	10	0	0.1	0	0	328	0.3	327	328	7.2	97.0
2025-10-14T21:27	10	0	0.1	0	0	327	0.2	327	328	7.1	97.0
2025-10-14T21:28	10	0	0.1	0	0	327	0.3	327	328	7.2	96.7
2025-10-14T21:29	10	0	0.1	0	0	327	0.2	327	328	7.3	96.5
2025-10-14T21:30	10	0	0.1	0	0	327	0.2	326	328	7.2	96.5
2025-10-14T21:31	10	0	0.1	0	0	327	0.2	326	327	7.0	96.6
2025-10-14T21:32	10	0	0.1	0	0	327	0.3	326	327	7.0	96.8
2025-10-14T21:33	10	0	0.1	0	0	327	0.2	326	327	6.9	96.9
2025-10-14T21:34	10	0	0.1	0	0	327	0.2	326	328	6.9	97.0
2025-10-14T21:35	10	0	0.1	0	0	327	0.3	327	328	6.9	97.2
2025-10-14T21:36	10	0	0.1	0	0	327	0.2	327	327	6.7	97.5
2025-10-14T21:37	10	0	0.1	0	0	327	0.2	326	327	6.7	97.3
2025-10-14T21:38	10	0	0.1	0	0	327	0.2	326	327	6.6	97.6
2025-10-14T21:39	10	0	0.1	0	0	327	0.2	326	327	6.6	97.8
2025-10-14T21:40	10	0	0.1	0	0	327	0.3	326	327	6.7	97.7
2025-10-14T21:41	10	0	0.1	0	0	326	0.2	326	327	6.8	97.8
2025-10-14T21:42	10	0	0.1	0	0	326	0.2	326	327	6.8	97.8
2025-10-14T21:43	10	0	0.1	0	0	326	0.2	326	327	6.8	97.5
2025-10-14T21:44	10	0	0.1	0	0	327	0.3	326	327	6.9	97.5
2025-10-14T21:45	10	0	0.0	0	0	327	0.2	326	327	6.9	97.6
2025-10-14T21:46	10	0	0.1	0	0	327	0.2	326	327	6.9	97.6
2025-10-14T21:47	10	0	0.0	0	0	327	0.3	326	328	7.0	97.5
2025-10-14T21:48	10	0	0.1	0	0	327	0.3	327	328	7.0	97.8
2025-10-14T21:49	10	0	0.1	0	0	327	0.2	326	327	7.0	98.2
2025-10-14T21:50	10	0	0.1	0	0	327	0.2	326	327	6.9	98.1
2025-10-14T21:51	10	0	0.1	0	0	327	0.2	326	327	6.9	98.1
2025-10-14T21:52	10	0	0.0	0	0	327	0.2	326	327	7.0	97.8
2025-10-14T21:53	10	0	0.1	0	0	326	0.2	326	327	7.0	97.8
2025-10-14T21:54	10	0	0.1	0	0	326	0.2	326	327	7.0	98.0
2025-10-14T21:55	10	0	0.1	0	0	326	0.2	325	326	7.0	97.8
2025-10-14T21:56	10	0	0.1	0	0	326	0.2	326	326	6.9	98.0
2025-10-14T21:57	10	0	0.1	0	0	326	0.2	325	326	6.9	98.3
2025-10-14T21:58	10	0	0.1	0	0	326	0.2	325	326	6.8	98.4
2025-10-14T21:59	10	0	0.1	0	0	326	0.3	325	326	6.8	98.4
2025-10-14T22:00	10	0	0.1	0	0	325	0.3	325	326	6.8	98.1
2025-10-14T22:01	10	0	0.1	0	0	325	0.3	324	326	6.6	98.3
2025-10-14T22:02	10	0	0.1	0	0	325	0.2	325	325	6.7	97.8
2025-10-14T22:03	10	0	0.1	0	0	325	0.3	324	325	6.8	98.1
2025-10-14T22:04	10	0	0.1	0	0	325	0.2	324	325	6.5	98.7
2025-10-14T22:05	10	0	0.1	0	0	324	0.2	324	325	6.6	98.1
2025-10-14T22:06	10	0	0.1	0	0	324	0.2	323	324	6.5	98.4
2025-10-14T22:07	10	0	0.1	0	0	324	0.2	323	324	6.4	98.4
2025-10-14T22:08	10	0	0.1	0	0	323	0.2	323	324	6.3	98.1
2025-10-14T22:09	10	0	0.1	0	0	323	0.2	323	324	6.3	98.4
2025-10-14T22:10	10	0	0.1	0	0	324	0.2	323	324	6.2	98.6
2025-10-14T22:11	10	0	0.1	0	0	324	0.2	323	324	6.4	98.2
2025-10-14T22:12	10	0	0.1	0	0	324	0.2	323	325	6.5	98.7
2025-10-14T22:13	10	0	0.1	0	0	325	0.3	324	325	6.5	98.8
2025-10-14T22:14	10	0	0.1	0	0	325	0.3	324	326	6.7	98.7
2025-10-14T22:15	10	0	0.1	0	0	325	0.2	325	326	6.8	98.9
2025-10-14T22:16	10	0	0.1	0	0	326	0.3	325	326	6.7	99.1
2025-10-14T22:17	10	0	0.1	0	0	326	0.3	326	327	6.6	98.9
2025-10-14T22:18	10	0	0.1	0	0	327	0.3	326	327	6.6	98.6
2025-10-14T22:19	10	0	0.1	0	0	326	0.2	326	327	6.6	98.6
2025-10-14T22:20	10	0	0.1	0	0	327	0.2	326	327	6.6	98.6
2025-10-14T22:21	10	0	0.1	0	0	326	0.3	325	327	6.6	98.7
2025-10-14T22:22	10	0	0.1	0	0	326	0.4	325	327	6.5	98.8
2025-10-14T22:23	10	0	0.1	0	0	325	0.2	325	326	6.3	99.4
2025-10-14T22:24	10	0	0.1	0	0	325	0.2	324	325	6.3	99.3
2025-10-14T22:25	10	0	0.1	0	0	325	0.2	324	325	6.3	98.6
2025-10-14T22:26	10	0	0.1	0	0	325	0.3	324	325	6.3	98.5
2025-10-14T22:27	10	0	0.1	0	0	325	0.2	325	325	6.4	98.6
2025-10-14T22:28	10	0	0.1	0	0	325	0.2	325	326	6.5	98.6
2025-10-14T22:29	10	0	0.1	0	0	325	0.2	325	326	6.5	98.6
2025-10-14T22:30	10	0	0.1	0	0	325	0.2	325	326	6.5	98.5
2025-10-14T22:31	10	0	0.1	0	0	325	0.2	324	325	6.5	98.2
2025-10-14T22:32	10	0	0.1	0	0	325	0.2	325	325	6.5	98.1
2025-10-14T22:33	10	0	0.1	0	0	325	0.2	325	326	6.5	98.0
2025-10-14T22:34	10	0	0.1	0	0	325	0.2	325	326	6.6	97.7
2025-10-14T22:35	10	0	0.1	0	0	325	0.2	325	326	6.6	97.7
2025-10-14T22:36	10	0	0.1	0	0	326	0.3	325	326	6.6	97.7
2025-10-14T22:37	10	0	0.1	0	0	326	0.3	326	327	6.6	97.8
2025-10-14T22:38	10	0	0.1	0	0	326	0.2	326	327	6.6	97.5
2025-10-14T22:39	10	0	0.1	0	0	326	0.2	326	327	6.6	97.9
2025-10-14T22:40	10	0	0.1	0	0	327	0.4	326	328	6.7	97.3
2025-10-14T22:41	10	0	0.1	0	0	327	0.2	327	328	6.8	97.6
2025-10-14T22:42	10	0	0.1	0	0	327	0.2	326	327	6.8	97.4
2025-10-14T22:43	10	0	0.1	0	1	327	0.2	326	327	6.8	97.2
2025-10-14T22:44	10	0	0.1	0	0	327	0.3	326	327	6.8	97.0
2025-10-14T22:45	10	0	0.1	0	0	327	0.2	326	327	6.8	97.4
2025-10-14T22:46	10	0	0.1	0	0	327	0.3	326	327	6.8	97.1
2025-10-14T22:47	10	0	0.1	0	0	326	0.3	326	327	6.8	97.0
2025-10-14T22:48	10	0	0.1	0	0	326	0.2	326	326	6.7	97.0
2025-10-14T22:49	10	0	0.1	0	0	326	0.3	325	326	6.7	96.8
2025-10-14T22:50	10	0	0.1	0	0	325	0.2	325	326	6.6	97.1
2025-10-14T22:51	10	0	0.1	0	0	325	0.2	325	326	6.6	97.1
2025-10-14T22:52	10	0	0.1	0	0	325	0.3	325	326	6.5	97.4
2025-10-14T22:53	10	0	0.1	0	0	325	0.3	325	326	6.4	97.6
2025-10-14T22:54	10	0	0.2	0	0	325	0.2	324	326	6.3	97.7
2025-10-14T22:55	10	0	0.1	0	0	325	0.3	324	325	6.2	98.0
2025-10-14T22:56	10	0	0.1	0	0	324	0.2	324	325	6.3	98.2
2025-10-14T22:57	10	0	0.1	0	0	325	0.2	324	325	6.3	98.0
2025-10-14T22:58	10	0	0.1	0	0	325	0.3	324	326	6.3	98.5
2025-10-14T22:59	10	0	0.1	0	0	325	0.3	324	326	6.2	98.5
2025-10-14T23:00	10	0	0.2	0	0	325	0.2	324	325	6.2	98.7
2025-10-14T23:01	10	0	0.1	0	0	325	0.3	324	325	6.2	98.5
2025-10-14T23:02	10	0	0.1	0	0	325	0.2	324	325	6.3	98.5
2025-10-14T23:03	10	0	0.2	0	1	325	0.3	324	325	6.2	99.0
2025-10-14T23:04	10	0	0.1	0	0	325	0.2	325	325	6.1	98.9
2025-10-14T23:05	10	0	0.1	0	0	325	0.3	325	326	6.1	98.8
2025-10-14T23:06	10	0	0.2	0	0	325	0.2	325	326	6.2	98.9
2025-10-14T23:07	10	0	0.1	0	0	325	0.2	324	325	6.1	99.1
2025-10-14T23:08	10	0	0.1	0	0	325	0.3	325	326	6.0	98.6
2025-10-14T23:09	10	0	0.1	0	0	325	0.2	325	326	6.2	98.6
2025-10-14T23:10	10	0	0.1	0	0	325	0.3	324	326	6.2	99.2
2025-10-14T23:11	10	0	0.1	0	0	325	0.2	325	325	6.2	99.3
2025-10-14T23:12	10	0	0.2	0	0	325	0.2	324	325	6.2	99.1
2025-10-14T23:13	10	0	0.1	0	0	325	0.2	324	325	6.3	99.3
2025-10-14T23:14	10	0	0.1	0	0	325	0.2	324	325	6.3	99.4
2025-10-14T23:15	10	0	0.1	0	0	325	0.3	324	326	6.3	99.6
2025-10-14T23:16	10	0	0.1	0	0	325	0.3	324	325	6.3	99.5
2025-10-14T23:17	10	0	0.1	0	0	325	0.2	324	325	6.3	99.6
2025-10-14T23:18	10	0	0.1	0	0	324	0.2	324	325	6.3	99.6
2025-10-14T23:19	10	0	0.1	0	0	325	0.2	324	325	6.3	99.3
2025-10-14T23:20	10	0	0.1	0	0	325	0.3	324	325	6.3	99.4
2025-10-14T23:21	10	0	0.1	0	0	325	0.3	324	325	6.3	99.6
2025-10-14T23:22	10	0	0.1	0	0	324	0.3	323	325	6.3	99.6
2025-10-14T23:23	10	0	0.1	0	0	324	0.3	323	324	6.3	99.2
2025-10-14T23:24	10	0	0.1	0	0	324	0.2	323	324	6.2	99.4
2025-10-14T23:25	10	0	0.2	0	1	323	0.2	323	324	6.2	99.7
2025-10-14T23:26	10	0	0.1	0	0	323	0.3	323	324	6.1	99.7
2025-10-14T23:27	10	0	0.1	0	0	323	0.2	323	324	6.2	99.4
2025-10-14T23:28	10	0	0.1	0	0	324	0.3	323	324	6.3	99.1
2025-10-14T23:29	10	0	0.1	0	0	324	0.2	323	324	6.3	98.8
2025-10-14T23:30	10	0	0.1	0	0	324	0.3	324	325	6.3	99.1
2025-10-14T23:31	10	0	0.1	0	0	325	0.2	324	325	6.3	99.2
2025-10-14T23:32	10	0	0.1	0	0	324	0.3	324	325	6.3	99.1
2025-10-14T23:33	10	0	0.1	0	0	324	0.2	324	325	6.3	99.1
2025-10-14T23:34	10	0	0.1	0	0	325	0.3	324	325	6.2	99.1
2025-10-14T23:35	10	0	0.1	0	0	324	0.3	324	325	6.2	99.1
2025-10-14T23:36	10	0	0.1	0	0	324	0.2	324	325	6.2	99.1
2025-10-14T23:37	10	0	0.1	0	0	324	0.3	323	324	6.2	99.3
2025-10-14T23:38	10	0	0.1	0	0	324	0.2	323	324	6.1	99.6
2025-10-14T23:39	10	0	0.1	0	0	323	0.2	323	324	6.1	99.9
2025-10-14T23:40	10	0	0.1	0	0	323	0.2	322	324	6.1	99.9
2025-10-14T23:41	10	0	0.1	-1	0	323	0.2	322	323	6.0	99.4
2025-10-14T23:42	10	0	0.1	0	0	322	0.2	322	323	6.0	99.2
2025-10-14T23:43	10	0	0.1	0	0	323	0.2	322	323	6.0	99.3
2025-10-14T23:44	10	0	0.1	0	0	322	0.3	322	323	6.0	99.2
2025-10-14T23:45	10	0	0.1	0	0	323	0.2	322	323	5.9	99.7
2025-10-14T23:46	10	0	0.1	0	0	323	0.2	322	323	5.9	99.4
2025-10-14T23:47	10	0	0.1	0	0	323	0.3	322	323	5.9	99.3
2025-10-14T23:48	10	0	0.1	0	0	323	0.2	322	323	5.9	99.2
2025-10-14T23:49	10	0	0.1	0	0	323	0.3	323	324	6.0	99.4
2025-10-14T23:50	10	0	0.1	0	0	323	0.2	322	323	6.0	99.6
2025-10-14T23:51	10	0	0.1	0	0	323	0.3	323	324	6.0	99.5
2025-10-14T23:52	10	0	0.1	0	0	323	0.2	323	324	6.0	99.9
2025-10-14T23:53	10	0	0.1	0	0	323	0.2	322	323	6.0	100.0
2025-10-14T23:54	10	0	0.1	0	0	323	0.2	323	323	5.9	99.8
2025-10-14T23:55	10	0	0.1	0	0	323	0.2	323	324	6.0	99.7
2025-10-14T23:56	10	0	0.1	0	0	323	0.2	323	324	6.1	99.7
2025-10-14T23:57	10	0	0.1	0	0	323	0.3	322	324	6.2	99.8
2025-10-14T23:58	10	0	0.1	0	0	323	0.2	322	323	6.2	99.6
2025-10-14T23:59	10	0	0.1	0	0	323	0.3	322	323	6.2	99.8
2025-10-15T00:00	10	0	0.1	0	0	322	0.2	322	323	6.2	99.7
2025-10-15T00:01	10	0	0.1	0	0	322	0.2	322	323	6.2	99.8
2025-10-15T00:02	10	0	0.1	0	0	322	0.2	322	323	6.2	99.8
2025-10-15T00:03	10	0	0.1	0	0	322	0.3	322	323	6.2	99.6
2025-10-15T00:04	10	0	0.1	0	0	323	0.2	322	323	6.3	99.4
2025-10-15T00:05	10	0	0.1	0	0	323	0.2	322	323	6.3	99.3
2025-10-15T00:06	10	0	0.1	0	0	322	0.2	322	323	6.2	99.5
2025-10-15T00:07	10	0	0.1	0	0	322	0.2	322	323	6.2	99.3
2025-10-15T00:08	10	0	0.0	0	0	322	0.2	322	322	6.2	99.4
2025-10-15T00:09	10	0	0.1	0	0	322	0.3	321	323	6.2	99.3
2025-10-15T00:10	10	0	0.1	0	0	322	0.2	321	322	6.2	99.2
2025-10-15T00:11	10	0	0.1	0	0	322	0.2	321	322	6.2	99.3
2025-10-15T00:12	10	0	0.1	0	0	322	0.2	321	322	6.2	99.0
2025-10-15T00:13	10	0	0.0	0	0	322	0.2	321	322	6.2	99.3
2025-10-15T00:14	10	0	0.0	0	0	322	0.3	321	322	6.1	99.3
2025-10-15T00:15	10	0	0.1	0	0	322	0.2	321	322	6.2	99.1
2025-10-15T00:16	10	0	0.1	0	0	321	0.2	321	322	6.1	99.3
2025-10-15T00:17	10	0	0.0	0	0	321	0.4	320	322	6.0	99.5
2025-10-15T00:18	10	0	0.1	0	0	321	0.2	321	322	5.9	99.4
2025-10-15T00:19	10	0	0.1	0	0	321	0.2	321	322	5.9	99.6
2025-10-15T00:20	10	0	0.1	0	0	321	0.3	321	322	5.8	100.1
2025-10-15T00:21	10	0	0.1	0	0	321	0.2	321	322	5.7	99.7
2025-10-15T00:22	10	0	0.1	0	0	322	0.2	321	322	5.6	99.8
2025-10-15T00:23	10	0	0.1	0	0	321	0.2	321	322	5.5	99.7
2025-10-15T00:24	10	0	0.1	0	0	321	0.3	321	322	5.5	99.9
2025-10-15T00:25	10	0	0.0	0	0	321	0.2	321	322	5.5	100.0
2025-10-15T00:26	10	0	0.1	0	0	322	0.3	321	322	5.5	99.8
2025-10-15T00:27	10	0	0.1	0	0	322	0.3	321	322	5.5	99.9
2025-10-15T00:28	10	0	0.1	0	0	322	0.2	321	322	5.5	100.1
2025-10-15T00:29	10	0	0.1	0	0	322	0.3	321	322	5.5	100.0
2025-10-15T00:30	10	0	0.1	0	0	322	0.2	321	322	5.7	99.8
2025-10-15T00:31	10	0	0.1	0	0	322	0.2	321	322	5.8	100.2
2025-10-15T00:32	10	0	0.1	0	0	321	0.3	321	322	5.8	100.6
2025-10-15T00:33	10	0	0.0	0	0	321	0.2	321	322	5.8	100.6
2025-10-15T00:34	10	0	0.1	0	0	322	0.2	321	322	5.8	100.2
2025-10-15T00:35	10	0	0.1	0	0	322	0.3	321	323	5.9	100.4
2025-10-15T00:36	10	0	0.1	0	0	322	0.2	321	322	5.9	100.6
2025-10-15T00:37	10	0	0.1	0	0	321	0.2	321	322	5.8	100.7
2025-10-15T00:38	10	0	0.1	0	0	321	0.2	321	322	5.7	100.6
2025-10-15T00:39	10	0	0.1	0	0	321	0.2	321	322	5.7	100.7
2025-10-15T00:40	10	0	0.1	0	0	321	0.2	320	322	5.7	100.7
2025-10-15T00:41	10	0	0.1	0	0	321	0.2	321	322	5.7	100.9
2025-10-15T00:42	10	0	0.1	0	0	321	0.2	321	322	5.7	100.9
2025-10-15T00:43	10	0	0.1	0	0	321	0.2	320	322	5.7	100.4
2025-10-15T00:44	10	0	0.1	0	0	321	0.2	321	322	5.7	100.4
2025-10-15T00:45	10	0	0.1	0	0	322	0.2	321	322	5.7	100.4
2025-10-15T00:46	10	0	0.1	0	0	321	0.2	321	322	5.6	100.5
2025-10-15T00:47	10	0	0.1	0	0	321	0.2	321	322	5.6	100.5
2025-10-15T00:48	10	0	0.1	0	0	322	0.2	321	322	5.7	100.3
2025-10-15T00:49	10	0	0.1	0	0	322	0.3	321	322	5.7	100.6
2025-10-15T00:50	10	0	0.1	0	0	322	0.3	321	322	5.8	100.7
2025-10-15T00:51	10	0	0.1	0	0	322	0.2	321	322	5.8	100.7
2025-10-15T00:52	10	0	0.1	0	0	322	0.2	322	322	5.8	100.7
2025-10-15T00:53	10	0	0.1	0	0	322	0.2	322	322	5.8	100.6
2025-10-15T00:54	10	0	0.1	0	0	322	0.2	322	323	5.8	100.7
2025-10-15T00:55	10	0	0.1	0	0	322	0.2	322	323	5.8	100.8
2025-10-15T00:56	10	0	0.1	0	0	322	0.2	322	323	5.8	100.8
2025-10-15T00:57	10	0	0.1	0	0	322	0.2	322	323	5.8	100.8
2025-10-15T00:58	10	0	0.0	0	0	322	0.2	322	323	5.8	101.1
2025-10-15T00:59	10	0	0.1	0	0	322	0.2	322	323	5.6	100.7
2025-10-15T01:00	10	0	0.1	0	0	322	0.3	322	323	5.6	100.2
2025-10-15T01:01	10	0	0.1	0	0	322	0.2	322	323	5.7	100.4
2025-10-15T01:02	10	0	0.1	0	0	322	0.3	322	323	5.5	100.9
2025-10-15T01:03	10	0	0.1	0	0	322	0.3	321	323	5.6	100.8
2025-10-15T01:04	10	0	0.0	0	0	322	0.3	321	322	5.6	101.0
2025-10-15T01:05	10	0	0.1	0	0	321	0.3	321	322	5.5	100.9
2025-10-15T01:06	10	0	0.1	0	0	321	0.3	321	322	5.5	100.7
2025-10-15T01:07	10	0	0.1	0	0	321	0.2	321	322	5.4	100.6
2025-10-15T01:08	10	0	0.1	0	0	321	0.2	321	322	5.5	100.7
2025-10-15T01:09	10	0	0.1	0	0	321	0.2	320	321	5.5	101.0
2025-10-15T01:10	10	0	0.1	0	0	321	0.2	320	321	5.4	101.4
2025-10-15T01:11	10	0	0.1	0	0	321	0.1	320	321	5.4	101.2
2025-10-15T01:12	10	0	0.1	0	0	320	0.4	319	321	5.4	101.3
2025-10-15T01:13	10	0	0.1	0	0	319	0.2	319	320	5.1	101.3
2025-10-15T01:14	10	0	0.1	0	0	319	0.2	319	320	5.0	101.1
2025-10-15T01:15	10	0	0.1	0	0	319	0.2	319	319	4.9	100.7
2025-10-15T01:16	10	0	0.1	0	0	319	0.3	318	320	4.9	100.4
2025-10-15T01:17	10	0	0.1	0	0	319	0.3	318	320	4.9	100.8
2025-10-15T01:18	10	0	0.1	0	0	320	0.3	319	320	5.1	100.3
2025-10-15T01:19	10	0	0.1	0	0	320	0.2	319	320	5.3	99.9
2025-10-15T01:20	10	0	0.1	0	0	319	0.2	319	320	5.4	99.7
2025-10-15T01:21	10	0	0.1	0	0	319	0.3	319	320	5.3	99.8
2025-10-15T01:22	10	0	0.1	0	0	320	0.2	319	320	5.4	99.7
2025-10-15T01:23	10	0	0.1	0	0	320	0.2	319	320	5.5	99.8
2025-10-15T01:24	10	0	0.0	0	0	320	0.2	319	320	5.4	100.1
2025-10-15T01:25	10	0	0.1	0	0	320	0.3	319	321	5.5	99.7
2025-10-15T01:26	10	0	0.1	0	0	320	0.3	319	320	5.3	100.8
2025-10-15T01:27	10	0	0.1	0	0	320	0.3	319	320	5.1	100.4
2025-10-15T01:28	10	0	0.1	0	0	319	0.2	319	320	5.1	100.2
2025-10-15T01:29	10	0	0.1	0	0	319	0.2	319	320	5.1	100.3
2025-10-15T01:30	10	0	0.1	0	0	319	0.3	318	320	5.0	100.1
2025-10-15T01:31	10	0	0.1	0	0	320	0.3	319	320	5.1	100.0
2025-10-15T01:32	10	0	0.1	0	0	320	0.2	319	320	5.1	100.0
2025-10-15T01:33	10	0	0.1	0	0	320	0.4	319	321	5.2	99.7
2025-10-15T01:34	10	0	0.1	0	0	321	0.2	320	321	5.3	99.6
2025-10-15T01:35	10	0	0.1	0	0	320	0.2	320	321	5.3	99.9
2025-10-15T01:36	10	0	0.1	0	0	320	0.3	319	321	5.4	100.1
2025-10-15T01:37	10	0	0.1	0	0	320	0.2	319	320	5.4	100.2
2025-10-15T01:38	10	0	0.1	0	0	319	0.3	319	320	5.4	100.3
2025-10-15T01:39	10	0	0.1	0	0	320	0.3	319	320	5.4	100.5
2025-10-15T01:40	10	0	0.1	0	0	320	0.2	319	320	5.4	100.9
2025-10-15T01:41	10	0	0.1	0	0	319	0.2	319	320	5.4	100.9
2025-10-15T01:42	10	0	0.1	0	0	319	0.2	318	319	5.3	101.6
2025-10-15T01:43	10	0	0.0	0	0	319	0.2	318	319	5.2	102.2
2025-10-15T01:44	10	0	0.0	0	0	319	0.2	318	319	5.1	102.0
2025-10-15T01:45	10	0	0.1	0	0	319	0.2	319	320	5.2	100.8
2025-10-15T01:46	10	0	0.1	0	0	320	0.2	319	320	5.3	100.1
2025-10-15T01:47	10	0	0.1	0	0	320	0.3	319	320	5.5	100.0
2025-10-15T01:48	10	0	0.1	0	0	320	0.2	319	320	5.5	100.0
2025-10-15T01:49	10	0	0.1	0	0	320	0.3	319	320	5.5	100.0
2025-10-15T01:50	10	0	0.1	0	0	320	0.3	319	320	5.4	100.2
2025-10-15T01:51	10	0	0.1	0	0	320	0.2	319	320	5.4	100.7
2025-10-15T01:52	10	0	0.1	0	0	320	0.3	320	321	5.3	100.8
2025-10-15T01:53	10	0	0.1	0	0	320	0.2	320	320	5.3	100.2
2025-10-15T01:54	10	0	0.1	0	0	320	0.3	320	321	5.3	100.6
2025-10-15T01:55	10	0	0.1	0	0	321	0.3	320	322	5.1	100.8
2025-10-15T01:56	10	0	0.1	0	0	321	0.2	320	321	5.1	100.6
2025-10-15T01:57	10	0	0.1	0	0	320	0.2	320	321	5.2	100.6
2025-10-15T01:58	10	0	0.1	0	0	320	0.2	320	321	5.2	100.5
2025-10-15T01:59	10	0	0.1	0	0	320	0.2	320	321	5.1	100.7
2025-10-15T02:00	10	0	0.1	0	0	321	0.2	320	321	5.1	100.5
2025-10-15T02:01	10	0	0.1	0	0	321	0.4	320	322	5.0	101.1
2025-10-15T02:02	10	0	0.1	-1	0	321	0.5	320	322	4.7	100.7
2025-10-15T02:03	10	0	0.1	-1	0	322	0.3	321	323	4.8	100.3
2025-10-15T02:04	10	0	0.1	-1	0	322	0.3	321	322	5.0	100.4
2025-10-15T02:05	10	0	0.1	-1	0	322	0.3	321	322	4.9	101.3
2025-10-15T02:06	10	0	0.1	-1	0	322	0.3	321	323	4.9	100.4
2025-10-15T02:07	10	0	0.1	-1	0	322	0.2	322	323	5.1	100.7
2025-10-15T02:08	10	0	0.1	-1	0	322	0.3	321	322	5.2	101.3
2025-10-15T02:09	10	0	0.1	-1	0	322	0.3	321	322	5.1	100.7
2025-10-15T02:10	10	0	0.1	-1	0	322	0.3	321	322	5.3	100.6
2025-10-15T02:11	10	0	0.1	0	0	321	0.4	320	321	5.0	101.3
2025-10-15T02:12	10	0	0.1	-1	0	321	0.2	320	322	5.2	100.6
2025-10-15T02:13	10	0	0.1	0	0	322	0.3	321	322	5.3	100.7
2025-10-15T02:14	10	0	0.1	-1	0	321	0.2	321	322	5.3	100.8
2025-10-15T02:15	10	0	0.1	0	0	321	0.3	320	322	5.3	101.0
2025-10-15T02:16	10	0	0.1	-1	0	321	0.3	321	322	5.2	100.8
2025-10-15T02:17	10	0	0.1	-1	0	321	0.3	320	322	5.1	101.0
2025-10-15T02:18	10	0	0.1	-1	0	321	0.2	321	322	5.2	101.0
2025-10-15T02:19	10	0	0.1	-1	0	321	0.3	321	322	4.9	101.1
2025-10-15T02:20	10	0	0.1	-1	0	321	0.3	321	322	4.9	100.5
2025-10-15T02:21	10	0	0.1	-1	0	321	0.3	321	322	4.8	100.6
2025-10-15T02:22	10	0	0.1	-1	0	321	0.3	320	321	5.1	99.6
2025-10-15T02:23	10	0	0.1	-1	0	320	0.2	320	321	5.0	100.9
2025-10-15T02:24	10	0	0.1	-1	0	320	0.2	319	321	4.8	100.9
2025-10-15T02:25	10	0	0.1	-1	0	320	0.2	320	321	4.8	100.6
2025-10-15T02:26	10	0	0.1	-1	0	320	0.3	319	321	4.9	100.6
2025-10-15T02:27	10	0	0.1	-1	0	320	0.2	319	321	5.0	100.4
2025-10-15T02:28	10	0	0.1	-1	0	320	0.2	320	321	5.2	100.4
2025-10-15T02:29	10	0	0.1	-1	0	320	0.2	320	321	5.3	100.7
2025-10-15T02:30	10	0	0.1	0	0	320	0.3	319	321	5.3	100.7
2025-10-15T02:31	10	0	0.1	-1	0	320	0.2	320	321	5.3	100.8
2025-10-15T02:32	10	0	0.1	0	0	320	0.2	319	321	5.4	100.8
2025-10-15T02:33	10	0	0.1	-1	0	320	0.2	320	321	5.4	100.8
2025-10-15T02:34	10	0	0.1	-1	0	321	0.3	320	321	5.4	100.8
2025-10-15T02:35	10	0	0.1	0	0	320	0.2	320	321	5.4	101.1
2025-10-15T02:36	10	0	0.1	0	0	320	0.4	319	321	5.2	101.3
2025-10-15T02:37	10	0	0.1	0	0	319	0.5	318	320	5.0	100.6
2025-10-15T02:38	10	0	0.1	0	0	319	0.3	318	319	4.9	100.2
2025-10-15T02:39	10	0	0.1	0	0	319	0.3	318	320	4.8	101.2
2025-10-15T02:40	10	0	0.1	0	0	318	0.2	318	319	4.7	100.4
2025-10-15T02:41	10	0	0.1	-1	0	318	0.2	318	319	4.6	100.2
2025-10-15T02:42	10	0	0.1	-1	0	318	0.3	317	319	4.7	100.9
2025-10-15T02:43	10	0	0.1	0	0	318	0.2	318	319	4.7	101.4
2025-10-15T02:44	10	0	0.1	-1	0	318	0.3	317	318	4.6	101.6
2025-10-15T02:45	10	0	0.1	0	0	318	0.2	317	318	4.6	100.9
2025-10-15T02:46	10	0	0.1	0	0	318	0.3	317	318	4.6	101.4
2025-10-15T02:47	10	0	0.1	-1	0	318	0.2	317	319	4.6	101.4
2025-10-15T02:48	10	0	0.1	-1	0	318	0.2	317	319	4.6	101.1
2025-10-15T02:49	10	0	0.1	-1	0	318	0.2	318	319	4.7	100.7
2025-10-15T02:50	10	0	0.1	0	0	318	0.2	317	318	4.6	101.6
2025-10-15T02:51	10	0	0.1	0	0	318	0.3	317	318	4.6	101.9
2025-10-15T02:52	10	0	0.1	0	0	318	0.2	318	318	4.5	101.3
2025-10-15T02:53	10	0	0.1	0	0	318	0.3	317	318	4.5	101.1
2025-10-15T02:54	10	0	0.1	0	0	317	0.2	317	318	4.5	100.8
2025-10-15T02:55	10	0	0.0	0	0	318	0.2	317	318	4.5	100.7
2025-10-15T02:56	10	0	0.1	0	0	317	0.2	317	318	4.5	100.8
2025-10-15T02:57	10	0	0.0	0	0	318	0.2	317	318	4.5	101.1
2025-10-15T02:58	10	0	0.1	0	0	318	0.3	317	318	4.4	101.2
2025-10-15T02:59	10	0	0.1	0	0	318	0.2	317	318	4.4	101.2
2025-10-15T03:00	10	0	0.0	0	0	318	0.2	317	319	4.4	101.0
2025-10-15T03:01	10	0	0.1	0	0	318	0.2	317	318	4.5	100.8
2025-10-15T03:02	10	0	0.1	0	0	318	0.2	317	318	4.5	100.7
2025-10-15T03:03	10	0	0.1	0	0	318	0.3	317	319	4.5	100.6
2025-10-15T03:04	10	0	0.1	0	0	318	0.2	318	319	4.5	100.5
2025-10-15T03:05	10	0	0.1	0	0	318	0.2	318	319	4.5	100.2
2025-10-15T03:06	10	0	0.1	0	0	318	0.2	318	319	4.5	100.2
2025-10-15T03:07	10	0	0.1	0	0	318	0.2	318	319	4.5	100.5
2025-10-15T03:08	10	0	0.1	0	0	319	0.2	318	319	4.5	100.6
2025-10-15T03:09	10	0	0.1	0	0	319	0.2	318	319	4.5	100.5
2025-10-15T03:10	10	0	0.1	-1	0	319	0.2	319	319	4.6	100.6
2025-10-15T03:11	10	0	0.1	0	0	319	0.2	319	319	4.6	100.7
2025-10-15T03:12	10	0	0.1	0	0	319	0.2	319	320	4.6	100.6
2025-10-15T03:13	10	0	0.1	0	0	319	0.3	319	320	4.7	100.7
2025-10-15T03:14	10	0	0.1	0	0	320	0.2	319	320	4.7	101.0
2025-10-15T03:15	10	0	0.1	0	0	320	0.2	320	321	4.6	101.4
2025-10-15T03:16	10	0	0.1	0	0	320	0.2	320	321	4.5	101.2
2025-10-15T03:17	10	0	0.1	0	0	320	0.2	320	321	4.5	100.7
2025-10-15T03:18	10	0	0.1	0	0	320	0.3	320	321	4.5	100.5
2025-10-15T03:19	10	0	0.1	0	0	320	0.3	320	321	4.6	100.6
2025-10-15T03:20	10	0	0.1	0	0	321	0.2	320	321	4.6	100.9
2025-10-15T03:21	10	0	0.1	0	0	320	0.2	320	321	4.7	100.8
2025-10-15T03:22	10	0	0.0	0	0	320	0.2	320	321	4.8	100.8
2025-10-15T03:23	10	0	0.1	0	0	320	0.2	319	320	4.9	100.8
2025-10-15T03:24	10	0	0.1	0	0	320	0.3	319	321	4.9	101.2
2025-10-15T03:25	10	0	0.1	0	0	320	0.2	319	320	4.9	102.0
2025-10-15T03:26	10	0	0.1	0	0	320	0.3	319	320	4.8	102.1
2025-10-15T03:27	10	0	0.1	0	0	320	0.3	319	321	4.8	101.9
2025-10-15T03:28	10	0	0.1	0	0	319	0.3	319	320	4.7	101.8
2025-10-15T03:29	10	0	0.1	0	0	319	0.2	319	320	4.6	101.4
2025-10-15T03:30	10	0	0.1	0	0	320	0.2	319	320	4.7	101.1
2025-10-15T03:31	10	0	0.1	0	0	320	0.3	319	320	4.7	101.1
2025-10-15T03:32	10	0	0.1	0	0	320	0.2	319	320	4.8	101.0
2025-10-15T03:33	10	0	0.1	0	0	320	0.2	319	320	4.9	100.8
2025-10-15T03:34	10	0	0.1	0	0	319	0.2	319	319	4.9	100.7
2025-10-15T03:35	10	0	0.1	0	0	319	0.4	318	320	4.9	101.1
2025-10-15T03:36	10	0	0.0	0	0	319	0.2	318	319	4.8	100.9
2025-10-15T03:37	10	0	0.1	0	0	318	0.3	318	319	4.6	100.8
2025-10-15T03:38	10	0	0.1	0	0	318	0.2	318	319	4.6	101.2
2025-10-15T03:39	10	0	0.1	0	0	318	0.2	318	319	4.6	101.2
2025-10-15T03:40	10	0	0.1	0	0	318	0.4	317	319	4.5	100.9
2025-10-15T03:41	10	0	0.1	0	0	318	0.2	318	318	4.4	101.5
2025-10-15T03:42	10	0	0.1	0	0	318	0.2	318	319	4.3	101.9
2025-10-15T03:43	10	0	0.1	0	0	318	0.2	318	319	4.2	101.9
2025-10-15T03:44	10	0	0.0	0	0	318	0.2	318	319	4.2	101.8
2025-10-15T03:45	10	0	0.1	-1	0	319	0.4	318	319	4.2	101.2
2025-10-15T03:46	10	0	0.1	-1	0	319	0.3	318	320	4.1	100.7
2025-10-15T03:47	10	0	0.1	-1	0	320	0.4	319	320	4.1	100.9
2025-10-15T03:48	10	0	0.1	-1	0	320	0.3	320	321	4.2	100.9
2025-10-15T03:49	10	0	0.1	-1	0	320	0.3	320	321	4.2	101.3
2025-10-15T03:50	10	0	0.1	0	0	320	0.2	320	321	4.3	101.2
2025-10-15T03:51	10	0	0.0	-1	0	320	0.3	320	321	4.4	101.0
2025-10-15T03:52	10	0	0.1	0	0	321	0.2	321	322	4.5	100.6
2025-10-15T03:53	10	0	0.1	0	0	321	0.3	321	322	4.5	100.7
2025-10-15T03:54	10	0	0.1	0	0	321	0.2	321	322	4.5	101.0
2025-10-15T03:55	10	0	0.1	0	0	322	0.4	321	323	4.4	101.2
2025-10-15T03:56	10	0	0.0	0	0	322	0.2	321	323	4.4	101.3
2025-10-15T03:57	10	0	0.1	0	0	322	0.3	321	323	4.5	101.5
2025-10-15T03:58	10	0	0.1	0	0	322	0.2	321	322	4.5	101.8
2025-10-15T03:59	10	0	0.1	0	0	322	0.2	321	322	4.5	101.6
2025-10-15T04:00	10	0	0.1	0	0	322	0.2	322	323	4.4	101.3
2025-10-15T04:01	10	0	0.1	0	0	322	0.3	322	323	4.2	101.2
2025-10-15T04:02	10	0	0.1	-1	0	322	0.2	322	323	4.1	100.6
2025-10-15T04:03	10	0	0.1	-1	0	322	0.3	321	323	4.1	100.7
2025-10-15T04:04	10	0	0.1	-1	0	321	0.2	321	322	4.2	100.8
2025-10-15T04:05	10	0	0.1	-1	0	322	0.2	321	322	4.2	100.9
2025-10-15T04:06	10	0	0.1	-1	0	322	0.2	321	322	4.2	101.4
2025-10-15T04:07	10	0	0.1	-1	0	322	0.2	322	322	4.2	101.7
2025-10-15T04:08	10	0	0.1	-1	0	322	0.2	321	322	4.2	102.4
2025-10-15T04:09	10	0	0.1	0	0	322	0.2	321	322	4.2	102.4
2025-10-15T04:10	10	0	0.1	-1	0	322	0.2	322	322	4.2	102.1
2025-10-15T04:11	10	0	0.1	-1	0	322	0.2	321	322	4.2	102.0
2025-10-15T04:12	10	0	0.0	0	0	322	0.2	322	322	4.3	101.8
2025-10-15T04:13	10	0	0.1	-1	0	322	0.2	321	322	4.3	102.1
2025-10-15T04:14	10	0	0.1	0	0	322	0.2	321	322	4.3	102.0
2025-10-15T04:15	10	0	0.0	0	0	321	0.3	320	321	4.3	101.3
2025-10-15T04:16	10	0	0.1	0	0	321	0.3	320	321	4.3	101.6
2025-10-15T04:17	10	0	0.1	0	0	320	0.2	320	320	4.2	102.5
2025-10-15T04:18	10	0	0.1	0	0	320	0.3	319	320	4.2	102.3
2025-10-15T04:19	10	0	0.1	0	0	320	0.2	319	320	4.2	102.0
2025-10-15T04:20	10	0	0.1	0	0	320	0.2	319	320	4.2	101.5
2025-10-15T04:21	10	0	0.1	0	0	320	0.2	319	320	4.3	100.9
2025-10-15T04:22	10	0	0.1	-1	0	320	0.2	319	320	4.4	100.8
2025-10-15T04:23	10	0	0.1	0	0	320	0.2	320	321	4.5	100.9
2025-10-15T04:24	10	0	0.1	0	0	320	0.2	320	321	4.6	101.0
2025-10-15T04:25	10	0	0.1	0	0	320	0.2	320	321	4.6	101.0
2025-10-15T04:26	10	0	0.1	0	0	320	0.2	320	321	4.7	101.3
2025-10-15T04:27	10	0	0.1	0	0	320	0.3	319	321	4.6	101.6
2025-10-15T04:28	10	0	0.1	0	0	319	0.4	319	320	4.5	101.7
2025-10-15T04:29	10	0	0.1	0	0	319	0.2	319	320	4.3	101.1
2025-10-15T04:30	10	0	0.1	0	0	320	0.3	319	320	4.4	100.5
2025-10-15T04:31	10	0	0.1	0	0	320	0.3	319	321	4.5	100.6
2025-10-15T04:32	10	0	0.1	0	0	321	0.3	320	321	4.5	100.7
2025-10-15T04:33	10	0	0.1	0	0	321	0.2	320	321	4.4	100.8
2025-10-15T04:34	10	0	0.1	0	0	321	0.2	321	322	4.5	100.6
2025-10-15T04:35	10	0	0.0	0	0	321	0.2	321	322	4.5	101.0
2025-10-15T04:36	10	0	0.1	0	0	321	0.4	320	322	4.5	101.4
2025-10-15T04:37	10	0	0.1	0	0	320	0.3	319	321	4.3	102.1
2025-10-15T04:38	10	0	0.1	0	0	321	0.4	320	322	4.1	101.4
2025-10-15T04:39	10	0	0.1	-1	0	321	0.2	321	322	4.2	101.4
2025-10-15T04:40	10	0	0.1	-1	0	321	0.2	321	321	4.2	101.7
2025-10-15T04:41	10	0	0.1	-1	0	321	0.2	320	321	4.1	101.4
2025-10-15T04:42	10	0	0.1	-1	0	321	0.4	320	321	4.1	101.0
2025-10-15T04:43	10	0	0.1	0	0	321	0.3	321	322	4.2	100.9
2025-10-15T04:44	10	0	0.1	-1	0	321	0.3	321	322	4.2	101.0
2025-10-15T04:45	10	0	0.0	0	0	321	0.2	321	322	4.3	101.3
2025-10-15T04:46	10	0	0.1	0	0	322	0.2	321	322	4.3	101.6
2025-10-15T04:47	10	0	0.1	0	0	322	0.2	321	322	4.1	102.5
2025-10-15T04:48	10	0	0.1	0	0	323	0.4	322	323	4.0	102.4
2025-10-15T04:49	10	0	0.1	0	0	323	0.4	323	324	4.1	102.4
2025-10-15T04:50	10	0	0.1	0	0	324	0.2	323	324	4.1	102.1
2025-10-15T04:51	10	0	0.1	0	0	324	0.3	323	325	3.9	100.9
2025-10-15T04:52	10	0	0.1	0	0	325	0.3	324	326	4.1	101.1
2025-10-15T04:53	10	0	0.1	0	0	325	0.2	324	325	4.2	101.3
2025-10-15T04:54	10	0	0.1	0	0	325	0.3	325	326	4.2	101.8
2025-10-15T04:55	10	0	0.1	0	0	326	0.2	325	326	4.3	102.0
2025-10-15T04:56	10	0	0.1	0	0	326	0.3	325	326	4.3	102.3
2025-10-15T04:57	10	0	0.1	0	0	326	0.2	325	326	4.1	102.1
2025-10-15T04:58	10	0	0.1	0	0	326	0.3	325	327	4.1	101.4
2025-10-15T04:59	10	0	0.1	0	0	327	0.4	326	328	4.1	100.8
2025-10-15T05:00	10	0	0.1	0	0	327	0.2	326	327	4.2	100.9
2025-10-15T05:01	10	0	0.1	0	0	327	0.3	326	327	4.2	100.9
2025-10-15T05:02	10	0	0.1	-1	0	327	0.2	326	327	4.2	101.3
2025-10-15T05:03	10	0	0.1	-1	0	327	0.3	326	327	4.1	101.3
2025-10-15T05:04	10	0	0.1	-1	0	327	0.2	326	328	4.0	101.3
2025-10-15T05:05	10	0	0.1	0	0	327	0.2	327	327	3.9	101.2
2025-10-15T05:06	10	0	0.1	0	0	327	0.2	327	328	3.8	101.1
2025-10-15T05:07	10	0	0.1	-1	0	327	0.2	327	328	3.8	101.3
2025-10-15T05:08	10	0	0.1	-1	0	328	0.2	327	328	3.8	101.3
2025-10-15T05:09	10	0	0.1	-1	0	328	0.3	327	328	3.8	101.6
2025-10-15T05:10	10	0	0.1	0	0	328	0.2	327	328	3.7	101.7
2025-10-15T05:11	10	0	0.1	0	0	328	0.2	327	328	3.7	101.6
2025-10-15T05:12	10	0	0.1	0	0	328	0.2	327	328	3.7	101.5
2025-10-15T05:13	10	0	0.1	0	0	328	0.2	327	328	3.7	102.1
2025-10-15T05:14	10	0	0.1	-1	0	328	0.2	328	328	3.6	101.7
2025-10-15T05:15	10	0	0.1	0	0	328	0.2	327	329	3.6	101.1
2025-10-15T05:16	10	0	0.1	0	0	328	0.3	328	329	3.6	101.1
2025-10-15T05:17	10	0	0.1	0	0	329	0.2	328	329	3.6	100.9
2025-10-15T05:18	10	0	0.1	0	0	329	0.2	329	329	3.7	100.9
2025-10-15T05:19	10	0	0.1	0	0	329	0.2	329	330	3.7	101.1
2025-10-15T05:20	10	0	0.0	0	0	329	0.2	329	330	3.7	100.9
2025-10-15T05:21	10	0	0.1	0	0	330	0.2	329	330	3.7	100.9
2025-10-15T05:22	10	0	0.1	0	0	330	0.3	329	331	3.8	100.9
2025-10-15T05:23	10	0	0.1	0	0	330	0.2	329	330	3.8	101.4
2025-10-15T05:24	10	0	0.1	0	0	330	0.2	330	331	3.9	101.0
2025-10-15T05:25	10	0	0.1	0	0	331	0.2	330	331	4.0	100.7
2025-10-15T05:26	10	0	0.1	0	0	331	0.2	330	331	4.0	101.0
2025-10-15T05:27	10	0	0.1	0	0	331	0.2	330	331	4.0	101.6
2025-10-15T05:28	10	0	0.1	0	0	331	0.3	330	332	4.0	102.1
2025-10-15T05:29	10	0	0.0	0	0	331	0.2	331	332	4.0	101.7
2025-10-15T05:30	10	0	0.1	0	0	332	0.2	331	332	4.0	101.4
2025-10-15T05:31	10	0	0.1	0	0	332	0.2	331	332	4.0	101.7
2025-10-15T05:32	10	0	0.0	0	0	332	0.2	331	332	3.9	101.7
2025-10-15T05:33	10	0	0.1	0	0	332	0.2	332	332	3.9	101.3
2025-10-15T05:34	10	0	0.1	0	0	332	0.2	332	333	3.9	101.5
2025-10-15T05:35	10	0	0.1	0	0	333	0.2	332	333	4.0	101.0
2025-10-15T05:36	10	0	0.1	0	0	333	0.2	332	333	4.0	101.3
2025-10-15T05:37	10	0	0.0	0	0	333	0.2	333	333	4.0	101.4
2025-10-15T05:38	10	0	0.1	0	0	333	0.2	333	334	4.0	101.5
2025-10-15T05:39	10	0	0.1	0	0	333	0.2	333	334	4.1	101.1
2025-10-15T05:40	10	0	0.1	0	0	334	0.2	333	334	4.2	101.4
2025-10-15T05:41	10	0	0.1	0	0	334	0.2	333	334	4.2	101.4
2025-10-15T05:42	10	0	0.0	0	0	334	0.2	333	334	4.2	101.0
2025-10-15T05:43	10	0	0.1	0	0	334	0.2	334	335	4.2	101.2
2025-10-15T05:44	10	0	0.0	0	0	334	0.2	334	335	4.2	101.3
2025-10-15T05:45	10	0	0.1	0	0	335	0.2	334	335	4.2	101.8
2025-10-15T05:46	10	0	0.0	0	0	335	0.2	334	335	4.2	101.6
2025-10-15T05:47	10	0	0.0	0	0	335	0.2	334	335	4.3	101.9
2025-10-15T05:48	10	0	0.0	0	0	335	0.2	335	336	4.4	101.8
2025-10-15T05:49	10	0	0.0	0	0	335	0.2	335	336	4.5	101.6
2025-10-15T05:50	10	0	0.0	0	0	336	0.2	335	336	4.5	101.7
2025-10-15T05:51	10	0	0.0	0	0	336	0.2	335	336	4.5	101.8
2025-10-15T05:52	10	0	0.1	0	0	336	0.2	336	336	4.5	101.9
2025-10-15T05:53	10	0	0.1	0	0	336	0.3	335	336	4.6	101.6
2025-10-15T05:54	10	0	0.1	0	0	336	0.2	336	337	4.6	101.7
2025-10-15T05:55	10	0	0.0	0	0	336	0.2	336	337	4.6	101.6
2025-10-15T05:56	10	0	0.0	0	1	337	0.2	336	337	4.6	101.4
2025-10-15T05:57	10	0	0.1	0	1	337	0.2	336	337	4.6	101.8
2025-10-15T05:58	10	0	0.1	0	1	337	0.2	336	337	4.6	101.9
2025-10-15T05:59	10	1	0.1	0	1	337	0.2	337	338	4.6	101.4
2025-10-15T06:00	10	1	0.1	1	1	337	0.3	337	338	4.6	101.3
2025-10-15T06:01	10	1	0.1	1	1	337	0.3	336	338	4.6	101.2
2025-10-15T06:02	10	1	0.1	1	1	337	0.3	337	338	4.6	101.2
2025-10-15T06:03	10	1	0.1	1	1	337	0.2	337	338	4.6	101.3
2025-10-15T06:04	10	1	0.1	1	1	337	0.2	337	338	4.6	101.4
2025-10-15T06:05	10	1	0.1	1	1	337	0.2	337	338	4.6	101.9
2025-10-15T06:06	10	1	0.0	1	1	337	0.2	337	338	4.6	101.8
2025-10-15T06:07	10	1	0.1	1	1	338	0.2	337	338	4.6	101.7
2025-10-15T06:08	10	1	0.1	1	1	338	0.2	337	338	4.6	101.3
2025-10-15T06:09	10	1	0.1	1	1	338	0.3	337	339	4.5	101.1
2025-10-15T06:10	10	1	0.1	1	1	338	0.3	337	338	4.6	101.0
2025-10-15T06:11	10	1	0.1	1	1	338	0.3	337	339	4.6	101.2
2025-10-15T06:12	10	1	0.1	1	1	338	0.2	338	339	4.6	101.2
2025-10-15T06:13	10	1	0.1	1	1	338	0.2	338	339	4.6	101.5
2025-10-15T06:14	10	1	0.1	1	1	339	0.2	338	339	4.6	101.4
2025-10-15T06:15	10	1	0.1	1	2	339	0.3	338	339	4.6	101.1
2025-10-15T06:16	10	2	0.1	2	2	339	0.2	339	339	4.6	101.0
2025-10-15T06:17	10	2	0.1	2	2	339	0.2	339	340	4.7	101.2
2025-10-15T06:18	10	2	0.1	2	3	339	0.3	339	340	4.7	101.3
2025-10-15T06:19	10	3	0.1	2	3	339	0.2	339	340	4.7	101.0
2025-10-15T06:20	10	3	0.1	3	3	340	0.2	339	340	4.7	101.1
2025-10-15T06:21	10	3	0.1	3	3	340	0.2	339	340	4.8	100.9
2025-10-15T06:22	10	3	0.1	3	3	340	0.2	339	340	4.8	100.9
2025-10-15T06:23	10	3	0.1	2	3	340	0.2	339	340	4.8	101.3
2025-10-15T06:24	10	2	0.1	2	3	340	0.3	340	341	4.8	101.3
2025-10-15T06:25	10	2	0.1	2	2	340	0.2	339	340	4.8	101.0
2025-10-15T06:26	10	2	0.0	2	2	340	0.2	339	340	4.8	101.2
2025-10-15T06:27	10	2	0.1	2	2	340	0.2	340	341	4.9	101.6
2025-10-15T06:28	10	3	0.1	2	3	340	0.2	340	341	4.8	101.4
2025-10-15T06:29	10	3	0.1	3	3	341	0.2	340	341	4.9	101.3
2025-10-15T06:30	10	3	0.1	3	3	341	0.2	340	341	4.9	101.0
2025-10-15T06:31	10	3	0.1	3	3	341	0.3	340	341	4.9	101.1
2025-10-15T06:32	10	3	0.1	3	3	341	0.2	341	342	4.9	101.1
2025-10-15T06:33	10	3	0.2	3	4	341	0.2	341	341	5.0	100.8
2025-10-15T06:34	10	4	0.2	4	4	341	0.3	340	342	4.9	100.6
2025-10-15T06:35	10	4	0.2	4	5	341	0.2	341	342	4.9	100.7
2025-10-15T06:36	10	5	0.1	5	5	341	0.2	341	342	4.9	100.7
2025-10-15T06:37	10	5	0.1	5	5	341	0.2	341	342	4.9	100.8
2025-10-15T06:38	10	5	0.1	5	6	342	0.2	341	342	4.9	100.8
2025-10-15T06:39	10	6	0.1	5	6	342	0.2	341	342	5.0	100.6
2025-10-15T06:40	10	6	0.1	5	6	342	0.2	342	343	5.0	100.9
2025-10-15T06:41	10	5	0.2	5	6	342	0.2	342	343	5.1	101.2
2025-10-15T06:42	10	5	0.2	4	5	342	0.2	342	343	5.1	101.6
2025-10-15T06:43	10	4	0.1	4	4	342	0.3	342	343	5.1	101.7
2025-10-15T06:44	10	4	0.2	3	4	342	0.2	342	343	5.2	102.0
2025-10-15T06:45	10	3	0.1	3	4	343	0.2	342	343	5.1	101.4
2025-10-15T06:46	10	3	0.1	3	3	342	0.2	342	343	5.1	101.1
2025-10-15T06:47	10	3	0.1	3	3	342	0.2	342	343	5.2	101.1
2025-10-15T06:48	10	3	0.1	3	3	342	0.2	342	343	5.2	100.4
2025-10-15T06:49	10	3	0.1	3	3	342	0.3	342	343	5.2	100.0
2025-10-15T06:50	10	3	0.2	3	4	342	0.2	341	342	5.1	100.3
2025-10-15T06:51	10	4	0.1	4	4	342	0.2	342	343	5.1	100.6
2025-10-15T06:52	10	4	0.1	4	4	342	0.2	342	342	5.1	100.7
2025-10-15T06:53	10	4	0.1	4	4	342	0.3	341	343	5.1	100.7
2025-10-15T06:54	10	4	0.1	4	4	342	0.2	342	343	5.1	100.8
2025-10-15T06:55	10	4	0.1	4	4	342	0.2	342	343	5.1	100.7
2025-10-15T06:56	10	4	0.1	4	5	342	0.2	342	343	5.1	100.8
2025-10-15T06:57	10	5	0.1	5	5	342	0.2	342	343	5.2	100.9
2025-10-15T06:58	10	5	0.1	5	5	343	0.3	342	343	5.2	101.1
2025-10-15T06:59	10	5	0.1	5	5	343	0.3	342	343	5.2	101.3
2025-10-15T07:00	10	5	0.1	4	5	343	0.2	342	343	5.2	101.3
2025-10-15T07:01	10	5	0.1	5	5	343	0.2	342	343	5.2	101.2
2025-10-15T07:02	10	5	0.1	5	5	343	0.2	343	344	5.2	101.2
2025-10-15T07:03	10	5	0.1	5	5	343	0.2	343	344	5.3	101.4
2025-10-15T07:04	10	5	0.1	5	5	343	0.2	342	344	5.3	101.3
2025-10-15T07:05	10	5	0.1	5	6	343	0.2	343	344	5.3	100.9
2025-10-15T07:06	10	6	0.1	5	6	343	0.2	343	344	5.3	101.0
2025-10-15T07:07	10	6	0.1	6	6	343	0.3	343	344	5.3	94.2
2025-10-15T07:08	10	6	0.2	6	7	344	0.2	343	344	5.3	97.6
2025-10-15T07:09	10	7	0.1	7	7	344	0.3	343	345	5.3	101.0
2025-10-15T07:10	10	7	0.1	7	7	344	0.3	344	345	5.3	101.0
2025-10-15T07:11	10	7	0.1	7	7	344	0.2	344	345	5.3	101.0
2025-10-15T07:12	10	7	0.2	7	8	344	0.3	344	345	5.3	101.0
2025-10-15T07:13	10	8	0.2	8	8	345	0.3	344	345	5.3	100.6
2025-10-15T07:14	10	9	0.2	8	9	345	0.2	345	346	5.5	98.0
2025-10-15T07:15	10	9	0.1	9	9	345	0.2	345	346	5.5	98.3
2025-10-15T07:16	10	9	0.1	9	9	345	0.2	345	346	5.5	98.4
2025-10-15T07:17	10	9	0.2	9	10	345	0.2	345	346	5.5	99.0
2025-10-15T07:18	10	10	0.2	10	10	346	0.3	345	346	5.5	99.6
2025-10-15T07:19	10	10	0.1	10	10	346	0.2	345	346	5.5	99.9
2025-10-15T07:20	10	10	0.2	10	11	346	0.2	346	347	5.5	100.0
2025-10-15T07:21	10	11	0.3	11	12	346	0.2	346	347	5.5	100.1
2025-10-15T07:22	10	12	0.2	12	12	347	0.2	346	347	5.6	99.9
2025-10-15T07:23	10	13	0.3	12	13	347	0.3	346	348	5.6	100.3
2025-10-15T07:24	10	13	0.2	13	14	348	0.2	347	348	5.7	100.9
2025-10-15T07:25	10	14	0.3	14	15	348	0.2	347	348	5.7	100.6
2025-10-15T07:26	10	15	0.1	15	15	348	0.2	348	349	5.7	100.5
2025-10-15T07:27	10	15	0.2	15	16	348	0.2	348	349	5.8	100.5
2025-10-15T07:28	10	16	0.2	16	17	349	0.2	349	350	5.8	100.3
2025-10-15T07:29	10	17	0.2	17	17	349	0.2	349	350	5.8	100.1
2025-10-15T07:30	10	18	0.2	17	18	350	0.2	349	350	5.8	100.3
2025-10-15T07:31	10	18	0.1	17	18	350	0.2	349	350	5.9	99.8
2025-10-15T07:32	10	17	0.3	17	18	350	0.2	349	350	6.0	100.0
2025-10-15T07:33	10	16	0.2	16	17	350	0.2	349	350	6.0	100.1
2025-10-15T07:34	10	15	0.3	15	16	350	0.2	350	351	6.0	99.8
2025-10-15T07:35	10	14	0.2	14	15	350	0.4	349	350	5.9	99.7
2025-10-15T07:36	10	14	0.2	13	14	349	0.2	349	350	5.9	99.5
2025-10-15T07:37	10	14	0.1	14	14	349	0.2	349	350	5.9	100.1
2025-10-15T07:38	10	14	0.2	14	15	349	0.3	349	350	6.0	100.8
2025-10-15T07:39	10	16	0.5	15	17	350	0.2	349	350	6.0	100.2
2025-10-15T07:40	10	17	0.3	16	18	350	0.3	349	351	6.1	99.9
2025-10-15T07:41	10	18	0.2	18	18	350	0.2	350	351	6.0	99.5
2025-10-15T07:42	10	18	0.1	18	18	351	0.2	350	351	6.0	99.3
2025-10-15T07:43	10	18	0.1	18	18	351	0.2	350	351	6.0	99.3
2025-10-15T07:44	10	18	0.3	17	18	351	0.2	350	351	6.1	99.1
2025-10-15T07:45	10	17	0.2	17	17	351	0.2	350	352	6.2	99.1
2025-10-15T07:46	10	17	0.1	17	18	351	0.3	350	351	6.3	99.7
2025-10-15T07:47	10	18	0.1	17	18	351	0.2	350	351	6.2	100.0
2025-10-15T07:48	10	17	0.2	17	18	351	0.2	351	351	6.2	99.9
2025-10-15T07:49	10	17	0.2	17	18	351	0.2	351	352	6.2	99.2
2025-10-15T07:50	10	19	0.6	18	20	351	0.2	351	352	6.3	99.4
2025-10-15T07:51	10	20	0.1	20	20	352	0.3	351	352	6.3	99.5
2025-10-15T07:52	10	20	0.1	20	20	352	0.3	352	353	6.4	99.8
2025-10-15T07:53	10	20	0.1	20	21	352	0.4	351	352	6.3	98.6
2025-10-15T07:54	10	21	0.2	21	21	352	0.2	352	352	6.4	98.4
2025-10-15T07:55	10	21	0.1	21	22	352	0.2	352	353	6.4	98.5
2025-10-15T07:56	10	22	0.2	22	23	352	0.2	352	353	6.4	98.9
2025-10-15T07:57	10	22	0.2	22	22	353	0.2	352	353	6.4	98.6
2025-10-15T07:58	10	21	0.2	21	22	352	0.2	352	353	6.5	98.7
2025-10-15T07:59	10	21	0.3	20	21	352	0.4	351	353	6.5	97.9
2025-10-15T08:00	10	21	0.5	20	22	352	0.3	351	352	6.5	97.4
2025-10-15T08:01	10	23	0.3	22	23	351	0.2	351	352	6.5	97.4
2025-10-15T08:02	10	23	0.3	22	24	352	0.3	351	353	6.6	97.5
2025-10-15T08:03	10	23	0.5	22	24	353	0.4	352	353	6.7	97.9
2025-10-15T08:04	10	25	0.8	24	26	353	0.2	353	353	6.7	98.2
2025-10-15T08:05	10	26	0.2	26	26	353	0.2	353	353	6.6	97.4
2025-10-15T08:06	10	25	0.2	25	26	353	0.3	352	353	6.6	97.1
2025-10-15T08:07	10	25	0.3	24	25	353	0.3	352	353	6.7	97.0
2025-10-15T08:08	10	24	0.2	24	25	352	0.3	352	353	6.7	97.1
2025-10-15T08:09	10	24	0.1	23	24	353	0.5	352	354	6.8	97.4
2025-10-15T08:10	10	24	0.3	24	25	353	0.2	353	354	6.8	96.9
2025-10-15T08:11	10	25	0.3	24	25	354	0.2	353	354	6.8	97.0
2025-10-15T08:12	10	24	0.2	23	25	354	0.3	353	354	6.9	97.0
2025-10-15T08:13	10	25	0.4	24	26	354	0.2	353	354	6.9	97.3
2025-10-15T08:14	10	26	0.1	25	26	354	0.2	354	355	6.9	96.9
2025-10-15T08:15	10	26	0.2	25	26	354	0.3	354	355	6.9	96.9
2025-10-15T08:16	10	25	0.3	24	25	354	0.3	353	354	6.9	96.2
2025-10-15T08:17	10	25	0.7	24	27	354	0.2	353	354	6.9	96.4
2025-10-15T08:18	10	27	0.4	27	28	354	0.3	353	355	6.9	96.4
2025-10-15T08:19	10	27	0.5	26	28	354	0.2	354	355	7.0	97.0
2025-10-15T08:20	10	26	0.1	26	26	354	0.3	353	355	7.0	96.4
2025-10-15T08:21	10	26	0.2	25	26	354	0.3	354	355	7.1	96.8
2025-10-15T08:22	10	26	0.4	25	27	355	0.2	354	355	7.1	96.7
2025-10-15T08:23	10	28	0.4	27	28	354	0.3	353	354	7.0	95.8
2025-10-15T08:24	10	28	0.2	27	28	354	0.2	353	354	7.0	96.0
2025-10-15T08:25	10	27	0.1	27	28	353	0.2	353	354	7.0	95.9
2025-10-15T08:26	10	28	0.8	27	30	354	0.3	353	355	7.1	96.4
2025-10-15T08:27	10	31	0.7	30	32	355	0.4	354	356	7.1	96.5
2025-10-15T08:28	10	32	0.1	32	32	355	0.2	355	356	7.1	96.3
2025-10-15T08:29	10	32	0.1	32	33	356	0.2	355	356	7.2	96.2
2025-10-15T08:30	10	32	0.1	32	32	357	0.3	356	357	7.2	96.4
2025-10-15T08:31	10	32	0.1	32	33	356	0.2	356	357	7.2	96.3
2025-10-15T08:32	10	32	0.2	32	33	357	0.2	356	357	7.2	96.2
2025-10-15T08:33	10	31	0.3	31	32	357	0.2	356	357	7.2	95.9
2025-10-15T08:34	10	31	0.1	30	31	356	0.2	356	357	7.2	96.2
2025-10-15T08:35	10	30	0.6	29	31	357	0.3	356	357	7.2	96.1
2025-10-15T08:36	10	30	0.8	29	32	357	0.3	356	358	7.3	96.2
2025-10-15T08:37	10	33	0.6	32	34	357	0.3	357	358	7.3	96.3
2025-10-15T08:38	10	34	0.1	33	34	358	0.3	357	358	7.3	95.9
2025-10-15T08:39	10	33	0.2	33	34	357	0.5	356	358	7.4	95.2
2025-10-15T08:40	10	33	0.1	33	33	356	0.5	355	357	7.4	94.8
2025-10-15T08:41	10	32	0.5	31	33	356	0.3	355	356	7.4	94.9
2025-10-15T08:42	10	31	0.2	30	31	357	0.3	356	358	7.5	95.8
2025-10-15T08:43	10	30	0.1	30	31	357	0.2	356	357	7.6	95.6
2025-10-15T08:44	10	30	0.2	30	30	357	0.3	356	357	7.6	94.9
2025-10-15T08:45	10	29	0.4	28	30	356	0.3	356	357	7.6	94.8
2025-10-15T08:46	10	28	0.2	28	29	357	0.3	356	357	7.6	94.8
2025-10-15T08:47	10	29	0.4	29	30	357	0.2	356	357	7.7	94.6
2025-10-15T08:48	10	30	0.1	30	30	356	0.2	356	357	7.6	94.2
2025-10-15T08:49	10	30	0.1	30	30	356	0.3	355	357	7.6	94.5
2025-10-15T08:50	10	30	0.1	30	31	356	0.2	355	356	7.6	94.1
2025-10-15T08:51	10	31	0.2	30	31	356	0.2	356	357	7.7	94.4
2025-10-15T08:52	10	31	0.1	31	32	357	0.3	356	357	7.7	94.6
2025-10-15T08:53	10	32	0.1	31	32	357	0.3	356	357	7.8	94.8
2025-10-15T08:54	10	32	0.1	32	32	357	0.2	357	357	7.8	94.4
2025-10-15T08:55	10	32	0.1	31	32	357	0.3	357	358	7.8	94.4
2025-10-15T08:56	10	32	0.3	32	33	358	0.3	357	359	7.8	94.8
2025-10-15T08:57	10	33	0.5	33	34	358	0.2	358	359	7.9	94.4
2025-10-15T08:58	10	35	0.6	34	36	357	0.4	356	358	7.8	93.6
2025-10-15T08:59	10	37	0.3	36	37	357	0.2	357	358	7.8	93.6
2025-10-15T09:00	10	37	0.1	37	38	358	0.2	357	358	7.8	93.3
2025-10-15T09:01	10	39	0.8	37	40	358	0.3	357	359	7.9	93.6
2025-10-15T09:02	10	42	0.9	40	43	359	0.5	358	360	7.9	93.7
2025-10-15T09:03	10	43	0.2	43	43	359	0.3	359	360	8.0	93.6
2025-10-15T09:04	10	43	0.1	43	43	360	0.3	359	361	8.1	93.9
2025-10-15T09:05	10	43	0.1	43	43	361	0.2	360	361	8.1	93.6
2025-10-15T09:06	10	43	0.2	42	43	361	0.2	360	361	8.1	93.4
2025-10-15T09:07	10	41	0.8	40	42	360	0.2	360	361	8.1	93.3
2025-10-15T09:08	10	40	0.1	39	40	360	0.4	360	361	8.1	93.3
2025-10-15T09:09	10	39	0.1	39	40	360	0.2	359	360	8.1	92.9
2025-10-15T09:10	10	38	0.4	38	39	361	0.4	360	362	8.3	93.9
2025-10-15T09:11	10	38	0.1	37	38	361	0.3	360	362	8.3	93.5
2025-10-15T09:12	10	38	0.5	38	39	360	0.5	359	361	8.2	92.6
2025-10-15T09:13	10	40	0.6	39	41	361	0.3	360	361	8.2	92.5
2025-10-15T09:14	10	43	0.7	41	44	362	0.3	361	362	8.3	93.1
2025-10-15T09:15	10	45	0.5	44	45	362	0.3	361	362	8.2	92.4
2025-10-15T09:16	10	46	0.4	45	47	361	0.3	361	362	8.2	92.4
2025-10-15T09:17	10	45	0.8	44	47	362	0.3	361	363	8.3	92.7
2025-10-15T09:18	10	44	0.1	44	44	362	0.4	361	363	8.3	91.5
2025-10-15T09:19	10	44	0.3	43	44	362	0.3	361	362	8.3	91.9
2025-10-15T09:20	10	43	0.2	42	43	362	0.2	361	362	8.4	91.9
2025-10-15T09:21	10	43	0.2	42	43	362	0.2	361	362	8.4	91.7
2025-10-15T09:22	10	43	0.3	43	44	362	0.3	362	363	8.4	91.4
2025-10-15T09:23	10	44	0.2	44	44	362	0.4	362	363	8.4	91.4
2025-10-15T09:24	10	43	0.1	43	44	362	0.3	361	362	8.4	90.9
2025-10-15T09:25	10	43	0.1	43	43	361	0.3	361	362	8.5	90.5
2025-10-15T09:26	10	44	0.5	43	45	361	0.3	361	362	8.5	90.3
2025-10-15T09:27	10	46	0.7	45	47	362	0.3	361	362	8.4	90.2
2025-10-15T09:28	10	48	0.4	47	49	362	0.3	361	363	8.5	90.4
2025-10-15T09:29	10	48	0.1	48	49	364	0.4	363	364	8.6	90.8
2025-10-15T09:30	10	48	0.1	48	49	364	0.4	363	365	8.6	89.9
2025-10-15T09:31	10	48	0.1	48	48	363	0.3	363	364	8.6	89.9
2025-10-15T09:32	10	47	0.5	46	48	364	0.2	364	365	8.7	90.4
2025-10-15T09:33	10	45	0.7	44	46	364	0.3	363	364	8.8	90.1
2025-10-15T09:34	10	43	0.4	42	44	364	0.2	363	364	8.7	89.5
2025-10-15T09:35	10	42	0.2	42	42	363	0.4	362	364	8.7	89.2
2025-10-15T09:36	10	42	0.1	42	42	363	0.2	363	364	8.7	89.2
2025-10-15T09:37	10	42	0.1	41	42	362	0.3	362	363	8.7	88.7
2025-10-15T09:38	10	41	0.3	40	41	363	0.3	362	363	8.7	88.9
2025-10-15T09:39	10	40	0.3	39	41	363	0.2	363	363	8.8	89.1
2025-10-15T09:40	10	39	0.1	39	40	364	0.3	363	364	8.9	89.7
2025-10-15T09:41	10	39	0.1	39	40	363	0.3	362	364	8.8	88.9
2025-10-15T09:42	10	39	0.3	39	40	362	0.3	362	363	8.8	88.7
2025-10-15T09:43	10	40	0.5	39	41	363	0.2	362	363	8.8	88.9
2025-10-15T09:44	10	40	0.6	39	41	363	0.4	362	363	8.9	88.4
2025-10-15T09:45	10	38	0.4	37	39	362	0.3	361	363	8.9	88.2
2025-10-15T09:46	10	40	0.7	38	41	364	0.2	363	364	9.0	89.0
2025-10-15T09:47	10	40	0.4	39	41	364	0.3	363	365	8.9	87.3
2025-10-15T09:48	10	38	0.9	36	39	363	0.4	362	364	8.9	87.7
2025-10-15T09:49	10	34	1.4	32	36	363	0.2	362	363	8.9	88.2
2025-10-15T09:50	10	32	0.3	32	32	363	0.3	363	364	9.0	88.7
2025-10-15T09:51	10	33	0.4	33	34	363	0.3	362	364	9.1	88.6
2025-10-15T09:52	10	33	0.3	33	34	363	0.4	363	364	9.1	88.3
2025-10-15T09:53	10	35	1.1	33	37	363	0.3	362	364	9.1	87.5
2025-10-15T09:54	10	37	0.2	37	37	363	0.5	362	364	9.0	87.4
2025-10-15T09:55	10	37	0.1	37	37	364	0.3	364	365	9.2	88.4
2025-10-15T09:56	10	36	0.7	35	37	363	0.3	362	364	9.2	87.2
2025-10-15T09:57	10	35	0.2	35	35	363	0.2	363	364	9.2	87.5
2025-10-15T09:58	10	35	0.2	34	35	363	0.4	362	364	9.2	87.4
2025-10-15T09:59	10	34	0.2	34	34	363	0.2	362	363	9.1	87.0
2025-10-15T10:00	10	34	0.1	33	34	363	0.3	363	364	9.2	87.8
2025-10-15T10:01	10	34	0.1	33	34	364	0.3	363	365	9.3	87.5
2025-10-15T10:02	10	34	0.1	33	34	363	0.3	363	364	9.2	87.1
2025-10-15T10:03	10	33	0.1	33	34	363	0.3	362	363	9.2	86.7
2025-10-15T10:04	10	33	0.1	33	34	362	0.2	362	363	9.2	86.5
2025-10-15T10:05	10	34	0.1	33	34	361	0.3	361	362	9.1	86.2
2025-10-15T10:06	10	33	0.4	32	33	362	0.2	361	362	9.1	86.6
2025-10-15T10:07	10	31	0.3	31	32	362	0.2	361	362	9.2	86.5
2025-10-15T10:08	10	31	0.1	31	31	363	0.4	362	364	9.3	87.0
2025-10-15T10:09	10	32	0.1	31	32	363	0.3	362	364	9.3	86.7
2025-10-15T10:10	10	32	0.2	31	32	363	0.3	362	364	9.3	87.0
2025-10-15T10:11	10	30	0.6	29	31	363	0.3	363	364	9.3	86.6
2025-10-15T10:12	10	28	0.4	28	29	362	0.3	362	363	9.2	86.3
2025-10-15T10:13	10	28	0.1	27	28	361	0.3	361	362	9.2	86.2
2025-10-15T10:14	10	27	0.1	27	28	362	0.3	361	363	9.2	86.8
2025-10-15T10:15	10	28	0.3	28	29	362	0.5	361	363	9.3	86.7
2025-10-15T10:16	10	28	0.2	28	29	362	0.4	361	363	9.3	86.8
2025-10-15T10:17	10	27	0.3	27	28	362	0.5	362	363	9.3	86.0
2025-10-15T10:18	10	28	0.7	27	29	362	0.3	362	363	9.3	86.3
2025-10-15T10:19	10	30	0.3	29	30	362	0.2	362	363	9.3	86.4
2025-10-15T10:20	10	30	0.1	30	30	362	0.5	361	363	9.3	86.2
2025-10-15T10:21	10	31	0.6	30	32	362	0.2	361	362	9.3	86.3
2025-10-15T10:22	10	34	1.0	32	36	363	0.3	362	363	9.4	86.4
2025-10-15T10:23	10	37	1.0	35	39	364	0.6	363	365	9.4	86.3
2025-10-15T10:24	10	40	1.1	39	42	366	0.3	365	366	9.4	86.3
2025-10-15T10:25	10	44	0.9	43	46	365	0.4	365	366	9.4	85.6
2025-10-15T10:26	10	47	0.4	46	47	366	0.5	365	367	9.5	86.2
2025-10-15T10:27	10	47	0.3	46	47	366	0.5	365	367	9.5	85.7
2025-10-15T10:28	10	46	0.3	45	46	367	0.2	366	367	9.6	85.2
2025-10-15T10:29	10	46	0.2	46	46	367	0.6	366	368	9.5	84.9
2025-10-15T10:30	10	45	0.3	45	46	366	0.3	365	367	9.5	84.8
2025-10-15T10:31	10	45	0.2	44	45	366	0.2	365	366	9.5	84.7
2025-10-15T10:32	10	45	0.2	44	45	367	0.3	366	367	9.6	84.9
2025-10-15T10:33	10	45	0.4	45	46	367	0.3	366	367	9.6	84.4
2025-10-15T10:34	10	47	0.5	46	48	367	0.4	366	368	9.7	84.9
2025-10-15T10:35	10	48	0.2	48	49	367	0.4	367	368	9.7	84.3
2025-10-15T10:36	10	48	0.2	48	49	368	0.2	368	369	9.7	84.4
2025-10-15T10:37	10	48	0.2	48	49	368	0.4	367	369	9.7	83.9
2025-10-15T10:38	10	49	0.3	48	50	367	0.3	366	368	9.7	83.8
2025-10-15T10:39	10	49	0.2	49	50	367	0.4	366	368	9.6	83.0
2025-10-15T10:40	10	49	0.2	48	49	367	0.3	366	368	9.6	83.3
2025-10-15T10:41	10	48	0.2	48	49	368	0.6	367	370	9.7	83.8
2025-10-15T10:42	10	48	0.3	47	48	369	0.2	369	370	9.9	83.8
2025-10-15T10:43	10	46	0.5	45	47	370	0.2	369	370	9.9	83.4
2025-10-15T10:44	10	45	0.3	45	46	370	0.4	369	371	9.9	83.4
2025-10-15T10:45	10	44	0.5	43	45	369	0.6	367	370	9.8	83.3
2025-10-15T10:46	10	43	0.3	42	43	367	0.3	367	368	9.7	83.5
2025-10-15T10:47	10	42	0.2	42	43	367	0.4	366	367	9.7	83.2
2025-10-15T10:48	10	41	0.2	41	42	367	0.4	366	368	9.7	83.2
2025-10-15T10:49	10	41	0.2	41	42	367	0.3	367	368	9.8	82.2
2025-10-15T10:50	10	42	0.2	42	42	367	0.3	366	367	9.8	81.5
2025-10-15T10:51	10	42	0.1	42	43	367	0.3	366	368	9.8	81.2
2025-10-15T10:52	10	42	0.2	42	43	366	0.4	365	367	9.8	80.8
2025-10-15T10:53	10	43	0.1	42	43	366	0.2	365	366	9.8	80.9
2025-10-15T10:54	10	43	0.1	43	43	366	0.3	366	367	9.9	81.3
2025-10-15T10:55	10	43	0.1	43	43	367	0.3	366	368	9.9	81.6
2025-10-15T10:56	10	43	0.2	42	43	367	0.4	366	368	9.8	81.0
2025-10-15T10:57	10	42	0.1	42	43	368	0.3	367	369	9.9	80.9
2025-10-15T10:58	10	42	0.1	42	42	367	0.3	366	368	9.8	80.9
2025-10-15T10:59	10	42	0.1	42	43	368	0.3	367	368	9.8	81.4
2025-10-15T11:00	10	42	0.1	42	42	367	0.2	367	368	9.8	81.0
2025-10-15T11:01	10	42	0.1	42	42	369	0.3	368	369	9.9	81.8
2025-10-15T11:02	10	42	0.1	42	42	369	0.3	368	369	10.0	81.3
2025-10-15T11:03	10	42	0.1	42	42	368	0.4	367	369	10.0	81.4
2025-10-15T11:04	10	42	0.1	41	42	368	0.5	366	368	10.0	80.9
2025-10-15T11:05	10	41	0.1	41	42	367	0.2	367	368	9.8	80.4
2025-10-15T11:06	10	42	0.3	42	43	368	0.4	367	369	9.8	80.8
2025-10-15T11:07	10	43	0.1	43	43	369	0.3	368	370	9.9	81.2
2025-10-15T11:08	10	43	0.1	43	43	369	0.3	368	370	10.0	80.6
2025-10-15T11:09	10	43	0.1	43	43	368	0.5	367	369	9.9	79.4
2025-10-15T11:10	10	42	0.4	42	43	367	0.4	366	368	9.8	79.1
2025-10-15T11:11	10	41	0.4	40	42	367	0.3	366	367	9.9	80.0
2025-10-15T11:12	10	40	0.2	40	40	367	0.3	366	367	9.9	80.8
2025-10-15T11:13	10	40	0.1	40	40	367	0.2	366	367	9.9	80.3
2025-10-15T11:14	10	40	0.2	39	40	366	0.3	366	367	9.9	80.1
2025-10-15T11:15	10	39	0.3	38	40	367	0.4	366	368	9.9	80.0
2025-10-15T11:16	10	38	0.4	37	38	367	0.4	366	368	9.9	79.9
2025-10-15T11:17	10	36	0.3	36	37	367	0.3	366	367	10.0	80.0
2025-10-15T11:18	10	36	0.1	36	36	366	0.4	365	367	9.9	79.1
2025-10-15T11:19	10	36	0.1	36	36	366	0.2	365	366	9.9	79.0
2025-10-15T11:20	10	36	0.2	36	37	366	0.2	365	366	9.9	79.1
2025-10-15T11:21	10	37	0.2	37	37	367	0.3	366	367	9.9	79.2
2025-10-15T11:22	10	37	0.1	37	37	367	0.5	366	367	10.0	78.7
2025-10-15T11:23	10	36	0.6	35	37	366	0.3	365	367	9.9	78.3
2025-10-15T11:24	10	34	0.8	32	35	366	0.3	365	366	9.9	78.6
2025-10-15T11:25	10	32	0.4	31	32	365	0.4	364	366	9.9	78.8
2025-10-15T11:26	10	31	0.1	31	31	364	0.3	364	365	9.9	78.6
2025-10-15T11:27	10	31	0.1	31	32	365	0.2	365	365	9.9	78.8
2025-10-15T11:28	10	32	0.2	31	32	365	0.3	364	365	9.9	78.8
2025-10-15T11:29	10	32	0.2	32	33	365	0.2	364	365	9.9	78.9
2025-10-15T11:30	10	33	0.1	33	33	365	0.3	365	366	9.9	78.7
2025-10-15T11:31	10	33	0.2	33	34	364	0.3	364	365	9.9	78.5
2025-10-15T11:32	10	35	0.8	34	36	365	0.2	364	365	9.9	78.4
2025-10-15T11:33	10	38	1.0	36	39	366	0.4	365	366	9.9	78.9
2025-10-15T11:34	10	41	0.5	40	41	366	0.3	366	367	9.9	79.8
2025-10-15T11:35	10	42	0.3	41	42	366	0.3	365	367	9.8	79.5
2025-10-15T11:36	10	43	0.3	42	43	367	0.3	366	368	9.9	79.6
2025-10-15T11:37	10	43	0.1	43	44	368	0.6	367	369	10.0	79.7
2025-10-15T11:38	10	43	0.3	42	43	369	0.2	368	369	10.0	79.4
2025-10-15T11:39	10	42	0.1	42	42	368	0.4	367	369	9.9	79.4
2025-10-15T11:40	10	42	0.4	42	43	367	0.5	366	368	9.9	79.6
2025-10-15T11:41	10	44	0.5	43	45	367	0.4	366	367	9.9	79.7
2025-10-15T11:42	10	45	0.1	45	45	368	0.5	367	369	9.9	79.6
2025-10-15T11:43	10	44	0.5	43	45	368	0.6	366	369	9.8	78.8
2025-10-15T11:44	10	42	0.5	42	43	368	0.3	367	369	9.9	79.6
2025-10-15T11:45	10	41	0.4	40	42	369	0.4	368	369	10.0	80.3
2025-10-15T11:46	10	40	0.2	39	40	369	0.4	368	370	10.1	80.2
2025-10-15T11:47	10	39	0.3	38	39	368	0.6	367	369	10.0	79.5
2025-10-15T11:48	10	38	0.4	37	38	367	0.3	367	368	10.0	79.5
2025-10-15T11:49	10	36	0.5	35	37	368	0.2	367	368	10.0	79.8
2025-10-15T11:50	10	34	0.6	33	35	366	0.6	365	368	10.0	79.0
2025-10-15T11:51	10	32	0.6	31	33	366	0.2	365	366	10.0	79.3
2025-10-15T11:52	10	30	0.4	29	31	366	0.4	365	367	10.0	79.5
2025-10-15T11:53	10	29	0.1	29	30	366	0.2	365	366	9.9	79.9
2025-10-15T11:54	10	29	0.1	29	29	365	0.2	365	366	9.9	80.2
2025-10-15T11:55	10	29	0.2	28	29	366	0.4	365	367	10.0	80.5
2025-10-15T11:56	10	28	0.2	27	28	365	0.3	364	366	10.0	80.2
2025-10-15T11:57	10	27	0.1	27	27	365	0.3	364	365	9.9	80.3
2025-10-15T11:58	10	28	0.2	27	28	365	0.3	364	366	10.0	80.2
2025-10-15T11:59	10	28	0.2	28	29	365	0.4	364	365	10.0	80.3
2025-10-15T12:00	10	29	0.2	29	29	366	0.3	365	367	10.0	80.6
2025-10-15T12:01	10	30	0.1	29	30	365	0.5	364	366	10.0	79.7
2025-10-15T12:02	10	29	0.1	29	29	364	0.3	363	365	9.9	79.1
2025-10-15T12:03	10	29	0.1	28	29	364	0.2	364	364	9.9	79.4
2025-10-15T12:04	10	28	0.2	28	29	364	0.2	364	365	9.9	79.6
2025-10-15T12:05	10	28	0.1	27	28	364	0.2	363	364	10.0	79.5
2025-10-15T12:06	10	28	0.1	27	28	364	0.2	364	364	9.9	79.3
2025-10-15T12:07	10	28	0.1	28	28	365	0.4	364	365	10.0	79.6
2025-10-15T12:08	10	28	0.1	28	28	364	0.2	364	365	9.9	79.3
2025-10-15T12:09	10	28	0.1	28	28	364	0.3	363	365	9.9	79.3
2025-10-15T12:10	10	29	0.1	28	29	364	0.3	363	364	9.9	79.3
2025-10-15T12:11	10	29	0.2	29	29	364	0.2	363	364	9.9	79.4
2025-10-15T12:12	10	29	0.1	29	30	364	0.3	363	364	9.9	79.3
2025-10-15T12:13	10	30	0.1	29	30	364	0.3	363	364	9.9	79.7
2025-10-15T12:14	10	30	0.1	30	30	364	0.2	364	365	9.9	79.7
2025-10-15T12:15	10	29	0.2	29	30	364	0.2	364	365	9.9	79.1
2025-10-15T12:16	10	29	0.2	29	30	364	0.3	364	365	9.9	78.8
2025-10-15T12:17	10	31	0.5	30	32	365	0.2	364	365	10.0	78.9
2025-10-15T12:18	10	33	0.5	32	34	365	0.2	365	366	10.0	78.8
2025-10-15T12:19	10	34	0.2	33	34	365	0.3	364	366	9.9	78.8
2025-10-15T12:20	10	34	0.1	34	34	365	0.3	364	366	10.0	78.9
2025-10-15T12:21	10	34	0.4	33	35	366	0.3	365	366	10.0	78.7
2025-10-15T12:22	10	32	0.6	31	33	365	0.4	364	366	10.0	78.5
2025-10-15T12:23	10	30	0.4	30	31	365	0.3	364	365	10.0	78.5
2025-10-15T12:24	10	30	0.1	29	30	365	0.2	364	365	10.1	78.8
2025-10-15T12:25	10	30	0.3	30	31	365	0.3	365	366	10.1	78.9
2025-10-15T12:26	10	31	0.4	31	32	366	0.4	365	366	10.1	78.7
2025-10-15T12:27	10	33	0.2	32	33	365	0.3	365	366	10.1	78.8
2025-10-15T12:28	10	33	0.2	33	33	366	0.3	365	366	10.1	78.6
2025-10-15T12:29	10	33	0.1	33	34	365	0.4	364	366	10.0	78.2
2025-10-15T12:30	10	33	0.2	33	34	364	0.3	364	365	9.9	78.0
2025-10-15T12:31	10	33	0.1	33	33	365	0.3	365	366	10.0	78.6
2025-10-15T12:32	10	33	0.1	32	33	365	0.3	365	366	10.0	78.5
2025-10-15T12:33	10	32	0.1	32	33	366	0.3	365	366	10.1	78.5
2025-10-15T12:34	10	32	0.4	31	32	366	0.2	365	366	10.1	78.4
2025-10-15T12:35	10	30	0.5	29	31	365	0.3	364	366	10.1	78.5
2025-10-15T12:36	10	29	0.1	29	29	365	0.3	364	365	10.0	78.9
2025-10-15T12:37	10	29	0.1	28	29	365	0.3	364	366	10.0	79.0
2025-10-15T12:38	10	29	0.1	29	29	365	0.3	364	366	10.1	79.0
2025-10-15T12:39	10	29	0.2	28	29	366	0.3	365	367	10.1	79.1
2025-10-15T12:40	10	28	0.1	28	28	366	0.2	366	367	10.2	79.3
2025-10-15T12:41	10	28	0.1	28	29	366	0.5	365	366	10.1	78.0
2025-10-15T12:42	10	29	0.4	28	30	365	0.2	365	366	10.2	78.3
2025-10-15T12:43	10	30	0.2	29	30	365	0.2	365	366	10.1	78.4
2025-10-15T12:44	10	30	0.1	30	30	365	0.3	365	366	10.1	78.6
2025-10-15T12:45	10	31	0.5	30	32	366	0.3	365	366	10.1	78.0
2025-10-15T12:46	10	33	0.5	32	33	366	0.3	365	367	10.2	78.3
2025-10-15T12:47	10	33	0.2	33	34	366	0.3	366	367	10.2	77.2
2025-10-15T12:48	10	32	0.2	32	33	366	0.2	366	366	10.1	77.0
2025-10-15T12:49	10	33	0.4	32	34	366	0.2	366	367	10.2	77.3
2025-10-15T12:50	10	35	1.1	34	37	366	0.2	366	367	10.2	77.2
2025-10-15T12:51	10	40	1.3	37	42	367	0.2	366	367	10.2	77.7
2025-10-15T12:52	10	45	2.0	42	49	368	0.7	366	369	10.3	78.2
2025-10-15T12:53	10	53	2.0	49	56	370	0.7	368	371	10.3	78.1
2025-10-15T12:54	10	54	1.4	51	56	371	0.3	370	371	10.2	77.1
2025-10-15T12:55	10	47	2.6	43	51	370	0.3	369	371	10.2	76.9
2025-10-15T12:56	10	39	1.7	37	42	369	0.4	368	370	10.3	77.0
2025-10-15T12:57	10	36	0.3	35	37	368	0.3	368	369	10.3	76.8
2025-10-15T12:58	10	36	0.2	35	36	368	0.2	368	368	10.4	77.2
2025-10-15T12:59	10	37	0.6	36	38	367	0.5	366	368	10.3	76.8
2025-10-15T13:00	10	40	1.1	38	42	367	0.4	366	368	10.3	76.9
2025-10-15T13:01	10	42	0.5	41	43	368	0.2	367	368	10.3	77.4
2025-10-15T13:02	10	40	0.4	39	41	368	0.2	367	368	10.3	77.1
2025-10-15T13:03	10	41	1.3	39	44	368	0.3	368	369	10.4	78.0
2025-10-15T13:04	10	47	2.0	44	50	368	0.3	368	369	10.4	77.5
2025-10-15T13:05	10	53	1.0	50	54	370	0.5	369	370	10.4	77.9
2025-10-15T13:06	10	52	1.3	49	54	370	0.3	370	371	10.4	77.4
2025-10-15T13:07	10	48	0.7	47	49	370	0.3	370	371	10.4	77.2
2025-10-15T13:08	10	46	0.4	45	47	369	0.3	368	370	10.4	74.7
2025-10-15T13:09	10	42	2.2	38	45	368	0.4	367	369	10.4	74.7
2025-10-15T13:10	10	36	1.4	34	38	367	0.5	366	368	10.4	74.6
2025-10-15T13:11	10	37	2.7	34	43	366	0.3	365	367	10.4	74.7
2025-10-15T13:12	10	54	9.3	43	85	367	0.9	365	369	10.4	74.7
2025-10-15T13:13	10	82	18.0	63	108	372	1.2	368	373	10.4	75.0
2025-10-15T13:14	10	68	1.9	64	72	373	0.3	372	373	10.5	75.4
2025-10-15T13:15	10	69	1.5	67	73	373	0.4	372	374	10.5	75.3
2025-10-15T13:16	10	81	8.6	72	102	375	1.0	373	377	10.5	74.6
2025-10-15T13:17	10	71	11.8	60	96	376	1.0	373	377	10.5	74.5
2025-10-15T13:18	10	57	1.0	56	60	373	0.7	372	374	10.5	73.9
2025-10-15T13:19	10	56	0.4	55	56	373	0.3	372	374	10.5	74.6
2025-10-15T13:20	10	53	1.2	51	55	372	0.6	372	374	10.5	74.7
2025-10-15T13:21	10	49	1.3	47	51	373	0.3	372	373	10.5	75.0
2025-10-15T13:22	10	46	0.2	46	47	373	0.3	373	374	10.7	75.2
2025-10-15T13:23	10	46	0.1	46	46	373	0.4	372	374	10.7	75.6
2025-10-15T13:24	10	45	0.3	45	46	373	0.2	372	373	10.8	76.1
2025-10-15T13:25	10	45	0.4	44	46	373	0.3	373	374	10.8	75.4
2025-10-15T13:26	10	47	0.8	46	48	374	0.4	374	375	10.8	74.2
2025-10-15T13:27	10	49	0.5	48	50	373	0.7	373	375	10.8	75.1
2025-10-15T13:28	10	49	0.6	48	50	373	0.3	372	373	10.7	74.7
2025-10-15T13:29	10	46	0.4	46	47	372	0.4	371	373	10.6	74.1
2025-10-15T13:30	10	46	0.5	45	46	371	0.2	371	372	10.6	74.5
2025-10-15T13:31	10	43	0.5	43	45	372	0.3	371	372	10.7	75.7
2025-10-15T13:32	10	42	0.3	42	43	372	0.3	371	372	10.6	74.4
2025-10-15T13:33	10	42	0.1	41	42	372	0.3	371	372	10.7	75.2
2025-10-15T13:34	10	42	0.1	42	42	372	0.2	371	372	10.8	74.9
2025-10-15T13:35	10	42	0.2	42	43	372	0.3	372	373	10.9	74.9
2025-10-15T13:36	10	43	0.2	43	43	372	0.4	371	373	10.8	73.9
2025-10-15T13:37	10	43	0.2	43	44	371	0.2	371	372	10.7	73.8
2025-10-15T13:38	10	42	0.6	41	43	371	0.2	371	372	10.7	74.1
2025-10-15T13:39	10	40	0.7	38	41	371	0.3	370	371	10.7	74.2
2025-10-15T13:40	10	37	0.8	36	38	371	0.2	370	371	10.7	74.6
2025-10-15T13:41	10	35	0.4	34	36	370	0.3	370	371	10.7	74.8
2025-10-15T13:42	10	34	0.2	34	34	370	0.5	369	371	10.7	74.0
2025-10-15T13:43	10	34	0.1	34	34	369	0.3	368	370	10.6	73.5
2025-10-15T13:44	10	34	0.1	34	34	369	0.4	368	370	10.6	74.2
2025-10-15T13:45	10	35	0.4	34	35	370	0.3	369	371	10.7	75.1
2025-10-15T13:46	10	36	0.4	35	37	371	0.4	370	371	10.7	74.4
2025-10-15T13:47	10	38	0.2	37	38	371	0.4	370	372	10.7	74.8
2025-10-15T13:48	10	37	0.5	36	38	372	0.3	371	372	10.8	75.6
2025-10-15T13:49	10	35	0.6	34	36	371	0.3	370	372	10.7	74.9
2025-10-15T13:50	10	34	0.2	33	34	370	0.2	370	371	10.7	75.4
2025-10-15T13:51	10	34	0.5	34	35	370	0.3	369	370	10.7	74.9
2025-10-15T13:52	10	36	0.4	35	36	369	0.4	369	370	10.6	74.4
2025-10-15T13:53	10	36	0.1	36	37	370	0.2	369	370	10.6	75.0
2025-10-15T13:54	10	36	0.2	36	36	370	0.3	370	371	10.6	75.2
2025-10-15T13:55	10	35	0.5	34	36	370	0.2	370	371	10.7	75.8
2025-10-15T13:56	10	33	0.5	32	34	370	0.3	369	370	10.7	75.1
2025-10-15T13:57	10	33	0.1	32	33	369	0.2	369	370	10.7	74.6
2025-10-15T13:58	10	32	0.2	32	33	369	0.2	369	370	10.7	74.7
2025-10-15T13:59	10	33	0.2	32	33	369	0.3	369	370	10.7	75.0
2025-10-15T14:00	10	33	0.1	33	33	369	0.3	369	370	10.7	74.8
2025-10-15T14:01	10	33	0.2	32	33	370	0.3	369	370	10.7	74.8
2025-10-15T14:02	10	32	0.1	32	32	369	0.2	369	370	10.7	74.9
2025-10-15T14:03	10	33	0.3	32	33	369	0.2	369	370	10.8	74.9
2025-10-15T14:04	10	35	1.2	33	37	369	0.3	369	370	10.8	75.2
2025-10-15T14:05	10	39	0.7	37	40	369	0.2	369	370	10.8	75.1
2025-10-15T14:06	10	41	0.5	40	42	370	0.5	369	371	10.8	75.8
2025-10-15T14:07	10	40	0.9	39	41	371	0.3	371	372	10.9	75.6
2025-10-15T14:08	10	38	0.4	37	39	372	0.3	371	373	10.9	74.8
2025-10-15T14:09	10	36	0.6	35	37	371	0.4	370	372	10.8	74.8
2025-10-15T14:10	10	35	0.1	35	35	370	0.4	369	370	10.8	74.8
2025-10-15T14:11	10	36	0.4	35	37	370	0.3	369	371	10.9	75.2
2025-10-15T14:12	10	37	0.2	37	37	370	0.2	370	371	10.9	75.4
2025-10-15T14:13	10	37	0.1	37	38	371	0.2	370	371	10.9	75.2
2025-10-15T14:14	10	38	0.6	37	39	371	0.2	370	371	10.9	75.7
2025-10-15T14:15	10	39	0.1	39	40	370	0.4	369	370	10.9	74.6
2025-10-15T14:16	10	40	0.4	39	41	369	0.3	368	370	10.8	74.0
2025-10-15T14:17	10	41	0.4	40	42	369	0.2	369	370	10.8	74.4
2025-10-15T14:18	10	42	0.1	41	42	370	0.3	369	370	10.8	75.0
2025-10-15T14:19	10	41	0.3	41	42	370	0.2	370	371	10.9	75.9
2025-10-15T14:20	10	40	0.6	39	41	371	0.3	370	371	11.0	75.4
2025-10-15T14:21	10	37	0.9	36	39	370	0.6	368	371	10.9	74.1
2025-10-15T14:22	10	35	0.2	35	36	369	0.3	368	370	10.8	73.9
2025-10-15T14:23	10	34	0.4	33	35	368	0.2	368	369	10.8	73.7
2025-10-15T14:24	10	32	1.2	29	34	368	0.3	367	369	10.8	74.1
2025-10-15T14:25	10	27	1.2	25	29	366	0.8	365	367	10.8	73.6
2025-10-15T14:26	10	24	0.5	24	26	365	0.4	364	366	10.8	73.8
2025-10-15T14:27	10	25	2.1	24	30	364	0.3	364	365	10.8	74.5
2025-10-15T14:28	10	24	0.2	24	25	364	0.3	363	364	10.8	74.1
2025-10-15T14:29	10	27	0.7	25	28	363	0.3	363	364	10.8	73.4
2025-10-15T14:30	10	30	2.4	28	35	364	0.3	363	365	10.8	74.3
2025-10-15T14:31	10	34	0.6	32	34	364	0.4	364	365	10.8	74.0
2025-10-15T14:32	10	34	2.0	33	39	365	0.3	364	366	10.8	74.4
2025-10-15T14:33	10	35	1.0	34	38	366	0.3	365	366	10.8	73.7
2025-10-15T14:34	10	36	0.5	34	37	366	0.3	365	367	10.8	74.1
2025-10-15T14:35	10	33	1.2	32	35	367	0.2	366	367	10.8	74.4
2025-10-15T14:36	10	31	0.5	30	32	366	0.2	366	367	10.8	73.4
2025-10-15T14:37	10	30	0.2	29	30	367	0.3	366	368	10.8	73.9
2025-10-15T14:38	10	29	0.6	28	30	367	0.3	367	368	10.9	73.9
2025-10-15T14:39	10	26	1.4	23	28	367	0.5	366	368	10.9	73.3
2025-10-15T14:40	10	21	1.0	20	23	366	0.4	365	367	10.9	73.5
2025-10-15T14:41	10	20	0.6	19	21	365	0.2	364	365	10.9	73.4
2025-10-15T14:42	10	21	0.6	20	22	364	0.3	364	365	10.9	73.3
2025-10-15T14:43	10	18	1.0	16	20	364	0.3	363	365	10.9	73.5
2025-10-15T14:44	10	15	0.5	15	17	363	0.4	362	363	10.9	73.8
2025-10-15T14:45	10	15	0.7	14	17	362	0.3	361	362	10.8	73.3
2025-10-15T14:46	10	21	2.8	17	26	361	0.4	360	362	10.8	73.7
2025-10-15T14:47	10	31	2.5	26	35	363	0.7	362	364	10.8	73.9
2025-10-15T14:48	10	44	10.2	31	61	365	1.0	363	366	10.8	73.1
2025-10-15T14:49	10	30	2.8	28	38	364	0.4	364	365	10.8	73.3
2025-10-15T14:50	10	26	3.8	23	38	364	0.4	363	365	10.8	74.2
2025-10-15T14:51	10	24	2.6	22	30	363	0.4	362	364	10.8	73.9
2025-10-15T14:52	10	23	0.5	22	24	362	0.4	362	363	10.9	73.3
2025-10-15T14:53	10	29	5.8	24	43	362	0.5	362	364	10.9	74.0
2025-10-15T14:54	10	26	3.1	23	35	363	0.4	362	364	10.9	74.4
2025-10-15T14:55	10	26	2.9	23	35	362	0.3	362	363	10.9	73.6
2025-10-15T14:56	10	39	13.9	22	58	363	0.7	362	364	10.9	73.8
2025-10-15T14:57	10	22	2.1	21	28	362	0.4	362	363	10.9	74.2
2025-10-15T14:58	10	30	8.8	22	49	362	0.5	361	364	10.9	74.9
2025-10-15T14:59	10	29	6.1	22	45	363	0.5	362	364	10.9	74.6
2025-10-15T15:00	10	23	2.3	21	28	362	0.5	361	363	10.9	74.6
2025-10-15T15:01	10	29	5.8	20	41	362	0.3	361	362	10.9	74.5
2025-10-15T15:02	10	33	16.1	20	60	362	0.9	360	364	10.9	74.2
2025-10-15T15:03	10	55	4.8	45	61	364	0.6	363	365	10.9	72.5
2025-10-15T15:04	10	35	11.5	23	55	364	1.0	362	365	10.9	72.8
2025-10-15T15:05	10	26	3.0	23	39	362	0.4	361	363	10.9	72.5
2025-10-15T15:06	10	43	8.0	26	56	363	0.6	362	364	10.9	73.2
2025-10-15T15:07	10	23	0.8	21	25	362	0.6	362	364	10.9	73.6
2025-10-15T15:08	10	21	0.4	20	22	361	0.4	361	362	10.9	72.4
2025-10-15T15:09	10	20	0.8	18	21	361	0.3	360	362	10.9	72.7
2025-10-15T15:10	10	18	0.4	18	19	360	0.3	359	361	10.9	72.6
2025-10-15T15:11	10	18	0.6	18	20	360	0.3	359	361	10.9	73.0
2025-10-15T15:12	10	20	0.6	19	21	360	0.2	359	360	10.9	72.6
2025-10-15T15:13	10	21	0.6	20	23	360	0.3	359	361	10.9	72.5
2025-10-15T15:14	10	20	0.2	20	20	360	0.2	359	361	10.9	72.8
2025-10-15T15:15	10	21	0.6	20	22	360	0.2	359	360	10.9	73.1
2025-10-15T15:16	10	23	0.5	22	24	361	0.3	360	361	10.9	73.3
2025-10-15T15:17	10	22	0.7	21	23	361	0.3	360	361	10.9	73.8
2025-10-15T15:18	10	22	1.4	20	24	360	0.3	360	361	10.9	74.0
2025-10-15T15:19	10	20	0.6	19	21	360	0.3	360	361	10.9	73.6
2025-10-15T15:20	10	21	2.0	19	25	361	0.2	360	361	10.9	73.1
2025-10-15T15:21	10	19	0.4	19	20	360	0.3	360	361	10.9	73.3
2025-10-15T15:22	10	20	0.2	19	20	360	0.2	360	360	10.9	73.5
2025-10-15T15:23	10	19	0.3	18	19	360	0.3	359	361	10.8	74.4
2025-10-15T15:24	10	24	6.7	18	37	360	0.5	359	361	10.9	74.0
2025-10-15T15:25	10	22	2.2	19	26	360	0.3	360	361	10.9	73.8
2025-10-15T15:26	10	19	0.2	19	20	359	0.2	359	360	10.8	74.3
2025-10-15T15:27	10	21	1.9	19	25	359	0.2	359	360	10.9	73.4
2025-10-15T15:28	10	20	0.9	19	21	359	0.3	359	360	10.9	73.1
2025-10-15T15:29	10	30	8.9	22	51	360	0.8	359	362	10.8	74.0
2025-10-15T15:30	10	50	4.1	43	54	362	0.9	361	364	10.8	73.7
2025-10-15T15:31	10	55	0.5	54	56	364	0.6	363	365	10.9	73.8
2025-10-15T15:32	10	54	0.3	54	55	365	0.3	365	366	10.9	73.2
2025-10-15T15:33	10	54	0.3	53	55	366	0.3	365	366	10.9	73.4
2025-10-15T15:34	10	54	0.8	53	55	366	0.3	366	367	10.9	74.2
2025-10-15T15:35	10	51	1.2	48	53	367	0.2	366	367	10.9	73.9
2025-10-15T15:36	10	36	6.8	23	47	367	0.9	365	368	10.9	74.0
2025-10-15T15:37	10	20	0.7	20	23	365	0.7	364	366	10.9	73.5
2025-10-15T15:38	10	19	0.4	18	20	364	0.3	364	365	10.9	73.7
2025-10-15T15:39	10	18	0.4	17	18	364	0.3	363	364	10.9	74.3
2025-10-15T15:40	10	17	0.2	16	17	364	0.2	363	364	10.9	74.2
2025-10-15T15:41	10	16	0.2	16	17	364	0.3	363	364	11.0	73.2
2025-10-15T15:42	10	16	0.2	15	16	363	0.2	363	364	11.0	73.2
2025-10-15T15:43	10	15	0.3	15	16	363	0.2	362	363	11.0	73.2
2025-10-15T15:44	10	14	0.3	14	15	363	0.2	362	363	11.0	73.9
2025-10-15T15:45	10	14	0.3	13	14	362	0.2	362	363	11.0	73.0
2025-10-15T15:46	10	13	0.1	13	13	362	0.2	361	363	11.0	73.9
2025-10-15T15:47	10	13	0.1	13	13	362	0.2	362	363	11.0	73.5
2025-10-15T15:48	10	13	0.1	13	13	363	0.3	362	363	11.0	74.3
2025-10-15T15:49	10	13	0.1	12	13	363	0.3	362	363	10.9	74.2
2025-10-15T15:50	10	12	0.2	12	13	363	0.2	362	363	11.0	73.4
2025-10-15T15:51	10	12	0.2	12	13	363	0.3	362	364	11.0	74.0
2025-10-15T15:52	10	13	0.2	12	13	363	0.2	363	364	11.0	74.0
2025-10-15T15:53	10	13	0.2	12	13	364	0.3	363	364	10.9	74.6
2025-10-15T15:54	10	12	0.2	11	12	364	0.3	363	364	10.9	73.9
2025-10-15T15:55	10	11	0.3	11	12	364	0.3	364	365	10.9	74.6
2025-10-15T15:56	10	10	0.2	10	11	364	0.2	363	364	10.9	74.6
2025-10-15T15:57	10	10	0.2	9	10	364	0.3	363	365	10.9	74.3
2025-10-15T15:58	10	9	0.2	9	10	364	0.2	363	364	10.9	74.2
2025-10-15T15:59	10	9	0.2	9	9	364	0.2	363	365	10.9	74.2
2025-10-15T16:00	10	9	0.2	8	9	364	0.3	364	365	10.9	74.5
2025-10-15T16:01	10	8	0.2	8	8	364	0.2	364	365	10.9	74.8
2025-10-15T16:02	10	8	0.1	8	8	364	0.2	364	365	10.9	75.7
2025-10-15T16:03	10	8	0.2	7	8	364	0.2	364	365	10.9	75.6
2025-10-15T16:04	10	7	0.2	7	8	364	0.3	363	365	10.9	75.6
2025-10-15T16:05	10	7	0.2	6	7	364	0.3	363	364	10.8	76.0
2025-10-15T16:06	10	6	0.2	6	7	364	0.3	363	364	10.8	76.4
2025-10-15T16:07	10	6	0.2	6	7	363	0.2	363	364	10.8	76.1
2025-10-15T16:08	10	6	0.2	5	6	364	0.3	363	364	10.8	75.1
2025-10-15T16:09	10	5	0.1	5	6	363	0.3	363	364	10.8	76.7
2025-10-15T16:10	10	5	0.2	5	6	363	0.3	363	364	10.8	76.9
2025-10-15T16:11	10	5	0.1	5	5	363	0.2	363	364	10.8	76.7
2025-10-15T16:12	10	5	0.2	4	5	363	0.3	363	364	10.7	77.3
2025-10-15T16:13	10	4	0.2	4	5	363	0.2	362	363	10.7	77.2
2025-10-15T16:14	10	4	0.1	4	5	363	0.3	362	363	10.7	76.9
2025-10-15T16:15	10	4	0.1	4	5	363	0.2	363	364	10.7	77.5
2025-10-15T16:16	10	4	0.2	3	4	363	0.3	363	364	10.7	78.8
2025-10-15T16:17	10	3	0.2	3	4	363	0.3	362	364	10.7	77.5
2025-10-15T16:18	10	3	0.2	3	3	363	0.3	363	364	10.8	75.8
2025-10-15T16:19	10	3	0.2	3	3	363	0.2	363	364	10.9	75.1
2025-10-15T16:20	10	3	0.2	2	3	363	0.2	362	363	10.8	76.0
2025-10-15T16:21	10	3	0.2	2	3	363	0.3	362	363	10.9	75.3
2025-10-15T16:22	10	2	0.2	2	3	363	0.3	362	364	10.8	76.7
2025-10-15T16:23	10	2	0.1	2	2	363	0.3	362	363	10.8	76.6
2025-10-15T16:24	10	2	0.1	2	2	362	0.3	362	363	10.9	75.1
2025-10-15T16:25	10	2	0.1	1	2	362	0.2	362	363	10.9	76.2
2025-10-15T16:26	10	2	0.1	2	2	362	0.3	362	363	10.9	75.6
2025-10-15T16:27	10	2	0.1	1	2	362	0.3	361	363	10.9	76.7
2025-10-15T16:28	10	2	0.1	1	2	362	0.2	361	362	10.7	81.8
2025-10-15T16:29	10	2	0.2	1	2	362	0.3	361	362	10.7	80.7
2025-10-15T16:30	10	2	0.1	1	2	362	0.2	361	362	10.7	77.9
2025-10-15T16:31	10	1	0.1	1	2	362	0.2	361	362	10.7	78.0
2025-10-15T16:32	10	1	0.2	1	2	362	0.3	361	362	10.6	80.6
2025-10-15T16:33	10	1	0.1	1	2	361	0.3	361	362	10.6	79.4
2025-10-15T16:34	10	1	0.1	1	2	362	0.3	361	362	10.8	76.3
2025-10-15T16:35	10	1	0.2	1	1	361	0.2	361	362	10.7	78.8
2025-10-15T16:36	10	1	0.1	1	1	361	0.2	361	362	10.7	77.4
2025-10-15T16:37	10	1	0.1	1	1	361	0.2	361	362	10.7	76.9
2025-10-15T16:38	10	1	0.2	1	1	361	0.2	361	362	10.7	77.4
2025-10-15T16:39	10	1	0.2	1	1	361	0.2	361	362	10.7	77.4
2025-10-15T16:40	10	1	0.1	1	1	361	0.2	360	361	10.7	77.5
2025-10-15T16:41	10	1	0.2	1	1	361	0.2	360	361	10.6	78.2
2025-10-15T16:42	10	1	0.2	0	2	361	0.2	360	361	10.6	78.7
2025-10-15T16:43	10	1	0.2	0	1	361	0.3	360	361	10.6	79.0
2025-10-15T16:44	10	1	0.1	0	1	361	0.3	360	361	10.6	78.6
2025-10-15T16:45	10	1	0.2	0	1	360	0.3	360	361	10.6	79.1
2025-10-15T16:46	10	1	0.1	0	1	361	0.2	360	361	10.6	78.8
2025-10-15T16:47	10	1	0.1	0	1	361	0.2	360	361	10.6	79.3
2025-10-15T16:48	10	1	0.1	1	1	361	0.3	360	361	10.6	79.7
2025-10-15T16:49	10	1	0.1	0	1	361	0.2	360	361	10.6	79.5
2025-10-15T16:50	10	1	0.1	0	1	361	0.2	360	361	10.6	78.3
2025-10-15T16:51	10	1	0.1	0	1	361	0.3	360	361	10.6	78.8
2025-10-15T16:52	10	1	0.1	0	1	361	0.2	360	361	10.6	78.3
2025-10-15T16:53	10	1	0.1	0	1	361	0.2	360	361	10.7	77.2
2025-10-15T16:54	10	1	0.1	0	1	361	0.2	360	361	10.8	76.5
2025-10-15T16:55	10	1	0.1	1	1	361	0.2	360	361	10.8	76.7
2025-10-15T16:56	10	1	0.1	0	1	360	0.2	360	361	10.8	76.9
2025-10-15T16:57	10	1	0.1	0	1	361	0.2	360	361	10.8	77.0
2025-10-15T16:58	10	1	0.1	0	1	361	0.2	360	361	10.8	77.1
2025-10-15T16:59	10	1	0.1	0	1	360	0.3	360	361	10.8	76.7
2025-10-15T17:00	10	1	0.2	0	1	360	0.2	360	361	10.8	76.4
2025-10-15T17:01	10	1	0.1	0	1	360	0.2	359	361	10.8	76.7
2025-10-15T17:02	10	1	0.2	0	1	360	0.2	360	361	10.8	77.2
2025-10-15T17:03	10	1	0.1	0	1	360	0.3	360	361	10.8	77.2
2025-10-15T17:04	10	0	0.1	0	1	360	0.2	360	361	10.8	77.8
2025-10-15T17:05	10	0	0.2	0	1	360	0.2	359	361	10.7	77.8
2025-10-15T17:06	10	0	0.2	0	1	360	0.3	359	361	10.7	78.4
2025-10-15T17:07	10	0	0.1	0	1	360	0.3	359	360	10.7	78.5
2025-10-15T17:08	10	0	0.1	0	1	360	0.2	359	360	10.6	79.2
2025-10-15T17:09	10	0	0.1	0	0	359	0.2	359	360	10.6	79.4
2025-10-15T17:10	10	0	0.1	0	0	359	0.2	359	360	10.6	79.8
2025-10-15T17:11	10	0	0.1	0	1	359	0.2	359	360	10.5	79.9
2025-10-15T17:12	10	0	0.1	0	0	359	0.2	359	360	10.5	80.4
2025-10-15T17:13	10	0	0.1	0	0	359	0.2	358	359	10.5	80.6
2025-10-15T17:14	10	0	0.1	0	0	359	0.2	358	359	10.5	80.5
2025-10-15T17:15	10	0	0.1	0	0	358	0.2	358	359	10.4	80.8
2025-10-15T17:16	10	0	0.1	0	0	358	0.2	357	359	10.4	80.9
2025-10-15T17:17	10	0	0.1	0	0	358	0.2	358	358	10.4	80.9
2025-10-15T17:18	10	0	0.1	0	0	358	0.2	358	358	10.4	81.2
2025-10-15T17:19	10	0	0.1	0	0	358	0.2	358	358	10.4	81.3
2025-10-15T17:20	10	0	0.1	0	0	358	0.2	358	359	10.4	80.7
2025-10-15T17:21	10	0	0.1	0	0	358	0.2	357	358	10.4	80.4
2025-10-15T17:22	10	0	0.1	0	0	358	0.2	357	358	10.4	80.5
2025-10-15T17:23	10	0	0.1	0	0	358	0.2	357	358	10.4	80.6
2025-10-15T17:24	10	0	0.1	0	1	358	0.2	357	358	10.4	80.8
2025-10-15T17:25	10	0	0.1	0	0	357	0.2	357	358	10.4	80.0
2025-10-15T17:26	10	0	0.1	0	1	357	0.3	357	358	10.4	78.9
2025-10-15T17:27	10	0	0.1	0	1	357	0.3	356	358	10.5	78.9
2025-10-15T17:28	10	0	0.2	0	1	357	0.2	357	358	10.5	78.6
2025-10-15T17:29	10	0	0.1	0	1	357	0.2	356	357	10.5	78.5
2025-10-15T17:30	10	0	0.1	0	1	357	0.2	356	357	10.5	78.8
2025-10-15T17:31	10	0	0.1	0	1	357	0.2	356	357	10.4	78.9
2025-10-15T17:32	10	0	0.1	0	1	356	0.3	356	357	10.4	78.9
2025-10-15T17:33	10	0	0.1	0	1	356	0.2	356	357	10.4	78.7
2025-10-15T17:34	10	0	0.1	0	1	356	0.3	355	356	10.4	78.4
2025-10-15T17:35	10	0	0.1	0	0	356	0.2	355	356	10.5	78.3
2025-10-15T17:36	10	0	0.1	0	0	356	0.3	355	356	10.5	78.1
2025-10-15T17:37	10	0	0.1	0	0	356	0.2	355	356	10.4	78.4
2025-10-15T17:38	10	0	0.1	0	0	356	0.2	355	356	10.4	78.7
2025-10-15T17:39	10	0	0.1	0	0	355	0.2	355	356	10.4	79.0
2025-10-15T17:40	10	0	0.1	0	0	355	0.2	354	356	10.4	79.9
2025-10-15T17:41	10	0	0.1	0	0	355	0.2	354	355	10.3	80.7
2025-10-15T17:42	10	0	0.1	0	1	355	0.2	354	355	10.3	80.7
2025-10-15T17:43	10	0	0.1	0	0	355	0.2	354	355	10.3	80.2
2025-10-15T17:44	10	0	0.1	0	0	354	0.2	354	355	10.3	80.6
2025-10-15T17:45	10	0	0.1	0	0	354	0.3	354	355	10.2	80.6
2025-10-15T17:46	10	0	0.1	0	0	354	0.3	354	355	10.2	80.2
2025-10-15T17:47	10	0	0.1	0	0	354	0.2	354	355	10.2	81.0
2025-10-15T17:48	10	0	0.1	0	0	354	0.2	354	354	10.2	80.4
2025-10-15T17:49	10	0	0.1	0	0	354	0.3	354	355	10.2	80.3
2025-10-15T17:50	10	0	0.1	0	0	354	0.2	354	355	10.2	80.2
2025-10-15T17:51	10	0	0.1	0	0	354	0.3	354	355	10.2	80.0
2025-10-15T17:52	10	0	0.1	0	0	354	0.2	354	355	10.2	80.3
2025-10-15T17:53	10	0	0.1	0	0	355	0.2	354	355	10.2	80.3
2025-10-15T17:54	10	0	0.0	0	0	354	0.2	354	355	10.2	81.0
2025-10-15T17:55	10	0	0.1	0	0	354	0.2	354	355	10.1	80.9
2025-10-15T17:56	10	0	0.1	0	0	354	0.2	354	355	10.1	81.0
2025-10-15T17:57	10	0	0.1	0	0	354	0.2	353	354	10.0	82.2
2025-10-15T17:58	10	0	0.1	0	0	353	0.3	353	354	10.0	81.9
2025-10-15T17:59	10	0	0.1	0	0	353	0.2	353	354	10.0	82.4
2025-10-15T18:00	10	0	0.1	0	0	353	0.2	353	354	10.0	82.5
2025-10-15T18:01	10	0	0.1	0	0	353	0.2	353	354	10.0	82.4
2025-10-15T18:02	10	0	0.1	0	0	353	0.2	353	354	10.0	82.1
2025-10-15T18:03	10	0	0.1	0	0	353	0.3	353	354	9.9	82.6
2025-10-15T18:04	10	0	0.1	0	0	354	0.3	353	354	10.0	81.2
2025-10-15T18:05	10	0	0.1	0	0	354	0.2	353	354	10.0	81.3
2025-10-15T18:06	10	0	0.1	0	0	354	0.3	354	355	10.0	81.2
2025-10-15T18:07	10	0	0.1	0	0	355	0.3	354	356	10.1	80.3
2025-10-15T18:08	10	0	0.1	0	0	355	0.2	355	356	10.1	80.2
2025-10-15T18:09	10	0	0.1	0	0	355	0.2	355	356	10.1	79.8
2025-10-15T18:10	10	0	0.1	0	0	355	0.3	355	356	10.1	80.2
2025-10-15T18:11	10	0	0.1	0	0	356	0.2	355	356	10.1	80.1
2025-10-15T18:12	10	0	0.1	0	0	356	0.2	355	356	10.1	79.3
2025-10-15T18:13	10	0	0.1	0	0	356	0.2	355	356	10.1	79.9
2025-10-15T18:14	10	0	0.1	0	0	356	0.2	356	357	10.1	79.3
2025-10-15T18:15	10	0	0.1	0	0	356	0.2	355	356	10.1	79.3
2025-10-15T18:16	10	0	0.1	0	0	356	0.2	355	356	10.1	80.2
2025-10-15T18:17	10	0	0.1	0	0	356	0.2	355	356	10.0	80.2
2025-10-15T18:18	10	0	0.1	0	0	355	0.2	355	356	10.0	80.6
2025-10-15T18:19	10	0	0.1	0	0	355	0.3	355	356	10.0	80.7
2025-10-15T18:20	10	0	0.1	0	0	355	0.2	355	356	9.9	81.3
2025-10-15T18:21	10	0	0.0	0	0	355	0.2	355	356	9.9	81.7
2025-10-15T18:22	10	0	0.1	0	0	355	0.2	355	356	9.9	81.9
2025-10-15T18:23	10	0	0.1	0	0	355	0.3	354	356	9.8	82.5
2025-10-15T18:24	10	0	0.0	0	0	355	0.2	354	355	9.8	82.5
2025-10-15T18:25	10	0	0.1	0	0	355	0.3	354	355	9.8	82.5
2025-10-15T18:26	10	0	0.0	0	0	354	0.2	354	355	9.7	82.8
2025-10-15T18:27	10	0	0.0	0	0	354	0.2	354	355	9.7	82.5
2025-10-15T18:28	10	0	0.1	0	0	354	0.4	353	355	9.7	82.7
2025-10-15T18:29	10	0	0.1	0	0	353	0.2	352	353	9.7	83.1
2025-10-15T18:30	10	0	0.1	0	0	352	0.2	352	353	9.7	83.2
2025-10-15T18:31	10	0	0.1	0	0	352	0.2	351	352	9.7	82.7
2025-10-15T18:32	10	0	0.1	0	0	352	0.2	352	352	9.7	82.8
2025-10-15T18:33	10	0	0.1	0	0	352	0.2	351	352	9.7	82.9
2025-10-15T18:34	10	0	0.1	0	0	352	0.2	351	352	9.7	83.0
2025-10-15T18:35	10	0	0.1	0	0	352	0.3	352	353	9.7	82.6
2025-10-15T18:36	10	0	0.1	0	0	352	0.2	352	353	9.7	82.7
2025-10-15T18:37	10	0	0.1	0	0	352	0.2	351	352	9.7	82.5
2025-10-15T18:38	10	0	0.1	0	0	352	0.2	351	352	9.7	82.1
2025-10-15T18:39	10	0	0.1	0	0	352	0.2	351	352	9.7	82.6
2025-10-15T18:40	10	0	0.1	0	0	352	0.2	351	352	9.7	82.1
2025-10-15T18:41	10	0	0.0	0	0	352	0.2	351	352	9.7	82.0
2025-10-15T18:42	10	0	0.1	0	0	352	0.3	352	353	9.7	81.4
2025-10-15T18:43	10	0	0.1	0	0	352	0.2	351	352	9.8	81.3
2025-10-15T18:44	10	0	0.1	0	0	351	0.2	351	352	9.7	81.6
2025-10-15T18:45	10	0	0.1	0	0	351	0.2	350	351	9.7	81.4
2025-10-15T18:46	10	0	0.1	0	0	350	0.2	350	351	9.8	81.1
2025-10-15T18:47	10	0	0.1	0	0	350	0.3	350	351	9.7	81.2
2025-10-15T18:48	10	0	0.1	0	0	351	0.2	350	351	9.7	81.3
2025-10-15T18:49	10	0	0.1	0	0	350	0.3	350	351	9.7	81.3
2025-10-15T18:50	10	0	0.1	0	0	350	0.2	350	351	9.7	81.5
2025-10-15T18:51	10	0	0.1	0	0	350	0.2	350	351	9.6	81.7
2025-10-15T18:52	10	0	0.1	0	0	350	0.2	350	351	9.6	81.9
2025-10-15T18:53	10	0	0.1	0	0	350	0.2	350	351	9.6	82.2
2025-10-15T18:54	10	0	0.1	0	0	351	0.3	350	351	9.6	82.3
2025-10-15T18:55	10	0	0.1	0	0	351	0.2	350	351	9.5	82.8
2025-10-15T18:56	10	0	0.1	0	0	350	0.2	350	351	9.5	83.2
2025-10-15T18:57	10	0	0.1	0	0	351	0.3	350	351	9.4	83.4
2025-10-15T18:58	10	0	0.1	0	0	351	0.2	351	352	9.4	83.7
2025-10-15T18:59	10	0	0.1	0	0	351	0.2	351	352	9.4	83.6
2025-10-15T19:00	10	0	0.1	0	0	351	0.2	351	351	9.4	83.7
2025-10-15T19:01	10	0	0.1	0	0	351	0.2	351	351	9.4	84.3
2025-10-15T19:02	10	0	0.1	0	0	350	0.3	350	351	9.3	85.1
2025-10-15T19:03	10	0	0.1	0	0	350	0.3	350	351	9.2	85.3
2025-10-15T19:04	10	0	0.1	0	0	350	0.3	349	350	9.2	85.3
2025-10-15T19:05	10	0	0.1	0	0	349	0.2	349	350	9.2	83.9
2025-10-15T19:06	10	0	0.1	0	0	349	0.2	348	349	9.2	82.5
2025-10-15T19:07	10	0	0.1	0	0	349	0.2	348	349	9.2	85.3
2025-10-15T19:08	10	0	0.1	0	0	349	0.3	348	349	9.2	85.3
2025-10-15T19:09	10	0	0.1	0	0	349	0.2	348	349	9.2	85.3
2025-10-15T19:10	10	0	0.1	0	0	349	0.2	348	349	9.2	85.3
2025-10-15T19:11	10	0	0.1	0	0	349	0.2	348	349	9.2	85.3
2025-10-15T19:12	10	0	0.1	0	0	349	0.3	348	349	9.2	85.8
2025-10-15T19:13	10	0	0.1	0	0	349	0.2	348	349	8.8	88.3
2025-10-15T19:14	10	0	0.1	0	0	349	0.2	348	349	8.9	88.3
2025-10-15T19:15	10	0	0.1	0	0	348	0.3	348	349	8.8	88.7
2025-10-15T19:16	10	0	0.1	0	0	348	0.2	347	348	8.8	89.2
2025-10-15T19:17	10	0	0.1	0	0	347	0.2	347	348	8.8	89.7
2025-10-15T19:18	10	0	0.1	0	0	347	0.3	346	348	8.7	89.7
2025-10-15T19:19	10	0	0.1	0	0	346	0.2	346	347	8.7	89.8
2025-10-15T19:20	10	0	0.1	0	0	346	0.3	345	347	8.7	89.7
2025-10-15T19:21	10	0	0.1	0	0	345	0.3	345	346	8.7	89.7
2025-10-15T19:22	10	0	0.1	0	0	345	0.2	345	346	8.7	89.7
2025-10-15T19:23	10	0	0.0	0	0	345	0.2	344	345	8.7	89.5
2025-10-15T19:24	10	0	0.1	0	0	345	0.2	344	345	8.7	89.7
2025-10-15T19:25	10	0	0.1	0	0	345	0.2	344	345	8.6	89.9
2025-10-15T19:26	10	0	0.1	0	0	345	0.2	344	345	8.6	89.8
2025-10-15T19:27	10	0	0.1	0	0	344	0.3	344	345	8.7	89.7
2025-10-15T19:28	10	0	0.1	0	0	344	0.2	344	345	8.6	89.8
2025-10-15T19:29	10	0	0.1	0	0	344	0.2	344	345	8.6	89.5
2025-10-15T19:30	10	0	0.1	0	0	344	0.2	344	345	8.5	89.7
2025-10-15T19:31	10	0	0.1	0	0	345	0.3	344	345	8.5	88.9
2025-10-15T19:32	10	0	0.1	0	0	345	0.3	344	345	8.5	88.8
2025-10-15T19:33	10	0	0.1	0	0	345	0.2	344	345	8.5	88.8
2025-10-15T19:34	10	0	0.1	0	0	345	0.2	344	345	8.5	88.5
2025-10-15T19:35	10	0	0.1	0	0	344	0.2	344	345	8.5	88.9
2025-10-15T19:36	10	0	0.1	0	0	344	0.2	343	344	8.4	89.9
2025-10-15T19:37	10	0	0.1	0	0	344	0.2	343	344	8.4	89.8
2025-10-15T19:38	10	0	0.1	0	0	344	0.2	343	344	8.4	89.5
2025-10-15T19:39	10	0	0.1	0	0	344	0.2	343	344	8.4	89.2
2025-10-15T19:40	10	0	0.1	0	0	344	0.2	343	344	8.5	89.1
2025-10-15T19:41	10	0	0.1	0	0	344	0.2	343	344	8.5	89.2
2025-10-15T19:42	10	0	0.1	0	0	344	0.2	343	344	8.5	89.4
2025-10-15T19:43	10	0	0.1	0	0	343	0.2	343	344	8.4	89.5
2025-10-15T19:44	10	0	0.1	0	0	343	0.3	342	344	8.4	90.2
2025-10-15T19:45	10	0	0.1	0	0	342	0.2	342	343	8.3	90.9
2025-10-15T19:46	10	0	0.1	0	0	342	0.3	342	343	8.2	91.3
2025-10-15T19:47	10	0	0.1	0	0	342	0.2	341	342	8.2	91.6
2025-10-15T19:48	10	0	0.1	0	0	341	0.3	341	342	8.2	91.9
2025-10-15T19:49	10	0	0.0	0	0	341	0.3	340	342	8.1	92.4
2025-10-15T19:50	10	0	0.1	0	0	341	0.2	341	342	8.1	91.8
2025-10-15T19:51	10	0	0.1	0	0	341	0.2	341	342	8.2	91.3
2025-10-15T19:52	10	0	0.1	0	0	341	0.2	341	342	8.1	91.6
2025-10-15T19:53	10	0	0.1	0	0	341	0.2	340	341	8.0	92.4
2025-10-15T19:54	10	0	0.1	0	0	341	0.2	340	341	7.9	93.0
2025-10-15T19:55	10	0	0.1	0	0	340	0.2	340	341	7.9	93.0
2025-10-15T19:56	10	0	0.1	0	0	341	0.4	340	341	7.8	91.6
2025-10-15T19:57	10	0	0.1	0	0	342	0.5	341	343	8.0	90.2
2025-10-15T19:58	10	0	0.1	0	0	343	0.3	342	343	8.0	90.1
2025-10-15T19:59	10	0	0.1	0	0	343	0.2	342	343	7.9	90.6
2025-10-15T20:00	10	0	0.1	0	0	343	0.2	342	343	8.0	90.4
2025-10-15T20:01	10	0	0.1	0	0	343	0.2	342	343	8.0	90.3
2025-10-15T20:02	10	0	0.1	0	0	343	0.2	343	344	7.9	90.3
2025-10-15T20:03	10	0	0.1	0	0	343	0.2	342	344	7.8	90.7
2025-10-15T20:04	10	0	0.1	0	0	343	0.2	343	344	7.6	91.0
2025-10-15T20:05	10	0	0.1	0	0	343	0.3	342	344	7.7	91.0
2025-10-15T20:06	10	0	0.1	0	0	343	0.2	342	343	7.5	91.8
2025-10-15T20:07	10	0	0.1	0	0	342	0.2	342	343	7.5	92.2
2025-10-15T20:08	10	0	0.1	0	0	343	0.2	342	343	7.5	91.7
2025-10-15T20:09	10	0	0.1	0	0	343	0.3	342	343	7.5	91.5
2025-10-15T20:10	10	0	0.1	0	0	343	0.3	342	344	7.7	90.5
2025-10-15T20:11	10	0	0.1	0	0	343	0.2	342	343	7.7	90.3
2025-10-15T20:12	10	0	0.0	0	0	342	0.2	342	343	7.6	90.8
2025-10-15T20:13	10	0	0.4	0	3	342	0.2	342	343	7.5	91.5
2025-10-15T20:14	10	0	0.0	0	0	342	0.2	342	342	7.5	91.7
2025-10-15T20:15	10	0	0.1	0	0	342	0.2	342	343	7.5	92.0
2025-10-15T20:16	10	0	0.1	0	0	343	0.4	342	343	7.5	92.3
2025-10-15T20:17	10	0	0.1	0	0	343	0.3	342	344	7.6	93.2
2025-10-15T20:18	10	0	0.1	0	0	343	0.2	343	344	7.6	93.1
2025-10-15T20:19	10	0	0.1	0	0	344	0.3	343	344	7.7	92.8
2025-10-15T20:20	10	0	0.1	0	0	344	0.2	343	344	7.7	92.1
2025-10-15T20:21	10	0	0.2	0	1	344	0.3	343	345	7.7	92.0
2025-10-15T20:22	10	0	0.1	0	0	344	0.3	343	345	7.8	91.7
2025-10-15T20:23	10	0	0.1	0	0	344	0.2	344	345	7.8	91.6
2025-10-15T20:24	10	0	0.3	0	2	345	0.2	344	345	7.7	91.8
2025-10-15T20:25	10	0	0.1	0	0	344	0.3	344	345	7.6	92.4
2025-10-15T20:26	10	0	0.1	0	0	345	0.2	344	345	7.6	92.6
2025-10-15T20:27	10	0	0.1	0	0	345	0.3	344	345	7.6	92.3
2025-10-15T20:28	10	0	0.2	0	1	345	0.3	344	346	7.7	91.9
2025-10-15T20:29	10	0	0.1	0	0	345	0.2	345	346	7.7	91.7
2025-10-15T20:30	10	0	0.1	0	0	345	0.2	344	346	7.7	91.7
2025-10-15T20:31	10	0	0.1	0	0	345	0.2	345	346	7.7	91.7
2025-10-15T20:32	10	0	0.1	0	0	346	0.3	345	346	7.6	91.8
2025-10-15T20:33	10	0	0.1	0	0	346	0.3	345	346	7.6	91.8
2025-10-15T20:34	10	0	0.1	0	0	346	0.2	345	347	7.5	92.4
2025-10-15T20:35	10	0	0.1	0	0	346	0.3	345	346	7.5	92.3
2025-10-15T20:36	10	0	0.1	0	0	346	0.3	345	347	7.6	91.8
2025-10-15T20:37	10	0	0.1	0	0	346	0.2	345	346	7.6	91.6
2025-10-15T20:38	10	0	0.1	0	0	345	0.2	345	346	7.6	91.7
2025-10-15T20:39	10	0	0.1	0	0	345	0.2	344	345	7.6	91.9
2025-10-15T20:40	10	0	0.1	0	0	345	0.3	345	346	7.7	91.0
2025-10-15T20:41	10	0	0.1	0	0	346	0.2	345	346	7.7	90.9
2025-10-15T20:42	10	0	0.1	0	0	346	0.2	345	346	7.7	90.6
2025-10-15T20:43	10	0	0.1	0	0	346	0.2	345	346	7.7	90.6
2025-10-15T20:44	10	0	0.1	0	0	346	0.3	345	346	7.5	91.9
2025-10-15T20:45	10	0	0.1	0	0	346	0.3	345	347	7.4	92.5
2025-10-15T20:46	10	0	0.1	0	0	346	0.2	346	347	7.5	92.3
2025-10-15T20:47	10	0	0.1	0	0	347	0.3	346	347	7.6	91.5
2025-10-15T20:48	10	0	0.1	0	0	347	0.2	347	348	7.8	90.8
2025-10-15T20:49	10	0	0.1	0	0	348	0.2	347	348	7.8	90.5
2025-10-15T20:50	10	0	0.1	0	0	348	0.2	347	348	7.8	90.3
2025-10-15T20:51	10	0	0.4	0	2	348	0.2	347	348	7.8	90.3
2025-10-15T20:52	10	0	0.1	0	0	348	0.2	347	348	7.7	90.3
2025-10-15T20:53	10	0	0.1	0	0	348	0.2	347	348	7.7	90.2
2025-10-15T20:54	10	0	0.1	0	0	347	0.2	347	348	7.7	90.3
2025-10-15T20:55	10	0	0.1	0	0	348	0.2	347	348	7.7	90.5
2025-10-15T20:56	10	0	0.1	0	0	348	0.2	347	348	7.7	90.6
2025-10-15T20:57	10	0	0.1	0	0	348	0.3	347	348	7.6	91.1
2025-10-15T20:58	10	0	0.1	0	0	348	0.3	347	348	7.6	91.1
2025-10-15T20:59	10	0	0.1	0	0	348	0.2	347	348	7.6	91.0
2025-10-15T21:00	10	0	0.1	0	0	348	0.2	347	348	7.6	90.9
2025-10-15T21:01	10	0	0.1	0	0	347	0.2	347	348	7.6	91.2
2025-10-15T21:02	10	0	0.1	0	0	347	0.2	347	348	7.6	91.5
2025-10-15T21:03	10	0	0.1	0	0	347	0.2	347	348	7.5	92.0
2025-10-15T21:04	10	0	0.1	0	0	347	0.2	347	348	7.5	92.2
2025-10-15T21:05	10	0	0.1	0	0	347	0.3	347	348	7.5	92.3
2025-10-15T21:06	10	0	0.1	0	0	348	0.2	347	348	7.5	92.4
2025-10-15T21:07	10	0	0.1	0	0	348	0.2	347	348	7.5	92.2
2025-10-15T21:08	10	0	0.1	0	0	348	0.2	347	348	7.5	92.0
2025-10-15T21:09	10	0	0.1	0	0	348	0.2	347	348	7.6	91.9
2025-10-15T21:10	10	0	0.1	0	0	348	0.2	347	348	7.5	92.2
2025-10-15T21:11	10	0	0.1	0	0	348	0.2	347	348	7.5	92.3
2025-10-15T21:12	10	0	0.1	0	0	348	0.2	347	348	7.6	92.0
2025-10-15T21:13	10	0	0.1	0	0	348	0.2	348	349	7.6	91.7
2025-10-15T21:14	10	0	0.1	0	0	348	0.2	348	349	7.6	91.9
2025-10-15T21:15	10	0	0.1	0	0	348	0.2	348	349	7.6	91.5
2025-10-15T21:16	10	0	0.1	0	0	348	0.2	348	349	7.7	91.1
2025-10-15T21:17	10	0	0.1	0	0	348	0.2	348	349	7.7	90.9
2025-10-15T21:18	10	0	0.1	0	0	348	0.2	348	349	7.8	90.5
2025-10-15T21:19	10	0	0.1	0	0	348	0.2	348	349	7.8	90.3
2025-10-15T21:20	10	0	0.1	0	0	348	0.2	348	349	7.8	90.4
2025-10-15T21:21	10	0	0.1	0	0	348	0.2	348	349	7.8	90.1
2025-10-15T21:22	10	0	0.1	0	0	349	0.2	348	349	7.8	90.1
2025-10-15T21:23	10	0	0.1	0	0	349	0.2	348	349	7.8	90.4
2025-10-15T21:24	10	0	0.1	0	0	349	0.2	348	349	7.8	90.4
2025-10-15T21:25	10	0	0.1	0	0	348	0.2	348	349	7.8	90.5
2025-10-15T21:26	10	0	0.1	0	0	349	0.2	348	349	7.7	90.9
2025-10-15T21:27	10	0	0.1	0	0	349	0.2	348	349	7.8	90.3
2025-10-15T21:28	10	0	0.1	0	0	349	0.2	348	349	7.8	90.2
2025-10-15T21:29	10	0	0.1	0	0	349	0.3	348	349	7.8	90.4
2025-10-15T21:30	10	0	0.1	0	0	349	0.2	348	349	7.8	90.3
2025-10-15T21:31	10	0	0.1	0	0	349	0.2	348	349	7.7	90.5
2025-10-15T21:32	10	0	0.1	0	0	349	0.2	348	349	7.8	90.2
2025-10-15T21:33	10	0	0.1	0	0	349	0.2	348	349	7.8	90.0
2025-10-15T21:34	10	0	0.1	0	0	349	0.3	348	349	7.8	89.6
2025-10-15T21:35	10	0	0.1	0	0	349	0.2	348	349	7.9	89.3
2025-10-15T21:36	10	0	0.1	0	0	349	0.3	348	349	7.9	89.3
2025-10-15T21:37	10	0	0.1	0	0	349	0.2	348	349	7.9	89.4
2025-10-15T21:38	10	0	0.1	0	0	349	0.2	349	350	8.0	88.5
2025-10-15T21:39	10	0	0.1	0	0	349	0.2	349	349	8.0	88.8
2025-10-15T21:40	10	0	0.0	0	0	349	0.2	349	350	8.0	88.8
2025-10-15T21:41	10	0	0.1	0	0	349	0.3	349	350	8.0	88.2
2025-10-15T21:42	10	0	0.1	0	0	349	0.2	349	350	8.1	87.9
2025-10-15T21:43	10	0	0.1	0	0	349	0.2	349	350	8.1	87.8
2025-10-15T21:44	10	0	0.1	0	0	350	0.2	349	350	8.1	87.6
2025-10-15T21:45	10	0	0.1	0	0	349	0.3	349	350	8.1	88.0
2025-10-15T21:46	10	0	0.1	0	0	349	0.2	349	350	8.0	88.2
2025-10-15T21:47	10	0	0.1	0	0	349	0.2	349	350	8.0	88.1
2025-10-15T21:48	10	0	0.1	0	0	349	0.2	348	350	8.0	88.4
2025-10-15T21:49	10	0	0.1	0	0	349	0.3	348	350	7.9	88.9
2025-10-15T21:50	10	0	0.1	0	0	349	0.2	349	350	7.9	89.1
2025-10-15T21:51	10	0	0.1	0	0	349	0.2	349	350	7.9	88.7
2025-10-15T21:52	10	0	0.1	0	0	349	0.2	348	349	7.9	88.9
2025-10-15T21:53	10	0	0.1	0	0	349	0.2	349	350	7.9	89.3
2025-10-15T21:54	10	0	0.1	0	0	349	0.2	349	350	7.9	89.1
2025-10-15T21:55	10	0	0.1	0	0	349	0.2	349	350	7.9	88.8
2025-10-15T21:56	10	0	0.1	0	0	349	0.2	349	350	7.9	89.3
2025-10-15T21:57	10	0	0.1	0	0	349	0.2	349	350	7.9	89.3
2025-10-15T21:58	10	0	0.1	0	0	349	0.2	349	350	7.9	88.9
2025-10-15T21:59	10	0	0.1	0	0	349	0.2	349	350	7.9	89.6
2025-10-15T22:00	10	0	0.1	0	0	349	0.2	348	350	7.9	89.9
2025-10-15T22:01	10	0	0.1	0	0	349	0.2	349	350	7.9	89.5
2025-10-15T22:02	10	0	0.1	0	0	349	0.2	349	350	7.9	89.8
2025-10-15T22:03	10	0	0.1	0	0	349	0.2	349	350	7.8	90.4
2025-10-15T22:04	10	0	0.1	0	0	349	0.2	349	350	7.9	90.0
2025-10-15T22:05	10	0	0.1	0	0	349	0.2	349	350	7.9	90.0
2025-10-15T22:06	10	0	0.1	0	0	349	0.2	349	350	7.9	89.9
2025-10-15T22:07	10	0	0.1	0	0	349	0.2	349	350	7.9	89.4
2025-10-15T22:08	10	0	0.1	0	0	349	0.2	349	350	8.0	89.2
2025-10-15T22:09	10	0	0.1	0	0	350	0.2	349	350	8.0	89.6
2025-10-15T22:10	10	0	0.1	0	0	350	0.2	349	350	8.0	89.2
2025-10-15T22:11	10	0	0.1	0	0	350	0.2	349	350	8.0	89.2
2025-10-15T22:12	10	0	0.1	0	0	350	0.2	349	351	8.1	88.9
2025-10-15T22:13	10	0	0.1	0	0	350	0.2	349	350	8.1	88.7
2025-10-15T22:14	10	0	0.1	0	0	350	0.2	350	350	8.1	89.0
2025-10-15T22:15	10	0	0.1	0	0	350	0.2	349	350	8.1	88.9
2025-10-15T22:16	10	0	0.1	0	0	350	0.2	350	351	8.1	89.1
2025-10-15T22:17	10	0	0.1	0	0	350	0.2	349	350	8.1	88.9
2025-10-15T22:18	10	0	0.1	0	0	350	0.2	349	350	8.1	88.6
2025-10-15T22:19	10	0	0.1	0	0	350	0.2	349	350	8.1	88.6
2025-10-15T22:20	10	0	0.1	0	0	350	0.2	349	350	8.1	89.0
2025-10-15T22:21	10	0	0.1	0	0	350	0.2	350	351	8.1	88.5
2025-10-15T22:22	10	0	0.1	0	0	350	0.2	349	350	8.1	88.7
2025-10-15T22:23	10	0	0.1	0	0	350	0.2	349	351	8.2	88.3
2025-10-15T22:24	10	0	0.1	0	0	350	0.2	350	351	8.1	88.7
2025-10-15T22:25	10	0	0.1	0	0	350	0.2	350	351	8.1	88.9
2025-10-15T22:26	10	0	0.1	0	0	350	0.2	350	351	8.1	88.9
2025-10-15T22:27	10	0	0.1	0	0	350	0.2	350	351	8.2	89.0
2025-10-15T22:28	10	0	0.1	0	0	350	0.2	350	351	8.2	88.7
2025-10-15T22:29	10	0	0.1	0	0	350	0.2	350	351	8.2	88.6
2025-10-15T22:30	10	0	0.1	0	0	350	0.2	350	351	8.2	88.6
2025-10-15T22:31	10	0	0.1	0	0	350	0.2	350	351	8.2	88.6
2025-10-15T22:32	10	0	0.1	0	0	350	0.2	350	351	8.3	88.1
2025-10-15T22:33	10	0	0.1	0	0	350	0.2	350	351	8.3	88.2
2025-10-15T22:34	10	0	0.1	0	0	351	0.2	350	351	8.3	87.9
2025-10-15T22:35	10	0	0.1	0	0	351	0.3	350	351	8.3	87.3
2025-10-15T22:36	10	0	0.1	0	0	351	0.2	350	351	8.3	87.6
2025-10-15T22:37	10	0	0.1	0	0	350	0.3	350	351	8.3	87.9
2025-10-15T22:38	10	0	0.1	0	0	351	0.2	350	351	8.2	88.2
2025-10-15T22:39	10	0	0.1	0	0	350	0.2	350	351	8.3	88.1
2025-10-15T22:40	10	0	0.1	0	0	350	0.2	350	351	8.3	88.2
2025-10-15T22:41	10	0	0.0	0	0	350	0.2	350	351	8.3	87.9
2025-10-15T22:42	10	0	0.1	0	0	351	0.2	350	351	8.3	87.8
2025-10-15T22:43	10	0	0.1	0	0	350	0.2	350	351	8.3	88.1
2025-10-15T22:44	10	0	0.1	0	0	350	0.2	350	351	8.3	88.3
2025-10-15T22:45	10	0	0.1	0	0	351	0.2	350	351	8.3	88.1
2025-10-15T22:46	10	0	0.0	0	0	351	0.2	350	351	8.3	88.1
2025-10-15T22:47	10	0	0.1	0	0	351	0.3	350	351	8.3	88.2
2025-10-15T22:48	10	0	0.1	0	0	351	0.3	350	351	8.4	87.2
2025-10-15T22:49	10	0	0.1	0	0	351	0.2	350	351	8.4	87.1
2025-10-15T22:50	10	0	0.0	0	0	351	0.3	350	351	8.4	87.7
2025-10-15T22:51	10	0	0.1	0	0	350	0.2	350	351	8.3	88.2
2025-10-15T22:52	10	0	0.1	0	0	351	0.2	350	351	8.3	87.8
2025-10-15T22:53	10	0	0.1	0	0	351	0.2	350	351	8.3	88.1
2025-10-15T22:54	10	0	0.1	0	0	350	0.2	350	351	8.2	88.7
2025-10-15T22:55	10	0	0.1	0	0	351	0.3	350	351	8.3	88.7
2025-10-15T22:56	10	0	0.1	0	0	351	0.2	350	351	8.3	88.6
2025-10-15T22:57	10	0	0.1	0	0	351	0.2	350	351	8.4	88.2
2025-10-15T22:58	10	0	0.1	0	0	351	0.2	351	351	8.3	88.8
2025-10-15T22:59	10	0	0.1	0	0	351	0.2	350	351	8.3	88.8
2025-10-15T23:00	10	0	0.1	0	0	351	0.2	350	351	8.3	89.2
2025-10-15T23:01	10	0	0.1	0	0	351	0.2	350	351	8.3	89.5
2025-10-15T23:02	10	0	0.1	0	0	351	0.2	350	351	8.3	89.4
2025-10-15T23:03	10	0	0.1	0	0	351	0.2	350	351	8.3	89.8
2025-10-15T23:04	10	0	0.1	0	0	351	0.2	350	351	8.2	90.3
2025-10-15T23:05	10	0	0.1	0	0	351	0.2	350	351	8.2	90.7
2025-10-15T23:06	10	0	0.1	0	0	350	0.2	350	351	8.2	91.0
2025-10-15T23:07	10	0	0.1	0	0	351	0.2	350	351	8.1	91.2
2025-10-15T23:08	10	0	0.1	0	0	351	0.2	350	351	8.2	90.8
2025-10-15T23:09	10	0	0.1	0	0	351	0.2	350	351	8.2	90.3
2025-10-15T23:10	10	0	0.1	0	0	351	0.2	350	351	8.3	89.5
2025-10-15T23:11	10	0	0.1	0	0	351	0.2	350	351	8.3	89.4
2025-10-15T23:12	10	0	0.1	0	0	351	0.3	350	352	8.4	89.1
2025-10-15T23:13	10	0	0.1	0	0	351	0.2	350	352	8.3	89.6
2025-10-15T23:14	10	0	0.1	0	0	351	0.2	350	351	8.3	90.2
2025-10-15T23:15	10	0	0.1	0	0	351	0.2	350	351	8.2	90.6
2025-10-15T23:16	10	0	0.1	0	0	351	0.3	350	351	8.3	90.2
2025-10-15T23:17	10	0	0.1	0	0	351	0.3	350	351	8.4	88.6
2025-10-15T23:18	10	0	0.1	0	0	351	0.2	351	352	8.5	88.1
2025-10-15T23:19	10	0	0.1	0	0	351	0.2	350	351	8.5	88.1
2025-10-15T23:20	10	0	0.1	0	0	351	0.2	350	351	8.3	90.1
2025-10-15T23:21	10	0	0.1	0	0	351	0.2	350	351	8.2	91.0
2025-10-15T23:22	10	0	0.1	0	0	351	0.3	350	351	8.2	91.4
2025-10-15T23:23	10	0	0.1	0	0	351	0.2	350	351	8.2	91.1
2025-10-15T23:24	10	0	0.1	0	0	351	0.3	350	351	8.2	91.6
2025-10-15T23:25	10	0	0.0	0	0	351	0.3	350	351	8.1	91.9
2025-10-15T23:26	10	0	0.1	0	0	351	0.2	350	351	8.1	91.9
2025-10-15T23:27	10	0	0.1	0	0	351	0.2	350	351	8.1	92.1
2025-10-15T23:28	10	0	0.1	0	0	351	0.2	350	351	8.2	91.7
2025-10-15T23:29	10	0	0.1	0	0	351	0.3	350	351	8.3	91.3
2025-10-15T23:30	10	0	0.1	0	0	351	0.2	350	351	8.4	90.2
2025-10-15T23:31	10	0	0.1	0	0	351	0.3	350	352	8.4	89.8
2025-10-15T23:32	10	0	0.1	0	0	351	0.3	350	351	8.3	90.4
2025-10-15T23:33	10	0	0.1	0	0	351	0.2	351	351	8.3	91.2
2025-10-15T23:34	10	0	0.1	0	0	351	0.2	351	352	8.2	91.9
2025-10-15T23:35	10	0	0.0	0	0	351	0.3	350	351	8.2	92.5
2025-10-15T23:36	10	0	0.1	0	0	351	0.2	351	352	8.2	92.7
2025-10-15T23:37	10	0	0.1	0	0	351	0.2	351	352	8.2	92.0
2025-10-15T23:38	10	0	0.1	0	0	351	0.3	351	352	8.4	89.8
2025-10-15T23:39	10	0	0.1	0	0	352	0.2	351	352	8.4	90.1
2025-10-15T23:40	10	0	0.1	0	0	351	0.2	351	352	8.4	89.7
2025-10-15T23:41	10	0	0.1	0	0	352	0.2	351	352	8.5	88.7
2025-10-15T23:42	10	0	0.1	0	0	352	0.2	351	352	8.5	88.0
2025-10-15T23:43	10	0	0.1	0	0	352	0.2	351	352	8.4	88.8
2025-10-15T23:44	10	0	0.1	0	0	352	0.2	351	352	8.4	89.4
2025-10-15T23:45	10	0	0.1	0	0	351	0.2	351	352	8.4	89.8
2025-10-15T23:46	10	0	0.1	0	0	352	0.3	351	352	8.4	89.8
2025-10-15T23:47	10	0	0.1	0	0	351	0.2	351	352	8.5	88.8
2025-10-15T23:48	10	0	0.1	0	0	352	0.2	351	352	8.5	88.6
2025-10-15T23:49	10	0	0.0	0	0	352	0.3	351	352	8.5	88.1
2025-10-15T23:50	10	0	0.1	0	0	352	0.3	351	352	8.5	88.6
2025-10-15T23:51	10	0	0.0	0	0	352	0.3	351	352	8.5	88.2
2025-10-15T23:52	10	0	0.0	0	0	351	0.2	351	352	8.5	88.3
2025-10-15T23:53	10	0	0.1	0	0	351	0.2	351	352	8.4	88.9
2025-10-15T23:54	10	0	0.1	0	0	351	0.2	351	352	8.4	89.6
2025-10-15T23:55	10	0	0.1	0	0	351	0.2	350	352	8.3	90.8
2025-10-15T23:56	10	0	0.1	0	0	351	0.2	351	352	8.2	91.3
2025-10-15T23:57	10	0	0.0	0	0	351	0.2	351	352	8.2	91.7
2025-10-15T23:58	10	0	0.0	0	0	351	0.2	350	352	8.1	91.8
2025-10-15T23:59	10	0	0.1	0	0	351	0.2	351	352	8.1	92.0
2025-10-16T00:00	10	0	0.1	0	0	351	0.3	350	352	8.2	92.3
2025-10-16T00:01	10	0	0.1	0	0	351	0.3	351	352	8.2	91.8
2025-10-16T00:02	10	0	0.0	0	0	352	0.2	351	352	8.3	90.7
2025-10-16T00:03	10	0	0.1	0	0	352	0.4	351	352	8.3	89.8
2025-10-16T00:04	10	0	0.1	0	0	352	0.2	351	352	8.4	89.4
2025-10-16T00:05	10	0	0.1	0	0	352	0.2	351	352	8.4	89.2
2025-10-16T00:06	10	0	0.1	0	0	352	0.2	351	352	8.4	89.8
2025-10-16T00:07	10	0	0.1	0	0	352	0.2	351	352	8.4	90.5
2025-10-16T00:08	10	0	0.1	0	0	352	0.3	351	352	8.4	91.1
2025-10-16T00:09	10	0	0.0	0	0	352	0.3	350	352	8.3	91.2
2025-10-16T00:10	10	0	0.1	0	0	351	0.2	351	352	8.2	92.4
2025-10-16T00:11	10	0	0.1	0	0	352	0.2	351	352	8.2	92.5
2025-10-16T00:12	10	0	0.1	0	0	352	0.2	351	352	8.2	92.6
2025-10-16T00:13	10	0	0.1	0	0	351	0.2	351	352	8.2	92.6
2025-10-16T00:14	10	0	0.1	0	0	352	0.2	351	352	8.3	91.6
2025-10-16T00:15	10	0	0.1	0	0	352	0.3	351	352	8.6	88.3
2025-10-16T00:16	10	0	0.1	0	0	352	0.2	352	352	8.7	86.9
2025-10-16T00:17	10	0	0.1	0	0	352	0.2	352	353	8.8	87.1
2025-10-16T00:18	10	0	0.1	0	0	352	0.3	351	353	8.7	87.8
2025-10-16T00:19	10	0	0.1	0	0	352	0.2	351	353	8.8	86.9
2025-10-16T00:20	10	0	0.1	0	0	352	0.3	351	353	8.5	89.5
2025-10-16T00:21	10	0	0.1	0	0	351	0.2	351	352	8.3	91.4
2025-10-16T00:22	10	0	0.1	0	0	351	0.2	351	352	8.2	92.0
2025-10-16T00:23	10	0	0.1	0	0	351	0.2	350	352	8.2	92.8
2025-10-16T00:24	10	0	0.1	0	0	351	0.2	351	352	8.2	92.6
2025-10-16T00:25	10	0	0.1	0	0	352	0.2	351	352	8.3	92.3
2025-10-16T00:26	10	0	0.1	0	0	352	0.3	351	353	8.4	91.6
2025-10-16T00:27	10	0	0.1	0	0	352	0.2	352	353	8.7	88.8
2025-10-16T00:28	10	0	0.1	0	0	353	0.2	352	353	8.9	87.6
2025-10-16T00:29	10	0	0.1	0	0	352	0.2	352	353	8.8	87.8
2025-10-16T00:30	10	0	0.1	0	0	352	0.2	352	353	8.8	88.4
2025-10-16T00:31	10	0	0.1	0	0	352	0.2	352	353	8.7	89.4
2025-10-16T00:32	10	0	0.1	0	0	352	0.2	352	353	8.7	89.7
2025-10-16T00:33	10	0	0.1	0	0	352	0.2	352	353	8.6	90.1
2025-10-16T00:34	10	0	0.1	0	0	352	0.2	352	353	8.6	90.0
2025-10-16T00:35	10	0	0.1	0	0	352	0.2	352	353	8.6	90.1
2025-10-16T00:36	10	0	0.1	0	0	352	0.2	352	353	8.5	90.7
2025-10-16T00:37	10	0	0.1	0	0	352	0.2	352	353	8.6	90.3
2025-10-16T00:38	10	0	0.1	0	0	352	0.2	352	353	8.7	89.3
2025-10-16T00:39	10	0	0.1	0	0	352	0.1	352	353	8.6	89.9
2025-10-16T00:40	10	0	0.0	0	0	352	0.2	352	353	8.6	90.5
2025-10-16T00:41	10	0	0.0	0	0	352	0.2	352	353	8.6	90.9
2025-10-16T00:42	10	0	0.1	0	0	352	0.2	352	353	8.4	91.9
2025-10-16T00:43	10	0	0.1	0	0	352	0.3	352	353	8.4	91.8
2025-10-16T00:44	10	0	0.1	0	0	352	0.2	352	353	8.5	91.9
2025-10-16T00:45	10	0	0.1	0	0	352	0.2	352	353	8.5	91.3
2025-10-16T00:46	10	0	0.0	0	0	352	0.3	352	353	8.6	90.4
2025-10-16T00:47	10	0	0.1	0	0	352	0.2	352	353	8.7	89.4
2025-10-16T00:48	10	0	0.1	0	0	353	0.2	352	353	8.8	88.9
2025-10-16T00:49	10	0	0.1	0	0	353	0.2	352	353	8.7	89.0
2025-10-16T00:50	10	0	0.1	0	0	352	0.3	352	353	8.7	89.3
2025-10-16T00:51	10	0	0.1	0	0	352	0.2	352	353	8.6	91.0
2025-10-16T00:52	10	0	0.1	0	0	352	0.2	352	353	8.5	91.6
2025-10-16T00:53	10	0	0.1	0	0	352	0.2	351	353	8.5	91.9
2025-10-16T00:54	10	0	0.1	0	0	352	0.2	352	353	8.5	91.8
2025-10-16T00:55	10	0	0.1	0	0	352	0.2	352	353	8.5	91.9
2025-10-16T00:56	10	0	0.1	0	0	352	0.2	352	352	8.5	92.3
2025-10-16T00:57	10	0	0.1	0	0	352	0.2	352	352	8.5	92.6
2025-10-16T00:58	10	0	0.0	0	0	352	0.2	352	353	8.4	91.9
2025-10-16T00:59	10	0	0.1	0	0	352	0.3	351	352	8.3	92.1
2025-10-16T01:00	10	0	0.1	0	0	352	0.2	351	352	8.3	92.2
2025-10-16T01:01	10	0	0.1	0	0	352	0.2	351	352	8.2	92.2
2025-10-16T01:02	10	0	0.1	0	0	351	0.2	351	352	8.2	92.5
2025-10-16T01:03	10	0	0.1	0	0	351	0.2	351	352	8.2	92.9
2025-10-16T01:04	10	0	0.1	0	0	351	0.2	351	352	8.2	93.1
2025-10-16T01:05	10	0	0.1	0	0	351	0.2	351	352	8.2	92.9
2025-10-16T01:06	10	0	0.1	0	0	351	0.2	351	352	8.2	92.4
2025-10-16T01:07	10	0	0.1	0	0	351	0.2	351	352	8.2	92.7
2025-10-16T01:08	10	0	0.1	0	0	352	0.2	351	352	8.2	93.0
2025-10-16T01:09	10	0	0.1	0	0	351	0.2	351	352	8.2	92.9
2025-10-16T01:10	10	0	0.1	0	0	352	0.2	351	352	8.2	92.5
2025-10-16T01:11	10	0	0.1	0	0	352	0.2	351	352	8.3	92.4
2025-10-16T01:12	10	0	0.0	0	0	352	0.2	351	352	8.3	92.3
2025-10-16T01:13	10	0	0.1	0	0	352	0.2	351	352	8.3	92.2
2025-10-16T01:14	10	0	0.1	0	0	352	0.2	351	352	8.3	92.4
2025-10-16T01:15	10	0	0.0	0	0	352	0.2	351	352	8.2	92.7
2025-10-16T01:16	10	0	0.1	0	0	351	0.2	351	352	8.2	92.9
2025-10-16T01:17	10	0	0.1	0	0	351	0.2	351	352	8.2	93.4
2025-10-16T01:18	10	0	0.1	0	0	351	0.2	351	352	8.2	93.7
2025-10-16T01:19	10	0	0.1	0	0	351	0.2	351	352	8.2	93.4
2025-10-16T01:20	10	0	0.1	0	0	351	0.2	351	352	8.2	93.6
2025-10-16T01:21	10	0	0.1	0	0	352	0.2	351	352	8.3	93.1
2025-10-16T01:22	10	0	0.1	0	0	352	0.2	351	352	8.3	93.3
2025-10-16T01:23	10	0	0.1	0	0	352	0.2	351	352	8.3	93.4
2025-10-16T01:24	10	0	0.1	0	0	352	0.3	351	352	8.3	93.3
2025-10-16T01:25	10	0	0.1	0	0	352	0.2	351	352	8.3	93.1
2025-10-16T01:26	10	0	0.1	0	0	352	0.2	351	352	8.3	92.8
2025-10-16T01:27	10	0	0.1	0	0	352	0.2	352	352	8.3	92.6
2025-10-16T01:28	10	0	0.1	0	0	352	0.2	352	352	8.4	92.7
2025-10-16T01:29	10	0	0.1	0	0	352	0.3	352	353	8.4	92.8
2025-10-16T01:30	10	0	0.1	0	0	352	0.2	351	352	8.4	92.4
2025-10-16T01:31	10	0	0.1	0	0	352	0.2	351	352	8.4	92.5
2025-10-16T01:32	10	0	0.1	0	0	352	0.2	351	352	8.4	92.8
2025-10-16T01:33	10	0	0.1	0	0	352	0.2	352	352	8.4	92.8
2025-10-16T01:34	10	0	0.1	0	0	352	0.2	351	352	8.4	92.7
2025-10-16T01:35	10	0	0.0	0	0	352	0.2	351	352	8.4	92.5
2025-10-16T01:36	10	0	0.1	0	0	352	0.2	351	353	8.4	92.2
2025-10-16T01:37	10	0	0.1	0	0	352	0.2	351	353	8.4	91.9
2025-10-16T01:38	10	0	0.1	0	0	352	0.2	352	352	8.4	91.7
2025-10-16T01:39	10	0	0.1	0	0	352	0.2	351	352	8.4	91.9
2025-10-16T01:40	10	0	0.1	0	0	352	0.2	351	352	8.4	92.3
2025-10-16T01:41	10	0	0.1	0	0	352	0.3	351	352	8.4	92.1
2025-10-16T01:42	10	0	0.1	0	0	352	0.2	352	353	8.4	91.9
2025-10-16T01:43	10	0	0.1	0	0	352	0.2	352	352	8.4	92.5
2025-10-16T01:44	10	0	0.1	0	0	352	0.2	351	353	8.4	93.2
2025-10-16T01:45	10	0	0.1	0	0	352	0.2	351	352	8.4	93.2
2025-10-16T01:46	10	0	0.1	0	0	352	0.2	351	352	8.4	93.8
2025-10-16T01:47	10	0	0.1	0	0	352	0.2	352	352	8.3	94.2
2025-10-16T01:48	10	0	0.1	0	0	352	0.2	352	352	8.4	93.9
2025-10-16T01:49	10	0	0.1	0	0	352	0.2	351	352	8.4	92.9
2025-10-16T01:50	10	0	0.1	0	0	352	0.2	352	352	8.4	92.6
2025-10-16T01:51	10	0	0.1	0	0	352	0.2	352	352	8.4	92.9
2025-10-16T01:52	10	0	0.1	0	0	352	0.2	352	353	8.4	92.6
2025-10-16T01:53	10	0	0.1	0	0	352	0.2	352	352	8.4	92.6
2025-10-16T01:54	10	0	0.1	0	0	352	0.2	352	352	8.4	93.1
2025-10-16T01:55	10	0	0.1	0	0	352	0.2	352	353	8.4	93.3
2025-10-16T01:56	10	0	0.1	0	0	352	0.2	352	352	8.4	93.2
2025-10-16T01:57	10	0	0.1	0	0	352	0.2	351	352	8.4	93.0
2025-10-16T01:58	10	0	0.1	0	0	352	0.3	351	353	8.4	93.0
2025-10-16T01:59	10	0	0.1	0	0	352	0.2	351	352	8.4	93.2
2025-10-16T02:00	10	0	0.1	0	0	352	0.3	351	352	8.4	93.1
2025-10-16T02:01	10	0	0.1	0	0	352	0.2	352	352	8.4	92.7
2025-10-16T02:02	10	0	0.1	0	0	352	0.2	352	352	8.4	92.8
2025-10-16T02:03	10	0	0.1	0	0	352	0.2	352	353	8.4	93.1
2025-10-16T02:04	10	0	0.1	0	0	352	0.3	352	353	8.4	92.9
2025-10-16T02:05	10	0	0.1	0	0	352	0.2	352	353	8.4	93.3
2025-10-16T02:06	10	0	0.1	0	0	352	0.2	351	352	8.4	93.6
2025-10-16T02:07	10	0	0.1	0	0	352	0.2	352	352	8.4	93.4
2025-10-16T02:08	10	0	0.1	0	0	352	0.2	352	352	8.4	93.1
2025-10-16T02:09	10	0	0.1	0	0	352	0.2	351	352	8.4	93.7
2025-10-16T02:10	10	0	0.1	0	0	352	0.2	352	352	8.4	94.1
2025-10-16T02:11	10	0	0.1	0	0	352	0.2	351	352	8.4	94.4
2025-10-16T02:12	10	0	0.1	0	0	352	0.2	351	352	8.4	94.1
2025-10-16T02:13	10	0	0.1	0	0	352	0.2	352	352	8.4	94.0
2025-10-16T02:14	10	0	0.1	0	0	352	0.2	352	353	8.4	93.7
2025-10-16T02:15	10	0	0.1	0	0	352	0.2	352	352	8.4	93.7
2025-10-16T02:16	10	0	0.1	0	0	352	0.2	351	353	8.4	93.9
2025-10-16T02:17	10	0	0.1	0	0	352	0.2	351	352	8.4	93.8
2025-10-16T02:18	10	0	0.1	0	0	352	0.2	352	352	8.4	94.3
2025-10-16T02:19	10	0	0.1	0	0	352	0.2	351	352	8.4	94.3
2025-10-16T02:20	10	0	0.1	0	0	352	0.2	351	352	8.4	94.0
2025-10-16T02:21	10	0	0.1	0	0	352	0.2	352	352	8.4	93.2
2025-10-16T02:22	10	0	0.1	0	0	352	0.2	352	352	8.4	92.9
2025-10-16T02:23	10	0	0.1	0	0	352	0.2	352	353	8.4	92.8
2025-10-16T02:24	10	0	0.1	0	0	352	0.2	352	352	8.4	92.3
2025-10-16T02:25	10	0	0.1	0	0	352	0.2	352	353	8.4	92.7
2025-10-16T02:26	10	0	0.1	0	0	352	0.2	352	352	8.4	92.8
2025-10-16T02:27	10	0	0.1	0	0	352	0.2	352	353	8.4	92.6
2025-10-16T02:28	10	0	0.1	0	0	352	0.2	352	353	8.5	90.8
2025-10-16T02:29	10	0	0.1	0	0	352	0.2	352	352	8.5	91.5
2025-10-16T02:30	10	0	0.1	0	0	352	0.2	351	353	8.4	92.7
2025-10-16T02:31	10	0	0.1	0	0	352	0.2	351	352	8.3	93.8
2025-10-16T02:32	10	0	0.1	0	0	352	0.2	351	352	8.3	93.8
2025-10-16T02:33	10	0	0.1	0	0	352	0.2	351	352	8.3	93.4
2025-10-16T02:34	10	0	0.1	0	0	352	0.2	351	352	8.3	93.9
2025-10-16T02:35	10	0	0.0	0	0	352	0.2	351	352	8.3	93.8
2025-10-16T02:36	10	0	0.1	0	0	352	0.2	351	352	8.3	94.1
2025-10-16T02:37	10	0	0.1	0	0	351	0.2	351	352	8.3	94.1
2025-10-16T02:38	10	0	0.1	0	0	351	0.3	351	352	8.3	93.2
2025-10-16T02:39	10	0	0.1	0	0	351	0.2	351	352	8.4	92.7
2025-10-16T02:40	10	0	0.1	0	0	351	0.3	350	351	8.4	92.8
2025-10-16T02:41	10	0	0.1	0	0	351	0.2	351	351	8.3	93.7
2025-10-16T02:42	10	0	0.1	0	0	351	0.2	350	351	8.3	93.9
2025-10-16T02:43	10	0	0.1	0	0	350	0.2	350	351	8.3	93.7
2025-10-16T02:44	10	0	0.1	0	0	350	0.2	349	350	8.4	93.6
2025-10-16T02:45	10	0	0.1	0	0	350	0.2	349	350	8.3	93.7
2025-10-16T02:46	10	0	0.1	0	0	350	0.2	349	350	8.3	93.7
2025-10-16T02:47	10	0	0.1	0	0	349	0.2	349	350	8.3	93.5
2025-10-16T02:48	10	0	0.1	0	0	349	0.2	349	350	8.3	93.7
2025-10-16T02:49	10	0	0.1	0	0	349	0.2	349	349	8.3	93.7
2025-10-16T02:50	10	0	0.1	0	0	349	0.2	348	349	8.3	93.3
2025-10-16T02:51	10	0	0.0	0	0	349	0.2	348	349	8.3	93.2
2025-10-16T02:52	10	0	0.1	0	0	349	0.2	348	349	8.3	93.2
2025-10-16T02:53	10	0	0.1	0	0	349	0.2	348	349	8.3	93.3
2025-10-16T02:54	10	0	0.1	0	0	349	0.2	348	349	8.3	93.6
2025-10-16T02:55	10	0	0.1	0	0	349	0.2	348	349	8.3	93.5
2025-10-16T02:56	10	0	0.1	0	0	349	0.2	349	350	8.3	93.4
2025-10-16T02:57	10	0	0.1	0	0	349	0.3	349	350	8.4	92.9
2025-10-16T02:58	10	0	0.1	0	0	349	0.2	349	349	8.4	92.9
2025-10-16T02:59	10	0	0.1	0	0	349	0.2	349	350	8.4	93.0
2025-10-16T03:00	10	0	0.1	0	0	349	0.2	349	350	8.4	92.8
2025-10-16T03:01	10	0	0.1	0	0	349	0.2	349	349	8.3	93.1
2025-10-16T03:02	10	0	0.1	0	1	349	0.2	348	349	8.3	93.5
2025-10-16T03:03	10	0	0.1	0	0	349	0.2	348	349	8.3	93.7
2025-10-16T03:04	10	0	0.1	0	0	349	0.2	348	349	8.3	93.1
2025-10-16T03:05	10	0	0.1	0	0	348	0.2	348	349	8.4	92.7
2025-10-16T03:06	10	0	0.1	0	0	348	0.3	347	348	8.4	92.3
2025-10-16T03:07	10	0	0.1	0	0	348	0.2	347	348	8.4	92.1
2025-10-16T03:08	10	0	0.1	0	0	347	0.2	347	348	8.4	92.1
2025-10-16T03:09	10	0	0.1	0	0	348	0.2	347	348	8.3	93.2
2025-10-16T03:10	10	0	0.1	0	0	348	0.3	347	348	8.2	93.3
2025-10-16T03:11	10	0	0.1	0	0	348	0.2	347	348	8.3	92.8
2025-10-16T03:12	10	0	0.1	0	0	348	0.3	347	349	8.3	92.6
2025-10-16T03:13	10	0	0.1	0	0	348	0.2	348	349	8.3	92.3
2025-10-16T03:14	10	0	0.1	0	0	348	0.2	348	349	8.3	92.3
2025-10-16T03:15	10	0	0.1	0	0	348	0.2	348	349	8.3	92.4
2025-10-16T03:16	10	0	0.1	0	0	348	0.2	348	349	8.3	92.5
2025-10-16T03:17	10	0	0.1	0	0	349	0.2	348	349	8.3	92.4
2025-10-16T03:18	10	0	0.1	0	0	349	0.2	348	349	8.3	92.4
2025-10-16T03:19	10	0	0.1	0	0	349	0.2	348	349	8.2	92.5
2025-10-16T03:20	10	0	0.1	0	0	349	0.2	348	349	8.2	92.7
2025-10-16T03:21	10	0	0.1	0	0	349	0.2	349	349	8.2	92.9
2025-10-16T03:22	10	0	0.1	0	0	349	0.3	349	350	8.2	93.1
2025-10-16T03:23	10	0	0.1	0	0	349	0.2	349	350	8.2	92.8
2025-10-16T03:24	10	0	0.1	0	0	349	0.2	349	350	8.2	92.9
2025-10-16T03:25	10	0	0.1	0	0	349	0.2	349	350	8.2	93.0
2025-10-16T03:26	10	0	0.1	0	0	349	0.2	349	350	8.2	93.0
2025-10-16T03:27	10	0	0.1	0	0	349	0.2	349	350	8.1	93.3
2025-10-16T03:28	10	0	0.0	0	0	349	0.2	349	350	8.1	93.5
2025-10-16T03:29	10	0	0.1	0	0	349	0.2	349	350	8.1	93.5
2025-10-16T03:30	10	0	0.1	0	0	349	0.3	349	350	8.1	93.7
2025-10-16T03:31	10	0	0.1	0	0	349	0.2	348	350	8.1	93.6
2025-10-16T03:32	10	0	0.0	0	0	349	0.2	349	350	8.2	93.3
2025-10-16T03:33	10	0	0.1	0	0	349	0.2	349	350	8.2	93.2
2025-10-16T03:34	10	0	0.1	0	0	350	0.2	349	350	8.2	92.9
2025-10-16T03:35	10	0	0.1	0	0	350	0.2	349	350	8.2	92.6
2025-10-16T03:36	10	0	0.1	0	0	350	0.2	350	350	8.2	92.8
2025-10-16T03:37	10	0	0.1	0	0	350	0.2	350	350	8.2	92.7
2025-10-16T03:38	10	0	0.1	0	0	350	0.2	349	350	8.2	92.6
2025-10-16T03:39	10	0	0.1	0	0	350	0.2	349	350	8.2	92.8
2025-10-16T03:40	10	0	0.1	0	0	350	0.2	350	350	8.2	92.6
2025-10-16T03:41	10	0	0.1	0	0	350	0.2	350	350	8.2	92.8
2025-10-16T03:42	10	0	0.1	0	0	350	0.3	350	351	8.2	92.6
2025-10-16T03:43	10	0	0.1	0	0	350	0.2	350	351	8.2	93.1
2025-10-16T03:44	10	0	0.0	0	0	350	0.2	350	351	8.2	93.0
2025-10-16T03:45	10	0	0.1	0	0	350	0.2	350	351	8.2	92.8
2025-10-16T03:46	10	0	0.1	0	0	351	0.2	350	351	8.3	92.3
2025-10-16T03:47	10	0	0.1	0	0	351	0.2	350	351	8.3	92.5
2025-10-16T03:48	10	0	0.1	0	0	351	0.2	350	351	8.3	92.1
2025-10-16T03:49	10	0	0.5	0	4	350	0.3	350	351	8.3	91.9
2025-10-16T03:50	10	0	0.1	0	0	351	0.2	350	351	8.4	91.9
2025-10-16T03:51	10	0	0.1	0	0	351	0.2	350	351	8.3	92.4
2025-10-16T03:52	10	0	0.1	0	0	351	0.2	350	351	8.3	92.5
2025-10-16T03:53	10	0	0.1	0	0	351	0.2	350	351	8.3	92.2
2025-10-16T03:54	10	0	0.1	0	0	351	0.2	350	351	8.3	92.1
2025-10-16T03:55	10	0	0.1	0	0	351	0.2	350	351	8.3	92.2
2025-10-16T03:56	10	0	0.1	0	0	351	0.2	350	351	8.3	92.3
2025-10-16T03:57	10	0	0.1	0	0	351	0.2	350	351	8.3	92.4
2025-10-16T03:58	10	0	0.1	0	0	351	0.2	350	351	8.3	91.8
2025-10-16T03:59	10	0	0.1	0	0	351	0.3	350	351	8.3	92.0
2025-10-16T04:00	10	0	0.1	0	0	351	0.2	350	351	8.3	92.3
2025-10-16T04:01	10	0	0.1	0	0	351	0.2	350	351	8.3	92.3
2025-10-16T04:02	10	0	0.1	0	0	351	0.2	350	351	8.3	92.3
2025-10-16T04:03	10	0	0.1	0	0	351	0.3	350	351	8.3	92.1
2025-10-16T04:04	10	0	0.1	0	0	351	0.2	350	351	8.3	91.9
2025-10-16T04:05	10	0	0.1	0	0	351	0.2	351	352	8.4	91.9
2025-10-16T04:06	10	0	0.1	0	0	351	0.2	350	351	8.3	92.6
2025-10-16T04:07	10	0	0.0	0	0	351	0.2	350	351	8.2	92.9
2025-10-16T04:08	10	0	0.1	0	0	351	0.2	350	351	8.2	93.4
2025-10-16T04:09	10	0	0.1	0	0	351	0.2	350	351	8.2	93.7
2025-10-16T04:10	10	0	0.1	0	0	350	0.2	350	351	8.2	93.4
2025-10-16T04:11	10	0	0.1	0	0	351	0.2	350	351	8.2	93.4
2025-10-16T04:12	10	0	0.1	0	0	351	0.3	350	351	8.2	93.8
2025-10-16T04:13	10	0	0.1	0	0	351	0.2	350	351	8.2	93.7
2025-10-16T04:14	10	0	0.1	0	0	351	0.2	350	351	8.2	93.7
2025-10-16T04:15	10	0	0.1	0	0	350	0.2	350	351	8.2	93.8
2025-10-16T04:16	10	0	0.1	0	0	350	0.2	350	351	8.2	94.1
2025-10-16T04:17	10	0	0.1	0	0	351	0.2	350	351	8.2	94.1
2025-10-16T04:18	10	0	0.1	0	0	350	0.2	350	351	8.2	94.1
2025-10-16T04:19	10	0	0.1	0	0	351	0.2	350	351	8.2	94.2
2025-10-16T04:20	10	0	0.1	0	0	351	0.2	350	351	8.2	94.2
2025-10-16T04:21	10	0	0.1	0	0	351	0.2	350	351	8.2	94.1
2025-10-16T04:22	10	0	0.0	0	0	351	0.2	350	351	8.2	94.3
2025-10-16T04:23	10	0	0.1	0	0	351	0.2	350	351	8.2	94.7
2025-10-16T04:24	10	0	0.4	0	2	351	0.2	350	351	8.1	94.6
2025-10-16T04:25	10	0	0.1	0	0	351	0.2	350	351	8.1	94.3
2025-10-16T04:26	10	0	0.1	0	0	351	0.2	350	351	8.1	94.3
2025-10-16T04:27	10	0	0.1	0	0	351	0.2	350	351	8.2	94.2
2025-10-16T04:28	10	0	0.1	0	0	351	0.3	350	351	8.2	94.1
2025-10-16T04:29	10	0	0.1	0	0	351	0.2	350	351	8.2	94.1
2025-10-16T04:30	10	0	0.1	0	0	351	0.2	350	351	8.1	94.4
2025-10-16T04:31	10	0	0.1	0	0	351	0.2	350	351	8.1	94.4
2025-10-16T04:32	10	0	0.1	0	0	351	0.2	350	351	8.1	94.4
2025-10-16T04:33	10	0	0.1	0	0	351	0.3	350	351	8.2	93.6
2025-10-16T04:34	10	0	0.0	0	0	351	0.2	351	352	8.2	93.8
2025-10-16T04:35	10	0	0.1	0	0	351	0.2	351	351	8.2	94.0
2025-10-16T04:36	10	0	0.1	0	0	351	0.2	350	351	8.2	94.1
2025-10-16T04:37	10	0	0.1	0	0	351	0.2	351	352	8.2	94.2
2025-10-16T04:38	10	0	0.1	0	0	351	0.2	350	352	8.2	94.3
2025-10-16T04:39	10	0	0.1	0	0	351	0.2	350	352	8.2	94.1
2025-10-16T04:40	10	0	0.1	0	0	351	0.2	350	351	8.2	94.2
2025-10-16T04:41	10	0	0.1	0	0	351	0.2	350	351	8.2	94.6
2025-10-16T04:42	10	0	0.1	0	0	351	0.2	350	352	8.1	94.8
2025-10-16T04:43	10	0	0.1	0	0	351	0.2	350	351	8.1	94.8
2025-10-16T04:44	10	0	0.1	0	0	351	0.2	350	351	8.2	94.6
2025-10-16T04:45	10	0	0.1	0	0	351	0.2	351	352	8.2	94.4
2025-10-16T04:46	10	0	0.1	0	0	351	0.2	351	351	8.2	94.5
2025-10-16T04:47	10	0	0.1	0	0	351	0.2	350	352	8.2	94.8
2025-10-16T04:48	10	0	0.1	0	0	351	0.3	351	352	8.2	95.1
2025-10-16T04:49	10	0	0.1	0	0	351	0.2	351	352	8.2	94.7
2025-10-16T04:50	10	0	0.1	0	0	351	0.2	351	352	8.2	94.2
2025-10-16T04:51	10	0	0.1	0	0	351	0.2	351	352	8.3	93.4
2025-10-16T04:52	10	0	0.1	0	0	351	0.2	351	352	8.3	93.6
2025-10-16T04:53	10	0	0.1	0	0	351	0.2	351	352	8.3	93.5
2025-10-16T04:54	10	0	0.1	0	0	351	0.2	351	352	8.3	93.6
2025-10-16T04:55	10	0	0.1	0	0	351	0.2	351	352	8.3	93.9
2025-10-16T04:56	10	0	0.0	0	0	351	0.2	350	352	8.3	94.1
2025-10-16T04:57	10	0	0.1	0	0	351	0.2	351	352	8.3	94.2
2025-10-16T04:58	10	0	0.1	0	0	351	0.2	351	352	8.3	94.1
2025-10-16T04:59	10	0	0.1	0	0	351	0.3	351	352	8.3	93.9
2025-10-16T05:00	10	0	0.1	0	0	351	0.2	351	352	8.3	93.8
2025-10-16T05:01	10	0	0.1	0	0	351	0.2	351	352	8.3	93.8
2025-10-16T05:02	10	0	0.1	0	0	351	0.2	351	352	8.3	93.6
2025-10-16T05:03	10	0	0.1	0	0	351	0.3	351	352	8.3	93.8
2025-10-16T05:04	10	0	0.1	0	0	351	0.2	351	352	8.3	93.4
2025-10-16T05:05	10	0	0.1	0	0	352	0.2	351	352	8.3	92.8
2025-10-16T05:06	10	0	0.1	0	0	352	0.2	351	352	8.4	91.6
2025-10-16T05:07	10	0	0.1	0	0	352	0.3	351	352	8.4	92.0
2025-10-16T05:08	10	0	0.0	0	0	351	0.2	351	352	8.4	92.1
2025-10-16T05:09	10	0	0.1	0	0	352	0.2	351	352	8.4	91.9
2025-10-16T05:10	10	0	0.0	0	0	352	0.2	351	352	8.4	91.3
2025-10-16T05:11	10	0	0.1	0	0	352	0.3	351	352	8.4	91.4
2025-10-16T05:12	10	0	0.5	0	4	352	0.2	351	352	8.4	91.5
2025-10-16T05:13	10	0	0.1	0	0	352	0.2	351	353	8.5	91.4
2025-10-16T05:14	10	0	0.1	0	0	352	0.2	351	353	8.5	91.1
2025-10-16T05:15	10	0	0.1	0	0	352	0.2	351	352	8.5	91.3
2025-10-16T05:16	10	0	0.1	0	0	352	0.2	351	352	8.5	91.7
2025-10-16T05:17	10	0	0.1	0	0	352	0.3	351	352	8.4	92.1
2025-10-16T05:18	10	0	0.1	0	0	351	0.2	351	352	8.4	92.1
2025-10-16T05:19	10	0	0.1	0	0	352	0.3	351	352	8.4	91.9
2025-10-16T05:20	10	0	0.1	0	0	352	0.2	351	352	8.4	92.2
2025-10-16T05:21	10	0	0.1	0	0	352	0.2	351	352	8.4	91.7
2025-10-16T05:22	10	0	0.1	0	0	352	0.2	351	352	8.4	91.9
2025-10-16T05:23	10	0	0.1	0	0	352	0.3	351	352	8.4	91.3
2025-10-16T05:24	10	0	0.1	0	0	352	0.2	351	352	8.5	91.1
2025-10-16T05:25	10	0	0.1	0	0	352	0.2	351	352	8.5	90.1
2025-10-16T05:26	10	0	0.1	0	0	352	0.2	351	352	8.6	89.9
2025-10-16T05:27	10	0	0.1	0	0	352	0.2	351	352	8.6	89.5
2025-10-16T05:28	10	0	0.1	0	0	352	0.2	352	352	8.6	89.5
2025-10-16T05:29	10	0	0.1	0	0	352	0.3	351	352	8.6	89.3
2025-10-16T05:30	10	0	0.1	0	0	352	0.2	351	352	8.6	89.6
2025-10-16T05:31	10	0	0.1	0	0	352	0.2	352	352	8.6	90.2
2025-10-16T05:32	10	0	0.0	0	0	352	0.2	351	352	8.6	90.8
2025-10-16T05:33	10	0	0.1	0	0	352	0.2	352	352	8.6	90.7
2025-10-16T05:34	10	0	0.1	0	0	352	0.2	351	353	8.6	90.3
2025-10-16T05:35	10	0	0.1	0	0	352	0.3	352	353	8.6	90.5
2025-10-16T05:36	10	0	0.1	0	0	352	0.2	351	353	8.6	90.4
2025-10-16T05:37	10	0	0.1	0	0	352	0.2	351	352	8.6	90.6
2025-10-16T05:38	10	0	0.1	0	0	352	0.2	351	352	8.6	91.2
2025-10-16T05:39	10	0	0.1	0	0	352	0.2	351	352	8.5	91.4
2025-10-16T05:40	10	0	0.1	0	0	352	0.2	352	352	8.6	90.8
2025-10-16T05:41	10	0	0.1	0	0	352	0.2	352	353	8.6	91.1
2025-10-16T05:42	10	0	0.1	0	0	352	0.3	351	352	8.6	91.0
2025-10-16T05:43	10	0	0.1	0	0	352	0.2	352	353	8.6	90.8
2025-10-16T05:44	10	0	0.1	0	0	352	0.2	351	353	8.6	90.8
2025-10-16T05:45	10	0	0.0	0	0	352	0.2	351	352	8.6	91.2
2025-10-16T05:46	10	0	0.1	0	0	352	0.2	352	353	8.6	91.6
2025-10-16T05:47	10	0	0.0	0	0	352	0.2	352	353	8.6	91.3
2025-10-16T05:48	10	0	0.1	0	1	352	0.2	352	353	8.6	90.6
2025-10-16T05:49	10	0	0.1	0	0	352	0.2	352	353	8.6	90.5
2025-10-16T05:50	10	0	0.1	0	0	352	0.2	352	352	8.6	90.7
2025-10-16T05:51	10	0	0.1	0	1	352	0.2	352	353	8.6	90.8
2025-10-16T05:52	10	0	0.0	0	0	352	0.2	352	353	8.6	90.5
2025-10-16T05:53	10	0	0.1	0	1	352	0.2	351	352	8.6	90.3
2025-10-16T05:54	10	0	0.1	0	1	352	0.2	352	353	8.6	90.7
2025-10-16T05:55	10	0	0.0	0	1	352	0.2	352	352	8.6	91.0
2025-10-16T05:56	10	0	0.1	0	1	352	0.2	351	352	8.6	91.9
2025-10-16T05:57	10	0	0.1	0	1	352	0.3	351	353	8.5	92.5
2025-10-16T05:58	10	1	0.1	0	1	352	0.2	352	352	8.5	92.3
2025-10-16T05:59	10	1	0.1	0	1	352	0.2	351	353	8.5	92.7
2025-10-16T06:00	10	1	0.1	1	1	352	0.2	351	352	8.5	92.9
2025-10-16T06:01	10	1	0.1	1	1	352	0.2	351	352	8.5	93.0
2025-10-16T06:02	10	1	0.1	1	1	352	0.2	351	352	8.4	93.3
2025-10-16T06:03	10	1	0.1	1	1	352	0.2	351	352	8.4	93.2
2025-10-16T06:04	10	1	0.1	1	1	352	0.2	351	352	8.4	93.7
2025-10-16T06:05	10	1	0.1	1	1	352	0.2	351	352	8.4	93.9
2025-10-16T06:06	10	1	0.1	1	1	352	0.2	351	352	8.4	94.2
2025-10-16T06:07	10	1	0.1	1	2	352	0.2	351	352	8.4	94.1
2025-10-16T06:08	10	1	0.1	1	2	352	0.2	351	352	8.4	94.1
2025-10-16T06:09	10	1	0.1	1	2	352	0.2	351	352	8.3	94.2
2025-10-16T06:10	10	2	0.1	1	2	352	0.2	351	352	8.3	94.3
2025-10-16T06:11	10	2	0.1	1	2	352	0.2	352	353	8.3	94.5
2025-10-16T06:12	10	2	0.1	2	2	352	0.2	351	352	8.3	94.7
2025-10-16T06:13	10	2	0.1	2	2	352	0.2	351	352	8.2	94.6
2025-10-16T06:14	10	2	0.1	2	2	352	0.2	352	353	8.3	94.6
2025-10-16T06:15	10	2	0.1	2	3	352	0.2	352	353	8.3	94.6
2025-10-16T06:16	10	2	0.1	2	3	352	0.2	352	353	8.2	94.7
2025-10-16T06:17	10	3	0.1	2	3	352	0.2	352	353	8.2	95.0
2025-10-16T06:18	10	3	0.1	3	3	352	0.2	351	353	8.2	95.2
2025-10-16T06:19	10	3	0.1	3	3	352	0.3	352	353	8.2	95.2
2025-10-16T06:20	10	3	0.1	3	3	353	0.2	352	353	8.3	94.7
2025-10-16T06:21	10	3	0.1	3	4	353	0.2	352	353	8.3	94.4
2025-10-16T06:22	10	4	0.1	3	4	353	0.2	352	353	8.3	94.3
2025-10-16T06:23	10	4	0.1	3	4	353	0.2	352	353	8.4	94.3
2025-10-16T06:24	10	4	0.1	4	4	353	0.2	353	354	8.4	93.8
2025-10-16T06:25	10	4	0.1	4	4	353	0.2	353	354	8.5	93.5
2025-10-16T06:26	10	4	0.1	4	5	354	0.2	353	354	8.5	93.5
2025-10-16T06:27	10	4	0.1	4	5	353	0.2	353	354	8.5	93.6
2025-10-16T06:28	10	5	0.1	4	5	353	0.2	353	354	8.5	94.1
2025-10-16T06:29	10	5	0.1	5	5	353	0.2	353	354	8.4	94.8
2025-10-16T06:30	10	5	0.1	5	5	353	0.2	353	354	8.3	95.0
2025-10-16T06:31	10	5	0.1	5	5	353	0.3	352	354	8.3	94.7
2025-10-16T06:32	10	5	0.1	5	5	354	0.2	353	354	8.4	94.8
2025-10-16T06:33	10	6	0.2	5	6	354	0.2	353	354	8.4	94.7
2025-10-16T06:34	10	6	0.1	6	6	354	0.2	353	354	8.4	94.4
2025-10-16T06:35	10	6	0.1	6	6	354	0.2	353	354	8.4	94.3
2025-10-16T06:36	10	6	0.1	6	7	354	0.2	353	354	8.4	94.7
2025-10-16T06:37	10	7	0.1	6	7	354	0.2	353	354	8.3	95.0
2025-10-16T06:38	10	7	0.2	7	7	354	0.2	353	354	8.3	95.1
2025-10-16T06:39	10	7	0.1	7	7	354	0.3	353	355	8.3	95.2
2025-10-16T06:40	10	7	0.1	7	8	354	0.2	353	354	8.3	95.2
2025-10-16T06:41	10	7	0.1	7	8	354	0.3	354	355	8.3	95.2
2025-10-16T06:42	10	8	0.1	7	8	354	0.2	354	355	8.3	95.2
2025-10-16T06:43	10	8	0.1	7	8	354	0.2	354	355	8.3	95.4
2025-10-16T06:44	10	8	0.1	8	8	354	0.2	354	355	8.3	95.3
2025-10-16T06:45	10	8	0.1	8	8	354	0.3	354	355	8.3	95.5
2025-10-16T06:46	10	8	0.1	8	9	355	0.2	354	355	8.3	95.4
2025-10-16T06:47	10	9	0.2	8	9	355	0.3	354	356	8.4	95.1
2025-10-16T06:48	10	9	0.1	9	9	355	0.2	355	356	8.4	95.1
2025-10-16T06:49	10	9	0.1	9	9	356	0.2	355	356	8.4	95.6
2025-10-16T06:50	10	9	0.1	9	10	356	0.3	355	356	8.4	95.5
2025-10-16T06:51	10	10	0.2	9	10	356	0.2	355	356	8.5	95.1
2025-10-16T06:52	10	10	0.1	10	10	356	0.3	355	357	8.5	94.3
2025-10-16T06:53	10	10	0.1	10	10	356	0.2	356	357	8.5	94.2
2025-10-16T06:54	10	11	0.2	10	11	356	0.3	356	357	8.5	94.4
2025-10-16T06:55	10	11	0.2	11	12	357	0.2	356	357	8.6	94.5
2025-10-16T06:56	10	12	0.3	12	12	357	0.3	356	357	8.6	94.4
2025-10-16T06:57	10	13	0.2	12	13	357	0.3	357	358	8.6	93.6
2025-10-16T06:58	10	13	0.2	13	14	358	0.2	357	358	8.6	93.1
2025-10-16T06:59	10	14	0.2	13	14	358	0.3	357	359	8.6	93.5
2025-10-16T07:00	10	14	0.1	13	14	358	0.3	357	358	8.7	94.2
2025-10-16T07:01	10	14	0.2	14	15	358	0.3	357	359	8.7	94.6
2025-10-16T07:02	10	14	0.2	14	15	358	0.3	357	359	8.8	94.4
2025-10-16T07:03	10	14	0.1	14	15	358	0.3	357	359	8.8	94.2
2025-10-16T07:04	10	14	0.1	14	15	358	0.2	358	359	8.8	94.1
2025-10-16T07:05	10	14	0.2	14	15	358	0.3	358	359	8.8	94.1
2025-10-16T07:06	10	14	0.1	14	14	358	0.2	357	359	8.7	91.0
2025-10-16T07:07	10	14	0.1	14	15	358	0.3	357	359	8.8	91.0
2025-10-16T07:08	10	14	0.2	14	15	358	0.2	358	359	8.8	94.1
2025-10-16T07:09	10	15	0.2	14	15	359	0.2	358	359	8.8	94.1
2025-10-16T07:10	10	15	0.1	15	15	359	0.3	358	360	8.8	94.1
2025-10-16T07:11	10	15	0.2	15	15	359	0.3	358	360	8.8	94.0
2025-10-16T07:12	10	15	0.1	15	16	359	0.3	359	360	8.7	93.2
2025-10-16T07:13	10	15	0.1	15	16	359	0.3	358	360	8.7	93.3
2025-10-16T07:14	10	16	0.1	15	16	359	0.2	359	360	8.7	93.8
2025-10-16T07:15	10	16	0.1	15	16	359	0.2	359	360	8.8	93.9
2025-10-16T07:16	10	16	0.1	15	16	359	0.2	359	360	8.8	94.1
2025-10-16T07:17	10	16	0.2	15	16	360	0.3	359	361	8.8	94.4
2025-10-16T07:18	10	16	0.2	15	16	360	0.2	359	360	8.8	94.1
2025-10-16T07:19	10	16	0.2	16	16	360	0.2	360	361	8.8	93.8
2025-10-16T07:20	10	16	0.1	16	16	360	0.2	360	361	8.9	93.5
2025-10-16T07:21	10	16	0.1	16	17	360	0.2	360	361	8.9	93.3
2025-10-16T07:22	10	17	0.1	16	17	361	0.2	360	361	8.9	93.3
2025-10-16T07:23	10	17	0.1	17	17	361	0.3	360	361	8.9	93.3
2025-10-16T07:24	10	17	0.1	17	17	361	0.2	360	361	8.9	92.9
2025-10-16T07:25	10	17	0.1	17	18	361	0.2	361	362	9.0	92.8
2025-10-16T07:26	10	18	0.2	17	18	361	0.2	361	362	9.0	92.8
2025-10-16T07:27	10	18	0.2	18	18	362	0.2	361	362	9.1	92.4
2025-10-16T07:28	10	19	0.2	18	19	362	0.2	362	362	9.1	92.0
2025-10-16T07:29	10	19	0.1	19	19	362	0.2	362	362	9.1	91.8
2025-10-16T07:30	10	19	0.1	19	20	362	0.3	361	363	9.1	91.7
2025-10-16T07:31	10	20	0.1	19	20	362	0.2	362	363	9.2	92.0
2025-10-16T07:32	10	20	0.2	20	20	363	0.3	362	363	9.2	91.6
2025-10-16T07:33	10	20	0.1	20	20	363	0.2	362	363	9.2	91.6
2025-10-16T07:34	10	20	0.1	20	21	363	0.2	363	363	9.2	91.5
2025-10-16T07:35	10	20	0.1	20	21	363	0.2	363	364	9.2	91.2
2025-10-16T07:36	10	21	0.1	20	21	363	0.2	363	364	9.3	91.0
2025-10-16T07:37	10	21	0.1	20	21	364	0.3	363	364	9.3	91.2
2025-10-16T07:38	10	21	0.1	21	21	364	0.2	364	365	9.4	90.4
2025-10-16T07:39	10	21	0.4	21	23	364	0.3	364	365	9.4	90.6
2025-10-16T07:40	10	21	0.1	21	22	363	0.5	362	364	9.4	89.2
2025-10-16T07:41	10	21	0.1	21	22	363	0.2	363	364	9.4	87.8
2025-10-16T07:42	10	22	0.1	22	22	363	0.2	363	364	9.4	88.3
2025-10-16T07:43	10	22	0.1	22	22	364	0.3	363	364	9.5	88.9
2025-10-16T07:44	10	22	0.1	22	23	364	0.4	363	365	9.5	87.9
2025-10-16T07:45	10	23	0.5	23	26	363	0.2	363	364	9.4	87.7
2025-10-16T07:46	10	23	0.2	23	24	363	0.2	362	364	9.4	87.5
2025-10-16T07:47	10	24	0.1	23	24	363	0.2	362	363	9.4	87.2
2025-10-16T07:48	10	24	0.1	24	24	363	0.2	363	364	9.4	87.6
2025-10-16T07:49	10	24	0.1	24	25	363	0.2	363	364	9.4	87.7
2025-10-16T07:50	10	25	0.2	24	25	363	0.2	362	363	9.4	87.5
2025-10-16T07:51	10	25	0.2	25	26	363	0.2	363	364	9.5	87.8
2025-10-16T07:52	10	26	0.2	26	26	364	0.3	363	364	9.5	88.0
2025-10-16T07:53	10	26	0.1	26	27	364	0.3	363	365	9.5	87.6
2025-10-16T07:54	10	27	0.1	26	27	364	0.2	363	364	9.5	87.5
2025-10-16T07:55	10	27	0.1	27	27	364	0.2	363	364	9.4	87.4
2025-10-16T07:56	10	27	0.1	27	27	364	0.2	363	364	9.4	87.6
2025-10-16T07:57	10	28	0.2	27	28	364	0.3	364	365	9.5	87.5
2025-10-16T07:58	10	28	0.2	28	29	364	0.3	364	365	9.5	87.3
2025-10-16T07:59	10	29	0.2	29	29	365	0.2	364	365	9.6	87.3
2025-10-16T08:00	10	30	0.2	29	30	365	0.2	364	365	9.5	86.8
2025-10-16T08:01	10	30	0.1	30	30	364	0.3	364	365	9.6	87.0
2025-10-16T08:02	10	30	0.1	30	30	364	0.2	364	365	9.5	86.9
2025-10-16T08:03	10	30	0.1	30	30	365	0.2	364	365	9.6	87.1
2025-10-16T08:04	10	30	0.1	30	30	365	0.3	364	366	9.6	86.7
2025-10-16T08:05	10	30	0.1	30	30	365	0.2	364	365	9.6	86.5
2025-10-16T08:06	10	30	0.1	30	31	365	0.3	364	366	9.6	86.9
2025-10-16T08:07	10	31	0.1	30	31	365	0.2	365	366	9.6	87.2
2025-10-16T08:08	10	31	0.1	30	31	366	0.2	365	366	9.6	87.1
2025-10-16T08:09	10	31	0.1	31	31	365	0.3	365	366	9.6	86.6
2025-10-16T08:10	10	31	0.1	31	31	366	0.2	365	366	9.7	87.0
2025-10-16T08:11	10	31	0.1	31	31	366	0.2	365	366	9.7	87.0
2025-10-16T08:12	10	31	0.1	31	31	366	0.2	366	367	9.7	86.9
2025-10-16T08:13	10	31	0.1	31	32	366	0.4	365	367	9.7	86.4
2025-10-16T08:14	10	32	0.1	31	32	367	0.2	366	367	9.7	86.7
2025-10-16T08:15	10	32	0.1	32	32	367	0.2	367	367	9.8	86.8
2025-10-16T08:16	10	33	0.2	32	33	368	0.3	367	368	9.8	87.1
2025-10-16T08:17	10	33	0.2	33	34	368	0.4	367	368	9.9	86.9
2025-10-16T08:18	10	34	0.2	33	34	367	0.3	366	368	9.8	86.1
2025-10-16T08:19	10	34	0.1	34	34	367	0.2	366	367	9.8	86.0
2025-10-16T08:20	10	34	0.1	34	34	367	0.2	366	367	9.8	85.9
2025-10-16T08:21	10	35	0.1	34	35	367	0.2	367	368	9.8	86.1
2025-10-16T08:22	10	35	0.2	34	35	367	0.2	367	368	9.8	85.9
2025-10-16T08:23	10	36	0.3	35	36	367	0.4	366	368	9.8	85.7
2025-10-16T08:24	10	37	0.3	36	37	368	0.2	368	369	9.9	86.3
2025-10-16T08:25	10	38	0.3	37	38	368	0.3	368	369	9.9	86.1
2025-10-16T08:26	10	39	0.3	38	39	369	0.3	368	370	9.9	86.0
2025-10-16T08:27	10	40	0.2	39	40	370	0.4	369	370	10.0	86.3
2025-10-16T08:28	10	40	0.2	40	40	370	0.2	370	371	10.0	85.9
2025-10-16T08:29	10	41	0.2	40	41	370	0.6	369	371	9.9	85.3
2025-10-16T08:30	10	42	0.2	41	42	369	0.2	369	370	9.9	85.6
2025-10-16T08:31	10	42	0.1	42	42	370	0.4	369	370	9.9	85.2
2025-10-16T08:32	10	43	0.1	42	43	370	0.4	369	370	10.0	85.5
2025-10-16T08:33	10	43	0.1	43	43	370	0.3	369	371	10.1	85.5
2025-10-16T08:34	10	43	0.2	43	44	370	0.3	369	371	10.0	84.9
2025-10-16T08:35	10	44	0.2	43	44	370	0.2	369	370	9.9	85.2
2025-10-16T08:36	10	45	0.2	44	45	370	0.3	369	370	9.9	84.9
2025-10-16T08:37	10	45	0.2	45	46	369	0.4	368	370	9.9	84.6
2025-10-16T08:38	10	46	0.2	46	46	369	0.2	369	370	9.9	84.3
2025-10-16T08:39	10	47	0.2	46	47	369	0.3	368	370	9.9	84.1
2025-10-16T08:40	10	47	0.2	47	48	369	0.5	369	371	9.9	84.2
2025-10-16T08:41	10	49	1.9	47	54	371	0.4	370	372	10.0	84.5
2025-10-16T08:42	10	55	1.6	52	57	372	0.3	371	373	10.1	84.8
2025-10-16T08:43	10	51	0.2	51	52	372	0.3	372	373	10.2	85.1
2025-10-16T08:44	10	52	0.3	51	52	373	0.4	372	374	10.4	85.1
2025-10-16T08:45	10	53	0.3	52	53	373	0.3	372	374	10.2	83.9
2025-10-16T08:46	10	54	0.9	53	57	373	0.5	372	374	10.2	84.4
2025-10-16T08:47	10	60	1.7	57	62	373	0.5	372	374	10.1	84.1
2025-10-16T08:48	10	57	0.4	56	57	374	0.3	373	375	10.1	84.1
2025-10-16T08:49	10	57	0.2	56	57	375	0.2	374	375	10.3	85.1
2025-10-16T08:50	10	56	0.5	56	58	375	0.4	374	375	10.4	85.7
2025-10-16T08:51	10	55	0.2	55	56	374	0.4	373	375	10.4	84.2
2025-10-16T08:52	10	55	0.1	55	55	374	0.4	373	375	10.3	83.8
2025-10-16T08:53	10	55	0.2	55	56	375	0.3	374	376	10.4	84.4
2025-10-16T08:54	10	56	0.1	56	56	374	0.3	373	374	10.3	83.6
2025-10-16T08:55	10	56	0.1	56	56	374	0.4	373	375	10.2	83.7
2025-10-16T08:56	10	56	0.1	56	56	375	0.3	374	375	10.2	84.1
2025-10-16T08:57	10	56	0.2	55	56	375	0.4	374	376	10.3	84.8
2025-10-16T08:58	10	55	0.2	54	55	375	0.2	374	375	10.4	84.2
2025-10-16T08:59	10	54	0.3	53	54	375	0.4	374	376	10.3	84.1
2025-10-16T09:00	10	53	0.1	53	53	375	0.6	374	376	10.3	84.1
2025-10-16T09:01	10	53	0.1	53	54	374	0.5	373	375	10.2	83.8
2025-10-16T09:02	10	54	0.1	53	54	373	0.4	373	374	10.2	83.6
2025-10-16T09:03	10	54	0.1	54	54	374	0.6	373	375	10.3	84.1
2025-10-16T09:04	10	54	0.1	54	55	374	0.3	373	374	10.2	83.5
2025-10-16T09:05	10	55	0.1	54	55	374	0.2	374	375	10.3	84.0
2025-10-16T09:06	10	55	0.1	55	55	374	0.2	374	375	10.2	83.4
2025-10-16T09:07	10	56	0.6	55	57	375	0.2	374	376	10.3	83.9
2025-10-16T09:08	10	56	0.5	55	57	375	0.3	374	375	10.4	84.2
2025-10-16T09:09	10	55	0.1	55	55	375	0.4	374	376	10.4	84.0
2025-10-16T09:10	10	55	0.1	55	55	374	0.3	373	375	10.3	83.1
2025-10-16T09:11	10	55	0.1	54	55	374	0.4	373	375	10.3	83.5
2025-10-16T09:12	10	54	0.3	53	54	375	0.2	374	375	10.4	83.9
2025-10-16T09:13	10	52	0.4	52	53	375	0.3	374	375	10.3	84.1
2025-10-16T09:14	10	51	0.4	50	52	375	0.4	374	376	10.3	83.6
2025-10-16T09:15	10	50	0.4	49	50	374	0.4	373	375	10.4	84.1
2025-10-16T09:16	10	49	0.3	48	49	374	0.3	374	375	10.5	83.8
2025-10-16T09:17	10	48	0.1	48	48	374	0.3	374	375	10.5	82.7
2025-10-16T09:18	10	48	0.1	48	48	375	0.2	374	375	10.5	82.3
2025-10-16T09:19	10	47	0.2	47	48	375	0.5	374	376	10.4	83.0
2025-10-16T09:20	10	47	0.1	47	47	374	0.3	373	374	10.3	83.0
2025-10-16T09:21	10	47	0.2	46	47	374	0.4	373	375	10.4	83.8
2025-10-16T09:22	10	46	0.2	45	46	375	0.3	374	375	10.6	84.4
2025-10-16T09:23	10	45	0.2	45	45	375	0.2	375	375	10.6	83.0
2025-10-16T09:24	10	45	0.1	44	45	374	0.5	373	375	10.7	83.5
2025-10-16T09:25	10	45	0.2	45	45	374	0.3	373	374	10.6	83.1
2025-10-16T09:26	10	46	0.2	45	46	374	0.3	373	374	10.6	83.0
2025-10-16T09:27	10	46	0.1	46	47	374	0.2	373	374	10.5	82.5
2025-10-16T09:28	10	46	0.1	46	46	374	0.4	373	375	10.6	83.3
2025-10-16T09:29	10	46	0.2	45	46	373	0.6	373	375	10.6	82.9
2025-10-16T09:30	10	45	0.1	45	45	373	0.4	372	374	10.4	82.5
2025-10-16T09:31	10	45	0.1	45	45	374	0.4	373	375	10.4	82.8
2025-10-16T09:32	10	45	0.1	45	45	374	0.3	374	375	10.5	82.4
2025-10-16T09:33	10	45	0.1	45	45	374	0.2	373	374	10.4	82.2
2025-10-16T09:34	10	45	0.1	45	45	374	0.2	373	375	10.5	82.4
2025-10-16T09:35	10	45	0.2	44	45	375	0.3	374	375	10.5	82.3
2025-10-16T09:36	10	44	0.4	43	44	375	0.4	374	376	10.6	83.5
2025-10-16T09:37	10	42	0.3	42	43	375	0.5	374	376	10.7	83.0
2025-10-16T09:38	10	41	0.2	41	42	375	0.2	374	375	10.7	82.6
2025-10-16T09:39	10	41	0.1	41	41	375	0.3	374	375	10.7	83.6
2025-10-16T09:40	10	41	0.1	41	41	374	0.2	374	375	10.8	83.3
2025-10-16T09:41	10	41	0.2	40	41	374	0.3	373	375	10.8	82.8
2025-10-16T09:42	10	40	0.4	39	40	373	0.3	373	374	10.6	82.3
2025-10-16T09:43	10	39	0.1	39	39	373	0.2	373	374	10.6	83.0
2025-10-16T09:44	10	39	0.1	39	39	372	0.4	372	373	10.5	82.9
2025-10-16T09:45	10	39	0.2	39	39	372	0.3	371	373	10.5	82.8
2025-10-16T09:46	10	39	0.2	39	40	373	0.6	372	374	10.6	83.4
2025-10-16T09:47	10	40	0.1	39	40	374	0.2	373	374	10.8	83.3
2025-10-16T09:48	10	40	0.3	39	40	374	0.3	373	374	10.7	82.4
2025-10-16T09:49	10	39	0.3	39	40	374	0.3	374	375	10.7	82.4
2025-10-16T09:50	10	39	0.1	38	39	373	0.3	373	374	10.6	80.9
2025-10-16T09:51	10	38	0.2	38	39	373	0.3	372	374	10.7	80.6
2025-10-16T09:52	10	38	0.2	38	39	374	0.3	373	374	10.8	80.8
2025-10-16T09:53	10	38	0.1	38	39	373	0.5	372	374	10.7	80.3
2025-10-16T09:54	10	38	0.2	37	38	373	0.3	372	373	10.6	81.2
2025-10-16T09:55	10	37	0.3	36	38	372	0.2	372	373	10.7	81.4
2025-10-16T09:56	10	36	0.3	35	37	373	0.3	372	373	10.8	81.6
2025-10-16T09:57	10	35	0.3	34	35	373	0.3	372	373	10.8	81.5
2025-10-16T09:58	10	34	0.2	34	35	373	0.2	373	374	10.8	81.7
2025-10-16T09:59	10	34	0.2	33	34	373	0.3	373	374	10.9	81.8
2025-10-16T10:00	10	34	0.1	33	34	372	0.5	371	373	10.8	81.1
2025-10-16T10:01	10	34	0.2	34	35	372	0.3	371	372	10.8	81.4
2025-10-16T10:02	10	35	0.2	34	35	371	0.3	371	372	10.8	81.4
2025-10-16T10:03	10	35	0.2	35	36	372	0.2	371	372	10.8	81.9
2025-10-16T10:04	10	36	0.2	35	36	371	0.3	371	372	10.8	81.7
2025-10-16T10:05	10	36	0.2	35	36	372	0.4	371	372	10.8	81.5
2025-10-16T10:06	10	36	0.2	36	37	373	0.5	372	374	10.9	81.8
2025-10-16T10:07	10	37	0.2	37	37	373	0.3	372	373	10.9	81.8
2025-10-16T10:08	10	37	0.2	37	38	373	0.4	373	374	10.9	81.9
2025-10-16T10:09	10	38	0.1	38	38	373	0.5	372	374	10.9	80.6
2025-10-16T10:10	10	38	0.1	38	38	373	0.4	372	374	10.7	80.5
2025-10-16T10:11	10	38	0.1	38	39	374	0.4	373	375	10.8	80.8
2025-10-16T10:12	10	38	0.2	38	39	375	0.2	374	375	10.9	80.6
2025-10-16T10:13	10	39	0.2	38	39	375	0.4	374	376	11.0	81.6
2025-10-16T10:14	10	38	0.1	38	39	374	0.7	373	375	10.9	81.9
2025-10-16T10:15	10	39	0.2	38	39	373	0.3	373	374	10.8	82.6
2025-10-16T10:16	10	39	0.4	38	40	373	0.5	372	374	10.7	82.8
2025-10-16T10:17	10	40	0.3	40	41	372	0.2	372	373	10.6	83.1
2025-10-16T10:18	10	41	0.2	41	41	372	0.4	372	373	10.7	83.2
2025-10-16T10:19	10	42	0.2	41	42	373	0.3	372	374	10.7	82.9
2025-10-16T10:20	10	42	0.1	42	42	373	0.2	372	374	10.7	82.5
2025-10-16T10:21	10	42	0.2	41	42	373	0.4	373	374	10.8	82.6
2025-10-16T10:22	10	42	0.1	42	42	373	0.3	373	374	10.9	82.5
2025-10-16T10:23	10	42	0.1	42	42	373	0.4	372	373	10.8	81.4
2025-10-16T10:24	10	42	0.2	41	42	373	0.4	372	374	10.9	81.8
2025-10-16T10:25	10	42	0.1	42	42	374	0.3	373	375	10.9	81.9
2025-10-16T10:26	10	42	0.1	41	42	374	0.4	373	375	10.9	82.3
2025-10-16T10:27	10	41	0.2	41	42	375	0.3	374	375	11.0	82.2
2025-10-16T10:28	10	40	0.4	39	41	374	0.3	373	375	10.9	81.0
2025-10-16T10:29	10	39	0.4	38	39	375	0.3	374	375	10.9	81.2
2025-10-16T10:30	10	38	0.2	37	38	375	0.3	375	376	11.0	82.0
2025-10-16T10:31	10	37	0.2	37	38	374	0.5	373	375	10.9	81.1
2025-10-16T10:32	10	37	0.1	37	37	373	0.3	372	374	10.8	80.8
2025-10-16T10:33	10	37	0.2	37	38	373	0.3	372	373	10.7	80.7
2025-10-16T10:34	10	37	0.1	36	37	373	0.3	372	373	10.7	80.8
2025-10-16T10:35	10	37	0.2	37	38	373	0.3	372	373	10.8	80.6
2025-10-16T10:36	10	37	0.2	37	38	373	0.3	372	374	10.8	80.5
2025-10-16T10:37	10	38	0.2	37	38	372	0.4	372	373	10.8	80.3
2025-10-16T10:38	10	39	0.2	38	39	373	0.3	372	374	11.0	80.7
2025-10-16T10:39	10	39	0.2	39	40	374	0.3	373	374	11.0	80.5
2025-10-16T10:40	10	40	0.2	39	40	375	0.4	374	376	11.1	80.6
2025-10-16T10:41	10	40	0.2	39	40	374	0.2	374	375	11.0	79.7
2025-10-16T10:42	10	39	0.1	39	40	374	0.3	373	374	10.9	79.7
2025-10-16T10:43	10	39	0.2	38	39	374	0.3	373	374	10.9	80.2
2025-10-16T10:44	10	38	0.3	37	39	374	0.3	374	375	11.1	80.6
2025-10-16T10:45	10	37	0.3	37	38	374	0.3	374	375	11.1	79.9
2025-10-16T10:46	10	36	0.2	36	37	374	0.3	373	374	11.0	79.0
2025-10-16T10:47	10	36	0.2	35	36	373	0.3	373	374	11.1	78.8
2025-10-16T10:48	10	36	0.2	35	36	373	0.4	372	374	11.1	78.5
2025-10-16T10:49	10	36	0.1	35	36	373	0.3	372	373	11.1	77.5
2025-10-16T10:50	10	36	0.2	35	36	373	0.3	372	373	11.0	77.5
2025-10-16T10:51	10	36	0.1	36	36	373	0.3	373	374	11.1	78.0
2025-10-16T10:52	10	36	0.1	36	37	373	0.3	373	374	11.1	78.1
2025-10-16T10:53	10	36	0.1	36	37	373	0.3	373	374	11.1	77.9
2025-10-16T10:54	10	36	0.1	36	37	374	0.4	373	375	11.1	77.8
2025-10-16T10:55	10	37	0.2	36	37	374	0.3	373	375	11.2	78.9
2025-10-16T10:56	10	37	0.1	36	37	374	0.3	373	374	11.2	78.3
2025-10-16T10:57	10	37	0.1	36	37	374	0.3	373	375	11.1	77.3
2025-10-16T10:58	10	37	0.1	36	37	374	0.3	374	375	11.1	78.1
2025-10-16T10:59	10	37	0.1	37	37	374	0.3	373	374	11.1	77.6
2025-10-16T11:00	10	37	0.2	37	37	373	0.3	373	374	11.1	77.2
2025-10-16T11:01	10	37	0.2	37	38	373	0.3	373	374	11.1	76.1
2025-10-16T11:02	10	37	0.2	37	38	373	0.3	372	373	11.0	75.5
2025-10-16T11:03	10	38	0.1	37	38	373	0.4	372	374	11.1	75.9
2025-10-16T11:04	10	38	0.2	38	38	374	0.3	373	374	11.2	75.8
2025-10-16T11:05	10	38	0.1	38	38	374	0.3	373	374	11.2	75.3
2025-10-16T11:06	10	38	0.1	38	39	374	0.2	373	374	11.1	75.0
2025-10-16T11:07	10	38	0.2	38	39	373	0.3	372	374	11.1	73.6
2025-10-16T11:08	10	38	0.3	37	38	373	0.3	373	374	11.2	74.7
2025-10-16T11:09	10	37	0.4	36	38	373	0.3	372	374	11.2	74.1
2025-10-16T11:10	10	36	0.3	36	37	373	0.3	373	374	11.2	73.5
2025-10-16T11:11	10	35	0.2	35	36	374	0.3	373	374	11.2	74.3
2025-10-16T11:12	10	35	0.1	35	36	374	0.4	373	375	11.3	75.1
2025-10-16T11:13	10	36	0.2	35	36	374	0.4	373	375	11.3	73.9
2025-10-16T11:14	10	37	0.3	36	37	373	0.5	372	374	11.2	73.2
2025-10-16T11:15	10	37	0.2	37	38	373	0.4	372	374	11.2	72.9
2025-10-16T11:16	10	38	0.1	37	38	373	0.2	372	373	11.2	73.0
2025-10-16T11:17	10	38	0.1	38	38	374	0.3	373	374	11.3	72.9
2025-10-16T11:18	10	38	0.1	38	38	374	0.2	374	375	11.3	72.8
2025-10-16T11:19	10	38	0.2	37	38	374	0.3	373	374	11.3	73.4
2025-10-16T11:20	10	37	0.2	37	37	374	0.3	373	374	11.3	73.4
2025-10-16T11:21	10	36	0.2	36	37	373	0.2	372	373	11.3	73.5
2025-10-16T11:22	10	36	0.1	36	36	373	0.3	373	374	11.3	73.6
2025-10-16T11:23	10	36	0.1	36	36	374	0.2	373	374	11.3	73.7
2025-10-16T11:24	10	36	0.1	36	36	374	0.3	373	375	11.3	73.8
2025-10-16T11:25	10	37	0.1	36	37	374	0.3	373	375	11.4	74.3
2025-10-16T11:26	10	37	0.1	36	37	374	0.3	373	374	11.4	72.4
2025-10-16T11:27	10	37	0.1	37	37	374	0.3	373	374	11.3	70.6
2025-10-16T11:28	10	37	0.1	37	38	374	0.4	373	375	11.3	71.7
2025-10-16T11:29	10	37	0.1	37	38	375	0.3	374	375	11.4	71.4
2025-10-16T11:30	10	37	0.1	37	38	374	0.3	373	375	11.4	70.4
2025-10-16T11:31	10	37	0.1	37	38	373	0.4	373	374	11.3	69.9
2025-10-16T11:32	10	37	0.1	37	38	373	0.4	373	374	11.4	70.8
2025-10-16T11:33	10	37	0.1	37	38	373	0.4	372	374	11.4	69.7
2025-10-16T11:34	10	37	0.1	37	38	373	0.2	372	373	11.4	69.8
2025-10-16T11:35	10	37	0.1	37	37	373	0.2	373	373	11.4	68.9
2025-10-16T11:36	10	37	0.1	37	37	373	0.2	373	374	11.4	69.3
2025-10-16T11:37	10	37	0.1	37	37	374	0.2	373	374	11.4	68.4
2025-10-16T11:38	10	37	0.1	37	38	374	0.3	373	374	11.4	69.5
2025-10-16T11:39	10	38	0.1	37	38	375	0.3	374	375	11.5	69.3
2025-10-16T11:40	10	38	0.1	38	38	375	0.3	375	376	11.5	69.6
2025-10-16T11:41	10	38	0.1	38	38	375	0.3	375	376	11.6	69.1
2025-10-16T11:42	10	38	0.1	38	39	374	0.5	373	375	11.5	68.5
2025-10-16T11:43	10	38	0.1	38	39	374	0.2	373	374	11.5	69.5
2025-10-16T11:44	10	38	0.1	38	39	374	0.3	374	375	11.5	69.5
2025-10-16T11:45	10	38	0.1	38	38	375	0.3	374	375	11.5	69.0
2025-10-16T11:46	10	38	0.1	38	38	375	0.2	375	376	11.5	69.2
2025-10-16T11:47	10	38	0.1	38	38	375	0.5	374	376	11.5	69.6
2025-10-16T11:48	10	38	0.1	37	38	375	0.2	374	375	11.5	70.6
2025-10-16T11:49	10	38	0.1	38	38	375	0.3	374	375	11.6	70.3
2025-10-16T11:50	10	38	0.1	38	38	375	0.3	375	376	11.6	70.2
2025-10-16T11:51	10	38	0.1	38	38	375	0.6	374	376	11.6	69.9
2025-10-16T11:52	10	38	0.1	38	39	374	0.4	373	375	11.6	68.9
2025-10-16T11:53	10	38	0.1	38	38	374	0.3	373	375	11.5	68.7
2025-10-16T11:54	10	38	0.1	38	39	375	0.3	374	375	11.6	69.6
2025-10-16T11:55	10	38	0.1	38	39	375	0.6	374	376	11.6	68.8
2025-10-16T11:56	10	39	0.1	39	39	374	0.3	373	375	11.6	68.5
2025-10-16T11:57	10	39	0.1	39	39	375	0.3	374	375	11.6	68.4
2025-10-16T11:58	10	39	0.1	39	39	376	0.3	375	376	11.6	69.0
2025-10-16T11:59	10	39	0.1	39	39	375	0.2	375	376	11.7	69.3
2025-10-16T12:00	10	39	0.1	39	39	375	0.2	375	376	11.7	69.7
2025-10-16T12:01	10	39	0.1	39	39	376	0.2	375	376	11.7	70.6
2025-10-16T12:02	10	39	0.1	39	39	375	0.3	375	376	11.7	70.5
2025-10-16T12:03	10	39	0.1	39	39	376	0.3	376	377	11.8	71.3
2025-10-16T12:04	10	39	0.1	39	39	376	0.3	375	377	11.7	70.1
2025-10-16T12:05	10	39	0.1	39	39	376	0.2	376	377	11.7	70.9
2025-10-16T12:06	10	39	0.1	39	39	376	0.3	375	376	11.7	70.5
2025-10-16T12:07	10	39	0.1	39	39	376	0.3	376	377	11.8	70.8
2025-10-16T12:08	10	39	0.1	39	39	377	0.3	376	377	11.8	70.6
2025-10-16T12:09	10	39	0.1	38	39	377	0.6	375	378	11.8	70.1
2025-10-16T12:10	10	39	0.1	38	39	376	0.2	375	376	11.6	69.4
2025-10-16T12:11	10	39	0.1	39	39	375	0.3	375	376	11.6	70.2
2025-10-16T12:12	10	39	0.1	39	39	376	0.5	376	377	11.8	71.0
2025-10-16T12:13	10	39	0.1	39	39	377	0.3	376	378	11.8	71.3
2025-10-16T12:14	10	39	0.0	39	40	377	0.3	376	378	11.8	71.8
2025-10-16T12:15	10	39	0.1	39	40	377	0.4	376	378	11.8	71.1
2025-10-16T12:16	10	40	0.0	39	40	375	0.7	374	376	11.5	70.7
2025-10-16T12:17	10	40	0.1	39	40	375	0.3	374	376	11.6	71.7
2025-10-16T12:18	10	40	0.1	40	40	375	0.2	375	376	11.6	72.0
2025-10-16T12:19	10	40	0.1	40	40	375	0.3	374	376	11.6	71.9
2025-10-16T12:20	10	41	0.1	40	41	374	0.2	374	375	11.6	70.8
2025-10-16T12:21	10	41	0.1	41	41	374	0.3	374	375	11.5	70.5
2025-10-16T12:22	10	41	0.1	40	41	374	0.3	374	375	11.6	71.3
2025-10-16T12:23	10	40	0.1	40	41	374	0.3	374	375	11.6	71.0
2025-10-16T12:24	10	40	0.2	40	40	375	0.4	374	375	11.6	70.5
2025-10-16T12:25	10	39	0.2	39	40	374	0.2	373	374	11.5	70.1
2025-10-16T12:26	10	39	0.2	38	39	374	0.2	373	374	11.5	70.2
2025-10-16T12:27	10	38	0.1	38	38	374	0.2	373	374	11.6	70.2
2025-10-16T12:28	10	38	0.1	38	38	374	0.3	373	375	11.6	69.6
2025-10-16T12:29	10	38	0.1	38	38	374	0.5	374	376	11.5	69.8
2025-10-16T12:30	10	38	0.1	38	38	376	0.4	375	376	11.7	71.0
2025-10-16T12:31	10	38	0.1	38	38	376	0.2	375	376	11.7	71.3
2025-10-16T12:32	10	38	0.1	38	39	375	0.6	374	376	11.8	71.2
2025-10-16T12:33	10	38	0.1	38	39	375	0.3	374	375	11.6	70.1
2025-10-16T12:34	10	38	0.1	38	38	375	0.3	374	376	11.7	70.8
2025-10-16T12:35	10	38	0.1	38	38	375	0.3	374	376	11.6	70.6
2025-10-16T12:36	10	38	0.2	37	38	375	0.4	374	376	11.6	70.7
2025-10-16T12:37	10	37	0.2	37	38	374	0.3	373	375	11.6	70.5
2025-10-16T12:38	10	37	0.2	36	37	374	0.4	373	374	11.6	70.2
2025-10-16T12:39	10	36	0.2	36	36	373	0.2	373	374	11.5	70.4
2025-10-16T12:40	10	35	0.1	35	36	374	0.3	373	374	11.6	70.6
2025-10-16T12:41	10	35	0.1	35	35	374	0.2	373	374	11.6	70.5
2025-10-16T12:42	10	35	0.1	35	35	373	0.4	372	374	11.5	69.9
2025-10-16T12:43	10	36	0.1	35	36	372	0.4	372	373	11.5	70.5
2025-10-16T12:44	10	36	0.2	36	37	373	0.4	372	374	11.6	71.1
2025-10-16T12:45	10	37	0.3	37	38	374	0.3	373	375	11.6	71.3
2025-10-16T12:46	10	38	0.2	38	39	375	0.5	374	376	11.6	71.7
2025-10-16T12:47	10	39	0.2	39	39	376	0.2	375	376	11.7	71.5
2025-10-16T12:48	10	40	0.2	39	40	376	0.2	376	377	11.7	72.2
2025-10-16T12:49	10	40	0.3	40	41	376	0.3	375	377	11.8	71.7
2025-10-16T12:50	10	41	0.2	41	41	376	0.3	375	377	11.6	70.3
2025-10-16T12:51	10	42	0.2	41	42	376	0.3	376	377	11.6	70.5
2025-10-16T12:52	10	43	0.2	42	43	377	0.2	376	377	11.6	70.6
2025-10-16T12:53	10	43	0.1	43	43	378	0.2	377	378	11.7	71.3
2025-10-16T12:54	10	42	0.3	42	43	377	0.3	377	378	11.7	70.8
2025-10-16T12:55	10	41	0.3	41	42	377	0.3	377	378	11.7	71.2
2025-10-16T12:56	10	40	0.3	40	41	377	0.4	376	378	11.8	71.2
2025-10-16T12:57	10	39	0.3	39	40	376	0.4	375	377	11.7	71.1
2025-10-16T12:58	10	39	0.2	38	39	376	0.3	376	377	11.8	71.7
2025-10-16T12:59	10	38	0.2	37	38	376	0.2	376	377	11.8	71.0
2025-10-16T13:00	10	37	0.2	37	38	376	0.3	375	377	11.8	71.0
2025-10-16T13:01	10	37	0.1	37	37	377	0.4	377	378	11.8	71.6
2025-10-16T13:02	10	37	0.2	36	37	377	0.5	377	378	11.9	72.4
2025-10-16T13:03	10	36	0.1	36	36	376	0.8	375	378	11.8	71.8
2025-10-16T13:04	10	36	0.1	36	36	375	0.2	375	376	11.7	70.8
2025-10-16T13:05	10	36	0.1	36	36	375	0.2	374	375	11.6	71.2
2025-10-16T13:06	10	36	0.1	36	36	375	0.3	374	375	11.6	71.1
2025-10-16T13:07	10	36	0.1	36	36	375	0.3	374	375	11.6	71.0
2025-10-16T13:08	10	36	0.1	36	36	374	0.5	374	375	11.6	70.8
2025-10-16T13:09	10	36	0.1	36	36	375	0.4	374	376	11.6	71.0
2025-10-16T13:10	10	36	0.1	36	36	375	0.3	375	376	11.6	71.1
2025-10-16T13:11	10	35	0.1	35	36	375	0.2	374	375	11.6	71.1
2025-10-16T13:12	10	35	0.2	35	35	375	0.2	375	376	11.7	71.2
2025-10-16T13:13	10	34	0.2	34	35	375	0.2	375	376	11.7	71.5
2025-10-16T13:14	10	34	0.3	33	34	375	0.2	375	376	11.7	71.4
2025-10-16T13:15	10	33	0.2	32	33	375	0.3	374	375	11.7	70.7
2025-10-16T13:16	10	32	0.2	32	32	375	0.2	374	375	11.7	71.0
2025-10-16T13:17	10	32	0.1	31	32	374	0.3	374	375	11.7	70.8
2025-10-16T13:18	10	31	0.1	31	32	374	0.4	373	375	11.7	70.6
2025-10-16T13:19	10	31	0.1	31	31	374	0.3	373	374	11.6	70.1
2025-10-16T13:20	10	31	0.1	31	31	374	0.3	373	374	11.7	71.0
2025-10-16T13:21	10	31	0.1	30	31	374	0.2	374	375	11.8	71.9
2025-10-16T13:22	10	30	0.1	30	31	374	0.4	373	375	11.7	70.7
2025-10-16T13:23	10	30	0.1	30	31	373	0.2	373	374	11.6	70.7
2025-10-16T13:24	10	31	0.1	31	31	373	0.3	372	373	11.6	70.3
2025-10-16T13:25	10	31	0.1	31	31	373	0.2	373	374	11.6	70.5
2025-10-16T13:26	10	32	0.2	31	32	373	0.4	372	374	11.6	70.9
2025-10-16T13:27	10	32	0.2	32	32	373	0.2	373	374	11.7	70.8
2025-10-16T13:28	10	33	0.2	32	33	373	0.2	372	373	11.6	70.5
2025-10-16T13:29	10	33	0.1	33	33	373	0.2	373	374	11.6	70.6
2025-10-16T13:30	10	33	0.1	33	33	374	0.2	373	374	11.6	70.8
2025-10-16T13:31	10	33	0.1	33	33	373	0.2	373	374	11.6	70.7
2025-10-16T13:32	10	33	0.1	33	33	373	0.3	373	374	11.6	70.4
2025-10-16T13:33	10	33	0.1	32	33	374	0.3	373	374	11.6	70.4
2025-10-16T13:34	10	32	0.1	32	33	373	0.2	373	374	11.6	70.2
2025-10-16T13:35	10	32	0.1	32	32	374	0.3	373	374	11.6	70.8
2025-10-16T13:36	10	32	0.2	31	32	374	0.5	373	375	11.6	70.8
2025-10-16T13:37	10	31	0.2	31	31	375	0.3	374	375	11.7	70.7
2025-10-16T13:38	10	30	0.1	30	31	374	0.2	373	375	11.7	71.3
2025-10-16T13:39	10	30	0.1	30	30	374	0.3	373	375	11.6	70.2
2025-10-16T13:40	10	30	0.1	30	30	373	0.2	372	373	11.6	69.2
2025-10-16T13:41	10	30	0.1	30	30	373	0.2	373	373	11.6	69.6
2025-10-16T13:42	10	30	0.1	29	30	373	0.2	372	373	11.7	70.0
2025-10-16T13:43	10	30	0.1	29	30	373	0.3	373	374	11.7	69.9
2025-10-16T13:44	10	29	0.1	29	30	373	0.3	372	373	11.7	69.6
2025-10-16T13:45	10	29	0.1	29	29	373	0.2	372	373	11.7	69.7
2025-10-16T13:46	10	29	0.1	29	29	373	0.3	372	373	11.7	69.8
2025-10-16T13:47	10	29	0.1	29	29	373	0.2	372	373	11.7	70.2
2025-10-16T13:48	10	29	0.1	29	29	372	0.4	372	373	11.6	69.3
2025-10-16T13:49	10	29	0.1	29	29	372	0.3	372	373	11.6	69.9
2025-10-16T13:50	10	29	0.1	29	29	372	0.2	372	373	11.6	70.1
2025-10-16T13:51	10	29	0.1	29	30	372	0.2	372	373	11.6	69.3
2025-10-16T13:52	10	30	0.1	29	30	372	0.2	371	372	11.6	69.5
2025-10-16T13:53	10	30	0.1	30	30	372	0.3	372	373	11.6	70.8
2025-10-16T13:54	10	30	0.1	30	30	372	0.2	372	373	11.6	69.9
2025-10-16T13:55	10	30	0.1	30	30	373	0.3	372	373	11.6	70.2
2025-10-16T13:56	10	30	0.1	29	30	373	0.2	372	373	11.6	70.0
2025-10-16T13:57	10	29	0.2	29	30	373	0.3	372	373	11.6	69.9
2025-10-16T13:58	10	29	0.2	28	29	372	0.3	372	373	11.6	70.2
2025-10-16T13:59	10	28	0.2	27	28	372	0.2	371	372	11.6	70.3
2025-10-16T14:00	10	27	0.1	27	28	372	0.2	371	372	11.6	69.9
2025-10-16T14:01	10	27	0.1	27	27	371	0.3	371	372	11.6	70.2
2025-10-16T14:02	10	27	0.1	26	27	371	0.2	371	372	11.6	70.8
2025-10-16T14:03	10	26	0.2	26	27	371	0.4	370	372	11.6	70.3
2025-10-16T14:04	10	26	0.1	26	26	371	0.3	370	371	11.6	70.9
2025-10-16T14:05	10	25	0.1	25	26	371	0.2	370	371	11.6	71.1
2025-10-16T14:06	10	25	0.1	25	25	371	0.3	370	372	11.6	70.1
2025-10-16T14:07	10	25	0.1	25	25	370	0.2	370	371	11.5	69.9
2025-10-16T14:08	10	25	0.2	25	26	370	0.2	370	371	11.6	70.3
2025-10-16T14:09	10	26	0.4	26	27	370	0.3	370	371	11.6	70.4
2025-10-16T14:10	10	28	0.5	27	29	371	0.4	369	371	11.5	70.4
2025-10-16T14:11	10	29	0.1	29	29	371	0.2	370	371	11.6	71.0
2025-10-16T14:12	10	29	0.2	29	30	371	0.3	370	372	11.6	70.7
2025-10-16T14:13	10	31	1.9	30	36	371	0.2	371	372	11.6	70.3
2025-10-16T14:14	10	33	3.2	29	36	372	0.2	371	372	11.6	70.9
2025-10-16T14:15	10	28	0.3	27	29	371	0.4	370	372	11.6	70.3
2025-10-16T14:16	10	27	0.1	27	27	370	0.2	370	371	11.6	70.6
2025-10-16T14:17	10	27	0.1	27	27	370	0.2	370	371	11.6	71.6
2025-10-16T14:18	10	26	0.2	26	27	370	0.2	370	371	11.6	71.1
2025-10-16T14:19	10	25	0.7	24	26	370	0.4	369	371	11.6	70.7
2025-10-16T14:20	10	23	0.5	22	24	368	0.5	367	369	11.5	70.3
2025-10-16T14:21	10	21	0.4	21	22	367	0.3	366	368	11.5	69.7
2025-10-16T14:22	10	21	0.1	20	21	367	0.2	366	367	11.5	70.7
2025-10-16T14:23	10	21	0.2	21	21	366	0.2	366	367	11.5	71.6
2025-10-16T14:24	10	22	0.4	21	23	366	0.2	366	367	11.5	71.6
2025-10-16T14:25	10	23	0.5	23	25	366	0.3	366	367	11.5	71.1
2025-10-16T14:26	10	30	9.9	25	67	367	0.4	366	368	11.5	70.5
2025-10-16T14:27	10	93	5.1	71	96	372	2.8	366	376	11.5	70.0
2025-10-16T14:28	10	93	1.9	89	96	377	0.9	375	378	11.6	70.5
2025-10-16T14:29	10	79	9.0	60	89	377	0.4	376	378	11.7	71.4
2025-10-16T14:30	10	71	12.8	50	84	376	0.5	375	377	11.7	70.9
2025-10-16T14:31	10	82	7.4	68	90	378	0.6	376	378	11.7	70.7
2025-10-16T14:32	10	88	4.5	79	94	378	0.5	377	379	11.8	71.3
2025-10-16T14:33	10	90	2.9	83	94	380	0.3	379	380	11.9	70.7
2025-10-16T14:34	10	80	7.1	69	90	379	0.9	377	380	11.8	68.8
2025-10-16T14:35	10	76	10.3	59	89	378	0.6	376	379	11.7	68.9
2025-10-16T14:36	10	64	11.0	43	82	376	1.2	374	378	11.8	68.8
2025-10-16T14:37	10	82	2.2	77	84	376	0.4	375	377	11.7	68.3
2025-10-16T14:38	10	72	10.1	53	82	377	0.8	375	378	11.8	69.5
2025-10-16T14:39	10	73	5.0	66	83	376	0.5	376	378	11.9	68.4
2025-10-16T14:40	10	83	0.8	83	85	377	0.4	376	378	11.9	68.8
2025-10-16T14:41	10	83	0.4	82	84	376	0.2	376	377	11.8	67.4
2025-10-16T14:42	10	83	0.5	82	84	377	0.3	376	377	11.8	68.1
2025-10-16T14:43	10	85	0.8	84	86	377	0.5	376	377	11.8	68.2
2025-10-16T14:44	10	86	0.2	86	87	376	0.3	376	377	11.7	67.2
2025-10-16T14:45	10	86	0.6	85	87	377	0.4	376	378	11.8	68.4
2025-10-16T14:46	10	88	0.5	87	89	379	0.4	378	379	12.0	69.2
2025-10-16T14:47	10	88	0.4	87	89	379	0.3	378	379	11.9	67.4
2025-10-16T14:48	10	83	2.6	79	87	379	0.5	378	380	11.8	67.7
2025-10-16T14:49	10	77	3.9	68	81	378	0.3	377	379	11.8	67.6
2025-10-16T14:50	10	79	1.2	77	82	378	0.3	378	379	11.9	68.0
2025-10-16T14:51	10	65	9.8	46	78	377	0.9	375	378	12.0	67.7
2025-10-16T14:52	10	55	11.9	36	71	375	1.2	374	377	11.9	67.5
2025-10-16T14:53	10	52	5.0	41	59	373	0.6	372	374	11.8	66.9
2025-10-16T14:54	10	45	12.3	27	60	373	0.7	371	374	11.8	67.7
2025-10-16T14:55	10	26	0.4	26	28	370	0.8	369	372	11.8	67.9
2025-10-16T14:56	10	48	18.0	28	75	370	1.0	369	373	11.8	68.3
2025-10-16T14:57	10	66	8.0	53	77	373	0.7	371	374	11.7	68.4
2025-10-16T14:58	10	78	0.5	77	79	374	0.4	374	375	11.8	68.8
2025-10-16T14:59	10	78	0.4	77	79	376	0.6	375	377	11.8	66.6
2025-10-16T15:00	10	73	8.1	52	78	376	0.3	376	377	11.8	67.3
2025-10-16T15:01	10	62	8.2	51	73	375	0.4	375	376	11.8	68.0
2025-10-16T15:02	10	70	7.4	50	76	375	0.3	374	375	11.9	68.8
2025-10-16T15:03	10	56	15.4	28	73	374	1.2	371	375	11.9	68.3
2025-10-16T15:04	10	55	18.8	27	73	372	0.7	370	373	11.8	68.1
2025-10-16T15:05	10	70	0.6	68	71	372	0.2	371	372	11.8	67.9
2025-10-16T15:06	10	53	8.5	44	69	371	0.8	370	373	11.8	67.4
2025-10-16T15:07	10	57	10.2	30	66	371	0.4	369	371	11.8	66.9
2025-10-16T15:08	10	38	10.0	23	51	369	0.5	368	370	11.8	68.4
2025-10-16T15:09	10	38	9.8	23	57	369	0.7	368	370	11.8	68.3
2025-10-16T15:10	10	59	1.7	56	61	370	0.5	368	370	11.8	68.1
2025-10-16T15:11	10	45	12.0	24	61	370	0.6	368	371	11.8	68.3
2025-10-16T15:12	10	37	10.5	22	51	369	0.8	368	370	11.8	68.1
2025-10-16T15:13	10	61	3.4	52	65	370	0.8	368	371	11.7	68.1
2025-10-16T15:14	10	63	0.8	61	64	371	0.4	370	372	11.8	68.0
2025-10-16T15:15	10	55	7.3	34	61	371	0.4	370	372	11.8	68.3
2025-10-16T15:16	10	45	7.1	31	51	370	0.3	369	371	11.8	68.9
2025-10-16T15:17	10	36	11.1	21	50	369	1.0	367	370	11.8	69.0
2025-10-16T15:18	10	46	10.5	28	57	368	0.7	367	369	11.8	69.2
2025-10-16T15:19	10	48	6.5	30	54	369	0.3	368	369	11.8	69.4
2025-10-16T15:20	10	30	11.0	20	52	367	0.8	366	369	11.8	68.0
2025-10-16T15:21	10	38	9.4	20	52	367	0.6	365	367	11.7	68.6
2025-10-16T15:22	10	32	8.6	20	44	365	0.3	365	366	11.7	69.1
2025-10-16T15:23	10	19	5.4	14	34	365	0.8	363	366	11.7	68.7
2025-10-16T15:24	10	44	7.0	28	50	365	1.0	363	366	11.7	69.0
2025-10-16T15:25	10	50	0.2	49	50	366	0.3	365	367	11.7	69.1
2025-10-16T15:26	10	49	0.3	48	49	366	0.2	365	366	11.7	67.4
2025-10-16T15:27	10	46	1.2	44	48	366	0.2	365	366	11.7	68.2
2025-10-16T15:28	10	47	1.2	44	48	366	0.3	365	366	11.7	67.7
2025-10-16T15:29	10	48	0.1	48	48	366	0.2	365	366	11.7	68.4
2025-10-16T15:30	10	48	0.1	47	48	366	0.3	365	367	11.7	68.6
2025-10-16T15:31	10	47	0.2	47	48	366	0.2	365	366	11.7	68.3
2025-10-16T15:32	10	47	0.3	46	47	365	0.2	365	366	11.7	67.8
2025-10-16T15:33	10	46	0.2	46	46	365	0.3	365	366	11.7	67.9
2025-10-16T15:34	10	45	0.2	45	46	365	0.2	365	366	11.7	68.1
2025-10-16T15:35	10	45	0.1	45	45	365	0.2	365	366	11.7	69.2
2025-10-16T15:36	10	44	0.2	44	45	365	0.2	365	365	11.7	68.6
2025-10-16T15:37	10	44	0.2	43	44	365	0.2	364	365	11.7	69.1
2025-10-16T15:38	10	43	0.3	43	44	365	0.2	364	366	11.7	69.3
2025-10-16T15:39	10	42	0.2	42	43	365	0.2	364	365	11.7	68.8
2025-10-16T15:40	10	42	0.2	42	42	365	0.2	364	365	11.7	70.0
2025-10-16T15:41	10	41	0.2	41	42	365	0.2	364	365	11.7	69.9
2025-10-16T15:42	10	40	0.3	40	41	364	0.2	364	365	11.7	69.4
2025-10-16T15:43	10	39	0.4	38	40	364	0.2	364	364	11.7	69.2
2025-10-16T15:44	10	38	0.1	38	39	364	0.2	363	364	11.7	68.4
2025-10-16T15:45	10	38	0.3	37	38	363	0.2	363	364	11.7	67.8
2025-10-16T15:46	10	37	0.2	36	37	363	0.2	362	363	11.7	68.3
2025-10-16T15:47	10	36	0.2	36	36	363	0.3	362	363	11.7	68.5
2025-10-16T15:48	10	35	0.2	35	36	362	0.3	362	363	11.7	67.7
2025-10-16T15:49	10	35	0.3	34	35	362	0.2	362	363	11.7	68.3
2025-10-16T15:50	10	34	0.3	33	34	362	0.2	361	362	11.7	68.4
2025-10-16T15:51	10	33	0.2	32	33	361	0.2	361	362	11.6	68.8
2025-10-16T15:52	10	32	0.2	31	32	361	0.2	361	362	11.6	69.0
2025-10-16T15:53	10	31	0.4	30	32	361	0.2	360	361	11.6	68.9
2025-10-16T15:54	10	30	0.2	30	31	360	0.2	360	361	11.6	68.9
2025-10-16T15:55	10	30	0.3	29	30	360	0.3	359	360	11.6	69.5
2025-10-16T15:56	10	29	0.3	28	29	360	0.2	359	360	11.6	68.9
2025-10-16T15:57	10	28	0.2	28	29	359	0.3	359	360	11.6	68.7
2025-10-16T15:58	10	28	0.2	27	28	359	0.2	359	360	11.6	69.1
2025-10-16T15:59	10	27	0.2	27	28	359	0.2	359	360	11.6	68.6
2025-10-16T16:00	10	27	0.2	26	27	359	0.3	358	359	11.6	69.5
2025-10-16T16:01	10	26	0.3	25	27	359	0.2	358	359	11.6	68.1
2025-10-16T16:02	10	25	0.3	25	26	358	0.3	358	359	11.6	69.0
2025-10-16T16:03	10	24	0.2	24	25	358	0.3	357	359	11.5	69.3
2025-10-16T16:04	10	24	0.3	23	24	358	0.2	357	358	11.5	69.7
2025-10-16T16:05	10	23	0.2	22	23	357	0.3	356	358	11.5	69.6
2025-10-16T16:06	10	22	0.3	21	23	356	0.2	356	357	11.4	70.1
2025-10-16T16:07	10	21	0.3	20	22	356	0.2	356	357	11.4	69.6
2025-10-16T16:08	10	20	0.3	20	21	356	0.3	355	357	11.4	69.9
2025-10-16T16:09	10	19	0.3	19	20	356	0.3	355	357	11.4	69.1
2025-10-16T16:10	10	18	0.3	18	19	355	0.4	355	356	11.4	69.9
2025-10-16T16:11	10	17	0.4	17	18	355	0.2	354	355	11.4	69.4
2025-10-16T16:12	10	16	0.3	16	17	354	0.4	353	355	11.4	70.2
2025-10-16T16:13	10	15	0.3	14	16	353	0.3	353	354	11.3	70.3
2025-10-16T16:14	10	14	0.3	14	15	353	0.3	352	353	11.3	70.5
2025-10-16T16:15	10	13	0.3	13	14	352	0.3	351	352	11.2	70.9
2025-10-16T16:16	10	12	0.3	11	13	351	0.3	351	352	11.2	71.2
2025-10-16T16:17	10	11	0.2	11	12	351	0.3	350	351	11.2	71.4
2025-10-16T16:18	10	11	0.2	10	11	350	0.3	349	351	11.1	71.7
2025-10-16T16:19	10	10	0.2	10	11	349	0.3	349	350	11.1	71.6
2025-10-16T16:20	10	10	0.2	9	10	349	0.3	348	349	11.1	71.6
2025-10-16T16:21	10	9	0.2	9	9	348	0.2	348	349	11.1	71.7
2025-10-16T16:22	10	8	0.3	8	9	348	0.3	347	349	11.1	71.8
2025-10-16T16:23	10	8	0.2	7	8	348	0.2	347	348	11.1	72.3
2025-10-16T16:24	10	7	0.2	7	7	347	0.2	347	348	11.1	72.4
2025-10-16T16:25	10	6	0.2	6	7	347	0.3	346	347	11.1	72.5
2025-10-16T16:26	10	6	0.3	5	6	346	0.2	346	347	11.1	72.3
2025-10-16T16:27	10	5	0.2	4	5	346	0.3	345	346	11.0	72.7
2025-10-16T16:28	10	4	0.2	4	5	345	0.2	345	346	11.0	73.0
2025-10-16T16:29	10	3	0.3	3	4	345	0.2	344	345	11.0	73.5
2025-10-16T16:30	10	3	0.2	2	3	345	0.3	344	345	11.0	73.5
2025-10-16T16:31	10	2	0.2	2	3	344	0.3	344	345	10.9	73.6
2025-10-16T16:32	10	2	0.1	2	3	344	0.2	344	345	10.9	73.7
2025-10-16T16:33	10	2	0.1	2	2	344	0.2	344	345	10.9	74.2
2025-10-16T16:34	10	2	0.1	2	2	344	0.2	344	345	10.8	74.8
2025-10-16T16:35	10	2	0.1	1	2	344	0.2	343	344	10.8	74.7
2025-10-16T16:36	10	1	0.1	1	2	343	0.3	343	344	10.8	74.3
2025-10-16T16:37	10	1	0.0	1	1	343	0.2	342	343	10.8	74.3
2025-10-16T16:38	10	1	0.1	1	1	343	0.2	343	343	10.7	74.8
2025-10-16T16:39	10	1	0.1	1	1	342	0.2	342	343	10.7	74.7
2025-10-16T16:40	10	1	0.1	1	1	342	0.2	341	342	10.7	74.6
2025-10-16T16:41	10	1	0.1	1	1	342	0.3	341	342	10.6	75.2
2025-10-16T16:42	10	1	0.1	1	1	341	0.3	341	342	10.5	75.3
2025-10-16T16:43	10	1	0.1	1	1	341	0.2	340	341	10.5	75.6
2025-10-16T16:44	10	1	0.0	1	1	341	0.2	340	341	10.6	75.3
2025-10-16T16:45	10	1	0.0	1	1	340	0.3	340	341	10.6	75.2
2025-10-16T16:46	10	1	0.1	1	1	340	0.2	340	341	10.5	75.5
2025-10-16T16:47	10	1	0.1	1	1	340	0.3	339	340	10.5	75.5
2025-10-16T16:48	10	1	0.1	1	1	340	0.3	339	340	10.5	75.6
2025-10-16T16:49	10	1	0.1	1	1	339	0.2	339	340	10.5	75.7
2025-10-16T16:50	10	1	0.1	1	1	339	0.2	339	340	10.5	76.1
2025-10-16T16:51	10	1	0.1	1	1	339	0.3	338	340	10.4	76.7
2025-10-16T16:52	10	1	0.1	1	1	339	0.2	339	340	10.2	77.4
2025-10-16T16:53	10	1	0.1	0	1	339	0.2	339	340	10.2	77.9
2025-10-16T16:54	10	1	0.1	0	1	339	0.2	338	339	10.2	77.9
2025-10-16T16:55	10	1	0.1	0	1	339	0.2	338	340	10.1	78.0
2025-10-16T16:56	10	0	0.1	0	1	339	0.2	338	340	10.1	77.6
2025-10-16T16:57	10	1	0.1	0	1	339	0.2	338	339	10.2	77.4
2025-10-16T16:58	10	0	0.1	0	1	338	0.2	338	339	10.1	78.2
2025-10-16T16:59	10	0	0.1	0	1	339	0.3	338	340	9.8	79.6
2025-10-16T17:00	10	0	0.1	0	0	338	0.3	338	339	9.9	79.2
2025-10-16T17:01	10	0	0.1	0	1	338	0.3	337	338	9.9	79.1
2025-10-16T17:02	10	0	0.1	0	0	337	0.3	337	338	9.7	80.1
2025-10-16T17:03	10	0	0.1	0	0	337	0.2	337	338	9.7	79.7
2025-10-16T17:04	10	0	0.1	0	0	337	0.2	336	337	9.7	79.8
2025-10-16T17:05	10	0	0.1	0	0	337	0.5	336	338	9.7	80.1
2025-10-16T17:06	10	0	0.1	0	0	337	0.3	337	338	9.9	78.7
2025-10-16T17:07	10	0	0.1	0	0	338	0.3	337	338	9.9	79.0
2025-10-16T17:08	10	0	0.1	0	0	338	0.3	337	338	9.8	79.3
2025-10-16T17:09	10	0	0.1	0	0	338	0.3	337	338	9.9	78.7
2025-10-16T17:10	10	0	0.1	0	0	338	0.3	338	339	9.9	78.4
2025-10-16T17:11	10	0	0.1	0	0	338	0.3	338	339	10.0	78.1
2025-10-16T17:12	10	0	0.1	0	0	338	0.2	338	339	10.1	77.6
2025-10-16T17:13	10	0	0.1	0	0	338	0.2	338	339	10.2	76.9
2025-10-16T17:14	10	0	0.1	0	0	338	0.3	337	339	10.1	77.3
2025-10-16T17:15	10	0	0.1	0	0	338	0.2	337	338	10.0	77.7
2025-10-16T17:16	10	0	0.1	0	0	337	0.2	337	338	10.1	77.4
2025-10-16T17:17	10	0	0.1	0	0	337	0.3	337	338	10.2	76.8
2025-10-16T17:18	10	0	0.1	0	0	337	0.3	336	337	10.1	77.0
2025-10-16T17:19	10	0	0.1	0	0	337	0.3	336	337	9.9	77.7
2025-10-16T17:20	10	0	0.1	0	0	337	0.2	336	337	10.0	77.6
2025-10-16T17:21	10	0	0.1	0	0	336	0.3	336	337	10.1	77.1
2025-10-16T17:22	10	0	0.1	0	0	336	0.2	336	337	10.0	77.1
2025-10-16T17:23	10	0	0.1	0	1	336	0.2	336	337	10.0	77.4
2025-10-16T17:24	10	0	0.1	0	0	336	0.2	336	337	9.9	77.7
2025-10-16T17:25	10	0	0.1	0	0	336	0.3	335	337	9.8	78.3
2025-10-16T17:26	10	0	0.1	0	0	336	0.2	335	336	9.7	79.2
2025-10-16T17:27	10	0	0.1	0	0	336	0.2	335	336	9.6	79.4
2025-10-16T17:28	10	0	0.1	0	0	336	0.2	336	336	9.6	79.2
2025-10-16T17:29	10	0	0.1	0	0	336	0.2	335	336	9.6	79.4
2025-10-16T17:30	10	0	0.1	0	0	335	0.2	335	336	9.6	79.5
2025-10-16T17:31	10	0	0.1	0	0	336	0.3	335	336	9.6	79.3
2025-10-16T17:32	10	0	0.1	0	1	335	0.3	335	336	9.7	79.1
2025-10-16T17:33	10	0	0.2	0	1	335	0.2	335	336	9.6	79.2
2025-10-16T17:34	10	0	0.2	0	0	335	0.2	334	335	9.6	79.7
2025-10-16T17:35	10	0	0.1	0	0	335	0.2	334	336	9.5	79.9
2025-10-16T17:36	10	0	0.2	0	1	334	0.4	333	335	9.4	80.8
2025-10-16T17:37	10	0	0.1	0	0	333	0.3	333	334	9.1	82.3
2025-10-16T17:38	10	0	0.1	0	0	333	0.3	333	334	9.1	82.6
2025-10-16T17:39	10	0	0.1	0	0	333	0.3	332	334	9.1	82.7
2025-10-16T17:40	10	0	0.1	0	1	333	0.2	332	334	9.2	82.3
2025-10-16T17:41	10	0	0.2	0	0	333	0.3	332	334	9.3	81.2
2025-10-16T17:42	10	0	0.1	0	0	333	0.2	333	334	9.5	80.4
2025-10-16T17:43	10	0	0.1	0	0	334	0.2	333	334	9.6	79.8
2025-10-16T17:44	10	0	0.1	0	0	334	0.2	333	334	9.6	79.9
2025-10-16T17:45	10	0	0.1	0	0	334	0.3	333	334	9.5	80.4
2025-10-16T17:46	10	0	0.1	0	0	334	0.2	333	334	9.4	80.9
2025-10-16T17:47	10	0	0.1	0	0	334	0.2	333	334	9.4	80.6
2025-10-16T17:48	10	0	0.1	0	0	334	0.2	333	334	9.4	81.1
2025-10-16T17:49	10	0	0.1	0	0	333	0.4	332	334	9.3	81.7
2025-10-16T17:50	10	0	0.1	0	0	333	0.2	332	333	9.1	82.8
2025-10-16T17:51	10	0	0.1	0	0	333	0.2	332	333	9.0	83.2
2025-10-16T17:52	10	0	0.1	0	0	332	0.4	331	332	9.1	83.1
2025-10-16T17:53	10	0	0.1	0	0	331	0.2	331	331	9.0	83.4
2025-10-16T17:54	10	0	0.1	0	0	331	0.2	330	331	8.9	84.0
2025-10-16T17:55	10	0	0.1	0	0	331	0.2	330	331	8.6	85.9
2025-10-16T17:56	10	0	0.1	0	0	331	0.3	331	332	8.4	86.6
2025-10-16T17:57	10	0	0.1	0	0	331	0.3	331	332	8.4	86.9
2025-10-16T17:58	10	0	0.1	0	0	331	0.2	331	332	8.4	87.0
2025-10-16T17:59	10	0	0.1	0	0	331	0.3	331	332	8.4	87.2
2025-10-16T18:00	10	0	0.1	0	0	331	0.2	330	332	8.4	87.3
2025-10-16T18:01	10	0	0.1	0	0	331	0.3	330	331	8.3	87.7
2025-10-16T18:02	10	0	0.1	0	0	330	0.2	330	331	8.2	88.1
2025-10-16T18:03	10	0	0.1	0	0	330	0.2	330	330	8.1	88.6
2025-10-16T18:04	10	0	0.1	0	0	330	0.3	329	330	8.0	88.9
2025-10-16T18:05	10	0	0.1	0	0	330	0.3	329	331	8.0	88.8
2025-10-16T18:06	10	0	0.1	0	0	331	0.4	330	331	8.1	88.7
2025-10-16T18:07	10	0	0.1	0	0	331	0.3	331	332	8.1	88.3
2025-10-16T18:08	10	0	0.1	0	0	331	0.2	331	332	8.1	88.2
2025-10-16T18:09	10	0	0.1	0	0	332	0.4	331	332	8.1	88.2
2025-10-16T18:10	10	0	0.1	0	0	332	0.2	331	332	8.2	87.8
2025-10-16T18:11	10	0	0.1	0	0	331	0.3	331	332	8.2	87.6
2025-10-16T18:12	10	0	0.1	0	0	331	0.2	331	332	8.1	87.7
2025-10-16T18:13	10	0	0.1	0	0	331	0.3	330	331	8.1	87.9
2025-10-16T18:14	10	0	0.1	0	0	330	0.2	329	331	8.1	87.9
2025-10-16T18:15	10	0	0.1	0	0	330	0.2	329	330	8.1	88.0
2025-10-16T18:16	10	0	0.1	0	0	330	0.2	330	330	8.1	87.9
2025-10-16T18:17	10	0	0.1	0	0	330	0.3	329	330	8.1	88.2
2025-10-16T18:18	10	0	0.1	0	0	330	0.2	330	331	8.1	88.1
2025-10-16T18:19	10	0	0.1	0	0	330	0.3	329	331	8.0	88.4
2025-10-16T18:20	10	0	0.1	0	0	330	0.3	329	330	8.0	88.6
2025-10-16T18:21	10	0	0.1	0	0	330	0.2	329	330	8.0	88.7
2025-10-16T18:22	10	0	0.1	0	0	329	0.2	329	330	8.1	88.5
2025-10-16T18:23	10	0	0.1	0	0	329	0.3	328	329	8.0	88.7
2025-10-16T18:24	10	0	0.0	0	0	329	0.2	328	330	8.1	88.4
2025-10-16T18:25	10	0	0.0	0	0	329	0.2	329	330	8.1	88.6
2025-10-16T18:26	10	0	0.1	0	0	329	0.2	329	330	7.8	89.3
2025-10-16T18:27	10	0	0.1	0	0	329	0.2	328	329	7.8	89.6
2025-10-16T18:28	10	0	0.1	0	0	328	0.2	328	329	7.8	90.0
2025-10-16T18:29	10	0	0.1	0	0	328	0.2	328	329	7.8	89.9
2025-10-16T18:30	10	0	0.1	0	0	328	0.2	328	329	7.8	90.0
2025-10-16T18:31	10	0	0.1	0	1	328	0.2	328	329	7.8	90.3
2025-10-16T18:32	10	0	0.1	0	0	329	0.2	328	329	7.7	90.5
2025-10-16T18:33	10	0	0.1	0	0	328	0.2	328	329	7.7	90.4
2025-10-16T18:34	10	0	0.1	0	0	328	0.3	328	329	7.7	90.6
2025-10-16T18:35	10	0	0.1	0	0	328	0.2	328	329	7.6	90.9
2025-10-16T18:36	10	0	0.1	0	1	328	0.3	327	328	7.5	91.1
2025-10-16T18:37	10	0	0.1	0	0	328	0.2	327	328	7.3	91.7
2025-10-16T18:38	10	0	0.1	0	0	328	0.3	327	329	7.3	92.0
2025-10-16T18:39	10	0	0.2	0	0	328	0.3	327	329	7.4	92.3
2025-10-16T18:40	10	0	0.2	0	0	327	0.3	327	328	7.4	92.5
2025-10-16T18:41	10	0	0.2	0	0	327	0.2	327	328	7.3	92.3
2025-10-16T18:42	10	0	0.2	0	0	327	0.3	327	328	7.3	92.2
2025-10-16T18:43	10	0	0.1	0	0	328	0.2	327	328	7.3	92.5
2025-10-16T18:44	10	0	0.1	0	0	327	0.2	327	328	7.3	92.7
2025-10-16T18:45	10	0	0.2	0	1	328	0.2	327	328	7.3	92.4
2025-10-16T18:46	10	0	0.2	0	1	328	0.3	328	329	7.3	92.5
2025-10-16T18:47	10	0	0.1	0	0	328	0.3	327	329	7.4	92.5
2025-10-16T18:48	10	0	0.1	0	0	328	0.2	328	329	7.3	92.4
2025-10-16T18:49	10	0	0.1	0	0	328	0.3	327	328	7.2	92.4
2025-10-16T18:50	10	0	0.1	0	0	328	0.2	327	328	7.3	92.4
2025-10-16T18:51	10	0	0.1	0	0	328	0.2	327	328	7.3	92.3
2025-10-16T18:52	10	0	0.1	0	0	328	0.3	327	328	7.3	92.4
2025-10-16T18:53	10	0	0.1	0	0	327	0.2	327	328	7.4	92.6
2025-10-16T18:54	10	0	0.1	0	0	328	0.4	327	329	7.3	92.8
2025-10-16T18:55	10	0	0.1	0	0	329	0.3	328	329	7.4	92.7
2025-10-16T18:56	10	0	0.2	0	1	329	0.2	328	329	7.4	92.8
2025-10-16T18:57	10	0	0.1	0	0	329	0.2	328	329	7.4	92.6
2025-10-16T18:58	10	0	0.1	0	0	328	0.2	328	329	7.5	92.3
2025-10-16T18:59	10	0	0.1	0	0	329	0.2	328	329	7.5	92.1
2025-10-16T19:00	10	0	0.1	0	0	329	0.2	328	329	7.5	92.0
2025-10-16T19:01	10	0	0.1	0	0	329	0.3	328	329	7.6	91.6
2025-10-16T19:02	10	0	0.1	0	0	328	0.3	327	329	7.6	91.5
2025-10-16T19:03	10	0	0.1	0	0	328	0.2	327	328	7.6	88.4
2025-10-16T19:04	10	0	0.1	0	0	328	0.2	327	328	7.6	88.7
2025-10-16T19:05	10	0	0.1	0	0	328	0.3	327	328	7.6	91.5
2025-10-16T19:06	10	0	0.0	0	0	328	0.2	328	329	7.6	91.5
2025-10-16T19:07	10	0	0.1	0	0	328	0.2	328	329	7.6	91.5
2025-10-16T19:08	10	0	0.1	0	0	328	0.3	327	328	7.6	91.5
2025-10-16T19:09	10	0	0.1	0	0	327	0.2	327	328	7.6	91.5
2025-10-16T19:10	10	0	0.1	0	0	327	0.2	326	327	7.6	91.4
2025-10-16T19:11	10	0	0.1	0	0	326	0.2	326	327	7.4	90.5
2025-10-16T19:12	10	0	0.1	0	0	326	0.3	326	327	7.3	90.7
2025-10-16T19:13	10	0	0.1	0	0	326	0.2	326	327	7.2	91.2
2025-10-16T19:14	10	0	0.1	0	0	326	0.2	326	327	7.1	91.9
2025-10-16T19:15	10	0	0.1	0	0	326	0.2	326	327	7.2	92.4
2025-10-16T19:16	10	0	0.1	0	0	326	0.2	326	327	7.2	92.6
2025-10-16T19:17	10	0	0.1	0	0	326	0.2	325	326	7.2	93.2
2025-10-16T19:18	10	0	0.1	0	0	326	0.2	325	326	7.0	93.9
2025-10-16T19:19	10	0	0.1	0	0	326	0.2	326	327	7.0	93.8
2025-10-16T19:20	10	0	0.1	0	0	326	0.3	325	327	7.1	93.4
2025-10-16T19:21	10	0	0.1	0	0	326	0.2	326	327	7.1	93.7
2025-10-16T19:22	10	0	0.1	0	0	326	0.2	325	327	7.2	94.0
2025-10-16T19:23	10	0	0.1	0	0	326	0.3	325	326	7.2	93.7
2025-10-16T19:24	10	0	0.1	0	0	325	0.2	325	326	7.2	93.8
2025-10-16T19:25	10	0	0.1	0	0	326	0.2	325	326	7.2	94.0
2025-10-16T19:26	10	0	0.1	0	0	325	0.2	325	326	7.2	94.5
2025-10-16T19:27	10	0	0.1	0	0	325	0.3	325	326	7.2	94.8
2025-10-16T19:28	10	0	0.1	0	0	325	0.2	325	326	7.1	95.1
2025-10-16T19:29	10	0	0.1	0	0	325	0.3	324	326	7.0	95.1
2025-10-16T19:30	10	0	0.1	0	0	325	0.3	324	325	6.9	95.3
2025-10-16T19:31	10	0	0.1	0	0	325	0.2	324	325	6.8	95.4
2025-10-16T19:32	10	0	0.1	0	0	324	0.3	324	325	6.8	95.4
2025-10-16T19:33	10	0	0.1	0	0	324	0.2	324	325	6.7	95.5
2025-10-16T19:34	10	0	0.1	0	0	324	0.2	324	325	6.6	96.1
2025-10-16T19:35	10	0	0.1	0	0	325	0.4	324	325	6.6	96.1
2025-10-16T19:36	10	0	0.1	0	0	325	0.3	324	326	6.8	96.4
2025-10-16T19:37	10	0	0.1	0	0	325	0.2	324	325	6.8	97.0
2025-10-16T19:38	10	0	0.1	0	0	325	0.2	324	325	6.8	97.2
2025-10-16T19:39	10	0	0.1	0	0	325	0.3	324	325	6.8	97.1
2025-10-16T19:40	10	0	0.1	0	0	325	0.2	324	325	6.8	96.8
2025-10-16T19:41	10	0	0.1	0	0	325	0.2	324	325	6.8	96.7
2025-10-16T19:42	10	0	0.1	0	0	325	0.2	325	326	6.8	96.3
2025-10-16T19:43	10	0	0.1	0	0	325	0.2	324	325	6.7	96.3
2025-10-16T19:44	10	0	0.1	0	0	324	0.3	324	325	6.7	96.4
2025-10-16T19:45	10	0	0.1	0	0	324	0.2	324	325	6.7	96.0
2025-10-16T19:46	10	0	0.1	0	0	324	0.2	324	324	6.8	95.9
2025-10-16T19:47	10	0	0.1	0	0	324	0.3	323	324	6.8	95.8
2025-10-16T19:48	10	0	0.1	0	0	324	0.2	323	324	6.9	95.6
2025-10-16T19:49	10	0	0.1	0	0	324	0.3	323	324	6.9	95.6
2025-10-16T19:50	10	0	0.1	0	0	324	0.2	323	324	6.9	96.2
2025-10-16T19:51	10	0	0.1	0	0	323	0.2	323	324	6.9	96.7
2025-10-16T19:52	10	0	0.1	0	0	324	0.3	323	324	6.8	96.9
2025-10-16T19:53	10	0	0.1	0	0	324	0.2	324	325	6.8	96.9
2025-10-16T19:54	10	0	0.1	0	0	324	0.2	324	325	6.7	97.2
2025-10-16T19:55	10	0	0.1	0	0	324	0.3	324	325	6.6	97.1
2025-10-16T19:56	10	0	0.1	0	0	324	0.2	323	325	6.5	97.3
2025-10-16T19:57	10	0	0.1	0	0	325	0.3	324	325	6.4	97.1
2025-10-16T19:58	10	0	0.1	0	0	325	0.3	324	326	6.7	97.1
2025-10-16T19:59	10	0	0.1	0	0	325	0.3	324	325	6.8	97.4
2025-10-16T20:00	10	0	0.1	0	0	324	0.3	324	325	6.6	97.0
2025-10-16T20:01	10	0	0.1	0	0	324	0.2	324	325	6.6	97.1
2025-10-16T20:02	10	0	0.1	0	0	324	0.2	324	325	6.6	97.2
2025-10-16T20:03	10	0	0.1	0	0	324	0.2	324	325	6.5	97.3
2025-10-16T20:04	10	0	0.1	0	0	324	0.3	323	324	6.3	97.5
2025-10-16T20:05	10	0	0.1	0	0	324	0.2	323	324	6.2	97.6
2025-10-16T20:06	10	0	0.1	0	0	324	0.3	323	324	6.2	97.7
2025-10-16T20:07	10	0	0.1	0	0	324	0.2	323	324	6.1	97.8
2025-10-16T20:08	10	0	0.1	0	0	324	0.3	323	324	6.0	97.7
2025-10-16T20:09	10	0	0.1	0	0	324	0.4	323	325	6.1	98.0
2025-10-16T20:10	10	0	0.1	0	0	325	0.4	324	326	6.2	97.9
2025-10-16T20:11	10	0	0.1	0	0	326	0.2	325	326	6.2	98.1
2025-10-16T20:12	10	0	0.1	0	0	326	0.3	325	326	6.2	98.0
2025-10-16T20:13	10	0	0.1	0	0	326	0.2	325	326	6.1	97.8
2025-10-16T20:14	10	0	0.1	0	0	326	0.3	325	326	6.2	97.2
2025-10-16T20:15	10	0	0.1	0	0	326	0.2	325	326	6.4	97.5
2025-10-16T20:16	10	0	0.1	0	0	325	0.3	325	326	6.3	97.8
2025-10-16T20:17	10	0	0.1	0	0	325	0.2	324	325	6.3	97.7
2025-10-16T20:18	10	0	0.1	0	0	325	0.2	324	325	6.3	97.7
2025-10-16T20:19	10	0	0.1	0	0	325	0.3	324	325	6.3	97.2
2025-10-16T20:20	10	0	0.0	0	0	325	0.3	324	325	6.4	96.9
2025-10-16T20:21	10	0	0.1	0	0	324	0.3	324	325	6.5	96.7
2025-10-16T20:22	10	0	0.1	0	0	324	0.3	324	325	6.6	96.3
2025-10-16T20:23	10	0	0.1	0	0	324	0.4	323	325	6.7	96.3
2025-10-16T20:24	10	0	0.1	0	0	324	0.4	323	325	6.6	96.2
2025-10-16T20:25	10	0	0.1	0	0	324	0.3	323	325	6.6	96.2
2025-10-16T20:26	10	0	0.0	0	0	324	0.4	323	325	6.4	96.6
2025-10-16T20:27	10	0	0.0	0	0	324	0.3	323	324	6.2	96.5
2025-10-16T20:28	10	0	0.1	0	0	324	0.3	323	325	6.3	96.5
2025-10-16T20:29	10	0	0.1	0	0	324	0.2	324	325	6.4	96.7
2025-10-16T20:30	10	0	0.1	0	0	324	0.2	324	325	6.4	96.7
2025-10-16T20:31	10	0	0.1	0	0	324	0.2	324	325	6.3	96.6
2025-10-16T20:32	10	0	0.1	0	0	324	0.2	324	324	6.4	96.6
2025-10-16T20:33	10	0	0.1	0	0	324	0.2	323	324	6.3	96.8
2025-10-16T20:34	10	0	0.1	0	0	324	0.3	323	325	6.3	96.8
2025-10-16T20:35	10	0	0.1	0	0	324	0.3	324	325	6.2	97.0
2025-10-16T20:36	10	0	0.1	0	0	324	0.2	323	324	6.2	97.1
2025-10-16T20:37	10	0	0.1	0	0	324	0.2	323	324	6.1	97.2
2025-10-16T20:38	10	0	0.1	0	0	324	0.2	323	324	6.1	97.3
2025-10-16T20:39	10	0	0.1	0	0	324	0.2	323	324	6.2	97.4
2025-10-16T20:40	10	0	0.1	0	0	324	0.2	324	325	6.2	97.5
2025-10-16T20:41	10	0	0.1	0	0	325	0.4	324	326	6.3	97.5
2025-10-16T20:42	10	0	0.1	0	0	326	0.4	325	327	6.3	97.3
2025-10-16T20:43	10	0	0.1	0	0	327	0.4	326	328	6.2	97.5
2025-10-16T20:44	10	0	0.1	0	0	329	0.5	327	329	6.2	97.4
2025-10-16T20:45	10	0	0.1	0	0	330	0.4	329	331	6.3	97.4
2025-10-16T20:46	10	0	0.1	0	0	331	0.4	330	332	6.3	97.4
2025-10-16T20:47	10	0	0.1	0	0	332	0.2	331	332	6.3	97.5
2025-10-16T20:48	10	0	0.1	0	0	332	0.3	332	333	6.2	97.7
2025-10-16T20:49	10	0	0.1	0	0	333	0.3	332	334	6.2	97.3
2025-10-16T20:50	10	0	0.1	0	0	333	0.2	333	334	6.2	97.2
2025-10-16T20:51	10	0	0.1	0	0	333	0.3	333	334	6.1	97.2
2025-10-16T20:52	10	0	0.1	0	0	334	0.2	333	334	6.3	97.2
2025-10-16T20:53	10	0	0.1	0	0	334	0.3	333	334	6.3	97.4
2025-10-16T20:54	10	0	0.1	0	0	334	0.2	333	334	6.3	97.3
2025-10-16T20:55	10	0	0.1	0	0	334	0.3	333	335	6.2	97.3
2025-10-16T20:56	10	0	0.1	0	0	334	0.2	334	335	6.2	97.6
2025-10-16T20:57	10	0	0.1	0	0	335	0.2	334	335	6.2	97.4
2025-10-16T20:58	10	0	0.1	0	0	335	0.3	334	336	6.3	97.4
2025-10-16T20:59	10	0	0.1	0	0	335	0.3	335	336	6.3	97.5
2025-10-16T21:00	10	0	0.1	0	0	336	0.3	335	337	6.5	97.4
2025-10-16T21:01	10	0	0.1	0	0	336	0.2	336	337	6.5	97.3
2025-10-16T21:02	10	0	0.1	0	0	336	0.2	336	337	6.5	97.3
2025-10-16T21:03	10	0	0.1	0	0	336	0.2	336	337	6.4	97.4
2025-10-16T21:04	10	0	0.1	0	0	336	0.3	336	337	6.3	97.3
2025-10-16T21:05	10	0	0.1	0	0	337	0.2	336	337	6.3	97.2
2025-10-16T21:06	10	0	0.2	0	1	337	0.3	337	338	6.5	96.9
2025-10-16T21:07	10	0	0.1	0	0	337	0.2	337	338	6.6	96.9
2025-10-16T21:08	10	0	0.1	0	0	338	0.2	337	338	6.6	96.8
2025-10-16T21:09	10	0	0.1	0	0	338	0.3	337	339	6.6	96.7
2025-10-16T21:10	10	0	0.1	0	0	338	0.2	338	339	6.6	96.6
2025-10-16T21:11	10	0	0.1	0	0	338	0.2	338	339	6.6	96.5
2025-10-16T21:12	10	0	0.1	0	0	339	0.2	338	339	6.6	96.7
2025-10-16T21:13	10	0	0.1	0	0	339	0.3	338	340	6.5	96.7
2025-10-16T21:14	10	0	0.1	0	0	339	0.2	338	339	6.5	96.8
2025-10-16T21:15	10	0	0.1	0	0	339	0.2	339	340	6.5	96.8
2025-10-16T21:16	10	0	0.1	0	0	339	0.2	339	340	6.4	96.9
2025-10-16T21:17	10	0	0.1	0	0	340	0.2	339	340	6.4	96.7
2025-10-16T21:18	10	0	0.1	0	0	340	0.3	339	341	6.5	96.9
2025-10-16T21:19	10	0	0.1	0	0	340	0.3	340	341	6.7	96.7
2025-10-16T21:20	10	0	0.1	0	0	341	0.2	340	341	6.7	96.6
2025-10-16T21:21	10	0	0.1	0	0	341	0.2	340	341	6.7	96.6
2025-10-16T21:22	10	0	0.1	0	0	341	0.2	340	342	6.7	96.5
2025-10-16T21:23	10	0	0.1	0	0	341	0.2	341	342	6.7	96.4
2025-10-16T21:24	10	0	0.1	0	0	342	0.2	341	343	6.7	96.3
2025-10-16T21:25	10	0	0.1	0	0	342	0.2	341	342	6.7	96.4
2025-10-16T21:26	10	0	0.1	0	0	342	0.2	342	343	6.8	96.0
2025-10-16T21:27	10	0	0.1	0	0	342	0.3	342	343	6.8	96.1
2025-10-16T21:28	10	0	0.1	0	0	342	0.2	342	343	6.7	95.9
2025-10-16T21:29	10	0	0.1	0	0	343	0.2	342	343	6.7	95.7
2025-10-16T21:30	10	0	0.1	0	0	343	0.2	342	343	6.7	95.6
2025-10-16T21:31	10	0	0.1	0	0	343	0.2	342	343	6.7	95.7
2025-10-16T21:32	10	0	0.1	0	0	343	0.2	342	343	6.7	95.8
2025-10-16T21:33	10	0	0.1	0	0	343	0.2	342	343	6.7	95.7
2025-10-16T21:34	10	0	0.1	0	0	343	0.2	342	343	6.7	95.9
2025-10-16T21:35	10	0	0.1	0	0	342	0.3	342	343	6.6	96.0
2025-10-16T21:36	10	0	0.1	0	0	342	0.2	342	343	6.6	96.3
2025-10-16T21:37	10	0	0.1	0	0	342	0.2	342	343	6.6	96.4
2025-10-16T21:38	10	0	0.1	0	0	342	0.2	342	343	6.6	96.3
2025-10-16T21:39	10	0	0.1	0	0	342	0.2	342	343	6.6	96.3
2025-10-16T21:40	10	0	0.1	0	0	342	0.2	342	343	6.5	96.1
2025-10-16T21:41	10	0	0.1	0	0	342	0.2	342	343	6.5	96.3
2025-10-16T21:42	10	0	0.1	0	0	342	0.2	342	343	6.5	96.4
2025-10-16T21:43	10	0	0.1	0	0	342	0.2	342	343	6.4	96.5
2025-10-16T21:44	10	0	0.1	0	0	343	0.3	342	343	6.6	96.3
2025-10-16T21:45	10	0	0.1	0	0	343	0.3	342	344	6.6	96.5
2025-10-16T21:46	10	0	0.1	0	0	343	0.2	342	343	6.6	96.2
2025-10-16T21:47	10	0	0.1	0	0	343	0.3	342	344	6.5	96.4
2025-10-16T21:48	10	0	0.1	0	0	343	0.2	343	344	6.5	96.4
2025-10-16T21:49	10	0	0.1	0	0	343	0.2	343	344	6.5	96.6
2025-10-16T21:50	10	0	0.1	0	0	343	0.2	343	344	6.4	96.7
2025-10-16T21:51	10	0	0.1	0	0	344	0.2	343	344	6.5	96.6
2025-10-16T21:52	10	0	0.1	0	0	344	0.2	343	344	6.5	96.5
2025-10-16T21:53	10	0	0.1	0	0	344	0.2	344	344	6.5	96.5
2025-10-16T21:54	10	0	0.1	0	0	344	0.2	343	344	6.5	96.4
2025-10-16T21:55	10	0	0.1	0	0	344	0.2	343	344	6.4	96.6
2025-10-16T21:56	10	0	0.1	0	0	344	0.2	343	344	6.4	96.8
2025-10-16T21:57	10	0	0.1	0	0	344	0.2	343	344	6.4	97.0
2025-10-16T21:58	10	0	0.0	0	0	344	0.2	343	344	6.4	97.1
2025-10-16T21:59	10	0	0.1	0	0	344	0.2	343	344	6.3	97.4
2025-10-16T22:00	10	0	0.1	0	0	344	0.2	343	344	6.3	97.0
2025-10-16T22:01	10	0	0.1	0	0	344	0.2	343	344	6.3	97.2
2025-10-16T22:02	10	0	0.1	0	0	343	0.2	343	344	6.3	97.5
2025-10-16T22:03	10	0	0.1	0	0	344	0.2	343	344	6.4	97.2
2025-10-16T22:04	10	0	0.1	0	0	344	0.3	343	344	6.4	97.0
2025-10-16T22:05	10	0	0.1	0	0	344	0.2	343	344	6.4	97.0
2025-10-16T22:06	10	0	0.1	0	0	344	0.2	343	344	6.4	97.1
2025-10-16T22:07	10	0	0.1	0	0	344	0.2	343	344	6.3	97.1
2025-10-16T22:08	10	0	0.1	0	0	344	0.2	343	344	6.4	97.4
2025-10-16T22:09	10	0	0.1	0	0	344	0.2	343	344	6.4	97.5
2025-10-16T22:10	10	0	0.1	0	0	344	0.2	344	345	6.4	97.4
2025-10-16T22:11	10	0	0.1	0	0	344	0.2	344	345	6.4	97.4
2025-10-16T22:12	10	0	0.1	0	0	344	0.2	344	345	6.4	97.3
2025-10-16T22:13	10	0	0.1	0	0	344	0.2	344	345	6.5	96.8
2025-10-16T22:14	10	0	0.1	0	0	345	0.3	344	345	6.6	96.7
2025-10-16T22:15	10	0	0.1	0	0	345	0.2	344	345	6.7	96.3
2025-10-16T22:16	10	0	0.1	0	0	345	0.2	344	345	6.7	96.0
2025-10-16T22:17	10	0	0.1	0	0	345	0.2	345	345	6.7	96.0
2025-10-16T22:18	10	0	0.1	0	0	345	0.3	345	346	6.7	96.1
2025-10-16T22:19	10	0	0.1	0	0	346	0.2	345	346	6.8	95.8
2025-10-16T22:20	10	0	0.1	0	0	346	0.2	345	346	6.8	95.7
2025-10-16T22:21	10	0	0.1	0	0	346	0.3	345	346	6.8	95.6
2025-10-16T22:22	10	0	0.1	0	0	346	0.2	345	346	6.9	95.2
2025-10-16T22:23	10	0	0.0	0	0	346	0.3	345	346	6.9	95.1
2025-10-16T22:24	10	0	0.1	0	0	346	0.2	345	346	6.9	95.0
2025-10-16T22:25	10	0	0.1	0	0	346	0.2	345	346	6.9	94.9
2025-10-16T22:26	10	0	0.1	0	0	346	0.2	345	346	6.9	94.9
2025-10-16T22:27	10	0	0.1	0	0	346	0.2	345	346	6.9	94.8
2025-10-16T22:28	10	0	0.0	0	0	346	0.2	345	346	6.9	94.3
2025-10-16T22:29	10	0	0.1	0	0	346	0.2	345	346	6.9	94.3
2025-10-16T22:30	10	0	0.1	0	0	345	0.2	345	346	6.9	94.3
2025-10-16T22:31	10	0	0.1	0	0	345	0.2	345	346	6.8	94.6
2025-10-16T22:32	10	0	0.0	0	0	345	0.2	345	346	6.8	94.7
2025-10-16T22:33	10	0	0.1	0	0	346	0.2	345	346	6.8	94.9
2025-10-16T22:34	10	0	0.1	0	0	345	0.2	345	346	6.8	94.6
2025-10-16T22:35	10	0	0.1	0	0	345	0.2	345	346	6.8	94.4
2025-10-16T22:36	10	0	0.1	0	0	345	0.2	345	346	6.8	94.5
2025-10-16T22:37	10	0	0.1	0	0	345	0.2	345	346	6.7	94.9
2025-10-16T22:38	10	0	0.0	0	0	345	0.2	345	346	6.7	95.0
2025-10-16T22:39	10	0	0.1	0	0	345	0.2	345	346	6.7	95.0
2025-10-16T22:40	10	0	0.1	0	0	345	0.2	345	346	6.8	95.2
2025-10-16T22:41	10	0	0.1	0	0	346	0.2	345	346	6.8	95.1
2025-10-16T22:42	10	0	0.1	0	0	346	0.2	345	346	6.8	95.4
2025-10-16T22:43	10	0	0.1	0	0	346	0.2	345	346	6.8	95.3
2025-10-16T22:44	10	0	0.1	0	0	346	0.2	345	346	6.8	95.3
2025-10-16T22:45	10	0	0.1	0	0	346	0.2	346	346	6.8	95.2
2025-10-16T22:46	10	0	0.1	0	0	346	0.3	345	347	6.8	95.3
2025-10-16T22:47	10	0	0.1	0	0	346	0.2	346	347	6.9	95.2
2025-10-16T22:48	10	0	0.1	0	0	346	0.2	346	346	6.9	95.1
2025-10-16T22:49	10	0	0.1	0	0	346	0.2	346	347	6.9	94.9
2025-10-16T22:50	10	0	0.1	0	0	346	0.2	346	346	6.9	94.9
2025-10-16T22:51	10	0	0.1	0	0	346	0.3	346	347	6.9	95.1
2025-10-16T22:52	10	0	0.1	0	0	346	0.2	346	347	6.9	95.2
2025-10-16T22:53	10	0	0.1	0	0	346	0.2	346	347	6.9	95.1
2025-10-16T22:54	10	0	0.1	0	0	346	0.2	346	347	6.9	95.1
2025-10-16T22:55	10	0	0.1	0	0	346	0.2	346	347	6.9	95.3
2025-10-16T22:56	10	0	0.0	0	0	346	0.2	346	347	6.9	95.2
2025-10-16T22:57	10	0	0.1	0	0	347	0.2	346	347	6.9	95.3
2025-10-16T22:58	10	0	0.1	0	0	346	0.2	346	347	6.9	95.6
2025-10-16T22:59	10	0	0.0	0	0	347	0.2	346	347	6.9	95.5
2025-10-16T23:00	10	0	0.1	0	0	347	0.2	346	347	6.9	95.3
2025-10-16T23:01	10	0	0.1	0	0	347	0.2	346	347	6.9	95.4
2025-10-16T23:02	10	0	0.1	0	0	347	0.2	346	347	6.9	95.3
2025-10-16T23:03	10	0	0.1	0	0	347	0.3	346	347	6.9	95.3
2025-10-16T23:04	10	0	0.0	0	0	347	0.2	346	347	6.9	95.5
2025-10-16T23:05	10	0	0.1	0	0	347	0.3	346	348	6.9	95.8
2025-10-16T23:06	10	0	0.1	0	0	347	0.2	346	347	6.9	96.0
2025-10-16T23:07	10	0	0.1	0	0	347	0.2	347	347	6.9	96.4
2025-10-16T23:08	10	0	0.1	0	0	347	0.2	346	347	6.9	96.5
2025-10-16T23:09	10	0	0.1	0	0	347	0.2	346	347	6.9	96.4
2025-10-16T23:10	10	0	0.1	0	0	347	0.3	346	348	6.9	96.1
2025-10-16T23:11	10	0	0.1	0	0	347	0.2	346	347	6.9	95.8
2025-10-16T23:12	10	0	0.1	0	0	347	0.2	346	347	6.9	95.5
2025-10-16T23:13	10	0	0.1	0	0	347	0.2	346	347	6.9	95.4
2025-10-16T23:14	10	0	0.0	0	0	347	0.2	346	347	6.9	95.3
2025-10-16T23:15	10	0	0.1	0	0	347	0.3	346	347	6.9	95.2
2025-10-16T23:16	10	0	0.1	0	0	347	0.2	346	347	6.9	95.5
2025-10-16T23:17	10	0	0.1	0	0	347	0.2	346	347	6.9	96.0
2025-10-16T23:18	10	0	0.1	0	0	347	0.2	346	347	6.9	96.2
2025-10-16T23:19	10	0	0.1	0	0	347	0.2	346	347	6.9	96.2
2025-10-16T23:20	10	0	0.1	0	0	347	0.2	346	347	6.9	96.3
2025-10-16T23:21	10	0	0.1	0	0	347	0.2	346	347	6.9	96.3
2025-10-16T23:22	10	0	0.1	0	0	347	0.2	346	347	6.9	96.2
2025-10-16T23:23	10	0	0.1	0	0	347	0.2	346	347	6.9	96.2
2025-10-16T23:24	10	0	0.1	0	0	347	0.2	346	347	7.0	96.5
2025-10-16T23:25	10	0	0.1	0	0	347	0.2	346	347	7.0	96.6
2025-10-16T23:26	10	0	0.1	0	0	347	0.2	347	347	7.0	96.7
2025-10-16T23:27	10	0	0.1	0	0	347	0.2	347	347	7.0	96.2
2025-10-16T23:28	10	0	0.1	0	0	347	0.2	347	348	7.0	96.0
2025-10-16T23:29	10	0	0.1	0	0	347	0.2	347	348	7.0	95.8
2025-10-16T23:30	10	0	0.1	0	0	347	0.2	347	348	7.0	95.7
2025-10-16T23:31	10	0	0.1	0	0	347	0.2	347	348	7.1	95.5
2025-10-16T23:32	10	0	0.1	0	0	347	0.2	347	348	7.1	95.2
2025-10-16T23:33	10	0	0.1	0	0	348	0.2	347	348	7.1	95.3
2025-10-16T23:34	10	0	0.1	0	0	347	0.2	347	348	7.2	95.3
2025-10-16T23:35	10	0	0.1	0	0	348	0.3	347	348	7.2	95.3
2025-10-16T23:36	10	0	0.1	0	0	348	0.2	347	348	7.2	95.3
2025-10-16T23:37	10	0	0.1	0	0	348	0.2	347	348	7.2	95.1
2025-10-16T23:38	10	0	0.1	0	0	348	0.2	347	348	7.2	95.1
2025-10-16T23:39	10	0	0.1	0	0	348	0.2	347	348	7.2	95.1
2025-10-16T23:40	10	0	0.1	0	0	348	0.3	347	348	7.2	95.1
2025-10-16T23:41	10	0	0.1	0	0	348	0.2	347	348	7.2	95.2
2025-10-16T23:42	10	0	0.1	0	0	347	0.3	347	348	7.2	95.5
2025-10-16T23:43	10	0	0.1	0	0	347	0.2	347	348	7.1	95.7
2025-10-16T23:44	10	0	0.1	0	0	347	0.2	347	348	7.1	96.1
2025-10-16T23:45	10	0	0.1	0	0	347	0.2	347	348	7.1	96.2
2025-10-16T23:46	10	0	0.1	0	0	347	0.2	347	348	7.1	96.2
2025-10-16T23:47	10	0	0.1	0	0	347	0.2	347	348	7.1	96.4
2025-10-16T23:48	10	0	0.1	0	0	347	0.2	347	348	7.1	96.7
2025-10-16T23:49	10	0	0.1	0	0	347	0.2	347	348	7.0	96.6
2025-10-16T23:50	10	0	0.1	0	0	347	0.2	347	347	7.0	96.9
2025-10-16T23:51	10	0	0.1	0	0	347	0.2	347	348	7.0	97.1
2025-10-16T23:52	10	0	0.1	0	0	347	0.2	347	348	7.0	97.1
2025-10-16T23:53	10	0	0.1	0	0	347	0.2	347	348	7.0	97.2
2025-10-16T23:54	10	0	0.1	0	0	347	0.2	347	348	7.0	97.6
2025-10-16T23:55	10	0	0.1	0	0	347	0.2	347	348	7.0	98.1
2025-10-16T23:56	10	0	0.1	0	0	347	0.2	347	348	7.0	98.1
2025-10-16T23:57	10	0	0.1	0	0	347	0.2	347	348	7.0	97.5
2025-10-16T23:58	10	0	0.1	0	0	347	0.3	346	348	7.0	97.1
2025-10-16T23:59	10	0	0.1	0	0	347	0.2	347	348	7.0	97.0
2025-10-17T00:00	10	0	0.1	0	0	347	0.2	347	348	7.0	97.1
2025-10-17T00:01	10	0	0.1	0	0	347	0.2	347	348	7.0	97.3
2025-10-17T00:02	10	0	0.1	0	0	347	0.2	347	348	7.0	97.5
2025-10-17T00:03	10	0	0.1	0	0	347	0.2	347	348	7.0	97.8
2025-10-17T00:04	10	0	0.1	0	0	347	0.2	347	348	7.0	97.7
2025-10-17T00:05	10	0	0.1	0	0	347	0.2	347	348	7.0	97.6
2025-10-17T00:06	10	0	0.1	0	0	347	0.2	347	348	7.1	97.4
2025-10-17T00:07	10	0	0.1	0	0	348	0.2	347	348	7.1	97.4
2025-10-17T00:08	10	0	0.1	0	0	347	0.3	347	348	7.1	97.4
2025-10-17T00:09	10	0	0.1	0	0	348	0.2	347	348	7.1	97.3
2025-10-17T00:10	10	0	0.1	0	0	347	0.2	347	348	7.1	97.4
2025-10-17T00:11	10	0	0.1	0	0	348	0.2	347	348	7.2	97.3
2025-10-17T00:12	10	0	0.1	0	0	347	0.2	347	348	7.1	96.8
2025-10-17T00:13	10	0	0.1	0	0	347	0.2	347	348	7.1	96.5
2025-10-17T00:14	10	0	0.1	0	0	348	0.3	347	348	7.1	96.9
2025-10-17T00:15	10	0	0.1	0	0	348	0.2	347	348	7.2	97.3
2025-10-17T00:16	10	0	0.1	0	0	348	0.2	347	348	7.2	96.9
2025-10-17T00:17	10	0	0.0	0	0	348	0.2	347	348	7.2	96.8
2025-10-17T00:18	10	0	0.1	0	0	348	0.2	347	348	7.2	96.6
2025-10-17T00:19	10	0	0.1	0	0	348	0.2	347	348	7.2	96.8
2025-10-17T00:20	10	0	0.1	0	0	348	0.2	347	348	7.2	97.1
2025-10-17T00:21	10	0	0.1	0	0	348	0.2	347	348	7.2	97.3
2025-10-17T00:22	10	0	0.1	0	0	348	0.2	347	348	7.3	97.3
2025-10-17T00:23	10	0	0.1	0	0	348	0.2	347	348	7.3	96.5
2025-10-17T00:24	10	0	0.1	0	0	348	0.2	347	348	7.3	95.9
2025-10-17T00:25	10	0	0.1	0	0	348	0.2	347	348	7.3	95.8
2025-10-17T00:26	10	0	0.1	0	0	348	0.2	347	348	7.3	96.4
2025-10-17T00:27	10	0	0.1	0	0	348	0.2	347	348	7.2	96.5
2025-10-17T00:28	10	0	0.1	0	0	348	0.2	347	348	7.2	96.6
2025-10-17T00:29	10	0	0.1	0	0	348	0.2	347	348	7.3	95.9
2025-10-17T00:30	10	0	0.1	0	0	348	0.2	347	348	7.3	96.0
2025-10-17T00:31	10	0	0.1	0	0	348	0.2	347	348	7.3	96.9
2025-10-17T00:32	10	0	0.1	0	0	348	0.2	348	349	7.4	95.8
2025-10-17T00:33	10	0	0.1	0	0	348	0.3	347	348	7.4	95.0
2025-10-17T00:34	10	0	0.1	0	0	348	0.2	347	348	7.3	95.0
2025-10-17T00:35	10	0	0.1	0	0	348	0.2	347	348	7.3	96.0
2025-10-17T00:36	10	0	0.1	0	0	348	0.2	347	348	7.3	96.4
2025-10-17T00:37	10	0	0.1	0	0	348	0.3	347	348	7.3	96.2
2025-10-17T00:38	10	0	0.1	0	0	348	0.2	347	348	7.3	96.3
2025-10-17T00:39	10	0	0.1	0	0	348	0.2	347	348	7.3	96.6
2025-10-17T00:40	10	0	0.1	0	0	348	0.2	347	348	7.2	97.0
2025-10-17T00:41	10	0	0.1	0	0	348	0.2	347	348	7.2	97.5
2025-10-17T00:42	10	0	0.1	0	0	348	0.3	347	348	7.2	97.3
2025-10-17T00:43	10	0	0.1	0	0	348	0.2	347	348	7.3	96.9
2025-10-17T00:44	10	0	0.1	0	0	348	0.2	347	348	7.3	96.3
2025-10-17T00:45	10	0	0.1	0	0	348	0.3	347	348	7.2	96.4
2025-10-17T00:46	10	0	0.1	0	0	348	0.2	347	348	7.2	96.5
2025-10-17T00:47	10	0	0.1	0	0	348	0.2	347	348	7.2	96.6
2025-10-17T00:48	10	0	0.1	0	0	348	0.2	347	348	7.3	96.3
2025-10-17T00:49	10	0	0.1	0	0	348	0.2	347	348	7.3	96.0
2025-10-17T00:50	10	0	0.1	0	0	348	0.2	347	348	7.3	95.8
2025-10-17T00:51	10	0	0.1	0	0	348	0.3	347	348	7.3	95.4
2025-10-17T00:52	10	0	0.1	0	0	348	0.2	347	348	7.4	95.1
2025-10-17T00:53	10	0	0.1	0	0	348	0.2	347	348	7.3	95.1
2025-10-17T00:54	10	0	0.1	0	0	348	0.2	347	348	7.4	95.0
2025-10-17T00:55	10	0	0.1	0	0	348	0.2	347	348	7.4	95.1
2025-10-17T00:56	10	0	0.1	0	0	348	0.2	347	348	7.5	94.4
2025-10-17T00:57	10	0	0.1	0	0	348	0.2	347	348	7.5	94.4
2025-10-17T00:58	10	0	0.1	0	0	348	0.2	347	348	7.5	94.3
2025-10-17T00:59	10	0	0.1	0	0	348	0.2	347	348	7.5	94.1
2025-10-17T01:00	10	0	0.1	0	0	348	0.3	347	349	7.5	94.5
2025-10-17T01:01	10	0	0.1	0	0	348	0.3	347	349	7.5	94.4
2025-10-17T01:02	10	0	0.1	0	0	348	0.2	347	348	7.5	94.5
2025-10-17T01:03	10	0	0.1	0	0	348	0.2	348	349	7.5	94.3
2025-10-17T01:04	10	0	0.1	0	0	348	0.2	348	349	7.6	93.3
2025-10-17T01:05	10	0	0.1	0	0	348	0.2	347	348	7.7	93.4
2025-10-17T01:06	10	0	0.1	0	0	348	0.2	348	349	7.7	93.1
2025-10-17T01:07	10	0	0.1	0	0	348	0.2	348	349	7.7	92.5
2025-10-17T01:08	10	0	0.1	0	0	348	0.2	347	349	7.7	92.8
2025-10-17T01:09	10	0	0.1	0	0	348	0.2	348	349	7.7	92.7
2025-10-17T01:10	10	0	0.1	0	0	348	0.3	347	349	7.7	92.9
2025-10-17T01:11	10	0	0.1	0	0	348	0.2	348	349	7.7	92.9
2025-10-17T01:12	10	0	0.1	0	0	348	0.2	347	348	7.7	92.9
2025-10-17T01:13	10	0	0.1	0	0	348	0.2	348	349	7.7	92.8
2025-10-17T01:14	10	0	0.1	0	0	348	0.2	348	348	7.7	92.8
2025-10-17T01:15	10	0	0.1	0	0	348	0.3	348	349	7.7	93.0
2025-10-17T01:16	10	0	0.1	0	0	348	0.3	347	349	7.6	93.0
2025-10-17T01:17	10	0	0.3	0	2	348	0.2	347	348	7.6	93.0
2025-10-17T01:18	10	0	0.1	0	0	348	0.3	347	349	7.6	93.1
2025-10-17T01:19	10	0	0.1	0	0	348	0.3	347	348	7.6	93.4
2025-10-17T01:20	10	0	0.1	0	0	348	0.3	347	348	7.5	93.3
2025-10-17T01:21	10	0	0.1	0	0	347	0.3	347	348	7.4	93.7
2025-10-17T01:22	10	0	0.1	0	0	347	0.2	347	348	7.4	93.9
2025-10-17T01:23	10	0	0.1	0	0	347	0.2	347	348	7.3	94.0
2025-10-17T01:24	10	0	0.1	0	0	347	0.3	346	348	7.3	94.3
2025-10-17T01:25	10	0	0.1	0	0	347	0.2	347	347	7.3	94.5
2025-10-17T01:26	10	0	0.1	0	0	347	0.2	347	348	7.3	94.4
2025-10-17T01:27	10	0	0.1	0	0	347	0.2	346	347	7.3	94.5
2025-10-17T01:28	10	0	0.1	0	0	347	0.2	347	347	7.2	94.7
2025-10-17T01:29	10	0	0.1	0	0	347	0.2	346	347	7.2	94.7
2025-10-17T01:30	10	0	0.1	0	0	347	0.2	346	347	7.2	94.4
2025-10-17T01:31	10	0	0.1	0	0	347	0.3	346	347	7.2	94.5
2025-10-17T01:32	10	0	0.1	0	0	347	0.2	347	348	7.3	94.7
2025-10-17T01:33	10	0	0.1	0	0	347	0.2	346	347	7.3	94.9
2025-10-17T01:34	10	0	0.1	0	0	347	0.2	346	347	7.2	95.2
2025-10-17T01:35	10	0	0.1	0	0	347	0.3	346	348	7.3	95.8
2025-10-17T01:36	10	0	0.1	0	0	347	0.2	347	347	7.3	95.3
2025-10-17T01:37	10	0	0.1	0	0	347	0.2	346	348	7.3	94.9
2025-10-17T01:38	10	0	0.1	0	0	347	0.2	346	347	7.3	94.9
2025-10-17T01:39	10	0	0.1	0	0	347	0.3	347	348	7.3	95.7
2025-10-17T01:40	10	0	0.1	0	0	347	0.2	346	347	7.3	95.1
2025-10-17T01:41	10	0	0.1	0	0	347	0.3	346	348	7.3	94.4
2025-10-17T01:42	10	0	0.1	0	0	347	0.3	346	348	7.3	94.5
2025-10-17T01:43	10	0	0.1	0	0	347	0.2	347	348	7.3	94.6
2025-10-17T01:44	10	0	0.1	0	0	347	0.2	347	347	7.3	94.6
2025-10-17T01:45	10	0	0.1	0	0	347	0.2	347	347	7.3	94.4
2025-10-17T01:46	10	0	0.1	0	0	347	0.2	346	348	7.3	94.2
2025-10-17T01:47	10	0	0.1	0	0	347	0.2	347	348	7.3	94.2
2025-10-17T01:48	10	0	0.1	0	0	347	0.2	347	348	7.3	94.5
2025-10-17T01:49	10	0	0.1	0	0	347	0.2	347	348	7.3	94.5
2025-10-17T01:50	10	0	0.1	0	0	347	0.2	347	348	7.3	94.5
2025-10-17T01:51	10	0	0.1	0	0	347	0.2	347	348	7.3	94.4
2025-10-17T01:52	10	0	0.1	0	0	347	0.2	347	348	7.2	94.5
2025-10-17T01:53	10	0	0.1	0	0	347	0.2	346	347	7.2	94.2
2025-10-17T01:54	10	0	0.1	0	0	347	0.3	346	347	7.2	94.5
2025-10-17T01:55	10	0	0.1	0	0	347	0.2	346	347	7.2	94.7
2025-10-17T01:56	10	0	0.1	0	0	347	0.3	346	347	7.2	94.8
2025-10-17T01:57	10	0	0.1	0	0	347	0.2	346	347	7.2	94.5
2025-10-17T01:58	10	0	0.1	0	0	347	0.2	346	347	7.2	94.6
2025-10-17T01:59	10	0	0.1	0	0	347	0.2	346	347	7.2	94.6
2025-10-17T02:00	10	0	0.1	0	0	347	0.2	346	347	7.2	94.7
2025-10-17T02:01	10	0	0.1	0	0	347	0.3	346	347	7.2	94.9
2025-10-17T02:02	10	0	0.1	0	0	347	0.2	346	347	7.2	95.1
2025-10-17T02:03	10	0	0.1	0	0	347	0.2	346	347	7.2	95.0
2025-10-17T02:04	10	0	0.1	0	0	347	0.2	346	347	7.2	95.0
2025-10-17T02:05	10	0	0.1	0	0	347	0.2	346	347	7.2	94.9
2025-10-17T02:06	10	0	0.1	0	0	347	0.2	346	347	7.1	94.8
2025-10-17T02:07	10	0	0.1	0	0	347	0.3	346	347	7.1	94.9
2025-10-17T02:08	10	0	0.1	0	0	347	0.3	346	348	7.2	95.2
2025-10-17T02:09	10	0	0.1	0	0	347	0.2	347	347	7.2	95.4
2025-10-17T02:10	10	0	0.1	0	0	347	0.2	346	347	7.1	94.9
2025-10-17T02:11	10	0	0.1	0	0	347	0.2	346	347	7.1	95.0
2025-10-17T02:12	10	0	0.1	0	0	347	0.2	346	347	7.1	95.1
2025-10-17T02:13	10	0	0.1	0	0	347	0.2	346	347	7.1	95.2
2025-10-17T02:14	10	0	0.1	0	0	347	0.3	346	347	7.1	95.1
2025-10-17T02:15	10	0	0.1	0	0	347	0.2	346	347	7.1	94.9
2025-10-17T02:16	10	0	0.1	0	0	347	0.3	346	347	7.1	95.0
2025-10-17T02:17	10	0	0.1	0	0	347	0.2	347	347	7.1	95.1
2025-10-17T02:18	10	0	0.1	0	0	347	0.3	346	348	7.1	95.2
2025-10-17T02:19	10	0	0.1	0	0	347	0.2	346	347	7.1	95.2
2025-10-17T02:20	10	0	0.1	0	0	347	0.2	346	347	7.1	95.1
2025-10-17T02:21	10	0	0.1	0	0	347	0.3	346	347	7.1	95.2
2025-10-17T02:22	10	0	0.1	0	0	347	0.3	346	348	7.2	95.3
2025-10-17T02:23	10	0	0.1	0	0	347	0.2	346	347	7.1	95.3
2025-10-17T02:24	10	0	0.1	0	0	347	0.2	346	347	7.1	95.3
2025-10-17T02:25	10	0	0.1	0	0	347	0.2	346	347	7.1	95.3
2025-10-17T02:26	10	0	0.1	0	0	347	0.2	346	347	7.1	95.5
2025-10-17T02:27	10	0	0.1	0	0	347	0.2	347	348	7.1	95.6
2025-10-17T02:28	10	0	0.1	0	0	347	0.2	346	348	7.1	95.6
2025-10-17T02:29	10	0	0.1	0	0	347	0.3	346	347	7.2	95.4
2025-10-17T02:30	10	0	0.1	0	0	347	0.2	346	347	7.1	95.1
2025-10-17T02:31	10	0	0.1	0	0	347	0.3	346	348	7.1	95.2
2025-10-17T02:32	10	0	0.1	0	0	347	0.2	347	348	7.1	95.3
2025-10-17T02:33	10	0	0.1	0	0	347	0.2	347	347	7.1	95.2
2025-10-17T02:34	10	0	0.1	0	0	347	0.2	346	347	7.1	95.4
2025-10-17T02:35	10	0	0.1	0	0	347	0.2	346	347	7.1	95.6
2025-10-17T02:36	10	0	0.1	0	0	347	0.2	346	347	7.1	95.4
2025-10-17T02:37	10	0	0.1	0	0	347	0.2	346	347	7.1	95.3
2025-10-17T02:38	10	0	0.1	0	0	347	0.2	346	347	7.1	95.4
2025-10-17T02:39	10	0	0.1	0	0	347	0.2	346	347	7.1	95.6
2025-10-17T02:40	10	0	0.1	0	0	347	0.2	346	347	7.1	95.6
2025-10-17T02:41	10	0	0.1	0	0	347	0.3	346	347	7.0	95.8
2025-10-17T02:42	10	0	0.1	0	0	347	0.2	346	347	7.0	95.6
2025-10-17T02:43	10	0	0.1	0	0	347	0.3	346	347	7.0	95.7
2025-10-17T02:44	10	0	0.1	0	0	347	0.2	346	347	7.0	95.7
2025-10-17T02:45	10	0	0.1	0	0	347	0.2	346	347	7.0	95.8
2025-10-17T02:46	10	0	0.1	0	0	347	0.2	346	347	7.0	96.1
2025-10-17T02:47	10	0	0.1	0	0	347	0.3	346	347	7.0	96.1
2025-10-17T02:48	10	0	0.1	0	0	347	0.3	346	347	7.0	95.8
2025-10-17T02:49	10	0	0.1	0	0	346	0.2	346	347	7.0	96.0
2025-10-17T02:50	10	0	0.1	0	0	347	0.3	346	347	7.0	96.2
2025-10-17T02:51	10	0	0.1	0	0	347	0.3	346	347	7.0	96.0
2025-10-17T02:52	10	0	0.1	0	0	347	0.2	346	347	7.0	95.9
2025-10-17T02:53	10	0	0.1	0	0	347	0.3	346	347	7.0	95.8
2025-10-17T02:54	10	0	0.1	0	0	347	0.2	346	347	7.0	95.8
2025-10-17T02:55	10	0	0.1	0	0	347	0.3	346	347	7.0	95.8
2025-10-17T02:56	10	0	0.1	0	0	347	0.3	346	347	7.0	95.8
2025-10-17T02:57	10	0	0.1	0	0	346	0.2	346	347	6.9	95.9
2025-10-17T02:58	10	0	0.1	-1	0	346	0.2	346	347	6.9	95.9
2025-10-17T02:59	10	0	0.1	0	0	346	0.2	346	347	6.9	95.9
2025-10-17T03:00	10	0	0.1	0	0	346	0.2	346	347	6.9	96.0
2025-10-17T03:01	10	0	0.1	0	0	346	0.3	345	347	6.9	96.2
2025-10-17T03:02	10	0	0.1	-1	0	346	0.2	346	347	6.9	96.1
2025-10-17T03:03	10	0	0.1	0	0	346	0.2	346	347	6.9	96.2
2025-10-17T03:04	10	0	0.1	0	0	346	0.2	346	347	6.9	96.3
2025-10-17T03:05	10	0	0.1	0	0	346	0.2	346	347	6.9	96.4
2025-10-17T03:06	10	0	0.1	0	0	346	0.2	346	347	6.9	96.4
2025-10-17T03:07	10	0	0.1	0	0	346	0.2	346	347	6.9	96.5
2025-10-17T03:08	10	0	0.1	0	0	346	0.2	346	347	6.9	96.7
2025-10-17T03:09	10	0	0.1	0	0	346	0.2	346	347	6.9	96.7
2025-10-17T03:10	10	0	0.1	0	0	346	0.3	346	347	6.9	96.9
2025-10-17T03:11	10	0	0.1	0	0	346	0.2	346	347	6.9	96.5
2025-10-17T03:12	10	0	0.1	0	0	346	0.3	345	347	6.9	96.4
2025-10-17T03:13	10	0	0.1	0	0	346	0.2	346	347	6.9	96.8
2025-10-17T03:14	10	0	0.1	0	0	346	0.3	345	347	6.8	96.4
2025-10-17T03:15	10	0	0.1	0	0	346	0.2	345	346	6.8	96.3
2025-10-17T03:16	10	0	0.1	0	0	346	0.2	345	346	6.8	96.4
2025-10-17T03:17	10	0	0.1	0	0	346	0.2	346	347	6.9	96.4
2025-10-17T03:18	10	0	0.1	0	0	346	0.3	345	347	6.9	96.4
2025-10-17T03:19	10	0	0.1	0	0	346	0.2	346	347	6.9	96.8
2025-10-17T03:20	10	0	0.1	0	0	346	0.2	346	347	6.9	96.8
2025-10-17T03:21	10	0	0.1	0	0	346	0.2	346	347	6.9	96.5
2025-10-17T03:22	10	0	0.1	0	0	346	0.2	346	347	6.9	95.9
2025-10-17T03:23	10	0	0.1	0	0	346	0.3	346	347	6.9	96.1
2025-10-17T03:24	10	0	0.1	0	0	346	0.2	346	347	6.9	95.9
2025-10-17T03:25	10	0	0.1	0	0	346	0.2	346	346	6.9	96.2
2025-10-17T03:26	10	0	0.1	0	0	346	0.2	346	347	6.9	96.1
2025-10-17T03:27	10	0	0.1	0	0	346	0.2	346	347	6.9	96.1
2025-10-17T03:28	10	0	0.1	0	0	346	0.2	346	346	6.9	96.3
2025-10-17T03:29	10	0	0.1	0	0	346	0.2	346	347	6.9	96.2
2025-10-17T03:30	10	0	0.1	0	0	346	0.2	346	347	6.9	96.3
2025-10-17T03:31	10	0	0.1	0	0	346	0.3	346	347	6.9	96.4
2025-10-17T03:32	10	0	0.1	0	0	346	0.2	346	347	6.9	96.4
2025-10-17T03:33	10	0	0.1	0	0	346	0.2	346	347	6.9	96.8
2025-10-17T03:34	10	0	0.1	0	0	346	0.2	346	347	6.9	96.4
2025-10-17T03:35	10	0	0.1	0	0	346	0.2	346	347	6.9	96.6
2025-10-17T03:36	10	0	0.1	0	0	346	0.2	346	347	6.9	96.5
2025-10-17T03:37	10	0	0.1	0	0	347	0.2	346	347	6.9	96.9
2025-10-17T03:38	10	0	0.1	0	0	347	0.2	346	347	6.9	96.6
2025-10-17T03:39	10	0	0.1	0	0	346	0.2	346	347	6.9	96.2
2025-10-17T03:40	10	0	0.1	0	0	346	0.2	346	347	6.9	96.5
2025-10-17T03:41	10	0	0.1	0	0	346	0.2	346	347	6.9	96.4
2025-10-17T03:42	10	0	0.1	0	0	346	0.2	346	347	6.9	96.6
2025-10-17T03:43	10	0	0.1	0	0	346	0.3	346	347	6.9	96.8
2025-10-17T03:44	10	0	0.1	0	0	346	0.2	345	347	6.9	96.4
2025-10-17T03:45	10	0	0.1	0	0	346	0.2	346	347	6.9	96.6
2025-10-17T03:46	10	0	0.1	0	0	346	0.2	346	347	6.9	96.8
2025-10-17T03:47	10	0	0.1	0	0	346	0.2	346	347	6.9	96.7
2025-10-17T03:48	10	0	0.1	0	0	346	0.2	346	347	6.9	97.0
2025-10-17T03:49	10	0	0.1	0	0	346	0.2	346	347	6.9	96.7
2025-10-17T03:50	10	0	0.1	0	0	346	0.2	346	347	6.9	96.4
2025-10-17T03:51	10	0	0.1	0	0	346	0.2	346	347	6.9	96.1
2025-10-17T03:52	10	0	0.1	0	0	346	0.2	346	347	6.9	96.3
2025-10-17T03:53	10	0	0.1	0	0	346	0.2	346	346	7.0	96.6
2025-10-17T03:54	10	0	0.1	0	0	346	0.2	346	347	6.9	96.2
2025-10-17T03:55	10	0	0.1	0	0	346	0.2	346	347	6.9	96.2
2025-10-17T03:56	10	0	0.1	0	0	346	0.2	346	347	7.0	96.2
2025-10-17T03:57	10	0	0.1	0	0	346	0.2	346	347	6.9	95.9
2025-10-17T03:58	10	0	0.1	0	0	346	0.3	346	347	6.9	95.9
2025-10-17T03:59	10	0	0.1	0	0	346	0.3	346	347	6.9	96.0
2025-10-17T04:00	10	0	0.1	0	0	346	0.2	345	346	6.9	96.2
2025-10-17T04:01	10	0	0.1	0	0	346	0.2	345	346	6.9	95.9
2025-10-17T04:02	10	0	0.1	0	0	346	0.2	346	346	6.9	96.1
2025-10-17T04:03	10	0	0.1	0	0	346	0.2	345	346	6.9	96.1
2025-10-17T04:04	10	0	0.1	-1	0	346	0.2	345	346	6.9	95.4
2025-10-17T04:05	10	0	0.1	-1	0	346	0.2	345	346	6.9	95.7
2025-10-17T04:06	10	0	0.1	-1	0	346	0.3	345	346	6.9	95.6
2025-10-17T04:07	10	0	0.1	-1	0	346	0.2	345	346	6.9	95.4
2025-10-17T04:08	10	0	0.1	-1	0	346	0.2	345	346	6.9	95.7
2025-10-17T04:09	10	0	0.1	-1	0	346	0.2	345	346	6.9	95.7
2025-10-17T04:10	10	0	0.1	0	0	346	0.3	345	346	6.8	95.2
2025-10-17T04:11	10	0	0.1	-1	0	345	0.2	345	346	6.8	95.1
2025-10-17T04:12	10	0	0.1	-1	0	345	0.3	345	346	6.8	95.3
2025-10-17T04:13	10	0	0.1	-1	0	345	0.2	345	346	6.8	95.2
2025-10-17T04:14	10	0	0.1	-1	0	345	0.2	345	346	6.8	95.5
2025-10-17T04:15	10	0	0.1	0	0	346	0.2	345	346	6.8	95.3
2025-10-17T04:16	10	0	0.1	0	0	346	0.2	345	346	6.8	95.5
2025-10-17T04:17	10	0	0.1	0	0	345	0.2	345	346	6.8	95.5
2025-10-17T04:18	10	0	0.1	0	0	345	0.3	345	346	6.8	95.2
2025-10-17T04:19	10	0	0.1	0	0	345	0.3	345	346	6.8	95.0
2025-10-17T04:20	10	0	0.1	-1	0	345	0.2	345	346	6.8	95.4
2025-10-17T04:21	10	0	0.1	-1	0	345	0.3	345	346	6.8	95.1
2025-10-17T04:22	10	0	0.1	-1	0	345	0.3	345	346	6.8	95.5
2025-10-17T04:23	10	0	0.1	-1	0	345	0.2	345	346	6.8	95.7
2025-10-17T04:24	10	0	0.1	-1	0	345	0.2	345	346	6.8	95.4
2025-10-17T04:25	10	0	0.1	-1	0	345	0.2	345	346	6.8	95.5
2025-10-17T04:26	10	0	0.1	-1	0	345	0.2	344	346	6.8	95.4
2025-10-17T04:27	10	0	0.1	-1	0	345	0.3	344	346	6.8	95.3
2025-10-17T04:28	10	0	0.1	-1	0	345	0.2	345	346	6.8	95.7
2025-10-17T04:29	10	0	0.1	-1	0	346	0.2	345	346	6.8	96.0
2025-10-17T04:30	10	0	0.0	0	0	346	0.2	345	346	6.8	96.3
2025-10-17T04:31	10	0	0.1	0	0	346	0.2	345	346	6.8	96.0
2025-10-17T04:32	10	0	0.1	0	0	346	0.2	345	346	6.8	95.5
2025-10-17T04:33	10	0	0.1	0	0	345	0.2	345	346	6.8	95.6
2025-10-17T04:34	10	0	0.1	0	0	345	0.3	345	346	6.8	95.7
2025-10-17T04:35	10	0	0.1	0	0	346	0.2	345	346	6.8	95.7
2025-10-17T04:36	10	0	0.1	0	0	346	0.2	345	346	6.8	95.7
2025-10-17T04:37	10	0	0.1	0	0	346	0.2	345	346	6.8	96.0
2025-10-17T04:38	10	0	0.1	0	0	346	0.2	345	346	6.8	96.0
2025-10-17T04:39	10	0	0.1	0	0	346	0.2	345	346	6.8	95.7
2025-10-17T04:40	10	0	0.1	0	0	346	0.3	345	346	6.8	95.6
2025-10-17T04:41	10	0	0.1	0	0	346	0.2	345	346	6.8	95.4
2025-10-17T04:42	10	0	0.1	0	0	346	0.2	345	346	6.8	95.4
2025-10-17T04:43	10	0	0.1	0	0	346	0.2	345	346	6.8	95.3
2025-10-17T04:44	10	0	0.1	0	0	346	0.2	345	346	6.8	95.6
2025-10-17T04:45	10	0	0.1	0	0	346	0.2	345	346	6.8	95.5
2025-10-17T04:46	10	0	0.1	0	0	346	0.3	345	346	6.8	95.4
2025-10-17T04:47	10	0	0.1	0	0	346	0.2	345	346	6.8	95.7
2025-10-17T04:48	10	0	0.1	0	0	346	0.2	345	346	6.8	95.8
2025-10-17T04:49	10	0	0.1	0	0	346	0.2	345	346	6.8	95.8
2025-10-17T04:50	10	0	0.1	0	0	346	0.2	345	346	6.8	95.4
2025-10-17T04:51	10	0	0.1	0	0	346	0.2	345	346	6.8	95.2
2025-10-17T04:52	10	0	0.1	0	0	346	0.3	345	346	6.8	95.3
2025-10-17T04:53	10	0	0.1	0	0	346	0.2	345	346	6.8	95.7
2025-10-17T04:54	10	0	0.1	0	0	346	0.2	345	346	6.8	95.6
2025-10-17T04:55	10	0	0.1	0	0	346	0.2	346	346	6.8	95.8
2025-10-17T04:56	10	0	0.0	0	0	346	0.2	346	347	6.8	95.7
2025-10-17T04:57	10	0	0.1	0	0	346	0.2	346	347	6.8	95.7
2025-10-17T04:58	10	0	0.1	0	0	346	0.2	345	346	6.8	95.8
2025-10-17T04:59	10	0	0.1	0	0	346	0.2	346	346	6.8	95.9
2025-10-17T05:00	10	0	0.1	0	0	346	0.2	345	346	6.8	96.2
2025-10-17T05:01	10	0	0.1	0	0	346	0.2	346	346	6.8	95.8
2025-10-17T05:02	10	0	0.1	0	0	346	0.2	346	346	6.8	95.9
2025-10-17T05:03	10	0	0.1	0	0	346	0.2	345	346	6.8	95.7
2025-10-17T05:04	10	0	0.1	0	0	346	0.2	345	346	6.8	95.8
2025-10-17T05:05	10	0	0.1	0	0	346	0.2	345	346	6.8	95.7
2025-10-17T05:06	10	0	0.1	0	0	346	0.2	345	346	6.8	96.1
2025-10-17T05:07	10	0	0.1	0	0	346	0.2	345	346	6.8	96.3
2025-10-17T05:08	10	0	0.1	0	0	346	0.3	345	346	6.8	96.1
2025-10-17T05:09	10	0	0.1	0	0	346	0.3	345	347	6.8	95.8
2025-10-17T05:10	10	0	0.1	0	0	346	0.2	345	346	6.7	95.6
2025-10-17T05:11	10	0	0.1	0	0	346	0.2	345	346	6.8	96.0
2025-10-17T05:12	10	0	0.1	0	0	346	0.2	345	346	6.8	96.3
2025-10-17T05:13	10	0	0.1	0	0	346	0.2	345	346	6.8	95.9
2025-10-17T05:14	10	0	0.0	0	0	346	0.2	345	347	6.8	95.7
2025-10-17T05:15	10	0	0.1	0	0	346	0.2	345	346	6.8	95.8
2025-10-17T05:16	10	0	0.1	0	0	346	0.2	346	346	6.8	95.7
2025-10-17T05:17	10	0	0.0	0	0	346	0.2	346	346	6.8	95.4
2025-10-17T05:18	10	0	0.1	0	0	346	0.2	345	346	6.8	95.6
2025-10-17T05:19	10	0	0.1	0	0	346	0.2	345	346	6.8	95.6
2025-10-17T05:20	10	0	0.1	0	0	346	0.2	346	347	6.8	95.6
2025-10-17T05:21	10	0	0.0	0	0	346	0.2	346	346	6.8	95.1
2025-10-17T05:22	10	0	0.1	0	0	346	0.2	345	346	6.9	94.9
2025-10-17T05:23	10	0	0.1	0	0	346	0.2	345	346	6.9	94.7
2025-10-17T05:24	10	0	0.0	0	0	346	0.3	345	347	6.9	94.9
2025-10-17T05:25	10	0	0.1	0	0	346	0.3	345	347	6.9	95.2
2025-10-17T05:26	10	0	0.0	0	0	346	0.2	345	346	6.9	95.3
2025-10-17T05:27	10	0	0.1	0	0	346	0.2	345	346	6.9	95.0
2025-10-17T05:28	10	0	0.1	0	0	346	0.2	345	346	6.9	95.0
2025-10-17T05:29	10	0	0.1	0	0	346	0.2	346	346	6.9	95.1
2025-10-17T05:30	10	0	0.1	0	0	346	0.3	345	347	6.9	95.5
2025-10-17T05:31	10	0	0.1	0	0	346	0.2	346	347	6.9	95.6
2025-10-17T05:32	10	0	0.1	0	0	346	0.2	346	347	6.9	95.2
2025-10-17T05:33	10	0	0.1	0	0	346	0.3	346	347	6.9	95.5
2025-10-17T05:34	10	0	0.1	0	0	346	0.3	346	347	6.9	95.5
2025-10-17T05:35	10	0	0.1	0	0	346	0.2	346	347	6.9	95.4
2025-10-17T05:36	10	0	0.1	0	0	346	0.2	346	347	6.9	95.4
2025-10-17T05:37	10	0	0.1	0	0	346	0.2	346	347	6.9	95.3
2025-10-17T05:38	10	0	0.1	0	0	346	0.2	346	347	6.9	95.4
2025-10-17T05:39	10	0	0.1	0	0	346	0.2	346	347	6.9	95.5
2025-10-17T05:40	10	0	0.1	0	0	346	0.2	346	347	6.9	95.2
2025-10-17T05:41	10	0	0.1	0	0	346	0.2	346	347	6.9	95.0
2025-10-17T05:42	10	0	0.0	0	0	346	0.2	346	347	6.9	95.1
2025-10-17T05:43	10	0	0.1	0	0	347	0.2	346	347	6.9	95.3
2025-10-17T05:44	10	0	0.1	0	0	347	0.2	346	347	7.0	95.3
2025-10-17T05:45	10	0	0.1	0	0	346	0.2	346	347	7.0	95.5
2025-10-17T05:46	10	0	0.1	0	0	347	0.2	346	347	7.0	95.4
2025-10-17T05:47	10	0	0.4	0	3	347	0.2	346	347	7.0	95.2
2025-10-17T05:48	10	0	0.1	0	0	347	0.2	346	347	7.0	95.2
2025-10-17T05:49	10	0	0.1	0	0	347	0.2	346	347	7.0	95.2
2025-10-17T05:50	10	0	0.1	0	0	347	0.2	346	347	7.0	95.2
2025-10-17T05:51	10	0	0.1	0	0	347	0.2	346	347	7.0	95.2
2025-10-17T05:52	10	0	0.1	0	0	347	0.2	346	347	7.0	95.0
2025-10-17T05:53	10	0	0.1	0	0	347	0.2	346	347	7.0	95.0
2025-10-17T05:54	10	0	0.1	0	0	347	0.2	346	347	7.0	95.1
2025-10-17T05:55	10	0	0.1	0	0	347	0.2	346	347	7.0	94.9
2025-10-17T05:56	10	0	0.0	0	0	347	0.2	346	348	7.0	95.2
2025-10-17T05:57	10	0	0.1	0	0	347	0.2	346	348	7.0	95.0
2025-10-17T05:58	10	0	0.1	0	0	347	0.2	346	347	7.0	95.1
2025-10-17T05:59	10	0	0.1	0	0	347	0.2	347	347	7.0	95.3
2025-10-17T06:00	10	0	0.1	0	0	347	0.2	347	348	7.0	94.9
2025-10-17T06:01	10	0	0.1	0	0	347	0.2	347	348	7.0	95.2
2025-10-17T06:02	10	0	0.0	0	0	347	0.3	347	348	7.0	95.7
2025-10-17T06:03	10	0	0.0	0	0	347	0.2	347	348	7.0	95.6
2025-10-17T06:04	10	0	0.1	0	1	347	0.2	347	348	7.1	95.4
2025-10-17T06:05	10	0	0.0	0	1	347	0.2	347	348	7.1	95.3
2025-10-17T06:06	10	0	0.1	0	1	347	0.2	347	348	7.1	95.2
2025-10-17T06:07	10	0	0.1	0	1	348	0.2	347	348	7.1	95.0
2025-10-17T06:08	10	1	0.1	0	1	347	0.2	347	348	7.1	95.3
2025-10-17T06:09	10	1	0.1	0	1	348	0.2	347	348	7.1	95.3
2025-10-17T06:10	10	1	0.1	0	1	348	0.2	347	348	7.1	95.1
2025-10-17T06:11	10	1	0.1	0	1	348	0.2	347	348	7.1	95.2
2025-10-17T06:12	10	1	0.1	1	1	348	0.2	347	348	7.1	95.1
2025-10-17T06:13	10	1	0.1	1	1	348	0.2	347	348	7.1	94.7
2025-10-17T06:14	10	1	0.1	1	1	348	0.2	348	348	7.1	94.8
2025-10-17T06:15	10	1	0.1	1	1	348	0.2	347	348	7.1	95.1
2025-10-17T06:16	10	1	0.1	1	1	348	0.2	347	348	7.2	94.5
2025-10-17T06:17	10	1	0.1	1	1	348	0.2	348	349	7.2	94.5
2025-10-17T06:18	10	1	0.1	1	1	348	0.2	347	348	7.2	94.5
2025-10-17T06:19	10	1	0.1	1	1	348	0.2	348	349	7.2	94.3
2025-10-17T06:20	10	1	0.1	1	1	348	0.2	348	348	7.2	94.2
2025-10-17T06:21	10	1	0.1	1	1	348	0.2	348	349	7.2	94.4
2025-10-17T06:22	10	1	0.0	1	1	348	0.2	348	349	7.2	94.4
2025-10-17T06:23	10	1	0.1	1	1	348	0.2	348	349	7.2	94.3
2025-10-17T06:24	10	1	0.1	1	1	348	0.2	348	349	7.2	94.1
2025-10-17T06:25	10	1	0.1	1	1	348	0.2	348	349	7.2	93.9
2025-10-17T06:26	10	1	0.1	1	1	348	0.2	347	348	7.2	94.1
2025-10-17T06:27	10	1	0.1	1	2	348	0.2	348	349	7.2	94.0
2025-10-17T06:28	10	2	0.1	1	2	348	0.2	348	349	7.2	93.8
2025-10-17T06:29	10	2	0.1	2	2	348	0.2	348	349	7.2	93.8
2025-10-17T06:30	10	2	0.1	2	2	348	0.2	348	348	7.2	94.1
2025-10-17T06:31	10	2	0.1	2	2	348	0.3	348	349	7.2	94.2
2025-10-17T06:32	10	2	0.1	2	2	348	0.2	348	349	7.2	94.3
2025-10-17T06:33	10	2	0.1	2	2	349	0.3	348	349	7.2	94.1
2025-10-17T06:34	10	2	0.1	2	2	349	0.2	348	349	7.2	94.4
2025-10-17T06:35	10	2	0.1	2	2	349	0.2	348	349	7.2	94.3
2025-10-17T06:36	10	2	0.1	2	2	349	0.2	349	349	7.2	94.2
2025-10-17T06:37	10	2	0.1	2	2	349	0.2	349	349	7.3	94.1
2025-10-17T06:38	10	2	0.1	2	2	349	0.2	348	349	7.3	94.0
2025-10-17T06:39	10	2	0.1	2	3	349	0.3	348	349	7.3	93.7
2025-10-17T06:40	10	3	0.1	2	3	349	0.3	348	349	7.3	93.9
2025-10-17T06:41	10	3	0.1	2	3	349	0.2	348	349	7.3	93.9
2025-10-17T06:42	10	3	0.1	3	3	349	0.3	348	349	7.3	93.6
2025-10-17T06:43	10	3	0.1	3	3	349	0.2	348	349	7.3	93.8
2025-10-17T06:44	10	3	0.1	3	3	349	0.2	348	349	7.3	93.6
2025-10-17T06:45	10	3	0.1	3	3	349	0.2	348	349	7.3	93.7
2025-10-17T06:46	10	3	0.1	3	3	349	0.3	348	349	7.3	93.5
2025-10-17T06:47	10	3	0.1	3	3	349	0.2	349	349	7.3	93.8
2025-10-17T06:48	10	3	0.1	3	3	349	0.2	349	349	7.3	93.7
2025-10-17T06:49	10	3	0.1	3	3	349	0.3	348	349	7.3	93.2
2025-10-17T06:50	10	3	0.1	3	3	349	0.2	348	349	7.3	93.2
2025-10-17T06:51	10	3	0.1	3	4	349	0.3	348	349	7.3	93.4
2025-10-17T06:52	10	4	0.1	3	4	349	0.2	348	350	7.3	93.9
2025-10-17T06:53	10	4	0.1	4	4	349	0.2	349	350	7.3	93.8
2025-10-17T06:54	10	4	0.1	4	4	349	0.3	349	350	7.3	93.4
2025-10-17T06:55	10	4	0.1	4	4	349	0.3	349	350	7.3	93.7
2025-10-17T06:56	10	4	0.1	4	4	349	0.2	349	350	7.3	94.1
2025-10-17T06:57	10	4	0.1	4	4	350	0.2	349	350	7.3	93.7
2025-10-17T06:58	10	4	0.1	4	4	350	0.2	349	350	7.3	93.7
2025-10-17T06:59	10	4	0.1	4	4	350	0.2	349	350	7.3	93.8
2025-10-17T07:00	10	4	0.1	4	5	350	0.2	349	350	7.3	93.7
2025-10-17T07:01	10	5	0.1	4	5	350	0.2	349	350	7.4	94.1
2025-10-17T07:02	10	5	0.1	5	5	350	0.2	349	350	7.4	93.8
2025-10-17T07:03	10	5	0.1	5	5	350	0.2	349	350	7.4	91.0
2025-10-17T07:04	10	5	0.1	5	5	350	0.2	350	350	7.4	90.6
2025-10-17T07:05	10	5	0.1	5	6	350	0.2	350	350	7.4	90.7
2025-10-17T07:06	10	6	0.1	5	6	350	0.2	350	351	7.4	93.8
2025-10-17T07:07	10	6	0.1	6	6	350	0.2	350	351	7.4	93.8
2025-10-17T07:08	10	6	0.1	6	6	350	0.2	350	351	7.4	93.8
2025-10-17T07:09	10	6	0.1	6	7	351	0.2	350	351	7.4	93.8
2025-10-17T07:10	10	7	0.1	6	7	351	0.2	350	351	7.4	92.8
2025-10-17T07:11	10	7	0.1	7	7	351	0.2	350	351	7.4	92.8
2025-10-17T07:12	10	7	0.1	7	7	351	0.2	351	351	7.5	93.7
2025-10-17T07:13	10	7	0.1	7	7	351	0.2	350	351	7.5	93.9
2025-10-17T07:14	10	7	0.1	7	7	351	0.2	351	352	7.5	93.6
2025-10-17T07:15	10	7	0.1	7	7	351	0.3	350	351	7.5	93.4
2025-10-17T07:16	10	7	0.1	7	7	351	0.2	351	351	7.5	93.8
2025-10-17T07:17	10	7	0.1	6	7	351	0.2	350	352	7.5	93.4
2025-10-17T07:18	10	7	0.1	7	7	351	0.2	350	351	7.5	93.0
2025-10-17T07:19	10	7	0.2	7	7	351	0.2	350	351	7.5	93.2
2025-10-17T07:20	10	8	0.2	7	8	351	0.3	350	351	7.5	93.3
2025-10-17T07:21	10	8	0.2	8	8	351	0.2	351	352	7.5	93.7
2025-10-17T07:22	10	8	0.1	8	9	351	0.2	351	352	7.5	93.1
2025-10-17T07:23	10	9	0.1	8	9	351	0.3	351	352	7.5	93.3
2025-10-17T07:24	10	9	0.1	8	9	351	0.2	351	352	7.5	92.9
2025-10-17T07:25	10	9	0.1	8	9	351	0.3	351	352	7.5	93.0
2025-10-17T07:26	10	9	0.1	9	9	351	0.2	351	352	7.5	93.2
2025-10-17T07:27	10	9	0.1	9	10	352	0.3	351	352	7.6	93.4
2025-10-17T07:28	10	10	0.1	9	10	352	0.2	351	353	7.6	93.3
2025-10-17T07:29	10	10	0.1	9	10	352	0.3	351	353	7.5	92.9
2025-10-17T07:30	10	10	0.1	10	10	352	0.2	351	353	7.5	92.9
2025-10-17T07:31	10	10	0.1	10	10	352	0.2	351	352	7.5	92.8
2025-10-17T07:32	10	10	0.1	10	10	352	0.2	352	353	7.6	93.0
2025-10-17T07:33	10	10	0.1	10	11	352	0.2	352	353	7.6	93.0
2025-10-17T07:34	10	11	0.1	10	11	353	0.2	352	353	7.6	93.2
2025-10-17T07:35	10	11	0.1	10	11	353	0.2	352	353	7.7	93.3
2025-10-17T07:36	10	11	0.1	11	11	353	0.3	352	354	7.7	92.8
2025-10-17T07:37	10	11	0.1	11	11	353	0.2	352	353	7.7	93.1
2025-10-17T07:38	10	11	0.1	11	11	352	0.2	352	353	7.6	92.1
2025-10-17T07:39	10	11	0.1	11	11	352	0.3	352	353	7.6	92.4
2025-10-17T07:40	10	11	0.1	11	11	352	0.2	352	353	7.7	92.5
2025-10-17T07:41	10	11	0.1	11	11	353	0.3	352	354	7.7	92.7
2025-10-17T07:42	10	11	0.1	11	11	353	0.3	352	354	7.7	91.9
2025-10-17T07:43	10	11	0.1	11	11	353	0.2	353	354	7.7	92.2
2025-10-17T07:44	10	11	0.1	11	12	353	0.3	353	354	7.7	92.5
2025-10-17T07:45	10	12	0.1	11	12	354	0.2	353	354	7.8	92.6
2025-10-17T07:46	10	12	0.1	12	12	354	0.2	353	354	7.8	92.4
2025-10-17T07:47	10	12	0.2	11	12	354	0.3	353	355	7.8	92.2
2025-10-17T07:48	10	11	0.2	11	11	354	0.2	354	355	7.8	92.2
2025-10-17T07:49	10	11	0.1	10	11	354	0.3	354	355	7.8	92.3
2025-10-17T07:50	10	10	0.1	10	11	354	0.2	353	354	7.8	92.6
2025-10-17T07:51	10	11	0.1	10	11	353	0.2	353	354	7.7	92.7
2025-10-17T07:52	10	11	0.1	11	11	353	0.2	352	354	7.7	93.1
2025-10-17T07:53	10	11	0.1	11	11	353	0.2	353	354	7.7	93.0
2025-10-17T07:54	10	11	0.1	11	11	353	0.2	352	353	7.7	92.5
2025-10-17T07:55	10	11	0.1	11	12	353	0.2	352	354	7.7	92.7
2025-10-17T07:56	10	11	0.1	11	12	353	0.2	353	354	7.7	92.6
2025-10-17T07:57	10	11	0.1	11	12	353	0.2	353	354	7.7	92.7
2025-10-17T07:58	10	12	0.1	12	12	353	0.2	353	354	7.7	92.8
2025-10-17T07:59	10	12	0.2	12	13	353	0.3	353	354	7.7	92.9
2025-10-17T08:00	10	13	0.2	13	13	354	0.3	353	354	7.7	92.8
2025-10-17T08:01	10	13	0.1	13	13	354	0.3	354	355	7.8	93.1
2025-10-17T08:02	10	13	0.1	13	13	354	0.4	353	355	7.8	92.8
2025-10-17T08:03	10	13	0.1	12	13	354	0.3	354	355	7.8	92.0
2025-10-17T08:04	10	12	0.1	12	13	354	0.3	353	354	7.8	91.6
2025-10-17T08:05	10	12	0.1	12	12	353	0.2	353	354	7.8	91.7
2025-10-17T08:06	10	13	0.1	12	13	354	0.3	353	354	7.8	91.9
2025-10-17T08:07	10	13	0.1	13	13	354	0.3	353	354	7.8	91.7
2025-10-17T08:08	10	13	0.1	13	13	354	0.3	353	354	7.8	91.8
2025-10-17T08:09	10	13	0.1	13	13	354	0.2	353	354	7.8	92.3
2025-10-17T08:10	10	13	0.2	12	13	354	0.4	353	355	7.8	91.6
2025-10-17T08:11	10	12	0.1	12	12	354	0.3	353	355	7.8	91.5
2025-10-17T08:12	10	12	0.1	12	12	354	0.2	353	354	7.8	91.6
2025-10-17T08:13	10	12	0.1	12	12	354	0.3	353	354	7.8	91.7
2025-10-17T08:14	10	12	0.2	12	12	353	0.2	353	354	7.8	91.3
2025-10-17T08:15	10	13	0.2	12	13	353	0.2	353	354	7.8	91.6
2025-10-17T08:16	10	13	0.1	13	13	354	0.2	353	354	7.8	91.5
2025-10-17T08:17	10	13	0.1	13	13	354	0.2	353	354	7.8	91.4
2025-10-17T08:18	10	13	0.1	13	13	354	0.2	353	355	7.8	91.3
2025-10-17T08:19	10	13	0.1	13	13	354	0.3	353	354	7.8	91.2
2025-10-17T08:20	10	13	0.1	13	13	354	0.2	353	354	7.9	91.7
2025-10-17T08:21	10	13	0.3	13	14	354	0.3	354	355	7.9	91.3
2025-10-17T08:22	10	15	0.3	14	15	355	0.3	354	355	7.9	91.3
2025-10-17T08:23	10	16	0.4	15	16	355	0.3	355	355	7.9	91.6
2025-10-17T08:24	10	17	0.2	16	17	355	0.2	355	356	7.9	91.4
2025-10-17T08:25	10	17	0.1	17	17	355	0.2	355	356	7.9	91.1
2025-10-17T08:26	10	17	0.1	17	17	355	0.2	355	356	7.9	91.2
2025-10-17T08:27	10	17	0.1	17	17	355	0.2	355	356	7.9	91.3
2025-10-17T08:28	10	17	0.1	16	17	356	0.2	355	356	8.0	91.4
2025-10-17T08:29	10	16	0.1	16	17	356	0.3	355	356	8.0	91.3
2025-10-17T08:30	10	17	0.1	16	17	356	0.2	355	356	8.0	91.4
2025-10-17T08:31	10	17	0.1	17	17	356	0.2	355	356	8.0	91.2
2025-10-17T08:32	10	17	0.1	17	17	355	0.2	355	356	8.0	90.6
2025-10-17T08:33	10	17	0.1	16	17	355	0.2	355	356	8.0	90.8
2025-10-17T08:34	10	16	0.1	16	17	355	0.2	354	356	7.9	90.6
2025-10-17T08:35	10	16	0.1	16	16	355	0.2	354	355	7.9	90.7
2025-10-17T08:36	10	16	0.1	16	16	355	0.3	354	355	8.0	90.9
2025-10-17T08:37	10	17	0.2	16	17	355	0.2	354	355	7.9	90.8
2025-10-17T08:38	10	17	0.2	17	18	354	0.3	354	355	7.9	90.7
2025-10-17T08:39	10	18	0.1	17	18	355	0.2	354	355	7.9	90.7
2025-10-17T08:40	10	17	0.1	17	18	354	0.3	354	355	7.9	90.5
2025-10-17T08:41	10	17	0.1	17	17	355	0.3	354	356	8.0	90.9
2025-10-17T08:42	10	18	0.1	17	18	355	0.2	355	356	8.0	90.5
2025-10-17T08:43	10	18	0.1	18	18	355	0.3	354	356	8.0	90.5
2025-10-17T08:44	10	18	0.1	18	18	355	0.2	355	356	8.0	90.4
2025-10-17T08:45	10	18	0.1	18	18	355	0.3	354	355	8.0	90.4
2025-10-17T08:46	10	18	0.1	18	19	355	0.2	354	355	8.0	90.6
2025-10-17T08:47	10	19	0.2	18	19	355	0.2	355	356	8.0	90.8
2025-10-17T08:48	10	19	0.3	19	20	355	0.2	355	355	8.0	90.6
2025-10-17T08:49	10	21	0.5	20	21	356	0.3	355	356	8.0	90.7
2025-10-17T08:50	10	22	0.5	21	23	356	0.4	356	357	8.1	90.7
2025-10-17T08:51	10	24	0.4	23	24	357	0.3	356	358	8.1	90.6
2025-10-17T08:52	10	24	0.1	24	24	357	0.2	357	358	8.1	90.6
2025-10-17T08:53	10	24	0.1	24	24	358	0.2	357	358	8.1	90.5
2025-10-17T08:54	10	24	0.1	24	24	357	0.3	356	357	8.0	89.9
2025-10-17T08:55	10	24	0.2	24	24	357	0.4	356	358	8.1	90.2
2025-10-17T08:56	10	24	0.1	24	24	358	0.2	358	359	8.2	90.7
2025-10-17T08:57	10	24	0.1	24	24	359	0.3	358	359	8.2	90.6
2025-10-17T08:58	10	24	0.2	24	24	358	0.2	358	359	8.2	90.1
2025-10-17T08:59	10	25	0.2	24	25	358	0.3	358	359	8.2	90.2
2025-10-17T09:00	10	25	0.1	24	25	357	0.2	357	358	8.1	89.9
2025-10-17T09:01	10	24	0.1	24	25	358	0.2	358	359	8.2	90.0
2025-10-17T09:02	10	24	0.1	24	24	358	0.2	357	358	8.1	89.8
2025-10-17T09:03	10	24	0.1	24	24	358	0.4	357	359	8.2	89.9
2025-10-17T09:04	10	24	0.1	24	24	358	0.3	358	359	8.3	90.0
2025-10-17T09:05	10	24	0.2	24	25	358	0.3	358	359	8.2	89.8
2025-10-17T09:06	10	25	0.3	25	26	358	0.2	358	359	8.2	89.7
2025-10-17T09:07	10	26	0.2	26	27	359	0.3	358	359	8.2	89.9
2025-10-17T09:08	10	27	0.1	26	27	359	0.3	359	360	8.3	89.9
2025-10-17T09:09	10	27	0.1	27	27	360	0.2	359	360	8.4	89.9
2025-10-17T09:10	10	27	0.1	26	27	360	0.3	359	360	8.4	89.7
2025-10-17T09:11	10	26	0.2	26	26	359	0.5	358	360	8.3	89.6
2025-10-17T09:12	10	26	0.2	25	26	359	0.3	358	360	8.3	89.7
2025-10-17T09:13	10	25	0.1	25	25	360	0.4	359	361	8.4	89.9
2025-10-17T09:14	10	25	0.1	25	26	360	0.3	359	360	8.4	89.4
2025-10-17T09:15	10	26	0.1	26	26	359	0.3	358	360	8.4	89.3
2025-10-17T09:16	10	26	0.1	26	26	359	0.3	358	359	8.3	89.0
2025-10-17T09:17	10	26	0.1	26	26	359	0.2	358	359	8.3	88.9
2025-10-17T09:18	10	26	0.1	26	26	359	0.2	358	359	8.3	89.1
2025-10-17T09:19	10	26	0.1	26	26	359	0.2	359	360	8.3	89.1
2025-10-17T09:20	10	26	0.2	26	27	359	0.3	358	359	8.4	89.0
2025-10-17T09:21	10	27	0.3	26	28	359	0.3	358	359	8.3	88.8
2025-10-17T09:22	10	28	0.3	27	28	359	0.2	358	360	8.4	88.7
2025-10-17T09:23	10	29	0.2	28	29	358	0.2	358	359	8.3	88.4
2025-10-17T09:24	10	29	0.2	29	30	359	0.3	358	359	8.3	88.6
2025-10-17T09:25	10	30	0.1	30	30	359	0.3	359	360	8.3	88.5
2025-10-17T09:26	10	30	0.1	30	30	359	0.3	359	360	8.4	88.7
2025-10-17T09:27	10	30	0.1	30	30	360	0.2	359	360	8.5	89.1
2025-10-17T09:28	10	30	0.2	30	31	360	0.2	359	360	8.4	88.5
2025-10-17T09:29	10	31	0.2	31	31	360	0.2	359	360	8.4	88.5
2025-10-17T09:30	10	31	0.1	31	32	361	0.3	360	362	8.5	88.8
2025-10-17T09:31	10	32	0.1	32	32	362	0.3	361	362	8.5	88.4
2025-10-17T09:32	10	32	0.1	32	32	362	0.2	362	363	8.6	88.6
2025-10-17T09:33	10	32	0.2	31	32	362	0.6	360	363	8.5	88.0
2025-10-17T09:34	10	31	0.1	31	32	361	0.3	360	361	8.4	88.0
2025-10-17T09:35	10	31	0.1	31	31	361	0.2	361	362	8.5	88.2
2025-10-17T09:36	10	31	0.1	31	31	361	0.2	360	361	8.5	88.0
2025-10-17T09:37	10	31	0.1	31	31	361	0.2	361	362	8.6	88.2
2025-10-17T09:38	10	31	0.2	31	31	362	0.3	362	363	8.6	88.3
2025-10-17T09:39	10	32	0.2	31	32	362	0.3	361	363	8.6	88.0
2025-10-17T09:40	10	33	0.3	32	33	362	0.3	361	363	8.5	87.7
2025-10-17T09:41	10	33	0.2	33	34	363	0.2	362	363	8.6	88.1
2025-10-17T09:42	10	34	0.1	34	34	363	0.4	362	364	8.5	87.6
2025-10-17T09:43	10	34	0.1	34	35	363	0.4	362	363	8.5	87.8
2025-10-17T09:44	10	35	0.2	34	35	363	0.2	363	364	8.6	87.9
2025-10-17T09:45	10	35	0.2	35	36	363	0.4	362	364	8.6	87.6
2025-10-17T09:46	10	36	0.1	36	36	362	0.2	362	363	8.6	87.8
2025-10-17T09:47	10	36	0.1	36	36	363	0.2	362	363	8.6	87.9
2025-10-17T09:48	10	36	0.1	36	37	362	0.2	362	363	8.5	88.0
2025-10-17T09:49	10	37	0.1	36	37	363	0.2	362	363	8.5	87.9
2025-10-17T09:50	10	37	0.2	37	37	363	0.6	362	365	8.7	88.1
2025-10-17T09:51	10	38	0.2	37	38	364	0.3	363	364	8.7	87.7
2025-10-17T09:52	10	38	0.1	38	38	364	0.4	363	365	8.7	87.7
2025-10-17T09:53	10	38	0.1	38	38	365	0.2	364	365	8.8	88.1
2025-10-17T09:54	10	38	0.1	38	38	365	0.3	364	365	8.7	87.5
2025-10-17T09:55	10	38	0.1	37	38	365	0.2	364	365	8.7	87.6
2025-10-17T09:56	10	38	0.2	38	38	365	0.2	365	366	8.8	88.0
2025-10-17T09:57	10	38	0.2	38	39	364	0.3	364	365	8.7	87.4
2025-10-17T09:58	10	39	0.2	39	39	365	0.3	364	365	8.7	87.7
2025-10-17T09:59	10	39	0.1	39	40	365	0.2	365	366	8.8	87.6
2025-10-17T10:00	10	39	0.1	39	40	365	0.5	364	366	8.8	87.5
2025-10-17T10:01	10	39	0.1	39	40	365	0.2	364	365	8.7	87.6
2025-10-17T10:02	10	39	0.1	39	39	365	0.2	365	366	8.7	87.5
2025-10-17T10:03	10	39	0.1	39	39	365	0.2	364	365	8.7	87.5
2025-10-17T10:04	10	39	0.2	39	39	365	0.3	365	366	8.8	87.7
2025-10-17T10:05	10	40	0.3	39	40	366	0.4	365	367	8.9	88.1
2025-10-17T10:06	10	41	0.2	40	41	366	0.4	365	367	8.8	87.3
2025-10-17T10:07	10	41	0.2	41	42	366	0.3	365	367	8.8	87.2
2025-10-17T10:08	10	41	0.1	41	42	367	0.5	366	368	8.8	87.6
2025-10-17T10:09	10	41	0.2	40	42	368	0.4	367	369	9.0	88.1
2025-10-17T10:10	10	40	0.1	40	41	367	0.4	365	367	8.9	87.0
2025-10-17T10:11	10	40	0.1	40	40	367	0.3	366	367	8.8	87.1
2025-10-17T10:12	10	40	0.2	40	41	367	0.3	367	368	9.0	87.5
2025-10-17T10:13	10	41	0.2	40	41	368	0.3	367	369	8.9	87.0
2025-10-17T10:14	10	41	0.1	41	42	367	0.6	366	368	8.9	86.9
2025-10-17T10:15	10	42	0.1	41	42	366	0.3	365	366	8.8	87.0
2025-10-17T10:16	10	41	0.2	41	42	367	0.4	366	367	8.9	87.2
2025-10-17T10:17	10	41	0.2	40	41	367	0.3	366	368	8.9	87.2
2025-10-17T10:18	10	41	0.1	40	41	367	0.3	366	368	8.9	87.0
2025-10-17T10:19	10	41	0.3	40	42	367	0.3	367	368	9.0	87.1
2025-10-17T10:20	10	42	0.2	41	42	368	0.3	367	368	9.0	87.0
2025-10-17T10:21	10	42	0.2	42	43	368	0.3	367	369	9.1	87.3
2025-10-17T10:22	10	42	0.2	42	42	369	0.4	368	370	9.3	87.7
2025-10-17T10:23	10	42	0.2	41	42	368	0.3	368	369	9.2	86.8
2025-10-17T10:24	10	41	0.3	40	41	369	0.2	368	369	9.1	86.4
2025-10-17T10:25	10	40	0.2	40	41	369	0.3	369	370	9.1	86.5
2025-10-17T10:26	10	40	0.2	40	40	370	0.3	369	370	9.2	87.2
2025-10-17T10:27	10	41	0.1	41	41	370	0.3	370	371	9.3	87.2
2025-10-17T10:28	10	41	0.2	41	41	370	0.5	369	371	9.3	86.1
2025-10-17T10:29	10	41	0.1	41	42	370	0.2	369	370	9.2	85.9
2025-10-17T10:30	10	42	0.1	41	42	370	0.3	370	371	9.2	86.4
2025-10-17T10:31	10	42	0.1	42	42	370	0.5	369	371	9.3	86.6
2025-10-17T10:32	10	42	0.1	42	42	369	0.5	368	370	9.1	86.2
2025-10-17T10:33	10	42	0.2	42	43	369	0.3	368	370	9.0	86.1
2025-10-17T10:34	10	42	0.2	41	42	369	0.4	369	370	9.0	86.3
2025-10-17T10:35	10	40	0.2	40	41	370	0.3	370	371	9.1	86.7
2025-10-17T10:36	10	40	0.2	39	40	371	0.2	370	371	9.3	87.4
2025-10-17T10:37	10	39	0.1	39	39	369	0.9	367	371	9.3	86.5
2025-10-17T10:38	10	39	0.2	39	40	368	0.3	367	369	9.2	86.7
2025-10-17T10:39	10	40	0.3	40	41	368	0.3	368	369	9.2	86.9
2025-10-17T10:40	10	42	0.5	41	43	368	0.3	368	369	9.1	86.4
2025-10-17T10:41	10	44	0.9	43	45	369	0.3	368	370	9.1	86.5
2025-10-17T10:42	10	47	0.8	45	48	371	0.6	369	372	9.3	87.0
2025-10-17T10:43	10	49	0.5	48	50	371	0.3	370	372	9.3	86.4
2025-10-17T10:44	10	50	0.2	50	50	371	0.3	370	372	9.2	85.7
2025-10-17T10:45	10	50	0.1	50	51	371	0.5	371	373	9.2	85.9
2025-10-17T10:46	10	52	0.1	51	52	372	0.3	372	373	9.4	86.4
2025-10-17T10:47	10	52	0.2	52	53	373	0.3	372	373	9.5	86.2
2025-10-17T10:48	10	53	0.4	53	54	373	0.3	372	373	9.3	85.6
2025-10-17T10:49	10	55	0.3	54	55	373	0.3	373	374	9.5	86.7
2025-10-17T10:50	10	55	0.1	55	55	374	0.2	374	375	9.6	86.1
2025-10-17T10:51	10	55	0.2	54	55	374	0.2	374	375	9.6	85.3
2025-10-17T10:52	10	54	0.3	53	54	374	0.1	374	374	9.6	85.5
2025-10-17T10:53	10	53	0.1	53	54	374	0.4	373	375	9.6	85.3
2025-10-17T10:54	10	54	0.2	53	54	374	0.3	373	375	9.5	85.3
2025-10-17T10:55	10	55	0.4	54	55	375	0.3	374	375	9.7	85.6
2025-10-17T10:56	10	56	0.4	55	57	375	0.3	374	375	9.7	85.4
2025-10-17T10:57	10	57	0.1	57	57	374	0.2	374	375	9.6	84.9
2025-10-17T10:58	10	56	0.3	56	57	374	0.4	373	375	9.5	84.5
2025-10-17T10:59	10	55	0.5	54	56	373	0.3	372	373	9.4	84.7
2025-10-17T11:00	10	53	0.3	53	54	374	0.5	373	374	9.4	85.1
2025-10-17T11:01	10	52	0.1	52	53	374	0.4	373	374	9.5	85.0
2025-10-17T11:02	10	53	0.2	52	53	374	0.3	373	375	9.5	85.0
2025-10-17T11:03	10	53	0.3	53	54	373	0.3	373	374	9.5	84.8
2025-10-17T11:04	10	54	0.3	54	55	373	0.3	372	374	9.4	85.0
2025-10-17T11:05	10	55	0.1	54	55	374	0.4	373	374	9.5	84.9
2025-10-17T11:06	10	54	0.3	54	55	374	0.2	374	375	9.5	85.0
2025-10-17T11:07	10	53	0.2	53	54	374	0.2	374	375	9.7	84.9
2025-10-17T11:08	10	53	0.1	53	53	374	0.5	372	374	9.6	84.8
2025-10-17T11:09	10	53	0.2	53	54	373	0.3	372	374	9.6	85.0
2025-10-17T11:10	10	54	0.1	54	54	372	0.3	371	373	9.4	85.0
2025-10-17T11:11	10	53	0.3	53	54	372	0.3	372	373	9.4	85.5
2025-10-17T11:12	10	52	0.3	52	53	373	0.3	372	373	9.4	85.4
2025-10-17T11:13	10	51	0.3	51	52	372	0.3	371	373	9.4	85.1
2025-10-17T11:14	10	50	0.2	50	51	372	0.3	372	373	9.4	84.9
2025-10-17T11:15	10	50	0.2	49	50	372	0.3	372	373	9.5	84.8
2025-10-17T11:16	10	50	0.1	50	50	372	0.5	371	373	9.5	84.7
2025-10-17T11:17	10	50	0.2	50	51	372	0.4	371	372	9.5	84.9
2025-10-17T11:18	10	51	0.2	50	51	371	0.4	370	372	9.4	84.8
2025-10-17T11:19	10	51	0.2	51	52	372	0.3	371	372	9.7	84.9
2025-10-17T11:20	10	52	0.2	51	52	372	0.3	372	373	9.7	84.5
2025-10-17T11:21	10	53	0.2	52	53	372	0.4	372	373	9.7	84.1
2025-10-17T11:22	10	54	0.3	53	54	372	0.3	372	373	9.9	84.3
2025-10-17T11:23	10	54	0.1	54	55	373	0.4	373	374	9.8	83.8
2025-10-17T11:24	10	54	0.1	54	55	372	0.4	372	374	9.7	83.9
2025-10-17T11:25	10	54	0.1	54	54	373	0.2	372	373	9.8	84.3
2025-10-17T11:26	10	54	0.1	54	54	373	0.4	372	374	9.9	84.2
2025-10-17T11:27	10	54	0.1	53	54	374	0.5	373	375	9.8	83.9
2025-10-17T11:28	10	54	0.1	53	54	374	0.6	373	375	9.9	83.8
2025-10-17T11:29	10	54	0.2	54	54	372	0.4	372	373	9.8	84.0
2025-10-17T11:30	10	55	0.3	54	55	373	0.3	372	373	9.7	84.1
2025-10-17T11:31	10	56	0.4	55	56	374	0.8	373	375	9.7	84.1
2025-10-17T11:32	10	57	0.2	56	57	374	0.5	374	376	9.9	83.8
2025-10-17T11:33	10	58	0.2	57	58	374	0.4	373	375	9.9	83.6
2025-10-17T11:34	10	59	0.2	58	59	374	0.5	373	375	9.9	83.2
2025-10-17T11:35	10	60	0.3	59	60	375	0.2	374	375	9.9	83.4
2025-10-17T11:36	10	60	0.2	60	61	375	0.4	375	376	9.9	83.1
2025-10-17T11:37	10	61	0.3	61	62	376	0.3	376	377	9.9	82.9
2025-10-17T11:38	10	62	0.2	62	63	376	0.4	375	377	10.0	83.0
2025-10-17T11:39	10	62	0.1	62	63	376	0.4	375	376	9.9	82.7
2025-10-17T11:40	10	62	0.2	62	63	376	0.5	375	377	10.0	82.8
2025-10-17T11:41	10	61	0.3	61	62	375	0.3	375	376	9.8	82.6
2025-10-17T11:42	10	60	0.3	60	61	374	0.4	373	375	9.9	83.0
2025-10-17T11:43	10	59	0.3	59	60	374	0.5	374	375	10.0	83.0
2025-10-17T11:44	10	58	0.1	58	59	374	0.4	373	375	10.0	82.9
2025-10-17T11:45	10	58	0.1	58	59	374	0.3	373	374	10.0	82.6
2025-10-17T11:46	10	59	0.2	58	59	373	0.2	373	374	9.8	82.6
2025-10-17T11:47	10	60	0.3	59	60	373	0.2	373	374	9.9	82.7
2025-10-17T11:48	10	61	0.5	60	62	373	0.4	372	374	9.9	82.9
2025-10-17T11:49	10	63	0.4	62	63	373	0.3	373	374	9.9	82.8
2025-10-17T11:50	10	64	0.3	63	64	374	0.3	373	375	9.8	82.8
2025-10-17T11:51	10	65	0.2	64	65	375	0.4	374	375	9.9	82.5
2025-10-17T11:52	10	65	0.1	65	66	376	0.6	374	377	10.0	82.5
2025-10-17T11:53	10	65	0.1	65	66	376	0.3	375	376	10.1	82.1
2025-10-17T11:54	10	65	0.1	65	65	376	0.4	376	377	10.0	82.1
2025-10-17T11:55	10	65	0.1	65	65	377	0.4	377	378	10.2	82.4
2025-10-17T11:56	10	64	0.2	64	65	377	0.4	377	378	10.2	81.9
2025-10-17T11:57	10	64	0.3	63	64	377	0.3	377	378	10.3	82.0
2025-10-17T11:58	10	62	0.5	61	63	377	0.8	375	378	10.4	81.9
2025-10-17T11:59	10	60	0.6	60	61	376	0.3	375	377	10.4	81.8
2025-10-17T12:00	10	59	0.3	59	60	376	0.4	375	376	10.2	81.9
2025-10-17T12:01	10	58	0.1	58	59	376	0.5	375	377	10.1	81.8
2025-10-17T12:02	10	58	0.1	58	58	376	0.5	376	377	10.2	81.7
2025-10-17T12:03	10	58	0.1	58	58	377	0.4	376	378	10.3	81.6
2025-10-17T12:04	10	58	0.1	58	58	378	0.4	377	379	10.4	81.3
2025-10-17T12:05	10	58	0.6	58	63	377	0.8	376	379	10.4	80.9
2025-10-17T12:06	10	58	0.3	58	60	376	0.6	375	377	10.2	80.9
2025-10-17T12:07	10	58	0.1	58	58	376	0.4	375	377	10.3	81.3
2025-10-17T12:08	10	58	0.1	58	58	374	0.5	374	375	10.2	81.0
2025-10-17T12:09	10	58	0.1	58	58	374	0.3	374	375	10.3	81.3
2025-10-17T12:10	10	57	0.1	57	58	375	0.3	374	375	10.4	81.1
2025-10-17T12:11	10	57	0.1	57	57	375	0.6	374	376	10.3	81.5
2025-10-17T12:12	10	57	0.2	57	57	377	0.5	376	378	10.5	82.2
2025-10-17T12:13	10	57	0.1	57	58	375	0.7	374	377	10.2	81.4
2025-10-17T12:14	10	58	0.1	57	58	375	0.4	374	375	10.1	81.5
2025-10-17T12:15	10	58	0.1	58	58	375	1.0	374	377	10.1	81.6
2025-10-17T12:16	10	58	0.1	58	58	376	0.6	375	377	10.3	81.7
2025-10-17T12:17	10	57	0.1	57	58	376	0.3	375	376	10.3	81.6
2025-10-17T12:18	10	57	0.1	57	58	376	0.4	375	376	10.6	81.4
2025-10-17T12:19	10	58	0.2	58	58	375	0.3	374	376	10.3	81.2
2025-10-17T12:20	10	59	0.2	58	59	375	0.4	374	376	10.2	81.6
2025-10-17T12:21	10	60	0.4	59	60	376	0.4	376	377	10.4	82.2
2025-10-17T12:22	10	61	0.3	60	61	377	0.3	376	377	10.4	81.4
2025-10-17T12:23	10	62	0.2	61	62	376	0.4	376	377	10.3	80.8
2025-10-17T12:24	10	62	0.1	62	62	377	0.4	376	377	10.4	80.9
2025-10-17T12:25	10	62	0.1	62	62	376	0.5	375	377	10.4	80.6
2025-10-17T12:26	10	62	0.1	62	62	376	0.4	376	377	10.4	81.0
2025-10-17T12:27	10	62	0.1	61	62	377	0.4	376	378	10.5	81.1
2025-10-17T12:28	10	61	0.1	61	62	378	0.4	377	378	10.6	81.0
2025-10-17T12:29	10	61	0.1	61	61	378	0.3	378	379	10.7	81.3
2025-10-17T12:30	10	62	0.1	61	62	377	0.8	376	378	10.6	79.7
2025-10-17T12:31	10	62	0.1	62	62	377	0.9	376	379	10.4	79.8
2025-10-17T12:32	10	62	0.1	62	62	379	0.4	378	380	10.7	81.4
2025-10-17T12:33	10	62	0.1	62	63	379	0.4	378	379	10.7	80.7
2025-10-17T12:34	10	63	0.1	63	63	377	0.4	376	378	10.5	80.2
2025-10-17T12:35	10	63	0.1	63	63	378	0.6	377	379	10.6	80.4
2025-10-17T12:36	10	63	0.1	63	64	380	0.3	379	380	10.8	80.4
2025-10-17T12:37	10	64	0.1	64	64	380	0.3	379	381	10.8	79.5
2025-10-17T12:38	10	64	0.2	63	64	379	0.8	378	381	10.6	78.9
2025-10-17T12:39	10	63	0.3	62	63	379	0.6	378	380	10.7	79.7
2025-10-17T12:40	10	62	0.4	61	62	379	0.4	379	380	10.7	79.2
2025-10-17T12:41	10	60	0.3	60	61	378	0.4	377	379	10.5	79.5
2025-10-17T12:42	10	60	0.1	59	60	378	0.7	377	379	10.6	80.0
2025-10-17T12:43	10	59	0.1	59	59	377	0.2	376	377	10.5	79.3
2025-10-17T12:44	10	60	0.2	59	60	376	0.3	376	377	10.6	79.4
2025-10-17T12:45	10	60	0.2	60	61	376	0.3	376	377	10.6	78.8
2025-10-17T12:46	10	61	0.1	61	61	377	0.4	376	378	10.6	79.5
2025-10-17T12:47	10	61	0.1	61	61	377	0.2	377	378	10.5	79.6
2025-10-17T12:48	10	60	0.3	60	61	377	0.2	376	377	10.6	79.1
2025-10-17T12:49	10	60	0.1	59	60	377	0.3	377	378	10.6	78.5
2025-10-17T12:50	10	59	0.4	58	59	378	0.3	377	379	10.7	78.5
2025-10-17T12:51	10	58	0.1	58	58	379	0.3	378	380	10.8	78.4
2025-10-17T12:52	10	58	0.1	58	58	379	0.2	378	379	10.8	78.4
2025-10-17T12:53	10	57	0.3	57	58	377	0.5	377	379	10.7	78.2
2025-10-17T12:54	10	56	0.5	55	57	378	0.3	377	378	10.6	78.3
2025-10-17T12:55	10	54	0.5	53	55	377	0.6	376	378	10.6	78.2
2025-10-17T12:56	10	53	0.4	52	53	375	0.4	375	376	10.5	77.5
2025-10-17T12:57	10	52	0.2	51	52	377	0.6	376	378	10.6	78.3
2025-10-17T12:58	10	51	0.1	51	51	378	0.4	377	378	10.8	79.1
2025-10-17T12:59	10	51	0.1	51	51	378	0.3	377	378	10.8	78.6
2025-10-17T13:00	10	50	0.1	50	51	377	0.3	376	377	10.7	78.4
2025-10-17T13:01	10	50	0.1	50	50	376	0.2	376	377	10.7	78.4
2025-10-17T13:02	10	50	0.1	50	50	377	0.3	376	377	10.8	79.1
2025-10-17T13:03	10	50	0.1	50	50	377	0.4	375	377	10.9	79.1
2025-10-17T13:04	10	50	0.1	50	50	376	0.3	376	377	10.9	78.2
2025-10-17T13:05	10	50	0.1	50	51	376	0.4	375	376	10.8	78.7
2025-10-17T13:06	10	51	0.2	50	51	376	0.3	376	377	10.8	78.4
2025-10-17T13:07	10	51	0.2	51	52	376	0.2	376	377	10.7	78.3
2025-10-17T13:08	10	52	0.1	51	52	377	0.3	376	378	10.7	79.1
2025-10-17T13:09	10	52	0.1	52	52	377	0.3	376	378	10.8	78.4
2025-10-17T13:10	10	52	0.1	52	52	377	0.4	376	378	11.0	79.1
2025-10-17T13:11	10	52	0.2	52	53	378	0.2	377	378	10.9	77.4
2025-10-17T13:12	10	53	0.2	53	54	378	0.2	377	378	10.9	77.6
2025-10-17T13:13	10	54	0.2	53	54	378	0.3	377	378	11.0	78.3
2025-10-17T13:14	10	54	0.1	54	54	378	0.2	377	378	10.9	77.7
2025-10-17T13:15	10	54	0.2	53	54	378	0.2	377	378	10.8	78.2
2025-10-17T13:16	10	53	0.2	52	53	378	0.3	377	379	10.9	78.3
2025-10-17T13:17	10	52	0.3	52	53	377	0.4	376	378	11.0	76.8
2025-10-17T13:18	10	52	0.1	52	52	377	0.4	376	377	11.0	76.5
2025-10-17T13:19	10	52	0.2	52	53	377	0.5	376	378	10.9	74.8
2025-10-17T13:20	10	53	0.2	52	53	377	0.3	376	378	11.0	76.1
2025-10-17T13:21	10	53	0.3	53	54	377	0.3	377	378	11.0	76.9
2025-10-17T13:22	10	54	0.2	53	54	377	0.2	377	378	11.0	76.3
2025-10-17T13:23	10	54	0.2	54	54	377	0.3	377	378	10.9	76.3
2025-10-17T13:24	10	55	0.2	54	55	378	0.4	377	379	10.9	76.7
2025-10-17T13:25	10	55	0.3	55	56	379	0.3	378	380	11.0	76.9
2025-10-17T13:26	10	56	0.1	56	56	380	0.5	379	381	11.1	76.6
2025-10-17T13:27	10	56	0.2	55	56	380	0.2	380	381	11.2	76.2
2025-10-17T13:28	10	54	0.5	53	55	380	0.3	380	381	11.3	76.3
2025-10-17T13:29	10	53	0.4	52	53	380	0.4	379	381	11.2	76.1
2025-10-17T13:30	10	51	1.1	50	53	378	0.9	377	380	11.1	76.0
2025-10-17T13:31	10	49	0.4	48	50	377	0.3	376	378	10.9	76.1
2025-10-17T13:32	10	48	0.2	48	49	377	0.3	377	378	11.1	77.1
2025-10-17T13:33	10	48	0.1	48	48	378	0.3	377	379	11.2	76.9
2025-10-17T13:34	10	48	0.2	48	49	378	0.3	378	379	11.2	76.3
2025-10-17T13:35	10	49	0.2	48	49	379	0.3	378	379	11.1	76.6
2025-10-17T13:36	10	49	0.1	49	49	379	0.3	378	379	11.2	76.6
2025-10-17T13:37	10	49	0.2	48	49	379	0.3	378	379	11.2	76.6
2025-10-17T13:38	10	48	0.3	48	49	379	0.4	378	379	11.3	76.3
2025-10-17T13:39	10	47	0.4	46	48	379	0.3	378	379	11.3	76.4
2025-10-17T13:40	10	46	0.3	45	46	378	0.9	376	379	11.2	75.9
2025-10-17T13:41	10	45	0.2	44	45	376	0.2	376	377	11.0	75.8
2025-10-17T13:42	10	44	0.2	44	45	376	0.2	376	377	11.0	76.2
2025-10-17T13:43	10	43	0.2	43	44	376	0.2	376	377	11.0	76.1
2025-10-17T13:44	10	42	0.4	42	43	375	0.2	375	376	11.1	76.0
2025-10-17T13:45	10	41	0.4	41	42	375	0.3	375	376	11.1	76.0
2025-10-17T13:46	10	40	0.2	40	41	376	0.4	375	377	11.2	76.2
2025-10-17T13:47	10	40	0.1	40	40	376	0.5	375	377	11.2	75.8
2025-10-17T13:48	10	40	0.1	40	40	374	0.3	374	375	11.0	74.7
2025-10-17T13:49	10	40	0.1	40	41	375	0.4	373	375	11.0	75.6
2025-10-17T13:50	10	41	0.1	41	41	375	0.2	374	375	11.0	75.4
2025-10-17T13:51	10	41	0.1	40	41	375	0.2	374	375	11.1	75.6
2025-10-17T13:52	10	40	0.2	40	40	375	0.3	375	376	11.2	75.9
2025-10-17T13:53	10	39	0.2	39	40	375	0.2	375	376	11.2	76.3
2025-10-17T13:54	10	39	0.2	38	39	375	0.3	374	376	11.1	76.2
2025-10-17T13:55	10	39	0.1	38	39	375	0.2	374	375	11.1	76.8
2025-10-17T13:56	10	39	0.1	39	39	374	0.3	374	375	11.1	76.8
2025-10-17T13:57	10	39	0.3	39	40	376	0.4	375	376	11.2	76.8
2025-10-17T13:58	10	40	0.2	40	40	375	0.6	374	376	11.2	75.9
2025-10-17T13:59	10	41	0.1	40	41	375	0.3	374	375	11.0	76.0
2025-10-17T14:00	10	41	0.2	41	41	375	0.3	374	376	11.2	76.9
2025-10-17T14:01	10	42	0.3	41	42	376	0.2	375	376	11.3	76.8
2025-10-17T14:02	10	43	0.3	42	43	376	0.2	376	377	11.3	76.2
2025-10-17T14:03	10	44	0.4	43	45	377	0.2	377	378	11.3	76.1
2025-10-17T14:04	10	45	0.4	45	46	377	0.2	377	377	11.3	76.3
2025-10-17T14:05	10	49	4.1	46	60	377	0.2	377	378	11.2	76.4
2025-10-17T14:06	10	56	3.7	53	63	377	0.3	377	378	11.2	75.9
2025-10-17T14:07	10	52	1.0	50	53	377	0.3	376	377	11.1	75.8
2025-10-17T14:08	10	46	1.4	45	50	376	0.3	376	377	11.1	75.9
2025-10-17T14:09	10	45	0.1	45	45	376	0.3	375	377	11.2	76.0
2025-10-17T14:10	10	45	0.2	45	45	376	0.3	375	377	11.3	76.1
2025-10-17T14:11	10	46	0.2	45	46	377	0.3	376	377	11.3	76.1
2025-10-17T14:12	10	46	0.1	46	47	375	0.6	374	376	11.1	75.8
2025-10-17T14:13	10	47	0.1	46	47	375	0.3	374	375	11.0	76.3
2025-10-17T14:14	10	47	0.2	47	48	376	0.6	375	377	11.1	76.6
2025-10-17T14:15	10	47	0.2	46	47	376	0.5	375	377	11.1	75.7
2025-10-17T14:16	10	46	0.1	46	47	375	0.3	374	376	11.1	75.9
2025-10-17T14:17	10	46	0.1	46	46	376	0.3	375	376	11.3	77.0
2025-10-17T14:18	10	46	0.1	46	46	377	0.4	376	377	11.4	76.7
2025-10-17T14:19	10	46	0.1	46	46	378	0.3	377	378	11.5	76.6
2025-10-17T14:20	10	46	0.1	46	46	377	0.3	377	378	11.5	75.6
2025-10-17T14:21	10	45	0.2	45	46	376	0.4	375	377	11.3	74.6
2025-10-17T14:22	10	44	0.3	44	45	375	0.5	374	376	11.2	75.0
2025-10-17T14:23	10	43	0.2	43	44	375	0.3	375	376	11.2	75.5
2025-10-17T14:24	10	43	0.1	43	43	375	0.4	374	376	11.2	75.1
2025-10-17T14:25	10	45	2.7	43	52	374	0.4	373	375	11.1	74.8
2025-10-17T14:26	10	53	3.0	49	57	374	0.2	373	374	11.0	74.4
2025-10-17T14:27	10	51	1.5	49	53	374	0.4	373	375	11.1	74.9
2025-10-17T14:28	10	45	2.1	42	50	374	0.3	373	375	11.1	75.3
2025-10-17T14:29	10	42	0.6	40	42	373	0.4	373	374	11.1	74.7
2025-10-17T14:30	10	39	0.8	37	40	374	0.4	373	375	11.1	74.8
2025-10-17T14:31	10	37	0.5	36	37	373	0.4	373	374	11.1	75.2
2025-10-17T14:32	10	35	0.4	35	36	373	0.2	372	373	11.1	75.6
2025-10-17T14:33	10	34	0.2	34	35	373	0.3	372	373	11.2	75.4
2025-10-17T14:34	10	34	0.1	34	34	372	0.2	372	372	11.1	74.9
2025-10-17T14:35	10	34	0.1	34	34	372	0.3	371	372	11.1	75.1
2025-10-17T14:36	10	34	0.1	34	34	372	0.2	371	372	11.1	75.0
2025-10-17T14:37	10	33	0.2	33	34	372	0.3	371	372	11.1	75.1
2025-10-17T14:38	10	33	0.2	32	33	372	0.4	371	373	11.2	75.4
2025-10-17T14:39	10	32	0.2	32	32	372	0.3	371	372	11.2	74.2
2025-10-17T14:40	10	32	0.2	31	32	372	0.2	372	373	11.2	74.2
2025-10-17T14:41	10	31	0.3	30	31	372	0.3	372	373	11.2	74.5
2025-10-17T14:42	10	30	0.3	29	30	372	0.4	371	372	11.3	75.1
2025-10-17T14:43	10	29	0.2	29	29	371	0.2	371	371	11.3	74.2
2025-10-17T14:44	10	28	0.2	28	29	371	0.3	370	372	11.2	73.9
2025-10-17T14:45	10	28	0.2	28	28	371	0.1	370	371	11.1	74.3
2025-10-17T14:46	10	28	0.1	28	28	371	0.3	370	371	11.2	74.4
2025-10-17T14:47	10	28	0.1	27	28	371	0.3	371	372	11.2	74.9
2025-10-17T14:48	10	28	0.0	27	28	371	0.2	371	372	11.2	74.4
2025-10-17T14:49	10	28	0.1	28	28	371	0.2	371	372	11.2	74.3
2025-10-17T14:50	10	28	0.1	28	28	371	0.3	371	372	11.2	74.0
2025-10-17T14:51	10	28	0.1	28	28	370	0.3	370	371	11.2	73.5
2025-10-17T14:52	10	28	0.1	28	28	370	0.3	370	371	11.2	73.3
2025-10-17T14:53	10	28	0.1	28	28	371	0.2	370	371	11.2	73.9
2025-10-17T14:54	10	28	0.1	28	28	371	0.2	370	371	11.2	74.0
2025-10-17T14:55	10	28	0.1	28	28	371	0.2	370	371	11.2	73.9
2025-10-17T14:56	10	28	0.1	28	28	371	0.4	369	371	11.3	73.9
2025-10-17T14:57	10	28	0.1	28	28	370	0.2	370	370	11.3	72.4
2025-10-17T14:58	10	28	0.1	28	28	370	0.4	369	371	11.3	72.7
2025-10-17T14:59	10	29	0.1	28	29	371	0.4	370	372	11.3	73.7
2025-10-17T15:00	10	29	0.3	29	30	371	0.3	370	371	11.3	74.1
2025-10-17T15:01	10	32	1.1	30	33	371	0.4	371	372	11.3	73.8
2025-10-17T15:02	10	30	1.4	28	32	371	0.4	370	372	11.3	73.7
2025-10-17T15:03	10	27	0.3	27	28	370	0.3	370	371	11.3	73.8
2025-10-17T15:04	10	27	0.2	26	27	369	0.3	368	370	11.2	73.4
2025-10-17T15:05	10	26	0.2	25	26	369	0.3	368	369	11.2	74.0
2025-10-17T15:06	10	25	0.3	24	25	369	0.3	368	369	11.2	73.2
2025-10-17T15:07	10	24	0.2	24	24	368	0.3	367	369	11.2	73.1
2025-10-17T15:08	10	23	0.3	23	24	368	0.3	367	368	11.1	73.2
2025-10-17T15:09	10	22	0.3	22	23	368	0.2	368	369	11.2	73.9
2025-10-17T15:10	10	21	0.3	21	22	368	0.2	367	368	11.2	73.9
2025-10-17T15:11	10	20	0.3	20	21	368	0.2	367	368	11.1	73.6
2025-10-17T15:12	10	19	0.3	19	20	368	0.2	367	368	11.1	73.5
2025-10-17T15:13	10	19	0.2	18	19	367	0.2	367	368	11.2	73.5
2025-10-17T15:14	10	18	0.1	18	18	368	0.2	367	368	11.2	74.3
2025-10-17T15:15	10	18	0.1	18	18	368	0.2	367	368	11.2	74.4
2025-10-17T15:16	10	18	0.0	18	18	368	0.3	367	368	11.2	74.2
2025-10-17T15:17	10	18	0.1	18	18	368	0.3	367	368	11.2	73.7
2025-10-17T15:18	10	18	0.1	18	18	367	0.3	367	368	11.1	73.0
2025-10-17T15:19	10	18	0.1	18	18	367	0.3	366	368	11.2	73.3
2025-10-17T15:20	10	18	0.1	17	18	367	0.3	366	367	11.1	72.9
2025-10-17T15:21	10	17	0.1	17	18	367	0.3	366	367	11.2	71.2
2025-10-17T15:22	10	17	0.1	17	17	366	0.2	365	366	11.2	71.3
2025-10-17T15:23	10	17	0.1	17	17	365	0.2	365	366	11.2	68.6
2025-10-17T15:24	10	17	0.1	16	17	365	0.2	365	366	11.2	68.6
2025-10-17T15:25	10	16	0.1	16	17	365	0.3	364	366	11.2	67.7
2025-10-17T15:26	10	16	0.1	16	16	364	0.3	364	365	11.2	67.6
2025-10-17T15:27	10	15	0.1	15	16	364	0.2	364	365	11.2	68.1
2025-10-17T15:28	10	15	0.1	15	15	364	0.2	364	365	11.1	68.1
2025-10-17T15:29	10	15	0.1	15	15	364	0.2	364	365	11.1	67.9
2025-10-17T15:30	10	15	0.1	15	15	364	0.2	364	365	11.1	68.1
2025-10-17T15:31	10	15	0.1	15	15	364	0.2	364	365	11.1	69.0
2025-10-17T15:32	10	15	0.1	15	15	364	0.2	364	364	11.1	68.4
2025-10-17T15:33	10	15	0.0	15	15	364	0.2	364	365	11.1	68.3
2025-10-17T15:34	10	15	0.1	15	15	364	0.2	364	365	11.0	69.5
2025-10-17T15:35	10	15	0.2	14	15	364	0.2	364	364	11.1	68.8
2025-10-17T15:36	10	14	0.1	14	14	364	0.2	364	364	11.0	69.1
2025-10-17T15:37	10	14	0.1	13	14	364	0.2	363	364	11.0	69.4
2025-10-17T15:38	10	13	0.1	13	14	364	0.3	363	364	11.0	70.1
2025-10-17T15:39	10	13	0.1	13	13	363	0.2	363	363	10.9	69.5
2025-10-17T15:40	10	13	0.1	13	13	363	0.3	362	364	11.0	69.3
2025-10-17T15:41	10	13	0.1	13	13	363	0.2	362	364	10.9	70.1
2025-10-17T15:42	10	12	0.1	12	13	363	0.2	362	364	10.9	70.5
2025-10-17T15:43	10	12	0.2	12	12	363	0.2	362	363	10.9	69.5
2025-10-17T15:44	10	12	0.1	11	12	362	0.2	362	362	10.9	70.2
2025-10-17T15:45	10	11	0.1	11	12	362	0.2	362	363	10.9	70.6
2025-10-17T15:46	10	11	0.1	11	11	362	0.2	362	363	10.9	70.2
2025-10-17T15:47	10	11	0.1	11	11	362	0.3	361	363	10.9	70.3
2025-10-17T15:48	10	11	0.1	11	11	362	0.3	361	363	10.9	70.9
2025-10-17T15:49	10	11	0.1	11	11	362	0.2	362	363	10.9	71.6
2025-10-17T15:50	10	11	0.1	11	11	362	0.2	362	363	10.9	71.8
2025-10-17T15:51	10	11	0.1	11	11	362	0.2	362	363	10.8	72.2
2025-10-17T15:52	10	11	0.1	10	11	362	0.3	362	363	10.8	71.9
2025-10-17T15:53	10	10	0.1	10	11	362	0.2	362	363	10.8	72.3
2025-10-17T15:54	10	10	0.1	10	10	362	0.2	362	363	10.8	72.3
2025-10-17T15:55	10	10	0.1	10	10	362	0.2	362	363	10.8	72.1
2025-10-17T15:56	10	10	0.1	10	10	362	0.2	362	362	10.8	72.3
2025-10-17T15:57	10	9	0.1	9	10	362	0.2	361	362	10.8	71.6
2025-10-17T15:58	10	9	0.1	9	10	361	0.2	361	362	10.8	71.1
2025-10-17T15:59	10	9	0.1	9	9	361	0.2	361	362	10.8	71.6
2025-10-17T16:00	10	9	0.1	9	9	361	0.3	361	362	10.8	71.9
2025-10-17T16:01	10	9	0.1	9	9	361	0.2	361	362	10.8	72.7
2025-10-17T16:02	10	8	0.1	8	9	361	0.2	361	362	10.7	72.8
2025-10-17T16:03	10	8	0.1	8	8	361	0.2	361	362	10.7	73.0
2025-10-17T16:04	10	8	0.1	8	8	361	0.2	361	362	10.7	73.1
2025-10-17T16:05	10	8	0.1	7	8	361	0.2	360	362	10.7	72.9
2025-10-17T16:06	10	8	0.2	7	8	361	0.2	360	361	10.7	73.3
2025-10-17T16:07	10	8	0.2	8	8	361	0.3	360	361	10.6	73.1
2025-10-17T16:08	10	7	0.2	7	8	361	0.3	360	361	10.6	73.4
2025-10-17T16:09	10	8	0.2	7	8	360	0.3	360	361	10.6	74.0
2025-10-17T16:10	10	9	0.3	8	9	361	0.3	360	361	10.6	74.1
2025-10-17T16:11	10	7	0.4	7	8	361	0.2	360	361	10.6	74.0
2025-10-17T16:12	10	7	0.2	7	7	360	0.3	360	361	10.6	74.1
2025-10-17T16:13	10	7	0.2	7	8	360	0.2	360	361	10.6	74.4
2025-10-17T16:14	10	7	0.2	7	7	360	0.3	359	360	10.6	74.7
2025-10-17T16:15	10	7	0.1	6	7	360	0.3	359	361	10.6	74.9
2025-10-17T16:16	10	7	0.3	6	8	360	0.3	359	361	10.6	75.2
2025-10-17T16:17	10	6	0.2	6	7	360	0.2	359	360	10.5	75.8
2025-10-17T16:18	10	6	0.2	6	7	360	0.3	359	361	10.5	76.1
2025-10-17T16:19	10	6	0.2	6	7	359	0.3	359	360	10.5	75.8
2025-10-17T16:20	10	7	0.3	7	8	359	0.3	359	360	10.5	75.6
2025-10-17T16:21	10	7	0.5	6	8	359	0.3	359	360	10.5	75.6
2025-10-17T16:22	10	5	0.2	5	6	359	0.2	359	360	10.5	75.8
2025-10-17T16:23	10	5	0.2	4	5	359	0.2	359	360	10.5	76.5
2025-10-17T16:24	10	4	0.2	4	5	359	0.3	359	360	10.4	76.6
2025-10-17T16:25	10	4	0.2	4	4	359	0.3	358	359	10.4	77.1
2025-10-17T16:26	10	4	0.2	3	4	359	0.2	358	359	10.4	77.2
2025-10-17T16:27	10	3	0.1	3	4	359	0.2	358	359	10.4	76.7
2025-10-17T16:28	10	3	0.1	3	3	358	0.2	358	359	10.4	76.8
2025-10-17T16:29	10	3	0.1	3	3	358	0.2	358	359	10.4	76.9
2025-10-17T16:30	10	3	0.1	2	3	358	0.2	358	359	10.4	76.6
2025-10-17T16:31	10	2	0.2	2	3	359	0.2	358	359	10.4	76.5
2025-10-17T16:32	10	2	0.2	2	2	358	0.3	358	359	10.4	76.3
2025-10-17T16:33	10	2	0.1	1	2	358	0.2	358	359	10.4	77.1
2025-10-17T16:34	10	1	0.1	1	2	358	0.2	357	358	10.3	77.8
2025-10-17T16:35	10	1	0.1	1	2	358	0.2	357	358	10.3	77.8
2025-10-17T16:36	10	1	0.1	1	1	358	0.3	357	359	10.3	77.3
2025-10-17T16:37	10	1	0.1	1	1	358	0.2	358	358	10.3	76.8
2025-10-17T16:38	10	1	0.1	1	1	358	0.2	357	358	10.3	76.6
2025-10-17T16:39	10	1	0.1	1	1	357	0.2	357	358	10.3	76.0
2025-10-17T16:40	10	1	0.1	1	1	357	0.3	357	358	10.3	76.1
2025-10-17T16:41	10	1	0.1	0	1	357	0.2	356	357	10.3	76.0
2025-10-17T16:42	10	1	0.1	0	1	357	0.3	356	357	10.3	76.6
2025-10-17T16:43	10	1	0.1	1	1	356	0.2	356	357	10.3	77.1
2025-10-17T16:44	10	1	0.1	0	1	356	0.3	355	356	10.2	76.9
2025-10-17T16:45	10	1	0.1	0	1	356	0.3	356	357	10.2	76.0
2025-10-17T16:46	10	1	0.1	0	1	356	0.2	356	357	10.3	75.7
2025-10-17T16:47	10	1	0.1	0	1	356	0.3	355	357	10.2	75.8
2025-10-17T16:48	10	1	0.1	0	1	356	0.2	355	357	10.2	75.8
2025-10-17T16:49	10	1	0.1	0	1	356	0.3	355	357	10.3	75.2
2025-10-17T16:50	10	0	0.1	0	1	356	0.2	356	357	10.2	75.5
2025-10-17T16:51	10	1	0.0	0	1	356	0.3	356	357	10.3	74.3
2025-10-17T16:52	10	0	0.1	0	1	357	0.2	356	357	10.3	73.8
2025-10-17T16:53	10	0	0.1	0	1	356	0.2	356	357	10.3	74.2
2025-10-17T16:54	10	0	0.1	0	1	356	0.2	356	357	10.3	74.5
2025-10-17T16:55	10	0	0.1	0	1	356	0.2	356	357	10.3	74.2
2025-10-17T16:56	10	0	0.1	0	1	356	0.3	355	357	10.3	74.6
2025-10-17T16:57	10	0	0.1	0	1	356	0.2	355	356	10.2	74.9
2025-10-17T16:58	10	0	0.1	0	1	356	0.3	355	356	10.3	74.2
2025-10-17T16:59	10	0	0.1	0	1	356	0.2	355	356	10.3	74.4
2025-10-17T17:00	10	0	0.1	0	1	356	0.2	355	356	10.2	74.8
2025-10-17T17:01	10	0	0.1	0	0	356	0.3	355	357	10.2	75.0
2025-10-17T17:02	10	0	0.1	0	1	356	0.2	356	357	10.2	74.7
2025-10-17T17:03	10	0	0.1	0	0	357	0.3	356	357	10.3	74.0
2025-10-17T17:04	10	0	0.1	0	0	356	0.2	356	357	10.2	74.4
2025-10-17T17:05	10	0	0.1	0	0	356	0.2	356	357	10.3	74.2
2025-10-17T17:06	10	0	0.1	0	1	356	0.2	356	357	10.2	74.2
2025-10-17T17:07	10	0	0.1	0	0	356	0.3	356	357	10.2	74.1
2025-10-17T17:08	10	0	0.1	0	0	356	0.2	356	357	10.2	74.5
2025-10-17T17:09	10	0	0.1	0	0	356	0.3	355	357	10.2	74.7
2025-10-17T17:10	10	0	0.1	0	0	356	0.2	356	357	10.2	74.4
2025-10-17T17:11	10	0	0.1	0	0	356	0.2	356	357	10.2	74.5
2025-10-17T17:12	10	0	0.1	0	0	356	0.2	356	357	10.2	74.4
2025-10-17T17:13	10	0	0.1	0	0	356	0.2	356	356	10.2	74.7
2025-10-17T17:14	10	0	0.1	0	0	356	0.2	356	357	10.2	74.5
2025-10-17T17:15	10	0	0.1	0	0	356	0.2	356	357	10.2	75.0
2025-10-17T17:16	10	0	0.0	0	0	356	0.2	356	357	10.1	75.4
2025-10-17T17:17	10	0	0.1	0	0	356	0.2	356	356	10.2	74.7
2025-10-17T17:18	10	0	0.1	0	0	356	0.2	356	357	10.2	74.8
2025-10-17T17:19	10	0	0.1	0	0	356	0.2	356	357	10.2	74.8
2025-10-17T17:20	10	0	0.1	0	0	356	0.3	355	356	10.1	75.5
2025-10-17T17:21	10	0	0.1	0	0	356	0.2	355	356	10.1	75.5
2025-10-17T17:22	10	0	0.0	0	0	355	0.2	355	356	10.1	75.4
2025-10-17T17:23	10	0	0.1	0	0	355	0.2	355	356	10.1	75.4
2025-10-17T17:24	10	0	0.1	0	1	355	0.2	355	356	10.1	75.5
2025-10-17T17:25	10	0	0.1	0	0	355	0.2	355	356	10.1	75.7
2025-10-17T17:26	10	0	0.1	0	0	355	0.2	355	356	10.1	76.1
2025-10-17T17:27	10	0	0.1	0	0	355	0.2	355	356	10.1	76.3
2025-10-17T17:28	10	0	0.1	0	0	355	0.2	355	356	10.1	75.8
2025-10-17T17:29	10	0	0.0	0	1	355	0.2	355	356	10.1	76.3
2025-10-17T17:30	10	0	0.1	0	0	355	0.2	355	356	10.1	76.3
2025-10-17T17:31	10	0	0.1	0	0	356	0.3	355	356	10.1	76.0
2025-10-17T17:32	10	0	0.1	0	0	355	0.2	355	355	10.1	76.2
2025-10-17T17:33	10	0	0.1	0	1	355	0.2	355	355	10.1	76.7
2025-10-17T17:34	10	0	0.1	0	1	355	0.2	354	355	10.1	76.5
2025-10-17T17:35	10	0	0.1	0	0	354	0.2	354	355	10.1	76.5
2025-10-17T17:36	10	0	0.1	0	1	354	0.2	354	355	10.1	76.6
2025-10-17T17:37	10	0	0.1	0	1	354	0.2	354	355	10.1	76.4
2025-10-17T17:38	10	0	0.1	0	1	354	0.2	353	354	10.0	76.7
2025-10-17T17:39	10	0	0.1	0	1	354	0.2	353	354	10.0	76.6
2025-10-17T17:40	10	0	0.1	0	0	354	0.3	353	354	10.0	77.0
2025-10-17T17:41	10	0	0.1	0	1	353	0.2	353	354	9.9	77.5
2025-10-17T17:42	10	0	0.1	0	1	353	0.2	353	354	10.0	77.1
2025-10-17T17:43	10	0	0.1	0	0	353	0.2	352	353	9.9	77.7
2025-10-17T17:44	10	0	0.1	0	0	352	0.2	352	353	9.9	77.9
2025-10-17T17:45	10	0	0.1	0	0	352	0.2	352	353	9.9	78.1
2025-10-17T17:46	10	0	0.1	0	0	352	0.2	351	352	9.9	78.6
2025-10-17T17:47	10	0	0.1	0	0	352	0.2	351	352	9.9	78.4
2025-10-17T17:48	10	0	0.1	0	0	352	0.2	352	353	9.9	78.1
2025-10-17T17:49	10	0	0.1	0	0	352	0.2	352	353	9.8	78.8
2025-10-17T17:50	10	0	0.1	0	0	351	0.3	351	352	9.8	78.8
2025-10-17T17:51	10	0	0.1	0	0	351	0.3	350	351	9.8	79.1
2025-10-17T17:52	10	0	0.1	0	0	351	0.2	350	351	9.8	79.1
2025-10-17T17:53	10	0	0.1	0	0	351	0.3	350	351	9.8	78.2
2025-10-17T17:54	10	0	0.1	0	0	351	0.2	351	352	9.9	78.0
2025-10-17T17:55	10	0	0.1	0	0	351	0.2	350	351	9.8	77.9
2025-10-17T17:56	10	0	0.1	0	0	351	0.2	350	351	9.9	77.8
2025-10-17T17:57	10	0	0.1	0	0	350	0.2	350	351	9.8	78.3
2025-10-17T17:58	10	0	0.1	0	0	350	0.3	349	351	9.8	77.8
2025-10-17T17:59	10	0	0.1	0	0	350	0.2	349	351	9.8	77.9
2025-10-17T18:00	10	0	0.1	0	0	350	0.3	350	351	9.8	78.0
2025-10-17T18:01	10	0	0.1	0	0	351	0.2	350	351	9.8	77.9
2025-10-17T18:02	10	0	0.1	0	0	351	0.3	350	351	9.8	78.1
2025-10-17T18:03	10	0	0.1	0	0	351	0.3	350	351	9.8	77.8
2025-10-17T18:04	10	0	0.1	0	0	351	0.2	350	351	9.8	78.0
2025-10-17T18:05	10	0	0.1	0	0	351	0.2	350	351	9.8	78.2
2025-10-17T18:06	10	0	0.1	0	0	350	0.2	350	351	9.8	77.9
2025-10-17T18:07	10	0	0.1	0	0	350	0.3	349	350	9.8	78.3
2025-10-17T18:08	10	0	0.1	0	0	349	0.4	349	350	9.8	78.4
2025-10-17T18:09	10	0	0.1	0	0	349	0.2	348	349	9.8	78.1
2025-10-17T18:10	10	0	0.1	0	0	348	0.3	348	349	9.8	78.1
2025-10-17T18:11	10	0	0.1	0	0	348	0.4	347	349	9.7	78.6
2025-10-17T18:12	10	0	0.1	0	0	347	0.2	347	348	9.7	78.8
2025-10-17T18:13	10	0	0.1	0	0	347	0.2	347	348	9.7	78.6
2025-10-17T18:14	10	0	0.1	0	0	347	0.2	347	348	9.7	78.6
2025-10-17T18:15	10	0	0.1	0	0	347	0.2	347	348	9.7	78.3
2025-10-17T18:16	10	0	0.1	0	0	347	0.2	347	348	9.7	78.5
2025-10-17T18:17	10	0	0.1	0	0	347	0.2	347	348	9.6	78.5
2025-10-17T18:18	10	0	0.1	0	0	348	0.2	347	348	9.6	78.8
2025-10-17T18:19	10	0	0.1	0	0	348	0.3	347	349	9.6	78.9
2025-10-17T18:20	10	0	0.1	0	0	348	0.2	348	349	9.7	78.3
2025-10-17T18:21	10	0	0.1	0	0	349	0.2	348	349	9.6	78.6
2025-10-17T18:22	10	0	0.1	0	0	349	0.3	348	350	9.6	78.6
2025-10-17T18:23	10	0	0.1	0	0	349	0.2	349	350	9.7	78.3
2025-10-17T18:24	10	0	0.1	0	0	350	0.2	349	350	9.7	78.4
2025-10-17T18:25	10	0	0.1	0	0	349	0.2	349	350	9.7	78.3
2025-10-17T18:26	10	0	0.1	0	0	349	0.2	349	350	9.6	78.8
2025-10-17T18:27	10	0	0.1	0	0	349	0.2	348	349	9.6	79.1
2025-10-17T18:28	10	0	0.1	0	0	348	0.3	348	349	9.6	79.2
2025-10-17T18:29	10	0	0.1	0	0	348	0.2	348	349	9.6	79.1
2025-10-17T18:30	10	0	0.1	0	0	348	0.3	347	349	9.6	79.4
2025-10-17T18:31	10	0	0.1	0	0	348	0.2	348	349	9.5	79.6
2025-10-17T18:32	10	0	0.1	0	0	348	0.2	348	349	9.5	79.7
2025-10-17T18:33	10	0	0.1	0	0	348	0.2	348	349	9.5	79.9
2025-10-17T18:34	10	0	0.1	0	0	348	0.2	347	349	9.5	80.1
2025-10-17T18:35	10	0	0.1	0	0	348	0.2	348	349	9.5	80.2
2025-10-17T18:36	10	0	0.1	0	0	348	0.3	347	348	9.4	80.2
2025-10-17T18:37	10	0	0.1	0	0	347	0.2	347	348	9.4	80.4
2025-10-17T18:38	10	0	0.1	0	0	347	0.2	347	348	9.4	80.6
2025-10-17T18:39	10	0	0.1	0	0	347	0.2	346	347	9.4	80.7
2025-10-17T18:40	10	0	0.1	0	0	347	0.4	346	347	9.4	80.8
2025-10-17T18:41	10	0	0.1	0	0	346	0.3	346	347	9.3	81.1
2025-10-17T18:42	10	0	0.1	0	0	346	0.2	345	346	9.3	81.3
2025-10-17T18:43	10	0	0.1	0	0	346	0.2	345	346	9.2	81.7
2025-10-17T18:44	10	0	0.1	0	0	345	0.2	345	346	9.2	82.0
2025-10-17T18:45	10	0	0.1	0	0	345	0.2	345	346	9.2	82.0
2025-10-17T18:46	10	0	0.1	0	0	346	0.2	345	346	9.2	82.1
2025-10-17T18:47	10	0	0.1	0	0	345	0.3	345	346	9.1	82.4
2025-10-17T18:48	10	0	0.1	0	0	345	0.3	344	346	9.1	82.2
2025-10-17T18:49	10	0	0.1	0	0	345	0.2	344	345	9.1	82.2
2025-10-17T18:50	10	0	0.1	0	0	345	0.2	344	345	9.1	82.4
2025-10-17T18:51	10	0	0.1	0	0	344	0.2	344	345	9.1	82.6
2025-10-17T18:52	10	0	0.1	0	0	344	0.2	344	345	9.1	82.8
2025-10-17T18:53	10	0	0.1	0	0	344	0.3	344	345	9.1	82.9
2025-10-17T18:54	10	0	0.1	0	0	345	0.2	344	345	9.0	83.4
2025-10-17T18:55	10	0	0.1	0	0	345	0.2	344	345	8.9	83.6
2025-10-17T18:56	10	0	0.1	0	0	345	0.3	344	346	9.0	83.2
2025-10-17T18:57	10	0	0.1	0	0	345	0.2	344	345	9.0	83.1
2025-10-17T18:58	10	0	0.1	0	0	345	0.2	344	345	9.0	83.0
2025-10-17T18:59	10	0	0.1	0	0	345	0.2	344	345	9.0	83.3
2025-10-17T19:00	10	0	0.1	0	0	345	0.2	344	345	9.0	83.3
2025-10-17T19:01	10	0	0.1	0	0	344	0.2	344	345	8.9	83.6
2025-10-17T19:02	10	0	0.1	0	0	344	0.3	343	344	8.9	82.6
2025-10-17T19:03	10	0	0.1	0	0	343	0.3	343	344	8.9	83.6
2025-10-17T19:04	10	0	0.1	0	0	342	0.3	342	343	8.9	83.6
2025-10-17T19:05	10	0	0.1	0	0	342	0.3	341	342	8.9	83.6
2025-10-17T19:06	10	0	0.1	0	0	341	0.4	340	341	8.9	83.6
2025-10-17T19:07	10	0	0.1	0	0	340	0.4	339	341	8.9	83.6
2025-10-17T19:08	10	0	0.1	0	0	339	0.2	338	340	8.9	83.6
2025-10-17T19:09	10	0	0.0	0	0	338	0.3	338	339	8.8	83.1
2025-10-17T19:10	10	0	0.1	0	0	338	0.3	337	338	8.9	82.7
2025-10-17T19:11	10	0	0.1	0	0	337	0.2	336	337	8.9	83.0
2025-10-17T19:12	10	0	0.1	0	0	336	0.3	336	337	8.9	83.4
2025-10-17T19:13	10	0	0.1	0	0	336	0.2	335	336	8.9	83.2
2025-10-17T19:14	10	0	0.1	0	0	335	0.2	335	336	8.9	83.5
2025-10-17T19:15	10	0	0.1	0	0	335	0.3	334	336	8.8	84.0
2025-10-17T19:16	10	0	0.1	0	0	335	0.2	334	335	8.7	84.6
2025-10-17T19:17	10	0	0.1	0	0	335	0.2	334	335	8.7	84.6
2025-10-17T19:18	10	0	0.1	0	0	335	0.2	334	335	8.7	84.8
2025-10-17T19:19	10	0	0.1	0	0	335	0.2	334	335	8.8	84.4
2025-10-17T19:20	10	0	0.0	0	0	335	0.2	334	335	8.8	84.1
2025-10-17T19:21	10	0	0.1	0	0	334	0.2	334	335	8.9	83.4
2025-10-17T19:22	10	0	0.1	0	0	334	0.2	333	334	8.9	83.0
2025-10-17T19:23	10	0	0.1	0	0	334	0.2	333	334	8.9	83.2
2025-10-17T19:24	10	0	0.0	0	0	334	0.4	334	335	8.9	83.2
2025-10-17T19:25	10	0	0.1	0	0	335	0.3	334	336	8.9	82.9
2025-10-17T19:26	10	0	0.1	0	0	336	0.5	335	337	8.9	82.7
2025-10-17T19:27	10	0	0.1	0	0	337	0.3	336	337	8.9	82.8
2025-10-17T19:28	10	0	0.1	0	0	337	0.2	337	337	8.9	82.9
2025-10-17T19:29	10	0	0.1	0	0	337	0.3	337	338	8.9	83.0
2025-10-17T19:30	10	0	0.0	0	0	338	0.3	337	338	8.8	83.3
2025-10-17T19:31	10	0	0.1	0	0	339	0.3	338	340	8.8	83.4
2025-10-17T19:32	10	0	0.1	0	0	340	0.4	339	341	8.7	84.0
2025-10-17T19:33	10	0	0.1	0	0	341	0.3	340	341	8.7	84.2
2025-10-17T19:34	10	0	0.1	0	0	341	0.2	341	342	8.7	84.0
2025-10-17T19:35	10	0	0.1	0	0	341	0.2	341	342	8.6	84.7
2025-10-17T19:36	10	0	0.1	0	0	341	0.2	341	342	8.4	85.8
2025-10-17T19:37	10	0	0.1	0	0	341	0.3	340	342	8.3	86.6
2025-10-17T19:38	10	0	0.1	0	0	341	0.2	340	341	8.1	87.7
2025-10-17T19:39	10	0	0.1	0	0	341	0.3	340	342	8.0	88.9
2025-10-17T19:40	10	0	0.1	0	0	341	0.2	341	342	8.1	89.2
2025-10-17T19:41	10	0	0.4	0	2	341	0.2	341	342	8.2	88.6
2025-10-17T19:42	10	0	0.1	0	0	341	0.2	341	342	8.3	87.9
2025-10-17T19:43	10	0	0.1	0	0	342	0.2	341	342	8.2	88.3
2025-10-17T19:44	10	0	0.1	0	0	342	0.2	341	342	8.2	88.4
2025-10-17T19:45	10	0	0.1	0	0	342	0.3	342	343	8.1	89.2
2025-10-17T19:46	10	0	0.1	0	0	343	0.4	342	344	8.1	88.6
2025-10-17T19:47	10	0	0.1	0	0	344	0.3	343	344	8.3	88.1
2025-10-17T19:48	10	0	0.1	0	0	344	0.3	343	345	8.2	88.2
2025-10-17T19:49	10	0	0.1	0	0	344	0.3	343	345	8.0	89.2
2025-10-17T19:50	10	0	0.1	0	0	344	0.3	343	345	7.9	89.7
2025-10-17T19:51	10	0	0.1	0	0	345	0.4	344	346	8.0	89.5
2025-10-17T19:52	10	0	0.1	0	0	345	0.4	344	346	8.2	88.3
2025-10-17T19:53	10	0	0.1	0	0	345	0.4	345	346	8.4	87.1
2025-10-17T19:54	10	0	0.1	0	0	345	0.2	344	345	8.5	86.5
2025-10-17T19:55	10	0	0.2	0	0	345	0.3	344	346	8.4	87.0
2025-10-17T19:56	10	0	0.2	0	0	345	0.2	345	346	8.4	86.9
2025-10-17T19:57	10	0	0.1	0	0	345	0.3	344	346	8.4	87.0
2025-10-17T19:58	10	0	0.1	0	0	345	0.3	344	345	8.3	87.6
2025-10-17T19:59	10	0	0.2	0	1	344	0.3	344	345	8.3	87.7
2025-10-17T20:00	10	0	0.1	0	0	344	0.3	343	344	8.4	87.0
2025-10-17T20:01	10	0	0.1	0	0	343	0.4	342	344	8.4	86.5
2025-10-17T20:02	10	0	0.2	0	0	342	0.5	341	343	8.5	86.0
2025-10-17T20:03	10	0	0.1	0	0	341	0.4	340	341	8.5	85.9
2025-10-17T20:04	10	0	0.1	0	0	339	0.5	338	340	8.5	86.2
2025-10-17T20:05	10	0	0.2	0	0	338	0.3	337	339	8.3	87.2
2025-10-17T20:06	10	0	0.2	0	1	338	0.5	337	339	8.3	87.6
2025-10-17T20:07	10	0	0.2	0	0	336	0.5	335	337	8.2	88.0
2025-10-17T20:08	10	0	0.2	0	0	335	0.4	334	335	8.2	88.3
2025-10-17T20:09	10	0	0.2	0	1	334	0.2	333	334	8.1	88.4
2025-10-17T20:10	10	0	0.1	0	0	333	0.3	333	334	8.2	88.2
2025-10-17T20:11	10	0	0.1	0	0	333	0.2	333	333	8.2	88.2
2025-10-17T20:12	10	0	0.1	0	0	333	0.2	333	334	8.3	88.0
2025-10-17T20:13	10	0	0.1	0	0	333	0.2	332	333	8.3	88.0
2025-10-17T20:14	10	0	0.1	0	0	332	0.2	332	333	8.4	86.6
2025-10-17T20:15	10	0	0.1	0	0	332	0.3	331	332	8.5	85.9
2025-10-17T20:16	10	0	0.1	0	0	331	0.2	331	332	8.5	85.7
2025-10-17T20:17	10	0	0.1	0	0	331	0.3	330	331	8.5	85.8
2025-10-17T20:18	10	0	0.1	0	0	330	0.3	330	331	8.5	85.8
2025-10-17T20:19	10	0	0.1	0	0	330	0.3	329	330	8.5	85.9
2025-10-17T20:20	10	0	0.0	0	0	329	0.3	329	330	8.4	86.1
2025-10-17T20:21	10	0	0.1	0	0	328	0.4	328	329	8.3	86.7
2025-10-17T20:22	10	0	0.1	0	0	328	0.3	327	328	8.1	87.8
2025-10-17T20:23	10	0	0.0	0	0	328	0.2	328	329	8.0	88.4
2025-10-17T20:24	10	0	0.6	0	4	328	0.2	328	329	7.9	89.0
2025-10-17T20:25	10	0	0.1	0	0	328	0.2	327	328	7.9	89.3
2025-10-17T20:26	10	0	0.1	0	0	327	0.2	327	328	7.9	89.6
2025-10-17T20:27	10	0	0.1	0	0	327	0.3	326	328	7.8	90.0
2025-10-17T20:28	10	0	0.1	0	0	326	0.2	326	327	7.7	90.6
2025-10-17T20:29	10	0	0.1	0	0	326	0.2	326	327	7.5	91.2
2025-10-17T20:30	10	0	0.1	0	0	327	0.3	326	327	7.5	91.6
2025-10-17T20:31	10	0	0.1	0	0	327	0.3	326	328	7.5	91.8
2025-10-17T20:32	10	0	0.1	0	0	327	0.2	326	327	7.5	91.8
2025-10-17T20:33	10	0	0.0	0	0	327	0.3	326	327	7.4	92.4
2025-10-17T20:34	10	0	0.0	0	0	327	0.2	326	327	7.4	92.8
2025-10-17T20:35	10	0	0.1	0	0	327	0.3	326	327	7.4	92.9
2025-10-17T20:36	10	0	0.1	0	0	326	0.2	326	327	7.4	93.0
2025-10-17T20:37	10	0	0.1	0	0	326	0.2	326	327	7.3	93.7
2025-10-17T20:38	10	0	0.1	0	0	326	0.2	325	327	7.3	94.0
2025-10-17T20:39	10	0	0.1	0	0	326	0.2	325	326	7.2	94.3
2025-10-17T20:40	10	0	0.1	0	0	326	0.2	325	326	7.2	94.4
2025-10-17T20:41	10	0	0.1	0	0	326	0.2	325	326	7.2	94.6
2025-10-17T20:42	10	0	0.1	0	0	325	0.3	324	326	7.1	94.8
2025-10-17T20:43	10	0	0.1	0	0	325	0.3	325	326	7.1	95.0
2025-10-17T20:44	10	0	0.1	0	0	325	0.3	325	326	7.0	95.2
2025-10-17T20:45	10	0	0.1	0	0	325	0.3	325	326	7.0	95.3
2025-10-17T20:46	10	0	0.1	0	0	325	0.2	325	326	7.0	95.4
2025-10-17T20:47	10	0	0.1	0	0	325	0.2	325	326	7.0	95.3
2025-10-17T20:48	10	0	0.1	0	0	325	0.2	325	326	7.0	95.6
2025-10-17T20:49	10	0	0.1	0	0	325	0.3	325	326	6.9	95.9
2025-10-17T20:50	10	0	0.1	0	0	325	0.2	325	325	6.9	95.7
2025-10-17T20:51	10	0	0.1	0	0	325	0.2	324	325	7.0	95.4
2025-10-17T20:52	10	0	0.1	0	0	324	0.2	324	325	7.0	95.4
2025-10-17T20:53	10	0	0.1	0	0	324	0.2	324	325	6.9	95.8
2025-10-17T20:54	10	0	0.1	0	0	324	0.2	324	325	6.9	96.0
2025-10-17T20:55	10	0	0.1	0	0	324	0.2	324	325	6.9	95.8
2025-10-17T20:56	10	0	0.1	0	0	324	0.3	323	325	6.9	95.9
2025-10-17T20:57	10	0	0.1	0	0	324	0.3	323	325	6.9	95.7
2025-10-17T20:58	10	0	0.1	0	0	324	0.2	324	325	7.0	95.5
2025-10-17T20:59	10	0	0.1	0	0	324	0.3	324	325	7.1	95.0
2025-10-17T21:00	10	0	0.1	0	0	325	0.3	324	325	7.2	94.4
2025-10-17T21:01	10	0	0.1	0	0	325	0.3	324	325	7.3	94.0
2025-10-17T21:02	10	0	0.1	0	0	324	0.3	324	325	7.2	94.3
2025-10-17T21:03	10	0	0.1	0	0	324	0.3	323	324	7.2	94.6
2025-10-17T21:04	10	0	0.1	0	0	323	0.3	323	324	7.1	94.9
2025-10-17T21:05	10	0	0.1	0	0	324	0.3	323	324	7.0	94.9
2025-10-17T21:06	10	0	0.1	0	0	324	0.2	323	324	7.1	94.6
2025-10-17T21:07	10	0	0.1	0	0	323	0.3	323	324	7.1	94.2
2025-10-17T21:08	10	0	0.1	0	0	323	0.3	323	324	7.1	93.9
2025-10-17T21:09	10	0	0.1	0	0	323	0.2	323	324	7.0	94.3
2025-10-17T21:10	10	0	0.1	0	0	323	0.2	323	324	7.0	94.5
2025-10-17T21:11	10	0	0.1	0	0	323	0.2	323	324	6.9	95.1
2025-10-17T21:12	10	0	0.1	0	0	323	0.2	323	324	6.8	95.4
2025-10-17T21:13	10	0	0.1	0	0	323	0.2	323	324	6.8	95.4
2025-10-17T21:14	10	0	0.1	0	0	323	0.3	323	324	6.8	95.7
2025-10-17T21:15	10	0	0.1	0	0	324	0.2	323	324	6.7	96.1
2025-10-17T21:16	10	0	0.1	0	0	324	0.2	323	325	6.6	96.2
2025-10-17T21:17	10	0	0.1	0	0	324	0.2	323	325	6.6	96.3
2025-10-17T21:18	10	0	0.1	0	0	324	0.3	323	325	6.7	96.3
2025-10-17T21:19	10	0	0.1	0	0	324	0.3	323	325	6.7	96.3
2025-10-17T21:20	10	0	0.1	0	0	324	0.2	324	324	6.8	96.2
2025-10-17T21:21	10	0	0.1	0	0	324	0.2	323	324	6.8	96.1
2025-10-17T21:22	10	0	0.1	0	0	323	0.2	323	324	6.7	96.3
2025-10-17T21:23	10	0	0.1	0	0	323	0.2	323	324	6.7	96.4
2025-10-17T21:24	10	0	0.1	0	0	323	0.3	322	323	6.7	96.4
2025-10-17T21:25	10	0	0.1	0	0	323	0.3	322	323	6.6	96.4
2025-10-17T21:26	10	0	0.1	0	0	323	0.3	322	324	6.6	96.3
2025-10-17T21:27	10	0	0.1	0	0	323	0.3	323	324	6.7	96.3
2025-10-17T21:28	10	0	0.1	0	0	323	0.3	323	324	6.7	96.3
2025-10-17T21:29	10	0	0.1	0	0	323	0.3	323	324	6.5	96.6
2025-10-17T21:30	10	0	0.1	0	0	323	0.2	323	324	6.6	96.2
2025-10-17T21:31	10	0	0.1	0	0	323	0.2	323	324	6.6	96.2
2025-10-17T21:32	10	0	0.1	0	0	323	0.2	323	323	6.6	96.2
2025-10-17T21:33	10	0	0.1	0	0	323	0.2	322	323	6.6	96.1
2025-10-17T21:34	10	0	0.1	0	0	323	0.2	322	323	6.6	96.1
2025-10-17T21:35	10	0	0.0	0	0	323	0.2	322	323	6.7	96.0
2025-10-17T21:36	10	0	0.1	0	0	323	0.2	322	323	6.6	96.2
2025-10-17T21:37	10	0	0.1	0	0	323	0.2	323	324	6.6	96.1
2025-10-17T21:38	10	0	0.1	0	0	323	0.3	323	324	6.6	96.1
2025-10-17T21:39	10	0	0.0	0	0	323	0.2	323	324	6.5	96.4
2025-10-17T21:40	10	0	0.1	0	0	323	0.2	323	324	6.3	96.7
2025-10-17T21:41	10	0	0.1	0	0	323	0.3	322	324	6.2	97.1
2025-10-17T21:42	10	0	0.0	0	0	323	0.3	323	324	6.3	96.9
2025-10-17T21:43	10	0	0.1	0	0	323	0.3	323	324	6.3	97.2
2025-10-17T21:44	10	0	0.1	0	0	323	0.2	323	324	6.4	97.4
2025-10-17T21:45	10	0	0.1	0	0	324	0.3	323	324	6.4	97.5
2025-10-17T21:46	10	0	0.1	0	0	323	0.3	323	324	6.3	97.5
2025-10-17T21:47	10	0	0.1	0	0	323	0.3	322	324	6.3	97.5
2025-10-17T21:48	10	0	0.0	0	0	322	0.3	322	323	6.1	97.5
2025-10-17T21:49	10	0	0.1	0	0	322	0.2	322	323	6.0	97.5
2025-10-17T21:50	10	0	0.1	0	0	322	0.2	322	322	5.9	97.5
2025-10-17T21:51	10	0	0.1	0	0	322	0.3	321	322	5.8	97.6
2025-10-17T21:52	10	0	0.1	0	0	322	0.2	322	322	5.9	97.5
2025-10-17T21:53	10	0	0.1	0	0	322	0.2	321	322	5.9	97.9
2025-10-17T21:54	10	0	0.1	0	0	321	0.2	321	322	6.0	98.0
2025-10-17T21:55	10	0	0.1	0	0	321	0.2	321	322	5.9	97.8
2025-10-17T21:56	10	0	0.1	0	0	321	0.2	321	322	5.8	97.7
2025-10-17T21:57	10	0	0.1	0	0	321	0.3	321	322	5.8	98.0
2025-10-17T21:58	10	0	0.1	0	0	321	0.2	320	321	5.9	98.0
2025-10-17T21:59	10	0	0.1	0	0	321	0.2	321	321	6.1	98.1
2025-10-17T22:00	10	0	0.1	0	0	321	0.2	321	321	6.3	98.2
2025-10-17T22:01	10	0	0.1	0	0	321	0.2	321	322	6.4	97.8
2025-10-17T22:02	10	0	0.1	0	0	321	0.2	321	321	6.4	97.6
2025-10-17T22:03	10	0	0.1	0	0	321	0.2	320	321	6.4	97.4
2025-10-17T22:04	10	0	0.1	0	0	321	0.2	321	321	6.4	97.4
2025-10-17T22:05	10	0	0.1	0	0	321	0.2	321	322	6.4	97.3
2025-10-17T22:06	10	0	0.1	0	0	321	0.3	320	322	6.3	97.4
2025-10-17T22:07	10	0	0.1	0	0	322	0.3	321	322	6.3	97.1
2025-10-17T22:08	10	0	0.1	0	0	322	0.2	322	323	6.3	97.2
2025-10-17T22:09	10	0	0.1	0	0	322	0.2	321	322	6.2	97.3
2025-10-17T22:10	10	0	0.1	0	0	322	0.2	321	322	6.2	97.5
2025-10-17T22:11	10	0	0.1	0	0	321	0.2	321	322	6.1	97.3
2025-10-17T22:12	10	0	0.1	0	0	322	0.3	321	322	6.1	97.3
2025-10-17T22:13	10	0	0.1	0	0	322	0.3	321	323	6.1	97.4
2025-10-17T22:14	10	0	0.1	0	0	322	0.2	321	322	6.0	97.6
2025-10-17T22:15	10	0	0.1	0	0	322	0.2	321	322	5.9	97.3
2025-10-17T22:16	10	0	0.1	0	0	321	0.3	321	322	6.0	97.3
2025-10-17T22:17	10	0	0.1	0	0	321	0.3	320	321	5.9	97.4
2025-10-17T22:18	10	0	0.1	0	0	320	0.2	320	321	5.8	97.2
2025-10-17T22:19	10	0	0.1	0	0	320	0.2	320	321	6.0	97.2
2025-10-17T22:20	10	0	0.1	0	0	320	0.2	320	321	6.0	97.3
2025-10-17T22:21	10	0	0.1	0	0	320	0.2	319	321	5.9	97.2
2025-10-17T22:22	10	0	0.1	0	0	320	0.4	320	321	5.9	97.3
2025-10-17T22:23	10	0	0.1	0	0	321	0.3	320	321	5.9	97.4
2025-10-17T22:24	10	0	0.1	0	0	321	0.3	320	322	5.9	97.7
2025-10-17T22:25	10	0	0.1	0	0	321	0.3	321	322	6.0	97.5
2025-10-17T22:26	10	0	0.1	0	0	322	0.2	321	322	6.1	97.6
2025-10-17T22:27	10	0	0.1	0	0	322	0.3	321	322	6.2	97.3
2025-10-17T22:28	10	0	0.1	0	0	321	0.3	320	321	6.2	97.4
2025-10-17T22:29	10	0	0.1	0	0	321	0.3	320	322	6.2	97.2
2025-10-17T22:30	10	0	0.1	0	0	320	0.3	319	321	6.1	97.7
2025-10-17T22:31	10	0	0.1	0	0	320	0.2	320	321	5.9	98.2
2025-10-17T22:32	10	0	0.1	0	0	320	0.3	320	321	5.9	97.9
2025-10-17T22:33	10	0	0.1	0	0	321	0.3	320	322	6.0	97.8
2025-10-17T22:34	10	0	0.1	0	0	321	0.2	321	322	6.1	97.8
2025-10-17T22:35	10	0	0.1	0	0	321	0.2	320	321	6.1	97.8
2025-10-17T22:36	10	0	0.1	0	0	321	0.2	321	322	6.0	97.9
2025-10-17T22:37	10	0	0.2	0	0	322	0.3	321	322	5.9	98.0
2025-10-17T22:38	10	0	0.1	0	0	322	0.3	322	323	5.9	97.8
2025-10-17T22:39	10	0	0.1	0	0	322	0.3	322	323	5.9	98.1
2025-10-17T22:40	10	0	0.1	0	0	322	0.2	321	322	5.9	98.4
2025-10-17T22:41	10	0	0.1	0	0	322	0.3	321	322	5.8	98.3
2025-10-17T22:42	10	0	0.1	0	0	322	0.2	321	323	5.9	98.0
2025-10-17T22:43	10	0	0.1	0	0	322	0.3	321	322	5.9	98.2
2025-10-17T22:44	10	0	0.1	0	0	322	0.3	321	322	5.8	98.1
2025-10-17T22:45	10	0	0.1	0	0	322	0.2	321	322	5.8	98.3
2025-10-17T22:46	10	0	0.1	0	0	321	0.2	321	322	5.8	98.2
2025-10-17T22:47	10	0	0.1	0	0	321	0.2	320	321	5.8	98.2
2025-10-17T22:48	10	0	0.1	0	0	321	0.2	320	321	5.8	98.2
2025-10-17T22:49	10	0	0.1	0	0	320	0.2	320	321	5.8	98.2
2025-10-17T22:50	10	0	0.1	0	0	320	0.2	320	321	5.8	98.1
2025-10-17T22:51	10	0	0.1	0	0	320	0.3	319	321	5.8	98.2
2025-10-17T22:52	10	0	0.1	0	0	320	0.2	319	320	5.7	98.4
2025-10-17T22:53	10	0	0.1	0	0	320	0.2	319	320	5.6	98.3
2025-10-17T22:54	10	0	0.3	0	2	320	0.2	319	320	5.5	98.1
2025-10-17T22:55	10	0	0.1	0	0	319	0.2	319	320	5.6	98.2
2025-10-17T22:56	10	0	0.1	0	0	319	0.2	319	320	5.4	98.8
2025-10-17T22:57	10	0	0.1	0	0	319	0.2	318	319	5.4	98.6
2025-10-17T22:58	10	0	0.1	0	0	319	0.2	318	319	5.3	98.7
2025-10-17T22:59	10	0	0.1	0	0	319	0.2	318	319	5.3	98.8
2025-10-17T23:00	10	0	0.1	0	0	319	0.2	319	320	5.2	98.7
2025-10-17T23:01	10	0	0.1	0	0	319	0.2	319	320	5.2	98.7
2025-10-17T23:02	10	0	0.1	0	0	319	0.2	319	320	5.2	98.6
2025-10-17T23:03	10	0	0.1	0	0	320	0.3	319	320	5.2	98.4
2025-10-17T23:04	10	0	0.1	0	0	320	0.3	320	321	5.3	98.5
2025-10-17T23:05	10	0	0.1	0	0	321	0.5	320	322	5.2	99.3
2025-10-17T23:06	10	0	0.1	0	0	322	0.4	321	323	5.1	99.3
2025-10-17T23:07	10	0	0.1	0	0	323	0.5	323	324	5.1	99.1
2025-10-17T23:08	10	0	0.1	0	0	324	0.4	324	325	5.1	99.1
2025-10-17T23:09	10	0	0.1	0	0	326	0.4	325	326	5.1	99.3
2025-10-17T23:10	10	0	0.1	0	0	326	0.4	326	327	5.2	99.2
2025-10-17T23:11	10	0	0.1	0	0	328	0.5	327	328	5.3	99.0
2025-10-17T23:12	10	0	0.0	0	0	329	0.4	328	329	5.4	98.8
2025-10-17T23:13	10	0	0.1	0	0	330	0.3	329	330	5.5	98.9
2025-10-17T23:14	10	0	0.1	0	0	330	0.2	330	331	5.6	99.0
2025-10-17T23:15	10	0	0.1	0	0	331	0.3	330	331	5.4	99.1
2025-10-17T23:16	10	0	0.1	0	0	331	0.2	331	332	5.4	98.6
2025-10-17T23:17	10	0	0.1	0	0	332	0.3	331	333	5.4	99.1
2025-10-17T23:18	10	0	0.1	0	0	333	0.2	332	333	5.4	99.3
2025-10-17T23:19	10	0	0.1	0	0	333	0.3	332	334	5.5	99.7
2025-10-17T23:20	10	0	0.3	0	1	334	0.2	333	334	5.5	100.2
2025-10-17T23:21	10	0	0.0	0	0	334	0.2	334	335	5.5	99.5
2025-10-17T23:22	10	0	0.1	0	0	335	0.3	334	335	5.5	98.9
2025-10-17T23:23	10	0	0.1	0	0	335	0.3	335	336	5.5	98.8
2025-10-17T23:24	10	0	0.1	0	0	336	0.2	335	336	5.5	98.9
2025-10-17T23:25	10	0	0.1	0	0	336	0.2	336	337	5.5	99.1
2025-10-17T23:26	10	0	0.1	0	0	336	0.3	336	337	5.5	99.4
2025-10-17T23:27	10	0	0.1	0	0	337	0.3	336	338	5.6	99.5
2025-10-17T23:28	10	0	0.1	0	0	337	0.2	337	338	5.6	99.4
2025-10-17T23:29	10	0	0.1	0	0	337	0.3	336	338	5.6	99.4
2025-10-17T23:30	10	0	0.1	0	0	338	0.2	337	338	5.7	98.9
2025-10-17T23:31	10	0	0.0	0	0	337	0.3	336	338	5.6	98.6
2025-10-17T23:32	10	0	0.1	0	0	337	0.2	337	338	5.6	98.5
2025-10-17T23:33	10	0	0.1	0	0	337	0.2	337	338	5.5	98.8
2025-10-17T23:34	10	0	0.1	0	0	337	0.2	337	338	5.4	98.4
2025-10-17T23:35	10	0	0.1	0	0	337	0.2	337	338	5.4	98.4
2025-10-17T23:36	10	0	0.1	0	0	337	0.3	337	338	5.3	98.5
2025-10-17T23:37	10	0	0.1	0	0	337	0.2	337	338	5.3	98.5
2025-10-17T23:38	10	0	0.1	0	0	337	0.2	337	338	5.2	98.5
2025-10-17T23:39	10	0	0.1	0	0	338	0.2	337	338	5.3	98.8
2025-10-17T23:40	10	0	0.1	0	0	338	0.3	337	338	5.4	99.3
2025-10-17T23:41	10	0	0.1	0	0	338	0.2	337	338	5.3	99.4
2025-10-17T23:42	10	0	0.0	0	0	338	0.2	337	338	5.3	98.7
2025-10-17T23:43	10	0	0.1	0	0	338	0.3	337	338	5.3	98.4
2025-10-17T23:44	10	0	0.1	0	0	338	0.3	337	339	5.4	98.5
2025-10-17T23:45	10	0	0.1	0	0	338	0.3	338	339	5.7	98.4
2025-10-17T23:46	10	0	0.1	0	0	339	0.2	338	339	5.8	98.7
2025-10-17T23:47	10	0	0.1	0	0	339	0.2	338	339	5.8	98.7
2025-10-17T23:48	10	0	0.0	0	0	338	0.4	337	339	5.8	98.7
2025-10-17T23:49	10	0	0.0	0	0	338	0.2	338	339	5.6	98.4
2025-10-17T23:50	10	0	0.1	0	0	339	0.2	338	339	5.8	98.4
2025-10-17T23:51	10	0	0.1	0	0	339	0.3	338	339	5.9	98.3
2025-10-17T23:52	10	0	0.1	0	0	339	0.2	338	339	5.9	98.7
2025-10-17T23:53	10	0	0.0	0	0	339	0.3	338	340	5.9	98.8
2025-10-17T23:54	10	0	0.0	0	0	339	0.3	338	339	5.8	99.0
2025-10-17T23:55	10	0	0.1	0	0	339	0.2	338	339	5.7	98.7
2025-10-17T23:56	10	0	0.0	0	0	339	0.2	338	339	5.7	98.2
2025-10-17T23:57	10	0	0.1	0	0	339	0.3	338	340	5.7	98.1
2025-10-17T23:58	10	0	0.1	0	0	339	0.2	339	339	5.6	98.2
2025-10-17T23:59	10	0	0.1	0	0	339	0.2	338	339	5.6	98.0
2025-10-18T00:00	10	0	0.1	0	0	339	0.2	338	339	5.6	97.9
2025-10-18T00:01	10	0	0.1	0	0	339	0.3	338	340	5.6	97.7
2025-10-18T00:02	10	0	0.1	0	0	339	0.3	338	339	5.7	97.6
2025-10-18T00:03	10	0	0.1	0	0	339	0.3	339	340	5.7	97.4
2025-10-18T00:04	10	0	0.1	0	0	339	0.2	339	340	5.8	97.4
2025-10-18T00:05	10	0	0.1	0	0	339	0.2	339	340	5.7	97.3
2025-10-18T00:06	10	0	0.1	0	0	339	0.2	339	340	5.7	97.6
2025-10-18T00:07	10	0	0.1	0	0	339	0.3	338	340	5.7	97.3
2025-10-18T00:08	10	0	0.1	0	0	339	0.2	339	340	5.7	97.2
2025-10-18T00:09	10	0	0.1	0	0	339	0.2	338	339	5.6	97.3
2025-10-18T00:10	10	0	0.1	0	0	339	0.2	339	340	5.6	97.2
2025-10-18T00:11	10	0	0.0	0	0	339	0.2	339	340	5.6	97.5
2025-10-18T00:12	10	0	0.0	0	0	339	0.2	339	340	5.6	97.6
2025-10-18T00:13	10	0	0.0	0	0	340	0.2	339	340	5.6	97.6
2025-10-18T00:14	10	0	0.1	0	0	340	0.2	339	340	5.6	97.4
2025-10-18T00:15	10	0	0.1	0	0	339	0.2	339	340	5.6	97.8
2025-10-18T00:16	10	0	0.0	0	0	340	0.2	339	340	5.6	98.4
2025-10-18T00:17	10	0	0.1	0	0	340	0.2	339	340	5.6	97.8
2025-10-18T00:18	10	0	0.1	0	0	340	0.2	339	340	5.7	97.3
2025-10-18T00:19	10	0	0.0	0	0	339	0.2	339	340	5.7	97.1
2025-10-18T00:20	10	0	0.0	0	0	340	0.2	339	340	5.7	97.2
2025-10-18T00:21	10	0	0.1	0	0	339	0.2	339	340	5.7	97.4
2025-10-18T00:22	10	0	0.0	0	0	339	0.2	339	340	5.8	97.6
2025-10-18T00:23	10	0	0.0	0	0	339	0.2	339	339	5.8	97.6
2025-10-18T00:24	10	0	0.1	0	0	339	0.2	339	339	5.7	97.9
2025-10-18T00:25	10	0	0.1	0	0	339	0.2	339	340	5.7	98.0
2025-10-18T00:26	10	0	0.1	0	0	339	0.2	338	339	5.7	98.1
2025-10-18T00:27	10	0	0.1	0	0	339	0.2	339	339	5.6	98.1
2025-10-18T00:28	10	0	0.1	0	0	339	0.2	339	340	5.6	98.3
2025-10-18T00:29	10	0	0.1	0	0	339	0.2	338	339	5.6	98.5
2025-10-18T00:30	10	0	0.1	0	0	339	0.2	338	339	5.6	98.5
2025-10-18T00:31	10	0	0.0	0	0	339	0.2	338	339	5.6	98.1
2025-10-18T00:32	10	0	0.1	0	0	339	0.2	338	339	5.7	97.9
2025-10-18T00:33	10	0	0.0	0	0	339	0.2	339	340	5.7	98.1
2025-10-18T00:34	10	0	0.1	0	0	339	0.3	338	339	5.7	98.4
2025-10-18T00:35	10	0	0.0	0	0	339	0.2	339	339	5.7	98.6
2025-10-18T00:36	10	0	0.1	0	0	339	0.2	339	339	5.7	98.6
2025-10-18T00:37	10	0	0.1	0	0	339	0.2	339	340	5.8	98.5
2025-10-18T00:38	10	0	0.1	0	0	339	0.2	339	340	5.8	98.0
2025-10-18T00:39	10	0	0.1	0	0	340	0.2	339	340	5.8	97.9
2025-10-18T00:40	10	0	0.1	0	0	340	0.2	339	340	5.8	98.0
2025-10-18T00:41	10	0	0.1	0	0	340	0.2	339	340	5.8	97.9
2025-10-18T00:42	10	0	0.1	0	0	340	0.2	339	340	5.8	97.8
2025-10-18T00:43	10	0	0.1	0	0	340	0.2	339	340	5.8	97.7
2025-10-18T00:44	10	0	0.1	0	0	340	0.2	340	340	5.8	97.7
2025-10-18T00:45	10	0	0.1	0	0	340	0.2	340	341	5.8	97.8
2025-10-18T00:46	10	0	0.1	0	0	340	0.2	339	340	5.8	97.9
2025-10-18T00:47	10	0	0.1	0	0	340	0.2	340	341	5.8	97.9
2025-10-18T00:48	10	0	0.1	0	0	340	0.2	340	341	5.8	97.6
2025-10-18T00:49	10	0	0.1	0	0	340	0.2	340	341	5.8	97.5
2025-10-18T00:50	10	0	0.1	0	0	340	0.2	340	341	5.8	97.5
2025-10-18T00:51	10	0	0.1	0	0	341	0.2	340	341	5.8	97.8
2025-10-18T00:52	10	0	0.1	0	0	340	0.2	340	341	5.8	98.1
2025-10-18T00:53	10	0	0.1	0	0	340	0.2	340	341	5.8	98.2
2025-10-18T00:54	10	0	0.1	0	0	340	0.2	340	341	5.8	98.2
2025-10-18T00:55	10	0	0.1	0	0	340	0.2	340	341	5.8	98.2
2025-10-18T00:56	10	0	0.1	0	0	340	0.2	340	341	5.8	98.7
2025-10-18T00:57	10	0	0.0	0	0	341	0.3	340	341	5.8	99.0
2025-10-18T00:58	10	0	0.1	0	0	341	0.2	340	341	5.8	98.6
2025-10-18T00:59	10	0	0.1	0	0	341	0.2	340	341	5.8	98.2
2025-10-18T01:00	10	0	0.0	0	0	341	0.2	340	341	5.8	97.8
2025-10-18T01:01	10	0	0.1	0	0	341	0.2	340	342	5.8	97.7
2025-10-18T01:02	10	0	0.0	0	0	341	0.2	340	341	5.8	97.7
2025-10-18T01:03	10	0	0.1	0	0	341	0.2	340	341	5.8	97.9
2025-10-18T01:04	10	0	0.1	0	0	341	0.3	340	341	5.8	98.0
2025-10-18T01:05	10	0	0.1	0	0	341	0.2	341	341	5.8	98.0
2025-10-18T01:06	10	0	0.1	0	0	341	0.2	340	341	5.8	98.0
2025-10-18T01:07	10	0	0.1	0	0	341	0.2	341	342	5.8	98.2
2025-10-18T01:08	10	0	0.1	0	0	341	0.2	340	341	5.8	98.2
2025-10-18T01:09	10	0	0.1	0	0	341	0.2	340	341	5.8	97.8
2025-10-18T01:10	10	0	0.1	0	0	341	0.2	341	341	5.8	97.8
2025-10-18T01:11	10	0	0.1	0	0	341	0.2	341	342	5.8	98.0
2025-10-18T01:12	10	0	0.1	0	0	341	0.2	341	342	5.8	98.1
2025-10-18T01:13	10	0	0.1	0	0	341	0.2	340	341	5.8	98.1
2025-10-18T01:14	10	0	0.1	0	0	341	0.2	341	341	5.8	98.2
2025-10-18T01:15	10	0	0.1	0	0	341	0.2	341	341	5.8	98.2
2025-10-18T01:16	10	0	0.1	0	0	341	0.2	341	342	5.8	98.3
2025-10-18T01:17	10	0	0.1	0	0	341	0.2	341	342	5.9	97.9
2025-10-18T01:18	10	0	0.1	0	0	341	0.2	340	342	6.0	97.8
2025-10-18T01:19	10	0	0.1	0	0	342	0.3	341	342	6.0	98.1
2025-10-18T01:20	10	0	0.1	0	0	341	0.2	341	342	6.1	98.3
2025-10-18T01:21	10	0	0.1	0	0	341	0.2	341	342	6.1	98.6
2025-10-18T01:22	10	0	0.1	0	0	341	0.2	341	342	6.0	98.6
2025-10-18T01:23	10	0	0.1	0	0	341	0.3	341	342	5.9	98.3
2025-10-18T01:24	10	0	0.1	0	0	341	0.2	341	342	5.9	98.0
2025-10-18T01:25	10	0	0.1	0	0	341	0.3	341	342	5.9	98.3
2025-10-18T01:26	10	0	0.1	0	0	342	0.2	341	342	5.9	98.5
2025-10-18T01:27	10	0	0.1	0	0	341	0.2	341	342	5.9	98.5
2025-10-18T01:28	10	0	0.1	0	0	342	0.2	341	342	5.9	98.9
2025-10-18T01:29	10	0	0.1	0	0	342	0.2	341	342	5.9	98.1
2025-10-18T01:30	10	0	0.0	0	0	342	0.2	341	342	5.9	98.1
2025-10-18T01:31	10	0	0.1	0	0	342	0.2	341	342	6.0	98.2
2025-10-18T01:32	10	0	0.1	0	0	342	0.2	341	342	6.0	98.7
2025-10-18T01:33	10	0	0.1	0	0	342	0.2	341	342	6.0	98.6
2025-10-18T01:34	10	0	0.1	0	0	342	0.2	342	342	6.0	98.1
2025-10-18T01:35	10	0	0.1	0	0	342	0.2	341	342	6.1	97.8
2025-10-18T01:36	10	0	0.2	0	0	342	0.2	341	343	6.2	97.8
2025-10-18T01:37	10	0	0.1	0	0	342	0.2	342	343	6.2	97.6
2025-10-18T01:38	10	0	0.1	0	0	342	0.2	342	343	6.3	97.7
2025-10-18T01:39	10	0	0.1	0	0	342	0.2	342	343	6.3	97.8
2025-10-18T01:40	10	0	0.1	0	0	342	0.2	342	343	6.3	98.0
2025-10-18T01:41	10	0	0.1	0	0	342	0.2	342	343	6.3	97.8
2025-10-18T01:42	10	0	0.1	0	0	342	0.2	342	343	6.3	97.6
2025-10-18T01:43	10	0	0.1	0	0	343	0.3	342	343	6.3	97.6
2025-10-18T01:44	10	0	0.1	0	0	342	0.3	342	343	6.3	97.7
2025-10-18T01:45	10	0	0.1	0	0	342	0.3	342	343	6.3	97.7
2025-10-18T01:46	10	0	0.1	0	0	342	0.3	342	343	6.3	97.8
2025-10-18T01:47	10	0	0.1	0	0	342	0.3	341	343	6.3	98.0
2025-10-18T01:48	10	0	0.2	0	0	342	0.3	342	343	6.2	97.8
2025-10-18T01:49	10	0	0.1	-1	0	342	0.2	342	343	6.2	97.6
2025-10-18T01:50	10	0	0.1	0	0	342	0.2	342	343	6.2	97.5
2025-10-18T01:51	10	0	0.1	0	0	342	0.2	342	343	6.3	97.5
2025-10-18T01:52	10	0	0.1	0	0	343	0.2	342	343	6.3	97.6
2025-10-18T01:53	10	0	0.1	0	0	343	0.2	342	343	6.3	97.7
2025-10-18T01:54	10	0	0.1	0	0	343	0.3	342	343	6.3	97.9
2025-10-18T01:55	10	0	0.1	0	0	343	0.3	342	343	6.3	97.9
2025-10-18T01:56	10	0	0.1	0	0	343	0.2	342	343	6.3	98.0
2025-10-18T01:57	10	0	0.1	0	0	343	0.2	342	344	6.4	97.8
2025-10-18T01:58	10	0	0.2	0	0	343	0.3	342	344	6.5	97.7
2025-10-18T01:59	10	0	0.1	0	0	343	0.3	343	344	6.5	97.8
2025-10-18T02:00	10	0	0.1	0	0	343	0.3	342	344	6.4	97.7
2025-10-18T02:01	10	0	0.1	0	0	343	0.2	342	343	6.4	97.4
2025-10-18T02:02	10	0	0.1	0	0	343	0.2	342	344	6.4	97.2
2025-10-18T02:03	10	0	0.1	0	0	343	0.2	342	343	6.4	97.3
2025-10-18T02:04	10	0	0.1	0	0	342	0.3	342	343	6.4	97.2
2025-10-18T02:05	10	0	0.1	0	0	342	0.3	342	343	6.4	97.3
2025-10-18T02:06	10	0	0.1	0	0	342	0.2	342	343	6.4	97.3
2025-10-18T02:07	10	0	0.1	0	0	342	0.2	342	343	6.4	97.3
2025-10-18T02:08	10	0	0.1	0	0	342	0.2	341	342	6.4	97.3
2025-10-18T02:09	10	0	0.1	0	0	342	0.2	341	342	6.4	97.1
2025-10-18T02:10	10	0	0.1	0	0	342	0.3	341	342	6.4	96.9
2025-10-18T02:11	10	0	0.1	0	0	342	0.3	341	342	6.4	96.7
2025-10-18T02:12	10	0	0.1	0	0	342	0.3	341	342	6.4	96.9
2025-10-18T02:13	10	0	0.2	0	0	342	0.2	341	342	6.4	97.3
2025-10-18T02:14	10	0	0.1	0	0	342	0.2	341	342	6.4	97.5
2025-10-18T02:15	10	0	0.2	0	0	342	0.2	341	342	6.4	97.8
2025-10-18T02:16	10	0	0.1	0	0	341	0.2	341	342	6.4	97.6
2025-10-18T02:17	10	0	0.1	0	0	342	0.3	341	342	6.4	97.4
2025-10-18T02:18	10	0	0.1	0	0	342	0.3	341	342	6.4	97.5
2025-10-18T02:19	10	0	0.1	0	0	342	0.3	341	342	6.4	97.5
2025-10-18T02:20	10	0	0.1	0	0	341	0.3	341	342	6.4	97.9
2025-10-18T02:21	10	0	0.1	0	0	341	0.2	341	342	6.4	97.9
2025-10-18T02:22	10	0	0.2	0	0	341	0.2	341	342	6.4	97.8
2025-10-18T02:23	10	0	0.1	0	0	341	0.3	340	342	6.4	97.9
2025-10-18T02:24	10	0	0.1	0	0	341	0.2	341	342	6.4	98.1
2025-10-18T02:25	10	0	0.1	0	0	341	0.3	340	341	6.3	98.1
2025-10-18T02:26	10	0	0.1	0	0	341	0.2	341	342	6.3	97.7
2025-10-18T02:27	10	0	0.1	0	0	341	0.2	341	342	6.3	97.5
2025-10-18T02:28	10	0	0.1	0	0	341	0.2	340	342	6.3	97.7
2025-10-18T02:29	10	0	0.1	0	0	341	0.3	340	342	6.3	97.6
2025-10-18T02:30	10	0	0.1	0	0	341	0.2	341	342	6.3	97.5
2025-10-18T02:31	10	0	0.1	0	0	341	0.2	341	342	6.3	97.0
2025-10-18T02:32	10	0	0.1	0	0	341	0.3	340	342	6.3	96.8
2025-10-18T02:33	10	0	0.1	0	0	341	0.2	341	342	6.3	97.0
2025-10-18T02:34	10	0	0.1	0	0	341	0.3	340	342	6.3	97.3
2025-10-18T02:35	10	0	0.1	0	0	341	0.2	340	342	6.3	97.7
2025-10-18T02:36	10	0	0.1	-1	0	341	0.3	341	342	6.3	97.8
2025-10-18T02:37	10	0	0.1	0	0	341	0.3	340	342	6.3	97.4
2025-10-18T02:38	10	0	0.1	0	0	341	0.2	341	342	6.3	97.2
2025-10-18T02:39	10	0	0.1	0	0	341	0.2	340	342	6.3	97.2
2025-10-18T02:40	10	0	0.1	0	0	341	0.3	341	342	6.3	97.5
2025-10-18T02:41	10	0	0.1	0	0	341	0.2	341	342	6.3	97.9
2025-10-18T02:42	10	0	0.1	0	0	341	0.3	341	342	6.3	98.3
2025-10-18T02:43	10	0	0.1	0	0	342	0.2	341	342	6.3	97.9
2025-10-18T02:44	10	0	0.1	0	0	342	0.3	341	342	6.3	97.5
2025-10-18T02:45	10	0	0.1	0	0	342	0.2	341	342	6.3	97.3
2025-10-18T02:46	10	0	0.1	0	0	342	0.2	342	343	6.3	97.3
2025-10-18T02:47	10	0	0.1	0	0	342	0.2	342	343	6.3	97.4
2025-10-18T02:48	10	0	0.1	0	0	342	0.2	342	343	6.3	97.8
2025-10-18T02:49	10	0	0.1	0	0	342	0.2	342	343	6.3	98.1
2025-10-18T02:50	10	0	0.1	0	0	342	0.3	342	343	6.3	98.4
2025-10-18T02:51	10	0	0.1	0	0	342	0.2	342	343	6.3	98.4
2025-10-18T02:52	10	0	0.1	0	0	342	0.2	342	343	6.3	97.7
2025-10-18T02:53	10	0	0.1	0	0	342	0.2	342	343	6.3	97.7
2025-10-18T02:54	10	0	0.1	0	0	342	0.3	342	343	6.3	97.8
2025-10-18T02:55	10	0	0.1	0	0	342	0.2	342	343	6.3	97.7
2025-10-18T02:56	10	0	0.1	0	0	342	0.2	342	343	6.3	97.7
2025-10-18T02:57	10	0	0.1	0	0	342	0.2	342	343	6.3	97.8
2025-10-18T02:58	10	0	0.1	0	0	342	0.2	342	343	6.2	97.2
2025-10-18T02:59	10	0	0.1	0	0	342	0.3	342	343	6.3	96.6
2025-10-18T03:00	10	0	0.1	0	0	342	0.2	342	343	6.3	96.3
2025-10-18T03:01	10	0	0.1	0	0	342	0.2	342	343	6.3	96.0
2025-10-18T03:02	10	0	0.1	0	0	342	0.2	341	342	6.2	95.9
2025-10-18T03:03	10	0	0.1	0	0	342	0.2	341	342	6.2	96.2
2025-10-18T03:04	10	0	0.1	0	0	342	0.2	341	342	6.2	96.3
2025-10-18T03:05	10	0	0.1	0	0	342	0.2	341	342	6.1	96.4
2025-10-18T03:06	10	0	0.1	0	0	342	0.2	341	343	6.2	96.7
2025-10-18T03:07	10	0	0.1	0	0	342	0.2	342	342	6.2	96.6
2025-10-18T03:08	10	0	0.1	0	0	342	0.2	341	342	6.2	96.5
2025-10-18T03:09	10	0	0.1	0	0	342	0.3	341	343	6.1	96.4
2025-10-18T03:10	10	0	0.1	0	0	342	0.2	341	342	6.1	96.4
2025-10-18T03:11	10	0	0.1	0	0	342	0.3	341	342	6.1	96.4
2025-10-18T03:12	10	0	0.1	-1	0	342	0.3	341	342	6.1	96.5
2025-10-18T03:13	10	0	0.1	0	0	342	0.2	341	342	6.1	96.7
2025-10-18T03:14	10	0	0.1	0	0	342	0.2	341	342	6.1	96.6
2025-10-18T03:15	10	0	0.1	0	0	342	0.2	341	342	6.1	96.4
2025-10-18T03:16	10	0	0.1	0	0	342	0.2	341	342	6.1	96.8
2025-10-18T03:17	10	0	0.1	0	0	342	0.2	341	342	6.1	97.4
2025-10-18T03:18	10	0	0.1	0	0	342	0.2	342	342	6.1	96.8
2025-10-18T03:19	10	0	0.1	0	0	342	0.3	341	343	6.1	95.9
2025-10-18T03:20	10	0	0.1	0	0	342	0.2	342	343	6.2	95.8
2025-10-18T03:21	10	0	0.1	0	0	342	0.2	342	342	6.2	96.2
2025-10-18T03:22	10	0	0.1	0	0	342	0.2	342	343	6.2	96.3
2025-10-18T03:23	10	0	0.1	0	0	342	0.2	342	343	6.2	96.5
2025-10-18T03:24	10	0	0.1	0	0	342	0.2	342	343	6.2	96.2
2025-10-18T03:25	10	0	0.1	0	0	343	0.2	342	343	6.2	96.4
2025-10-18T03:26	10	0	0.1	0	0	343	0.3	342	343	6.2	97.2
2025-10-18T03:27	10	0	0.1	0	0	343	0.2	342	343	6.2	97.3
2025-10-18T03:28	10	0	0.1	0	0	343	0.2	342	343	6.2	97.6
2025-10-18T03:29	10	0	0.1	0	0	343	0.2	342	343	6.2	97.5
2025-10-18T03:30	10	0	0.1	0	0	343	0.2	342	343	6.2	97.7
2025-10-18T03:31	10	0	0.1	0	0	343	0.2	342	343	6.2	97.7
2025-10-18T03:32	10	0	0.1	0	0	343	0.2	342	343	6.2	98.2
2025-10-18T03:33	10	0	0.1	0	0	343	0.2	342	343	6.2	98.2
2025-10-18T03:34	10	0	0.1	0	0	343	0.2	342	343	6.2	98.3
2025-10-18T03:35	10	0	0.1	0	0	343	0.2	342	343	6.2	98.4
2025-10-18T03:36	10	0	0.1	0	0	343	0.2	342	343	6.2	98.5
2025-10-18T03:37	10	0	0.1	0	0	343	0.2	342	343	6.2	98.5
2025-10-18T03:38	10	0	0.1	0	0	343	0.2	342	343	6.2	98.8
2025-10-18T03:39	10	0	0.1	0	0	343	0.2	342	343	6.2	98.7
2025-10-18T03:40	10	0	0.1	0	0	343	0.2	342	343	6.2	98.5
2025-10-18T03:41	10	0	0.1	0	0	343	0.2	342	343	6.2	98.6
2025-10-18T03:42	10	0	0.1	0	0	343	0.2	342	343	6.2	98.4
2025-10-18T03:43	10	0	0.1	0	0	343	0.3	342	343	6.2	98.4
2025-10-18T03:44	10	0	0.1	0	0	343	0.2	342	343	6.2	98.3
2025-10-18T03:45	10	0	0.1	0	0	343	0.2	342	343	6.2	98.3
2025-10-18T03:46	10	0	0.1	0	0	343	0.2	342	343	6.2	98.2
2025-10-18T03:47	10	0	0.1	0	0	343	0.2	342	343	6.2	98.2
2025-10-18T03:48	10	0	0.1	0	0	343	0.2	342	343	6.2	98.4
2025-10-18T03:49	10	0	0.1	0	0	343	0.2	342	343	6.2	98.6
2025-10-18T03:50	10	0	0.1	0	0	343	0.2	342	343	6.2	98.4
2025-10-18T03:51	10	0	0.1	0	0	343	0.2	343	343	6.3	98.3
2025-10-18T03:52	10	0	0.1	0	0	343	0.2	342	343	6.3	98.2
2025-10-18T03:53	10	0	0.1	0	0	343	0.2	342	343	6.3	98.2
2025-10-18T03:54	10	0	0.1	0	0	343	0.2	342	343	6.3	98.2
2025-10-18T03:55	10	0	0.1	-1	0	343	0.2	342	343	6.3	98.2
2025-10-18T03:56	10	0	0.1	0	0	343	0.2	342	343	6.2	98.2
2025-10-18T03:57	10	0	0.1	0	0	343	0.3	342	343	6.2	98.4
2025-10-18T03:58	10	0	0.1	-1	0	343	0.2	342	343	6.2	98.3
2025-10-18T03:59	10	0	0.1	0	0	343	0.2	342	343	6.2	98.2
2025-10-18T04:00	10	0	0.1	0	0	343	0.2	342	343	6.2	98.1
2025-10-18T04:01	10	0	0.1	0	0	343	0.2	342	343	6.3	97.9
2025-10-18T04:02	10	0	0.1	0	0	342	0.2	342	343	6.3	97.9
2025-10-18T04:03	10	0	0.1	0	0	342	0.2	342	343	6.3	97.9
2025-10-18T04:04	10	0	0.1	0	0	343	0.2	342	343	6.3	97.7
2025-10-18T04:05	10	0	0.1	0	0	343	0.2	342	343	6.3	97.6
2025-10-18T04:06	10	0	0.1	0	0	343	0.2	342	343	6.3	97.5
2025-10-18T04:07	10	0	0.1	-1	0	343	0.2	342	343	6.4	97.2
2025-10-18T04:08	10	0	0.1	0	0	343	0.3	343	344	6.5	96.6
2025-10-18T04:09	10	0	0.0	0	0	343	0.2	343	344	6.6	96.5
2025-10-18T04:10	10	0	0.1	0	0	343	0.2	343	344	6.6	96.3
2025-10-18T04:11	10	0	0.1	0	0	344	0.2	343	344	6.6	95.9
2025-10-18T04:12	10	0	0.0	0	0	344	0.2	343	344	6.7	95.7
2025-10-18T04:13	10	0	0.1	0	0	343	0.2	343	344	6.7	95.8
2025-10-18T04:14	10	0	0.1	0	0	344	0.2	343	344	6.6	96.1
2025-10-18T04:15	10	0	0.1	0	0	343	0.2	343	344	6.6	95.7
2025-10-18T04:16	10	0	0.1	0	0	343	0.3	343	344	6.6	96.3
2025-10-18T04:17	10	0	0.0	0	0	344	0.2	343	344	6.6	96.4
2025-10-18T04:18	10	0	0.1	0	0	343	0.2	343	344	6.6	96.5
2025-10-18T04:19	10	0	0.1	0	0	343	0.2	343	344	6.6	96.3
2025-10-18T04:20	10	0	0.1	0	0	344	0.2	343	344	6.6	96.4
2025-10-18T04:21	10	0	0.1	0	0	344	0.2	343	344	6.6	96.3
2025-10-18T04:22	10	0	0.1	0	0	344	0.2	343	344	6.6	96.6
2025-10-18T04:23	10	0	0.1	0	0	343	0.2	343	344	6.5	96.8
2025-10-18T04:24	10	0	0.1	-1	0	344	0.2	343	344	6.5	96.7
2025-10-18T04:25	10	0	0.1	-1	0	343	0.2	343	344	6.5	96.7
2025-10-18T04:26	10	0	0.1	-1	0	343	0.2	343	344	6.5	96.6
2025-10-18T04:27	10	0	0.1	-1	0	343	0.2	343	344	6.5	96.6
2025-10-18T04:28	10	0	0.1	-1	0	343	0.2	343	344	6.5	96.8
2025-10-18T04:29	10	0	0.1	-1	0	343	0.2	343	344	6.5	96.8
2025-10-18T04:30	10	0	0.1	-1	0	343	0.2	343	344	6.4	96.9
2025-10-18T04:31	10	0	0.1	0	0	343	0.2	343	344	6.4	97.1
2025-10-18T04:32	10	0	0.1	0	0	343	0.2	343	344	6.4	97.2
2025-10-18T04:33	10	0	0.1	0	0	343	0.3	343	344	6.4	97.3
2025-10-18T04:34	10	0	0.1	0	0	343	0.2	343	344	6.4	97.5
2025-10-18T04:35	10	0	0.1	0	0	343	0.3	343	344	6.4	97.9
2025-10-18T04:36	10	0	0.1	0	0	343	0.2	343	344	6.4	98.0
2025-10-18T04:37	10	0	0.1	0	0	344	0.2	343	344	6.4	97.6
2025-10-18T04:38	10	0	0.1	0	0	344	0.2	343	344	6.5	97.3
2025-10-18T04:39	10	0	0.1	0	0	344	0.2	343	344	6.5	96.6
2025-10-18T04:40	10	0	0.1	0	0	344	0.2	343	344	6.6	96.4
2025-10-18T04:41	10	0	0.1	0	0	344	0.2	343	344	6.6	96.6
2025-10-18T04:42	10	0	0.1	0	0	344	0.3	343	344	6.5	96.1
2025-10-18T04:43	10	0	0.1	0	0	343	0.2	343	344	6.4	95.4
2025-10-18T04:44	10	0	0.1	0	0	343	0.1	343	344	6.4	95.5
2025-10-18T04:45	10	0	0.1	0	0	343	0.3	342	344	6.3	95.6
2025-10-18T04:46	10	0	0.1	0	0	343	0.2	343	344	6.3	95.7
2025-10-18T04:47	10	0	0.1	0	0	343	0.2	343	343	6.3	96.0
2025-10-18T04:48	10	0	0.2	0	1	343	0.2	343	343	6.3	96.0
2025-10-18T04:49	10	0	0.1	0	0	343	0.2	342	344	6.3	96.1
2025-10-18T04:50	10	0	0.1	0	0	343	0.2	342	344	6.3	96.1
2025-10-18T04:51	10	0	0.1	0	0	343	0.2	343	344	6.3	96.2
2025-10-18T04:52	10	0	0.1	0	0	343	0.2	342	343	6.3	96.1
2025-10-18T04:53	10	0	0.1	0	0	343	0.3	342	343	6.3	96.2
2025-10-18T04:54	10	0	0.1	0	0	343	0.2	342	344	6.3	96.4
2025-10-18T04:55	10	0	0.1	0	0	343	0.2	343	343	6.3	96.3
2025-10-18T04:56	10	0	0.1	0	0	343	0.2	342	343	6.3	96.4
2025-10-18T04:57	10	0	0.1	0	0	343	0.2	342	343	6.3	96.5
2025-10-18T04:58	10	0	0.1	0	0	343	0.2	342	343	6.3	96.6
2025-10-18T04:59	10	0	0.1	0	0	343	0.3	343	344	6.3	96.9
2025-10-18T05:00	10	0	0.1	0	0	343	0.3	343	344	6.3	96.6
2025-10-18T05:01	10	0	0.1	0	0	343	0.2	342	344	6.3	96.3
2025-10-18T05:02	10	0	0.1	0	0	343	0.2	343	343	6.3	96.3
2025-10-18T05:03	10	0	0.1	0	0	343	0.2	343	343	6.3	96.2
2025-10-18T05:04	10	0	0.1	0	0	343	0.2	343	343	6.3	96.2
2025-10-18T05:05	10	0	0.1	0	0	343	0.2	343	344	6.3	96.3
2025-10-18T05:06	10	0	0.1	0	0	343	0.2	343	344	6.4	96.8
2025-10-18T05:07	10	0	0.1	0	0	343	0.2	343	344	6.4	96.5
2025-10-18T05:08	10	0	0.1	0	0	343	0.2	343	344	6.3	96.3
2025-10-18T05:09	10	0	0.1	0	0	344	0.2	343	344	6.4	96.7
2025-10-18T05:10	10	0	0.1	0	0	343	0.2	343	344	6.5	96.6
2025-10-18T05:11	10	0	0.1	0	0	344	0.2	343	344	6.5	96.3
2025-10-18T05:12	10	0	0.1	0	0	344	0.2	343	344	6.5	96.3
2025-10-18T05:13	10	0	0.1	0	0	343	0.2	343	344	6.5	96.4
2025-10-18T05:14	10	0	0.1	0	0	343	0.2	343	344	6.4	96.2
2025-10-18T05:15	10	0	0.1	0	0	343	0.2	343	344	6.4	96.5
2025-10-18T05:16	10	0	0.1	0	0	344	0.2	343	344	6.5	96.4
2025-10-18T05:17	10	0	0.1	0	0	344	0.2	343	344	6.5	96.3
2025-10-18T05:18	10	0	0.1	0	0	343	0.2	343	344	6.5	96.5
2025-10-18T05:19	10	0	0.1	0	0	344	0.2	343	344	6.4	96.3
2025-10-18T05:20	10	0	0.1	0	0	343	0.2	343	344	6.4	96.3
2025-10-18T05:21	10	0	0.1	0	0	343	0.2	343	344	6.4	96.3
2025-10-18T05:22	10	0	0.1	0	0	343	0.2	343	344	6.4	96.3
2025-10-18T05:23	10	0	0.1	0	0	343	0.2	343	344	6.4	96.1
2025-10-18T05:24	10	0	0.1	0	0	343	0.2	343	344	6.4	96.3
2025-10-18T05:25	10	0	0.1	0	0	343	0.3	343	344	6.4	96.3
2025-10-18T05:26	10	0	0.1	0	0	343	0.2	343	344	6.4	96.1
2025-10-18T05:27	10	0	0.1	0	0	343	0.2	343	344	6.3	96.2
2025-10-18T05:28	10	0	0.1	0	0	343	0.3	342	344	6.3	96.1
2025-10-18T05:29	10	0	0.1	0	0	343	0.2	343	343	6.2	96.1
2025-10-18T05:30	10	0	0.0	0	0	343	0.3	342	344	6.2	96.4
2025-10-18T05:31	10	0	0.1	0	0	343	0.2	342	343	6.2	96.5
2025-10-18T05:32	10	0	0.1	0	0	343	0.3	342	343	6.2	96.4
2025-10-18T05:33	10	0	0.1	0	0	343	0.3	342	343	6.2	96.6
2025-10-18T05:34	10	0	0.1	0	0	343	0.2	343	343	6.2	96.6
2025-10-18T05:35	10	0	0.1	0	0	343	0.3	342	344	6.3	96.5
2025-10-18T05:36	10	0	0.1	0	0	343	0.2	342	343	6.3	96.6
2025-10-18T05:37	10	0	0.1	0	0	343	0.2	343	344	6.3	96.6
2025-10-18T05:38	10	0	0.1	0	0	343	0.2	343	343	6.3	96.1
2025-10-18T05:39	10	0	0.0	0	0	343	0.2	342	344	6.3	95.9
2025-10-18T05:40	10	0	0.1	0	0	343	0.2	343	344	6.3	95.9
2025-10-18T05:41	10	0	0.1	0	0	343	0.2	343	344	6.3	95.9
2025-10-18T05:42	10	0	0.1	0	0	343	0.3	343	344	6.3	95.9
2025-10-18T05:43	10	0	0.1	0	0	343	0.2	343	344	6.4	95.8
2025-10-18T05:44	10	0	0.1	0	0	343	0.3	343	344	6.4	95.5
2025-10-18T05:45	10	0	0.1	0	0	343	0.2	343	344	6.4	95.4
2025-10-18T05:46	10	0	0.1	0	0	343	0.2	343	344	6.4	95.3
2025-10-18T05:47	10	0	0.1	0	0	343	0.2	343	343	6.4	95.4
2025-10-18T05:48	10	0	0.1	0	0	343	0.3	343	344	6.4	95.5
2025-10-18T05:49	10	0	0.1	0	0	343	0.2	343	344	6.4	95.9
2025-10-18T05:50	10	0	0.1	0	0	343	0.2	343	344	6.4	96.2
2025-10-18T05:51	10	0	0.1	0	0	344	0.2	343	344	6.5	95.8
2025-10-18T05:52	10	0	0.1	0	0	344	0.2	343	344	6.5	95.7
2025-10-18T05:53	10	0	0.1	0	0	344	0.2	343	344	6.5	95.6
2025-10-18T05:54	10	0	0.1	0	0	344	0.2	343	344	6.5	95.7
2025-10-18T05:55	10	0	0.0	0	0	344	0.2	344	344	6.6	95.6
2025-10-18T05:56	10	0	0.1	0	0	344	0.2	343	344	6.6	95.1
2025-10-18T05:57	10	0	0.0	0	0	344	0.2	343	344	6.6	95.1
2025-10-18T05:58	10	0	0.0	0	0	344	0.2	344	344	6.5	95.7
2025-10-18T05:59	10	0	0.0	0	0	344	0.2	343	344	6.5	95.7
2025-10-18T06:00	10	0	0.0	0	0	344	0.2	343	344	6.5	95.9
2025-10-18T06:01	10	0	0.0	0	0	344	0.2	343	344	6.5	96.1
2025-10-18T06:02	10	0	0.1	0	1	344	0.2	343	344	6.5	96.1
2025-10-18T06:03	10	1	0.1	0	1	344	0.2	343	344	6.5	96.2
2025-10-18T06:04	10	1	0.1	0	1	344	0.2	343	344	6.5	96.2
2025-10-18T06:05	10	1	0.1	1	1	344	0.2	344	344	6.4	96.3
2025-10-18T06:06	10	1	0.1	1	1	344	0.2	343	344	6.4	96.5
2025-10-18T06:07	10	1	0.1	1	1	344	0.2	343	344	6.4	96.6
2025-10-18T06:08	10	1	0.1	1	1	344	0.2	344	345	6.4	96.6
2025-10-18T06:09	10	1	0.1	1	1	344	0.2	343	345	6.4	96.5
2025-10-18T06:10	10	1	0.1	1	1	344	0.2	344	344	6.5	96.4
2025-10-18T06:11	10	1	0.1	1	1	344	0.2	344	345	6.5	96.6
2025-10-18T06:12	10	1	0.1	1	2	344	0.2	344	345	6.5	96.3
2025-10-18T06:13	10	1	0.1	1	2	345	0.2	344	345	6.5	96.3
2025-10-18T06:14	10	2	0.1	1	2	345	0.2	344	345	6.5	96.7
2025-10-18T06:15	10	2	0.1	2	2	345	0.2	344	345	6.5	97.2
2025-10-18T06:16	10	2	0.1	2	2	345	0.2	344	345	6.5	97.0
2025-10-18T06:17	10	2	0.1	2	2	345	0.3	344	345	6.6	95.8
2025-10-18T06:18	10	2	0.1	2	3	345	0.2	344	345	6.6	95.4
2025-10-18T06:19	10	2	0.1	2	2	344	0.2	344	345	6.5	95.5
2025-10-18T06:20	10	2	0.1	2	3	345	0.2	344	345	6.4	96.0
2025-10-18T06:21	10	2	0.0	2	3	345	0.2	344	345	6.4	96.3
2025-10-18T06:22	10	3	0.1	2	3	345	0.2	344	345	6.4	96.2
2025-10-18T06:23	10	3	0.1	3	3	345	0.2	345	346	6.4	96.1
2025-10-18T06:24	10	3	0.1	3	3	345	0.2	344	345	6.4	96.4
2025-10-18T06:25	10	3	0.1	3	3	345	0.2	345	345	6.4	96.2
2025-10-18T06:26	10	3	0.1	3	3	345	0.2	345	346	6.4	96.4
2025-10-18T06:27	10	3	0.1	3	4	345	0.3	345	346	6.4	96.2
2025-10-18T06:28	10	3	0.1	3	4	345	0.2	345	346	6.5	96.0
2025-10-18T06:29	10	3	0.0	3	3	345	0.2	345	346	6.5	96.1
2025-10-18T06:30	10	3	0.1	3	4	345	0.2	345	346	6.5	96.3
2025-10-18T06:31	10	3	0.1	3	4	345	0.2	345	346	6.5	96.4
2025-10-18T06:32	10	4	0.1	4	4	345	0.2	345	346	6.5	96.6
2025-10-18T06:33	10	4	0.1	4	4	345	0.2	345	346	6.5	96.9
2025-10-18T06:34	10	4	0.1	4	4	345	0.3	345	346	6.5	97.0
2025-10-18T06:35	10	4	0.1	4	5	345	0.3	345	346	6.5	96.6
2025-10-18T06:36	10	5	0.1	4	5	346	0.2	345	346	6.5	96.6
2025-10-18T06:37	10	5	0.1	5	5	346	0.3	345	346	6.5	96.7
2025-10-18T06:38	10	5	0.1	5	5	346	0.2	345	346	6.5	96.7
2025-10-18T06:39	10	5	0.1	5	5	346	0.2	345	347	6.5	96.6
2025-10-18T06:40	10	5	0.1	5	5	346	0.2	346	347	6.5	96.8
2025-10-18T06:41	10	5	0.1	5	5	346	0.3	346	347	6.5	96.3
2025-10-18T06:42	10	5	0.1	5	6	347	0.2	346	347	6.6	95.8
2025-10-18T06:43	10	6	0.1	5	6	347	0.2	346	347	6.6	95.8
2025-10-18T06:44	10	6	0.1	6	6	347	0.2	346	347	6.6	96.3
2025-10-18T06:45	10	6	0.1	6	6	347	0.2	347	347	6.6	96.9
2025-10-18T06:46	10	6	0.1	6	7	347	0.2	347	348	6.6	96.0
2025-10-18T06:47	10	6	0.1	6	7	347	0.2	347	348	6.6	95.7
2025-10-18T06:48	10	7	0.1	6	7	347	0.2	347	348	6.7	96.1
2025-10-18T06:49	10	7	0.1	7	7	347	0.2	347	348	6.7	96.0
2025-10-18T06:50	10	7	0.1	7	7	348	0.2	347	348	6.7	95.7
2025-10-18T06:51	10	7	0.1	7	7	348	0.2	347	348	6.7	95.7
2025-10-18T06:52	10	7	0.1	7	8	347	0.2	347	348	6.7	95.9
2025-10-18T06:53	10	8	0.1	7	8	348	0.2	347	348	6.7	95.8
2025-10-18T06:54	10	8	0.1	8	8	348	0.2	347	348	6.7	95.6
2025-10-18T06:55	10	8	0.1	8	8	348	0.2	348	349	6.7	95.3
2025-10-18T06:56	10	8	0.1	8	8	348	0.2	348	349	6.7	95.5
2025-10-18T06:57	10	9	0.1	8	9	348	0.2	348	349	6.7	95.5
2025-10-18T06:58	10	9	0.1	9	9	349	0.3	348	349	6.8	95.4
2025-10-18T06:59	10	9	0.1	9	9	349	0.2	348	349	6.8	95.4
2025-10-18T07:00	10	9	0.1	9	9	349	0.2	348	349	6.8	93.8
2025-10-18T07:01	10	9	0.1	9	10	349	0.2	349	349	6.8	95.4
2025-10-18T07:02	10	10	0.1	9	10	349	0.3	348	350	6.7	92.2
2025-10-18T07:03	10	10	0.1	10	10	349	0.2	349	350	6.8	95.4
2025-10-18T07:04	10	10	0.1	10	10	349	0.2	349	350	6.8	95.4
2025-10-18T07:05	10	11	0.1	10	11	349	0.2	349	350	6.8	95.4
2025-10-18T07:06	10	11	0.1	11	11	350	0.2	349	350	6.8	95.4
2025-10-18T07:07	10	11	0.1	11	11	350	0.2	349	350	6.8	95.4
2025-10-18T07:08	10	11	0.1	11	11	350	0.2	349	350	6.8	93.3
2025-10-18T07:09	10	11	0.1	11	11	350	0.2	349	350	6.8	92.7
2025-10-18T07:10	10	12	0.1	11	12	350	0.3	350	351	6.9	93.3
2025-10-18T07:11	10	12	0.1	12	12	350	0.2	349	351	6.9	94.2
2025-10-18T07:12	10	12	0.1	12	12	350	0.2	350	351	6.9	94.2
2025-10-18T07:13	10	12	0.1	12	12	350	0.3	350	351	6.9	94.7
2025-10-18T07:14	10	12	0.1	12	13	350	0.3	350	351	6.9	94.8
2025-10-18T07:15	10	12	0.1	12	13	351	0.2	350	351	6.9	94.9
2025-10-18T07:16	10	12	0.1	12	13	351	0.3	350	352	7.0	94.8
2025-10-18T07:17	10	12	0.1	12	13	351	0.3	350	352	6.9	94.9
2025-10-18T07:18	10	13	0.1	12	13	351	0.3	351	352	7.0	95.6
2025-10-18T07:19	10	13	0.2	13	13	351	0.3	351	352	7.0	95.6
2025-10-18T07:20	10	14	0.2	13	14	352	0.2	351	352	7.0	95.4
2025-10-18T07:21	10	14	0.2	14	14	352	0.2	351	352	7.0	95.4
2025-10-18T07:22	10	14	0.1	14	15	352	0.3	351	352	7.0	95.5
2025-10-18T07:23	10	15	0.1	15	15	352	0.2	351	352	7.0	95.5
2025-10-18T07:24	10	15	0.1	15	15	352	0.2	352	353	7.0	95.4
2025-10-18T07:25	10	15	0.1	15	15	352	0.2	351	352	7.0	95.4
2025-10-18T07:26	10	15	0.1	15	16	352	0.2	351	352	7.0	95.3
2025-10-18T07:27	10	16	0.1	15	16	352	0.2	352	353	7.0	95.3
2025-10-18T07:28	10	16	0.1	16	16	352	0.2	352	353	7.1	95.2
2025-10-18T07:29	10	16	0.1	16	16	352	0.3	352	353	7.1	95.4
2025-10-18T07:30	10	17	0.4	16	19	352	0.3	352	353	7.1	95.1
2025-10-18T07:31	10	17	0.1	17	17	352	0.3	352	353	7.1	94.9
2025-10-18T07:32	10	17	0.1	17	17	353	0.3	352	353	7.1	95.0
2025-10-18T07:33	10	17	0.1	17	17	353	0.3	352	354	7.1	95.0
2025-10-18T07:34	10	17	0.1	17	17	353	0.2	353	354	7.1	94.8
2025-10-18T07:35	10	17	0.1	17	17	353	0.2	353	354	7.1	94.3
2025-10-18T07:36	10	17	0.1	17	17	353	0.2	353	354	7.2	94.3
2025-10-18T07:37	10	17	0.1	17	17	353	0.2	352	353	7.1	93.8
2025-10-18T07:38	10	17	0.1	17	17	353	0.2	352	353	7.1	94.2
2025-10-18T07:39	10	18	0.1	17	18	353	0.2	352	353	7.1	94.2
2025-10-18T07:40	10	18	0.2	18	18	353	0.2	352	353	7.1	94.1
2025-10-18T07:41	10	18	0.2	18	19	353	0.3	353	354	7.1	94.2
2025-10-18T07:42	10	19	0.2	19	20	354	0.2	353	354	7.1	94.3
2025-10-18T07:43	10	20	0.2	19	20	354	0.3	353	355	7.3	94.7
2025-10-18T07:44	10	20	0.1	20	20	354	0.2	354	355	7.3	94.9
2025-10-18T07:45	10	21	0.1	20	21	354	0.2	354	355	7.3	94.5
2025-10-18T07:46	10	21	0.1	21	21	355	0.2	354	355	7.3	93.5
2025-10-18T07:47	10	21	0.1	21	21	355	0.2	354	355	7.3	93.7
2025-10-18T07:48	10	21	0.1	21	21	355	0.3	354	356	7.4	93.6
2025-10-18T07:49	10	21	0.1	21	22	356	0.2	355	356	7.4	93.5
2025-10-18T07:50	10	22	0.1	22	22	356	0.4	355	357	7.4	93.7
2025-10-18T07:51	10	22	0.1	22	22	356	0.2	355	356	7.3	93.0
2025-10-18T07:52	10	22	0.1	22	23	356	0.2	355	356	7.4	93.4
2025-10-18T07:53	10	23	0.1	22	23	355	0.3	355	356	7.4	93.2
2025-10-18T07:54	10	23	0.1	22	23	355	0.2	355	356	7.3	93.1
2025-10-18T07:55	10	23	0.1	23	23	355	0.3	355	356	7.3	92.9
2025-10-18T07:56	10	23	0.1	23	23	356	0.3	355	356	7.4	93.1
2025-10-18T07:57	10	23	0.1	23	23	356	0.2	355	356	7.3	92.7
2025-10-18T07:58	10	23	0.1	23	24	356	0.2	355	356	7.3	92.6
2025-10-18T07:59	10	24	0.1	23	24	356	0.2	355	356	7.3	92.6
2025-10-18T08:00	10	24	0.2	24	24	356	0.2	355	356	7.4	92.8
2025-10-18T08:01	10	24	0.2	24	25	356	0.2	356	357	7.4	93.0
2025-10-18T08:02	10	25	0.1	24	25	357	0.3	356	357	7.4	92.5
2025-10-18T08:03	10	25	0.1	25	25	357	0.3	356	358	7.5	92.4
2025-10-18T08:04	10	25	0.1	25	25	357	0.3	356	358	7.5	92.1
2025-10-18T08:05	10	25	0.1	25	25	356	0.2	356	357	7.4	92.0
2025-10-18T08:06	10	25	0.1	25	25	357	0.2	356	357	7.5	92.5
2025-10-18T08:07	10	25	0.1	25	25	356	0.2	356	357	7.4	92.0
2025-10-18T08:08	10	25	0.1	25	25	357	0.4	356	358	7.5	92.5
2025-10-18T08:09	10	25	0.1	25	26	357	0.2	357	357	7.5	92.4
2025-10-18T08:10	10	26	0.2	25	26	357	0.2	357	358	7.5	92.5
2025-10-18T08:11	10	26	0.1	26	26	357	0.2	356	357	7.5	92.3
2025-10-18T08:12	10	26	0.1	26	27	357	0.2	357	358	7.5	92.1
2025-10-18T08:13	10	26	0.1	26	27	358	0.2	357	358	7.6	92.3
2025-10-18T08:14	10	26	0.1	26	27	358	0.2	357	358	7.5	92.3
2025-10-18T08:15	10	26	0.1	26	27	358	0.4	357	359	7.5	92.0
2025-10-18T08:16	10	27	0.1	26	27	358	0.2	358	359	7.5	92.1
2025-10-18T08:17	10	27	0.1	27	27	358	0.2	358	359	7.7	93.0
2025-10-18T08:18	10	27	0.2	27	28	358	0.2	358	359	7.6	92.5
2025-10-18T08:19	10	28	0.1	27	28	358	0.2	358	359	7.6	91.8
2025-10-18T08:20	10	28	0.1	27	28	358	0.3	358	359	7.6	91.8
2025-10-18T08:21	10	27	0.1	27	28	359	0.2	358	359	7.6	92.0
2025-10-18T08:22	10	27	0.1	27	27	359	0.2	358	359	7.6	91.2
2025-10-18T08:23	10	27	0.1	27	27	359	0.2	358	359	7.7	91.6
2025-10-18T08:24	10	27	0.1	26	27	359	0.2	358	359	7.7	91.9
2025-10-18T08:25	10	27	0.1	26	27	358	0.3	358	359	7.7	91.5
2025-10-18T08:26	10	27	0.1	26	27	358	0.2	358	359	7.7	91.5
2025-10-18T08:27	10	27	0.2	27	27	359	0.2	358	359	7.7	91.6
2025-10-18T08:28	10	28	0.2	27	28	358	0.3	358	359	7.7	91.6
2025-10-18T08:29	10	28	0.2	28	29	358	0.2	358	359	7.7	91.3
2025-10-18T08:30	10	29	0.2	29	29	358	0.3	358	359	7.6	91.0
2025-10-18T08:31	10	29	0.1	29	30	359	0.3	358	359	7.6	91.0
2025-10-18T08:32	10	30	0.1	30	30	359	0.2	358	359	7.6	90.9
2025-10-18T08:33	10	30	0.1	30	30	359	0.4	358	360	7.6	91.1
2025-10-18T08:34	10	30	0.1	30	31	359	0.2	359	360	7.7	91.2
2025-10-18T08:35	10	31	0.1	31	31	360	0.2	359	360	7.7	91.1
2025-10-18T08:36	10	31	0.1	31	31	359	0.2	359	360	7.7	90.6
2025-10-18T08:37	10	32	0.2	31	32	360	0.4	359	360	7.7	90.8
2025-10-18T08:38	10	32	0.2	32	32	360	0.2	360	361	7.8	91.0
2025-10-18T08:39	10	33	0.3	32	33	361	0.5	360	361	7.8	90.8
2025-10-18T08:40	10	34	0.3	33	34	361	0.3	360	362	8.0	91.8
2025-10-18T08:41	10	35	0.3	34	35	361	0.2	360	361	7.9	90.4
2025-10-18T08:42	10	35	0.2	35	36	361	0.2	360	361	7.9	89.3
2025-10-18T08:43	10	36	0.1	36	36	361	0.3	360	362	7.9	89.4
2025-10-18T08:44	10	36	0.1	36	36	362	0.3	361	363	8.0	90.1
2025-10-18T08:45	10	36	0.1	36	36	362	0.3	362	363	8.0	89.7
2025-10-18T08:46	10	36	0.1	36	36	363	0.2	362	363	8.0	89.4
2025-10-18T08:47	10	36	0.2	36	37	363	0.3	362	364	8.0	89.6
2025-10-18T08:48	10	37	0.2	37	37	363	0.3	363	364	8.1	90.0
2025-10-18T08:49	10	37	0.1	37	38	363	0.2	362	363	8.0	89.2
2025-10-18T08:50	10	38	0.1	37	38	363	0.2	362	363	8.1	90.0
2025-10-18T08:51	10	37	0.1	37	38	363	0.2	362	363	8.1	90.0
2025-10-18T08:52	10	37	0.1	37	37	362	0.4	361	363	8.1	89.8
2025-10-18T08:53	10	37	0.1	37	37	362	0.3	362	363	8.0	89.8
2025-10-18T08:54	10	37	0.1	37	37	362	0.4	361	363	8.0	89.7
2025-10-18T08:55	10	37	0.1	37	37	362	0.3	361	362	7.9	89.4
2025-10-18T08:56	10	37	0.1	37	38	361	0.4	360	362	7.8	89.5
2025-10-18T08:57	10	37	0.1	37	38	361	0.3	360	361	7.8	89.7
2025-10-18T08:58	10	38	0.1	37	38	361	0.3	360	362	7.9	89.8
2025-10-18T08:59	10	38	0.2	38	38	361	0.4	361	362	8.0	88.9
2025-10-18T09:00	10	38	0.2	38	39	362	0.3	361	363	8.0	87.3
2025-10-18T09:01	10	39	0.2	38	39	362	0.3	362	363	8.0	87.2
2025-10-18T09:02	10	39	0.1	39	39	362	0.3	362	363	8.2	87.4
2025-10-18T09:03	10	39	0.1	39	39	362	0.3	362	363	8.1	86.8
2025-10-18T09:04	10	39	0.2	39	40	362	0.2	361	362	8.1	86.2
2025-10-18T09:05	10	40	0.2	39	40	363	0.5	362	364	8.2	86.7
2025-10-18T09:06	10	40	0.1	40	40	363	0.3	363	364	8.3	86.1
2025-10-18T09:07	10	40	0.1	39	40	363	0.3	363	364	8.2	85.7
2025-10-18T09:08	10	40	0.2	39	40	362	0.2	362	363	8.2	85.5
2025-10-18T09:09	10	39	0.2	39	40	363	0.4	363	364	8.3	86.4
2025-10-18T09:10	10	39	0.1	39	39	364	0.3	363	364	8.3	85.8
2025-10-18T09:11	10	39	0.1	39	39	363	0.2	363	364	8.2	85.6
2025-10-18T09:12	10	39	0.2	39	40	364	0.4	363	364	8.3	86.4
2025-10-18T09:13	10	40	0.2	39	40	364	0.4	364	365	8.4	86.3
2025-10-18T09:14	10	40	0.2	40	41	365	0.3	365	366	8.4	86.3
2025-10-18T09:15	10	41	0.2	40	41	365	0.3	365	366	8.5	86.7
2025-10-18T09:16	10	41	0.2	41	42	364	0.3	364	365	8.4	85.9
2025-10-18T09:17	10	42	0.1	41	42	364	0.3	364	365	8.3	86.0
2025-10-18T09:18	10	42	0.1	41	42	364	0.3	364	365	8.3	86.7
2025-10-18T09:19	10	42	0.1	42	42	364	0.3	364	365	8.3	86.6
2025-10-18T09:20	10	42	0.1	42	43	364	0.4	364	365	8.3	86.4
2025-10-18T09:21	10	42	0.1	42	43	364	0.3	364	365	8.3	86.7
2025-10-18T09:22	10	43	0.2	42	44	365	0.2	364	365	8.3	86.7
2025-10-18T09:23	10	43	0.1	43	43	365	0.3	364	366	8.3	86.7
2025-10-18T09:24	10	43	0.2	43	44	365	0.3	364	365	8.3	86.8
2025-10-18T09:25	10	43	0.2	43	44	365	0.4	364	366	8.4	87.4
2025-10-18T09:26	10	43	0.1	43	43	365	0.3	364	366	8.5	86.7
2025-10-18T09:27	10	43	0.1	42	43	366	0.4	365	367	8.5	86.8
2025-10-18T09:28	10	43	0.1	42	43	366	0.4	365	367	8.5	86.4
2025-10-18T09:29	10	43	0.2	42	43	366	0.3	365	366	8.5	86.3
2025-10-18T09:30	10	43	0.1	43	44	366	0.2	365	366	8.5	85.7
2025-10-18T09:31	10	44	0.1	43	44	366	0.3	365	367	8.5	85.9
2025-10-18T09:32	10	43	0.2	43	44	366	0.2	365	366	8.5	85.4
2025-10-18T09:33	10	43	0.2	43	43	366	0.3	365	366	8.5	84.4
2025-10-18T09:34	10	42	0.3	42	43	365	0.2	365	366	8.5	84.8
2025-10-18T09:35	10	42	0.2	41	42	366	0.2	365	366	8.5	85.1
2025-10-18T09:36	10	41	0.1	41	42	366	0.4	366	367	8.6	84.8
2025-10-18T09:37	10	41	0.1	41	41	366	0.4	365	367	8.7	83.9
2025-10-18T09:38	10	41	0.1	41	42	366	0.3	365	367	8.7	84.1
2025-10-18T09:39	10	41	0.2	41	42	366	0.3	365	366	8.7	84.4
2025-10-18T09:40	10	42	0.2	42	43	366	0.2	366	367	8.8	85.6
2025-10-18T09:41	10	43	0.2	42	43	366	0.3	365	367	8.7	84.1
2025-10-18T09:42	10	43	0.2	43	44	366	0.2	366	367	8.7	84.4
2025-10-18T09:43	10	44	0.2	44	44	367	0.5	366	368	8.7	84.4
2025-10-18T09:44	10	45	0.2	44	45	368	0.3	367	368	8.9	84.3
2025-10-18T09:45	10	45	0.2	45	45	368	0.2	368	368	8.9	83.4
2025-10-18T09:46	10	46	0.1	45	46	368	0.4	367	368	8.9	83.2
2025-10-18T09:47	10	46	0.1	46	46	368	0.3	367	368	8.9	83.4
2025-10-18T09:48	10	46	0.1	46	46	367	0.3	367	368	8.7	83.4
2025-10-18T09:49	10	46	0.1	46	46	367	0.2	367	368	8.8	84.4
2025-10-18T09:50	10	46	0.1	46	46	367	0.4	366	368	8.6	84.6
2025-10-18T09:51	10	46	0.1	46	46	367	0.3	366	368	8.7	84.5
2025-10-18T09:52	10	46	0.1	45	46	367	0.3	366	368	8.7	84.5
2025-10-18T09:53	10	46	0.1	45	46	368	0.3	367	368	8.8	84.8
2025-10-18T09:54	10	46	0.1	46	46	369	0.3	368	369	8.8	84.3
2025-10-18T09:55	10	46	0.1	46	46	368	0.4	367	369	9.0	83.5
2025-10-18T09:56	10	46	0.2	46	46	368	0.4	368	369	9.0	81.9
2025-10-18T09:57	10	47	0.2	46	47	368	0.2	368	369	8.9	82.2
2025-10-18T09:58	10	47	0.2	47	47	369	0.4	368	370	8.9	82.7
2025-10-18T09:59	10	48	0.1	47	48	369	0.3	369	370	9.1	82.9
2025-10-18T10:00	10	48	0.1	48	48	370	0.2	369	370	9.2	83.1
2025-10-18T10:01	10	47	0.1	47	48	369	0.5	368	370	9.1	81.2
2025-10-18T10:02	10	47	0.1	47	47	368	0.2	368	369	9.1	80.7
2025-10-18T10:03	10	47	0.1	47	47	369	0.4	368	369	9.1	81.5
2025-10-18T10:04	10	47	0.1	47	47	369	0.3	368	369	9.1	81.2
2025-10-18T10:05	10	47	0.1	47	47	369	0.4	368	370	9.1	82.3
2025-10-18T10:06	10	47	0.1	47	47	370	0.3	369	371	9.4	83.2
2025-10-18T10:07	10	47	0.1	47	48	370	0.4	369	371	9.3	82.0
2025-10-18T10:08	10	48	0.1	48	48	370	0.4	369	371	9.1	81.8
2025-10-18T10:09	10	48	0.2	48	48	370	0.2	370	371	9.2	82.5
2025-10-18T10:10	10	49	0.1	48	49	370	0.3	369	371	9.4	81.5
2025-10-18T10:11	10	49	0.1	49	49	370	0.3	370	371	9.2	80.2
2025-10-18T10:12	10	49	0.1	49	49	371	0.3	370	371	9.3	81.7
2025-10-18T10:13	10	49	0.1	49	49	371	0.4	370	371	9.3	82.4
2025-10-18T10:14	10	48	0.1	48	49	370	0.3	370	371	9.4	83.2
2025-10-18T10:15	10	48	0.1	48	48	371	0.4	370	371	9.5	82.1
2025-10-18T10:16	10	48	0.1	48	48	370	0.2	370	371	9.3	81.0
2025-10-18T10:17	10	47	0.2	47	48	370	0.2	370	371	9.2	81.2
2025-10-18T10:18	10	47	0.2	47	47	370	0.2	370	371	9.2	79.7
2025-10-18T10:19	10	47	0.1	46	47	370	0.2	370	371	9.3	80.5
2025-10-18T10:20	10	46	0.1	46	47	371	0.2	371	372	9.4	80.4
2025-10-18T10:21	10	47	0.2	46	47	371	0.3	371	372	9.5	80.7
2025-10-18T10:22	10	48	0.2	47	48	371	0.2	371	372	9.5	79.6
2025-10-18T10:23	10	48	0.2	48	49	371	0.4	370	371	9.4	77.1
2025-10-18T10:24	10	49	0.1	48	49	371	0.3	370	371	9.5	78.0
2025-10-18T10:25	10	49	0.1	49	49	371	0.2	370	372	9.5	76.5
2025-10-18T10:26	10	49	0.1	49	49	371	0.4	370	372	9.5	75.8
2025-10-18T10:27	10	49	0.1	49	49	371	0.4	370	372	9.5	76.4
2025-10-18T10:28	10	49	0.1	49	50	371	0.2	371	372	9.4	76.3
2025-10-18T10:29	10	49	0.2	49	50	371	0.3	371	372	9.5	77.6
2025-10-18T10:30	10	49	0.2	48	49	371	0.2	371	372	9.5	77.4
2025-10-18T10:31	10	48	0.3	47	49	371	0.3	371	372	9.5	77.6
2025-10-18T10:32	10	47	0.1	47	48	372	0.2	371	372	9.6	78.0
2025-10-18T10:33	10	47	0.1	47	48	371	0.3	371	372	9.6	78.3
2025-10-18T10:34	10	47	0.1	47	48	372	0.3	371	372	9.5	78.1
2025-10-18T10:35	10	48	0.1	48	48	373	0.4	372	373	9.6	77.7
2025-10-18T10:36	10	48	0.1	48	48	372	0.3	372	373	9.6	74.8
2025-10-18T10:37	10	48	0.1	48	48	373	0.3	372	373	9.5	75.7
2025-10-18T10:38	10	48	0.1	48	49	373	0.3	372	374	9.8	77.8
2025-10-18T10:39	10	48	0.1	48	49	374	0.2	373	374	9.9	77.4
2025-10-18T10:40	10	48	0.1	48	49	373	0.3	373	374	10.0	76.2
2025-10-18T10:41	10	48	0.1	48	49	374	0.3	373	374	9.9	71.8
2025-10-18T10:42	10	48	0.1	48	49	373	0.2	373	374	9.9	75.2
2025-10-18T10:43	10	48	0.1	48	49	373	0.2	373	373	9.8	71.3
2025-10-18T10:44	10	48	0.1	48	49	373	0.4	372	374	9.8	70.6
2025-10-18T10:45	10	48	0.1	48	48	373	0.2	372	373	9.8	68.5
2025-10-18T10:46	10	48	0.1	47	48	371	0.5	371	372	9.8	67.4
2025-10-18T10:47	10	47	0.2	47	48	371	0.3	371	372	9.8	68.7
2025-10-18T10:48	10	47	0.1	46	47	371	0.3	371	372	9.7	69.3
2025-10-18T10:49	10	46	0.1	46	47	371	0.3	370	372	9.8	70.2
2025-10-18T10:50	10	47	0.1	46	47	371	0.3	371	372	9.7	70.3
2025-10-18T10:51	10	47	0.1	47	47	372	0.3	371	373	9.7	69.9
2025-10-18T10:52	10	47	0.1	47	47	372	0.3	372	373	9.8	70.4
2025-10-18T10:53	10	48	0.1	47	48	373	0.4	372	373	9.9	70.5
2025-10-18T10:54	10	48	0.1	47	48	373	0.3	372	374	10.0	70.6
2025-10-18T10:55	10	47	0.2	47	48	372	0.7	371	373	10.0	69.9
2025-10-18T10:56	10	47	0.1	47	47	371	0.3	370	372	9.8	68.6
2025-10-18T10:57	10	47	0.1	47	47	371	0.2	370	371	9.7	69.7
2025-10-18T10:58	10	47	0.1	47	47	371	0.2	371	372	9.8	69.9
2025-10-18T10:59	10	47	0.1	47	47	372	0.3	371	373	9.9	71.3
2025-10-18T11:00	10	47	0.1	47	47	371	0.4	371	372	9.9	70.2
2025-10-18T11:01	10	47	0.2	46	47	371	0.3	371	372	9.9	69.7
2025-10-18T11:02	10	46	0.2	46	46	372	0.3	371	372	9.8	67.0
2025-10-18T11:03	10	46	0.2	45	46	372	0.3	371	373	9.9	69.5
2025-10-18T11:04	10	45	0.1	45	46	372	0.6	370	372	9.9	69.2
2025-10-18T11:05	10	45	0.1	45	45	371	0.2	370	371	9.8	67.5
2025-10-18T11:06	10	45	0.1	45	46	370	0.3	370	371	9.8	67.4
2025-10-18T11:07	10	46	0.1	46	46	370	0.3	370	371	9.7	66.6
2025-10-18T11:08	10	46	0.1	46	47	372	0.7	370	373	9.8	67.7
2025-10-18T11:09	10	47	0.2	47	47	373	0.6	372	374	10.0	70.0
2025-10-18T11:10	10	48	0.3	47	48	373	0.2	372	374	10.1	70.4
2025-10-18T11:11	10	49	0.3	48	49	373	0.3	373	374	10.0	67.9
2025-10-18T11:12	10	49	0.2	49	50	374	0.3	373	374	10.0	68.1
2025-10-18T11:13	10	50	0.1	50	50	373	0.4	372	374	9.9	67.9
2025-10-18T11:14	10	50	0.1	50	50	372	0.2	372	373	9.9	68.2
2025-10-18T11:15	10	51	0.2	50	51	372	0.4	371	373	9.9	68.3
2025-10-18T11:16	10	51	0.3	51	52	372	0.3	372	373	9.9	68.4
2025-10-18T11:17	10	52	0.3	52	53	373	0.4	372	373	10.0	69.1
2025-10-18T11:18	10	53	0.3	53	54	373	0.3	373	374	10.0	69.1
2025-10-18T11:19	10	54	0.1	54	54	374	0.2	373	374	10.0	68.7
2025-10-18T11:20	10	54	0.1	54	55	374	0.2	373	374	9.9	69.1
2025-10-18T11:21	10	54	0.1	54	55	374	0.3	374	375	9.9	69.3
2025-10-18T11:22	10	54	0.2	53	54	375	0.2	374	375	10.0	70.3
2025-10-18T11:23	10	54	0.2	53	54	375	0.2	374	375	10.0	69.4
2025-10-18T11:24	10	53	0.2	53	54	376	0.5	374	376	10.1	69.7
2025-10-18T11:25	10	54	0.1	53	54	376	0.2	376	376	10.1	69.2
2025-10-18T11:26	10	54	0.1	53	54	376	0.2	376	377	10.2	70.9
2025-10-18T11:27	10	54	0.1	53	54	377	0.4	376	378	10.3	70.3
2025-10-18T11:28	10	53	0.2	53	53	377	0.3	377	378	10.4	71.4
2025-10-18T11:29	10	52	0.3	52	53	377	0.4	376	377	10.3	69.6
2025-10-18T11:30	10	51	0.3	51	52	377	0.2	376	377	10.2	69.5
2025-10-18T11:31	10	50	0.3	50	51	376	0.7	374	377	10.2	69.1
2025-10-18T11:32	10	49	0.2	49	50	375	0.3	374	375	10.0	69.6
2025-10-18T11:33	10	49	0.1	49	49	374	0.2	374	375	10.0	69.8
2025-10-18T11:34	10	49	0.1	49	49	375	0.4	374	375	10.0	69.9
2025-10-18T11:35	10	49	0.1	49	49	376	0.3	375	376	10.1	71.0
2025-10-18T11:36	10	48	0.2	48	49	375	0.6	374	377	10.2	70.8
2025-10-18T11:37	10	48	0.2	48	49	374	0.6	373	375	10.1	70.2
2025-10-18T11:38	10	47	0.4	47	48	373	0.4	373	374	10.0	70.2
2025-10-18T11:39	10	46	0.3	46	47	373	0.3	373	374	9.9	70.8
2025-10-18T11:40	10	46	0.2	45	46	373	0.3	372	373	10.0	70.8
2025-10-18T11:41	10	45	0.3	45	46	372	0.4	371	373	9.9	70.3
2025-10-18T11:42	10	44	0.2	44	45	371	0.3	371	372	10.0	71.5
2025-10-18T11:43	10	44	0.2	44	45	371	0.3	371	372	10.0	70.6
2025-10-18T11:44	10	45	0.2	44	45	371	0.2	371	372	9.9	69.9
2025-10-18T11:45	10	46	0.4	45	46	372	0.4	371	373	9.9	70.2
2025-10-18T11:46	10	47	0.3	46	48	372	0.4	372	373	9.9	70.2
2025-10-18T11:47	10	48	0.4	47	49	373	0.4	372	374	10.0	70.5
2025-10-18T11:48	10	49	0.3	49	50	373	0.3	373	374	9.9	70.5
2025-10-18T11:49	10	50	0.2	50	51	374	0.5	373	375	10.0	70.9
2025-10-18T11:50	10	51	0.2	51	51	375	0.5	374	376	10.0	71.0
2025-10-18T11:51	10	51	0.1	51	52	376	0.3	375	377	10.2	72.1
2025-10-18T11:52	10	52	0.1	51	52	375	0.3	375	376	10.1	70.8
2025-10-18T11:53	10	52	0.1	51	52	375	0.2	374	375	10.1	70.8
2025-10-18T11:54	10	52	0.1	52	52	375	0.2	375	376	10.1	70.3
2025-10-18T11:55	10	52	0.1	51	52	376	0.5	375	377	10.2	70.9
2025-10-18T11:56	10	52	0.1	52	52	377	0.3	376	377	10.2	71.4
2025-10-18T11:57	10	52	0.1	52	52	376	0.4	375	377	10.2	70.2
2025-10-18T11:58	10	52	0.2	52	52	375	0.7	374	376	10.2	70.7
2025-10-18T11:59	10	53	0.1	52	53	374	0.4	373	375	10.2	70.3
2025-10-18T12:00	10	53	0.2	53	54	374	0.4	373	375	10.0	69.6
2025-10-18T12:01	10	54	0.3	53	55	376	0.4	375	377	10.1	70.0
2025-10-18T12:02	10	55	0.2	55	55	377	0.2	376	377	10.1	70.2
2025-10-18T12:03	10	56	0.2	55	56	377	0.4	376	378	10.2	71.2
2025-10-18T12:04	10	56	0.1	56	56	377	0.4	376	377	10.2	70.2
2025-10-18T12:05	10	56	0.1	56	56	377	0.2	376	377	10.3	71.0
2025-10-18T12:06	10	56	0.1	56	56	376	0.4	375	377	10.2	70.2
2025-10-18T12:07	10	56	0.1	56	56	376	0.2	376	377	10.2	70.1
2025-10-18T12:08	10	56	0.1	56	56	377	0.3	377	378	10.2	70.3
2025-10-18T12:09	10	56	0.1	56	56	377	0.5	376	377	10.3	71.2
2025-10-18T12:10	10	56	0.1	56	56	376	0.3	375	376	10.4	70.7
2025-10-18T12:11	10	57	0.2	56	57	376	0.3	375	376	10.4	70.8
2025-10-18T12:12	10	58	0.4	57	58	376	0.4	375	377	10.3	70.0
2025-10-18T12:13	10	59	0.2	58	59	377	0.6	376	378	10.4	71.2
2025-10-18T12:14	10	59	0.1	59	60	377	0.3	376	378	10.2	69.8
2025-10-18T12:15	10	60	0.1	59	60	376	0.4	375	377	10.3	71.0
2025-10-18T12:16	10	60	0.3	60	61	376	0.3	375	377	10.1	69.4
2025-10-18T12:17	10	61	0.4	61	62	377	0.6	376	378	10.1	69.6
2025-10-18T12:18	10	63	0.6	62	64	377	0.5	376	378	10.1	70.4
2025-10-18T12:19	10	66	1.0	64	68	376	0.3	375	376	10.0	69.8
2025-10-18T12:20	10	74	3.7	68	80	378	1.2	376	380	10.1	70.1
2025-10-18T12:21	10	72	0.3	72	73	379	0.4	378	379	10.1	70.1
2025-10-18T12:22	10	78	2.0	73	81	380	0.9	378	382	10.2	70.4
2025-10-18T12:23	10	77	1.2	74	79	380	0.7	379	382	10.3	69.9
2025-10-18T12:24	10	79	3.0	76	84	381	0.5	380	381	10.1	69.1
2025-10-18T12:25	10	71	3.9	66	77	381	0.4	381	382	10.3	69.0
2025-10-18T12:26	10	65	0.6	64	66	380	0.4	380	381	10.4	69.3
2025-10-18T12:27	10	64	0.2	63	64	380	0.3	379	380	10.4	70.1
2025-10-18T12:28	10	63	0.3	62	63	379	1.0	377	380	10.4	70.6
2025-10-18T12:29	10	61	0.4	61	62	377	0.2	377	378	10.3	69.3
2025-10-18T12:30	10	60	0.3	60	61	378	0.5	377	379	10.3	69.8
2025-10-18T12:31	10	59	0.1	59	60	379	0.4	378	380	10.4	70.0
2025-10-18T12:32	10	60	0.3	59	61	378	0.2	378	379	10.3	69.0
2025-10-18T12:33	10	62	0.7	61	63	379	0.6	379	381	10.4	68.6
2025-10-18T12:34	10	64	0.7	63	65	381	0.3	380	381	10.6	70.0
2025-10-18T12:35	10	66	0.3	65	66	381	0.3	381	382	10.7	70.1
2025-10-18T12:36	10	66	0.1	66	66	382	0.5	381	383	10.8	69.9
2025-10-18T12:37	10	65	0.2	65	66	382	0.2	382	383	10.8	68.4
2025-10-18T12:38	10	64	0.4	64	65	382	0.5	381	383	10.9	68.3
2025-10-18T12:39	10	63	0.6	62	64	380	1.2	378	382	10.6	69.5
2025-10-18T12:40	10	61	0.4	60	62	378	0.3	378	379	10.5	69.6
2025-10-18T12:41	10	60	0.2	59	60	380	0.3	379	380	10.5	70.2
2025-10-18T12:42	10	59	0.1	59	60	380	0.4	379	381	10.6	70.4
2025-10-18T12:43	10	60	0.2	60	60	379	0.8	378	381	10.6	70.2
2025-10-18T12:44	10	60	0.2	60	61	377	0.3	377	378	10.5	70.0
2025-10-18T12:45	10	61	0.1	60	61	378	0.3	377	378	10.5	70.4
2025-10-18T12:46	10	60	0.4	59	60	377	0.2	377	378	10.4	70.1
2025-10-18T12:47	10	58	0.2	58	59	377	0.5	376	378	10.3	70.1
2025-10-18T12:48	10	59	0.2	58	59	377	0.3	376	378	10.4	70.9
2025-10-18T12:49	10	59	0.1	59	59	377	0.3	377	378	10.5	70.8
2025-10-18T12:50	10	59	0.2	59	59	376	0.8	374	377	10.3	70.0
2025-10-18T12:51	10	59	0.1	58	59	375	0.2	375	376	10.3	70.3
2025-10-18T12:52	10	60	2.1	58	65	375	0.5	374	376	10.2	70.1
2025-10-18T12:53	10	81	7.2	65	92	378	1.0	375	379	10.3	70.1
2025-10-18T12:54	10	75	6.4	70	91	378	0.6	377	380	10.2	69.6
2025-10-18T12:55	10	62	3.5	58	70	376	1.0	375	378	10.2	70.0
2025-10-18T12:56	10	57	0.5	56	58	375	0.2	374	375	10.3	70.3
2025-10-18T12:57	10	59	1.5	57	61	375	0.5	375	376	10.4	70.1
2025-10-18T12:58	10	59	1.0	58	62	375	0.7	373	376	10.5	70.2
2025-10-18T12:59	10	105	28.0	62	141	376	3.5	372	382	10.4	70.2
2025-10-18T13:00	10	111	13.4	89	131	382	0.6	381	383	10.4	70.4
2025-10-18T13:01	10	137	10.8	99	143	386	2.5	381	389	10.4	69.9
2025-10-18T13:02	10	126	7.9	109	140	388	0.5	387	389	10.5	70.1
2025-10-18T13:03	10	99	9.9	84	114	385	1.1	384	388	10.6	70.3
2025-10-18T13:04	10	127	5.8	115	134	388	1.3	385	390	10.8	69.7
2025-10-18T13:05	10	103	11.3	88	126	387	1.4	385	389	10.9	70.9
2025-10-18T13:06	10	129	1.1	126	130	388	0.7	386	389	10.8	69.9
2025-10-18T13:07	10	129	0.4	128	130	387	0.6	386	388	10.7	70.1
2025-10-18T13:08	10	129	0.6	128	130	387	1.2	385	389	10.6	70.7
2025-10-18T13:09	10	129	0.2	129	130	385	0.4	384	386	10.4	70.3
2025-10-18T13:10	10	129	0.2	129	130	387	0.5	386	388	10.3	70.6
2025-10-18T13:11	10	128	1.8	122	129	388	0.4	388	389	10.4	70.9
2025-10-18T13:12	10	104	14.4	83	122	387	2.0	384	389	10.5	70.8
2025-10-18T13:13	10	120	15.4	86	132	386	1.9	383	390	10.5	70.5
2025-10-18T13:14	10	117	13.3	87	132	389	0.4	388	390	10.6	70.4
2025-10-18T13:15	10	54	12.7	42	85	383	4.0	377	390	10.5	70.6
2025-10-18T13:16	10	40	1.3	38	42	377	1.1	375	380	10.4	70.5
2025-10-18T13:17	10	37	0.5	36	38	375	0.6	374	376	10.6	71.3
2025-10-18T13:18	10	42	3.8	36	49	373	0.6	372	374	10.5	70.5
2025-10-18T13:19	10	38	0.8	37	40	372	0.3	371	372	10.4	70.3
2025-10-18T13:20	10	79	17.5	41	101	375	3.2	371	380	10.4	70.5
2025-10-18T13:21	10	103	19.5	69	126	382	2.1	379	385	10.6	70.3
2025-10-18T13:22	10	119	6.0	109	127	386	1.1	383	388	10.7	70.3
2025-10-18T13:23	10	131	1.6	127	132	389	1.3	387	391	10.8	70.2
2025-10-18T13:24	10	102	17.5	68	127	389	1.7	385	391	10.9	70.3
2025-10-18T13:25	10	45	5.5	42	65	382	2.7	377	386	10.9	69.9
2025-10-18T13:26	10	50	4.8	42	56	376	0.9	375	379	10.6	70.5
2025-10-18T13:27	10	62	8.7	51	75	377	0.7	376	378	10.6	71.3
2025-10-18T13:28	10	53	12.1	41	75	376	0.9	374	377	10.6	71.3
2025-10-18T13:29	10	49	5.8	42	58	374	0.4	373	375	10.6	70.9
2025-10-18T13:30	10	54	11.7	41	75	373	0.9	372	375	10.5	70.4
2025-10-18T13:31	10	85	20.0	43	108	375	2.9	371	380	10.5	70.6
2025-10-18T13:32	10	80	7.2	68	95	378	0.3	377	379	10.5	70.2
2025-10-18T13:33	10	109	11.6	70	118	381	2.4	377	384	10.6	70.5
2025-10-18T13:34	10	116	3.0	109	120	385	0.8	383	386	10.6	70.4
2025-10-18T13:35	10	105	13.8	80	120	386	0.9	384	387	10.7	70.0
2025-10-18T13:36	10	110	10.2	90	121	385	1.1	383	387	10.7	70.4
2025-10-18T13:37	10	120	2.0	116	122	385	0.4	384	385	10.6	69.9
2025-10-18T13:38	10	110	4.9	105	121	385	0.4	384	385	10.6	70.3
2025-10-18T13:39	10	75	27.9	34	111	383	2.5	378	386	10.6	69.8
2025-10-18T13:40	10	58	33.2	30	116	377	1.8	375	381	10.6	69.9
2025-10-18T13:41	10	116	0.1	116	116	384	1.6	380	386	10.6	69.8
2025-10-18T13:42	10	117	0.2	117	117	386	0.9	384	388	10.7	70.5
2025-10-18T13:43	10	118	0.3	117	118	388	0.2	387	388	10.9	71.0
2025-10-18T13:44	10	119	0.6	118	120	388	0.2	387	388	10.9	70.6
2025-10-18T13:45	10	119	0.3	119	120	387	0.3	387	388	11.0	70.5
2025-10-18T13:46	10	117	0.9	115	119	387	0.3	386	388	10.9	68.3
2025-10-18T13:47	10	116	0.3	115	116	388	0.2	387	388	10.9	68.3
2025-10-18T13:48	10	114	1.0	112	115	388	0.4	387	389	10.9	69.6
2025-10-18T13:49	10	113	1.0	111	114	386	1.0	384	388	10.9	67.6
2025-10-18T13:50	10	110	2.3	107	114	385	0.3	385	386	10.8	67.5
2025-10-18T13:51	10	106	2.6	101	110	385	1.1	383	387	10.9	68.3
2025-10-18T13:52	10	111	2.3	103	112	384	0.5	383	385	10.8	68.3
2025-10-18T13:53	10	111	0.8	110	112	384	0.4	383	385	10.7	68.3
2025-10-18T13:54	10	110	0.5	109	111	385	0.3	384	385	10.7	68.7
2025-10-18T13:55	10	108	0.9	106	110	385	0.7	383	386	10.8	69.0
2025-10-18T13:56	10	83	25.0	40	106	382	2.3	376	384	10.9	68.7
2025-10-18T13:57	10	84	16.7	43	106	378	0.9	377	381	10.8	68.1
2025-10-18T13:58	10	106	0.9	104	108	382	0.8	379	383	10.8	68.4
2025-10-18T13:59	10	101	2.0	98	104	383	0.4	382	384	10.8	68.9
2025-10-18T14:00	10	105	2.9	97	107	383	0.4	382	384	11.0	68.7
2025-10-18T14:01	10	106	0.7	104	107	384	0.4	383	385	11.1	67.5
2025-10-18T14:02	10	100	5.7	90	107	385	0.4	384	386	11.4	66.8
2025-10-18T14:03	10	107	0.2	107	107	386	0.4	384	387	11.4	67.4
2025-10-18T14:04	10	107	0.4	106	107	384	0.9	383	386	11.3	68.7
2025-10-18T14:05	10	106	0.2	106	106	383	0.2	383	384	11.1	68.5
2025-10-18T14:06	10	106	0.1	106	106	384	0.4	383	385	11.2	69.2
2025-10-18T14:07	10	106	0.3	106	107	384	0.3	383	385	11.1	68.6
2025-10-18T14:08	10	106	0.4	106	107	385	0.3	384	386	11.1	69.4
2025-10-18T14:09	10	105	1.4	101	106	385	0.3	384	386	11.1	68.8
2025-10-18T14:10	10	62	15.7	46	100	381	2.8	378	386	11.1	69.3
2025-10-18T14:11	10	96	11.4	62	106	381	1.7	378	384	11.0	69.0
2025-10-18T14:12	10	106	0.2	106	106	384	0.8	383	385	11.1	69.4
2025-10-18T14:13	10	105	0.7	104	106	384	0.8	383	386	11.1	69.5
2025-10-18T14:14	10	99	3.8	92	104	383	0.9	381	384	11.1	69.2
2025-10-18T14:15	10	94	1.4	89	96	381	0.5	381	382	11.1	69.0
2025-10-18T14:16	10	62	10.0	51	88	379	1.7	376	382	11.2	69.2
2025-10-18T14:17	10	66	4.1	56	71	376	0.3	376	377	11.1	68.3
2025-10-18T14:18	10	53	9.5	43	70	374	0.8	373	376	10.9	67.9
2025-10-18T14:19	10	64	7.3	53	77	375	0.4	375	376	11.0	68.7
2025-10-18T14:20	10	62	5.7	53	72	376	0.4	375	376	11.0	68.8
2025-10-18T14:21	10	57	8.6	46	78	375	0.5	375	376	11.0	68.7
2025-10-18T14:22	10	91	4.0	79	94	378	1.3	375	380	11.0	68.7
2025-10-18T14:23	10	93	0.2	93	94	380	0.6	379	381	11.0	68.3
2025-10-18T14:24	10	94	0.6	93	95	381	0.6	380	382	11.1	68.8
2025-10-18T14:25	10	83	12.1	53	94	382	0.5	380	382	11.2	69.0
2025-10-18T14:26	10	64	17.7	43	90	378	0.9	377	381	11.1	68.4
2025-10-18T14:27	10	92	0.8	90	92	379	0.6	378	380	11.1	68.8
2025-10-18T14:28	10	80	11.1	55	89	380	0.4	379	381	11.2	69.0
2025-10-18T14:29	10	36	9.7	26	55	376	2.4	372	380	11.3	69.5
2025-10-18T14:30	10	28	3.6	23	36	371	1.3	369	373	11.0	67.9
2025-10-18T14:31	10	23	0.3	22	23	368	0.9	367	370	10.9	68.4
2025-10-18T14:32	10	27	6.1	22	45	367	0.3	366	368	10.9	68.7
2025-10-18T14:33	10	74	11.3	46	85	370	2.1	366	373	11.0	69.9
2025-10-18T14:34	10	87	0.7	86	88	373	0.3	372	373	11.0	69.5
2025-10-18T14:35	10	87	1.0	85	88	374	0.7	373	376	10.9	68.4
2025-10-18T14:36	10	85	0.7	83	86	375	0.4	375	376	10.9	68.6
2025-10-18T14:37	10	84	1.0	82	85	376	0.3	375	376	10.9	68.9
2025-10-18T14:38	10	83	0.8	80	83	376	0.3	375	376	11.2	69.9
2025-10-18T14:39	10	61	9.1	50	79	375	1.0	373	376	11.2	68.9
2025-10-18T14:40	10	74	7.8	54	79	374	0.6	372	375	11.2	69.6
2025-10-18T14:41	10	80	0.9	78	81	374	0.4	373	375	11.1	68.3
2025-10-18T14:42	10	80	0.3	80	81	375	0.3	375	376	11.1	69.0
2025-10-18T14:43	10	79	0.3	79	80	375	0.3	374	376	11.1	68.4
2025-10-18T14:44	10	78	0.3	78	79	375	0.3	374	375	11.1	68.6
2025-10-18T14:45	10	77	0.2	77	78	375	0.2	375	376	11.2	69.3
2025-10-18T14:46	10	76	0.4	76	77	375	0.2	374	375	11.1	68.0
2025-10-18T14:47	10	75	0.2	75	76	375	0.3	374	376	11.1	68.2
2025-10-18T14:48	10	75	0.2	74	75	375	0.4	374	376	11.1	67.8
2025-10-18T14:49	10	75	0.2	75	75	375	0.2	375	376	11.2	69.1
2025-10-18T14:50	10	75	0.1	74	75	375	0.3	374	375	11.2	68.2
2025-10-18T14:51	10	74	0.3	73	75	375	0.3	375	376	11.2	69.1
2025-10-18T14:52	10	73	0.4	72	74	375	0.6	374	376	11.2	68.3
2025-10-18T14:53	10	72	0.3	71	73	374	0.2	374	375	11.0	67.6
2025-10-18T14:54	10	72	0.1	71	72	374	0.3	374	375	11.1	68.1
2025-10-18T14:55	10	71	0.2	71	72	374	0.3	373	375	11.1	67.9
2025-10-18T14:56	10	70	0.3	70	71	374	0.4	373	374	11.1	68.5
2025-10-18T14:57	10	69	0.1	69	70	373	0.3	372	374	11.2	68.3
2025-10-18T14:58	10	69	0.5	67	69	372	0.3	372	373	11.1	68.1
2025-10-18T14:59	10	66	0.9	65	68	372	0.3	371	372	11.1	68.5
2025-10-18T15:00	10	65	0.3	64	65	370	0.4	370	371	11.1	68.0
2025-10-18T15:01	10	64	0.6	63	65	370	0.2	370	371	11.0	68.0
2025-10-18T15:02	10	64	0.3	63	64	371	0.4	370	372	11.0	67.8
2025-10-18T15:03	10	64	0.2	64	65	371	0.3	370	371	11.0	68.1
2025-10-18T15:04	10	63	0.4	62	64	370	0.3	369	370	11.0	68.1
2025-10-18T15:05	10	62	0.2	62	63	369	0.2	369	370	11.0	68.3
2025-10-18T15:06	10	62	0.1	62	63	370	0.2	370	370	11.1	69.0
2025-10-18T15:07	10	62	0.4	61	63	369	0.4	369	370	11.1	68.3
2025-10-18T15:08	10	61	0.1	61	61	370	0.4	369	370	11.1	68.3
2025-10-18T15:09	10	61	0.3	60	61	370	0.3	369	370	11.1	68.2
2025-10-18T15:10	10	60	0.3	60	61	369	0.2	368	370	11.0	67.7
2025-10-18T15:11	10	59	0.6	58	60	369	0.2	368	370	11.0	68.2
2025-10-18T15:12	10	58	0.1	58	59	369	0.3	368	370	11.1	68.3
2025-10-18T15:13	10	57	0.9	55	58	369	0.2	368	369	11.0	68.3
2025-10-18T15:14	10	57	0.3	56	58	369	0.3	368	369	11.1	68.4
2025-10-18T15:15	10	58	0.2	57	58	369	0.3	369	370	11.1	68.7
2025-10-18T15:16	10	57	0.2	57	58	369	0.3	368	369	11.1	69.1
2025-10-18T15:17	10	57	0.1	56	57	369	0.3	368	369	11.1	69.2
2025-10-18T15:18	10	56	0.3	56	57	369	0.2	368	369	11.2	69.2
2025-10-18T15:19	10	55	0.3	55	56	369	0.2	368	369	11.2	68.4
2025-10-18T15:20	10	55	0.2	54	55	368	0.3	367	369	11.2	68.9
2025-10-18T15:21	10	54	0.3	53	55	368	0.2	367	368	11.2	69.1
2025-10-18T15:22	10	53	0.3	52	53	368	0.2	367	368	11.2	69.6
2025-10-18T15:23	10	53	0.2	52	53	367	0.4	366	368	11.2	69.3
2025-10-18T15:24	10	52	0.2	52	52	367	0.2	366	367	11.1	69.4
2025-10-18T15:25	10	51	0.4	51	52	366	0.3	365	367	11.1	69.0
2025-10-18T15:26	10	50	0.2	50	51	366	0.3	365	366	11.1	69.6
2025-10-18T15:27	10	50	0.2	49	50	366	0.3	365	366	11.0	69.3
2025-10-18T15:28	10	49	0.2	48	49	365	0.3	364	366	11.0	69.4
2025-10-18T15:29	10	48	0.2	48	49	365	0.2	364	365	10.9	68.2
2025-10-18T15:30	10	48	0.2	47	48	364	0.2	364	365	10.9	68.5
2025-10-18T15:31	10	47	0.1	47	48	364	0.3	364	365	10.9	68.2
2025-10-18T15:32	10	47	0.2	46	47	364	0.2	364	365	10.9	68.2
2025-10-18T15:33	10	46	0.2	46	47	364	0.2	364	365	10.9	68.8
2025-10-18T15:34	10	45	0.2	45	46	364	0.2	364	365	11.0	69.5
2025-10-18T15:35	10	45	0.4	44	45	364	0.3	363	364	11.0	69.8
2025-10-18T15:36	10	43	0.4	42	44	364	0.3	363	364	11.0	69.7
2025-10-18T15:37	10	43	0.2	43	43	363	0.3	363	364	11.0	69.9
2025-10-18T15:38	10	42	0.5	41	43	363	0.4	362	364	10.9	69.2
2025-10-18T15:39	10	39	0.9	38	41	362	0.4	362	363	10.9	69.0
2025-10-18T15:40	10	39	0.2	39	39	362	0.2	361	362	10.9	69.5
2025-10-18T15:41	10	39	0.1	39	39	362	0.2	361	362	11.0	69.9
2025-10-18T15:42	10	39	0.1	39	39	361	0.2	361	362	11.0	70.3
2025-10-18T15:43	10	38	0.2	38	39	361	0.2	361	362	10.9	70.0
2025-10-18T15:44	10	38	0.1	38	38	361	0.3	360	362	10.9	70.2
2025-10-18T15:45	10	38	0.1	38	38	361	0.2	360	361	10.9	70.6
2025-10-18T15:46	10	38	0.4	37	38	360	0.2	360	361	10.9	70.7
2025-10-18T15:47	10	36	0.7	34	37	360	0.2	359	361	10.8	69.4
2025-10-18T15:48	10	31	2.1	28	34	359	0.4	359	360	10.8	69.6
2025-10-18T15:49	10	26	0.7	25	27	358	0.3	358	359	10.8	70.0
2025-10-18T15:50	10	23	1.0	21	25	358	0.2	357	359	10.8	70.0
2025-10-18T15:51	10	17	1.4	16	21	357	0.5	356	358	10.7	70.5
2025-10-18T15:52	10	16	0.6	15	17	356	0.3	355	357	10.6	71.2
2025-10-18T15:53	10	17	0.6	16	18	356	0.3	355	356	10.6	71.2
2025-10-18T15:54	10	16	0.3	16	17	355	0.4	354	356	10.6	71.3
2025-10-18T15:55	10	15	1.2	14	17	354	0.2	354	355	10.6	71.5
2025-10-18T15:56	10	12	0.8	11	14	354	0.3	353	354	10.5	71.6
2025-10-18T15:57	10	11	0.1	11	12	353	0.2	353	354	10.5	71.6
2025-10-18T15:58	10	12	0.2	11	12	353	0.3	352	354	10.5	71.2
2025-10-18T15:59	10	13	0.4	12	13	353	0.2	352	353	10.4	71.7
2025-10-18T16:00	10	15	0.7	13	16	352	0.3	352	353	10.4	71.6
2025-10-18T16:01	10	17	0.4	16	18	352	0.2	351	353	10.4	71.6
2025-10-18T16:02	10	17	0.3	17	18	352	0.2	351	352	10.5	71.4
2025-10-18T16:03	10	18	0.1	18	18	352	0.2	351	352	10.5	71.4
2025-10-18T16:04	10	18	0.3	18	19	352	0.3	351	352	10.5	71.6
2025-10-18T16:05	10	19	0.1	18	19	352	0.2	351	352	10.5	71.7
2025-10-18T16:06	10	18	0.1	18	19	352	0.3	351	352	10.4	71.8
2025-10-18T16:07	10	19	0.2	19	19	352	0.2	351	352	10.4	71.8
2025-10-18T16:08	10	19	0.2	19	19	351	0.2	350	352	10.4	72.4
2025-10-18T16:09	10	18	0.6	17	18	351	0.2	350	351	10.4	72.4
2025-10-18T16:10	10	15	0.9	13	17	351	0.3	350	351	10.4	72.4
2025-10-18T16:11	10	12	0.4	12	13	350	0.3	350	351	10.4	72.3
2025-10-18T16:12	10	12	0.2	12	13	350	0.2	349	350	10.4	72.4
2025-10-18T16:13	10	12	0.2	12	13	350	0.2	349	350	10.4	72.1
2025-10-18T16:14	10	11	0.4	11	12	349	0.2	349	350	10.4	72.4
2025-10-18T16:15	10	10	0.6	9	11	349	0.2	348	349	10.4	72.1
2025-10-18T16:16	10	8	0.3	8	9	349	0.3	348	350	10.4	72.2
2025-10-18T16:17	10	7	0.4	6	8	348	0.3	348	349	10.3	72.6
2025-10-18T16:18	10	5	0.5	4	6	348	0.2	347	348	10.3	73.1
2025-10-18T16:19	10	4	0.2	4	4	347	0.2	347	348	10.3	73.1
2025-10-18T16:20	10	4	0.2	3	4	347	0.2	347	348	10.2	73.2
2025-10-18T16:21	10	3	0.2	3	4	347	0.3	346	347	10.2	73.0
2025-10-18T16:22	10	3	0.2	3	4	347	0.3	346	348	10.2	73.3
2025-10-18T16:23	10	3	0.2	3	3	346	0.5	345	347	10.1	73.8
2025-10-18T16:24	10	3	0.2	2	3	345	0.3	344	345	10.0	74.5
2025-10-18T16:25	10	2	0.2	2	3	344	0.3	343	345	9.9	75.1
2025-10-18T16:26	10	2	0.2	2	3	344	0.3	343	344	9.8	75.8
2025-10-18T16:27	10	2	0.2	2	3	343	0.3	342	344	9.8	76.1
2025-10-18T16:28	10	2	0.1	1	2	342	0.3	342	343	9.8	76.2
2025-10-18T16:29	10	2	0.2	1	2	341	0.3	341	342	9.8	76.4
2025-10-18T16:30	10	1	0.1	1	2	340	0.2	340	341	9.7	76.8
2025-10-18T16:31	10	1	0.1	1	2	340	0.3	340	341	9.7	77.3
2025-10-18T16:32	10	1	0.1	1	1	340	0.3	339	340	9.7	77.3
2025-10-18T16:33	10	1	0.1	1	1	340	0.3	339	341	9.7	77.2
2025-10-18T16:34	10	1	0.1	1	1	340	0.2	340	341	9.7	77.5
2025-10-18T16:35	10	1	0.1	1	1	340	0.2	339	340	9.6	78.0
2025-10-18T16:36	10	1	0.0	0	1	339	0.2	339	340	9.6	78.6
2025-10-18T16:37	10	0	0.1	0	1	339	0.2	339	340	9.6	78.4
2025-10-18T16:38	10	0	0.1	0	1	339	0.2	338	339	9.6	78.5
2025-10-18T16:39	10	1	0.1	1	1	339	0.1	338	339	9.6	78.5
2025-10-18T16:40	10	0	0.1	0	0	339	0.2	338	339	9.5	78.8
2025-10-18T16:41	10	0	0.1	0	0	338	0.2	338	339	9.4	79.0
2025-10-18T16:42	10	0	0.1	0	0	338	0.3	337	338	9.4	79.2
2025-10-18T16:43	10	0	0.1	0	0	338	0.3	337	339	9.4	78.7
2025-10-18T16:44	10	0	0.1	0	0	338	0.2	338	339	9.4	78.7
2025-10-18T16:45	10	0	0.1	0	0	338	0.3	337	338	9.4	79.1
2025-10-18T16:46	10	0	0.1	0	0	337	0.2	337	338	9.4	78.9
2025-10-18T16:47	10	0	0.1	0	0	337	0.2	336	337	9.4	78.6
2025-10-18T16:48	10	0	0.1	0	0	336	0.2	336	337	9.4	78.7
2025-10-18T16:49	10	0	0.1	0	0	336	0.3	335	337	9.4	78.5
2025-10-18T16:50	10	0	0.1	0	0	336	0.2	336	337	9.4	78.1
2025-10-18T16:51	10	0	0.1	0	0	336	0.2	335	337	9.5	77.8
2025-10-18T16:52	10	0	0.1	0	0	336	0.3	335	337	9.4	77.8
2025-10-18T16:53	10	0	0.1	0	0	336	0.2	335	336	9.5	77.4
2025-10-18T16:54	10	0	0.1	0	0	336	0.2	336	337	9.5	77.1
2025-10-18T16:55	10	0	0.1	0	0	337	0.3	336	337	9.6	76.9
2025-10-18T16:56	10	0	0.1	0	0	337	0.3	336	337	9.6	76.9
2025-10-18T16:57	10	0	0.1	0	0	337	0.3	336	337	9.5	76.9
2025-10-18T16:58	10	0	0.1	0	0	337	0.2	336	337	9.6	76.8
2025-10-18T16:59	10	0	0.1	0	0	336	0.4	335	337	9.5	76.8
2025-10-18T17:00	10	0	0.1	0	0	336	0.3	335	336	9.5	76.8
2025-10-18T17:01	10	0	0.1	0	0	335	0.2	335	336	9.4	77.3
2025-10-18T17:02	10	0	0.1	0	0	335	0.3	335	336	9.3	78.2
2025-10-18T17:03	10	0	0.1	0	0	335	0.3	334	336	9.3	78.3
2025-10-18T17:04	10	0	0.1	0	0	335	0.2	335	336	9.3	78.1
2025-10-18T17:05	10	0	0.1	0	0	335	0.3	335	336	9.3	78.1
2025-10-18T17:06	10	0	0.1	0	0	335	0.3	335	336	9.3	78.0
2025-10-18T17:07	10	0	0.1	0	0	335	0.2	335	336	9.3	78.1
2025-10-18T17:08	10	0	0.1	0	0	335	0.2	335	336	9.3	77.9
2025-10-18T17:09	10	0	0.1	0	0	335	0.2	334	335	9.4	77.5
2025-10-18T17:10	10	0	0.1	0	1	335	0.2	335	336	9.5	77.2
2025-10-18T17:11	10	0	0.1	0	0	336	0.2	335	336	9.4	77.7
2025-10-18T17:12	10	0	0.1	0	0	336	0.2	336	336	9.3	78.4
2025-10-18T17:13	10	0	0.1	0	0	336	0.4	335	336	9.3	78.1
2025-10-18T17:14	10	0	0.2	0	1	334	0.4	333	336	9.0	80.0
2025-10-18T17:15	10	0	0.2	0	0	334	0.3	334	335	8.5	82.4
2025-10-18T17:16	10	0	0.2	0	1	334	0.3	334	335	8.4	83.3
2025-10-18T17:17	10	0	0.1	0	0	334	0.3	333	334	8.3	84.0
2025-10-18T17:18	10	0	0.1	0	0	334	0.3	333	334	8.2	84.4
2025-10-18T17:19	10	0	0.1	0	0	334	0.2	333	334	8.3	84.4
2025-10-18T17:20	10	0	0.1	0	0	334	0.2	333	334	8.2	84.7
2025-10-18T17:21	10	0	0.1	0	0	333	0.2	333	334	8.1	85.3
2025-10-18T17:22	10	0	0.1	0	0	333	0.3	333	334	8.0	85.6
2025-10-18T17:23	10	0	0.1	0	0	333	0.2	333	334	8.1	85.3
2025-10-18T17:24	10	0	0.1	0	0	333	0.2	333	334	8.1	85.2
2025-10-18T17:25	10	0	0.1	0	0	333	0.2	333	334	8.1	85.3
2025-10-18T17:26	10	0	0.1	0	0	333	0.4	332	334	8.2	84.9
2025-10-18T17:27	10	0	0.1	0	0	334	0.3	333	334	8.4	84.0
2025-10-18T17:28	10	0	0.1	0	0	333	0.2	333	334	8.4	83.5
2025-10-18T17:29	10	0	0.1	0	0	333	0.3	332	333	8.3	83.9
2025-10-18T17:30	10	0	0.1	0	0	332	0.3	331	332	8.1	84.9
2025-10-18T17:31	10	0	0.1	0	0	331	0.3	330	332	7.8	86.2
2025-10-18T17:32	10	0	0.1	0	0	331	0.4	330	331	7.7	87.0
2025-10-18T17:33	10	0	0.1	0	0	330	0.2	330	331	7.5	87.9
2025-10-18T17:34	10	0	0.1	0	0	330	0.4	330	331	7.6	87.7
2025-10-18T17:35	10	0	0.1	0	0	331	0.4	330	332	7.7	87.2
2025-10-18T17:36	10	0	0.1	0	0	332	0.2	331	332	7.8	86.8
2025-10-18T17:37	10	0	0.1	0	0	331	0.3	331	332	7.7	87.0
2025-10-18T17:38	10	0	0.1	0	0	331	0.2	330	331	7.4	88.0
2025-10-18T17:39	10	0	0.1	0	0	330	0.2	330	331	7.5	87.9
2025-10-18T17:40	10	0	0.1	0	0	330	0.2	329	330	7.7	87.2
2025-10-18T17:41	10	0	0.1	0	0	329	0.2	329	330	7.7	87.1
2025-10-18T17:42	10	0	0.1	0	0	329	0.3	329	330	7.7	86.9
2025-10-18T17:43	10	0	0.1	0	0	330	0.3	329	331	7.7	87.1
2025-10-18T17:44	10	0	0.1	0	0	329	0.2	329	330	7.5	87.6
2025-10-18T17:45	10	0	0.1	0	0	329	0.2	328	330	7.4	88.0
2025-10-18T17:46	10	0	0.1	0	0	329	0.3	328	330	7.3	88.0
2025-10-18T17:47	10	0	0.1	0	0	329	0.2	329	330	7.2	88.8
2025-10-18T17:48	10	0	0.1	0	0	329	0.2	328	330	7.2	89.1
2025-10-18T17:49	10	0	0.1	0	0	329	0.4	328	330	7.3	88.9
2025-10-18T17:50	10	0	0.1	0	0	329	0.3	328	329	7.4	89.0
2025-10-18T17:51	10	0	0.1	0	0	329	0.3	328	330	7.5	88.7
2025-10-18T17:52	10	0	0.1	0	0	329	0.2	328	330	7.8	87.9
2025-10-18T17:53	10	0	0.1	0	0	329	0.2	328	329	7.9	87.4
2025-10-18T17:54	10	0	0.1	0	0	329	0.3	328	329	7.8	87.2
2025-10-18T17:55	10	0	0.1	0	0	329	0.2	329	330	7.7	87.6
2025-10-18T17:56	10	0	0.1	0	0	329	0.2	329	330	7.6	88.4
2025-10-18T17:57	10	0	0.1	0	0	329	0.3	328	330	7.3	89.3
2025-10-18T17:58	10	0	0.1	0	0	329	0.3	328	329	7.2	90.2
2025-10-18T17:59	10	0	0.1	0	0	329	0.2	328	329	7.2	90.6
2025-10-18T18:00	10	0	0.1	0	0	328	0.2	328	329	7.2	90.9
2025-10-18T18:01	10	0	0.1	0	0	329	0.3	328	329	7.2	90.9
2025-10-18T18:02	10	0	0.1	0	0	329	0.2	329	330	7.1	90.9
2025-10-18T18:03	10	0	0.1	0	0	329	0.2	329	330	7.2	90.9
2025-10-18T18:04	10	0	0.1	0	0	329	0.3	328	330	7.2	90.5
2025-10-18T18:05	10	0	0.1	0	0	329	0.3	328	329	7.0	90.6
2025-10-18T18:06	10	0	0.1	0	0	328	0.3	328	329	6.8	91.1
2025-10-18T18:07	10	0	0.1	0	0	328	0.2	328	328	6.7	91.8
2025-10-18T18:08	10	0	0.1	0	0	328	0.2	327	328	6.7	92.4
2025-10-18T18:09	10	0	0.1	0	0	328	0.2	327	328	6.6	93.0
2025-10-18T18:10	10	0	0.1	0	0	328	0.2	327	328	6.6	93.2
2025-10-18T18:11	10	0	0.1	0	0	328	0.2	327	328	6.6	93.4
2025-10-18T18:12	10	0	0.1	0	0	328	0.3	327	328	6.6	93.7
2025-10-18T18:13	10	0	0.1	0	0	329	0.6	328	330	6.6	93.8
2025-10-18T18:14	10	0	0.2	0	0	329	0.3	328	330	6.8	93.5
2025-10-18T18:15	10	0	0.1	0	0	329	0.3	328	329	6.8	93.2
2025-10-18T18:16	10	0	0.1	0	0	329	0.3	328	330	6.9	92.5
2025-10-18T18:17	10	0	0.1	0	0	329	0.3	329	330	7.2	91.4
2025-10-18T18:18	10	0	0.2	0	1	329	0.3	329	329	7.3	90.9
2025-10-18T18:19	10	0	0.1	0	0	329	0.2	329	330	7.2	90.7
2025-10-18T18:20	10	0	0.1	0	0	329	0.2	329	330	7.2	90.6
2025-10-18T18:21	10	0	0.1	0	0	329	0.2	329	330	7.2	90.5
2025-10-18T18:22	10	0	0.1	0	0	329	0.3	328	329	7.1	90.5
2025-10-18T18:23	10	0	0.1	0	0	329	0.2	328	329	7.1	90.6
2025-10-18T18:24	10	0	0.1	0	0	329	0.2	328	329	7.1	90.8
2025-10-18T18:25	10	0	0.1	0	0	328	0.3	328	329	7.1	90.9
2025-10-18T18:26	10	0	0.1	0	0	328	0.3	328	329	7.1	90.9
2025-10-18T18:27	10	0	0.1	0	0	328	0.2	327	329	7.1	91.1
2025-10-18T18:28	10	0	0.1	0	1	328	0.3	327	328	7.0	91.2
2025-10-18T18:29	10	0	0.0	0	0	327	0.4	326	328	6.9	91.4
2025-10-18T18:30	10	0	0.1	0	0	326	0.2	326	327	6.8	91.6
2025-10-18T18:31	10	0	0.1	0	0	326	0.2	325	326	6.9	91.8
2025-10-18T18:32	10	0	0.1	0	0	326	0.3	325	326	6.7	92.3
2025-10-18T18:33	10	0	0.1	0	0	326	0.2	325	326	6.7	92.3
2025-10-18T18:34	10	0	0.1	0	0	326	0.2	325	326	6.8	92.2
2025-10-18T18:35	10	0	0.1	0	0	325	0.2	325	326	6.8	91.9
2025-10-18T18:36	10	0	0.1	0	0	326	0.2	325	326	6.8	91.5
2025-10-18T18:37	10	0	0.1	0	0	325	0.2	325	326	6.8	91.3
2025-10-18T18:38	10	0	0.1	0	0	325	0.2	325	326	6.8	91.3
2025-10-18T18:39	10	0	0.1	0	0	326	0.3	325	326	6.8	91.3
2025-10-18T18:40	10	0	0.1	0	0	326	0.3	325	327	6.9	91.2
2025-10-18T18:41	10	0	0.0	0	0	326	0.3	326	327	7.0	91.0
2025-10-18T18:42	10	0	0.1	0	0	326	0.2	326	327	7.0	90.7
2025-10-18T18:43	10	0	0.1	0	0	327	0.3	326	327	7.0	90.8
2025-10-18T18:44	10	0	0.1	0	0	327	0.2	327	328	7.0	90.8
2025-10-18T18:45	10	0	0.1	0	0	327	0.3	327	328	7.0	90.7
2025-10-18T18:46	10	0	0.1	0	0	328	0.3	327	329	7.0	90.7
2025-10-18T18:47	10	0	0.1	0	0	329	0.3	328	329	7.1	90.5
2025-10-18T18:48	10	0	0.1	0	0	329	0.3	329	330	7.1	90.3
2025-10-18T18:49	10	0	0.1	0	0	329	0.3	328	329	7.1	90.2
2025-10-18T18:50	10	0	0.1	0	0	329	0.3	328	329	7.0	90.3
2025-10-18T18:51	10	0	0.1	0	0	328	0.3	328	329	6.9	90.8
2025-10-18T18:52	10	0	0.1	0	0	328	0.3	327	328	6.8	91.2
2025-10-18T18:53	10	0	0.1	0	0	328	0.3	327	328	6.7	91.8
2025-10-18T18:54	10	0	0.1	0	0	327	0.3	327	328	6.7	92.1
2025-10-18T18:55	10	0	0.1	0	0	326	0.3	326	327	6.7	92.3
2025-10-18T18:56	10	0	0.1	0	0	326	0.2	326	327	6.6	92.6
2025-10-18T18:57	10	0	0.1	0	0	326	0.4	326	327	6.6	92.6
2025-10-18T18:58	10	0	0.1	0	0	326	0.2	326	327	6.8	92.3
2025-10-18T18:59	10	0	0.1	0	0	326	0.2	326	327	6.8	92.2
2025-10-18T19:00	10	0	0.1	0	0	326	0.3	325	327	6.6	92.2
2025-10-18T19:01	10	0	0.1	0	0	327	0.2	326	327	6.8	92.2
2025-10-18T19:02	10	0	0.1	0	0	327	0.3	326	328	6.8	86.0
2025-10-18T19:03	10	0	0.1	0	0	327	0.3	327	328	6.8	92.2
2025-10-18T19:04	10	0	0.1	0	0	327	0.2	326	328	6.8	92.2
2025-10-18T19:05	10	0	0.1	0	0	327	0.3	326	328	6.8	92.2
2025-10-18T19:06	10	0	0.1	0	0	327	0.2	327	328	6.8	92.2
2025-10-18T19:07	10	0	0.1	0	0	327	0.2	327	328	6.9	90.2
2025-10-18T19:08	10	0	0.1	0	0	328	0.2	327	328	7.0	90.3
2025-10-18T19:09	10	0	0.1	0	0	328	0.2	327	328	6.9	91.0
2025-10-18T19:10	10	0	0.1	0	0	328	0.3	327	328	6.9	91.4
2025-10-18T19:11	10	0	0.1	0	0	328	0.2	327	328	6.9	91.4
2025-10-18T19:12	10	0	0.1	0	0	328	0.4	327	329	6.8	91.6
2025-10-18T19:13	10	0	0.1	0	0	328	0.3	327	329	6.8	91.4
2025-10-18T19:14	10	0	0.1	0	0	328	0.3	327	329	6.7	91.7
2025-10-18T19:15	10	0	0.1	0	0	328	0.2	328	329	6.8	91.7
2025-10-18T19:16	10	0	0.1	0	0	328	0.2	328	329	6.7	91.7
2025-10-18T19:17	10	0	0.1	0	0	328	0.2	328	329	6.6	91.9
2025-10-18T19:18	10	0	0.1	0	0	329	0.2	328	329	6.6	91.9
2025-10-18T19:19	10	0	0.1	0	0	329	0.3	328	330	6.7	91.8
2025-10-18T19:20	10	0	0.1	0	0	329	0.3	328	329	6.8	91.6
2025-10-18T19:21	10	0	0.1	0	0	328	0.3	328	329	6.8	91.7
2025-10-18T19:22	10	0	0.1	0	0	328	0.2	327	328	6.8	91.6
2025-10-18T19:23	10	0	0.1	0	0	327	0.3	327	328	6.8	91.8
2025-10-18T19:24	10	0	0.1	0	0	327	0.4	326	327	6.7	92.1
2025-10-18T19:25	10	0	0.1	0	0	326	0.3	325	327	6.7	92.3
2025-10-18T19:26	10	0	0.0	0	0	326	0.2	325	326	6.5	92.6
2025-10-18T19:27	10	0	0.1	0	0	326	0.4	325	327	6.4	92.9
2025-10-18T19:28	10	0	0.1	0	0	327	0.5	326	328	6.4	92.8
2025-10-18T19:29	10	0	0.1	0	0	328	0.3	327	328	6.4	93.0
2025-10-18T19:30	10	0	0.1	0	0	328	0.2	327	328	6.4	93.1
2025-10-18T19:31	10	0	0.1	0	0	329	0.5	328	329	6.5	92.7
2025-10-18T19:32	10	0	0.1	0	0	330	0.4	329	331	6.4	92.5
2025-10-18T19:33	10	0	0.1	0	0	330	0.4	329	331	6.4	92.3
2025-10-18T19:34	10	0	0.0	0	0	331	0.2	330	331	6.2	92.7
2025-10-18T19:35	10	0	0.1	0	0	330	0.5	329	331	6.1	93.1
2025-10-18T19:36	10	0	0.0	0	0	329	0.3	328	329	5.9	93.5
2025-10-18T19:37	10	0	0.0	0	0	328	0.3	327	328	6.0	93.7
2025-10-18T19:38	10	0	0.0	0	0	328	0.2	327	328	6.0	93.9
2025-10-18T19:39	10	0	0.1	0	0	327	0.2	327	328	6.0	93.9
2025-10-18T19:40	10	0	0.1	0	0	327	0.2	327	328	5.9	94.0
2025-10-18T19:41	10	0	0.0	0	0	327	0.3	326	328	5.9	94.1
2025-10-18T19:42	10	0	0.1	-1	0	327	0.2	326	327	5.9	94.3
2025-10-18T19:43	10	0	0.0	0	0	327	0.3	326	327	5.9	94.5
2025-10-18T19:44	10	0	0.1	-1	0	329	0.7	327	330	6.0	94.2
2025-10-18T19:45	10	0	0.1	-1	0	330	0.4	330	331	6.1	93.7
2025-10-18T19:46	10	0	0.1	-1	0	331	0.3	331	332	6.2	93.4
2025-10-18T19:47	10	0	0.1	-1	0	331	0.3	331	332	6.3	92.9
2025-10-18T19:48	10	0	0.1	-1	0	331	0.5	330	332	6.3	92.8
2025-10-18T19:49	10	0	0.1	-1	0	330	0.3	329	331	6.2	92.9
2025-10-18T19:50	10	0	0.1	0	0	330	0.2	329	330	6.2	93.0
2025-10-18T19:51	10	0	0.1	-1	0	330	0.2	329	330	6.3	93.1
2025-10-18T19:52	10	0	0.0	0	0	330	0.3	330	331	6.3	92.9
2025-10-18T19:53	10	0	0.0	0	0	330	0.2	330	331	6.3	92.8
2025-10-18T19:54	10	0	0.1	0	0	331	0.3	331	332	6.3	92.9
2025-10-18T19:55	10	0	0.1	0	0	332	0.3	331	332	6.2	93.2
2025-10-18T19:56	10	0	0.1	0	0	332	0.3	331	332	6.2	93.3
2025-10-18T19:57	10	0	0.1	-1	0	332	0.2	332	333	6.2	93.3
2025-10-18T19:58	10	0	0.4	0	2	332	0.3	332	333	6.2	93.2
2025-10-18T19:59	10	0	0.1	-1	0	333	0.3	332	334	6.3	93.1
2025-10-18T20:00	10	0	0.1	-1	0	334	0.2	333	334	6.2	93.2
2025-10-18T20:01	10	0	0.1	-1	0	333	0.3	333	334	6.2	93.2
2025-10-18T20:02	10	0	0.1	-1	0	333	0.2	333	334	6.3	93.1
2025-10-18T20:03	10	0	0.1	0	0	333	0.2	332	333	6.3	92.9
2025-10-18T20:04	10	0	0.1	0	0	333	0.2	332	333	6.3	92.7
2025-10-18T20:05	10	0	0.1	0	0	332	0.2	332	333	6.3	92.7
2025-10-18T20:06	10	0	0.1	0	0	332	0.2	332	333	6.4	92.3
2025-10-18T20:07	10	0	0.1	0	0	332	0.2	332	333	6.5	91.9
2025-10-18T20:08	10	0	0.1	0	0	332	0.2	332	333	6.5	91.6
2025-10-18T20:09	10	0	0.1	0	0	332	0.2	332	333	6.4	91.7
2025-10-18T20:10	10	0	0.1	0	0	332	0.3	332	333	6.4	91.7
2025-10-18T20:11	10	0	0.1	0	0	332	0.3	331	333	6.2	92.3
2025-10-18T20:12	10	0	0.1	0	0	332	0.2	332	333	6.1	92.6
2025-10-18T20:13	10	0	0.1	0	0	332	0.3	331	333	6.1	92.8
2025-10-18T20:14	10	0	0.1	-1	0	332	0.3	331	333	6.1	92.8
2025-10-18T20:15	10	0	0.1	0	0	332	0.3	331	332	6.1	92.8
2025-10-18T20:16	10	0	0.1	-1	0	331	0.3	330	332	6.1	93.0
2025-10-18T20:17	10	0	0.1	0	0	331	0.3	330	332	5.9	93.5
2025-10-18T20:18	10	0	0.1	0	0	330	0.3	330	331	5.9	93.8
2025-10-18T20:19	10	0	0.1	0	0	330	0.3	329	331	5.7	94.2
2025-10-18T20:20	10	0	0.1	0	0	329	0.3	328	329	5.7	94.4
2025-10-18T20:21	10	0	0.1	-1	0	328	0.2	327	328	5.6	94.8
2025-10-18T20:22	10	0	0.1	0	0	328	0.2	327	328	5.6	95.0
2025-10-18T20:23	10	0	0.1	-1	0	327	0.3	327	328	5.6	95.1
2025-10-18T20:24	10	0	0.1	-1	0	328	0.3	327	328	5.6	95.3
2025-10-18T20:25	10	0	0.1	-1	0	329	0.3	328	329	5.6	95.2
2025-10-18T20:26	10	0	0.2	-1	0	329	0.2	329	330	5.7	94.8
2025-10-18T20:27	10	0	0.2	-1	1	329	0.3	328	330	5.6	95.0
2025-10-18T20:28	10	0	0.1	-1	0	328	0.3	328	329	5.6	95.0
2025-10-18T20:29	10	0	0.1	-1	0	329	0.3	328	329	5.5	95.2
2025-10-18T20:30	10	0	0.1	-1	0	329	0.3	328	330	5.5	95.4
2025-10-18T20:31	10	-1	0.1	-1	0	329	0.2	329	330	5.4	95.6
2025-10-18T20:32	10	-1	0.1	-1	0	330	0.2	329	330	5.5	95.1
2025-10-18T20:33	10	-1	0.1	-1	0	330	0.2	330	331	5.6	95.1
2025-10-18T20:34	10	0	0.1	-1	0	330	0.3	330	331	5.6	94.4
2025-10-18T20:35	10	0	0.1	-1	0	330	0.2	330	330	5.8	94.1
2025-10-18T20:36	10	0	0.1	-1	0	330	0.2	330	331	5.9	93.6
2025-10-18T20:37	10	0	0.1	-1	0	330	0.3	329	331	5.9	93.4
2025-10-18T20:38	10	0	0.1	-1	0	330	0.3	330	331	5.9	93.2
2025-10-18T20:39	10	0	0.1	-1	0	331	0.3	330	331	6.0	93.1
2025-10-18T20:40	10	0	0.1	-1	0	330	0.3	330	331	6.1	93.0
2025-10-18T20:41	10	0	0.1	-1	0	330	0.3	330	331	6.0	93.0
2025-10-18T20:42	10	0	0.1	-1	0	330	0.3	329	330	5.9	93.4
2025-10-18T20:43	10	0	0.1	-1	0	330	0.2	330	330	6.0	93.2
2025-10-18T20:44	10	0	0.1	-1	0	330	0.3	329	331	6.1	92.9
2025-10-18T20:45	10	0	0.1	-1	0	330	0.3	329	331	6.1	92.6
2025-10-18T20:46	10	0	0.1	0	0	330	0.2	329	330	6.1	92.4
2025-10-18T20:47	10	0	0.1	0	0	331	0.3	330	331	6.3	92.1
2025-10-18T20:48	10	0	0.1	0	0	331	0.3	330	332	6.4	91.4
2025-10-18T20:49	10	0	0.1	0	0	331	0.3	331	332	6.5	91.1
2025-10-18T20:50	10	0	0.1	0	0	332	0.3	331	332	6.4	91.1
2025-10-18T20:51	10	0	0.1	0	0	332	0.2	331	332	6.4	91.1
2025-10-18T20:52	10	0	0.1	0	0	332	0.3	331	333	6.3	91.3
2025-10-18T20:53	10	0	0.1	0	0	332	0.4	332	333	6.4	91.2
2025-10-18T20:54	10	0	0.1	0	0	332	0.3	331	332	6.2	91.7
2025-10-18T20:55	10	0	0.1	-1	0	332	0.3	331	332	6.2	91.8
2025-10-18T20:56	10	0	0.1	0	0	332	0.2	331	332	6.3	91.7
2025-10-18T20:57	10	0	0.1	0	0	331	0.3	331	332	6.2	91.8
2025-10-18T20:58	10	0	0.1	0	0	331	0.2	331	332	6.1	91.9
2025-10-18T20:59	10	0	0.1	-1	0	331	0.2	331	332	6.2	91.8
2025-10-18T21:00	10	0	0.1	-1	0	331	0.3	330	331	6.3	91.7
2025-10-18T21:01	10	0	0.1	0	0	331	0.2	330	331	6.2	91.6
2025-10-18T21:02	10	0	0.1	-1	0	331	0.4	330	331	6.1	92.0
2025-10-18T21:03	10	0	0.1	0	0	331	0.2	330	331	6.1	92.4
2025-10-18T21:04	10	0	0.1	0	0	331	0.3	330	331	5.9	92.7
2025-10-18T21:05	10	0	0.1	0	0	331	0.3	330	331	5.8	93.1
2025-10-18T21:06	10	0	0.1	-1	0	330	0.3	329	331	5.5	93.9
2025-10-18T21:07	10	0	0.1	-1	0	330	0.3	329	331	5.3	94.4
2025-10-18T21:08	10	-1	0.1	-1	0	330	0.2	329	330	5.3	95.0
2025-10-18T21:09	10	-1	0.1	-1	0	330	0.2	329	330	5.3	95.3
2025-10-18T21:10	10	-1	0.1	-1	0	329	0.2	329	330	5.2	95.5
2025-10-18T21:11	10	-1	0.1	-1	0	329	0.2	329	329	5.1	95.5
2025-10-18T21:12	10	-1	0.1	-1	0	329	0.3	328	330	5.1	95.7
2025-10-18T21:13	10	-1	0.1	-1	0	329	0.2	328	329	5.0	96.0
2025-10-18T21:14	10	-1	0.1	-1	0	329	0.2	328	329	5.0	96.0
2025-10-18T21:15	10	-1	0.1	-1	-1	329	0.3	328	330	5.2	95.6
2025-10-18T21:16	10	-1	0.1	-1	-1	329	0.4	329	330	5.2	95.4
2025-10-18T21:17	10	-1	0.1	-1	0	330	0.2	329	330	5.4	95.0
2025-10-18T21:18	10	-1	0.0	-1	0	330	0.4	329	331	5.5	94.6
2025-10-18T21:19	10	-1	0.1	-1	0	330	0.2	330	331	5.4	94.5
2025-10-18T21:20	10	0	0.1	-1	0	330	0.3	329	330	5.3	94.6
2025-10-18T21:21	10	0	0.1	-1	0	329	0.3	329	330	5.2	94.9
2025-10-18T21:22	10	0	0.1	-1	0	329	0.3	329	330	5.3	95.0
2025-10-18T21:23	10	0	0.1	-1	0	330	0.3	329	330	5.3	95.1
2025-10-18T21:24	10	0	0.1	-1	0	330	0.3	329	331	5.3	95.2
2025-10-18T21:25	10	0	0.0	-1	0	330	0.2	330	331	5.3	95.2
2025-10-18T21:26	10	0	0.1	-1	0	331	0.3	330	331	5.4	95.1
2025-10-18T21:27	10	0	0.1	-1	0	330	0.3	330	331	5.3	95.1
2025-10-18T21:28	10	0	0.1	-1	0	330	0.3	329	331	5.2	95.3
2025-10-18T21:29	10	0	0.1	-1	0	329	0.3	329	330	5.1	95.5
2025-10-18T21:30	10	0	0.1	-1	0	330	0.3	329	330	5.2	95.7
2025-10-18T21:31	10	0	0.1	-1	0	330	0.3	329	330	5.2	95.7
2025-10-18T21:32	10	0	0.1	-1	0	330	0.3	330	331	5.6	94.8
2025-10-18T21:33	10	0	0.1	-1	0	331	0.3	330	331	5.8	94.2
2025-10-18T21:34	10	0	0.0	0	0	331	0.3	330	331	5.6	94.2
2025-10-18T21:35	10	0	0.1	0	0	331	0.2	330	331	5.4	94.3
2025-10-18T21:36	10	0	0.0	0	0	331	0.3	330	331	5.4	94.8
2025-10-18T21:37	10	0	0.1	-1	0	331	0.3	330	331	5.3	95.2
2025-10-18T21:38	10	0	0.1	-1	0	330	0.4	329	331	5.3	95.5
2025-10-18T21:39	10	0	0.1	-1	0	329	0.3	328	330	5.3	95.6
2025-10-18T21:40	10	0	0.0	0	0	329	0.3	328	329	5.3	95.6
2025-10-18T21:41	10	0	0.1	0	0	329	0.2	328	329	5.4	95.3
2025-10-18T21:42	10	0	0.1	0	0	328	0.2	327	328	5.5	95.4
2025-10-18T21:43	10	0	0.0	0	0	328	0.2	327	328	5.4	95.2
2025-10-18T21:44	10	0	0.1	0	0	327	0.3	327	328	5.4	95.3
2025-10-18T21:45	10	0	0.1	0	0	327	0.2	327	328	5.3	95.4
2025-10-18T21:46	10	0	0.1	0	0	328	0.3	327	329	5.3	95.6
2025-10-18T21:47	10	0	0.0	0	0	328	0.2	327	328	5.3	95.7
2025-10-18T21:48	10	0	0.1	0	0	328	0.2	327	328	5.3	95.6
2025-10-18T21:49	10	0	0.1	-1	0	328	0.2	327	329	5.4	95.4
2025-10-18T21:50	10	0	0.1	0	0	328	0.3	327	329	5.5	95.0
2025-10-18T21:51	10	0	0.1	0	0	329	0.2	328	329	5.6	94.7
2025-10-18T21:52	10	0	0.1	0	0	329	0.3	328	329	5.7	94.1
2025-10-18T21:53	10	0	0.1	0	0	329	0.3	328	330	5.8	93.7
2025-10-18T21:54	10	0	0.1	0	0	330	0.3	330	331	5.9	93.3
2025-10-18T21:55	10	0	0.1	0	0	331	0.2	330	331	5.9	93.1
2025-10-18T21:56	10	0	0.1	0	0	332	0.4	331	332	5.9	92.7
2025-10-18T21:57	10	0	0.0	0	0	332	0.3	331	332	5.9	92.7
2025-10-18T21:58	10	0	0.1	-1	0	332	0.2	331	332	5.8	92.7
2025-10-18T21:59	10	0	0.1	-1	0	332	0.3	331	333	5.8	92.9
2025-10-18T22:00	10	0	0.1	-1	0	332	0.2	332	333	5.8	93.1
2025-10-18T22:01	10	0	0.1	-1	0	332	0.2	331	332	5.8	93.1
2025-10-18T22:02	10	0	0.1	-1	0	332	0.2	331	332	5.9	93.0
2025-10-18T22:03	10	0	0.1	0	0	332	0.3	331	332	6.0	92.8
2025-10-18T22:04	10	0	0.1	0	0	332	0.2	331	332	5.9	92.6
2025-10-18T22:05	10	0	0.1	0	0	332	0.3	331	332	6.0	92.5
2025-10-18T22:06	10	0	0.1	0	0	332	0.2	331	332	6.1	92.4
2025-10-18T22:07	10	0	0.1	0	0	332	0.2	332	333	6.1	92.2
2025-10-18T22:08	10	0	0.1	0	0	332	0.2	332	332	6.1	92.1
2025-10-18T22:09	10	0	0.1	0	0	332	0.2	331	332	6.1	92.2
2025-10-18T22:10	10	0	0.1	0	0	331	0.3	331	332	6.0	92.4
2025-10-18T22:11	10	0	0.1	0	0	331	0.3	331	332	6.0	92.5
2025-10-18T22:12	10	0	0.0	0	0	331	0.3	330	332	6.0	92.7
2025-10-18T22:13	10	0	0.1	0	0	331	0.3	331	332	5.9	92.8
2025-10-18T22:14	10	0	0.1	0	0	331	0.2	331	332	5.9	92.7
2025-10-18T22:15	10	0	0.1	0	0	331	0.3	330	332	5.8	93.1
2025-10-18T22:16	10	0	0.1	0	0	330	0.3	329	331	5.7	93.4
2025-10-18T22:17	10	0	0.1	0	0	329	0.2	329	330	5.6	93.8
2025-10-18T22:18	10	0	0.1	0	0	329	0.2	329	330	5.7	93.6
2025-10-18T22:19	10	0	0.1	0	0	329	0.2	329	330	5.8	93.6
2025-10-18T22:20	10	0	0.1	0	0	329	0.3	328	330	5.8	93.7
2025-10-18T22:21	10	0	0.1	0	0	329	0.3	329	330	5.7	93.8
2025-10-18T22:22	10	0	0.1	0	0	329	0.3	329	330	5.7	93.8
2025-10-18T22:23	10	0	0.1	0	0	329	0.2	329	330	5.7	93.7
2025-10-18T22:24	10	0	0.1	0	0	329	0.3	328	329	5.8	93.4
2025-10-18T22:25	10	0	0.1	0	0	329	0.4	328	330	5.8	93.3
2025-10-18T22:26	10	0	0.1	0	0	329	0.3	328	329	6.0	92.9
2025-10-18T22:27	10	0	0.1	0	0	329	0.3	328	330	5.9	92.9
2025-10-18T22:28	10	0	0.1	0	0	330	0.3	329	331	6.0	92.6
2025-10-18T22:29	10	0	0.1	0	0	331	0.2	330	331	6.0	92.6
2025-10-18T22:30	10	0	0.1	0	0	331	0.3	330	331	5.8	92.8
2025-10-18T22:31	10	0	0.1	0	0	330	0.3	330	331	5.9	92.8
2025-10-18T22:32	10	0	0.1	0	0	329	0.7	328	330	5.6	93.2
2025-10-18T22:33	10	0	0.1	0	0	328	0.4	327	329	5.3	94.0
2025-10-18T22:34	10	0	0.1	0	0	327	0.2	327	328	5.2	94.3
2025-10-18T22:35	10	0	0.1	0	0	327	0.3	326	327	5.2	94.9
2025-10-18T22:36	10	0	0.1	0	0	326	0.2	326	327	5.1	95.0
2025-10-18T22:37	10	0	0.0	0	0	326	0.2	325	326	5.1	95.1
2025-10-18T22:38	10	0	0.1	0	0	326	0.2	325	326	5.0	95.5
2025-10-18T22:39	10	0	0.1	0	0	326	0.2	325	326	4.9	95.5
2025-10-18T22:40	10	0	0.1	0	0	326	0.2	325	326	5.0	95.8
2025-10-18T22:41	10	0	0.1	0	0	325	0.2	325	326	4.8	96.2
2025-10-18T22:42	10	0	0.1	0	0	325	0.3	324	326	4.8	96.3
2025-10-18T22:43	10	0	0.1	0	0	325	0.2	324	325	4.9	96.1
2025-10-18T22:44	10	0	0.0	0	0	324	0.3	324	325	5.0	96.2
2025-10-18T22:45	10	0	0.1	0	0	324	0.2	323	325	5.1	96.1
2025-10-18T22:46	10	0	0.1	0	0	324	0.2	323	324	5.1	96.3
2025-10-18T22:47	10	0	0.1	0	0	323	0.2	323	324	5.1	96.1
2025-10-18T22:48	10	0	0.1	0	0	323	0.2	323	324	5.2	96.1
2025-10-18T22:49	10	0	0.1	0	0	323	0.2	323	324	5.3	95.7
2025-10-18T22:50	10	0	0.1	0	0	323	0.3	323	324	5.2	95.8
2025-10-18T22:51	10	0	0.1	0	0	323	0.3	323	324	5.2	95.7
2025-10-18T22:52	10	0	0.0	0	0	324	0.3	323	325	5.1	95.8
2025-10-18T22:53	10	0	0.1	0	0	325	0.5	324	326	5.1	95.9
2025-10-18T22:54	10	0	0.1	0	0	326	0.3	325	326	5.2	95.9
2025-10-18T22:55	10	0	0.1	0	0	326	0.2	325	326	5.2	95.9
2025-10-18T22:56	10	0	0.1	0	0	325	0.3	325	326	5.2	95.7
2025-10-18T22:57	10	0	0.1	0	0	325	0.4	324	325	5.1	95.9
2025-10-18T22:58	10	0	0.1	0	0	324	0.4	323	325	5.1	95.8
2025-10-18T22:59	10	0	0.1	0	0	323	0.3	323	324	4.9	96.6
2025-10-18T23:00	10	0	0.1	0	0	323	0.3	322	323	4.6	96.2
2025-10-18T23:01	10	0	0.1	0	0	323	0.2	323	324	4.5	96.4
2025-10-18T23:02	10	0	0.1	0	0	323	0.2	322	323	4.4	96.9
2025-10-18T23:03	10	0	0.1	0	0	323	0.2	322	323	4.3	97.1
2025-10-18T23:04	10	0	0.3	0	2	323	0.3	322	324	4.3	97.2
2025-10-18T23:05	10	0	0.1	0	0	323	0.2	322	323	4.3	97.4
2025-10-18T23:06	10	0	0.0	0	0	323	0.3	322	323	4.4	97.4
2025-10-18T23:07	10	0	0.1	0	0	323	0.3	322	323	4.5	97.8
2025-10-18T23:08	10	0	0.1	0	0	323	0.3	322	323	4.7	97.6
2025-10-18T23:09	10	0	0.1	0	0	323	0.3	323	324	4.7	97.5
2025-10-18T23:10	10	0	0.1	0	0	323	0.3	322	324	4.8	97.4
2025-10-18T23:11	10	0	0.1	0	0	323	0.2	323	323	4.9	97.7
2025-10-18T23:12	10	0	0.1	0	0	323	0.2	322	323	5.0	97.4
2025-10-18T23:13	10	0	0.1	0	0	323	0.3	322	323	5.0	97.1
2025-10-18T23:14	10	0	0.1	0	0	323	0.2	322	323	5.1	97.0
2025-10-18T23:15	10	0	0.1	0	0	322	0.2	322	323	5.1	96.8
2025-10-18T23:16	10	0	0.1	0	0	323	0.2	322	323	5.2	96.3
2025-10-18T23:17	10	0	0.1	0	0	323	0.3	322	324	5.2	96.4
2025-10-18T23:18	10	0	0.1	0	0	323	0.2	322	323	5.3	96.2
2025-10-18T23:19	10	0	0.1	0	0	323	0.2	323	323	5.2	95.9
2025-10-18T23:20	10	0	0.1	0	0	323	0.3	323	324	5.2	95.5
2025-10-18T23:21	10	0	0.2	0	1	323	0.3	323	324	5.2	95.4
2025-10-18T23:22	10	0	0.1	0	0	323	0.3	323	324	5.3	95.2
2025-10-18T23:23	10	0	0.1	0	0	323	0.3	323	324	5.2	95.3
2025-10-18T23:24	10	0	0.1	0	0	325	0.5	323	326	5.2	95.4
2025-10-18T23:25	10	0	0.1	0	0	325	0.2	325	326	5.2	95.2
2025-10-18T23:26	10	0	0.1	0	0	325	0.4	325	326	5.2	95.6
2025-10-18T23:27	10	0	0.1	0	0	325	0.2	325	326	5.1	95.7
2025-10-18T23:28	10	0	0.1	0	0	325	0.2	325	326	5.1	95.6
2025-10-18T23:29	10	0	0.1	0	0	325	0.3	325	326	5.2	95.7
2025-10-18T23:30	10	0	0.1	0	0	325	0.3	325	326	5.2	95.9
2025-10-18T23:31	10	0	0.1	0	0	326	0.2	325	326	5.2	95.8
2025-10-18T23:32	10	0	0.1	0	0	326	0.2	325	326	5.2	95.8
2025-10-18T23:33	10	0	0.1	0	0	326	0.2	325	326	5.2	95.7
2025-10-18T23:34	10	0	0.1	0	0	326	0.2	325	326	5.2	95.7
2025-10-18T23:35	10	0	0.1	0	0	326	0.2	325	326	5.3	95.8
2025-10-18T23:36	10	0	0.1	0	0	326	0.3	325	327	5.3	95.8
2025-10-18T23:37	10	0	0.1	0	0	326	0.2	325	326	5.3	95.5
2025-10-18T23:38	10	0	0.1	0	0	325	0.3	325	326	5.3	95.6
2025-10-18T23:39	10	0	0.1	0	0	325	0.3	325	326	5.4	95.4
2025-10-18T23:40	10	0	0.1	0	0	325	0.3	325	326	5.2	95.7
2025-10-18T23:41	10	0	0.1	0	0	326	0.3	325	326	5.2	95.5
2025-10-18T23:42	10	0	0.1	0	0	326	0.2	325	326	5.3	95.5
2025-10-18T23:43	10	0	0.1	0	0	326	0.2	326	327	5.3	95.5
2025-10-18T23:44	10	0	0.1	0	0	326	0.2	326	327	5.3	95.7
2025-10-18T23:45	10	0	0.1	0	0	326	0.2	325	327	5.2	95.7
2025-10-18T23:46	10	0	0.1	0	0	326	0.2	325	326	5.2	95.6
2025-10-18T23:47	10	0	0.1	0	0	326	0.2	325	326	5.3	95.6
2025-10-18T23:48	10	0	0.1	0	0	326	0.4	325	327	5.4	95.4
2025-10-18T23:49	10	0	0.1	0	0	327	0.2	326	327	5.6	95.5
2025-10-18T23:50	10	0	0.1	0	0	327	0.2	326	327	5.6	95.4
2025-10-18T23:51	10	0	0.1	0	0	326	0.2	326	327	5.6	95.6
2025-10-18T23:52	10	0	0.1	0	0	326	0.2	325	326	5.5	95.6
2025-10-18T23:53	10	0	0.1	0	0	325	0.4	324	326	5.5	95.3
2025-10-18T23:54	10	0	0.1	0	0	325	0.3	324	325	5.4	95.2
2025-10-18T23:55	10	0	0.1	0	0	324	0.3	324	325	5.2	95.3
2025-10-18T23:56	10	0	0.1	0	0	324	0.4	323	324	5.1	95.1
2025-10-18T23:57	10	0	0.1	0	0	323	0.2	323	324	4.9	95.4
2025-10-18T23:58	10	0	0.1	-1	0	324	0.2	323	324	4.8	96.1
2025-10-18T23:59	10	0	0.1	-1	0	324	0.3	323	325	4.7	96.4
2025-10-19T00:00	10	-1	0.1	-1	0	324	0.2	323	324	4.6	96.6
2025-10-19T00:01	10	-1	0.1	-1	0	325	0.4	324	325	4.6	96.7
2025-10-19T00:02	10	-1	0.1	-1	0	325	0.4	324	326	4.5	96.8
2025-10-19T00:03	10	-1	0.1	-1	0	325	0.3	325	326	4.6	97.0
2025-10-19T00:04	10	0	0.1	-1	0	325	0.3	324	325	4.5	97.3
2025-10-19T00:05	10	0	0.1	-1	0	324	0.3	323	325	4.3	97.7
2025-10-19T00:06	10	0	0.1	-1	0	324	0.2	323	324	4.3	97.8
2025-10-19T00:07	10	0	0.1	-1	0	324	0.2	323	324	4.3	98.2
2025-10-19T00:08	10	0	0.1	-1	0	323	0.3	323	324	4.3	98.3
2025-10-19T00:09	10	0	0.1	-1	0	323	0.3	322	324	4.3	98.2
2025-10-19T00:10	10	0	0.1	-1	0	323	0.2	323	324	4.2	98.5
2025-10-19T00:11	10	0	0.1	-1	0	323	0.3	323	324	4.2	98.4
2025-10-19T00:12	10	0	0.1	-1	0	324	0.3	323	324	4.2	98.4
2025-10-19T00:13	10	0	0.1	-1	0	324	0.2	324	325	4.3	98.7
2025-10-19T00:14	10	0	0.1	-1	0	324	0.3	324	325	4.2	98.8
2025-10-19T00:15	10	0	0.1	-1	0	325	0.2	324	325	4.4	98.5
2025-10-19T00:16	10	0	0.1	-1	0	324	0.2	324	325	4.5	98.4
2025-10-19T00:17	10	0	0.1	-1	0	325	0.2	324	325	4.5	98.0
2025-10-19T00:18	10	0	0.1	-1	0	325	0.3	324	325	4.5	98.0
2025-10-19T00:19	10	0	0.1	-1	0	325	0.3	325	326	4.6	97.7
2025-10-19T00:20	10	0	0.1	-1	0	326	0.3	325	327	4.6	97.7
2025-10-19T00:21	10	0	0.1	-1	0	326	0.3	326	327	4.6	97.4
2025-10-19T00:22	10	0	0.1	-1	0	327	0.2	326	327	4.6	97.4
2025-10-19T00:23	10	0	0.1	-1	0	326	0.2	326	327	4.7	97.2
2025-10-19T00:24	10	0	0.1	-1	0	326	0.4	325	327	4.8	97.3
2025-10-19T00:25	10	0	0.1	-1	0	325	0.2	325	326	4.7	97.1
2025-10-19T00:26	10	0	0.1	0	0	325	0.2	325	326	4.8	97.1
2025-10-19T00:27	10	0	0.0	0	0	325	0.3	324	325	4.8	96.9
2025-10-19T00:28	10	0	0.1	0	0	324	0.4	324	325	4.9	96.8
2025-10-19T00:29	10	0	0.1	0	0	324	0.4	322	324	4.9	97.0
2025-10-19T00:30	10	0	0.1	0	0	323	0.4	322	323	4.9	96.8
2025-10-19T00:31	10	0	0.1	0	0	322	0.4	321	323	4.9	96.7
2025-10-19T00:32	10	0	0.1	0	0	321	0.3	321	322	4.9	96.8
2025-10-19T00:33	10	0	0.1	0	0	321	0.3	320	322	4.9	96.7
2025-10-19T00:34	10	0	0.1	0	0	320	0.3	320	321	4.8	96.8
2025-10-19T00:35	10	0	0.1	0	0	320	0.3	320	321	4.7	96.7
2025-10-19T00:36	10	0	0.1	0	0	320	0.2	320	321	4.6	96.8
2025-10-19T00:37	10	0	0.1	0	0	320	0.2	320	320	4.6	96.8
2025-10-19T00:38	10	0	0.1	0	0	320	0.3	319	321	4.6	96.9
2025-10-19T00:39	10	0	0.0	0	0	320	0.3	319	321	4.5	96.8
2025-10-19T00:40	10	0	0.1	0	0	320	0.2	319	320	4.4	96.9
2025-10-19T00:41	10	0	0.1	0	0	319	0.2	319	320	4.4	97.0
2025-10-19T00:42	10	0	0.1	0	0	319	0.2	318	319	4.4	97.3
2025-10-19T00:43	10	0	0.1	0	0	319	0.2	318	319	4.4	97.0
2025-10-19T00:44	10	0	0.1	0	0	319	0.2	318	319	4.4	97.2
2025-10-19T00:45	10	0	0.1	0	0	319	0.3	318	319	4.4	97.1
2025-10-19T00:46	10	0	0.1	0	0	319	0.2	318	319	4.4	97.3
2025-10-19T00:47	10	0	0.1	0	0	318	0.3	318	319	4.4	97.4
2025-10-19T00:48	10	0	0.1	0	0	318	0.2	317	319	4.5	97.3
2025-10-19T00:49	10	0	0.1	0	0	318	0.2	317	318	4.4	97.6
2025-10-19T00:50	10	0	0.1	0	0	318	0.2	317	318	4.4	97.6
2025-10-19T00:51	10	0	0.1	0	0	318	0.2	317	318	4.4	97.4
2025-10-19T00:52	10	0	0.1	0	0	318	0.2	318	318	4.5	97.3
2025-10-19T00:53	10	0	0.1	0	0	318	0.2	317	318	4.5	97.2
2025-10-19T00:54	10	0	0.1	0	0	318	0.2	317	318	4.6	97.3
2025-10-19T00:55	10	0	0.1	0	0	318	0.3	317	318	4.5	97.6
2025-10-19T00:56	10	0	0.1	0	0	317	0.2	317	318	4.4	97.5
2025-10-19T00:57	10	0	0.1	-1	0	317	0.2	317	318	4.4	97.6
2025-10-19T00:58	10	0	0.1	0	0	317	0.2	316	317	4.4	97.2
2025-10-19T00:59	10	0	0.1	0	0	317	0.2	316	317	4.3	97.0
2025-10-19T01:00	10	0	0.1	-1	0	317	0.2	316	318	4.2	97.1
2025-10-19T01:01	10	0	0.1	-1	0	317	0.2	317	318	4.1	97.2
2025-10-19T01:02	10	0	0.1	-1	0	317	0.2	317	318	4.0	97.5
2025-10-19T01:03	10	-1	0.1	-1	0	318	0.3	317	319	4.0	97.7
2025-10-19T01:04	10	0	0.1	-1	0	318	0.2	318	319	4.0	97.9
2025-10-19T01:05	10	-1	0.1	-1	0	318	0.3	318	319	4.2	98.0
2025-10-19T01:06	10	0	0.1	-1	0	318	0.2	318	319	4.3	98.1
2025-10-19T01:07	10	0	0.1	-1	0	319	0.3	318	319	4.4	98.1
2025-10-19T01:08	10	0	0.1	0	0	319	0.2	318	319	4.3	98.5
2025-10-19T01:09	10	0	0.1	0	0	319	0.2	318	319	4.2	98.4
2025-10-19T01:10	10	0	0.1	0	0	319	0.2	319	320	4.1	98.3
2025-10-19T01:11	10	0	0.1	0	0	319	0.3	319	320	4.2	98.2
2025-10-19T01:12	10	0	0.1	0	0	320	0.2	319	320	4.2	98.2
2025-10-19T01:13	10	0	0.1	-1	0	320	0.2	319	320	4.2	98.6
2025-10-19T01:14	10	0	0.1	-1	0	320	0.3	319	320	4.2	98.2
2025-10-19T01:15	10	0	0.1	-1	0	320	0.2	319	320	4.1	98.5
2025-10-19T01:16	10	0	0.1	-1	0	320	0.3	319	321	4.2	98.2
2025-10-19T01:17	10	0	0.1	-1	0	320	0.3	320	321	4.3	98.3
2025-10-19T01:18	10	0	0.1	-1	0	321	0.2	320	321	4.5	97.9
2025-10-19T01:19	10	0	0.1	0	0	320	0.2	320	321	4.6	98.1
2025-10-19T01:20	10	0	0.1	0	0	320	0.2	320	321	4.6	97.9
2025-10-19T01:21	10	0	0.1	0	0	320	0.3	319	321	4.6	98.1
2025-10-19T01:22	10	0	0.1	0	0	319	0.4	318	320	4.6	98.2
2025-10-19T01:23	10	0	0.1	0	0	319	0.2	318	319	4.5	98.3
2025-10-19T01:24	10	0	0.0	0	0	319	0.2	318	319	4.4	97.7
2025-10-19T01:25	10	0	0.1	0	0	319	0.3	318	319	4.5	97.6
2025-10-19T01:26	10	0	0.0	0	0	319	0.3	319	320	4.7	97.2
2025-10-19T01:27	10	0	0.0	0	0	319	0.3	319	320	4.8	97.4
2025-10-19T01:28	10	0	0.1	0	0	319	0.2	319	320	4.8	97.3
2025-10-19T01:29	10	0	0.1	0	0	319	0.2	319	320	4.8	97.3
2025-10-19T01:30	10	0	0.1	0	0	320	0.2	319	320	4.8	97.2
2025-10-19T01:31	10	0	0.1	0	0	320	0.3	319	321	4.8	97.3
2025-10-19T01:32	10	0	0.1	0	0	320	0.3	319	321	4.8	97.6
2025-10-19T01:33	10	0	0.1	0	0	320	0.2	320	321	4.7	97.3
2025-10-19T01:34	10	0	0.0	0	0	320	0.2	320	321	4.6	97.5
2025-10-19T01:35	10	0	0.1	0	0	321	0.3	320	322	4.7	97.4
2025-10-19T01:36	10	0	0.1	0	0	321	0.3	320	322	4.9	97.6
2025-10-19T01:37	10	0	0.1	0	0	320	0.3	320	321	4.8	97.7
2025-10-19T01:38	10	0	0.1	0	0	320	0.3	319	321	4.7	97.7
2025-10-19T01:39	10	0	0.1	0	0	320	0.3	319	321	4.6	97.3
2025-10-19T01:40	10	0	0.1	0	0	320	0.3	319	320	4.3	96.7
2025-10-19T01:41	10	0	0.1	-1	0	320	0.2	320	321	4.2	97.1
2025-10-19T01:42	10	0	0.1	-1	0	320	0.3	319	321	4.2	97.7
2025-10-19T01:43	10	0	0.1	-1	0	320	0.2	319	320	4.2	97.7
2025-10-19T01:44	10	0	0.1	-1	0	320	0.2	319	320	4.2	98.0
2025-10-19T01:45	10	0	0.1	-1	0	320	0.3	319	321	4.3	97.8
2025-10-19T01:46	10	0	0.1	-1	0	320	0.2	319	320	4.2	98.3
2025-10-19T01:47	10	0	0.1	-1	0	320	0.2	319	320	4.2	98.1
2025-10-19T01:48	10	0	0.1	-1	0	320	0.2	319	320	4.1	98.2
2025-10-19T01:49	10	0	0.1	-1	0	319	0.2	319	320	4.1	98.3
2025-10-19T01:50	10	0	0.1	-1	0	319	0.2	319	319	4.1	98.2
2025-10-19T01:51	10	0	0.1	-1	0	319	0.2	318	319	4.0	98.0
2025-10-19T01:52	10	0	0.1	-1	0	319	0.2	318	319	4.0	97.9
2025-10-19T01:53	10	0	0.1	-1	0	320	0.3	319	320	4.0	97.9
2025-10-19T01:54	10	0	0.1	-1	0	320	0.2	319	320	3.9	98.3
2025-10-19T01:55	10	0	0.1	-1	0	320	0.3	319	320	4.0	98.3
2025-10-19T01:56	10	0	0.1	-1	0	320	0.3	319	320	4.0	98.5
2025-10-19T01:57	10	0	0.1	-1	0	320	0.3	319	320	4.0	98.3
2025-10-19T01:58	10	0	0.1	-1	0	320	0.3	319	320	4.0	98.5
2025-10-19T01:59	10	0	0.1	-1	0	320	0.2	320	321	4.0	98.6
2025-10-19T02:00	10	0	0.0	0	0	320	0.2	320	321	3.9	98.9
2025-10-19T02:01	10	0	0.1	0	0	320	0.2	320	320	3.8	98.9
2025-10-19T02:02	10	0	0.1	0	0	320	0.2	319	320	3.7	98.8
2025-10-19T02:03	10	0	0.1	0	0	320	0.2	319	320	3.8	98.7
2025-10-19T02:04	10	0	0.1	0	0	319	0.2	319	320	3.9	98.8
2025-10-19T02:05	10	0	0.1	0	0	319	0.2	319	319	4.0	99.4
2025-10-19T02:06	10	0	0.0	0	0	318	0.3	318	319	3.9	99.6
2025-10-19T02:07	10	0	0.1	0	0	318	0.2	318	319	3.8	99.6
2025-10-19T02:08	10	0	0.1	0	0	318	0.2	318	319	3.8	98.9
2025-10-19T02:09	10	0	0.1	0	0	318	0.2	318	319	3.8	99.1
2025-10-19T02:10	10	0	0.1	-1	0	319	0.2	318	319	3.8	99.0
2025-10-19T02:11	10	0	0.1	-1	0	318	0.2	318	319	3.8	99.2
2025-10-19T02:12	10	0	0.1	0	0	319	0.3	318	319	3.8	99.3
2025-10-19T02:13	10	0	0.1	0	0	319	0.3	318	319	3.8	99.5
2025-10-19T02:14	10	0	0.1	0	0	319	0.3	318	319	3.9	99.5
2025-10-19T02:15	10	0	0.0	0	0	319	0.2	319	320	3.8	99.4
2025-10-19T02:16	10	0	0.1	0	0	319	0.2	319	320	4.0	99.1
2025-10-19T02:17	10	0	0.1	0	0	319	0.2	319	320	4.0	99.1
2025-10-19T02:18	10	0	0.1	0	0	320	0.2	319	320	4.1	99.2
2025-10-19T02:19	10	0	0.1	0	0	320	0.2	319	320	4.1	99.5
2025-10-19T02:20	10	0	0.1	0	0	320	0.3	319	320	4.1	99.4
2025-10-19T02:21	10	0	0.1	0	0	320	0.2	319	320	4.1	99.4
2025-10-19T02:22	10	0	0.1	0	0	320	0.2	319	320	4.1	99.1
2025-10-19T02:23	10	0	0.1	0	0	320	0.2	319	320	4.1	99.2
2025-10-19T02:24	10	0	0.1	0	0	319	0.3	319	320	4.0	99.3
2025-10-19T02:25	10	0	0.1	-1	0	319	0.2	319	320	3.9	99.4
2025-10-19T02:26	10	0	0.1	0	0	319	0.2	318	319	3.8	99.3
2025-10-19T02:27	10	0	0.1	0	0	319	0.2	318	319	3.8	99.3
2025-10-19T02:28	10	0	0.1	0	0	319	0.2	318	319	3.8	99.3
2025-10-19T02:29	10	0	0.1	0	0	319	0.2	318	319	3.9	98.9
2025-10-19T02:30	10	0	0.1	0	0	320	0.4	319	320	4.2	98.5
2025-10-19T02:31	10	0	0.1	0	0	320	0.3	319	321	4.4	98.9
2025-10-19T02:32	10	0	0.1	0	0	320	0.3	320	321	4.4	99.1
2025-10-19T02:33	10	0	0.0	0	0	320	0.3	320	321	4.4	99.1
2025-10-19T02:34	10	0	0.1	0	0	320	0.3	319	321	4.3	99.1
2025-10-19T02:35	10	0	0.1	0	0	320	0.2	319	320	4.2	99.2
2025-10-19T02:36	10	0	0.1	0	0	319	0.3	319	320	4.2	99.0
2025-10-19T02:37	10	0	0.1	0	0	319	0.2	319	320	4.1	98.8
2025-10-19T02:38	10	0	0.1	0	0	319	0.2	318	319	4.0	98.7
2025-10-19T02:39	10	0	0.1	0	0	319	0.2	319	320	3.9	98.7
2025-10-19T02:40	10	0	0.1	-1	0	319	0.2	319	320	4.0	98.5
2025-10-19T02:41	10	0	0.1	-1	0	319	0.3	318	320	4.1	98.5
2025-10-19T02:42	10	0	0.1	0	0	319	0.2	318	319	4.1	98.7
2025-10-19T02:43	10	0	0.1	-1	0	318	0.2	318	319	4.1	98.7
2025-10-19T02:44	10	0	0.1	0	0	318	0.2	318	319	4.0	98.6
2025-10-19T02:45	10	0	0.1	0	0	318	0.2	318	319	4.0	98.5
2025-10-19T02:46	10	0	0.1	0	0	319	0.2	318	319	4.0	98.5
2025-10-19T02:47	10	0	0.1	-1	0	319	0.2	318	319	3.9	98.9
2025-10-19T02:48	10	0	0.1	0	0	319	0.2	318	319	3.9	98.8
2025-10-19T02:49	10	0	0.1	0	0	318	0.2	318	319	3.8	99.0
2025-10-19T02:50	10	0	0.1	-1	0	318	0.2	318	319	3.6	99.2
2025-10-19T02:51	10	0	0.1	-1	0	318	0.2	318	319	3.5	99.5
2025-10-19T02:52	10	0	0.1	-1	0	318	0.2	317	318	3.5	99.9
2025-10-19T02:53	10	0	0.1	-1	0	318	0.2	317	318	3.4	99.8
2025-10-19T02:54	10	0	0.1	-1	0	318	0.2	317	318	3.4	99.4
2025-10-19T02:55	10	0	0.1	-1	0	318	0.2	317	318	3.5	99.6
2025-10-19T02:56	10	0	0.1	-1	0	318	0.2	317	318	3.5	99.9
2025-10-19T02:57	10	0	0.1	-1	0	317	0.2	317	318	3.5	100.2
2025-10-19T02:58	10	0	0.1	-1	0	317	0.2	317	317	3.5	100.1
2025-10-19T02:59	10	0	0.1	-1	0	317	0.3	316	318	3.6	99.3
2025-10-19T03:00	10	0	0.1	-1	0	317	0.2	316	317	3.7	99.3
2025-10-19T03:01	10	0	0.1	-1	0	317	0.2	316	317	3.8	99.1
2025-10-19T03:02	10	0	0.1	-1	0	317	0.3	317	318	3.8	99.3
2025-10-19T03:03	10	0	0.1	-1	0	317	0.3	317	318	3.7	99.2
2025-10-19T03:04	10	0	0.1	-1	0	317	0.2	317	318	3.7	99.1
2025-10-19T03:05	10	0	0.1	-1	0	317	0.2	317	318	3.7	99.1
2025-10-19T03:06	10	0	0.1	-1	0	317	0.2	317	318	3.7	99.3
2025-10-19T03:07	10	0	0.1	-1	0	318	0.2	317	318	3.6	99.4
2025-10-19T03:08	10	0	0.1	-1	0	318	0.2	317	318	3.5	99.4
2025-10-19T03:09	10	0	0.1	-1	0	318	0.3	318	319	3.3	99.8
2025-10-19T03:10	10	-1	0.1	-1	0	319	0.5	318	320	3.4	99.4
2025-10-19T03:11	10	0	0.2	-1	0	320	0.2	320	321	3.5	99.5
2025-10-19T03:12	10	0	0.1	-1	0	320	0.2	320	321	3.5	99.8
2025-10-19T03:13	10	0	0.1	-1	0	321	0.2	320	321	3.5	99.8
2025-10-19T03:14	10	0	0.1	-1	0	321	0.2	320	321	3.5	100.0
2025-10-19T03:15	10	0	0.1	-1	0	321	0.3	320	322	3.5	99.6
2025-10-19T03:16	10	0	0.1	-1	0	321	0.4	320	322	3.7	99.0
2025-10-19T03:17	10	0	0.1	0	0	322	0.2	321	323	4.0	99.4
2025-10-19T03:18	10	0	0.1	0	0	322	0.3	322	323	4.1	99.7
2025-10-19T03:19	10	0	0.1	0	0	322	0.2	322	323	4.0	99.5
2025-10-19T03:20	10	0	0.1	0	0	323	0.3	322	323	4.2	98.9
2025-10-19T03:21	10	0	0.1	0	0	323	0.2	322	323	4.3	99.1
2025-10-19T03:22	10	0	0.1	0	0	323	0.3	322	324	4.3	99.1
2025-10-19T03:23	10	0	0.1	0	0	323	0.2	323	324	4.3	98.9
2025-10-19T03:24	10	0	0.1	0	0	323	0.2	323	324	4.2	99.1
2025-10-19T03:25	10	0	0.1	0	0	323	0.3	323	324	4.1	99.4
2025-10-19T03:26	10	0	0.1	-1	0	324	0.2	323	324	4.1	99.7
2025-10-19T03:27	10	0	0.1	0	0	324	0.3	323	324	3.9	99.5
2025-10-19T03:28	10	0	0.1	-1	0	324	0.2	324	325	3.8	99.2
2025-10-19T03:29	10	0	0.1	-1	0	325	0.3	324	326	3.9	98.7
2025-10-19T03:30	10	0	0.1	-1	0	325	0.2	325	326	4.0	99.7
2025-10-19T03:31	10	0	0.1	-1	0	325	0.2	325	326	4.0	100.0
2025-10-19T03:32	10	0	0.1	0	0	326	0.2	325	326	4.0	100.7
2025-10-19T03:33	10	0	0.1	0	0	326	0.3	325	326	4.0	100.4
2025-10-19T03:34	10	0	0.1	0	0	325	0.3	325	326	4.1	99.5
2025-10-19T03:35	10	0	0.1	0	0	325	0.3	324	326	4.0	99.3
2025-10-19T03:36	10	0	0.1	-1	0	325	0.2	324	325	3.8	98.9
2025-10-19T03:37	10	0	0.1	-1	0	325	0.2	324	325	3.8	98.8
2025-10-19T03:38	10	0	0.1	0	0	325	0.2	324	325	4.0	98.6
2025-10-19T03:39	10	0	0.1	0	0	324	0.2	324	325	4.1	99.3
2025-10-19T03:40	10	0	0.1	0	0	324	0.2	324	325	4.1	99.8
2025-10-19T03:41	10	0	0.1	0	0	323	0.3	323	324	4.2	100.3
2025-10-19T03:42	10	0	0.1	0	0	323	0.4	322	324	4.0	100.8
2025-10-19T03:43	10	0	0.1	0	0	322	0.2	322	323	4.0	100.0
2025-10-19T03:44	10	0	0.1	-1	0	322	0.3	321	323	4.0	99.6
2025-10-19T03:45	10	0	0.1	-1	0	321	0.3	321	322	4.0	99.9
2025-10-19T03:46	10	0	0.1	-1	0	321	0.3	320	322	4.0	99.7
2025-10-19T03:47	10	0	0.1	-1	0	321	0.3	320	321	3.9	99.5
2025-10-19T03:48	10	0	0.1	-1	0	320	0.2	320	321	3.8	99.2
2025-10-19T03:49	10	0	0.1	-1	0	320	0.2	319	321	3.8	99.0
2025-10-19T03:50	10	0	0.1	-1	0	320	0.3	319	321	3.8	99.2
2025-10-19T03:51	10	0	0.1	-1	0	320	0.3	319	321	3.8	99.2
2025-10-19T03:52	10	0	0.2	-1	0	320	0.3	319	320	3.9	99.8
2025-10-19T03:53	10	0	0.1	-1	0	320	0.2	319	321	3.8	99.7
2025-10-19T03:54	10	0	0.3	-1	1	320	0.3	320	321	3.8	100.1
2025-10-19T03:55	10	0	0.1	-1	0	321	0.5	320	322	3.9	99.9
2025-10-19T03:56	10	0	0.1	-1	0	321	0.2	321	322	4.0	99.9
2025-10-19T03:57	10	0	0.1	0	0	322	0.4	321	323	4.0	100.6
2025-10-19T03:58	10	0	0.1	-1	0	322	0.2	322	323	4.1	99.7
2025-10-19T03:59	10	0	0.1	-1	0	322	0.3	322	323	4.1	100.2
2025-10-19T04:00	10	0	0.1	-1	0	322	0.3	321	323	4.1	100.4
2025-10-19T04:01	10	0	0.1	-1	0	322	0.2	321	322	4.1	99.6
2025-10-19T04:02	10	0	0.1	0	0	321	0.2	321	322	4.1	99.3
2025-10-19T04:03	10	0	0.1	0	0	321	0.2	321	322	4.1	99.3
2025-10-19T04:04	10	0	0.1	0	0	321	0.4	320	322	4.1	99.2
2025-10-19T04:05	10	0	0.1	-1	0	321	0.2	320	321	4.1	99.2
2025-10-19T04:06	10	0	0.1	0	0	321	0.5	320	321	4.0	99.2
2025-10-19T04:07	10	0	0.1	0	0	320	0.2	320	321	3.9	98.5
2025-10-19T04:08	10	0	0.1	0	0	320	0.2	319	321	3.9	98.9
2025-10-19T04:09	10	0	0.1	-1	0	320	0.4	319	321	3.9	98.9
2025-10-19T04:10	10	0	0.1	-1	0	319	0.3	318	320	3.7	99.2
2025-10-19T04:11	10	0	0.1	-1	0	319	0.2	318	319	3.6	99.3
2025-10-19T04:12	10	0	0.1	-1	0	319	0.2	319	320	3.6	99.5
2025-10-19T04:13	10	0	0.2	-1	0	319	0.3	319	320	3.6	99.1
2025-10-19T04:14	10	0	0.1	-1	0	319	0.3	318	320	3.7	99.4
2025-10-19T04:15	10	0	0.1	-1	0	319	0.2	318	319	3.7	99.0
2025-10-19T04:16	10	0	0.1	-1	0	319	0.3	318	320	3.8	99.2
2025-10-19T04:17	10	0	0.2	-1	0	319	0.3	318	320	3.7	99.8
2025-10-19T04:18	10	0	0.1	-1	0	319	0.2	318	319	3.7	99.7
2025-10-19T04:19	10	0	0.1	-1	0	319	0.4	318	320	3.6	99.2
2025-10-19T04:20	10	0	0.1	-1	0	319	0.2	319	320	3.7	99.0
2025-10-19T04:21	10	0	0.2	-1	0	320	0.2	319	321	3.8	99.1
2025-10-19T04:22	10	0	0.1	-1	0	320	0.3	319	321	3.9	99.3
2025-10-19T04:23	10	0	0.1	-1	0	320	0.2	319	321	4.0	99.7
2025-10-19T04:24	10	0	0.1	0	0	320	0.3	319	321	3.9	99.7
2025-10-19T04:25	10	0	0.1	-1	0	320	0.3	319	321	3.9	99.4
2025-10-19T04:26	10	0	0.2	-1	0	320	0.2	319	320	3.8	99.5
2025-10-19T04:27	10	0	0.1	0	0	320	0.2	319	320	3.8	99.3
2025-10-19T04:28	10	0	0.1	-1	0	320	0.3	320	321	3.7	99.4
2025-10-19T04:29	10	0	0.1	0	0	321	0.2	320	321	3.6	99.2
2025-10-19T04:30	10	0	0.1	-1	0	321	0.4	320	322	3.7	98.6
2025-10-19T04:31	10	0	0.2	-1	0	322	0.3	322	323	3.9	99.1
2025-10-19T04:32	10	0	0.1	-1	0	322	0.3	322	323	3.9	99.5
2025-10-19T04:33	10	0	0.1	-1	0	323	0.2	322	324	4.1	99.4
2025-10-19T04:34	10	0	0.1	0	0	323	0.2	323	324	4.1	99.8
2025-10-19T04:35	10	0	0.1	0	0	323	0.3	322	324	4.1	99.7
2025-10-19T04:36	10	0	0.1	0	0	324	0.3	323	324	4.1	99.6
2025-10-19T04:37	10	0	0.1	0	0	324	0.3	323	325	4.1	99.9
2025-10-19T04:38	10	0	0.1	0	0	324	0.2	324	325	4.0	99.9
2025-10-19T04:39	10	0	0.1	0	0	324	0.2	324	325	4.0	99.8
2025-10-19T04:40	10	0	0.1	-1	0	325	0.3	324	325	4.0	99.8
2025-10-19T04:41	10	0	0.1	0	0	325	0.3	324	326	4.0	99.9
2025-10-19T04:42	10	0	0.1	0	0	325	0.2	324	325	3.9	99.7
2025-10-19T04:43	10	0	0.1	-1	0	325	0.3	325	326	3.9	99.3
2025-10-19T04:44	10	0	0.2	-1	0	326	0.3	326	327	4.0	98.9
2025-10-19T04:45	10	0	0.1	-1	0	327	0.2	326	328	4.1	99.1
2025-10-19T04:46	10	0	0.1	-1	0	328	0.4	327	329	4.2	99.1
2025-10-19T04:47	10	0	0.1	0	0	328	0.2	328	329	4.2	99.1
2025-10-19T04:48	10	0	0.1	0	0	329	0.3	328	330	4.1	99.0
2025-10-19T04:49	10	0	0.1	-1	0	330	0.3	329	330	4.2	98.8
2025-10-19T04:50	10	0	0.1	0	0	330	0.3	330	331	4.3	98.5
2025-10-19T04:51	10	0	0.1	-1	0	331	0.3	330	332	4.3	98.4
2025-10-19T04:52	10	0	0.1	0	0	332	0.2	331	332	4.4	98.5
2025-10-19T04:53	10	0	0.2	-1	0	332	0.2	331	333	4.6	98.0
2025-10-19T04:54	10	0	0.1	0	0	332	0.2	332	333	4.7	98.6
2025-10-19T04:55	10	0	0.1	0	0	332	0.4	332	333	4.6	98.5
2025-10-19T04:56	10	0	0.1	-1	0	333	0.3	332	333	4.4	98.4
2025-10-19T04:57	10	0	0.1	0	0	333	0.2	332	333	4.4	98.3
2025-10-19T04:58	10	0	0.1	0	0	333	0.2	332	334	4.4	98.7
2025-10-19T04:59	10	0	0.1	-1	0	333	0.3	333	334	4.3	98.6
2025-10-19T05:00	10	0	0.3	0	2	333	0.3	333	334	4.2	98.4
2025-10-19T05:01	10	0	0.1	-1	0	333	0.2	333	334	4.2	98.4
2025-10-19T05:02	10	0	0.1	-1	0	333	0.3	333	334	4.2	98.3
2025-10-19T05:03	10	0	0.1	-1	0	333	0.3	333	334	4.2	98.2
2025-10-19T05:04	10	0	0.2	-1	0	334	0.3	333	334	4.3	98.3
2025-10-19T05:05	10	0	0.2	-1	1	334	0.3	333	334	4.3	98.5
2025-10-19T05:06	10	0	0.1	-1	0	334	0.3	333	335	4.4	98.6
2025-10-19T05:07	10	0	0.1	-1	0	334	0.2	334	335	4.4	98.6
2025-10-19T05:08	10	0	0.1	-1	0	334	0.3	334	335	4.4	98.6
2025-10-19T05:09	10	0	0.1	-1	0	335	0.2	334	335	4.5	98.3
2025-10-19T05:10	10	0	0.1	-1	0	335	0.3	334	335	4.4	98.7
2025-10-19T05:11	10	0	0.1	-1	0	335	0.3	334	335	4.4	98.7
2025-10-19T05:12	10	0	0.1	-1	0	334	0.2	334	335	4.3	98.7
2025-10-19T05:13	10	0	0.1	-1	0	334	0.3	333	334	4.2	98.8
2025-10-19T05:14	10	0	0.1	-1	0	334	0.2	333	335	4.2	98.4
2025-10-19T05:15	10	0	0.1	-1	0	334	0.2	333	334	4.1	98.8
2025-10-19T05:16	10	0	0.1	-1	0	334	0.2	333	334	4.1	98.4
2025-10-19T05:17	10	-1	0.1	-1	0	334	0.3	333	335	4.1	98.3
2025-10-19T05:18	10	0	0.1	-1	0	334	0.3	334	335	4.4	98.6
2025-10-19T05:19	10	0	0.1	-1	0	334	0.2	334	335	4.5	98.4
2025-10-19T05:20	10	0	0.1	-1	0	335	0.2	335	335	4.7	98.0
2025-10-19T05:21	10	0	0.1	0	0	335	0.4	334	336	4.8	98.5
2025-10-19T05:22	10	0	0.1	0	0	335	0.2	335	336	4.9	98.2
2025-10-19T05:23	10	0	0.1	0	0	336	0.2	335	336	4.9	98.0
2025-10-19T05:24	10	0	0.1	0	0	336	0.2	335	336	4.8	98.0
2025-10-19T05:25	10	0	0.1	0	0	336	0.2	335	336	4.8	97.8
2025-10-19T05:26	10	0	0.1	0	0	336	0.2	335	336	4.8	97.8
2025-10-19T05:27	10	0	0.1	0	0	336	0.2	335	337	4.8	97.8
2025-10-19T05:28	10	0	0.1	0	0	336	0.2	336	337	4.9	97.7
2025-10-19T05:29	10	0	0.1	0	0	337	0.2	336	337	4.9	97.7
2025-10-19T05:30	10	0	0.1	0	0	337	0.3	337	338	4.9	97.5
2025-10-19T05:31	10	0	0.1	0	0	337	0.1	337	337	5.0	97.6
2025-10-19T05:32	10	0	0.1	0	0	337	0.3	336	338	5.1	97.7
2025-10-19T05:33	10	0	0.1	0	0	337	0.3	336	337	4.9	97.3
2025-10-19T05:34	10	0	0.1	0	0	336	0.2	336	337	4.8	97.3
2025-10-19T05:35	10	0	0.1	0	0	337	0.2	336	337	4.9	97.3
2025-10-19T05:36	10	0	0.1	0	0	336	0.2	336	337	5.0	97.5
2025-10-19T05:37	10	0	0.1	0	0	337	0.2	336	337	5.1	97.4
2025-10-19T05:38	10	0	0.1	0	0	337	0.2	336	337	5.1	97.6
2025-10-19T05:39	10	0	0.0	0	0	337	0.2	336	337	5.1	97.5
2025-10-19T05:40	10	0	0.0	0	0	337	0.2	336	337	5.1	97.3
2025-10-19T05:41	10	0	0.1	0	0	337	0.2	336	337	5.1	97.2
2025-10-19T05:42	10	0	0.1	0	0	337	0.2	336	337	5.1	97.3
2025-10-19T05:43	10	0	0.1	0	0	337	0.3	336	338	5.2	97.4
2025-10-19T05:44	10	0	0.1	0	0	337	0.2	337	338	5.2	97.3
2025-10-19T05:45	10	0	0.1	0	0	337	0.2	337	338	5.2	97.3
2025-10-19T05:46	10	0	0.1	0	0	337	0.2	337	338	5.2	97.2
2025-10-19T05:47	10	0	0.1	0	0	338	0.2	337	338	5.2	97.2
2025-10-19T05:48	10	0	0.1	0	0	338	0.2	337	338	5.2	97.1
2025-10-19T05:49	10	0	0.1	0	0	338	0.3	337	339	5.3	97.2
2025-10-19T05:50	10	0	0.1	0	0	338	0.2	338	339	5.3	97.5
2025-10-19T05:51	10	0	0.1	0	0	338	0.2	338	339	5.4	97.9
2025-10-19T05:52	10	0	0.1	0	0	338	0.2	338	339	5.4	98.2
2025-10-19T05:53	10	0	0.0	0	0	338	0.2	338	339	5.5	98.4
2025-10-19T05:54	10	0	0.0	0	0	339	0.2	338	339	5.5	98.7
2025-10-19T05:55	10	0	0.1	0	0	339	0.2	338	339	5.5	98.6
2025-10-19T05:56	10	0	0.1	0	0	339	0.2	338	339	5.5	98.7
2025-10-19T05:57	10	0	0.1	0	0	339	0.2	338	339	5.5	99.4
2025-10-19T05:58	10	0	0.1	0	0	339	0.2	339	340	5.5	99.3
2025-10-19T05:59	10	0	0.1	0	0	339	0.3	339	340	5.5	99.2
2025-10-19T06:00	10	0	0.1	0	0	339	0.2	339	340	5.5	99.9
2025-10-19T06:01	10	0	0.1	0	0	340	0.2	339	340	5.5	99.5
2025-10-19T06:02	10	0	0.0	0	0	340	0.2	340	340	5.6	99.6
2025-10-19T06:03	10	0	0.0	0	0	340	0.2	340	341	5.6	100.1
2025-10-19T06:04	10	0	0.1	0	0	340	0.2	340	341	5.7	99.7
2025-10-19T06:05	10	0	0.1	0	0	341	0.2	340	341	5.8	100.0
2025-10-19T06:06	10	0	0.1	0	1	341	0.3	341	342	6.0	99.8
2025-10-19T06:07	10	0	0.1	0	1	342	0.3	341	342	6.1	100.2
2025-10-19T06:08	10	0	0.1	0	1	342	0.2	341	342	6.1	100.3
2025-10-19T06:09	10	0	0.1	0	1	342	0.2	341	342	6.2	100.3
2025-10-19T06:10	10	0	0.1	0	1	342	0.3	342	343	6.2	100.5
2025-10-19T06:11	10	1	0.1	0	1	342	0.2	342	343	6.1	100.3
2025-10-19T06:12	10	1	0.1	0	1	342	0.2	342	343	6.1	100.2
2025-10-19T06:13	10	1	0.1	1	1	342	0.3	341	343	6.1	100.2
2025-10-19T06:14	10	1	0.1	1	1	342	0.2	342	343	6.2	100.6
2025-10-19T06:15	10	1	0.1	1	1	342	0.2	342	343	6.2	100.6
2025-10-19T06:16	10	1	0.1	1	1	343	0.2	342	343	6.2	100.8
2025-10-19T06:17	10	1	0.1	1	1	343	0.2	342	343	6.2	100.7
2025-10-19T06:18	10	2	0.1	1	2	343	0.2	342	343	6.2	100.6
2025-10-19T06:19	10	2	0.1	1	2	343	0.2	343	344	6.2	100.5
2025-10-19T06:20	10	2	0.1	2	2	343	0.2	343	343	6.2	100.8
2025-10-19T06:21	10	2	0.1	2	2	343	0.2	343	344	6.2	100.7
2025-10-19T06:22	10	2	0.1	2	2	343	0.2	342	343	6.2	100.8
2025-10-19T06:23	10	2	0.1	2	2	342	0.4	342	343	5.8	101.2
2025-10-19T06:24	10	2	0.1	2	3	342	0.3	341	342	5.8	100.9
2025-10-19T06:25	10	3	0.1	2	3	342	0.3	341	342	5.7	101.0
2025-10-19T06:26	10	3	0.1	3	3	342	0.2	341	342	5.7	100.7
2025-10-19T06:27	10	3	0.1	3	3	342	0.2	341	342	5.5	100.3
2025-10-19T06:28	10	3	0.1	3	3	342	0.3	341	342	5.6	100.3
2025-10-19T06:29	10	4	0.1	3	4	342	0.3	342	343	5.7	100.3
2025-10-19T06:30	10	4	0.1	4	4	342	0.3	342	343	5.8	100.2
2025-10-19T06:31	10	4	0.1	4	4	342	0.2	342	343	5.8	100.6
2025-10-19T06:32	10	4	0.1	4	4	342	0.2	342	343	5.7	100.7
2025-10-19T06:33	10	4	0.1	4	4	342	0.3	342	343	5.8	100.9
2025-10-19T06:34	10	4	0.1	3	4	343	0.3	342	343	5.7	100.9
2025-10-19T06:35	10	4	0.1	3	4	343	0.3	342	343	5.7	100.8
2025-10-19T06:36	10	4	0.1	4	4	343	0.3	342	344	5.8	100.7
2025-10-19T06:37	10	4	0.1	4	4	343	0.2	343	344	5.9	100.8
2025-10-19T06:38	10	4	0.1	4	4	343	0.3	342	344	5.9	101.2
2025-10-19T06:39	10	4	0.1	4	4	344	0.3	343	344	5.9	101.1
2025-10-19T06:40	10	4	0.1	4	5	344	0.2	343	344	6.0	100.9
2025-10-19T06:41	10	4	0.1	4	5	344	0.2	344	345	6.0	100.9
2025-10-19T06:42	10	5	0.1	4	5	345	0.2	344	345	6.1	100.7
2025-10-19T06:43	10	5	0.1	4	5	345	0.2	344	345	6.1	100.9
2025-10-19T06:44	10	4	0.1	4	5	345	0.2	344	345	6.2	100.7
2025-10-19T06:45	10	4	0.1	4	5	345	0.2	344	345	6.2	100.6
2025-10-19T06:46	10	4	0.1	4	4	345	0.2	345	346	6.2	100.5
2025-10-19T06:47	10	4	0.1	4	4	345	0.2	344	345	6.1	100.6
2025-10-19T06:48	10	4	0.1	4	4	344	0.5	343	345	5.9	100.6
2025-10-19T06:49	10	4	0.1	4	5	343	0.2	342	343	5.7	100.4
2025-10-19T06:50	10	5	0.1	4	5	343	0.2	342	343	5.7	100.5
2025-10-19T06:51	10	5	0.1	5	5	343	0.3	342	344	5.7	100.8
2025-10-19T06:52	10	5	0.1	5	5	343	0.3	343	344	5.7	100.7
2025-10-19T06:53	10	5	0.3	5	7	344	0.3	343	345	5.8	100.5
2025-10-19T06:54	10	5	0.1	5	5	344	0.2	344	345	5.9	100.6
2025-10-19T06:55	10	5	0.1	5	5	344	0.2	344	345	5.9	100.6
2025-10-19T06:56	10	5	0.1	5	5	344	0.2	344	345	6.0	100.5
2025-10-19T06:57	10	5	0.1	5	5	344	0.2	344	345	6.0	100.4
2025-10-19T06:58	10	5	0.1	5	5	345	0.2	344	345	6.1	100.3
2025-10-19T06:59	10	5	0.1	5	5	345	0.2	344	345	6.1	93.6
2025-10-19T07:00	10	5	0.1	5	5	345	0.3	344	345	6.1	97.0
2025-10-19T07:01	10	5	0.1	5	5	344	0.3	344	345	6.1	97.0
2025-10-19T07:02	10	5	0.1	5	5	344	0.2	344	345	6.1	100.3
2025-10-19T07:03	10	5	0.1	5	5	344	0.2	344	345	6.1	100.3
2025-10-19T07:04	10	5	0.1	5	5	345	0.2	344	345	6.1	100.3
2025-10-19T07:05	10	5	0.1	5	5	345	0.2	344	345	6.1	100.3
2025-10-19T07:06	10	5	0.1	5	5	345	0.2	344	345	6.1	98.2
2025-10-19T07:07	10	5	0.1	5	5	345	0.2	345	345	6.1	98.0
2025-10-19T07:08	10	5	0.1	5	5	345	0.2	345	346	6.1	98.9
2025-10-19T07:09	10	5	0.1	5	5	345	0.2	345	346	6.2	99.1
2025-10-19T07:10	10	5	0.1	4	5	345	0.2	345	346	6.2	99.2
2025-10-19T07:11	10	4	0.1	4	5	345	0.2	345	346	6.2	99.0
2025-10-19T07:12	10	4	0.0	4	5	345	0.2	345	346	6.2	99.4
2025-10-19T07:13	10	5	0.1	4	5	345	0.4	344	346	6.0	99.5
2025-10-19T07:14	10	5	0.1	5	5	344	0.2	344	345	5.9	99.3
2025-10-19T07:15	10	5	0.1	5	5	344	0.2	344	345	5.9	99.6
2025-10-19T07:16	10	5	0.1	5	5	344	0.2	344	345	5.9	99.7
2025-10-19T07:17	10	5	0.1	5	5	344	0.2	344	345	5.9	99.8
2025-10-19T07:18	10	6	0.1	5	6	344	0.2	344	345	6.0	100.0
2025-10-19T07:19	10	6	0.1	6	6	345	0.2	344	345	6.0	99.9
2025-10-19T07:20	10	6	0.2	6	7	345	0.2	344	345	6.0	100.1
2025-10-19T07:21	10	7	0.2	7	8	345	0.3	345	346	6.1	99.7
2025-10-19T07:22	10	8	0.3	7	8	346	0.2	345	346	6.1	99.6
2025-10-19T07:23	10	9	0.2	8	9	346	0.3	345	347	6.2	99.6
2025-10-19T07:24	10	9	0.2	9	10	346	0.3	346	347	6.2	99.6
2025-10-19T07:25	10	10	0.1	10	10	347	0.2	346	347	6.2	99.5
2025-10-19T07:26	10	10	0.1	10	10	347	0.2	347	348	6.3	99.3
2025-10-19T07:27	10	10	0.1	10	11	347	0.2	347	348	6.2	99.7
2025-10-19T07:28	10	10	0.1	10	11	347	0.2	346	348	6.2	99.6
2025-10-19T07:29	10	11	0.1	10	11	347	0.2	346	347	6.1	99.5
2025-10-19T07:30	10	11	0.1	11	11	347	0.3	346	347	6.1	99.5
2025-10-19T07:31	10	11	0.2	11	11	347	0.2	346	347	6.1	99.6
2025-10-19T07:32	10	12	0.3	11	12	347	0.2	346	347	6.2	99.6
2025-10-19T07:33	10	13	0.3	12	13	347	0.2	347	348	6.2	99.8
2025-10-19T07:34	10	14	0.2	13	14	348	0.4	347	348	6.1	100.1
2025-10-19T07:35	10	14	0.1	13	14	348	0.2	348	349	6.2	100.3
2025-10-19T07:36	10	14	0.1	13	14	348	0.2	348	349	6.2	100.3
2025-10-19T07:37	10	14	0.2	13	14	349	0.2	348	349	6.2	99.9
2025-10-19T07:38	10	13	0.2	12	13	349	0.2	349	349	6.2	99.7
2025-10-19T07:39	10	12	0.1	12	13	349	0.3	348	350	6.2	99.9
2025-10-19T07:40	10	12	0.1	12	12	349	0.3	348	349	6.2	99.6
2025-10-19T07:41	10	12	0.1	12	12	348	0.2	348	349	6.2	99.7
2025-10-19T07:42	10	12	0.1	12	12	349	0.3	348	349	6.2	99.9
2025-10-19T07:43	10	12	0.1	12	12	349	0.2	348	349	6.2	99.8
2025-10-19T07:44	10	12	0.1	11	12	349	0.2	348	349	6.2	99.8
2025-10-19T07:45	10	12	0.1	11	12	349	0.2	348	349	6.3	99.9
2025-10-19T07:46	10	12	0.1	11	12	349	0.3	348	350	6.3	100.0
2025-10-19T07:47	10	12	0.2	11	12	349	0.2	348	350	6.4	100.0
2025-10-19T07:48	10	12	0.2	11	12	349	0.3	348	349	6.4	99.9
2025-10-19T07:49	10	12	0.1	12	12	349	0.2	349	350	6.4	99.6
2025-10-19T07:50	10	12	0.1	12	12	350	0.2	349	350	6.5	99.9
2025-10-19T07:51	10	12	0.1	12	12	350	0.2	350	350	6.5	99.9
2025-10-19T07:52	10	12	0.5	12	16	350	0.3	349	351	6.5	99.9
2025-10-19T07:53	10	12	0.1	12	13	349	0.4	349	350	6.5	99.6
2025-10-19T07:54	10	12	0.1	12	12	349	0.2	349	350	6.5	99.5
2025-10-19T07:55	10	12	0.1	12	13	350	0.2	349	350	6.5	99.5
2025-10-19T07:56	10	13	0.2	12	13	349	0.3	349	350	6.5	99.2
2025-10-19T07:57	10	13	0.1	13	14	350	0.2	349	350	6.5	99.1
2025-10-19T07:58	10	13	0.1	13	14	350	0.2	349	350	6.5	99.2
2025-10-19T07:59	10	14	0.1	13	14	350	0.2	349	350	6.5	99.0
2025-10-19T08:00	10	14	0.1	14	14	350	0.2	349	350	6.6	99.3
2025-10-19T08:01	10	14	0.2	14	15	350	0.2	349	350	6.5	99.1
2025-10-19T08:02	10	15	0.1	14	15	350	0.2	349	350	6.5	99.3
2025-10-19T08:03	10	15	0.1	14	15	350	0.2	349	350	6.5	99.4
2025-10-19T08:04	10	15	0.1	14	15	350	0.2	349	351	6.5	99.3
2025-10-19T08:05	10	14	0.1	14	15	350	0.2	350	351	6.5	99.4
2025-10-19T08:06	10	14	0.1	14	14	350	0.3	350	351	6.5	99.2
2025-10-19T08:07	10	14	0.1	14	14	350	0.2	350	351	6.5	99.3
2025-10-19T08:08	10	14	0.1	14	14	350	0.2	350	351	6.5	99.4
2025-10-19T08:09	10	14	0.1	14	15	351	0.2	350	351	6.6	99.2
2025-10-19T08:10	10	14	0.1	14	14	351	0.2	350	351	6.6	99.3
2025-10-19T08:11	10	14	0.1	14	15	350	0.3	350	351	6.6	99.1
2025-10-19T08:12	10	14	0.1	14	15	351	0.2	350	351	6.7	99.4
2025-10-19T08:13	10	15	0.1	14	15	351	0.3	350	351	6.7	99.5
2025-10-19T08:14	10	15	0.1	15	15	351	0.3	350	352	6.7	99.3
2025-10-19T08:15	10	15	0.1	15	15	351	0.2	351	352	6.7	99.4
2025-10-19T08:16	10	14	0.2	14	15	351	0.2	351	352	6.8	99.4
2025-10-19T08:17	10	14	0.2	13	14	352	0.2	351	352	6.8	99.2
2025-10-19T08:18	10	13	0.1	13	14	352	0.2	351	352	6.9	99.3
2025-10-19T08:19	10	13	0.1	13	13	351	0.3	351	352	6.8	99.0
2025-10-19T08:20	10	13	0.2	12	13	351	0.2	350	351	6.8	98.5
2025-10-19T08:21	10	12	0.1	12	13	351	0.2	350	351	6.8	98.3
2025-10-19T08:22	10	12	0.1	12	12	350	0.3	350	351	6.9	98.3
2025-10-19T08:23	10	12	0.1	12	12	350	0.2	350	351	6.8	97.9
2025-10-19T08:24	10	12	0.1	12	12	350	0.2	349	350	6.8	97.9
2025-10-19T08:25	10	12	0.1	12	12	350	0.3	349	350	6.8	97.6
2025-10-19T08:26	10	12	0.1	12	12	350	0.2	349	350	6.8	97.5
2025-10-19T08:27	10	12	0.1	12	12	350	0.2	350	350	6.8	97.6
2025-10-19T08:28	10	12	0.1	12	13	350	0.2	350	351	6.8	97.7
2025-10-19T08:29	10	13	0.1	12	13	350	0.2	350	351	6.9	97.8
2025-10-19T08:30	10	13	0.1	13	13	351	0.2	350	351	6.9	98.1
2025-10-19T08:31	10	14	0.2	13	14	351	0.2	350	351	6.9	97.9
2025-10-19T08:32	10	14	0.2	14	15	351	0.2	350	351	6.9	97.9
2025-10-19T08:33	10	15	0.2	14	15	351	0.3	350	352	6.9	97.9
2025-10-19T08:34	10	15	0.1	15	15	352	0.3	351	352	6.9	98.0
2025-10-19T08:35	10	15	0.1	15	15	352	0.3	351	353	7.0	97.7
2025-10-19T08:36	10	16	0.1	15	16	352	0.3	351	352	6.9	97.0
2025-10-19T08:37	10	16	0.2	16	17	351	0.2	351	352	6.9	97.2
2025-10-19T08:38	10	18	0.7	17	19	352	0.2	351	352	7.0	97.3
2025-10-19T08:39	10	20	0.6	19	21	352	0.4	352	353	7.0	97.5
2025-10-19T08:40	10	22	0.7	21	24	354	0.3	353	354	7.1	97.6
2025-10-19T08:41	10	25	0.6	24	25	354	0.3	354	355	7.1	97.6
2025-10-19T08:42	10	26	0.6	25	27	355	0.2	354	355	7.1	97.2
2025-10-19T08:43	10	28	0.6	27	29	355	0.2	355	356	7.1	97.1
2025-10-19T08:44	10	30	0.7	29	31	357	0.3	356	357	7.2	97.2
2025-10-19T08:45	10	30	0.2	30	31	357	0.3	356	358	7.2	97.2
2025-10-19T08:46	10	30	0.4	30	31	357	0.3	357	358	7.3	97.1
2025-10-19T08:47	10	30	1.3	28	31	357	0.3	357	358	7.2	96.5
2025-10-19T08:48	10	31	1.9	28	34	357	0.3	356	358	7.2	96.3
2025-10-19T08:49	10	36	1.4	34	38	358	0.3	357	358	7.2	96.5
2025-10-19T08:50	10	39	0.4	38	39	358	0.3	358	359	7.2	96.4
2025-10-19T08:51	10	39	0.1	39	39	359	0.3	359	360	7.2	96.3
2025-10-19T08:52	10	36	1.7	34	39	359	0.4	358	360	7.3	96.3
2025-10-19T08:53	10	37	1.7	34	40	359	0.2	358	359	7.3	96.2
2025-10-19T08:54	10	39	0.8	38	40	359	0.2	358	359	7.3	96.1
2025-10-19T08:55	10	35	1.4	33	38	358	0.3	358	359	7.2	95.5
2025-10-19T08:56	10	31	1.1	29	33	359	0.3	358	359	7.3	95.6
2025-10-19T08:57	10	28	0.3	28	29	359	0.3	358	359	7.3	95.8
2025-10-19T08:58	10	29	0.3	28	29	359	0.3	358	359	7.3	95.9
2025-10-19T08:59	10	29	0.1	29	30	358	0.2	358	358	7.3	95.8
2025-10-19T09:00	10	30	0.2	29	30	358	0.2	358	359	7.3	95.7
2025-10-19T09:01	10	29	0.8	28	30	359	0.3	358	359	7.4	95.8
2025-10-19T09:02	10	28	1.0	27	31	359	0.3	358	359	7.5	96.2
2025-10-19T09:03	10	31	0.3	30	31	358	0.3	358	359	7.3	95.2
2025-10-19T09:04	10	29	0.5	28	30	358	0.4	357	358	7.3	95.4
2025-10-19T09:05	10	28	0.2	28	28	357	0.4	357	358	7.2	95.8
2025-10-19T09:06	10	29	0.4	28	30	357	0.3	357	358	7.2	95.8
2025-10-19T09:07	10	27	0.9	26	29	358	0.3	357	358	7.2	95.7
2025-10-19T09:08	10	25	0.4	24	26	358	0.2	357	359	7.3	95.6
2025-10-19T09:09	10	24	0.1	24	25	357	0.4	357	358	7.3	95.6
2025-10-19T09:10	10	25	0.2	24	25	357	0.3	356	358	7.3	95.3
2025-10-19T09:11	10	25	0.1	25	25	357	0.2	357	357	7.3	95.4
2025-10-19T09:12	10	25	0.1	25	25	358	0.4	357	358	7.3	95.4
2025-10-19T09:13	10	25	0.1	25	26	358	0.2	358	358	7.3	95.7
2025-10-19T09:14	10	26	0.1	25	26	358	0.2	358	358	7.3	95.7
2025-10-19T09:15	10	25	0.1	25	26	358	0.3	358	359	7.4	95.5
2025-10-19T09:16	10	26	0.1	25	26	359	0.2	358	359	7.4	95.4
2025-10-19T09:17	10	26	0.1	26	26	359	0.3	358	359	7.4	95.5
2025-10-19T09:18	10	27	0.2	26	27	359	0.2	358	359	7.4	95.3
2025-10-19T09:19	10	27	0.4	27	28	359	0.3	358	359	7.4	94.9
2025-10-19T09:20	10	29	0.5	28	30	359	0.2	358	359	7.5	94.8
2025-10-19T09:21	10	30	0.4	30	31	359	0.2	358	359	7.5	94.3
2025-10-19T09:22	10	32	0.5	31	33	358	0.4	357	359	7.5	93.8
2025-10-19T09:23	10	33	0.5	32	34	359	0.4	358	359	7.5	93.8
2025-10-19T09:24	10	35	0.3	34	35	359	0.3	359	360	7.5	93.9
2025-10-19T09:25	10	36	0.4	35	36	359	0.3	358	360	7.5	93.8
2025-10-19T09:26	10	38	1.1	36	40	360	0.5	358	361	7.5	94.3
2025-10-19T09:27	10	42	1.3	40	45	360	0.2	360	361	7.6	94.5
2025-10-19T09:28	10	47	0.9	45	48	361	0.5	360	362	7.7	94.5
2025-10-19T09:29	10	48	0.3	47	49	362	0.3	361	363	7.7	94.1
2025-10-19T09:30	10	51	1.2	49	53	362	0.3	362	363	7.6	93.7
2025-10-19T09:31	10	58	3.1	53	62	363	0.5	362	364	7.6	94.0
2025-10-19T09:32	10	65	1.6	62	67	364	0.6	363	365	7.6	93.3
2025-10-19T09:33	10	63	2.3	59	66	365	0.4	365	366	7.6	93.1
2025-10-19T09:34	10	59	0.2	59	60	365	0.3	364	366	7.6	93.2
2025-10-19T09:35	10	60	0.1	59	60	366	0.5	365	367	7.6	93.3
2025-10-19T09:36	10	58	0.9	57	59	366	0.3	366	367	7.7	93.9
2025-10-19T09:37	10	55	1.1	53	56	366	0.3	366	367	7.7	93.4
2025-10-19T09:38	10	51	1.0	49	53	366	0.3	365	366	7.8	93.2
2025-10-19T09:39	10	51	1.1	49	53	366	0.3	365	366	7.8	93.1
2025-10-19T09:40	10	58	3.0	53	63	367	0.5	366	368	7.9	92.6
2025-10-19T09:41	10	67	2.2	63	70	369	0.6	367	369	7.9	93.0
2025-10-19T09:42	10	71	0.2	70	71	369	0.3	369	370	7.9	92.9
2025-10-19T09:43	10	72	0.5	71	73	369	0.3	369	370	8.0	92.9
2025-10-19T09:44	10	72	0.7	70	73	369	0.3	368	369	7.8	92.0
2025-10-19T09:45	10	65	3.4	58	70	369	0.2	368	369	7.8	93.0
2025-10-19T09:46	10	51	4.1	45	58	368	1.1	366	370	7.7	93.0
2025-10-19T09:47	10	43	0.8	42	45	366	0.6	365	367	7.7	93.1
2025-10-19T09:48	10	44	0.6	43	45	366	0.3	366	367	7.8	93.5
2025-10-19T09:49	10	41	0.9	40	43	365	0.6	364	366	7.8	93.1
2025-10-19T09:50	10	41	0.5	40	42	364	0.3	363	365	7.8	93.0
2025-10-19T09:51	10	43	0.5	42	44	364	0.3	364	365	7.7	92.8
2025-10-19T09:52	10	45	0.5	44	46	364	0.2	364	365	7.7	92.5
2025-10-19T09:53	10	47	0.7	46	49	365	0.3	364	366	7.7	92.5
2025-10-19T09:54	10	50	1.2	49	52	366	0.6	365	367	7.8	92.6
2025-10-19T09:55	10	54	0.7	52	55	367	0.4	366	368	8.0	92.8
2025-10-19T09:56	10	56	0.3	55	56	368	0.5	367	369	7.9	91.8
2025-10-19T09:57	10	52	1.7	49	55	369	0.3	368	369	7.9	91.5
2025-10-19T09:58	10	47	1.3	45	49	368	0.4	368	369	8.0	91.5
2025-10-19T09:59	10	42	1.7	39	45	367	0.6	366	368	8.0	91.6
2025-10-19T10:00	10	37	1.3	35	39	366	0.4	365	367	7.9	91.6
2025-10-19T10:01	10	34	0.3	34	35	366	0.2	365	366	8.0	92.0
2025-10-19T10:02	10	35	0.2	35	35	365	0.5	364	366	7.9	91.4
2025-10-19T10:03	10	34	0.8	32	35	364	0.2	364	365	7.9	91.4
2025-10-19T10:04	10	32	0.5	31	32	364	0.3	363	365	8.1	91.4
2025-10-19T10:05	10	30	0.5	29	31	364	0.3	363	364	8.2	91.0
2025-10-19T10:06	10	32	1.6	29	35	364	0.2	363	364	8.1	90.0
2025-10-19T10:07	10	36	0.7	35	37	364	0.3	364	365	8.1	90.5
2025-10-19T10:08	10	40	2.4	37	45	365	0.4	364	366	8.1	91.0
2025-10-19T10:09	10	49	1.9	45	51	367	0.8	365	368	8.1	90.8
2025-10-19T10:10	10	52	0.7	50	53	368	0.3	367	369	8.2	90.9
2025-10-19T10:11	10	57	2.9	53	63	369	0.6	368	370	8.3	90.7
2025-10-19T10:12	10	69	2.7	63	74	371	0.3	370	371	8.2	90.3
2025-10-19T10:13	10	73	3.3	66	77	372	0.5	371	373	8.2	90.0
2025-10-19T10:14	10	65	1.5	63	69	373	0.3	372	374	8.2	90.4
2025-10-19T10:15	10	96	17.5	70	123	374	1.7	372	377	8.2	90.3
2025-10-19T10:16	10	117	4.4	109	123	378	0.8	376	379	8.3	89.8
2025-10-19T10:17	10	102	3.2	97	108	379	0.2	378	379	8.2	89.6
2025-10-19T10:18	10	88	5.6	79	97	378	0.8	376	379	8.2	89.7
2025-10-19T10:19	10	73	3.8	66	79	376	0.7	375	378	8.4	90.3
2025-10-19T10:20	10	62	1.6	60	66	374	1.2	372	376	8.4	89.6
2025-10-19T10:21	10	60	0.4	59	61	373	0.3	372	374	8.5	88.9
2025-10-19T10:22	10	66	2.7	61	69	373	0.3	373	374	8.6	88.7
2025-10-19T10:23	10	67	1.2	66	69	374	0.2	373	374	8.6	88.0
2025-10-19T10:24	10	66	0.9	65	68	374	0.2	374	375	8.5	88.8
2025-10-19T10:25	10	69	0.4	68	70	374	0.2	374	375	8.5	89.5
2025-10-19T10:26	10	74	3.8	69	81	375	0.2	374	375	8.5	90.1
2025-10-19T10:27	10	82	2.5	76	85	376	0.8	374	377	8.6	89.4
2025-10-19T10:28	10	67	5.2	59	76	376	0.5	375	377	8.7	88.7
2025-10-19T10:29	10	55	1.9	52	59	375	0.6	374	376	8.7	89.0
2025-10-19T10:30	10	51	0.5	50	52	374	0.5	373	375	8.7	89.0
2025-10-19T10:31	10	49	0.3	49	50	373	0.5	372	374	8.8	89.0
2025-10-19T10:32	10	51	0.4	50	51	372	0.2	372	373	8.7	88.3
2025-10-19T10:33	10	53	1.3	51	56	372	0.2	372	373	8.7	88.7
2025-10-19T10:34	10	65	6.8	56	76	373	1.0	372	375	8.7	88.8
2025-10-19T10:35	10	103	15.9	76	123	378	2.7	374	383	8.9	89.0
2025-10-19T10:36	10	128	3.3	120	133	384	1.4	381	386	8.9	88.7
2025-10-19T10:37	10	98	11.0	84	120	384	1.5	381	386	8.8	88.3
2025-10-19T10:38	10	77	3.2	73	84	380	0.9	379	383	8.9	88.4
2025-10-19T10:39	10	102	18.1	78	127	380	1.4	378	383	8.8	88.3
2025-10-19T10:40	10	118	5.2	112	128	383	0.3	382	383	8.8	88.7
2025-10-19T10:41	10	130	8.8	113	139	383	0.4	382	384	8.9	88.4
2025-10-19T10:42	10	148	3.4	137	151	387	1.7	383	389	8.8	88.0
2025-10-19T10:43	10	132	11.5	116	147	389	0.8	387	390	8.9	88.1
2025-10-19T10:44	10	121	10.2	106	135	388	0.8	386	389	8.9	88.1
2025-10-19T10:45	10	114	4.9	108	121	386	0.3	385	387	8.9	87.4
2025-10-19T10:46	10	122	4.0	119	134	387	0.5	386	388	8.9	87.2
2025-10-19T10:47	10	158	18.7	134	194	391	2.8	388	397	9.1	87.5
2025-10-19T10:48	10	196	5.4	188	207	399	1.7	395	402	9.4	88.3
2025-10-19T10:49	10	174	31.1	132	209	401	2.0	397	404	9.8	88.5
2025-10-19T10:50	10	143	9.2	124	153	396	1.4	393	399	9.5	85.7
2025-10-19T10:51	10	119	5.2	111	125	391	1.6	388	394	9.2	85.9
2025-10-19T10:52	10	112	6.7	100	123	389	0.6	387	390	9.2	86.5
2025-10-19T10:53	10	135	16.1	103	158	390	1.8	387	393	9.2	86.3
2025-10-19T10:54	10	113	10.5	101	145	390	1.5	387	393	9.3	86.6
2025-10-19T10:55	10	132	17.8	102	166	390	1.4	387	392	9.5	85.4
2025-10-19T10:56	10	110	5.1	102	120	389	1.2	387	391	9.7	85.4
2025-10-19T10:57	10	95	13.4	79	118	387	1.5	385	389	9.9	84.3
2025-10-19T10:58	10	74	2.4	71	79	384	1.1	382	386	9.9	83.7
2025-10-19T10:59	10	69	0.8	68	71	382	1.2	380	384	9.9	85.1
2025-10-19T11:00	10	66	0.8	65	68	380	0.4	379	381	9.6	84.7
2025-10-19T11:01	10	64	0.4	64	65	379	0.5	378	380	9.5	85.2
2025-10-19T11:02	10	64	0.1	63	64	378	0.3	377	379	9.4	85.3
2025-10-19T11:03	10	64	0.2	64	65	378	0.3	378	379	9.5	85.9
2025-10-19T11:04	10	65	0.4	65	66	378	0.2	378	379	9.6	85.8
2025-10-19T11:05	10	71	3.1	66	78	378	0.4	377	379	9.5	85.3
2025-10-19T11:06	10	92	4.4	79	96	381	1.1	378	382	9.5	85.3
2025-10-19T11:07	10	97	3.6	90	104	383	0.8	381	384	9.7	85.6
2025-10-19T11:08	10	101	5.4	90	108	384	0.4	383	385	10.1	85.9
2025-10-19T11:09	10	119	5.0	107	128	387	1.5	384	389	10.1	83.6
2025-10-19T11:10	10	109	3.9	104	115	387	1.0	386	389	9.9	84.2
2025-10-19T11:11	10	95	8.3	77	106	384	1.3	381	387	9.8	84.7
2025-10-19T11:12	10	71	3.2	67	77	381	0.9	380	383	9.6	84.9
2025-10-19T11:13	10	64	1.0	63	67	380	0.6	379	381	9.8	85.4
2025-10-19T11:14	10	70	2.4	65	75	379	0.5	378	380	9.8	84.8
2025-10-19T11:15	10	94	5.4	76	98	381	1.5	378	383	9.6	84.8
2025-10-19T11:16	10	96	2.9	91	103	382	0.5	381	383	9.6	85.2
2025-10-19T11:17	10	109	3.2	103	114	384	1.2	382	385	9.6	85.3
2025-10-19T11:18	10	105	2.5	101	108	385	0.5	385	386	9.8	85.8
2025-10-19T11:19	10	92	7.7	83	106	383	1.2	381	386	9.7	85.2
2025-10-19T11:20	10	94	6.9	83	105	383	1.1	381	385	9.7	85.4
2025-10-19T11:21	10	108	2.3	104	111	384	0.2	383	384	9.6	85.4
2025-10-19T11:22	10	108	2.1	105	112	383	0.4	383	385	9.6	85.7
2025-10-19T11:23	10	102	5.0	95	109	383	0.4	382	384	9.6	85.8
2025-10-19T11:24	10	96	2.9	92	100	384	0.2	383	384	9.7	85.9
2025-10-19T11:25	10	78	7.9	68	92	381	1.6	379	384	9.8	85.3
2025-10-19T11:26	10	65	1.0	64	68	379	0.4	378	380	9.8	85.5
2025-10-19T11:27	10	72	6.2	64	84	379	0.3	379	380	10.0	85.7
2025-10-19T11:28	10	93	5.1	85	103	380	1.1	378	382	9.8	84.9
2025-10-19T11:29	10	98	5.2	89	107	382	0.7	381	383	9.8	85.3
2025-10-19T11:30	10	92	16.4	66	112	382	1.0	379	383	9.8	85.4
2025-10-19T11:31	10	61	1.9	58	66	378	1.5	376	381	9.9	85.0
2025-10-19T11:32	10	54	1.1	53	58	375	0.8	374	376	9.8	84.4
2025-10-19T11:33	10	56	1.0	54	58	374	0.3	373	375	9.8	84.6
2025-10-19T11:34	10	64	3.5	58	72	374	0.8	373	377	9.8	84.8
2025-10-19T11:35	10	79	3.2	73	84	378	1.1	375	379	10.0	84.6
2025-10-19T11:36	10	91	3.6	84	101	379	0.6	378	381	9.9	83.8
2025-10-19T11:37	10	113	8.2	102	126	382	1.8	380	385	9.9	84.0
2025-10-19T11:38	10	107	9.5	97	126	384	1.0	382	386	10.1	84.2
2025-10-19T11:39	10	104	13.3	76	117	386	0.9	384	387	10.2	83.9
2025-10-19T11:40	10	69	2.5	66	75	381	1.3	380	384	10.0	83.7
2025-10-19T11:41	10	109	20.0	75	135	383	2.4	380	387	10.1	83.8
2025-10-19T11:42	10	132	1.6	129	135	388	0.8	386	389	10.0	83.9
2025-10-19T11:43	10	139	4.0	129	144	389	0.8	388	391	10.1	83.9
2025-10-19T11:44	10	130	9.9	112	142	391	0.3	390	392	10.1	83.5
2025-10-19T11:45	10	103	5.9	94	112	389	0.9	388	391	10.4	83.7
2025-10-19T11:46	10	107	3.4	98	111	389	0.4	388	390	10.4	83.1
2025-10-19T11:47	10	116	1.8	111	119	390	0.5	389	391	10.4	82.9
2025-10-19T11:48	10	125	4.1	118	133	391	0.3	391	392	10.4	83.6
2025-10-19T11:49	10	132	2.7	124	136	391	0.5	391	392	10.4	84.2
2025-10-19T11:50	10	121	6.6	114	135	389	1.0	388	392	10.3	83.5
2025-10-19T11:51	10	138	5.4	131	147	392	0.7	391	394	10.2	83.5
2025-10-19T11:52	10	144	2.8	138	147	394	0.4	393	395	10.3	84.2
2025-10-19T11:53	10	148	1.0	146	149	396	0.7	394	397	10.3	84.1
2025-10-19T11:54	10	143	1.6	139	147	397	0.6	395	398	10.5	83.3
2025-10-19T11:55	10	132	3.9	126	139	395	0.6	394	396	10.4	83.1
2025-10-19T11:56	10	118	4.3	112	126	394	1.4	391	395	10.4	83.6
2025-10-19T11:57	10	111	0.9	109	112	390	1.2	388	392	10.3	84.0
2025-10-19T11:58	10	113	3.4	107	119	389	0.3	389	390	10.2	84.2
2025-10-19T11:59	10	109	5.0	103	118	390	0.9	388	391	10.3	83.9
2025-10-19T12:00	10	112	2.0	107	114	390	0.6	389	391	10.2	83.7
2025-10-19T12:01	10	108	3.6	103	113	389	0.5	389	390	10.3	83.8
2025-10-19T12:02	10	117	1.3	114	119	390	0.6	389	392	10.3	83.6
2025-10-19T12:03	10	115	1.4	112	117	391	0.8	390	392	10.4	83.2
2025-10-19T12:04	10	114	2.3	110	117	391	0.4	390	391	10.4	83.1
2025-10-19T12:05	10	110	1.2	108	113	391	0.5	390	391	10.5	83.8
2025-10-19T12:06	10	112	1.7	109	115	391	0.3	391	392	10.8	84.3
2025-10-19T12:07	10	109	0.7	108	111	391	0.5	391	392	11.0	83.9
2025-10-19T12:08	10	108	1.4	106	111	390	0.8	389	391	10.9	83.2
2025-10-19T12:09	10	116	2.1	112	120	390	0.7	389	391	10.7	82.7
2025-10-19T12:10	10	116	3.4	110	120	391	0.2	390	391	10.4	82.9
2025-10-19T12:11	10	106	1.6	104	110	390	0.8	389	391	10.5	83.4
2025-10-19T12:12	10	107	2.6	105	114	390	0.5	389	391	10.6	83.3
2025-10-19T12:13	10	121	2.2	115	124	392	0.9	391	394	10.7	83.0
2025-10-19T12:14	10	123	1.0	121	124	393	0.3	392	393	10.7	82.7
2025-10-19T12:15	10	124	1.5	122	126	393	0.3	392	393	10.6	82.3
2025-10-19T12:16	10	127	0.5	126	128	394	0.5	393	395	10.8	82.7
2025-10-19T12:17	10	129	0.9	127	131	396	0.6	394	397	11.1	81.9
2025-10-19T12:18	10	127	1.3	126	134	397	0.3	396	397	11.1	82.2
2025-10-19T12:19	10	125	0.9	123	126	396	0.5	395	397	11.1	81.6
2025-10-19T12:20	10	124	0.3	123	124	396	0.3	395	397	11.0	80.9
2025-10-19T12:21	10	125	0.6	124	126	395	0.3	395	396	11.0	80.9
2025-10-19T12:22	10	125	0.3	125	126	396	0.4	395	396	11.1	81.0
2025-10-19T12:23	10	124	0.5	123	125	396	0.5	395	397	11.1	81.2
2025-10-19T12:24	10	119	3.7	113	124	395	0.4	394	396	11.1	80.4
2025-10-19T12:25	10	113	1.1	111	115	394	1.1	392	395	11.0	80.8
2025-10-19T12:26	10	104	5.2	95	111	393	0.3	392	393	11.0	80.7
2025-10-19T12:27	10	88	3.2	82	95	392	0.8	391	394	11.4	80.1
2025-10-19T12:28	10	82	1.3	80	84	390	0.6	389	391	11.4	79.8
2025-10-19T12:29	10	84	1.4	83	87	389	0.3	388	390	11.2	80.2
2025-10-19T12:30	10	82	1.5	79	85	389	0.7	388	390	11.2	80.9
2025-10-19T12:31	10	84	2.0	80	86	389	0.6	388	390	11.2	80.2
2025-10-19T12:32	10	84	1.4	83	87	390	0.1	389	390	11.4	80.1
2025-10-19T12:33	10	81	2.5	77	84	389	0.4	388	390	11.3	79.5
2025-10-19T12:34	10	79	1.2	77	81	389	0.3	388	389	11.3	79.3
2025-10-19T12:35	10	80	1.0	77	81	389	0.3	389	390	11.4	79.2
2025-10-19T12:36	10	76	0.9	75	77	390	0.3	389	390	11.6	80.0
2025-10-19T12:37	10	77	0.3	76	78	390	0.4	388	390	11.6	79.9
2025-10-19T12:38	10	81	2.1	77	83	387	0.6	386	389	11.3	80.0
2025-10-19T12:39	10	82	1.5	79	88	387	0.5	386	388	11.3	80.2
2025-10-19T12:40	10	84	1.2	82	87	389	0.5	388	390	11.4	80.2
2025-10-19T12:41	10	86	0.3	85	87	389	0.4	389	391	11.4	80.4
2025-10-19T12:42	10	85	1.6	83	88	389	0.3	389	390	11.3	80.5
2025-10-19T12:43	10	86	1.9	83	90	389	0.3	388	390	11.3	80.3
2025-10-19T12:44	10	91	1.3	89	94	390	0.3	389	390	11.3	81.2
2025-10-19T12:45	10	96	1.4	94	99	389	0.4	388	390	11.4	81.4
2025-10-19T12:46	10	99	0.9	98	101	390	0.4	389	390	11.5	81.4
2025-10-19T12:47	10	99	1.6	97	102	390	0.3	389	390	11.4	81.3
2025-10-19T12:48	10	103	2.1	98	107	390	0.8	389	392	11.3	80.7
2025-10-19T12:49	10	102	1.4	100	104	392	0.6	391	393	11.3	81.0
2025-10-19T12:50	10	96	2.3	91	100	392	0.6	391	394	11.4	80.8
2025-10-19T12:51	10	91	2.1	89	95	392	0.3	391	392	11.6	79.7
2025-10-19T12:52	10	96	0.7	95	98	393	0.6	392	394	11.8	79.5
2025-10-19T12:53	10	98	0.9	97	100	393	0.5	392	394	11.8	79.7
2025-10-19T12:54	10	98	1.4	96	100	392	0.3	392	393	11.6	79.4
2025-10-19T12:55	10	97	0.8	96	99	393	0.4	392	393	11.7	79.0
2025-10-19T12:56	10	98	1.6	95	101	393	0.5	392	394	11.9	79.2
2025-10-19T12:57	10	99	1.3	97	102	392	0.4	391	393	11.9	77.7
2025-10-19T12:58	10	97	1.3	95	99	392	0.4	392	393	12.1	77.1
2025-10-19T12:59	10	93	2.3	90	96	393	0.7	391	394	12.2	76.7
2025-10-19T13:00	10	91	1.0	90	93	391	0.5	390	392	12.2	76.1
2025-10-19T13:01	10	88	1.4	86	91	390	0.2	390	391	12.1	76.2
2025-10-19T13:02	10	85	0.6	83	86	390	0.5	389	391	12.2	76.1
2025-10-19T13:03	10	81	1.0	79	83	389	0.2	388	389	12.2	76.1
2025-10-19T13:04	10	79	0.3	79	80	389	0.2	389	390	12.1	76.4
2025-10-19T13:05	10	79	0.4	78	79	389	0.3	389	390	12.1	76.6
2025-10-19T13:06	10	77	1.0	74	78	389	0.2	388	389	12.1	77.1
2025-10-19T13:07	10	72	1.1	70	74	389	0.4	388	390	12.2	77.2
2025-10-19T13:08	10	69	0.4	68	70	388	0.3	388	389	12.2	76.2
2025-10-19T13:09	10	68	0.7	67	70	389	0.3	388	389	12.4	77.1
2025-10-19T13:10	10	71	0.4	70	71	388	0.3	387	389	12.4	76.0
2025-10-19T13:11	10	66	1.9	63	69	388	0.2	388	389	12.4	75.0
2025-10-19T13:12	10	62	0.3	62	63	388	0.2	387	388	12.5	74.9
2025-10-19T13:13	10	61	0.6	60	62	387	0.4	386	388	12.4	77.6
2025-10-19T13:14	10	59	0.5	58	60	385	0.9	383	387	12.1	78.5
2025-10-19T13:15	10	57	0.8	56	58	384	0.4	382	384	11.9	78.8
2025-10-19T13:16	10	55	0.3	55	56	383	0.2	382	383	11.9	79.5
2025-10-19T13:17	10	55	0.2	54	55	383	0.3	382	383	11.8	79.4
2025-10-19T13:18	10	53	0.8	52	55	382	0.3	382	383	11.8	80.1
2025-10-19T13:19	10	51	0.4	51	52	382	0.3	381	382	11.8	79.5
2025-10-19T13:20	10	50	0.2	50	51	382	0.3	381	382	11.8	79.4
2025-10-19T13:21	10	50	0.3	49	50	382	0.4	381	382	11.9	79.4
2025-10-19T13:22	10	49	0.1	49	50	381	0.3	381	382	11.9	79.2
2025-10-19T13:23	10	49	0.1	49	50	381	0.2	381	382	11.9	79.0
2025-10-19T13:24	10	50	0.2	50	50	382	0.3	381	382	11.9	78.9
2025-10-19T13:25	10	51	0.4	50	52	383	0.5	382	384	11.9	79.1
2025-10-19T13:26	10	52	0.3	52	53	384	0.4	383	384	12.0	79.2
2025-10-19T13:27	10	53	0.4	53	54	384	0.3	384	385	12.1	79.3
2025-10-19T13:28	10	55	0.5	54	56	385	0.3	384	385	12.2	79.0
2025-10-19T13:29	10	56	0.3	56	57	385	0.4	385	386	12.3	79.1
2025-10-19T13:30	10	57	0.1	57	57	386	0.2	385	386	12.4	79.3
2025-10-19T13:31	10	57	0.1	57	57	385	0.3	384	386	12.3	78.1
2025-10-19T13:32	10	56	0.6	55	57	385	0.5	384	386	12.2	78.3
2025-10-19T13:33	10	55	0.5	54	55	384	0.6	382	385	12.1	78.6
2025-10-19T13:34	10	53	0.5	53	54	382	0.6	381	383	12.0	78.5
2025-10-19T13:35	10	52	0.7	50	53	382	0.3	381	382	12.0	78.9
2025-10-19T13:36	10	49	0.5	49	50	381	0.3	381	382	12.0	78.6
2025-10-19T13:37	10	48	0.6	47	49	382	0.2	381	382	12.1	78.9
2025-10-19T13:38	10	46	0.6	45	47	381	0.3	381	382	12.1	78.6
2025-10-19T13:39	10	44	0.6	43	45	381	0.4	380	381	12.1	78.2
2025-10-19T13:40	10	42	0.4	41	43	380	0.4	379	381	12.2	77.5
2025-10-19T13:41	10	41	0.3	40	42	380	0.3	379	381	12.2	77.7
2025-10-19T13:42	10	40	0.2	40	41	379	0.6	378	381	12.2	77.9
2025-10-19T13:43	10	40	0.2	39	40	379	0.2	378	379	12.0	77.6
2025-10-19T13:44	10	39	0.1	39	39	379	0.2	378	379	12.0	77.9
2025-10-19T13:45	10	39	0.2	39	39	379	0.3	378	379	12.1	78.2
2025-10-19T13:46	10	39	0.1	38	39	379	0.1	379	379	12.2	79.1
2025-10-19T13:47	10	38	0.3	38	38	379	0.4	378	380	12.2	78.4
2025-10-19T13:48	10	38	0.1	37	38	378	0.2	378	378	12.1	77.9
2025-10-19T13:49	10	37	0.1	37	38	378	0.3	377	379	12.1	77.7
2025-10-19T13:50	10	37	0.1	37	37	378	0.3	377	378	12.1	77.6
2025-10-19T13:51	10	37	0.1	37	37	378	0.2	377	378	12.1	77.7
2025-10-19T13:52	10	37	0.1	37	37	379	0.4	378	379	12.1	78.1
2025-10-19T13:53	10	37	0.1	37	37	379	0.3	379	380	12.2	78.2
2025-10-19T13:54	10	37	0.2	36	37	379	0.2	379	380	12.1	77.8
2025-10-19T13:55	10	36	0.1	36	37	379	0.2	379	380	12.1	78.2
2025-10-19T13:56	10	36	0.1	36	36	379	0.2	379	380	12.2	78.3
2025-10-19T13:57	10	36	0.2	35	36	379	0.3	379	380	12.2	78.1
2025-10-19T13:58	10	35	0.1	35	36	379	0.2	379	380	12.2	78.6
2025-10-19T13:59	10	35	0.2	35	35	379	0.2	379	379	12.2	78.9
2025-10-19T14:00	10	35	0.1	34	35	379	0.3	378	379	12.2	79.6
2025-10-19T14:01	10	34	0.2	34	35	378	0.4	377	379	12.2	79.2
2025-10-19T14:02	10	34	0.2	33	34	378	0.2	377	378	12.1	78.8
2025-10-19T14:03	10	33	0.2	33	34	377	0.2	377	378	12.0	78.7
2025-10-19T14:04	10	33	0.2	32	33	377	0.2	376	377	12.0	78.8
2025-10-19T14:05	10	32	0.1	32	32	377	0.2	376	377	12.0	78.9
2025-10-19T14:06	10	32	0.1	31	32	377	0.3	376	377	12.0	78.9
2025-10-19T14:07	10	31	0.2	31	32	377	0.2	376	377	12.0	79.3
2025-10-19T14:08	10	31	0.1	31	31	376	0.3	376	377	12.0	79.0
2025-10-19T14:09	10	31	0.2	30	31	376	0.2	376	377	12.0	79.0
2025-10-19T14:10	10	30	0.1	30	31	376	0.2	376	377	12.1	78.7
2025-10-19T14:11	10	30	0.2	30	30	377	0.2	376	377	12.1	78.6
2025-10-19T14:12	10	30	0.1	30	30	376	0.2	376	377	12.1	78.9
2025-10-19T14:13	10	29	0.2	29	30	377	0.3	376	377	12.1	79.8
2025-10-19T14:14	10	29	0.2	29	30	377	0.4	376	377	12.1	78.9
2025-10-19T14:15	10	29	0.2	28	29	376	0.3	375	376	12.1	79.4
2025-10-19T14:16	10	28	0.1	28	29	376	0.2	375	376	12.1	78.8
2025-10-19T14:17	10	28	0.2	27	28	375	0.2	375	376	12.1	79.0
2025-10-19T14:18	10	28	0.1	27	28	376	0.2	375	376	12.1	78.6
2025-10-19T14:19	10	27	0.1	27	27	376	0.2	375	376	12.1	78.7
2025-10-19T14:20	10	27	0.1	26	27	376	0.2	375	376	12.2	79.0
2025-10-19T14:21	10	26	0.1	26	27	376	0.2	375	376	12.2	79.3
2025-10-19T14:22	10	26	0.2	25	26	376	0.3	375	376	12.2	79.7
2025-10-19T14:23	10	25	0.2	25	26	375	0.3	374	376	12.2	78.8
2025-10-19T14:24	10	25	0.1	25	25	375	0.2	375	376	12.3	78.3
2025-10-19T14:25	10	25	0.1	25	25	375	0.2	375	376	12.3	78.3
2025-10-19T14:26	10	24	0.1	24	25	375	0.2	374	375	12.3	78.6
2025-10-19T14:27	10	24	0.2	24	25	375	0.2	374	375	12.3	78.7
2025-10-19T14:28	10	24	0.1	24	24	374	0.3	373	375	12.3	80.6
2025-10-19T14:29	10	24	0.1	23	24	374	0.5	373	374	12.1	81.2
2025-10-19T14:30	10	23	0.1	23	24	372	0.4	372	373	11.9	81.7
2025-10-19T14:31	10	23	0.1	23	23	372	0.2	371	372	11.8	82.3
2025-10-19T14:32	10	23	0.1	22	23	371	0.3	371	372	11.7	82.2
2025-10-19T14:33	10	22	0.1	22	23	371	0.2	371	371	11.7	82.4
2025-10-19T14:34	10	22	0.1	22	22	371	0.2	370	371	11.7	82.3
2025-10-19T14:35	10	22	0.1	22	22	371	0.2	370	371	11.6	82.2
2025-10-19T14:36	10	22	0.1	21	22	370	0.3	369	371	11.6	82.2
2025-10-19T14:37	10	22	0.1	21	22	370	0.2	370	371	11.6	82.4
2025-10-19T14:38	10	21	0.1	21	22	370	0.2	370	371	11.6	83.0
2025-10-19T14:39	10	21	0.1	21	22	370	0.3	370	371	11.6	83.3
2025-10-19T14:40	10	21	0.1	21	21	370	0.2	370	371	11.6	82.5
2025-10-19T14:41	10	21	0.1	21	21	370	0.2	369	370	11.5	82.2
2025-10-19T14:42	10	21	0.1	21	21	370	0.3	369	370	11.5	82.5
2025-10-19T14:43	10	21	0.1	21	21	370	0.3	369	370	11.6	82.8
2025-10-19T14:44	10	21	0.1	20	21	370	0.3	369	371	11.6	82.7
2025-10-19T14:45	10	21	0.1	20	21	370	0.3	369	370	11.6	82.5
2025-10-19T14:46	10	21	0.1	21	21	370	0.2	369	371	11.6	82.5
2025-10-19T14:47	10	21	0.1	20	21	370	0.2	370	370	11.6	82.3
2025-10-19T14:48	10	21	0.1	20	21	370	0.3	370	371	11.6	82.5
2025-10-19T14:49	10	21	0.1	21	21	370	0.2	370	371	11.6	82.5
2025-10-19T14:50	10	21	0.1	21	21	370	0.2	370	370	11.6	82.0
2025-10-19T14:51	10	21	0.1	21	21	370	0.2	369	370	11.6	82.4
2025-10-19T14:52	10	21	0.1	21	22	370	0.2	370	371	11.6	83.1
2025-10-19T14:53	10	21	0.1	21	22	370	0.2	369	370	11.6	82.8
2025-10-19T14:54	10	22	0.1	21	22	369	0.2	369	370	11.6	82.6
2025-10-19T14:55	10	22	0.1	22	22	370	0.1	369	370	11.5	82.7
2025-10-19T14:56	10	22	0.1	22	22	370	0.3	369	370	11.5	83.3
2025-10-19T14:57	10	22	0.1	22	23	370	0.2	370	370	11.5	83.5
2025-10-19T14:58	10	23	0.1	23	23	369	0.2	369	370	11.4	83.1
2025-10-19T14:59	10	23	0.2	23	24	369	0.2	369	370	11.4	83.2
2025-10-19T15:00	10	24	0.3	23	24	370	0.2	369	370	11.4	83.4
2025-10-19T15:01	10	25	0.5	24	26	370	0.2	369	370	11.4	83.6
2025-10-19T15:02	10	28	0.9	26	29	370	0.3	369	370	11.4	83.2
2025-10-19T15:03	10	31	1.0	29	33	371	0.4	370	371	11.4	83.4
2025-10-19T15:04	10	34	0.8	32	35	371	0.4	371	372	11.4	83.4
2025-10-19T15:05	10	36	0.3	35	36	372	0.3	372	373	11.5	83.8
2025-10-19T15:06	10	35	0.5	34	36	373	0.3	372	373	11.5	83.9
2025-10-19T15:07	10	38	1.3	36	40	373	0.3	372	373	11.5	83.1
2025-10-19T15:08	10	40	0.2	39	40	372	0.2	372	373	11.5	82.8
2025-10-19T15:09	10	40	0.6	39	42	373	0.3	372	374	11.5	82.7
2025-10-19T15:10	10	42	0.4	42	43	373	0.3	372	373	11.5	82.8
2025-10-19T15:11	10	42	0.6	41	43	373	0.3	373	374	11.5	82.9
2025-10-19T15:12	10	42	0.9	39	43	374	0.3	373	375	11.6	83.2
2025-10-19T15:13	10	33	2.5	30	38	373	0.4	373	374	11.6	83.1
2025-10-19T15:14	10	29	0.6	28	30	373	0.3	372	373	11.6	82.8
2025-10-19T15:15	10	30	0.3	29	30	372	0.2	372	373	11.7	82.8
2025-10-19T15:16	10	34	1.6	31	36	373	0.4	372	374	11.7	82.4
2025-10-19T15:17	10	36	1.4	33	38	373	0.3	373	374	11.7	82.3
2025-10-19T15:18	10	35	0.5	34	36	374	0.3	373	374	11.8	82.4
2025-10-19T15:19	10	33	0.8	30	34	373	0.2	373	374	11.9	82.4
2025-10-19T15:20	10	30	0.4	29	30	373	0.3	372	374	11.9	81.9
2025-10-19T15:21	10	33	3.1	28	37	373	0.3	372	373	11.9	81.6
2025-10-19T15:22	10	35	1.3	32	37	373	0.2	372	374	11.9	81.3
2025-10-19T15:23	10	28	2.2	24	32	373	0.4	372	373	12.0	81.3
2025-10-19T15:24	10	23	0.6	22	24	372	0.4	371	373	12.0	81.1
2025-10-19T15:25	10	22	0.2	21	22	371	0.2	371	372	12.0	81.2
2025-10-19T15:26	10	21	0.4	20	21	371	0.3	370	372	12.0	81.6
2025-10-19T15:27	10	20	0.1	20	20	371	0.3	370	371	12.0	81.4
2025-10-19T15:28	10	20	0.1	20	20	371	0.2	370	371	12.0	81.4
2025-10-19T15:29	10	20	0.1	20	20	370	0.2	370	371	12.0	81.6
2025-10-19T15:30	10	20	0.1	20	20	370	0.2	370	371	12.0	81.8
2025-10-19T15:31	10	20	0.2	19	20	370	0.4	369	371	12.0	81.8
2025-10-19T15:32	10	19	0.1	19	20	370	0.2	370	371	12.0	81.8
2025-10-19T15:33	10	19	0.2	19	20	370	0.2	370	371	12.0	81.8
2025-10-19T15:34	10	19	0.2	19	19	370	0.4	369	371	11.9	81.6
2025-10-19T15:35	10	19	0.1	18	19	369	0.2	369	370	11.9	81.8
2025-10-19T15:36	10	18	0.1	18	19	369	0.2	369	370	11.9	81.7
2025-10-19T15:37	10	18	0.1	18	18	369	0.3	369	370	11.8	81.4
2025-10-19T15:38	10	18	0.1	17	18	369	0.2	368	369	11.8	81.6
2025-10-19T15:39	10	17	0.1	17	18	369	0.2	369	369	11.9	81.5
2025-10-19T15:40	10	17	0.1	17	17	369	0.2	369	369	11.9	81.5
2025-10-19T15:41	10	17	0.2	17	17	369	0.2	368	369	11.9	81.3
2025-10-19T15:42	10	16	0.2	16	17	369	0.2	368	369	11.9	81.3
2025-10-19T15:43	10	16	0.2	15	16	368	0.2	368	369	11.9	81.3
2025-10-19T15:44	10	15	0.1	15	16	368	0.2	368	369	11.9	81.3
2025-10-19T15:45	10	15	0.2	14	15	368	0.2	367	368	11.8	81.1
2025-10-19T15:46	10	14	0.2	14	15	368	0.2	367	368	11.8	81.1
2025-10-19T15:47	10	13	0.2	13	14	368	0.2	367	368	11.8	81.2
2025-10-19T15:48	10	13	0.2	12	13	367	0.3	367	368	11.8	81.2
2025-10-19T15:49	10	12	0.2	12	13	367	0.2	366	367	11.8	81.2
2025-10-19T15:50	10	11	0.2	11	12	367	0.2	366	367	11.8	81.2
2025-10-19T15:51	10	11	0.2	11	11	367	0.2	366	367	11.8	81.2
2025-10-19T15:52	10	10	0.1	10	11	366	0.2	366	367	11.8	81.1
2025-10-19T15:53	10	10	0.1	10	10	366	0.3	365	367	11.8	81.1
2025-10-19T15:54	10	9	0.1	9	10	366	0.3	365	366	11.8	81.1
2025-10-19T15:55	10	9	0.1	9	9	365	0.2	365	366	11.8	81.3
2025-10-19T15:56	10	9	0.1	9	9	365	0.2	365	366	11.8	81.6
2025-10-19T15:57	10	8	0.1	8	9	365	0.2	365	365	11.8	81.9
2025-10-19T15:58	10	8	0.1	8	8	365	0.2	365	366	11.7	82.0
2025-10-19T15:59	10	8	0.2	8	8	365	0.3	364	365	11.6	82.5
2025-10-19T16:00	10	7	0.1	7	8	364	0.3	364	365	11.4	83.6
2025-10-19T16:01	10	7	0.1	7	7	364	0.2	363	364	11.3	84.4
2025-10-19T16:02	10	7	0.1	6	7	363	0.2	363	364	11.2	84.9
2025-10-19T16:03	10	6	0.1	6	7	363	0.2	362	363	11.2	85.3
2025-10-19T16:04	10	6	0.1	6	6	363	0.2	362	363	11.1	84.9
2025-10-19T16:05	10	6	0.1	6	6	362	0.3	362	363	11.1	84.7
2025-10-19T16:06	10	6	0.1	5	6	362	0.2	362	363	11.1	84.7
2025-10-19T16:07	10	5	0.1	5	6	362	0.3	361	362	11.1	85.0
2025-10-19T16:08	10	5	0.1	5	5	362	0.2	361	362	11.0	85.1
2025-10-19T16:09	10	5	0.1	5	5	361	0.3	361	362	11.0	84.9
2025-10-19T16:10	10	5	0.1	5	5	361	0.2	361	362	11.0	84.8
2025-10-19T16:11	10	5	0.1	4	5	361	0.2	361	361	11.0	85.2
2025-10-19T16:12	10	4	0.1	4	5	360	0.2	360	361	11.0	85.5
2025-10-19T16:13	10	4	0.1	4	4	360	0.2	360	361	11.0	85.0
2025-10-19T16:14	10	4	0.1	4	4	360	0.2	359	360	11.0	85.3
2025-10-19T16:15	10	4	0.1	3	4	359	0.3	358	360	11.0	85.5
2025-10-19T16:16	10	3	0.1	3	4	359	0.2	358	359	11.0	86.0
2025-10-19T16:17	10	3	0.1	3	3	358	0.2	357	358	11.0	86.1
2025-10-19T16:18	10	3	0.1	3	3	358	0.2	357	358	10.9	86.2
2025-10-19T16:19	10	3	0.1	2	3	358	0.2	357	358	10.9	86.4
2025-10-19T16:20	10	2	0.1	2	3	357	0.2	357	358	10.9	86.6
2025-10-19T16:21	10	2	0.1	2	2	357	0.2	357	358	10.9	86.8
2025-10-19T16:22	10	2	0.1	2	2	357	0.2	357	358	10.9	87.1
2025-10-19T16:23	10	2	0.1	2	2	357	0.2	356	357	10.9	87.2
2025-10-19T16:24	10	2	0.1	1	2	357	0.3	356	357	10.9	87.1
2025-10-19T16:25	10	1	0.1	1	2	356	0.2	356	357	10.9	86.9
2025-10-19T16:26	10	1	0.1	1	1	356	0.2	356	357	10.9	86.9
2025-10-19T16:27	10	1	0.1	1	1	356	0.2	355	356	10.8	87.2
2025-10-19T16:28	10	1	0.1	1	1	356	0.3	355	356	10.8	86.5
2025-10-19T16:29	10	1	0.1	1	1	356	0.2	355	357	10.9	86.3
2025-10-19T16:30	10	1	0.1	1	1	356	0.2	355	356	10.9	86.3
2025-10-19T16:31	10	1	0.1	1	1	356	0.2	355	356	10.9	86.3
2025-10-19T16:32	10	1	0.1	0	1	356	0.2	355	356	10.8	86.4
2025-10-19T16:33	10	1	0.1	0	1	355	0.2	354	356	10.8	86.8
2025-10-19T16:34	10	1	0.1	0	1	355	0.3	354	355	10.8	87.0
2025-10-19T16:35	10	1	0.1	0	1	355	0.2	354	355	10.8	87.1
2025-10-19T16:36	10	1	0.1	0	1	355	0.2	354	355	10.8	86.9
2025-10-19T16:37	10	1	0.1	0	1	355	0.2	354	355	10.7	87.0
2025-10-19T16:38	10	1	0.1	0	1	355	0.2	354	355	10.6	87.4
2025-10-19T16:39	10	1	0.1	0	1	355	0.2	354	355	10.6	87.7
2025-10-19T16:40	10	1	0.1	0	1	355	0.2	354	355	10.6	87.6
2025-10-19T16:41	10	1	0.1	0	1	354	0.3	353	355	10.6	87.5
2025-10-19T16:42	10	1	0.1	0	1	354	0.2	353	354	10.6	87.6
2025-10-19T16:43	10	1	0.1	0	1	354	0.2	353	354	10.6	87.7
2025-10-19T16:44	10	1	0.1	0	1	354	0.3	353	354	10.6	87.5
2025-10-19T16:45	10	0	0.1	0	1	353	0.2	353	354	10.6	87.5
2025-10-19T16:46	10	0	0.1	0	1	353	0.2	353	354	10.6	87.4
2025-10-19T16:47	10	0	0.1	0	1	353	0.2	352	354	10.6	87.2
2025-10-19T16:48	10	0	0.1	0	1	353	0.2	352	354	10.6	87.0
2025-10-19T16:49	10	0	0.1	0	1	353	0.2	352	353	10.6	86.8
2025-10-19T16:50	10	0	0.1	0	1	353	0.3	353	354	10.6	87.1
2025-10-19T16:51	10	0	0.1	0	1	353	0.2	353	354	10.6	86.6
2025-10-19T16:52	10	0	0.1	0	1	354	0.3	353	354	10.6	86.1
2025-10-19T16:53	10	0	0.1	0	0	354	0.2	353	354	10.6	86.6
2025-10-19T16:54	10	0	0.1	0	0	354	0.2	353	354	10.6	87.1
2025-10-19T16:55	10	0	0.1	0	0	353	0.2	353	354	10.5	87.4
2025-10-19T16:56	10	0	0.1	0	0	353	0.3	353	354	10.5	87.4
2025-10-19T16:57	10	0	0.1	0	0	353	0.2	353	354	10.5	87.7
2025-10-19T16:58	10	0	0.1	0	0	353	0.2	353	354	10.4	87.9
2025-10-19T16:59	10	0	0.1	0	0	353	0.2	353	353	10.4	88.1
2025-10-19T17:00	10	0	0.1	0	0	353	0.3	352	353	10.4	88.2
2025-10-19T17:01	10	0	0.1	0	0	353	0.3	352	353	10.4	88.3
2025-10-19T17:02	10	0	0.1	0	0	352	0.2	352	353	10.3	88.6
2025-10-19T17:03	10	0	0.1	0	0	352	0.2	352	353	10.3	88.8
2025-10-19T17:04	10	0	0.1	0	0	353	0.2	352	353	10.4	88.7
2025-10-19T17:05	10	0	0.1	0	0	352	0.2	352	353	10.4	88.7
2025-10-19T17:06	10	0	0.1	0	0	352	0.2	351	352	10.3	88.9
2025-10-19T17:07	10	0	0.1	0	0	351	0.2	351	352	10.3	88.8
2025-10-19T17:08	10	0	0.1	0	0	351	0.2	351	352	10.3	88.9
2025-10-19T17:09	10	0	0.1	0	0	351	0.2	350	351	10.3	88.8
2025-10-19T17:10	10	0	0.1	0	1	351	0.2	350	351	10.3	89.0
2025-10-19T17:11	10	0	0.1	0	0	351	0.2	350	351	10.2	89.2
2025-10-19T17:12	10	0	0.1	0	1	351	0.2	350	351	10.2	89.1
2025-10-19T17:13	10	0	0.1	0	1	350	0.2	350	351	10.2	89.0
2025-10-19T17:14	10	0	0.1	0	0	351	0.2	350	351	10.2	89.2
2025-10-19T17:15	10	0	0.1	0	0	351	0.2	350	351	10.3	88.9
2025-10-19T17:16	10	0	0.1	0	1	350	0.3	349	351	10.2	89.1
2025-10-19T17:17	10	0	0.1	0	1	350	0.2	350	351	10.2	89.4
2025-10-19T17:18	10	0	0.2	0	1	350	0.2	349	350	10.2	89.1
2025-10-19T17:19	10	0	0.1	0	1	350	0.2	350	351	10.2	89.0
2025-10-19T17:20	10	0	0.1	0	1	350	0.3	349	351	10.2	88.5
2025-10-19T17:21	10	0	0.1	0	1	349	0.4	348	350	10.2	89.0
2025-10-19T17:22	10	0	0.2	0	1	349	0.3	348	350	10.1	89.7
2025-10-19T17:23	10	0	0.1	0	1	349	0.3	348	349	10.0	90.3
2025-10-19T17:24	10	0	0.1	0	1	349	0.3	348	349	9.9	90.8
2025-10-19T17:25	10	0	0.2	0	1	349	0.3	348	349	9.9	90.9
2025-10-19T17:26	10	0	0.2	0	1	350	0.4	349	351	9.9	91.1
2025-10-19T17:27	10	0	0.1	0	1	350	0.2	349	351	10.0	90.8
2025-10-19T17:28	10	0	0.1	0	1	350	0.2	349	351	10.0	90.4
2025-10-19T17:29	10	0	0.1	0	1	349	0.3	348	350	10.1	90.1
2025-10-19T17:30	10	0	0.1	0	1	349	0.2	349	350	9.9	90.6
2025-10-19T17:31	10	0	0.1	0	1	349	0.3	349	350	9.9	90.7
2025-10-19T17:32	10	0	0.2	0	1	349	0.2	349	350	9.8	90.8
2025-10-19T17:33	10	0	0.1	0	1	349	0.3	349	350	9.8	90.9
2025-10-19T17:34	10	0	0.1	0	1	350	0.3	349	350	9.8	91.2
2025-10-19T17:35	10	0	0.1	0	0	350	0.2	350	351	9.9	90.9
2025-10-19T17:36	10	0	0.1	0	1	350	0.4	350	351	10.0	90.3
2025-10-19T17:37	10	0	0.1	0	1	351	0.2	350	352	10.1	90.1
2025-10-19T17:38	10	0	0.1	0	1	351	0.2	350	351	10.1	89.8
2025-10-19T17:39	10	0	0.2	0	1	351	0.3	350	351	10.1	89.6
2025-10-19T17:40	10	0	0.2	0	1	350	0.2	349	350	10.0	89.9
2025-10-19T17:41	10	0	0.1	0	1	350	0.3	350	351	9.9	90.6
2025-10-19T17:42	10	0	0.1	0	0	351	0.3	350	351	9.9	90.6
2025-10-19T17:43	10	0	0.1	0	0	351	0.2	350	351	10.0	90.5
2025-10-19T17:44	10	0	0.1	0	0	351	0.2	350	351	10.0	90.5
2025-10-19T17:45	10	0	0.1	0	1	350	0.2	350	351	10.0	90.4
2025-10-19T17:46	10	0	0.1	0	0	350	0.2	350	351	10.1	90.3
2025-10-19T17:47	10	0	0.1	0	0	351	0.3	350	351	10.1	90.3
2025-10-19T17:48	10	0	0.1	0	1	351	0.2	350	351	10.1	90.3
2025-10-19T17:49	10	0	0.1	0	1	350	0.3	350	351	10.1	89.9
2025-10-19T17:50	10	0	0.1	0	1	350	0.2	350	350	10.0	90.0
2025-10-19T17:51	10	0	0.1	0	0	350	0.2	350	351	10.0	90.4
2025-10-19T17:52	10	0	0.1	0	1	350	0.3	349	351	10.0	90.6
2025-10-19T17:53	10	0	0.0	0	0	349	0.2	349	350	9.8	91.1
2025-10-19T17:54	10	0	0.1	0	0	349	0.2	349	350	9.6	91.4
2025-10-19T17:55	10	0	0.1	0	0	349	0.2	349	350	9.6	91.7
2025-10-19T17:56	10	0	0.1	0	0	350	0.4	349	350	9.6	92.1
2025-10-19T17:57	10	0	0.1	0	0	350	0.3	349	350	9.7	92.1
2025-10-19T17:58	10	0	0.1	0	0	350	0.2	350	350	9.8	91.9
2025-10-19T17:59	10	0	0.1	0	0	350	0.3	350	351	9.7	92.1
2025-10-19T18:00	10	0	0.1	0	0	351	0.3	350	351	9.8	91.7
2025-10-19T18:01	10	0	0.1	0	0	351	0.2	350	351	9.8	91.6
2025-10-19T18:02	10	0	0.1	0	0	350	0.4	349	350	9.8	91.6
2025-10-19T18:03	10	0	0.1	0	0	350	0.2	350	350	9.7	91.7
2025-10-19T18:04	10	0	0.0	0	0	350	0.3	349	351	9.7	91.7
2025-10-19T18:05	10	0	0.1	0	0	350	0.2	350	351	9.9	91.4
2025-10-19T18:06	10	0	0.0	0	0	350	0.2	350	351	9.9	91.1
2025-10-19T18:07	10	0	0.1	0	0	350	0.2	350	351	9.9	90.9
2025-10-19T18:08	10	0	0.1	0	0	350	0.3	350	351	9.8	91.1
2025-10-19T18:09	10	0	0.1	0	0	350	0.2	350	351	9.8	91.3
2025-10-19T18:10	10	0	0.1	0	0	350	0.2	350	351	9.9	91.2
2025-10-19T18:11	10	0	0.1	0	0	350	0.3	350	351	9.8	91.4
2025-10-19T18:12	10	0	0.1	0	0	350	0.2	350	351	9.8	91.3
2025-10-19T18:13	10	0	0.0	0	0	351	0.3	350	351	9.9	91.2
2025-10-19T18:14	10	0	0.1	0	0	351	0.3	350	352	9.9	91.3
2025-10-19T18:15	10	0	0.1	0	0	350	0.4	350	351	9.8	91.5
2025-10-19T18:16	10	0	0.1	0	0	350	0.2	350	351	9.4	92.3
2025-10-19T18:17	10	0	0.1	0	0	351	0.4	350	352	9.7	91.9
2025-10-19T18:18	10	0	0.1	0	0	351	0.2	350	351	9.9	91.6
2025-10-19T18:19	10	0	0.1	0	0	351	0.3	351	352	10.0	90.9
2025-10-19T18:20	10	0	0.1	0	0	351	0.2	351	352	10.0	90.5
2025-10-19T18:21	10	0	0.1	0	0	351	0.3	351	352	10.0	90.5
2025-10-19T18:22	10	0	0.1	0	0	351	0.3	351	352	9.9	90.7
2025-10-19T18:23	10	0	0.1	0	0	352	0.2	351	352	10.0	90.4
2025-10-19T18:24	10	0	0.1	0	0	351	0.3	351	352	10.0	90.4
2025-10-19T18:25	10	0	0.1	0	0	351	0.3	350	351	10.0	90.4
2025-10-19T18:26	10	0	0.1	0	0	350	0.3	350	351	9.9	90.8
2025-10-19T18:27	10	0	0.1	0	0	350	0.3	349	350	9.9	91.0
2025-10-19T18:28	10	0	0.1	0	0	350	0.2	349	350	9.9	91.1
2025-10-19T18:29	10	0	0.1	0	0	349	0.4	348	350	9.9	91.1
2025-10-19T18:30	10	0	0.1	0	0	349	0.2	349	350	9.6	91.7
2025-10-19T18:31	10	0	0.0	0	0	350	0.2	349	350	9.5	92.4
2025-10-19T18:32	10	0	0.1	0	0	350	0.5	349	351	9.7	92.2
2025-10-19T18:33	10	0	0.1	0	0	351	0.2	350	352	10.0	90.9
2025-10-19T18:34	10	0	0.1	0	0	351	0.3	350	352	10.1	90.1
2025-10-19T18:35	10	0	0.1	0	0	351	0.2	350	352	10.1	89.7
2025-10-19T18:36	10	0	0.1	0	0	351	0.2	351	352	10.1	89.6
2025-10-19T18:37	10	0	0.1	0	0	351	0.3	350	351	10.1	89.4
2025-10-19T18:38	10	0	0.1	0	0	351	0.2	350	351	10.1	89.6
2025-10-19T18:39	10	0	0.1	0	0	350	0.4	349	351	10.1	89.8
2025-10-19T18:40	10	0	0.1	0	0	350	0.3	350	351	9.9	90.3
2025-10-19T18:41	10	0	0.1	0	1	350	0.3	349	351	9.9	90.7
2025-10-19T18:42	10	0	0.1	0	0	350	0.2	349	350	9.7	91.6
2025-10-19T18:43	10	0	0.1	0	0	350	0.2	349	350	9.7	91.7
2025-10-19T18:44	10	0	0.1	0	0	349	0.3	349	350	9.8	91.7
2025-10-19T18:45	10	0	0.1	0	0	349	0.2	349	350	9.8	91.9
2025-10-19T18:46	10	0	0.1	0	0	349	0.2	348	349	9.7	92.2
2025-10-19T18:47	10	0	0.1	0	0	349	0.3	348	349	9.8	91.8
2025-10-19T18:48	10	0	0.1	0	0	348	0.5	347	349	9.7	91.8
2025-10-19T18:49	10	0	0.1	0	0	348	0.3	347	348	9.5	92.2
2025-10-19T18:50	10	0	0.1	0	0	348	0.3	347	349	9.7	92.6
2025-10-19T18:51	10	0	0.1	0	0	348	0.3	347	348	9.8	92.2
2025-10-19T18:52	10	0	0.1	0	0	347	0.2	347	348	9.8	92.1
2025-10-19T18:53	10	0	0.1	0	0	347	0.3	346	348	9.7	92.2
2025-10-19T18:54	10	0	0.1	0	0	347	0.2	347	348	9.8	92.1
2025-10-19T18:55	10	0	0.1	0	0	347	0.2	347	348	9.8	92.0
2025-10-19T18:56	10	0	0.1	0	0	347	0.3	347	348	9.6	92.2
2025-10-19T18:57	10	0	0.1	0	0	348	0.2	347	348	9.6	86.1
2025-10-19T18:58	10	0	0.1	0	0	348	0.2	347	348	9.6	92.2
2025-10-19T18:59	10	0	0.1	0	0	347	0.3	346	348	9.6	92.2
2025-10-19T19:00	10	0	0.1	0	1	347	0.2	346	347	9.6	92.2
2025-10-19T19:01	10	0	0.1	0	0	346	0.2	346	347	9.6	92.2
2025-10-19T19:02	10	0	0.1	0	1	346	0.4	345	347	9.6	92.2
2025-10-19T19:03	10	0	0.1	0	1	346	0.3	345	346	9.6	92.2
2025-10-19T19:04	10	0	0.1	0	0	346	0.3	345	346	9.6	92.2
2025-10-19T19:05	10	0	0.1	0	0	345	0.3	345	346	9.5	91.8
2025-10-19T19:06	10	0	0.1	0	0	345	0.2	345	346	9.4	91.8
2025-10-19T19:07	10	0	0.1	0	0	345	0.2	344	345	9.5	92.1
2025-10-19T19:08	10	0	0.1	0	1	344	0.3	344	345	9.6	92.5
2025-10-19T19:09	10	0	0.1	0	0	344	0.3	344	345	9.5	93.0
2025-10-19T19:10	10	0	0.1	0	0	344	0.3	344	345	9.4	93.4
2025-10-19T19:11	10	0	0.1	0	0	345	0.4	345	346	9.4	93.8
2025-10-19T19:12	10	0	0.1	0	0	346	0.3	346	347	9.4	93.9
2025-10-19T19:13	10	0	0.1	0	0	346	0.2	346	347	9.6	93.4
2025-10-19T19:14	10	0	0.1	0	0	346	0.3	345	346	9.6	93.2
2025-10-19T19:15	10	0	0.1	0	0	345	0.3	345	346	9.5	93.4
2025-10-19T19:16	10	0	0.1	0	0	345	0.3	345	346	9.5	93.5
2025-10-19T19:17	10	0	0.1	0	0	345	0.3	345	346	9.4	93.5
2025-10-19T19:18	10	0	0.1	0	0	344	0.3	344	345	9.3	93.7
2025-10-19T19:19	10	0	0.1	0	0	344	0.2	343	344	9.2	94.2
2025-10-19T19:20	10	0	0.1	0	0	344	0.2	343	344	9.1	94.9
2025-10-19T19:21	10	0	0.1	0	0	344	0.5	343	345	9.0	95.1
2025-10-19T19:22	10	0	0.1	0	0	344	0.3	344	345	9.0	95.0
2025-10-19T19:23	10	0	0.1	0	0	344	0.3	344	345	9.1	95.3
2025-10-19T19:24	10	0	0.0	0	0	344	0.2	344	345	9.3	94.9
2025-10-19T19:25	10	0	0.1	0	0	345	0.3	344	345	9.4	94.6
2025-10-19T19:26	10	0	0.1	0	0	345	0.3	344	345	9.4	94.3
2025-10-19T19:27	10	0	0.1	0	0	345	0.2	345	346	9.4	94.0
2025-10-19T19:28	10	0	0.1	0	0	345	0.3	344	346	9.4	93.8
2025-10-19T19:29	10	0	0.1	0	0	345	0.3	344	345	9.4	93.9
2025-10-19T19:30	10	0	0.1	0	0	344	0.2	344	345	9.3	94.5
2025-10-19T19:31	10	0	0.1	0	0	344	0.2	344	345	9.3	94.8
2025-10-19T19:32	10	0	0.1	0	0	344	0.3	343	345	9.3	94.7
2025-10-19T19:33	10	0	0.1	0	0	344	0.3	343	344	9.2	94.6
2025-10-19T19:34	10	0	0.1	0	0	343	0.2	343	344	9.0	95.0
2025-10-19T19:35	10	0	0.1	0	0	344	0.2	343	344	8.9	95.3
2025-10-19T19:36	10	0	0.1	0	0	344	0.2	343	344	8.9	95.7
2025-10-19T19:37	10	0	0.1	0	0	344	0.2	343	344	8.9	96.1
2025-10-19T19:38	10	0	0.1	0	0	344	0.2	343	344	9.0	96.3
2025-10-19T19:39	10	0	0.1	0	0	343	0.2	343	344	9.0	96.5
2025-10-19T19:40	10	0	0.1	0	0	343	0.2	343	344	8.9	96.5
2025-10-19T19:41	10	0	0.1	0	0	344	0.3	343	344	8.9	96.3
2025-10-19T19:42	10	0	0.1	0	0	344	0.2	344	344	8.9	96.6
2025-10-19T19:43	10	0	0.1	0	0	344	0.2	344	345	8.9	96.5
2025-10-19T19:44	10	0	0.1	0	0	344	0.3	343	345	8.9	96.7
2025-10-19T19:45	10	0	0.1	0	0	344	0.3	344	345	8.9	96.5
2025-10-19T19:46	10	0	0.1	0	0	345	0.3	344	345	9.0	96.5
2025-10-19T19:47	10	0	0.1	0	0	345	0.2	345	346	9.1	96.6
2025-10-19T19:48	10	0	0.1	0	0	345	0.3	344	345	8.9	96.5
2025-10-19T19:49	10	0	0.1	0	0	344	0.2	343	344	8.8	96.6
2025-10-19T19:50	10	0	0.1	0	0	345	0.4	344	345	8.9	96.2
2025-10-19T19:51	10	0	0.1	0	0	345	0.2	345	346	8.9	96.3
2025-10-19T19:52	10	0	0.0	0	0	345	0.3	344	345	8.7	96.1
2025-10-19T19:53	10	0	0.1	0	0	345	0.2	344	346	8.6	96.1
2025-10-19T19:54	10	0	0.1	0	0	345	0.2	344	345	8.5	96.7
2025-10-19T19:55	10	0	0.1	0	0	344	0.3	344	345	8.6	96.9
2025-10-19T19:56	10	0	0.1	0	0	344	0.2	343	344	8.6	97.3
2025-10-19T19:57	10	0	0.1	0	0	344	0.2	343	344	8.5	97.2
2025-10-19T19:58	10	0	0.1	0	0	344	0.3	344	345	8.6	97.0
2025-10-19T19:59	10	0	0.1	0	0	344	0.2	344	344	8.7	97.9
2025-10-19T20:00	10	0	0.1	0	0	344	0.2	344	345	8.7	97.9
2025-10-19T20:01	10	0	0.1	0	0	344	0.2	344	345	8.6	97.6
2025-10-19T20:02	10	0	0.1	0	0	344	0.2	343	344	8.6	97.9
2025-10-19T20:03	10	0	0.1	0	0	343	0.3	342	344	8.7	97.6
2025-10-19T20:04	10	0	0.1	0	0	343	0.2	342	343	8.6	97.5
2025-10-19T20:05	10	0	0.1	0	0	342	0.3	342	343	8.5	97.3
2025-10-19T20:06	10	0	0.1	0	0	342	0.2	342	343	8.6	97.4
2025-10-19T20:07	10	0	0.1	0	0	342	0.3	342	343	8.6	97.5
2025-10-19T20:08	10	0	0.0	0	0	343	0.3	342	343	8.6	97.6
2025-10-19T20:09	10	0	0.1	0	0	343	0.2	343	343	8.6	97.9
2025-10-19T20:10	10	0	0.0	0	0	343	0.3	342	343	8.5	97.9
2025-10-19T20:11	10	0	0.1	0	0	342	0.3	342	343	8.4	98.1
2025-10-19T20:12	10	0	0.1	0	0	342	0.2	342	343	8.3	98.3
2025-10-19T20:13	10	0	0.1	0	0	342	0.3	341	342	8.4	98.2
2025-10-19T20:14	10	0	0.1	0	0	343	0.3	342	343	8.5	98.5
2025-10-19T20:15	10	0	0.1	0	0	343	0.3	342	343	8.6	98.2
2025-10-19T20:16	10	0	0.1	0	0	343	0.2	342	343	8.6	98.1
2025-10-19T20:17	10	0	0.1	0	0	343	0.2	343	344	8.6	97.9
2025-10-19T20:18	10	0	0.1	0	0	343	0.2	343	344	8.5	98.3
2025-10-19T20:19	10	0	0.1	0	0	343	0.2	343	344	8.6	98.0
2025-10-19T20:20	10	0	0.1	0	0	343	0.3	343	344	8.6	97.9
2025-10-19T20:21	10	0	0.1	0	0	343	0.2	343	344	8.6	97.8
2025-10-19T20:22	10	0	0.1	0	0	343	0.3	343	344	8.5	98.1
2025-10-19T20:23	10	0	0.1	0	0	344	0.3	343	344	8.6	97.9
2025-10-19T20:24	10	0	0.1	0	0	344	0.2	344	345	8.7	97.5
2025-10-19T20:25	10	0	0.1	0	0	345	0.2	344	345	8.8	97.5
2025-10-19T20:26	10	0	0.1	0	0	345	0.3	344	346	8.7	97.3
2025-10-19T20:27	10	0	0.1	0	0	345	0.2	345	346	8.6	97.2
2025-10-19T20:28	10	0	0.1	0	0	346	0.3	345	346	8.7	97.1
2025-10-19T20:29	10	0	0.1	0	0	346	0.2	345	346	8.8	97.4
2025-10-19T20:30	10	0	0.1	0	0	346	0.2	345	346	8.7	97.3
2025-10-19T20:31	10	0	0.1	0	0	346	0.2	345	346	8.8	97.1
2025-10-19T20:32	10	0	0.1	0	0	346	0.2	345	347	8.9	97.1
2025-10-19T20:33	10	0	0.1	0	0	346	0.2	346	347	8.9	96.9
2025-10-19T20:34	10	0	0.1	0	0	347	0.2	346	347	9.0	96.4
2025-10-19T20:35	10	0	0.1	0	0	347	0.2	346	348	9.0	96.4
2025-10-19T20:36	10	0	0.1	0	1	347	0.2	346	347	9.0	96.3
2025-10-19T20:37	10	0	0.1	0	0	347	0.2	346	347	9.0	96.2
2025-10-19T20:38	10	0	0.1	0	1	347	0.3	346	347	9.0	96.4
2025-10-19T20:39	10	0	0.1	0	1	346	0.3	346	347	8.9	96.4
2025-10-19T20:40	10	0	0.1	0	0	346	0.2	346	346	8.9	96.3
2025-10-19T20:41	10	0	0.1	0	1	346	0.3	345	346	8.9	96.4
2025-10-19T20:42	10	0	0.1	0	0	346	0.2	346	347	9.0	96.2
2025-10-19T20:43	10	0	0.1	0	0	346	0.3	345	347	9.0	95.9
2025-10-19T20:44	10	0	0.1	0	1	347	0.4	346	348	9.1	95.7
2025-10-19T20:45	10	0	0.1	0	1	347	0.3	346	348	9.0	95.8
2025-10-19T20:46	10	0	0.1	0	0	348	0.2	347	348	9.0	95.8
2025-10-19T20:47	10	0	0.1	0	0	348	0.2	348	349	8.8	96.1
2025-10-19T20:48	10	0	0.1	0	0	348	0.3	348	349	8.9	96.2
2025-10-19T20:49	10	0	0.1	0	0	348	0.2	347	348	8.8	96.3
2025-10-19T20:50	10	0	0.1	0	0	348	0.3	347	348	8.8	96.3
2025-10-19T20:51	10	0	0.1	0	0	348	0.2	347	348	8.8	96.5
2025-10-19T20:52	10	0	0.1	0	0	348	0.2	347	348	8.8	96.6
2025-10-19T20:53	10	0	0.1	0	0	348	0.2	347	348	8.8	96.3
2025-10-19T20:54	10	0	0.1	0	0	348	0.3	347	348	8.8	96.5
2025-10-19T20:55	10	0	0.1	0	0	348	0.2	347	348	8.8	96.4
2025-10-19T20:56	10	0	0.1	0	0	348	0.3	347	348	8.8	96.7
2025-10-19T20:57	10	0	0.1	0	0	347	0.2	347	348	8.7	96.6
2025-10-19T20:58	10	0	0.1	0	0	347	0.3	346	348	8.7	96.8
2025-10-19T20:59	10	0	0.1	0	0	347	0.2	346	347	8.6	96.9
2025-10-19T21:00	10	0	0.1	0	0	347	0.2	347	348	8.6	96.8
2025-10-19T21:01	10	0	0.1	0	1	347	0.2	347	348	8.7	96.9
2025-10-19T21:02	10	0	0.1	0	0	347	0.3	347	348	8.7	96.8
2025-10-19T21:03	10	0	0.1	0	0	348	0.3	347	349	8.8	96.5
2025-10-19T21:04	10	0	0.1	0	0	348	0.2	348	349	8.8	96.4
2025-10-19T21:05	10	0	0.1	0	0	348	0.3	347	348	8.8	96.4
2025-10-19T21:06	10	0	0.1	0	1	348	0.2	348	348	8.8	96.2
2025-10-19T21:07	10	0	0.1	0	0	348	0.2	348	348	8.7	96.2
2025-10-19T21:08	10	0	0.1	0	1	348	0.3	347	349	8.6	96.2
2025-10-19T21:09	10	0	0.1	0	0	348	0.2	348	349	8.6	96.5
2025-10-19T21:10	10	0	0.1	0	0	348	0.2	348	349	8.6	96.8
2025-10-19T21:11	10	0	0.2	0	0	348	0.2	348	349	8.5	96.8
2025-10-19T21:12	10	0	0.1	0	0	348	0.2	348	349	8.5	96.8
2025-10-19T21:13	10	0	0.1	0	0	348	0.3	348	349	8.4	97.2
2025-10-19T21:14	10	0	0.1	0	0	348	0.3	347	349	8.4	97.5
2025-10-19T21:15	10	0	0.1	0	0	348	0.3	348	349	8.4	97.7
2025-10-19T21:16	10	0	0.1	0	0	348	0.2	348	349	8.4	97.9
2025-10-19T21:17	10	0	0.1	0	0	348	0.2	348	349	8.4	98.1
2025-10-19T21:18	10	0	0.1	0	0	348	0.3	347	349	8.4	98.3
2025-10-19T21:19	10	0	0.2	0	1	348	0.2	348	349	8.5	98.1
2025-10-19T21:20	10	0	0.2	0	1	348	0.2	348	349	8.6	97.8
2025-10-19T21:21	10	0	0.1	0	0	348	0.2	348	349	8.6	97.8
2025-10-19T21:22	10	0	0.1	0	0	348	0.2	348	349	8.6	97.6
2025-10-19T21:23	10	0	0.2	0	1	348	0.3	347	349	8.6	97.6
2025-10-19T21:24	10	0	0.1	0	1	348	0.3	347	349	8.6	97.6
2025-10-19T21:25	10	0	0.2	0	0	348	0.3	347	349	8.6	97.5
2025-10-19T21:26	10	0	0.1	0	1	348	0.2	347	348	8.6	97.2
2025-10-19T21:27	10	0	0.1	0	0	348	0.3	347	348	8.6	97.1
2025-10-19T21:28	10	0	0.1	0	1	348	0.3	347	348	8.7	97.1
2025-10-19T21:29	10	0	0.1	0	0	347	0.2	347	348	8.6	97.5
2025-10-19T21:30	10	0	0.1	0	0	347	0.2	347	348	8.6	97.5
2025-10-19T21:31	10	0	0.1	0	1	347	0.2	347	348	8.6	97.3
2025-10-19T21:32	10	0	0.2	0	1	348	0.3	347	349	8.6	97.4
2025-10-19T21:33	10	0	0.2	0	1	348	0.3	347	348	8.6	97.4
2025-10-19T21:34	10	0	0.1	0	1	348	0.2	347	348	8.6	98.0
2025-10-19T21:35	10	0	0.1	0	0	348	0.2	348	348	8.6	97.6
2025-10-19T21:36	10	0	0.1	0	0	348	0.2	348	349	8.6	97.2
2025-10-19T21:37	10	0	0.1	0	0	348	0.3	348	349	8.6	97.3
2025-10-19T21:38	10	0	0.2	0	1	348	0.3	347	348	8.5	97.4
2025-10-19T21:39	10	0	0.1	0	1	348	0.2	347	348	8.4	97.5
2025-10-19T21:40	10	0	0.1	0	0	348	0.3	347	349	8.4	97.6
2025-10-19T21:41	10	0	0.1	0	0	348	0.3	347	349	8.4	98.3
2025-10-19T21:42	10	0	0.1	0	0	348	0.2	347	348	8.4	98.8
2025-10-19T21:43	10	0	0.2	0	1	348	0.2	347	348	8.4	98.7
2025-10-19T21:44	10	0	0.1	0	0	348	0.3	347	348	8.4	99.0
2025-10-19T21:45	10	0	0.2	0	0	348	0.3	346	348	8.4	98.5
2025-10-19T21:46	10	0	0.1	0	1	347	0.3	347	348	8.5	98.0
2025-10-19T21:47	10	0	0.2	0	0	347	0.3	347	348	8.5	97.9
2025-10-19T21:48	10	0	0.2	0	1	347	0.3	346	348	8.5	97.9
2025-10-19T21:49	10	0	0.1	0	0	347	0.2	346	348	8.5	98.1
2025-10-19T21:50	10	0	0.2	0	1	347	0.3	346	348	8.4	98.5
2025-10-19T21:51	10	0	0.1	0	0	347	0.3	346	347	8.4	97.9
2025-10-19T21:52	10	0	0.1	0	0	347	0.3	346	347	8.4	97.4
2025-10-19T21:53	10	0	0.1	0	0	347	0.3	347	348	8.4	97.3
2025-10-19T21:54	10	0	0.1	0	0	347	0.2	347	348	8.5	97.4
2025-10-19T21:55	10	0	0.1	0	0	347	0.3	347	348	8.5	97.7
2025-10-19T21:56	10	0	0.1	0	0	348	0.3	347	348	8.6	97.6
2025-10-19T21:57	10	0	0.1	0	0	348	0.3	347	348	8.6	97.8
2025-10-19T21:58	10	0	0.1	0	0	348	0.2	347	349	8.6	97.7
2025-10-19T21:59	10	0	0.2	0	1	348	0.2	347	348	8.6	97.4
2025-10-19T22:00	10	0	0.1	0	0	348	0.3	347	348	8.6	97.5
2025-10-19T22:01	10	0	0.1	0	0	348	0.3	347	349	8.6	97.8
2025-10-19T22:02	10	0	0.1	0	1	348	0.3	347	349	8.7	97.6
2025-10-19T22:03	10	0	0.1	0	0	348	0.2	348	349	8.7	97.1
2025-10-19T22:04	10	0	0.2	0	0	348	0.3	348	349	8.6	97.2
2025-10-19T22:05	10	0	0.1	0	0	348	0.3	348	349	8.6	97.4
2025-10-19T22:06	10	0	0.1	0	0	348	0.2	348	349	8.5	97.3
2025-10-19T22:07	10	0	0.1	0	0	348	0.3	348	349	8.4	97.4
2025-10-19T22:08	10	0	0.1	0	0	348	0.3	347	348	8.4	97.6
2025-10-19T22:09	10	0	0.2	0	0	348	0.2	347	348	8.4	98.0
2025-10-19T22:10	10	0	0.1	0	0	348	0.3	347	349	8.4	97.9
2025-10-19T22:11	10	0	0.1	0	0	348	0.2	347	348	8.4	98.0
2025-10-19T22:12	10	0	0.1	0	0	348	0.2	347	348	8.4	97.8
2025-10-19T22:13	10	0	0.1	0	0	348	0.3	348	349	8.5	97.6
2025-10-19T22:14	10	0	0.1	0	0	348	0.3	348	349	8.7	97.3
2025-10-19T22:15	10	0	0.1	0	1	349	0.2	348	349	8.8	97.3
2025-10-19T22:16	10	0	0.1	0	0	349	0.3	348	349	8.8	96.7
2025-10-19T22:17	10	0	0.2	0	1	348	0.3	348	349	8.8	96.5
2025-10-19T22:18	10	0	0.1	0	1	348	0.2	348	349	8.7	96.7
2025-10-19T22:19	10	0	0.2	0	1	348	0.3	347	349	8.6	97.1
2025-10-19T22:20	10	0	0.2	0	1	348	0.2	347	349	8.5	96.5
2025-10-19T22:21	10	0	0.2	0	1	348	0.3	348	349	8.4	96.6
2025-10-19T22:22	10	0	0.1	0	0	348	0.3	348	349	8.3	97.0
2025-10-19T22:23	10	0	0.1	0	0	348	0.2	348	349	8.3	97.4
2025-10-19T22:24	10	0	0.2	0	1	348	0.3	347	349	8.3	97.5
2025-10-19T22:25	10	0	0.2	0	1	348	0.3	348	349	8.2	97.5
2025-10-19T22:26	10	0	0.1	0	0	348	0.2	348	349	8.1	97.7
2025-10-19T22:27	10	0	0.2	0	0	348	0.2	348	349	8.1	98.2
2025-10-19T22:28	10	0	0.2	0	1	348	0.2	347	348	8.1	98.4
2025-10-19T22:29	10	0	0.1	0	0	348	0.3	347	348	8.0	98.5
2025-10-19T22:30	10	0	0.1	0	0	347	0.2	347	348	8.0	99.0
2025-10-19T22:31	10	0	0.1	0	0	347	0.2	346	347	8.0	99.6
2025-10-19T22:32	10	0	0.1	0	0	347	0.3	346	347	8.0	99.8
2025-10-19T22:33	10	0	0.2	0	0	347	0.2	346	347	8.0	99.2
2025-10-19T22:34	10	0	0.1	0	0	346	0.3	346	347	8.1	99.1
2025-10-19T22:35	10	0	0.1	0	0	346	0.3	346	347	8.1	99.6
2025-10-19T22:36	10	0	0.1	0	0	346	0.3	346	347	8.0	98.7
2025-10-19T22:37	10	0	0.2	0	1	347	0.3	346	348	8.0	98.4
2025-10-19T22:38	10	0	0.1	0	0	347	0.2	346	347	8.0	98.5
2025-10-19T22:39	10	0	0.2	0	0	347	0.3	346	348	8.0	98.6
2025-10-19T22:40	10	0	0.1	0	0	347	0.3	346	347	8.1	98.7
2025-10-19T22:41	10	0	0.2	0	0	347	0.2	346	347	8.1	98.8
2025-10-19T22:42	10	0	0.2	0	0	347	0.3	346	347	8.1	99.1
2025-10-19T22:43	10	0	0.2	0	0	347	0.3	346	347	8.1	98.5
2025-10-19T22:44	10	0	0.1	0	0	347	0.3	346	347	8.0	98.3
2025-10-19T22:45	10	0	0.2	0	0	347	0.2	346	347	8.0	98.3
2025-10-19T22:46	10	0	0.1	0	0	347	0.2	346	347	8.0	98.6
2025-10-19T22:47	10	0	0.1	0	0	346	0.2	346	347	8.0	98.7
2025-10-19T22:48	10	0	0.1	0	0	346	0.2	345	346	8.1	98.7
2025-10-19T22:49	10	0	0.2	0	0	346	0.3	345	346	8.1	98.8
2025-10-19T22:50	10	0	0.1	0	0	345	0.3	344	345	8.0	99.1
2025-10-19T22:51	10	0	0.1	0	0	345	0.2	345	346	8.0	99.9
2025-10-19T22:52	10	0	0.1	0	0	345	0.2	344	345	8.0	99.4
2025-10-19T22:53	10	0	0.1	0	0	345	0.2	345	346	8.1	98.5
2025-10-19T22:54	10	0	0.1	0	0	345	0.2	345	346	8.1	98.3
2025-10-19T22:55	10	0	0.1	0	0	345	0.2	345	346	8.0	98.3
2025-10-19T22:56	10	0	0.1	0	0	345	0.2	345	346	7.9	98.3
2025-10-19T22:57	10	0	0.1	0	0	345	0.2	345	346	8.0	98.5
2025-10-19T22:58	10	0	0.1	0	0	345	0.3	344	346	8.0	98.7
2025-10-19T22:59	10	0	0.1	0	1	345	0.2	344	345	8.0	99.0
2025-10-19T23:00	10	0	0.1	0	0	344	0.2	344	345	8.0	99.2
2025-10-19T23:01	10	0	0.1	0	0	344	0.3	344	345	8.1	98.8
2025-10-19T23:02	10	0	0.1	0	0	344	0.2	344	345	8.3	98.8
2025-10-19T23:03	10	0	0.1	0	0	344	0.3	344	345	8.3	98.6
2025-10-19T23:04	10	0	0.1	0	1	345	0.2	344	345	8.3	98.7
2025-10-19T23:05	10	0	0.1	0	0	345	0.4	344	346	8.3	98.3
2025-10-19T23:06	10	0	0.1	0	0	345	0.3	345	346	8.4	97.9
2025-10-19T23:07	10	0	0.1	0	0	346	0.4	345	346	8.5	97.7
2025-10-19T23:08	10	0	0.1	0	0	345	0.3	344	346	8.3	97.9
2025-10-19T23:09	10	0	0.1	0	0	345	0.3	344	346	8.1	97.9
2025-10-19T23:10	10	0	0.2	0	0	345	0.2	344	345	8.1	98.2
2025-10-19T23:11	10	0	0.1	0	0	345	0.3	344	346	8.1	98.1
2025-10-19T23:12	10	0	0.1	0	0	345	0.3	345	346	8.3	98.1
2025-10-19T23:13	10	0	0.1	0	0	345	0.3	345	346	8.4	98.2
2025-10-19T23:14	10	0	0.1	0	0	346	0.2	345	346	8.4	98.4
2025-10-19T23:15	10	0	0.1	0	0	346	0.3	345	346	8.5	98.3
2025-10-19T23:16	10	0	0.1	0	0	345	0.2	345	346	8.4	97.5
2025-10-19T23:17	10	0	0.1	0	1	345	0.2	345	346	8.5	97.3
2025-10-19T23:18	10	0	0.1	0	0	345	0.2	345	345	8.5	97.5
2025-10-19T23:19	10	0	0.1	0	0	345	0.2	345	346	8.6	97.7
2025-10-19T23:20	10	0	0.1	0	1	345	0.2	345	346	8.6	97.9
2025-10-19T23:21	10	0	0.2	0	1	345	0.2	344	346	8.6	97.6
2025-10-19T23:22	10	0	0.1	0	0	345	0.2	345	346	8.7	97.0
2025-10-19T23:23	10	0	0.1	0	0	346	0.2	345	346	8.8	96.3
2025-10-19T23:24	10	0	0.1	0	0	345	0.3	345	346	8.8	96.4
2025-10-19T23:25	10	0	0.1	0	0	345	0.2	345	346	8.8	96.4
2025-10-19T23:26	10	0	0.1	0	0	345	0.3	345	346	8.8	96.4
2025-10-19T23:27	10	0	0.1	0	1	345	0.2	345	346	8.9	96.0
2025-10-19T23:28	10	0	0.1	0	0	345	0.2	345	346	8.9	95.8
2025-10-19T23:29	10	0	0.1	0	0	345	0.2	345	346	9.0	95.8
2025-10-19T23:30	10	0	0.1	0	0	346	0.2	345	347	9.0	95.7
2025-10-19T23:31	10	0	0.1	0	0	346	0.3	345	346	9.0	95.3
2025-10-19T23:32	10	0	0.1	0	0	345	0.3	344	346	8.9	95.5
2025-10-19T23:33	10	0	0.1	0	0	345	0.2	345	346	8.7	95.8
2025-10-19T23:34	10	0	0.0	0	0	345	0.2	345	346	8.6	96.4
2025-10-19T23:35	10	0	0.1	0	0	346	0.2	345	346	8.6	96.8
2025-10-19T23:36	10	0	0.1	0	0	346	0.2	345	346	8.6	97.1
2025-10-19T23:37	10	0	0.1	0	0	346	0.3	345	346	8.6	97.0
2025-10-19T23:38	10	0	0.1	0	0	347	0.3	346	347	8.7	96.9
2025-10-19T23:39	10	0	0.1	0	0	347	0.3	347	348	8.8	96.4
2025-10-19T23:40	10	0	0.1	0	0	348	0.3	347	348	8.9	96.2
2025-10-19T23:41	10	0	0.0	0	0	348	0.2	347	348	9.0	96.1
2025-10-19T23:42	10	0	0.1	0	0	348	0.2	347	349	8.9	96.2
2025-10-19T23:43	10	0	0.1	0	0	348	0.3	347	348	8.8	96.3
2025-10-19T23:44	10	0	0.1	0	0	347	0.2	346	348	8.6	96.6
2025-10-19T23:45	10	0	0.1	0	0	347	0.2	347	348	8.5	96.5
2025-10-19T23:46	10	0	0.1	0	0	347	0.2	347	348	8.4	96.8
2025-10-19T23:47	10	0	0.1	0	0	347	0.2	347	348	8.4	97.1
2025-10-19T23:48	10	0	0.1	0	0	347	0.2	347	347	8.4	97.6
2025-10-19T23:49	10	0	0.1	0	0	347	0.2	347	348	8.4	97.5
2025-10-19T23:50	10	0	0.1	0	0	348	0.3	347	348	8.4	97.4
2025-10-19T23:51	10	0	0.1	0	0	348	0.2	347	348	8.4	97.7
2025-10-19T23:52	10	0	0.1	0	0	347	0.3	347	348	8.4	97.8
2025-10-19T23:53	10	0	0.1	0	0	348	0.2	347	348	8.4	97.8
2025-10-19T23:54	10	0	0.1	0	0	348	0.2	347	348	8.4	98.2
2025-10-19T23:55	10	0	0.1	0	0	348	0.2	347	348	8.3	98.2
2025-10-19T23:56	10	0	0.1	0	0	348	0.2	347	348	8.3	98.2
2025-10-19T23:57	10	0	0.1	0	0	348	0.2	347	348	8.2	98.3
2025-10-19T23:58	10	0	0.1	0	0	348	0.2	348	348	8.3	98.3
2025-10-19T23:59	10	0	0.1	0	0	348	0.2	347	348	8.3	98.7
2025-10-20T00:00	10	0	0.1	0	0	348	0.2	347	348	8.3	98.4
2025-10-20T00:01	10	0	0.1	0	0	348	0.2	347	348	8.4	98.5
2025-10-20T00:02	10	0	0.1	0	0	348	0.2	347	348	8.3	98.5
2025-10-20T00:03	10	0	0.0	0	0	348	0.3	347	349	8.3	98.4
2025-10-20T00:04	10	0	0.1	0	0	348	0.3	348	349	8.3	98.5
2025-10-20T00:05	10	0	0.1	0	0	348	0.2	348	349	8.5	98.4
2025-10-20T00:06	10	0	0.1	0	0	348	0.2	348	349	8.5	98.6
2025-10-20T00:07	10	0	0.1	0	0	348	0.2	348	349	8.4	98.8
2025-10-20T00:08	10	0	0.1	0	0	348	0.2	348	349	8.4	98.8
2025-10-20T00:09	10	0	0.1	0	0	348	0.2	348	349	8.3	98.6
2025-10-20T00:10	10	0	0.1	0	0	348	0.2	348	349	8.3	98.9
2025-10-20T00:11	10	0	0.1	0	0	349	0.3	348	349	8.4	98.7
2025-10-20T00:12	10	0	0.0	0	0	349	0.2	348	349	8.4	98.7
2025-10-20T00:13	10	0	0.1	0	0	349	0.3	348	349	8.3	98.8
2025-10-20T00:14	10	0	0.1	0	0	348	0.2	348	349	8.2	99.0
2025-10-20T00:15	10	0	0.1	0	0	348	0.2	348	349	8.2	99.1
2025-10-20T00:16	10	0	0.1	0	0	348	0.2	348	349	8.1	98.9
2025-10-20T00:17	10	0	0.1	0	0	349	0.2	348	349	8.2	98.8
2025-10-20T00:18	10	0	0.1	0	0	349	0.2	348	349	8.3	98.8
2025-10-20T00:19	10	0	0.1	0	0	349	0.3	348	350	8.4	98.8
2025-10-20T00:20	10	0	0.1	0	0	349	0.2	349	350	8.7	98.3
2025-10-20T00:21	10	0	0.1	0	0	349	0.2	349	350	8.6	99.1
2025-10-20T00:22	10	0	0.1	0	0	349	0.2	349	349	8.4	98.6
2025-10-20T00:23	10	0	0.1	0	0	349	0.2	348	349	8.4	98.4
2025-10-20T00:24	10	0	0.1	0	0	349	0.2	349	349	8.4	98.8
2025-10-20T00:25	10	0	0.1	0	0	349	0.2	349	350	8.4	99.2
2025-10-20T00:26	10	0	0.1	0	0	349	0.2	349	350	8.5	99.0
2025-10-20T00:27	10	0	0.1	0	0	349	0.2	349	350	8.4	98.2
2025-10-20T00:28	10	0	0.1	0	0	350	0.2	349	350	8.4	97.8
2025-10-20T00:29	10	0	0.1	0	0	349	0.2	349	350	8.3	97.8
2025-10-20T00:30	10	0	0.1	0	0	349	0.2	349	350	8.3	97.8
2025-10-20T00:31	10	0	0.1	0	0	349	0.3	349	350	8.2	97.7
2025-10-20T00:32	10	0	0.1	0	0	350	0.2	349	350	8.2	97.9
2025-10-20T00:33	10	0	0.2	0	1	349	0.3	349	350	8.2	97.8
2025-10-20T00:34	10	0	0.2	0	0	350	0.2	349	350	8.2	98.2
2025-10-20T00:35	10	0	0.1	0	0	350	0.2	349	350	8.2	98.4
2025-10-20T00:36	10	0	0.1	0	0	349	0.3	349	350	8.2	98.6
2025-10-20T00:37	10	0	0.1	0	0	349	0.2	349	350	8.1	98.6
2025-10-20T00:38	10	0	0.1	0	0	349	0.2	349	350	8.1	98.4
2025-10-20T00:39	10	0	0.1	0	0	349	0.3	349	350	8.1	98.5
2025-10-20T00:40	10	0	0.1	0	0	349	0.2	349	349	8.1	98.7
2025-10-20T00:41	10	0	0.1	0	0	349	0.3	349	350	8.1	98.7
2025-10-20T00:42	10	0	0.1	0	0	349	0.2	349	350	8.1	98.6
2025-10-20T00:43	10	0	0.1	0	0	349	0.2	349	349	8.1	98.5
2025-10-20T00:44	10	0	0.1	0	0	349	0.2	348	349	8.1	98.3
2025-10-20T00:45	10	0	0.1	0	0	349	0.2	349	350	8.1	98.2
2025-10-20T00:46	10	0	0.1	0	0	349	0.2	348	350	8.1	98.2
2025-10-20T00:47	10	0	0.1	0	0	349	0.2	348	349	8.1	98.3
2025-10-20T00:48	10	0	0.1	0	0	349	0.2	349	350	8.1	98.8
2025-10-20T00:49	10	0	0.1	0	0	349	0.2	348	349	8.1	98.9
2025-10-20T00:50	10	0	0.1	0	0	349	0.2	348	349	8.1	98.5
2025-10-20T00:51	10	0	0.1	0	0	349	0.2	348	349	8.1	98.2
2025-10-20T00:52	10	0	0.1	0	0	349	0.2	348	349	8.1	98.1
2025-10-20T00:53	10	0	0.1	0	0	349	0.2	348	349	8.1	98.0
2025-10-20T00:54	10	0	0.1	0	0	349	0.2	348	349	8.1	97.9
2025-10-20T00:55	10	0	0.1	0	0	349	0.3	348	349	8.1	97.9
2025-10-20T00:56	10	0	0.1	0	0	349	0.2	348	349	8.1	98.0
2025-10-20T00:57	10	0	0.1	0	0	349	0.2	348	349	8.1	98.2
2025-10-20T00:58	10	0	0.0	0	0	349	0.2	348	349	8.1	98.0
2025-10-20T00:59	10	0	0.1	0	0	349	0.2	348	349	8.2	97.9
2025-10-20T01:00	10	0	0.1	0	0	349	0.2	348	349	8.2	98.0
2025-10-20T01:01	10	0	0.1	0	0	349	0.2	349	349	8.3	98.2
2025-10-20T01:02	10	0	0.1	0	0	349	0.3	348	349	8.2	98.0
2025-10-20T01:03	10	0	0.1	0	0	349	0.2	349	349	8.2	97.9
2025-10-20T01:04	10	0	0.1	0	0	349	0.3	348	349	8.2	98.2
2025-10-20T01:05	10	0	0.1	0	0	349	0.2	348	349	8.2	98.2
2025-10-20T01:06	10	0	0.0	0	0	349	0.2	348	349	8.2	98.3
2025-10-20T01:07	10	0	0.1	0	0	348	0.2	348	349	8.2	98.2
2025-10-20T01:08	10	0	0.1	0	0	348	0.2	348	349	8.1	98.0
2025-10-20T01:09	10	0	0.1	0	0	348	0.2	348	349	8.0	98.0
2025-10-20T01:10	10	0	0.1	0	0	348	0.2	348	349	8.0	98.4
2025-10-20T01:11	10	0	0.1	0	0	348	0.2	348	349	8.1	98.3
2025-10-20T01:12	10	0	0.1	0	0	348	0.2	348	349	8.1	97.9
2025-10-20T01:13	10	0	0.1	0	0	348	0.2	348	349	8.1	97.9
2025-10-20T01:14	10	0	0.0	0	0	348	0.2	348	349	8.1	98.1
2025-10-20T01:15	10	0	0.0	0	0	348	0.2	348	349	8.0	98.1
2025-10-20T01:16	10	0	0.1	0	0	348	0.3	348	349	8.1	97.9
2025-10-20T01:17	10	0	0.1	0	0	348	0.2	348	349	8.1	97.9
2025-10-20T01:18	10	0	0.1	0	0	348	0.2	348	349	8.1	97.9
2025-10-20T01:19	10	0	0.1	0	0	348	0.2	348	349	8.1	98.1
2025-10-20T01:20	10	0	0.1	0	0	349	0.2	348	349	8.1	98.3
2025-10-20T01:21	10	0	0.1	0	0	348	0.2	348	349	8.0	98.3
2025-10-20T01:22	10	0	0.1	0	0	349	0.2	348	349	8.0	98.4
2025-10-20T01:23	10	0	0.1	0	0	349	0.2	348	349	7.9	98.6
2025-10-20T01:24	10	0	0.1	0	0	349	0.2	348	349	8.0	98.4
2025-10-20T01:25	10	0	0.1	0	0	349	0.2	348	349	8.0	98.5
2025-10-20T01:26	10	0	0.1	0	0	349	0.2	348	349	8.0	98.5
2025-10-20T01:27	10	0	0.1	0	0	349	0.2	348	349	7.9	98.5
2025-10-20T01:28	10	0	0.1	0	0	349	0.2	348	349	7.9	98.7
2025-10-20T01:29	10	0	0.1	0	0	349	0.2	348	349	8.0	98.7
2025-10-20T01:30	10	0	0.1	0	0	349	0.3	348	349	8.0	99.0
2025-10-20T01:31	10	0	0.1	0	0	348	0.2	348	349	7.9	99.1
2025-10-20T01:32	10	0	0.1	0	0	348	0.2	348	349	7.9	99.2
2025-10-20T01:33	10	0	0.1	0	0	348	0.2	348	349	7.9	99.1
2025-10-20T01:34	10	0	0.1	0	0	348	0.2	348	349	7.9	99.1
2025-10-20T01:35	10	0	0.1	0	0	348	0.2	348	349	7.9	99.3
2025-10-20T01:36	10	0	0.1	0	0	348	0.2	348	349	8.0	99.5
2025-10-20T01:37	10	0	0.1	0	0	348	0.2	348	349	8.0	99.6
2025-10-20T01:38	10	0	0.1	0	0	349	0.2	348	349	8.0	99.3
2025-10-20T01:39	10	0	0.1	0	0	349	0.2	348	349	8.0	99.2
2025-10-20T01:40	10	0	0.1	0	0	349	0.3	348	349	8.0	99.3
2025-10-20T01:41	10	0	0.1	0	0	349	0.2	348	349	8.1	99.1
2025-10-20T01:42	10	0	0.1	0	0	349	0.3	349	350	8.2	98.7
2025-10-20T01:43	10	0	0.1	0	0	350	0.2	349	350	8.3	98.8
2025-10-20T01:44	10	0	0.1	0	0	350	0.2	349	350	8.3	99.0
2025-10-20T01:45	10	0	0.1	0	0	350	0.2	349	350	8.3	98.7
2025-10-20T01:46	10	0	0.1	0	0	350	0.4	349	351	8.3	98.7
2025-10-20T01:47	10	0	0.1	0	0	350	0.3	350	351	8.6	98.4
2025-10-20T01:48	10	0	0.1	0	0	350	0.2	350	351	8.7	98.3
2025-10-20T01:49	10	0	0.1	0	0	351	0.2	350	351	8.7	97.9
2025-10-20T01:50	10	0	0.1	0	0	351	0.3	351	352	8.8	97.8
2025-10-20T01:51	10	0	0.1	0	0	352	0.2	351	352	8.8	97.7
2025-10-20T01:52	10	0	0.1	0	0	352	0.2	351	352	8.8	97.7
2025-10-20T01:53	10	0	0.0	0	0	352	0.2	351	352	8.8	97.6
2025-10-20T01:54	10	0	0.1	0	0	352	0.2	352	353	8.9	97.4
2025-10-20T01:55	10	0	0.1	0	0	352	0.2	352	353	8.8	97.3
2025-10-20T01:56	10	0	0.1	0	0	353	0.2	352	353	8.8	97.0
2025-10-20T01:57	10	0	0.1	0	0	352	0.3	352	353	8.6	97.0
2025-10-20T01:58	10	0	0.1	0	0	352	0.2	352	352	8.4	97.4
2025-10-20T01:59	10	0	0.1	0	0	352	0.3	351	353	8.5	98.1
2025-10-20T02:00	10	0	0.1	0	0	351	0.2	351	352	8.4	98.0
2025-10-20T02:01	10	0	0.1	0	0	352	0.3	351	352	8.4	98.4
2025-10-20T02:02	10	0	0.1	0	0	352	0.2	351	352	8.4	98.6
2025-10-20T02:03	10	0	0.1	0	0	352	0.2	351	352	8.5	98.4
2025-10-20T02:04	10	0	0.0	0	0	352	0.2	351	352	8.5	98.4
2025-10-20T02:05	10	0	0.0	0	0	352	0.2	351	352	8.5	98.4
2025-10-20T02:06	10	0	0.1	0	0	352	0.3	351	352	8.5	98.1
2025-10-20T02:07	10	0	0.0	0	0	352	0.3	351	352	8.5	97.8
2025-10-20T02:08	10	0	0.0	0	0	352	0.3	351	352	8.4	97.8
2025-10-20T02:09	10	0	0.1	0	0	351	0.2	351	352	8.3	97.8
2025-10-20T02:10	10	0	0.1	0	0	351	0.2	351	352	8.3	97.9
2025-10-20T02:11	10	0	0.1	0	0	351	0.2	351	352	8.3	98.0
2025-10-20T02:12	10	0	0.1	0	0	351	0.2	350	351	8.2	98.2
2025-10-20T02:13	10	0	0.1	0	0	351	0.2	351	351	8.2	98.3
2025-10-20T02:14	10	0	0.1	0	0	351	0.2	351	351	8.2	98.4
2025-10-20T02:15	10	0	0.1	0	0	351	0.2	351	351	8.1	98.4
2025-10-20T02:16	10	0	0.1	0	0	351	0.2	350	351	8.1	98.6
2025-10-20T02:17	10	0	0.1	0	0	351	0.2	350	351	8.1	98.8
2025-10-20T02:18	10	0	0.1	0	0	351	0.3	350	351	8.1	99.2
2025-10-20T02:19	10	0	0.1	0	0	351	0.2	350	351	8.0	99.0
2025-10-20T02:20	10	0	0.1	0	0	350	0.3	350	351	8.0	98.8
2025-10-20T02:21	10	0	0.1	0	0	350	0.2	350	351	8.0	99.0
2025-10-20T02:22	10	0	0.1	0	0	350	0.2	350	351	8.0	99.0
2025-10-20T02:23	10	0	0.1	0	0	350	0.2	350	351	8.0	99.5
2025-10-20T02:24	10	0	0.1	0	0	350	0.2	350	351	8.0	100.0
2025-10-20T02:25	10	0	0.1	0	0	350	0.2	350	351	8.0	99.5
2025-10-20T02:26	10	0	0.1	0	0	350	0.2	350	351	8.0	99.3
2025-10-20T02:27	10	0	0.1	0	0	350	0.3	350	351	8.0	99.2
2025-10-20T02:28	10	0	0.0	0	0	351	0.2	350	351	8.0	99.2
2025-10-20T02:29	10	0	0.1	0	0	351	0.2	350	351	8.0	99.5
2025-10-20T02:30	10	0	0.1	0	0	351	0.2	350	351	8.0	99.6
2025-10-20T02:31	10	0	0.1	0	0	350	0.2	350	351	7.9	99.2
2025-10-20T02:32	10	0	0.1	0	0	350	0.2	350	351	7.9	99.5
2025-10-20T02:33	10	0	0.1	0	0	351	0.2	350	351	7.9	99.5
2025-10-20T02:34	10	0	0.1	0	0	351	0.2	350	351	7.9	99.2
2025-10-20T02:35	10	0	0.1	0	0	351	0.2	350	351	8.0	99.1
2025-10-20T02:36	10	0	0.1	0	0	351	0.2	350	351	8.0	99.0
2025-10-20T02:37	10	0	0.1	0	0	351	0.2	350	352	8.0	99.0
2025-10-20T02:38	10	0	0.1	0	0	351	0.2	350	352	8.0	98.9
2025-10-20T02:39	10	0	0.0	0	0	351	0.2	351	351	8.1	98.8
2025-10-20T02:40	10	0	0.1	0	0	351	0.2	350	351	8.1	98.8
2025-10-20T02:41	10	0	0.1	0	0	351	0.2	351	351	8.1	99.0
2025-10-20T02:42	10	0	0.1	0	0	351	0.3	350	352	8.1	99.2
2025-10-20T02:43	10	0	0.1	0	0	351	0.2	351	352	8.1	99.3
2025-10-20T02:44	10	0	0.1	0	0	351	0.2	351	352	8.2	99.4
2025-10-20T02:45	10	0	0.1	0	0	352	0.2	351	352	8.2	99.6
2025-10-20T02:46	10	0	0.1	0	0	352	0.2	351	352	8.3	99.4
2025-10-20T02:47	10	0	0.1	0	0	352	0.3	351	353	8.4	99.0
2025-10-20T02:48	10	0	0.1	0	0	352	0.2	351	352	8.4	98.8
2025-10-20T02:49	10	0	0.1	0	0	352	0.2	351	352	8.5	98.6
2025-10-20T02:50	10	0	0.1	0	0	352	0.3	351	352	8.5	98.2
2025-10-20T02:51	10	0	0.1	0	0	352	0.2	351	352	8.4	98.1
2025-10-20T02:52	10	0	0.1	0	0	352	0.2	351	352	8.3	98.4
2025-10-20T02:53	10	0	0.1	0	0	352	0.2	351	352	8.3	98.7
2025-10-20T02:54	10	0	0.1	0	0	352	0.2	351	352	8.3	98.7
2025-10-20T02:55	10	0	0.1	0	0	352	0.2	351	352	8.3	99.0
2025-10-20T02:56	10	0	0.1	0	0	352	0.2	351	352	8.3	99.0
2025-10-20T02:57	10	0	0.1	0	0	352	0.2	351	352	8.4	99.0
2025-10-20T02:58	10	0	0.1	0	0	352	0.2	352	352	8.4	99.1
2025-10-20T02:59	10	0	0.1	0	0	352	0.3	351	353	8.4	99.1
2025-10-20T03:00	10	0	0.1	0	0	352	0.2	352	352	8.4	99.0
2025-10-20T03:01	10	0	0.1	0	0	352	0.3	351	353	8.4	99.1
2025-10-20T03:02	10	0	0.1	0	0	352	0.2	352	353	8.5	98.8
2025-10-20T03:03	10	0	0.1	0	0	353	0.2	352	353	8.6	98.4
2025-10-20T03:04	10	0	0.1	0	0	353	0.2	352	353	8.6	98.4
2025-10-20T03:05	10	0	0.1	0	0	353	0.2	352	353	8.6	98.4
2025-10-20T03:06	10	0	0.1	0	0	353	0.3	352	353	8.6	98.5
2025-10-20T03:07	10	0	0.0	0	0	353	0.2	353	354	8.7	98.6
2025-10-20T03:08	10	0	0.1	0	0	353	0.2	353	354	8.8	98.3
2025-10-20T03:09	10	0	0.1	0	0	353	0.2	353	354	8.8	98.0
2025-10-20T03:10	10	0	0.0	0	0	353	0.2	353	354	8.8	97.9
2025-10-20T03:11	10	0	0.1	0	0	354	0.2	353	354	8.9	97.7
2025-10-20T03:12	10	0	0.0	0	0	354	0.2	353	354	9.0	97.5
2025-10-20T03:13	10	0	0.0	0	0	354	0.3	353	354	9.0	97.6
2025-10-20T03:14	10	0	0.0	0	0	354	0.2	353	354	9.0	97.6
2025-10-20T03:15	10	0	0.0	0	0	354	0.1	353	354	9.1	97.3
2025-10-20T03:16	10	0	0.1	0	0	354	0.3	353	354	9.0	97.2
2025-10-20T03:17	10	0	0.1	0	0	354	0.2	354	355	9.2	96.7
2025-10-20T03:18	10	0	0.0	0	0	354	0.2	353	355	9.1	96.8
2025-10-20T03:19	10	0	0.0	0	0	353	0.3	353	354	8.8	97.2
2025-10-20T03:20	10	0	0.1	0	0	353	0.2	352	353	8.6	97.8
2025-10-20T03:21	10	0	0.1	0	0	352	0.2	352	353	8.4	98.2
2025-10-20T03:22	10	0	0.1	0	0	352	0.2	351	352	8.3	98.7
2025-10-20T03:23	10	0	0.1	0	0	352	0.2	351	352	8.3	99.2
2025-10-20T03:24	10	0	0.1	0	0	352	0.3	352	352	8.3	99.5
2025-10-20T03:25	10	0	0.1	0	0	352	0.2	352	352	8.3	99.4
2025-10-20T03:26	10	0	0.1	0	0	352	0.2	351	352	8.2	99.7
2025-10-20T03:27	10	0	0.1	0	0	352	0.2	351	352	8.2	100.0
2025-10-20T03:28	10	0	0.1	0	0	352	0.2	351	352	8.3	99.8
2025-10-20T03:29	10	0	0.1	0	0	352	0.2	351	352	8.3	99.6
2025-10-20T03:30	10	0	0.1	0	0	352	0.2	351	352	8.3	99.7
2025-10-20T03:31	10	0	0.1	0	0	352	0.2	351	352	8.3	99.5
2025-10-20T03:32	10	0	0.1	0	0	352	0.2	351	352	8.2	99.6
2025-10-20T03:33	10	0	0.1	0	0	352	0.2	351	352	8.2	99.8
2025-10-20T03:34	10	0	0.1	0	0	352	0.2	351	352	8.2	99.9
2025-10-20T03:35	10	0	0.1	0	0	352	0.2	351	352	8.2	100.0
2025-10-20T03:36	10	0	0.1	0	0	352	0.2	352	353	8.3	99.9
2025-10-20T03:37	10	0	0.1	0	0	352	0.2	352	353	8.3	99.7
2025-10-20T03:38	10	0	0.1	0	0	352	0.2	352	353	8.3	100.0
2025-10-20T03:39	10	0	0.1	0	0	352	0.2	352	353	8.3	99.9
2025-10-20T03:40	10	0	0.1	0	0	352	0.2	352	353	8.3	99.4
2025-10-20T03:41	10	0	0.1	0	0	352	0.2	352	352	8.2	99.6
2025-10-20T03:42	10	0	0.1	0	0	352	0.2	352	353	8.2	99.9
2025-10-20T03:43	10	0	0.1	0	0	352	0.2	352	353	8.2	99.9
2025-10-20T03:44	10	0	0.1	0	0	352	0.2	352	353	8.2	100.0
2025-10-20T03:45	10	0	0.1	0	0	352	0.2	352	352	8.2	100.0
2025-10-20T03:46	10	0	0.1	0	0	352	0.2	352	353	8.3	99.6
2025-10-20T03:47	10	0	0.1	0	0	352	0.2	352	353	8.3	99.6
2025-10-20T03:48	10	0	0.1	0	0	352	0.2	352	353	8.4	99.8
2025-10-20T03:49	10	0	0.1	0	0	352	0.2	352	353	8.4	100.0
2025-10-20T03:50	10	0	0.1	0	0	352	0.2	352	353	8.4	100.1
2025-10-20T03:51	10	0	0.1	0	0	352	0.2	352	353	8.4	100.1
2025-10-20T03:52	10	0	0.1	0	0	352	0.2	352	353	8.4	99.8
2025-10-20T03:53	10	0	0.1	0	0	353	0.2	352	353	8.4	99.9
2025-10-20T03:54	10	0	0.1	0	0	353	0.2	352	353	8.4	100.1
2025-10-20T03:55	10	0	0.1	0	0	353	0.2	352	353	8.5	100.2
2025-10-20T03:56	10	0	0.1	0	0	353	0.2	352	353	8.5	100.1
2025-10-20T03:57	10	0	0.1	0	0	353	0.2	352	353	8.5	99.9
2025-10-20T03:58	10	0	0.1	0	0	353	0.2	353	354	8.6	99.6
2025-10-20T03:59	10	0	0.1	0	0	353	0.2	352	354	8.6	99.2
2025-10-20T04:00	10	0	0.1	0	1	353	0.2	352	354	8.7	99.3
2025-10-20T04:01	10	0	0.1	0	0	353	0.2	353	354	8.7	99.4
2025-10-20T04:02	10	0	0.1	0	0	353	0.2	352	353	8.7	99.2
2025-10-20T04:03	10	0	0.1	0	0	353	0.2	353	353	8.7	99.3
2025-10-20T04:04	10	0	0.1	0	0	353	0.2	353	354	8.7	99.7
2025-10-20T04:05	10	0	0.1	0	0	353	0.2	352	354	8.7	99.6
2025-10-20T04:06	10	0	0.1	0	0	353	0.3	352	353	8.7	99.3
2025-10-20T04:07	10	0	0.1	0	0	353	0.2	352	354	8.7	99.0
2025-10-20T04:08	10	0	0.1	0	0	353	0.3	353	354	8.8	98.9
2025-10-20T04:09	10	0	0.1	0	0	353	0.2	353	354	8.9	99.0
2025-10-20T04:10	10	0	0.1	0	0	353	0.2	353	354	8.9	99.1
2025-10-20T04:11	10	0	0.1	0	0	354	0.2	353	354	8.9	99.3
2025-10-20T04:12	10	0	0.1	0	0	353	0.3	353	354	8.9	99.4
2025-10-20T04:13	10	0	0.1	0	0	353	0.2	353	354	8.9	99.5
2025-10-20T04:14	10	0	0.1	0	0	354	0.2	353	354	8.9	99.5
2025-10-20T04:15	10	0	0.1	0	0	353	0.3	353	354	8.9	99.0
2025-10-20T04:16	10	0	0.1	0	0	354	0.2	353	354	8.9	99.4
2025-10-20T04:17	10	0	0.1	0	0	354	0.3	353	354	8.9	99.3
2025-10-20T04:18	10	0	0.1	0	1	354	0.2	353	354	8.8	99.0
2025-10-20T04:19	10	0	0.1	0	0	354	0.3	353	355	8.8	98.9
2025-10-20T04:20	10	0	0.1	0	0	353	0.2	353	354	8.7	99.1
2025-10-20T04:21	10	0	0.1	0	0	353	0.2	353	354	8.7	99.1
2025-10-20T04:22	10	0	0.1	0	0	354	0.2	353	354	8.7	99.3
2025-10-20T04:23	10	0	0.1	0	0	354	0.2	353	354	8.7	99.3
2025-10-20T04:24	10	0	0.1	0	0	353	0.2	353	354	8.7	99.3
2025-10-20T04:25	10	0	0.1	0	0	353	0.2	353	354	8.7	99.3
2025-10-20T04:26	10	0	0.1	0	0	353	0.2	353	354	8.7	99.4
2025-10-20T04:27	10	0	0.1	0	0	353	0.2	353	354	8.7	99.6
2025-10-20T04:28	10	0	0.1	0	0	353	0.3	353	354	8.7	99.7
2025-10-20T04:29	10	0	0.1	0	0	353	0.2	353	354	8.7	99.7
2025-10-20T04:30	10	0	0.1	0	0	353	0.2	353	354	8.7	99.6
2025-10-20T04:31	10	0	0.0	0	0	353	0.2	353	354	8.7	99.6
2025-10-20T04:32	10	0	0.1	0	0	353	0.2	353	354	8.7	99.4
2025-10-20T04:33	10	0	0.1	0	0	353	0.2	353	354	8.8	99.2
2025-10-20T04:34	10	0	0.1	0	0	353	0.2	353	354	8.8	99.4
2025-10-20T04:35	10	0	0.1	0	0	353	0.2	353	354	8.8	99.5
2025-10-20T04:36	10	0	0.1	0	0	353	0.2	353	354	8.7	99.5
2025-10-20T04:37	10	0	0.1	0	0	353	0.2	353	354	8.8	99.6
2025-10-20T04:38	10	0	0.1	0	0	353	0.2	353	354	8.8	99.6
2025-10-20T04:39	10	0	0.1	0	0	353	0.2	353	354	8.8	99.4
2025-10-20T04:40	10	0	0.1	0	1	353	0.2	353	354	8.9	99.5
2025-10-20T04:41	10	0	0.2	0	0	353	0.2	353	354	8.9	99.6
2025-10-20T04:42	10	0	0.1	0	0	353	0.2	353	354	9.1	99.3
2025-10-20T04:43	10	0	0.1	0	0	353	0.2	353	354	9.1	99.6
2025-10-20T04:44	10	0	0.1	0	0	353	0.2	353	354	9.1	99.6
2025-10-20T04:45	10	0	0.1	0	1	353	0.2	353	354	9.1	99.4
2025-10-20T04:46	10	0	0.1	0	0	353	0.2	353	354	9.1	99.4
2025-10-20T04:47	10	0	0.1	0	0	353	0.2	353	354	9.1	99.4
2025-10-20T04:48	10	0	0.1	0	1	353	0.2	353	354	9.0	99.4
2025-10-20T04:49	10	0	0.1	0	1	353	0.3	352	354	9.0	99.4
2025-10-20T04:50	10	0	0.1	0	0	353	0.2	353	354	9.0	99.4
2025-10-20T04:51	10	0	0.1	0	0	354	0.2	353	354	9.1	99.1
2025-10-20T04:52	10	0	0.1	0	1	354	0.2	353	354	9.3	98.9
2025-10-20T04:53	10	0	0.1	0	0	354	0.2	354	355	9.4	99.0
2025-10-20T04:54	10	0	0.1	0	0	354	0.2	353	355	9.4	99.1
2025-10-20T04:55	10	0	0.1	0	0	354	0.2	354	355	9.4	99.1
2025-10-20T04:56	10	0	0.1	0	0	354	0.3	354	355	9.4	99.2
2025-10-20T04:57	10	0	0.1	0	1	354	0.3	353	355	9.4	99.6
2025-10-20T04:58	10	0	0.1	0	1	354	0.3	353	355	9.2	99.2
2025-10-20T04:59	10	0	0.1	0	0	354	0.2	354	355	9.1	99.0
2025-10-20T05:00	10	0	0.1	0	0	354	0.2	354	355	9.1	99.2
2025-10-20T05:01	10	0	0.1	0	1	354	0.3	353	355	9.0	99.1
2025-10-20T05:02	10	0	0.1	0	1	354	0.2	354	355	9.0	99.2
2025-10-20T05:03	10	0	0.1	0	0	354	0.2	354	355	9.0	99.3
2025-10-20T05:04	10	0	0.1	0	0	354	0.2	354	355	9.0	99.2
2025-10-20T05:05	10	0	0.1	0	1	354	0.2	354	355	9.0	99.1
2025-10-20T05:06	10	0	0.1	0	0	354	0.3	354	355	9.0	99.2
2025-10-20T05:07	10	0	0.1	0	0	354	0.2	354	355	9.1	99.1
2025-10-20T05:08	10	0	0.2	0	0	354	0.3	354	355	9.1	99.5
2025-10-20T05:09	10	0	0.1	0	0	354	0.2	354	355	9.0	99.6
2025-10-20T05:10	10	0	0.1	0	0	354	0.2	354	355	9.1	99.4
2025-10-20T05:11	10	0	0.1	0	0	355	0.2	354	355	9.1	99.7
2025-10-20T05:12	10	0	0.1	0	0	355	0.2	354	355	9.1	99.4
2025-10-20T05:13	10	0	0.1	0	0	355	0.2	354	355	9.0	99.2
2025-10-20T05:14	10	0	0.1	0	0	355	0.2	354	355	9.1	99.1
2025-10-20T05:15	10	0	0.1	0	0	355	0.3	354	355	9.0	99.2
2025-10-20T05:16	10	0	0.2	0	1	355	0.3	354	355	9.0	99.2
2025-10-20T05:17	10	0	0.1	0	1	354	0.3	353	355	8.9	99.4
2025-10-20T05:18	10	0	0.1	0	0	354	0.3	353	355	8.7	99.6
2025-10-20T05:19	10	0	0.2	0	0	353	0.3	353	354	8.7	99.8
2025-10-20T05:20	10	0	0.1	0	0	353	0.3	353	354	8.7	100.1
2025-10-20T05:21	10	0	0.2	0	1	354	0.3	353	354	8.6	100.3
2025-10-20T05:22	10	0	0.1	0	0	353	0.2	353	354	8.6	100.4
2025-10-20T05:23	10	0	0.1	0	0	353	0.2	353	354	8.6	100.5
2025-10-20T05:24	10	0	0.1	0	0	353	0.2	353	354	8.6	101.9
2025-10-20T05:25	10	0	0.1	0	0	353	0.3	353	354	8.6	102.0
2025-10-20T05:26	10	0	0.1	0	1	353	0.3	352	354	8.6	101.6
2025-10-20T05:27	10	0	0.1	0	0	353	0.2	353	354	8.6	101.0
2025-10-20T05:28	10	0	0.1	0	0	353	0.2	352	353	8.6	100.5
2025-10-20T05:29	10	0	0.1	0	0	353	0.2	353	354	8.7	100.5
2025-10-20T05:30	10	0	0.1	0	0	353	0.2	353	354	8.7	100.6
2025-10-20T05:31	10	0	0.1	0	0	353	0.2	353	354	8.8	100.4
2025-10-20T05:32	10	0	0.1	0	0	353	0.2	353	354	8.8	100.3
2025-10-20T05:33	10	0	0.1	0	0	353	0.2	353	354	8.9	100.1
2025-10-20T05:34	10	0	0.1	0	0	353	0.2	353	354	8.9	99.9
2025-10-20T05:35	10	0	0.1	0	1	353	0.2	353	354	8.9	100.0
2025-10-20T05:36	10	0	0.2	0	1	353	0.3	352	354	8.9	100.2
2025-10-20T05:37	10	0	0.1	0	0	353	0.3	353	354	8.8	100.2
2025-10-20T05:38	10	0	0.2	0	1	353	0.3	353	354	8.8	100.2
2025-10-20T05:39	10	0	0.2	0	1	353	0.2	353	354	8.8	100.1
2025-10-20T05:40	10	0	0.1	0	0	353	0.2	353	354	8.9	100.3
2025-10-20T05:41	10	0	0.2	0	1	353	0.2	353	354	8.9	100.9
2025-10-20T05:42	10	0	0.1	0	1	353	0.3	353	354	8.9	101.1
2025-10-20T05:43	10	0	0.1	0	1	354	0.3	353	354	8.9	100.9
2025-10-20T05:44	10	0	0.1	0	0	354	0.2	353	354	8.9	100.8
2025-10-20T05:45	10	0	0.2	0	1	354	0.2	353	354	8.8	100.6
2025-10-20T05:46	10	0	0.1	0	0	354	0.3	353	354	8.8	100.5
2025-10-20T05:47	10	0	0.1	0	0	354	0.2	353	354	8.8	100.5
2025-10-20T05:48	10	0	0.1	0	0	354	0.2	353	354	8.8	100.6
2025-10-20T05:49	10	0	0.1	0	0	354	0.2	353	354	8.8	100.7
2025-10-20T05:50	10	0	0.2	0	0	354	0.3	353	354	8.8	100.6
2025-10-20T05:51	10	0	0.1	0	1	353	0.3	353	354	8.8	100.6
2025-10-20T05:52	10	0	0.1	0	0	354	0.2	353	354	8.8	100.5
2025-10-20T05:53	10	0	0.2	0	1	354	0.3	353	354	8.8	100.7
2025-10-20T05:54	10	0	0.1	0	0	354	0.2	353	354	8.7	100.5
2025-10-20T05:55	10	0	0.1	0	0	354	0.3	353	354	8.7	100.4
2025-10-20T05:56	10	0	0.1	0	1	353	0.3	352	354	8.8	100.6
2025-10-20T05:57	10	0	0.1	0	0	353	0.3	353	354	8.8	100.9
2025-10-20T05:58	10	0	0.1	0	1	353	0.3	353	354	8.8	100.8
2025-10-20T05:59	10	0	0.1	0	1	353	0.2	353	354	8.8	100.4
2025-10-20T06:00	10	0	0.1	0	1	353	0.2	353	354	8.8	99.9
2025-10-20T06:01	10	0	0.1	0	1	354	0.2	353	354	8.8	99.8
2025-10-20T06:02	10	0	0.1	0	1	354	0.3	353	354	8.8	99.9
2025-10-20T06:03	10	0	0.2	0	1	354	0.2	353	354	8.8	100.1
2025-10-20T06:04	10	0	0.2	0	1	353	0.3	353	354	8.7	100.3
2025-10-20T06:05	10	0	0.1	0	1	353	0.3	353	354	8.6	100.3
2025-10-20T06:06	10	0	0.2	0	1	353	0.2	353	354	8.6	100.4
2025-10-20T06:07	10	0	0.1	0	1	354	0.3	353	354	8.6	100.3
2025-10-20T06:08	10	0	0.1	0	1	354	0.2	353	354	8.6	100.3
2025-10-20T06:09	10	0	0.1	0	1	354	0.3	353	355	8.6	100.4
2025-10-20T06:10	10	0	0.1	0	1	354	0.2	353	354	8.6	100.5
2025-10-20T06:11	10	0	0.1	0	1	354	0.2	353	354	8.6	100.6
2025-10-20T06:12	10	1	0.1	0	1	354	0.2	353	354	8.6	100.6
2025-10-20T06:13	10	1	0.2	0	1	354	0.3	353	354	8.6	100.4
2025-10-20T06:14	10	1	0.1	0	1	354	0.2	353	354	8.6	100.5
2025-10-20T06:15	10	1	0.1	1	1	354	0.3	353	354	8.6	100.7
2025-10-20T06:16	10	1	0.2	1	1	354	0.2	353	354	8.6	100.7
2025-10-20T06:17	10	1	0.2	1	1	354	0.3	353	354	8.6	100.4
2025-10-20T06:18	10	1	0.2	1	1	354	0.3	353	354	8.6	100.4
2025-10-20T06:19	10	1	0.1	1	1	354	0.3	353	354	8.6	100.5
2025-10-20T06:20	10	1	0.2	0	1	354	0.3	353	355	8.6	100.5
2025-10-20T06:21	10	1	0.1	1	1	354	0.2	353	354	8.6	100.7
2025-10-20T06:22	10	1	0.2	1	1	354	0.3	353	354	8.6	100.8
2025-10-20T06:23	10	1	0.1	1	2	354	0.2	354	355	8.6	101.2
2025-10-20T06:24	10	1	0.1	1	1	354	0.2	354	355	8.6	101.4
2025-10-20T06:25	10	1	0.2	1	1	354	0.2	354	355	8.6	100.9
2025-10-20T06:26	10	1	0.1	1	1	354	0.3	354	355	8.6	100.8
2025-10-20T06:27	10	1	0.2	1	2	355	0.3	354	355	8.6	100.7
2025-10-20T06:28	10	1	0.2	1	2	354	0.3	353	355	8.6	100.8
2025-10-20T06:29	10	1	0.2	1	2	354	0.3	354	355	8.6	100.9
2025-10-20T06:30	10	2	0.2	1	2	354	0.3	354	355	8.6	100.8
2025-10-20T06:31	10	2	0.1	1	2	355	0.2	354	355	8.6	100.6
2025-10-20T06:32	10	2	0.2	1	2	354	0.3	354	355	8.6	100.8
2025-10-20T06:33	10	2	0.2	2	2	354	0.2	354	355	8.6	100.8
2025-10-20T06:34	10	2	0.2	2	3	355	0.3	354	355	8.6	101.0
2025-10-20T06:35	10	2	0.1	2	3	355	0.3	354	355	8.6	101.1
2025-10-20T06:36	10	2	0.2	2	3	354	0.3	354	355	8.6	101.1
2025-10-20T06:37	10	3	0.2	2	3	355	0.3	354	356	8.6	101.5
2025-10-20T06:38	10	3	0.1	3	3	355	0.3	354	355	8.6	101.1
2025-10-20T06:39	10	3	0.2	3	4	355	0.3	354	355	8.6	100.6
2025-10-20T06:40	10	3	0.2	3	4	355	0.3	354	355	8.6	100.5
2025-10-20T06:41	10	4	0.1	3	4	355	0.3	354	356	8.6	100.6
2025-10-20T06:42	10	4	0.2	3	4	355	0.2	354	355	8.6	100.8
2025-10-20T06:43	10	4	0.1	3	4	355	0.3	354	356	8.6	100.9
2025-10-20T06:44	10	4	0.2	3	4	355	0.3	354	356	8.6	100.8
2025-10-20T06:45	10	4	0.1	3	4	355	0.2	355	356	8.6	100.3
2025-10-20T06:46	10	4	0.1	3	4	355	0.3	354	356	8.6	100.3
2025-10-20T06:47	10	4	0.1	3	4	355	0.3	354	356	8.6	100.2
2025-10-20T06:48	10	4	0.1	3	4	355	0.3	354	356	8.6	100.3
2025-10-20T06:49	10	4	0.2	3	4	355	0.2	354	355	8.6	100.5
2025-10-20T06:50	10	4	0.2	3	4	355	0.3	354	356	8.6	100.6
2025-10-20T06:51	10	4	0.1	3	4	355	0.3	354	356	8.6	100.6
2025-10-20T06:52	10	3	0.1	3	4	355	0.2	354	356	8.6	100.4
2025-10-20T06:53	10	3	0.1	3	4	355	0.2	354	356	8.6	100.4
2025-10-20T06:54	10	3	0.2	3	4	355	0.4	354	356	8.6	100.4
2025-10-20T06:55	10	3	0.2	3	4	355	0.2	355	356	8.6	100.4
2025-10-20T06:56	10	3	0.2	3	4	355	0.2	355	355	8.7	100.6
2025-10-20T06:57	10	3	0.2	3	4	355	0.3	355	357	8.7	100.6
2025-10-20T06:58	10	4	0.2	3	4	355	0.2	355	356	8.7	100.6
2025-10-20T06:59	10	4	0.2	3	4	355	0.3	355	356	8.7	100.6
2025-10-20T07:00	10	4	0.2	3	4	355	0.2	355	356	8.7	100.6
2025-10-20T07:01	10	4	0.2	3	4	356	0.2	355	356	8.7	100.6
2025-10-20T07:02	10	4	0.1	4	4	356	0.3	355	356	8.7	100.6
2025-10-20T07:03	10	4	0.2	3	4	356	0.2	355	356	8.7	100.6
2025-10-20T07:04	10	4	0.1	4	4	356	0.3	355	356	8.7	99.4
2025-10-20T07:05	10	4	0.1	4	4	356	0.2	355	356	8.8	98.5
2025-10-20T07:06	10	4	0.2	4	5	356	0.3	355	357	8.8	99.4
2025-10-20T07:07	10	4	0.1	4	5	356	0.3	355	356	8.8	99.9
2025-10-20T07:08	10	4	0.1	4	5	356	0.2	356	357	8.8	100.2
2025-10-20T07:09	10	5	0.2	4	5	356	0.2	356	357	8.8	100.3
2025-10-20T07:10	10	5	0.1	4	5	357	0.2	356	357	8.9	100.3
2025-10-20T07:11	10	5	0.1	5	6	357	0.2	356	357	8.9	100.4
2025-10-20T07:12	10	5	0.2	5	6	357	0.2	356	357	8.9	100.4
2025-10-20T07:13	10	5	0.2	5	6	357	0.3	356	357	8.9	100.4
2025-10-20T07:14	10	5	0.2	5	6	357	0.3	356	358	8.9	100.9
2025-10-20T07:15	10	6	0.1	5	6	357	0.3	356	358	8.9	101.0
2025-10-20T07:16	10	6	0.2	5	6	357	0.3	356	357	8.9	100.8
2025-10-20T07:17	10	6	0.2	6	6	357	0.2	357	358	8.9	100.7
2025-10-20T07:18	10	6	0.2	6	6	357	0.3	357	358	8.9	100.6
2025-10-20T07:19	10	6	0.1	6	6	357	0.3	356	358	8.9	100.8
2025-10-20T07:20	10	6	0.1	6	6	357	0.3	356	358	8.9	100.7
2025-10-20T07:21	10	6	0.1	6	6	357	0.3	356	358	8.9	100.7
2025-10-20T07:22	10	6	0.1	6	6	357	0.2	356	357	8.9	100.7
2025-10-20T07:23	10	6	0.2	6	7	357	0.3	356	358	8.9	100.8
2025-10-20T07:24	10	6	0.2	6	7	357	0.3	356	357	8.9	100.8
2025-10-20T07:25	10	7	0.1	6	7	357	0.2	356	357	8.9	100.8
2025-10-20T07:26	10	7	0.2	6	7	357	0.2	356	357	8.9	100.8
2025-10-20T07:27	10	7	0.1	7	7	357	0.2	356	357	8.8	100.8
2025-10-20T07:28	10	7	0.2	7	8	357	0.2	356	357	8.8	100.7
2025-10-20T07:29	10	8	0.2	8	9	357	0.2	357	358	8.9	100.8
2025-10-20T07:30	10	9	0.3	8	9	357	0.3	356	358	8.9	100.7
2025-10-20T07:31	10	9	0.2	9	10	358	0.3	357	359	8.9	100.7
2025-10-20T07:32	10	10	0.2	9	10	358	0.3	357	358	8.9	101.0
2025-10-20T07:33	10	10	0.3	10	11	358	0.3	358	359	8.9	101.2
2025-10-20T07:34	10	11	0.2	11	11	359	0.3	358	359	9.0	101.0
2025-10-20T07:35	10	11	0.2	11	12	359	0.3	358	359	9.0	100.8
2025-10-20T07:36	10	12	0.2	11	12	359	0.2	358	359	9.0	100.7
2025-10-20T07:37	10	11	0.2	11	12	359	0.3	358	360	9.0	100.8
2025-10-20T07:38	10	11	0.2	11	12	359	0.2	358	360	9.0	100.6
2025-10-20T07:39	10	11	0.2	11	12	359	0.3	358	360	9.0	100.4
2025-10-20T07:40	10	11	0.2	10	11	359	0.3	359	360	9.0	100.6
2025-10-20T07:41	10	11	0.2	10	11	359	0.3	359	360	9.0	100.7
2025-10-20T07:42	10	10	0.2	10	11	359	0.3	359	360	9.0	100.8
2025-10-20T07:43	10	10	0.2	10	10	360	0.2	359	360	9.1	100.6
2025-10-20T07:44	10	10	0.1	10	10	360	0.2	359	360	9.1	100.2
2025-10-20T07:45	10	10	0.2	10	10	360	0.3	359	360	9.1	100.1
2025-10-20T07:46	10	10	0.2	9	10	360	0.3	359	361	9.1	100.2
2025-10-20T07:47	10	10	0.1	9	10	360	0.3	359	360	9.2	100.2
2025-10-20T07:48	10	10	0.1	9	10	360	0.3	360	361	9.2	100.2
2025-10-20T07:49	10	10	0.1	9	10	360	0.2	360	361	9.3	100.1
2025-10-20T07:50	10	10	0.1	9	10	361	0.3	360	361	9.3	99.9
2025-10-20T07:51	10	10	0.1	9	10	361	0.3	360	362	9.4	99.6
2025-10-20T07:52	10	9	0.2	9	10	361	0.3	360	361	9.4	99.6
2025-10-20T07:53	10	9	0.1	9	9	361	0.2	361	362	9.6	99.1
2025-10-20T07:54	10	9	0.1	9	9	361	0.2	361	362	9.6	99.0
2025-10-20T07:55	10	9	0.2	9	10	361	0.3	361	362	9.7	98.4
2025-10-20T07:56	10	9	0.2	9	9	362	0.2	361	362	9.7	98.7
2025-10-20T07:57	10	8	0.2	8	9	361	0.2	361	362	9.6	99.0
2025-10-20T07:58	10	8	0.2	8	8	361	0.3	360	362	9.6	99.1
2025-10-20T07:59	10	8	0.2	7	8	361	0.3	360	361	9.5	99.1
2025-10-20T08:00	10	7	0.2	7	8	361	0.3	360	361	9.5	99.2
2025-10-20T08:01	10	7	0.2	7	8	361	0.2	360	361	9.5	99.3
2025-10-20T08:02	10	7	0.1	7	8	360	0.2	360	361	9.5	99.6
2025-10-20T08:03	10	7	0.1	7	8	360	0.2	360	361	9.5	99.8
2025-10-20T08:04	10	7	0.1	7	7	360	0.2	360	361	9.5	99.7
2025-10-20T08:05	10	7	0.1	7	7	360	0.2	360	361	9.5	99.6
2025-10-20T08:06	10	7	0.1	7	7	360	0.2	360	361	9.5	99.6
2025-10-20T08:07	10	7	0.1	6	7	360	0.3	359	361	9.5	99.7
2025-10-20T08:08	10	6	0.1	6	7	360	0.2	360	360	9.5	99.6
2025-10-20T08:09	10	7	0.1	6	7	360	0.2	360	361	9.5	99.7
2025-10-20T08:10	10	7	0.1	7	7	360	0.2	360	361	9.5	99.6
2025-10-20T08:11	10	7	0.1	7	7	360	0.2	360	361	9.5	99.5
2025-10-20T08:12	10	7	0.1	7	7	360	0.2	360	361	9.5	99.5
2025-10-20T08:13	10	7	0.1	7	7	360	0.2	360	361	9.5	99.5
2025-10-20T08:14	10	7	0.1	7	7	360	0.2	360	361	9.5	99.3
2025-10-20T08:15	10	7	0.0	7	7	360	0.2	360	361	9.5	99.1
2025-10-20T08:16	10	7	0.1	7	7	361	0.2	360	361	9.6	99.2
2025-10-20T08:17	10	7	0.1	7	7	361	0.2	360	362	9.7	99.3
2025-10-20T08:18	10	7	0.1	7	8	361	0.2	361	361	9.7	99.6
2025-10-20T08:19	10	8	0.1	7	8	361	0.2	361	362	9.7	99.3
2025-10-20T08:20	10	8	0.1	7	8	362	0.2	361	362	9.8	99.2
2025-10-20T08:21	10	8	0.1	7	8	362	0.2	361	362	9.9	98.8
2025-10-20T08:22	10	8	0.1	8	8	362	0.2	361	362	9.9	98.5
2025-10-20T08:23	10	8	0.1	8	8	361	0.3	361	362	9.9	98.7
2025-10-20T08:24	10	8	0.1	8	8	361	0.3	361	362	9.8	99.2
2025-10-20T08:25	10	8	0.1	8	8	361	0.2	361	362	9.8	99.5
2025-10-20T08:26	10	8	0.1	8	8	361	0.2	361	362	9.7	99.7
2025-10-20T08:27	10	8	0.1	8	9	362	0.2	361	362	9.8	100.0
2025-10-20T08:28	10	8	0.1	8	8	362	0.2	361	362	9.8	99.8
2025-10-20T08:29	10	8	0.1	8	8	362	0.2	361	362	9.8	99.6
2025-10-20T08:30	10	8	0.1	8	8	362	0.2	361	362	9.8	99.4
2025-10-20T08:31	10	8	0.1	8	8	362	0.2	361	362	9.8	99.5
2025-10-20T08:32	10	8	0.1	8	8	362	0.2	361	362	9.8	99.6
2025-10-20T08:33	10	8	0.1	8	8	362	0.2	362	363	9.8	99.6
2025-10-20T08:34	10	8	0.1	8	8	362	0.2	362	362	9.8	99.7
2025-10-20T08:35	10	8	0.1	8	8	362	0.2	362	363	9.8	99.9
2025-10-20T08:36	10	8	0.1	8	8	362	0.2	362	363	9.8	100.0
2025-10-20T08:37	10	8	0.1	8	8	362	0.2	362	363	9.8	99.8
2025-10-20T08:38	10	8	0.2	8	8	363	0.2	362	363	9.9	99.3
2025-10-20T08:39	10	9	0.3	8	9	362	0.2	362	363	9.9	99.4
2025-10-20T08:40	10	10	0.1	9	10	363	0.3	362	363	9.9	99.3
2025-10-20T08:41	10	10	0.1	10	10	363	0.2	362	363	9.9	99.5
2025-10-20T08:42	10	10	0.1	10	10	363	0.2	362	363	9.9	99.9
2025-10-20T08:43	10	10	0.1	10	10	363	0.2	363	363	9.9	100.0
2025-10-20T08:44	10	10	0.1	10	11	363	0.2	363	364	9.9	99.8
2025-10-20T08:45	10	10	0.1	10	10	363	0.2	363	364	9.9	99.8
2025-10-20T08:46	10	10	0.1	10	10	363	0.2	362	364	9.9	99.8
2025-10-20T08:47	10	10	0.1	10	10	363	0.3	362	363	9.8	99.7
2025-10-20T08:48	10	10	0.1	10	10	363	0.2	363	363	9.8	99.7
2025-10-20T08:49	10	10	0.1	10	11	363	0.3	362	363	9.7	99.9
2025-10-20T08:50	10	11	0.1	11	11	363	0.2	362	363	9.8	99.9
2025-10-20T08:51	10	11	0.1	10	11	363	0.3	362	364	9.8	100.1
2025-10-20T08:52	10	10	0.1	10	11	363	0.2	363	364	9.8	100.3
2025-10-20T08:53	10	10	0.1	10	10	363	0.2	363	364	9.8	100.6
2025-10-20T08:54	10	10	0.1	10	10	364	0.2	363	364	9.9	101.0
2025-10-20T08:55	10	10	0.1	10	11	364	0.2	363	364	9.9	101.3
2025-10-20T08:56	10	10	0.1	10	11	364	0.2	363	364	9.9	100.6
2025-10-20T08:57	10	11	0.1	11	11	364	0.2	364	365	9.9	100.9
2025-10-20T08:58	10	11	0.1	10	11	364	0.2	364	365	10.0	100.3
2025-10-20T08:59	10	10	0.1	10	11	364	0.3	364	365	10.0	99.8
2025-10-20T09:00	10	11	0.2	10	11	364	0.2	363	365	10.0	100.1
2025-10-20T09:01	10	11	0.1	11	11	364	0.2	364	365	10.0	100.4
2025-10-20T09:02	10	11	0.2	10	11	364	0.2	364	365	10.0	99.6
2025-10-20T09:03	10	11	0.1	10	11	364	0.3	363	364	9.9	99.4
2025-10-20T09:04	10	11	0.1	11	11	363	0.2	363	364	9.8	99.4
2025-10-20T09:05	10	11	0.1	11	11	363	0.2	363	363	9.8	99.7
2025-10-20T09:06	10	11	0.1	11	11	363	0.2	363	364	9.9	99.9
2025-10-20T09:07	10	11	0.1	11	11	363	0.2	363	364	9.8	99.8
2025-10-20T09:08	10	11	0.1	11	11	364	0.3	363	364	9.9	100.0
2025-10-20T09:09	10	11	0.1	11	11	364	0.3	363	364	9.9	100.3
2025-10-20T09:10	10	11	0.1	11	11	364	0.2	363	364	9.9	100.2
2025-10-20T09:11	10	11	0.1	11	11	364	0.2	363	364	9.9	100.1
2025-10-20T09:12	10	11	0.1	11	11	364	0.2	363	364	9.8	99.9
2025-10-20T09:13	10	11	0.1	11	11	364	0.2	363	364	9.8	100.0
2025-10-20T09:14	10	11	0.1	11	11	363	0.3	363	364	9.8	99.9
2025-10-20T09:15	10	11	0.1	11	11	363	0.2	363	364	9.7	99.9
2025-10-20T09:16	10	11	0.2	11	11	363	0.2	363	364	9.8	99.9
2025-10-20T09:17	10	11	0.1	11	11	363	0.2	362	364	9.8	100.2
2025-10-20T09:18	10	11	0.1	11	11	363	0.2	363	364	9.7	100.2
2025-10-20T09:19	10	11	0.1	11	11	363	0.2	363	364	9.7	100.2
2025-10-20T09:20	10	11	0.2	11	12	363	0.2	363	363	9.7	100.1
2025-10-20T09:21	10	12	0.2	12	12	363	0.3	363	364	9.7	100.1
2025-10-20T09:22	10	12	0.1	12	13	364	0.3	363	364	9.7	100.1
2025-10-20T09:23	10	13	0.1	12	13	364	0.2	363	364	9.8	100.2
2025-10-20T09:24	10	13	0.1	13	13	364	0.3	363	365	9.8	100.1
2025-10-20T09:25	10	13	0.1	12	13	364	0.2	364	365	9.8	100.0
2025-10-20T09:26	10	12	0.2	12	13	364	0.2	364	365	9.8	100.0
2025-10-20T09:27	10	12	0.2	11	12	364	0.2	363	365	9.8	100.0
2025-10-20T09:28	10	11	0.1	11	11	364	0.2	364	365	9.8	100.0
2025-10-20T09:29	10	11	0.1	11	11	364	0.2	364	365	9.9	100.0
2025-10-20T09:30	10	11	0.1	11	11	364	0.2	364	365	9.9	100.0
2025-10-20T09:31	10	11	0.1	11	11	364	0.2	364	365	9.9	100.2
2025-10-20T09:32	10	11	0.1	11	12	364	0.2	364	365	9.9	100.2
2025-10-20T09:33	10	12	0.2	11	12	365	0.2	364	365	9.9	100.2
2025-10-20T09:34	10	12	0.2	12	13	365	0.2	364	365	9.9	99.9
2025-10-20T09:35	10	13	0.1	13	13	365	0.2	364	365	9.9	100.1
2025-10-20T09:36	10	13	0.1	13	13	365	0.3	364	365	10.0	100.2
2025-10-20T09:37	10	13	0.1	13	13	365	0.2	365	366	10.0	100.0
2025-10-20T09:38	10	13	0.2	13	14	365	0.2	365	366	10.0	100.1
2025-10-20T09:39	10	14	0.3	14	15	366	0.2	365	366	10.0	100.1
2025-10-20T09:40	10	15	0.3	15	16	366	0.2	365	366	10.0	100.2
2025-10-20T09:41	10	16	0.2	16	16	366	0.3	366	367	10.1	100.1
2025-10-20T09:42	10	16	0.1	16	17	367	0.3	366	367	10.1	100.5
2025-10-20T09:43	10	16	0.1	16	16	367	0.3	366	367	10.1	100.2
2025-10-20T09:44	10	16	0.1	16	16	367	0.2	366	367	10.1	100.0
2025-10-20T09:45	10	16	0.2	16	17	367	0.2	366	367	10.1	100.0
2025-10-20T09:46	10	17	0.2	16	17	367	0.2	366	367	10.1	100.2
2025-10-20T09:47	10	17	0.1	17	18	367	0.2	367	368	10.2	100.0
2025-10-20T09:48	10	18	0.4	18	19	368	0.2	367	368	10.2	99.6
2025-10-20T09:49	10	19	0.2	19	20	368	0.3	367	369	10.3	99.6
2025-10-20T09:50	10	19	0.3	18	19	368	0.2	368	369	10.3	99.3
2025-10-20T09:51	10	18	0.2	18	19	368	0.2	367	368	10.3	99.3
2025-10-20T09:52	10	18	0.2	18	18	368	0.2	367	368	10.3	99.0
2025-10-20T09:53	10	18	0.1	18	18	368	0.3	368	369	10.3	99.4
2025-10-20T09:54	10	18	0.1	18	18	368	0.2	368	369	10.4	99.3
2025-10-20T09:55	10	18	0.2	18	19	369	0.2	368	369	10.4	99.3
2025-10-20T09:56	10	19	0.3	18	19	369	0.2	369	369	10.4	98.8
2025-10-20T09:57	10	20	0.1	19	20	369	0.2	369	370	10.6	97.4
2025-10-20T09:58	10	20	0.1	20	20	369	0.3	369	370	10.7	96.9
2025-10-20T09:59	10	20	0.1	20	20	369	0.3	369	370	10.7	96.8
2025-10-20T10:00	10	20	0.1	20	20	370	0.3	369	370	10.7	96.9
2025-10-20T10:01	10	20	0.1	20	20	370	0.2	369	370	10.8	95.7
2025-10-20T10:02	10	20	0.1	20	20	370	0.2	369	371	10.8	95.7
2025-10-20T10:03	10	20	0.1	19	20	370	0.3	370	371	11.0	93.9
2025-10-20T10:04	10	20	0.1	19	20	370	0.3	369	371	11.1	92.0
2025-10-20T10:05	10	20	0.2	19	20	370	0.3	369	371	11.3	90.3
2025-10-20T10:06	10	21	0.3	20	21	370	0.3	369	371	11.4	88.9
2025-10-20T10:07	10	22	0.3	21	22	370	0.3	369	370	11.4	87.1
2025-10-20T10:08	10	23	0.5	22	24	370	0.3	370	371	11.4	87.7
2025-10-20T10:09	10	25	0.6	24	26	371	0.2	370	371	11.5	86.7
2025-10-20T10:10	10	27	0.5	26	28	371	0.4	370	371	11.6	84.8
2025-10-20T10:11	10	29	0.5	28	29	371	0.4	370	372	11.6	84.5
2025-10-20T10:12	10	30	0.4	29	31	372	0.3	371	372	11.6	84.7
2025-10-20T10:13	10	31	0.3	31	32	372	0.3	371	373	11.7	84.8
2025-10-20T10:14	10	32	0.3	32	33	373	0.2	372	373	11.7	85.0
2025-10-20T10:15	10	33	0.3	33	34	373	0.3	372	374	11.7	84.6
2025-10-20T10:16	10	34	0.2	34	35	374	0.4	373	375	11.8	84.6
2025-10-20T10:17	10	35	0.2	34	35	375	0.4	374	376	11.8	85.7
2025-10-20T10:18	10	35	0.1	35	36	374	0.2	374	375	11.8	84.1
2025-10-20T10:19	10	36	0.1	35	36	375	0.3	374	375	11.8	84.0
2025-10-20T10:20	10	36	0.2	36	36	376	0.2	375	376	11.8	85.4
2025-10-20T10:21	10	37	0.2	36	37	376	0.2	375	376	11.8	86.0
2025-10-20T10:22	10	38	0.2	37	38	376	0.3	375	377	11.8	84.9
2025-10-20T10:23	10	38	0.2	38	39	376	0.2	376	377	11.8	85.1
2025-10-20T10:24	10	39	0.2	39	39	377	0.3	376	377	11.8	84.7
2025-10-20T10:25	10	40	0.2	39	40	377	0.2	377	378	11.8	86.2
2025-10-20T10:26	10	40	0.3	40	41	377	0.2	377	378	11.8	85.7
2025-10-20T10:27	10	41	0.4	41	42	378	0.3	377	379	11.8	85.8
2025-10-20T10:28	10	43	0.6	42	44	379	0.2	378	379	11.8	86.5
2025-10-20T10:29	10	45	0.5	44	46	379	0.3	379	380	11.8	86.9
2025-10-20T10:30	10	46	0.4	46	47	380	0.3	379	381	11.8	87.4
2025-10-20T10:31	10	48	0.4	47	48	380	0.3	380	381	11.8	87.8
2025-10-20T10:32	10	49	0.7	48	50	381	0.3	380	382	11.9	88.3
2025-10-20T10:33	10	51	0.2	50	51	381	0.3	380	382	11.9	85.7
2025-10-20T10:34	10	53	0.2	52	53	381	0.3	380	382	11.9	85.4
2025-10-20T10:35	10	54	0.6	53	55	382	0.2	382	383	11.9	85.5
2025-10-20T10:36	10	55	0.4	55	56	382	0.2	382	383	12.0	85.6
2025-10-20T10:37	10	57	0.8	56	58	382	0.5	381	383	12.0	83.0
2025-10-20T10:38	10	59	1.3	58	62	381	0.4	381	382	12.0	82.7
2025-10-20T10:39	10	65	0.7	63	66	382	0.8	380	383	12.0	83.7
2025-10-20T10:40	10	65	0.2	65	66	383	0.3	383	384	12.1	85.4
2025-10-20T10:41	10	65	0.3	65	66	383	0.3	382	384	12.0	84.1
2025-10-20T10:42	10	66	0.5	65	66	383	0.6	382	384	12.0	84.1
2025-10-20T10:43	10	64	1.4	62	66	383	0.3	382	384	12.0	84.2
2025-10-20T10:44	10	59	1.1	58	61	383	0.8	381	384	12.1	85.0
2025-10-20T10:45	10	56	1.0	55	58	382	0.2	382	383	12.1	85.1
2025-10-20T10:46	10	54	0.7	53	55	382	0.4	381	383	12.1	86.0
2025-10-20T10:47	10	52	0.4	51	53	382	0.2	381	382	12.1	86.2
2025-10-20T10:48	10	51	0.4	50	51	382	0.3	382	383	12.2	87.3
2025-10-20T10:49	10	49	0.4	48	49	383	0.4	382	383	12.2	87.4
2025-10-20T10:50	10	48	0.1	48	48	383	0.2	382	383	12.1	86.7
2025-10-20T10:51	10	49	0.3	48	49	383	0.6	382	384	12.2	86.2
2025-10-20T10:52	10	51	0.3	50	51	381	0.5	380	383	12.2	85.2
2025-10-20T10:53	10	51	0.1	50	51	381	0.3	380	382	12.2	85.4
2025-10-20T10:54	10	50	0.5	49	51	381	0.3	380	382	12.2	85.0
2025-10-20T10:55	10	48	0.7	47	49	380	0.4	380	381	12.2	85.2
2025-10-20T10:56	10	46	0.6	45	47	380	0.3	379	381	12.2	85.2
2025-10-20T10:57	10	44	0.5	43	45	380	0.3	379	381	12.2	85.0
2025-10-20T10:58	10	42	0.4	41	43	380	0.3	379	381	12.2	85.8
2025-10-20T10:59	10	41	0.5	40	42	380	0.3	380	381	12.2	84.5
2025-10-20T11:00	10	39	0.4	38	40	381	0.3	380	381	12.3	85.3
2025-10-20T11:01	10	38	0.4	37	38	380	0.3	380	381	12.3	85.5
2025-10-20T11:02	10	36	0.4	36	37	381	0.3	380	381	12.3	85.3
2025-10-20T11:03	10	35	0.5	34	36	379	0.7	379	381	12.3	83.9
2025-10-20T11:04	10	34	0.5	33	34	379	0.3	379	380	12.3	84.9
2025-10-20T11:05	10	32	0.2	32	33	379	0.3	378	380	12.3	84.3
2025-10-20T11:06	10	32	0.2	31	32	379	0.2	378	379	12.3	84.5
2025-10-20T11:07	10	31	0.1	31	31	379	0.2	378	379	12.3	83.6
2025-10-20T11:08	10	31	0.1	31	31	379	0.2	378	379	12.3	84.2
2025-10-20T11:09	10	31	0.1	31	31	379	0.2	378	379	12.3	85.5
2025-10-20T11:10	10	31	0.2	31	32	379	0.2	378	379	12.3	85.9
2025-10-20T11:11	10	32	0.2	32	33	379	0.3	379	380	12.3	86.1
2025-10-20T11:12	10	33	0.2	32	33	379	0.2	378	380	12.3	85.2
2025-10-20T11:13	10	34	0.5	33	34	379	0.2	378	379	12.4	83.9
2025-10-20T11:14	10	36	0.6	35	37	380	0.2	379	380	12.4	83.7
2025-10-20T11:15	10	38	0.5	37	38	380	0.3	379	381	12.4	83.6
2025-10-20T11:16	10	39	0.2	38	39	381	0.3	380	382	12.4	84.1
2025-10-20T11:17	10	39	0.1	39	39	381	0.3	380	382	12.4	84.8
2025-10-20T11:18	10	39	0.1	39	39	381	0.2	381	382	12.4	85.1
2025-10-20T11:19	10	38	0.1	38	39	381	0.3	381	382	12.5	85.6
2025-10-20T11:20	10	38	0.1	38	39	381	0.4	380	382	12.4	85.2
2025-10-20T11:21	10	39	0.4	39	40	381	0.4	380	382	12.4	85.4
2025-10-20T11:22	10	41	0.6	40	42	381	0.3	380	382	12.6	81.7
2025-10-20T11:23	10	43	0.5	42	44	381	0.5	380	382	12.7	80.9
2025-10-20T11:24	10	44	0.5	44	45	382	0.7	381	383	12.8	82.8
2025-10-20T11:25	10	46	0.8	45	48	383	0.3	383	384	12.9	81.9
2025-10-20T11:26	10	51	0.9	48	51	384	0.3	383	384	12.9	79.8
2025-10-20T11:27	10	51	0.2	51	51	382	0.5	381	384	13.0	76.2
2025-10-20T11:28	10	50	0.3	50	51	382	0.3	381	383	13.1	75.1
2025-10-20T11:29	10	50	0.1	49	50	382	0.3	382	383	13.0	77.0
2025-10-20T11:30	10	49	0.1	49	50	383	0.4	382	384	13.1	76.8
2025-10-20T11:31	10	49	0.3	48	49	382	0.4	381	383	13.1	75.8
2025-10-20T11:32	10	47	0.7	46	48	382	0.2	381	382	13.1	76.3
2025-10-20T11:33	10	45	0.8	43	46	382	0.3	382	383	13.1	78.1
2025-10-20T11:34	10	43	0.4	42	43	382	0.3	381	383	13.1	76.1
2025-10-20T11:35	10	41	0.4	41	42	382	0.3	381	382	13.1	76.0
2025-10-20T11:36	10	39	1.2	37	40	381	0.7	379	382	13.1	76.1
2025-10-20T11:37	10	34	1.3	32	36	380	0.3	380	381	13.0	77.0
2025-10-20T11:38	10	31	0.6	30	32	380	0.6	379	381	13.0	77.2
2025-10-20T11:39	10	30	0.2	30	31	379	0.3	378	379	13.0	76.4
2025-10-20T11:40	10	31	0.3	30	31	379	0.2	378	379	13.0	76.8
2025-10-20T11:41	10	32	0.1	31	32	378	0.3	378	379	13.0	75.6
2025-10-20T11:42	10	32	0.1	31	32	379	0.4	378	380	13.0	77.6
2025-10-20T11:43	10	31	0.1	31	31	378	0.6	377	379	12.9	76.0
2025-10-20T11:44	10	31	0.1	31	32	377	0.3	377	378	12.9	75.1
2025-10-20T11:45	10	31	0.1	31	32	377	0.3	377	378	12.9	75.7
2025-10-20T11:46	10	31	0.2	31	31	378	0.3	377	378	12.9	77.4
2025-10-20T11:47	10	31	0.2	30	31	378	0.4	377	379	12.9	78.3
2025-10-20T11:48	10	32	0.4	31	33	378	0.3	377	378	12.8	77.8
2025-10-20T11:49	10	34	0.9	32	35	378	0.3	377	378	12.8	77.9
2025-10-20T11:50	10	36	0.6	35	37	378	0.3	377	379	12.8	76.9
2025-10-20T11:51	10	37	0.1	37	38	378	0.3	377	378	12.8	77.1
2025-10-20T11:52	10	38	0.4	37	39	378	0.3	377	379	12.8	76.9
2025-10-20T11:53	10	41	1.2	39	43	378	0.5	377	379	12.8	77.2
2025-10-20T11:54	10	44	0.5	43	45	380	0.4	379	380	12.8	78.7
2025-10-20T11:55	10	45	0.1	44	45	380	0.3	379	381	12.8	77.8
2025-10-20T11:56	10	44	0.3	44	45	381	0.4	380	382	12.8	76.9
2025-10-20T11:57	10	43	0.6	42	44	381	0.4	380	382	12.8	77.1
2025-10-20T11:58	10	41	0.6	40	42	380	0.3	380	381	12.8	78.1
2025-10-20T11:59	10	39	0.4	38	40	381	0.2	380	381	12.8	79.1
2025-10-20T12:00	10	39	0.1	38	39	381	0.3	381	382	12.8	78.9
2025-10-20T12:01	10	38	0.3	37	38	381	0.3	381	382	12.9	79.5
2025-10-20T12:02	10	37	0.2	37	38	381	0.6	379	382	12.9	79.8
2025-10-20T12:03	10	37	0.1	36	37	380	0.2	379	380	12.8	79.3
2025-10-20T12:04	10	36	0.1	36	37	379	0.4	379	380	12.8	79.7
2025-10-20T12:05	10	36	0.1	36	37	379	0.2	379	380	12.8	80.9
2025-10-20T12:06	10	37	0.1	36	37	380	0.3	379	380	12.8	80.9
2025-10-20T12:07	10	35	0.9	33	37	380	0.2	379	380	12.8	80.7
2025-10-20T12:08	10	31	1.3	29	33	379	0.3	379	380	12.8	81.6
2025-10-20T12:09	10	28	0.4	28	29	379	0.4	378	380	12.8	81.5
2025-10-20T12:10	10	28	0.1	28	28	378	0.2	378	379	12.8	81.3
2025-10-20T12:11	10	29	0.2	28	29	378	0.3	377	378	12.8	80.9
2025-10-20T12:12	10	29	0.1	29	29	377	0.3	377	378	12.8	81.3
2025-10-20T12:13	10	29	0.2	29	30	378	0.2	377	379	12.8	81.8
2025-10-20T12:14	10	30	0.1	29	30	378	0.3	377	378	12.8	81.6
2025-10-20T12:15	10	29	0.2	29	30	378	0.2	377	378	12.8	82.2
2025-10-20T12:16	10	29	0.1	29	30	378	0.3	377	378	12.8	82.9
2025-10-20T12:17	10	30	0.2	29	30	378	0.3	377	378	12.8	82.4
2025-10-20T12:18	10	30	0.3	30	31	378	0.3	378	379	12.8	83.1
2025-10-20T12:19	10	31	0.2	31	31	379	0.3	378	380	12.8	83.3
2025-10-20T12:20	10	32	0.2	31	32	379	0.3	378	379	12.9	83.4
2025-10-20T12:21	10	33	0.6	32	34	379	0.3	378	380	12.9	82.5
2025-10-20T12:22	10	36	1.0	34	38	379	0.4	379	380	12.9	83.3
2025-10-20T12:23	10	40	1.5	38	43	380	0.3	380	381	12.9	83.3
2025-10-20T12:24	10	46	1.7	43	48	381	0.6	380	382	12.9	83.3
2025-10-20T12:25	10	51	1.6	49	54	383	0.5	382	384	12.9	84.2
2025-10-20T12:26	10	56	1.0	54	57	384	0.4	383	385	13.0	84.2
2025-10-20T12:27	10	58	0.2	57	58	385	0.8	384	387	13.0	84.1
2025-10-20T12:28	10	56	1.4	53	58	386	0.3	386	387	13.0	84.0
2025-10-20T12:29	10	49	2.0	46	52	385	0.4	384	386	13.1	82.8
2025-10-20T12:30	10	43	1.4	41	46	384	0.3	384	385	13.1	83.9
2025-10-20T12:31	10	40	0.7	38	41	384	0.3	383	385	13.2	83.8
2025-10-20T12:32	10	38	0.3	37	39	383	0.3	383	384	13.2	83.6
2025-10-20T12:33	10	37	0.2	37	37	383	0.6	382	384	13.2	82.4
2025-10-20T12:34	10	36	0.2	36	37	382	0.3	381	383	13.2	82.5
2025-10-20T12:35	10	36	0.1	36	36	382	0.3	382	383	13.2	83.1
2025-10-20T12:36	10	36	0.1	35	36	383	0.4	382	383	13.2	83.6
2025-10-20T12:37	10	36	0.2	35	36	383	0.3	382	384	13.3	83.7
2025-10-20T12:38	10	37	0.3	36	37	382	0.3	382	383	13.2	83.2
2025-10-20T12:39	10	38	0.4	37	38	382	0.3	382	383	13.2	84.0
2025-10-20T12:40	10	38	0.3	38	39	383	0.5	381	384	13.2	84.6
2025-10-20T12:41	10	36	1.3	33	38	382	0.3	381	382	13.2	83.6
2025-10-20T12:42	10	32	0.7	31	33	382	0.3	381	382	13.2	84.1
2025-10-20T12:43	10	32	0.6	31	33	381	0.3	381	382	13.3	85.2
2025-10-20T12:44	10	32	0.3	32	33	381	0.3	380	382	13.2	84.7
2025-10-20T12:45	10	32	0.1	31	32	381	0.6	379	382	13.2	84.6
2025-10-20T12:46	10	33	0.9	32	35	380	0.2	380	381	13.1	84.8
2025-10-20T12:47	10	36	0.4	35	36	381	0.2	380	381	13.1	85.4
2025-10-20T12:48	10	36	0.2	35	36	381	0.4	380	382	13.1	86.2
2025-10-20T12:49	10	34	0.4	34	35	382	0.4	381	382	13.1	86.5
2025-10-20T12:50	10	34	0.2	34	35	381	0.8	379	382	13.1	86.1
2025-10-20T12:51	10	36	0.9	35	37	380	0.2	380	381	13.1	86.3
2025-10-20T12:52	10	38	0.4	37	39	381	0.5	380	382	13.1	87.0
2025-10-20T12:53	10	39	0.1	39	39	382	0.4	381	383	13.1	88.1
2025-10-20T12:54	10	39	0.1	39	39	383	0.3	382	383	13.1	88.0
2025-10-20T12:55	10	39	0.2	39	39	382	0.3	382	383	13.1	87.5
2025-10-20T12:56	10	38	0.4	37	39	382	0.4	381	383	13.2	87.9
2025-10-20T12:57	10	36	0.5	35	37	382	0.3	382	383	13.2	88.5
2025-10-20T12:58	10	35	0.6	34	36	382	0.8	381	383	13.1	88.2
2025-10-20T12:59	10	33	0.3	33	34	381	0.5	380	382	13.1	87.1
2025-10-20T13:00	10	32	0.2	32	33	380	0.2	380	381	13.1	87.6
2025-10-20T13:01	10	32	0.1	31	32	380	0.3	379	380	13.1	85.9
2025-10-20T13:02	10	31	0.1	31	32	379	0.3	379	380	13.1	85.0
2025-10-20T13:03	10	31	0.1	31	32	379	0.3	379	380	13.1	85.2
2025-10-20T13:04	10	32	0.3	32	32	380	0.3	379	380	13.0	87.0
2025-10-20T13:05	10	33	0.3	32	33	380	0.3	379	381	13.0	87.7
2025-10-20T13:06	10	34	0.6	33	35	380	0.2	380	381	13.0	87.9
2025-10-20T13:07	10	36	0.8	35	38	380	0.3	379	381	13.0	86.7
2025-10-20T13:08	10	40	0.8	38	41	381	0.5	379	381	13.0	87.5
2025-10-20T13:09	10	40	0.6	39	41	381	0.4	380	382	13.0	88.0
2025-10-20T13:10	10	39	0.2	38	39	381	0.3	380	382	13.0	87.5
2025-10-20T13:11	10	38	0.4	37	39	381	0.5	380	382	13.0	87.4
2025-10-20T13:12	10	36	0.9	34	37	381	0.3	380	382	13.0	86.8
2025-10-20T13:13	10	33	1.0	31	34	381	0.2	380	381	13.0	86.7
2025-10-20T13:14	10	29	0.8	28	31	380	0.5	379	381	12.9	86.1
2025-10-20T13:15	10	27	0.7	26	28	379	0.3	378	380	13.0	86.6
2025-10-20T13:16	10	25	0.5	24	26	379	0.3	378	379	12.9	87.0
2025-10-20T13:17	10	24	0.2	23	24	378	0.4	378	379	12.9	87.1
2025-10-20T13:18	10	24	0.1	23	24	378	0.4	377	379	12.9	86.8
2025-10-20T13:19	10	24	0.2	24	25	378	0.2	377	378	12.9	86.7
2025-10-20T13:20	10	25	0.4	25	26	377	0.2	377	378	12.9	86.6
2025-10-20T13:21	10	27	0.4	26	27	377	0.3	376	378	12.9	85.5
2025-10-20T13:22	10	28	0.4	27	29	377	0.2	376	377	12.9	85.4
2025-10-20T13:23	10	30	0.6	29	31	377	0.5	377	378	12.8	85.7
2025-10-20T13:24	10	32	0.5	31	33	378	0.2	377	378	12.8	86.2
2025-10-20T13:25	10	33	0.2	33	33	379	0.5	378	379	12.8	86.6
2025-10-20T13:26	10	33	0.2	33	33	378	0.6	377	379	12.8	83.8
2025-10-20T13:27	10	32	0.4	31	33	378	0.4	377	379	12.8	85.2
2025-10-20T13:28	10	30	0.6	29	31	378	0.3	378	379	12.8	84.7
2025-10-20T13:29	10	28	0.5	27	29	378	0.3	377	379	12.8	84.7
2025-10-20T13:30	10	27	0.5	26	27	377	0.6	376	378	12.7	82.8
2025-10-20T13:31	10	25	0.4	24	26	376	0.2	376	377	12.7	83.9
2025-10-20T13:32	10	24	0.3	23	24	377	0.4	376	377	12.7	84.0
2025-10-20T13:33	10	23	0.2	23	23	376	0.3	376	377	12.7	83.8
2025-10-20T13:34	10	22	0.2	22	23	376	0.3	375	376	12.7	82.5
2025-10-20T13:35	10	22	0.2	21	22	375	0.2	375	376	12.7	82.6
2025-10-20T13:36	10	21	0.2	21	22	375	0.2	374	375	12.7	82.8
2025-10-20T13:37	10	21	0.1	21	21	375	0.4	374	375	12.7	83.9
2025-10-20T13:38	10	20	0.1	20	21	375	0.3	374	375	12.6	83.3
2025-10-20T13:39	10	21	0.1	20	21	375	0.3	374	375	12.6	83.3
2025-10-20T13:40	10	21	0.1	20	21	375	0.3	374	376	12.7	83.1
2025-10-20T13:41	10	21	0.1	20	21	375	0.2	374	375	12.7	82.9
2025-10-20T13:42	10	21	0.1	20	21	375	0.3	374	376	12.7	83.3
2025-10-20T13:43	10	21	0.1	20	21	375	0.3	374	375	12.7	83.6
2025-10-20T13:44	10	21	0.2	21	21	375	0.3	374	375	12.7	83.3
2025-10-20T13:45	10	22	0.4	21	22	375	0.3	374	376	12.7	83.8
2025-10-20T13:46	10	23	0.4	22	24	375	0.4	375	376	12.7	84.5
2025-10-20T13:47	10	24	0.2	24	24	376	0.2	375	376	12.7	84.2
2025-10-20T13:48	10	24	0.1	24	25	376	0.4	375	377	12.8	85.1
2025-10-20T13:49	10	25	0.1	25	25	377	0.3	376	377	12.8	85.9
2025-10-20T13:50	10	25	0.2	25	25	377	0.2	376	377	12.8	85.5
2025-10-20T13:51	10	26	0.2	25	26	376	0.4	375	377	12.9	81.7
2025-10-20T13:52	10	26	0.1	26	26	376	0.3	375	377	12.9	82.3
2025-10-20T13:53	10	26	0.1	26	26	376	0.3	376	377	12.9	82.1
2025-10-20T13:54	10	26	0.2	25	26	376	0.2	376	377	12.9	82.6
2025-10-20T13:55	10	24	0.4	24	25	376	0.2	375	376	12.9	81.6
2025-10-20T13:56	10	23	0.4	22	24	376	0.3	375	376	13.0	80.7
2025-10-20T13:57	10	22	0.4	21	23	375	0.3	375	376	13.0	80.5
2025-10-20T13:58	10	21	0.3	20	21	375	0.3	374	376	12.9	80.7
2025-10-20T13:59	10	19	0.3	19	20	375	0.3	374	375	12.9	80.1
2025-10-20T14:00	10	19	0.2	18	19	374	0.3	374	375	12.9	79.3
2025-10-20T14:01	10	18	0.2	18	18	374	0.3	373	374	12.9	77.9
2025-10-20T14:02	10	18	0.2	17	18	373	0.3	372	374	12.8	78.8
2025-10-20T14:03	10	17	0.3	16	17	372	0.4	372	373	12.8	78.1
2025-10-20T14:04	10	16	0.2	16	17	372	0.3	372	373	12.8	80.3
2025-10-20T14:05	10	16	0.1	15	16	372	0.3	372	373	12.8	79.3
2025-10-20T14:06	10	16	0.1	15	16	372	0.3	372	373	12.7	79.8
2025-10-20T14:07	10	16	0.2	16	17	372	0.3	371	373	12.7	79.4
2025-10-20T14:08	10	17	0.4	16	18	372	0.3	372	373	12.8	78.9
2025-10-20T14:09	10	19	0.5	18	20	373	0.3	372	373	12.7	79.3
2025-10-20T14:10	10	20	0.6	19	21	373	0.2	372	373	12.7	80.1
2025-10-20T14:11	10	23	0.6	22	24	373	0.3	373	374	12.7	80.4
2025-10-20T14:12	10	25	0.6	24	25	374	0.3	373	375	12.6	81.6
2025-10-20T14:13	10	26	0.3	25	27	374	0.2	373	374	12.7	79.0
2025-10-20T14:14	10	27	0.1	27	27	374	0.3	373	375	12.7	79.4
2025-10-20T14:15	10	26	0.4	26	27	374	0.2	374	375	12.7	79.6
2025-10-20T14:16	10	25	0.6	23	26	374	0.2	374	375	12.7	79.2
2025-10-20T14:17	10	23	0.4	22	24	374	0.3	373	375	12.7	78.9
2025-10-20T14:18	10	22	0.2	21	22	374	0.3	373	374	12.7	78.9
2025-10-20T14:19	10	22	0.3	21	23	374	0.2	373	374	12.7	78.5
2025-10-20T14:20	10	24	1.1	22	26	374	0.3	373	375	12.7	78.3
2025-10-20T14:21	10	29	1.5	26	31	374	0.3	374	375	12.7	78.3
2025-10-20T14:22	10	34	1.3	32	36	375	0.5	374	376	12.7	78.9
2025-10-20T14:23	10	38	0.9	36	39	376	0.3	376	377	12.7	79.0
2025-10-20T14:24	10	40	0.2	39	40	377	0.3	377	378	12.7	79.2
2025-10-20T14:25	10	39	0.7	38	40	377	0.5	376	378	12.8	78.2
2025-10-20T14:26	10	36	0.7	35	38	377	0.3	376	378	12.8	77.8
2025-10-20T14:27	10	34	0.4	34	35	376	0.3	376	377	12.8	78.1
2025-10-20T14:28	10	34	0.2	33	34	376	0.3	376	377	12.8	78.2
2025-10-20T14:29	10	33	0.3	32	33	376	0.4	375	377	12.8	77.7
2025-10-20T14:30	10	31	0.5	31	32	376	0.4	375	377	12.8	78.1
2025-10-20T14:31	10	30	0.5	29	31	376	0.2	375	376	12.8	77.7
2025-10-20T14:32	10	29	0.1	28	29	375	0.2	375	376	12.8	78.0
2025-10-20T14:33	10	29	0.3	29	30	375	0.3	375	376	12.8	78.0
2025-10-20T14:34	10	30	0.2	30	31	376	0.3	375	376	12.8	78.9
2025-10-20T14:35	10	30	0.2	30	30	376	0.4	375	377	12.8	78.7
2025-10-20T14:36	10	29	0.2	29	30	376	0.2	376	377	12.8	79.4
2025-10-20T14:37	10	29	0.2	28	29	376	0.3	376	377	12.8	79.0
2025-10-20T14:38	10	28	0.2	28	29	377	0.3	376	377	12.9	79.3
2025-10-20T14:39	10	28	0.1	28	28	376	0.2	376	377	12.9	79.4
2025-10-20T14:40	10	28	0.3	28	29	376	0.4	376	377	12.9	79.2
2025-10-20T14:41	10	30	0.7	29	32	377	0.4	376	378	12.9	79.8
2025-10-20T14:42	10	31	0.6	30	32	376	0.3	376	377	12.9	80.2
2025-10-20T14:43	10	33	0.8	32	35	377	0.3	376	377	12.9	79.6
2025-10-20T14:44	10	36	0.6	34	37	377	0.4	376	378	13.0	79.2
2025-10-20T14:45	10	37	0.3	37	38	377	0.5	376	378	13.0	79.9
2025-10-20T14:46	10	38	0.2	37	38	377	0.3	377	378	13.0	80.2
2025-10-20T14:47	10	39	0.6	38	40	377	0.2	377	378	12.9	80.7
2025-10-20T14:48	10	41	0.6	40	42	377	0.3	377	378	13.0	80.6
2025-10-20T14:49	10	60	16.9	42	89	379	1.4	377	382	13.0	80.6
2025-10-20T14:50	10	88	16.2	56	100	382	1.6	379	384	13.1	81.3
2025-10-20T14:51	10	97	1.1	95	98	383	0.3	383	384	13.2	80.8
2025-10-20T14:52	10	93	1.0	91	95	383	0.3	382	383	13.3	79.4
2025-10-20T14:53	10	89	1.1	88	91	383	0.6	383	385	13.4	79.2
2025-10-20T14:54	10	86	0.6	86	88	383	1.1	381	385	13.5	77.0
2025-10-20T14:55	10	86	0.1	85	86	382	0.3	381	382	13.6	76.0
2025-10-20T14:56	10	85	0.4	84	85	382	0.5	381	383	13.6	76.4
2025-10-20T14:57	10	82	1.4	79	84	382	0.8	381	383	13.7	76.8
2025-10-20T14:58	10	77	1.3	75	79	382	0.6	380	382	13.7	75.7
2025-10-20T14:59	10	73	0.8	72	75	380	0.6	379	382	13.8	74.2
2025-10-20T15:00	10	71	0.5	70	72	379	0.5	378	380	13.8	73.8
2025-10-20T15:01	10	70	0.3	69	70	378	0.4	377	379	13.8	71.7
2025-10-20T15:02	10	69	0.2	68	69	378	0.3	377	378	13.7	70.7
2025-10-20T15:03	10	68	0.3	67	69	378	0.4	377	378	13.7	69.9
2025-10-20T15:04	10	63	1.4	61	66	377	0.4	376	378	13.7	69.4
2025-10-20T15:05	10	51	4.5	43	62	375	0.6	374	377	13.6	69.3
2025-10-20T15:06	10	21	15.0	11	52	373	1.8	370	376	13.6	69.8
2025-10-20T15:07	10	10	1.3	9	13	371	0.7	370	373	13.5	69.5
2025-10-20T15:08	10	9	0.1	9	9	370	0.5	369	371	13.4	70.0
2025-10-20T15:09	10	9	0.3	9	10	369	0.2	369	370	13.3	70.3
2025-10-20T15:10	10	11	0.5	10	11	369	0.3	368	369	13.2	70.1
2025-10-20T15:11	10	13	0.7	11	13	369	0.2	368	369	13.1	70.6
2025-10-20T15:12	10	17	4.8	13	29	368	0.3	368	369	13.1	71.2
2025-10-20T15:13	10	22	3.6	18	29	369	0.3	369	370	13.1	71.0
2025-10-20T15:14	10	37	18.0	19	66	369	1.4	368	373	13.0	71.6
2025-10-20T15:15	10	57	10.4	31	67	372	0.6	370	373	13.0	71.5
2025-10-20T15:16	10	32	9.8	20	54	371	0.4	370	372	13.0	70.4
2025-10-20T15:17	10	61	2.3	55	63	372	0.6	370	373	13.0	70.7
2025-10-20T15:18	10	61	0.8	58	63	373	0.3	372	373	13.0	70.5
2025-10-20T15:19	10	31	11.2	16	57	372	0.9	370	373	13.1	70.7
2025-10-20T15:20	10	25	5.6	17	34	371	0.3	370	371	13.0	71.4
2025-10-20T15:21	10	29	13.1	16	57	370	0.7	369	372	13.0	71.4
2025-10-20T15:22	10	57	0.4	56	58	372	0.8	370	373	13.0	72.7
2025-10-20T15:23	10	56	0.4	55	56	373	0.2	372	373	13.0	71.8
2025-10-20T15:24	10	55	0.2	55	56	373	0.3	372	373	13.1	71.3
2025-10-20T15:25	10	46	8.6	24	55	372	0.5	371	373	13.1	71.1
2025-10-20T15:26	10	12	2.5	11	23	370	1.2	368	373	13.1	71.0
2025-10-20T15:27	10	14	2.3	12	21	369	0.4	368	370	13.2	69.7
2025-10-20T15:28	10	31	4.6	21	36	369	0.6	368	370	13.1	70.1
2025-10-20T15:29	10	21	5.3	16	35	369	0.4	368	370	13.1	69.6
2025-10-20T15:30	10	51	6.4	36	58	371	1.2	368	372	13.1	70.2
2025-10-20T15:31	10	58	0.1	58	58	373	0.5	371	373	13.1	70.1
2025-10-20T15:32	10	57	0.4	56	58	373	0.3	372	374	13.1	70.1
2025-10-20T15:33	10	55	0.6	54	56	373	0.3	373	374	13.1	70.7
2025-10-20T15:34	10	51	2.8	46	54	373	0.3	372	374	13.1	70.3
2025-10-20T15:35	10	45	4.3	38	50	373	0.6	371	373	13.0	71.7
2025-10-20T15:36	10	48	2.7	40	50	372	0.4	371	373	13.0	71.4
2025-10-20T15:37	10	49	0.5	48	49	372	0.3	371	372	13.0	71.5
2025-10-20T15:38	10	46	1.8	42	48	371	0.3	371	372	12.9	71.9
2025-10-20T15:39	10	39	1.6	37	42	370	0.4	370	371	12.9	71.7
2025-10-20T15:40	10	36	1.0	35	38	370	0.4	369	370	12.9	71.6
2025-10-20T15:41	10	39	0.2	38	39	369	0.2	369	370	12.9	72.1
2025-10-20T15:42	10	38	0.5	37	39	369	0.3	369	370	12.9	72.3
2025-10-20T15:43	10	39	1.6	36	41	369	0.2	369	370	12.9	71.9
2025-10-20T15:44	10	17	10.5	8	37	368	1.1	366	370	12.8	72.5
2025-10-20T15:45	10	8	0.1	7	8	366	0.4	366	367	12.8	73.1
2025-10-20T15:46	10	7	0.3	7	8	366	0.4	365	366	12.7	72.9
2025-10-20T15:47	10	9	2.7	7	15	365	0.3	365	366	12.6	73.6
2025-10-20T15:48	10	7	0.2	6	7	365	0.2	364	365	12.6	73.8
2025-10-20T15:49	10	11	2.7	7	16	364	0.3	364	365	12.6	74.4
2025-10-20T15:50	10	7	0.9	6	9	364	0.2	364	365	12.5	74.6
2025-10-20T15:51	10	7	0.8	7	9	364	0.2	364	365	12.5	74.8
2025-10-20T15:52	10	7	0.1	6	7	364	0.2	363	364	12.5	75.3
2025-10-20T15:53	10	7	0.1	6	7	363	0.3	363	364	12.4	75.8
2025-10-20T15:54	10	7	0.1	7	7	363	0.2	363	364	12.4	76.1
2025-10-20T15:55	10	7	0.1	7	7	364	0.4	362	364	12.3	76.8
2025-10-20T15:56	10	7	0.1	6	7	364	0.2	363	364	12.3	76.9
2025-10-20T15:57	10	6	0.2	6	7	364	0.3	363	364	12.3	77.5
2025-10-20T15:58	10	5	0.3	5	6	364	0.2	363	364	12.3	77.7
2025-10-20T15:59	10	5	0.3	4	5	364	0.2	363	364	12.2	78.3
2025-10-20T16:00	10	4	0.2	3	4	364	0.4	363	365	12.4	77.6
2025-10-20T16:01	10	3	0.1	3	4	364	0.3	364	365	12.4	77.6
2025-10-20T16:02	10	3	0.1	3	3	365	0.3	364	365	12.5	76.8
2025-10-20T16:03	10	3	0.1	3	3	365	0.2	364	365	12.5	77.0
2025-10-20T16:04	10	2	0.1	2	3	364	0.3	363	364	12.4	77.7
2025-10-20T16:05	10	2	0.1	2	2	364	0.3	363	364	12.4	77.9
2025-10-20T16:06	10	2	0.1	2	2	363	0.3	362	364	12.4	77.5
2025-10-20T16:07	10	2	0.1	2	2	363	0.4	362	364	12.4	76.7
2025-10-20T16:08	10	2	0.1	2	3	363	0.3	362	363	12.5	76.3
2025-10-20T16:09	10	2	0.1	2	2	363	0.3	362	363	12.4	76.7
2025-10-20T16:10	10	2	0.1	2	2	363	0.2	362	363	12.4	77.4
2025-10-20T16:11	10	2	0.1	2	2	362	0.2	362	362	12.3	78.4
2025-10-20T16:12	10	2	0.1	2	2	362	0.2	362	363	12.2	78.7
2025-10-20T16:13	10	2	0.1	2	2	362	0.3	361	363	12.2	78.3
2025-10-20T16:14	10	1	0.1	1	2	362	0.2	361	363	12.3	77.8
2025-10-20T16:15	10	1	0.1	1	1	363	0.3	362	363	12.3	76.9
2025-10-20T16:16	10	1	0.1	1	1	362	0.3	361	363	12.2	78.0
2025-10-20T16:17	10	1	0.1	1	1	362	0.3	362	363	12.3	77.6
2025-10-20T16:18	10	1	0.1	1	1	363	0.3	362	363	12.2	77.7
2025-10-20T16:19	10	1	0.1	1	1	363	0.2	362	363	12.2	77.9
2025-10-20T16:20	10	1	0.1	1	1	363	0.2	362	363	12.1	78.6
2025-10-20T16:21	10	1	0.1	1	1	363	0.4	362	364	12.2	77.7
2025-10-20T16:22	10	1	0.1	1	1	363	0.2	363	364	12.2	77.9
2025-10-20T16:23	10	1	0.1	1	1	363	0.2	362	363	12.2	78.3
2025-10-20T16:24	10	1	0.1	1	1	363	0.2	362	363	12.2	78.4
2025-10-20T16:25	10	1	0.1	1	1	363	0.2	362	363	12.1	78.6
2025-10-20T16:26	10	1	0.1	1	1	362	0.3	361	363	12.1	78.5
2025-10-20T16:27	10	1	0.1	1	1	362	0.2	361	362	12.1	78.7
2025-10-20T16:28	10	1	0.1	1	1	362	0.4	362	363	12.1	79.1
2025-10-20T16:29	10	1	0.1	1	1	362	0.2	362	363	12.1	78.8
2025-10-20T16:30	10	1	0.1	1	1	362	0.2	362	363	12.0	79.8
2025-10-20T16:31	10	1	0.1	1	1	363	0.2	362	363	11.9	80.5
2025-10-20T16:32	10	1	0.1	1	1	363	0.3	362	364	11.9	80.4
2025-10-20T16:33	10	1	0.1	1	1	363	0.3	363	364	11.9	80.8
2025-10-20T16:34	10	1	0.1	1	1	364	0.3	363	365	11.9	80.1
2025-10-20T16:35	10	1	0.1	1	1	364	0.3	363	365	12.0	80.1
2025-10-20T16:36	10	1	0.1	1	1	364	0.3	364	365	12.0	79.8
2025-10-20T16:37	10	1	0.1	1	1	364	0.3	364	365	11.9	80.2
2025-10-20T16:38	10	1	0.1	0	1	364	0.3	364	365	11.9	80.8
2025-10-20T16:39	10	1	0.1	1	1	365	0.2	364	365	11.9	79.8
2025-10-20T16:40	10	1	0.1	1	1	365	0.3	364	365	12.0	79.8
2025-10-20T16:41	10	1	0.1	1	1	365	0.2	364	365	11.9	80.4
2025-10-20T16:42	10	1	0.1	1	1	365	0.3	364	366	11.9	81.1
2025-10-20T16:43	10	1	0.1	1	1	365	0.2	365	366	12.0	80.2
2025-10-20T16:44	10	1	0.1	1	1	365	0.3	365	366	12.1	79.4
2025-10-20T16:45	10	1	0.1	0	1	365	0.3	365	366	12.1	79.3
2025-10-20T16:46	10	1	0.1	1	1	365	0.3	364	365	12.2	79.1
2025-10-20T16:47	10	1	0.1	1	1	364	0.4	363	365	12.1	79.4
2025-10-20T16:48	10	1	0.1	1	1	364	0.3	363	364	12.0	80.1
2025-10-20T16:49	10	1	0.1	0	1	363	0.3	363	364	12.0	79.9
2025-10-20T16:50	10	1	0.1	0	1	364	0.2	363	364	12.2	79.1
2025-10-20T16:51	10	1	0.1	0	1	364	0.2	363	364	12.2	79.3
2025-10-20T16:52	10	0	0.1	0	1	363	0.2	363	364	12.1	79.4
2025-10-20T16:53	10	0	0.1	0	1	364	0.2	363	364	12.2	79.3
2025-10-20T16:54	10	0	0.1	0	1	364	0.3	363	364	12.3	79.0
2025-10-20T16:55	10	0	0.1	0	1	364	0.3	363	364	12.3	78.5
2025-10-20T16:56	10	0	0.1	0	1	363	0.5	362	364	12.3	78.7
2025-10-20T16:57	10	0	0.1	0	1	363	0.3	362	363	12.2	79.1
2025-10-20T16:58	10	0	0.1	0	1	362	0.3	362	363	12.3	77.8
2025-10-20T16:59	10	0	0.1	0	0	362	0.3	362	363	12.3	77.0
2025-10-20T17:00	10	0	0.1	0	0	362	0.2	361	362	12.2	77.1
2025-10-20T17:01	10	0	0.1	0	1	362	0.2	362	363	12.3	75.6
2025-10-20T17:02	10	0	0.1	0	0	362	0.3	361	362	12.2	75.7
2025-10-20T17:03	10	0	0.1	0	0	362	0.2	361	362	12.2	75.7
2025-10-20T17:04	10	0	0.1	0	0	362	0.3	361	362	12.3	73.7
2025-10-20T17:05	10	0	0.1	0	0	361	0.3	361	362	12.2	74.8
2025-10-20T17:06	10	0	0.1	0	0	362	0.3	361	362	12.1	74.6
2025-10-20T17:07	10	0	0.1	0	0	362	0.2	361	362	12.1	74.7
2025-10-20T17:08	10	0	0.1	0	0	362	0.2	362	363	12.1	73.7
2025-10-20T17:09	10	0	0.1	0	1	362	0.3	361	363	12.2	72.8
2025-10-20T17:10	10	0	0.1	0	1	361	0.3	361	362	12.1	73.4
2025-10-20T17:11	10	0	0.1	0	0	361	0.2	360	361	12.0	74.3
2025-10-20T17:12	10	0	0.1	0	1	361	0.2	360	361	12.0	74.4
2025-10-20T17:13	10	0	0.1	0	0	361	0.2	361	362	12.1	73.6
2025-10-20T17:14	10	0	0.1	0	0	362	0.2	361	362	12.1	73.9
2025-10-20T17:15	10	0	0.1	0	0	362	0.3	361	362	12.0	74.5
2025-10-20T17:16	10	0	0.1	0	0	362	0.3	361	362	11.9	74.7
2025-10-20T17:17	10	0	0.1	0	1	362	0.3	362	363	11.9	75.1
2025-10-20T17:18	10	0	0.1	0	1	362	0.3	362	363	11.9	75.4
2025-10-20T17:19	10	0	0.1	0	1	362	0.2	362	363	11.9	75.5
2025-10-20T17:20	10	0	0.1	0	1	362	0.2	362	363	11.8	75.8
2025-10-20T17:21	10	0	0.1	0	1	362	0.3	362	363	11.8	76.1
2025-10-20T17:22	10	0	0.1	0	1	362	0.2	362	363	11.8	75.9
2025-10-20T17:23	10	0	0.1	0	1	362	0.3	361	362	11.8	75.8
2025-10-20T17:24	10	0	0.1	0	1	362	0.2	361	362	11.8	75.7
2025-10-20T17:25	10	0	0.1	0	0	362	0.2	361	362	11.8	75.9
2025-10-20T17:26	10	0	0.1	0	1	361	0.2	361	362	11.8	76.0
2025-10-20T17:27	10	0	0.1	0	1	361	0.5	360	362	11.8	76.4
2025-10-20T17:28	10	0	0.1	0	1	360	0.3	360	361	11.8	76.4
2025-10-20T17:29	10	0	0.1	0	0	360	0.3	359	360	11.9	76.2
2025-10-20T17:30	10	0	0.0	0	0	359	0.4	358	360	11.8	76.6
2025-10-20T17:31	10	0	0.1	0	0	359	0.3	358	359	11.8	76.4
2025-10-20T17:32	10	0	0.1	0	0	358	0.2	358	359	11.8	76.6
2025-10-20T17:33	10	0	0.1	0	0	358	0.3	357	359	11.8	76.5
2025-10-20T17:34	10	0	0.1	0	0	358	0.3	358	359	11.8	76.8
2025-10-20T17:35	10	0	0.1	0	0	358	0.3	358	359	11.8	76.5
2025-10-20T17:36	10	0	0.1	0	0	358	0.2	358	359	11.8	76.6
2025-10-20T17:37	10	0	0.1	0	0	358	0.3	357	359	11.8	76.8
2025-10-20T17:38	10	0	0.1	0	0	358	0.3	357	358	11.7	77.4
2025-10-20T17:39	10	0	0.1	0	0	358	0.2	358	359	11.8	77.4
2025-10-20T17:40	10	0	0.0	0	0	358	0.3	357	359	11.6	78.2
2025-10-20T17:41	10	0	0.1	0	0	358	0.3	357	359	11.6	78.6
2025-10-20T17:42	10	0	0.1	0	0	358	0.2	358	359	11.6	78.6
2025-10-20T17:43	10	0	0.1	0	0	359	0.3	358	359	11.5	79.1
2025-10-20T17:44	10	0	0.1	0	0	359	0.3	358	360	11.5	79.2
2025-10-20T17:45	10	0	0.1	0	0	359	0.3	359	360	11.5	79.4
2025-10-20T17:46	10	0	0.1	0	0	359	0.2	359	360	11.5	79.6
2025-10-20T17:47	10	0	0.1	0	0	359	0.2	359	360	11.5	79.9
2025-10-20T17:48	10	0	0.1	0	0	360	0.3	359	360	11.5	79.8
2025-10-20T17:49	10	0	0.1	0	0	360	0.2	359	360	11.5	80.1
2025-10-20T17:50	10	0	0.1	0	0	360	0.2	360	361	11.5	80.4
2025-10-20T17:51	10	0	0.1	0	0	360	0.2	360	361	11.5	80.7
2025-10-20T17:52	10	0	0.1	0	1	360	0.2	360	361	11.4	80.9
2025-10-20T17:53	10	0	0.1	0	0	360	0.2	360	361	11.5	81.0
2025-10-20T17:54	10	0	0.1	0	0	360	0.2	360	361	11.4	81.2
2025-10-20T17:55	10	0	0.1	0	1	360	0.2	359	360	11.3	81.7
2025-10-20T17:56	10	0	0.1	0	0	360	0.3	360	361	11.4	81.2
2025-10-20T17:57	10	0	0.1	0	0	360	0.2	360	361	11.4	80.8
2025-10-20T17:58	10	0	0.1	0	1	360	0.3	360	361	11.5	80.2
2025-10-20T17:59	10	0	0.1	0	1	360	0.2	360	361	11.6	79.8
2025-10-20T18:00	10	0	0.1	0	0	361	0.2	360	361	11.6	79.7
2025-10-20T18:01	10	0	0.1	0	1	360	0.2	360	361	11.6	79.3
2025-10-20T18:02	10	0	0.1	0	0	360	0.3	360	361	11.6	79.0
2025-10-20T18:03	10	0	0.1	0	1	360	0.2	359	361	11.5	79.2
2025-10-20T18:04	10	0	0.1	0	1	360	0.2	359	360	11.5	79.6
2025-10-20T18:05	10	0	0.1	0	1	359	0.3	359	360	11.4	79.8
2025-10-20T18:06	10	0	0.1	0	1	360	0.3	359	360	11.5	79.1
2025-10-20T18:07	10	0	0.1	0	1	360	0.2	359	360	11.6	78.3
2025-10-20T18:08	10	0	0.1	0	1	359	0.2	359	360	11.6	78.5
2025-10-20T18:09	10	0	0.1	0	1	359	0.3	359	360	11.5	78.7
2025-10-20T18:10	10	0	0.1	0	1	360	0.3	359	360	11.6	78.3
2025-10-20T18:11	10	0	0.1	0	1	360	0.3	359	360	11.6	78.5
2025-10-20T18:12	10	0	0.1	0	1	360	0.3	359	360	11.6	79.0
2025-10-20T18:13	10	0	0.1	0	1	360	0.3	359	360	11.5	79.3
2025-10-20T18:14	10	0	0.1	0	1	360	0.2	360	360	11.5	79.9
2025-10-20T18:15	10	0	0.1	0	1	360	0.2	360	360	11.5	80.3
2025-10-20T18:16	10	0	0.1	0	1	360	0.2	360	360	11.5	80.8
2025-10-20T18:17	10	0	0.1	0	1	360	0.2	360	361	11.5	81.0
2025-10-20T18:18	10	0	0.1	0	1	361	0.3	360	361	11.5	81.0
2025-10-20T18:19	10	0	0.1	0	1	361	0.2	361	362	11.6	80.8
2025-10-20T18:20	10	0	0.1	0	1	362	0.2	362	362	11.6	80.8
2025-10-20T18:21	10	0	0.1	0	1	362	0.2	362	363	11.7	80.9
2025-10-20T18:22	10	0	0.1	0	1	362	0.2	362	363	11.7	80.9
2025-10-20T18:23	10	0	0.1	0	1	363	0.3	362	363	11.9	80.5
2025-10-20T18:24	10	1	0.1	0	1	363	0.2	362	363	11.8	81.2
2025-10-20T18:25	10	1	0.1	0	1	363	0.2	363	363	11.9	81.0
2025-10-20T18:26	10	1	0.1	0	1	363	0.2	363	364	11.9	80.8
2025-10-20T18:27	10	1	0.1	0	1	363	0.3	363	364	12.0	80.9
2025-10-20T18:28	10	1	0.1	0	1	363	0.3	362	364	11.9	81.4
2025-10-20T18:29	10	1	0.1	0	1	363	0.2	363	364	12.0	81.4
2025-10-20T18:30	10	1	0.1	0	1	363	0.2	363	364	11.9	81.9
2025-10-20T18:31	10	1	0.1	0	1	363	0.2	362	363	11.9	82.1
2025-10-20T18:32	10	1	0.2	0	1	363	0.3	362	363	11.9	82.3
2025-10-20T18:33	10	1	0.1	0	1	362	0.3	362	363	11.9	82.6
2025-10-20T18:34	10	1	0.1	0	1	363	0.2	362	363	11.9	82.7
2025-10-20T18:35	10	1	0.1	0	1	363	0.3	362	363	11.9	82.8
2025-10-20T18:36	10	1	0.1	0	1	363	0.2	362	363	11.9	83.2
2025-10-20T18:37	10	1	0.1	0	1	363	0.2	362	363	11.9	83.4
2025-10-20T18:38	10	1	0.1	0	1	363	0.3	362	363	11.9	83.8
2025-10-20T18:39	10	1	0.1	0	1	362	0.2	362	363	11.9	83.9
2025-10-20T18:40	10	1	0.1	0	1	362	0.3	362	363	11.9	83.8
2025-10-20T18:41	10	1	0.1	0	1	362	0.3	361	363	11.9	83.6
2025-10-20T18:42	10	0	0.2	0	1	361	0.4	361	362	11.8	83.8
2025-10-20T18:43	10	0	0.2	0	1	361	0.3	360	362	11.8	84.1
2025-10-20T18:44	10	0	0.1	0	1	360	0.3	360	361	11.7	84.3
2025-10-20T18:45	10	0	0.2	0	1	360	0.3	360	361	11.7	84.5
2025-10-20T18:46	10	0	0.1	0	1	359	0.4	359	360	11.7	84.9
2025-10-20T18:47	10	0	0.1	0	1	359	0.3	358	360	11.7	85.2
2025-10-20T18:48	10	0	0.1	0	1	359	0.3	358	359	11.7	85.1
2025-10-20T18:49	10	0	0.1	0	1	359	0.2	358	359	11.7	85.2
2025-10-20T18:50	10	0	0.1	0	1	359	0.3	359	360	11.7	85.2
2025-10-20T18:51	10	0	0.1	0	1	359	0.4	358	360	11.7	85.3
2025-10-20T18:52	10	0	0.1	0	1	359	0.2	359	360	11.7	85.6
2025-10-20T18:53	10	0	0.1	0	1	359	0.2	358	359	11.7	85.7
2025-10-20T18:54	10	0	0.1	0	1	359	0.3	358	360	11.8	85.7
2025-10-20T18:55	10	0	0.1	0	1	359	0.4	358	360	11.8	85.7
2025-10-20T18:56	10	0	0.1	0	1	358	0.3	358	359	11.7	82.8
2025-10-20T18:57	10	0	0.1	0	1	358	0.3	358	359	11.8	85.7
2025-10-20T18:58	10	0	0.1	0	1	358	0.3	357	359	11.8	85.7
2025-10-20T18:59	10	0	0.1	0	1	358	0.3	357	359	11.8	85.7
2025-10-20T19:00	10	0	0.2	0	1	358	0.3	357	358	11.8	85.7
2025-10-20T19:01	10	0	0.1	0	1	358	0.2	357	358	11.8	85.7
2025-10-20T19:02	10	0	0.1	0	1	358	0.3	357	358	11.8	85.7
2025-10-20T19:03	10	0	0.1	0	1	357	0.4	356	358	11.5	86.5
2025-10-20T19:04	10	0	0.1	0	1	356	0.2	356	357	11.4	86.9
2025-10-20T19:05	10	0	0.1	0	1	357	0.3	356	357	11.4	87.5
2025-10-20T19:06	10	0	0.1	0	1	357	0.3	356	357	11.4	88.0
2025-10-20T19:07	10	0	0.2	0	1	357	0.4	356	358	11.3	88.2
2025-10-20T19:08	10	0	0.1	0	1	358	0.4	357	359	11.4	88.1
2025-10-20T19:09	10	0	0.1	0	1	359	0.4	358	359	11.4	88.0
2025-10-20T19:10	10	0	0.1	0	1	359	0.3	359	360	11.4	88.3
2025-10-20T19:11	10	0	0.1	0	1	360	0.3	359	360	11.4	88.1
2025-10-20T19:12	10	0	0.1	0	1	360	0.4	359	361	11.6	87.5
2025-10-20T19:13	10	0	0.1	0	1	361	0.3	360	362	11.7	86.9
2025-10-20T19:14	10	0	0.1	0	1	361	0.3	361	362	11.6	87.1
2025-10-20T19:15	10	0	0.1	0	1	362	0.2	361	362	11.7	86.6
2025-10-20T19:16	10	0	0.1	0	1	362	0.3	361	362	11.6	87.0
2025-10-20T19:17	10	0	0.1	0	1	361	0.3	361	362	11.6	86.9
2025-10-20T19:18	10	0	0.1	0	1	361	0.2	361	362	11.7	86.8
2025-10-20T19:19	10	0	0.1	0	1	361	0.3	361	362	11.6	87.0
2025-10-20T19:20	10	0	0.1	0	1	362	0.2	361	362	11.7	86.5
2025-10-20T19:21	10	0	0.1	0	1	362	0.3	361	363	11.8	85.9
2025-10-20T19:22	10	0	0.1	0	1	362	0.3	361	362	11.7	86.1
2025-10-20T19:23	10	0	0.1	0	1	362	0.2	361	362	11.8	85.5
2025-10-20T19:24	10	0	0.2	0	1	361	0.3	361	362	11.8	85.1
2025-10-20T19:25	10	0	0.1	0	1	362	0.3	361	362	11.8	83.9
2025-10-20T19:26	10	0	0.1	0	1	362	0.2	361	362	11.9	82.2
2025-10-20T19:27	10	0	0.1	0	1	362	0.3	361	362	11.9	81.7
2025-10-20T19:28	10	0	0.2	0	1	361	0.2	360	361	11.9	81.6
2025-10-20T19:29	10	0	0.2	0	1	361	0.4	360	362	11.9	81.7
2025-10-20T19:30	10	0	0.1	0	1	362	0.2	361	362	11.9	80.9
2025-10-20T19:31	10	0	0.1	0	1	362	0.3	361	363	12.0	78.1
2025-10-20T19:32	10	1	0.1	0	1	362	0.3	361	362	12.0	78.1
2025-10-20T19:33	10	1	0.1	0	1	361	0.5	360	362	11.9	78.8
2025-10-20T19:34	10	0	0.2	0	1	361	0.3	361	362	11.8	79.8
2025-10-20T19:35	10	1	0.1	0	1	361	0.2	360	362	11.8	79.4
2025-10-20T19:36	10	0	0.1	0	1	361	0.2	361	362	11.8	78.4
2025-10-20T19:37	10	0	0.1	0	1	361	0.2	361	362	11.8	78.3
2025-10-20T19:38	10	0	0.1	0	1	361	0.2	361	362	11.8	78.4
2025-10-20T19:39	10	0	0.1	0	1	361	0.2	361	362	11.8	77.7
2025-10-20T19:40	10	0	0.1	0	1	361	0.2	361	362	11.8	77.5
2025-10-20T19:41	10	0	0.1	0	1	361	0.3	361	362	11.7	77.6
2025-10-20T19:42	10	0	0.1	0	1	361	0.3	361	362	11.7	77.4
2025-10-20T19:43	10	0	0.2	0	1	361	0.3	360	362	11.8	76.9
2025-10-20T19:44	10	0	0.2	0	1	361	0.2	360	361	11.7	77.3
2025-10-20T19:45	10	0	0.1	0	1	361	0.3	360	361	11.7	77.9
2025-10-20T19:46	10	0	0.2	0	1	361	0.3	360	361	11.6	78.0
2025-10-20T19:47	10	0	0.1	0	1	360	0.2	360	361	11.6	78.0
2025-10-20T19:48	10	0	0.1	0	1	360	0.2	360	361	11.6	78.1
2025-10-20T19:49	10	0	0.1	0	1	360	0.3	360	361	11.6	78.2
2025-10-20T19:50	10	0	0.1	0	1	359	0.2	359	360	11.6	78.3
2025-10-20T19:51	10	0	0.1	0	1	360	0.3	359	360	11.6	78.5
2025-10-20T19:52	10	0	0.1	0	1	359	0.3	359	360	11.5	79.1
2025-10-20T19:53	10	0	0.1	0	1	359	0.3	359	360	11.5	79.0
2025-10-20T19:54	10	0	0.1	0	1	360	0.2	359	360	11.5	79.1
2025-10-20T19:55	10	0	0.1	0	0	360	0.3	359	360	11.5	79.2
2025-10-20T19:56	10	0	0.2	0	1	360	0.2	359	361	11.5	79.5
2025-10-20T19:57	10	0	0.1	0	0	360	0.2	360	361	11.4	79.8
2025-10-20T19:58	10	0	0.1	0	1	360	0.3	360	361	11.4	80.0
2025-10-20T19:59	10	0	0.1	0	1	360	0.4	360	361	11.4	79.8
2025-10-20T20:00	10	0	0.1	0	1	360	0.3	360	361	11.4	80.1
2025-10-20T20:01	10	0	0.1	0	1	361	0.2	360	361	11.5	80.1
2025-10-20T20:02	10	0	0.1	0	1	361	0.2	360	361	11.4	80.4
2025-10-20T20:03	10	0	0.1	0	1	361	0.3	360	362	11.4	80.5
2025-10-20T20:04	10	0	0.1	0	1	361	0.3	360	362	11.4	80.4
2025-10-20T20:05	10	0	0.1	0	1	361	0.2	360	361	11.4	80.6
2025-10-20T20:06	10	0	0.1	0	1	361	0.2	360	361	11.3	81.3
2025-10-20T20:07	10	0	0.1	0	1	360	0.2	360	361	11.3	81.7
2025-10-20T20:08	10	0	0.1	0	1	360	0.2	360	361	11.2	82.1
2025-10-20T20:09	10	0	0.1	0	1	360	0.2	360	361	11.2	82.2
2025-10-20T20:10	10	0	0.1	0	1	361	0.2	360	361	11.2	82.4
2025-10-20T20:11	10	0	0.1	0	1	361	0.3	360	361	11.2	82.3
2025-10-20T20:12	10	0	0.1	0	1	361	0.2	360	361	11.2	82.7
2025-10-20T20:13	10	0	0.1	0	1	361	0.2	361	361	11.2	82.5
2025-10-20T20:14	10	0	0.1	0	1	361	0.2	360	361	11.2	83.0
2025-10-20T20:15	10	0	0.2	0	1	361	0.3	360	361	11.2	83.1
2025-10-20T20:16	10	0	0.2	0	1	361	0.2	360	361	11.2	83.3
2025-10-20T20:17	10	0	0.2	0	1	361	0.2	361	362	11.2	83.0
2025-10-20T20:18	10	0	0.1	0	1	361	0.3	360	362	11.3	82.8
2025-10-20T20:19	10	0	0.1	0	1	361	0.2	361	361	11.2	83.4
2025-10-20T20:20	10	0	0.1	0	1	361	0.3	360	362	11.3	83.2
2025-10-20T20:21	10	0	0.1	0	1	361	0.2	361	362	11.3	83.3
2025-10-20T20:22	10	0	0.1	0	0	362	0.2	361	362	11.3	83.3
2025-10-20T20:23	10	0	0.1	0	1	362	0.2	361	362	11.3	83.4
2025-10-20T20:24	10	0	0.1	0	1	362	0.2	362	363	11.4	82.8
2025-10-20T20:25	10	0	0.1	0	1	362	0.2	362	363	11.4	83.3
2025-10-20T20:26	10	0	0.1	0	1	362	0.2	362	363	11.3	83.7
2025-10-20T20:27	10	0	0.1	0	1	362	0.2	361	362	11.3	83.8
2025-10-20T20:28	10	0	0.1	0	1	362	0.3	361	363	11.4	83.4
2025-10-20T20:29	10	0	0.1	0	0	362	0.3	361	362	11.4	83.2
2025-10-20T20:30	10	0	0.1	0	1	362	0.2	361	362	11.4	83.0
2025-10-20T20:31	10	0	0.1	0	1	362	0.4	362	363	11.4	82.9
2025-10-20T20:32	10	0	0.1	0	1	362	0.3	362	363	11.4	83.1
2025-10-20T20:33	10	0	0.1	0	1	362	0.2	361	362	11.3	84.0
2025-10-20T20:34	10	0	0.1	0	1	362	0.2	361	362	11.3	83.6
2025-10-20T20:35	10	0	0.1	0	1	362	0.2	361	362	11.4	83.2
2025-10-20T20:36	10	0	0.1	0	0	361	0.2	361	362	11.3	83.6
2025-10-20T20:37	10	0	0.1	0	0	361	0.2	361	362	11.3	84.3
2025-10-20T20:38	10	0	0.1	0	1	361	0.3	361	362	11.3	84.1
2025-10-20T20:39	10	0	0.1	0	1	361	0.2	361	362	11.3	83.9
2025-10-20T20:40	10	0	0.1	0	1	361	0.3	361	362	11.3	84.4
2025-10-20T20:41	10	0	0.1	0	1	361	0.2	361	362	11.3	83.6
2025-10-20T20:42	10	0	0.1	0	1	361	0.3	361	362	11.2	84.4
2025-10-20T20:43	10	0	0.1	0	1	361	0.3	360	362	11.2	84.6
2025-10-20T20:44	10	0	0.1	0	1	361	0.2	361	362	11.3	83.8
2025-10-20T20:45	10	0	0.1	0	1	361	0.2	361	362	11.2	84.5
2025-10-20T20:46	10	0	0.1	0	1	361	0.2	361	362	11.2	84.4
2025-10-20T20:47	10	0	0.1	0	1	361	0.3	361	362	11.2	83.5
2025-10-20T20:48	10	0	0.1	0	1	361	0.2	361	362	11.3	83.4
2025-10-20T20:49	10	0	0.1	0	1	361	0.3	361	362	11.2	83.6
2025-10-20T20:50	10	0	0.1	0	1	361	0.2	361	362	11.2	84.0
2025-10-20T20:51	10	0	0.1	0	1	361	0.2	361	362	11.1	84.6
2025-10-20T20:52	10	0	0.1	0	1	361	0.3	361	362	11.1	85.0
2025-10-20T20:53	10	0	0.1	0	0	361	0.2	360	361	11.0	85.6
2025-10-20T20:54	10	0	0.1	0	0	361	0.3	360	362	11.0	85.9
2025-10-20T20:55	10	0	0.2	0	1	361	0.3	360	361	10.9	86.6
2025-10-20T20:56	10	0	0.1	0	0	361	0.3	360	361	10.9	86.5
2025-10-20T20:57	10	0	0.1	0	0	361	0.2	360	361	10.8	87.1
2025-10-20T20:58	10	0	0.1	0	0	361	0.2	360	361	10.9	86.6
2025-10-20T20:59	10	0	0.1	0	0	360	0.2	360	361	10.8	87.3
2025-10-20T21:00	10	0	0.1	0	0	360	0.4	359	360	10.8	87.6
2025-10-20T21:01	10	0	0.1	0	0	359	0.3	359	360	10.7	87.8
2025-10-20T21:02	10	0	0.1	0	0	359	0.2	359	360	10.8	87.6
2025-10-20T21:03	10	0	0.1	0	0	359	0.3	358	359	10.7	88.1
2025-10-20T21:04	10	0	0.1	0	0	358	0.3	358	359	10.6	88.6
2025-10-20T21:05	10	0	0.0	0	0	358	0.2	358	359	10.7	87.9
2025-10-20T21:06	10	0	0.1	0	0	358	0.3	358	359	10.7	87.6
2025-10-20T21:07	10	0	0.1	0	0	358	0.2	358	359	10.7	87.1
2025-10-20T21:08	10	0	0.1	0	0	358	0.2	358	359	10.8	86.9
2025-10-20T21:09	10	0	0.1	0	0	359	0.2	358	359	10.8	86.7
2025-10-20T21:10	10	0	0.1	0	0	359	0.3	358	359	10.8	86.1
2025-10-20T21:11	10	0	0.1	0	0	359	0.3	359	360	10.9	85.6
2025-10-20T21:12	10	0	0.1	0	0	359	0.2	359	360	10.8	86.1
2025-10-20T21:13	10	0	0.1	0	0	360	0.2	359	360	10.9	85.7
2025-10-20T21:14	10	0	0.1	0	0	360	0.2	359	360	10.9	85.8
2025-10-20T21:15	10	0	0.1	0	0	360	0.2	359	361	10.8	86.2
2025-10-20T21:16	10	0	0.1	0	0	360	0.3	360	361	10.9	86.0
2025-10-20T21:17	10	0	0.1	0	0	360	0.3	359	360	10.9	86.6
2025-10-20T21:18	10	0	0.1	0	0	360	0.3	359	361	10.9	86.6
2025-10-20T21:19	10	0	0.1	0	0	360	0.3	359	361	10.9	86.3
2025-10-20T21:20	10	0	0.1	0	0	360	0.2	359	360	10.9	86.4
2025-10-20T21:21	10	0	0.0	0	0	360	0.3	359	360	10.9	86.6
2025-10-20T21:22	10	0	0.1	0	0	360	0.3	359	360	11.0	85.9
2025-10-20T21:23	10	0	0.1	0	0	359	0.3	359	360	11.0	86.2
2025-10-20T21:24	10	0	0.1	0	0	359	0.2	358	359	11.0	86.8
2025-10-20T21:25	10	0	0.1	0	0	359	0.2	358	359	11.0	86.8
2025-10-20T21:26	10	0	0.1	0	0	359	0.2	358	359	10.9	87.0
2025-10-20T21:27	10	0	0.1	0	0	359	0.2	358	359	10.9	87.3
2025-10-20T21:28	10	0	0.1	0	0	359	0.3	358	359	10.9	87.3
2025-10-20T21:29	10	0	0.1	0	0	359	0.3	358	359	11.0	87.1
2025-10-20T21:30	10	0	0.1	0	0	359	0.2	359	360	11.0	87.1
2025-10-20T21:31	10	0	0.1	0	0	359	0.2	358	359	10.9	87.2
2025-10-20T21:32	10	0	0.1	0	0	358	0.3	358	359	10.9	87.6
2025-10-20T21:33	10	0	0.1	0	0	358	0.3	358	359	10.8	88.1
2025-10-20T21:34	10	0	0.1	0	0	358	0.2	358	359	10.8	88.6
2025-10-20T21:35	10	0	0.1	0	0	358	0.2	357	358	10.7	89.2
2025-10-20T21:36	10	0	0.1	0	0	357	0.2	357	358	10.6	89.5
2025-10-20T21:37	10	0	0.1	0	0	357	0.2	357	358	10.5	89.9
2025-10-20T21:38	10	0	0.1	0	0	357	0.2	357	358	10.5	89.8
2025-10-20T21:39	10	0	0.1	0	0	357	0.3	357	358	10.5	89.9
2025-10-20T21:40	10	0	0.1	0	0	357	0.3	357	358	10.5	90.0
2025-10-20T21:41	10	0	0.1	0	0	357	0.2	357	358	10.4	90.6
2025-10-20T21:42	10	0	0.1	0	0	358	0.3	357	358	10.4	90.6
2025-10-20T21:43	10	0	0.1	0	0	358	0.3	357	359	10.4	90.8
2025-10-20T21:44	10	0	0.1	0	0	358	0.2	357	359	10.4	91.2
2025-10-20T21:45	10	0	0.1	0	0	358	0.2	357	359	10.4	91.2
2025-10-20T21:46	10	0	0.1	0	0	358	0.2	357	358	10.4	91.3
2025-10-20T21:47	10	0	0.0	0	0	358	0.2	357	358	10.4	91.3
2025-10-20T21:48	10	0	0.1	0	0	358	0.2	357	358	10.5	91.1
2025-10-20T21:49	10	0	0.1	0	0	358	0.2	357	358	10.6	90.7
2025-10-20T21:50	10	0	0.1	0	0	358	0.2	357	358	10.7	89.8
2025-10-20T21:51	10	0	0.1	0	0	358	0.3	358	359	10.8	89.0
2025-10-20T21:52	10	0	0.1	0	0	359	0.2	358	359	10.8	88.3
2025-10-20T21:53	10	0	0.1	0	0	359	0.3	358	359	10.9	88.3
2025-10-20T21:54	10	0	0.1	0	0	359	0.3	358	359	10.7	89.4
2025-10-20T21:55	10	0	0.1	0	0	359	0.3	358	359	10.7	89.8
2025-10-20T21:56	10	0	0.1	0	0	359	0.3	358	359	10.7	89.8
2025-10-20T21:57	10	0	0.1	0	0	358	0.2	358	359	10.7	90.3
2025-10-20T21:58	10	0	0.1	0	0	358	0.3	357	358	10.6	90.9
2025-10-20T21:59	10	0	0.1	0	0	357	0.3	356	358	10.6	91.0
2025-10-20T22:00	10	0	0.1	0	0	356	0.3	356	357	10.6	91.1
2025-10-20T22:01	10	0	0.1	0	0	356	0.2	355	356	10.5	91.5
2025-10-20T22:02	10	0	0.1	0	0	355	0.4	354	355	10.4	91.9
2025-10-20T22:03	10	0	0.1	0	0	355	0.4	354	356	10.5	91.5
2025-10-20T22:04	10	0	0.1	0	0	355	0.3	354	355	10.5	91.8
2025-10-20T22:05	10	0	0.1	0	0	355	0.2	354	355	10.4	92.0
2025-10-20T22:06	10	0	0.1	0	0	355	0.2	354	355	10.4	92.2
2025-10-20T22:07	10	0	0.1	0	0	355	0.3	354	355	10.4	92.1
2025-10-20T22:08	10	0	0.1	0	0	355	0.2	354	355	10.4	91.9
2025-10-20T22:09	10	0	0.1	0	0	355	0.2	355	356	10.4	92.2
2025-10-20T22:10	10	0	0.1	0	0	356	0.2	355	356	10.4	92.1
2025-10-20T22:11	10	0	0.1	0	0	356	0.3	355	356	10.3	92.3
2025-10-20T22:12	10	0	0.1	0	0	355	0.2	355	356	10.3	92.4
2025-10-20T22:13	10	0	0.1	0	0	355	0.2	355	356	10.3	92.7
2025-10-20T22:14	10	0	0.1	0	0	355	0.2	354	355	10.3	92.7
2025-10-20T22:15	10	0	0.1	0	0	355	0.2	355	355	10.3	92.6
2025-10-20T22:16	10	0	0.1	0	0	355	0.3	354	355	10.3	92.8
2025-10-20T22:17	10	0	0.1	0	0	355	0.2	354	355	10.3	92.6
2025-10-20T22:18	10	0	0.1	0	0	355	0.2	355	356	10.3	92.2
2025-10-20T22:19	10	0	0.1	0	0	355	0.2	355	356	10.3	92.3
2025-10-20T22:20	10	0	0.1	0	0	356	0.3	355	357	10.4	91.7
2025-10-20T22:21	10	0	0.1	0	0	356	0.3	356	357	10.4	91.1
2025-10-20T22:22	10	0	0.1	0	0	356	0.2	356	357	10.5	90.7
2025-10-20T22:23	10	0	0.1	0	0	356	0.3	356	357	10.5	90.8
2025-10-20T22:24	10	0	0.1	0	0	356	0.2	356	357	10.4	91.2
2025-10-20T22:25	10	0	0.1	0	0	356	0.3	355	357	10.3	91.6
2025-10-20T22:26	10	0	0.1	0	0	356	0.2	356	357	10.4	91.3
2025-10-20T22:27	10	0	0.1	0	0	356	0.2	356	357	10.4	91.1
2025-10-20T22:28	10	0	0.1	0	0	356	0.3	356	357	10.4	91.1
2025-10-20T22:29	10	0	0.1	0	0	356	0.3	356	357	10.4	91.0
2025-10-20T22:30	10	0	0.1	0	0	357	0.2	356	357	10.4	91.1
2025-10-20T22:31	10	0	0.1	0	0	357	0.2	356	357	10.3	91.1
2025-10-20T22:32	10	0	0.1	0	0	357	0.3	356	357	10.4	90.9
2025-10-20T22:33	10	0	0.1	0	0	357	0.2	356	357	10.4	90.7
2025-10-20T22:34	10	0	0.1	0	0	357	0.2	357	358	10.4	90.6
2025-10-20T22:35	10	0	0.1	0	0	357	0.2	357	358	10.4	90.4
2025-10-20T22:36	10	0	0.1	0	0	357	0.2	357	358	10.4	90.3
2025-10-20T22:37	10	0	0.1	0	0	358	0.2	357	358	10.4	90.0
2025-10-20T22:38	10	0	0.1	0	0	358	0.2	357	358	10.5	89.8
2025-10-20T22:39	10	0	0.1	0	0	358	0.2	357	358	10.4	90.2
2025-10-20T22:40	10	0	0.1	0	0	358	0.2	357	358	10.4	90.3
2025-10-20T22:41	10	0	0.1	0	0	358	0.2	357	358	10.4	90.3
2025-10-20T22:42	10	0	0.1	0	0	358	0.3	358	359	10.4	90.6
2025-10-20T22:43	10	0	0.1	0	0	358	0.3	358	359	10.4	90.4
2025-10-20T22:44	10	0	0.1	0	0	358	0.2	358	359	10.4	90.7
2025-10-20T22:45	10	0	0.1	0	0	358	0.2	358	359	10.4	90.7
2025-10-20T22:46	10	0	0.1	0	0	359	0.3	358	359	10.4	90.7
2025-10-20T22:47	10	0	0.1	0	0	359	0.2	358	359	10.4	90.6
2025-10-20T22:48	10	0	0.1	0	0	359	0.2	358	359	10.4	90.7
2025-10-20T22:49	10	0	0.1	0	0	359	0.3	358	359	10.4	90.6
2025-10-20T22:50	10	0	0.1	0	0	358	0.3	358	359	10.4	91.0
2025-10-20T22:51	10	0	0.1	0	0	358	0.2	358	359	10.4	91.0
2025-10-20T22:52	10	0	0.1	0	0	358	0.2	358	359	10.4	90.6
2025-10-20T22:53	10	0	0.1	0	0	358	0.2	358	359	10.5	90.0
2025-10-20T22:54	10	0	0.1	0	0	358	0.3	358	359	10.5	89.8
2025-10-20T22:55	10	0	0.1	0	0	359	0.3	358	360	10.6	89.3
2025-10-20T22:56	10	0	0.1	0	0	359	0.3	358	359	10.5	89.5
2025-10-20T22:57	10	0	0.1	0	0	359	0.2	358	360	10.5	89.5
2025-10-20T22:58	10	0	0.1	0	0	359	0.2	358	359	10.5	89.9
2025-10-20T22:59	10	0	0.1	0	0	359	0.3	358	359	10.5	90.0
2025-10-20T23:00	10	0	0.1	0	0	359	0.2	358	359	10.5	89.6
2025-10-20T23:01	10	0	0.1	0	0	359	0.2	358	359	10.5	90.2
2025-10-20T23:02	10	0	0.1	0	0	359	0.3	358	360	10.5	90.1
2025-10-20T23:03	10	0	0.1	0	0	359	0.2	358	359	10.5	90.1
2025-10-20T23:04	10	0	0.1	0	0	359	0.3	358	360	10.5	90.1
2025-10-20T23:05	10	0	0.1	0	0	359	0.3	359	360	10.5	90.0
2025-10-20T23:06	10	0	0.1	0	0	359	0.2	358	359	10.6	89.3
2025-10-20T23:07	10	0	0.1	0	0	359	0.2	359	360	10.7	88.9
2025-10-20T23:08	10	0	0.1	0	0	359	0.2	359	360	10.7	89.0
2025-10-20T23:09	10	0	0.1	0	0	359	0.3	358	359	10.6	89.2
2025-10-20T23:10	10	0	0.1	0	0	359	0.2	358	359	10.7	89.0
2025-10-20T23:11	10	0	0.1	0	0	359	0.2	358	359	10.7	89.1
2025-10-20T23:12	10	0	0.1	0	1	359	0.3	358	360	10.7	89.3
2025-10-20T23:13	10	0	0.1	0	0	359	0.2	358	359	10.7	89.5
2025-10-20T23:14	10	0	0.1	0	0	359	0.2	359	360	10.6	89.8
2025-10-20T23:15	10	0	0.1	0	0	359	0.3	359	360	10.6	89.8
2025-10-20T23:16	10	0	0.1	0	0	359	0.2	359	360	10.6	89.9
2025-10-20T23:17	10	0	0.1	0	0	359	0.2	359	360	10.6	90.1
2025-10-20T23:18	10	0	0.1	0	0	359	0.3	359	360	10.7	89.8
2025-10-20T23:19	10	0	0.1	0	0	360	0.3	359	361	10.9	88.7
2025-10-20T23:20	10	0	0.1	0	0	360	0.2	359	360	10.8	89.1
2025-10-20T23:21	10	0	0.1	0	0	360	0.3	360	361	10.8	89.3
2025-10-20T23:22	10	0	0.1	0	0	360	0.3	360	361	10.8	89.2
2025-10-20T23:23	10	0	0.1	0	0	360	0.2	360	361	10.8	89.1
2025-10-20T23:24	10	0	0.1	0	0	360	0.3	359	361	10.8	89.2
2025-10-20T23:25	10	0	0.1	0	0	360	0.2	359	360	10.8	89.2
2025-10-20T23:26	10	0	0.1	0	0	359	0.2	359	360	10.9	89.0
2025-10-20T23:27	10	0	0.1	0	0	360	0.2	359	360	10.9	88.9
2025-10-20T23:28	10	0	0.1	0	0	360	0.2	359	360	10.8	89.1
2025-10-20T23:29	10	0	0.1	0	0	360	0.3	359	360	10.9	88.5
2025-10-20T23:30	10	0	0.1	0	0	359	0.3	359	360	10.9	88.7
2025-10-20T23:31	10	0	0.1	0	0	359	0.2	358	360	10.9	88.8
2025-10-20T23:32	10	0	0.1	0	0	359	0.3	358	359	11.0	88.3
2025-10-20T23:33	10	0	0.1	0	0	358	0.2	358	359	11.1	88.0
2025-10-20T23:34	10	0	0.1	0	0	358	0.3	358	359	11.1	87.6
2025-10-20T23:35	10	0	0.1	0	0	358	0.3	358	359	11.2	87.3
2025-10-20T23:36	10	0	0.1	0	1	358	0.2	358	359	11.1	87.7
2025-10-20T23:37	10	0	0.1	0	0	358	0.3	358	359	11.2	87.4
2025-10-20T23:38	10	0	0.1	0	0	358	0.4	357	359	11.1	87.6
2025-10-20T23:39	10	0	0.1	0	0	358	0.2	357	358	11.2	87.5
2025-10-20T23:40	10	0	0.1	0	0	357	0.2	357	358	11.1	87.9
2025-10-20T23:41	10	0	0.1	0	0	357	0.3	356	357	11.0	88.6
2025-10-20T23:42	10	0	0.1	0	0	357	0.2	356	357	11.0	88.6
2025-10-20T23:43	10	0	0.1	0	0	356	0.3	356	357	10.9	89.2
2025-10-20T23:44	10	0	0.1	0	0	356	0.3	355	357	10.9	89.3
2025-10-20T23:45	10	0	0.1	0	0	356	0.2	356	357	10.9	89.1
2025-10-20T23:46	10	0	0.1	0	0	356	0.3	355	357	10.9	89.3
2025-10-20T23:47	10	0	0.1	0	0	356	0.2	355	356	10.9	89.3
2025-10-20T23:48	10	0	0.1	0	0	356	0.2	355	356	10.9	89.3
2025-10-20T23:49	10	0	0.1	0	0	356	0.3	355	356	10.9	89.0
2025-10-20T23:50	10	0	0.1	0	0	355	0.3	355	356	10.9	89.2
2025-10-20T23:51	10	0	0.1	0	0	356	0.3	355	356	10.9	89.2
2025-10-20T23:52	10	0	0.1	0	0	356	0.3	355	356	10.9	89.1
2025-10-20T23:53	10	0	0.1	0	0	355	0.3	355	356	10.8	89.2
2025-10-20T23:54	10	0	0.1	0	0	355	0.2	355	356	10.8	89.2
2025-10-20T23:55	10	0	0.1	0	0	355	0.2	354	355	10.8	89.3
2025-10-20T23:56	10	0	0.1	0	0	356	0.6	354	357	10.9	88.7
2025-10-20T23:57	10	0	0.1	0	0	356	0.2	355	356	10.9	88.4
2025-10-20T23:58	10	0	0.1	0	0	356	0.3	355	357	10.9	88.8
2025-10-20T23:59	10	0	0.1	0	0	356	0.3	356	357	10.8	89.0
2025-10-21T00:00	10	0	0.1	0	0	357	0.3	356	357	10.9	88.9
2025-10-21T00:01	10	0	0.1	0	0	358	0.3	357	358	11.0	87.9
2025-10-21T00:02	10	0	0.1	0	0	358	0.3	358	359	11.1	87.3
2025-10-21T00:03	10	0	0.1	0	0	359	0.2	358	359	11.3	86.5
2025-10-21T00:04	10	0	0.1	0	0	358	0.3	358	359	11.2	86.9
2025-10-21T00:05	10	0	0.1	0	0	358	0.3	358	359	11.3	86.5
2025-10-21T00:06	10	0	0.1	0	0	358	0.3	358	359	11.3	86.3
2025-10-21T00:07	10	0	0.1	0	0	359	0.2	358	359	11.3	86.4
2025-10-21T00:08	10	0	0.1	0	1	359	0.3	359	360	11.3	86.3
2025-10-21T00:09	10	0	0.1	0	1	359	0.3	359	360	11.3	86.3
2025-10-21T00:10	10	0	0.1	0	0	359	0.3	359	360	11.4	86.2
2025-10-21T00:11	10	0	0.1	0	0	360	0.3	359	360	11.4	85.9
2025-10-21T00:12	10	0	0.1	0	0	360	0.2	359	360	11.4	86.3
2025-10-21T00:13	10	0	0.1	0	1	360	0.3	360	361	11.4	86.2
2025-10-21T00:14	10	0	0.1	0	0	360	0.2	359	361	11.4	86.4
2025-10-21T00:15	10	0	0.1	0	0	360	0.3	359	360	11.3	87.2
2025-10-21T00:16	10	0	0.1	0	0	360	0.2	360	361	11.4	87.1
2025-10-21T00:17	10	0	0.1	0	1	361	0.7	360	362	11.8	85.4
2025-10-21T00:18	10	0	0.1	0	1	362	0.3	361	362	12.0	84.8
2025-10-21T00:19	10	0	0.1	0	1	362	0.3	361	362	11.8	85.3
2025-10-21T00:20	10	0	0.1	0	1	362	0.3	362	363	12.0	84.5
2025-10-21T00:21	10	0	0.1	0	1	362	0.2	362	363	11.9	84.9
2025-10-21T00:22	10	0	0.1	0	1	362	0.4	361	363	11.8	85.7
2025-10-21T00:23	10	0	0.1	0	0	362	0.2	362	363	11.9	85.2
2025-10-21T00:24	10	0	0.1	0	0	362	0.3	362	363	12.0	84.9
2025-10-21T00:25	10	0	0.1	0	0	362	0.3	361	362	11.9	85.4
2025-10-21T00:26	10	0	0.1	0	0	362	0.2	361	362	11.9	85.5
2025-10-21T00:27	10	0	0.1	0	0	362	0.2	361	362	11.8	86.0
2025-10-21T00:28	10	0	0.1	0	0	362	0.3	361	362	11.8	86.1
2025-10-21T00:29	10	0	0.1	0	0	362	0.3	361	362	11.8	86.1
2025-10-21T00:30	10	0	0.1	0	0	362	0.3	362	363	11.8	86.1
2025-10-21T00:31	10	0	0.1	0	0	362	0.2	362	363	11.8	86.6
2025-10-21T00:32	10	0	0.1	0	0	362	0.2	362	363	11.8	86.5
2025-10-21T00:33	10	0	0.1	0	0	363	0.3	363	364	11.9	86.1
2025-10-21T00:34	10	0	0.1	0	0	363	0.3	363	364	11.9	85.8
2025-10-21T00:35	10	0	0.1	0	0	363	0.3	363	364	11.9	86.1
2025-10-21T00:36	10	0	0.1	0	0	364	0.2	363	364	11.9	85.8
2025-10-21T00:37	10	0	0.1	0	0	364	0.3	363	364	11.9	86.0
2025-10-21T00:38	10	0	0.1	0	0	364	0.2	363	364	11.9	86.2
2025-10-21T00:39	10	0	0.1	0	0	364	0.2	363	364	11.8	86.5
2025-10-21T00:40	10	0	0.1	0	0	363	0.3	363	364	11.9	86.3
2025-10-21T00:41	10	0	0.1	0	0	364	0.2	363	364	11.9	86.3
2025-10-21T00:42	10	0	0.1	0	0	363	0.3	363	364	11.8	86.4
2025-10-21T00:43	10	0	0.1	0	0	363	0.3	363	364	11.8	86.8
2025-10-21T00:44	10	0	0.1	0	0	364	0.2	363	364	11.8	86.4
2025-10-21T00:45	10	0	0.1	0	0	364	0.3	363	364	11.8	86.5
2025-10-21T00:46	10	0	0.1	0	0	364	0.3	363	364	11.9	86.3
2025-10-21T00:47	10	0	0.1	0	0	364	0.2	363	364	11.9	86.3
2025-10-21T00:48	10	0	0.1	0	0	364	0.3	363	364	11.9	86.2
2025-10-21T00:49	10	0	0.1	0	0	364	0.2	363	365	11.9	86.4
2025-10-21T00:50	10	0	0.1	0	0	364	0.3	363	364	11.8	86.7
2025-10-21T00:51	10	0	0.0	0	0	364	0.2	363	364	11.8	86.7
2025-10-21T00:52	10	0	0.1	0	0	364	0.3	363	364	11.8	86.8
2025-10-21T00:53	10	0	0.1	0	0	364	0.2	363	364	11.8	87.1
2025-10-21T00:54	10	0	0.1	0	0	364	0.2	363	364	11.8	87.3
2025-10-21T00:55	10	0	0.1	0	0	364	0.3	363	364	11.7	87.9
2025-10-21T00:56	10	0	0.1	0	0	363	0.2	363	364	11.6	88.1
2025-10-21T00:57	10	0	0.1	0	0	363	0.2	363	364	11.6	88.1
2025-10-21T00:58	10	0	0.1	0	0	363	0.3	363	364	11.6	88.2
2025-10-21T00:59	10	0	0.1	0	0	363	0.2	362	363	11.6	88.8
2025-10-21T01:00	10	0	0.1	0	0	363	0.2	363	364	11.6	88.3
2025-10-21T01:01	10	0	0.1	0	0	363	0.3	363	364	11.6	88.8
2025-10-21T01:02	10	0	0.1	0	0	363	0.2	362	363	11.5	89.4
2025-10-21T01:03	10	0	0.1	0	0	363	0.2	363	364	11.6	88.8
2025-10-21T01:04	10	0	0.1	0	0	363	0.2	363	364	11.6	88.7
2025-10-21T01:05	10	0	0.1	0	0	363	0.2	363	364	11.6	88.9
2025-10-21T01:06	10	0	0.1	0	0	363	0.2	363	364	11.6	88.8
2025-10-21T01:07	10	0	0.1	0	0	363	0.2	362	363	11.6	89.4
2025-10-21T01:08	10	0	0.1	0	0	363	0.2	363	364	11.6	89.1
2025-10-21T01:09	10	0	0.1	0	0	363	0.2	363	364	11.6	89.0
2025-10-21T01:10	10	0	0.1	0	0	363	0.3	362	364	11.6	89.3
2025-10-21T01:11	10	0	0.1	0	0	363	0.2	362	364	11.5	89.6
2025-10-21T01:12	10	0	0.1	0	0	363	0.2	363	364	11.6	89.1
2025-10-21T01:13	10	0	0.1	0	0	363	0.3	363	364	11.6	89.2
2025-10-21T01:14	10	0	0.1	0	0	363	0.2	363	364	11.5	89.7
2025-10-21T01:15	10	0	0.1	0	0	363	0.3	363	364	11.5	89.8
2025-10-21T01:16	10	0	0.1	0	0	363	0.3	363	364	11.6	89.5
2025-10-21T01:17	10	0	0.1	0	0	363	0.3	362	363	11.5	89.9
2025-10-21T01:18	10	0	0.1	0	0	363	0.3	363	364	11.5	89.6
2025-10-21T01:19	10	0	0.1	0	0	363	0.2	363	364	11.6	89.4
2025-10-21T01:20	10	0	0.1	0	0	363	0.2	363	364	11.6	89.4
2025-10-21T01:21	10	0	0.1	0	0	363	0.3	363	364	11.5	89.6
2025-10-21T01:22	10	0	0.1	0	0	363	0.2	363	364	11.5	89.5
2025-10-21T01:23	10	0	0.1	0	0	363	0.2	363	364	11.5	89.5
2025-10-21T01:24	10	0	0.1	0	0	363	0.2	363	364	11.4	90.0
2025-10-21T01:25	10	0	0.1	0	0	363	0.2	363	364	11.5	89.3
2025-10-21T01:26	10	0	0.1	0	0	363	0.2	363	364	11.5	88.9
2025-10-21T01:27	10	0	0.1	0	0	363	0.2	363	364	11.5	88.3
2025-10-21T01:28	10	0	0.1	0	0	363	0.2	363	363	11.6	87.5
2025-10-21T01:29	10	0	0.1	0	0	363	0.2	363	364	11.6	87.3
2025-10-21T01:30	10	0	0.0	0	0	363	0.2	363	364	11.6	87.0
2025-10-21T01:31	10	0	0.1	0	0	363	0.3	363	364	11.5	86.9
2025-10-21T01:32	10	0	0.1	0	0	363	0.3	362	363	11.5	86.8
2025-10-21T01:33	10	0	0.1	0	0	363	0.2	362	363	11.6	85.6
2025-10-21T01:34	10	0	0.1	0	0	363	0.2	362	363	11.6	84.8
2025-10-21T01:35	10	0	0.0	0	0	363	0.2	362	363	11.6	84.9
2025-10-21T01:36	10	0	0.1	0	0	363	0.2	362	363	11.6	84.8
2025-10-21T01:37	10	0	0.1	0	0	362	0.2	362	363	11.6	84.3
2025-10-21T01:38	10	0	0.1	0	0	363	0.3	362	363	11.6	84.0
2025-10-21T01:39	10	0	0.1	0	0	362	0.2	362	363	11.5	84.4
2025-10-21T01:40	10	0	0.1	0	0	362	0.2	361	363	11.5	84.3
2025-10-21T01:41	10	0	0.1	0	0	362	0.2	362	363	11.5	84.1
2025-10-21T01:42	10	0	0.1	0	0	362	0.2	362	363	11.5	84.4
2025-10-21T01:43	10	0	0.1	0	0	362	0.2	362	362	11.4	84.7
2025-10-21T01:44	10	0	0.1	0	0	362	0.2	362	363	11.5	84.2
2025-10-21T01:45	10	0	0.1	0	0	362	0.2	362	363	11.5	84.0
2025-10-21T01:46	10	0	0.1	0	0	362	0.2	362	363	11.5	83.8
2025-10-21T01:47	10	0	0.1	0	1	362	0.2	362	363	11.5	83.6
2025-10-21T01:48	10	0	0.1	0	0	362	0.3	362	363	11.5	83.6
2025-10-21T01:49	10	0	0.1	0	0	362	0.2	361	362	11.4	84.3
2025-10-21T01:50	10	0	0.1	0	0	362	0.2	361	362	11.4	84.2
2025-10-21T01:51	10	0	0.1	0	1	362	0.2	362	363	11.4	84.4
2025-10-21T01:52	10	0	0.1	0	0	362	0.3	361	362	11.4	84.0
2025-10-21T01:53	10	0	0.1	0	0	362	0.2	362	363	11.5	83.6
2025-10-21T01:54	10	0	0.1	0	0	362	0.2	361	363	11.5	83.2
2025-10-21T01:55	10	0	0.1	0	0	362	0.3	361	363	11.4	84.5
2025-10-21T01:56	10	0	0.1	0	0	362	0.2	361	362	11.4	84.0
2025-10-21T01:57	10	0	0.1	0	0	362	0.2	362	363	11.5	83.4
2025-10-21T01:58	10	0	0.1	0	0	362	0.2	362	363	11.4	83.7
2025-10-21T01:59	10	0	0.1	0	0	362	0.2	361	363	11.4	84.2
2025-10-21T02:00	10	0	0.0	0	0	362	0.2	361	362	11.4	84.6
2025-10-21T02:01	10	0	0.1	0	0	362	0.2	361	362	11.4	84.3
2025-10-21T02:02	10	0	0.1	0	0	362	0.2	361	363	11.4	84.1
2025-10-21T02:03	10	0	0.1	0	0	362	0.2	362	363	11.5	83.7
2025-10-21T02:04	10	0	0.1	0	0	362	0.2	362	363	11.5	83.6
2025-10-21T02:05	10	0	0.1	0	0	362	0.2	362	363	11.5	83.7
2025-10-21T02:06	10	0	0.1	0	0	362	0.2	362	363	11.5	83.7
2025-10-21T02:07	10	0	0.1	0	0	362	0.3	362	363	11.4	84.0
2025-10-21T02:08	10	0	0.1	0	0	362	0.2	361	362	11.4	84.2
2025-10-21T02:09	10	0	0.0	0	0	362	0.3	361	362	11.4	84.4
2025-10-21T02:10	10	0	0.1	0	0	362	0.2	362	363	11.4	84.3
2025-10-21T02:11	10	0	0.1	0	0	362	0.2	362	363	11.4	84.6
2025-10-21T02:12	10	0	0.0	0	0	362	0.2	361	362	11.4	84.7
2025-10-21T02:13	10	0	0.1	0	0	362	0.2	361	362	11.4	85.1
2025-10-21T02:14	10	0	0.1	0	0	362	0.2	361	362	11.3	85.3
2025-10-21T02:15	10	0	0.1	0	0	362	0.2	361	363	11.4	84.6
2025-10-21T02:16	10	0	0.1	0	0	362	0.2	361	362	11.4	84.2
2025-10-21T02:17	10	0	0.1	0	0	362	0.2	361	362	11.4	84.8
2025-10-21T02:18	10	0	0.1	0	0	362	0.3	361	363	11.4	84.6
2025-10-21T02:19	10	0	0.1	0	0	362	0.3	361	362	11.4	85.0
2025-10-21T02:20	10	0	0.1	0	0	362	0.3	361	363	11.4	84.9
2025-10-21T02:21	10	0	0.1	0	0	362	0.2	362	363	11.5	84.3
2025-10-21T02:22	10	0	0.1	0	0	362	0.2	361	362	11.4	84.7
2025-10-21T02:23	10	0	0.1	0	0	362	0.3	361	362	11.4	85.1
2025-10-21T02:24	10	0	0.0	0	0	362	0.2	361	362	11.4	84.9
2025-10-21T02:25	10	0	0.1	0	0	362	0.2	362	363	11.5	84.4
2025-10-21T02:26	10	0	0.1	0	1	362	0.2	361	362	11.5	84.5
2025-10-21T02:27	10	0	0.1	0	1	362	0.2	361	362	11.5	84.5
2025-10-21T02:28	10	0	0.1	0	1	362	0.2	361	362	11.4	85.4
2025-10-21T02:29	10	0	0.1	0	1	361	0.2	361	362	11.3	85.4
2025-10-21T02:30	10	0	0.1	0	1	361	0.2	360	362	11.3	85.5
2025-10-21T02:31	10	0	0.1	0	0	361	0.2	361	362	11.4	85.4
2025-10-21T02:32	10	0	0.1	0	1	361	0.2	360	361	11.3	85.6
2025-10-21T02:33	10	0	0.1	0	0	361	0.3	360	361	11.4	85.3
2025-10-21T02:34	10	0	0.1	0	0	361	0.2	360	361	11.4	85.2
2025-10-21T02:35	10	0	0.1	0	0	360	0.3	359	361	11.3	85.6
2025-10-21T02:36	10	0	0.1	0	0	360	0.2	360	361	11.4	85.3
2025-10-21T02:37	10	0	0.1	0	0	360	0.2	360	361	11.4	85.3
2025-10-21T02:38	10	0	0.1	0	0	360	0.2	360	361	11.3	85.8
2025-10-21T02:39	10	0	0.1	0	0	360	0.2	360	361	11.3	85.9
2025-10-21T02:40	10	0	0.1	0	0	360	0.2	360	361	11.3	85.6
2025-10-21T02:41	10	0	0.1	0	0	361	0.3	360	361	11.3	85.6
2025-10-21T02:42	10	0	0.1	0	0	361	0.2	360	361	11.4	85.4
2025-10-21T02:43	10	0	0.1	0	0	361	0.3	360	361	11.4	85.5
2025-10-21T02:44	10	0	0.1	0	0	361	0.2	360	361	11.3	85.7
2025-10-21T02:45	10	0	0.1	0	0	361	0.3	360	362	11.4	85.3
2025-10-21T02:46	10	0	0.1	0	0	361	0.2	360	361	11.4	85.1
2025-10-21T02:47	10	0	0.1	0	0	360	0.2	360	361	11.4	84.9
2025-10-21T02:48	10	0	0.1	0	0	360	0.3	360	361	11.4	85.2
2025-10-21T02:49	10	0	0.0	0	0	361	0.2	360	361	11.4	85.3
2025-10-21T02:50	10	0	0.1	0	0	360	0.3	360	361	11.4	85.5
2025-10-21T02:51	10	0	0.1	0	0	361	0.3	360	361	11.4	85.4
2025-10-21T02:52	10	0	0.1	0	0	360	0.3	360	361	11.4	85.3
2025-10-21T02:53	10	0	0.1	0	1	360	0.3	359	361	11.4	85.4
2025-10-21T02:54	10	0	0.1	0	0	360	0.2	360	361	11.4	85.4
2025-10-21T02:55	10	0	0.1	0	1	360	0.3	360	361	11.4	85.4
2025-10-21T02:56	10	0	0.1	0	0	360	0.2	360	361	11.3	85.4
2025-10-21T02:57	10	0	0.1	0	0	360	0.3	360	361	11.4	85.1
2025-10-21T02:58	10	0	0.1	0	0	360	0.3	360	361	11.4	85.2
2025-10-21T02:59	10	0	0.1	0	0	361	0.2	360	361	11.4	84.8
2025-10-21T03:00	10	0	0.1	0	0	361	0.2	360	361	11.4	85.1
2025-10-21T03:01	10	0	0.1	0	0	361	0.2	360	362	11.4	85.2
2025-10-21T03:02	10	0	0.1	0	0	361	0.2	361	362	11.4	85.0
2025-10-21T03:03	10	0	0.1	0	0	362	0.2	361	362	11.4	85.4
2025-10-21T03:04	10	0	0.1	0	0	362	0.2	361	362	11.4	85.7
2025-10-21T03:05	10	0	0.1	0	1	362	0.2	361	362	11.4	85.6
2025-10-21T03:06	10	0	0.1	0	0	362	0.2	362	363	11.4	85.0
2025-10-21T03:07	10	0	0.1	0	0	362	0.2	362	362	11.4	85.7
2025-10-21T03:08	10	0	0.1	0	0	362	0.3	361	363	11.4	85.4
2025-10-21T03:09	10	0	0.0	0	0	362	0.2	361	362	11.4	85.3
2025-10-21T03:10	10	0	0.1	0	0	362	0.2	362	363	11.4	85.3
2025-10-21T03:11	10	0	0.0	0	0	362	0.2	362	363	11.3	85.9
2025-10-21T03:12	10	0	0.1	0	0	362	0.2	362	362	11.3	86.3
2025-10-21T03:13	10	0	0.1	0	0	362	0.2	361	362	11.2	86.9
2025-10-21T03:14	10	0	0.1	0	0	362	0.2	361	362	11.2	87.0
2025-10-21T03:15	10	0	0.1	0	0	362	0.2	361	362	11.2	86.8
2025-10-21T03:16	10	0	0.1	0	0	362	0.2	362	362	11.2	87.3
2025-10-21T03:17	10	0	0.1	0	0	362	0.2	361	362	11.1	88.3
2025-10-21T03:18	10	0	0.1	0	0	362	0.2	361	362	11.1	88.7
2025-10-21T03:19	10	0	0.1	0	0	362	0.2	361	362	11.0	89.3
2025-10-21T03:20	10	0	0.1	0	0	361	0.3	361	362	11.0	89.4
2025-10-21T03:21	10	0	0.1	0	0	361	0.2	361	362	11.0	88.9
2025-10-21T03:22	10	0	0.1	0	0	361	0.3	361	362	11.0	89.0
2025-10-21T03:23	10	0	0.1	0	0	361	0.2	361	362	11.0	89.2
2025-10-21T03:24	10	0	0.1	0	0	362	0.2	361	362	11.1	88.1
2025-10-21T03:25	10	0	0.1	0	0	362	0.3	361	362	11.1	87.5
2025-10-21T03:26	10	0	0.1	0	0	361	0.3	361	362	11.1	87.2
2025-10-21T03:27	10	0	0.0	-1	0	362	0.3	361	362	11.2	86.6
2025-10-21T03:28	10	-1	0.1	-1	0	362	0.2	361	362	11.2	86.8
2025-10-21T03:29	10	-1	0.1	-1	-1	362	0.2	361	362	11.2	86.7
2025-10-21T03:30	10	-1	0.1	-1	-1	361	0.3	361	362	11.2	87.2
2025-10-21T03:31	10	-1	0.1	-1	-1	361	0.2	361	362	11.1	87.9
2025-10-21T03:32	10	-1	0.1	-1	-1	361	0.3	361	362	11.1	87.8
2025-10-21T03:33	10	-1	0.1	-1	0	361	0.2	361	362	11.1	87.7
2025-10-21T03:34	10	-1	0.1	-1	0	362	0.2	361	362	11.2	86.9
2025-10-21T03:35	10	-1	0.1	-1	0	362	0.3	361	362	11.2	86.7
2025-10-21T03:36	10	-1	0.1	-1	-1	361	0.3	361	362	11.1	87.4
2025-10-21T03:37	10	-1	0.1	-1	-1	361	0.2	361	362	11.0	88.1
2025-10-21T03:38	10	-1	0.1	-1	-1	361	0.2	361	362	10.9	89.1
2025-10-21T03:39	10	-1	0.1	-1	-1	361	0.3	360	362	10.9	89.6
2025-10-21T03:40	10	-1	0.1	-2	-1	361	0.3	361	362	10.9	90.2
2025-10-21T03:41	10	-1	0.1	-2	-1	361	0.2	361	362	10.9	90.4
2025-10-21T03:42	10	-1	0.1	-2	-1	361	0.2	361	362	10.8	91.3
2025-10-21T03:43	10	-1	0.1	-2	-1	361	0.2	361	362	10.7	92.0
2025-10-21T03:44	10	-1	0.1	-2	-1	361	0.2	361	362	10.8	91.9
2025-10-21T03:45	10	-1	0.1	-1	-1	362	0.3	361	362	10.9	91.6
2025-10-21T03:46	10	-1	0.1	-1	-1	362	0.2	362	363	11.1	90.9
2025-10-21T03:47	10	-1	0.1	-1	-1	362	0.2	362	363	11.1	91.0
2025-10-21T03:48	10	-1	0.1	-1	-1	362	0.3	361	363	11.1	91.4
2025-10-21T03:49	10	-1	0.1	-1	-1	362	0.2	362	363	11.0	91.8
2025-10-21T03:50	10	-1	0.1	-1	-1	362	0.3	362	363	11.0	91.9
2025-10-21T03:51	10	-1	0.1	-1	-1	363	0.3	362	363	11.1	91.8
2025-10-21T03:52	10	-1	0.1	-1	-1	363	0.2	362	363	11.0	92.7
2025-10-21T03:53	10	-1	0.1	-1	-1	363	0.2	362	363	11.0	92.8
2025-10-21T03:54	10	-1	0.1	-1	-1	363	0.2	362	363	11.1	92.5
2025-10-21T03:55	10	-1	0.1	-1	-1	363	0.2	362	363	11.1	92.6
2025-10-21T03:56	10	-1	0.1	-2	-1	363	0.2	362	363	11.1	92.6
2025-10-21T03:57	10	-1	0.1	-1	-1	363	0.2	362	363	11.1	92.9
2025-10-21T03:58	10	-1	0.1	-1	-1	362	0.2	362	363	11.0	93.6
2025-10-21T03:59	10	-1	0.1	-1	-1	363	0.2	362	363	11.1	93.4
2025-10-21T04:00	10	-1	0.1	-1	-1	363	0.2	362	363	11.2	93.2
2025-10-21T04:01	10	-1	0.1	-1	-1	363	0.3	362	363	11.2	93.2
2025-10-21T04:02	10	-1	0.1	-1	-1	363	0.2	362	364	11.3	93.2
2025-10-21T04:03	10	-1	0.1	-1	-1	363	0.2	363	364	11.3	93.1
2025-10-21T04:04	10	-1	0.1	-1	-1	363	0.2	363	364	11.3	93.5
2025-10-21T04:05	10	-1	0.1	-1	-1	364	0.2	363	364	11.3	93.4
2025-10-21T04:06	10	-1	0.1	-1	-1	364	0.2	363	364	11.4	93.2
2025-10-21T04:07	10	-1	0.1	-1	-1	364	0.2	363	364	11.4	92.9
2025-10-21T04:08	10	-1	0.1	-1	-1	364	0.2	363	365	11.4	92.7
2025-10-21T04:09	10	-1	0.1	-1	-1	364	0.2	364	365	11.5	92.3
2025-10-21T04:10	10	-1	0.1	-1	-1	364	0.2	364	365	11.5	92.1
2025-10-21T04:11	10	-1	0.1	-1	-1	364	0.3	363	364	11.5	92.4
2025-10-21T04:12	10	-1	0.1	-1	-1	364	0.3	363	365	11.4	92.8
2025-10-21T04:13	10	-1	0.1	-1	-1	364	0.2	363	364	11.5	92.8
2025-10-21T04:14	10	-1	0.1	-1	-1	364	0.2	363	365	11.6	92.2
2025-10-21T04:15	10	-1	0.1	-1	-1	364	0.3	364	365	11.5	92.5
2025-10-21T04:16	10	-1	0.1	-1	-1	364	0.3	363	365	11.5	92.3
2025-10-21T04:17	10	-1	0.1	-1	-1	364	0.3	363	365	11.5	93.0
2025-10-21T04:18	10	-1	0.1	-1	-1	364	0.3	363	364	11.5	92.4
2025-10-21T04:19	10	-1	0.1	-1	-1	363	0.2	363	364	11.5	92.6
2025-10-21T04:20	10	-1	0.1	-1	-1	363	0.2	363	364	11.5	92.6
2025-10-21T04:21	10	-1	0.1	-1	-1	363	0.2	363	364	11.5	92.5
2025-10-21T04:22	10	-1	0.1	-1	-1	363	0.3	362	363	11.5	92.8
2025-10-21T04:23	10	-1	0.1	-1	-1	362	0.3	362	363	11.5	92.9
2025-10-21T04:24	10	-1	0.1	-1	-1	362	0.2	361	362	11.4	93.3
2025-10-21T04:25	10	-1	0.1	-1	-1	362	0.3	361	362	11.4	93.4
2025-10-21T04:26	10	-1	0.1	-1	0	361	0.2	361	362	11.4	93.3
2025-10-21T04:27	10	-1	0.1	-1	0	361	0.2	361	362	11.4	93.2
2025-10-21T04:28	10	-1	0.1	-1	0	361	0.2	361	361	11.3	93.5
2025-10-21T04:29	10	-1	0.1	-1	0	361	0.2	361	361	11.3	93.5
2025-10-21T04:30	10	-1	0.1	-1	0	361	0.3	360	362	11.3	93.7
2025-10-21T04:31	10	-1	0.1	-1	0	361	0.2	361	362	11.2	94.0
2025-10-21T04:32	10	-1	0.1	-1	0	361	0.2	361	362	11.2	94.3
2025-10-21T04:33	10	-1	0.1	-1	0	361	0.3	361	362	11.2	93.9
2025-10-21T04:34	10	-1	0.1	-1	0	361	0.2	361	362	11.1	93.8
2025-10-21T04:35	10	-1	0.1	-1	0	362	0.3	361	362	11.2	93.4
2025-10-21T04:36	10	-1	0.1	-1	0	361	0.2	361	362	11.1	93.9
2025-10-21T04:37	10	-1	0.1	-1	0	361	0.3	361	362	11.0	94.5
2025-10-21T04:38	10	0	0.1	-1	0	361	0.3	361	362	11.1	94.2
2025-10-21T04:39	10	0	0.1	-1	0	361	0.2	361	362	11.1	94.2
2025-10-21T04:40	10	0	0.1	-1	0	362	0.2	362	362	11.1	93.6
2025-10-21T04:41	10	0	0.1	0	0	362	0.3	361	362	11.1	93.6
2025-10-21T04:42	10	0	0.1	-1	0	362	0.2	361	362	11.1	93.8
2025-10-21T04:43	10	0	0.1	0	0	362	0.2	361	362	11.0	94.0
2025-10-21T04:44	10	0	0.1	0	0	362	0.3	361	362	11.0	93.8
2025-10-21T04:45	10	0	0.1	0	0	362	0.3	361	362	11.0	94.2
2025-10-21T04:46	10	0	0.1	0	0	362	0.2	361	362	11.0	94.2
2025-10-21T04:47	10	0	0.1	0	0	362	0.2	361	362	11.0	94.3
2025-10-21T04:48	10	0	0.1	0	0	362	0.3	361	362	11.0	94.1
2025-10-21T04:49	10	0	0.1	0	0	362	0.3	361	362	11.0	93.4
2025-10-21T04:50	10	0	0.1	-1	0	361	0.2	361	362	11.0	93.4
2025-10-21T04:51	10	0	0.1	0	0	361	0.2	361	362	11.0	93.7
2025-10-21T04:52	10	0	0.1	0	0	361	0.3	361	362	11.0	93.0
2025-10-21T04:53	10	0	0.1	0	0	361	0.3	361	362	11.0	92.9
2025-10-21T04:54	10	0	0.1	0	0	361	0.2	361	362	11.0	93.1
2025-10-21T04:55	10	0	0.1	0	0	362	0.2	361	362	11.0	93.2
2025-10-21T04:56	10	0	0.0	0	0	362	0.3	361	362	11.0	93.1
2025-10-21T04:57	10	0	0.1	0	0	362	0.3	361	362	11.0	93.0
2025-10-21T04:58	10	0	0.1	0	0	362	0.2	361	362	11.0	92.8
2025-10-21T04:59	10	0	0.1	0	0	362	0.2	361	362	11.0	93.2
2025-10-21T05:00	10	0	0.1	0	0	362	0.3	361	363	10.9	93.4
2025-10-21T05:01	10	0	0.1	0	0	362	0.2	362	363	11.0	92.7
2025-10-21T05:02	10	0	0.1	0	0	362	0.3	361	363	11.0	92.7
2025-10-21T05:03	10	0	0.1	0	0	362	0.2	362	363	11.1	92.4
2025-10-21T05:04	10	0	0.1	0	0	362	0.2	361	362	11.0	92.7
2025-10-21T05:05	10	0	0.1	0	0	362	0.2	361	362	11.0	92.7
2025-10-21T05:06	10	0	0.1	0	0	362	0.3	361	362	11.1	92.3
2025-10-21T05:07	10	0	0.1	0	0	362	0.2	361	362	11.0	92.9
2025-10-21T05:08	10	0	0.1	0	0	362	0.2	361	362	11.0	92.7
2025-10-21T05:09	10	0	0.1	0	0	362	0.3	361	363	11.1	92.5
2025-10-21T05:10	10	0	0.1	0	0	362	0.2	361	362	11.1	92.2
2025-10-21T05:11	10	0	0.1	0	0	362	0.2	361	362	11.1	92.4
2025-10-21T05:12	10	0	0.1	0	0	362	0.2	361	362	11.1	92.5
2025-10-21T05:13	10	0	0.1	0	0	362	0.2	361	362	11.0	92.9
2025-10-21T05:14	10	0	0.1	0	0	362	0.2	362	363	11.1	92.0
2025-10-21T05:15	10	0	0.1	0	0	362	0.4	361	363	11.1	92.0
2025-10-21T05:16	10	0	0.1	0	0	362	0.2	362	363	11.1	92.0
2025-10-21T05:17	10	0	0.1	0	0	362	0.2	361	362	11.2	91.8
2025-10-21T05:18	10	0	0.1	0	0	362	0.2	361	362	11.2	91.9
2025-10-21T05:19	10	0	0.1	0	0	362	0.2	361	362	11.2	91.8
2025-10-21T05:20	10	0	0.1	0	0	362	0.2	361	362	11.2	91.9
2025-10-21T05:21	10	0	0.1	0	0	362	0.2	361	362	11.2	92.1
2025-10-21T05:22	10	0	0.1	0	0	362	0.2	361	362	11.2	91.7
2025-10-21T05:23	10	0	0.1	0	0	362	0.2	361	363	11.2	91.9
2025-10-21T05:24	10	0	0.1	0	0	362	0.2	361	362	11.1	92.2
2025-10-21T05:25	10	0	0.0	0	0	362	0.3	361	363	11.2	91.9
2025-10-21T05:26	10	0	0.1	0	0	362	0.2	362	362	11.2	92.1
2025-10-21T05:27	10	0	0.1	0	0	362	0.3	362	363	11.2	91.6
2025-10-21T05:28	10	0	0.1	0	0	362	0.2	362	363	11.3	91.6
2025-10-21T05:29	10	0	0.1	0	0	363	0.3	362	363	11.2	91.8
2025-10-21T05:30	10	0	0.1	0	0	363	0.2	362	363	11.3	91.3
2025-10-21T05:31	10	0	0.1	0	0	363	0.2	362	363	11.3	91.4
2025-10-21T05:32	10	0	0.1	0	0	363	0.2	362	363	11.3	91.4
2025-10-21T05:33	10	0	0.1	0	0	363	0.2	362	363	11.2	91.8
2025-10-21T05:34	10	0	0.1	0	0	363	0.3	362	364	11.4	90.6
2025-10-21T05:35	10	0	0.1	0	0	363	0.2	363	364	11.5	89.7
2025-10-21T05:36	10	0	0.1	0	0	363	0.2	363	364	11.4	90.4
2025-10-21T05:37	10	0	0.1	0	0	363	0.2	363	364	11.5	90.1
2025-10-21T05:38	10	0	0.1	0	0	363	0.2	363	364	11.4	90.3
2025-10-21T05:39	10	0	0.1	0	0	363	0.2	363	364	11.4	90.2
2025-10-21T05:40	10	0	0.1	0	0	363	0.2	363	364	11.5	90.2
2025-10-21T05:41	10	0	0.1	0	0	363	0.2	363	364	11.5	90.1
2025-10-21T05:42	10	0	0.1	0	0	364	0.2	363	364	11.6	89.1
2025-10-21T05:43	10	0	0.1	0	0	364	0.2	363	364	11.6	89.4
2025-10-21T05:44	10	0	0.1	0	0	364	0.2	363	364	11.6	89.1
2025-10-21T05:45	10	0	0.1	0	0	364	0.2	363	364	11.7	88.6
2025-10-21T05:46	10	0	0.1	0	0	364	0.3	363	365	11.8	88.2
2025-10-21T05:47	10	0	0.1	0	0	364	0.2	363	364	11.8	87.7
2025-10-21T05:48	10	0	0.1	0	0	364	0.3	364	365	11.9	87.5
2025-10-21T05:49	10	0	0.1	0	0	364	0.2	364	365	11.9	87.1
2025-10-21T05:50	10	0	0.1	0	0	364	0.2	364	365	11.9	87.6
2025-10-21T05:51	10	0	0.1	0	0	364	0.4	364	365	11.8	88.0
2025-10-21T05:52	10	0	0.1	0	0	364	0.2	364	365	11.8	87.7
2025-10-21T05:53	10	0	0.1	0	0	364	0.4	364	365	11.9	87.5
2025-10-21T05:54	10	0	0.1	0	0	365	0.2	364	365	11.9	87.6
2025-10-21T05:55	10	0	0.1	0	0	364	0.3	363	365	11.9	87.5
2025-10-21T05:56	10	0	0.1	0	0	364	0.2	364	365	11.8	87.7
2025-10-21T05:57	10	0	0.1	0	0	364	0.2	364	365	11.9	87.3
2025-10-21T05:58	10	0	0.1	0	0	364	0.2	364	365	11.9	87.3
2025-10-21T05:59	10	0	0.1	0	0	364	0.2	364	365	11.9	87.5
2025-10-21T06:00	10	0	0.1	0	0	364	0.2	363	364	11.8	87.8
2025-10-21T06:01	10	0	0.1	0	0	364	0.2	363	365	11.8	87.9
2025-10-21T06:02	10	0	0.1	0	0	364	0.2	363	364	11.8	87.7
2025-10-21T06:03	10	0	0.1	0	0	364	0.3	363	365	11.9	86.9
2025-10-21T06:04	10	0	0.1	0	0	364	0.2	363	364	11.8	87.9
2025-10-21T06:05	10	0	0.1	0	0	364	0.2	364	364	11.8	87.7
2025-10-21T06:06	10	0	0.1	0	0	364	0.3	363	365	11.8	88.4
2025-10-21T06:07	10	0	0.1	0	0	363	0.2	363	364	11.7	88.9
2025-10-21T06:08	10	0	0.1	0	1	363	0.2	363	364	11.8	88.0
2025-10-21T06:09	10	1	0.1	0	1	363	0.3	363	364	11.8	88.2
2025-10-21T06:10	10	1	0.1	1	1	363	0.2	363	364	11.7	88.4
2025-10-21T06:11	10	1	0.1	1	1	363	0.2	363	364	11.7	88.5
2025-10-21T06:12	10	1	0.1	1	1	363	0.2	363	364	11.7	88.4
2025-10-21T06:13	10	1	0.1	1	1	363	0.2	363	364	11.7	88.7
2025-10-21T06:14	10	1	0.1	1	1	364	0.2	363	364	11.8	88.1
2025-10-21T06:15	10	1	0.1	1	1	364	0.2	363	364	11.8	87.4
2025-10-21T06:16	10	1	0.1	1	2	364	0.2	364	365	11.9	87.0
2025-10-21T06:17	10	1	0.1	1	1	364	0.3	363	364	11.9	87.1
2025-10-21T06:18	10	1	0.1	1	2	364	0.2	363	364	11.8	87.3
2025-10-21T06:19	10	1	0.0	1	2	364	0.3	364	365	11.9	86.7
2025-10-21T06:20	10	1	0.1	1	2	364	0.3	364	365	11.9	86.6
2025-10-21T06:21	10	2	0.1	1	2	364	0.3	364	365	11.9	87.0
2025-10-21T06:22	10	2	0.1	2	2	364	0.2	364	365	11.9	86.6
2025-10-21T06:23	10	2	0.1	2	2	364	0.3	364	365	12.0	85.8
2025-10-21T06:24	10	2	0.1	2	2	365	0.3	364	365	12.0	85.1
2025-10-21T06:25	10	2	0.1	2	2	364	0.3	364	365	12.0	85.2
2025-10-21T06:26	10	2	0.1	2	2	364	0.2	364	365	12.0	85.4
2025-10-21T06:27	10	2	0.1	2	3	364	0.2	364	365	12.0	85.4
2025-10-21T06:28	10	3	0.1	2	3	365	0.3	364	365	12.0	84.8
2025-10-21T06:29	10	3	0.1	3	3	365	0.2	364	365	12.1	84.2
2025-10-21T06:30	10	3	0.1	3	3	364	0.2	364	365	12.0	84.8
2025-10-21T06:31	10	3	0.1	3	3	364	0.3	364	365	12.0	85.3
2025-10-21T06:32	10	3	0.1	3	4	364	0.3	364	365	11.9	85.6
2025-10-21T06:33	10	4	0.1	4	4	364	0.2	364	365	11.9	85.9
2025-10-21T06:34	10	4	0.1	4	4	364	0.2	364	365	12.0	85.0
2025-10-21T06:35	10	4	0.1	4	4	364	0.3	364	365	11.9	85.9
2025-10-21T06:36	10	5	0.1	4	5	364	0.2	364	365	11.9	85.9
2025-10-21T06:37	10	5	0.1	4	5	364	0.3	364	365	11.9	85.8
2025-10-21T06:38	10	5	0.1	5	5	364	0.2	364	365	11.9	85.6
2025-10-21T06:39	10	5	0.1	5	5	364	0.2	364	365	11.9	85.4
2025-10-21T06:40	10	5	0.1	5	6	364	0.2	364	365	11.9	85.4
2025-10-21T06:41	10	6	0.1	5	6	364	0.2	364	365	11.9	86.1
2025-10-21T06:42	10	6	0.1	6	6	364	0.2	363	364	11.9	85.9
2025-10-21T06:43	10	6	0.1	6	6	364	0.3	363	364	11.9	85.8
2025-10-21T06:44	10	6	0.2	6	7	364	0.2	364	365	11.9	85.6
2025-10-21T06:45	10	7	0.2	7	7	364	0.3	364	365	11.9	85.1
2025-10-21T06:46	10	7	0.1	7	8	365	0.2	364	365	12.0	85.1
2025-10-21T06:47	10	8	0.1	7	8	365	0.2	364	365	11.9	85.0
2025-10-21T06:48	10	8	0.1	8	8	365	0.2	364	365	12.0	84.8
2025-10-21T06:49	10	8	0.1	8	9	365	0.2	365	365	11.9	85.3
2025-10-21T06:50	10	9	0.1	8	9	365	0.3	364	365	11.9	85.3
2025-10-21T06:51	10	9	0.1	9	9	365	0.2	365	366	11.9	85.6
2025-10-21T06:52	10	9	0.1	9	10	365	0.2	365	366	11.9	85.1
2025-10-21T06:53	10	10	0.1	10	10	366	0.2	365	366	11.9	85.7
2025-10-21T06:54	10	10	0.1	10	10	366	0.3	365	366	11.9	86.1
2025-10-21T06:55	10	10	0.1	10	10	366	0.2	365	366	11.9	84.7
2025-10-21T06:56	10	10	0.1	10	10	365	0.3	365	366	11.9	86.2
2025-10-21T06:57	10	11	0.1	10	11	365	0.2	365	366	11.9	86.2
2025-10-21T06:58	10	11	0.3	11	12	365	0.2	365	366	11.9	86.2
2025-10-21T06:59	10	12	0.3	12	13	366	0.3	365	366	11.9	86.2
2025-10-21T07:00	10	13	0.3	13	14	366	0.3	365	366	11.9	86.2
2025-10-21T07:01	10	14	0.3	14	15	366	0.2	365	366	11.9	86.2
2025-10-21T07:02	10	15	0.2	15	16	366	0.3	365	367	11.9	85.3
2025-10-21T07:03	10	16	0.2	16	16	367	0.3	366	367	12.0	84.6
2025-10-21T07:04	10	16	0.1	16	16	367	0.2	366	367	12.0	84.7
2025-10-21T07:05	10	16	0.1	16	17	367	0.2	367	368	12.0	85.1
2025-10-21T07:06	10	17	0.2	16	17	367	0.4	367	368	12.0	84.9
2025-10-21T07:07	10	17	0.1	17	17	368	0.2	367	368	12.0	84.7
2025-10-21T07:08	10	18	0.1	17	18	367	0.3	366	368	12.0	84.5
2025-10-21T07:09	10	18	0.1	18	18	368	0.2	367	368	12.0	84.6
2025-10-21T07:10	10	19	0.1	18	19	368	0.2	367	368	12.0	84.8
2025-10-21T07:11	10	19	0.5	19	21	368	0.2	368	368	12.0	84.6
2025-10-21T07:12	10	20	0.7	19	21	368	0.2	367	368	12.0	85.0
2025-10-21T07:13	10	19	0.1	19	20	368	0.3	367	369	12.0	85.4
2025-10-21T07:14	10	20	0.1	19	20	368	0.2	368	368	12.0	85.1
2025-10-21T07:15	10	20	0.1	19	20	368	0.3	367	369	12.1	84.2
2025-10-21T07:16	10	20	0.1	19	20	368	0.2	367	368	12.1	84.5
2025-10-21T07:17	10	19	0.3	19	20	368	0.2	367	368	12.1	84.4
2025-10-21T07:18	10	20	0.7	19	21	368	0.2	367	368	12.0	85.0
2025-10-21T07:19	10	18	0.4	18	20	368	0.4	367	368	12.0	84.8
2025-10-21T07:20	10	19	0.4	18	20	367	0.3	367	368	12.1	84.5
2025-10-21T07:21	10	19	0.1	18	19	367	0.2	367	367	12.1	84.2
2025-10-21T07:22	10	19	0.1	18	19	367	0.4	366	368	12.1	83.9
2025-10-21T07:23	10	19	0.1	18	19	367	0.2	366	367	12.1	84.5
2025-10-21T07:24	10	19	0.1	18	19	366	0.2	366	367	12.1	84.3
2025-10-21T07:25	10	18	0.1	18	19	366	0.2	366	367	12.1	84.4
2025-10-21T07:26	10	18	0.1	18	19	366	0.2	366	367	12.0	84.8
2025-10-21T07:27	10	19	0.2	18	19	366	0.2	366	367	12.1	84.3
2025-10-21T07:28	10	19	0.3	19	20	366	0.2	366	367	12.0	84.8
2025-10-21T07:29	10	20	0.4	20	21	366	0.2	366	367	12.0	84.7
2025-10-21T07:30	10	23	0.6	21	24	367	0.2	366	367	12.0	84.5
2025-10-21T07:31	10	24	1.1	23	26	367	0.3	366	368	12.0	84.6
2025-10-21T07:32	10	33	3.5	27	42	368	0.4	367	368	12.0	85.0
2025-10-21T07:33	10	43	2.3	38	46	369	0.5	367	369	12.0	85.1
2025-10-21T07:34	10	40	1.8	37	42	369	0.3	369	370	12.0	84.8
2025-10-21T07:35	10	38	2.9	33	42	369	0.3	369	370	12.1	83.8
2025-10-21T07:36	10	44	1.1	42	45	370	0.4	369	371	12.1	83.8
2025-10-21T07:37	10	36	4.1	30	43	370	0.4	369	371	12.1	83.9
2025-10-21T07:38	10	31	1.5	30	35	370	0.2	369	370	12.1	84.4
2025-10-21T07:39	10	37	1.4	34	39	370	0.3	370	371	12.1	84.2
2025-10-21T07:40	10	50	7.2	38	57	371	0.7	370	372	12.1	84.6
2025-10-21T07:41	10	44	5.2	37	53	372	0.2	371	372	12.2	83.9
2025-10-21T07:42	10	36	1.2	35	41	371	0.3	370	372	12.2	83.9
2025-10-21T07:43	10	56	4.6	42	60	372	1.1	370	374	12.2	84.2
2025-10-21T07:44	10	61	1.5	58	64	374	0.3	374	375	12.3	84.1
2025-10-21T07:45	10	64	0.8	62	65	375	0.4	374	376	12.3	83.2
2025-10-21T07:46	10	61	0.5	60	62	375	0.3	375	376	12.3	83.4
2025-10-21T07:47	10	63	0.9	62	65	375	0.3	375	376	12.4	83.3
2025-10-21T07:48	10	66	0.3	65	66	376	0.3	375	377	12.4	82.6
2025-10-21T07:49	10	65	0.4	65	66	376	0.2	375	376	12.5	81.6
2025-10-21T07:50	10	68	0.8	67	69	376	0.2	376	377	12.6	81.3
2025-10-21T07:51	10	63	8.8	43	71	376	0.5	374	377	12.6	81.0
2025-10-21T07:52	10	67	12.3	44	80	375	0.5	374	376	12.6	80.1
2025-10-21T07:53	10	74	4.2	67	80	376	0.5	375	377	12.7	80.0
2025-10-21T07:54	10	65	4.8	57	72	376	0.3	375	377	12.7	80.6
2025-10-21T07:55	10	72	7.3	63	82	377	0.5	376	378	12.7	80.7
2025-10-21T07:56	10	76	3.4	68	81	378	0.5	377	379	12.7	80.0
2025-10-21T07:57	10	64	6.7	53	74	377	0.8	375	378	12.8	78.8
2025-10-21T07:58	10	54	10.6	39	71	376	0.6	375	377	12.7	80.3
2025-10-21T07:59	10	63	9.8	40	71	376	0.5	375	377	12.8	80.1
2025-10-21T08:00	10	45	11.3	34	69	375	1.4	373	377	12.9	79.6
2025-10-21T08:01	10	48	9.9	39	70	374	0.5	373	375	12.8	79.3
2025-10-21T08:02	10	74	1.5	70	76	376	0.9	374	377	12.8	80.1
2025-10-21T08:03	10	77	0.6	76	78	377	0.4	376	378	12.8	79.3
2025-10-21T08:04	10	80	1.5	78	83	378	0.6	377	379	12.9	79.4
2025-10-21T08:05	10	80	3.9	70	83	376	0.4	376	377	12.9	78.0
2025-10-21T08:06	10	82	0.8	81	83	377	0.3	376	378	12.9	78.8
2025-10-21T08:07	10	80	0.9	78	81	378	0.3	378	379	12.9	79.3
2025-10-21T08:08	10	77	0.6	76	78	379	0.4	378	379	12.9	79.6
2025-10-21T08:09	10	76	0.4	75	76	378	0.5	377	379	13.0	78.9
2025-10-21T08:10	10	77	0.9	76	79	379	0.5	378	380	13.0	79.0
2025-10-21T08:11	10	77	1.6	73	78	378	0.6	377	379	13.0	78.4
2025-10-21T08:12	10	64	5.7	56	73	378	0.5	376	378	13.0	78.9
2025-10-21T08:13	10	53	1.8	48	56	376	0.8	374	377	13.0	77.4
2025-10-21T08:14	10	38	4.6	32	48	374	0.5	374	375	12.9	78.4
2025-10-21T08:15	10	30	1.0	28	32	373	0.5	372	374	12.9	78.5
2025-10-21T08:16	10	28	0.3	27	28	372	0.3	371	372	12.9	78.5
2025-10-21T08:17	10	28	0.2	27	28	372	0.4	371	372	12.8	78.9
2025-10-21T08:18	10	29	0.8	28	31	372	0.3	371	372	12.8	78.6
2025-10-21T08:19	10	32	1.0	31	34	372	0.3	371	372	12.9	78.3
2025-10-21T08:20	10	36	0.4	34	36	372	0.3	371	372	12.8	77.8
2025-10-21T08:21	10	36	0.9	35	38	372	0.3	371	373	12.9	77.7
2025-10-21T08:22	10	34	1.1	33	36	372	0.3	371	373	12.9	77.6
2025-10-21T08:23	10	32	0.2	32	33	372	0.2	371	372	12.9	78.0
2025-10-21T08:24	10	32	0.1	31	32	372	0.2	371	372	12.9	78.0
2025-10-21T08:25	10	32	0.2	31	32	371	0.2	371	372	12.9	77.6
2025-10-21T08:26	10	33	0.6	32	34	371	0.3	371	372	12.9	77.6
2025-10-21T08:27	10	39	3.0	35	44	372	0.4	371	373	12.8	78.3
2025-10-21T08:28	10	46	2.7	44	52	373	0.5	372	374	12.8	79.2
2025-10-21T08:29	10	64	5.9	52	72	376	1.3	373	377	12.9	78.7
2025-10-21T08:30	10	65	3.5	61	74	376	0.5	375	377	12.9	77.7
2025-10-21T08:31	10	77	0.8	74	77	378	0.8	376	379	13.0	78.2
2025-10-21T08:32	10	75	0.5	74	76	379	0.2	378	379	13.0	78.2
2025-10-21T08:33	10	79	1.5	76	81	380	0.4	379	381	13.1	76.9
2025-10-21T08:34	10	75	2.2	71	79	380	0.3	379	381	13.2	76.4
2025-10-21T08:35	10	73	1.6	70	75	380	0.4	379	381	13.3	76.8
2025-10-21T08:36	10	66	5.8	54	74	380	0.6	379	381	13.3	75.9
2025-10-21T08:37	10	58	2.4	53	60	378	0.4	377	379	13.3	75.6
2025-10-21T08:38	10	59	1.2	57	61	379	0.3	378	379	13.3	75.8
2025-10-21T08:39	10	62	1.2	59	63	379	0.4	378	380	13.4	76.1
2025-10-21T08:40	10	52	5.8	43	61	379	1.0	377	381	13.4	75.4
2025-10-21T08:41	10	52	3.7	46	57	378	0.3	377	379	13.5	74.4
2025-10-21T08:42	10	46	2.4	41	49	377	0.4	377	378	13.5	75.0
2025-10-21T08:43	10	41	1.4	38	43	377	0.3	376	377	13.5	75.3
2025-10-21T08:44	10	38	0.4	38	39	376	0.3	376	377	13.5	74.7
2025-10-21T08:45	10	38	0.6	37	39	376	0.4	375	377	13.5	75.0
2025-10-21T08:46	10	39	0.9	38	41	376	0.3	375	376	13.6	73.9
2025-10-21T08:47	10	42	1.0	41	44	377	0.4	376	377	13.6	74.2
2025-10-21T08:48	10	45	0.9	44	47	377	0.4	376	378	13.6	73.8
2025-10-21T08:49	10	49	1.0	47	50	378	0.2	377	379	13.6	73.7
2025-10-21T08:50	10	51	0.4	50	52	379	0.5	378	380	13.7	73.8
2025-10-21T08:51	10	51	0.5	50	52	380	0.4	379	381	13.7	75.3
2025-10-21T08:52	10	54	1.6	51	57	381	0.3	380	381	13.7	75.2
2025-10-21T08:53	10	60	1.6	57	63	381	0.4	380	382	13.7	73.6
2025-10-21T08:54	10	64	1.4	62	67	381	0.4	381	382	13.8	73.6
2025-10-21T08:55	10	69	1.2	67	71	382	0.4	381	382	13.8	72.1
2025-10-21T08:56	10	65	2.0	61	68	382	0.3	382	383	13.8	72.8
2025-10-21T08:57	10	80	12.4	62	97	384	1.5	382	386	13.8	73.4
2025-10-21T08:58	10	81	9.8	64	95	386	0.4	385	386	13.9	72.9
2025-10-21T08:59	10	65	4.0	60	73	384	0.7	383	386	13.9	72.7
2025-10-21T09:00	10	75	3.3	69	80	385	0.6	384	386	13.9	73.3
2025-10-21T09:01	10	70	1.6	68	74	385	0.4	385	386	13.9	73.1
2025-10-21T09:02	10	83	4.2	74	92	386	0.9	385	388	14.0	72.9
2025-10-21T09:03	10	78	1.6	75	82	388	0.5	387	389	14.0	74.1
2025-10-21T09:04	10	83	4.1	77	90	388	0.5	387	389	14.1	73.0
2025-10-21T09:05	10	89	5.2	73	95	390	0.6	389	391	14.1	74.1
2025-10-21T09:06	10	73	1.7	71	77	390	0.3	390	391	14.2	74.6
2025-10-21T09:07	10	69	1.9	66	73	390	0.3	390	391	14.3	73.8
2025-10-21T09:08	10	73	5.2	66	82	390	0.3	389	391	14.3	73.7
2025-10-21T09:09	10	87	2.9	81	93	390	0.5	389	391	14.3	72.6
2025-10-21T09:10	10	114	11.5	91	124	394	1.6	391	396	14.4	72.6
2025-10-21T09:11	10	120	2.1	115	122	395	0.8	394	397	14.5	72.1
2025-10-21T09:12	10	111	1.7	109	114	398	0.3	397	399	14.6	74.0
2025-10-21T09:13	10	89	7.9	81	109	396	1.2	395	399	14.7	72.4
2025-10-21T09:14	10	103	9.8	88	113	395	0.6	394	396	14.7	70.6
2025-10-21T09:15	10	115	0.7	112	115	396	0.6	394	397	14.7	70.2
2025-10-21T09:16	10	109	2.2	106	114	396	0.4	395	397	14.8	70.8
2025-10-21T09:17	10	106	1.4	102	107	396	0.5	395	396	14.8	69.7
2025-10-21T09:18	10	103	2.3	99	107	393	1.0	391	395	14.8	68.9
2025-10-21T09:19	10	89	9.3	74	101	393	0.8	391	394	14.9	70.1
2025-10-21T09:20	10	76	2.1	72	83	391	1.6	389	393	14.9	69.8
2025-10-21T09:21	10	90	3.7	82	95	390	0.8	388	391	14.9	68.7
2025-10-21T09:22	10	102	6.2	90	111	389	0.4	388	390	14.8	66.2
2025-10-21T09:23	10	121	3.3	112	124	390	1.2	389	393	14.7	66.8
2025-10-21T09:24	10	118	2.6	116	123	394	1.0	392	396	14.9	69.0
2025-10-21T09:25	10	101	16.3	65	116	396	0.5	394	397	15.0	69.9
2025-10-21T09:26	10	83	11.9	65	103	394	0.5	393	395	15.0	68.8
2025-10-21T09:27	10	85	13.6	58	104	392	1.3	389	394	14.9	67.9
2025-10-21T09:28	10	53	1.3	50	57	387	1.9	384	391	14.8	67.0
2025-10-21T09:29	10	65	9.5	52	80	386	0.6	385	387	14.8	67.3
2025-10-21T09:30	10	71	1.7	69	76	386	0.2	386	387	14.8	67.7
2025-10-21T09:31	10	65	2.4	62	71	386	0.6	385	387	14.8	67.8
2025-10-21T09:32	10	61	2.4	58	65	385	0.3	384	385	14.7	66.9
2025-10-21T09:33	10	57	0.2	57	58	384	0.2	384	385	14.7	67.3
2025-10-21T09:34	10	59	0.6	58	60	385	0.4	384	386	14.7	67.6
2025-10-21T09:35	10	57	0.5	56	58	385	0.8	383	385	14.7	68.0
2025-10-21T09:36	10	60	1.3	58	62	384	0.4	383	385	14.7	66.5
2025-10-21T09:37	10	62	2.1	60	70	384	0.3	384	385	14.7	67.2
2025-10-21T09:38	10	77	3.2	71	83	386	0.8	384	387	14.7	66.2
2025-10-21T09:39	10	75	4.0	69	83	387	0.3	386	387	14.7	66.9
2025-10-21T09:40	10	84	3.3	77	90	388	1.1	386	390	14.8	67.5
2025-10-21T09:41	10	93	1.5	90	95	390	0.4	389	390	14.8	67.5
2025-10-21T09:42	10	95	3.4	86	99	391	0.4	389	391	14.9	66.7
2025-10-21T09:43	10	81	2.4	79	86	389	0.5	388	390	14.9	66.8
2025-10-21T09:44	10	84	2.3	80	90	390	0.5	388	390	14.9	67.0
2025-10-21T09:45	10	82	3.9	77	90	389	0.4	389	391	14.9	67.0
2025-10-21T09:46	10	72	4.3	64	77	390	0.7	389	391	14.9	66.6
2025-10-21T09:47	10	61	1.2	59	64	388	0.8	387	390	14.9	67.1
2025-10-21T09:48	10	61	3.7	58	69	387	0.4	387	388	14.9	67.6
2025-10-21T09:49	10	77	5.0	69	85	389	1.3	388	392	14.9	67.9
2025-10-21T09:50	10	91	3.8	85	97	392	0.5	391	393	14.9	67.7
2025-10-21T09:51	10	94	1.5	89	96	391	0.4	390	392	14.9	66.5
2025-10-21T09:52	10	78	5.4	71	88	390	0.8	389	392	14.9	67.8
2025-10-21T09:53	10	80	8.4	72	97	390	0.8	389	392	14.9	67.1
2025-10-21T09:54	10	103	2.0	98	106	394	1.5	390	396	14.9	68.1
2025-10-21T09:55	10	103	1.1	101	105	395	0.3	394	396	15.1	68.6
2025-10-21T09:56	10	102	1.0	101	104	396	0.8	395	397	15.2	70.0
2025-10-21T09:57	10	104	2.2	99	107	397	0.4	396	398	15.2	68.4
2025-10-21T09:58	10	96	12.8	71	108	399	1.1	396	400	15.3	69.7
2025-10-21T09:59	10	74	9.8	67	100	394	1.3	393	398	15.2	68.4
2025-10-21T10:00	10	77	13.6	65	104	394	1.1	392	396	15.2	68.1
2025-10-21T10:01	10	63	1.5	60	65	392	0.6	391	393	15.3	68.7
2025-10-21T10:02	10	58	0.6	57	60	391	0.6	390	392	15.3	68.4
2025-10-21T10:03	10	55	1.0	53	57	389	0.5	389	391	15.3	67.2
2025-10-21T10:04	10	52	0.7	51	53	389	0.4	388	390	15.3	67.1
2025-10-21T10:05	10	51	0.3	50	51	388	0.8	386	389	15.3	66.2
2025-10-21T10:06	10	49	0.5	48	50	387	0.5	386	388	15.3	64.4
2025-10-21T10:07	10	48	0.4	47	49	386	0.2	386	387	15.3	65.5
2025-10-21T10:08	10	47	0.3	46	47	387	0.3	386	388	15.3	67.8
2025-10-21T10:09	10	46	0.2	45	46	388	0.2	387	388	15.3	67.1
2025-10-21T10:10	10	45	0.2	45	45	387	0.2	386	388	15.3	66.5
2025-10-21T10:11	10	44	0.2	44	45	386	0.5	385	387	15.2	64.6
2025-10-21T10:12	10	44	0.2	43	44	386	0.2	385	386	15.2	65.7
2025-10-21T10:13	10	43	0.2	43	43	385	0.4	385	386	15.2	65.7
2025-10-21T10:14	10	42	0.2	42	43	386	0.7	385	387	15.2	66.3
2025-10-21T10:15	10	42	0.2	41	42	386	0.2	386	387	15.2	67.1
2025-10-21T10:16	10	41	0.1	41	41	386	0.2	386	387	15.2	66.9
2025-10-21T10:17	10	41	0.1	41	42	386	0.4	385	387	15.2	67.6
2025-10-21T10:18	10	42	0.3	42	43	387	0.3	386	388	15.2	67.3
2025-10-21T10:19	10	43	0.5	43	44	386	0.2	385	387	15.2	66.4
2025-10-21T10:20	10	45	0.7	44	46	386	0.2	385	386	15.2	66.2
2025-10-21T10:21	10	48	0.9	46	50	386	0.4	386	387	15.2	67.6
2025-10-21T10:22	10	51	0.4	50	52	386	0.2	386	387	15.2	67.1
2025-10-21T10:23	10	52	0.4	51	52	387	0.3	386	388	15.2	66.6
2025-10-21T10:24	10	52	0.1	52	52	388	0.4	387	389	15.2	66.7
2025-10-21T10:25	10	52	0.2	52	52	388	0.4	388	389	15.2	68.2
2025-10-21T10:26	10	53	0.2	52	53	389	0.3	388	389	15.2	66.9
2025-10-21T10:27	10	52	0.4	51	52	388	0.6	387	389	15.2	65.9
2025-10-21T10:28	10	51	0.1	51	51	388	0.5	387	389	15.2	66.4
2025-10-21T10:29	10	50	0.4	50	51	389	0.3	388	389	15.2	67.3
2025-10-21T10:30	10	50	0.1	50	50	388	0.4	387	389	15.2	66.5
2025-10-21T10:31	10	50	0.1	50	50	388	0.4	387	388	15.2	67.1
2025-10-21T10:32	10	51	0.3	50	51	387	0.2	387	388	15.3	65.3
2025-10-21T10:33	10	52	0.4	51	53	388	0.3	387	388	15.3	65.9
2025-10-21T10:34	10	54	0.4	53	54	387	0.4	387	388	15.3	65.7
2025-10-21T10:35	10	55	0.4	55	56	387	0.3	386	388	15.3	64.9
2025-10-21T10:36	10	56	0.4	56	57	387	0.3	387	388	15.3	65.1
2025-10-21T10:37	10	57	0.1	56	57	387	0.2	387	388	15.3	64.8
2025-10-21T10:38	10	64	5.0	57	71	388	0.6	387	389	15.3	65.0
2025-10-21T10:39	10	68	0.9	66	70	389	0.2	388	389	15.3	65.3
2025-10-21T10:40	10	64	1.9	60	68	388	0.3	387	389	15.3	64.1
2025-10-21T10:41	10	58	2.6	55	62	387	0.4	387	388	15.3	65.0
2025-10-21T10:42	10	55	0.6	54	56	387	0.7	386	388	15.4	64.7
2025-10-21T10:43	10	54	0.9	53	55	386	0.2	386	387	15.3	64.1
2025-10-21T10:44	10	52	0.4	51	53	386	0.3	385	387	15.3	64.9
2025-10-21T10:45	10	52	0.5	51	53	387	0.4	386	387	15.3	66.0
2025-10-21T10:46	10	54	1.1	53	56	387	0.6	386	388	15.3	65.1
2025-10-21T10:47	10	57	0.6	56	58	386	0.5	385	387	15.3	64.8
2025-10-21T10:48	10	60	2.2	58	63	387	0.5	386	388	15.3	64.9
2025-10-21T10:49	10	67	2.3	64	72	388	0.3	387	389	15.3	65.7
2025-10-21T10:50	10	68	2.4	65	73	389	0.8	388	391	15.3	65.8
2025-10-21T10:51	10	67	1.4	64	69	390	0.4	390	391	15.4	65.6
2025-10-21T10:52	10	62	1.7	60	64	390	0.4	389	391	15.4	66.0
2025-10-21T10:53	10	65	1.6	63	68	389	0.4	388	390	15.4	64.7
2025-10-21T10:54	10	67	4.0	63	77	389	0.7	387	390	15.4	64.6
2025-10-21T10:55	10	69	7.2	56	77	388	0.4	387	389	15.4	64.0
2025-10-21T10:56	10	52	1.6	51	56	387	0.4	386	388	15.4	64.8
2025-10-21T10:57	10	50	0.8	48	52	386	0.7	385	387	15.4	64.4
2025-10-21T10:58	10	48	1.3	46	50	385	0.4	385	386	15.4	64.8
2025-10-21T10:59	10	46	0.1	46	46	385	0.5	383	386	15.4	63.6
2025-10-21T11:00	10	47	0.8	46	48	385	0.3	384	385	15.4	64.6
2025-10-21T11:01	10	49	1.3	48	52	385	0.3	384	386	15.3	64.8
2025-10-21T11:02	10	50	0.4	49	51	385	0.2	385	386	15.3	64.7
2025-10-21T11:03	10	49	0.1	49	50	386	0.6	385	387	15.3	65.5
2025-10-21T11:04	10	49	0.2	49	50	386	0.3	386	387	15.3	65.9
2025-10-21T11:05	10	50	0.3	50	51	386	0.3	385	386	15.3	65.9
2025-10-21T11:06	10	51	0.3	50	51	387	0.4	386	388	15.3	66.6
2025-10-21T11:07	10	52	0.6	51	53	388	0.5	387	389	15.3	67.0
2025-10-21T11:08	10	54	0.5	53	55	388	0.2	388	389	15.4	66.7
2025-10-21T11:09	10	57	1.5	55	60	388	0.3	388	389	15.4	66.0
2025-10-21T11:10	10	62	1.8	60	65	389	0.5	388	390	15.4	65.9
2025-10-21T11:11	10	62	1.5	60	65	391	0.6	389	392	15.4	67.1
2025-10-21T11:12	10	61	0.9	59	63	391	0.2	390	392	15.5	67.6
2025-10-21T11:13	10	83	17.1	63	114	391	1.0	390	394	15.5	66.0
2025-10-21T11:14	10	123	9.0	111	139	395	1.8	392	398	15.6	65.7
2025-10-21T11:15	10	146	2.0	140	149	400	1.9	397	403	15.7	65.5
2025-10-21T11:16	10	150	1.5	148	153	403	0.7	402	405	15.8	65.7
2025-10-21T11:17	10	153	1.6	150	157	405	1.5	402	407	15.8	64.2
2025-10-21T11:18	10	159	0.3	157	159	407	0.9	405	408	15.9	64.5
2025-10-21T11:19	10	159	0.1	159	159	409	1.0	407	410	16.1	64.9
2025-10-21T11:20	10	159	0.5	157	159	407	1.5	405	410	16.2	63.0
2025-10-21T11:21	10	155	5.4	134	158	407	0.4	406	408	16.3	63.6
2025-10-21T11:22	10	153	6.3	133	157	408	0.5	407	409	16.3	62.9
2025-10-21T11:23	10	157	1.4	153	159	409	0.4	408	409	16.5	62.8
2025-10-21T11:24	10	147	10.2	131	163	406	2.0	404	409	16.4	62.2
2025-10-21T11:25	10	126	14.5	95	147	404	1.6	401	406	16.3	62.2
2025-10-21T11:26	10	120	12.4	101	142	404	0.6	403	405	16.4	62.5
2025-10-21T11:27	10	112	15.7	86	147	405	1.2	403	407	16.4	62.6
2025-10-21T11:28	10	104	20.5	83	147	405	0.8	404	407	16.5	63.3
2025-10-21T11:29	10	120	23.0	91	178	404	0.8	403	407	16.5	62.1
2025-10-21T11:30	10	130	23.0	96	176	406	1.2	404	408	16.5	62.0
2025-10-21T11:31	10	107	5.6	96	116	402	1.8	400	406	16.5	61.1
2025-10-21T11:32	10	116	17.8	83	147	401	1.6	398	403	16.4	60.4
2025-10-21T11:33	10	141	22.5	115	187	401	1.6	399	404	16.2	60.0
2025-10-21T11:34	10	143	27.6	107	187	403	2.2	400	407	16.3	60.4
2025-10-21T11:35	10	135	21.9	99	173	402	1.6	399	405	16.3	61.2
2025-10-21T11:36	10	159	19.8	117	173	404	2.8	400	408	16.3	61.7
2025-10-21T11:37	10	166	1.6	164	169	407	1.2	405	409	16.3	62.0
2025-10-21T11:38	10	163	0.8	161	164	409	0.6	408	410	16.4	61.8
2025-10-21T11:39	10	160	1.2	158	162	406	1.1	404	408	16.2	61.0
2025-10-21T11:40	10	157	0.7	156	158	406	0.6	405	407	16.3	61.4
2025-10-21T11:41	10	156	0.1	156	156	408	0.9	406	409	16.4	61.9
2025-10-21T11:42	10	150	7.5	134	156	405	1.9	402	408	16.4	61.4
2025-10-21T11:43	10	154	0.9	152	155	404	0.5	403	405	16.3	61.4
2025-10-21T11:44	10	150	6.9	131	154	404	0.6	402	405	16.3	61.4
2025-10-21T11:45	10	154	0.2	153	154	406	0.9	405	408	16.4	61.7
2025-10-21T11:46	10	154	0.3	154	155	405	1.5	403	408	16.4	60.5
2025-10-21T11:47	10	154	1.5	151	157	404	0.9	403	406	16.4	61.1
2025-10-21T11:48	10	149	12.6	130	162	405	1.5	403	407	16.3	61.0
2025-10-21T11:49	10	159	6.0	142	164	406	0.4	406	407	16.5	61.5
2025-10-21T11:50	10	145	13.5	113	161	404	1.2	402	406	16.4	60.3
2025-10-21T11:51	10	132	14.7	107	157	402	0.8	400	403	16.3	59.8
2025-10-21T11:52	10	157	5.3	146	164	403	0.4	402	404	16.3	60.1
2025-10-21T11:53	10	163	3.7	155	165	405	1.5	403	408	16.4	61.3
2025-10-21T11:54	10	149	6.4	135	159	407	0.5	406	408	16.5	61.6
2025-10-21T11:55	10	120	16.3	97	155	406	1.3	404	409	16.6	62.4
2025-10-21T11:56	10	94	36.5	52	156	404	3.8	397	407	16.6	61.9
2025-10-21T11:57	10	47	1.6	46	52	395	2.0	392	399	16.3	60.7
2025-10-21T11:58	10	46	0.7	45	47	393	0.3	392	393	16.3	62.1
2025-10-21T11:59	10	41	1.8	39	45	391	0.7	390	393	16.2	62.0
2025-10-21T12:00	10	39	0.6	38	40	390	0.3	390	391	16.2	63.1
2025-10-21T12:01	10	42	0.7	40	42	390	0.3	390	391	16.1	63.7
2025-10-21T12:02	10	42	0.4	41	42	390	0.3	389	391	16.1	62.3
2025-10-21T12:03	10	40	0.3	40	41	389	0.2	388	389	16.0	63.0
2025-10-21T12:04	10	40	0.1	40	40	389	0.3	388	389	16.0	63.0
2025-10-21T12:05	10	40	0.2	39	40	389	0.3	388	390	15.9	63.2
2025-10-21T12:06	10	40	0.3	39	40	389	0.2	389	389	15.9	63.7
2025-10-21T12:07	10	42	1.0	40	44	388	0.6	387	390	15.9	62.5
2025-10-21T12:08	10	43	0.5	43	44	388	0.3	387	388	15.8	61.7
2025-10-21T12:09	10	43	0.4	42	44	388	0.3	387	389	15.8	62.5
2025-10-21T12:10	10	44	0.5	44	45	388	0.4	388	389	15.8	62.9
2025-10-21T12:11	10	46	0.3	45	46	389	0.4	388	389	15.8	63.7
2025-10-21T12:12	10	46	0.1	46	46	389	0.2	388	389	15.8	63.1
2025-10-21T12:13	10	46	0.3	46	47	389	0.3	388	389	15.8	63.0
2025-10-21T12:14	10	48	0.6	47	49	389	0.4	388	390	15.8	63.7
2025-10-21T12:15	10	50	0.4	49	50	390	0.2	389	390	15.7	63.9
2025-10-21T12:16	10	49	0.4	49	50	390	0.3	389	390	15.7	63.7
2025-10-21T12:17	10	47	0.8	46	49	390	0.3	389	390	15.7	64.2
2025-10-21T12:18	10	44	0.8	43	46	390	0.3	389	390	15.7	64.1
2025-10-21T12:19	10	41	0.9	40	43	390	0.2	389	390	15.7	64.9
2025-10-21T12:20	10	39	0.5	38	40	389	0.2	389	390	15.7	65.0
2025-10-21T12:21	10	38	0.2	38	38	389	0.3	388	389	15.7	65.3
2025-10-21T12:22	10	37	0.3	36	38	388	0.3	388	389	15.7	64.7
2025-10-21T12:23	10	36	0.3	35	36	389	0.3	388	389	15.7	65.2
2025-10-21T12:24	10	35	0.2	35	35	389	0.4	388	389	15.7	65.4
2025-10-21T12:25	10	35	0.1	35	35	388	0.3	387	389	15.7	65.0
2025-10-21T12:26	10	35	0.2	35	36	388	0.3	387	389	15.7	65.1
2025-10-21T12:27	10	36	0.2	36	36	388	0.3	387	388	15.7	65.0
2025-10-21T12:28	10	37	0.1	36	37	388	0.3	387	388	15.7	64.1
2025-10-21T12:29	10	37	0.1	37	37	388	0.2	387	388	15.7	64.8
2025-10-21T12:30	10	37	0.1	37	37	387	0.3	386	388	15.7	63.0
2025-10-21T12:31	10	37	0.3	37	38	387	0.4	386	388	15.7	64.0
2025-10-21T12:32	10	38	0.2	38	39	387	0.3	387	388	15.7	64.0
2025-10-21T12:33	10	38	0.3	37	39	387	0.2	386	387	15.7	63.0
2025-10-21T12:34	10	37	0.4	36	38	387	0.3	386	388	15.6	64.1
2025-10-21T12:35	10	36	0.4	35	36	386	0.3	386	387	15.6	63.5
2025-10-21T12:36	10	34	0.4	34	35	387	0.2	386	387	15.6	64.5
2025-10-21T12:37	10	33	0.2	33	34	387	0.2	386	387	15.6	65.0
2025-10-21T12:38	10	33	0.2	32	33	387	0.3	386	387	15.6	65.2
2025-10-21T12:39	10	32	0.3	31	32	386	0.2	386	387	15.6	65.6
2025-10-21T12:40	10	30	0.4	30	31	387	0.2	386	387	15.6	65.8
2025-10-21T12:41	10	29	0.4	28	29	386	0.3	386	387	15.5	66.0
2025-10-21T12:42	10	28	0.3	27	28	386	0.5	385	386	15.5	65.7
2025-10-21T12:43	10	27	0.2	27	27	385	0.3	385	386	15.5	65.5
2025-10-21T12:44	10	26	0.1	26	27	385	0.3	384	386	15.5	66.0
2025-10-21T12:45	10	26	0.1	26	27	384	0.3	384	385	15.4	65.1
2025-10-21T12:46	10	27	0.2	26	27	384	0.2	384	385	15.4	66.0
2025-10-21T12:47	10	28	0.3	27	28	384	0.3	384	385	15.4	66.9
2025-10-21T12:48	10	29	0.2	28	29	385	0.3	384	385	15.4	67.0
2025-10-21T12:49	10	29	0.2	29	30	385	0.3	385	386	15.4	67.5
2025-10-21T12:50	10	30	0.2	30	30	385	0.2	385	386	15.3	67.1
2025-10-21T12:51	10	31	0.3	30	32	385	0.4	384	386	15.3	67.3
2025-10-21T12:52	10	32	0.2	32	32	385	0.2	384	385	15.3	66.7
2025-10-21T12:53	10	32	0.1	32	33	385	0.4	384	386	15.3	67.5
2025-10-21T12:54	10	32	0.2	32	32	385	0.3	384	386	15.3	67.5
2025-10-21T12:55	10	32	0.1	31	32	385	0.3	384	386	15.3	67.4
2025-10-21T12:56	10	31	0.1	31	31	384	0.3	383	385	15.2	67.3
2025-10-21T12:57	10	31	0.1	31	32	384	0.3	384	385	15.1	68.1
2025-10-21T12:58	10	32	0.2	32	32	384	0.3	383	385	15.1	68.7
2025-10-21T12:59	10	32	0.1	32	33	384	0.3	383	385	15.1	68.0
2025-10-21T13:00	10	33	0.1	32	33	384	0.4	383	385	15.1	68.6
2025-10-21T13:01	10	32	0.1	32	33	384	0.2	384	385	15.1	69.3
2025-10-21T13:02	10	32	0.2	31	32	384	0.3	383	384	15.1	69.4
2025-10-21T13:03	10	31	0.3	30	31	384	0.2	383	384	15.0	69.3
2025-10-21T13:04	10	29	0.6	28	30	383	0.4	382	384	15.0	68.8
2025-10-21T13:05	10	27	0.7	26	28	383	0.3	382	383	15.0	68.5
2025-10-21T13:06	10	25	0.6	24	26	382	0.3	381	383	14.9	69.5
2025-10-21T13:07	10	23	0.4	22	24	381	0.3	381	382	14.9	70.2
2025-10-21T13:08	10	22	0.3	21	22	381	0.4	380	382	14.8	70.4
2025-10-21T13:09	10	21	0.2	21	21	380	0.2	380	381	14.7	71.2
2025-10-21T13:10	10	21	0.1	20	21	380	0.3	379	381	14.7	71.9
2025-10-21T13:11	10	21	0.1	20	21	379	0.2	379	380	14.6	72.1
2025-10-21T13:12	10	21	0.2	21	21	379	0.3	379	380	14.5	73.2
2025-10-21T13:13	10	21	0.2	21	22	379	0.3	379	380	14.4	73.8
2025-10-21T13:14	10	23	0.4	22	23	380	0.3	379	380	14.4	74.3
2025-10-21T13:15	10	24	0.6	23	25	380	0.4	379	380	14.4	74.6
2025-10-21T13:16	10	26	0.5	25	27	380	0.4	379	381	14.3	74.9
2025-10-21T13:17	10	28	0.4	27	29	380	0.5	379	381	14.3	74.7
2025-10-21T13:18	10	29	0.3	29	30	380	0.2	380	381	14.3	74.2
2025-10-21T13:19	10	30	0.2	30	30	380	0.4	379	381	14.3	74.3
2025-10-21T13:20	10	31	0.1	30	31	380	0.3	380	381	14.3	74.2
2025-10-21T13:21	10	31	0.1	30	31	380	0.3	379	381	14.3	74.9
2025-10-21T13:22	10	30	0.1	30	31	379	0.3	379	380	14.3	74.3
2025-10-21T13:23	10	30	0.1	30	31	380	0.3	379	380	14.2	75.6
2025-10-21T13:24	10	31	0.2	31	31	380	0.3	379	380	14.2	76.1
2025-10-21T13:25	10	32	0.3	31	33	380	0.2	379	381	14.1	76.8
2025-10-21T13:26	10	33	0.2	33	33	380	0.2	380	381	14.1	77.5
2025-10-21T13:27	10	33	0.2	32	33	380	0.3	379	381	14.1	77.6
2025-10-21T13:28	10	32	0.3	31	32	380	0.3	379	381	14.0	78.3
2025-10-21T13:29	10	31	0.3	30	31	380	0.4	379	381	14.0	77.6
2025-10-21T13:30	10	30	0.1	30	30	379	0.2	379	380	14.0	77.8
2025-10-21T13:31	10	30	0.1	30	30	379	0.3	379	380	14.0	77.9
2025-10-21T13:32	10	30	0.2	29	30	380	0.3	379	380	14.0	78.7
2025-10-21T13:33	10	29	0.3	29	30	380	0.2	380	380	13.9	79.1
2025-10-21T13:34	10	28	0.3	28	29	379	0.5	378	380	14.0	78.5
2025-10-21T13:35	10	27	0.2	27	28	379	0.3	378	380	14.0	78.9
2025-10-21T13:36	10	27	0.1	27	27	379	0.3	378	380	13.9	78.1
2025-10-21T13:37	10	27	0.1	27	27	379	0.2	378	379	13.9	79.1
2025-10-21T13:38	10	27	0.2	26	27	379	0.4	378	380	13.9	80.2
2025-10-21T13:39	10	26	0.2	25	26	379	0.3	379	380	13.8	80.5
2025-10-21T13:40	10	25	0.2	25	26	379	0.3	379	380	13.8	79.9
2025-10-21T13:41	10	25	0.1	25	25	379	0.4	378	379	13.8	80.1
2025-10-21T13:42	10	24	0.1	24	25	378	0.2	378	379	13.8	79.5
2025-10-21T13:43	10	24	0.1	24	24	378	0.3	378	379	13.8	80.1
2025-10-21T13:44	10	24	0.1	24	24	378	0.2	378	379	13.8	81.2
2025-10-21T13:45	10	24	0.1	24	24	378	0.2	378	379	13.8	81.3
2025-10-21T13:46	10	24	0.1	24	24	378	0.4	378	379	13.7	81.7
2025-10-21T13:47	10	24	0.1	23	24	378	0.2	378	379	13.7	81.8
2025-10-21T13:48	10	23	0.2	23	24	378	0.3	378	379	13.7	80.7
2025-10-21T13:49	10	23	0.2	23	23	378	0.5	378	380	13.7	81.3
2025-10-21T13:50	10	23	0.1	22	23	379	0.2	378	379	13.7	82.2
2025-10-21T13:51	10	22	0.1	22	22	378	0.2	378	379	13.7	81.8
2025-10-21T13:52	10	22	0.1	22	22	378	0.2	378	379	13.7	82.3
2025-10-21T13:53	10	23	0.1	22	23	379	0.3	378	379	13.7	82.5
2025-10-21T13:54	10	23	0.2	23	23	378	0.3	377	378	13.7	80.7
2025-10-21T13:55	10	24	0.2	23	24	378	0.3	377	379	13.9	79.0
2025-10-21T13:56	10	24	0.1	24	25	378	0.3	377	379	13.8	80.3
2025-10-21T13:57	10	25	0.1	24	25	379	0.3	378	379	13.8	80.8
2025-10-21T13:58	10	25	0.1	24	25	378	0.2	378	379	13.8	80.4
2025-10-21T13:59	10	25	0.1	25	25	378	0.2	378	379	13.8	79.7
2025-10-21T14:00	10	25	0.1	25	25	378	0.2	378	378	13.9	79.1
2025-10-21T14:01	10	25	0.1	24	25	378	0.2	378	379	13.9	80.0
2025-10-21T14:02	10	25	0.1	24	25	379	0.3	378	379	13.8	79.8
2025-10-21T14:03	10	24	0.2	24	25	378	0.2	378	379	13.9	79.3
2025-10-21T14:04	10	24	0.2	23	24	378	0.2	377	378	13.9	78.8
2025-10-21T14:05	10	23	0.2	22	23	378	0.2	377	378	13.9	78.7
2025-10-21T14:06	10	23	0.2	22	23	378	0.3	377	378	13.9	78.2
2025-10-21T14:07	10	22	0.2	22	23	378	0.2	377	378	13.9	79.0
2025-10-21T14:08	10	22	0.2	22	22	378	0.2	377	378	13.9	78.8
2025-10-21T14:09	10	22	0.1	21	22	377	0.2	377	378	13.9	78.8
2025-10-21T14:10	10	21	0.2	21	22	377	0.2	377	378	13.9	78.4
2025-10-21T14:11	10	20	0.3	20	21	377	0.3	377	378	13.9	78.3
2025-10-21T14:12	10	19	0.4	19	20	377	0.2	377	378	13.9	78.2
2025-10-21T14:13	10	18	0.4	17	19	377	0.3	376	378	13.9	78.1
2025-10-21T14:14	10	17	0.3	16	17	377	0.3	376	377	13.9	78.1
2025-10-21T14:15	10	16	0.2	16	16	377	0.2	376	377	13.9	78.4
2025-10-21T14:16	10	16	0.2	15	16	377	0.3	376	378	13.9	78.9
2025-10-21T14:17	10	16	0.2	15	16	377	0.2	376	377	13.9	79.0
2025-10-21T14:18	10	16	0.2	16	17	377	0.3	376	378	13.9	79.2
2025-10-21T14:19	10	16	0.2	16	17	377	0.2	376	377	13.8	79.4
2025-10-21T14:20	10	16	0.2	16	16	377	0.2	376	378	13.8	79.4
2025-10-21T14:21	10	16	0.2	16	16	377	0.3	376	378	13.9	78.9
2025-10-21T14:22	10	16	0.2	15	16	377	0.3	376	377	13.9	78.4
2025-10-21T14:23	10	16	0.2	15	17	377	0.3	376	377	13.9	79.1
2025-10-21T14:24	10	16	0.2	16	17	377	0.2	376	377	13.9	78.2
2025-10-21T14:25	10	17	0.1	16	17	377	0.3	376	377	13.9	77.8
2025-10-21T14:26	10	17	0.2	16	18	377	0.2	376	377	13.9	78.7
2025-10-21T14:27	10	18	0.3	17	18	377	0.3	376	377	13.9	78.4
2025-10-21T14:28	10	19	0.3	18	19	377	0.3	376	377	13.9	78.3
2025-10-21T14:29	10	19	0.2	19	20	377	0.3	376	378	13.9	77.6
2025-10-21T14:30	10	20	0.2	19	20	377	0.3	376	377	13.9	77.6
2025-10-21T14:31	10	20	0.2	19	20	377	0.3	376	378	13.9	78.1
2025-10-21T14:32	10	20	0.2	19	20	377	0.3	376	377	13.9	78.8
2025-10-21T14:33	10	20	0.2	20	20	377	0.3	376	378	13.9	78.6
2025-10-21T14:34	10	20	0.2	20	21	377	0.3	377	378	13.9	79.0
2025-10-21T14:35	10	20	0.2	19	20	377	0.3	377	378	13.9	78.4
2025-10-21T14:36	10	19	0.3	18	20	377	0.3	376	378	13.9	78.5
2025-10-21T14:37	10	18	0.3	17	19	377	0.3	376	378	13.9	78.1
2025-10-21T14:38	10	17	0.3	17	18	377	0.2	377	378	13.9	78.3
2025-10-21T14:39	10	17	0.2	16	17	377	0.2	376	378	13.9	78.0
2025-10-21T14:40	10	16	0.3	16	16	377	0.3	376	377	13.9	78.3
2025-10-21T14:41	10	15	0.2	15	16	377	0.2	376	377	13.9	78.3
2025-10-21T14:42	10	15	0.2	14	15	377	0.3	376	377	13.9	78.5
2025-10-21T14:43	10	14	0.1	14	15	376	0.2	376	377	13.9	78.1
2025-10-21T14:44	10	14	0.2	13	14	376	0.2	376	377	13.9	77.4
2025-10-21T14:45	10	13	0.1	13	14	376	0.3	376	377	13.9	77.6
2025-10-21T14:46	10	13	0.1	13	14	376	0.2	376	377	13.9	77.9
2025-10-21T14:47	10	13	0.1	13	13	376	0.3	375	377	13.9	77.7
2025-10-21T14:48	10	13	0.1	13	14	376	0.2	376	377	13.8	78.3
2025-10-21T14:49	10	13	0.2	13	14	376	0.2	376	377	13.8	78.8
2025-10-21T14:50	10	13	0.2	13	14	376	0.2	376	376	13.8	78.3
2025-10-21T14:51	10	12	0.2	12	13	376	0.3	376	377	13.8	78.4
2025-10-21T14:52	10	12	0.2	12	13	376	0.3	375	377	13.8	78.1
2025-10-21T14:53	10	12	0.2	12	12	376	0.2	375	376	13.8	77.7
2025-10-21T14:54	10	12	0.1	12	12	376	0.2	375	376	13.8	77.4
2025-10-21T14:55	10	12	0.1	11	12	376	0.3	375	376	13.8	78.2
2025-10-21T14:56	10	12	0.1	11	12	376	0.2	375	376	13.7	78.5
2025-10-21T14:57	10	12	0.2	11	12	376	0.3	375	376	13.7	78.9
2025-10-21T14:58	10	12	0.2	12	12	376	0.3	375	376	13.7	79.0
2025-10-21T14:59	10	12	0.2	12	13	375	0.3	375	376	13.7	78.7
2025-10-21T15:00	10	12	0.2	12	13	376	0.3	375	376	13.7	79.1
2025-10-21T15:01	10	13	0.1	12	13	375	0.2	375	376	13.8	77.8
2025-10-21T15:02	10	13	0.2	13	14	376	0.2	375	376	13.7	78.0
2025-10-21T15:03	10	14	0.2	13	14	376	0.2	375	376	13.7	78.5
2025-10-21T15:04	10	14	0.1	14	14	376	0.3	375	376	13.7	78.7
2025-10-21T15:05	10	14	0.1	14	14	376	0.3	375	376	13.7	78.6
2025-10-21T15:06	10	14	0.1	14	14	376	0.2	375	376	13.7	78.3
2025-10-21T15:07	10	14	0.1	14	14	376	0.3	375	376	13.7	77.9
2025-10-21T15:08	10	13	0.1	13	14	375	0.2	375	376	13.7	78.1
2025-10-21T15:09	10	13	0.1	13	13	375	0.2	375	376	13.7	78.6
2025-10-21T15:10	10	13	0.1	13	13	375	0.2	375	376	13.7	78.7
2025-10-21T15:11	10	13	0.1	13	13	375	0.2	375	376	13.6	79.7
2025-10-21T15:12	10	13	0.1	13	13	375	0.2	374	375	13.7	78.6
2025-10-21T15:13	10	13	0.1	13	13	375	0.2	375	375	13.7	77.6
2025-10-21T15:14	10	13	0.1	13	13	375	0.2	374	375	13.7	77.9
2025-10-21T15:15	10	12	0.2	12	13	375	0.2	374	375	13.7	78.1
2025-10-21T15:16	10	12	0.1	12	12	375	0.3	374	375	13.7	78.6
2025-10-21T15:17	10	12	0.1	11	12	375	0.2	374	375	13.6	79.2
2025-10-21T15:18	10	11	0.1	11	12	375	0.2	374	375	13.6	79.0
2025-10-21T15:19	10	11	0.1	11	11	375	0.2	374	375	13.6	78.4
2025-10-21T15:20	10	11	0.1	11	11	375	0.3	374	375	13.6	78.9
2025-10-21T15:21	10	11	0.1	11	12	375	0.3	374	375	13.6	79.3
2025-10-21T15:22	10	12	0.1	11	12	375	0.2	374	375	13.6	79.3
2025-10-21T15:23	10	11	0.1	11	12	375	0.2	374	375	13.6	79.7
2025-10-21T15:24	10	11	0.1	11	12	375	0.2	374	375	13.6	78.7
2025-10-21T15:25	10	11	0.1	11	12	375	0.3	374	375	13.6	78.9
2025-10-21T15:26	10	12	0.1	11	12	374	0.2	374	375	13.6	78.9
2025-10-21T15:27	10	12	0.1	12	12	375	0.3	374	375	13.6	79.9
2025-10-21T15:28	10	12	0.2	12	13	375	0.3	374	375	13.6	79.6
2025-10-21T15:29	10	12	0.1	12	13	375	0.2	374	375	13.6	79.7
2025-10-21T15:30	10	12	0.1	12	13	375	0.2	374	375	13.6	78.7
2025-10-21T15:31	10	12	0.1	12	12	374	0.3	374	375	13.6	78.7
2025-10-21T15:32	10	12	0.1	12	12	374	0.3	374	375	13.6	78.7
2025-10-21T15:33	10	12	0.1	12	12	375	0.2	374	375	13.6	79.0
2025-10-21T15:34	10	12	0.1	12	12	375	0.3	374	375	13.6	79.5
2025-10-21T15:35	10	11	0.2	11	12	374	0.3	374	375	13.6	79.3
2025-10-21T15:36	10	11	0.2	10	11	374	0.2	374	375	13.6	79.5
2025-10-21T15:37	10	10	0.2	10	10	374	0.3	374	375	13.6	79.4
2025-10-21T15:38	10	9	0.1	9	10	374	0.2	374	375	13.7	78.2
2025-10-21T15:39	10	9	0.1	9	9	374	0.2	374	375	13.7	78.4
2025-10-21T15:40	10	9	0.1	9	9	374	0.2	374	375	13.6	79.5
2025-10-21T15:41	10	9	0.1	9	9	374	0.3	374	375	13.6	79.2
2025-10-21T15:42	10	9	0.1	9	9	374	0.2	374	375	13.6	79.0
2025-10-21T15:43	10	9	0.1	9	9	374	0.2	374	374	13.6	79.1
2025-10-21T15:44	10	9	0.1	8	9	374	0.2	374	375	13.7	78.0
2025-10-21T15:45	10	8	0.1	8	9	374	0.2	373	374	13.6	78.8
2025-10-21T15:46	10	8	0.1	8	8	374	0.2	373	374	13.6	78.7
2025-10-21T15:47	10	8	0.1	8	8	374	0.2	373	374	13.6	78.6
2025-10-21T15:48	10	8	0.1	7	8	374	0.2	373	374	13.6	78.9
2025-10-21T15:49	10	7	0.1	7	7	374	0.2	373	374	13.7	78.1
2025-10-21T15:50	10	7	0.2	6	7	374	0.3	373	374	13.7	77.4
2025-10-21T15:51	10	6	0.2	6	7	374	0.2	373	374	13.7	77.7
2025-10-21T15:52	10	6	0.1	5	6	374	0.2	373	374	13.8	76.9
2025-10-21T15:53	10	6	0.1	5	6	374	0.3	373	374	13.7	77.3
2025-10-21T15:54	10	5	0.1	5	5	373	0.3	373	374	13.8	77.1
2025-10-21T15:55	10	5	0.1	5	5	373	0.3	373	374	13.7	77.2
2025-10-21T15:56	10	5	0.1	5	5	373	0.2	373	374	13.7	77.4
2025-10-21T15:57	10	5	0.1	5	5	373	0.2	373	374	13.8	77.1
2025-10-21T15:58	10	5	0.1	5	5	373	0.2	373	374	13.7	77.3
2025-10-21T15:59	10	4	0.1	4	5	374	0.2	373	374	13.8	76.9
2025-10-21T16:00	10	4	0.1	4	4	373	0.2	373	374	13.8	76.7
2025-10-21T16:01	10	4	0.1	4	4	373	0.2	373	374	13.7	77.7
2025-10-21T16:02	10	4	0.1	4	4	373	0.2	373	374	13.7	78.1
2025-10-21T16:03	10	4	0.1	4	4	373	0.2	373	373	13.7	77.7
2025-10-21T16:04	10	4	0.1	4	4	373	0.3	373	374	13.7	77.8
2025-10-21T16:05	10	4	0.1	3	4	373	0.3	372	374	13.7	77.3
2025-10-21T16:06	10	3	0.1	3	3	373	0.2	373	374	13.7	77.9
2025-10-21T16:07	10	3	0.1	3	3	373	0.3	372	373	13.7	77.9
2025-10-21T16:08	10	3	0.1	3	3	373	0.3	372	373	13.6	78.0
2025-10-21T16:09	10	3	0.1	3	3	373	0.2	372	373	13.7	77.7
2025-10-21T16:10	10	3	0.0	3	3	373	0.3	372	373	13.7	77.8
2025-10-21T16:11	10	3	0.1	3	3	373	0.3	372	373	13.7	77.7
2025-10-21T16:12	10	3	0.1	3	3	373	0.3	372	373	13.7	77.1
2025-10-21T16:13	10	3	0.1	3	3	373	0.3	372	373	13.7	77.2
2025-10-21T16:14	10	3	0.1	3	3	372	0.2	372	373	13.7	77.8
2025-10-21T16:15	10	3	0.1	3	3	372	0.3	371	372	13.6	78.2
2025-10-21T16:16	10	3	0.1	3	3	371	0.2	371	372	13.7	77.0
2025-10-21T16:17	10	3	0.1	3	3	372	0.2	371	372	13.7	77.3
2025-10-21T16:18	10	3	0.1	2	3	371	0.3	370	372	13.7	77.8
2025-10-21T16:19	10	3	0.1	2	3	371	0.2	371	372	13.7	77.2
2025-10-21T16:20	10	2	0.1	2	3	371	0.2	371	372	13.8	76.8
2025-10-21T16:21	10	2	0.1	2	3	371	0.2	370	371	13.8	76.8
2025-10-21T16:22	10	2	0.1	2	2	371	0.2	370	371	13.7	77.4
2025-10-21T16:23	10	2	0.1	2	2	370	0.3	370	371	13.6	77.9
2025-10-21T16:24	10	2	0.1	2	2	370	0.3	369	371	13.6	77.8
2025-10-21T16:25	10	2	0.1	2	2	370	0.2	370	371	13.6	77.7
2025-10-21T16:26	10	2	0.1	1	2	370	0.3	369	371	13.6	77.4
2025-10-21T16:27	10	1	0.1	1	2	370	0.3	369	371	13.6	77.6
2025-10-21T16:28	10	1	0.1	1	2	370	0.2	370	371	13.6	78.0
2025-10-21T16:29	10	1	0.1	1	1	370	0.2	369	370	13.5	78.4
2025-10-21T16:30	10	1	0.1	1	1	369	0.2	369	370	13.5	78.2
2025-10-21T16:31	10	1	0.1	1	1	369	0.3	369	370	13.5	78.2
2025-10-21T16:32	10	1	0.1	1	1	370	0.2	369	370	13.5	78.2
2025-10-21T16:33	10	1	0.1	1	1	370	0.2	369	370	13.6	77.9
2025-10-21T16:34	10	1	0.1	1	1	369	0.2	369	370	13.5	78.2
2025-10-21T16:35	10	1	0.1	1	1	369	0.3	369	370	13.5	78.3
2025-10-21T16:36	10	1	0.1	1	1	370	0.5	369	371	13.6	77.3
2025-10-21T16:37	10	1	0.1	1	1	371	0.3	370	371	13.7	76.5
2025-10-21T16:38	10	1	0.1	1	1	371	0.3	370	371	13.6	77.1
2025-10-21T16:39	10	1	0.1	1	1	370	0.2	370	371	13.6	77.6
2025-10-21T16:40	10	1	0.1	1	1	371	0.3	370	371	13.6	77.6
2025-10-21T16:41	10	1	0.1	1	1	371	0.2	370	371	13.6	77.6
2025-10-21T16:42	10	1	0.1	1	1	371	0.2	370	371	13.5	78.0
2025-10-21T16:43	10	1	0.0	1	1	370	0.3	370	371	13.5	77.6
2025-10-21T16:44	10	1	0.0	1	1	371	0.2	370	371	13.6	76.7
2025-10-21T16:45	10	1	0.0	1	1	371	0.2	370	371	13.6	76.9
2025-10-21T16:46	10	1	0.0	1	1	371	0.2	371	372	13.7	76.1
2025-10-21T16:47	10	1	0.0	1	1	371	0.2	371	372	13.6	77.2
2025-10-21T16:48	10	1	0.1	1	1	371	0.2	371	372	13.6	77.2
2025-10-21T16:49	10	1	0.0	1	1	371	0.2	371	372	13.6	76.2
2025-10-21T16:50	10	1	0.1	1	1	371	0.2	371	372	13.7	75.4
2025-10-21T16:51	10	1	0.0	1	1	371	0.3	371	372	13.7	75.7
2025-10-21T16:52	10	1	0.1	0	1	372	0.2	371	372	13.7	75.2
2025-10-21T16:53	10	1	0.0	1	1	371	0.2	371	372	13.7	75.7
2025-10-21T16:54	10	1	0.0	1	1	371	0.3	370	372	13.6	76.3
2025-10-21T16:55	10	1	0.0	1	1	371	0.2	371	372	13.6	76.4
2025-10-21T16:56	10	1	0.0	1	1	371	0.2	371	372	13.6	76.0
2025-10-21T16:57	10	1	0.0	0	1	371	0.3	371	372	13.6	76.1
2025-10-21T16:58	10	1	0.0	1	1	371	0.2	371	372	13.6	76.1
2025-10-21T16:59	10	1	0.1	0	1	371	0.2	371	372	13.6	75.8
2025-10-21T17:00	10	1	0.0	0	1	371	0.2	371	372	13.6	76.2
2025-10-21T17:01	10	1	0.0	1	1	371	0.2	370	371	13.6	76.6
2025-10-21T17:02	10	1	0.1	0	1	371	0.2	370	371	13.5	76.8
2025-10-21T17:03	10	1	0.0	1	1	371	0.2	371	372	13.6	75.6
2025-10-21T17:04	10	1	0.1	0	1	371	0.3	371	372	13.7	75.6
2025-10-21T17:05	10	1	0.0	1	1	371	0.2	371	372	13.6	75.9
2025-10-21T17:06	10	1	0.1	0	1	371	0.2	370	371	13.6	76.2
2025-10-21T17:07	10	1	0.1	0	1	371	0.2	370	371	13.6	76.1
2025-10-21T17:08	10	1	0.0	0	1	371	0.3	370	371	13.6	76.1
2025-10-21T17:09	10	1	0.1	0	1	370	0.3	369	371	13.6	76.2
2025-10-21T17:10	10	1	0.1	0	1	369	0.3	369	370	13.6	76.0
2025-10-21T17:11	10	1	0.1	0	1	370	0.2	369	370	13.6	76.3
2025-10-21T17:12	10	1	0.1	0	1	369	0.3	369	370	13.5	76.6
2025-10-21T17:13	10	1	0.1	0	1	369	0.2	369	370	13.5	76.2
2025-10-21T17:14	10	1	0.1	0	1	369	0.2	368	369	13.5	76.4
2025-10-21T17:15	10	1	0.1	0	1	369	0.2	369	369	13.5	76.5
2025-10-21T17:16	10	1	0.0	0	1	369	0.2	369	370	13.5	76.0
2025-10-21T17:17	10	1	0.1	0	1	369	0.2	369	370	13.5	76.0
2025-10-21T17:18	10	1	0.0	0	1	369	0.3	368	369	13.5	76.4
2025-10-21T17:19	10	1	0.1	0	1	368	0.3	368	369	13.4	76.7
2025-10-21T17:20	10	1	0.1	0	1	369	0.3	368	369	13.5	75.8
2025-10-21T17:21	10	1	0.0	1	1	368	0.3	368	369	13.5	76.1
2025-10-21T17:22	10	1	0.1	0	1	368	0.2	368	369	13.5	76.1
2025-10-21T17:23	10	1	0.1	0	1	369	0.2	368	369	13.5	75.7
2025-10-21T17:24	10	1	0.1	0	1	369	0.2	369	370	13.6	75.3
2025-10-21T17:25	10	1	0.1	0	1	370	0.3	369	370	13.5	75.8
2025-10-21T17:26	10	1	0.0	0	1	370	0.3	369	370	13.5	75.7
2025-10-21T17:27	10	1	0.1	0	1	369	0.3	369	370	13.5	76.2
2025-10-21T17:28	10	1	0.0	1	1	370	0.2	370	371	13.6	75.2
2025-10-21T17:29	10	1	0.0	0	1	370	0.2	370	371	13.6	74.9
2025-10-21T17:30	10	1	0.0	0	1	370	0.2	370	371	13.6	74.7
2025-10-21T17:31	10	1	0.0	0	1	370	0.3	369	371	13.6	75.4
2025-10-21T17:32	10	1	0.1	0	1	369	0.2	369	370	13.6	75.4
2025-10-21T17:33	10	1	0.1	0	1	369	0.2	369	370	13.5	75.7
2025-10-21T17:34	10	1	0.1	0	1	370	0.3	369	370	13.5	75.5
2025-10-21T17:35	10	1	0.1	0	1	370	0.2	369	370	13.5	75.7
2025-10-21T17:36	10	1	0.0	1	1	370	0.2	370	370	13.5	75.7
2025-10-21T17:37	10	1	0.0	0	1	370	0.2	370	370	13.5	75.8
2025-10-21T17:38	10	1	0.1	0	1	370	0.2	370	371	13.4	76.2
2025-10-21T17:39	10	1	0.1	0	1	370	0.2	370	370	13.4	76.5
2025-10-21T17:40	10	1	0.0	0	1	370	0.2	370	371	13.4	76.7
2025-10-21T17:41	10	1	0.1	0	1	370	0.2	370	370	13.4	76.7
2025-10-21T17:42	10	1	0.1	0	1	370	0.2	370	371	13.4	76.6
2025-10-21T17:43	10	1	0.0	0	1	370	0.2	369	371	13.4	77.0
2025-10-21T17:44	10	1	0.1	0	1	370	0.3	369	370	13.3	77.2
2025-10-21T17:45	10	1	0.1	0	1	370	0.3	369	370	13.4	77.0
2025-10-21T17:46	10	1	0.1	0	1	370	0.2	370	371	13.4	76.6
2025-10-21T17:47	10	1	0.1	0	1	371	0.3	370	371	13.5	76.4
2025-10-21T17:48	10	1	0.0	0	1	371	0.2	370	371	13.4	76.9
2025-10-21T17:49	10	1	0.0	0	1	370	0.3	370	371	13.4	77.1
2025-10-21T17:50	10	1	0.1	0	1	371	0.3	370	371	13.4	76.8
2025-10-21T17:51	10	1	0.0	0	1	371	0.3	370	371	13.5	76.4
2025-10-21T17:52	10	1	0.1	0	1	371	0.3	370	371	13.5	76.7
2025-10-21T17:53	10	1	0.1	0	1	371	0.2	371	372	13.6	76.2
2025-10-21T17:54	10	1	0.0	0	1	371	0.3	371	372	13.6	75.6
2025-10-21T17:55	10	1	0.0	0	1	371	0.2	370	371	13.6	76.1
2025-10-21T17:56	10	1	0.1	0	1	370	0.3	370	371	13.5	76.5
2025-10-21T17:57	10	1	0.1	0	1	370	0.3	369	370	13.5	76.9
2025-10-21T17:58	10	1	0.0	0	1	370	0.3	369	370	13.4	76.9
2025-10-21T17:59	10	1	0.0	0	1	370	0.2	369	370	13.5	77.0
2025-10-21T18:00	10	1	0.1	0	1	369	0.3	369	370	13.4	77.0
2025-10-21T18:01	10	1	0.1	0	1	369	0.2	369	369	13.5	77.1
2025-10-21T18:02	10	1	0.1	0	1	369	0.2	368	369	13.5	77.1
2025-10-21T18:03	10	1	0.1	0	1	368	0.2	367	368	13.4	77.6
2025-10-21T18:04	10	0	0.1	0	1	367	0.3	367	368	13.4	77.8
2025-10-21T18:05	10	0	0.1	0	1	367	0.3	367	368	13.4	77.7
2025-10-21T18:06	10	0	0.1	0	1	367	0.2	367	368	13.4	77.6
2025-10-21T18:07	10	0	0.1	0	1	367	0.3	367	368	13.4	77.7
2025-10-21T18:08	10	0	0.1	0	1	368	0.3	367	369	13.4	77.8
2025-10-21T18:09	10	0	0.1	0	1	368	0.3	367	369	13.3	78.0
2025-10-21T18:10	10	0	0.1	0	1	368	0.2	367	368	13.3	78.0
2025-10-21T18:11	10	1	0.1	0	1	367	0.3	367	368	13.3	78.2
2025-10-21T18:12	10	0	0.1	0	1	367	0.2	366	367	13.3	78.4
2025-10-21T18:13	10	1	0.1	0	1	366	0.4	365	367	13.2	78.7
2025-10-21T18:14	10	0	0.1	0	1	366	0.3	365	366	13.2	79.2
2025-10-21T18:15	10	0	0.1	0	1	366	0.2	365	366	13.2	78.8
2025-10-21T18:16	10	0	0.1	0	1	365	0.3	365	366	13.2	79.3
2025-10-21T18:17	10	0	0.1	0	1	365	0.2	365	366	13.2	78.9
2025-10-21T18:18	10	0	0.1	0	1	366	0.2	365	366	13.1	79.7
2025-10-21T18:19	10	0	0.1	0	1	365	0.2	365	366	13.1	79.4
2025-10-21T18:20	10	0	0.1	0	1	365	0.3	364	365	13.1	79.4
2025-10-21T18:21	10	0	0.1	0	1	364	0.3	364	365	13.1	79.4
2025-10-21T18:22	10	0	0.1	0	1	364	0.2	363	364	13.1	79.5
2025-10-21T18:23	10	0	0.0	0	1	363	0.2	363	364	13.1	79.6
2025-10-21T18:24	10	0	0.1	0	1	363	0.3	362	363	13.0	79.9
2025-10-21T18:25	10	0	0.1	0	1	363	0.3	363	364	13.0	80.1
2025-10-21T18:26	10	0	0.1	0	1	363	0.2	363	364	13.0	80.3
2025-10-21T18:27	10	0	0.1	0	1	363	0.3	363	364	12.9	80.5
2025-10-21T18:28	10	0	0.1	0	1	364	0.2	363	364	13.0	80.2
2025-10-21T18:29	10	0	0.1	0	1	364	0.4	363	365	13.0	80.3
2025-10-21T18:30	10	0	0.1	0	1	365	0.2	364	365	13.0	80.3
2025-10-21T18:31	10	0	0.1	0	1	365	0.2	364	365	13.0	80.5
2025-10-21T18:32	10	0	0.1	0	1	365	0.2	364	365	12.9	80.7
2025-10-21T18:33	10	0	0.1	0	1	365	0.3	364	366	12.9	80.7
2025-10-21T18:34	10	0	0.1	0	1	366	0.2	365	366	12.9	80.8
2025-10-21T18:35	10	1	0.1	0	1	366	0.2	365	366	13.0	80.7
2025-10-21T18:36	10	1	0.1	0	1	366	0.3	365	366	12.9	80.9
2025-10-21T18:37	10	1	0.1	0	1	366	0.3	366	367	12.9	81.1
2025-10-21T18:38	10	1	0.1	0	1	366	0.3	366	367	12.9	81.3
2025-10-21T18:39	10	1	0.1	0	1	367	0.3	366	368	12.9	81.0
2025-10-21T18:40	10	1	0.1	0	1	367	0.3	367	368	12.9	81.2
2025-10-21T18:41	10	1	0.1	1	1	368	0.3	367	369	13.0	80.9
2025-10-21T18:42	10	1	0.1	0	1	368	0.2	368	369	13.1	80.6
2025-10-21T18:43	10	1	0.1	0	1	369	0.3	368	369	13.1	80.3
2025-10-21T18:44	10	1	0.0	1	1	369	0.2	368	369	13.1	80.6
2025-10-21T18:45	10	1	0.0	0	1	369	0.3	368	369	13.0	81.2
2025-10-21T18:46	10	1	0.1	0	1	369	0.2	368	369	13.0	81.1
2025-10-21T18:47	10	1	0.1	0	1	369	0.3	368	369	13.0	81.1
2025-10-21T18:48	10	1	0.1	0	1	369	0.3	368	369	13.0	81.4
2025-10-21T18:49	10	1	0.1	0	1	369	0.2	368	369	12.9	81.8
2025-10-21T18:50	10	1	0.1	0	1	369	0.2	368	369	12.9	81.7
2025-10-21T18:51	10	1	0.0	0	1	369	0.3	368	369	12.9	81.7
2025-10-21T18:52	10	1	0.0	1	1	369	0.3	369	370	13.0	81.5
2025-10-21T18:53	10	1	0.0	1	1	369	0.3	368	370	13.0	81.5
2025-10-21T18:54	10	1	0.0	1	1	369	0.2	369	370	13.0	81.5
2025-10-21T18:55	10	1	0.0	1	1	369	0.2	368	369	13.0	81.5
2025-10-21T18:56	10	1	0.0	1	1	369	0.2	369	370	13.0	81.5
2025-10-21T18:57	10	1	0.0	1	1	369	0.2	369	370	13.0	80.2
2025-10-21T18:58	10	1	0.1	0	1	370	0.2	369	370	13.0	81.5
2025-10-21T18:59	10	1	0.0	1	1	370	0.2	370	371	13.0	81.5
2025-10-21T19:00	10	1	0.0	1	1	370	0.2	370	370	13.0	81.5
2025-10-21T19:01	10	1	0.1	1	1	370	0.4	369	371	13.1	80.3
2025-10-21T19:02	10	1	0.1	1	1	370	0.2	370	371	13.3	79.8
2025-10-21T19:03	10	1	0.1	1	1	370	0.3	370	371	13.3	80.2
2025-10-21T19:04	10	1	0.0	1	1	370	0.2	370	371	13.3	80.4
2025-10-21T19:05	10	1	0.0	1	1	370	0.3	370	371	13.2	80.9
2025-10-21T19:06	10	1	0.0	1	1	370	0.2	370	371	13.2	81.0
2025-10-21T19:07	10	1	0.1	1	1	370	0.2	370	371	13.2	80.6
2025-10-21T19:08	10	1	0.0	1	1	371	0.3	370	371	13.3	80.1
2025-10-21T19:09	10	1	0.0	1	1	371	0.2	370	371	13.3	80.2
2025-10-21T19:10	10	1	0.0	1	1	371	0.3	370	371	13.3	80.4
2025-10-21T19:11	10	1	0.0	1	1	370	0.3	370	371	13.3	80.3
2025-10-21T19:12	10	1	0.0	1	1	371	0.2	370	371	13.3	80.3
2025-10-21T19:13	10	1	0.0	1	1	370	0.2	370	371	13.3	80.3
2025-10-21T19:14	10	1	0.1	1	1	370	0.2	370	370	13.3	80.3
2025-10-21T19:15	10	1	0.0	1	1	370	0.3	370	371	13.2	80.7
2025-10-21T19:16	10	1	0.1	1	1	370	0.2	370	371	13.2	80.6
2025-10-21T19:17	10	1	0.0	1	1	370	0.2	370	371	13.2	80.8
2025-10-21T19:18	10	1	0.1	1	1	370	0.2	369	371	13.3	80.3
2025-10-21T19:19	10	1	0.1	0	1	370	0.3	370	371	13.3	79.6
2025-10-21T19:20	10	1	0.1	1	1	371	0.3	370	372	13.5	78.3
2025-10-21T19:21	10	1	0.0	1	1	371	0.2	370	371	13.5	78.7
2025-10-21T19:22	10	1	0.1	1	1	371	0.3	370	371	13.5	78.4
2025-10-21T19:23	10	1	0.0	1	1	371	0.2	370	371	13.5	78.9
2025-10-21T19:24	10	1	0.0	1	1	371	0.3	370	371	13.4	79.0
2025-10-21T19:25	10	1	0.1	0	1	372	0.2	371	372	13.6	78.3
2025-10-21T19:26	10	1	0.0	1	1	372	0.2	371	372	13.6	77.8
2025-10-21T19:27	10	1	0.0	0	1	371	0.3	370	372	13.6	78.3
2025-10-21T19:28	10	1	0.0	1	1	371	0.2	370	372	13.5	78.7
2025-10-21T19:29	10	1	0.0	1	1	371	0.2	370	371	13.5	78.8
2025-10-21T19:30	10	1	0.1	0	1	371	0.2	370	371	13.5	78.6
2025-10-21T19:31	10	1	0.1	0	1	371	0.3	370	371	13.6	78.4
2025-10-21T19:32	10	1	0.1	0	1	371	0.3	370	372	13.6	77.8
2025-10-21T19:33	10	1	0.1	0	1	371	0.3	371	372	13.7	77.3
2025-10-21T19:34	10	1	0.1	0	1	371	0.2	370	371	13.6	78.1
2025-10-21T19:35	10	1	0.1	0	1	371	0.2	370	371	13.6	77.9
2025-10-21T19:36	10	1	0.1	0	1	371	0.2	371	372	13.7	77.7
2025-10-21T19:37	10	1	0.1	0	1	371	0.3	370	371	13.6	78.2
2025-10-21T19:38	10	1	0.0	0	1	371	0.2	371	371	13.6	77.7
2025-10-21T19:39	10	1	0.0	1	1	371	0.3	370	372	13.6	77.9
2025-10-21T19:40	10	1	0.1	0	1	371	0.2	370	371	13.6	78.3
2025-10-21T19:41	10	1	0.1	0	1	371	0.3	371	372	13.6	77.9
2025-10-21T19:42	10	1	0.1	0	1	371	0.4	370	372	13.6	78.0
2025-10-21T19:43	10	1	0.1	0	1	371	0.3	370	371	13.6	78.4
2025-10-21T19:44	10	1	0.1	0	1	371	0.2	370	371	13.6	78.5
2025-10-21T19:45	10	1	0.1	0	1	371	0.2	370	371	13.6	78.3
2025-10-21T19:46	10	1	0.1	0	1	371	0.3	370	372	13.6	78.2
2025-10-21T19:47	10	0	0.1	0	1	370	0.3	370	371	13.6	78.5
2025-10-21T19:48	10	0	0.1	0	1	370	0.2	370	371	13.6	78.5
2025-10-21T19:49	10	0	0.1	0	1	370	0.2	370	371	13.5	78.8
2025-10-21T19:50	10	0	0.1	0	1	370	0.3	369	371	13.5	79.0
2025-10-21T19:51	10	0	0.1	0	1	370	0.3	370	371	13.6	78.7
2025-10-21T19:52	10	0	0.1	0	1	371	0.2	370	371	13.6	78.3
2025-10-21T19:53	10	0	0.1	0	1	371	0.2	370	371	13.6	78.4
2025-10-21T19:54	10	0	0.1	0	1	371	0.4	370	372	13.6	78.1
2025-10-21T19:55	10	0	0.1	0	1	371	0.2	370	371	13.7	77.9
2025-10-21T19:56	10	0	0.1	0	1	371	0.2	370	371	13.6	78.7
2025-10-21T19:57	10	0	0.1	0	1	371	0.3	370	372	13.6	78.3
2025-10-21T19:58	10	0	0.1	0	1	371	0.2	371	371	13.6	78.5
2025-10-21T19:59	10	0	0.1	0	1	371	0.3	370	371	13.6	78.6
2025-10-21T20:00	10	0	0.1	0	1	371	0.3	370	372	13.6	78.2
2025-10-21T20:01	10	0	0.1	0	1	371	0.3	370	371	13.6	78.4
2025-10-21T20:02	10	0	0.1	0	1	371	0.2	370	371	13.6	78.8
2025-10-21T20:03	10	1	0.1	0	1	371	0.2	370	371	13.6	78.6
2025-10-21T20:04	10	0	0.1	0	1	371	0.2	371	372	13.6	78.6
2025-10-21T20:05	10	0	0.1	0	1	372	0.2	371	372	13.7	78.2
2025-10-21T20:06	10	0	0.1	0	1	372	0.2	371	372	13.6	78.6
2025-10-21T20:07	10	0	0.1	0	1	372	0.4	371	373	13.7	78.1
2025-10-21T20:08	10	0	0.1	0	1	372	0.3	371	373	13.7	78.2
2025-10-21T20:09	10	0	0.1	0	1	372	0.2	371	372	13.6	78.3
2025-10-21T20:10	10	1	0.1	0	1	372	0.2	372	372	13.7	78.2
2025-10-21T20:11	10	0	0.1	0	1	372	0.3	372	373	13.7	78.2
2025-10-21T20:12	10	1	0.1	0	1	372	0.2	372	372	13.6	78.5
2025-10-21T20:13	10	1	0.1	0	1	372	0.3	372	372	13.6	78.7
2025-10-21T20:14	10	0	0.1	0	1	372	0.2	371	372	13.6	78.8
2025-10-21T20:15	10	0	0.1	0	1	372	0.2	372	372	13.6	78.6
2025-10-21T20:16	10	0	0.1	0	1	372	0.2	372	373	13.7	78.3
2025-10-21T20:17	10	0	0.1	0	1	372	0.3	371	373	13.6	78.8
2025-10-21T20:18	10	0	0.1	0	1	372	0.3	371	373	13.6	79.1
2025-10-21T20:19	10	0	0.1	0	1	372	0.3	371	373	13.6	78.8
2025-10-21T20:20	10	0	0.1	0	1	372	0.3	372	373	13.6	78.8
2025-10-21T20:21	10	0	0.1	0	1	372	0.3	372	373	13.6	79.0
2025-10-21T20:22	10	0	0.1	0	1	372	0.2	372	373	13.6	79.1
2025-10-21T20:23	10	0	0.1	0	1	372	0.2	372	372	13.5	79.9
2025-10-21T20:24	10	0	0.1	0	1	372	0.2	372	373	13.6	79.4
2025-10-21T20:25	10	0	0.1	0	1	372	0.2	372	373	13.6	79.3
2025-10-21T20:26	10	0	0.1	0	1	372	0.3	372	373	13.6	79.3
2025-10-21T20:27	10	0	0.1	0	1	373	0.3	372	373	13.6	79.4
2025-10-21T20:28	10	0	0.1	0	1	372	0.3	372	373	13.5	79.9
2025-10-21T20:29	10	0	0.1	0	1	372	0.3	371	373	13.5	80.0
2025-10-21T20:30	10	1	0.1	0	1	372	0.2	372	372	13.5	80.4
2025-10-21T20:31	10	1	0.1	0	1	372	0.3	371	373	13.5	80.4
2025-10-21T20:32	10	0	0.1	0	1	372	0.2	371	373	13.5	80.4
2025-10-21T20:33	10	0	0.1	0	1	372	0.2	372	373	13.6	80.1
2025-10-21T20:34	10	0	0.1	0	1	372	0.3	372	373	13.6	79.8
2025-10-21T20:35	10	0	0.1	0	1	372	0.2	371	372	13.5	80.6
2025-10-21T20:36	10	0	0.1	0	1	372	0.3	371	372	13.5	80.5
2025-10-21T20:37	10	0	0.1	0	1	372	0.2	371	372	13.6	80.2
2025-10-21T20:38	10	0	0.1	0	1	372	0.2	371	372	13.5	80.7
2025-10-21T20:39	10	0	0.1	0	1	372	0.3	371	372	13.5	80.3
2025-10-21T20:40	10	1	0.1	0	1	372	0.2	372	372	13.5	80.4
2025-10-21T20:41	10	1	0.1	0	1	372	0.3	372	373	13.6	80.2
2025-10-21T20:42	10	1	0.1	0	1	373	0.3	372	373	13.6	80.1
2025-10-21T20:43	10	1	0.1	0	1	373	0.3	372	373	13.6	80.6
2025-10-21T20:44	10	1	0.1	0	1	373	0.3	372	373	13.6	80.5
2025-10-21T20:45	10	1	0.1	0	1	373	0.2	372	373	13.6	80.0
2025-10-21T20:46	10	0	0.1	0	1	373	0.2	372	374	13.6	80.2
2025-10-21T20:47	10	0	0.1	0	1	373	0.2	373	374	13.6	80.4
2025-10-21T20:48	10	1	0.1	0	1	373	0.3	372	373	13.6	80.8
2025-10-21T20:49	10	1	0.1	0	1	373	0.2	372	373	13.5	81.0
2025-10-21T20:50	10	1	0.1	0	1	373	0.2	372	373	13.5	81.0
2025-10-21T20:51	10	1	0.1	0	1	373	0.2	372	373	13.6	81.0
2025-10-21T20:52	10	1	0.1	0	1	373	0.2	372	373	13.5	81.2
2025-10-21T20:53	10	1	0.1	0	1	373	0.2	372	373	13.6	80.7
2025-10-21T20:54	10	1	0.1	0	1	373	0.2	372	373	13.6	80.7
2025-10-21T20:55	10	1	0.1	0	1	373	0.2	372	374	13.6	80.7
2025-10-21T20:56	10	1	0.1	0	1	373	0.2	373	373	13.7	80.4
2025-10-21T20:57	10	1	0.1	0	1	373	0.2	372	373	13.6	81.0
2025-10-21T20:58	10	1	0.1	0	1	373	0.2	373	374	13.6	80.8
2025-10-21T20:59	10	1	0.1	0	1	373	0.3	372	373	13.6	81.0
2025-10-21T21:00	10	0	0.1	0	1	373	0.3	373	374	13.7	80.3
2025-10-21T21:01	10	1	0.1	0	1	373	0.2	373	374	13.7	80.6
2025-10-21T21:02	10	1	0.1	0	1	373	0.2	372	373	13.6	80.8
2025-10-21T21:03	10	1	0.1	0	1	373	0.3	372	373	13.7	80.1
2025-10-21T21:04	10	1	0.1	0	1	373	0.3	372	373	13.6	80.8
2025-10-21T21:05	10	1	0.1	0	1	373	0.3	372	373	13.6	80.7
2025-10-21T21:06	10	0	0.1	0	1	373	0.2	372	373	13.7	80.5
2025-10-21T21:07	10	1	0.1	0	1	373	0.2	372	373	13.7	80.6
2025-10-21T21:08	10	0	0.1	0	1	373	0.2	372	373	13.7	80.4
2025-10-21T21:09	10	1	0.1	0	1	373	0.2	372	373	13.7	80.6
2025-10-21T21:10	10	0	0.1	0	1	373	0.3	372	373	13.6	80.9
2025-10-21T21:11	10	1	0.1	0	1	373	0.3	372	373	13.7	80.8
2025-10-21T21:12	10	0	0.1	0	1	373	0.2	372	374	13.8	80.1
2025-10-21T21:13	10	1	0.1	0	1	373	0.2	373	374	13.8	79.9
2025-10-21T21:14	10	0	0.1	0	1	373	0.2	373	374	13.8	79.9
2025-10-21T21:15	10	0	0.1	0	1	373	0.3	373	374	13.8	80.2
2025-10-21T21:16	10	1	0.1	0	1	373	0.3	372	373	13.8	79.9
2025-10-21T21:17	10	1	0.1	0	1	373	0.2	372	373	13.8	80.4
2025-10-21T21:18	10	1	0.1	0	1	372	0.3	372	373	13.8	80.3
2025-10-21T21:19	10	1	0.1	0	1	372	0.2	372	373	13.8	80.4
2025-10-21T21:20	10	0	0.1	0	1	372	0.2	372	373	13.7	80.8
2025-10-21T21:21	10	0	0.1	0	1	373	0.2	372	373	13.8	80.3
2025-10-21T21:22	10	0	0.1	0	1	373	0.3	372	373	13.8	80.6
2025-10-21T21:23	10	1	0.1	0	1	372	0.2	372	373	13.7	80.9
2025-10-21T21:24	10	0	0.1	0	1	372	0.2	372	373	13.7	81.2
2025-10-21T21:25	10	1	0.1	0	1	373	0.2	372	373	13.8	80.9
2025-10-21T21:26	10	1	0.1	0	1	372	0.3	372	373	13.8	80.7
2025-10-21T21:27	10	1	0.0	0	1	373	0.3	372	373	13.8	80.6
2025-10-21T21:28	10	0	0.1	0	1	372	0.2	372	373	13.7	81.1
2025-10-21T21:29	10	1	0.0	0	1	373	0.3	372	373	13.8	80.8
2025-10-21T21:30	10	1	0.1	0	1	373	0.2	372	373	13.8	80.8
2025-10-21T21:31	10	1	0.1	0	1	373	0.2	372	373	13.8	81.1
2025-10-21T21:32	10	1	0.1	0	1	373	0.3	372	373	13.7	81.4
2025-10-21T21:33	10	1	0.1	0	1	373	0.2	372	373	13.7	81.4
2025-10-21T21:34	10	1	0.1	0	1	373	0.3	372	373	13.8	81.1
2025-10-21T21:35	10	0	0.1	0	1	373	0.2	372	373	13.7	81.5
2025-10-21T21:36	10	1	0.1	0	1	372	0.3	372	373	13.7	81.5
2025-10-21T21:37	10	0	0.1	0	1	373	0.2	372	373	13.8	81.3
2025-10-21T21:38	10	0	0.1	0	1	372	0.3	372	373	13.7	81.8
2025-10-21T21:39	10	0	0.1	0	1	373	0.2	372	373	13.7	81.6
2025-10-21T21:40	10	1	0.1	0	1	373	0.4	372	374	13.7	81.8
2025-10-21T21:41	10	1	0.1	0	1	373	0.2	373	374	13.7	82.0
2025-10-21T21:42	10	1	0.1	0	1	373	0.3	372	373	13.7	82.1
2025-10-21T21:43	10	0	0.1	0	1	373	0.2	373	373	13.7	82.2
2025-10-21T21:44	10	1	0.1	0	1	373	0.2	372	373	13.7	82.2
2025-10-21T21:45	10	0	0.1	0	1	373	0.3	373	374	13.7	81.9
2025-10-21T21:46	10	1	0.1	0	1	373	0.3	372	374	13.6	82.3
2025-10-21T21:47	10	1	0.1	0	1	373	0.2	373	374	13.6	82.5
2025-10-21T21:48	10	1	0.1	0	1	373	0.2	373	374	13.6	82.4
2025-10-21T21:49	10	1	0.1	0	1	374	0.3	373	374	13.7	82.3
2025-10-21T21:50	10	1	0.1	0	1	373	0.3	373	374	13.6	82.5
2025-10-21T21:51	10	0	0.1	0	1	373	0.2	372	373	13.6	82.6
2025-10-21T21:52	10	0	0.1	0	1	373	0.3	372	373	13.7	82.5
2025-10-21T21:53	10	0	0.1	0	1	372	0.2	372	373	13.6	83.0
2025-10-21T21:54	10	0	0.1	0	1	372	0.3	371	373	13.5	83.5
2025-10-21T21:55	10	0	0.1	0	1	373	0.2	372	373	13.6	83.2
2025-10-21T21:56	10	0	0.1	0	1	373	0.2	373	374	13.7	82.7
2025-10-21T21:57	10	0	0.1	0	1	373	0.3	373	374	13.6	83.1
2025-10-21T21:58	10	0	0.1	0	1	373	0.3	373	374	13.6	83.1
2025-10-21T21:59	10	0	0.1	0	1	373	0.3	373	374	13.7	82.9
2025-10-21T22:00	10	0	0.1	0	1	373	0.3	372	373	13.6	83.4
2025-10-21T22:01	10	0	0.1	0	1	373	0.2	373	374	13.6	83.3
2025-10-21T22:02	10	0	0.1	0	1	373	0.3	372	373	13.6	83.3
2025-10-21T22:03	10	0	0.1	0	1	373	0.2	373	374	13.6	83.3
2025-10-21T22:04	10	0	0.1	0	1	373	0.3	373	374	13.6	83.6
2025-10-21T22:05	10	0	0.1	0	1	374	0.2	373	374	13.7	83.1
2025-10-21T22:06	10	0	0.1	0	1	374	0.3	373	374	13.7	83.3
2025-10-21T22:07	10	0	0.1	0	1	374	0.3	373	374	13.7	83.1
2025-10-21T22:08	10	1	0.1	0	1	374	0.2	373	374	13.7	83.2
2025-10-21T22:09	10	1	0.1	0	1	374	0.3	373	375	13.7	83.2
2025-10-21T22:10	10	1	0.1	0	1	374	0.2	374	375	13.7	83.3
2025-10-21T22:11	10	1	0.1	0	1	374	0.3	373	375	13.7	83.2
2025-10-21T22:12	10	0	0.1	0	1	374	0.3	373	375	13.7	83.4
2025-10-21T22:13	10	0	0.1	0	1	374	0.2	374	375	13.7	83.6
2025-10-21T22:14	10	1	0.1	0	1	374	0.2	373	374	13.7	83.6
2025-10-21T22:15	10	1	0.1	0	1	374	0.2	373	374	13.7	83.4
2025-10-21T22:16	10	1	0.1	0	1	374	0.2	373	374	13.7	83.7
2025-10-21T22:17	10	0	0.1	0	1	374	0.2	373	374	13.6	83.9
2025-10-21T22:18	10	1	0.1	0	1	374	0.2	373	374	13.6	84.0
2025-10-21T22:19	10	1	0.1	0	1	374	0.3	373	374	13.7	83.9
2025-10-21T22:20	10	0	0.0	0	1	374	0.2	373	375	13.6	84.1
2025-10-21T22:21	10	0	0.1	0	1	374	0.2	373	374	13.6	84.5
2025-10-21T22:22	10	0	0.1	0	1	374	0.3	373	375	13.7	84.0
2025-10-21T22:23	10	1	0.1	0	1	374	0.2	374	375	13.7	83.7
2025-10-21T22:24	10	1	0.1	0	1	374	0.2	374	375	13.7	83.9
2025-10-21T22:25	10	0	0.1	0	1	374	0.2	374	375	13.7	84.0
2025-10-21T22:26	10	1	0.1	0	1	374	0.2	373	374	13.6	84.3
2025-10-21T22:27	10	1	0.1	0	1	374	0.2	373	374	13.7	84.0
2025-10-21T22:28	10	1	0.1	0	1	374	0.2	373	375	13.7	83.9
2025-10-21T22:29	10	0	0.1	0	1	374	0.2	374	375	13.7	83.9
2025-10-21T22:30	10	1	0.1	0	1	374	0.3	373	375	13.7	84.1
2025-10-21T22:31	10	1	0.1	0	1	374	0.2	373	374	13.6	84.5
2025-10-21T22:32	10	1	0.1	0	1	374	0.2	373	374	13.6	84.4
2025-10-21T22:33	10	1	0.1	0	1	374	0.2	373	374	13.6	84.3
2025-10-21T22:34	10	1	0.1	0	1	374	0.2	373	374	13.6	84.2
2025-10-21T22:35	10	1	0.1	0	1	374	0.3	373	374	13.6	84.8
2025-10-21T22:36	10	1	0.1	0	1	374	0.2	373	374	13.6	84.7
2025-10-21T22:37	10	1	0.1	0	1	374	0.2	373	374	13.6	84.8
2025-10-21T22:38	10	1	0.1	0	1	373	0.2	373	374	13.5	85.1
2025-10-21T22:39	10	1	0.1	0	1	374	0.3	373	374	13.5	85.2
2025-10-21T22:40	10	1	0.1	0	1	373	0.2	373	374	13.5	85.2
2025-10-21T22:41	10	1	0.1	0	1	374	0.2	373	374	13.5	85.3
2025-10-21T22:42	10	1	0.0	0	1	374	0.2	373	374	13.5	85.3
2025-10-21T22:43	10	1	0.1	0	1	373	0.2	373	374	13.5	85.3
2025-10-21T22:44	10	1	0.0	0	1	373	0.3	373	374	13.5	85.2
2025-10-21T22:45	10	1	0.1	0	1	374	0.2	373	374	13.5	85.2
2025-10-21T22:46	10	1	0.1	0	1	374	0.3	373	374	13.5	85.3
2025-10-21T22:47	10	1	0.0	0	1	373	0.3	373	374	13.5	85.3
2025-10-21T22:48	10	1	0.1	0	1	374	0.2	373	374	13.6	85.1
2025-10-21T22:49	10	1	0.0	0	1	374	0.2	373	374	13.5	85.1
2025-10-21T22:50	10	1	0.0	1	1	373	0.2	373	374	13.5	85.2
2025-10-21T22:51	10	1	0.1	1	1	373	0.3	373	374	13.5	85.0
2025-10-21T22:52	10	1	0.1	0	1	373	0.2	373	374	13.5	85.1
2025-10-21T22:53	10	1	0.0	0	1	374	0.2	373	374	13.6	84.1
2025-10-21T22:54	10	1	0.0	0	1	373	0.3	373	374	13.6	84.4
2025-10-21T22:55	10	1	0.1	1	1	374	0.2	373	374	13.6	84.0
2025-10-21T22:56	10	1	0.1	0	1	374	0.3	373	374	13.7	83.8
2025-10-21T22:57	10	1	0.0	0	1	373	0.3	372	374	13.6	84.1
2025-10-21T22:58	10	1	0.0	0	1	372	0.3	371	373	13.6	84.0
2025-10-21T22:59	10	1	0.1	0	1	371	0.3	371	372	13.6	83.9
2025-10-21T23:00	10	1	0.1	0	1	371	0.3	371	372	13.6	84.0
2025-10-21T23:01	10	1	0.1	0	1	371	0.2	371	372	13.7	82.9
2025-10-21T23:02	10	1	0.1	0	1	371	0.2	371	372	13.7	82.9
2025-10-21T23:03	10	0	0.1	0	1	371	0.3	371	372	13.6	83.1
2025-10-21T23:04	10	0	0.1	0	1	371	0.2	371	372	13.6	83.1
2025-10-21T23:05	10	0	0.1	0	1	371	0.2	371	372	13.6	83.3
2025-10-21T23:06	10	0	0.1	0	1	372	0.4	371	372	13.6	83.2
2025-10-21T23:07	10	1	0.1	0	1	373	0.2	372	373	13.7	82.0
2025-10-21T23:08	10	1	0.1	0	1	373	0.3	372	373	13.7	82.0
2025-10-21T23:09	10	0	0.1	0	1	373	0.2	372	373	13.7	82.1
2025-10-21T23:10	10	1	0.1	0	1	373	0.3	372	373	13.7	82.2
2025-10-21T23:11	10	1	0.1	0	1	373	0.3	373	373	13.6	82.4
2025-10-21T23:12	10	1	0.1	0	1	373	0.2	373	373	13.7	81.9
2025-10-21T23:13	10	1	0.1	0	1	373	0.2	372	373	13.7	82.1
2025-10-21T23:14	10	1	0.1	0	1	373	0.2	372	373	13.7	81.8
2025-10-21T23:15	10	1	0.1	0	1	372	0.2	372	373	13.6	82.1
2025-10-21T23:16	10	1	0.1	0	1	372	0.3	372	373	13.6	82.5
2025-10-21T23:17	10	1	0.1	0	1	372	0.2	372	373	13.6	82.7
2025-10-21T23:18	10	1	0.1	0	1	373	0.3	372	373	13.6	82.7
2025-10-21T23:19	10	1	0.1	0	1	373	0.2	372	373	13.7	82.3
2025-10-21T23:20	10	0	0.1	0	1	373	0.2	372	373	13.7	82.4
2025-10-21T23:21	10	1	0.1	0	1	373	0.2	372	373	13.6	82.5
2025-10-21T23:22	10	0	0.1	0	1	373	0.2	372	373	13.6	82.6
2025-10-21T23:23	10	1	0.1	0	1	373	0.3	372	373	13.6	82.8
2025-10-21T23:24	10	1	0.1	0	1	373	0.2	372	373	13.6	82.8
2025-10-21T23:25	10	1	0.1	0	1	373	0.2	372	373	13.6	82.8
2025-10-21T23:26	10	1	0.1	0	1	373	0.2	373	373	13.7	82.7
2025-10-21T23:27	10	0	0.1	0	1	373	0.3	372	373	13.6	83.5
2025-10-21T23:28	10	1	0.1	0	1	373	0.3	372	373	13.6	83.3
2025-10-21T23:29	10	1	0.1	0	1	373	0.2	372	373	13.6	83.4
2025-10-21T23:30	10	1	0.1	0	1	373	0.3	372	373	13.6	83.6
2025-10-21T23:31	10	1	0.1	0	1	372	0.3	372	373	13.6	83.6
2025-10-21T23:32	10	1	0.1	0	1	373	0.2	372	373	13.6	83.5
2025-10-21T23:33	10	1	0.1	0	1	373	0.3	372	373	13.6	83.6
2025-10-21T23:34	10	0	0.1	0	1	373	0.3	372	373	13.6	83.5
2025-10-21T23:35	10	1	0.1	0	1	373	0.3	372	373	13.6	83.3
2025-10-21T23:36	10	1	0.1	0	1	372	0.3	372	373	13.6	83.9
2025-10-21T23:37	10	1	0.1	0	1	372	0.3	372	373	13.6	83.9
2025-10-21T23:38	10	1	0.1	0	1	373	0.2	372	373	13.6	83.8
2025-10-21T23:39	10	1	0.1	0	1	373	0.3	372	374	13.6	83.6
2025-10-21T23:40	10	1	0.1	0	1	373	0.2	372	373	13.6	83.6
2025-10-21T23:41	10	1	0.1	0	1	373	0.2	373	373	13.6	83.6
2025-10-21T23:42	10	0	0.1	0	1	373	0.2	373	374	13.7	83.3
2025-10-21T23:43	10	0	0.1	0	1	373	0.2	373	373	13.7	83.3
2025-10-21T23:44	10	1	0.1	0	1	373	0.2	372	373	13.6	83.6
2025-10-21T23:45	10	0	0.1	0	1	373	0.2	373	374	13.7	83.6
2025-10-21T23:46	10	0	0.1	0	1	373	0.2	373	373	13.6	83.8
2025-10-21T23:47	10	0	0.1	0	1	373	0.2	372	373	13.6	84.2
2025-10-21T23:48	10	0	0.1	0	1	373	0.3	372	373	13.6	84.0
2025-10-21T23:49	10	0	0.1	0	1	372	0.2	372	373	13.6	84.3
2025-10-21T23:50	10	0	0.1	0	1	372	0.2	372	373	13.6	84.4
2025-10-21T23:51	10	0	0.1	0	1	372	0.2	371	373	13.6	84.4
2025-10-21T23:52	10	0	0.1	0	1	372	0.3	372	373	13.5	84.7
2025-10-21T23:53	10	0	0.1	0	1	372	0.2	372	373	13.5	84.8
2025-10-21T23:54	10	0	0.1	0	1	372	0.2	371	372	13.6	84.6
2025-10-21T23:55	10	1	0.1	0	1	372	0.2	371	373	13.5	84.8
2025-10-21T23:56	10	0	0.1	0	1	372	0.2	372	372	13.5	84.8
2025-10-21T23:57	10	0	0.1	0	1	372	0.2	371	372	13.5	84.9
2025-10-21T23:58	10	0	0.1	0	1	371	0.2	371	372	13.5	84.9
2025-10-21T23:59	10	1	0.1	0	1	371	0.2	371	372	13.5	84.9
2025-10-22T00:00	10	0	0.1	0	1	371	0.2	371	372	13.6	84.7
2025-10-22T00:01	10	0	0.1	0	1	371	0.3	370	372	13.5	84.8
2025-10-22T00:02	10	0	0.1	0	1	371	0.2	370	372	13.5	84.9
2025-10-22T00:03	10	0	0.1	0	1	371	0.2	371	372	13.5	84.9
2025-10-22T00:04	10	0	0.1	0	1	371	0.3	371	372	13.5	84.9
2025-10-22T00:05	10	0	0.1	0	1	372	0.2	371	372	13.5	84.7
2025-10-22T00:06	10	0	0.1	0	1	372	0.2	371	372	13.6	84.7
2025-10-22T00:07	10	0	0.1	0	1	372	0.2	371	372	13.6	84.6
2025-10-22T00:08	10	0	0.1	0	1	372	0.3	371	372	13.5	84.9
2025-10-22T00:09	10	0	0.1	0	1	372	0.3	372	373	13.6	84.7
2025-10-22T00:10	10	0	0.1	0	1	372	0.2	372	373	13.6	84.8
2025-10-22T00:11	10	0	0.1	0	1	372	0.2	372	373	13.6	84.7
2025-10-22T00:12	10	0	0.1	0	1	372	0.3	372	373	13.6	84.8
2025-10-22T00:13	10	0	0.1	0	1	372	0.3	371	373	13.6	84.8
2025-10-22T00:14	10	1	0.1	0	1	372	0.2	372	373	13.6	84.5
2025-10-22T00:15	10	0	0.1	0	1	372	0.2	372	373	13.6	84.6
2025-10-22T00:16	10	0	0.1	0	1	372	0.2	372	373	13.6	84.5
2025-10-22T00:17	10	0	0.1	0	1	372	0.2	372	373	13.6	84.7
2025-10-22T00:18	10	0	0.1	0	1	372	0.2	372	373	13.6	84.9
2025-10-22T00:19	10	0	0.1	0	1	373	0.2	372	373	13.6	84.5
2025-10-22T00:20	10	0	0.1	0	1	373	0.2	372	373	13.6	84.6
2025-10-22T00:21	10	0	0.1	0	1	373	0.3	372	373	13.6	84.8
2025-10-22T00:22	10	0	0.1	0	1	372	0.2	372	373	13.5	85.2
2025-10-22T00:23	10	1	0.1	0	1	372	0.3	372	373	13.5	85.4
2025-10-22T00:24	10	1	0.0	0	1	372	0.2	372	373	13.5	85.3
2025-10-22T00:25	10	0	0.1	0	1	372	0.2	371	372	13.5	85.5
2025-10-22T00:26	10	1	0.1	0	1	372	0.2	371	372	13.5	85.5
2025-10-22T00:27	10	1	0.0	0	1	372	0.3	371	373	13.5	85.7
2025-10-22T00:28	10	0	0.1	0	1	372	0.2	372	373	13.5	85.6
2025-10-22T00:29	10	1	0.1	0	1	372	0.2	372	373	13.5	85.6
2025-10-22T00:30	10	1	0.1	0	1	372	0.2	372	373	13.5	85.6
2025-10-22T00:31	10	0	0.1	0	1	372	0.2	372	373	13.5	85.6
2025-10-22T00:32	10	0	0.1	0	1	373	0.3	372	373	13.5	85.4
2025-10-22T00:33	10	1	0.1	0	1	372	0.3	371	372	13.5	85.8
2025-10-22T00:34	10	0	0.1	0	1	372	0.3	371	372	13.4	86.1
2025-10-22T00:35	10	1	0.0	0	1	371	0.3	371	372	13.4	86.4
2025-10-22T00:36	10	0	0.1	0	1	371	0.2	371	372	13.3	86.8
2025-10-22T00:37	10	0	0.1	0	1	371	0.2	371	372	13.4	86.5
2025-10-22T00:38	10	1	0.1	0	1	371	0.2	371	372	13.3	86.8
2025-10-22T00:39	10	0	0.1	0	1	371	0.2	371	372	13.3	86.7
2025-10-22T00:40	10	0	0.1	0	1	372	0.3	371	372	13.4	86.6
2025-10-22T00:41	10	0	0.1	0	1	372	0.2	371	372	13.4	86.8
2025-10-22T00:42	10	0	0.1	0	1	371	0.2	371	372	13.4	86.8
2025-10-22T00:43	10	0	0.1	0	1	372	0.2	371	372	13.4	86.9
2025-10-22T00:44	10	0	0.1	0	1	372	0.2	371	372	13.3	87.3
2025-10-22T00:45	10	0	0.1	0	1	372	0.4	371	373	13.4	86.8
2025-10-22T00:46	10	0	0.1	0	1	372	0.3	371	373	13.4	86.5
2025-10-22T00:47	10	0	0.1	0	1	372	0.2	372	373	13.5	86.4
2025-10-22T00:48	10	0	0.1	0	1	372	0.2	372	373	13.5	86.3
2025-10-22T00:49	10	0	0.1	0	1	373	0.3	372	373	13.5	86.2
2025-10-22T00:50	10	0	0.0	0	1	373	0.2	372	373	13.6	85.9
2025-10-22T00:51	10	0	0.1	0	1	373	0.3	372	373	13.5	86.4
2025-10-22T00:52	10	0	0.1	0	1	373	0.2	372	373	13.5	86.5
2025-10-22T00:53	10	0	0.1	0	1	373	0.3	372	374	13.5	86.3
2025-10-22T00:54	10	0	0.1	0	1	373	0.3	372	374	13.6	86.1
2025-10-22T00:55	10	0	0.1	0	0	373	0.2	372	374	13.5	86.6
2025-10-22T00:56	10	0	0.1	0	1	373	0.3	372	374	13.5	86.4
2025-10-22T00:57	10	0	0.1	0	0	373	0.2	373	374	13.5	86.4
2025-10-22T00:58	10	0	0.1	0	1	374	0.3	373	374	13.5	86.3
2025-10-22T00:59	10	0	0.1	0	0	373	0.2	373	374	13.6	86.4
2025-10-22T01:00	10	0	0.1	0	1	373	0.3	373	374	13.6	86.3
2025-10-22T01:01	10	0	0.1	0	0	374	0.2	373	374	13.6	86.4
2025-10-22T01:02	10	0	0.1	0	0	373	0.3	373	374	13.5	87.0
2025-10-22T01:03	10	0	0.1	-1	0	373	0.3	372	374	13.5	87.5
2025-10-22T01:04	10	-1	0.1	-1	0	373	0.2	373	374	13.4	88.2
2025-10-22T01:05	10	-1	0.1	-1	-1	373	0.3	372	373	13.3	89.1
2025-10-22T01:06	10	-1	0.1	-1	-1	372	0.3	372	373	13.2	89.7
2025-10-22T01:07	10	-1	0.1	-1	-1	372	0.2	372	372	13.2	90.3
2025-10-22T01:08	10	-1	0.1	-1	-1	372	0.3	371	372	13.2	90.6
2025-10-22T01:09	10	-1	0.1	-1	-1	372	0.2	372	373	13.2	90.6
2025-10-22T01:10	10	-1	0.1	-1	-1	372	0.2	372	373	13.2	90.7
2025-10-22T01:11	10	-1	0.1	-1	-1	372	0.2	371	372	13.1	90.9
2025-10-22T01:12	10	-1	0.1	-1	-1	372	0.2	372	373	13.1	91.4
2025-10-22T01:13	10	-1	0.1	-1	0	372	0.3	372	373	13.1	91.2
2025-10-22T01:14	10	-1	0.1	-1	0	372	0.3	372	373	13.2	90.8
2025-10-22T01:15	10	0	0.1	-1	0	372	0.2	372	373	13.1	91.4
2025-10-22T01:16	10	0	0.1	-1	0	372	0.3	371	373	13.1	91.0
2025-10-22T01:17	10	0	0.1	0	0	372	0.2	372	373	13.1	91.3
2025-10-22T01:18	10	0	0.1	0	0	372	0.3	372	373	13.0	91.9
2025-10-22T01:19	10	0	0.1	0	0	372	0.2	371	373	12.9	92.1
2025-10-22T01:20	10	0	0.1	0	0	372	0.2	371	372	12.9	92.6
2025-10-22T01:21	10	0	0.1	0	0	371	0.2	371	372	12.9	92.5
2025-10-22T01:22	10	0	0.1	0	0	372	0.2	371	372	12.9	92.4
2025-10-22T01:23	10	0	0.1	0	0	371	0.2	371	372	12.9	92.7
2025-10-22T01:24	10	0	0.1	0	0	371	0.2	371	372	12.8	92.9
2025-10-22T01:25	10	0	0.1	0	0	371	0.3	370	372	12.8	93.3
2025-10-22T01:26	10	0	0.1	0	1	371	0.3	370	372	12.8	92.9
2025-10-22T01:27	10	0	0.1	0	0	371	0.2	370	371	12.8	92.1
2025-10-22T01:28	10	0	0.1	0	0	371	0.2	370	371	12.8	92.5
2025-10-22T01:29	10	0	0.1	0	0	371	0.3	370	371	12.8	92.6
2025-10-22T01:30	10	0	0.1	0	0	371	0.3	370	371	12.8	92.6
2025-10-22T01:31	10	0	0.1	0	1	371	0.3	370	371	12.8	92.1
2025-10-22T01:32	10	0	0.1	0	0	371	0.2	370	371	12.8	92.3
2025-10-22T01:33	10	0	0.1	0	0	371	0.3	370	371	12.7	92.7
2025-10-22T01:34	10	0	0.1	0	1	371	0.2	370	371	12.7	92.0
2025-10-22T01:35	10	0	0.1	0	1	371	0.2	370	371	12.8	91.9
2025-10-22T01:36	10	0	0.1	0	1	371	0.2	370	371	12.8	91.3
2025-10-22T01:37	10	0	0.1	0	1	371	0.2	370	371	12.9	91.4
2025-10-22T01:38	10	0	0.1	0	1	371	0.2	370	371	12.8	92.0
2025-10-22T01:39	10	0	0.1	0	1	371	0.2	370	371	12.8	91.5
2025-10-22T01:40	10	0	0.1	0	1	371	0.2	370	371	12.8	91.6
2025-10-22T01:41	10	0	0.1	0	1	371	0.2	370	371	12.8	91.6
2025-10-22T01:42	10	0	0.1	0	1	371	0.3	370	371	12.9	90.8
2025-10-22T01:43	10	0	0.1	0	1	371	0.2	370	371	12.8	91.5
2025-10-22T01:44	10	0	0.1	0	1	371	0.3	370	371	12.8	91.3
2025-10-22T01:45	10	0	0.1	0	1	371	0.2	370	371	12.8	90.5
2025-10-22T01:46	10	0	0.1	0	1	370	0.2	370	371	12.8	90.1
2025-10-22T01:47	10	0	0.1	0	1	370	0.2	370	371	12.8	89.6
2025-10-22T01:48	10	0	0.1	0	1	370	0.2	370	371	12.8	89.2
2025-10-22T01:49	10	0	0.1	0	1	370	0.2	370	371	12.8	89.6
2025-10-22T01:50	10	0	0.1	0	1	370	0.2	370	371	12.8	89.7
2025-10-22T01:51	10	0	0.1	0	1	370	0.2	370	371	12.8	89.3
2025-10-22T01:52	10	0	0.1	0	1	370	0.3	369	371	12.8	89.1
2025-10-22T01:53	10	0	0.1	0	1	370	0.2	370	371	12.8	88.8
2025-10-22T01:54	10	0	0.1	0	1	370	0.2	369	370	12.7	89.2
2025-10-22T01:55	10	0	0.1	0	0	370	0.3	369	370	12.7	89.5
2025-10-22T01:56	10	0	0.1	0	0	370	0.2	369	370	12.6	89.7
2025-10-22T01:57	10	0	0.1	-1	0	370	0.2	369	370	12.7	88.5
2025-10-22T01:58	10	-1	0.1	-1	0	370	0.2	369	370	12.7	88.4
2025-10-22T01:59	10	-1	0.1	-1	0	369	0.3	369	370	12.6	89.3
2025-10-22T02:00	10	-1	0.1	-1	0	369	0.2	369	370	12.5	89.8
2025-10-22T02:01	10	-1	0.1	-1	0	369	0.2	369	370	12.5	90.1
2025-10-22T02:02	10	0	0.1	-1	0	369	0.2	369	369	12.5	90.0
2025-10-22T02:03	10	0	0.1	-1	0	369	0.2	369	370	12.5	89.4
2025-10-22T02:04	10	0	0.1	-1	0	369	0.2	368	369	12.4	90.1
2025-10-22T02:05	10	0	0.1	0	0	369	0.2	368	369	12.5	89.8
2025-10-22T02:06	10	0	0.1	0	0	369	0.3	368	369	12.4	90.3
2025-10-22T02:07	10	0	0.1	0	0	369	0.2	368	369	12.4	90.4
2025-10-22T02:08	10	0	0.1	0	0	368	0.2	368	369	12.4	89.7
2025-10-22T02:09	10	0	0.1	0	0	369	0.2	368	369	12.4	89.9
2025-10-22T02:10	10	0	0.1	0	0	369	0.2	368	369	12.4	89.6
2025-10-22T02:11	10	0	0.1	0	0	369	0.2	368	369	12.4	90.0
2025-10-22T02:12	10	0	0.1	0	0	369	0.2	368	369	12.3	90.8
2025-10-22T02:13	10	0	0.1	0	0	369	0.2	368	369	12.3	91.1
2025-10-22T02:14	10	0	0.1	0	0	368	0.2	367	368	12.2	91.8
2025-10-22T02:15	10	0	0.1	0	0	368	0.2	368	369	12.1	92.3
2025-10-22T02:16	10	0	0.1	0	0	368	0.2	368	369	12.2	92.0
2025-10-22T02:17	10	0	0.1	0	0	368	0.2	367	368	12.1	92.3
2025-10-22T02:18	10	0	0.1	0	0	368	0.2	368	368	12.1	92.7
2025-10-22T02:19	10	0	0.1	0	0	368	0.2	367	368	12.1	92.9
2025-10-22T02:20	10	0	0.1	0	0	368	0.2	367	368	12.1	92.6
2025-10-22T02:21	10	0	0.1	0	0	368	0.2	367	368	12.1	92.9
2025-10-22T02:22	10	0	0.1	0	0	368	0.3	367	368	12.1	92.8
2025-10-22T02:23	10	0	0.1	0	0	368	0.2	368	368	12.1	92.4
2025-10-22T02:24	10	0	0.1	0	0	368	0.2	367	368	12.1	92.3
2025-10-22T02:25	10	0	0.1	0	0	368	0.2	367	368	12.2	92.2
2025-10-22T02:26	10	0	0.1	0	0	368	0.2	367	368	12.2	92.0
2025-10-22T02:27	10	0	0.1	0	0	368	0.3	367	369	12.2	92.2
2025-10-22T02:28	10	0	0.1	0	0	368	0.2	367	368	12.2	92.1
2025-10-22T02:29	10	0	0.1	0	0	368	0.3	367	368	12.1	92.6
2025-10-22T02:30	10	0	0.1	0	0	368	0.3	367	368	12.1	93.1
2025-10-22T02:31	10	0	0.1	0	0	368	0.2	367	368	12.1	93.2
2025-10-22T02:32	10	0	0.1	0	0	368	0.2	367	368	12.1	93.1
2025-10-22T02:33	10	0	0.1	0	0	367	0.2	367	368	12.1	93.1
2025-10-22T02:34	10	0	0.1	0	1	367	0.2	367	368	12.0	93.4
2025-10-22T02:35	10	0	0.0	0	0	367	0.2	367	368	12.0	93.5
2025-10-22T02:36	10	0	0.0	0	0	368	0.2	367	368	12.0	93.1
2025-10-22T02:37	10	0	0.0	0	0	367	0.2	367	368	12.0	93.6
2025-10-22T02:38	10	0	0.0	0	0	367	0.2	367	368	12.0	93.5
2025-10-22T02:39	10	0	0.1	0	0	367	0.2	367	368	12.0	93.5
2025-10-22T02:40	10	0	0.0	0	0	367	0.2	367	368	12.0	93.4
2025-10-22T02:41	10	0	0.0	0	0	367	0.2	367	368	12.0	93.7
2025-10-22T02:42	10	0	0.0	0	0	367	0.2	367	368	12.0	93.4
2025-10-22T02:43	10	0	0.0	0	0	367	0.2	367	368	12.0	93.6
2025-10-22T02:44	10	0	0.1	0	0	367	0.3	366	368	12.0	93.0
2025-10-22T02:45	10	0	0.0	0	1	367	0.2	367	368	12.0	93.3
2025-10-22T02:46	10	0	0.1	0	0	367	0.2	367	368	12.0	93.1
2025-10-22T02:47	10	0	0.0	0	0	367	0.3	367	368	12.0	93.1
2025-10-22T02:48	10	0	0.1	0	0	367	0.2	367	367	12.0	93.4
2025-10-22T02:49	10	0	0.1	0	1	367	0.2	366	367	11.9	93.6
2025-10-22T02:50	10	0	0.1	0	1	367	0.2	366	367	11.9	93.8
2025-10-22T02:51	10	0	0.0	0	1	367	0.2	367	367	11.9	93.8
2025-10-22T02:52	10	0	0.0	0	1	367	0.2	366	367	11.9	93.8
2025-10-22T02:53	10	0	0.1	0	1	367	0.2	366	367	12.0	93.4
2025-10-22T02:54	10	0	0.0	0	0	367	0.2	366	367	12.0	93.6
2025-10-22T02:55	10	0	0.0	0	1	367	0.2	367	368	11.9	94.0
2025-10-22T02:56	10	0	0.1	0	1	367	0.2	367	368	11.9	93.8
2025-10-22T02:57	10	0	0.0	0	0	367	0.2	367	367	11.9	94.0
2025-10-22T02:58	10	0	0.1	0	1	367	0.2	367	367	12.0	93.5
2025-10-22T02:59	10	0	0.1	0	1	367	0.2	366	367	12.0	93.3
2025-10-22T03:00	10	0	0.1	0	1	367	0.3	366	367	12.0	93.5
2025-10-22T03:01	10	0	0.0	0	1	366	0.1	366	367	12.0	93.3
2025-10-22T03:02	10	0	0.1	0	1	366	0.2	366	367	12.1	93.0
2025-10-22T03:03	10	0	0.1	0	0	367	0.2	366	367	12.1	92.5
2025-10-22T03:04	10	0	0.1	0	1	367	0.2	366	367	12.1	92.3
2025-10-22T03:05	10	0	0.0	0	1	367	0.2	366	367	12.1	92.2
2025-10-22T03:06	10	0	0.0	0	1	366	0.3	366	367	12.1	91.9
2025-10-22T03:07	10	0	0.0	0	1	366	0.2	366	367	12.2	91.8
2025-10-22T03:08	10	0	0.0	0	1	367	0.2	366	367	12.3	91.0
2025-10-22T03:09	10	0	0.1	0	1	367	0.3	366	367	12.2	91.8
2025-10-22T03:10	10	0	0.0	0	1	367	0.2	366	367	12.1	91.8
2025-10-22T03:11	10	0	0.0	0	1	367	0.3	366	368	12.2	90.9
2025-10-22T03:12	10	0	0.1	0	1	367	0.3	367	368	12.3	90.2
2025-10-22T03:13	10	0	0.0	0	1	367	0.2	366	367	12.3	90.7
2025-10-22T03:14	10	0	0.0	0	1	367	0.2	366	367	12.3	90.6
2025-10-22T03:15	10	0	0.0	0	1	366	0.3	366	367	12.3	90.0
2025-10-22T03:16	10	0	0.0	0	1	366	0.3	366	367	12.3	90.5
2025-10-22T03:17	10	0	0.0	0	1	366	0.2	366	367	12.3	89.8
2025-10-22T03:18	10	0	0.0	0	1	366	0.2	366	367	12.3	90.0
2025-10-22T03:19	10	0	0.0	0	1	366	0.2	366	367	12.2	90.3
2025-10-22T03:20	10	0	0.0	0	0	367	0.2	366	367	12.2	90.3
2025-10-22T03:21	10	0	0.1	0	1	367	0.3	366	367	12.2	90.3
2025-10-22T03:22	10	0	0.1	0	1	367	0.3	366	368	12.3	90.1
2025-10-22T03:23	10	0	0.1	0	1	367	0.2	366	367	12.2	90.2
2025-10-22T03:24	10	0	0.1	0	0	367	0.3	366	367	12.3	89.7
2025-10-22T03:25	10	0	0.1	0	1	367	0.3	366	367	12.3	89.7
2025-10-22T03:26	10	0	0.1	0	0	367	0.3	366	367	12.3	89.6
2025-10-22T03:27	10	0	0.1	0	1	366	0.2	366	367	12.2	90.3
2025-10-22T03:28	10	0	0.1	0	1	366	0.2	366	366	12.1	90.5
2025-10-22T03:29	10	0	0.1	0	1	366	0.2	366	367	12.2	89.9
2025-10-22T03:30	10	0	0.1	0	0	366	0.3	365	366	12.2	90.1
2025-10-22T03:31	10	0	0.1	0	0	365	0.2	365	366	12.2	90.1
2025-10-22T03:32	10	0	0.1	0	1	366	0.2	365	366	12.2	89.6
2025-10-22T03:33	10	0	0.1	0	1	366	0.3	365	366	12.2	89.8
2025-10-22T03:34	10	0	0.1	0	0	366	0.2	365	366	12.1	90.3
2025-10-22T03:35	10	0	0.1	0	0	365	0.2	365	366	12.1	90.6
2025-10-22T03:36	10	0	0.1	0	0	366	0.3	365	367	12.1	90.3
2025-10-22T03:37	10	0	0.1	0	1	366	0.2	365	366	12.1	90.0
2025-10-22T03:38	10	0	0.1	0	0	366	0.2	366	367	12.1	90.0
2025-10-22T03:39	10	0	0.1	0	1	366	0.3	366	367	12.1	89.6
2025-10-22T03:40	10	0	0.1	0	0	367	0.3	366	367	12.1	89.8
2025-10-22T03:41	10	0	0.1	0	1	367	0.2	366	367	12.1	89.7
2025-10-22T03:42	10	0	0.1	0	0	367	0.2	367	368	12.1	89.7
2025-10-22T03:43	10	0	0.1	0	0	367	0.2	367	368	12.1	90.2
2025-10-22T03:44	10	0	0.1	0	0	367	0.3	367	368	12.1	89.7
2025-10-22T03:45	10	0	0.1	0	0	367	0.2	367	368	12.2	89.3
2025-10-22T03:46	10	0	0.1	0	0	368	0.2	367	368	12.2	89.0
2025-10-22T03:47	10	0	0.1	0	0	368	0.2	367	368	12.3	88.4
2025-10-22T03:48	10	0	0.1	0	0	368	0.2	367	368	12.3	88.6
2025-10-22T03:49	10	0	0.1	0	0	368	0.2	367	368	12.3	88.7
2025-10-22T03:50	10	0	0.1	0	0	368	0.3	367	368	12.4	88.3
2025-10-22T03:51	10	0	0.1	0	0	368	0.2	367	368	12.3	88.4
2025-10-22T03:52	10	0	0.1	0	1	368	0.2	367	368	12.4	88.0
2025-10-22T03:53	10	0	0.1	0	0	368	0.2	368	369	12.5	87.7
2025-10-22T03:54	10	0	0.1	0	0	368	0.2	368	369	12.5	87.8
2025-10-22T03:55	10	0	0.1	0	0	368	0.3	368	369	12.4	87.8
2025-10-22T03:56	10	0	0.1	0	1	368	0.2	368	369	12.4	88.6
2025-10-22T03:57	10	0	0.1	0	0	368	0.2	368	369	12.4	88.4
2025-10-22T03:58	10	0	0.1	0	0	368	0.3	368	369	12.5	88.1
2025-10-22T03:59	10	0	0.1	0	1	368	0.3	368	369	12.5	87.8
2025-10-22T04:00	10	0	0.1	0	0	368	0.2	368	369	12.4	88.7
2025-10-22T04:01	10	0	0.1	0	0	368	0.2	368	369	12.4	88.5
2025-10-22T04:02	10	0	0.1	0	0	368	0.2	368	369	12.5	88.6
2025-10-22T04:03	10	0	0.1	0	0	368	0.2	368	369	12.5	88.7
2025-10-22T04:04	10	0	0.1	0	0	368	0.2	368	369	12.4	88.9
2025-10-22T04:05	10	0	0.1	0	0	368	0.2	368	369	12.4	89.4
2025-10-22T04:06	10	0	0.1	0	0	369	0.2	368	369	12.5	88.8
2025-10-22T04:07	10	0	0.1	-1	0	369	0.2	368	369	12.5	89.2
2025-10-22T04:08	10	0	0.1	0	0	369	0.2	368	370	12.5	89.1
2025-10-22T04:09	10	0	0.1	0	0	369	0.3	369	370	12.5	89.3
2025-10-22T04:10	10	0	0.1	-1	0	369	0.2	368	369	12.6	88.8
2025-10-22T04:11	10	0	0.1	-1	0	369	0.2	369	370	12.5	89.3
2025-10-22T04:12	10	0	0.1	-1	0	369	0.2	368	370	12.6	89.0
2025-10-22T04:13	10	-1	0.1	-1	0	369	0.2	369	370	12.6	89.1
2025-10-22T04:14	10	-1	0.1	-1	0	369	0.2	369	369	12.5	89.6
2025-10-22T04:15	10	-1	0.1	-1	0	369	0.2	368	369	12.5	89.8
2025-10-22T04:16	10	-1	0.1	-1	0	369	0.3	368	370	12.5	89.7
2025-10-22T04:17	10	-1	0.2	-1	0	369	0.3	368	370	12.6	89.1
2025-10-22T04:18	10	-1	0.1	-1	0	369	0.3	368	370	12.6	89.4
2025-10-22T04:19	10	-1	0.1	-1	0	369	0.3	369	370	12.6	89.5
2025-10-22T04:20	10	-1	0.1	-1	0	369	0.2	369	370	12.6	89.4
2025-10-22T04:21	10	-1	0.2	-1	0	369	0.2	369	370	12.6	90.0
2025-10-22T04:22	10	-1	0.1	-1	0	369	0.2	368	370	12.5	90.2
2025-10-22T04:23	10	-1	0.1	-1	0	369	0.2	369	370	12.5	90.5
2025-10-22T04:24	10	-1	0.1	-1	0	369	0.3	369	370	12.5	90.6
2025-10-22T04:25	10	-1	0.1	-1	0	369	0.3	369	370	12.6	90.2
2025-10-22T04:26	10	-1	0.1	-1	0	370	0.3	369	370	12.6	90.5
2025-10-22T04:27	10	-1	0.2	-1	0	370	0.3	369	370	12.7	90.0
2025-10-22T04:28	10	-1	0.1	-1	0	370	0.2	369	370	12.6	90.4
2025-10-22T04:29	10	-1	0.1	-1	-1	370	0.3	369	370	12.5	91.0
2025-10-22T04:30	10	-1	0.1	-1	0	370	0.2	369	370	12.6	90.8
2025-10-22T04:31	10	-1	0.1	-1	0	370	0.3	369	370	12.7	90.2
2025-10-22T04:32	10	-1	0.1	-1	0	370	0.2	369	370	12.6	90.5
2025-10-22T04:33	10	-1	0.1	-1	0	370	0.3	369	371	12.7	90.2
2025-10-22T04:34	10	-1	0.1	-1	0	370	0.2	369	370	12.7	90.2
2025-10-22T04:35	10	0	0.1	-1	0	370	0.2	369	370	12.7	90.5
2025-10-22T04:36	10	0	0.1	-1	0	370	0.3	369	370	12.7	90.5
2025-10-22T04:37	10	0	0.1	-1	0	370	0.2	369	371	12.9	89.4
2025-10-22T04:38	10	0	0.1	0	0	370	0.2	369	370	12.8	89.7
2025-10-22T04:39	10	0	0.1	0	0	370	0.2	370	370	12.9	89.8
2025-10-22T04:40	10	0	0.1	0	0	370	0.3	369	371	12.9	90.0
2025-10-22T04:41	10	0	0.1	0	0	370	0.2	370	371	12.9	89.7
2025-10-22T04:42	10	0	0.1	0	0	370	0.2	369	371	12.9	90.2
2025-10-22T04:43	10	0	0.1	0	1	370	0.3	370	371	12.9	90.2
2025-10-22T04:44	10	0	0.1	0	1	371	0.3	370	371	13.0	89.8
2025-10-22T04:45	10	0	0.1	0	1	371	0.3	370	372	13.0	90.1
2025-10-22T04:46	10	0	0.1	0	0	371	0.2	371	372	13.1	89.4
2025-10-22T04:47	10	0	0.1	0	1	371	0.2	371	372	13.1	89.4
2025-10-22T04:48	10	0	0.1	0	1	371	0.2	371	372	13.2	89.0
2025-10-22T04:49	10	0	0.1	0	1	372	0.3	371	372	13.3	88.5
2025-10-22T04:50	10	0	0.1	0	1	372	0.2	371	372	13.4	88.2
2025-10-22T04:51	10	0	0.1	0	1	372	0.3	371	372	13.4	88.0
2025-10-22T04:52	10	0	0.1	0	1	371	0.2	371	372	13.4	88.1
2025-10-22T04:53	10	0	0.1	0	0	371	0.3	371	372	13.4	88.4
2025-10-22T04:54	10	0	0.0	0	0	371	0.2	371	372	13.4	88.5
2025-10-22T04:55	10	0	0.1	0	0	372	0.2	371	372	13.5	87.8
2025-10-22T04:56	10	0	0.1	0	1	372	0.3	371	372	13.6	87.5
2025-10-22T04:57	10	0	0.1	0	0	372	0.3	371	373	13.5	87.7
2025-10-22T04:58	10	0	0.1	0	0	372	0.3	371	372	13.6	87.3
2025-10-22T04:59	10	0	0.1	0	1	372	0.2	371	372	13.5	88.0
2025-10-22T05:00	10	0	0.0	0	1	372	0.2	371	372	13.5	87.8
2025-10-22T05:01	10	0	0.1	0	1	372	0.2	372	373	13.6	87.5
2025-10-22T05:02	10	0	0.0	0	1	372	0.2	371	372	13.5	88.1
2025-10-22T05:03	10	0	0.1	0	1	372	0.3	372	373	13.6	88.0
2025-10-22T05:04	10	0	0.1	0	0	373	0.2	372	373	13.5	88.4
2025-10-22T05:05	10	0	0.1	0	0	373	0.2	372	373	13.4	89.0
2025-10-22T05:06	10	0	0.1	0	1	373	0.3	372	373	13.4	89.3
2025-10-22T05:07	10	0	0.1	0	0	372	0.2	372	373	13.4	89.3
2025-10-22T05:08	10	0	0.1	0	0	373	0.2	372	373	13.5	89.0
2025-10-22T05:09	10	0	0.1	0	0	373	0.2	372	373	13.5	89.4
2025-10-22T05:10	10	0	0.1	0	0	373	0.2	373	374	13.5	89.2
2025-10-22T05:11	10	0	0.1	0	0	373	0.2	372	373	13.5	89.4
2025-10-22T05:12	10	0	0.1	0	0	373	0.2	373	373	13.4	89.9
2025-10-22T05:13	10	0	0.1	0	0	373	0.2	372	374	13.5	89.6
2025-10-22T05:14	10	0	0.1	0	0	373	0.2	373	374	13.5	89.2
2025-10-22T05:15	10	0	0.1	0	0	373	0.2	373	374	13.5	89.3
2025-10-22T05:16	10	0	0.1	0	0	373	0.2	373	374	13.5	89.2
2025-10-22T05:17	10	0	0.1	0	0	373	0.2	373	374	13.6	88.9
2025-10-22T05:18	10	0	0.1	0	0	373	0.3	373	374	13.5	89.2
2025-10-22T05:19	10	0	0.0	0	0	374	0.2	373	374	13.5	89.4
2025-10-22T05:20	10	0	0.1	0	0	373	0.2	373	374	13.5	89.3
2025-10-22T05:21	10	0	0.0	0	0	373	0.2	373	374	13.5	89.6
2025-10-22T05:22	10	0	0.1	0	0	373	0.2	373	374	13.5	89.7
2025-10-22T05:23	10	0	0.1	0	0	373	0.2	373	374	13.5	89.9
2025-10-22T05:24	10	0	0.1	0	0	373	0.2	373	374	13.4	90.4
2025-10-22T05:25	10	0	0.0	0	0	373	0.2	373	374	13.4	90.7
2025-10-22T05:26	10	0	0.1	0	0	373	0.3	373	374	13.5	90.4
2025-10-22T05:27	10	0	0.1	-1	0	374	0.3	373	374	13.4	90.5
2025-10-22T05:28	10	0	0.1	0	0	373	0.2	373	374	13.5	90.4
2025-10-22T05:29	10	0	0.1	-1	0	373	0.2	373	374	13.4	90.7
2025-10-22T05:30	10	0	0.1	0	0	374	0.2	373	374	13.5	90.4
2025-10-22T05:31	10	0	0.1	0	0	374	0.2	373	374	13.5	90.6
2025-10-22T05:32	10	0	0.0	0	0	374	0.3	373	374	13.5	90.6
2025-10-22T05:33	10	0	0.1	0	0	374	0.3	373	374	13.4	90.8
2025-10-22T05:34	10	0	0.1	0	0	374	0.2	373	374	13.5	90.5
2025-10-22T05:35	10	0	0.1	0	0	374	0.2	373	374	13.5	90.5
2025-10-22T05:36	10	0	0.1	0	0	374	0.3	373	374	13.5	90.4
2025-10-22T05:37	10	0	0.1	0	0	373	0.3	373	374	13.5	90.3
2025-10-22T05:38	10	0	0.1	0	0	374	0.3	373	374	13.5	90.0
2025-10-22T05:39	10	0	0.1	0	0	374	0.2	373	374	13.5	90.2
2025-10-22T05:40	10	0	0.1	0	0	374	0.2	373	374	13.5	89.9
2025-10-22T05:41	10	0	0.1	0	0	374	0.2	374	374	13.7	88.5
2025-10-22T05:42	10	0	0.1	0	0	374	0.2	373	374	13.6	89.2
2025-10-22T05:43	10	0	0.1	0	0	374	0.2	373	374	13.6	89.8
2025-10-22T05:44	10	0	0.1	0	0	374	0.2	373	374	13.6	89.4
2025-10-22T05:45	10	0	0.1	0	0	374	0.2	373	374	13.6	88.9
2025-10-22T05:46	10	0	0.1	0	0	374	0.3	373	375	13.6	89.3
2025-10-22T05:47	10	0	0.1	0	0	374	0.3	373	375	13.6	89.2
2025-10-22T05:48	10	0	0.1	0	1	374	0.3	373	375	13.6	89.0
2025-10-22T05:49	10	0	0.1	0	0	374	0.2	374	375	13.7	88.9
2025-10-22T05:50	10	0	0.1	0	0	374	0.2	373	374	13.6	89.3
2025-10-22T05:51	10	0	0.1	0	0	374	0.2	373	374	13.6	89.6
2025-10-22T05:52	10	0	0.1	0	0	374	0.3	373	374	13.6	89.3
2025-10-22T05:53	10	0	0.1	0	0	374	0.2	374	375	13.7	88.8
2025-10-22T05:54	10	0	0.1	0	0	374	0.2	373	374	13.6	89.3
2025-10-22T05:55	10	0	0.1	0	0	374	0.3	373	374	13.6	89.6
2025-10-22T05:56	10	0	0.1	0	0	374	0.2	373	374	13.5	89.8
2025-10-22T05:57	10	0	0.1	0	0	374	0.2	373	374	13.6	89.1
2025-10-22T05:58	10	0	0.1	0	0	374	0.2	373	374	13.6	89.0
2025-10-22T05:59	10	0	0.1	0	0	374	0.2	373	374	13.6	89.2
2025-10-22T06:00	10	0	0.0	0	0	374	0.2	373	374	13.6	88.8
2025-10-22T06:01	10	0	0.1	0	0	374	0.3	373	374	13.6	88.8
2025-10-22T06:02	10	0	0.1	0	0	374	0.2	373	374	13.7	88.4
2025-10-22T06:03	10	0	0.1	0	0	374	0.2	373	374	13.7	87.8
2025-10-22T06:04	10	0	0.1	0	1	374	0.2	373	374	13.7	88.1
2025-10-22T06:05	10	1	0.1	1	1	374	0.2	373	374	13.6	88.3
2025-10-22T06:06	10	1	0.1	1	1	373	0.2	373	374	13.6	88.8
2025-10-22T06:07	10	1	0.1	1	1	374	0.2	373	374	13.6	88.2
2025-10-22T06:08	10	1	0.1	1	1	374	0.3	373	374	13.7	87.9
2025-10-22T06:09	10	2	0.1	1	2	374	0.3	373	374	13.7	87.7
2025-10-22T06:10	10	2	0.2	2	2	374	0.2	373	374	13.6	88.4
2025-10-22T06:11	10	2	0.1	2	3	374	0.3	373	374	13.6	88.2
2025-10-22T06:12	10	3	0.1	2	3	374	0.2	374	375	13.7	87.4
2025-10-22T06:13	10	3	0.1	3	3	374	0.2	374	375	13.7	87.8
2025-10-22T06:14	10	3	0.1	3	4	374	0.2	373	374	13.7	87.9
2025-10-22T06:15	10	4	0.2	3	4	374	0.3	374	375	13.8	87.2
2025-10-22T06:16	10	4	0.1	4	4	374	0.3	374	375	13.8	86.9
2025-10-22T06:17	10	5	0.2	4	5	374	0.2	373	374	13.8	87.4
2025-10-22T06:18	10	5	0.2	5	5	374	0.2	374	375	13.8	86.8
2025-10-22T06:19	10	5	0.1	5	6	374	0.3	374	375	13.9	86.6
2025-10-22T06:20	10	6	0.1	6	6	374	0.2	374	375	13.8	87.0
2025-10-22T06:21	10	6	0.1	6	6	374	0.3	374	375	13.8	86.8
2025-10-22T06:22	10	6	0.1	6	6	374	0.2	374	375	13.8	87.1
2025-10-22T06:23	10	6	0.1	6	6	374	0.3	374	375	13.8	86.9
2025-10-22T06:24	10	6	0.1	6	6	374	0.2	374	375	13.8	86.9
2025-10-22T06:25	10	6	0.1	6	6	375	0.3	374	375	13.9	86.7
2025-10-22T06:26	10	6	0.1	5	6	375	0.2	374	375	13.9	86.3
2025-10-22T06:27	10	6	0.1	5	6	375	0.2	374	375	13.9	86.4
2025-10-22T06:28	10	6	0.1	5	6	375	0.2	374	375	13.9	86.7
2025-10-22T06:29	10	6	0.1	5	6	375	0.3	375	376	14.0	85.9
2025-10-22T06:30	10	5	0.1	5	6	375	0.3	374	375	13.9	86.9
2025-10-22T06:31	10	5	0.1	5	6	375	0.2	374	376	13.9	86.4
2025-10-22T06:32	10	5	0.1	5	6	375	0.3	374	375	13.9	86.5
2025-10-22T06:33	10	5	0.1	5	5	375	0.2	374	375	14.0	86.4
2025-10-22T06:34	10	5	0.1	5	5	375	0.3	374	376	14.0	86.3
2025-10-22T06:35	10	4	0.1	4	5	375	0.2	374	375	14.0	86.4
2025-10-22T06:36	10	4	0.1	4	4	375	0.2	375	376	14.0	86.3
2025-10-22T06:37	10	4	0.1	4	4	375	0.2	375	376	14.0	86.0
2025-10-22T06:38	10	4	0.1	4	4	375	0.3	375	376	14.0	85.9
2025-10-22T06:39	10	4	0.1	3	4	375	0.3	374	376	14.0	86.3
2025-10-22T06:40	10	3	0.1	3	4	375	0.2	375	376	14.0	86.0
2025-10-22T06:41	10	3	0.1	3	3	375	0.2	375	376	14.1	85.8
2025-10-22T06:42	10	3	0.1	3	3	375	0.2	374	375	14.0	86.0
2025-10-22T06:43	10	3	0.1	2	3	375	0.3	374	376	14.0	86.0
2025-10-22T06:44	10	2	0.1	2	3	375	0.3	374	376	14.0	86.4
2025-10-22T06:45	10	2	0.1	2	3	375	0.3	374	375	14.0	86.6
2025-10-22T06:46	10	2	0.1	2	2	375	0.2	374	375	14.0	86.4
2025-10-22T06:47	10	2	0.1	2	2	374	0.2	374	375	14.0	86.6
2025-10-22T06:48	10	2	0.1	2	2	375	0.2	374	375	14.0	86.6
2025-10-22T06:49	10	2	0.1	1	2	375	0.3	374	375	14.0	86.2
2025-10-22T06:50	10	2	0.1	1	2	375	0.2	374	375	14.0	86.3
2025-10-22T06:51	10	2	0.1	1	2	375	0.3	374	375	14.0	86.5
2025-10-22T06:52	10	2	0.1	1	2	375	0.2	374	375	14.0	86.1
2025-10-22T06:53	10	2	0.1	1	2	375	0.3	374	376	14.0	83.2
2025-10-22T06:54	10	1	0.1	1	2	375	0.3	374	375	14.0	86.0
2025-10-22T06:55	10	2	0.1	1	2	375	0.2	374	375	14.0	86.0
2025-10-22T06:56	10	1	0.1	1	2	375	0.3	374	375	14.0	86.0
2025-10-22T06:57	10	1	0.1	1	2	375	0.2	374	375	14.0	86.0
2025-10-22T06:58	10	1	0.1	1	2	375	0.2	374	375	14.0	86.0
2025-10-22T06:59	10	1	0.1	1	2	375	0.2	374	375	14.0	86.0
2025-10-22T07:00	10	1	0.1	1	1	375	0.3	374	375	13.9	87.0
2025-10-22T07:01	10	1	0.1	1	2	375	0.3	374	375	13.8	88.3
2025-10-22T07:02	10	2	0.1	1	2	375	0.2	374	375	13.8	88.8
2025-10-22T07:03	10	2	0.1	1	2	375	0.3	374	375	13.8	88.9
2025-10-22T07:04	10	2	0.1	1	2	374	0.3	374	375	13.7	89.1
2025-10-22T07:05	10	2	0.1	2	2	375	0.2	374	375	13.7	89.4
2025-10-22T07:06	10	2	0.1	2	2	374	0.3	373	375	13.7	90.0
2025-10-22T07:07	10	2	0.1	2	3	374	0.2	374	375	13.7	89.8
2025-10-22T07:08	10	3	0.1	2	3	374	0.2	374	375	13.7	90.0
2025-10-22T07:09	10	3	0.1	3	3	374	0.2	374	375	13.7	90.2
2025-10-22T07:10	10	3	0.1	3	3	375	0.2	374	375	13.7	89.9
2025-10-22T07:11	10	3	0.1	3	4	375	0.3	374	375	13.7	89.9
2025-10-22T07:12	10	4	0.1	3	4	375	0.2	374	375	13.6	90.8
2025-10-22T07:13	10	4	0.2	4	4	375	0.2	374	375	13.6	90.9
2025-10-22T07:14	10	4	0.1	4	5	375	0.2	374	375	13.6	90.7
2025-10-22T07:15	10	5	0.1	4	5	375	0.2	374	375	13.7	90.5
2025-10-22T07:16	10	5	0.1	5	5	375	0.2	374	375	13.6	91.1
2025-10-22T07:17	10	5	0.1	5	6	375	0.3	374	375	13.6	91.0
2025-10-22T07:18	10	6	0.2	5	6	375	0.2	374	375	13.6	91.2
2025-10-22T07:19	10	6	0.1	6	6	375	0.2	374	375	13.6	90.7
2025-10-22T07:20	10	6	0.2	6	7	375	0.3	374	376	13.6	91.4
2025-10-22T07:21	10	7	0.1	7	7	375	0.3	374	376	13.6	91.3
2025-10-22T07:22	10	7	0.1	7	7	375	0.2	374	375	13.6	90.9
2025-10-22T07:23	10	7	0.1	7	8	375	0.2	375	376	13.6	91.1
2025-10-22T07:24	10	8	0.1	8	8	375	0.3	375	376	13.6	91.0
2025-10-22T07:25	10	8	0.1	8	8	375	0.2	375	376	13.6	91.1
2025-10-22T07:26	10	8	0.1	8	9	375	0.3	375	376	13.6	91.6
2025-10-22T07:27	10	9	0.1	8	9	375	0.2	375	376	13.6	90.7
2025-10-22T07:28	10	9	0.1	9	9	375	0.3	375	376	13.6	91.2
2025-10-22T07:29	10	9	0.1	9	10	375	0.3	375	376	13.6	90.8
2025-10-22T07:30	10	10	0.2	9	10	375	0.2	375	376	13.7	90.4
2025-10-22T07:31	10	10	0.2	10	11	376	0.3	375	376	13.6	90.9
2025-10-22T07:32	10	11	0.2	10	11	376	0.2	375	376	13.7	90.6
2025-10-22T07:33	10	12	0.3	11	12	376	0.2	375	377	13.7	90.1
2025-10-22T07:34	10	12	0.2	12	13	376	0.3	376	377	13.7	90.3
2025-10-22T07:35	10	13	0.2	13	14	376	0.3	376	377	13.7	90.8
2025-10-22T07:36	10	14	0.2	13	14	376	0.2	376	377	13.7	90.7
2025-10-22T07:37	10	15	0.3	14	15	377	0.3	376	377	13.8	90.1
2025-10-22T07:38	10	16	0.2	15	16	377	0.2	376	378	13.8	90.0
2025-10-22T07:39	10	16	0.2	15	16	377	0.2	377	377	13.8	90.0
2025-10-22T07:40	10	15	0.2	15	15	377	0.3	376	378	13.7	90.4
2025-10-22T07:41	10	14	0.3	14	15	377	0.3	377	378	13.8	89.6
2025-10-22T07:42	10	13	0.3	13	14	377	0.3	377	378	13.9	89.4
2025-10-22T07:43	10	12	0.3	12	13	377	0.3	377	378	13.8	89.7
2025-10-22T07:44	10	11	0.2	11	12	377	0.3	377	378	13.8	89.6
2025-10-22T07:45	10	11	0.1	11	11	377	0.2	377	378	13.8	89.7
2025-10-22T07:46	10	11	0.1	11	11	377	0.3	377	378	13.9	89.4
2025-10-22T07:47	10	11	0.1	11	11	377	0.3	377	378	13.8	89.8
2025-10-22T07:48	10	11	0.2	11	11	377	0.3	376	378	13.8	89.7
2025-10-22T07:49	10	11	0.1	11	11	377	0.4	377	378	13.8	90.0
2025-10-22T07:50	10	11	0.1	11	11	378	0.3	377	378	13.8	89.9
2025-10-22T07:51	10	11	0.1	11	11	378	0.3	377	378	13.9	89.5
2025-10-22T07:52	10	11	0.2	11	12	378	0.2	377	378	13.9	89.5
2025-10-22T07:53	10	12	0.2	12	12	378	0.2	377	378	13.9	89.9
2025-10-22T07:54	10	13	0.2	12	13	378	0.2	377	378	13.8	90.3
2025-10-22T07:55	10	14	0.3	13	14	378	0.2	377	378	13.8	90.3
2025-10-22T07:56	10	15	0.3	14	15	378	0.3	377	378	13.8	90.6
2025-10-22T07:57	10	16	0.2	15	16	378	0.2	377	378	13.8	90.8
2025-10-22T07:58	10	16	0.2	16	17	378	0.2	377	379	13.9	89.8
2025-10-22T07:59	10	17	0.2	17	17	378	0.3	377	379	13.9	89.6
2025-10-22T08:00	10	18	0.2	17	18	378	0.2	377	379	13.9	90.1
2025-10-22T08:01	10	18	0.1	18	18	378	0.2	378	378	13.9	90.1
2025-10-22T08:02	10	19	0.2	18	19	378	0.3	378	379	13.8	90.6
2025-10-22T08:03	10	19	0.1	19	19	379	0.2	378	379	13.9	89.8
2025-10-22T08:04	10	19	0.2	18	19	379	0.2	378	379	13.9	90.3
2025-10-22T08:05	10	18	0.2	18	18	379	0.3	378	379	13.8	90.8
2025-10-22T08:06	10	18	0.1	18	18	379	0.2	379	379	13.8	91.1
2025-10-22T08:07	10	18	0.3	17	18	379	0.3	378	380	13.8	91.0
2025-10-22T08:08	10	18	0.1	18	19	379	0.2	378	379	13.9	90.6
2025-10-22T08:09	10	18	0.2	18	18	379	0.3	379	380	13.9	91.0
2025-10-22T08:10	10	18	0.2	17	18	380	0.2	379	380	13.9	91.1
2025-10-22T08:11	10	18	0.1	17	18	380	0.2	379	380	13.9	91.0
2025-10-22T08:12	10	18	0.1	18	18	379	0.2	379	380	13.9	91.0
2025-10-22T08:13	10	18	0.2	18	19	379	0.2	379	380	13.9	90.8
2025-10-22T08:14	10	19	0.3	19	20	380	0.3	379	381	13.9	90.5
2025-10-22T08:15	10	20	0.3	20	21	380	0.4	379	381	13.9	90.6
2025-10-22T08:16	10	20	0.2	20	21	380	0.2	380	381	13.9	90.4
2025-10-22T08:17	10	20	0.2	19	20	381	0.3	380	381	13.9	90.6
2025-10-22T08:18	10	19	0.1	19	19	381	0.2	380	381	13.9	90.9
2025-10-22T08:19	10	19	0.3	18	19	381	0.2	380	381	13.9	90.7
2025-10-22T08:20	10	17	0.4	17	18	381	0.3	380	381	13.9	90.6
2025-10-22T08:21	10	17	0.1	16	17	380	0.3	379	381	14.0	89.3
2025-10-22T08:22	10	17	0.2	17	17	380	0.2	379	380	14.0	89.7
2025-10-22T08:23	10	18	0.3	17	18	380	0.4	379	381	14.0	89.7
2025-10-22T08:24	10	19	0.5	18	20	380	0.4	380	381	14.0	89.6
2025-10-22T08:25	10	21	0.5	20	22	381	0.2	380	381	14.0	90.2
2025-10-22T08:26	10	22	0.1	22	22	381	0.4	380	382	14.1	89.0
2025-10-22T08:27	10	21	0.3	21	22	381	0.3	380	381	14.1	88.8
2025-10-22T08:28	10	20	0.2	20	21	381	0.4	380	382	14.1	88.7
2025-10-22T08:29	10	20	0.1	20	20	381	0.2	380	381	14.2	88.3
2025-10-22T08:30	10	20	0.1	20	20	381	0.3	380	381	14.2	88.3
2025-10-22T08:31	10	20	0.1	20	20	381	0.3	380	381	14.2	88.4
2025-10-22T08:32	10	20	0.2	20	21	380	0.2	380	381	14.2	87.6
2025-10-22T08:33	10	21	0.5	20	22	381	0.3	380	381	14.2	87.9
2025-10-22T08:34	10	23	0.7	22	25	381	0.2	380	381	14.3	87.3
2025-10-22T08:35	10	25	0.4	25	26	381	0.2	381	382	14.3	87.6
2025-10-22T08:36	10	26	0.1	26	26	381	0.3	380	382	14.3	86.9
2025-10-22T08:37	10	25	0.5	25	26	381	0.3	381	382	14.2	87.5
2025-10-22T08:38	10	23	0.7	22	25	381	0.3	380	382	14.2	87.7
2025-10-22T08:39	10	21	0.7	20	22	381	0.3	380	381	14.2	87.5
2025-10-22T08:40	10	19	0.5	18	20	381	0.2	380	381	14.2	87.9
2025-10-22T08:41	10	17	0.3	17	18	381	0.2	380	381	14.2	88.0
2025-10-22T08:42	10	17	0.1	17	17	381	0.3	380	381	14.2	88.7
2025-10-22T08:43	10	16	0.1	16	17	381	0.3	380	381	14.2	88.1
2025-10-22T08:44	10	16	0.1	16	17	381	0.4	380	382	14.1	88.3
2025-10-22T08:45	10	17	0.1	17	17	381	0.3	380	381	14.1	88.9
2025-10-22T08:46	10	17	0.2	17	17	381	0.2	380	381	14.1	88.4
2025-10-22T08:47	10	18	0.2	17	18	381	0.3	380	382	14.2	87.8
2025-10-22T08:48	10	18	0.3	18	19	381	0.2	381	382	14.1	88.4
2025-10-22T08:49	10	19	0.1	19	19	381	0.2	380	382	14.1	88.4
2025-10-22T08:50	10	19	0.1	19	19	381	0.2	381	382	14.2	87.9
2025-10-22T08:51	10	19	0.2	19	19	381	0.2	381	382	14.2	88.0
2025-10-22T08:52	10	20	0.4	19	21	381	0.2	381	382	14.1	88.0
2025-10-22T08:53	10	21	0.3	21	22	382	0.3	381	382	14.1	88.5
2025-10-22T08:54	10	22	0.3	22	23	382	0.2	381	382	14.1	88.5
2025-10-22T08:55	10	24	0.4	23	24	382	0.3	381	383	14.2	87.8
2025-10-22T08:56	10	26	0.7	24	27	382	0.2	382	383	14.2	88.3
2025-10-22T08:57	10	28	0.5	27	28	383	0.3	382	383	14.2	87.7
2025-10-22T08:58	10	29	0.3	28	30	383	0.2	382	383	14.2	87.5
2025-10-22T08:59	10	30	0.2	29	30	383	0.2	383	384	14.2	87.7
2025-10-22T09:00	10	30	0.2	30	31	383	0.3	383	384	14.3	87.3
2025-10-22T09:01	10	32	1.2	31	35	384	0.2	383	384	14.3	88.1
2025-10-22T09:02	10	37	1.5	35	39	384	0.5	383	385	14.3	87.5
2025-10-22T09:03	10	41	1.6	39	45	384	0.2	384	385	14.3	88.0
2025-10-22T09:04	10	46	0.6	45	47	385	0.3	384	385	14.3	86.7
2025-10-22T09:05	10	52	2.6	47	58	385	0.2	384	385	14.3	87.1
2025-10-22T09:06	10	62	5.3	55	72	386	0.5	385	387	14.3	87.0
2025-10-22T09:07	10	74	11.2	57	94	388	1.3	386	390	14.4	87.6
2025-10-22T09:08	10	52	3.1	49	58	387	0.8	386	389	14.4	87.8
2025-10-22T09:09	10	51	2.4	48	54	387	0.7	385	388	14.4	88.2
2025-10-22T09:10	10	53	4.2	48	63	386	0.4	386	387	14.3	88.0
2025-10-22T09:11	10	55	2.8	52	62	388	0.5	387	389	14.4	87.9
2025-10-22T09:12	10	68	6.1	60	83	389	0.7	388	390	14.4	88.2
2025-10-22T09:13	10	73	1.7	70	77	390	0.3	389	391	14.4	88.0
2025-10-22T09:14	10	70	1.6	68	74	389	0.8	388	391	14.4	86.8
2025-10-22T09:15	10	85	12.6	69	108	390	1.0	388	393	14.5	86.4
2025-10-22T09:16	10	129	14.8	96	143	396	1.9	391	398	14.6	87.2
2025-10-22T09:17	10	72	7.5	64	96	395	1.3	393	397	14.7	87.2
2025-10-22T09:18	10	70	13.1	57	103	392	1.2	390	394	14.7	85.9
2025-10-22T09:19	10	103	18.7	73	134	394	2.0	390	398	14.8	86.3
2025-10-22T09:20	10	140	1.5	135	142	399	1.3	397	402	14.9	86.3
2025-10-22T09:21	10	126	25.2	67	143	400	1.8	395	402	15.0	84.9
2025-10-22T09:22	10	95	26.5	67	148	395	1.1	393	397	14.9	84.4
2025-10-22T09:23	10	140	4.9	131	147	399	1.3	396	401	15.0	84.4
2025-10-22T09:24	10	132	5.4	121	139	401	1.3	399	403	15.1	84.3
2025-10-22T09:25	10	137	1.3	134	139	399	1.0	397	400	15.1	83.3
2025-10-22T09:26	10	135	0.9	133	137	399	0.7	398	400	15.3	83.9
2025-10-22T09:27	10	130	3.8	109	133	400	0.5	399	401	15.3	82.9
2025-10-22T09:28	10	128	4.5	109	130	400	0.5	399	401	15.3	82.9
2025-10-22T09:29	10	130	0.7	127	131	401	0.8	400	403	15.3	82.8
2025-10-22T09:30	10	111	22.3	64	134	400	2.0	397	404	15.4	83.1
2025-10-22T09:31	10	83	10.3	68	109	397	1.9	394	400	15.4	82.1
2025-10-22T09:32	10	70	7.8	60	86	394	1.3	392	396	15.2	81.4
2025-10-22T09:33	10	59	0.4	58	60	393	0.4	393	394	15.3	82.3
2025-10-22T09:34	10	70	7.9	59	83	395	0.9	393	396	15.4	83.5
2025-10-22T09:35	10	107	15.5	84	134	397	1.2	395	399	15.4	83.0
2025-10-22T09:36	10	105	18.8	70	131	399	0.8	397	400	15.5	82.6
2025-10-22T09:37	10	77	14.8	63	114	395	0.9	394	398	15.4	81.8
2025-10-22T09:38	10	67	4.0	63	82	395	1.0	392	396	15.4	81.9
2025-10-22T09:39	10	94	9.0	73	104	395	1.1	392	397	15.3	81.4
2025-10-22T09:40	10	85	13.1	67	109	394	0.6	392	395	15.1	81.0
2025-10-22T09:41	10	66	4.8	58	74	393	1.4	390	395	15.2	81.5
2025-10-22T09:42	10	98	17.9	60	123	394	1.9	390	396	15.1	81.6
2025-10-22T09:43	10	110	17.4	81	133	395	1.2	393	397	15.2	81.5
2025-10-22T09:44	10	72	13.0	55	99	395	1.4	392	397	15.3	82.5
2025-10-22T09:45	10	78	18.3	55	108	393	1.7	391	397	15.3	81.9
2025-10-22T09:46	10	118	13.5	96	140	397	0.6	396	398	15.3	81.7
2025-10-22T09:47	10	108	30.7	69	147	398	1.7	395	400	15.3	81.5
2025-10-22T09:48	10	67	1.6	65	70	394	1.1	393	396	15.3	81.3
2025-10-22T09:49	10	70	2.0	68	75	395	0.8	394	396	15.3	81.8
2025-10-22T09:50	10	68	5.3	64	83	395	0.6	394	396	15.4	82.1
2025-10-22T09:51	10	73	4.4	63	83	395	0.4	394	396	15.4	81.5
2025-10-22T09:52	10	53	4.0	49	62	394	1.3	392	396	15.5	82.4
2025-10-22T09:53	10	50	1.1	49	52	392	1.0	390	393	15.4	80.6
2025-10-22T09:54	10	54	2.3	51	59	391	0.4	390	392	15.4	80.9
2025-10-22T09:55	10	74	9.1	60	92	393	0.9	391	394	15.4	80.1
2025-10-22T09:56	10	63	4.2	59	80	392	1.0	391	394	15.4	80.1
2025-10-22T09:57	10	85	19.3	64	138	393	1.6	391	397	15.4	79.5
2025-10-22T09:58	10	140	14.4	114	161	398	2.8	395	403	15.5	79.5
2025-10-22T09:59	10	136	21.6	82	164	402	0.8	401	404	15.6	80.0
2025-10-22T10:00	10	149	21.1	82	166	403	1.8	400	406	15.7	79.5
2025-10-22T10:01	10	152	12.8	113	158	404	0.4	402	404	15.7	78.8
2025-10-22T10:02	10	153	9.3	119	161	403	0.5	403	404	15.7	78.7
2025-10-22T10:03	10	141	16.8	109	156	401	0.9	400	404	15.7	78.1
2025-10-22T10:04	10	152	5.0	140	160	402	0.3	401	403	15.7	78.2
2025-10-22T10:05	10	154	6.1	143	161	403	0.7	402	404	15.8	77.3
2025-10-22T10:06	10	155	5.0	147	161	405	0.5	403	406	15.9	77.4
2025-10-22T10:07	10	166	3.1	160	171	405	0.9	404	407	15.9	77.2
2025-10-22T10:08	10	171	4.3	159	175	404	0.8	403	406	15.9	76.5
2025-10-22T10:09	10	115	17.0	92	157	403	2.0	401	407	16.0	76.7
2025-10-22T10:10	10	110	21.9	70	140	403	1.3	400	405	16.0	76.7
2025-10-22T10:11	10	63	2.6	60	70	399	1.1	397	402	16.1	77.7
2025-10-22T10:12	10	58	1.3	55	60	399	0.9	396	400	16.2	77.6
2025-10-22T10:13	10	53	1.3	51	55	396	0.9	394	397	16.0	76.0
2025-10-22T10:14	10	50	0.5	49	51	395	0.4	394	395	15.9	76.7
2025-10-22T10:15	10	48	0.5	47	49	395	0.3	394	395	16.0	77.4
2025-10-22T10:16	10	47	0.1	47	48	394	0.3	393	395	15.9	77.5
2025-10-22T10:17	10	48	0.1	47	48	394	0.4	393	394	15.9	77.2
2025-10-22T10:18	10	47	0.5	46	48	393	0.4	392	394	15.9	77.5
2025-10-22T10:19	10	44	1.0	42	46	392	0.3	392	393	15.9	76.2
2025-10-22T10:20	10	42	0.5	41	43	392	0.3	391	393	15.9	76.4
2025-10-22T10:21	10	41	0.1	41	41	392	0.2	391	392	15.9	75.9
2025-10-22T10:22	10	42	0.3	41	43	392	0.3	391	392	15.9	76.8
2025-10-22T10:23	10	43	0.4	42	44	392	0.2	391	392	15.9	76.9
2025-10-22T10:24	10	44	0.2	44	44	392	0.3	392	393	15.9	77.2
2025-10-22T10:25	10	44	0.1	44	44	392	0.2	392	393	15.9	78.0
2025-10-22T10:26	10	44	0.2	43	44	392	0.3	392	393	15.9	77.3
2025-10-22T10:27	10	43	0.2	43	43	392	0.2	391	392	15.8	77.8
2025-10-22T10:28	10	43	0.1	42	43	391	0.3	390	392	15.9	77.3
2025-10-22T10:29	10	42	0.1	42	43	392	0.4	391	392	15.8	78.0
2025-10-22T10:30	10	42	0.1	42	43	392	0.3	391	392	15.8	78.8
2025-10-22T10:31	10	42	0.1	42	42	391	0.5	391	392	15.8	78.6
2025-10-22T10:32	10	42	0.1	42	42	391	0.5	390	392	15.8	78.4
2025-10-22T10:33	10	42	0.1	41	42	390	0.3	390	391	15.7	79.9
2025-10-22T10:34	10	42	0.2	42	42	390	0.2	389	390	15.7	79.6
2025-10-22T10:35	10	42	0.2	42	43	390	0.3	389	390	15.7	79.4
2025-10-22T10:36	10	43	0.3	42	44	390	0.3	389	390	15.7	78.9
2025-10-22T10:37	10	44	0.4	43	45	390	0.7	389	391	15.7	80.0
2025-10-22T10:38	10	46	0.7	45	47	390	0.5	389	391	15.6	80.5
2025-10-22T10:39	10	48	0.7	47	50	390	0.3	389	391	15.6	79.3
2025-10-22T10:40	10	50	0.5	50	51	391	0.7	390	392	15.6	79.6
2025-10-22T10:41	10	51	0.1	51	51	392	0.3	391	392	15.6	79.7
2025-10-22T10:42	10	50	0.2	50	51	392	0.3	392	393	15.6	79.3
2025-10-22T10:43	10	50	0.2	49	50	393	0.3	392	393	15.6	79.7
2025-10-22T10:44	10	49	0.1	49	50	393	0.3	392	394	15.5	79.2
2025-10-22T10:45	10	50	0.2	49	50	393	0.3	393	394	15.5	79.8
2025-10-22T10:46	10	51	0.5	50	51	394	0.3	394	395	15.5	80.2
2025-10-22T10:47	10	53	0.7	51	54	396	0.4	395	396	15.5	80.2
2025-10-22T10:48	10	55	0.8	54	57	396	0.5	395	397	15.5	80.7
2025-10-22T10:49	10	58	1.0	57	60	398	0.4	397	398	15.5	80.9
2025-10-22T10:50	10	62	1.2	60	64	398	0.3	397	399	15.5	80.4
2025-10-22T10:51	10	69	3.5	64	75	398	0.3	398	399	15.6	79.5
2025-10-22T10:52	10	82	5.1	75	96	401	1.2	398	402	15.6	79.7
2025-10-22T10:53	10	101	13.0	84	123	402	0.8	401	404	15.6	79.4
2025-10-22T10:54	10	129	23.2	88	167	406	2.0	402	409	15.7	79.4
2025-10-22T10:55	10	84	6.5	77	102	404	0.8	403	405	15.8	80.0
2025-10-22T10:56	10	77	9.7	67	101	404	1.3	402	406	15.9	80.6
2025-10-22T10:57	10	67	2.0	62	70	400	0.8	399	402	15.9	79.7
2025-10-22T10:58	10	56	1.8	55	62	397	0.5	396	398	15.9	79.5
2025-10-22T10:59	10	55	0.3	54	55	395	0.6	394	396	15.8	78.5
2025-10-22T11:00	10	60	5.0	56	74	395	0.7	394	396	15.9	79.0
2025-10-22T11:01	10	97	24.3	73	150	398	2.5	395	405	16.0	79.1
2025-10-22T11:02	10	94	22.3	75	150	402	2.6	397	405	16.1	78.6
2025-10-22T11:03	10	83	10.0	74	103					16.2	77.4
2025-10-22T11:04	10	84	8.3	75	103					16.2	77.6
2025-10-22T11:05	10	81	4.1	76	91					16.2	77.4
2025-10-22T11:06	10	82	4.5	78	95					16.3	77.6
2025-10-22T11:07	10	84	6.2	77	96					16.3	78.0
2025-10-22T11:08	10	91	6.7	83	105					16.4	77.6
2025-10-22T11:09	10	99	12.1	86	120					16.4	77.0
2025-10-22T11:10	10	93	5.0	84	102					16.4	76.8
2025-10-22T11:11	10	120	15.2	99	145					16.5	76.7
2025-10-22T11:12	10	146	21.7	107	177					16.6	76.9
2025-10-22T11:13	10	140	25.4	107	175					16.8	76.8
2025-10-22T11:14	10	157	12.7	112	168					16.9	75.3
2025-10-22T11:15	10	133	26.7	83	166					17.0	75.9
2025-10-22T11:16	10	140	21.9	97	164					17.0	75.0
2025-10-22T11:17	10	125	6.8	113	138					16.9	74.9
2025-10-22T11:18	10	144	7.8	130	156					17.1	74.6
2025-10-22T11:19	10	164	8.0	149	171					17.0	73.7
2025-10-22T11:20	10	144	16.8	117	170					17.0	74.0
2025-10-22T11:21	10	159	10.6	139	177					17.2	73.4
2025-10-22T11:22	10	151	9.8	131	165					17.1	72.3
2025-10-22T11:23	10	177	3.4	166	181					17.1	72.8
2025-10-22T11:24	10	169	8.3	141	179					17.1	71.7
2025-10-22T11:25	10	120	11.7	97	142					17.2	71.7
2025-10-22T11:26	10	88	6.5	83	111					17.2	72.0
2025-10-22T11:27	10	84	14.6	73	117					17.2	72.6
2025-10-22T11:28	10	68	4.1	63	74					17.1	72.3
2025-10-22T11:29	10	62	0.6	61	63					16.9	72.5
2025-10-22T11:30	10	61	1.1	60	64					17.0	72.3
2025-10-22T11:31	10	66	1.2	64	67					17.0	72.6
2025-10-22T11:32	10	73	4.5	67	79					17.0	72.7
2025-10-22T11:33	10	98	20.9	76	139					17.0	72.9
2025-10-22T11:34	10	133	6.2	120	144					17.0	72.7
2025-10-22T11:35	10	152	2.3	145	154					17.0	72.2
2025-10-22T11:36	10	153	0.5	152	153					17.1	73.0
2025-10-22T11:37	10	151	5.1	139	157					17.3	72.6
2025-10-22T11:38	10	147	8.4	130	159					17.3	71.8
2025-10-22T11:39	10	148	0.5	146	149					17.5	72.2
2025-10-22T11:40	10	148	0.6	146	149					17.2	71.3
2025-10-22T11:41	10	143	2.2	140	146					17.2	71.7
2025-10-22T11:42	10	139	0.6	138	140					17.2	71.7
2025-10-22T11:43	10	138	0.7	137	140					17.3	71.7
2025-10-22T11:44	10	138	0.3	137	138					17.5	72.4
2025-10-22T11:45	10	137	0.3	136	138					17.6	72.2
2025-10-22T11:46	10	135	1.7	132	137					17.5	71.2
2025-10-22T11:47	10	136	1.0	134	138					17.5	70.8
2025-10-22T11:48	10	138	3.3	128	142					17.5	70.7
2025-10-22T11:49	10	146	1.9	142	148					17.7	71.2
2025-10-22T11:50	10	146	5.8	129	151					17.8	70.9
2025-10-22T11:51	10	148	4.6	130	153					17.8	70.1
2025-10-22T11:52	10	142	14.6	115	155					17.9	69.5
2025-10-22T11:53	10	148	7.4	136	156					17.7	68.1
2025-10-22T11:54	10	152	1.1	151	156					17.6	68.6
2025-10-22T11:55	10	142	24.0	89	167					17.4	68.6
2025-10-22T11:56	10	156	13.2	132	179					17.5	69.4
2025-10-22T11:57	10	121	25.5	87	171					17.6	69.2
2025-10-22T11:58	10	105	27.1	84	168					17.6	70.4
2025-10-22T11:59	10	141	27.2	102	189					17.8	71.2
2025-10-22T12:00	10	150	37.0	103	196					17.8	69.6
2025-10-22T12:01	10	181	4.7	167	185					17.8	69.7
2025-10-22T12:02	10	182	1.8	175	183					17.9	69.7
2025-10-22T12:03	10	178	1.3	176	180					17.7	69.0
2025-10-22T12:04	10	176	1.3	175	180					18.0	69.8
2025-10-22T12:05	10	181	1.1	179	183					17.9	69.4
2025-10-22T12:06	10	181	1.3	179	183					17.8	69.7
2025-10-22T12:07	10	176	1.5	173	179					17.7	69.2
2025-10-22T12:08	10	173	0.4	172	174					17.8	69.9
2025-10-22T12:09	10	155	29.8	98	178					17.6	69.1
2025-10-22T12:10	10	155	32.3	95	185					17.5	69.5
2025-10-22T12:11	10	123	13.5	104	144					17.6	69.5
2025-10-22T12:12	10	150	23.7	113	175					17.6	70.5
2025-10-22T12:13	10	170	4.8	153	173					17.7	69.7
2025-10-22T12:14	10	114	28.1	80	166					17.6	70.0
2025-10-22T12:15	10	137	27.9	94	175					17.7	70.1
2025-10-22T12:16	10	74	11.8	60	93					17.5	70.4
2025-10-22T12:17	10	57	1.7	54	60					17.4	70.3
2025-10-22T12:18	10	50	2.2	46	54					17.5	71.5
2025-10-22T12:19	10	43	1.5	41	46					17.4	71.0
2025-10-22T12:20	10	42	0.2	42	42					17.2	71.5
2025-10-22T12:21	10	44	1.2	42	47					17.2	71.6
2025-10-22T12:22	10	52	3.0	47	59					17.1	71.8
2025-10-22T12:23	10	80	12.4	60	98					17.0	71.9
2025-10-22T12:24	10	78	3.4	75	87					17.1	73.3
2025-10-22T12:25	10	79	6.0	76	99					17.0	72.8
2025-10-22T12:26	10	140	11.6	102	150					17.0	72.4
2025-10-22T12:27	10	144	6.4	125	154					17.2	72.8
2025-10-22T12:28	10	145	7.2	130	156					17.3	71.8
2025-10-22T12:29	10	126	23.6	93	158					17.3	70.6
2025-10-22T12:30	10	162	15.4	126	177					17.3	70.7
2025-10-22T12:31	10	101	26.3	73	163					17.2	70.7
2025-10-22T12:32	10	101	11.3	82	121					17.3	71.3
2025-10-22T12:33	10	104	20.6	69	136					17.2	70.9
2025-10-22T12:34	10	114	28.2	71	155					17.2	71.9
2025-10-22T12:35	10	74	14.3	65	133					17.3	71.7
2025-10-22T12:36	10	91	14.4	74	126					17.3	72.1
2025-10-22T12:37	10	78	10.2	69	99					17.2	71.8
2025-10-22T12:38	10	132	24.7	83	153					17.3	72.0
2025-10-22T12:39	10	109	23.3	64	144					17.3	71.4
2025-10-22T12:40	10	140	3.2	129	144					17.4	71.6
2025-10-22T12:41	10	129	15.9	89	141					17.5	71.5
2025-10-22T12:42	10	126	15.1	92	138					17.4	71.3
2025-10-22T12:43	10	102	29.3	68	140					17.3	71.1
2025-10-22T12:44	10	76	14.0	60	105					17.3	71.7
2025-10-22T12:45	10	127	12.6	93	136					17.2	71.4
2025-10-22T12:46	10	133	2.2	126	137					17.3	71.4
2025-10-22T12:47	10	130	5.5	121	140					17.3	70.6
2025-10-22T12:48	10	120	10.0	93	133					17.3	71.3
2025-10-22T12:49	10	117	18.4	89	146					17.1	70.9
2025-10-22T12:50	10	92	18.7	73	132					17.1	71.4
2025-10-22T12:51	10	129	16.1	87	150					17.1	72.2
2025-10-22T12:52	10	105	30.2	60	148					17.2	72.2
2025-10-22T12:53	10	98	32.3	60	148					17.2	71.3
2025-10-22T12:54	10	137	8.8	122	151					17.1	70.7
2025-10-22T12:55	10	98	27.6	70	138					17.2	71.1
2025-10-22T12:56	10	80	3.1	72	84					17.1	71.8
2025-10-22T12:57	10	93	10.3	82	111					17.1	71.3
2025-10-22T12:58	10	101	11.8	84	128					17.1	71.2
2025-10-22T12:59	10	104	10.3	84	123					17.1	71.3
2025-10-22T13:00	10	94	14.2	75	121					17.1	71.1
2025-10-22T13:01	10	95	18.4	72	125					17.2	71.4
2025-10-22T13:02	10	114	6.0	95	123					17.2	71.4
2025-10-22T13:03	10	96	9.1	77	107					17.3	72.0
2025-10-22T13:04	10	82	15.2	59	103					17.2	71.9
2025-10-22T13:05	10	73	8.2	59	86					17.2	72.4
2025-10-22T13:06	10	61	14.1	47	83					17.1	72.0
2025-10-22T13:07	10	66	11.8	47	89					17.0	71.9
2025-10-22T13:08	10	87	13.3	65	104					17.1	72.7
2025-10-22T13:09	10	74	17.7	53	100					17.1	72.0
2025-10-22T13:10	10	87	26.3	53	115					17.0	71.8
2025-10-22T13:11	10	84	12.0	69	111					17.2	71.3
2025-10-22T13:12	10	98	17.7	73	120					17.1	70.5
2025-10-22T13:13	10	86	15.9	66	120					17.2	71.3
2025-10-22T13:14	10	71	15.3	53	96					17.3	71.2
2025-10-22T13:15	10	48	2.4	44	53					17.2	70.9
2025-10-22T13:16	10	42	1.0	40	44					17.1	70.6
2025-10-22T13:17	10	40	0.4	39	40					17.1	70.4
2025-10-22T13:18	10	39	0.2	39	40					17.1	70.5
2025-10-22T13:19	10	41	0.7	40	42					17.0	71.0
2025-10-22T13:20	10	44	1.0	42	46					17.0	71.1
2025-10-22T13:21	10	46	0.4	46	47					17.0	70.8
2025-10-22T13:22	10	47	0.2	47	48					17.0	70.9
2025-10-22T13:23	10	47	0.3	46	47					17.0	70.7
2025-10-22T13:24	10	46	0.1	46	46					17.0	70.9
2025-10-22T13:25	10	47	0.4	46	47					17.0	70.3
2025-10-22T13:26	10	48	0.4	47	49					17.0	70.4
2025-10-22T13:27	10	48	0.5	47	49					17.0	70.0
2025-10-22T13:28	10	46	0.5	46	47					17.0	70.6
2025-10-22T13:29	10	46	0.7	45	48					17.0	70.4
2025-10-22T13:30	10	51	1.9	48	54					17.0	70.9
2025-10-22T13:31	10	60	3.4	54	66					17.0	71.0
2025-10-22T13:32	10	72	2.7	66	77					17.0	71.3
2025-10-22T13:33	10	87	9.9	73	101					17.0	71.2
2025-10-22T13:34	10	89	8.9	79	108					17.1	71.2
2025-10-22T13:35	10	119	3.4	110	124					17.2	71.3
2025-10-22T13:36	10	125	5.0	113	131					17.3	71.2
2025-10-22T13:37	10	117	16.7	80	131					17.3	70.3
2025-10-22T13:38	10	68	6.6	61	82					17.3	69.8
2025-10-22T13:39	10	59	0.6	58	61					17.3	70.6
2025-10-22T13:40	10	65	2.7	58	68					17.2	69.9
2025-10-22T13:41	10	66	10.3	56	87					17.2	70.0
2025-10-22T13:42	10	79	2.8	77	88					17.3	70.1
2025-10-22T13:43	10	72	3.9	64	79					17.3	70.3
2025-10-22T13:44	10	62	9.7	50	75					17.2	70.2
2025-10-22T13:45	10	47	0.8	46	50					17.2	70.1
2025-10-22T13:46	10	49	2.1	46	53					17.2	70.2
2025-10-22T13:47	10	47	1.1	46	50					17.1	71.1
2025-10-22T13:48	10	49	3.5	46	57					17.1	71.5
2025-10-22T13:49	10	46	1.5	44	52					17.1	71.7
2025-10-22T13:50	10	42	1.8	39	44					17.0	72.0
2025-10-22T13:51	10	38	0.3	38	39					17.0	72.5
2025-10-22T13:52	10	39	0.3	38	39					17.0	72.4
2025-10-22T13:53	10	39	0.3	39	40					17.0	72.9
2025-10-22T13:54	10	40	0.3	40	41					17.0	73.0
2025-10-22T13:55	10	41	0.2	40	41					17.0	73.1
2025-10-22T13:56	10	40	0.4	39	41					17.0	72.8
2025-10-22T13:57	10	39	0.4	38	40					16.9	72.3
2025-10-22T13:58	10	38	0.3	37	38					16.9	72.8
2025-10-22T13:59	10	38	0.5	37	39					16.9	73.0
2025-10-22T14:00	10	40	0.7	39	41					16.9	72.9
2025-10-22T14:01	10	42	0.3	41	42					16.9	73.3
2025-10-22T14:02	10	41	0.7	39	42					16.9	72.9
2025-10-22T14:03	10	39	0.2	39	40					16.9	73.2
2025-10-22T14:04	10	42	2.2	39	48					16.9	73.5
2025-10-22T14:05	10	57	8.5	48	78					16.9	73.6
2025-10-22T14:06	10	64	6.7	56	75					17.0	72.6
2025-10-22T14:07	10	57	1.6	54	61					17.0	72.0
2025-10-22T14:08	10	53	0.6	51	54					17.0	71.8
2025-10-22T14:09	10	51	1.5	49	54					17.0	71.8
2025-10-22T14:10	10	42	2.4	39	48					17.1	71.9
2025-10-22T14:11	10	39	0.2	39	40					17.1	71.5
2025-10-22T14:12	10	42	4.4	39	57					17.1	70.9
2025-10-22T14:13	10	61	6.9	49	71					17.1	71.4
2025-10-22T14:14	10	57	3.7	49	62					17.1	71.0
2025-10-22T14:15	10	60	5.3	52	69					17.1	71.2
2025-10-22T14:16	10	82	10.6	64	94					17.1	71.0
2025-10-22T14:17	10	94	0.5	93	94					17.2	71.1
2025-10-22T14:18	10	93	0.3	92	94					17.3	68.8
2025-10-22T14:19	10	92	0.6	91	93					17.3	69.3
2025-10-22T14:20	10	90	0.9	89	92					17.3	69.4
2025-10-22T14:21	10	92	1.7	89	94					17.4	69.0
2025-10-22T14:22	10	93	0.2	93	94					17.4	69.6
2025-10-22T14:23	10	92	0.5	91	93					17.4	69.8
2025-10-22T14:24	10	88	3.8	81	92					17.4	69.8
2025-10-22T14:25	10	74	4.2	66	80					17.3	70.0
2025-10-22T14:26	10	76	5.3	70	86					17.4	70.3
2025-10-22T14:27	10	90	2.2	86	92					17.4	70.0
2025-10-22T14:28	10	92	1.0	90	93					17.4	69.4
2025-10-22T14:29	10	91	1.0	90	93					17.4	69.8
2025-10-22T14:30	10	91	1.8	88	93					17.4	69.3
2025-10-22T14:31	10	93	1.8	88	95					17.4	69.7
2025-10-22T14:32	10	94	0.3	94	95					17.3	69.9
2025-10-22T14:33	10	92	2.1	87	94					17.4	70.7
2025-10-22T14:34	10	94	3.0	83	95					17.5	70.8
2025-10-22T14:35	10	84	4.7	74	91					17.5	70.3
2025-10-22T14:36	10	77	4.1	66	81					17.5	71.0
2025-10-22T14:37	10	76	0.4	75	77					17.6	71.2
2025-10-22T14:38	10	74	1.1	73	76					17.5	69.9
2025-10-22T14:39	10	73	0.5	72	74					17.4	70.0
2025-10-22T14:40	10	69	1.5	67	72					17.4	69.8
2025-10-22T14:41	10	67	0.2	66	68					17.4	69.4
2025-10-22T14:42	10	66	1.4	62	67					17.4	69.6
2025-10-22T14:43	10	61	0.5	60	62					17.5	69.2
2025-10-22T14:44	10	61	0.4	60	61					17.4	69.3
2025-10-22T14:45	10	54	4.2	48	60					17.4	69.4
2025-10-22T14:46	10	54	0.6	53	55					17.3	70.0
2025-10-22T14:47	10	46	4.9	39	53					17.3	69.2
2025-10-22T14:48	10	38	0.6	37	39					17.3	69.7
2025-10-22T14:49	10	41	2.8	38	45					17.2	70.0
2025-10-22T14:50	10	49	2.8	46	54					17.2	70.3
2025-10-22T14:51	10	57	1.4	54	59					17.3	70.1
2025-10-22T14:52	10	59	2.4	54	61					17.3	70.8
2025-10-22T14:53	10	56	5.2	50	65					17.3	70.6
2025-10-22T14:54	10	64	0.6	63	65					17.2	70.0
2025-10-22T14:55	10	63	0.7	62	64					17.2	70.3
2025-10-22T14:56	10	63	1.3	59	64					17.2	71.1
2025-10-22T14:57	10	61	0.7	60	62					17.2	71.3
2025-10-22T14:58	10	61	0.7	60	63					17.2	71.1
2025-10-22T14:59	10	51	12.8	27	66					17.1	71.4
2025-10-22T15:00	10	43	14.8	26	63					17.1	71.8
2025-10-22T15:01	10	59	8.7	42	70					17.1	71.6
2025-10-22T15:02	10	59	11.5	36	72					17.1	71.4
2025-10-22T15:03	10	63	6.4	51	73					17.1	71.0
2025-10-22T15:04	10	51	13.2	34	69					17.1	71.3
2025-10-22T15:05	10	41	4.6	32	46					17.0	72.0
2025-10-22T15:06	10	27	2.3	24	31					17.0	72.0
2025-10-22T15:07	10	23	0.2	23	24					16.9	71.9
2025-10-22T15:08	10	22	0.3	22	23					16.9	72.1
2025-10-22T15:09	10	21	0.4	21	22					16.8	71.9
2025-10-22T15:10	10	20	0.2	20	21					16.8	71.9
2025-10-22T15:11	10	26	4.7	21	34					16.7	72.4
2025-10-22T15:12	10	25	1.1	22	27					16.6	72.6
2025-10-22T15:13	10	18	1.8	16	23					16.6	72.8
2025-10-22T15:14	10	18	2.6	16	27					16.6	72.8
2025-10-22T15:15	10	30	5.1	24	38					16.6	72.5
2025-10-22T15:16	10	17	2.0	16	24					16.6	72.5
2025-10-22T15:17	10	17	2.5	16	27					16.5	72.5
2025-10-22T15:18	10	52	8.8	29	62					16.5	72.5
2025-10-22T15:19	10	26	10.7	18	53					16.5	72.7
2025-10-22T15:20	10	17	0.2	17	18					16.6	72.1
2025-10-22T15:21	10	18	0.3	17	18					16.5	72.3
2025-10-22T15:22	10	25	7.4	18	38					16.5	72.9
2025-10-22T15:23	10	26	5.6	21	38					16.5	72.8
2025-10-22T15:24	10	22	0.2	22	22					16.5	72.6
2025-10-22T15:25	10	21	0.4	20	22					16.5	72.9
2025-10-22T15:26	10	19	0.9	18	21					16.5	73.3
2025-10-22T15:27	10	16	0.8	15	18					16.5	73.3
2025-10-22T15:28	10	14	0.4	14	15					16.5	73.2
2025-10-22T15:29	10	14	0.2	13	14					16.5	73.2
2025-10-22T15:30	10	14	0.1	14	14					16.5	73.1
2025-10-22T15:31	10	13	0.2	13	14					16.5	72.8
2025-10-22T15:32	10	12	0.5	11	13					16.5	73.3
2025-10-22T15:33	10	11	0.4	10	12					16.4	73.3
2025-10-22T15:34	10	9	0.3	9	10					16.4	74.1
2025-10-22T15:35	10	8	0.1	8	9					16.4	74.0
2025-10-22T15:36	10	8	0.2	8	8					16.4	73.4
2025-10-22T15:37	10	8	0.2	7	8					16.4	73.8
2025-10-22T15:38	10	7	0.2	7	7					16.4	74.2
2025-10-22T15:39	10	7	0.1	7	7					16.3	74.2
2025-10-22T15:40	10	7	0.1	7	7					16.4	73.9
2025-10-22T15:41	10	7	0.2	7	8					16.4	73.7
2025-10-22T15:42	10	8	0.4	8	9					16.3	74.1
2025-10-22T15:43	10	10	0.5	9	11					16.3	74.0
2025-10-22T15:44	10	10	0.3	10	11					16.3	74.4
2025-10-22T15:45	10	11	0.2	11	11					16.3	74.7
2025-10-22T15:46	10	11	0.1	11	11					16.3	74.3
2025-10-22T15:47	10	11	0.1	10	11					16.2	74.8
2025-10-22T15:48	10	10	0.1	10	11					16.2	75.0
2025-10-22T15:49	10	10	0.1	10	10					16.2	74.8
2025-10-22T15:50	10	9	0.3	9	10					16.3	74.2
2025-10-22T15:51	10	8	0.2	8	9					16.2	74.4
2025-10-22T15:52	10	8	0.1	8	8					16.2	74.4
2025-10-22T15:53	10	8	0.1	8	8					16.2	74.3
2025-10-22T15:54	10	8	0.1	7	8					16.2	74.5
2025-10-22T15:55	10	7	0.1	7	8					16.1	74.7
2025-10-22T15:56	10	7	0.1	7	7					16.1	74.8
2025-10-22T15:57	10	7	0.1	7	7					16.1	74.7
2025-10-22T15:58	10	7	0.1	6	7					16.0	75.4
2025-10-22T15:59	10	7	0.1	6	7					16.1	74.6
2025-10-22T16:00	10	6	0.1	6	6					16.1	74.8
2025-10-22T16:01	10	6	0.1	6	6					16.1	74.8
2025-10-22T16:02	10	6	0.1	6	6					16.0	75.1
2025-10-22T16:03	10	6	0.1	6	6					16.0	75.0
2025-10-22T16:04	10	6	0.1	6	6					16.0	75.5
2025-10-22T16:05	10	6	0.1	6	6					16.0	75.4
2025-10-22T16:06	10	6	0.1	5	6					16.0	75.0
2025-10-22T16:07	10	5	0.1	5	5					15.9	75.6
2025-10-22T16:08	10	5	0.1	5	5					15.9	75.3
2025-10-22T16:09	10	5	0.1	5	5					16.0	74.6
2025-10-22T16:10	10	5	0.1	4	5					16.0	74.7
2025-10-22T16:11	10	4	0.1	4	5					16.0	74.7
2025-10-22T16:12	10	4	0.1	4	5					15.9	75.2
2025-10-22T16:13	10	4	0.1	4	4					15.8	75.8
2025-10-22T16:14	10	4	0.1	4	4					15.8	75.5
2025-10-22T16:15	10	4	0.1	3	4					15.8	75.5
2025-10-22T16:16	10	3	0.1	3	4					15.8	76.1
2025-10-22T16:17	10	3	0.2	3	3					15.8	76.0
2025-10-22T16:18	10	3	0.2	2	3					15.7	76.7
2025-10-22T16:19	10	2	0.1	2	3					15.6	77.2
2025-10-22T16:20	10	2	0.2	2	3					15.6	77.1
2025-10-22T16:21	10	2	0.1	2	2					15.6	77.2
2025-10-22T16:22	10	2	0.1	2	2					15.6	77.4
2025-10-22T16:23	10	2	0.1	2	2					15.6	76.9
2025-10-22T16:24	10	2	0.1	1	2					15.6	77.4
2025-10-22T16:25	10	1	0.1	1	2					15.5	77.9
2025-10-22T16:26	10	1	0.1	1	2					15.5	77.8
2025-10-22T16:27	10	1	0.1	1	1					15.4	78.0
2025-10-22T16:28	10	1	0.1	1	1					15.4	77.9
2025-10-22T16:29	10	1	0.1	1	1					15.5	77.7
2025-10-22T16:30	10	1	0.1	1	1					15.5	77.8
2025-10-22T16:31	10	1	0.1	1	1					15.5	77.3
2025-10-22T16:32	10	1	0.1	1	1					15.6	77.2
2025-10-22T16:33	10	1	0.1	1	1					15.6	77.1
2025-10-22T16:34	10	1	0.1	1	1					15.5	77.5
2025-10-22T16:35	10	1	0.1	1	1					15.4	78.0
2025-10-22T16:36	10	1	0.1	0	1					15.4	78.1
2025-10-22T16:37	10	1	0.1	1	1					15.5	77.3
2025-10-22T16:38	10	1	0.1	0	1					15.4	77.8
2025-10-22T16:39	10	1	0.1	0	1					15.5	77.4
2025-10-22T16:40	10	1	0.0	0	1					15.5	77.2
2025-10-22T16:41	10	1	0.1	0	1					15.4	77.7
2025-10-22T16:42	10	0	0.1	0	1					15.5	77.5
2025-10-22T16:43	10	0	0.1	0	1					15.4	77.9
2025-10-22T16:44	10	0	0.1	0	1					15.4	77.8
2025-10-22T16:45	10	0	0.0	0	1					15.4	77.7
2025-10-22T16:46	10	0	0.1	0	1					15.4	77.5
2025-10-22T16:47	10	0	0.0	0	0					15.5	77.3
2025-10-22T16:48	10	0	0.0	0	0					15.4	77.5
2025-10-22T16:49	10	0	0.1	0	0					15.4	78.2
2025-10-22T16:50	10	0	0.1	0	0					15.4	77.9
2025-10-22T16:51	10	0	0.0	0	0					15.4	78.1
2025-10-22T16:52	10	0	0.0	0	0					15.4	78.0
2025-10-22T16:53	10	0	0.1	0	1					15.4	77.9
2025-10-22T16:54	10	0	0.1	0	1					15.3	78.1
2025-10-22T16:55	10	0	0.1	0	0					15.3	78.1
2025-10-22T16:56	10	0	0.1	0	1					15.4	77.9
2025-10-22T16:57	10	0	0.1	0	1					15.4	77.7
2025-10-22T16:58	10	0	0.1	0	1					15.4	78.0
2025-10-22T16:59	10	0	0.2	0	1					15.3	78.3
2025-10-22T17:00	10	0	0.1	0	0					15.4	77.9
2025-10-22T17:01	10	0	0.1	0	1					15.4	77.9
2025-10-22T17:02	10	0	0.1	0	1					15.4	77.7
2025-10-22T17:03	10	0	0.1	0	1					15.4	78.2
2025-10-22T17:04	10	0	0.1	0	1					15.3	78.3
2025-10-22T17:05	10	0	0.1	0	1					15.3	78.2
2025-10-22T17:06	10	0	0.1	0	1					15.2	78.8
2025-10-22T17:07	10	0	0.2	0	1					15.3	78.3
2025-10-22T17:08	10	0	0.2	0	1					15.3	78.3
2025-10-22T17:09	10	0	0.2	0	1					15.3	78.5
2025-10-22T17:10	10	0	0.1	0	1					15.2	78.8
2025-10-22T17:11	10	0	0.2	0	1					15.2	78.8
2025-10-22T17:12	10	0	0.1	0	1					15.3	78.2
2025-10-22T17:13	10	0	0.1	0	1					15.2	78.8
2025-10-22T17:14	10	0	0.1	0	1					15.2	78.7
2025-10-22T17:15	10	0	0.2	0	1					15.3	78.4
2025-10-22T17:16	10	0	0.1	0	1					15.3	78.3
2025-10-22T17:17	10	0	0.2	0	1					15.3	78.1
2025-10-22T17:18	10	1	0.2	0	1					15.3	78.1
2025-10-22T17:19	10	1	0.2	0	1					15.3	78.1
2025-10-22T17:20	10	0	0.1	0	1					15.3	78.4
2025-10-22T17:21	10	0	0.1	0	1					15.3	78.8
2025-10-22T17:22	10	0	0.1	0	1					15.3	78.3
2025-10-22T17:23	10	0	0.1	0	1					15.3	78.3
2025-10-22T17:24	10	0	0.1	0	1					15.3	78.5
2025-10-22T17:25	10	0	0.1	0	1					15.3	78.6
2025-10-22T17:26	10	0	0.1	0	1					15.3	78.6
2025-10-22T17:27	10	0	0.1	0	1					15.3	78.7
2025-10-22T17:28	10	0	0.1	0	1					15.4	77.7
2025-10-22T17:29	10	0	0.1	0	1					15.4	77.8
2025-10-22T17:30	10	0	0.1	0	1					15.3	77.8
2025-10-22T17:31	10	0	0.2	0	1					15.3	78.1
2025-10-22T17:32	10	0	0.2	0	1					15.3	78.3
2025-10-22T17:33	10	0	0.1	0	1					15.2	78.5
2025-10-22T17:34	10	0	0.1	0	1					15.3	78.1
2025-10-22T17:35	10	0	0.2	0	1					15.3	78.0
2025-10-22T17:36	10	0	0.1	0	1					15.3	77.9
2025-10-22T17:37	10	0	0.1	0	1					15.3	78.1
2025-10-22T17:38	10	0	0.1	0	1					15.2	78.8
2025-10-22T17:39	10	0	0.1	0	1					15.2	78.9
2025-10-22T17:40	10	0	0.1	0	1					15.1	79.4
2025-10-22T17:41	10	0	0.1	0	1					15.1	79.8
2025-10-22T17:42	10	0	0.1	0	1					15.0	80.1
2025-10-22T17:43	10	0	0.1	0	1					15.0	80.2
2025-10-22T17:44	10	0	0.1	0	1					15.0	80.1
2025-10-22T17:45	10	0	0.1	0	0					15.1	79.3
2025-10-22T17:46	10	0	0.1	0	0					15.1	79.4
2025-10-22T17:47	10	0	0.1	0	1					15.2	78.7
2025-10-22T17:48	10	0	0.1	0	1					15.2	78.6
2025-10-22T17:49	10	0	0.1	0	0					15.2	78.6
2025-10-22T17:50	10	0	0.1	0	1					15.2	78.7
2025-10-22T17:51	10	0	0.1	0	1					15.2	78.7
2025-10-22T17:52	10	0	0.1	0	1					15.1	79.3
2025-10-22T17:53	10	0	0.1	0	1					15.1	78.8
2025-10-22T17:54	10	0	0.1	0	1					15.2	78.8
2025-10-22T17:55	10	0	0.1	0	1					15.1	79.1
2025-10-22T17:56	10	0	0.1	0	1					15.1	79.3
2025-10-22T17:57	10	0	0.1	0	1					15.1	79.3
2025-10-22T17:58	10	0	0.1	0	1					15.1	78.9
2025-10-22T17:59	10	0	0.1	0	1					15.1	79.2
2025-10-22T18:00	10	0	0.1	0	1					15.1	79.5
2025-10-22T18:01	10	0	0.1	0	0					15.1	79.3
2025-10-22T18:02	10	0	0.1	0	0					15.2	78.8
2025-10-22T18:03	10	0	0.1	0	0					15.2	78.8
2025-10-22T18:04	10	0	0.1	0	0					15.2	78.5
2025-10-22T18:05	10	0	0.1	0	1					15.3	78.2
2025-10-22T18:06	10	0	0.1	0	1					15.2	78.5
2025-10-22T18:07	10	0	0.1	0	0					15.1	79.2
2025-10-22T18:08	10	0	0.1	0	0					15.1	79.6
2025-10-22T18:09	10	0	0.0	0	0					15.0	80.0
2025-10-22T18:10	10	0	0.1	0	0					15.0	80.0
2025-10-22T18:11	10	0	0.0	0	0					15.0	80.1
2025-10-22T18:12	10	0	0.0	0	0					15.0	80.0
2025-10-22T18:13	10	0	0.0	0	0					15.0	79.9
2025-10-22T18:14	10	0	0.0	0	0					15.1	79.5
2025-10-22T18:15	10	0	0.1	0	0					15.1	79.7
2025-10-22T18:16	10	0	0.0	0	0					15.1	79.6
2025-10-22T18:17	10	0	0.1	0	0					15.1	79.8
2025-10-22T18:18	10	0	0.1	0	0					15.0	80.4
2025-10-22T18:19	10	0	0.1	0	0					15.0	80.1
2025-10-22T18:20	10	0	0.1	0	0					15.0	80.4
2025-10-22T18:21	10	0	0.1	0	0					15.1	80.0
2025-10-22T18:22	10	0	0.1	0	0					15.1	80.0
2025-10-22T18:23	10	0	0.0	0	0					15.1	79.9
2025-10-22T18:24	10	0	0.1	0	0					15.1	79.8
2025-10-22T18:25	10	0	0.1	0	0					15.1	79.6
2025-10-22T18:26	10	0	0.1	0	0					15.1	79.5
2025-10-22T18:27	10	0	0.1	0	1					15.3	78.9
2025-10-22T18:28	10	0	0.1	0	0					15.2	79.1
2025-10-22T18:29	10	0	0.1	0	1					15.3	78.6
2025-10-22T18:30	10	0	0.1	0	1					15.4	78.1
2025-10-22T18:31	10	0	0.1	0	1					15.4	78.4
2025-10-22T18:32	10	0	0.1	0	1					15.4	78.6
2025-10-22T18:33	10	0	0.1	0	1					15.4	78.2
2025-10-22T18:34	10	0	0.1	0	1					15.5	78.1
2025-10-22T18:35	10	0	0.1	0	1					15.6	77.6
2025-10-22T18:36	10	0	0.1	0	1					15.6	77.6
2025-10-22T18:37	10	1	0.1	0	1					15.7	77.1
2025-10-22T18:38	10	1	0.1	1	1					15.8	76.6
2025-10-22T18:39	10	1	0.1	1	1					15.8	76.1
2025-10-22T18:40	10	1	0.1	1	1					15.9	76.1
2025-10-22T18:41	10	1	0.1	1	1					15.8	76.7
2025-10-22T18:42	10	1	0.1	0	1					15.7	77.1
2025-10-22T18:43	10	1	0.0	1	1					15.7	77.4
2025-10-22T18:44	10	1	0.1	0	1					15.7	77.2
2025-10-22T18:45	10	1	0.1	1	1					15.7	77.3
2025-10-22T18:46	10	1	0.1	0	1					15.7	77.2
2025-10-22T18:47	10	1	0.1	0	1					15.7	77.3
2025-10-22T18:48	10	1	0.1	0	1					15.7	77.5
2025-10-22T18:49	10	1	0.0	0	1					15.6	77.9
2025-10-22T18:50	10	1	0.1	0	1					15.6	78.1
2025-10-22T18:51	10	0	0.1	0	1					15.5	73.6
2025-10-22T18:52	10	1	0.1	0	1					15.5	77.3
2025-10-22T18:53	10	0	0.0	0	1					15.5	78.6
2025-10-22T18:54	10	1	0.0	0	1					15.5	78.6
2025-10-22T18:55	10	0	0.0	0	1					15.5	78.6
2025-10-22T18:56	10	0	0.1	0	1					15.5	78.6
2025-10-22T18:57	10	0	0.0	0	1					15.5	78.6
2025-10-22T18:58	10	0	0.0	0	1					15.5	78.6
2025-10-22T18:59	10	0	0.0	0	1					15.6	78.9
2025-10-22T19:00	10	0	0.1	0	1					15.6	79.2
2025-10-22T19:01	10	0	0.0	0	0					15.7	79.0
2025-10-22T19:02	10	0	0.0	0	0					15.8	78.8
2025-10-22T19:03	10	0	0.1	0	0					15.6	79.6
2025-10-22T19:04	10	0	0.1	0	0					15.7	79.2
2025-10-22T19:05	10	0	0.1	0	0					15.7	79.7
2025-10-22T19:06	10	0	0.0	0	0					15.6	80.0
2025-10-22T19:07	10	0	0.0	0	0					15.7	79.6
2025-10-22T19:08	10	0	0.1	0	1					15.7	79.7
2025-10-22T19:09	10	0	0.0	0	0					15.8	79.2
2025-10-22T19:10	10	0	0.1	0	0					15.7	79.8
2025-10-22T19:11	10	0	0.1	0	0					15.6	80.0
2025-10-22T19:12	10	0	0.0	0	0					15.6	80.5
2025-10-22T19:13	10	0	0.1	0	0					15.6	80.4
2025-10-22T19:14	10	0	0.1	0	0					15.6	80.5
2025-10-22T19:15	10	0	0.1	0	0					15.5	80.7
2025-10-22T19:16	10	0	0.1	0	0					15.5	80.7
2025-10-22T19:17	10	0	0.1	0	0					15.5	81.1
2025-10-22T19:18	10	0	0.1	0	0					15.4	81.2
2025-10-22T19:19	10	0	0.1	0	0					15.4	81.3
2025-10-22T19:20	10	0	0.1	0	0					15.5	81.1
2025-10-22T19:21	10	0	0.1	0	0					15.4	81.6
2025-10-22T19:22	10	0	0.1	0	0					15.4	81.6
2025-10-22T19:23	10	0	0.1	0	0					15.4	81.8
2025-10-22T19:24	10	0	0.0	0	0					15.3	81.9
2025-10-22T19:25	10	0	0.1	0	0					15.3	82.2
2025-10-22T19:26	10	0	0.1	0	0					15.3	82.5
2025-10-22T19:27	10	0	0.1	0	0					15.2	82.8
2025-10-22T19:28	10	0	0.1	0	0					15.3	82.4
2025-10-22T19:29	10	0	0.1	0	0					15.3	82.5
2025-10-22T19:30	10	0	0.1	0	0					15.3	82.4
2025-10-22T19:31	10	0	0.1	0	0					15.3	82.5
2025-10-22T19:32	10	0	0.1	0	0					15.3	82.2
2025-10-22T19:33	10	0	0.1	0	0					15.3	82.0
2025-10-22T19:34	10	0	0.1	0	0					15.3	82.2
2025-10-22T19:35	10	0	0.1	0	0					15.3	82.3
2025-10-22T19:36	10	0	0.1	0	0					15.2	82.3
2025-10-22T19:37	10	0	0.0	0	0					15.2	82.8
2025-10-22T19:38	10	0	0.1	0	0					15.2	82.7
2025-10-22T19:39	10	0	0.1	0	0					15.2	82.6
2025-10-22T19:40	10	0	0.1	0	0					15.2	82.4
2025-10-22T19:41	10	0	0.1	0	0					15.2	82.7
2025-10-22T19:42	10	0	0.1	0	0					15.2	82.5
2025-10-22T19:43	10	0	0.1	0	0					15.2	82.6
2025-10-22T19:44	10	0	0.1	0	0					15.2	82.9
2025-10-22T19:45	10	0	0.0	0	0					15.2	82.8
2025-10-22T19:46	10	0	0.0	0	0					15.2	82.4
2025-10-22T19:47	10	0	0.1	0	0					15.2	82.7
2025-10-22T19:48	10	0	0.1	0	0					15.2	82.9
2025-10-22T19:49	10	0	0.1	0	0					15.1	83.7
2025-10-22T19:50	10	0	0.1	0	0					15.0	84.6
2025-10-22T19:51	10	0	0.1	0	0					14.9	85.5
2025-10-22T19:52	10	0	0.1	0	0					14.9	85.3
2025-10-22T19:53	10	0	0.1	0	0					14.9	85.3
2025-10-22T19:54	10	0	0.1	0	0					14.9	85.3
2025-10-22T19:55	10	0	0.1	0	1					14.9	85.2
2025-10-22T19:56	10	0	0.1	0	1					15.0	85.1
2025-10-22T19:57	10	0	0.1	0	1					15.0	84.8
2025-10-22T19:58	10	0	0.1	0	1					14.9	85.5
2025-10-22T19:59	10	0	0.1	0	1					14.9	85.8
2025-10-22T20:00	10	0	0.1	0	1					14.9	85.6
2025-10-22T20:01	10	0	0.0	0	1					14.9	84.9
2025-10-22T20:02	10	1	0.0	0	1					14.9	85.0
2025-10-22T20:03	10	1	0.1	0	1					14.9	85.1
2025-10-22T20:04	10	1	0.1	0	1					14.9	84.9
2025-10-22T20:05	10	1	0.1	0	1					14.9	85.0
2025-10-22T20:06	10	1	0.1	0	1					14.9	84.8
2025-10-22T20:07	10	1	0.1	1	1					14.9	84.6
2025-10-22T20:08	10	0	0.1	0	0					15.0	83.8
2025-10-22T20:09	10	0	0.1	0	0					15.1	83.7
2025-10-22T20:10	10	0	0.1	0	0					15.0	84.1
2025-10-22T20:11	10	0	0.1	0	1					15.0	84.0
2025-10-22T20:12	10	0	0.1	0	1					15.0	84.0
2025-10-22T20:13	10	0	0.1	0	1					15.0	83.9
2025-10-22T20:14	10	0	0.1	0	1					15.1	83.4
2025-10-22T20:15	10	0	0.1	0	1					15.1	83.5
2025-10-22T20:16	10	0	0.1	0	1					15.0	84.1
2025-10-22T20:17	10	0	0.1	0	1					15.0	83.6
2025-10-22T20:18	10	0	0.1	0	0					15.1	83.3
2025-10-22T20:19	10	0	0.1	0	1					15.0	83.5
2025-10-22T20:20	10	0	0.1	0	1					15.0	83.8
2025-10-22T20:21	10	0	0.1	0	0					15.0	84.0
2025-10-22T20:22	10	0	0.1	0	1					15.1	83.3
2025-10-22T20:23	10	0	0.1	0	1					15.1	83.3
2025-10-22T20:24	10	0	0.1	0	1					15.1	83.2
2025-10-22T20:25	10	0	0.1	0	1					15.1	83.3
2025-10-22T20:26	10	0	0.1	0	1					15.1	82.9
2025-10-22T20:27	10	0	0.1	0	1					15.0	83.5
2025-10-22T20:28	10	0	0.1	0	1					15.1	83.1
2025-10-22T20:29	10	0	0.1	0	1					15.2	82.5
2025-10-22T20:30	10	0	0.1	0	1					15.1	82.8
2025-10-22T20:31	10	0	0.1	0	1					15.1	82.9
2025-10-22T20:32	10	0	0.1	0	1					15.1	82.6
2025-10-22T20:33	10	0	0.1	0	1					15.1	82.5
2025-10-22T20:34	10	0	0.1	0	1					15.1	82.6
2025-10-22T20:35	10	0	0.1	0	1					15.2	82.4
2025-10-22T20:36	10	0	0.1	0	1					15.1	82.6
2025-10-22T20:37	10	0	0.1	0	1					15.1	82.9
2025-10-22T20:38	10	0	0.1	0	1					15.1	82.3
2025-10-22T20:39	10	0	0.1	0	1					15.1	82.3
2025-10-22T20:40	10	0	0.1	0	1					15.1	82.5
2025-10-22T20:41	10	0	0.1	0	1					15.1	82.9
2025-10-22T20:42	10	0	0.1	0	1					15.1	82.8
2025-10-22T20:43	10	0	0.1	0	1					15.1	82.4
2025-10-22T20:44	10	0	0.1	0	1					15.1	82.5
2025-10-22T20:45	10	0	0.1	0	1					15.1	82.3
2025-10-22T20:46	10	0	0.1	0	1					15.1	82.1
2025-10-22T20:47	10	0	0.1	0	1					15.2	82.0
2025-10-22T20:48	10	0	0.1	0	1					15.1	82.1
2025-10-22T20:49	10	0	0.1	0	1					15.1	81.9
2025-10-22T20:50	10	0	0.1	0	1					15.2	81.9
2025-10-22T20:51	10	0	0.1	0	1					15.2	82.0
2025-10-22T20:52	10	0	0.1	0	1					15.1	82.3
2025-10-22T20:53	10	0	0.1	0	0					15.1	82.5
2025-10-22T20:54	10	0	0.1	0	1					15.2	81.9
2025-10-22T20:55	10	0	0.1	0	0					15.2	81.8
2025-10-22T20:56	10	0	0.1	0	1					15.2	82.0
2025-10-22T20:57	10	0	0.1	0	1					15.1	82.2
2025-10-22T20:58	10	0	0.1	0	0					15.2	81.9
2025-10-22T20:59	10	0	0.1	0	1					15.1	82.2
2025-10-22T21:00	10	0	0.1	0	0					15.2	81.7
2025-10-22T21:01	10	0	0.1	0	1					15.2	81.7
2025-10-22T21:02	10	0	0.1	0	0					15.2	82.1
2025-10-22T21:03	10	0	0.1	0	0					15.1	82.4
2025-10-22T21:04	10	0	0.1	0	1					15.1	82.6
2025-10-22T21:05	10	0	0.1	0	0					15.2	81.8
2025-10-22T21:06	10	0	0.1	0	1					15.2	82.1
2025-10-22T21:07	10	0	0.1	0	1					15.1	82.3
2025-10-22T21:08	10	0	0.1	0	1					15.1	82.3
2025-10-22T21:09	10	0	0.1	0	1					15.1	82.1
2025-10-22T21:10	10	0	0.1	0	1					15.2	82.0
2025-10-22T21:11	10	0	0.1	0	0					15.1	82.1
2025-10-22T21:12	10	0	0.1	0	1					15.2	81.9
2025-10-22T21:13	10	0	0.1	0	1					15.2	81.9
2025-10-22T21:14	10	0	0.1	0	1					15.1	82.1
2025-10-22T21:15	10	0	0.1	0	0					15.1	82.3
2025-10-22T21:16	10	0	0.1	0	1					15.1	82.5
2025-10-22T21:17	10	0	0.1	0	1					15.1	82.5
2025-10-22T21:18	10	0	0.1	0	1					15.1	82.5
2025-10-22T21:19	10	0	0.1	0	0					15.1	82.6
2025-10-22T21:20	10	0	0.1	0	0					15.2	81.8
2025-10-22T21:21	10	0	0.1	0	1					15.1	82.3
2025-10-22T21:22	10	0	0.1	0	1					15.1	82.4
2025-10-22T21:23	10	0	0.1	0	0					15.0	83.1
2025-10-22T21:24	10	0	0.1	0	0					15.0	83.2
2025-10-22T21:25	10	0	0.1	0	0					15.0	83.0
2025-10-22T21:26	10	0	0.1	0	0					15.1	82.4
2025-10-22T21:27	10	0	0.1	0	1					15.1	82.4
2025-10-22T21:28	10	0	0.1	0	1					15.1	82.0
2025-10-22T21:29	10	0	0.1	0	1					15.1	82.4
2025-10-22T21:30	10	0	0.1	0	0					15.0	82.5
2025-10-22T21:31	10	0	0.1	0	0					15.1	82.3
2025-10-22T21:32	10	0	0.1	0	0					15.1	82.5
2025-10-22T21:33	10	0	0.1	0	1					15.1	82.3
2025-10-22T21:34	10	0	0.1	0	0					15.1	82.2
2025-10-22T21:35	10	0	0.1	0	0					15.1	82.4
2025-10-22T21:36	10	0	0.1	0	1					15.0	82.6
2025-10-22T21:37	10	0	0.1	0	0					15.0	82.6
2025-10-22T21:38	10	0	0.1	0	0					15.0	82.6
2025-10-22T21:39	10	0	0.0	0	0					15.0	82.8
2025-10-22T21:40	10	0	0.1	0	0					15.1	81.9
2025-10-22T21:41	10	0	0.1	0	0					15.1	82.3
2025-10-22T21:42	10	0	0.0	0	0					15.0	82.8
2025-10-22T21:43	10	0	0.1	0	0					15.0	83.1
2025-10-22T21:44	10	0	0.0	0	0					15.0	82.9
2025-10-22T21:45	10	0	0.1	0	0					15.0	83.1
2025-10-22T21:46	10	0	0.1	0	0					14.9	83.4
2025-10-22T21:47	10	0	0.0	0	0					14.9	83.8
2025-10-22T21:48	10	0	0.1	0	0					14.9	83.9
2025-10-22T21:49	10	0	0.1	0	0					14.8	84.3
2025-10-22T21:50	10	0	0.1	0	0					14.8	84.7
2025-10-22T21:51	10	0	0.1	0	0					14.8	85.1
2025-10-22T21:52	10	0	0.1	0	1					14.8	85.3
2025-10-22T21:53	10	0	0.1	0	1					14.7	85.6
2025-10-22T21:54	10	0	0.1	0	1					14.7	85.7
2025-10-22T21:55	10	0	0.1	0	1					14.6	86.3
2025-10-22T21:56	10	0	0.1	0	1					14.6	86.4
2025-10-22T21:57	10	0	0.1	0	1					14.6	87.1
2025-10-22T21:58	10	0	0.1	0	1					14.7	86.1
2025-10-22T21:59	10	0	0.1	0	1					14.5	87.3
2025-10-22T22:00	10	0	0.1	0	0					14.6	86.9
2025-10-22T22:01	10	0	0.1	0	1					14.6	87.0
2025-10-22T22:02	10	0	0.1	0	0					14.5	87.8
2025-10-22T22:03	10	0	0.1	0	0					14.5	88.2
2025-10-22T22:04	10	0	0.1	0	0					14.3	89.7
2025-10-22T22:05	10	0	0.1	0	0					14.4	88.9
2025-10-22T22:06	10	0	0.1	0	0					14.4	88.5
2025-10-22T22:07	10	0	0.1	0	0					14.4	88.9
2025-10-22T22:08	10	0	0.1	0	0					14.2	90.2
2025-10-22T22:09	10	0	0.1	0	0					14.2	90.1
2025-10-22T22:10	10	0	0.1	0	0					14.2	90.8
2025-10-22T22:11	10	0	0.1	0	0					14.2	90.8
2025-10-22T22:12	10	0	0.1	0	0					14.1	91.1
2025-10-22T22:13	10	0	0.1	0	0					14.2	91.0
2025-10-22T22:14	10	0	0.1	0	0					14.1	91.2
2025-10-22T22:15	10	0	0.1	0	0					14.1	91.8
2025-10-22T22:16	10	0	0.1	0	0					14.1	91.4
2025-10-22T22:17	10	0	0.1	0	0					14.1	91.5
2025-10-22T22:18	10	0	0.1	0	0					14.0	92.3
2025-10-22T22:19	10	0	0.1	0	0					13.9	93.0
2025-10-22T22:20	10	0	0.1	0	0					13.9	93.0
2025-10-22T22:21	10	0	0.1	0	0					13.9	93.1
2025-10-22T22:22	10	0	0.1	0	0					14.0	92.6
2025-10-22T22:23	10	0	0.1	0	0					14.0	92.3
2025-10-22T22:24	10	0	0.1	0	0					14.0	93.0
2025-10-22T22:25	10	0	0.1	0	0					13.9	93.8
2025-10-22T22:26	10	0	0.1	0	0					13.9	94.0
2025-10-22T22:27	10	0	0.1	-1	0					13.9	93.8
2025-10-22T22:28	10	0	0.1	0	0					13.9	93.6
2025-10-22T22:29	10	0	0.1	0	0					13.9	93.6
2025-10-22T22:30	10	0	0.1	0	0					13.8	94.3
2025-10-22T22:31	10	0	0.1	0	0					13.8	94.5
2025-10-22T22:32	10	0	0.1	-1	0					13.8	94.3
2025-10-22T22:33	10	0	0.1	-1	0					13.8	94.4
2025-10-22T22:34	10	0	0.1	0	0					13.7	95.1
2025-10-22T22:35	10	0	0.1	0	0					13.7	95.1
2025-10-22T22:36	10	0	0.1	0	0					13.7	95.0
2025-10-22T22:37	10	0	0.1	0	0					13.7	95.6
2025-10-22T22:38	10	0	0.1	0	0					13.7	95.6
2025-10-22T22:39	10	0	0.1	0	0					13.7	95.5
2025-10-22T22:40	10	0	0.1	0	0					13.7	95.5
2025-10-22T22:41	10	0	0.1	0	0					13.7	95.3
2025-10-22T22:42	10	0	0.1	0	0					13.7	95.1
2025-10-22T22:43	10	0	0.1	0	0					13.7	95.3
2025-10-22T22:44	10	0	0.1	0	0					13.8	94.5
2025-10-22T22:45	10	0	0.1	0	0					13.9	93.8
2025-10-22T22:46	10	0	0.1	0	0					13.8	94.4
2025-10-22T22:47	10	0	0.1	0	0					13.8	94.6
2025-10-22T22:48	10	0	0.1	0	0					13.8	94.4
2025-10-22T22:49	10	0	0.1	0	0					13.8	94.1
2025-10-22T22:50	10	0	0.1	0	0					13.9	93.5
2025-10-22T22:51	10	0	0.1	0	0					13.8	94.0
2025-10-22T22:52	10	0	0.1	0	0					13.9	93.8
2025-10-22T22:53	10	0	0.1	0	0					13.9	93.5
2025-10-22T22:54	10	0	0.1	0	0					13.9	93.4
2025-10-22T22:55	10	0	0.1	0	0					14.0	92.3
2025-10-22T22:56	10	0	0.1	0	0					14.1	91.9
2025-10-22T22:57	10	0	0.0	0	0					14.0	92.3
2025-10-22T22:58	10	0	0.1	0	0					14.0	92.5
2025-10-22T22:59	10	0	0.1	0	0					14.0	92.5
2025-10-22T23:00	10	0	0.1	0	0					14.0	92.5
2025-10-22T23:01	10	0	0.1	0	0					14.0	92.3
2025-10-22T23:02	10	0	0.1	0	0					14.0	92.3
2025-10-22T23:03	10	0	0.1	0	0					13.9	92.8
2025-10-22T23:04	10	0	0.1	0	0					14.0	92.5
2025-10-22T23:05	10	0	0.1	0	0					14.0	92.5
2025-10-22T23:06	10	0	0.1	0	0					14.0	92.1
2025-10-22T23:07	10	0	0.1	0	0					14.1	91.1
2025-10-22T23:08	10	0	0.1	0	0					14.1	91.5
2025-10-22T23:09	10	0	0.1	0	0					14.0	92.1
2025-10-22T23:10	10	0	0.1	0	0					14.0	92.2
2025-10-22T23:11	10	0	0.1	0	0					14.1	91.4
2025-10-22T23:12	10	0	0.1	0	0					14.3	89.3
2025-10-22T23:13	10	0	0.1	0	0					14.2	89.8
2025-10-22T23:14	10	0	0.0	0	0					14.2	89.6
2025-10-22T23:15	10	0	0.1	0	0					14.3	89.4
2025-10-22T23:16	10	0	0.0	0	0					14.2	89.6
2025-10-22T23:17	10	0	0.0	0	0					14.3	88.9
2025-10-22T23:18	10	0	0.1	0	0					14.2	89.9
2025-10-22T23:19	10	0	0.1	0	0					14.2	89.4
2025-10-22T23:20	10	0	0.1	0	0					14.1	90.2
2025-10-22T23:21	10	0	0.1	0	0					14.1	90.1
2025-10-22T23:22	10	0	0.1	0	0					14.2	89.3
2025-10-22T23:23	10	0	0.1	0	0					14.1	90.1
2025-10-22T23:24	10	0	0.1	0	0					14.1	89.8
2025-10-22T23:25	10	0	0.1	0	0					14.1	89.7
2025-10-22T23:26	10	0	0.1	0	0					14.1	89.5
2025-10-22T23:27	10	0	0.1	0	0					14.1	89.7
2025-10-22T23:28	10	0	0.1	0	0					14.1	89.9
2025-10-22T23:29	10	0	0.1	0	0					14.1	89.7
2025-10-22T23:30	10	0	0.1	0	0					14.0	90.4
2025-10-22T23:31	10	0	0.1	0	0					14.0	90.5
2025-10-22T23:32	10	0	0.1	0	0					14.0	90.5
2025-10-22T23:33	10	0	0.1	0	0					14.0	90.4
2025-10-22T23:34	10	0	0.1	0	0					14.0	90.7
2025-10-22T23:35	10	0	0.1	0	0					13.9	90.9
2025-10-22T23:36	10	0	0.0	0	0					14.0	90.0
2025-10-22T23:37	10	0	0.1	0	0					14.0	90.4
2025-10-22T23:38	10	0	0.0	0	0					14.0	89.6
2025-10-22T23:39	10	0	0.0	0	0					14.0	89.9
2025-10-22T23:40	10	0	0.1	0	1					14.1	88.9
2025-10-22T23:41	10	0	0.0	0	0					14.1	89.3
2025-10-22T23:42	10	0	0.1	0	1					14.0	89.8
2025-10-22T23:43	10	0	0.1	0	1					13.9	90.0
2025-10-22T23:44	10	0	0.0	0	1					13.9	90.1
2025-10-22T23:45	10	0	0.1	0	1					13.9	90.2
2025-10-22T23:46	10	0	0.1	0	1					13.8	91.1
2025-10-22T23:47	10	0	0.0	0	1					13.9	90.7
2025-10-22T23:48	10	0	0.1	0	1					13.9	89.8
2025-10-22T23:49	10	0	0.1	0	1					14.0	89.5
2025-10-22T23:50	10	0	0.1	0	1					13.9	89.9
2025-10-22T23:51	10	0	0.1	0	1					13.9	90.2
2025-10-22T23:52	10	0	0.1	0	1					14.0	89.4
2025-10-22T23:53	10	0	0.0	0	0					13.8	90.3
2025-10-22T23:54	10	0	0.0	0	0					13.8	90.6
2025-10-22T23:55	10	0	0.0	0	0					13.8	90.4
2025-10-22T23:56	10	0	0.1	0	0					13.8	90.0
2025-10-22T23:57	10	0	0.0	0	0					13.7	90.7
2025-10-22T23:58	10	0	0.0	0	0					13.7	90.7
2025-10-22T23:59	10	0	0.1	0	0					13.7	90.8
2025-10-23T00:00	10	0	0.0	0	0					13.7	90.9
2025-10-23T00:01	10	0	0.1	0	0					13.6	91.5
2025-10-23T00:02	10	0	0.1	0	0					13.5	92.0
2025-10-23T00:03	10	0	0.0	0	0					13.5	92.1
2025-10-23T00:04	10	0	0.1	0	0					13.6	91.9
2025-10-23T00:05	10	0	0.1	0	0					13.5	92.2
2025-10-23T00:06	10	0	0.1	0	0					13.6	91.3
2025-10-23T00:07	10	0	0.1	0	0					13.5	92.1
2025-10-23T00:08	10	0	0.1	-1	0					13.5	92.1
2025-10-23T00:09	10	0	0.1	-1	0					13.5	92.4
2025-10-23T00:10	10	-1	0.1	-1	0					13.4	93.0
2025-10-23T00:11	10	0	0.1	-1	0					13.5	92.4
2025-10-23T00:12	10	-1	0.1	-1	0					13.6	91.1
2025-10-23T00:13	10	-1	0.0	-1	0					13.6	91.4
2025-10-23T00:14	10	0	0.1	-1	0					13.6	91.5
2025-10-23T00:15	10	0	0.1	-1	0					13.6	91.0
2025-10-23T00:16	10	0	0.1	-1	0					13.6	91.1
2025-10-23T00:17	10	0	0.1	-1	0					13.6	91.1
2025-10-23T00:18	10	0	0.1	-1	0					13.7	90.1
2025-10-23T00:19	10	0	0.1	0	0					13.7	90.1
2025-10-23T00:20	10	0	0.1	0	0					13.6	90.9
2025-10-23T00:21	10	0	0.1	0	0					13.6	91.2
2025-10-23T00:22	10	0	0.1	0	0					13.5	91.5
2025-10-23T00:23	10	0	0.1	0	0					13.5	91.7
2025-10-23T00:24	10	0	0.1	0	0					13.5	91.5
2025-10-23T00:25	10	0	0.1	0	0					13.5	91.5
2025-10-23T00:26	10	0	0.1	0	0					13.5	91.5
2025-10-23T00:27	10	0	0.1	0	0					13.5	91.3
2025-10-23T00:28	10	0	0.1	0	0					13.5	91.3
2025-10-23T00:29	10	0	0.1	0	0					13.5	91.3
2025-10-23T00:30	10	0	0.1	0	1					13.5	91.0
2025-10-23T00:31	10	0	0.1	0	1					13.5	90.8
2025-10-23T00:32	10	0	0.1	0	0					13.5	91.0
2025-10-23T00:33	10	0	0.1	0	1					13.5	90.7
2025-10-23T00:34	10	0	0.2	0	1					13.6	90.4
2025-10-23T00:35	10	0	0.1	0	1					13.5	90.7
2025-10-23T00:36	10	0	0.2	0	1					13.6	90.5
2025-10-23T00:37	10	0	0.2	0	1					13.6	90.3
2025-10-23T00:38	10	0	0.1	0	1					13.5	90.5
2025-10-23T00:39	10	0	0.1	0	1					13.6	90.3
2025-10-23T00:40	10	0	0.2	0	1					13.6	90.0
2025-10-23T00:41	10	0	0.1	0	1					13.5	90.6
2025-10-23T00:42	10	0	0.1	0	1					13.5	90.6
2025-10-23T00:43	10	0	0.2	0	1					13.5	90.4
2025-10-23T00:44	10	0	0.2	0	1					13.4	90.7
2025-10-23T00:45	10	0	0.1	0	1					13.4	90.7
2025-10-23T00:46	10	0	0.2	0	1					13.5	90.1
2025-10-23T00:47	10	0	0.2	0	1					13.5	90.0
2025-10-23T00:48	10	0	0.1	0	1					13.4	90.9
2025-10-23T00:49	10	0	0.2	0	1					13.4	90.4
2025-10-23T00:50	10	0	0.1	0	1					13.5	90.0
2025-10-23T00:51	10	0	0.1	0	1					13.5	89.9
2025-10-23T00:52	10	0	0.2	0	1					13.4	90.3
2025-10-23T00:53	10	0	0.2	0	0					13.5	90.2
2025-10-23T00:54	10	0	0.1	0	1					13.4	90.6
2025-10-23T00:55	10	0	0.1	0	0					13.4	90.8
2025-10-23T00:56	10	0	0.1	0	1					13.4	90.8
2025-10-23T00:57	10	0	0.1	0	1					13.4	90.7
2025-10-23T00:58	10	0	0.2	0	1					13.4	90.4
2025-10-23T00:59	10	0	0.1	0	1					13.4	90.4
2025-10-23T01:00	10	0	0.1	0	1					13.3	91.0
2025-10-23T01:01	10	0	0.2	0	1					13.3	90.7
2025-10-23T01:02	10	0	0.2	0	1					13.4	90.5
2025-10-23T01:03	10	0	0.2	0	1					13.4	90.4
2025-10-23T01:04	10	0	0.2	0	1					13.4	90.3
2025-10-23T01:05	10	0	0.1	0	1					13.4	90.5
2025-10-23T01:06	10	0	0.1	0	1					13.4	90.2
2025-10-23T01:07	10	0	0.2	0	1					13.4	90.4
2025-10-23T01:08	10	0	0.2	0	1					13.4	90.5
2025-10-23T01:09	10	0	0.2	0	1					13.4	90.4
2025-10-23T01:10	10	0	0.2	0	1					13.4	90.2
2025-10-23T01:11	10	0	0.2	0	1					13.4	90.5
2025-10-23T01:12	10	0	0.2	0	1					13.4	90.4
2025-10-23T01:13	10	0	0.2	0	1					13.4	90.4
2025-10-23T01:14	10	0	0.2	0	1					13.5	89.3
2025-10-23T01:15	10	0	0.1	0	1					13.5	89.3
2025-10-23T01:16	10	0	0.2	0	1					13.6	88.7
2025-10-23T01:17	10	0	0.2	0	1					13.6	88.7
2025-10-23T01:18	10	0	0.1	0	1					13.6	88.6
2025-10-23T01:19	10	0	0.1	0	1					13.6	88.4
2025-10-23T01:20	10	0	0.2	0	1					13.6	88.3
2025-10-23T01:21	10	0	0.2	0	1					13.6	88.8
2025-10-23T01:22	10	0	0.1	0	1					13.6	88.8
2025-10-23T01:23	10	0	0.1	0	1					13.5	89.2
2025-10-23T01:24	10	0	0.1	0	1					13.6	88.9
2025-10-23T01:25	10	0	0.2	0	1					13.5	89.5
2025-10-23T01:26	10	0	0.1	0	1					13.6	88.6
2025-10-23T01:27	10	0	0.2	0	1					13.6	88.8
2025-10-23T01:28	10	0	0.1	0	1					13.6	89.2
2025-10-23T01:29	10	0	0.1	0	1					13.5	89.7
2025-10-23T01:30	10	0	0.1	0	1					13.5	89.5
2025-10-23T01:31	10	0	0.1	0	1					13.5	90.0
2025-10-23T01:32	10	0	0.1	0	1					13.5	90.3
2025-10-23T01:33	10	0	0.1	0	0					13.5	89.9
2025-10-23T01:34	10	0	0.2	0	1					13.6	89.2
2025-10-23T01:35	10	0	0.1	0	1					13.6	89.0
2025-10-23T01:36	10	0	0.1	0	0					13.5	89.7
2025-10-23T01:37	10	0	0.1	0	0					13.6	89.4
2025-10-23T01:38	10	0	0.1	0	0					13.5	89.8
2025-10-23T01:39	10	0	0.1	0	0					13.5	90.0
2025-10-23T01:40	10	0	0.2	0	1					13.4	90.5
2025-10-23T01:41	10	0	0.1	0	1					13.5	90.1
2025-10-23T01:42	10	0	0.2	0	1					13.5	90.0
2025-10-23T01:43	10	0	0.1	0	1					13.6	89.3
2025-10-23T01:44	10	0	0.2	0	1					13.6	89.0
2025-10-23T01:45	10	0	0.2	0	1					13.5	89.3
2025-10-23T01:46	10	0	0.1	0	1					13.5	89.5
2025-10-23T01:47	10	0	0.0	0	0					13.4	90.3
2025-10-23T01:48	10	0	0.0	0	0					13.4	90.6
2025-10-23T01:49	10	0	0.1	0	1					13.4	89.7
2025-10-23T01:50	10	0	0.1	0	1					13.4	89.5
2025-10-23T01:51	10	0	0.1	0	1					13.4	89.6
2025-10-23T01:52	10	0	0.1	0	1					13.4	89.3
2025-10-23T01:53	10	0	0.1	0	1					13.4	89.3
2025-10-23T01:54	10	0	0.2	0	1					13.4	89.6
2025-10-23T01:55	10	0	0.2	0	1					13.4	89.2
2025-10-23T01:56	10	0	0.1	0	1					13.4	89.2
2025-10-23T01:57	10	0	0.1	0	1					13.4	89.3
2025-10-23T01:58	10	0	0.2	0	1					13.4	89.4
2025-10-23T01:59	10	0	0.1	0	1					13.3	89.6
2025-10-23T02:00	10	0	0.1	0	1					13.3	89.4
2025-10-23T02:01	10	0	0.1	0	1					13.4	89.0
2025-10-23T02:02	10	0	0.1	0	1					13.4	89.1
2025-10-23T02:03	10	0	0.1	0	1					13.4	88.8
2025-10-23T02:04	10	0	0.1	0	1					13.4	88.4
2025-10-23T02:05	10	0	0.1	0	1					13.4	88.4
2025-10-23T02:06	10	0	0.1	0	1					13.4	88.8
2025-10-23T02:07	10	0	0.1	0	1					13.4	88.8
2025-10-23T02:08	10	0	0.1	0	1					13.4	88.6
2025-10-23T02:09	10	0	0.1	0	1					13.5	88.2
2025-10-23T02:10	10	0	0.1	0	1					13.4	89.0
2025-10-23T02:11	10	0	0.1	0	1					13.3	89.3
2025-10-23T02:12	10	0	0.1	0	1					13.4	89.1
2025-10-23T02:13	10	0	0.1	0	1					13.4	88.8
2025-10-23T02:14	10	0	0.1	0	1					13.4	88.8
2025-10-23T02:15	10	0	0.1	0	1					13.4	88.9
2025-10-23T02:16	10	0	0.2	0	1					13.4	88.9
2025-10-23T02:17	10	0	0.1	0	1					13.4	89.2
2025-10-23T02:18	10	0	0.2	0	1					13.4	89.2
2025-10-23T02:19	10	0	0.2	0	1					13.4	89.3
2025-10-23T02:20	10	0	0.1	0	1					13.4	89.2
2025-10-23T02:21	10	0	0.1	0	1					13.4	89.0
2025-10-23T02:22	10	0	0.1	0	1					13.4	89.1
2025-10-23T02:23	10	0	0.1	0	1					13.4	89.1
2025-10-23T02:24	10	0	0.2	0	1					13.4	88.8
2025-10-23T02:25	10	0	0.1	0	1					13.6	87.9
2025-10-23T02:26	10	0	0.1	0	1					13.6	87.8
2025-10-23T02:27	10	0	0.1	0	1					13.5	88.2
2025-10-23T02:28	10	0	0.1	0	1					13.5	88.0
2025-10-23T02:29	10	0	0.1	0	1					13.6	88.0
2025-10-23T02:30	10	0	0.1	0	1					13.5	88.4
2025-10-23T02:31	10	0	0.1	0	1					13.5	88.6
2025-10-23T02:32	10	0	0.2	0	1					13.4	88.7
2025-10-23T02:33	10	0	0.1	0	1					13.4	88.8
2025-10-23T02:34	10	0	0.1	0	1					13.4	89.0
2025-10-23T02:35	10	0	0.1	0	1					13.4	89.2
2025-10-23T02:36	10	0	0.2	0	1					13.4	88.9
2025-10-23T02:37	10	0	0.1	0	1					13.5	88.3
2025-10-23T02:38	10	0	0.1	0	1					13.5	88.5
2025-10-23T02:39	10	0	0.1	0	1					13.4	89.0
2025-10-23T02:40	10	0	0.2	0	1					13.4	89.3
2025-10-23T02:41	10	0	0.2	0	1					13.4	89.3
2025-10-23T02:42	10	0	0.2	0	1					13.5	88.7
2025-10-23T02:43	10	0	0.2	0	1					13.5	88.6
2025-10-23T02:44	10	0	0.2	0	1					13.5	88.4
2025-10-23T02:45	10	0	0.1	0	1					13.6	87.7
2025-10-23T02:46	10	0	0.2	0	1					13.6	87.7
2025-10-23T02:47	10	0	0.1	0	1					13.6	87.4
2025-10-23T02:48	10	0	0.1	0	1					13.6	87.5
2025-10-23T02:49	10	0	0.2	0	1					13.6	86.6
2025-10-23T02:50	10	0	0.2	0	1					13.6	86.5
2025-10-23T02:51	10	0	0.1	0	1					13.6	86.9
2025-10-23T02:52	10	0	0.1	0	1					13.6	86.0
2025-10-23T02:53	10	0	0.1	0	1					13.7	85.4
2025-10-23T02:54	10	0	0.1	0	1					13.7	85.3
2025-10-23T02:55	10	0	0.2	0	1					13.7	85.7
2025-10-23T02:56	10	0	0.1	0	1					13.7	85.9
2025-10-23T02:57	10	0	0.1	0	1					13.6	86.5
2025-10-23T02:58	10	0	0.1	0	1					13.6	86.6
2025-10-23T02:59	10	0	0.1	0	1					13.6	86.3
2025-10-23T03:00	10	0	0.1	0	1					13.6	86.7
2025-10-23T03:01	10	0	0.2	0	1					13.5	87.3
2025-10-23T03:02	10	0	0.1	0	1					13.5	87.7
2025-10-23T03:03	10	0	0.1	0	1					13.5	87.9
2025-10-23T03:04	10	0	0.1	0	0					13.5	87.7
2025-10-23T03:05	10	0	0.1	0	1					13.6	87.3
2025-10-23T03:06	10	0	0.1	0	0					13.6	87.4
2025-10-23T03:07	10	0	0.1	0	0					13.6	87.4
2025-10-23T03:08	10	0	0.1	0	0					13.6	87.8
2025-10-23T03:09	10	0	0.1	0	0					13.6	88.3
2025-10-23T03:10	10	0	0.1	0	0					13.5	88.5
2025-10-23T03:11	10	0	0.2	0	1					13.6	88.1
2025-10-23T03:12	10	0	0.1	0	0					13.6	88.3
2025-10-23T03:13	10	0	0.2	0	1					13.5	88.3
2025-10-23T03:14	10	0	0.1	0	0					13.6	87.9
2025-10-23T03:15	10	0	0.1	0	1					13.6	87.7
2025-10-23T03:16	10	0	0.1	0	1					13.6	87.5
2025-10-23T03:17	10	0	0.1	0	1					13.6	87.7
2025-10-23T03:18	10	0	0.1	0	1					13.6	87.5
2025-10-23T03:19	10	0	0.1	0	1					13.6	87.1
2025-10-23T03:20	10	0	0.1	0	1					13.6	87.2
2025-10-23T03:21	10	0	0.1	0	1					13.6	87.5
2025-10-23T03:22	10	0	0.1	0	1					13.6	87.7
2025-10-23T03:23	10	0	0.1	0	1					13.6	87.3
2025-10-23T03:24	10	0	0.1	0	1					13.7	87.1
2025-10-23T03:25	10	0	0.1	0	1					13.7	87.0
2025-10-23T03:26	10	0	0.1	0	1					13.6	87.3
2025-10-23T03:27	10	0	0.1	0	1					13.7	86.5
2025-10-23T03:28	10	0	0.1	0	1					13.7	87.0
2025-10-23T03:29	10	0	0.1	0	1					13.7	86.4
2025-10-23T03:30	10	0	0.1	0	1					13.8	86.2
2025-10-23T03:31	10	0	0.2	0	1					13.8	85.8
2025-10-23T03:32	10	0	0.1	0	1					13.7	86.5
2025-10-23T03:33	10	0	0.1	0	1					13.7	86.7
2025-10-23T03:34	10	0	0.1	0	1					13.7	86.5
2025-10-23T03:35	10	0	0.1	0	1					13.7	86.6
2025-10-23T03:36	10	0	0.1	0	1					13.7	86.8
2025-10-23T03:37	10	0	0.1	0	1					13.7	87.0
2025-10-23T03:38	10	0	0.1	0	1					13.7	86.8
2025-10-23T03:39	10	0	0.1	0	1					13.7	86.9
2025-10-23T03:40	10	0	0.1	0	1					13.9	85.7
2025-10-23T03:41	10	0	0.1	0	0					13.9	85.5
2025-10-23T03:42	10	0	0.1	0	1					13.9	85.6
2025-10-23T03:43	10	0	0.1	0	1					13.9	85.9
2025-10-23T03:44	10	0	0.1	0	1					13.8	86.2
2025-10-23T03:45	10	0	0.2	0	1					13.8	86.6
2025-10-23T03:46	10	0	0.2	0	1					13.8	87.2
2025-10-23T03:47	10	0	0.1	0	1					13.8	87.2
2025-10-23T03:48	10	0	0.1	0	1					13.8	87.3
2025-10-23T03:49	10	0	0.1	0	1					13.8	86.9
2025-10-23T03:50	10	0	0.1	0	1					13.8	87.2
2025-10-23T03:51	10	0	0.1	0	1					13.9	86.8
2025-10-23T03:52	10	0	0.1	0	1					13.9	86.6
2025-10-23T03:53	10	0	0.1	0	1					13.8	87.0
2025-10-23T03:54	10	0	0.1	0	1					13.9	86.8
2025-10-23T03:55	10	0	0.1	0	1					13.9	86.8
2025-10-23T03:56	10	0	0.1	0	1					13.8	86.9
2025-10-23T03:57	10	0	0.1	0	1					13.9	86.8
2025-10-23T03:58	10	0	0.1	0	1					13.9	86.0
2025-10-23T03:59	10	0	0.2	0	1					14.0	85.6
2025-10-23T04:00	10	0	0.2	0	1					14.0	85.4
2025-10-23T04:01	10	0	0.2	0	1					13.9	85.9
2025-10-23T04:02	10	0	0.2	0	1					13.9	86.3
2025-10-23T04:03	10	0	0.1	0	1					13.9	86.1
2025-10-23T04:04	10	0	0.2	0	1					13.9	85.9
2025-10-23T04:05	10	0	0.2	0	1					13.9	85.9
2025-10-23T04:06	10	0	0.2	-1	0					13.8	86.1
2025-10-23T04:07	10	0	0.2	-1	0					13.8	86.6
2025-10-23T04:08	10	0	0.2	-1	0					13.8	86.5
2025-10-23T04:09	10	0	0.2	-1	0					13.8	86.3
2025-10-23T04:10	10	0	0.1	0	0					13.8	85.8
2025-10-23T04:11	10	0	0.2	0	1					13.7	86.3
2025-10-23T04:12	10	0	0.2	0	1					13.8	86.2
2025-10-23T04:13	10	0	0.1	0	1					13.7	86.4
2025-10-23T04:14	10	0	0.2	0	1					13.8	86.1
2025-10-23T04:15	10	0	0.1	0	1					13.7	86.3
2025-10-23T04:16	10	0	0.2	0	1					13.7	86.7
2025-10-23T04:17	10	0	0.2	0	1					13.7	86.5
2025-10-23T04:18	10	0	0.2	0	1					13.7	86.9
2025-10-23T04:19	10	0	0.2	0	0					13.6	87.2
2025-10-23T04:20	10	0	0.2	0	1					13.6	87.4
2025-10-23T04:21	10	0	0.1	0	1					13.6	87.7
2025-10-23T04:22	10	0	0.2	0	1					13.6	88.1
2025-10-23T04:23	10	0	0.1	0	0					13.5	88.8
2025-10-23T04:24	10	0	0.2	-1	0					13.5	89.4
2025-10-23T04:25	10	-1	0.1	-1	0					13.4	90.1
2025-10-23T04:26	10	-1	0.1	-1	-1					13.4	90.3
2025-10-23T04:27	10	-1	0.1	-1	0					13.4	90.5
2025-10-23T04:28	10	-1	0.1	-1	-1					13.4	90.5
2025-10-23T04:29	10	-1	0.2	-1	0					13.4	90.6
2025-10-23T04:30	10	-1	0.1	-1	0					13.4	90.8
2025-10-23T04:31	10	-1	0.2	-1	0					13.3	91.6
2025-10-23T04:32	10	-1	0.2	-1	0					13.4	90.7
2025-10-23T04:33	10	-1	0.1	-1	-1					13.4	90.5
2025-10-23T04:34	10	-1	0.2	-1	0					13.5	89.7
2025-10-23T04:35	10	-1	0.2	-1	0					13.6	88.9
2025-10-23T04:36	10	-1	0.1	-1	0					13.5	89.6
2025-10-23T04:37	10	-1	0.2	-1	0					13.5	90.1
2025-10-23T04:38	10	0	0.2	-1	0					13.5	89.9
2025-10-23T04:39	10	0	0.2	-1	0					13.6	88.7
2025-10-23T04:40	10	0	0.1	-1	0					13.6	89.1
2025-10-23T04:41	10	0	0.2	-1	0					13.5	89.3
2025-10-23T04:42	10	0	0.2	-1	0					13.4	89.8
2025-10-23T04:43	10	0	0.2	-1	0					13.4	89.5
2025-10-23T04:44	10	0	0.2	-1	0					13.4	89.4
2025-10-23T04:45	10	0	0.1	-1	0					13.5	88.5
2025-10-23T04:46	10	0	0.1	-1	0					13.4	89.3
2025-10-23T04:47	10	0	0.2	-1	0					13.5	89.1
2025-10-23T04:48	10	0	0.2	-1	0					13.5	88.8
2025-10-23T04:49	10	0	0.1	-1	0					13.6	88.4
2025-10-23T04:50	10	0	0.1	-1	0					13.8	86.6
2025-10-23T04:51	10	0	0.2	-1	0					13.8	86.5
2025-10-23T04:52	10	0	0.2	-1	0					13.7	86.9
2025-10-23T04:53	10	0	0.1	-1	0					13.7	86.9
2025-10-23T04:54	10	0	0.2	0	0					13.8	86.5
2025-10-23T04:55	10	0	0.1	0	0					13.9	85.4
2025-10-23T04:56	10	-1	0.2	-1	0					13.9	85.2
2025-10-23T04:57	10	-1	0.1	-1	0					14.0	83.9
2025-10-23T04:58	10	-1	0.1	-1	0					14.1	83.2
2025-10-23T04:59	10	0	0.1	-1	0					14.3	81.6
2025-10-23T05:00	10	0	0.1	0	0					14.4	80.6
2025-10-23T05:01	10	0	0.1	0	0					14.5	79.6
2025-10-23T05:02	10	0	0.1	0	0					14.7	78.1
2025-10-23T05:03	10	0	0.1	0	0					14.9	77.4
2025-10-23T05:04	10	0	0.1	0	1					15.2	75.4
2025-10-23T05:05	10	0	0.1	0	1					15.1	75.9
2025-10-23T05:06	10	1	0.1	0	1					15.3	74.8
2025-10-23T05:07	10	1	0.1	1	1					15.1	76.2
2025-10-23T05:08	10	1	0.1	0	1					15.3	75.1
2025-10-23T05:09	10	1	0.0	1	1					15.3	75.2
2025-10-23T05:10	10	1	0.1	1	1					15.2	76.2
2025-10-23T05:11	10	1	0.1	0	1					15.1	76.5
2025-10-23T05:12	10	1	0.1	0	1					15.1	76.6
2025-10-23T05:13	10	1	0.1	0	1					15.1	77.3
2025-10-23T05:14	10	0	0.1	0	1					15.1	77.2
2025-10-23T05:15	10	0	0.1	0	1					15.1	76.8
2025-10-23T05:16	10	0	0.1	0	1					15.0	77.8
2025-10-23T05:17	10	0	0.1	0	1					14.9	78.4
2025-10-23T05:18	10	0	0.2	0	1					14.7	79.9
2025-10-23T05:19	10	0	0.1	0	1					14.8	79.4
2025-10-23T05:20	10	0	0.1	0	1					14.6	80.8
2025-10-23T05:21	10	0	0.2	0	1					14.7	80.4
2025-10-23T05:22	10	0	0.1	0	0					14.6	80.9
2025-10-23T05:23	10	0	0.1	0	0					14.6	81.2
2025-10-23T05:24	10	0	0.1	0	0					14.6	81.3
2025-10-23T05:25	10	0	0.1	0	0					14.7	81.0
2025-10-23T05:26	10	0	0.2	-1	0					14.7	81.3
2025-10-23T05:27	10	0	0.1	0	1					14.6	82.4
2025-10-23T05:28	10	0	0.2	0	1					14.6	82.8
2025-10-23T05:29	10	0	0.1	0	0					14.6	82.5
2025-10-23T05:30	10	0	0.1	0	0					14.6	82.6
2025-10-23T05:31	10	0	0.1	0	0					14.6	82.8
2025-10-23T05:32	10	0	0.1	0	0					14.6	83.1
2025-10-23T05:33	10	0	0.1	0	0					14.6	83.2
2025-10-23T05:34	10	0	0.1	0	0					14.6	82.9
2025-10-23T05:35	10	0	0.1	0	0					14.6	83.0
2025-10-23T05:36	10	0	0.1	0	0					14.6	83.5
2025-10-23T05:37	10	0	0.1	0	0					14.6	83.3
2025-10-23T05:38	10	0	0.1	0	0					14.6	83.3
2025-10-23T05:39	10	0	0.1	0	0					14.6	82.7
2025-10-23T05:40	10	0	0.1	0	0					14.6	82.9
2025-10-23T05:41	10	0	0.1	0	0					14.8	81.3
2025-10-23T05:42	10	0	0.1	0	1					14.8	80.4
2025-10-23T05:43	10	0	0.1	0	0					14.9	79.6
2025-10-23T05:44	10	0	0.1	0	1					14.9	79.2
2025-10-23T05:45	10	0	0.1	0	1					14.9	79.1
2025-10-23T05:46	10	0	0.1	0	1					14.9	78.9
2025-10-23T05:47	10	0	0.1	0	1					14.8	79.9
2025-10-23T05:48	10	0	0.1	0	0					14.8	80.0
2025-10-23T05:49	10	0	0.1	0	1					14.8	79.2
2025-10-23T05:50	10	0	0.1	0	0					14.8	79.1
2025-10-23T05:51	10	0	0.1	0	0					14.8	78.4
2025-10-23T05:52	10	0	0.1	0	0					14.7	79.5
2025-10-23T05:53	10	0	0.1	0	1					14.7	79.1
2025-10-23T05:54	10	0	0.0	0	0					14.8	78.3
2025-10-23T05:55	10	0	0.1	0	0					14.8	78.6
2025-10-23T05:56	10	0	0.1	0	0					14.7	79.0
2025-10-23T05:57	10	0	0.0	0	0					14.7	79.5
2025-10-23T05:58	10	0	0.1	0	0					14.6	80.0
2025-10-23T05:59	10	0	0.1	0	0					14.6	80.1
2025-10-23T06:00	10	0	0.0	0	0					14.7	80.0
2025-10-23T06:01	10	0	0.0	0	0					14.6	80.2
2025-10-23T06:02	10	0	0.1	0	0					14.6	80.4
2025-10-23T06:03	10	0	0.1	0	0					14.6	80.8
2025-10-23T06:04	10	0	0.1	0	0					14.8	79.4
2025-10-23T06:05	10	0	0.1	0	0					14.9	79.1
2025-10-23T06:06	10	0	0.0	0	0					15.0	78.5
2025-10-23T06:07	10	0	0.1	0	0					14.9	79.5
2025-10-23T06:08	10	0	0.1	0	0					14.8	79.7
2025-10-23T06:09	10	0	0.0	0	0					14.9	79.2
2025-10-23T06:10	10	0	0.1	0	0					15.0	78.3
2025-10-23T06:11	10	0	0.1	0	0					14.9	78.9
2025-10-23T06:12	10	0	0.1	0	0					14.8	78.9
2025-10-23T06:13	10	0	0.1	0	0					14.9	78.6
2025-10-23T06:14	10	0	0.1	0	0					14.8	78.3
2025-10-23T06:15	10	0	0.1	0	0					14.9	77.3
2025-10-23T06:16	10	0	0.1	0	0					15.0	76.2
2025-10-23T06:17	10	0	0.1	0	0					14.9	76.8
2025-10-23T06:18	10	0	0.1	0	0					15.1	75.1
2025-10-23T06:19	10	0	0.1	0	0					14.9	77.0
2025-10-23T06:20	10	0	0.0	0	0					14.8	77.5
2025-10-23T06:21	10	0	0.1	0	0					14.9	76.5
2025-10-23T06:22	10	0	0.1	0	0					15.0	75.8
2025-10-23T06:23	10	0	0.1	0	0					15.1	75.7
2025-10-23T06:24	10	0	0.1	0	0					14.9	77.2
2025-10-23T06:25	10	0	0.1	0	0					14.7	78.6
2025-10-23T06:26	10	0	0.1	0	0					14.6	79.9
2025-10-23T06:27	10	0	0.1	0	0					14.4	81.3
2025-10-23T06:28	10	0	0.1	0	0					14.3	82.1
2025-10-23T06:29	10	0	0.1	0	0					14.3	82.0
2025-10-23T06:30	10	0	0.1	-1	0					14.1	83.4
2025-10-23T06:31	10	-1	0.1	-1	0					14.1	84.4
2025-10-23T06:32	10	-1	0.1	-1	-1					14.0	84.8
2025-10-23T06:33	10	-1	0.1	-1	-1					14.0	85.4
2025-10-23T06:34	10	-1	0.1	-1	-1					14.0	85.7
2025-10-23T06:35	10	-1	0.1	-1	-1					14.1	85.7
2025-10-23T06:36	10	-1	0.1	-1	-1					14.1	85.6
2025-10-23T06:37	10	-1	0.1	-1	0					14.0	86.0
2025-10-23T06:38	10	-1	0.1	-1	-1					14.0	86.3
2025-10-23T06:39	10	-1	0.1	-1	-1					13.9	86.4
2025-10-23T06:40	10	-1	0.1	-1	-1					13.9	86.9
2025-10-23T06:41	10	-1	0.1	-1	-1					13.9	87.0
2025-10-23T06:42	10	-1	0.1	-1	-1					13.9	86.9
2025-10-23T06:43	10	-1	0.1	-1	-1					14.0	86.7
2025-10-23T06:44	10	-1	0.1	-1	-1					14.0	86.2
2025-10-23T06:45	10	-1	0.1	-1	-1					14.0	86.0
2025-10-23T06:46	10	-1	0.1	-1	-1					14.0	86.2
2025-10-23T06:47	10	-2	0.1	-2	-2					13.9	86.2
2025-10-23T06:48	10	-2	0.1	-2	-2					13.9	86.5
2025-10-23T06:49	10	-2	0.1	-2	-1					13.9	87.3
2025-10-23T06:50	10	-1	0.1	-1	-1					13.8	87.6
2025-10-23T06:51	10	-1	0.1	-1	-1					13.8	87.5
2025-10-23T06:52	10	-1	0.1	-1	0					13.8	87.5
2025-10-23T06:53	10	-1	0.1	-1	-1					13.8	87.5
2025-10-23T06:54	10	-1	0.1	-1	0					13.8	87.5
2025-10-23T06:55	10	-1	0.1	-1	0					13.8	87.5
2025-10-23T06:56	10	-1	0.1	-1	0					13.8	87.5
2025-10-23T06:57	10	-1	0.1	-1	0					13.8	87.5
2025-10-23T06:58	10	-1	0.1	-1	0					13.8	89.1
2025-10-23T06:59	10	-1	0.1	-1	0					13.7	90.8
2025-10-23T07:00	10	-1	0.1	-1	0					13.7	90.7
2025-10-23T07:01	10	0	0.1	-1	0					13.9	89.3
2025-10-23T07:02	10	0	0.1	-1	0					13.8	89.8
2025-10-23T07:03	10	0	0.1	-1	0					13.7	90.7
2025-10-23T07:04	10	0	0.1	-1	0					13.7	91.1
2025-10-23T07:05	10	0	0.1	0	0					13.7	91.2
2025-10-23T07:06	10	0	0.1	0	0					13.6	91.5
2025-10-23T07:07	10	0	0.1	0	0					13.7	91.3
2025-10-23T07:08	10	0	0.2	-1	0					13.8	91.0
2025-10-23T07:09	10	0	0.1	0	0					13.8	90.6
2025-10-23T07:10	10	0	0.2	0	1					13.9	90.0
2025-10-23T07:11	10	1	0.2	0	1					14.0	89.6
2025-10-23T07:12	10	1	0.3	0	2					14.1	88.8
2025-10-23T07:13	10	2	0.4	1	3					14.1	89.0
2025-10-23T07:14	10	3	0.4	2	4					14.1	89.5
2025-10-23T07:15	10	4	0.2	4	5					14.1	89.2
2025-10-23T07:16	10	5	0.2	4	5					14.1	89.6
2025-10-23T07:17	10	5	0.1	4	5					14.0	90.1
2025-10-23T07:18	10	5	0.1	4	5					14.1	89.9
2025-10-23T07:19	10	5	0.4	5	6					14.0	90.4
2025-10-23T07:20	10	7	0.4	6	8					13.9	90.8
2025-10-23T07:21	10	8	0.3	8	9					13.9	91.1
2025-10-23T07:22	10	8	0.5	7	8					13.9	91.3
2025-10-23T07:23	10	5	1.0	3	7					13.9	91.7
2025-10-23T07:24	10	2	0.7	1	3					13.8	92.8
2025-10-23T07:25	10	0	0.3	-1	0					13.6	94.2
2025-10-23T07:26	10	-1	0.2	-1	0					13.6	94.8
2025-10-23T07:27	10	-1	0.3	-2	-1					12.9	94.4
2025-10-23T07:28	10	-2	0.2	-3	-2					12.3	95.3
2025-10-23T07:29	10	-3	0.3	-4	-3					11.6	96.6
2025-10-23T07:30	10	-4	0.4	-5	-3					10.5	96.7
2025-10-23T07:31	10	-5	0.2	-6	-5					10.2	96.8
2025-10-23T07:32	10	-5	0.2	-6	-5					10.5	96.2
2025-10-23T07:33	10	-5	0.2	-6	-4					11.4	90.8
2025-10-23T07:34	10	-5	0.2	-5	-4					11.6	88.2
2025-10-23T07:35	10	-4	0.2	-5	-4					11.1	89.8
2025-10-23T07:36	10	-4	0.1	-5	-4					10.6	90.4
2025-10-23T07:37	10	-4	0.2	-4	-4					10.5	91.1
2025-10-23T07:38	10	-4	0.2	-4	-3					10.6	89.8
2025-10-23T07:39	10	-3	0.2	-3	-3					11.4	82.7
2025-10-23T07:40	10	-2	0.3	-3	-2					11.5	81.5
2025-10-23T07:41	10	-2	0.1	-2	-1					11.5	81.2
2025-10-23T07:42	10	-2	0.1	-2	-2					11.7	79.3
2025-10-23T07:43	10	-2	0.3	-3	-2					11.8	77.5
2025-10-23T07:44	10	-3	0.1	-3	-3					11.6	78.0
2025-10-23T07:45	10	-3	0.1	-4	-3					11.5	78.5
2025-10-23T07:46	10	-3	0.1	-3	-3					11.5	78.8
2025-10-23T07:47	10	-3	0.1	-4	-3					11.4	80.1
2025-10-23T07:48	10	-4	0.1	-4	-3					11.3	80.9
2025-10-23T07:49	10	-4	0.2	-4	-4					11.1	81.6
2025-10-23T07:50	10	-4	0.1	-4	-4					11.2	82.0
2025-10-23T07:51	10	-5	0.1	-5	-4					10.9	84.4
2025-10-23T07:52	10	-5	0.1	-5	-5					10.9	84.0
2025-10-23T07:53	10	-5	0.1	-5	-5					10.7	86.0
2025-10-23T07:54	10									11.0	83.1
2025-10-23T07:55	10									11.0	82.9
2025-10-23T07:56	10									10.8	84.3
2025-10-23T07:57	10									10.5	86.0
2025-10-23T07:58	10									10.5	85.9
2025-10-23T07:59	10									10.5	86.5
2025-10-23T08:00	10									10.4	87.5
2025-10-23T08:01	10									10.6	85.8
2025-10-23T08:02	10	-5	0.1	-5	-5					10.6	85.6
2025-10-23T08:03	10	-5	0.1	-5	-5					10.8	84.8
2025-10-23T08:04	10	-5	0.1	-5	-5					11.0	82.4
2025-10-23T08:05	10	-5	0.1	-5	-5					11.0	83.4
2025-10-23T08:06	10	-5	0.1	-5	-4					10.9	83.9
2025-10-23T08:07	10	-5	0.1	-5	-4					10.9	82.7
2025-10-23T08:08	10	-4	0.1	-5	-4					11.1	81.2
2025-10-23T08:09	10	-4	0.1	-5	-4					11.0	82.1
2025-10-23T08:10	10	-4	0.1	-4	-4					10.9	82.9
2025-10-23T08:11	10	-4	0.1	-4	-4					10.8	83.9
2025-10-23T08:12	10	-4	0.1	-4	-4					11.1	81.3
2025-10-23T08:13	10	-4	0.1	-4	-4					11.1	81.3
2025-10-23T08:14	10	-4	0.2	-4	-4					10.9	82.5
2025-10-23T08:15	10	-4	0.2	-5	-4					11.0	82.7
2025-10-23T08:16	10	-2	0.2	-2	-1					10.9	83.0
2025-10-23T08:17	10	-2	0.1	-2	-1	360	0.2	360	361	10.9	83.8
2025-10-23T08:18	10	-2	0.2	-2	-1	360	0.3	359	360	10.8	84.3
2025-10-23T08:19	10	-1	0.2	-2	-1	360	0.4	359	361	10.9	83.8
2025-10-23T08:20	10	-1	0.1	-1	-1	360	0.3	359	361	11.0	83.2
2025-10-23T08:21	10	-1	0.1	-1	-1	360	0.3	359	361	10.8	84.4
2025-10-23T08:22	10	-1	0.2	-1	0	360	0.3	359	360	10.7	85.1
2025-10-23T08:23	10	0	0.2	-1	0	360	0.3	359	361	10.9	84.1
2025-10-23T08:24	10	0	0.2	0	0	361	0.2	360	361	11.0	83.5
2025-10-23T08:25	10	1	0.2	0	1	361	0.2	360	361	11.0	83.5
2025-10-23T08:26	10	1	0.2	1	2	361	0.5	360	362	11.0	83.9
2025-10-23T08:27	10	2	0.3	1	2	361	0.3	361	362	11.4	80.3
2025-10-23T08:28	10	3	0.4	3	4	361	0.3	361	362	11.3	81.2
2025-10-23T08:29	10	4	0.3	4	5	362	0.3	361	362	11.3	81.9
2025-10-23T08:30	10	5	0.3	5	6	362	0.2	362	362	11.3	82.1
2025-10-23T08:31	10	6	0.1	6	6	363	0.3	362	363	11.7	78.4
2025-10-23T08:32	10	5	0.3	5	6	363	0.3	362	363	12.0	75.2
2025-10-23T08:33	10	4	0.2	4	5	362	0.2	362	363	11.7	78.8
2025-10-23T08:34	10	4	0.1	3	4	363	0.3	362	363	11.7	78.4
2025-10-23T08:35	10	3	0.1	3	4	362	0.2	362	363	11.6	79.6
2025-10-23T08:36	10	3	0.1	3	3	362	0.2	362	362	11.6	80.5
2025-10-23T08:37	10	3	0.1	3	3	362	0.2	362	363	11.5	81.8
2025-10-23T08:38	10	3	0.1	2	3	362	0.2	362	363	11.5	81.7
2025-10-23T08:39	10	2	0.1	2	3	363	0.2	363	363	11.6	81.2
2025-10-23T08:40	10	2	0.1	2	3	363	0.3	362	364	11.8	79.9
2025-10-23T08:41	10	2	0.1	2	3	363	0.2	363	363	11.8	80.1
2025-10-23T08:42	10	3	0.2	2	3	363	0.2	363	364	11.9	79.9
2025-10-23T08:43	10	4	0.4	3	4	363	0.3	363	364	11.8	81.0
2025-10-23T08:44	10	5	0.5	4	6	364	0.3	363	364	11.7	82.0
2025-10-23T08:45	10	7	0.6	6	8	363	0.2	363	364	11.6	83.3
2025-10-23T08:46	10	9	0.4	8	9	364	0.3	364	365	11.7	82.1
2025-10-23T08:47	10	10	0.2	9	10	364	0.2	364	365	11.7	82.6
2025-10-23T08:48	10	10	0.1	10	10	365	0.3	364	366	11.9	81.0
2025-10-23T08:49	10	11	0.3	10	11	365	0.2	364	366	12.0	79.4
2025-10-23T08:50	10	12	0.3	11	13	366	0.3	365	366	12.1	78.8
2025-10-23T08:51	10	12	0.2	12	13	366	0.3	365	366	12.1	79.1
2025-10-23T08:52	10	11	0.4	10	12	366	0.3	365	366	12.1	79.4
2025-10-23T08:53	10	9	0.8	8	10	366	0.3	365	366	12.1	78.3
2025-10-23T08:54	10	6	0.7	5	8	365	0.3	364	366	12.2	78.0
2025-10-23T08:55	10	5	0.3	4	5	365	0.2	364	365	12.1	79.3
2025-10-23T08:56	10	4	0.1	4	4	365	0.2	364	365	12.1	78.7
2025-10-23T08:57	10	4	0.1	4	4	365	0.2	364	365	12.1	79.0
2025-10-23T08:58	10	5	0.3	4	5	365	0.3	364	365	12.0	79.7
2025-10-23T08:59	10	6	0.4	5	7	365	0.2	364	365	12.0	79.3
2025-10-23T09:00	10	7	0.2	6	7	365	0.2	365	366	12.0	79.1
2025-10-23T09:01	10	7	0.2	6	7	365	0.2	365	366	12.2	77.4
2025-10-23T09:02	10	6	0.4	5	7	365	0.3	364	366	12.2	77.8
2025-10-23T09:03	10	4	0.3	4	5	365	0.2	365	366	12.2	77.1
2025-10-23T09:04	10	4	0.2	3	4	365	0.2	365	366	12.3	76.4
2025-10-23T09:05	10	3	0.1	3	3	365	0.2	365	366	12.2	77.5
2025-10-23T09:06	10	3	0.2	3	3	365	0.3	364	366	12.2	77.2
2025-10-23T09:07	10	3	0.1	2	3	365	0.2	365	366	12.2	77.8
2025-10-23T09:08	10	2	0.1	2	3	365	0.3	364	366	12.2	77.3
2025-10-23T09:09	10	2	0.1	2	2	365	0.4	364	366	12.1	78.5
2025-10-23T09:10	10	2	0.1	2	2	365	0.2	364	365	12.3	77.2
2025-10-23T09:11	10	2	0.2	2	3	365	0.2	364	365	12.2	77.8
2025-10-23T09:12	10	3	0.1	3	3	365	0.2	364	365	12.1	78.5
2025-10-23T09:13	10	3	0.2	3	3	365	0.3	364	365	12.1	79.4
2025-10-23T09:14	10	4	0.4	3	5	365	0.2	364	365	12.0	79.7
2025-10-23T09:15	10	5	0.1	5	5	365	0.2	364	365	12.0	80.0
2025-10-23T09:16	10	4	0.2	4	5	365	0.3	364	366	11.9	81.2
2025-10-23T09:17	10	5	0.5	4	6	365	0.3	365	366	12.1	79.4
2025-10-23T09:18	10	7	0.9	6	9	365	0.3	365	366	12.0	80.2
2025-10-23T09:19	10	10	0.9	9	12	366	0.4	365	366	12.0	80.9
2025-10-23T09:20	10	12	0.4	12	13	366	0.3	366	367	12.0	80.1
2025-10-23T09:21	10	13	0.3	13	14	367	0.3	366	367	12.0	80.6
2025-10-23T09:22	10	15	0.5	14	16	367	0.3	366	368	11.9	81.7
2025-10-23T09:23	10	16	0.3	16	17	367	0.3	366	368	11.8	83.2
2025-10-23T09:24	10	20	2.6	17	25	368	0.3	367	369	11.9	82.7
2025-10-23T09:25	10	23	0.6	22	25	368	0.3	368	369	11.9	82.4
2025-10-23T09:26	10	25	0.8	24	27	369	0.4	368	370	12.0	82.5
2025-10-23T09:27	10	36	12.0	27	76	370	0.9	369	372	12.0	82.7
2025-10-23T09:28	10	29	10.4	20	62	371	0.6	369	372	12.0	82.2
2025-10-23T09:29	10	19	0.9	18	22	370	0.2	369	370	12.0	83.4
2025-10-23T09:30	10	20	0.8	19	21	370	0.3	369	370	12.0	82.5
2025-10-23T09:31	10	17	1.0	16	19	369	0.5	368	370	12.1	80.2
2025-10-23T09:32	10	14	0.7	13	16	368	0.2	368	369	12.1	80.1
2025-10-23T09:33	10	12	0.4	11	13	367	0.4	367	368	12.1	78.0
2025-10-23T09:34	10	11	0.1	11	12	366	0.5	365	367	12.1	74.2
2025-10-23T09:35	10	12	0.2	11	12	365	0.3	365	366	12.0	73.2
2025-10-23T09:36	10	12	0.9	10	14	365	0.3	365	366	11.8	75.1
2025-10-23T09:37	10	10	0.3	9	10	365	0.3	364	365	11.8	75.1
2025-10-23T09:38	10	9	0.3	8	9	364	0.3	364	365	11.8	74.9
2025-10-23T09:39	10	8	0.5	7	8	364	0.3	364	365	11.8	74.9
2025-10-23T09:40	10	6	0.5	5	7	364	0.3	363	364	11.9	75.2
2025-10-23T09:41	10	5	0.2	4	5	364	0.3	363	364	11.8	74.8
2025-10-23T09:42	10	4	0.1	4	4	364	0.3	363	364	11.7	75.8
2025-10-23T09:43	10	3	0.4	2	4	363	0.3	363	364	11.6	75.5
2025-10-23T09:44	10	2	0.2	2	2	363	0.2	362	363	11.5	76.3
2025-10-23T09:45	10	1	0.2	1	2	362	0.2	362	363	11.3	78.3
2025-10-23T09:46	10	1	0.1	1	1	362	0.3	361	362	11.3	77.5
2025-10-23T09:47	10	1	0.2	0	1	361	0.3	361	362	11.2	77.5
2025-10-23T09:48	10	0	0.2	0	1	361	0.3	360	362	11.1	78.6
2025-10-23T09:49	10	-1	0.2	-1	0	361	0.3	360	362	11.0	79.9
2025-10-23T09:50	10	-1	0.1	-1	-1	361	0.3	360	361	11.0	79.2
2025-10-23T09:51	10	-1	0.1	-1	-1	360	0.4	359	361	10.9	80.3
2025-10-23T09:52	10	0	0.2	-1	0	360	0.3	359	360	10.7	81.3
2025-10-23T09:53	10	0	0.2	0	1	359	0.3	359	360	10.7	80.9
2025-10-23T09:54	10	0	0.1	0	1	359	0.4	359	360	10.6	80.7
2025-10-23T09:55	10	1	0.2	0	1	359	0.3	359	360	10.5	82.2
2025-10-23T09:56	10	1	0.1	1	1	359	0.2	359	360	10.5	81.7
2025-10-23T09:57	10	0	0.3	0	1	359	0.3	359	360	10.5	81.6
2025-10-23T09:58	10	0	0.1	-1	0	359	0.4	358	360	10.4	81.8
2025-10-23T09:59	10	0	0.2	-1	0	359	0.3	358	359	10.3	83.0
2025-10-23T10:00	10	0	0.3	0	1	359	0.4	358	360	10.0	86.0
2025-10-23T10:01	10	1	0.3	1	2	359	0.3	358	360	9.9	87.6
2025-10-23T10:02	10	2	0.1	2	2	359	0.2	358	359	10.0	87.3
2025-10-23T10:03	10	1	0.3	1	2	359	0.2	358	359	10.0	87.2
2025-10-23T10:04	10	1	0.1	1	1	359	0.3	358	360	10.1	85.7
2025-10-23T10:05	10	1	0.2	1	2	358	0.3	358	359	10.1	86.4
2025-10-23T10:06	10	2	0.2	1	2	358	0.4	357	359	10.1	86.7
2025-10-23T10:07	10	2	0.2	2	3	359	0.4	358	359	10.1	85.7
2025-10-23T10:08	10	2	0.2	1	3	359	0.4	358	360	10.2	85.0
2025-10-23T10:09	10	2	0.1	2	2	359	0.3	358	359	10.3	84.0
2025-10-23T10:10	10	2	0.1	2	2	359	0.3	358	359	10.2	84.6
2025-10-23T10:11	10	2	0.3	2	3	359	0.2	358	359	10.2	85.0
2025-10-23T10:12	10	4	0.5	3	5	359	0.4	358	359	10.3	83.4
2025-10-23T10:13	10	5	0.4	5	6	359	0.4	358	360	10.6	80.8
2025-10-23T10:14	10	7	0.5	6	8	359	0.3	358	360	10.7	80.5
2025-10-23T10:15	10	8	0.3	8	9	359	0.4	358	360	10.7	80.1
2025-10-23T10:16	10	9	0.3	8	10	360	0.3	359	360	11.0	76.8
2025-10-23T10:17	10	10	0.5	10	11	359	0.4	358	360	11.2	75.3
2025-10-23T10:18	10	13	1.1	11	15	360	0.3	359	360	11.1	75.4
2025-10-23T10:19	10	18	1.5	15	20	360	0.4	359	361	11.1	75.3
2025-10-23T10:20	10	22	0.8	20	23	361	0.5	360	362	11.3	73.7
2025-10-23T10:21	10	23	0.1	23	24	361	0.2	360	362	11.5	71.3
2025-10-23T10:22	10	23	0.1	23	24	361	0.3	361	362	11.5	71.2
2025-10-23T10:23	10	23	0.1	23	24	362	0.2	361	362	11.5	71.4
2025-10-23T10:24	10	24	0.3	24	25	362	0.2	361	362	11.5	72.1
2025-10-23T10:25	10	25	0.4	25	26	362	0.2	362	363	11.5	72.6
2025-10-23T10:26	10	27	0.7	26	28	363	0.2	362	363	11.5	73.0
2025-10-23T10:27	10	30	0.8	28	31	363	0.3	363	364	11.5	73.8
2025-10-23T10:28	10	32	0.5	31	33	364	0.2	363	364	11.4	74.7
2025-10-23T10:29	10	33	0.3	33	34	364	0.3	364	365	11.4	75.2
2025-10-23T10:30	10	34	0.4	34	35	364	0.3	364	365	11.4	75.2
2025-10-23T10:31	10	36	0.4	35	36	365	0.3	364	365	11.5	74.5
2025-10-23T10:32	10	37	0.1	36	37	365	0.4	364	365	11.5	74.2
2025-10-23T10:33	10	37	0.2	37	37	365	0.2	364	365	11.6	72.8
2025-10-23T10:34	10	38	0.3	37	38	365	0.3	364	365	11.6	73.4
2025-10-23T10:35	10	38	0.1	38	39	365	0.2	365	366	11.6	74.0
2025-10-23T10:36	10	38	0.3	38	39	365	0.3	365	366	11.6	74.4
2025-10-23T10:37	10	37	0.3	36	38	366	0.2	365	366	11.6	73.5
2025-10-23T10:38	10	36	0.4	35	37	366	0.3	365	366	11.6	74.1
2025-10-23T10:39	10	35	0.3	34	35	366	0.4	365	367	11.7	72.2
2025-10-23T10:40	10	33	0.7	32	34	366	0.3	365	366	11.6	74.8
2025-10-23T10:41	10	31	0.2	31	32	366	0.3	365	367	11.6	73.9
2025-10-23T10:42	10	34	1.6	32	37	366	0.3	365	366	11.6	74.4
2025-10-23T10:43	10	40	1.3	37	41	366	0.2	366	367	11.7	72.9
2025-10-23T10:44	10	38	2.4	33	41	366	0.3	366	367	11.9	69.9
2025-10-23T10:45	10	31	1.1	30	33	366	0.4	365	366	12.1	66.7
2025-10-23T10:46	10	32	1.9	30	36	365	0.3	365	366	11.9	67.9
2025-10-23T10:47	10	39	1.6	36	41	366	0.2	366	367	12.0	67.6
2025-10-23T10:48	10	42	0.1	41	42	366	0.2	366	367	12.3	63.7
2025-10-23T10:49	10	42	0.2	42	42	366	0.3	366	367	12.3	63.7
2025-10-23T10:50	10	44	1.0	42	45	366	0.2	365	366	12.5	60.6
2025-10-23T10:51	10	45	0.5	44	46	366	0.3	365	367	12.6	58.8
2025-10-23T10:52	10	43	0.8	41	44	365	0.4	365	366	12.5	60.2
2025-10-23T10:53	10	41	0.2	41	42	366	0.3	365	366	12.4	61.0
2025-10-23T10:54	10	41	0.1	41	41	365	0.2	365	366	12.5	59.0
2025-10-23T10:55	10	42	0.2	41	42	366	0.3	365	367	12.4	60.5
2025-10-23T10:56	10	42	0.4	41	42	366	0.3	365	367	12.5	60.0
2025-10-23T10:57	10	39	0.6	38	41	366	0.2	365	366	12.5	59.5
2025-10-23T10:58	10	39	0.1	38	39	366	0.2	365	366	12.5	60.2
2025-10-23T10:59	10	39	0.1	39	39	366	0.3	365	366	12.5	59.4
2025-10-23T11:00	10	40	0.7	38	41	366	0.3	365	366	12.5	60.1
2025-10-23T11:01	10	45	2.3	41	49	366	0.3	365	366	12.6	57.4
2025-10-23T11:02	10	52	1.3	49	54	366	0.3	366	367	12.6	57.7
2025-10-23T11:03	10	54	0.5	53	54	367	0.3	366	368	12.6	59.3
2025-10-23T11:04	10	59	10.9	51	88	368	0.6	367	370	12.6	59.3
2025-10-23T11:05	10	50	4.8	46	70	368	0.7	367	369	12.7	57.7
2025-10-23T11:06	10	45	1.4	42	47	367	0.3	367	368	12.8	56.8
2025-10-23T11:07	10	40	1.3	38	42	367	0.4	366	368	12.7	57.9
2025-10-23T11:08	10	35	1.4	33	37	367	0.5	366	368	12.7	57.8
2025-10-23T11:09	10	33	2.1	30	40	366	0.5	365	367	12.6	58.4
2025-10-23T11:10	10	29	0.8	28	30	366	0.6	365	367	12.6	59.4
2025-10-23T11:11	10	30	1.6	28	33	365	0.7	363	366	12.5	59.4
2025-10-23T11:12	10	35	0.8	33	36	364	0.2	364	365	12.4	60.6
2025-10-23T11:13	10	37	0.9	36	39	364	0.3	364	365	12.3	60.1
2025-10-23T11:14	10	41	0.9	39	42	365	0.5	364	366	12.2	61.5
2025-10-23T11:15	10	43	0.7	42	44	365	0.2	365	366	12.2	61.7
2025-10-23T11:16	10	44	0.3	43	44	366	0.3	365	367	12.3	61.2
2025-10-23T11:17	10	42	0.6	41	43	366	0.2	365	367	12.3	60.5
2025-10-23T11:18	10	39	1.3	37	41	366	0.3	365	366	12.3	60.3
2025-10-23T11:19	10	34	2.0	30	37	365	0.2	365	366	12.3	60.0
2025-10-23T11:20	10	26	2.5	22	30	365	0.6	363	366	12.4	57.8
2025-10-23T11:21	10	18	2.2	14	22	363	0.6	362	364	12.4	58.1
2025-10-23T11:22	10	12	1.4	9	14	362	0.5	361	363	12.3	59.0
2025-10-23T11:23	10	7	1.1	6	9	361	0.8	359	362	12.0	61.8
2025-10-23T11:24	10	5	0.5	4	6	360	0.7	358	361	11.8	63.3
2025-10-23T11:25	10	4	0.4	4	5	359	0.6	357	360	11.6	63.6
2025-10-23T11:26	10	6	0.9	5	8	358	0.6	357	359	11.4	63.3
2025-10-23T11:27	10	9	0.8	8	11	358	0.3	357	359	11.7	60.8
2025-10-23T11:28	10	12	1.0	11	14	358	0.5	357	359	11.4	63.7
2025-10-23T11:29	10	16	1.1	14	18	358	0.4	358	359	11.3	66.1
2025-10-23T11:30	10	20	1.2	18	22	359	0.4	357	359	11.0	68.2
2025-10-23T11:31	10	24	1.1	22	26	359	0.6	358	360	10.7	71.5
2025-10-23T11:32	10	27	0.6	26	28	359	0.8	358	361	10.6	72.7
2025-10-23T11:33	10	28	0.3	28	29	360	0.4	359	361	10.5	74.1
2025-10-23T11:34	10	29	0.1	29	29	360	0.3	359	360	10.6	72.6
2025-10-23T11:35	10	29	0.3	28	30	360	0.6	359	361	10.6	73.2
2025-10-23T11:36	10	28	0.5	27	28	360	0.5	359	361	10.6	74.2
2025-10-23T11:37	10	26	0.7	24	27	360	0.3	359	361	10.6	73.5
2025-10-23T11:38	10	24	0.7	22	25	360	0.2	359	360	10.6	75.5
2025-10-23T11:39	10	21	0.5	21	22	359	0.7	358	361	10.5	74.0
2025-10-23T11:40	10	21	0.3	21	22	359	0.3	359	360	10.6	72.8
2025-10-23T11:41	10	21	0.2	21	22	359	0.4	358	360	10.6	73.7
2025-10-23T11:42	10	19	1.0	18	21	359	0.4	359	361	10.7	73.8
2025-10-23T11:43	10	16	0.6	16	18	359	0.3	359	360	10.8	72.1
2025-10-23T11:44	10	17	1.0	16	19	359	0.3	359	360	10.9	71.8
2025-10-23T11:45	10	21	0.8	19	22	359	0.4	359	360	10.8	73.4
2025-10-23T11:46	10	23	0.3	22	23	359	0.3	358	360	10.8	73.1
2025-10-23T11:47	10	24	0.3	23	24	359	0.7	357	360	10.9	69.1
2025-10-23T11:48	10	25	0.6	24	26	359	0.7	358	360	10.7	71.9
2025-10-23T11:49	10	27	0.4	26	28	359	0.6	358	360	10.6	74.6
2025-10-23T11:50	10	29	0.6	28	30	359	0.3	358	360	10.6	74.5
2025-10-23T11:51	10	31	0.8	30	32	360	0.3	359	360	10.6	73.8
2025-10-23T11:52	10	33	0.6	32	34	360	0.5	359	361	10.6	73.0
2025-10-23T11:53	10	35	0.6	34	39	360	0.3	359	361	10.6	72.7
2025-10-23T11:54	10	36	0.3	35	36	360	0.3	359	360	10.8	70.7
2025-10-23T11:55	10	37	0.6	36	38	360	0.3	359	360	10.8	70.4
2025-10-23T11:56	10	40	0.7	38	41	360	0.3	359	360	10.8	69.4
2025-10-23T11:57	10	42	0.4	41	42	360	0.2	360	361	10.9	69.2
2025-10-23T11:58	10	42	0.2	42	43	361	0.3	360	361	10.9	68.8
2025-10-23T11:59	10	43	0.2	42	43	360	0.3	360	361	11.0	66.3
2025-10-23T12:00	10	43	0.4	43	44	361	0.3	361	362	11.0	67.6
2025-10-23T12:01	10	44	0.2	43	44	361	0.3	360	361	11.1	65.1
2025-10-23T12:02	10	43	0.3	42	43	361	0.3	360	361	11.1	64.9
2025-10-23T12:03	10	41	0.7	40	42	361	0.2	360	361	11.2	64.0
2025-10-23T12:04	10	38	0.9	37	40	360	0.3	360	361	11.3	62.7
2025-10-23T12:05	10	35	0.7	34	37	360	0.3	359	361	11.3	62.9
2025-10-23T12:06	10	33	0.4	33	34	360	0.2	360	361	11.3	62.8
2025-10-23T12:07	10	33	0.1	33	33	360	0.2	360	361	11.3	63.1
2025-10-23T12:08	10	34	0.4	33	34	361	0.2	360	361	11.3	62.9
2025-10-23T12:09	10	35	0.5	34	36	361	0.3	360	361	11.3	63.9
2025-10-23T12:10	10	37	0.6	36	38	361	0.2	360	361	11.3	62.2
2025-10-23T12:11	10	39	0.6	38	40	361	0.2	360	361	11.4	61.5
2025-10-23T12:12	10	41	0.5	40	41	361	0.3	360	362	11.4	61.7
2025-10-23T12:13	10	42	0.6	41	43	361	0.2	361	362	11.4	62.0
2025-10-23T12:14	10	45	1.7	43	50	362	0.3	361	362	11.4	61.0
2025-10-23T12:15	10	58	3.4	50	62	363	0.5	362	364	11.4	61.7
2025-10-23T12:16	10	77	5.5	62	84	365	0.8	363	366	11.4	61.8
2025-10-23T12:17	10	75	5.3	67	85	365	0.4	365	366	11.5	60.8
2025-10-23T12:18	10	80	13.3	62	100	366	0.9	365	368	11.5	62.5
2025-10-23T12:19	10	92	8.8	67	102	368	0.5	367	369	11.5	63.0
2025-10-23T12:20	10	61	7.1	55	82	366	1.2	365	369	11.6	62.1
2025-10-23T12:21	10	102	14.2	82	129	368	1.4	366	371	11.6	61.8
2025-10-23T12:22	10	121	9.6	109	138	370	0.4	370	371	11.7	61.0
2025-10-23T12:23	10	127	13.7	105	141	371	1.4	370	374	11.7	61.7
2025-10-23T12:24	10	130	15.4	98	145	374	0.7	372	375	11.8	61.2
2025-10-23T12:25	10	134	2.0	129	137	376	0.9	374	377	11.9	62.0
2025-10-23T12:26	10	130	1.1	127	132	374	0.4	373	375	12.1	58.9
2025-10-23T12:27	10	132	0.6	130	132	374	0.4	373	375	12.2	58.0
2025-10-23T12:28	10	132	0.2	132	132	375	0.4	374	376	12.2	57.5
2025-10-23T12:29	10	132	0.2	132	133	374	0.4	374	375	12.3	56.4
2025-10-23T12:30	10	135	1.5	133	138	374	0.6	373	376	12.3	56.2
2025-10-23T12:31	10	99	35.7	42	141	375	2.5	370	378	12.4	58.7
2025-10-23T12:32	10	63	26.4	41	131	371	1.3	369	374	12.3	59.2
2025-10-23T12:33	10	47	4.0	41	53	370	0.5	369	371	12.3	58.4
2025-10-23T12:34	10	54	0.5	53	54	370	0.3	369	371	12.3	58.2
2025-10-23T12:35	10	70	21.1	55	128	370	1.2	369	373	12.2	58.4
2025-10-23T12:36	10	109	42.4	62	166	372	2.7	369	377	12.3	58.9
2025-10-23T12:37	10	112	45.9	64	170	376	2.4	372	379	12.4	58.4
2025-10-23T12:38	10	69	5.8	65	86	372	0.6	371	373	12.4	57.9
2025-10-23T12:39	10	62	7.7	57	88	371	1.0	369	373	12.4	57.4
2025-10-23T12:40	10	75	28.1	56	152	371	1.6	369	374	12.3	57.5
2025-10-23T12:41	10	56	1.8	54	60	370	0.3	370	371	12.3	59.3
2025-10-23T12:42	10	57	1.7	53	60	371	0.4	370	371	12.4	59.8
2025-10-23T12:43	10	51	1.4	48	53	370	0.4	369	370	12.3	59.5
2025-10-23T12:44	10	47	0.7	46	48	369	0.3	368	369	12.3	59.5
2025-10-23T12:45	10	60	6.9	49	77	369	1.0	368	371	12.3	59.7
2025-10-23T12:46	10	59	3.1	52	65	371	0.3	370	371	12.3	58.8
2025-10-23T12:47	10	58	11.5	51	99	370	0.6	369	372	12.3	59.0
2025-10-23T12:48	10	113	6.0	100	125	373	0.9	371	374	12.3	57.6
2025-10-23T12:49	10	87	26.9	47	135	372	1.9	369	375	12.4	56.2
2025-10-23T12:50	10	60	6.8	47	71	369	0.3	368	370	12.4	56.5
2025-10-23T12:51	10	56	5.8	48	67	369	0.6	368	370	12.3	57.5
2025-10-23T12:52	10	53	3.2	48	59	368	0.3	368	369	12.3	58.6
2025-10-23T12:53	10	51	2.8	47	55	369	0.2	368	369	12.2	60.1
2025-10-23T12:54	10	48	4.2	42	55	369	0.3	368	369	12.3	57.8
2025-10-23T12:55	10	41	1.2	39	42	369	0.2	368	369	12.2	60.4
2025-10-23T12:56	10	37	0.9	36	39	368	0.5	367	369	12.2	62.0
2025-10-23T12:57	10	36	0.3	35	37	367	0.3	367	368	12.1	61.7
2025-10-23T12:58	10	37	0.4	37	38	367	0.3	366	368	12.1	61.5
2025-10-23T12:59	10	39	0.6	38	40	367	0.3	366	368	12.0	62.3
2025-10-23T13:00	10	40	0.4	40	41	367	0.3	366	367	11.9	63.4
2025-10-23T13:01	10	39	0.7	38	40	366	0.3	365	367	11.7	64.2
2025-10-23T13:02	10	37	0.7	35	38	366	0.2	366	367	11.7	64.9
2025-10-23T13:03	10	34	0.6	33	35	366	0.5	365	367	11.6	65.1
2025-10-23T13:04	10	33	0.1	33	34	366	0.3	365	366	11.6	65.3
2025-10-23T13:05	10	33	0.4	33	34	365	0.2	365	366	11.6	64.9
2025-10-23T13:06	10	32	0.3	32	33	365	0.2	365	366	11.6	66.6
2025-10-23T13:07	10	31	0.6	30	32	365	0.3	364	366	11.5	66.3
2025-10-23T13:08	10	28	0.9	26	29	365	0.3	364	365	11.6	64.8
2025-10-23T13:09	10	24	1.1	22	26	364	0.2	364	365	11.6	65.3
2025-10-23T13:10	10	20	1.3	18	22	364	0.2	364	364	11.5	65.2
2025-10-23T13:11	10	16	1.0	15	18	364	0.2	363	364	11.5	65.4
2025-10-23T13:12	10	13	0.8	12	15	363	0.2	363	364	11.6	65.6
2025-10-23T13:13	10	11	0.6	10	12	363	0.3	362	363	11.6	65.4
2025-10-23T13:14	10	9	0.6	8	10	363	0.2	362	363	11.6	66.0
2025-10-23T13:15	10	7	0.6	6	8	362	0.2	362	363	11.5	66.1
2025-10-23T13:16	10	5	0.4	4	6	362	0.4	361	362	11.5	66.8
2025-10-23T13:17	10	4	0.3	3	4	362	0.3	361	362	11.5	66.4
2025-10-23T13:18	10	3	0.2	2	3	361	0.3	361	362	11.6	65.5
2025-10-23T13:19	10	2	0.1	2	2	361	0.2	360	361	11.5	66.9
2025-10-23T13:20	10	2	0.1	2	2	361	0.2	361	362	11.4	67.7
2025-10-23T13:21	10	2	0.1	2	2	361	0.3	360	362	11.5	66.1
2025-10-23T13:22	10	2	0.1	2	2	361	0.2	360	361	11.6	65.7
2025-10-23T13:23	10	2	0.2	2	3	360	0.2	360	361	11.5	65.8
2025-10-23T13:24	10	3	0.1	2	3	360	0.2	360	361	11.5	65.9
2025-10-23T13:25	10	3	0.1	3	3	360	0.3	360	361	11.5	65.1
2025-10-23T13:26	10	2	0.2	2	3	360	0.2	360	360	11.4	66.7
2025-10-23T13:27	10	2	0.1	2	2	360	0.2	359	360	11.4	67.0
2025-10-23T13:28	10	1	0.1	1	2	359	0.3	358	360	11.3	67.3
2025-10-23T13:29	10	1	0.1	1	1	358	0.3	357	359	11.1	68.9
2025-10-23T13:30	10	1	0.1	1	1	358	0.2	357	358	10.9	70.8
2025-10-23T13:31	10	1	0.0	0	1	357	0.2	357	358	10.8	73.1
2025-10-23T13:32	10	1	0.1	0	1	357	0.3	356	358	10.7	73.7
2025-10-23T13:33	10	1	0.1	1	1	357	0.3	356	357	10.6	74.3
2025-10-23T13:34	10	2	0.2	1	2	357	0.3	356	358	10.4	75.7
2025-10-23T13:35	10	3	0.2	2	3	356	0.5	355	357	10.3	73.7
2025-10-23T13:36	10	3	0.2	3	4	355	0.4	354	355	9.9	74.9
2025-10-23T13:37	10	4	0.4	4	5	354	0.3	353	355	9.5	78.7
2025-10-23T13:38	10	5	0.2	5	5	354	0.3	353	355	9.2	81.1
2025-10-23T13:39	10	4	0.4	3	5	353	0.2	353	354	9.0	83.2
2025-10-23T13:40	10	4	0.2	3	4	353	0.2	352	353	8.8	85.8
2025-10-23T13:41	10	5	0.7	4	6	353	0.3	352	354	8.7	86.4
2025-10-23T13:42	10	12	4.0	7	22	353	0.6	352	354	8.7	86.3
2025-10-23T13:43	10	31	4.5	22	39	355	0.4	354	356	9.3	80.7
2025-10-23T13:44	10	41	1.5	39	45	357	1.3	354	359	9.3	80.6
2025-10-23T13:45	10	51	11.9	37	73	358	1.0	356	359	9.1	83.6
2025-10-23T13:46	10	49	8.2	38	66	358	1.0	357	360	9.1	83.3
2025-10-23T13:47	10	52	12.8	35	67	359	0.4	358	360	9.4	79.9
2025-10-23T13:48	10	32	0.9	31	35	357	0.3	356	358	9.3	80.3
2025-10-23T13:49	10	37	10.7	27	62	357	0.5	356	358	9.3	80.8
2025-10-23T13:50	10	30	2.6	27	36	357	0.4	356	358	9.3	80.9
2025-10-23T13:51	10	67	18.6	37	98	359	1.5	356	362	9.3	81.3
2025-10-23T13:52	10	64	11.7	47	81	361	0.5	360	362	9.3	82.3
2025-10-23T13:53	10	39	5.1	33	48	360	0.4	359	361	9.4	82.1
2025-10-23T13:54	10	31	0.4	31	32	359	0.4	359	360	9.4	82.8
2025-10-23T13:55	10	31	0.6	30	32	359	0.3	359	360	9.4	83.4
2025-10-23T13:56	10	28	0.9	27	30	358	0.2	358	359	9.4	81.2
2025-10-23T13:57	10	25	0.8	24	27	358	0.3	358	359	9.4	82.3
2025-10-23T13:58	10	23	0.4	22	24	358	0.3	357	359	9.4	81.8
2025-10-23T13:59	10	22	0.3	21	22	358	0.4	357	359	9.4	82.1
2025-10-23T14:00	10	21	0.4	20	22	359	0.2	358	359	9.4	83.2
2025-10-23T14:01	10	20	0.4	19	20	358	0.2	358	359	9.5	82.6
2025-10-23T14:02	10	18	0.6	17	19	358	0.5	357	359	9.6	80.5
2025-10-23T14:03	10	17	0.2	16	17	358	0.3	357	358	9.6	79.8
2025-10-23T14:04	10	16	0.1	16	16	358	0.3	357	358	9.6	80.7
2025-10-23T14:05	10	16	0.2	15	16	358	0.3	357	358	9.5	81.7
2025-10-23T14:06	10	16	0.1	15	16	357	0.3	357	358	9.6	81.2
2025-10-23T14:07	10	16	0.2	15	16	357	0.2	356	357	9.7	77.9
2025-10-23T14:08	10	15	0.1	15	15	357	0.2	356	357	9.8	76.6
2025-10-23T14:09	10	15	0.1	15	15	357	0.2	356	357	9.7	78.3
2025-10-23T14:10	10	15	0.1	15	16	357	0.2	356	357	9.7	78.8
2025-10-23T14:11	10	16	0.1	15	16	356	0.4	356	357	9.7	77.8
2025-10-23T14:12	10	16	0.2	16	17	356	0.5	355	357	9.7	77.3
2025-10-23T14:13	10	17	0.4	17	18	356	0.4	356	357	9.7	76.7
2025-10-23T14:14	10	18	0.3	18	19	356	0.3	356	357	9.7	76.4
2025-10-23T14:15	10	19	0.2	19	20	356	0.4	355	357	9.6	76.4
2025-10-23T14:16	10	20	0.2	20	20	356	0.2	355	356	9.6	76.2
2025-10-23T14:17	10	21	0.1	20	21	356	0.3	356	357	9.6	76.7
2025-10-23T14:18	10	21	0.1	21	21	356	0.4	356	357	9.6	77.2
2025-10-23T14:19	10	21	0.1	21	21	356	0.3	355	357	9.7	74.1
2025-10-23T14:20	10	21	0.2	21	22	356	0.3	355	357	9.6	75.5
2025-10-23T14:21	10	22	0.2	22	23	356	0.2	356	357	9.6	75.2
2025-10-23T14:22	10	23	0.2	22	23	356	0.3	355	357	9.8	73.6
2025-10-23T14:23	10	23	0.1	23	23	356	0.2	356	357	9.7	75.1
2025-10-23T14:24	10	23	0.2	22	23	356	0.5	355	357	9.7	74.2
2025-10-23T14:25	10	22	0.3	21	22	356	0.4	355	357	9.7	73.6
2025-10-23T14:26	10	20	0.4	20	21	356	0.2	355	356	9.8	72.7
2025-10-23T14:27	10	19	0.4	18	20	356	0.2	355	356	9.7	74.5
2025-10-23T14:28	10	18	0.1	18	18	356	0.2	355	356	9.6	74.7
2025-10-23T14:29	10	18	0.1	18	18	356	0.2	355	356	9.6	75.9
2025-10-23T14:30	10	18	0.1	18	19	356	0.3	355	356	9.6	74.9
2025-10-23T14:31	10	18	0.1	18	19	355	0.2	355	356	9.6	75.1
2025-10-23T14:32	10	18	0.1	18	18	355	0.2	355	356	9.6	76.0
2025-10-23T14:33	10	18	0.2	18	18	355	0.2	355	356	9.6	76.0
2025-10-23T14:34	10	17	0.1	17	18	355	0.2	355	356	9.5	77.2
2025-10-23T14:35	10	17	0.1	17	18	355	0.3	355	356	9.5	76.6
2025-10-23T14:36	10	17	0.1	17	18	355	0.2	355	356	9.6	75.7
2025-10-23T14:37	10	18	0.1	17	18	355	0.2	354	356	9.5	76.4
2025-10-23T14:38	10	18	0.1	17	18	355	0.2	355	356	9.5	77.6
2025-10-23T14:39	10	17	0.2	17	18	355	0.3	355	356	9.5	78.0
2025-10-23T14:40	10	17	0.3	16	17	355	0.2	355	356	9.5	77.7
2025-10-23T14:41	10	16	0.3	15	16	355	0.3	355	356	9.5	77.4
2025-10-23T14:42	10	15	0.2	15	15	355	0.2	355	356	9.5	78.3
2025-10-23T14:43	10	14	0.2	14	15	355	0.3	355	356	9.5	77.9
2025-10-23T14:44	10	14	0.1	14	14	355	0.2	355	356	9.5	77.3
2025-10-23T14:45	10	14	0.1	14	14	355	0.2	355	356	9.6	75.6
2025-10-23T14:46	10	14	0.1	14	14	355	0.3	354	356	9.6	77.2
2025-10-23T14:47	10	13	0.2	13	14	355	0.2	355	356	9.5	77.8
2025-10-23T14:48	10	13	0.2	12	13	355	0.2	355	356	9.6	77.1
2025-10-23T14:49	10	12	0.1	12	12	355	0.2	355	356	9.5	77.5
2025-10-23T14:50	10	12	0.1	12	13	355	0.3	354	356	9.5	77.3
2025-10-23T14:51	10	12	0.2	12	12	355	0.3	354	356	9.6	76.9
2025-10-23T14:52	10	12	0.1	11	12	355	0.2	354	355	9.7	75.8
2025-10-23T14:53	10	12	0.2	12	12	355	0.3	354	355	9.7	76.3
2025-10-23T14:54	10	13	0.3	12	13	355	0.2	354	356	9.6	77.0
2025-10-23T14:55	10	14	0.3	13	14	355	0.2	355	356	9.6	76.5
2025-10-23T14:56	10	14	0.2	14	15	355	0.2	354	356	9.6	77.1
2025-10-23T14:57	10	14	0.2	14	15	355	0.2	354	355	9.7	76.5
2025-10-23T14:58	10	13	0.3	13	14	355	0.2	355	355	9.6	77.3
2025-10-23T14:59	10	12	0.5	11	13	355	0.2	355	355	9.7	76.8
2025-10-23T15:00	10	10	0.6	9	11	355	0.2	354	355	9.8	75.6
2025-10-23T15:01	10	8	0.6	7	9	354	0.3	354	356	9.8	75.5
2025-10-23T15:02	10	7	0.4	6	8	354	0.3	354	355	9.7	76.4
2025-10-23T15:03	10	5	0.3	5	6	354	0.3	354	355	9.7	76.4
2025-10-23T15:04	10	5	0.1	4	5	354	0.3	354	355	9.7	77.0
2025-10-23T15:05	10	5	0.1	4	5	354	0.3	353	355	9.7	77.0
2025-10-23T15:06	10	5	0.2	4	5	354	0.3	353	354	9.6	77.4
2025-10-23T15:07	10	5	0.2	5	6	354	0.8	353	355	9.5	78.1
2025-10-23T15:08	10	6	0.3	5	6	354	0.3	354	355	9.4	79.5
2025-10-23T15:09	10	7	0.3	6	7	354	0.3	354	355	9.5	78.8
2025-10-23T15:10	10	8	0.3	7	8	354	0.3	354	355	9.4	79.8
2025-10-23T15:11	10	8	0.2	8	9	354	0.3	354	355	9.4	79.3
2025-10-23T15:12	10	8	0.2	8	9	354	0.3	353	355	9.5	78.3
2025-10-23T15:13	10	8	0.3	7	8	354	0.4	354	355	9.4	79.5
2025-10-23T15:14	10	7	0.2	6	7	354	0.3	354	355	9.5	78.7
2025-10-23T15:15	10	6	0.2	6	6	354	0.2	354	355	9.4	79.2
2025-10-23T15:16	10	6	0.2	5	6	354	0.3	353	355	9.3	80.6
2025-10-23T15:17	10	6	0.2	5	6	354	0.2	354	355	9.3	81.0
2025-10-23T15:18	10	6	0.2	5	6	354	0.3	354	355	9.3	80.8
2025-10-23T15:19	10	6	0.1	6	6	354	0.3	353	354	9.3	81.4
2025-10-23T15:20	10	6	0.2	6	7	354	0.2	353	354	9.3	82.1
2025-10-23T15:21	10	7	0.2	6	7	354	0.3	353	354	9.3	82.0
2025-10-23T15:22	10	7	0.2	6	7	354	0.3	353	354	9.4	79.8
2025-10-23T15:23	10	6	0.2	6	6	353	0.3	353	354	9.3	80.5
2025-10-23T15:24	10	5	0.1	5	6	353	0.2	353	354	9.2	82.5
2025-10-23T15:25	10	5	0.2	5	6	354	0.3	353	354	9.2	81.9
2025-10-23T15:26	10	6	0.3	5	6	353	0.3	353	354	9.3	81.6
2025-10-23T15:27	10	7	0.4	6	7	354	0.3	353	354	9.3	81.3
2025-10-23T15:28	10	8	0.2	7	8	354	0.3	353	354	9.4	80.6
2025-10-23T15:29	10	9	0.4	8	10	354	0.3	353	355	9.4	81.0
2025-10-23T15:30	10	10	0.4	9	11	354	0.3	353	355	9.3	81.7
2025-10-23T15:31	10	11	0.2	10	11	354	0.3	353	355	9.3	81.9
2025-10-23T15:32	10	10	0.3	9	10	354	0.4	353	355	9.3	82.1
2025-10-23T15:33	10	9	0.3	8	9	354	0.3	353	354	9.3	82.1
2025-10-23T15:34	10	7	0.4	7	8	354	0.2	354	355	9.2	83.1
2025-10-23T15:35	10	6	0.3	5	7	354	0.4	353	354	9.3	81.9
2025-10-23T15:36	10	5	0.2	5	6	353	0.3	353	354	9.4	80.2
2025-10-23T15:37	10	6	0.3	5	6	353	0.3	353	354	9.5	79.1
2025-10-23T15:38	10	7	0.4	6	8	353	0.2	353	354	9.5	79.3
2025-10-23T15:39	10	8	0.3	7	9	353	0.3	353	354	9.4	79.4
2025-10-23T15:40	10	8	0.5	7	9	353	0.3	352	354	9.4	80.1
2025-10-23T15:41	10	6	0.4	6	7	353	0.2	353	354	9.3	81.0
2025-10-23T15:42	10	5	0.2	5	6	353	0.4	352	354	9.3	81.2
2025-10-23T15:43	10	5	0.1	5	6	352	0.3	352	353	9.2	81.9
2025-10-23T15:44	10	5	0.2	4	5	352	0.2	352	353	9.2	81.5
2025-10-23T15:45	10	4	0.3	4	5	352	0.3	351	353	9.2	81.1
2025-10-23T15:46	10	4	0.3	3	4	352	0.3	351	353	9.2	81.7
2025-10-23T15:47	10	3	0.3	2	3	352	0.3	351	352	9.1	82.2
2025-10-23T15:48	10	2	0.2	2	2	352	0.3	351	353	9.0	82.9
2025-10-23T15:49	10	1	0.2	1	2	352	0.2	352	353	9.0	82.8
2025-10-23T15:50	10	1	0.2	1	2	352	0.3	351	352	9.1	81.5
2025-10-23T15:51	10	1	0.2	1	2	352	0.3	351	352	9.1	82.5
2025-10-23T15:52	10	1	0.2	1	2	352	0.2	352	353	9.1	82.3
2025-10-23T15:53	10	1	0.2	0	1	352	0.2	351	353	9.1	81.4
2025-10-23T15:54	10	0	0.1	0	1	352	0.3	351	352	9.0	82.9
2025-10-23T15:55	10	1	0.2	1	1	352	0.3	351	352	8.9	83.6
2025-10-23T15:56	10	1	0.2	1	2	352	0.3	351	352	8.9	84.0
2025-10-23T15:57	10	2	0.3	1	3	352	0.3	351	352	9.0	82.2
2025-10-23T15:58	10	3	0.1	2	3	352	0.2	351	352	9.0	83.2
2025-10-23T15:59	10	2	0.2	2	3	352	0.2	350	352	8.9	83.8
2025-10-23T16:00	10	2	0.3	1	2	352	0.2	351	352	8.9	83.9
2025-10-23T16:01	10	1	0.2	1	1	352	0.2	351	352	9.0	83.3
2025-10-23T16:02	10	1	0.1	1	1	352	0.1	351	352	9.0	83.3
2025-10-23T16:03	10	1	0.1	1	1	352	0.2	351	352	9.0	82.6
2025-10-23T16:04	10	1	0.1	0	1	352	0.3	351	352	9.0	82.8
2025-10-23T16:05	10	1	0.1	1	1	352	0.2	351	352	9.1	82.0
2025-10-23T16:06	10	1	0.1	1	2	352	0.2	351	352	9.0	82.9
2025-10-23T16:07	10	1	0.1	1	2	352	0.2	351	352	9.1	82.2
2025-10-23T16:08	10	2	0.1	1	2	352	0.2	351	352	9.1	81.7
2025-10-23T16:09	10	2	0.2	1	2	352	0.2	351	352	9.0	82.7
2025-10-23T16:10	10	1	0.2	1	1	352	0.2	351	352	9.0	83.7
2025-10-23T16:11	10	1	0.1	0	1	352	0.1	351	352	8.9	84.5
2025-10-23T16:12	10	1	0.1	0	1	352	0.3	351	352	9.0	83.3
2025-10-23T16:13	10	1	0.2	1	1	352	0.2	351	352	9.0	83.7
2025-10-23T16:14	10	1	0.2	1	1	352	0.2	351	352	8.9	84.4
2025-10-23T16:15	10	1	0.1	0	1	352	0.2	351	352	9.0	83.2
2025-10-23T16:16	10	0	0.1	0	1	352	0.2	351	352	9.1	82.7
2025-10-23T16:17	10	0	0.1	0	1	352	0.2	351	352	9.0	83.4
2025-10-23T16:18	10	0	0.1	0	1	352	0.3	351	353	9.0	83.5
2025-10-23T16:19	10	0	0.2	-1	0	352	0.2	351	352	9.1	83.0
2025-10-23T16:20	10	-1	0.2	-1	-1	352	0.2	351	352	9.1	82.9
2025-10-23T16:21	10	-1	0.1	-1	-1	352	0.2	351	352	8.9	84.9
2025-10-23T16:22	10	-1	0.1	-2	-1	351	0.2	351	352	8.9	85.6
2025-10-23T16:23	10	-2	0.1	-2	-1	351	0.2	351	352	8.9	84.6
2025-10-23T16:24	10	-2	0.1	-2	-2	352	0.3	351	352	9.0	83.6
2025-10-23T16:25	10	-2	0.1	-2	-2	352	0.2	351	352	9.1	83.4
2025-10-23T16:26	10	-2	0.1	-2	-2	352	0.2	351	352	9.1	83.1
2025-10-23T16:27	10	-2	0.1	-2	-2	352	0.2	351	352	9.1	84.0
2025-10-23T16:28	10	-2	0.0	-2	-2	352	0.2	351	352	9.2	82.8
2025-10-23T16:29	10	-2	0.1	-2	-2	352	0.2	351	352	9.0	84.7
2025-10-23T16:30	10	-2	0.1	-2	-2	352	0.2	351	352	9.1	83.9
2025-10-23T16:31	10	-2	0.1	-2	-2	352	0.3	351	352	9.0	85.3
2025-10-23T16:32	10	-2	0.1	-2	-2	352	0.2	351	352	8.9	85.6
2025-10-23T16:33	10	-2	0.1	-2	-2	351	0.3	351	352	8.9	85.3
2025-10-23T16:34	10	-2	0.1	-2	-2	351	0.2	351	352	8.9	86.5
2025-10-23T16:35	10	-2	0.0	-2	-2	352	0.2	351	352	8.9	85.5
2025-10-23T16:36	10	-2	0.1	-2	-2	351	0.2	351	352	9.0	85.7
2025-10-23T16:37	10	-2	0.0	-2	-2	351	0.2	351	352	8.9	86.6
2025-10-23T16:38	10	-2	0.1	-2	-2	352	0.2	351	352	8.9	87.2
2025-10-23T16:39	10	-2	0.1	-2	-2	351	0.2	351	352	8.8	87.7
2025-10-23T16:40	10	-2	0.1	-2	-2	351	0.2	351	352	8.8	87.5
2025-10-23T16:41	10	-2	0.1	-2	-2	351	0.2	351	352	8.7	87.9
2025-10-23T16:42	10	-2	0.1	-2	-2	351	0.2	350	351	8.7	88.4
2025-10-23T16:43	10	-2	0.0	-2	-2	351	0.3	350	351	8.6	89.2
2025-10-23T16:44	10	-2	0.1	-2	-2	351	0.2	350	351	8.6	89.7
2025-10-23T16:45	10	-2	0.1	-2	-2	351	0.2	350	351	8.7	88.7
2025-10-23T16:46	10	-2	0.1	-2	-2	351	0.2	351	351	8.7	88.6
2025-10-23T16:47	10	-2	0.1	-2	-2	351	0.2	350	351	8.7	88.6
2025-10-23T16:48	10	-2	0.1	-2	-2	351	0.2	350	351	8.8	86.9
2025-10-23T16:49	10	-2	0.1	-2	-2	351	0.3	350	351	8.9	86.1
2025-10-23T16:50	10	-2	0.1	-2	-1	351	0.2	350	352	9.0	85.6
2025-10-23T16:51	10	-1	0.1	-2	-1	351	0.4	350	352	9.0	85.4
2025-10-23T16:52	10	-1	0.1	-1	-1	351	0.2	351	352	9.1	84.4
2025-10-23T16:53	10	-1	0.1	-1	-1	351	0.2	351	352	9.2	82.8
2025-10-23T16:54	10	-1	0.1	-1	-1	351	0.2	351	352	9.2	82.5
2025-10-23T16:55	10	-1	0.1	-1	-1	351	0.2	351	352	9.2	82.3
2025-10-23T16:56	10	-1	0.0	-1	-1	351	0.3	351	352	9.4	80.2
2025-10-23T16:57	10	-1	0.1	-1	-1	351	0.2	351	352	9.3	81.9
2025-10-23T16:58	10	-1	0.0	-1	-1	351	0.2	351	352	9.2	82.8
2025-10-23T16:59	10	-1	0.1	-1	-1	351	0.2	351	352	9.2	83.0
2025-10-23T17:00	10	-1	0.1	-1	-1	351	0.2	351	352	9.2	82.8
2025-10-23T17:01	10	-1	0.1	-1	-1	352	0.2	351	352	9.3	81.4
2025-10-23T17:02	10	-1	0.1	-1	-1	352	0.2	351	352	9.3	81.0
2025-10-23T17:03	10	-1	0.1	-1	-1	352	0.2	351	352	9.2	82.3
2025-10-23T17:04	10	-1	0.1	-1	-1	352	0.2	351	352	9.2	82.9
2025-10-23T17:05	10	-1	0.1	-1	-1	352	0.2	351	352	9.2	83.1
2025-10-23T17:06	10	-1	0.1	-1	-1	352	0.2	351	352	9.2	82.8
2025-10-23T17:07	10	-1	0.1	-1	-1	352	0.2	351	352	9.2	83.0
2025-10-23T17:08	10	-1	0.1	-1	-1	352	0.2	351	352	9.2	83.0
2025-10-23T17:09	10	-1	0.1	-1	-1	352	0.2	351	352	9.2	83.4
2025-10-23T17:10	10	-1	0.1	-1	0	352	0.2	351	352	9.2	83.1
2025-10-23T17:11	10	-1	0.1	-1	-1	352	0.2	351	352	9.3	81.8
2025-10-23T17:12	10	-1	0.1	-1	-1	352	0.2	351	352	9.3	82.2
2025-10-23T17:13	10	-1	0.1	-1	-1	352	0.2	352	352	9.3	83.0
2025-10-23T17:14	10	-1	0.1	-1	-1	352	0.3	352	353	9.3	82.0
2025-10-23T17:15	10	-1	0.1	-1	-1	352	0.2	351	352	9.4	81.9
2025-10-23T17:16	10	-1	0.1	-1	-1	352	0.2	351	352	9.3	82.3
2025-10-23T17:17	10	-1	0.1	-1	0	352	0.2	352	353	9.4	82.0
2025-10-23T17:18	10	-1	0.1	-1	-1	352	0.2	352	353	9.4	81.2
2025-10-23T17:19	10	-1	0.1	-1	-1	352	0.2	352	352	9.4	81.6
2025-10-23T17:20	10	-1	0.0	-1	-1	352	0.2	352	352	9.4	81.9
2025-10-23T17:21	10	-1	0.1	-1	-1	352	0.2	352	353	9.6	79.3
2025-10-23T17:22	10	-1	0.1	-1	-1	352	0.2	352	353	9.6	79.3
2025-10-23T17:23	10	-1	0.1	-1	-1	352	0.2	352	353	9.5	79.8
2025-10-23T17:24	10	-1	0.1	-1	-1	352	0.2	352	353	9.5	80.7
2025-10-23T17:25	10	-1	0.1	-1	-1	352	0.2	352	353	9.6	79.5
2025-10-23T17:26	10	-1	0.1	-1	-1	352	0.2	352	353	9.5	80.0
2025-10-23T17:27	10	-1	0.1	-1	-1	353	0.2	352	353	9.6	79.6
2025-10-23T17:28	10	-1	0.1	-1	-1	353	0.3	352	353	9.6	78.6
2025-10-23T17:29	10	-1	0.1	-1	-1	353	0.2	352	353	9.7	78.0
2025-10-23T17:30	10	-1	0.1	-1	0	353	0.3	352	353	9.7	77.8
2025-10-23T17:31	10	-1	0.1	-1	0	352	0.2	352	353	9.6	79.2
2025-10-23T17:32	10	0	0.1	-1	0	353	0.2	352	353	9.6	78.3
2025-10-23T17:33	10	0	0.1	-1	0	353	0.2	352	353	9.9	75.2
2025-10-23T17:34	10	-1	0.1	-1	0	353	0.2	352	353	9.8	76.0
2025-10-23T17:35	10	-1	0.0	-1	0	353	0.2	352	353	9.8	76.2
2025-10-23T17:36	10	-1	0.1	-1	0	353	0.2	352	353	9.8	76.0
2025-10-23T17:37	10	-1	0.1	-1	0	353	0.2	352	353	9.7	76.9
2025-10-23T17:38	10	0	0.1	-1	0	353	0.2	352	353	9.7	77.0
2025-10-23T17:39	10	0	0.1	-1	0	353	0.2	352	353	9.7	76.9
2025-10-23T17:40	10	0	0.1	0	0	353	0.2	352	353	9.8	76.0
2025-10-23T17:41	10	0	0.1	0	0	353	0.2	353	353	9.8	75.3
2025-10-23T17:42	10	0	0.1	0	0	353	0.3	352	353	9.9	74.6
2025-10-23T17:43	10	0	0.1	-1	0	353	0.2	353	353	9.9	74.9
2025-10-23T17:44	10	0	0.1	0	0	353	0.2	352	353	9.8	74.8
2025-10-23T17:45	10	0	0.1	-1	0	353	0.2	353	353	9.9	74.3
2025-10-23T17:46	10	0	0.1	0	0	353	0.3	352	353	9.8	74.7
2025-10-23T17:47	10	0	0.1	0	0	353	0.2	352	353	9.8	75.3
2025-10-23T17:48	10	0	0.1	0	0	353	0.2	352	353	9.8	74.9
2025-10-23T17:49	10	0	0.1	0	0	353	0.2	352	353	9.7	75.9
2025-10-23T17:50	10	0	0.1	0	0	353	0.2	352	353	9.8	75.4
2025-10-23T17:51	10	0	0.1	0	0	353	0.2	352	353	9.7	75.9
2025-10-23T17:52	10	0	0.1	0	0	353	0.2	352	354	9.8	74.2
2025-10-23T17:53	10	0	0.1	0	0	353	0.2	353	354	9.9	74.2
2025-10-23T17:54	10	0	0.1	0	0	353	0.2	353	353	9.9	73.2
2025-10-23T17:55	10	0	0.1	0	0	353	0.3	352	353	9.8	74.8
2025-10-23T17:56	10	0	0.1	0	0	352	0.3	352	353	9.7	75.7
2025-10-23T17:57	10	0	0.1	-1	0	352	0.3	351	353	9.6	76.4
2025-10-23T17:58	10	-1	0.1	-1	0	352	0.2	351	353	9.6	77.3
2025-10-23T17:59	10	-1	0.2	-1	-1	352	0.2	351	352	9.5	77.1
2025-10-23T18:00	10	-1	0.1	-2	-1	352	0.2	351	352	9.3	79.3
2025-10-23T18:01	10	-2	0.1	-2	-1	351	0.3	351	352	9.3	79.4
2025-10-23T18:02	10	-2	0.1	-2	-2	351	0.2	351	352	9.1	81.4
2025-10-23T18:03	10	-2	0.1	-3	-2	351	0.2	350	352	8.9	83.6
2025-10-23T18:04	10	-3	0.2	-3	-2	351	0.3	350	352	8.6	86.4
2025-10-23T18:05	10	-3	0.1	-3	-3	351	0.3	350	351	8.5	88.3
2025-10-23T18:06	10	-3	0.1	-3	-3	351	0.2	350	351	8.4	89.1
2025-10-23T18:07	10	-3	0.1	-4	-3	350	0.3	350	351	8.4	89.6
2025-10-23T18:08	10	-3	0.1	-4	-3	351	0.3	350	351	8.4	89.3
2025-10-23T18:09	10	-3	0.1	-3	-3	350	0.3	350	351	8.4	89.6
2025-10-23T18:10	10	-3	0.1	-3	-3	350	0.3	350	351	8.3	90.1
2025-10-23T18:11	10	-3	0.1	-3	-2	350	0.3	350	351	8.3	90.5
2025-10-23T18:12	10	-3	0.2	-3	-2	350	0.3	349	351	8.3	91.3
2025-10-23T18:13	10	-3	0.1	-3	-2	350	0.3	349	351	8.3	91.1
2025-10-23T18:14	10	-2	0.1	-3	-2	350	0.3	349	351	8.3	91.0
2025-10-23T18:15	10	-2	0.1	-3	-2	350	0.2	350	350	8.4	89.9
2025-10-23T18:16	10	-2	0.2	-3	-2	350	0.2	350	351	8.3	90.2
2025-10-23T18:17	10	-2	0.2	-3	-2	350	0.2	350	351	8.3	90.6
2025-10-23T18:18	10	-2	0.1	-2	-2	350	0.3	349	351	8.5	89.4
2025-10-23T18:19	10	-2	0.1	-2	-2	350	0.3	349	351	8.4	90.4
2025-10-23T18:20	10	-2	0.1	-2	-2	350	0.3	349	350	8.4	90.0
2025-10-23T18:21	10	-2	0.2	-3	-1	350	0.2	350	350	8.4	90.5
2025-10-23T18:22	10	-2	0.2	-2	-2	350	0.2	349	350	8.3	91.2
2025-10-23T18:23	10	-2	0.1	-2	-2	350	0.4	348	351	8.4	90.6
2025-10-23T18:24	10	-2	0.1	-2	-2	350	0.3	349	350	8.4	90.5
2025-10-23T18:25	10	-2	0.2	-2	-2	350	0.2	349	350	8.4	89.9
2025-10-23T18:26	10	-2	0.1	-2	-2	350	0.3	349	350	8.4	90.0
2025-10-23T18:27	10	-2	0.1	-2	-2	350	0.2	349	350	8.3	90.5
2025-10-23T18:28	10	-2	0.1	-2	-2	350	0.2	349	350	8.3	90.4
2025-10-23T18:29	10	-2	0.1	-3	-2	350	0.2	349	350	8.3	91.3
2025-10-23T18:30	10	-2	0.1	-3	-2	350	0.2	349	350	8.3	91.5
2025-10-23T18:31	10	-2	0.1	-2	-2	350	0.2	349	350	8.3	91.2
2025-10-23T18:32	10	-2	0.1	-2	-2	350	0.2	349	350	8.4	90.1
2025-10-23T18:33	10	-2	0.1	-2	-2	350	0.3	349	350	8.4	90.4
2025-10-23T18:34	10	-2	0.1	-3	-2	350	0.3	349	350	8.4	89.5
2025-10-23T18:35	10	-2	0.1	-3	-2	350	0.2	349	350	8.4	89.6
2025-10-23T18:36	10	-2	0.1	-2	-2	350	0.2	349	350	8.4	89.5
2025-10-23T18:37	10	-2	0.1	-2	-2	350	0.2	349	350	8.4	89.8
2025-10-23T18:38	10	-2	0.1	-2	-2	350	0.3	349	350	8.4	89.7
2025-10-23T18:39	10	-2	0.1	-2	-2	350	0.2	349	350	8.5	88.8
2025-10-23T18:40	10	-2	0.1	-2	-2	350	0.2	349	350	8.5	88.8
2025-10-23T18:41	10	-2	0.1	-2	-1	350	0.2	349	350	8.5	89.6
2025-10-23T18:42	10	-2	0.1	-2	-1	350	0.2	349	350	8.4	89.8
2025-10-23T18:43	10	-2	0.1	-2	-1	350	0.2	350	351	8.6	88.4
2025-10-23T18:44	10	-2	0.1	-2	-1	350	0.2	350	351	8.6	87.8
2025-10-23T18:45	10	-2	0.1	-2	-1	350	0.2	350	351	8.7	87.4
2025-10-23T18:46	10	-2	0.1	-2	-1	350	0.3	350	351	8.8	86.1
2025-10-23T18:47	10	-1	0.1	-2	-1	351	0.2	350	351	8.9	85.5
2025-10-23T18:48	10	-1	0.1	-2	-1	350	0.2	350	351	8.8	86.1
2025-10-23T18:49	10	-1	0.1	-1	-1	350	0.2	350	351	8.9	85.7
2025-10-23T18:50	10	-1	0.1	-1	-1	351	0.2	350	351	8.9	85.6
2025-10-23T18:51	10	-1	0.1	-1	-1	350	0.3	350	351	8.9	84.1
2025-10-23T18:52	10	-1	0.1	-1	-1	350	0.2	350	351	8.9	85.6
2025-10-23T18:53	10	-1	0.1	-1	-1	350	0.2	350	351	8.9	85.6
2025-10-23T18:54	10	-1	0.1	-1	-1	350	0.2	350	351	8.9	85.6
2025-10-23T18:55	10	-1	0.1	-1	-1	351	0.2	350	351	8.9	85.6
2025-10-23T18:56	10	-1	0.1	-1	-1	351	0.2	350	351	8.9	85.6
2025-10-23T18:57	10	-1	0.1	-1	-1	351	0.2	351	352	8.9	84.7
2025-10-23T18:58	10	-1	0.1	-1	-1	351	0.3	351	352	8.9	85.5
2025-10-23T18:59	10	-1	0.1	-2	-1	351	0.4	350	352	8.8	86.4
2025-10-23T19:00	10	-2	0.1	-2	-1	350	0.3	350	351	8.7	87.7
2025-10-23T19:01	10	-2	0.1	-2	-2	351	0.2	351	352	8.8	86.8
2025-10-23T19:02	10	-2	0.1	-2	-2	351	0.2	351	351	8.9	86.1
2025-10-23T19:03	10	-2	0.1	-2	-2	351	0.2	350	351	8.7	87.8
2025-10-23T19:04	10	-2	0.1	-2	-2	351	0.2	350	351	8.6	89.2
2025-10-23T19:05	10	-2	0.0	-2	-2	351	0.2	350	351	8.6	90.0
2025-10-23T19:06	10	-2	0.1	-2	-2	350	0.3	350	351	8.6	89.7
2025-10-23T19:07	10	-2	0.1	-2	-2	350	0.2	350	351	8.6	89.9
2025-10-23T19:08	10	-2	0.1	-2	-2	350	0.2	350	351	8.5	90.5
2025-10-23T19:09	10	-2	0.1	-2	-2	350	0.2	350	351	8.5	91.1
2025-10-23T19:10	10	-2	0.1	-2	-1	350	0.2	350	351	8.5	90.4
2025-10-23T19:11	10	-2	0.1	-2	-1	350	0.3	349	351	8.4	91.2
2025-10-23T19:12	10	-1	0.1	-2	-1	350	0.2	350	350	8.4	91.2
2025-10-23T19:13	10	-1	0.1	-2	-1	350	0.2	349	350	8.4	91.3
2025-10-23T19:14	10	-1	0.1	-1	-1	350	0.3	349	350	8.5	90.1
2025-10-23T19:15	10	-1	0.1	-1	-1	350	0.3	349	350	8.5	90.5
2025-10-23T19:16	10	-1	0.1	-1	-1	349	0.3	348	350	8.5	90.3
2025-10-23T19:17	10	-1	0.1	-1	-1	349	0.3	349	350	8.5	90.1
2025-10-23T19:18	10	-1	0.1	-1	-1	349	0.2	349	350	8.5	90.2
2025-10-23T19:19	10	-1	0.1	-1	-1	350	0.2	349	350	8.6	89.7
2025-10-23T19:20	10	-1	0.0	-1	-1	350	0.2	350	351	8.5	90.2
2025-10-23T19:21	10	-1	0.1	-1	-1	350	0.3	349	351	8.4	91.1
2025-10-23T19:22	10	-1	0.1	-1	-1	350	0.2	349	350	8.4	91.2
2025-10-23T19:23	10	-1	0.1	-1	-1	350	0.2	350	351	8.4	91.2
2025-10-23T19:24	10	-1	0.1	-1	-1	350	0.2	350	351	8.5	90.4
2025-10-23T19:25	10	-1	0.1	-1	-1	350	0.2	350	351	8.5	90.8
2025-10-23T19:26	10	-1	0.1	-1	-1	350	0.2	350	351	8.5	90.0
2025-10-23T19:27	10	-1	0.0	-1	-1	350	0.2	349	350	8.5	90.7
2025-10-23T19:28	10	-1	0.0	-1	-1	350	0.2	349	350	8.4	90.9
2025-10-23T19:29	10	-1	0.1	-1	-1	350	0.2	350	351	8.6	89.4
2025-10-23T19:30	10	-1	0.0	-1	-1	350	0.2	350	351	8.6	89.1
2025-10-23T19:31	10	-1	0.1	-1	-1	350	0.2	350	351	8.6	89.2
2025-10-23T19:32	10	-1	0.1	-1	-1	350	0.3	350	351	8.6	89.4
2025-10-23T19:33	10	-1	0.1	-1	-1	350	0.2	350	351	8.6	89.6
2025-10-23T19:34	10	-1	0.1	-1	-1	350	0.2	350	351	8.7	88.4
2025-10-23T19:35	10	-1	0.1	-1	-1	350	0.3	350	351	8.7	88.5
2025-10-23T19:36	10	-1	0.1	-1	0	350	0.2	350	351	8.7	88.6
2025-10-23T19:37	10	-1	0.1	-1	0	351	0.2	350	351	8.7	88.5
2025-10-23T19:38	10	-1	0.1	-1	0	351	0.3	350	351	8.7	88.4
2025-10-23T19:39	10	-1	0.1	-1	0	351	0.2	350	351	8.8	87.6
2025-10-23T19:40	10	-1	0.1	-1	0	351	0.3	350	351	8.8	87.1
2025-10-23T19:41	10	-1	0.1	-1	0	351	0.2	350	351	8.9	86.8
2025-10-23T19:42	10	-1	0.1	-1	-1	351	0.3	350	351	8.8	87.0
2025-10-23T19:43	10	-1	0.1	-1	-1	351	0.2	350	352	8.8	87.8
2025-10-23T19:44	10	-1	0.1	-1	-1	351	0.3	350	352	8.9	85.8
2025-10-23T19:45	10	-1	0.1	-1	-1	351	0.3	350	352	9.0	85.6
2025-10-23T19:46	10	-1	0.1	-2	-1	351	0.2	350	351	8.9	86.1
2025-10-23T19:47	10	-2	0.1	-2	-1	351	0.3	350	351	8.8	86.8
2025-10-23T19:48	10	-2	0.1	-2	-2	351	0.2	350	351	8.8	87.1
2025-10-23T19:49	10	-2	0.1	-2	-2	351	0.2	350	351	8.8	87.0
2025-10-23T19:50	10	-2	0.1	-2	-2	351	0.3	350	351	8.9	85.9
2025-10-23T19:51	10	-2	0.1	-2	-2	351	0.2	350	351	8.9	86.4
2025-10-23T19:52	10	-2	0.1	-2	-1	351	0.2	351	351	8.9	85.7
2025-10-23T19:53	10	-1	0.1	-2	-1	351	0.2	350	351	8.9	85.7
2025-10-23T19:54	10	-1	0.1	-2	-1	351	0.2	350	351	8.9	86.0
2025-10-23T19:55	10	-1	0.1	-2	-1	351	0.3	350	351	8.8	87.3
2025-10-23T19:56	10	-1	0.1	-1	-1	351	0.3	350	351	8.8	87.5
2025-10-23T19:57	10	-1	0.1	-1	-1	351	0.2	351	351	8.8	87.6
2025-10-23T19:58	10	-1	0.1	-1	-1	351	0.3	350	351	8.8	87.9
2025-10-23T19:59	10	-1	0.1	-1	-1	351	0.2	350	351	8.8	87.7
2025-10-23T20:00	10	-1	0.1	-1	-1	351	0.2	350	351	8.8	87.9
2025-10-23T20:01	10	-1	0.1	-1	-1	350	0.2	350	351	8.7	88.8
2025-10-23T20:02	10	-1	0.1	-1	-1	350	0.3	350	351	8.7	87.9
2025-10-23T20:03	10	-1	0.1	-1	-1	350	0.2	350	351	8.7	87.9
2025-10-23T20:04	10	-1	0.1	-2	-1	350	0.2	350	351	8.8	87.9
2025-10-23T20:05	10	-2	0.1	-2	-2	350	0.2	350	351	8.7	88.1
2025-10-23T20:06	10	-2	0.1	-2	-2	350	0.2	350	351	8.7	88.1
2025-10-23T20:07	10	-2	0.1	-2	-2	350	0.3	350	351	8.6	89.7
2025-10-23T20:08	10	-2	0.1	-2	-2	350	0.2	349	350	8.5	90.5
2025-10-23T20:09	10	-2	0.1	-2	-2	350	0.3	349	350	8.4	90.6
2025-10-23T20:10	10	-2	0.1	-2	-2	350	0.2	349	350	8.4	91.4
2025-10-23T20:11	10	-2	0.1	-2	-2	349	0.2	349	350	8.3	92.6
2025-10-23T20:12	10	-2	0.1	-2	-2	349	0.3	349	350	8.3	90.5
2025-10-23T20:13	10	-2	0.1	-2	-2	349	0.3	348	349	8.3	90.0
2025-10-23T20:14	10	-2	0.1	-3	-2	349	0.3	348	349	8.2	90.8
2025-10-23T20:15	10	-2	0.1	-3	-2	348	0.4	348	349	8.1	92.2
2025-10-23T20:16	10	-2	0.1	-2	-2	348	0.2	348	349	8.1	92.7
2025-10-23T20:17	10	-2	0.1	-2	-2	348	0.2	348	349	8.1	92.3
2025-10-23T20:18	10	-2	0.1	-2	-2	349	0.3	348	349	8.4	87.0
2025-10-23T20:19	10	-2	0.1	-2	-2	348	0.2	348	349	8.7	81.2
2025-10-23T20:20	10	-2	0.1	-3	-2	348	0.2	348	349	8.6	81.1
2025-10-23T20:21	10	-2	0.1	-3	-2	348	0.2	348	348	8.5	82.8
2025-10-23T20:22	10	-2	0.1	-3	-2	348	0.2	348	348	8.6	82.7
2025-10-23T20:23	10	-2	0.1	-3	-2	348	0.2	348	348	8.6	82.5
2025-10-23T20:24	10	-2	0.1	-3	-2	348	0.3	347	348	8.4	84.3
2025-10-23T20:25	10	-2	0.1	-2	-2	348	0.2	348	349	8.4	84.9
2025-10-23T20:26	10	-2	0.1	-2	-2	348	0.2	348	348	8.4	84.0
2025-10-23T20:27	10	-2	0.1	-2	-2	348	0.2	348	349	8.4	85.6
2025-10-23T20:28	10	-2	0.1	-2	-2	348	0.4	347	349	8.5	83.4
2025-10-23T20:29	10	-2	0.1	-2	-2	348	0.2	347	348	8.4	83.4
2025-10-23T20:30	10	-2	0.1	-2	-2	347	0.2	347	348	8.4	81.7
2025-10-23T20:31	10	-2	0.1	-2	-2	347	0.2	347	348	8.3	81.9
2025-10-23T20:32	10	-2	0.1	-2	-2	347	0.4	346	347	8.2	79.1
2025-10-23T20:33	10	-2	0.1	-3	-2	346	0.3	345	347	8.1	78.8
2025-10-23T20:34	10	-3	0.1	-3	-2	345	0.2	345	346	8.0	80.1
2025-10-23T20:35	10	-3	0.1	-3	-2	345	0.3	344	346	7.9	79.7
2025-10-23T20:36	10	-3	0.1	-3	-2	345	0.3	344	346	7.8	80.9
2025-10-23T20:37	10	-3	0.1	-3	-2	345	0.3	344	345	7.8	80.8
2025-10-23T20:38	10	-2	0.1	-3	-2	344	0.2	344	345	7.7	81.3
2025-10-23T20:39	10	-2	0.1	-2	-2	344	0.3	343	345	7.7	80.8
2025-10-23T20:40	10	-2	0.1	-2	-2	344	0.3	343	345	7.6	80.2
2025-10-23T20:41	10	-2	0.1	-2	-2	344	0.2	343	344	7.5	81.7
2025-10-23T20:42	10	-2	0.1	-2	-2	344	0.2	343	344	7.5	81.9
2025-10-23T20:43	10	-2	0.1	-2	-2	344	0.2	343	344	7.5	80.8
2025-10-23T20:44	10	-2	0.1	-2	-1	343	0.2	343	344	7.5	80.2
2025-10-23T20:45	10	-2	0.1	-2	-1	343	0.2	343	344	7.5	79.7
2025-10-23T20:46	10	-1	0.1	-2	-1	343	0.2	343	344	7.4	81.0
2025-10-23T20:47	10	-1	0.1	-2	-1	343	0.2	343	344	7.4	80.5
2025-10-23T20:48	10	-1	0.1	-2	-1	343	0.2	343	344	7.4	79.9
2025-10-23T20:49	10	-1	0.1	-2	-1	343	0.2	342	343	7.4	79.8
2025-10-23T20:50	10	-1	0.0	-2	-1	343	0.3	342	343	7.4	79.6
2025-10-23T20:51	10	-1	0.1	-2	-1	343	0.3	342	343	7.3	80.1
2025-10-23T20:52	10	-1	0.1	-2	-1	343	0.2	342	343	7.3	81.0
2025-10-23T20:53	10	-1	0.1	-2	-1	342	0.3	342	343	7.2	81.6
2025-10-23T20:54	10	-1	0.1	-1	-1	343	0.2	342	343	7.2	81.7
2025-10-23T20:55	10	-1	0.1	-1	-1	343	0.3	342	343	7.3	80.9
2025-10-23T20:56	10	-1	0.1	-1	-1	343	0.3	342	343	7.3	80.7
2025-10-23T20:57	10	-1	0.1	-1	-1	343	0.3	342	343	7.4	78.8
2025-10-23T20:58	10	-1	0.1	-1	-1	343	0.3	342	344	7.6	77.5
2025-10-23T20:59	10	-1	0.1	-1	-1	344	0.5	343	344	8.0	74.3
2025-10-23T21:00	10	-1	0.1	-1	-1	344	0.3	343	344	8.1	73.3
2025-10-23T21:01	10	-1	0.1	-1	-1	344	0.3	343	344	8.0	73.9
2025-10-23T21:02	10	-1	0.1	-1	-1	344	0.3	343	344	8.1	73.4
2025-10-23T21:03	10	-1	0.1	-1	-1	344	0.3	343	344	8.1	73.7
2025-10-23T21:04	10	-1	0.1	-1	0	344	0.4	343	345	8.2	73.0
2025-10-23T21:05	10	0	0.1	-1	0	344	0.2	344	345	8.5	71.1
2025-10-23T21:06	10	0	0.1	-1	0	345	0.4	344	345	8.6	69.9
2025-10-23T21:07	10	0	0.1	0	0	345	0.3	345	346	9.0	66.2
2025-10-23T21:08	10	0	0.0	0	0	345	0.3	344	346	9.0	66.8
2025-10-23T21:09	10	0	0.1	0	0	345	0.3	344	345	8.7	69.5
2025-10-23T21:10	10	0	0.1	0	0	345	0.4	344	345	8.7	69.6
2025-10-23T21:11	10	0	0.1	0	0	345	0.3	344	345	8.7	70.1
2025-10-23T21:12	10	0	0.1	0	0	345	0.3	344	345	8.8	68.1
2025-10-23T21:13	10	0	0.1	0	0	345	0.2	344	345	8.9	67.5
2025-10-23T21:14	10	0	0.1	0	0	344	0.3	344	345	9.0	67.1
2025-10-23T21:15	10	0	0.1	0	0	345	0.2	344	345	9.1	66.3
2025-10-23T21:16	10	0	0.0	0	0	344	0.4	343	345	9.0	66.6
2025-10-23T21:17	10	0	0.1	-1	0	344	0.2	343	344	8.9	68.1
2025-10-23T21:18	10	0	0.1	-1	0	344	0.2	343	344	8.8	68.3
2025-10-23T21:19	10	0	0.1	-1	0	345	0.4	344	345	9.2	64.1
2025-10-23T21:20	10	0	0.0	0	0	344	0.3	344	345	9.2	64.9
2025-10-23T21:21	10	0	0.1	-1	0	344	0.3	343	345	9.0	66.8
2025-10-23T21:22	10	0	0.1	-1	0	345	0.2	344	345	9.0	66.2
2025-10-23T21:23	10	0	0.1	-1	0	345	0.4	344	345	9.1	65.5
2025-10-23T21:24	10	0	0.1	-1	0	344	0.3	344	345	9.0	66.0
2025-10-23T21:25	10	0	0.1	0	0	344	0.2	344	345	9.0	65.9
2025-10-23T21:26	10	0	0.1	-1	0	345	0.3	344	345	9.0	65.8
2025-10-23T21:27	10	0	0.1	-1	0	345	0.6	343	345	8.9	67.3
2025-10-23T21:28	10	0	0.1	-1	0	344	0.9	342	345	8.5	71.6
2025-10-23T21:29	10	-1	0.1	-1	0	343	0.4	341	343	7.7	78.7
2025-10-23T21:30	10	-1	0.1	-1	0	342	0.3	342	343	7.7	78.3
2025-10-23T21:31	10	-1	0.1	-1	-1	343	0.3	342	343	7.6	79.2
2025-10-23T21:32	10	-1	0.1	-1	-1	343	0.3	342	343	7.6	79.4
2025-10-23T21:33	10	-1	0.1	-1	-1	343	0.5	342	344	7.6	79.7
2025-10-23T21:34	10	-1	0.1	-1	-1	343	0.5	342	344	7.7	79.1
2025-10-23T21:35	10	-1	0.1	-1	-1	344	0.4	343	345	8.2	74.5
2025-10-23T21:36	10	-1	0.1	-1	0	344	0.5	343	345	8.0	76.8
2025-10-23T21:37	10	-1	0.1	-1	-1	345	0.3	344	345	8.1	75.5
2025-10-23T21:38	10	-1	0.1	-1	0	345	0.4	344	346	8.3	73.9
2025-10-23T21:39	10	-1	0.1	-1	-1	345	0.2	345	346	8.3	73.2
2025-10-23T21:40	10	-1	0.1	-1	-1	345	0.3	344	346	8.1	75.3
2025-10-23T21:41	10	-1	0.1	-1	-1	345	0.3	344	345	7.9	76.7
2025-10-23T21:42	10	-1	0.1	-1	-1	344	0.3	344	345	7.8	78.0
2025-10-23T21:43	10	-1	0.1	-1	-1	344	0.3	344	345	7.8	78.2
2025-10-23T21:44	10	-1	0.1	-1	-1	344	0.2	343	344	7.7	78.4
2025-10-23T21:45	10	-1	0.1	-1	-1	344	0.2	343	344	7.6	79.6
2025-10-23T21:46	10	-1	0.1	-1	-1	344	0.2	343	344	7.6	79.2
2025-10-23T21:47	10	-1	0.1	-1	-1	343	0.2	343	344	7.6	79.8
2025-10-23T21:48	10	-1	0.1	-1	-1	343	0.3	343	344	7.5	80.7
2025-10-23T21:49	10	-1	0.1	-1	-1	344	0.2	343	344	7.5	81.2
2025-10-23T21:50	10	-1	0.1	-1	-1	344	0.3	343	344	7.5	80.4
2025-10-23T21:51	10	-1	0.1	-1	-1	344	0.4	343	344	7.5	80.9
2025-10-23T21:52	10	-1	0.1	-1	-1	344	0.2	343	344	7.4	81.7
2025-10-23T21:53	10	-1	0.1	-1	0	344	0.3	343	344	7.4	82.5
2025-10-23T21:54	10	-1	0.0	-1	0	344	0.2	344	344	7.4	82.8
2025-10-23T21:55	10	-1	0.1	-1	0	344	0.3	343	345	7.5	82.4
2025-10-23T21:56	10	-1	0.1	-1	0	344	0.2	344	345	7.6	81.7
2025-10-23T21:57	10	-1	0.1	-1	0	344	0.2	344	345	7.5	82.0
2025-10-23T21:58	10	-1	0.1	-1	-1	344	0.3	343	345	7.5	82.8
2025-10-23T21:59	10	-1	0.1	-1	-1	344	0.2	344	344	7.5	82.8
2025-10-23T22:00	10	-1	0.1	-2	-1	344	0.3	343	344	7.4	82.3
2025-10-23T22:01	10	-2	0.1	-2	-1	344	0.2	343	344	7.5	80.8
2025-10-23T22:02	10	-2	0.1	-2	-2	343	0.3	343	344	7.3	82.7
2025-10-23T22:03	10	-2	0.1	-2	-2	343	0.2	343	344	7.2	84.4
2025-10-23T22:04	10	-2	0.1	-2	-2	343	0.2	342	343	7.1	85.4
2025-10-23T22:05	10	-2	0.1	-2	-2	343	0.3	342	344	7.0	85.7
2025-10-23T22:06	10	-2	0.0	-2	-2	343	0.2	342	343	7.1	85.0
2025-10-23T22:07	10	-2	0.1	-2	-2	343	0.2	342	343	7.0	85.9
2025-10-23T22:08	10	-2	0.1	-2	-2	343	0.3	342	343	6.9	86.9
2025-10-23T22:09	10	-2	0.1	-2	-2	343	0.2	342	343	6.9	87.8
2025-10-23T22:10	10	-2	0.1	-2	-2	342	0.2	342	343	6.8	88.8
2025-10-23T22:11	10	-2	0.1	-2	-1	342	0.2	342	343	6.7	89.3
2025-10-23T22:12	10	-1	0.1	-2	-1	342	0.3	342	343	6.8	89.0
2025-10-23T22:13	10	-1	0.1	-1	-1	342	0.2	342	343	6.8	88.2
2025-10-23T22:14	10	-1	0.1	-1	-1	342	0.2	342	343	6.9	87.5
2025-10-23T22:15	10	-1	0.1	-1	-1	343	0.2	342	343	6.8	88.5
2025-10-23T22:16	10	-1	0.1	-1	-1	343	0.2	342	343	6.8	88.2
2025-10-23T22:17	10	-1	0.1	-1	-1	343	0.3	342	343	6.9	88.2
2025-10-23T22:18	10	-1	0.1	-1	-1	342	0.2	342	343	6.8	88.7
2025-10-23T22:19	10	-1	0.1	-1	-1	342	0.2	342	343	6.8	89.1
2025-10-23T22:20	10	-1	0.1	-1	-1	342	0.2	342	343	6.8	89.3
2025-10-23T22:21	10	-1	0.1	-1	-1	343	0.3	342	343	6.8	89.4
2025-10-23T22:22	10	-1	0.0	-1	-1	342	0.2	342	343	6.8	89.6
2025-10-23T22:23	10	-1	0.1	-1	0	343	0.3	342	344	6.8	89.6
2025-10-23T22:24	10	0	0.1	-1	0	343	0.2	342	343	6.9	88.6
2025-10-23T22:25	10	0	0.1	-1	0	343	0.2	342	343	6.8	89.3
2025-10-23T22:26	10	0	0.1	0	0	343	0.2	342	343	6.8	89.8
2025-10-23T22:27	10	0	0.1	-1	0	343	0.3	342	343	6.8	89.0
2025-10-23T22:28	10	0	0.1	-1	0	343	0.3	342	343	7.0	88.0
2025-10-23T22:29	10	0	0.1	-1	0	343	0.2	342	343	6.9	88.3
2025-10-23T22:30	10	0	0.1	-1	0	343	0.2	342	343	7.0	87.8
2025-10-23T22:31	10	0	0.1	-1	0	343	0.2	342	343	6.9	88.8
2025-10-23T22:32	10	0	0.1	-1	0	343	0.3	342	344	7.0	88.0
2025-10-23T22:33	10	-1	0.1	-1	0	343	0.2	343	343	7.0	87.3
2025-10-23T22:34	10	-1	0.1	-1	0	343	0.2	342	344	7.1	86.2
2025-10-23T22:35	10	-1	0.1	-1	-1	343	0.3	342	343	7.2	85.2
2025-10-23T22:36	10	-1	0.1	-1	-1	343	0.2	343	344	7.2	84.7
2025-10-23T22:37	10	-1	0.1	-1	-1	343	0.3	342	344	7.2	84.8
2025-10-23T22:38	10	-1	0.1	-1	0	343	0.3	343	344	7.3	84.1
2025-10-23T22:39	10	0	0.1	-1	0	343	0.3	343	344	7.4	83.4
2025-10-23T22:40	10	0	0.1	0	0	343	0.2	343	344	7.3	83.8
2025-10-23T22:41	10	0	0.1	0	0	343	0.2	343	343	7.4	83.5
2025-10-23T22:42	10	0	0.1	0	0	343	0.3	342	344	7.4	83.3
2025-10-23T22:43	10	0	0.1	0	0	343	0.2	343	344	7.5	81.6
2025-10-23T22:44	10	0	0.1	0	0	343	0.2	343	344	7.7	79.6
2025-10-23T22:45	10	0	0.1	0	0	343	0.2	343	344	7.7	80.2
2025-10-23T22:46	10	0	0.1	0	0	343	0.2	342	344	7.8	78.2
2025-10-23T22:47	10	0	0.1	0	0	343	0.3	342	344	7.9	77.5
2025-10-23T22:48	10	0	0.1	0	0	344	0.2	343	344	8.0	76.1
2025-10-23T22:49	10	0	0.1	0	0	344	0.2	343	344	8.2	74.1
2025-10-23T22:50	10	0	0.1	0	0	344	0.2	343	344	8.2	74.5
2025-10-23T22:51	10	0	0.1	0	0	344	0.3	344	345	8.1	74.7
2025-10-23T22:52	10	0	0.1	0	0	344	0.3	343	344	8.1	75.5
2025-10-23T22:53	10	0	0.1	0	0	344	0.2	344	345	8.2	73.6
2025-10-23T22:54	10	0	0.1	-1	0	344	0.3	344	345	8.2	73.9
2025-10-23T22:55	10	0	0.1	0	0	344	0.3	344	345	8.4	72.1
2025-10-23T22:56	10	0	0.1	-1	0	344	0.2	344	345	8.3	73.1
2025-10-23T22:57	10	0	0.1	-1	0	344	0.4	343	345	8.3	73.2
2025-10-23T22:58	10	0	0.1	-1	0	344	0.3	343	345	8.2	74.7
2025-10-23T22:59	10	0	0.1	-1	0	344	0.3	344	345	8.3	73.2
2025-10-23T23:00	10	-1	0.1	-1	0	345	0.3	344	345	8.3	73.5
2025-10-23T23:01	10	-1	0.0	-1	0	345	0.3	344	345	8.3	73.2
2025-10-23T23:02	10	-1	0.1	-1	0	345	0.2	344	345	8.2	74.3
2025-10-23T23:03	10	0	0.1	-1	0	344	0.2	344	345	8.2	74.3
2025-10-23T23:04	10	0	0.1	-1	0	345	0.3	344	345	8.2	74.2
2025-10-23T23:05	10	0	0.1	-1	0	345	0.2	344	345	8.3	73.9
2025-10-23T23:06	10	0	0.0	-1	0	345	0.2	344	345	8.2	74.6
2025-10-23T23:07	10	0	0.1	-1	0	345	0.2	344	345	8.2	75.0
2025-10-23T23:08	10	0	0.1	-1	0	345	0.2	344	345	8.2	74.4
2025-10-23T23:09	10	0	0.1	-1	0	345	0.2	344	345	8.2	74.6
2025-10-23T23:10	10	0	0.1	-1	0	345	0.2	344	345	8.2	75.4
2025-10-23T23:11	10	0	0.1	-1	0	345	0.2	344	345	8.2	74.6
2025-10-23T23:12	10	0	0.1	-1	0	345	0.2	344	345	8.4	72.7
2025-10-23T23:13	10	-1	0.1	-1	0	344	0.3	344	345	8.4	72.3
2025-10-23T23:14	10	-1	0.1	-1	0	344	0.2	344	345	8.4	72.4
2025-10-23T23:15	10	-1	0.1	-1	-1	344	0.3	344	345	8.5	71.9
2025-10-23T23:16	10	-1	0.1	-1	0	344	0.2	344	345	8.4	72.3
2025-10-23T23:17	10	-1	0.1	-1	0	345	0.2	344	345	8.4	73.6
2025-10-23T23:18	10	-1	0.1	-1	0	344	0.2	344	345	8.3	73.9
2025-10-23T23:19	10	-1	0.1	-1	0	344	0.2	344	345	8.3	73.5
2025-10-23T23:20	10	0	0.1	-1	0	345	0.2	344	345	8.4	72.8
2025-10-23T23:21	10	0	0.1	-1	0	344	0.2	344	345	8.4	73.4
2025-10-23T23:22	10	0	0.0	0	0	344	0.4	343	345	8.4	74.0
2025-10-23T23:23	10	0	0.1	0	0	343	0.3	343	344	8.2	76.0
2025-10-23T23:24	10	0	0.1	0	0	344	0.4	344	345	8.5	70.9
2025-10-23T23:25	10	0	0.1	-1	0	345	0.3	344	345	8.5	71.6
2025-10-23T23:26	10	0	0.1	-1	0	345	0.3	344	345	8.4	72.4
2025-10-23T23:27	10	0	0.1	0	0	345	0.2	344	345	8.4	73.4
2025-10-23T23:28	10	0	0.1	-1	0	345	0.2	345	346	8.5	70.9
2025-10-23T23:29	10	0	0.1	-1	0	345	0.3	345	346	8.5	71.2
2025-10-23T23:30	10	-1	0.1	-1	0	345	0.2	345	346	8.4	72.6
2025-10-23T23:31	10	-1	0.1	-1	0	345	0.3	345	346	8.5	71.4
2025-10-23T23:32	10	-1	0.1	-1	0	345	0.3	345	346	8.5	71.1
2025-10-23T23:33	10	0	0.1	-1	0	346	0.2	345	346	8.5	70.4
2025-10-23T23:34	10	0	0.1	-1	0	345	0.3	345	346	8.5	71.5
2025-10-23T23:35	10	0	0.0	0	0	345	0.2	345	346	8.4	72.8
2025-10-23T23:36	10	0	0.1	0	0	345	0.3	345	346	8.4	72.8
2025-10-23T23:37	10	0	0.0	0	0	345	0.2	345	346	8.4	72.6
2025-10-23T23:38	10	0	0.1	0	0	345	0.2	345	346	8.4	72.5
2025-10-23T23:39	10	0	0.1	0	0	345	0.3	344	346	8.3	73.7
2025-10-23T23:40	10	0	0.1	0	0	345	0.2	345	346	8.3	74.3
2025-10-23T23:41	10	0	0.1	0	0	345	0.2	345	346	8.3	74.1
2025-10-23T23:42	10	0	0.1	0	0	345	0.2	345	346	8.3	73.8
2025-10-23T23:43	10	0	0.1	0	0	345	0.2	345	346	8.3	72.9
2025-10-23T23:44	10	0	0.1	-1	0	345	0.2	345	346	8.4	72.5
2025-10-23T23:45	10	0	0.1	-1	0	345	0.2	345	346	8.3	73.0
2025-10-23T23:46	10	0	0.0	-1	0	345	0.2	344	346	8.3	73.1
2025-10-23T23:47	10	0	0.1	-1	0	345	0.2	345	346	8.4	70.5
2025-10-23T23:48	10	0	0.1	-1	0	345	0.3	345	346	8.5	68.7
2025-10-23T23:49	10	0	0.1	-1	0	345	0.3	345	346	8.5	68.7
2025-10-23T23:50	10	-1	0.1	-1	0	345	0.2	344	345	8.3	70.6
2025-10-23T23:51	10	0	0.1	-1	0	345	0.2	344	345	8.3	70.4
2025-10-23T23:52	10	0	0.1	-1	0	345	0.2	344	345	8.4	69.5
2025-10-23T23:53	10	-1	0.1	-1	0	344	0.3	344	345	8.5	67.7
2025-10-23T23:54	10	0	0.1	-1	0	344	0.4	343	345	8.4	68.0
2025-10-23T23:55	10	0	0.1	-1	0	343	0.3	342	343	8.3	69.3
2025-10-23T23:56	10	0	0.1	-1	0	342	0.2	341	342	8.3	69.1
2025-10-23T23:57	10	0	0.1	-1	0	343	0.3	342	344	8.6	64.7
2025-10-23T23:58	10	-1	0.1	-1	0	342	0.2	342	343	8.5	65.8
2025-10-23T23:59	10	0	0.1	-1	0	342	0.2	342	343	8.3	67.5
2025-10-24T00:00	10	0	0.1	-1	0	342	0.3	342	343	8.3	67.5
2025-10-24T00:01	10	0	0.1	-1	0	343	0.2	342	343	8.3	68.0
2025-10-24T00:02	10	0	0.1	-1	0	343	0.2	342	343	8.2	69.2
2025-10-24T00:03	10	-1	0.1	-1	0	343	0.3	342	344	8.4	66.0
2025-10-24T00:04	10	-1	0.1	-1	-1	343	0.3	343	344	8.5	64.4
2025-10-24T00:05	10	-1	0.1	-1	-1	343	0.2	342	344	8.4	65.9
2025-10-24T00:06	10	-1	0.1	-1	-1	343	0.2	342	343	8.3	65.9
2025-10-24T00:07	10	-1	0.1	-1	-1	343	0.2	342	344	8.3	65.9
2025-10-24T00:08	10	-1	0.1	-1	-1	343	0.3	343	344	8.4	64.0
2025-10-24T00:09	10	-1	0.1	-1	-1	342	0.4	342	343	8.2	66.6
2025-10-24T00:10	10	-1	0.1	-1	-1	343	0.3	342	343	8.2	65.9
2025-10-24T00:11	10	-1	0.1	-1	-1	342	0.2	341	342	8.2	66.1
2025-10-24T00:12	10	-1	0.1	-1	-1	342	0.3	341	343	8.1	67.2
2025-10-24T00:13	10	-1	0.1	-1	-1	342	0.2	342	343	8.1	67.0
2025-10-24T00:14	10	-1	0.1	-1	0	343	0.3	342	343	8.2	65.6
2025-10-24T00:15	10	-1	0.1	-1	0	343	0.2	342	343	8.3	64.8
2025-10-24T00:16	10	-1	0.1	-1	0	343	0.2	343	343	8.4	64.2
2025-10-24T00:17	10	-1	0.1	-1	0	343	0.3	342	344	8.4	64.4
2025-10-24T00:18	10	-1	0.1	-1	-1	343	0.2	342	343	8.3	64.9
2025-10-24T00:19	10	-1	0.1	-1	-1	343	0.3	342	344	8.3	64.1
2025-10-24T00:20	10	-1	0.1	-1	-1	343	0.3	342	343	8.3	64.2
2025-10-24T00:21	10	-1	0.1	-1	-1	342	0.3	342	343	8.2	64.8
2025-10-24T00:22	10	-1	0.1	-1	-1	343	0.4	342	344	8.2	64.5
2025-10-24T00:23	10	-1	0.1	-1	-1	343	0.3	342	343	8.4	62.4
2025-10-24T00:24	10	-1	0.1	-1	-1	343	0.2	342	343	8.3	63.8
2025-10-24T00:25	10	-1	0.1	-1	-1	342	0.3	342	343	8.3	63.6
2025-10-24T00:26	10	-1	0.1	-1	-1	343	0.3	342	343	8.3	63.9
2025-10-24T00:27	10	-1	0.1	-1	-1	343	0.2	343	344	8.4	62.9
2025-10-24T00:28	10	-1	0.1	-1	0	343	0.3	342	344	8.3	64.6
2025-10-24T00:29	10	-1	0.1	-1	0	343	0.3	342	344	8.3	64.8
2025-10-24T00:30	10	0	0.1	-1	0	343	0.2	343	344	8.3	64.8
2025-10-24T00:31	10	0	0.1	-1	0	343	0.3	342	343	8.2	65.3
2025-10-24T00:32	10	0	0.1	-1	0	343	0.2	343	344	8.1	65.9
2025-10-24T00:33	10	0	0.1	-1	0	343	0.3	343	344	8.1	66.1
2025-10-24T00:34	10	0	0.1	0	0	343	0.3	343	344	8.2	65.1
2025-10-24T00:35	10	0	0.1	-1	0	343	0.2	343	344	8.1	65.9
2025-10-24T00:36	10	0	0.1	0	0	343	0.2	343	344	8.1	65.5
2025-10-24T00:37	10	0	0.1	0	0	343	0.3	343	344	8.1	65.8
2025-10-24T00:38	10	0	0.1	0	0	344	0.2	343	344	8.1	65.5
2025-10-24T00:39	10	0	0.1	0	0	343	0.2	343	344	8.1	65.4
2025-10-24T00:40	10	0	0.1	0	0	343	0.3	343	344	8.2	64.3
2025-10-24T00:41	10	0	0.1	0	0	343	0.3	343	344	8.1	65.6
2025-10-24T00:42	10	0	0.1	0	0	343	0.2	343	344	8.1	65.9
2025-10-24T00:43	10	0	0.1	-1	0	343	0.2	343	344	8.1	65.0
2025-10-24T00:44	10	0	0.1	-1	0	343	0.2	343	344	8.2	63.7
2025-10-24T00:45	10	-1	0.1	-1	-1	344	0.2	343	344	8.4	62.3
2025-10-24T00:46	10	-1	0.1	-1	-1	343	0.3	343	344	8.4	62.2
2025-10-24T00:47	10	-1	0.1	-1	-1	343	0.2	342	343	8.3	63.6
2025-10-24T00:48	10	-1	0.1	-1	-1	343	0.3	342	343	8.2	64.3
2025-10-24T00:49	10	-1	0.1	-1	-1	343	0.2	342	343	8.1	63.4
2025-10-24T00:50	10	-1	0.1	-1	-1	343	0.3	342	343	8.1	63.3
2025-10-24T00:51	10	-1	0.1	-1	-1	342	0.2	342	343	8.0	64.7
2025-10-24T00:52	10	-1	0.1	-1	-1	343	0.2	342	343	8.1	62.5
2025-10-24T00:53	10	-1	0.1	-1	-1	343	0.3	342	343	8.1	62.8
2025-10-24T00:54	10	-1	0.1	-1	-1	342	0.2	342	343	8.1	63.4
2025-10-24T00:55	10	-1	0.1	-2	-1	342	0.2	342	343	7.9	64.9
2025-10-24T00:56	10	-1	0.1	-1	-1	342	0.2	342	343	7.9	64.8
2025-10-24T00:57	10	-1	0.1	-2	-1	342	0.2	342	343	7.9	65.3
2025-10-24T00:58	10	-1	0.1	-2	-1	342	0.3	341	342	7.8	67.0
2025-10-24T00:59	10	-1	0.1	-1	-1	342	0.2	341	342	7.7	67.8
2025-10-24T01:00	10	-1	0.1	-1	-1	342	0.3	341	342	7.7	67.8
2025-10-24T01:01	10	-1	0.1	-1	-1	342	0.2	342	342	7.7	68.1
2025-10-24T01:02	10	-1	0.1	-1	-1	342	0.3	341	343	7.7	68.0
2025-10-24T01:03	10	-1	0.1	-1	-1	342	0.2	341	342	7.7	68.9
2025-10-24T01:04	10	-1	0.1	-1	-1	342	0.2	341	342	7.7	68.8
2025-10-24T01:05	10	-1	0.1	-1	-1	342	0.2	341	342	7.6	69.5
2025-10-24T01:06	10	-1	0.1	-1	-1	341	0.2	341	342	7.5	70.7
2025-10-24T01:07	10	-1	0.1	-1	-1	341	0.2	341	342	7.5	70.8
2025-10-24T01:08	10	-1	0.1	-1	-1	341	0.2	340	342	7.4	71.7
2025-10-24T01:09	10	-1	0.1	-1	-1	341	0.3	340	341	7.3	71.3
2025-10-24T01:10	10	-1	0.1	-1	-1	341	0.3	340	341	7.3	73.5
2025-10-24T01:11	10	-1	0.1	-1	-1	340	0.2	340	341	7.1	74.6
2025-10-24T01:12	10	-1	0.1	-1	-1	340	0.2	340	341	7.0	75.0
2025-10-24T01:13	10	-1	0.1	-1	-1	340	0.3	339	340	6.9	76.0
2025-10-24T01:14	10	-1	0.1	-1	-1	340	0.2	339	340	6.8	76.6
2025-10-24T01:15	10	-1	0.1	-2	-1	340	0.2	339	340	6.8	76.1
2025-10-24T01:16	10	-2	0.1	-2	-1	339	0.3	339	340	6.7	77.0
2025-10-24T01:17	10	-2	0.1	-2	-1	339	0.3	339	340	6.7	77.8
2025-10-24T01:18	10	-1	0.1	-2	-1	339	0.3	339	340	6.6	78.2
2025-10-24T01:19	10	-1	0.1	-1	-1	339	0.3	339	340	6.7	76.5
2025-10-24T01:20	10	-1	0.1	-1	-1	339	0.3	339	340	6.8	76.3
2025-10-24T01:21	10	-1	0.1	-1	-1	339	0.3	338	340	6.8	76.9
2025-10-24T01:22	10	-1	0.1	-1	-1	339	0.3	338	340	6.7	77.1
2025-10-24T01:23	10	-1	0.1	-1	-1	339	0.2	338	339	6.7	77.4
2025-10-24T01:24	10	-1	0.1	-1	0	338	0.2	338	338	6.7	77.9
2025-10-24T01:25	10	-1	0.1	-1	0	338	0.3	337	338	6.6	78.3
2025-10-24T01:26	10	0	0.1	-1	0	337	0.2	337	338	6.5	79.6
2025-10-24T01:27	10	0	0.1	0	0	337	0.2	337	338	6.4	80.6
2025-10-24T01:28	10	0	0.1	0	0	337	0.2	336	337	6.4	80.8
2025-10-24T01:29	10	0	0.1	-1	0	337	0.3	336	338	6.3	81.8
2025-10-24T01:30	10	0	0.1	-1	0	338	0.2	337	338	6.3	81.1
2025-10-24T01:31	10	0	0.1	-1	0	338	0.2	337	338	6.4	79.8
2025-10-24T01:32	10	0	0.1	-1	0	338	0.2	337	338	6.4	80.1
2025-10-24T01:33	10	0	0.1	0	0	338	0.3	337	338	6.4	79.2
2025-10-24T01:34	10	0	0.1	0	0	338	0.3	338	339	6.5	79.0
2025-10-24T01:35	10	0	0.1	0	0	338	0.2	338	339	6.5	79.6
2025-10-24T01:36	10	0	0.1	0	0	338	0.2	338	339	6.4	80.3
2025-10-24T01:37	10	0	0.0	0	0	338	0.2	338	339	6.4	79.5
2025-10-24T01:38	10	0	0.1	0	0	338	0.2	338	339	6.4	80.5
2025-10-24T01:39	10	0	0.1	0	0	338	0.2	338	339	6.4	80.5
2025-10-24T01:40	10	0	0.1	0	0	338	0.2	338	339	6.4	81.0
2025-10-24T01:41	10	0	0.1	0	0	338	0.3	337	339	6.3	81.4
2025-10-24T01:42	10	0	0.1	0	0	338	0.3	337	338	6.4	80.4
2025-10-24T01:43	10	0	0.1	0	0	337	0.3	337	338	6.4	80.7
2025-10-24T01:44	10	0	0.1	0	0	337	0.3	336	338	6.4	79.7
2025-10-24T01:45	10	0	0.1	0	0	338	0.2	337	338	6.5	79.6
2025-10-24T01:46	10	0	0.0	0	0	338	0.2	337	338	6.5	79.7
2025-10-24T01:47	10	0	0.1	0	0	338	0.2	338	339	6.6	78.9
2025-10-24T01:48	10	0	0.1	-1	0	339	0.2	338	339	6.6	78.9
2025-10-24T01:49	10	0	0.1	0	0	339	0.3	338	340	6.6	78.7
2025-10-24T01:50	10									6.7	78.0
2025-10-24T01:51	10									6.7	78.2
2025-10-24T01:52	10									6.7	78.1
2025-10-24T01:53	10									6.8	77.8
2025-10-24T01:54	10									6.7	78.4
2025-10-24T01:55	10									6.8	77.5
2025-10-24T01:56	10									7.0	76.0
2025-10-24T01:57	10									7.1	75.7
2025-10-24T01:58	10									7.0	76.4
2025-10-24T01:59	10									7.0	76.2
2025-10-24T02:00	10									7.0	76.6
2025-10-24T02:01	10									7.1	75.9
2025-10-24T02:02	10									7.1	75.7
2025-10-24T02:03	10									7.1	76.1
2025-10-24T02:04	10									7.0	77.2
2025-10-24T02:05	10									6.9	78.0
2025-10-24T02:06	10									6.9	78.2
2025-10-24T02:07	10									6.8	78.8
2025-10-24T02:08	10									6.7	79.2
2025-10-24T02:09	10									6.7	80.3
2025-10-24T02:10	10									6.6	80.6
2025-10-24T02:11	10									6.7	80.0
2025-10-24T02:12	10									6.7	79.9
2025-10-24T02:13	10									6.7	79.2
2025-10-24T02:14	10									6.7	79.6
2025-10-24T02:15	10									6.7	79.6
2025-10-24T02:16	10									6.7	79.4
2025-10-24T02:17	10									6.7	79.7
2025-10-24T02:18	10									6.7	80.4
2025-10-24T02:19	10									6.7	80.1
2025-10-24T02:20	10									6.7	79.5
2025-10-24T02:21	10									6.8	78.9
2025-10-24T02:22	10									6.9	77.5
2025-10-24T02:23	10									6.8	79.2
2025-10-24T02:24	10									6.8	79.6
2025-10-24T02:25	10									6.7	80.2
2025-10-24T02:26	10									6.6	81.3
2025-10-24T02:27	10									6.7	81.1
2025-10-24T02:28	10									6.7	81.0
2025-10-24T02:29	10									6.7	81.6
2025-10-24T02:30	10									6.8	80.4
2025-10-24T02:31	10									6.9	79.3
2025-10-24T02:32	10									6.9	79.2
2025-10-24T02:33	10									7.1	77.3
2025-10-24T02:34	10									7.1	77.1
2025-10-24T02:35	10									7.0	78.5
2025-10-24T02:36	10									7.1	77.4
2025-10-24T02:37	10									7.0	78.0
2025-10-24T02:38	10									7.1	77.3
2025-10-24T02:39	10									7.0	77.8
2025-10-24T02:40	10									6.9	79.1
2025-10-24T02:41	10									6.8	79.0
2025-10-24T02:42	10									6.7	79.7
2025-10-24T02:43	10									6.7	80.4
2025-10-24T02:44	10									6.7	80.9
2025-10-24T02:45	10									6.6	81.7
2025-10-24T02:46	10									6.6	81.5
2025-10-24T02:47	10									6.6	82.2
2025-10-24T02:48	10									6.7	82.1
2025-10-24T02:49	10									6.6	82.7
2025-10-24T02:50	10									6.7	82.4
2025-10-24T02:51	10									6.7	81.2
2025-10-24T02:52	10									6.7	81.8
2025-10-24T02:53	10									6.8	81.1
2025-10-24T02:54	10									6.8	80.8
2025-10-24T02:55	10									6.8	80.8
2025-10-24T02:56	10									6.8	81.7
2025-10-24T02:57	10									6.8	81.8
2025-10-24T02:58	10	-2	0.2	-2	-1	340	0.3	339	340	6.8	81.9
2025-10-24T02:59	10	-2	0.1	-2	-1	340	0.3	339	341	6.7	82.9
2025-10-24T03:00	10	-2	0.1	-2	-1	340	0.3	339	341	6.7	81.7
2025-10-24T03:01	10	-2	0.1	-2	-1	340	0.2	339	340	6.6	82.8
2025-10-24T03:02	10	-1	0.1	-2	-1	340	0.3	339	340	6.6	83.1
2025-10-24T03:03	10	-1	0.1	-2	-1	340	0.2	339	340	6.6	83.3
2025-10-24T03:04	10	-1	0.1	-2	-1	340	0.3	339	340	6.5	84.3
2025-10-24T03:05	10	-1	0.1	-1	-1	339	0.3	339	340	6.4	84.7
2025-10-24T03:06	10	-1	0.2	-1	0	339	0.2	339	340	6.4	84.6
2025-10-24T03:07	10	-1	0.1	-1	-1	339	0.3	339	340	6.4	84.3
2025-10-24T03:08	10	-1	0.1	-1	-1	339	0.2	339	340	6.5	83.9
2025-10-24T03:09	10	-1	0.2	-1	0	340	0.2	339	340	6.4	84.2
2025-10-24T03:10	10	-1	0.1	-1	-1	339	0.3	339	340	6.4	84.5
2025-10-24T03:11	10	-1	0.1	-1	-1	339	0.3	338	340	6.4	84.5
2025-10-24T03:12	10	-1	0.1	-1	-1	339	0.3	339	340	6.3	85.3
2025-10-24T03:13	10	-1	0.1	-1	-1	339	0.2	339	340	6.3	85.3
2025-10-24T03:14	10	-1	0.1	-1	-1	339	0.2	339	340	6.3	85.3
2025-10-24T03:15	10	-1	0.1	-1	-1	339	0.2	339	340	6.3	85.7
2025-10-24T03:16	10	-1	0.1	-1	-1	339	0.2	339	340	6.3	86.2
2025-10-24T03:17	10	-1	0.1	-1	-1	339	0.2	339	340	6.2	86.8
2025-10-24T03:18	10	-1	0.1	-1	-1	339	0.3	338	340	6.3	85.1
2025-10-24T03:19	10	-1	0.2	-2	-1	339	0.3	338	339	6.3	86.4
2025-10-24T03:20	10	-1	0.1	-1	-1	339	0.2	339	339	6.2	87.0
2025-10-24T03:21	10	-1	0.1	-1	-1	339	0.4	338	340	6.2	87.1
2025-10-24T03:22	10	-1	0.1	-1	-1	339	0.2	339	339	6.3	86.9
2025-10-24T03:23	10	-1	0.2	-1	-1	339	0.2	339	340	6.3	86.3
2025-10-24T03:24	10	-1	0.1	-1	-1	339	0.3	338	340	6.3	86.5
2025-10-24T03:25	10	-1	0.1	-1	-1	339	0.3	339	340	6.3	86.3
2025-10-24T03:26	10	-1	0.2	-2	-1	339	0.2	339	340	6.2	87.2
2025-10-24T03:27	10	-1	0.2	-2	-1	339	0.2	339	340	6.2	87.1
2025-10-24T03:28	10	-1	0.1	-2	-1	339	0.2	338	339	6.2	87.9
2025-10-24T03:29	10	-1	0.1	-2	-1	339	0.3	339	340	6.2	87.7
2025-10-24T03:30	10	-1	0.1	-1	-1	339	0.2	339	340	6.2	87.6
2025-10-24T03:31	10	-1	0.1	-1	-1	339	0.3	339	340	6.3	86.7
2025-10-24T03:32	10	-1	0.1	-1	-1	339	0.2	339	340	6.3	86.6
2025-10-24T03:33	10	-1	0.1	-1	-1	339	0.2	339	340	6.4	85.9
2025-10-24T03:34	10	-1	0.1	-1	-1	339	0.3	339	340	6.4	85.4
2025-10-24T03:35	10	-1	0.1	-2	-1	340	0.2	339	340	6.4	85.8
2025-10-24T03:36	10	-1	0.1	-2	-1	339	0.2	339	340	6.3	86.9
2025-10-24T03:37	10	-1	0.1	-2	-1	339	0.2	339	340	6.3	87.6
2025-10-24T03:38	10	-1	0.1	-2	-1	340	0.3	339	340	6.3	88.0
2025-10-24T03:39	10	-1	0.2	-1	-1	339	0.2	339	340	6.3	88.1
2025-10-24T03:40	10	-1	0.1	-1	-1	340	0.1	339	340	6.4	87.1
2025-10-24T03:41	10	-1	0.1	-1	-1	340	0.3	339	340	6.4	87.2
2025-10-24T03:42	10	-1	0.1	-1	-1	340	0.3	340	341	6.5	86.8
2025-10-24T03:43	10	-1	0.1	-2	-1	340	0.2	340	340	6.5	87.0
2025-10-24T03:44	10	-1	0.1	-1	-1	340	0.2	339	341	6.5	87.5
2025-10-24T03:45	10	-1	0.1	-1	-1	340	0.2	340	341	6.5	87.1
2025-10-24T03:46	10	-1	0.1	-1	-1	340	0.3	339	341	6.6	86.1
2025-10-24T03:47	10	-1	0.1	-1	-1	340	0.3	339	341	6.6	86.5
2025-10-24T03:48	10	-1	0.1	-1	-1	340	0.2	339	340	6.6	86.2
2025-10-24T03:49	10	-1	0.1	-1	0	340	0.2	339	340	6.6	86.3
2025-10-24T03:50	10	-1	0.1	-1	-1	339	0.2	339	340	6.5	86.9
2025-10-24T03:51	10	-1	0.1	-1	-1	340	0.2	339	340	6.6	86.3
2025-10-24T03:52	10	-1	0.1	-1	-1	339	0.2	339	340	6.6	85.7
2025-10-24T03:53	10	-1	0.1	-1	-1	339	0.2	339	340	6.6	86.5
2025-10-24T03:54	10	-1	0.1	-1	-1	339	0.2	339	340	6.5	87.7
2025-10-24T03:55	10	-1	0.1	-1	0	339	0.2	339	340	6.4	88.1
2025-10-24T03:56	10	-1	0.1	-1	0	339	0.2	339	340	6.4	89.1
2025-10-24T03:57	10	-1	0.1	-1	0	339	0.2	338	339	6.3	89.3
2025-10-24T03:58	10	0	0.1	-1	0	339	0.3	338	340	6.3	89.0
2025-10-24T03:59	10	-1	0.1	-1	0	339	0.2	338	339	6.4	88.7
2025-10-24T04:00	10	-1	0.1	-1	0	339	0.2	339	339	6.4	88.9
2025-10-24T04:01	10	-1	0.1	-1	-1	339	0.3	338	340	6.4	88.8
2025-10-24T04:02	10	-1	0.1	-1	-1	339	0.2	339	340	6.4	88.7
2025-10-24T04:03	10	-1	0.1	-1	-1	339	0.3	339	340	6.4	88.7
2025-10-24T04:04	10	-1	0.2	-1	0	339	0.3	338	340	6.4	88.3
2025-10-24T04:05	10	-1	0.1	-1	-1	339	0.2	339	340	6.6	87.2
2025-10-24T04:06	10	-1	0.1	-1	0	339	0.2	339	340	6.5	87.7
2025-10-24T04:07	10	-1	0.1	-1	-1	339	0.3	338	340	6.4	89.1
2025-10-24T04:08	10	-1	0.1	-1	0	339	0.3	338	339	6.4	88.9
2025-10-24T04:09	10	-1	0.1	-1	0	339	0.2	338	339	6.5	87.7
2025-10-24T04:10	10	-1	0.1	-1	0	339	0.2	338	339	6.5	88.0
2025-10-24T04:11	10	-1	0.1	-1	-1	339	0.3	338	339	6.6	86.9
2025-10-24T04:12	10	-1	0.1	-1	0	339	0.2	338	339	6.7	86.7
2025-10-24T04:13	10	-1	0.1	-1	0	339	0.2	338	339	6.6	87.6
2025-10-24T04:14	10	-1	0.1	-1	0	339	0.2	338	339	6.6	87.8
2025-10-24T04:15	10	-1	0.1	-1	0	339	0.3	338	339	6.6	87.3
2025-10-24T04:16	10	-1	0.1	-1	0	339	0.2	339	340	6.7	86.6
2025-10-24T04:17	10	-1	0.1	-1	0	339	0.2	338	339	6.7	86.9
2025-10-24T04:18	10	-1	0.1	-1	0	339	0.2	338	339	6.6	87.3
2025-10-24T04:19	10	-1	0.1	-1	0	339	0.2	338	339	6.7	87.1
2025-10-24T04:20	10	-1	0.1	-1	0	339	0.2	338	339	6.7	86.3
2025-10-24T04:21	10	-1	0.1	-1	0	339	0.2	338	339	6.7	86.8
2025-10-24T04:22	10	-1	0.1	-1	0	339	0.2	339	339	6.7	86.4
2025-10-24T04:23	10	-1	0.1	-1	-1	339	0.2	338	339	6.7	87.4
2025-10-24T04:24	10	-1	0.1	-1	0	339	0.2	338	339	6.7	86.2
2025-10-24T04:25	10	-1	0.1	-1	0	339	0.2	338	340	6.8	86.1
2025-10-24T04:26	10	-1	0.1	-1	-1	339	0.4	338	340	6.8	85.8
2025-10-24T04:27	10	-1	0.1	-1	0	339	0.2	338	339	6.7	86.3
2025-10-24T04:28	10	0	0.1	-1	0	339	0.3	338	339	6.8	85.9
2025-10-24T04:29	10	0	0.1	0	0	339	0.3	338	339	6.8	85.4
2025-10-24T04:30	10	0	0.1	-1	0	340	0.3	339	340	7.0	83.0
2025-10-24T04:31	10	-1	0.1	-1	0	339	0.2	339	340	7.0	83.3
2025-10-24T04:32	10	-1	0.1	-1	0	340	0.1	339	340	6.9	84.0
2025-10-24T04:33	10	-1	0.1	-1	0	339	0.2	339	340	6.9	84.4
2025-10-24T04:34	10	0	0.1	-1	0	340	0.2	339	340	6.9	83.6
2025-10-24T04:35	10	-1	0.1	-1	0	340	0.2	339	340	7.0	83.1
2025-10-24T04:36	10	-1	0.1	-1	0	340	0.3	339	340	7.0	83.3
2025-10-24T04:37	10	-1	0.1	-1	0	340	0.2	339	341	7.0	82.8
2025-10-24T04:38	10	-1	0.1	-1	0	340	0.4	339	341	7.0	82.8
2025-10-24T04:39	10	-1	0.1	-1	0	340	0.2	340	341	7.1	82.2
2025-10-24T04:40	10	-1	0.1	-1	0	340	0.2	339	341	7.0	83.6
2025-10-24T04:41	10	-1	0.1	-1	0	340	0.2	339	341	6.9	83.8
2025-10-24T04:42	10	0	0.1	-1	0	340	0.3	339	341	6.9	83.7
2025-10-24T04:43	10	0	0.1	-1	0	340	0.2	339	340	7.0	83.3
2025-10-24T04:44	10	0	0.1	-1	0	340	0.2	339	341	7.1	82.3
2025-10-24T04:45	10	-1	0.1	-1	0	340	0.3	339	341	7.1	82.0
2025-10-24T04:46	10	-1	0.1	-1	0	340	0.2	340	341	7.0	82.6
2025-10-24T04:47	10	-1	0.1	-1	0	340	0.3	340	341	7.0	82.5
2025-10-24T04:48	10	-1	0.1	-1	0	340	0.3	339	340	7.0	83.5
2025-10-24T04:49	10	0	0.0	-1	0	340	0.2	339	340	7.0	82.7
2025-10-24T04:50	10	-1	0.1	-1	0	340	0.2	339	340	7.0	82.7
2025-10-24T04:51	10	-1	0.1	-1	0	339	0.2	339	340	7.0	83.2
2025-10-24T04:52	10	-1	0.1	-1	0	340	0.3	339	340	7.0	82.6
2025-10-24T04:53	10	-1	0.1	-1	0	340	0.3	339	340	7.0	82.9
2025-10-24T04:54	10	-1	0.1	-1	0	339	0.2	339	340	7.0	83.2
2025-10-24T04:55	10	-1	0.1	-1	0	340	0.3	339	340	7.1	82.0
2025-10-24T04:56	10	-1	0.1	-1	0	340	0.2	339	341	7.1	81.6
2025-10-24T04:57	10	-1	0.1	-1	0	340	0.3	339	341	7.1	81.5
2025-10-24T04:58	10	-1	0.1	-1	-1	340	0.2	340	341	7.2	81.3
2025-10-24T04:59	10	-1	0.1	-1	-1	341	0.2	340	341	7.1	81.8
2025-10-24T05:00	10	-1	0.1	-1	-1	340	0.2	340	341	7.2	81.1
2025-10-24T05:01	10	-1	0.1	-1	0	340	0.3	340	341	7.1	82.0
2025-10-24T05:02	10	-1	0.1	-1	-1	340	0.3	339	341	7.1	82.1
2025-10-24T05:03	10	-1	0.1	-1	0	339	0.2	339	340	7.0	82.7
2025-10-24T05:04	10	-1	0.1	-1	0	340	0.3	339	340	7.2	81.1
2025-10-24T05:05	10	-1	0.1	-1	-1	340	0.2	339	340	7.2	81.2
2025-10-24T05:06	10	-1	0.1	-1	-1	340	0.2	339	340	7.1	81.5
2025-10-24T05:07	10	-1	0.1	-1	-1	340	0.2	339	340	7.1	81.5
2025-10-24T05:08	10	-1	0.1	-1	0	340	0.3	339	340	7.1	82.0
2025-10-24T05:09	10	-1	0.1	-1	0	339	0.2	339	340	7.0	82.4
2025-10-24T05:10	10	-1	0.1	-1	0	340	0.3	339	340	7.1	81.6
2025-10-24T05:11	10	-1	0.1	-1	0	340	0.3	339	340	7.1	81.1
2025-10-24T05:12	10	-1	0.1	-1	0	340	0.3	339	341	7.1	80.5
2025-10-24T05:13	10	-1	0.1	-1	-1	340	0.3	339	340	7.2	80.5
2025-10-24T05:14	10	-1	0.1	-1	-1	339	0.2	339	340	7.1	80.9
2025-10-24T05:15	10	-1	0.1	-1	-1	339	0.2	339	340	7.1	80.6
2025-10-24T05:16	10	-1	0.1	-1	-1	339	0.2	339	340	7.2	79.7
2025-10-24T05:17	10	-1	0.1	-1	-1	339	0.3	339	340	7.2	79.7
2025-10-24T05:18	10	-1	0.1	-1	-1	339	0.3	338	340	7.2	80.2
2025-10-24T05:19	10	-1	0.2	-1	-1	339	0.3	338	339	7.1	80.9
2025-10-24T05:20	10	-1	0.1	-1	-1	339	0.2	338	340	7.2	79.8
2025-10-24T05:21	10	-1	0.1	-1	-1	339	0.3	338	340	7.2	80.0
2025-10-24T05:22	10	-1	0.1	-1	-1	339	0.3	338	339	7.1	80.9
2025-10-24T05:23	10	-1	0.1	-1	-1	339	0.3	338	339	7.0	81.3
2025-10-24T05:24	10	-1	0.1	-1	-1	339	0.3	338	340	7.1	80.6
2025-10-24T05:25	10	-1	0.1	-1	-1	339	0.3	338	340	7.1	81.1
2025-10-24T05:26	10	-1	0.2	-1	-1	340	0.3	339	341	7.1	80.7
2025-10-24T05:27	10	-1	0.1	-2	-1	340	0.3	339	340	7.0	82.0
2025-10-24T05:28	10	-1	0.1	-2	-1	340	0.2	340	341	7.0	82.5
2025-10-24T05:29	10	-1	0.1	-2	-1	340	0.3	340	341	7.0	82.8
2025-10-24T05:30	10	-1	0.1	-1	-1	341	0.3	340	341	6.9	83.3
2025-10-24T05:31	10	-1	0.1	-2	-1	341	0.2	340	342	6.9	83.9
2025-10-24T05:32	10	-1	0.1	-2	-1	341	0.2	340	342	6.8	84.7
2025-10-24T05:33	10	-2	0.1	-2	-1	341	0.2	340	341	6.7	86.1
2025-10-24T05:34	10	-2	0.2	-2	-1	341	0.3	340	341	6.6	86.6
2025-10-24T05:35	10	-2	0.2	-2	-1	341	0.3	340	341	6.7	86.5
2025-10-24T05:36	10	-1	0.2	-2	-1	341	0.3	340	341	6.7	86.8
2025-10-24T05:37	10	-1	0.1	-2	-1	341	0.3	340	341	6.8	85.4
2025-10-24T05:38	10	-1	0.1	-2	-1	341	0.3	340	341	6.7	86.1
2025-10-24T05:39	10	-1	0.1	-1	-1	341	0.3	340	342	6.7	85.9
2025-10-24T05:40	10	-1	0.1	-1	-1	341	0.2	340	341	6.8	86.1
2025-10-24T05:41	10	-1	0.1	-1	0	341	0.4	340	342	6.7	86.5
2025-10-24T05:42	10	-1	0.1	-1	-1	341	0.2	341	342	6.8	86.2
2025-10-24T05:43	10	-1	0.1	-1	-1	341	0.3	340	342	6.8	86.0
2025-10-24T05:44	10	-1	0.2	-1	0	341	0.3	340	341	6.8	86.3
2025-10-24T05:45	10	-1	0.1	-1	-1	341	0.2	341	342	6.7	86.7
2025-10-24T05:46	10	-1	0.1	-1	-1	341	0.2	341	341	6.8	86.7
2025-10-24T05:47	10	-1	0.1	-1	0	341	0.2	340	341	6.7	87.3
2025-10-24T05:48	10	-1	0.1	-1	0	341	0.2	341	342	6.8	86.8
2025-10-24T05:49	10	-1	0.1	-1	0	341	0.3	340	342	6.8	86.5
2025-10-24T05:50	10	0	0.1	-1	0	341	0.2	341	342	6.8	86.4
2025-10-24T05:51	10	0	0.1	-1	0	341	0.2	341	342	6.8	86.8
2025-10-24T05:52	10	0	0.1	-1	0	341	0.3	341	342	6.8	86.3
2025-10-24T05:53	10	0	0.1	-1	0	341	0.2	341	342	6.8	86.2
2025-10-24T05:54	10	0	0.1	-1	0	341	0.2	341	342	6.8	86.8
2025-10-24T05:55	10	0	0.1	-1	0	341	0.2	341	342	6.8	86.9
2025-10-24T05:56	10	-1	0.2	-1	0	341	0.4	340	342	6.7	87.9
2025-10-24T05:57	10	-1	0.1	-1	0	341	0.3	341	342	6.8	85.8
2025-10-24T05:58	10	-1	0.2	-2	-1	341	0.2	341	342	6.9	85.7
2025-10-24T05:59	10	-2	0.2	-2	-2	342	0.3	341	342	6.9	85.9
2025-10-24T06:00	10	-2	0.1	-2	-2	342	0.3	341	342	6.9	86.2
2025-10-24T06:01	10	-2	0.1	-2	-2	342	0.2	341	342	6.9	86.3
2025-10-24T06:02	10	-2	0.1	-2	-2	342	0.1	341	342	6.8	86.8
2025-10-24T06:03	10	-2	0.1	-2	-2	341	0.3	340	342	6.8	87.0
2025-10-24T06:04	10	-2	0.1	-2	-2	342	0.3	341	343	6.7	88.2
2025-10-24T06:05	10	-2	0.1	-2	-1	341	0.2	341	342	6.7	87.8
2025-10-24T06:06	10	-2	0.1	-2	-1	341	0.2	340	342	6.6	89.2
2025-10-24T06:07	10	-1	0.1	-2	-1	341	0.3	341	342	6.6	89.3
2025-10-24T06:08	10	-1	0.1	-2	-1	341	0.2	341	342	6.7	88.1
2025-10-24T06:09	10	-1	0.1	-2	-1	341	0.3	340	341	6.7	88.3
2025-10-24T06:10	10	-1	0.1	-2	-1	341	0.3	340	341	6.6	88.9
2025-10-24T06:11	10	-1	0.1	-1	-1	341	0.3	341	342	6.6	89.7
2025-10-24T06:12	10	-1	0.1	-1	-1	341	0.3	341	342	6.6	89.2
2025-10-24T06:13	10	-1	0.2	-1	-1	341	0.2	341	342	6.6	89.1
2025-10-24T06:14	10	-1	0.1	-1	-1	342	0.3	341	342	6.7	87.8
2025-10-24T06:15	10	-1	0.1	-1	0	342	0.2	341	342	6.8	87.7
2025-10-24T06:16	10	-1	0.1	-1	-1	342	0.3	341	342	6.8	87.5
2025-10-24T06:17	10	-1	0.2	-1	0	341	0.2	341	342	6.7	88.5
2025-10-24T06:18	10	-1	0.1	-1	-1	342	0.2	341	342	6.7	89.3
2025-10-24T06:19	10	-1	0.1	-1	0	342	0.2	341	342	6.7	89.4
2025-10-24T06:20	10	-1	0.1	-1	0	341	0.3	341	342	6.7	89.9
2025-10-24T06:21	10	0	0.2	-1	0	341	0.2	341	342	6.7	89.7
2025-10-24T06:22	10	0	0.2	0	1	341	0.2	341	342	6.7	89.5
2025-10-24T06:23	10	1	0.2	0	1	341	0.3	340	341	6.7	89.5
2025-10-24T06:24	10	1	0.2	1	1	340	0.2	340	341	6.7	89.8
2025-10-24T06:25	10	1	0.1	1	2	341	0.2	340	341	6.7	89.3
2025-10-24T06:26	10	2	0.1	1	2	341	0.3	340	341	6.7	88.9
2025-10-24T06:27	10	2	0.1	1	2	341	0.2	340	341	6.9	87.3
2025-10-24T06:28	10	2	0.1	1	2	341	0.3	340	342	6.9	87.0
2025-10-24T06:29	10	2	0.1	1	2	341	0.2	340	342	6.9	85.9
2025-10-24T06:30	10	1	0.1	1	2	340	0.3	340	341	7.1	84.8
2025-10-24T06:31	10	1	0.1	1	2	340	0.3	339	341	7.1	83.7
2025-10-24T06:32	10	1	0.2	1	2	340	0.2	339	340	7.1	83.5
2025-10-24T06:33	10	1	0.1	1	1	339	0.3	339	340	7.1	84.3
2025-10-24T06:34	10	1	0.1	1	1	340	0.3	339	340	7.1	83.6
2025-10-24T06:35	10	1	0.1	1	2	340	0.3	339	341	7.1	83.0
2025-10-24T06:36	10	1	0.1	1	2	340	0.2	340	341	7.2	82.6
2025-10-24T06:37	10	1	0.1	1	2	341	0.2	340	342	7.2	82.9
2025-10-24T06:38	10	1	0.1	1	2	340	0.3	340	341	7.1	83.1
2025-10-24T06:39	10	1	0.1	1	2	340	0.4	339	340	7.1	83.4
2025-10-24T06:40	10	1	0.1	1	2	339	0.3	338	340	7.1	83.0
2025-10-24T06:41	10	1	0.1	1	2	339	0.3	339	340	7.0	83.8
2025-10-24T06:42	10	2	0.1	1	2	339	0.2	339	340	7.1	83.0
2025-10-24T06:43	10	2	0.1	1	2	340	0.3	339	340	7.0	83.5
2025-10-24T06:44	10	2	0.1	2	2	340	0.2	339	340	7.0	83.2
2025-10-24T06:45	10	2	0.1	1	2	340	0.2	339	340	7.0	83.2
2025-10-24T06:46	10	2	0.1	1	2	340	0.3	339	340	7.1	81.7
2025-10-24T06:47	10	2	0.1	1	2	340	0.3	339	340	7.2	80.4
2025-10-24T06:48	10	2	0.1	1	2	340	0.2	340	341	7.1	78.1
2025-10-24T06:49	10	2	0.1	1	2	340	0.2	340	341	7.2	80.8
2025-10-24T06:50	10	2	0.2	2	3	340	0.3	340	341	7.2	78.1
2025-10-24T06:51	10	3	0.2	2	3	341	0.3	340	341	7.2	77.1
2025-10-24T06:52	10	3	0.2	3	4	341	0.2	340	341	7.1	79.4
2025-10-24T06:53	10	4	0.4	3	5	340	0.3	340	341	7.2	80.8
2025-10-24T06:54	10	6	0.4	5	6	341	0.3	340	341	7.2	80.8
2025-10-24T06:55	10	7	0.6	7	9	341	0.3	340	342	7.2	80.8
2025-10-24T06:56	10	9	0.5	9	10	341	0.2	341	341	7.2	80.1
2025-10-24T06:57	10	11	0.2	10	11	341	0.3	341	342	7.2	79.8
2025-10-24T06:58	10	11	0.2	11	12	342	0.2	341	342	7.3	79.1
2025-10-24T06:59	10	12	0.3	12	12	342	0.4	341	342	7.3	79.8
2025-10-24T07:00	10	13	0.2	12	13	342	0.3	341	342	7.3	79.7
2025-10-24T07:01	10	12	0.6	11	13	341	0.2	341	342	7.2	80.2
2025-10-24T07:02	10	11	0.4	10	12	342	0.3	341	342	7.3	79.9
2025-10-24T07:03	10	11	2.5	9	19	342	0.3	341	343	7.3	79.4
2025-10-24T07:04	10	33	5.1	20	37	343	0.8	341	344	7.3	79.3
2025-10-24T07:05	10	28	7.8	15	36	344	0.4	343	345	7.3	79.9
2025-10-24T07:06	10	18	2.6	15	22	344	0.2	343	344	7.3	80.5
2025-10-24T07:07	10	11	1.2	9	14	343	0.3	343	344	7.5	77.1
2025-10-24T07:08	10	9	0.4	8	9	343	0.3	342	344	7.5	76.5
2025-10-24T07:09	10	8	0.1	8	8	342	0.3	342	343	7.5	77.0
2025-10-24T07:10	10	8	0.4	8	9	342	0.2	342	343	7.4	77.7
2025-10-24T07:11	10	10	0.6	9	11	342	0.2	342	343	7.4	77.4
2025-10-24T07:12	10	12	0.4	11	12	342	0.2	342	343	7.5	76.7
2025-10-24T07:13	10	13	0.5	12	14	342	0.3	342	343	7.5	75.5
2025-10-24T07:14	10	15	0.9	14	17	342	0.3	342	343	7.5	76.0
2025-10-24T07:15	10	18	0.7	17	19	343	0.3	342	343	7.5	75.9
2025-10-24T07:16	10	19	0.2	19	20	343	0.3	342	343	7.6	74.9
2025-10-24T07:17	10	18	0.5	17	19	343	0.2	342	343	7.5	75.9
2025-10-24T07:18	10	16	0.6	15	17	343	0.3	342	343	7.6	74.6
2025-10-24T07:19	10	14	0.5	13	15	342	0.3	341	343	7.6	74.8
2025-10-24T07:20	10	13	0.3	13	14	342	0.2	341	342	7.6	74.3
2025-10-24T07:21	10	13	2.0	12	20	341	0.3	341	342	7.6	73.2
2025-10-24T07:22	10	36	9.3	20	47	342	0.8	341	344	7.7	72.3
2025-10-24T07:23	10	39	3.7	34	44	343	0.3	342	344	7.6	73.8
2025-10-24T07:24	10	42	3.4	33	48	343	0.3	343	344	7.6	74.2
2025-10-24T07:25	10	37	5.6	30	46	343	0.4	342	344	7.7	72.2
2025-10-24T07:26	10	33	3.0	30	41	343	0.3	342	343	7.6	73.3
2025-10-24T07:27	10	48	2.2	41	50	343	0.3	343	344	7.6	73.0
2025-10-24T07:28	10	48	7.2	34	56	344	0.3	343	344	7.6	73.0
2025-10-24T07:29	10	56	1.9	50	57	344	0.3	343	345	7.7	72.7
2025-10-24T07:30	10	55	0.6	54	56	345	0.3	344	345	7.6	73.5
2025-10-24T07:31	10	56	0.5	55	57	345	0.2	344	345	7.7	73.1
2025-10-24T07:32	10	57	0.3	56	57	345	0.3	345	346	7.8	72.2
2025-10-24T07:33	10	57	0.2	57	58	345	0.3	345	346	7.8	71.8
2025-10-24T07:34	10	58	0.2	58	58	345	0.2	345	346	7.9	70.3
2025-10-24T07:35	10	59	0.5	58	60	345	0.2	345	346	7.9	69.9
2025-10-24T07:36	10	60	0.1	60	60	346	0.2	345	346	7.9	70.3
2025-10-24T07:37	10	60	0.2	60	61	346	0.2	345	346	7.9	70.4
2025-10-24T07:38	10	54	8.9	30	61	346	0.3	345	347	7.9	70.6
2025-10-24T07:39	10	61	0.2	60	61	346	0.3	345	347	8.0	70.1
2025-10-24T07:40	10	61	0.2	61	62	346	0.2	346	347	8.0	70.1
2025-10-24T07:41	10	62	0.2	62	62	347	0.2	346	347	8.0	70.3
2025-10-24T07:42	10	63	0.2	62	63	347	0.2	346	347	8.1	69.8
2025-10-24T07:43	10	63	0.5	62	64	347	0.2	346	347	8.0	70.1
2025-10-24T07:44	10	66	1.1	64	67	347	0.3	347	348	8.0	70.0
2025-10-24T07:45	10	69	0.9	68	71	348	0.4	347	349	8.0	71.3
2025-10-24T07:46	10	72	0.5	71	73	349	0.4	348	350	7.9	72.9
2025-10-24T07:47	10	74	0.6	72	75	350	0.5	349	351	7.9	73.0
2025-10-24T07:48	10	73	0.8	72	75	350	0.2	350	351	7.9	73.6
2025-10-24T07:49	10	61	16.7	23	72	350	1.1	347	351	7.9	73.6
2025-10-24T07:50	10	30	11.9	19	59	347	0.7	346	349	7.9	72.4
2025-10-24T07:51	10	56	11.9	30	69	348	0.5	347	349	7.9	72.7
2025-10-24T07:52	10	57	19.2	26	75	348	0.9	347	350	7.9	73.7
2025-10-24T07:53	10	73	0.2	73	74	348	0.4	348	349	7.9	71.3
2025-10-24T07:54	10	72	0.2	72	73	348	0.3	347	348	8.0	70.3
2025-10-24T07:55	10	63	8.8	49	75	348	0.5	347	349	7.9	70.6
2025-10-24T07:56	10	76	1.4	73	78	348	0.5	347	349	7.9	71.3
2025-10-24T07:57	10	43	15.8	20	75	347	1.4	345	350	7.9	71.7
2025-10-24T07:58	10	21	3.7	18	33	345	0.6	344	346	7.8	72.0
2025-10-24T07:59	10	35	12.6	23	61	345	0.5	344	346	7.8	71.6
2025-10-24T08:00	10	33	15.9	15	59	345	0.6	344	346	7.8	71.9
2025-10-24T08:01	10	32	16.1	15	57	344	0.8	343	346	7.8	71.8
2025-10-24T08:02	10	49	5.8	42	57	345	0.3	345	346	7.9	71.2
2025-10-24T08:03	10	34	4.6	23	43	345	0.3	345	346	7.9	70.7
2025-10-24T08:04	10	18	2.6	16	23	344	0.5	343	345	7.9	69.8
2025-10-24T08:05	10	18	2.2	16	23	343	0.3	343	344	7.9	71.5
2025-10-24T08:06	10	20	1.3	17	22	344	0.3	343	344	7.9	68.5
2025-10-24T08:07	10	25	2.7	21	31	344	0.4	343	344	7.8	68.2
2025-10-24T08:08	10	20	0.8	18	21	344	0.2	343	344	7.8	69.7
2025-10-24T08:09	10	17	0.5	16	18	344	0.3	343	344	7.7	70.7
2025-10-24T08:10	10	19	2.8	15	24	343	0.3	343	344	7.7	71.4
2025-10-24T08:11	10	16	2.5	14	22	343	0.3	342	343	7.7	72.1
2025-10-24T08:12	10	15	2.2	14	21	343	0.4	342	344	7.7	72.7
2025-10-24T08:13	10	15	0.4	15	17	343	0.3	343	344	7.7	72.5
2025-10-24T08:14	10	15	1.0	15	18	343	0.2	343	344	7.9	71.3
2025-10-24T08:15	10	25	10.4	17	52	343	0.6	342	345	7.8	70.9
2025-10-24T08:16	10	73	6.6	55	83	346	1.7	343	349	7.9	70.1
2025-10-24T08:17	10	89	1.6	84	92	350	1.3	347	353	7.9	72.7
2025-10-24T08:18	10	95	0.9	92	96	353	0.9	351	355	7.9	73.2
2025-10-24T08:19	10	98	1.3	96	99	355	0.6	354	356	8.0	74.4
2025-10-24T08:20	10	91	3.8	86	99	356	0.2	356	357	8.1	74.2
2025-10-24T08:21	10	79	13.1	45	95	355	0.5	354	356	8.1	73.3
2025-10-24T08:22	10	25	5.8	19	43	352	2.1	349	356	8.2	75.1
2025-10-24T08:23	10	39	14.7	22	75	349	0.7	348	350	8.3	71.1
2025-10-24T08:24	10	86	5.6	74	93	352	1.4	349	354	8.3	70.7
2025-10-24T08:25	10	90	5.6	80	97	353	0.6	353	355	8.3	71.9
2025-10-24T08:26	10	99	1.2	97	101	355	0.8	354	357	8.3	71.5
2025-10-24T08:27	10	105	2.0	101	108	357	0.6	356	358	8.3	72.4
2025-10-24T08:28	10	108	0.8	107	109	358	0.4	357	358	8.3	72.4
2025-10-24T08:29	10	93	14.3	56	106	358	0.6	356	359	8.3	73.6
2025-10-24T08:30	10	60	14.1	35	88	355	1.5	353	358	8.3	72.8
2025-10-24T08:31	10	79	11.5	57	96	354	0.6	353	356	8.2	72.6
2025-10-24T08:32	10	98	0.7	97	99	356	0.4	355	357	8.3	73.3
2025-10-24T08:33	10	78	25.7	29	101	357	1.6	354	358	8.3	73.9
2025-10-24T08:34	10	84	13.0	57	103	354	0.5	353	356	8.2	73.1
2025-10-24T08:35	10	98	3.7	86	101	356	1.2	354	359	8.2	74.1
2025-10-24T08:36	10	98	0.9	96	99	358	0.4	357	359	8.3	74.0
2025-10-24T08:37	10	99	0.5	99	100	358	0.2	357	358	8.3	73.4
2025-10-24T08:38	10	100	4.1	76	102	359	0.3	358	359	8.3	73.4
2025-10-24T08:39	10	81	12.5	52	103	357	0.6	356	359	8.3	72.6
2025-10-24T08:40	10	75	22.3	26	95	356	0.9	354	357	8.4	72.5
2025-10-24T08:41	10	90	2.7	84	94	356	0.3	356	357	8.3	72.1
2025-10-24T08:42	10	92	7.0	80	99	357	0.5	356	358	8.3	72.3
2025-10-24T08:43	10	84	22.0	35	100	357	1.0	355	358	8.3	72.5
2025-10-24T08:44	10	100	0.2	99	100	357	0.5	356	358	8.4	72.1
2025-10-24T08:45	10	98	2.4	89	100	359	0.4	358	360	8.5	72.2
2025-10-24T08:46	10	100	0.5	99	101	360	0.3	359	361	8.6	72.2
2025-10-24T08:47	10	93	3.3	89	99	359	1.1	357	361	8.6	71.5
2025-10-24T08:48	10	86	9.5	55	95	358	0.9	357	360	8.6	68.6
2025-10-24T08:49	10	82	18.1	46	110	357	0.7	355	358	8.6	66.9
2025-10-24T08:50	10	86	30.7	26	111	359	1.8	354	362	8.7	68.4
2025-10-24T08:51	10	29	6.2	22	48	353	1.6	351	357	8.7	66.3
2025-10-24T08:52	10	67	26.7	22	99	353	1.4	350	355	8.6	64.6
2025-10-24T08:53	10	40	16.8	22	67	351	1.0	349	353	8.6	64.8
2025-10-24T08:54	10	95	9.0	69	102	353	1.5	350	355	8.6	63.3
2025-10-24T08:55	10	103	0.7	100	104	355	0.8	354	357	8.6	64.3
2025-10-24T08:56	10	104	1.6	102	107	357	0.8	355	358	8.7	64.2
2025-10-24T08:57	10	103	8.1	76	110	358	0.5	356	358	8.6	63.3
2025-10-24T08:58	10	82	22.9	45	113	356	0.8	355	358	8.7	62.7
2025-10-24T08:59	10	94	27.6	27	114	357	1.0	354	359	8.7	62.9
2025-10-24T09:00	10	56	41.8	20	113	354	1.9	351	357	8.7	63.6
2025-10-24T09:01	10	109	6.9	85	114	358	0.5	356	359	8.8	62.5
2025-10-24T09:02	10	104	13.9	62	114	358	0.7	356	360	8.9	62.7
2025-10-24T09:03	10	69	41.7	23	116	358	2.6	354	361	8.9	63.0
2025-10-24T09:04	10	116	12.1	86	126	360	2.1	357	363	9.0	64.2
2025-10-24T09:05	10	86	39.8	37	133	361	1.8	358	363	9.0	65.5
2025-10-24T09:06	10	137	2.7	127	140	366	2.2	362	369	9.0	66.1
2025-10-24T09:07	10	131	15.4	87	142	367	0.9	365	368	9.1	63.3
2025-10-24T09:08	10	141	2.9	130	143	366	0.9	364	367	9.2	58.8
2025-10-24T09:09	10	124	23.2	78	143	362	1.6	360	365	9.2	57.8
2025-10-24T09:10	10	139	2.2	134	143	363	0.9	362	365	9.3	57.6
2025-10-24T09:11	10	134	1.6	130	137	363	0.5	362	365	9.3	56.7
2025-10-24T09:12	10	128	1.0	127	130	364	0.4	363	364	9.3	56.6
2025-10-24T09:13	10	127	0.2	127	127	363	1.4	361	365	9.4	55.7
2025-10-24T09:14	10	129	1.4	127	131	364	1.2	362	366	9.4	56.8
2025-10-24T09:15	10	132	1.4	130	135	366	0.5	365	367	9.4	57.6
2025-10-24T09:16	10	105	35.7	48	137	365	1.9	360	367	9.4	56.8
2025-10-24T09:17	10	106	31.5	49	137	363	1.9	360	367	9.4	58.3
2025-10-24T09:18	10	82	39.7	39	135	361	1.8	358	365	9.4	61.7
2025-10-24T09:19	10	39	8.5	34	72	359	2.2	356	364	9.4	61.2
2025-10-24T09:20	10	71	19.0	45	118	359	1.0	357	361	9.4	60.4
2025-10-24T09:21	10	137	8.3	97	141	363	2.6	357	367	9.3	59.3
2025-10-24T09:22	10	137	1.0	136	139	366	1.1	364	368	9.3	61.4
2025-10-24T09:23	10	99	35.2	36	136	366	3.1	359	369	9.4	61.4
2025-10-24T09:24	10	93	43.0	35	140	360	2.0	356	363	9.3	59.9
2025-10-24T09:25	10	68	43.6	36	142	361	3.7	355	366	9.3	60.7
2025-10-24T09:26	10	89	40.5	36	134	358	2.0	356	363	9.2	59.5
2025-10-24T09:27	10	92	32.9	38	133	359	1.9	356	363	9.2	59.2
2025-10-24T09:28	10	124	2.8	117	128	361	0.8	359	362	9.2	58.7
2025-10-24T09:29	10	117	26.1	33	131	363	1.0	360	364	9.3	59.8
2025-10-24T09:30	10	27	2.3	25	35	356	2.7	353	362	9.3	58.3
2025-10-24T09:31	10	45	26.3	27	113	354	1.1	352	356	9.2	58.5
2025-10-24T09:32	10	44	23.3	27	105	353	1.2	351	356	9.1	58.4
2025-10-24T09:33	10	65	32.9	31	134	355	1.9	352	357	9.1	59.9
2025-10-24T09:34	10	59	34.5	32	131	355	1.6	352	358	9.1	60.4
2025-10-24T09:35	10	50	37.4	23	127	353	1.7	351	357	9.1	60.2
2025-10-24T09:36	10	126	0.7	124	127	360	1.7	355	362	9.1	61.1
2025-10-24T09:37	10	127	8.8	83	132	361	0.8	360	363	9.1	60.0
2025-10-24T09:38	10	107	30.5	46	135	361	1.2	359	363	9.2	59.5
2025-10-24T09:39	10	127	17.5	87	146	362	0.9	360	364	9.2	58.7
2025-10-24T09:40	10	96	33.7	51	146	361	1.8	358	364	9.3	59.7
2025-10-24T09:41	10	64	29.0	37	118	359	1.6	357	362	9.4	61.0
2025-10-24T09:42	10	44	16.4	31	87	358	1.3	356	361	9.4	61.9
2025-10-24T09:43	10	102	41.5	30	131	360	3.6	355	366	9.4	61.8
2025-10-24T09:44	10	123	10.4	91	132	364	0.6	363	365	9.4	60.9
2025-10-24T09:45	10	131	1.5	130	134	365	0.4	364	366	9.4	58.3
2025-10-24T09:46	10	133	11.4	99	143	366	0.6	365	367	9.4	57.7
2025-10-24T09:47	10	128	25.7	55	146	366	0.8	365	368	9.5	58.1
2025-10-24T09:48	10	124	29.2	57	142	367	1.4	363	369	9.5	57.6
2025-10-24T09:49	10	124	23.1	59	139	365	1.2	362	366	9.6	57.2
2025-10-24T09:50	10	90	46.9	33	142	362	2.8	358	366	9.5	56.2
2025-10-24T09:51	10	138	3.1	128	142	367	1.1	365	369	9.5	57.6
2025-10-24T09:52	10	137	3.1	125	140	369	0.8	367	370	9.6	57.9
2025-10-24T09:53	10	55	36.0	28	140	363	4.5	357	370	9.6	57.5
2025-10-24T09:54	10	27	1.3	25	31	357	1.2	355	359	9.5	58.3
2025-10-24T09:55	10	90	44.2	26	134	358	2.1	354	362	9.4	57.9
2025-10-24T09:56	10	131	1.3	130	134	363	1.0	360	364	9.4	56.7
2025-10-24T09:57	10	100	40.6	32	135	362	2.5	357	364	9.4	55.8
2025-10-24T09:58	10	61	28.1	33	119	358	1.7	355	361	9.4	56.9
2025-10-24T09:59	10	99	37.7	34	140	359	3.4	354	364	9.3	56.5
2025-10-24T10:00	10	131	18.0	80	144	363	2.1	360	366	9.4	54.3
2025-10-24T10:01	10	147	4.1	134	151	367	1.5	364	369	9.4	56.1
2025-10-24T10:02	10	153	1.2	151	156	369	0.9	368	371	9.6	56.6
2025-10-24T10:03	10	155	2.8	145	157	370	0.5	369	371	9.6	55.3
2025-10-24T10:04	10	154	1.2	146	155	370	0.3	369	371	9.7	55.4
2025-10-24T10:05	10	98	32.6	49	145	367	3.2	363	372	9.8	56.2
2025-10-24T10:06	10	147	3.5	126	150	368	1.1	365	369	9.6	54.8
2025-10-24T10:07	10	143	0.7	142	144	369	1.0	367	370	9.6	55.0
2025-10-24T10:08	10	142	0.3	141	142	370	0.5	368	371	9.8	56.5
2025-10-24T10:09	10	143	0.6	142	144	371	0.6	370	372	9.9	56.3
2025-10-24T10:10	10	141	4.3	124	143	370	0.5	369	371	9.8	55.3
2025-10-24T10:11	10	134	11.5	110	144	372	0.6	371	374	9.9	56.7
2025-10-24T10:12	10	106	26.6	64	149	369	1.9	367	374	10.1	56.6
2025-10-24T10:13	10	69	28.4	37	129	365	3.1	360	370	9.8	54.7
2025-10-24T10:14	10	38	14.9	27	77	360	1.4	358	363	9.8	56.6
2025-10-24T10:15	10	34	18.0	21	89	357	1.1	355	359	9.6	55.9
2025-10-24T10:16	10	18	0.8	18	20	354	0.9	353	356	9.5	56.8
2025-10-24T10:17	10	18	0.3	18	19	353	0.5	352	354	9.4	57.1
2025-10-24T10:18	10	20	0.7	19	21	352	0.3	352	353	9.4	58.4
2025-10-24T10:19	10	24	1.0	22	26	352	0.2	352	353	9.3	58.1
2025-10-24T10:20	10	113	48.7	26	147	358	5.4	350	365	9.3	57.1
2025-10-24T10:21	10	148	1.7	145	151	366	1.8	362	368	9.4	57.4
2025-10-24T10:22	10	152	0.8	151	154	369	0.8	367	370	9.4	57.4
2025-10-24T10:23	10	153	1.0	151	154	372	1.3	369	373	9.6	58.2
2025-10-24T10:24	10	152	1.1	151	155	373	0.6	372	374	9.7	58.8
2025-10-24T10:25	10	154	4.4	142	157	375	0.6	374	376	9.7	58.4
2025-10-24T10:26	10	158	0.4	157	159	378	2.0	375	382	9.9	59.4
2025-10-24T10:27	10	156	3.7	141	158	380	1.6	377	382	10.1	59.8
2025-10-24T10:28	10	156	0.3	156	157	378	1.0	376	379	10.0	59.8
2025-10-24T10:29	10	153	8.6	123	158	377	0.4	376	378	9.9	60.4
2025-10-24T10:30	10	100	51.5	42	159	376	3.4	369	379	10.1	61.0
2025-10-24T10:31	10	106	56.0	42	163	371	3.9	366	378	10.2	61.6
2025-10-24T10:32	10	143	30.5	60	161	377	1.0	374	378	10.3	61.1
2025-10-24T10:33	10	88	48.5	38	159	371	4.4	366	379	10.1	59.0
2025-10-24T10:34	10	38	8.6	32	67	363	3.4	359	370	9.9	55.2
2025-10-24T10:35	10	80	30.8	46	150	364	2.0	360	367	9.8	56.3
2025-10-24T10:36	10	129	29.4	72	156	368	4.3	360	375	9.9	55.9
2025-10-24T10:37	10	92	38.9	42	155	370	3.3	366	375	10.1	56.2
2025-10-24T10:38	10	146	4.2	130	151	371	1.4	367	374	10.1	54.2
2025-10-24T10:39	10	142	1.1	141	145	373	0.5	372	374	10.1	54.7
2025-10-24T10:40	10	140	0.6	139	141	371	1.1	369	373	10.1	50.7
2025-10-24T10:41	10	139	0.3	137	139	370	0.3	369	370	9.9	50.0
2025-10-24T10:42	10	137	1.9	131	139	372	1.0	370	374	10.1	52.5
2025-10-24T10:43	10	139	0.6	138	140	374	0.7	373	376	10.4	54.5
2025-10-24T10:44	10	142	1.3	140	144	374	0.3	373	375	10.4	53.8
2025-10-24T10:45	10	141	4.5	125	143	374	1.1	371	375	10.3	52.0
2025-10-24T10:46	10	73	54.9	22	144	368	4.6	361	374	10.2	52.3
2025-10-24T10:47	10	115	39.5	23	144	366	2.7	362	371	10.3	53.8
2025-10-24T10:48	10	127	35.0	37	145	371	1.5	368	374	10.1	52.6
2025-10-24T10:49	10	72	40.8	28	144	367	2.7	363	371	10.2	53.6
2025-10-24T10:50	10	132	20.3	73	144	369	1.7	364	372	10.2	52.8
2025-10-24T10:51	10	140	1.8	129	142	371	0.7	369	372	10.2	52.1
2025-10-24T10:52	10	139	0.2	139	140	371	0.5	370	372	10.1	53.0
2025-10-24T10:53	10	139	1.6	134	140	372	0.6	371	373	10.2	54.1
2025-10-24T10:54	10	142	1.2	140	144	372	0.6	371	374	10.2	55.0
2025-10-24T10:55	10	141	0.4	140	142	373	0.7	372	374	10.2	56.0
2025-10-24T10:56	10	144	1.2	142	146	375	0.4	374	375	10.3	56.9
2025-10-24T10:57	10	148	1.2	146	150	373	0.4	373	374	10.3	55.4
2025-10-24T10:58	10	153	3.9	133	158	376	0.8	375	378	10.3	56.1
2025-10-24T10:59	10	79	38.0	42	160	372	3.1	368	379	10.4	56.0
2025-10-24T11:00	10	164	1.3	161	167	379	2.4	373	383	10.6	56.4
2025-10-24T11:01	10	126	44.1	58	170	375	4.4	370	383	10.5	53.1
2025-10-24T11:02	10	161	0.5	160	162	376	1.0	374	378	10.4	51.9
2025-10-24T11:03	10	161	7.6	135	168	379	1.6	377	382	10.6	53.3
2025-10-24T11:04	10	140	41.9	55	170	379	3.5	373	383	10.6	53.8
2025-10-24T11:05	10	147	30.0	80	171	375	0.9	374	377	10.5	54.5
2025-10-24T11:06	10	159	0.8	157	161	376	0.7	374	377	10.4	54.7
2025-10-24T11:07	10	156	1.0	154	157	376	0.8	375	378	10.5	53.3
2025-10-24T11:08	10	153	0.8	151	154	377	0.8	376	379	10.5	53.6
2025-10-24T11:09	10	150	0.2	150	151	380	0.8	378	381	10.8	56.1
2025-10-24T11:10	10	150	0.6	150	152	381	0.8	379	382	10.9	58.1
2025-10-24T11:11	10	153	0.9	152	155	377	1.2	375	380	10.4	53.5
2025-10-24T11:12	10	157	1.3	155	159	377	0.7	376	379	10.3	54.2
2025-10-24T11:13	10	162	1.6	159	164	379	1.3	377	382	10.4	55.5
2025-10-24T11:14	10	166	1.1	164	168	384	1.0	381	385	10.7	57.8
2025-10-24T11:15	10	169	0.3	168	169	383	1.0	381	384	10.5	56.0
2025-10-24T11:16	10	165	5.3	149	169	382	0.5	381	383	10.4	56.1
2025-10-24T11:17	10	162	1.7	160	165	380	0.5	379	381	10.4	56.8
2025-10-24T11:18	10	159	0.6	158	160	382	0.4	381	382	10.6	57.9
2025-10-24T11:19	10	156	0.7	155	158	383	0.8	382	385	10.6	57.7
2025-10-24T11:20	10	153	1.1	151	155	381	1.1	379	383	10.5	56.6
2025-10-24T11:21	10	151	0.3	150	151	380	0.9	379	382	10.5	57.6
2025-10-24T11:22	10	150	0.4	150	151	378	0.7	377	379	10.5	56.9
2025-10-24T11:23	10	147	1.3	145	150	378	0.9	377	379	10.4	55.6
2025-10-24T11:24	10	145	0.3	144	145	380	0.6	379	381	10.5	56.5
2025-10-24T11:25	10	147	0.8	146	148	379	0.8	378	381	10.6	56.2
2025-10-24T11:26	10	150	1.1	149	153	379	0.8	378	381	10.5	55.1
2025-10-24T11:27	10	156	2.1	153	160	383	1.7	380	385	10.7	56.7
2025-10-24T11:28	10	165	2.8	160	169	384	0.4	383	385	10.7	55.5
2025-10-24T11:29	10	159	20.2	99	174	383	1.1	380	385	10.6	55.2
2025-10-24T11:30	10	159	27.2	92	180	382	0.7	380	383	10.6	55.2
2025-10-24T11:31	10	159	18.6	115	178	382	0.9	380	384	10.7	55.3
2025-10-24T11:32	10	170	0.9	166	172	382	1.1	380	384	10.8	55.6
2025-10-24T11:33	10	64	26.9	47	154	374	4.6	367	383	10.7	55.9
2025-10-24T11:34	10	47	0.1	47	47	368	1.1	366	370	10.4	56.0
2025-10-24T11:35	10	47	2.2	45	54	367	0.5	365	368	10.4	57.6
2025-10-24T11:36	10	102	34.7	58	160	368	1.6	364	371	10.3	54.9
2025-10-24T11:37	10	107	39.8	46	156	368	2.8	364	373	10.2	54.8
2025-10-24T11:38	10	155	2.9	145	159	374	1.2	371	376	10.3	55.2
2025-10-24T11:39	10	154	0.4	153	154	375	1.1	373	377	10.3	55.3
2025-10-24T11:40	10	152	0.2	152	153	377	0.6	376	378	10.4	55.6
2025-10-24T11:41	10	154	0.9	153	156	377	0.6	376	378	10.5	55.7
2025-10-24T11:42	10	126	30.0	69	158	378	2.6	371	380	10.6	55.9
2025-10-24T11:43	10	106	29.0	68	146	373	1.3	371	375	10.5	55.3
2025-10-24T11:44	10	144	19.4	90	164	375	1.7	372	378	10.5	53.5
2025-10-24T11:45	10	162	0.4	160	163	378	0.6	377	378	10.5	53.6
2025-10-24T11:46	10	150	17.2	116	167	379	1.7	377	382	10.6	53.9
2025-10-24T11:47	10	151	21.8	103	169	382	1.4	379	384	10.7	55.1
2025-10-24T11:48	10	172	1.9	160	173	383	1.5	379	385	10.9	55.1
2025-10-24T11:49	10	133	36.8	82	177	378	3.6	373	384	10.7	51.5
2025-10-24T11:50	10	168	3.4	153	172	379	2.0	376	382	10.5	50.9
2025-10-24T11:51	10	160	9.7	102	165	383	0.5	381	384	10.9	54.0
2025-10-24T11:52	10	78	23.9	50	147	376	2.0	373	382	10.9	53.5
2025-10-24T11:53	10	155	1.5	150	158	378	1.9	374	381	10.8	52.7
2025-10-24T11:54	10	155	0.7	154	157	381	1.3	379	383	10.7	51.5
2025-10-24T11:55	10	157	0.2	157	157	382	0.3	381	383	10.9	53.7
2025-10-24T11:56	10	136	28.7	75	159	381	2.1	376	383	11.1	54.9
2025-10-24T11:57	10	153	3.1	143	156	377	0.3	377	378	10.7	51.0
2025-10-24T11:58	10	81	45.8	39	155	373	4.6	366	379	10.6	52.1
2025-10-24T11:59	10	62	23.4	38	119	367	0.9	366	370	10.6	52.8
2025-10-24T12:00	10	115	20.8	73	150	371	1.3	369	374	10.7	52.9
2025-10-24T12:01	10	73	19.5	48	124	369	0.9	368	372	10.8	53.5
2025-10-24T12:02	10	56	18.3	31	97	367	1.9	364	370	10.7	53.4
2025-10-24T12:03	10	26	1.6	24	30	362	1.6	360	365	10.5	52.9
2025-10-24T12:04	10	25	0.3	24	25	361	0.4	360	361	10.5	54.0
2025-10-24T12:05	10	23	0.5	22	24	360	0.4	359	361	10.5	54.8
2025-10-24T12:06	10	22	0.1	22	22	359	0.3	358	359	10.5	55.1
2025-10-24T12:07	10	24	1.2	22	26	359	0.3	358	360	10.4	55.3
2025-10-24T12:08	10	29	1.2	26	30	359	0.4	358	359	10.4	54.9
2025-10-24T12:09	10	33	2.7	30	40	359	0.2	359	359	10.3	53.5
2025-10-24T12:10	10	72	35.0	41	159	361	2.3	358	368	10.3	51.4
2025-10-24T12:11	10	160	4.1	137	163	372	3.4	365	376	10.4	50.3
2025-10-24T12:12	10	46	14.1	40	119	367	3.8	363	377	10.5	49.9
2025-10-24T12:13	10	115	50.9	42	161	366	4.4	362	374	10.4	48.3
2025-10-24T12:14	10	94	50.3	44	160	369	3.6	363	374	10.5	48.5
2025-10-24T12:15	10	121	35.7	46	162	369	3.0	364	374	10.6	49.3
2025-10-24T12:16	10	162	1.9	156	164	374	1.0	372	375	10.6	48.8
2025-10-24T12:17	10	147	23.1	84	162	375	0.9	373	376	10.7	48.1
2025-10-24T12:18	10	158	0.3	158	159	377	0.8	376	379	10.7	48.5
2025-10-24T12:19	10	158	0.3	157	158	380	0.8	379	381	10.9	49.8
2025-10-24T12:20	10	157	0.4	157	158	381	0.7	380	383	11.1	50.8
2025-10-24T12:21	10	158	0.9	157	159	383	0.6	383	385	11.3	53.7
2025-10-24T12:22	10	160	0.4	159	160	383	1.0	381	385	11.3	52.9
2025-10-24T12:23	10	161	0.2	160	161	385	1.1	383	387	11.5	53.4
2025-10-24T12:24	10	162	0.4	161	163	386	0.7	385	387	11.5	53.2
2025-10-24T12:25	10	163	0.3	162	163	383	1.8	380	386	11.1	52.5
2025-10-24T12:26	10	163	0.1	163	164	381	0.4	380	382	10.8	52.3
2025-10-24T12:27	10	99	53.2	45	164	377	4.8	369	383	10.8	53.1
2025-10-24T12:28	10	46	0.5	45	48	368	1.9	366	373	10.6	53.6
2025-10-24T12:29	10	141	34.2	48	165	372	3.1	366	376	10.5	53.7
2025-10-24T12:30	10	155	1.7	152	158	377	0.9	375	378	10.6	54.4
2025-10-24T12:31	10	150	1.2	148	152	380	1.3	377	381	10.8	55.1
2025-10-24T12:32	10	146	0.9	144	148	379	0.5	378	380	10.7	54.7
2025-10-24T12:33	10	144	0.4	143	144	378	0.9	376	379	10.6	54.9
2025-10-24T12:34	10	143	0.3	142	143	377	0.7	376	378	10.6	55.5
2025-10-24T12:35	10	142	0.3	141	142	378	0.7	377	379	10.8	56.3
2025-10-24T12:36	10	141	0.2	140	141	379	0.4	378	380	11.0	56.2
2025-10-24T12:37	10	139	0.5	139	140	381	0.9	379	382	11.0	56.4
2025-10-24T12:38	10	138	0.5	137	139	381	0.3	380	382	11.1	56.6
2025-10-24T12:39	10	136	0.5	136	137	380	0.6	379	381	11.0	55.5
2025-10-24T12:40	10	135	0.2	135	136	379	0.6	378	380	11.0	55.4
2025-10-24T12:41	10	133	10.1	73	136	377	1.6	375	380	11.0	54.3
2025-10-24T12:42	10	116	31.7	40	135	373	1.4	371	376	10.9	53.0
2025-10-24T12:43	10	130	7.6	107	136	377	1.1	375	379	11.0	53.8
2025-10-24T12:44	10	98	22.2	56	125	375	1.9	372	377	11.0	53.0
2025-10-24T12:45	10	104	22.7	73	144	372	0.7	371	374	11.0	53.3
2025-10-24T12:46	10	94	20.4	61	143	371	1.7	369	375	10.8	51.2
2025-10-24T12:47	10	98	34.6	48	154	371	1.9	368	376	10.9	52.6
2025-10-24T12:48	10	92	36.4	56	154	374	2.7	370	377	11.1	53.7
2025-10-24T12:49	10	107	27.8	74	151	371	1.4	369	374	10.9	52.0
2025-10-24T12:50	10	147	2.1	141	150	375	1.1	372	376	10.8	51.7
2025-10-24T12:51	10	141	7.1	123	148	378	1.9	376	382	10.9	53.4
2025-10-24T12:52	10	144	0.9	143	146	383	0.9	380	383	11.2	54.6
2025-10-24T12:53	10	142	0.6	141	143	383	1.3	380	384	11.3	54.7
2025-10-24T12:54	10	141	0.3	140	141	379	1.4	377	382	11.1	53.5
2025-10-24T12:55	10	140	0.2	140	141	377	0.9	375	379	10.9	53.0
2025-10-24T12:56	10	139	0.3	139	140	377	1.0	376	379	11.0	52.6
2025-10-24T12:57	10	138	0.7	136	139	376	0.4	375	377	10.9	51.4
2025-10-24T12:58	10	135	1.3	131	137	377	0.6	376	378	11.1	52.2
2025-10-24T12:59	10	134	4.1	113	139	378	0.6	377	379	11.2	52.2
2025-10-24T13:00	10	121	21.1	77	141	375	0.9	373	378	11.0	51.0
2025-10-24T13:01	10	136	11.4	106	144	377	1.1	375	379	10.9	49.9
2025-10-24T13:02	10	116	34.9	45	143	377	1.9	372	379	11.1	51.4
2025-10-24T13:03	10	38	4.8	35	53	369	2.5	365	374	11.1	50.6
2025-10-24T13:04	10	35	0.4	34	36	365	0.6	364	367	10.9	51.0
2025-10-24T13:05	10	33	0.7	32	34	364	0.3	363	365	11.0	52.0
2025-10-24T13:06	10	32	0.3	32	33	363	0.6	362	364	10.9	50.2
2025-10-24T13:07	10	35	1.0	33	36	363	0.5	362	364	10.8	50.2
2025-10-24T13:08	10	39	1.4	36	41	363	0.3	363	364	10.8	50.9
2025-10-24T13:09	10	43	1.0	41	44	364	0.5	363	365	10.8	51.7
2025-10-24T13:10	10	45	0.2	44	45	364	0.4	363	365	10.8	51.3
2025-10-24T13:11	10	46	1.0	45	48	365	0.4	364	365	10.8	51.8
2025-10-24T13:12	10	64	21.3	48	142	365	1.1	364	369	10.8	50.8
2025-10-24T13:13	10	75	29.3	59	150	368	1.1	367	371	10.9	50.8
2025-10-24T13:14	10	145	22.7	68	159	374	4.5	366	379	11.0	51.2
2025-10-24T13:15	10	150	3.2	144	154	379	0.8	377	380	11.1	50.9
2025-10-24T13:16	10	135	8.9	111	144	380	0.3	379	380	11.3	50.8
2025-10-24T13:17	10	132	3.1	127	137	377	1.3	376	380	11.3	48.8
2025-10-24T13:18	10	125	1.4	123	127	376	0.8	375	378	11.3	47.6
2025-10-24T13:19	10	120	1.2	118	123	375	0.6	374	376	11.3	48.2
2025-10-24T13:20	10	117	0.7	116	118	375	0.4	373	375	11.2	48.7
2025-10-24T13:21	10	116	0.1	116	116	374	0.5	374	376	11.3	49.3
2025-10-24T13:22	10	115	2.1	107	117	376	0.5	375	377	11.4	50.7
2025-10-24T13:23	10	114	3.8	103	117	375	1.1	373	377	11.4	49.7
2025-10-24T13:24	10	86	35.6	28	118	372	3.2	366	375	11.3	49.1
2025-10-24T13:25	10	67	24.3	27	116	368	1.0	366	370	11.3	50.6
2025-10-24T13:26	10	51	29.6	26	117	368	2.8	364	372	11.2	49.8
2025-10-24T13:27	10	63	27.0	27	106	366	1.2	363	368	11.1	49.2
2025-10-24T13:28	10	99	33.8	40	125	370	1.5	367	373	11.1	49.6
2025-10-24T13:29	10	78	31.6	31	126	368	1.6	366	371	11.1	49.1
2025-10-24T13:30	10	29	1.0	28	32	364	1.6	362	368	11.1	48.8
2025-10-24T13:31	10	29	0.4	29	30	362	0.5	361	363	11.0	48.9
2025-10-24T13:32	10	28	0.5	27	29	361	0.4	361	362	10.9	47.6
2025-10-24T13:33	10	28	0.2	27	28	361	0.3	361	362	10.8	49.2
2025-10-24T13:34	10	28	0.2	28	28	361	0.2	361	362	10.8	48.8
2025-10-24T13:35	10	27	0.8	25	28	361	0.2	360	362	10.8	49.0
2025-10-24T13:36	10	24	0.4	24	25	361	0.2	360	361	10.8	50.2
2025-10-24T13:37	10	25	0.4	24	26	361	0.2	360	361	10.8	50.5
2025-10-24T13:38	10	26	0.5	25	27	361	0.3	360	362	10.7	51.4
2025-10-24T13:39	10	26	0.3	26	27	361	0.2	361	361	10.7	51.4
2025-10-24T13:40	10	27	0.2	27	28	362	0.2	361	362	10.7	52.0
2025-10-24T13:41	10	26	0.5	26	27	362	0.3	361	362	10.7	53.1
2025-10-24T13:42	10	25	0.3	25	26	362	0.3	361	363	10.7	53.7
2025-10-24T13:43	10	25	0.2	25	25	362	0.3	361	363	10.7	54.4
2025-10-24T13:44	10	25	0.2	25	26	362	0.2	361	362	10.7	55.2
2025-10-24T13:45	10	26	0.2	25	26	362	0.2	361	362	10.6	56.0
2025-10-24T13:46	10	23	1.0	22	25	361	0.3	361	362	10.6	56.6
2025-10-24T13:47	10	21	0.7	19	22	361	0.3	360	362	10.6	57.6
2025-10-24T13:48	10	18	0.7	17	19	361	0.3	360	361	10.5	58.6
2025-10-24T13:49	10	16	0.6	15	17	360	0.4	359	361	10.4	60.5
2025-10-24T13:50	10	14	0.6	13	15	358	0.8	357	360	9.9	61.5
2025-10-24T13:51	10	12	0.5	11	13	357	0.5	356	358	9.6	62.4
2025-10-24T13:52	10	11	0.2	11	11	355	0.4	355	356	9.4	62.3
2025-10-24T13:53	10	11	0.2	10	11	355	0.3	354	355	9.2	62.7
2025-10-24T13:54	10	10	0.2	10	11	354	0.3	354	355	9.1	64.9
2025-10-24T13:55	10	9	0.4	8	10	353	0.3	353	354	8.8	67.0
2025-10-24T13:56	10	8	0.2	8	8	352	0.4	351	353	8.6	68.8
2025-10-24T13:57	10	8	0.2	8	8	351	0.3	351	352	8.2	71.3
2025-10-24T13:58	10	9	0.6	8	10	351	0.5	350	351	8.1	72.7
2025-10-24T13:59	10	12	1.1	10	14	349	0.8	348	351	7.9	75.2
2025-10-24T14:00	10	17	1.9	14	20	349	1.1	347	351	7.8	76.6
2025-10-24T14:01	10	27	4.2	21	37	349	0.7	348	351	7.9	76.5
2025-10-24T14:02	10	53	3.9	38	57	351	1.1	348	353	7.9	76.5
2025-10-24T14:03	10	74	15.9	53	112	354	2.1	350	358	7.8	77.6
2025-10-24T14:04	10	114	8.9	94	122	360	2.2	356	363	7.8	78.3
2025-10-24T14:05	10	119	4.9	102	125	363	1.1	360	364	7.9	78.2
2025-10-24T14:06	10	112	2.6	108	116	363	0.2	362	364	8.0	77.3
2025-10-24T14:07	10	117	3.0	114	124	364	1.4	362	367	8.0	77.5
2025-10-24T14:08	10	129	2.0	124	132	368	1.6	365	370	8.2	79.1
2025-10-24T14:09	10	99	29.5	65	133	368	1.9	365	370	8.3	78.6
2025-10-24T14:10	10	68	5.3	60	79	365	1.1	363	367	8.4	79.2
2025-10-24T14:11	10	68	8.5	57	90	363	1.0	362	365	8.4	78.0
2025-10-24T14:12	10	91	13.7	70	114	361	1.0	360	364	8.2	73.5
2025-10-24T14:13	10	114	1.1	113	116	364	0.5	363	365	8.2	73.2
2025-10-24T14:14	10	113	1.1	108	113	365	0.5	364	366	8.4	73.6
2025-10-24T14:15	10	104	5.0	97	111	364	0.5	363	365	8.4	73.4
2025-10-24T14:16	10	105	4.2	97	110	365	0.4	364	365	8.4	72.9
2025-10-24T14:17	10	97	3.1	89	101	363	0.5	362	364	8.4	72.8
2025-10-24T14:18	10	93	8.6	79	102	363	0.7	362	364	8.6	73.8
2025-10-24T14:19	10	71	14.1	57	99	363	1.7	361	365	8.7	74.8
2025-10-24T14:20	10	82	6.2	67	88	362	0.4	361	363	8.7	73.9
2025-10-24T14:21	10	94	2.8	88	96	362	0.7	361	364	8.8	73.7
2025-10-24T14:22	10	86	10.3	69	95	363	0.5	361	363	8.9	74.3
2025-10-24T14:23	10	67	7.4	50	80	361	0.8	360	362	8.8	73.0
2025-10-24T14:24	10	85	2.4	80	89	361	0.6	360	363	8.8	74.2
2025-10-24T14:25	10	91	0.9	86	92	362	0.4	361	362	8.9	73.6
2025-10-24T14:26	10	90	0.2	90	91	362	0.4	362	363	8.9	74.1
2025-10-24T14:27	10	88	3.4	78	90	362	0.5	361	362	9.0	73.8
2025-10-24T14:28	10	68	12.7	42	86	360	1.3	359	362	8.9	73.5
2025-10-24T14:29	10	53	25.5	21	90	359	1.6	356	361	9.0	73.7
2025-10-24T14:30	10	20	0.3	20	21	355	1.0	354	357	8.9	73.9
2025-10-24T14:31	10	20	0.1	20	20	354	0.6	353	355	9.0	73.5
2025-10-24T14:32	10	21	0.8	20	23	353	0.2	353	354	9.0	73.0
2025-10-24T14:33	10	44	20.5	23	77	354	1.3	352	357	9.0	73.8
2025-10-24T14:34	10	71	5.0	61	78	357	0.8	356	359	9.1	73.4
2025-10-24T14:35	10	77	2.7	70	82	359	0.8	358	361	9.1	74.0
2025-10-24T14:36	10	86	1.8	83	89	361	0.3	360	361	9.2	73.7
2025-10-24T14:37	10	90	2.9	86	93	362	1.0	360	364	9.2	73.3
2025-10-24T14:38	10	96	1.0	93	97	363	0.3	363	364	9.3	73.3
2025-10-24T14:39	10	98	1.1	95	99	365	0.6	363	366	9.3	73.3
2025-10-24T14:40	10	99	0.6	97	99	365	0.2	365	366	9.3	73.4
2025-10-24T14:41	10	92	4.4	81	98	364	1.0	362	366	9.4	72.5
2025-10-24T14:42	10	77	2.6	72	81	363	0.4	363	364	9.4	73.3
2025-10-24T14:43	10	84	2.8	80	89	363	0.6	362	365	9.5	71.4
2025-10-24T14:44	10	87	1.8	84	89	363	0.3	363	364	9.5	71.9
2025-10-24T14:45	10	87	1.0	85	88	363	0.3	363	364	9.6	71.2
2025-10-24T14:46	10	69	18.8	32	85	361	1.6	358	364	9.6	70.5
2025-10-24T14:47	10	77	1.6	73	80	360	0.3	360	361	9.6	70.6
2025-10-24T14:48	10	75	0.7	74	77	361	0.4	360	362	9.7	71.8
2025-10-24T14:49	10	75	1.1	73	77	361	0.3	361	362	9.7	71.2
2025-10-24T14:50	10	50	17.6	30	76	360	1.6	357	362	9.8	70.8
2025-10-24T14:51	10	31	10.2	20	46	357	1.3	355	359	9.7	70.3
2025-10-24T14:52	10	26	9.0	20	60	355	0.5	355	357	9.6	69.4
2025-10-24T14:53	10	68	9.3	52	81	358	0.8	355	359	9.6	70.7
2025-10-24T14:54	10	58	3.6	54	67	359	0.3	358	359	9.6	71.5
2025-10-24T14:55	10	38	12.9	22	56	358	1.2	355	360	9.6	71.4
2025-10-24T14:56	10	22	2.0	20	26	356	0.5	355	357	9.6	71.3
2025-10-24T14:57	10	20	1.2	18	24	355	0.5	354	356	9.6	71.4
2025-10-24T14:58	10	18	0.2	17	18	354	0.3	354	355	9.6	70.4
2025-10-24T14:59	10	17	0.2	17	18	354	0.3	354	355	9.6	69.5
2025-10-24T15:00	10	17	0.2	16	17	354	0.3	353	354	9.5	69.2
2025-10-24T15:01	10	16	0.3	15	16	353	0.3	353	354	9.5	69.9
2025-10-24T15:02	10	14	0.3	14	15	353	0.3	352	354	9.5	68.8
2025-10-24T15:03	10	14	0.3	14	15	352	0.2	352	353	9.5	68.5
2025-10-24T15:04	10	20	5.0	15	29	353	0.4	352	354	9.5	68.6
2025-10-24T15:05	10	39	8.5	28	52	354	0.9	352	355	9.5	69.5
2025-10-24T15:06	10	39	9.5	30	55	355	0.4	354	355	9.5	67.9
2025-10-24T15:07	10	23	3.5	20	31	354	0.6	353	355	9.5	67.5
2025-10-24T15:08	10	20	0.3	19	20	353	0.3	353	354	9.5	66.8
2025-10-24T15:09	10	19	0.2	18	19	353	0.2	353	353	9.5	67.7
2025-10-24T15:10	10	18	0.2	17	18	353	0.2	353	354	9.5	67.4
2025-10-24T15:11	10	17	0.3	16	17	353	0.3	353	354	9.5	67.6
2025-10-24T15:12	10	16	0.2	16	17	354	0.2	353	354	9.5	67.8
2025-10-24T15:13	10	15	0.3	15	16	354	0.3	353	354	9.5	67.3
2025-10-24T15:14	10	14	0.1	14	15	354	0.3	353	354	9.5	67.9
2025-10-24T15:15	10	15	0.3	14	15	354	0.2	353	354	9.5	67.9
2025-10-24T15:16	10	16	0.2	15	16	354	0.3	353	354	9.4	68.5
2025-10-24T15:17	10	15	0.3	15	16	354	0.3	354	355	9.4	68.5
2025-10-24T15:18	10	14	0.3	14	15	354	0.3	353	354	9.4	68.5
2025-10-24T15:19	10	14	0.1	14	14	354	0.2	354	355	9.4	68.1
2025-10-24T15:20	10	14	0.1	13	14	354	0.3	353	354	9.4	68.4
2025-10-24T15:21	10	13	0.2	13	14	354	0.3	353	354	9.4	68.3
2025-10-24T15:22	10	12	0.4	12	13	354	0.2	353	354	9.4	68.9
2025-10-24T15:23	10	11	0.4	10	12	353	0.2	353	354	9.4	68.9
2025-10-24T15:24	10	10	0.3	9	10	353	0.2	353	354	9.3	69.5
2025-10-24T15:25	10	9	0.3	8	9	353	0.3	353	354	9.3	69.4
2025-10-24T15:26	10	8	0.1	8	9	353	0.3	352	354	9.3	70.1
2025-10-24T15:27	10	9	0.2	8	9	353	0.2	353	354	9.3	70.4
2025-10-24T15:28	10	10	0.4	9	10	353	0.2	352	354	9.2	71.2
2025-10-24T15:29	10	11	0.7	10	13	353	0.2	353	354	9.2	71.3
2025-10-24T15:30	10	14	0.5	13	15	353	0.4	352	354	9.1	71.4
2025-10-24T15:31	10	14	0.5	13	15	352	0.3	352	353	9.0	72.4
2025-10-24T15:32	10	14	0.6	13	15	353	0.3	352	353	9.0	73.5
2025-10-24T15:33	10	16	1.0	15	18	352	0.5	352	353	8.9	73.4
2025-10-24T15:34	10	15	1.4	13	17	352	0.2	352	353	8.9	73.5
2025-10-24T15:35	10	13	0.6	12	14	352	0.3	352	353	8.9	74.3
2025-10-24T15:36	10	11	0.2	11	12	352	0.2	352	353	8.9	74.7
2025-10-24T15:37	10	11	0.1	10	11	352	0.3	351	352	8.9	74.5
2025-10-24T15:38	10	10	0.1	10	11	352	0.3	351	353	8.9	74.9
2025-10-24T15:39	10	11	0.1	10	11	352	0.3	351	352	8.9	75.3
2025-10-24T15:40	10	11	0.2	11	12	352	0.2	351	353	8.9	74.2
2025-10-24T15:41	10	12	0.4	12	13	352	0.2	351	353	8.9	73.9
2025-10-24T15:42	10	14	0.6	13	15	352	0.3	352	353	8.9	74.2
2025-10-24T15:43	10	16	0.4	15	16	353	0.2	352	353	8.9	74.8
2025-10-24T15:44	10	16	0.1	16	17	353	0.3	352	353	8.9	74.7
2025-10-24T15:45	10	16	0.1	16	17	353	0.3	352	354	8.9	74.7
2025-10-24T15:46	10	16	0.2	15	16	353	0.2	352	353	8.9	73.4
2025-10-24T15:47	10	15	0.3	14	16	352	0.2	352	353	8.9	72.9
2025-10-24T15:48	10	14	0.3	13	15	352	0.2	352	353	8.9	72.9
2025-10-24T15:49	10	13	0.3	12	14	352	0.2	352	353	8.9	73.1
2025-10-24T15:50	10	12	0.3	11	12	352	0.2	352	352	9.0	72.7
2025-10-24T15:51	10	11	0.4	10	11	352	0.3	351	352	8.9	72.8
2025-10-24T15:52	10	10	0.3	9	10	352	0.2	351	352	8.9	72.6
2025-10-24T15:53	10	9	0.2	8	9	352	0.2	351	352	8.9	73.7
2025-10-24T15:54	10	8	0.3	7	9	352	0.3	351	352	8.9	74.4
2025-10-24T15:55	10	7	0.3	6	7	352	0.2	351	352	8.9	74.7
2025-10-24T15:56	10	6	0.3	5	6	351	0.3	351	352	8.9	73.4
2025-10-24T15:57	10	5	0.3	4	5	351	0.3	351	352	8.9	73.7
2025-10-24T15:58	10	4	0.2	3	4	351	0.3	351	352	8.9	71.7
2025-10-24T15:59	10	3	0.2	3	3	351	0.3	350	351	9.0	71.5
2025-10-24T16:00	10	2	0.2	2	3	351	0.2	350	351	8.9	72.7
2025-10-24T16:01	10	2	0.1	2	2	350	0.3	350	351	8.9	73.3
2025-10-24T16:02	10	2	0.1	2	2	350	0.3	350	351	8.9	72.7
2025-10-24T16:03	10	1	0.1	1	2	350	0.2	350	351	8.9	71.8
2025-10-24T16:04	10	1	0.1	1	1	350	0.3	350	351	8.9	72.3
2025-10-24T16:05	10	1	0.1	1	1	350	0.2	350	350	8.9	72.8
2025-10-24T16:06	10	1	0.1	1	1	350	0.2	349	350	8.8	73.6
2025-10-24T16:07	10	1	0.1	1	1	350	0.2	349	350	8.8	73.4
2025-10-24T16:08	10	1	0.1	1	1	350	0.2	349	350	8.8	72.9
2025-10-24T16:09	10	1	0.1	1	1	350	0.2	349	350	8.8	72.8
2025-10-24T16:10	10	1	0.1	1	1	349	0.2	349	350	8.8	73.9
2025-10-24T16:11	10	1	0.1	1	1	349	0.2	349	350	8.8	74.4
2025-10-24T16:12	10	1	0.1	1	1	349	0.3	349	350	8.8	74.0
2025-10-24T16:13	10	1	0.1	1	1	349	0.2	349	350	8.7	74.8
2025-10-24T16:14	10	1	0.1	1	1	349	0.2	349	350	8.7	75.0
2025-10-24T16:15	10	1	0.1	1	1	349	0.2	349	349	8.7	75.2
2025-10-24T16:16	10	1	0.1	1	1	349	0.3	349	350	8.7	75.3
2025-10-24T16:17	10	1	0.1	0	1	349	0.2	349	350	8.7	75.4
2025-10-24T16:18	10	1	0.0	0	1	349	0.2	349	349	8.6	75.7
2025-10-24T16:19	10	1	0.1	0	1	349	0.2	349	350	8.6	75.7
2025-10-24T16:20	10	1	0.1	0	1	349	0.3	348	349	8.6	76.2
2025-10-24T16:21	10	1	0.1	0	1	349	0.2	348	349	8.6	75.8
2025-10-24T16:22	10	1	0.0	0	1	349	0.3	348	349	8.6	75.7
2025-10-24T16:23	10	0	0.1	0	1	349	0.2	348	349	8.6	75.7
2025-10-24T16:24	10	0	0.1	0	1	349	0.2	348	349	8.6	76.0
2025-10-24T16:25	10	0	0.0	0	1	349	0.3	348	349	8.6	76.0
2025-10-24T16:26	10	0	0.1	0	1	349	0.2	348	349	8.6	75.3
2025-10-24T16:27	10	0	0.1	0	1	349	0.2	348	349	8.6	75.6
2025-10-24T16:28	10	0	0.1	0	1	349	0.2	348	349	8.6	76.1
2025-10-24T16:29	10	0	0.1	0	1	349	0.2	348	349	8.6	75.6
2025-10-24T16:30	10	0	0.1	0	1	348	0.3	348	349	8.6	76.2
2025-10-24T16:31	10	0	0.1	0	1	349	0.2	348	349	8.6	76.6
2025-10-24T16:32	10	0	0.1	0	0	348	0.2	348	349	8.6	75.9
2025-10-24T16:33	10	0	0.1	0	1	348	0.3	348	349	8.6	76.5
2025-10-24T16:34	10	0	0.1	0	0	348	0.2	348	349	8.6	76.2
2025-10-24T16:35	10	0	0.0	0	0	349	0.2	348	349	8.6	75.3
2025-10-24T16:36	10	0	0.1	0	0	349	0.2	348	349	8.6	75.6
2025-10-24T16:37	10	0	0.1	0	0	349	0.2	348	349	8.7	74.6
2025-10-24T16:38	10	0	0.1	0	0	349	0.2	349	350	8.6	75.7
2025-10-24T16:39	10	0	0.1	0	0	349	0.2	349	349	8.6	75.5
2025-10-24T16:40	10	0	0.1	0	0	349	0.2	349	350	8.7	74.6
2025-10-24T16:41	10	0	0.1	0	0	349	0.2	348	349	8.6	75.2
2025-10-24T16:42	10	0	0.1	0	0	349	0.2	348	350	8.6	75.2
2025-10-24T16:43	10	0	0.1	0	0	349	0.2	348	349	8.6	75.1
2025-10-24T16:44	10	0	0.1	0	0	349	0.2	348	350	8.6	74.7
2025-10-24T16:45	10	0	0.1	0	0	349	0.3	349	350	8.7	74.2
2025-10-24T16:46	10	0	0.1	0	0	349	0.2	349	349	8.7	74.5
2025-10-24T16:47	10	0	0.1	0	0	349	0.2	349	349	8.7	74.6
2025-10-24T16:48	10	0	0.1	0	0	349	0.3	348	350	8.7	74.7
2025-10-24T16:49	10	0	0.1	0	0	349	0.2	348	350	8.7	73.8
2025-10-24T16:50	10	0	0.2	0	1	349	0.2	348	349	8.7	74.1
2025-10-24T16:51	10	0	0.1	0	0	349	0.3	348	350	8.7	74.3
2025-10-24T16:52	10	0	0.1	0	0	349	0.3	349	350	8.7	74.3
2025-10-24T16:53	10	0	0.1	0	0	349	0.2	348	349	8.7	74.0
2025-10-24T16:54	10	0	0.1	0	0	349	0.2	348	349	8.6	74.6
2025-10-24T16:55	10	0	0.1	-1	0	349	0.2	348	349	8.6	75.1
2025-10-24T16:56	10	0	0.1	0	0	349	0.3	348	349	8.6	75.4
2025-10-24T16:57	10	0	0.1	0	1	349	0.3	348	349	8.6	75.3
2025-10-24T16:58	10	0	0.1	0	0	349	0.2	348	349	8.5	76.4
2025-10-24T16:59	10	0	0.1	0	0	349	0.2	348	349	8.5	76.7
2025-10-24T17:00	10	0	0.2	0	0	349	0.3	348	350	8.6	75.5
2025-10-24T17:01	10	0	0.1	0	0	349	0.2	348	349	8.6	75.5
2025-10-24T17:02	10	0	0.1	-1	0	349	0.3	348	349	8.6	75.9
2025-10-24T17:03	10	0	0.1	0	0	349	0.2	349	350	8.6	75.7
2025-10-24T17:04	10	0	0.2	0	0	349	0.2	348	349	8.6	75.8
2025-10-24T17:05	10	0	0.2	-1	0	349	0.3	348	349	8.6	75.9
2025-10-24T17:06	10	0	0.1	0	0	349	0.2	348	349	8.5	76.5
2025-10-24T17:07	10	0	0.1	0	0	349	0.2	348	349	8.5	76.5
2025-10-24T17:08	10	0	0.1	0	0	349	0.3	348	349	8.5	76.4
2025-10-24T17:09	10	0	0.1	0	0	349	0.2	348	349	8.5	76.5
2025-10-24T17:10	10	0	0.2	0	0	349	0.3	348	349	8.6	75.9
2025-10-24T17:11	10	0	0.2	0	0	349	0.2	348	350	8.6	76.1
2025-10-24T17:12	10	0	0.2	0	0	349	0.3	348	350	8.6	75.9
2025-10-24T17:13	10	0	0.1	0	0	349	0.3	348	349	8.6	76.3
2025-10-24T17:14	10	0	0.1	0	0	349	0.3	348	349	8.5	76.4
2025-10-24T17:15	10	0	0.2	0	0	349	0.3	348	349	8.6	76.1
2025-10-24T17:16	10	0	0.2	0	0	349	0.3	348	349	8.6	76.5
2025-10-24T17:17	10	0	0.2	0	1	349	0.2	348	350	8.6	76.3
2025-10-24T17:18	10	0	0.1	0	0	349	0.2	348	349	8.6	76.0
2025-10-24T17:19	10	0	0.1	0	0	349	0.2	349	350	8.6	76.1
2025-10-24T17:20	10	0	0.1	0	0	349	0.3	348	350	8.6	76.4
2025-10-24T17:21	10	0	0.1	0	0	349	0.2	348	349	8.5	77.0
2025-10-24T17:22	10	0	0.1	0	0	349	0.3	347	349	8.5	77.0
2025-10-24T17:23	10	0	0.1	0	0	349	0.3	348	350	8.5	76.8
2025-10-24T17:24	10	0	0.1	0	0	349	0.2	349	349	8.5	76.7
2025-10-24T17:25	10	0	0.1	0	0	349	0.3	349	350	8.5	76.8
2025-10-24T17:26	10	0	0.1	0	0	349	0.2	348	350	8.5	76.8
2025-10-24T17:27	10	0	0.1	0	0	349	0.3	348	350	8.5	77.1
2025-10-24T17:28	10	0	0.1	0	0	349	0.3	349	350	8.5	76.8
2025-10-24T17:29	10	0	0.1	0	0	349	0.2	348	349	8.5	77.1
2025-10-24T17:30	10	0	0.1	0	0	349	0.2	348	349	8.5	77.9
2025-10-24T17:31	10	0	0.1	0	0	349	0.3	348	349	8.4	78.2
2025-10-24T17:32	10	0	0.1	0	0	349	0.2	348	349	8.5	77.4
2025-10-24T17:33	10	0	0.1	0	0	349	0.3	348	349	8.5	77.8
2025-10-24T17:34	10	0	0.1	0	0	349	0.3	348	349	8.4	77.9
2025-10-24T17:35	10	0	0.1	0	0	349	0.2	348	349	8.4	77.8
2025-10-24T17:36	10	0	0.1	0	1	349	0.2	348	349	8.5	77.5
2025-10-24T17:37	10	0	0.1	0	0	349	0.3	348	350	8.4	77.9
2025-10-24T17:38	10	0	0.1	0	0	349	0.2	348	349	8.5	77.5
2025-10-24T17:39	10	0	0.1	0	0	349	0.2	348	349	8.5	76.8
2025-10-24T17:40	10	0	0.1	0	0	349	0.2	349	349	8.5	77.3
2025-10-24T17:41	10	0	0.1	0	0	349	0.2	349	349	8.4	77.9
2025-10-24T17:42	10	0	0.1	0	0	349	0.2	348	349	8.5	77.8
2025-10-24T17:43	10	0	0.1	0	0	349	0.3	348	349	8.4	78.4
2025-10-24T17:44	10	0	0.1	0	0	349	0.2	348	349	8.4	78.1
2025-10-24T17:45	10	0	0.1	0	0	349	0.3	348	349	8.4	78.6
2025-10-24T17:46	10	0	0.1	0	0	349	0.2	348	349	8.4	78.5
2025-10-24T17:47	10	0	0.1	0	0	349	0.2	348	349	8.4	78.6
2025-10-24T17:48	10	0	0.1	0	1	349	0.2	348	349	8.4	78.4
2025-10-24T17:49	10	0	0.1	0	1	349	0.2	348	349	8.4	78.5
2025-10-24T17:50	10	0	0.1	0	0	349	0.2	348	349	8.4	78.8
2025-10-24T17:51	10	0	0.1	0	0	349	0.3	348	349	8.4	78.1
2025-10-24T17:52	10	0	0.1	0	0	349	0.2	349	349	8.4	78.3
2025-10-24T17:53	10	0	0.1	0	0	349	0.3	348	349	8.4	78.7
2025-10-24T17:54	10	0	0.1	0	0	349	0.3	348	349	8.4	78.6
2025-10-24T17:55	10	0	0.1	0	0	349	0.2	348	349	8.4	78.9
2025-10-24T17:56	10	0	0.2	0	1	348	0.2	348	349	8.4	78.5
2025-10-24T17:57	10	0	0.1	0	0	349	0.3	348	349	8.4	78.3
2025-10-24T17:58	10	0	0.1	0	0	349	0.3	348	349	8.4	78.3
2025-10-24T17:59	10	0	0.1	0	0	349	0.3	348	349	8.4	78.7
2025-10-24T18:00	10	0	0.1	0	0	349	0.3	348	349	8.4	78.5
2025-10-24T18:01	10	0	0.1	0	0	349	0.3	348	349	8.4	78.6
2025-10-24T18:02	10	0	0.1	0	0	349	0.2	348	349	8.4	78.6
2025-10-24T18:03	10	0	0.1	0	0	349	0.2	348	349	8.4	78.6
2025-10-24T18:04	10	0	0.1	0	0	349	0.2	348	349	8.4	78.4
2025-10-24T18:05	10	0	0.1	0	0	349	0.2	348	349	8.4	78.6
2025-10-24T18:06	10	0	0.1	0	0	349	0.2	348	349	8.4	78.2
2025-10-24T18:07	10	0	0.1	0	0	349	0.2	348	349	8.4	78.5
2025-10-24T18:08	10	0	0.1	0	0	349	0.3	348	349	8.5	77.9
2025-10-24T18:09	10	0	0.1	0	0	349	0.2	348	349	8.5	78.5
2025-10-24T18:10	10	0	0.1	0	0	349	0.2	348	349	8.5	78.0
2025-10-24T18:11	10	0	0.1	0	0	349	0.2	348	349	8.5	78.6
2025-10-24T18:12	10	0	0.1	0	0	349	0.2	348	349	8.5	78.1
2025-10-24T18:13	10	0	0.1	0	0	348	0.2	348	349	8.5	77.9
2025-10-24T18:14	10	0	0.1	0	0	348	0.2	348	349	8.5	77.8
2025-10-24T18:15	10	0	0.1	0	0	348	0.2	348	349	8.5	78.6
2025-10-24T18:16	10	0	0.1	0	0	348	0.2	347	348	8.5	78.1
2025-10-24T18:17	10	0	0.1	0	0	348	0.3	347	348	8.5	78.2
2025-10-24T18:18	10	0	0.1	0	0	348	0.2	347	348	8.5	77.9
2025-10-24T18:19	10	0	0.1	0	0	348	0.2	347	348	8.5	78.0
2025-10-24T18:20	10	0	0.1	0	0	348	0.2	347	348	8.5	78.3
2025-10-24T18:21	10	0	0.1	0	0	348	0.2	347	348	8.6	77.2
2025-10-24T18:22	10	0	0.1	0	0	347	0.2	347	348	8.5	77.8
2025-10-24T18:23	10	0	0.1	0	0	348	0.3	347	348	8.6	77.3
2025-10-24T18:24	10	0	0.1	0	0	348	0.3	347	349	8.5	77.6
2025-10-24T18:25	10	0	0.1	0	0	348	0.3	347	349	8.5	77.8
2025-10-24T18:26	10	0	0.1	0	0	348	0.2	347	348	8.5	78.3
2025-10-24T18:27	10	0	0.0	0	0	348	0.2	347	349	8.5	78.1
2025-10-24T18:28	10	0	0.0	0	0	348	0.2	347	348	8.5	78.0
2025-10-24T18:29	10	0	0.1	0	0	348	0.2	347	348	8.5	78.1
2025-10-24T18:30	10	0	0.1	0	0	347	0.2	347	348	8.4	78.5
2025-10-24T18:31	10	0	0.1	0	0	348	0.2	347	348	8.5	78.4
2025-10-24T18:32	10	0	0.1	0	0	347	0.2	347	348	8.5	78.5
2025-10-24T18:33	10	0	0.1	0	0	347	0.2	347	348	8.4	78.8
2025-10-24T18:34	10	0	0.1	0	0	347	0.3	347	348	8.4	78.5
2025-10-24T18:35	10	0	0.1	0	0	346	0.3	346	347	8.4	79.3
2025-10-24T18:36	10	0	0.1	0	0	346	0.2	346	347	8.4	79.1
2025-10-24T18:37	10	0	0.0	0	0	346	0.3	346	347	8.4	78.8
2025-10-24T18:38	10	0	0.1	0	0	346	0.2	346	347	8.5	78.5
2025-10-24T18:39	10	0	0.1	0	0	346	0.2	345	346	8.4	79.0
2025-10-24T18:40	10	0	0.1	0	0	345	0.3	345	346	8.4	79.4
2025-10-24T18:41	10	0	0.1	0	0	345	0.2	345	346	8.3	79.7
2025-10-24T18:42	10	0	0.1	0	0	345	0.2	345	346	8.3	79.8
2025-10-24T18:43	10	0	0.1	0	0	345	0.2	345	346	8.3	79.8
2025-10-24T18:44	10	0	0.0	0	0	345	0.3	344	346	8.3	80.3
2025-10-24T18:45	10	0	0.1	0	0	345	0.2	345	346	8.3	80.0
2025-10-24T18:46	10	0	0.1	0	0	345	0.2	344	345	8.3	80.6
2025-10-24T18:47	10	0	0.1	0	0	346	0.3	345	346	8.2	76.9
2025-10-24T18:48	10	0	0.1	0	0	345	0.2	345	346	8.4	79.6
2025-10-24T18:49	10	0	0.1	0	0	346	0.3	345	346	8.4	76.8
2025-10-24T18:50	10	0	0.1	0	0	345	0.3	345	346	8.4	76.9
2025-10-24T18:51	10	0	0.1	0	0	345	0.2	345	346	8.4	79.6
2025-10-24T18:52	10	0	0.1	0	0	345	0.2	345	346	8.4	79.6
2025-10-24T18:53	10	0	0.1	0	0	345	0.3	344	346	8.4	79.6
2025-10-24T18:54	10	0	0.1	0	0	345	0.3	345	346	8.4	79.6
2025-10-24T18:55	10	0	0.1	0	0	345	0.2	345	346	8.3	80.1
2025-10-24T18:56	10	0	0.1	0	0	346	0.2	345	346	8.2	80.8
2025-10-24T18:57	10	0	0.1	0	0	346	0.3	345	347	8.2	81.4
2025-10-24T18:58	10	0	0.1	0	0	346	0.2	346	347	8.2	81.6
2025-10-24T18:59	10	0	0.1	0	0	347	0.3	346	347	8.3	81.0
2025-10-24T19:00	10	0	0.1	0	0	347	0.2	346	347	8.2	81.4
2025-10-24T19:01	10	0	0.1	0	0	347	0.2	346	347	8.2	81.5
2025-10-24T19:02	10	0	0.1	0	0	347	0.2	346	347	8.2	81.5
2025-10-24T19:03	10	0	0.1	0	0	347	0.3	346	347	8.2	81.6
2025-10-24T19:04	10	0	0.1	0	0	347	0.3	346	347	8.2	81.8
2025-10-24T19:05	10	0	0.1	0	0	347	0.2	346	347	8.2	82.0
2025-10-24T19:06	10	0	0.1	0	0	347	0.2	346	347	8.2	81.7
2025-10-24T19:07	10	0	0.1	0	0	347	0.2	347	347	8.3	80.8
2025-10-24T19:08	10	0	0.1	0	0	347	0.2	347	348	8.4	80.4
2025-10-24T19:09	10	0	0.1	0	0	347	0.2	347	348	8.4	80.7
2025-10-24T19:10	10	0	0.1	0	0	347	0.2	346	347	8.3	81.6
2025-10-24T19:11	10	0	0.0	0	0	347	0.2	346	347	8.3	81.6
2025-10-24T19:12	10	0	0.1	0	0	346	0.3	346	347	8.3	81.5
2025-10-24T19:13	10	0	0.1	0	0	347	0.3	346	347	8.3	81.2
2025-10-24T19:14	10	0	0.1	0	0	347	0.2	346	347	8.3	80.8
2025-10-24T19:15	10	0	0.1	0	0	347	0.3	346	347	8.4	80.4
2025-10-24T19:16	10	0	0.1	0	0	346	0.3	346	347	8.4	80.8
2025-10-24T19:17	10	0	0.1	0	0	347	0.2	346	347	8.4	80.5
2025-10-24T19:18	10	0	0.1	0	0	347	0.2	346	347	8.4	80.3
2025-10-24T19:19	10	0	0.0	0	0	347	0.3	346	347	8.4	80.3
2025-10-24T19:20	10	0	0.1	0	0	347	0.3	346	348	8.4	79.9
2025-10-24T19:21	10	0	0.1	0	0	347	0.2	347	348	8.4	80.0
2025-10-24T19:22	10	0	0.1	0	0	347	0.2	347	348	8.5	79.5
2025-10-24T19:23	10	0	0.0	0	0	348	0.3	347	348	8.5	79.6
2025-10-24T19:24	10	0	0.1	0	0	348	0.2	347	348	8.5	79.2
2025-10-24T19:25	10	0	0.1	0	0	348	0.2	347	348	8.5	79.4
2025-10-24T19:26	10	0	0.1	0	0	348	0.2	347	348	8.5	79.7
2025-10-24T19:27	10	0	0.1	0	0	348	0.3	347	348	8.5	79.8
2025-10-24T19:28	10	0	0.1	0	0	348	0.2	347	348	8.5	79.9
2025-10-24T19:29	10	0	0.1	0	0	348	0.2	347	348	8.5	79.4
2025-10-24T19:30	10	0	0.1	0	0	348	0.2	347	348	8.5	79.5
2025-10-24T19:31	10	0	0.1	0	0	348	0.2	347	348	8.5	80.1
2025-10-24T19:32	10	0	0.1	0	0	348	0.2	347	348	8.6	79.1
2025-10-24T19:33	10	0	0.1	0	0	348	0.2	347	348	8.6	78.7
2025-10-24T19:34	10	0	0.1	0	0	347	0.3	347	348	8.6	78.6
2025-10-24T19:35	10	0	0.1	0	0	348	0.3	347	348	8.6	79.0
2025-10-24T19:36	10	0	0.1	0	0	348	0.2	347	348	8.7	78.4
2025-10-24T19:37	10	0	0.1	0	0	348	0.3	347	348	8.7	78.4
2025-10-24T19:38	10	0	0.1	0	0	348	0.2	347	348	8.6	79.2
2025-10-24T19:39	10	0	0.1	0	0	348	0.2	347	348	8.6	79.3
2025-10-24T19:40	10	0	0.1	0	0	348	0.3	347	348	8.6	79.3
2025-10-24T19:41	10	0	0.1	0	0	348	0.3	347	349	8.6	79.3
2025-10-24T19:42	10	0	0.1	0	0	348	0.2	348	349	8.7	78.9
2025-10-24T19:43	10	0	0.1	0	0	348	0.2	348	349	8.7	79.1
2025-10-24T19:44	10	0	0.1	0	0	348	0.3	347	349	8.7	78.6
2025-10-24T19:45	10	0	0.0	0	0	349	0.2	348	349	8.8	78.1
2025-10-24T19:46	10	0	0.1	0	0	349	0.2	348	349	8.8	77.6
2025-10-24T19:47	10	0	0.1	0	0	349	0.2	348	349	8.9	77.1
2025-10-24T19:48	10	0	0.1	0	0	349	0.2	348	349	8.8	77.7
2025-10-24T19:49	10	0	0.1	0	0	349	0.2	348	349	8.8	77.8
2025-10-24T19:50	10	0	0.1	0	0	349	0.4	348	349	8.8	77.8
2025-10-24T19:51	10	0	0.1	0	0	349	0.3	348	349	8.8	78.1
2025-10-24T19:52	10	0	0.1	0	0	349	0.2	348	349	8.8	78.4
2025-10-24T19:53	10	0	0.1	0	0	348	0.2	348	349	8.8	77.8
2025-10-24T19:54	10	0	0.1	0	0	348	0.2	348	349	8.8	78.4
2025-10-24T19:55	10	0	0.1	0	0	349	0.2	348	349	8.8	78.3
2025-10-24T19:56	10	0	0.1	0	0	349	0.2	348	349	8.8	78.0
2025-10-24T19:57	10	0	0.1	0	0	348	0.2	348	349	8.8	78.2
2025-10-24T19:58	10	0	0.1	0	0	349	0.2	348	349	8.8	78.3
2025-10-24T19:59	10	0	0.1	0	0	349	0.2	348	349	8.8	78.8
2025-10-24T20:00	10	0	0.0	0	0	349	0.3	348	349	8.8	78.7
2025-10-24T20:01	10	0	0.1	0	0	348	0.2	348	349	8.7	79.6
2025-10-24T20:02	10	0	0.1	0	0	348	0.2	348	349	8.7	80.1
2025-10-24T20:03	10	0	0.0	0	0	348	0.2	348	349	8.7	79.8
2025-10-24T20:04	10	0	0.1	0	0	348	0.3	348	349	8.7	79.5
2025-10-24T20:05	10	0	0.1	0	0	349	0.2	348	349	8.7	79.3
2025-10-24T20:06	10	0	0.1	0	0	349	0.3	348	349	8.7	79.8
2025-10-24T20:07	10	0	0.1	0	0	348	0.3	348	349	8.7	80.2
2025-10-24T20:08	10	0	0.1	0	0	348	0.2	348	349	8.7	80.2
2025-10-24T20:09	10	0	0.1	0	0	348	0.3	348	349	8.7	79.9
2025-10-24T20:10	10	0	0.1	0	0	349	0.2	348	349	8.8	79.3
2025-10-24T20:11	10	0	0.1	0	0	349	0.3	348	349	8.7	79.9
2025-10-24T20:12	10	0	0.1	0	0	348	0.2	348	349	8.6	80.6
2025-10-24T20:13	10	0	0.1	0	0	349	0.2	348	349	8.6	80.6
2025-10-24T20:14	10	0	0.1	0	0	349	0.2	348	349	8.7	80.0
2025-10-24T20:15	10	0	0.1	0	0	349	0.3	348	349	8.7	79.9
2025-10-24T20:16	10	0	0.1	0	0	348	0.3	348	349	8.7	80.3
2025-10-24T20:17	10	0	0.1	0	0	348	0.2	348	349	8.6	80.7
2025-10-24T20:18	10	0	0.1	0	0	348	0.3	348	349	8.6	80.8
2025-10-24T20:19	10	0	0.1	0	0	348	0.3	348	349	8.6	81.4
2025-10-24T20:20	10	0	0.1	0	0	348	0.2	348	349	8.5	81.9
2025-10-24T20:21	10	0	0.1	0	0	348	0.2	348	349	8.5	82.0
2025-10-24T20:22	10	0	0.0	0	0	348	0.2	348	349	8.5	82.0
2025-10-24T20:23	10	0	0.1	0	0	348	0.2	348	349	8.5	82.3
2025-10-24T20:24	10	0	0.1	0	0	349	0.2	348	349	8.5	82.4
2025-10-24T20:25	10	0	0.1	0	0	348	0.2	348	349	8.5	82.4
2025-10-24T20:26	10	0	0.1	0	0	349	0.2	348	349	8.5	82.3
2025-10-24T20:27	10	0	0.1	0	0	348	0.2	348	349	8.6	81.3
2025-10-24T20:28	10	0	0.1	0	0	349	0.2	348	349	8.6	81.3
2025-10-24T20:29	10	0	0.1	0	0	348	0.2	348	349	8.6	81.7
2025-10-24T20:30	10	0	0.1	0	0	349	0.2	348	349	8.6	81.4
2025-10-24T20:31	10	0	0.1	0	0	349	0.2	348	349	8.6	82.1
2025-10-24T20:32	10	0	0.1	0	0	349	0.2	348	349	8.6	81.7
2025-10-24T20:33	10	0	0.1	0	0	349	0.2	348	349	8.6	81.7
2025-10-24T20:34	10	0	0.1	0	0	349	0.2	348	349	8.6	82.2
2025-10-24T20:35	10	0	0.1	0	0	348	0.3	348	349	8.6	82.1
2025-10-24T20:36	10	0	0.1	0	0	349	0.2	348	349	8.6	82.2
2025-10-24T20:37	10	0	0.1	0	0	349	0.2	348	349	8.7	80.6
2025-10-24T20:38	10	0	0.1	0	0	349	0.2	348	349	8.7	81.3
2025-10-24T20:39	10	0	0.1	0	0	349	0.2	348	349	8.7	81.0
2025-10-24T20:40	10	0	0.0	0	0	349	0.2	348	349	8.8	80.0
2025-10-24T20:41	10	0	0.1	0	0	349	0.2	348	349	8.8	80.2
2025-10-24T20:42	10	0	0.1	0	0	349	0.2	348	349	8.7	81.1
2025-10-24T20:43	10	0	0.1	0	0	349	0.3	348	349	8.7	80.6
2025-10-24T20:44	10	0	0.1	0	0	349	0.2	348	349	8.8	80.4
2025-10-24T20:45	10	0	0.1	-1	0	349	0.2	348	349	8.7	81.0
2025-10-24T20:46	10	0	0.1	0	0	349	0.3	348	349	8.7	80.6
2025-10-24T20:47	10	0	0.1	0	0	349	0.2	348	349	8.7	80.7
2025-10-24T20:48	10	0	0.1	0	0	348	0.2	348	349	8.6	82.0
2025-10-24T20:49	10	0	0.1	0	0	348	0.3	348	349	8.6	82.2
2025-10-24T20:50	10	0	0.1	0	0	348	0.2	348	349	8.6	82.7
2025-10-24T20:51	10	0	0.1	0	0	348	0.3	348	349	8.5	82.9
2025-10-24T20:52	10	0	0.0	0	0	349	0.2	348	349	8.6	82.4
2025-10-24T20:53	10	0	0.1	0	0	349	0.3	348	349	8.6	83.0
2025-10-24T20:54	10	0	0.1	0	0	348	0.2	348	349	8.5	82.9
2025-10-24T20:55	10	0	0.1	0	0	349	0.2	348	349	8.5	83.5
2025-10-24T20:56	10	0	0.1	0	0	349	0.3	348	349	8.5	84.0
2025-10-24T20:57	10	0	0.0	0	0	349	0.2	348	349	8.6	82.7
2025-10-24T20:58	10	0	0.1	0	0	349	0.2	348	349	8.6	83.0
2025-10-24T20:59	10	0	0.1	0	0	348	0.2	348	349	8.5	83.8
2025-10-24T21:00	10	0	0.1	0	0	348	0.2	348	349	8.4	84.1
2025-10-24T21:01	10	0	0.1	0	0	349	0.2	348	349	8.5	83.6
2025-10-24T21:02	10	0	0.1	0	0	348	0.2	348	349	8.4	84.4
2025-10-24T21:03	10	0	0.1	0	0	348	0.2	348	349	8.4	85.1
2025-10-24T21:04	10	0	0.1	0	0	349	0.2	348	349	8.4	84.7
2025-10-24T21:05	10	0	0.1	0	0	348	0.2	348	349	8.4	84.5
2025-10-24T21:06	10	0	0.1	0	0	348	0.2	348	349	8.4	83.9
2025-10-24T21:07	10	0	0.1	0	0	348	0.3	348	349	8.4	84.9
2025-10-24T21:08	10	0	0.1	0	0	348	0.3	347	349	8.3	85.7
2025-10-24T21:09	10	0	0.1	0	0	348	0.2	348	349	8.3	85.7
2025-10-24T21:10	10	0	0.1	0	0	348	0.3	347	349	8.3	86.0
2025-10-24T21:11	10	0	0.1	0	0	348	0.2	348	349	8.3	86.4
2025-10-24T21:12	10	0	0.1	0	0	348	0.2	347	349	8.3	85.8
2025-10-24T21:13	10	0	0.1	0	0	348	0.2	347	348	8.2	87.0
2025-10-24T21:14	10	0	0.1	0	0	348	0.2	348	348	8.3	86.3
2025-10-24T21:15	10	0	0.1	0	0	348	0.2	348	349	8.3	85.9
2025-10-24T21:16	10	0	0.1	0	0	348	0.3	348	349	8.3	86.4
2025-10-24T21:17	10	0	0.1	0	0	348	0.3	348	349	8.2	87.1
2025-10-24T21:18	10	0	0.1	0	0	348	0.3	348	349	8.2	87.1
2025-10-24T21:19	10	0	0.1	0	0	348	0.2	348	349	8.2	87.6
2025-10-24T21:20	10	0	0.1	0	0	348	0.3	347	349	8.2	87.9
2025-10-24T21:21	10	0	0.1	0	0	348	0.3	347	348	8.1	88.7
2025-10-24T21:22	10	0	0.1	0	0	348	0.2	347	348	8.1	88.2
2025-10-24T21:23	10	0	0.1	0	0	348	0.2	347	349	8.1	89.0
2025-10-24T21:24	10	0	0.1	0	0	348	0.2	347	348	8.1	89.2
2025-10-24T21:25	10	0	0.1	0	0	348	0.3	347	349	8.1	89.0
2025-10-24T21:26	10	0	0.1	0	0	348	0.2	347	348	8.1	88.8
2025-10-24T21:27	10	0	0.1	0	0	348	0.3	347	349	8.1	88.5
2025-10-24T21:28	10	0	0.1	0	0	348	0.2	347	348	8.1	88.9
2025-10-24T21:29	10	0	0.1	0	0	348	0.2	347	348	8.1	88.9
2025-10-24T21:30	10	0	0.1	0	0	348	0.3	347	348	8.1	89.1
2025-10-24T21:31	10	0	0.0	0	0	347	0.2	347	348	8.1	89.2
2025-10-24T21:32	10	0	0.1	0	0	347	0.2	347	348	8.0	89.6
2025-10-24T21:33	10	0	0.1	0	0	347	0.2	347	348	8.0	90.1
2025-10-24T21:34	10	0	0.1	0	0	347	0.2	347	348	8.1	88.4
2025-10-24T21:35	10	0	0.0	0	0	347	0.3	346	347	8.1	89.4
2025-10-24T21:36	10	0	0.1	0	0	347	0.2	347	347	8.1	88.9
2025-10-24T21:37	10	0	0.1	0	0	347	0.3	346	347	8.1	88.4
2025-10-24T21:38	10	0	0.1	0	0	347	0.2	347	348	8.2	88.1
2025-10-24T21:39	10	0	0.1	0	0	347	0.3	346	348	8.2	88.1
2025-10-24T21:40	10	0	0.1	0	0	347	0.3	347	348	8.1	88.4
2025-10-24T21:41	10	0	0.1	0	0	347	0.2	346	347	8.2	88.1
2025-10-24T21:42	10	0	0.1	0	0	347	0.3	347	348	8.2	88.2
2025-10-24T21:43	10	0	0.1	0	0	348	0.2	347	348	8.2	87.4
2025-10-24T21:44	10	0	0.1	0	0	347	0.2	347	348	8.2	87.9
2025-10-24T21:45	10	0	0.1	0	0	347	0.2	347	348	8.1	88.7
2025-10-24T21:46	10	0	0.1	0	0	347	0.2	347	348	8.2	88.2
2025-10-24T21:47	10	0	0.1	0	0	348	0.3	347	348	8.3	87.7
2025-10-24T21:48	10	0	0.1	0	0	348	0.2	347	348	8.3	87.7
2025-10-24T21:49	10	0	0.1	0	0	347	0.2	347	348	8.2	88.0
2025-10-24T21:50	10	0	0.1	0	0	348	0.2	347	348	8.2	88.4
2025-10-24T21:51	10	0	0.1	0	0	347	0.2	347	348	8.2	88.6
2025-10-24T21:52	10	0	0.1	0	0	347	0.3	347	348	8.2	89.1
2025-10-24T21:53	10	0	0.1	0	0	347	0.3	347	348	8.2	89.1
2025-10-24T21:54	10	0	0.1	0	0	347	0.2	347	348	8.2	89.0
2025-10-24T21:55	10	0	0.1	0	0	347	0.3	347	348	8.2	89.1
2025-10-24T21:56	10	0	0.0	0	0	348	0.3	347	348	8.1	89.2
2025-10-24T21:57	10	0	0.1	0	0	347	0.2	347	348	8.1	89.5
2025-10-24T21:58	10	0	0.1	0	0	347	0.2	347	348	8.1	90.0
2025-10-24T21:59	10	0	0.1	0	0	347	0.3	347	348	8.1	90.1
2025-10-24T22:00	10	0	0.1	0	0	347	0.2	347	348	8.1	90.1
2025-10-24T22:01	10	0	0.1	0	0	347	0.2	347	348	8.1	90.1
2025-10-24T22:02	10	0	0.1	0	0	348	0.3	347	348	8.1	90.1
2025-10-24T22:03	10	0	0.1	0	0	348	0.2	347	348	8.2	88.7
2025-10-24T22:04	10	0	0.1	0	0	348	0.3	347	348	8.1	89.8
2025-10-24T22:05	10	0	0.1	0	0	348	0.3	347	348	8.1	90.4
2025-10-24T22:06	10	0	0.1	0	0	348	0.2	347	348	8.1	90.0
2025-10-24T22:07	10	0	0.1	0	0	348	0.2	347	348	8.1	90.3
2025-10-24T22:08	10	0	0.1	0	0	348	0.2	347	348	8.1	89.7
2025-10-24T22:09	10	0	0.1	0	0	348	0.3	347	348	8.1	90.3
2025-10-24T22:10	10	0	0.1	0	0	348	0.3	347	348	8.1	90.2
2025-10-24T22:11	10	0	0.1	0	0	348	0.3	347	348	8.1	90.2
2025-10-24T22:12	10	0	0.1	0	0	348	0.2	347	348	8.1	90.3
2025-10-24T22:13	10	0	0.1	0	0	348	0.2	347	348	8.1	90.6
2025-10-24T22:14	10	0	0.1	0	0	348	0.3	347	348	8.1	90.2
2025-10-24T22:15	10	0	0.1	0	0	348	0.2	348	349	8.1	90.3
2025-10-24T22:16	10	0	0.1	0	0	348	0.2	348	349	8.1	89.8
2025-10-24T22:17	10	0	0.1	0	0	348	0.3	347	349	8.2	89.1
2025-10-24T22:18	10	0	0.1	0	0	348	0.2	348	349	8.2	89.7
2025-10-24T22:19	10	0	0.1	0	0	348	0.3	347	349	8.2	89.1
2025-10-24T22:20	10	0	0.1	0	0	348	0.3	348	349	8.2	89.5
2025-10-24T22:21	10	0	0.1	0	0	348	0.3	348	349	8.2	89.7
2025-10-24T22:22	10	0	0.1	0	0	348	0.3	348	349	8.3	88.8
2025-10-24T22:23	10	0	0.1	-1	0	349	0.2	348	349	8.3	87.9
2025-10-24T22:24	10	0	0.1	0	0	348	0.2	348	349	8.3	87.9
2025-10-24T22:25	10	0	0.1	0	0	349	0.2	348	349	8.3	88.2
2025-10-24T22:26	10	0	0.1	-1	0	348	0.3	348	349	8.3	88.3
2025-10-24T22:27	10	0	0.1	0	0	348	0.2	348	349	8.3	88.3
2025-10-24T22:28	10	0	0.1	0	0	348	0.3	348	349	8.3	88.2
2025-10-24T22:29	10	0	0.1	-1	0	348	0.2	348	349	8.3	88.4
2025-10-24T22:30	10	0	0.1	-1	0	349	0.2	348	349	8.4	87.4
2025-10-24T22:31	10	0	0.1	-1	0	349	0.3	348	349	8.4	87.5
2025-10-24T22:32	10	0	0.1	-1	0	348	0.2	348	349	8.4	87.8
2025-10-24T22:33	10	0	0.1	-1	0	349	0.3	348	349	8.4	87.6
2025-10-24T22:34	10	0	0.1	-1	0	349	0.2	348	349	8.4	87.5
2025-10-24T22:35	10	0	0.1	-1	0	349	0.3	348	349	8.4	87.2
2025-10-24T22:36	10	0	0.1	-1	0	349	0.2	348	349	8.4	87.4
2025-10-24T22:37	10	0	0.1	-1	0	349	0.2	348	349	8.4	88.0
2025-10-24T22:38	10	0	0.1	-1	0	348	0.2	348	349	8.4	88.1
2025-10-24T22:39	10	0	0.1	-1	0	349	0.2	348	349	8.4	88.2
2025-10-24T22:40	10	0	0.1	0	0	349	0.2	348	349	8.4	88.3
2025-10-24T22:41	10	0	0.1	-1	0	349	0.2	348	349	8.5	86.9
2025-10-24T22:42	10	0	0.1	-1	0	349	0.2	348	349	8.6	86.7
2025-10-24T22:43	10	0	0.1	-1	0	348	0.2	348	349	8.5	87.2
2025-10-24T22:44	10	0	0.1	-1	0	349	0.2	348	349	8.5	87.3
2025-10-24T22:45	10	0	0.1	-1	0	348	0.3	347	349	8.5	87.2
2025-10-24T22:46	10	0	0.1	-1	0	348	0.2	348	349	8.5	87.3
2025-10-24T22:47	10	0	0.1	-1	0	349	0.2	349	349	8.7	86.0
2025-10-24T22:48	10	-1	0.1	-1	0	349	0.2	348	349	8.6	86.3
2025-10-24T22:49	10	0	0.1	-1	0	349	0.2	348	349	8.6	86.6
2025-10-24T22:50	10	0	0.1	-1	0	348	0.2	348	349	8.6	86.9
2025-10-24T22:51	10	0	0.1	-1	0	349	0.2	348	349	8.6	86.9
2025-10-24T22:52	10	-1	0.1	-1	0	348	0.2	348	349	8.6	86.8
2025-10-24T22:53	10	-1	0.1	-1	0	349	0.2	348	349	8.7	86.0
2025-10-24T22:54	10	-1	0.1	-1	0	349	0.2	348	349	8.7	85.8
2025-10-24T22:55	10	-1	0.1	-1	-1	349	0.2	348	349	8.7	85.9
2025-10-24T22:56	10	-1	0.1	-1	-1	349	0.2	349	350	8.7	86.1
2025-10-24T22:57	10	-1	0.1	-1	0	349	0.2	348	350	8.7	86.0
2025-10-24T22:58	10	-1	0.1	-1	-1	349	0.2	348	349	8.8	85.4
2025-10-24T22:59	10	-1	0.1	-1	-1	349	0.3	348	350	8.9	84.5
2025-10-24T23:00	10	-1	0.1	-1	-1	349	0.3	348	350	8.8	85.1
2025-10-24T23:01	10	-1	0.1	-1	0	349	0.3	348	349	8.8	85.5
2025-10-24T23:02	10	-1	0.1	-1	0	349	0.3	348	349	8.7	85.8
2025-10-24T23:03	10	0	0.1	-1	0	349	0.3	348	349	8.8	85.4
2025-10-24T23:04	10	0	0.1	-1	0	349	0.2	348	349	8.8	84.7
2025-10-24T23:05	10	-1	0.1	-1	0	349	0.2	348	349	8.8	84.9
2025-10-24T23:06	10	-1	0.1	-1	0	349	0.2	349	350	8.8	85.6
2025-10-24T23:07	10	-1	0.1	-1	0	349	0.2	349	350	8.7	85.8
2025-10-24T23:08	10	-1	0.1	-1	0	349	0.3	349	350	8.8	85.0
2025-10-24T23:09	10	-1	0.1	-1	0	350	0.2	350	350	8.9	84.4
2025-10-24T23:10	10	-1	0.1	-1	-1	350	0.3	349	350	8.8	85.2
2025-10-24T23:11	10	-1	0.1	-1	-1	350	0.2	349	350	8.8	85.7
2025-10-24T23:12	10	-1	0.1	-1	0	350	0.2	349	350	8.8	85.6
2025-10-24T23:13	10	-1	0.1	-1	0	350	0.2	349	350	8.8	85.2
2025-10-24T23:14	10	-1	0.1	-1	0	350	0.2	349	350	8.9	84.8
2025-10-24T23:15	10	-1	0.1	-1	-1	349	0.3	349	350	8.9	84.8
2025-10-24T23:16	10	-1	0.1	-1	-1	349	0.3	349	350	8.8	85.9
2025-10-24T23:17	10	-1	0.1	-1	-1	349	0.3	348	350	8.9	85.6
2025-10-24T23:18	10	-1	0.1	-1	-1	349	0.3	348	349	8.8	86.3
2025-10-24T23:19	10	-1	0.1	-1	-1	349	0.2	349	349	8.9	86.1
2025-10-24T23:20	10	-1	0.1	-2	-1	349	0.2	348	350	8.9	86.4
2025-10-24T23:21	10	-2	0.1	-2	-1	349	0.3	348	349	8.8	87.0
2025-10-24T23:22	10	-1	0.1	-2	-1	349	0.3	348	349	8.7	87.5
2025-10-24T23:23	10	-1	0.1	-1	-1	349	0.2	349	350	8.7	87.7
2025-10-24T23:24	10	-1	0.1	-1	-1	349	0.3	349	350	8.8	87.1
2025-10-24T23:25	10	-1	0.1	-1	-1	350	0.3	349	350	8.8	86.7
2025-10-24T23:26	10	-1	0.1	-1	-1	350	0.2	349	350	8.9	86.6
2025-10-24T23:27	10	-1	0.1	-1	-1	350	0.2	350	350	8.8	87.2
2025-10-24T23:28	10	-1	0.1	-1	0	350	0.2	350	350	8.9	86.5
2025-10-24T23:29	10	-1	0.1	-1	0	350	0.2	349	350	8.8	86.9
2025-10-24T23:30	10	0	0.1	-1	0	350	0.2	349	350	8.8	87.0
2025-10-24T23:31	10	0	0.1	-1	0	350	0.3	349	351	8.9	86.8
2025-10-24T23:32	10	-1	0.1	-1	0	350	0.2	349	350	8.9	86.5
2025-10-24T23:33	10	-1	0.1	-1	0	350	0.2	349	350	8.9	86.6
2025-10-24T23:34	10	-1	0.1	-1	0	350	0.2	349	350	8.9	86.4
2025-10-24T23:35	10	-1	0.1	-1	-1	350	0.2	349	350	8.9	86.2
2025-10-24T23:36	10	-1	0.0	-1	-1	350	0.2	349	350	8.9	86.7
2025-10-24T23:37	10	-1	0.1	-1	-1	350	0.2	349	350	8.9	86.8
2025-10-24T23:38	10	-1	0.1	-1	-1	349	0.2	349	350	8.9	86.3
2025-10-24T23:39	10	-1	0.1	-1	-1	350	0.2	349	350	8.9	86.6
2025-10-24T23:40	10	-1	0.1	-1	-1	349	0.2	349	350	8.9	86.7
2025-10-24T23:41	10	-1	0.1	-1	-1	349	0.3	349	350	8.8	87.6
2025-10-24T23:42	10	-1	0.1	-1	-1	349	0.2	349	350	8.9	86.6
2025-10-24T23:43	10	-1	0.1	-1	-1	349	0.2	349	350	8.8	87.0
2025-10-24T23:44	10	-1	0.1	-1	-1	349	0.2	348	349	8.8	87.5
2025-10-24T23:45	10	-1	0.1	-1	-1	349	0.2	349	350	8.8	87.1
2025-10-24T23:46	10	-1	0.1	-1	-1	349	0.3	348	349	8.8	87.1
2025-10-24T23:47	10	-1	0.1	-1	-1	349	0.3	349	350	8.9	86.5
2025-10-24T23:48	10	-1	0.1	-1	0	349	0.2	348	349	8.8	87.0
2025-10-24T23:49	10	-1	0.1	-1	0	349	0.2	348	350	8.9	86.4
2025-10-24T23:50	10	-1	0.1	-1	0	349	0.3	348	349	8.9	86.2
2025-10-24T23:51	10	-1	0.1	-1	0	349	0.2	348	349	8.9	86.3
2025-10-24T23:52	10	0	0.1	-1	0	349	0.2	348	349	8.9	86.4
2025-10-24T23:53	10	0	0.1	-1	0	349	0.2	348	349	8.9	86.4
2025-10-24T23:54	10	0	0.1	-1	0	349	0.2	348	349	8.9	86.5
2025-10-24T23:55	10	0	0.1	-1	0	349	0.3	349	350	8.9	86.4
2025-10-24T23:56	10	0	0.1	-1	0	349	0.3	348	350	9.0	85.6
2025-10-24T23:57	10	0	0.1	-1	0	349	0.3	348	349	8.9	85.9
2025-10-24T23:58	10	0	0.1	-1	0	349	0.2	348	349	8.9	86.2
2025-10-24T23:59	10	0	0.1	0	0	349	0.3	349	350	8.9	86.7
2025-10-25T00:00	10	0	0.1	0	0	349	0.2	349	350	8.9	86.8
2025-10-25T00:01	10	0	0.1	0	0	350	0.2	349	350	8.9	86.8
2025-10-25T00:02	10	0	0.1	0	0	350	0.3	349	350	8.9	86.5
2025-10-25T00:03	10	0	0.0	0	0	349	0.3	349	350	8.9	86.4
2025-10-25T00:04	10	0	0.1	0	0	349	0.3	348	350	8.9	86.1
2025-10-25T00:05	10	0	0.1	0	0	349	0.3	348	349	8.9	86.5
2025-10-25T00:06	10	0	0.1	0	0	349	0.2	348	349	8.9	86.1
2025-10-25T00:07	10	0	0.1	0	0	349	0.2	348	349	8.9	86.1
2025-10-25T00:08	10	0	0.1	0	0	348	0.3	348	349	8.9	86.2
2025-10-25T00:09	10	0	0.1	0	0	348	0.2	347	348	8.8	86.9
2025-10-25T00:10	10	0	0.1	0	0	348	0.3	347	348	8.9	86.4
2025-10-25T00:11	10	0	0.1	0	0	348	0.3	347	348	8.9	86.5
2025-10-25T00:12	10	0	0.1	0	0	348	0.3	347	348	8.9	85.8
2025-10-25T00:13	10	0	0.1	0	0	348	0.4	347	348	8.9	86.1
2025-10-25T00:14	10	0	0.1	0	0	348	0.3	347	348	8.8	87.1
2025-10-25T00:15	10	0	0.1	0	0	347	0.2	347	348	8.7	87.4
2025-10-25T00:16	10	0	0.1	0	0	347	0.2	347	348	8.7	87.5
2025-10-25T00:17	10	0	0.1	0	0	348	0.3	347	348	8.7	87.5
2025-10-25T00:18	10	0	0.0	0	0	348	0.3	347	348	8.7	87.6
2025-10-25T00:19	10	0	0.1	0	0	348	0.2	348	349	8.8	87.2
2025-10-25T00:20	10	0	0.1	0	0	348	0.2	348	349	8.8	86.7
2025-10-25T00:21	10	0	0.1	0	0	348	0.2	348	349	8.9	86.2
2025-10-25T00:22	10	0	0.1	0	0	348	0.2	348	349	8.8	86.5
2025-10-25T00:23	10	0	0.1	0	0	348	0.3	347	349	8.8	86.8
2025-10-25T00:24	10	0	0.1	0	0	348	0.2	348	349	8.8	86.3
2025-10-25T00:25	10	0	0.1	0	0	348	0.2	348	349	8.9	85.9
2025-10-25T00:26	10	0	0.1	0	0	348	0.2	348	349	8.9	85.7
2025-10-25T00:27	10	0	0.1	0	0	348	0.3	348	349	8.9	85.2
2025-10-25T00:28	10	0	0.1	0	0	348	0.3	348	349	8.9	85.3
2025-10-25T00:29	10	0	0.1	0	0	349	0.2	348	349	8.9	85.1
2025-10-25T00:30	10	0	0.1	0	0	348	0.2	348	349	8.9	85.8
2025-10-25T00:31	10	0	0.1	0	0	349	0.3	348	349	8.9	85.6
2025-10-25T00:32	10	0	0.1	0	0	348	0.2	348	349	8.8	85.9
2025-10-25T00:33	10	0	0.1	0	0	348	0.2	348	349	8.8	85.9
2025-10-25T00:34	10	0	0.1	0	0	348	0.2	348	348	8.8	86.0
2025-10-25T00:35	10	0	0.1	0	0	348	0.3	347	349	8.9	85.7
2025-10-25T00:36	10	0	0.1	0	0	348	0.2	348	349	8.8	85.9
2025-10-25T00:37	10	0	0.1	0	0	348	0.2	348	349	8.8	86.6
2025-10-25T00:38	10	0	0.1	0	0	349	0.2	348	349	8.7	86.7
2025-10-25T00:39	10	0	0.1	0	0	349	0.2	348	349	8.8	86.4
2025-10-25T00:40	10	0	0.1	0	0	349	0.2	349	350	8.8	86.4
2025-10-25T00:41	10	0	0.1	0	0	349	0.2	349	349	8.8	86.7
2025-10-25T00:42	10	0	0.1	0	0	350	0.3	349	350	8.8	86.4
2025-10-25T00:43	10	0	0.1	0	0	349	0.2	349	350	8.7	86.9
2025-10-25T00:44	10	0	0.1	0	0	350	0.2	349	350	8.8	86.4
2025-10-25T00:45	10	0	0.1	0	0	350	0.3	349	350	8.8	86.4
2025-10-25T00:46	10	0	0.1	0	0	350	0.2	349	350	8.8	86.4
2025-10-25T00:47	10	0	0.1	0	0	350	0.2	349	350	8.8	86.5
2025-10-25T00:48	10	0	0.1	0	0	349	0.3	349	350	8.8	86.5
2025-10-25T00:49	10	0	0.1	0	0	349	0.3	349	350	8.8	86.3
2025-10-25T00:50	10	0	0.1	0	0	349	0.2	349	350	8.9	85.9
2025-10-25T00:51	10	0	0.1	0	0	349	0.2	349	350	8.8	86.2
2025-10-25T00:52	10	0	0.1	0	0	349	0.3	349	350	8.9	85.6
2025-10-25T00:53	10	0	0.1	0	0	349	0.2	349	350	8.9	85.7
2025-10-25T00:54	10	0	0.1	0	0	349	0.2	349	350	8.8	86.3
2025-10-25T00:55	10	0	0.1	0	0	349	0.3	349	350	8.9	86.0
2025-10-25T00:56	10	0	0.1	0	0	349	0.2	348	349	8.9	86.1
2025-10-25T00:57	10	0	0.1	0	0	348	0.3	348	349	8.8	86.3
2025-10-25T00:58	10	0	0.1	0	0	349	0.2	348	349	8.9	85.6
2025-10-25T00:59	10	0	0.1	0	0	348	0.2	348	349	8.9	85.8
2025-10-25T01:00	10	0	0.1	0	0	348	0.2	347	348	8.9	85.7
2025-10-25T01:01	10	0	0.1	0	0	348	0.2	347	348	8.9	85.4
2025-10-25T01:02	10	0	0.1	0	0	348	0.2	347	348	8.9	85.7
2025-10-25T01:03	10	0	0.1	0	0	347	0.3	347	348	8.9	85.8
2025-10-25T01:04	10	0	0.1	0	0	347	0.3	347	348	8.9	85.8
2025-10-25T01:05	10	0	0.1	0	0	347	0.3	346	347	8.9	85.9
2025-10-25T01:06	10	0	0.1	0	0	346	0.2	346	347	8.9	85.9
2025-10-25T01:07	10	0	0.1	0	0	346	0.3	346	347	8.8	86.1
2025-10-25T01:08	10	0	0.1	0	0	346	0.3	346	347	8.9	85.4
2025-10-25T01:09	10	0	0.1	0	0	346	0.2	346	347	8.9	85.4
2025-10-25T01:10	10	0	0.1	0	0	347	0.3	346	347	8.9	85.1
2025-10-25T01:11	10	0	0.1	0	0	347	0.2	347	348	9.0	84.9
2025-10-25T01:12	10	0	0.1	0	0	347	0.2	347	348	9.0	84.9
2025-10-25T01:13	10	0	0.1	0	0	347	0.3	347	348	8.9	85.1
2025-10-25T01:14	10	0	0.1	0	0	348	0.3	348	349	9.0	84.8
2025-10-25T01:15	10	0	0.1	0	0	349	0.3	348	350	9.0	84.6
2025-10-25T01:16	10	0	0.1	0	0	349	0.2	349	350	9.0	84.6
2025-10-25T01:17	10	0	0.1	0	0	349	0.2	349	350	9.0	84.9
2025-10-25T01:18	10	0	0.1	0	0	349	0.2	349	350	8.9	85.4
2025-10-25T01:19	10	0	0.1	0	0	349	0.3	349	350	9.0	85.1
2025-10-25T01:20	10	0	0.1	0	0	349	0.3	348	349	9.0	84.8
2025-10-25T01:21	10	0	0.1	0	0	348	0.2	348	349	9.0	85.2
2025-10-25T01:22	10	0	0.1	0	0	348	0.3	347	348	8.9	85.5
2025-10-25T01:23	10	0	0.1	0	0	348	0.2	347	348	9.0	85.1
2025-10-25T01:24	10	0	0.1	0	0	348	0.2	347	348	9.0	85.3
2025-10-25T01:25	10	0	0.0	0	0	348	0.2	348	349	9.0	84.9
2025-10-25T01:26	10	0	0.1	0	0	349	0.2	348	349	9.1	84.2
2025-10-25T01:27	10	0	0.1	0	0	349	0.2	348	349	9.1	84.3
2025-10-25T01:28	10	0	0.1	0	0	348	0.2	348	349	9.1	84.2
2025-10-25T01:29	10	0	0.1	0	0	348	0.3	348	349	9.1	84.4
2025-10-25T01:30	10	0	0.0	0	0	348	0.3	348	349	9.1	84.1
2025-10-25T01:31	10	0	0.1	0	0	349	0.2	348	349	9.2	83.8
2025-10-25T01:32	10	0	0.1	0	0	349	0.2	349	349	9.2	83.7
2025-10-25T01:33	10	0	0.1	0	0	349	0.2	348	349	9.2	83.8
2025-10-25T01:34	10	0	0.1	0	0	349	0.2	348	349	9.1	84.3
2025-10-25T01:35	10	0	0.1	0	0	348	0.2	348	349	9.1	84.5
2025-10-25T01:36	10	0	0.1	0	0	349	0.3	348	349	9.0	84.8
2025-10-25T01:37	10	0	0.1	0	0	349	0.3	348	349	9.1	84.5
2025-10-25T01:38	10	0	0.1	0	0	349	0.3	348	349	9.1	84.8
2025-10-25T01:39	10	0	0.1	0	0	349	0.2	348	349	9.1	84.6
2025-10-25T01:40	10	0	0.1	0	0	349	0.2	348	349	9.1	84.6
2025-10-25T01:41	10	0	0.1	0	0	349	0.2	348	349	9.1	84.9
2025-10-25T01:42	10	0	0.1	0	0	349	0.2	348	349	9.1	84.5
2025-10-25T01:43	10	0	0.0	0	0	349	0.3	348	349	9.1	84.5
2025-10-25T01:44	10	0	0.1	0	0	349	0.2	348	349	9.1	84.6
2025-10-25T01:45	10	0	0.0	0	0	349	0.3	348	350	9.1	84.5
2025-10-25T01:46	10	0	0.1	0	0	349	0.2	349	350	9.2	84.1
2025-10-25T01:47	10	0	0.1	0	0	350	0.3	349	350	9.1	84.6
2025-10-25T01:48	10	0	0.1	0	0	350	0.2	349	350	9.1	84.6
2025-10-25T01:49	10	0	0.1	0	0	350	0.2	349	351	9.1	84.8
2025-10-25T01:50	10	0	0.0	0	0	350	0.2	349	350	9.1	84.9
2025-10-25T01:51	10	0	0.1	0	0	350	0.2	350	350	9.1	84.8
2025-10-25T01:52	10	0	0.1	0	0	350	0.2	349	351	9.1	84.4
2025-10-25T01:53	10	0	0.1	0	0	350	0.2	349	350	9.1	84.6
2025-10-25T01:54	10	0	0.1	0	0	349	0.3	349	350	9.1	85.0
2025-10-25T01:55	10	0	0.1	0	0	350	0.2	349	350	9.1	84.6
2025-10-25T01:56	10	0	0.1	0	0	349	0.3	349	350	9.1	85.1
2025-10-25T01:57	10	0	0.1	0	0	349	0.2	349	349	9.1	84.8
2025-10-25T01:58	10	0	0.1	0	0	349	0.2	348	349	9.1	85.2
2025-10-25T01:59	10	0	0.1	0	0	349	0.2	348	349	9.1	84.5
2025-10-25T02:00	10	0	0.0	0	0	348	0.2	348	349	9.1	84.6
2025-10-25T02:01	10	0	0.1	0	0	348	0.2	347	348	9.1	84.5
2025-10-25T02:02	10	0	0.1	0	0	348	0.3	347	349	9.2	84.0
2025-10-25T02:03	10	0	0.1	0	0	348	0.2	348	349	9.2	83.9
2025-10-25T02:04	10	0	0.1	0	0	348	0.2	348	349	9.2	83.9
2025-10-25T02:05	10	0	0.1	0	0	349	0.2	348	349	9.2	83.8
2025-10-25T02:06	10	0	0.1	0	0	349	0.2	348	349	9.3	83.2
2025-10-25T02:07	10	0	0.1	0	0	349	0.3	349	350	9.2	83.4
2025-10-25T02:08	10	0	0.1	0	0	349	0.2	349	350	9.2	83.5
2025-10-25T02:09	10	0	0.1	0	0	349	0.3	349	350	9.3	82.8
2025-10-25T02:10	10	0	0.1	0	0	350	0.2	350	351	9.4	82.3
2025-10-25T02:11	10	0	0.1	0	0	350	0.3	350	351	9.4	82.3
2025-10-25T02:12	10	0	0.1	0	0	350	0.3	350	351	9.4	82.7
2025-10-25T02:13	10	0	0.1	0	0	350	0.2	350	351	9.3	83.0
2025-10-25T02:14	10	0	0.1	0	0	350	0.2	350	351	9.3	83.2
2025-10-25T02:15	10	0	0.1	0	0	351	0.2	350	351	9.4	82.4
2025-10-25T02:16	10	0	0.1	0	0	350	0.2	350	351	9.3	83.1
2025-10-25T02:17	10	0	0.1	0	0	350	0.3	349	351	9.2	83.7
2025-10-25T02:18	10	0	0.1	0	0	350	0.2	350	351	9.3	83.4
2025-10-25T02:19	10	0	0.1	0	0	351	0.3	350	351	9.3	83.3
2025-10-25T02:20	10	0	0.0	0	0	351	0.2	350	351	9.3	83.6
2025-10-25T02:21	10	0	0.1	0	0	351	0.3	350	352	9.3	83.3
2025-10-25T02:22	10	0	0.1	0	0	351	0.3	350	351	9.3	83.6
2025-10-25T02:23	10	0	0.1	0	0	351	0.2	351	352	9.2	84.0
2025-10-25T02:24	10	0	0.1	0	0	351	0.2	351	352	9.3	83.5
2025-10-25T02:25	10	0	0.1	0	0	351	0.2	351	352	9.2	84.1
2025-10-25T02:26	10	0	0.1	0	0	351	0.2	350	352	9.3	83.5
2025-10-25T02:27	10	0	0.1	0	0	351	0.2	351	352	9.4	83.3
2025-10-25T02:28	10	0	0.1	0	0	351	0.2	351	352	9.3	83.9
2025-10-25T02:29	10	0	0.1	0	0	351	0.2	351	352	9.3	83.6
2025-10-25T02:30	10	0	0.1	0	0	351	0.2	351	352	9.2	84.1
2025-10-25T02:31	10	0	0.1	0	0	351	0.3	351	352	9.2	84.5
2025-10-25T02:32	10	0	0.1	0	0	351	0.3	350	352	9.2	84.7
2025-10-25T02:33	10	0	0.1	0	0	351	0.2	350	351	9.2	84.9
2025-10-25T02:34	10	0	0.1	0	0	351	0.3	351	352	9.2	84.4
2025-10-25T02:35	10	0	0.1	0	0	351	0.2	351	352	9.2	84.8
2025-10-25T02:36	10	0	0.1	0	0	352	0.2	351	352	9.2	84.9
2025-10-25T02:37	10	0	0.1	0	1	352	0.2	351	352	9.2	84.8
2025-10-25T02:38	10	0	0.1	0	0	352	0.2	351	352	9.2	84.9
2025-10-25T02:39	10	0	0.1	0	0	351	0.3	351	352	9.2	85.0
2025-10-25T02:40	10	0	0.1	0	0	351	0.2	351	352	9.2	85.1
2025-10-25T02:41	10	0	0.1	0	1	351	0.3	350	351	9.2	85.2
2025-10-25T02:42	10	0	0.1	0	0	351	0.2	350	351	9.2	85.1
2025-10-25T02:43	10	0	0.1	0	0	350	0.3	350	351	9.2	84.9
2025-10-25T02:44	10	0	0.1	0	0	350	0.3	350	351	9.2	84.9
2025-10-25T02:45	10	0	0.1	0	0	350	0.3	350	351	9.2	85.0
2025-10-25T02:46	10	0	0.1	0	0	350	0.3	349	350	9.2	85.3
2025-10-25T02:47	10	0	0.1	0	0	350	0.2	350	350	9.2	84.8
2025-10-25T02:48	10	0	0.1	0	0	350	0.3	349	350	9.2	85.4
2025-10-25T02:49	10	0	0.1	0	0	350	0.3	349	350	9.2	85.3
2025-10-25T02:50	10	0	0.1	0	0	350	0.3	349	350	9.2	84.8
2025-10-25T02:51	10	0	0.1	0	0	350	0.2	349	350	9.3	84.5
2025-10-25T02:52	10	0	0.1	0	0	350	0.2	350	351	9.3	83.9
2025-10-25T02:53	10	0	0.1	0	0	350	0.2	350	351	9.3	83.6
2025-10-25T02:54	10	0	0.1	0	0	350	0.3	349	350	9.3	83.8
2025-10-25T02:55	10	0	0.1	0	0	350	0.3	349	351	9.3	83.9
2025-10-25T02:56	10	0	0.1	0	0	350	0.2	349	351	9.3	83.7
2025-10-25T02:57	10	0	0.1	0	0	350	0.3	349	350	9.3	83.1
2025-10-25T02:58	10	0	0.1	0	0	350	0.2	349	350	9.3	83.3
2025-10-25T02:59	10	0	0.1	0	0	350	0.3	349	350	9.3	83.2
2025-10-25T03:00	10	0	0.1	0	0	350	0.2	350	350	9.2	83.6
2025-10-25T03:01	10	0	0.1	0	0	350	0.2	350	351	9.2	83.8
2025-10-25T03:02	10	0	0.2	0	1	350	0.2	350	351	9.3	83.1
2025-10-25T03:03	10	0	0.1	0	0	350	0.3	349	350	9.2	83.2
2025-10-25T03:04	10	0	0.1	0	0	350	0.3	349	351	9.2	83.6
2025-10-25T03:05	10	0	0.1	0	0	350	0.3	349	351	9.2	83.8
2025-10-25T03:06	10	0	0.1	0	0	350	0.3	349	351	9.2	83.7
2025-10-25T03:07	10	0	0.1	0	0	350	0.3	349	351	9.2	83.5
2025-10-25T03:08	10	0	0.1	0	0	351	0.3	350	351	9.1	83.7
2025-10-25T03:09	10	0	0.1	0	0	350	0.2	350	351	9.2	83.2
2025-10-25T03:10	10	0	0.1	0	0	350	0.3	350	351	9.2	83.3
2025-10-25T03:11	10	0	0.1	0	0	350	0.2	350	351	9.2	83.4
2025-10-25T03:12	10	0	0.1	0	0	350	0.3	350	351	9.2	82.9
2025-10-25T03:13	10	0	0.1	0	0	350	0.3	350	351	9.1	83.6
2025-10-25T03:14	10	0	0.1	0	0	350	0.3	349	350	9.1	83.9
2025-10-25T03:15	10	0	0.1	0	0	350	0.2	350	351	9.2	82.7
2025-10-25T03:16	10	0	0.1	0	0	350	0.2	350	351	9.2	82.9
2025-10-25T03:17	10	0	0.1	0	0	350	0.3	350	351	9.2	82.8
2025-10-25T03:18	10	0	0.1	0	0	350	0.2	350	351	9.1	83.3
2025-10-25T03:19	10	0	0.1	0	1	350	0.2	350	351	9.1	83.5
2025-10-25T03:20	10	0	0.1	0	0	350	0.2	350	351	9.1	83.8
2025-10-25T03:21	10	0	0.1	0	0	350	0.2	350	351	9.1	83.2
2025-10-25T03:22	10	0	0.1	0	0	350	0.2	350	351	9.1	83.7
2025-10-25T03:23	10	0	0.1	0	0	350	0.2	349	351	9.0	83.8
2025-10-25T03:24	10	0	0.1	0	1	350	0.3	350	351	9.0	83.8
2025-10-25T03:25	10	0	0.2	0	1	350	0.3	349	350	9.0	84.3
2025-10-25T03:26	10	0	0.2	0	0	350	0.2	350	351	9.0	83.7
2025-10-25T03:27	10	0	0.1	0	0	350	0.2	350	351	9.0	83.9
2025-10-25T03:28	10	0	0.1	0	0	350	0.3	350	351	9.0	84.2
2025-10-25T03:29	10	0	0.1	0	0	350	0.2	350	351	9.0	83.7
2025-10-25T03:30	10	0	0.1	0	0	351	0.2	350	351	9.0	84.2
2025-10-25T03:31	10	0	0.2	0	0	350	0.2	350	351	8.9	84.5
2025-10-25T03:32	10	0	0.1	0	0	350	0.3	350	351	8.9	84.8
2025-10-25T03:33	10	0	0.2	0	0	351	0.3	350	351	8.9	84.8
2025-10-25T03:34	10	0	0.1	0	0	350	0.3	350	351	8.9	85.4
2025-10-25T03:35	10	0	0.2	0	0	350	0.3	349	351	8.8	86.3
2025-10-25T03:36	10	0	0.1	0	0	350	0.3	350	351	8.8	86.2
2025-10-25T03:37	10	0	0.2	-1	0	350	0.3	350	351	8.8	86.7
2025-10-25T03:38	10	0	0.1	0	0	350	0.2	350	351	8.8	86.8
2025-10-25T03:39	10	0	0.1	0	0	350	0.3	350	351	8.8	86.5
2025-10-25T03:40	10	0	0.1	0	0	350	0.3	350	351	8.8	86.9
2025-10-25T03:41	10	0	0.1	0	0	350	0.3	350	351	8.8	87.1
2025-10-25T03:42	10	0	0.1	0	0	350	0.2	350	351	8.8	87.2
2025-10-25T03:43	10	0	0.1	0	0	350	0.2	349	351	8.8	87.5
2025-10-25T03:44	10	0	0.2	0	0	350	0.3	350	351	8.8	87.3
2025-10-25T03:45	10	0	0.1	0	0	350	0.3	350	351	8.8	87.4
2025-10-25T03:46	10	0	0.1	0	0	350	0.2	350	351	8.8	87.6
2025-10-25T03:47	10	0	0.1	0	0	350	0.2	350	351	8.7	88.2
2025-10-25T03:48	10	0	0.1	0	0	350	0.2	350	351	8.7	87.8
2025-10-25T03:49	10	0	0.2	0	0	350	0.3	350	351	8.7	88.2
2025-10-25T03:50	10	0	0.1	0	0	350	0.3	349	351	8.7	88.3
2025-10-25T03:51	10	0	0.1	0	0	350	0.3	349	351	8.7	88.2
2025-10-25T03:52	10	0	0.1	0	1	350	0.2	350	351	8.7	88.7
2025-10-25T03:53	10	0	0.1	0	0	350	0.3	349	350	8.7	88.7
2025-10-25T03:54	10	0	0.2	0	0	350	0.2	350	351	8.7	88.1
2025-10-25T03:55	10	0	0.1	0	0	350	0.3	350	351	8.8	87.6
2025-10-25T03:56	10	0	0.1	0	0	350	0.2	350	351	8.7	88.3
2025-10-25T03:57	10	0	0.1	0	0	350	0.3	349	351	8.7	88.6
2025-10-25T03:58	10	0	0.1	0	0	350	0.3	349	351	8.7	88.2
2025-10-25T03:59	10	0	0.1	0	0	350	0.3	349	351	8.7	88.2
2025-10-25T04:00	10	0	0.1	0	0	350	0.3	349	351	8.8	87.4
2025-10-25T04:01	10	0	0.2	0	0	350	0.3	349	350	8.8	87.6
2025-10-25T04:02	10	0	0.1	0	0	350	0.3	349	350	8.7	87.8
2025-10-25T04:03	10	0	0.1	0	0	350	0.2	349	350	8.7	87.8
2025-10-25T04:04	10	0	0.2	0	0	350	0.3	349	350	8.7	87.9
2025-10-25T04:05	10	0	0.2	0	0	349	0.3	349	350	8.7	88.3
2025-10-25T04:06	10	0	0.1	0	1	350	0.2	349	350	8.7	87.8
2025-10-25T04:07	10	0	0.2	0	0	350	0.3	349	351	8.8	87.5
2025-10-25T04:08	10	0	0.1	0	0	350	0.2	349	350	8.7	87.8
2025-10-25T04:09	10	0	0.1	0	0	350	0.2	350	351	8.8	87.6
2025-10-25T04:10	10	0	0.1	0	0	350	0.3	349	351	8.8	86.9
2025-10-25T04:11	10	0	0.1	0	0	350	0.3	350	351	8.8	87.2
2025-10-25T04:12	10	0	0.1	0	0	350	0.2	349	351	8.8	87.4
2025-10-25T04:13	10	0	0.1	0	0	350	0.3	349	351	8.8	87.4
2025-10-25T04:14	10	0	0.1	0	0	350	0.2	350	351	8.8	87.6
2025-10-25T04:15	10	0	0.1	0	1	350	0.3	349	351	8.8	87.9
2025-10-25T04:16	10	0	0.1	0	0	350	0.3	349	350	8.8	87.5
2025-10-25T04:17	10	0	0.1	0	1	350	0.3	349	351	8.8	87.6
2025-10-25T04:18	10	0	0.1	0	1	350	0.2	349	350	8.8	87.7
2025-10-25T04:19	10	0	0.1	0	0	350	0.2	349	350	8.8	87.8
2025-10-25T04:20	10	0	0.1	0	0	349	0.2	349	350	8.8	87.6
2025-10-25T04:21	10	0	0.1	0	0	349	0.3	349	350	8.8	87.5
2025-10-25T04:22	10	0	0.1	0	0	350	0.2	349	350	8.9	87.2
2025-10-25T04:23	10	0	0.1	0	0	349	0.2	349	350	8.8	87.7
2025-10-25T04:24	10	0	0.1	0	0	349	0.2	349	350	8.8	88.1
2025-10-25T04:25	10	0	0.1	0	0	349	0.2	349	350	8.8	87.5
2025-10-25T04:26	10	0	0.1	0	0	349	0.2	349	350	8.9	86.8
2025-10-25T04:27	10	0	0.1	0	0	349	0.2	349	349	8.9	87.3
2025-10-25T04:28	10	0	0.1	0	0	349	0.2	349	350	8.8	87.7
2025-10-25T04:29	10	0	0.1	0	0	349	0.3	348	350	8.8	87.6
2025-10-25T04:30	10	0	0.1	0	0	349	0.3	348	349	8.8	87.8
2025-10-25T04:31	10	0	0.1	0	0	348	0.2	348	349	8.8	87.5
2025-10-25T04:32	10	0	0.1	0	0	348	0.2	348	349	8.8	87.6
2025-10-25T04:33	10	0	0.2	0	1	348	0.2	348	349	8.8	87.7
2025-10-25T04:34	10	0	0.1	0	0	349	0.3	348	350	8.8	87.0
2025-10-25T04:35	10	0	0.1	0	0	349	0.2	349	349	8.9	86.8
2025-10-25T04:36	10	0	0.1	0	0	349	0.2	348	349	8.8	87.0
2025-10-25T04:37	10	0	0.1	0	1	349	0.2	349	350	8.9	86.5
2025-10-25T04:38	10	0	0.1	0	1	349	0.2	349	350	8.9	86.6
2025-10-25T04:39	10	0	0.1	0	0	349	0.3	348	350	8.8	86.7
2025-10-25T04:40	10	0	0.1	0	0	349	0.2	349	350	8.9	85.9
2025-10-25T04:41	10	0	0.1	0	0	349	0.2	349	350	8.8	86.9
2025-10-25T04:42	10	0	0.1	0	0	349	0.3	348	350	8.8	87.5
2025-10-25T04:43	10	0	0.1	0	0	349	0.2	348	349	8.7	87.8
2025-10-25T04:44	10	0	0.1	0	0	349	0.2	348	349	8.8	87.1
2025-10-25T04:45	10	0	0.1	0	0	348	0.2	348	349	8.7	87.6
2025-10-25T04:46	10	0	0.1	0	0	348	0.2	348	349	8.8	86.9
2025-10-25T04:47	10	0	0.1	0	0	348	0.2	348	348	8.8	86.8
2025-10-25T04:48	10	0	0.1	0	0	348	0.3	347	349	8.8	86.8
2025-10-25T04:49	10	0	0.1	0	0	348	0.3	348	349	8.8	86.1
2025-10-25T04:50	10	0	0.1	0	0	348	0.3	348	349	8.8	86.1
2025-10-25T04:51	10	0	0.1	0	0	348	0.3	348	349	8.9	85.8
2025-10-25T04:52	10	0	0.1	0	0	348	0.3	348	349	8.9	85.6
2025-10-25T04:53	10	0	0.1	0	0	348	0.2	348	349	8.8	86.3
2025-10-25T04:54	10	0	0.1	0	0	348	0.2	348	349	8.8	86.4
2025-10-25T04:55	10	0	0.1	0	0	349	0.2	348	349	8.8	86.5
2025-10-25T04:56	10	0	0.1	0	1	349	0.2	348	349	8.8	86.0
2025-10-25T04:57	10	0	0.1	0	0	348	0.3	348	349	8.8	87.0
2025-10-25T04:58	10	0	0.1	0	0	349	0.3	348	349	8.9	85.6
2025-10-25T04:59	10	0	0.1	0	1	348	0.3	348	349	8.9	85.7
2025-10-25T05:00	10	0	0.1	0	0	348	0.3	348	349	8.8	85.9
2025-10-25T05:01	10	0	0.1	0	0	348	0.3	348	349	8.8	85.8
2025-10-25T05:02	10	0	0.1	0	0	348	0.2	348	349	8.8	86.2
2025-10-25T05:03	10	0	0.1	0	0	349	0.3	348	349	8.9	85.4
2025-10-25T05:04	10	0	0.1	0	0	349	0.2	349	349	8.9	85.6
2025-10-25T05:05	10	0	0.1	0	0	349	0.2	348	349	8.8	86.4
2025-10-25T05:06	10	0	0.1	0	0	349	0.2	348	349	8.8	85.6
2025-10-25T05:07	10	0	0.0	0	0	349	0.2	349	350	8.8	85.8
2025-10-25T05:08	10	0	0.1	0	0	349	0.2	348	349	8.8	86.0
2025-10-25T05:09	10	0	0.1	0	0	349	0.2	348	349	8.8	85.7
2025-10-25T05:10	10	0	0.1	0	0	349	0.2	348	349	8.7	86.1
2025-10-25T05:11	10	0	0.1	0	0	349	0.2	348	349	8.7	86.4
2025-10-25T05:12	10	0	0.0	0	0	348	0.3	348	349	8.6	86.9
2025-10-25T05:13	10	0	0.1	0	0	348	0.2	348	349	8.7	86.7
2025-10-25T05:14	10	0	0.1	0	0	348	0.2	348	349	8.7	86.6
2025-10-25T05:15	10	0	0.1	0	0	348	0.2	348	349	8.6	86.7
2025-10-25T05:16	10	0	0.1	0	0	348	0.2	348	349	8.7	86.3
2025-10-25T05:17	10	0	0.1	0	0	348	0.3	348	349	8.7	86.1
2025-10-25T05:18	10	0	0.1	0	0	349	0.3	348	349	8.7	85.9
2025-10-25T05:19	10	0	0.1	0	0	349	0.2	348	349	8.6	86.5
2025-10-25T05:20	10	0	0.1	0	0	349	0.2	348	349	8.6	86.8
2025-10-25T05:21	10	0	0.1	0	0	349	0.3	348	349	8.6	87.1
2025-10-25T05:22	10	0	0.1	0	0	349	0.2	348	349	8.6	86.5
2025-10-25T05:23	10	0	0.1	0	0	349	0.2	348	349	8.6	86.8
2025-10-25T05:24	10	0	0.1	0	0	348	0.2	348	349	8.6	87.0
2025-10-25T05:25	10	0	0.1	0	0	348	0.2	348	349	8.5	87.1
2025-10-25T05:26	10	0	0.1	0	0	349	0.3	348	349	8.6	86.8
2025-10-25T05:27	10	0	0.1	0	0	349	0.2	348	349	8.6	86.9
2025-10-25T05:28	10	0	0.1	0	0	349	0.2	348	349	8.6	86.8
2025-10-25T05:29	10	0	0.1	0	0	349	0.2	349	350	8.6	86.5
2025-10-25T05:30	10	0	0.1	0	0	349	0.3	349	350	8.7	86.1
2025-10-25T05:31	10	0	0.1	0	0	349	0.2	349	350	8.7	86.3
2025-10-25T05:32	10	0	0.1	0	0	349	0.2	349	350	8.8	86.0
2025-10-25T05:33	10	0	0.1	0	0	350	0.2	349	350	8.8	85.9
2025-10-25T05:34	10	0	0.1	0	0	350	0.2	349	350	8.8	86.0
2025-10-25T05:35	10	0	0.1	0	0	349	0.2	349	350	8.8	86.3
2025-10-25T05:36	10	0	0.1	0	0	350	0.2	349	350	8.7	86.7
2025-10-25T05:37	10	0	0.1	0	0	350	0.2	349	350	8.8	86.8
2025-10-25T05:38	10	0	0.1	0	0	350	0.2	349	350	8.8	86.9
2025-10-25T05:39	10	0	0.1	0	0	350	0.2	349	350	8.8	86.7
2025-10-25T05:40	10	0	0.1	0	0	350	0.2	350	351	8.9	86.5
2025-10-25T05:41	10	0	0.1	-1	0	350	0.2	350	351	8.9	86.2
2025-10-25T05:42	10	0	0.1	0	0	350	0.2	350	351	8.9	86.3
2025-10-25T05:43	10	0	0.1	0	0	350	0.2	350	351	8.9	86.7
2025-10-25T05:44	10	0	0.0	0	0	350	0.2	350	351	8.9	86.7
2025-10-25T05:45	10	0	0.1	0	0	350	0.2	350	351	8.9	87.1
2025-10-25T05:46	10	0	0.1	0	0	350	0.2	350	351	8.9	87.3
2025-10-25T05:47	10	0	0.1	0	0	351	0.2	350	351	8.9	87.1
2025-10-25T05:48	10	0	0.1	0	0	351	0.2	350	352	9.0	87.1
2025-10-25T05:49	10	0	0.1	0	0	351	0.2	350	352	9.1	86.4
2025-10-25T05:50	10	0	0.1	0	0	351	0.2	350	352	9.0	87.1
2025-10-25T05:51	10	0	0.1	0	0	351	0.2	351	351	9.0	87.3
2025-10-25T05:52	10	0	0.1	0	0	352	0.2	351	352	9.1	86.8
2025-10-25T05:53	10	0	0.1	0	0	352	0.2	351	352	9.0	87.3
2025-10-25T05:54	10	0	0.1	0	0	352	0.2	351	352	9.1	87.2
2025-10-25T05:55	10	0	0.1	0	0	352	0.2	351	352	9.1	87.1
2025-10-25T05:56	10	0	0.1	0	0	352	0.2	351	352	9.1	87.5
2025-10-25T05:57	10	0	0.1	0	0	351	0.2	351	352	9.0	87.9
2025-10-25T05:58	10	0	0.1	0	0	351	0.2	351	352	9.0	88.1
2025-10-25T05:59	10	0	0.1	0	0	351	0.2	351	352	9.0	87.8
2025-10-25T06:00	10	0	0.1	0	0	352	0.2	351	352	9.0	87.8
2025-10-25T06:01	10	0	0.1	0	0	352	0.3	351	352	9.0	88.0
2025-10-25T06:02	10	0	0.1	0	0	352	0.3	351	352	9.0	88.1
2025-10-25T06:03	10	0	0.1	0	0	352	0.3	351	352	9.0	88.5
2025-10-25T06:04	10	0	0.1	0	0	352	0.2	351	352	8.9	88.8
2025-10-25T06:05	10	0	0.1	0	0	352	0.2	351	352	9.0	88.4
2025-10-25T06:06	10	0	0.1	0	0	352	0.2	351	352	9.0	88.1
2025-10-25T06:07	10	0	0.1	0	0	352	0.2	351	352	9.0	88.2
2025-10-25T06:08	10	0	0.0	0	0	352	0.2	351	352	9.0	88.3
2025-10-25T06:09	10	0	0.1	0	0	352	0.2	351	352	9.0	88.0
2025-10-25T06:10	10	0	0.1	0	0	352	0.2	351	352	9.0	88.2
2025-10-25T06:11	10	0	0.1	0	0	352	0.2	351	352	9.0	88.0
2025-10-25T06:12	10	0	0.1	0	0	352	0.3	351	352	8.9	88.5
2025-10-25T06:13	10	0	0.1	0	0	352	0.2	351	352	9.0	88.0
2025-10-25T06:14	10	0	0.1	0	0	352	0.3	351	352	8.9	89.0
2025-10-25T06:15	10	0	0.1	0	0	352	0.2	351	352	8.9	88.3
2025-10-25T06:16	10	0	0.1	0	0	352	0.2	351	352	9.0	87.5
2025-10-25T06:17	10	0	0.1	0	1	351	0.2	351	352	8.9	88.0
2025-10-25T06:18	10	1	0.1	0	1	351	0.2	351	352	8.9	87.8
2025-10-25T06:19	10	1	0.1	0	1	351	0.2	351	352	8.9	87.6
2025-10-25T06:20	10	1	0.1	0	1	351	0.2	351	352	8.9	87.8
2025-10-25T06:21	10	1	0.1	1	1	351	0.2	351	352	8.9	87.7
2025-10-25T06:22	10	1	0.1	1	1	351	0.2	351	352	8.9	87.1
2025-10-25T06:23	10	1	0.1	1	1	351	0.2	351	352	8.9	87.7
2025-10-25T06:24	10	1	0.1	1	1	351	0.2	350	352	8.9	87.0
2025-10-25T06:25	10	1	0.1	1	1	351	0.2	351	352	8.9	86.7
2025-10-25T06:26	10	1	0.1	1	1	351	0.2	350	352	8.9	86.8
2025-10-25T06:27	10	1	0.1	1	1	351	0.2	351	351	8.9	87.0
2025-10-25T06:28	10	1	0.0	1	1	351	0.3	351	352	8.9	86.8
2025-10-25T06:29	10	1	0.1	1	1	351	0.3	351	352	9.0	86.0
2025-10-25T06:30	10	1	0.1	1	1	351	0.2	351	352	8.9	86.6
2025-10-25T06:31	10	1	0.1	1	1	351	0.3	351	352	8.9	86.5
2025-10-25T06:32	10	1	0.1	1	1	351	0.2	351	352	9.0	86.4
2025-10-25T06:33	10	1	0.1	1	1	351	0.2	351	352	9.0	86.2
2025-10-25T06:34	10	1	0.1	1	1	351	0.2	351	352	8.9	86.7
2025-10-25T06:35	10	1	0.1	1	2	351	0.2	351	352	8.9	86.8
2025-10-25T06:36	10	2	0.1	1	2	351	0.3	351	352	8.9	87.1
2025-10-25T06:37	10	2	0.1	2	2	351	0.2	351	352	8.9	87.2
2025-10-25T06:38	10	2	0.1	2	3	352	0.2	351	352	8.9	86.9
2025-10-25T06:39	10	3	0.2	3	3	351	0.2	351	352	9.0	86.6
2025-10-25T06:40	10	4	0.2	3	4	352	0.2	351	352	9.0	86.6
2025-10-25T06:41	10	5	0.2	4	5	352	0.2	351	352	8.9	87.2
2025-10-25T06:42	10	5	0.1	5	5	351	0.2	351	352	8.9	87.6
2025-10-25T06:43	10	5	0.1	5	5	352	0.2	351	352	8.9	87.7
2025-10-25T06:44	10	5	0.1	5	5	351	0.2	351	352	8.8	88.2
2025-10-25T06:45	10	4	0.2	4	5	352	0.2	351	352	8.8	87.8
2025-10-25T06:46	10	4	0.2	3	4	352	0.3	351	352	8.8	86.6
2025-10-25T06:47	10	3	0.1	3	3	352	0.2	351	352	8.7	83.5
2025-10-25T06:48	10	3	0.1	3	3	352	0.2	351	352	8.8	85.1
2025-10-25T06:49	10	3	0.1	3	3	352	0.2	351	352	8.8	88.0
2025-10-25T06:50	10	3	0.2	3	4	352	0.2	351	352	8.8	88.0
2025-10-25T06:51	10	4	0.2	3	4	352	0.2	351	352	8.8	88.0
2025-10-25T06:52	10	4	0.2	4	5	352	0.2	351	352	8.8	88.0
2025-10-25T06:53	10	5	0.2	4	5	352	0.2	351	352	8.8	88.0
2025-10-25T06:54	10	5	0.2	5	6	352	0.2	351	352	8.8	87.8
2025-10-25T06:55	10	6	0.3	6	7	352	0.3	351	352	8.9	87.4
2025-10-25T06:56	10	7	0.1	7	7	352	0.3	351	352	8.9	87.2
2025-10-25T06:57	10	7	0.1	7	7	352	0.3	351	352	8.9	87.3
2025-10-25T06:58	10	7	0.2	6	7	352	0.2	352	353	8.9	87.5
2025-10-25T06:59	10	6	0.1	6	6	352	0.2	352	353	8.9	86.9
2025-10-25T07:00	10	6	0.1	6	6	352	0.2	352	353	8.9	87.3
2025-10-25T07:01	10	6	0.2	6	6	352	0.2	352	353	8.9	86.8
2025-10-25T07:02	10	6	0.3	6	7	352	0.2	352	353	9.0	86.3
2025-10-25T07:03	10	8	0.6	7	9	352	0.2	352	353	9.0	86.5
2025-10-25T07:04	10	10	0.7	9	12	352	0.3	352	353	9.0	85.8
2025-10-25T07:05	10	13	0.7	12	14	353	0.2	352	353	9.0	86.2
2025-10-25T07:06	10	15	0.4	14	15	353	0.2	352	354	9.0	86.1
2025-10-25T07:07	10	15	0.3	14	15	353	0.2	353	354	9.0	86.6
2025-10-25T07:08	10	13	0.6	13	15	354	0.3	353	354	9.0	85.8
2025-10-25T07:09	10	12	0.4	11	13	353	0.2	353	354	9.1	84.8
2025-10-25T07:10	10	11	0.1	11	11	353	0.2	353	354	9.0	86.3
2025-10-25T07:11	10	11	0.1	11	12	353	0.2	353	354	9.0	86.1
2025-10-25T07:12	10	12	0.2	11	12	353	0.2	353	354	9.0	86.2
2025-10-25T07:13	10	12	0.3	12	13	354	0.2	353	354	9.0	86.0
2025-10-25T07:14	10	13	0.2	13	14	354	0.2	353	354	9.1	85.9
2025-10-25T07:15	10	13	0.2	13	14	353	0.2	353	354	9.1	85.8
2025-10-25T07:16	10	12	0.4	12	13	354	0.3	353	354	9.1	85.6
2025-10-25T07:17	10	11	0.4	10	12	353	0.2	353	354	9.1	84.9
2025-10-25T07:18	10	10	0.2	9	10	353	0.2	353	354	9.1	85.5
2025-10-25T07:19	10	9	0.2	9	10	353	0.3	353	354	9.1	85.3
2025-10-25T07:20	10	9	0.2	8	9	353	0.2	353	354	9.1	84.6
2025-10-25T07:21	10	8	0.3	7	8	353	0.2	353	354	9.2	84.1
2025-10-25T07:22	10	7	0.2	7	7	353	0.2	353	354	9.2	83.8
2025-10-25T07:23	10	7	0.2	6	7	353	0.2	352	353	9.2	84.1
2025-10-25T07:24	10	8	0.6	7	9	353	0.2	352	353	9.2	83.9
2025-10-25T07:25	10	10	0.7	9	11	353	0.2	353	354	9.2	83.1
2025-10-25T07:26	10	13	0.7	11	14	353	0.3	353	354	9.2	83.7
2025-10-25T07:27	10	15	0.6	14	16	354	0.2	353	354	9.2	84.0
2025-10-25T07:28	10	17	0.5	16	18	354	0.3	354	355	9.1	84.3
2025-10-25T07:29	10	18	0.3	18	18	354	0.3	353	355	9.2	83.3
2025-10-25T07:30	10	19	0.1	18	19	355	0.3	354	355	9.2	83.8
2025-10-25T07:31	10	17	0.5	17	18	355	0.3	354	355	9.3	81.9
2025-10-25T07:32	10	16	0.4	15	17	354	0.3	354	355	9.3	82.4
2025-10-25T07:33	10	15	0.3	14	15	354	0.3	354	355	9.2	82.6
2025-10-25T07:34	10	13	0.5	12	14	354	0.2	354	355	9.2	83.0
2025-10-25T07:35	10	11	0.7	10	12	354	0.3	353	354	9.3	82.3
2025-10-25T07:36	10	10	0.3	9	10	354	0.3	353	354	9.3	82.6
2025-10-25T07:37	10	9	0.2	9	10	354	0.2	353	354	9.3	81.3
2025-10-25T07:38	10	9	0.1	9	9	353	0.2	353	354	9.4	81.0
2025-10-25T07:39	10	9	0.2	8	9	353	0.2	353	354	9.3	80.9
2025-10-25T07:40	10	8	0.1	8	8	353	0.3	353	354	9.3	81.6
2025-10-25T07:41	10	8	0.2	8	9	353	0.3	353	354	9.3	81.2
2025-10-25T07:42	10	8	0.2	8	9	353	0.3	353	354	9.2	81.7
2025-10-25T07:43	10	8	0.2	8	8	353	0.3	352	354	9.2	82.2
2025-10-25T07:44	10	7	0.3	7	8	353	0.2	352	353	9.1	82.9
2025-10-25T07:45	10	6	0.2	6	7	353	0.3	352	353	9.1	83.6
2025-10-25T07:46	10	6	0.2	6	6	352	0.3	352	353	9.0	83.7
2025-10-25T07:47	10	6	0.2	5	6	353	0.3	352	353	9.0	84.2
2025-10-25T07:48	10	5	0.2	5	6	352	0.3	351	353	9.0	84.1
2025-10-25T07:49	10	4	0.3	4	5	352	0.2	352	353	9.0	83.8
2025-10-25T07:50	10	3	0.4	3	4	352	0.2	352	353	9.0	84.3
2025-10-25T07:51	10	2	0.3	2	3	352	0.4	350	352	8.9	84.6
2025-10-25T07:52	10	1	0.2	1	2	351	0.3	351	352	8.9	84.6
2025-10-25T07:53	10	1	0.2	1	2	351	0.3	350	352	8.9	84.9
2025-10-25T07:54	10	1	0.1	1	2	351	0.2	351	352	8.8	85.9
2025-10-25T07:55	10	2	0.2	2	2	351	0.3	350	351	8.7	86.2
2025-10-25T07:56	10	3	0.2	2	3	351	0.2	351	352	8.7	86.5
2025-10-25T07:57	10	4	0.3	3	4	351	0.4	350	352	8.6	87.3
2025-10-25T07:58	10	4	0.2	4	5	351	0.2	350	352	8.6	87.6
2025-10-25T07:59	10	5	0.3	5	6	351	0.2	351	352	8.6	87.1
2025-10-25T08:00	10	6	0.2	6	6	351	0.2	351	352	8.6	87.9
2025-10-25T08:01	10	7	0.2	6	7	351	0.3	351	352	8.6	88.6
2025-10-25T08:02	10	7	0.3	7	8	352	0.2	351	352	8.5	88.6
2025-10-25T08:03	10	8	0.3	8	9	352	0.2	351	352	8.6	88.6
2025-10-25T08:04	10	9	0.3	9	10	352	0.3	351	352	8.6	88.4
2025-10-25T08:05	10	10	0.3	10	11	352	0.2	352	353	8.6	88.6
2025-10-25T08:06	10	11	0.2	11	11	352	0.3	352	353	8.6	88.8
2025-10-25T08:07	10	11	0.2	10	11	352	0.2	352	353	8.6	88.3
2025-10-25T08:08	10	10	0.3	9	11	353	0.3	352	353	8.5	89.7
2025-10-25T08:09	10	9	0.3	9	10	353	0.3	352	353	8.5	90.3
2025-10-25T08:10	10	8	0.1	8	9	352	0.2	352	353	8.6	88.9
2025-10-25T08:11	10	8	0.1	8	9	352	0.2	352	353	8.6	89.4
2025-10-25T08:12	10	9	0.1	8	9	353	0.2	352	353	8.6	89.2
2025-10-25T08:13	10	9	0.1	9	9	353	0.2	352	353	8.6	88.7
2025-10-25T08:14	10	8	0.2	8	9	353	0.3	352	353	8.6	89.0
2025-10-25T08:15	10	8	0.2	8	8	352	0.2	352	353	8.6	88.8
2025-10-25T08:16	10	8	0.3	7	9	353	0.3	352	353	8.6	89.4
2025-10-25T08:17	10	9	0.2	8	9	353	0.2	352	353	8.6	89.5
2025-10-25T08:18	10	9	0.2	8	9	353	0.3	352	353	8.6	89.7
2025-10-25T08:19	10	9	0.2	9	10	353	0.2	352	353	8.6	89.6
2025-10-25T08:20	10	9	0.5	8	9	353	0.2	352	353	8.6	88.9
2025-10-25T08:21	10	8	0.1	7	8	353	0.3	352	353	8.6	89.4
2025-10-25T08:22	10	7	0.1	7	8	353	0.2	352	353	8.6	89.4
2025-10-25T08:23	10	6	0.5	5	7	353	0.2	352	353	8.6	89.8
2025-10-25T08:24	10	5	0.3	4	5	353	0.3	352	353	8.6	89.7
2025-10-25T08:25	10	4	0.1	4	4	352	0.2	352	353	8.6	89.9
2025-10-25T08:26	10	4	0.1	4	4	352	0.2	352	353	8.6	90.2
2025-10-25T08:27	10	4	0.1	4	4	352	0.2	352	353	8.6	90.4
2025-10-25T08:28	10	4	0.1	4	4	352	0.2	352	353	8.6	90.7
2025-10-25T08:29	10	4	0.2	4	5	352	0.2	351	352	8.6	90.1
2025-10-25T08:30	10	5	0.3	5	6	352	0.2	351	352	8.6	90.0
2025-10-25T08:31	10	6	0.3	5	7	352	0.2	351	352	8.5	90.8
2025-10-25T08:32	10	7	0.2	7	7	352	0.2	351	353	8.5	91.3
2025-10-25T08:33	10	8	0.3	7	8	352	0.3	351	352	8.5	91.1
2025-10-25T08:34	10	9	0.4	8	10	352	0.2	352	353	8.4	91.8
2025-10-25T08:35	10	10	0.5	10	11	352	0.3	352	353	8.4	92.2
2025-10-25T08:36	10	12	0.5	11	13	353	0.2	352	353	8.4	91.7
2025-10-25T08:37	10	13	0.1	13	13	353	0.2	352	353	8.4	91.9
2025-10-25T08:38	10	13	0.1	13	13	353	0.2	352	353	8.4	92.3
2025-10-25T08:39	10	13	0.1	13	13	353	0.2	352	354	8.4	92.2
2025-10-25T08:40	10	13	0.3	12	13	353	0.3	352	353	8.4	91.9
2025-10-25T08:41	10	11	0.6	10	12	353	0.3	352	354	8.4	91.9
2025-10-25T08:42	10	10	0.1	10	10	353	0.2	352	353	8.4	93.0
2025-10-25T08:43	10	11	0.7	10	12	353	0.3	352	353	8.4	92.7
2025-10-25T08:44	10	15	1.3	13	17	353	0.2	353	354	8.4	92.9
2025-10-25T08:45	10	19	1.1	17	20	354	0.4	353	354	8.4	93.2
2025-10-25T08:46	10	21	0.4	20	22	355	0.3	354	356	8.4	93.9
2025-10-25T08:47	10	21	0.7	19	22	355	0.2	355	356	8.4	93.4
2025-10-25T08:48	10	17	1.2	15	19	355	0.2	355	355	8.4	93.4
2025-10-25T08:49	10	14	0.8	12	15	355	0.3	354	355	8.4	93.3
2025-10-25T08:50	10	12	0.2	11	12	354	0.3	354	355	8.4	92.3
2025-10-25T08:51	10	12	0.2	11	12	354	0.2	353	354	8.4	92.8
2025-10-25T08:52	10	13	0.3	12	13	354	0.2	353	354	8.4	92.9
2025-10-25T08:53	10	13	0.2	13	13	354	0.2	354	354	8.4	93.0
2025-10-25T08:54	10	13	0.2	13	13	354	0.3	354	355	8.4	92.5
2025-10-25T08:55	10	14	0.1	13	14	354	0.2	354	355	8.4	93.0
2025-10-25T08:56	10	14	0.1	14	14	354	0.2	354	355	8.5	93.0
2025-10-25T08:57	10	14	0.1	14	14	354	0.3	354	355	8.5	92.9
2025-10-25T08:58	10	15	0.5	14	16	355	0.2	354	355	8.5	92.6
2025-10-25T08:59	10	16	0.2	16	16	355	0.4	354	355	8.5	92.9
2025-10-25T09:00	10	17	0.2	16	17	355	0.2	354	355	8.5	92.4
2025-10-25T09:01	10	17	0.1	17	17	355	0.3	354	356	8.5	92.2
2025-10-25T09:02	10	17	0.2	17	18	355	0.2	355	356	8.6	91.5
2025-10-25T09:03	10	18	0.2	17	18	355	0.3	355	356	8.6	91.7
2025-10-25T09:04	10	18	0.3	18	19	356	0.3	355	356	8.6	91.8
2025-10-25T09:05	10	18	0.5	17	19	356	0.2	355	356	8.6	91.7
2025-10-25T09:06	10	17	0.1	17	18	356	0.3	355	356	8.7	91.4
2025-10-25T09:07	10	19	0.9	17	20	356	0.3	356	357	8.7	91.2
2025-10-25T09:08	10	23	1.5	20	25	357	0.3	356	358	8.7	91.7
2025-10-25T09:09	10	25	0.2	25	25	357	0.2	357	358	8.8	91.3
2025-10-25T09:10	10	27	0.9	25	28	358	0.3	357	358	8.9	90.7
2025-10-25T09:11	10	29	0.3	28	30	358	0.3	358	359	8.9	91.1
2025-10-25T09:12	10	30	0.9	29	32	358	0.2	358	359	8.9	90.0
2025-10-25T09:13	10	34	1.4	32	36	359	0.4	359	360	8.9	90.7
2025-10-25T09:14	10	37	1.0	36	39	360	0.3	359	360	9.0	90.2
2025-10-25T09:15	10	40	0.5	39	41	360	0.7	359	362	9.0	89.9
2025-10-25T09:16	10	39	0.3	39	40	361	0.4	360	362	9.1	90.0
2025-10-25T09:17	10	40	0.3	39	41	361	0.3	360	361	9.1	89.8
2025-10-25T09:18	10	39	1.3	36	41	362	0.2	361	362	9.2	89.9
2025-10-25T09:19	10	35	0.5	34	36	362	0.2	361	362	9.2	90.3
2025-10-25T09:20	10	37	0.8	36	38	362	0.3	361	363	9.3	89.7
2025-10-25T09:21	10	39	0.6	38	40	363	0.2	362	363	9.3	89.7
2025-10-25T09:22	10	41	0.8	40	42	362	0.2	362	363	9.4	89.4
2025-10-25T09:23	10	41	0.4	41	42	363	0.4	362	363	9.4	89.2
2025-10-25T09:24	10	41	0.1	41	41	362	0.3	361	363	9.4	88.9
2025-10-25T09:25	10	41	0.4	40	41	362	0.2	361	362	9.5	87.8
2025-10-25T09:26	10	39	0.3	39	40	362	0.4	362	363	9.5	88.4
2025-10-25T09:27	10	39	0.2	38	39	363	0.3	362	363	9.6	88.8
2025-10-25T09:28	10	39	0.5	38	40	363	0.3	362	363	9.6	88.5
2025-10-25T09:29	10	34	2.0	31	38	361	0.4	361	363	9.6	87.7
2025-10-25T09:30	10	31	0.3	30	31	361	0.4	361	362	9.6	88.8
2025-10-25T09:31	10	29	0.2	29	30	362	0.3	361	362	9.6	89.3
2025-10-25T09:32	10	29	1.0	27	30	361	0.3	361	362	9.7	88.5
2025-10-25T09:33	10	26	0.5	25	27	361	0.2	361	362	9.7	88.6
2025-10-25T09:34	10	24	0.3	24	25	361	0.5	360	362	9.8	87.9
2025-10-25T09:35	10	24	0.6	23	25	360	0.3	359	360	9.8	87.5
2025-10-25T09:36	10	23	0.4	22	24	360	0.2	359	360	9.8	88.7
2025-10-25T09:37	10	26	1.1	23	28	360	0.3	359	360	9.8	88.8
2025-10-25T09:38	10	28	0.3	27	29	360	0.3	360	361	9.8	89.4
2025-10-25T09:39	10	28	0.1	28	29	361	0.2	360	361	9.8	89.4
2025-10-25T09:40	10	30	1.1	29	32	361	0.2	360	361	9.8	89.5
2025-10-25T09:41	10	34	0.6	32	35	361	0.3	361	362	9.8	88.9
2025-10-25T09:42	10	35	0.1	34	35	362	0.4	361	362	9.8	89.5
2025-10-25T09:43	10	33	0.8	32	34	362	0.3	361	362	9.8	89.7
2025-10-25T09:44	10	30	0.8	29	32	362	0.3	361	363	9.9	89.0
2025-10-25T09:45	10	28	0.3	28	29	361	0.3	360	362	9.9	89.1
2025-10-25T09:46	10	28	0.1	28	28	361	0.2	361	362	9.9	88.6
2025-10-25T09:47	10	29	0.7	28	31	361	0.3	361	362	10.0	88.5
2025-10-25T09:48	10	32	0.6	30	33	361	0.2	361	362	10.0	87.8
2025-10-25T09:49	10	33	0.4	32	34	361	0.3	361	362	10.0	87.8
2025-10-25T09:50	10	37	1.6	34	40	362	0.5	361	363	10.1	88.7
2025-10-25T09:51	10	42	1.3	40	45	363	0.5	362	364	10.1	88.3
2025-10-25T09:52	10	45	0.3	44	45	364	0.4	363	364	10.1	87.9
2025-10-25T09:53	10	44	0.5	43	45	364	0.4	363	365	10.1	88.3
2025-10-25T09:54	10	41	0.8	40	43	364	0.2	363	364	10.2	87.9
2025-10-25T09:55	10	40	0.2	40	40	364	0.2	364	365	10.2	88.3
2025-10-25T09:56	10	41	0.3	40	41	364	0.4	363	365	10.2	88.0
2025-10-25T09:57	10	41	0.3	40	41	364	0.3	363	365	10.2	87.4
2025-10-25T09:58	10	40	0.7	39	41	364	0.2	364	365	10.3	87.0
2025-10-25T09:59	10	38	0.7	37	39	364	0.3	364	365	10.3	87.4
2025-10-25T10:00	10	36	0.6	35	37	365	0.2	364	365	10.3	87.9
2025-10-25T10:01	10	36	0.2	35	36	365	0.3	364	365	10.3	87.8
2025-10-25T10:02	10	37	0.4	36	37	364	0.3	364	365	10.3	87.7
2025-10-25T10:03	10	38	0.3	37	38	365	0.3	364	365	10.3	87.3
2025-10-25T10:04	10	39	0.3	38	39	365	0.3	364	365	10.4	86.9
2025-10-25T10:05	10	40	0.7	39	41	365	0.3	365	366	10.4	86.9
2025-10-25T10:06	10	41	0.2	41	42	365	0.2	365	366	10.4	86.4
2025-10-25T10:07	10	40	0.7	39	42	365	0.2	364	365	10.4	86.6
2025-10-25T10:08	10	38	0.5	37	39	365	0.2	364	365	10.5	86.4
2025-10-25T10:09	10	35	1.4	32	37	365	0.3	365	366	10.5	87.1
2025-10-25T10:10	10	31	0.9	30	33	365	0.4	365	366	10.5	87.0
2025-10-25T10:11	10	29	0.4	28	30	364	0.4	363	365	10.5	85.8
2025-10-25T10:12	10	28	0.2	28	28	364	0.3	363	365	10.6	85.7
2025-10-25T10:13	10	28	0.2	28	28	364	0.2	364	364	10.6	86.2
2025-10-25T10:14	10	29	0.3	28	29	364	0.2	364	364	10.6	85.7
2025-10-25T10:15	10	29	0.1	29	30	364	0.2	364	364	10.6	85.0
2025-10-25T10:16	10	31	0.6	30	32	364	0.3	364	365	10.6	85.8
2025-10-25T10:17	10	32	0.4	32	33	365	0.2	364	365	10.6	85.7
2025-10-25T10:18	10	34	0.3	33	34	364	0.3	364	365	10.7	85.0
2025-10-25T10:19	10	35	0.5	34	36	364	0.3	364	365	10.7	84.8
2025-10-25T10:20	10	37	0.6	36	38	364	0.2	364	365	10.7	84.0
2025-10-25T10:21	10	39	0.4	38	39	364	0.3	364	365	10.8	83.7
2025-10-25T10:22	10	39	0.1	39	39	365	0.2	364	365	10.8	84.1
2025-10-25T10:23	10	39	0.1	39	39	366	0.4	365	366	10.8	84.6
2025-10-25T10:24	10	38	0.5	37	39	366	0.6	365	367	10.8	84.9
2025-10-25T10:25	10	36	0.8	34	37	366	0.2	366	366	10.8	83.3
2025-10-25T10:26	10	33	0.7	32	34	366	0.2	365	366	10.8	84.2
2025-10-25T10:27	10	31	0.5	30	32	366	0.5	365	367	10.8	84.6
2025-10-25T10:28	10	30	0.1	30	30	365	0.2	365	366	10.8	84.4
2025-10-25T10:29	10	30	0.2	30	31	365	0.3	365	366	10.8	84.6
2025-10-25T10:30	10	31	0.3	31	32	365	0.3	365	366	10.9	84.5
2025-10-25T10:31	10	32	0.2	31	32	365	0.3	365	366	10.9	83.6
2025-10-25T10:32	10	32	0.1	32	32	365	0.4	364	366	10.9	83.0
2025-10-25T10:33	10	31	0.3	31	32	365	0.2	364	365	10.9	82.6
2025-10-25T10:34	10	30	0.4	30	31	365	0.2	364	365	10.9	83.0
2025-10-25T10:35	10	29	0.2	29	30	365	0.2	364	365	10.9	82.0
2025-10-25T10:36	10	29	0.1	29	29	365	0.2	364	365	10.9	82.3
2025-10-25T10:37	10	29	0.2	29	30	365	0.2	364	365	10.9	82.2
2025-10-25T10:38	10	30	0.5	30	31	365	0.3	364	365	10.9	82.7
2025-10-25T10:39	10	32	0.2	31	32	365	0.3	365	366	10.9	83.1
2025-10-25T10:40	10	32	0.1	32	32	365	0.2	364	365	11.0	82.9
2025-10-25T10:41	10	32	0.1	32	32	365	0.4	364	366	10.9	83.2
2025-10-25T10:42	10	32	0.3	32	33	365	0.2	365	366	10.9	84.0
2025-10-25T10:43	10	34	0.5	33	34	366	0.3	365	367	10.9	84.7
2025-10-25T10:44	10	35	0.1	34	35	366	0.3	365	366	10.9	83.8
2025-10-25T10:45	10	34	0.3	34	35	366	0.3	365	366	10.9	84.4
2025-10-25T10:46	10	33	0.3	33	34	366	0.3	365	366	10.9	84.2
2025-10-25T10:47	10	32	0.5	31	33	365	0.2	365	366	10.9	84.1
2025-10-25T10:48	10	31	0.2	30	31	365	0.4	364	366	10.8	84.8
2025-10-25T10:49	10	30	0.2	29	30	365	0.3	365	366	10.8	85.1
2025-10-25T10:50	10	29	0.2	29	29	366	0.2	365	366	10.8	86.1
2025-10-25T10:51	10	28	0.2	28	29	366	0.2	365	366	10.8	86.6
2025-10-25T10:52	10	28	0.1	28	28	365	0.2	365	366	10.8	86.0
2025-10-25T10:53	10	28	0.3	27	28	365	0.3	364	366	10.7	86.0
2025-10-25T10:54	10	26	0.6	25	27	365	0.4	364	366	10.7	86.0
2025-10-25T10:55	10	24	0.5	23	25	364	0.2	364	364	10.7	85.4
2025-10-25T10:56	10	22	0.3	22	23	364	0.4	363	365	10.7	86.0
2025-10-25T10:57	10	23	0.4	22	24	363	0.3	363	364	10.6	86.2
2025-10-25T10:58	10	23	0.1	23	24	363	0.4	363	364	10.6	86.2
2025-10-25T10:59	10	23	0.2	23	24	363	0.3	363	364	10.6	85.5
2025-10-25T11:00	10	24	0.1	24	24	364	0.3	363	364	10.5	86.9
2025-10-25T11:01	10	23	0.2	23	24	364	0.3	363	364	10.4	88.1
2025-10-25T11:02	10	23	0.3	22	23	363	0.3	363	364	10.5	87.3
2025-10-25T11:03	10	21	0.4	21	22	363	0.2	362	364	10.5	86.8
2025-10-25T11:04	10	21	0.1	20	21	363	0.3	363	364	10.4	87.9
2025-10-25T11:05	10	20	0.3	20	21	363	0.3	362	364	10.4	87.6
2025-10-25T11:06	10	20	0.1	19	20	363	0.4	362	364	10.4	87.8
2025-10-25T11:07	10	19	0.2	19	20	363	0.3	362	364	10.3	88.4
2025-10-25T11:08	10	19	0.3	18	19	363	0.2	362	363	10.4	87.7
2025-10-25T11:09	10	17	0.4	17	18	362	0.3	362	363	10.4	87.1
2025-10-25T11:10	10	16	0.4	15	17	362	0.2	362	363	10.4	87.5
2025-10-25T11:11	10	15	0.3	14	15	362	0.3	361	362	10.4	86.7
2025-10-25T11:12	10	14	0.2	14	14	362	0.3	361	362	10.4	87.4
2025-10-25T11:13	10	13	0.2	13	14	361	0.3	361	362	10.4	87.7
2025-10-25T11:14	10	13	0.1	13	13	361	0.2	361	362	10.3	87.4
2025-10-25T11:15	10	13	0.1	13	13	361	0.3	361	362	10.3	87.9
2025-10-25T11:16	10	13	0.2	13	14	361	0.2	361	362	10.3	87.5
2025-10-25T11:17	10	14	0.1	14	14	361	0.2	361	362	10.3	88.1
2025-10-25T11:18	10	13	0.2	13	14	361	0.2	361	362	10.3	87.3
2025-10-25T11:19	10	14	0.3	13	14	361	0.3	361	362	10.3	87.9
2025-10-25T11:20	10	14	0.1	14	14	361	0.3	361	362	10.3	88.2
2025-10-25T11:21	10	13	0.3	13	14	361	0.3	360	362	10.3	87.3
2025-10-25T11:22	10	12	0.3	12	13	361	0.3	360	361	10.2	87.8
2025-10-25T11:23	10	11	0.2	11	12	361	0.3	360	361	10.2	87.9
2025-10-25T11:24	10	11	0.2	10	11	360	0.3	360	361	10.2	88.5
2025-10-25T11:25	10	10	0.2	10	11	360	0.2	360	361	10.2	88.9
2025-10-25T11:26	10	10	0.1	9	10	360	0.3	359	361	10.2	88.2
2025-10-25T11:27	10	9	0.2	9	10	360	0.2	359	361	10.2	88.7
2025-10-25T11:28	10	9	0.2	8	9	360	0.3	359	360	10.1	89.5
2025-10-25T11:29	10	8	0.1	8	8	360	0.2	359	360	10.1	88.9
2025-10-25T11:30	10	8	0.1	8	8	360	0.2	359	360	10.1	89.3
2025-10-25T11:31	10	8	0.1	8	9	360	0.3	359	360	10.1	89.7
2025-10-25T11:32	10	9	0.1	9	9	360	0.2	359	360	10.0	90.6
2025-10-25T11:33	10	9	0.1	8	9	359	0.2	359	360	10.1	89.6
2025-10-25T11:34	10	8	0.1	8	9	359	0.2	359	360	10.1	89.1
2025-10-25T11:35	10	8	0.1	8	9	359	0.2	359	360	10.0	90.3
2025-10-25T11:36	10	8	0.1	8	9	359	0.2	359	360	10.0	90.3
2025-10-25T11:37	10	9	0.1	8	9	360	0.3	359	360	9.9	91.4
2025-10-25T11:38	10	9	0.1	8	9	359	0.2	359	360	9.9	91.4
2025-10-25T11:39	10	9	0.1	9	9	360	0.3	359	360	9.9	91.8
2025-10-25T11:40	10	9	0.1	9	9	360	0.3	359	360	10.1	89.9
2025-10-25T11:41	10	9	0.1	9	9	360	0.3	359	361	10.0	91.7
2025-10-25T11:42	10	9	0.1	9	9	360	0.2	360	360	10.1	90.9
2025-10-25T11:43	10	9	0.2	8	9	360	0.3	359	360	10.1	90.2
2025-10-25T11:44	10	8	0.3	7	8	360	0.2	359	360	10.1	90.1
2025-10-25T11:45	10	7	0.3	6	7	360	0.3	359	360	10.1	90.4
2025-10-25T11:46	10	6	0.3	5	6	360	0.3	359	360	10.2	89.9
2025-10-25T11:47	10	5	0.2	5	5	360	0.3	359	360	10.1	90.6
2025-10-25T11:48	10	5	0.2	4	5	359	0.3	359	360	10.1	90.4
2025-10-25T11:49	10	4	0.1	4	4	359	0.3	359	360	10.1	90.2
2025-10-25T11:50	10	4	0.1	4	4	359	0.2	359	359	10.1	90.6
2025-10-25T11:51	10	3	0.1	3	4	359	0.2	358	359	10.1	89.8
2025-10-25T11:52	10	3	0.1	3	3	359	0.2	358	359	10.1	90.2
2025-10-25T11:53	10	3	0.1	3	3	359	0.2	358	359	10.1	89.9
2025-10-25T11:54	10	3	0.1	3	3	359	0.2	358	359	10.1	89.6
2025-10-25T11:55	10	3	0.1	3	3	359	0.2	358	359	10.2	88.5
2025-10-25T11:56	10	4	0.1	3	4	358	0.2	358	359	10.1	89.9
2025-10-25T11:57	10	4	0.2	4	4	358	0.2	358	359	10.0	91.1
2025-10-25T11:58	10	4	0.2	4	5	359	0.2	358	359	9.9	91.8
2025-10-25T11:59	10	5	0.2	5	5	359	0.2	358	359	9.9	91.6
2025-10-25T12:00	10	5	0.2	5	6	359	0.2	358	359	9.9	91.7
2025-10-25T12:01	10	6	0.3	6	7	359	0.2	358	359	9.9	91.9
2025-10-25T12:02	10	7	0.4	7	8	359	0.2	358	359	10.0	91.1
2025-10-25T12:03	10	9	0.4	8	10	359	0.2	358	359	10.0	90.3
2025-10-25T12:04	10	10	0.6	10	11	359	0.3	358	360	10.0	91.2
2025-10-25T12:05	10	13	0.6	11	13	360	0.2	359	360	10.0	91.3
2025-10-25T12:06	10	14	0.1	13	14	360	0.2	359	360	10.0	90.9
2025-10-25T12:07	10	14	0.1	13	14	360	0.2	359	360	10.0	91.2
2025-10-25T12:08	10	14	0.1	13	14	360	0.3	359	361	10.0	91.7
2025-10-25T12:09	10	14	0.1	13	14	360	0.3	359	361	9.9	91.9
2025-10-25T12:10	10	13	0.2	13	13	360	0.2	360	361	10.0	92.2
2025-10-25T12:11	10	12	0.2	11	12	360	0.2	360	361	10.0	91.3
2025-10-25T12:12	10	11	0.1	11	12	360	0.3	360	361	10.0	91.8
2025-10-25T12:13	10	11	0.1	11	12	360	0.2	359	360	9.9	92.3
2025-10-25T12:14	10	11	0.1	11	11	360	0.3	359	360	9.9	91.8
2025-10-25T12:15	10	11	0.2	11	12	360	0.3	359	360	10.0	91.5
2025-10-25T12:16	10	10	0.3	10	11	360	0.3	359	360	10.0	91.3
2025-10-25T12:17	10	10	0.1	10	10	360	0.2	359	360	10.0	91.9
2025-10-25T12:18	10	10	0.1	10	10	359	0.2	359	360	10.0	91.6
2025-10-25T12:19	10	11	0.3	10	11	359	0.2	359	360	10.0	91.4
2025-10-25T12:20	10	12	0.5	11	13	359	0.2	359	360	10.0	91.5
2025-10-25T12:21	10	14	0.7	13	15	360	0.2	359	360	10.0	91.1
2025-10-25T12:22	10	17	1.0	15	19	360	0.3	359	360	10.1	91.1
2025-10-25T12:23	10	21	1.3	19	23	360	0.2	360	361	10.0	92.0
2025-10-25T12:24	10	25	1.1	23	27	361	0.4	360	362	10.0	92.0
2025-10-25T12:25	10	28	0.7	27	29	362	0.2	361	362	10.0	91.6
2025-10-25T12:26	10	30	0.2	29	30	362	0.4	361	362	10.1	90.9
2025-10-25T12:27	10	29	0.3	29	30	362	0.4	361	363	10.1	91.1
2025-10-25T12:28	10	28	0.7	26	29	362	0.2	361	362	10.2	90.0
2025-10-25T12:29	10	25	0.7	24	26	362	0.3	361	363	10.1	91.3
2025-10-25T12:30	10	23	0.6	22	24	362	0.3	361	363	10.1	91.3
2025-10-25T12:31	10	21	0.4	21	22	362	0.3	361	362	10.1	90.8
2025-10-25T12:32	10	20	0.2	20	20	362	0.3	361	362	10.2	90.3
2025-10-25T12:33	10	20	0.1	20	20	361	0.3	360	362	10.2	89.8
2025-10-25T12:34	10	20	0.2	20	20	361	0.4	361	362	10.2	89.7
2025-10-25T12:35	10	21	0.4	20	21	361	0.4	361	362	10.2	89.7
2025-10-25T12:36	10	22	0.6	21	23	362	0.4	361	362	10.2	90.9
2025-10-25T12:37	10	24	0.6	23	25	362	0.3	362	363	10.1	91.4
2025-10-25T12:38	10	26	0.6	25	28	363	0.3	362	364	10.1	91.6
2025-10-25T12:39	10	28	0.5	28	29	363	0.3	362	364	10.2	90.1
2025-10-25T12:40	10	30	0.3	29	30	363	0.2	362	363	10.3	89.9
2025-10-25T12:41	10	31	0.4	30	32	364	0.3	363	364	10.3	90.8
2025-10-25T12:42	10	32	0.4	32	33	363	0.3	363	364	10.3	89.6
2025-10-25T12:43	10	33	0.2	33	33	364	0.3	363	365	10.4	89.1
2025-10-25T12:44	10	33	0.3	32	33	364	0.2	364	365	10.4	89.8
2025-10-25T12:45	10	32	0.3	31	32	365	0.2	364	365	10.4	89.7
2025-10-25T12:46	10	31	0.1	31	32	364	0.3	363	365	10.4	89.1
2025-10-25T12:47	10	31	0.1	31	32	364	0.2	364	365	10.4	88.7
2025-10-25T12:48	10	31	0.2	31	31	364	0.2	364	365	10.4	88.8
2025-10-25T12:49	10	31	0.1	31	31	364	0.3	364	365	10.5	88.1
2025-10-25T12:50	10	31	0.2	31	32	365	0.3	364	365	10.4	88.1
2025-10-25T12:51	10	32	0.3	32	33	365	0.3	364	366	10.4	88.1
2025-10-25T12:52	10	33	0.2	33	33	366	0.5	365	366	10.4	88.6
2025-10-25T12:53	10	34	0.4	33	35	366	0.2	366	366	10.4	89.4
2025-10-25T12:54	10	35	0.2	34	35	366	0.2	366	367	10.4	89.8
2025-10-25T12:55	10	35	0.2	35	36	366	0.3	366	367	10.4	89.3
2025-10-25T12:56	10	36	0.5	35	37	367	0.3	366	367	10.4	88.7
2025-10-25T12:57	10	38	0.1	37	38	367	0.3	366	368	10.4	87.8
2025-10-25T12:58	10	37	0.3	36	37	368	0.2	367	368	10.4	89.4
2025-10-25T12:59	10	36	0.3	35	36	368	0.4	367	368	10.4	89.3
2025-10-25T13:00	10	35	0.2	34	36	367	0.2	367	368	10.4	88.4
2025-10-25T13:01	10	33	0.9	31	34	368	0.2	367	368	10.4	89.1
2025-10-25T13:02	10	30	0.9	28	31	368	0.2	367	368	10.4	90.3
2025-10-25T13:03	10	27	0.9	25	28	368	0.2	367	368	10.4	90.5
2025-10-25T13:04	10	23	0.9	22	25	368	0.3	367	368	10.5	89.8
2025-10-25T13:05	10	21	0.7	19	22	366	0.4	366	367	10.5	87.6
2025-10-25T13:06	10	18	0.6	17	19	366	0.3	365	366	10.6	88.1
2025-10-25T13:07	10	17	0.4	16	17	365	0.2	365	366	10.5	88.3
2025-10-25T13:08	10	16	0.2	16	16	365	0.3	365	366	10.6	88.1
2025-10-25T13:09	10	16	0.1	15	16	365	0.3	364	366	10.6	88.9
2025-10-25T13:10	10	15	0.1	15	16	365	0.2	365	366	10.5	89.4
2025-10-25T13:11	10	15	0.2	15	16	365	0.3	364	365	10.6	88.4
2025-10-25T13:12	10	14	0.4	14	15	364	0.2	364	365	10.6	88.9
2025-10-25T13:13	10	13	0.3	13	14	364	0.2	364	365	10.5	89.4
2025-10-25T13:14	10	13	0.2	12	13	364	0.2	364	365	10.5	89.5
2025-10-25T13:15	10	12	0.2	11	12	364	0.2	364	365	10.5	89.9
2025-10-25T13:16	10	12	0.1	11	12	364	0.3	363	364	10.5	89.4
2025-10-25T13:17	10	12	0.3	12	13	363	0.4	363	364	10.6	87.5
2025-10-25T13:18	10	14	0.2	13	14	363	0.3	363	364	10.5	88.2
2025-10-25T13:19	10	14	0.2	14	14	363	0.3	362	364	10.5	88.6
2025-10-25T13:20	10	14	0.1	14	15	363	0.2	363	364	10.5	87.3
2025-10-25T13:21	10	14	0.2	13	14	363	0.3	362	364	10.5	88.0
2025-10-25T13:22	10	13	0.1	13	14	363	0.3	362	364	10.5	89.2
2025-10-25T13:23	10	13	0.1	13	13	363	0.4	363	364	10.5	89.0
2025-10-25T13:24	10	13	0.1	13	13	363	0.2	362	363	10.5	87.3
2025-10-25T13:25	10	13	0.1	13	13	363	0.2	362	363	10.5	87.1
2025-10-25T13:26	10	13	0.1	13	13	362	0.5	361	363	10.6	85.1
2025-10-25T13:27	10	13	0.1	13	13	362	0.3	361	363	10.6	85.7
2025-10-25T13:28	10	13	0.2	13	14	362	0.2	362	363	10.5	87.0
2025-10-25T13:29	10	14	0.2	14	14	362	0.3	362	363	10.4	87.8
2025-10-25T13:30	10	14	0.1	14	15	362	0.3	362	363	10.4	88.1
2025-10-25T13:31	10	14	0.1	14	14	362	0.2	362	363	10.4	86.9
2025-10-25T13:32	10	14	0.2	14	15	362	0.4	361	363	10.4	87.9
2025-10-25T13:33	10	15	0.2	15	15	362	0.2	362	363	10.4	88.9
2025-10-25T13:34	10	15	0.1	15	15	362	0.2	362	362	10.4	88.1
2025-10-25T13:35	10	15	0.1	15	15	362	0.3	361	362	10.4	87.4
2025-10-25T13:36	10	15	0.1	14	15	362	0.3	361	362	10.4	86.5
2025-10-25T13:37	10	14	0.2	14	15	362	0.3	361	362	10.4	87.9
2025-10-25T13:38	10	13	0.3	13	14	362	0.2	361	362	10.3	88.7
2025-10-25T13:39	10	12	0.3	12	13	362	0.3	361	362	10.3	89.2
2025-10-25T13:40	10	11	0.3	11	12	361	0.3	360	362	10.3	87.6
2025-10-25T13:41	10	10	0.3	10	11	361	0.3	361	362	10.3	88.2
2025-10-25T13:42	10	10	0.2	9	10	361	0.5	360	362	10.3	87.8
2025-10-25T13:43	10	9	0.1	9	9	360	0.2	360	361	10.3	87.7
2025-10-25T13:44	10	9	0.1	9	9	360	0.2	360	361	10.3	87.8
2025-10-25T13:45	10	9	0.1	8	9	360	0.3	360	361	10.2	87.9
2025-10-25T13:46	10	8	0.1	8	9	360	0.3	359	361	10.2	88.9
2025-10-25T13:47	10	8	0.1	8	9	360	0.2	360	361	10.2	87.7
2025-10-25T13:48	10	8	0.1	8	8	360	0.3	360	361	10.2	88.7
2025-10-25T13:49	10	8	0.2	7	8	360	0.2	359	360	10.1	89.0
2025-10-25T13:50	10	7	0.1	7	7	360	0.2	359	360	10.1	88.9
2025-10-25T13:51	10	7	0.1	6	7	360	0.2	359	360	10.1	89.6
2025-10-25T13:52	10	6	0.1	6	6	360	0.3	359	360	10.1	89.5
2025-10-25T13:53	10	6	0.1	6	6	359	0.3	359	360	10.1	89.6
2025-10-25T13:54	10	6	0.1	6	6	359	0.2	359	360	10.0	90.3
2025-10-25T13:55	10	6	0.1	6	6	359	0.3	359	360	10.0	90.1
2025-10-25T13:56	10	6	0.1	6	6	359	0.2	359	360	9.9	90.2
2025-10-25T13:57	10	6	0.1	6	6	359	0.3	358	359	9.9	89.8
2025-10-25T13:58	10	6	0.1	6	6	359	0.2	358	360	9.9	90.4
2025-10-25T13:59	10	6	0.1	5	6	359	0.2	358	359	9.9	89.7
2025-10-25T14:00	10	6	0.1	5	6	359	0.2	358	359	9.9	90.4
2025-10-25T14:01	10	5	0.1	5	6	359	0.2	358	359	9.9	90.2
2025-10-25T14:02	10	5	0.1	5	5	359	0.3	358	359	9.9	90.0
2025-10-25T14:03	10	5	0.1	5	5	358	0.2	358	359	9.9	90.0
2025-10-25T14:04	10	5	0.2	4	5	358	0.2	357	359	9.9	89.3
2025-10-25T14:05	10	4	0.1	4	4	358	0.3	357	358	9.8	90.5
2025-10-25T14:06	10	4	0.1	4	4	358	0.3	357	358	9.8	90.0
2025-10-25T14:07	10	4	0.1	4	4	358	0.2	357	358	9.8	89.7
2025-10-25T14:08	10	4	0.1	4	4	357	0.3	357	358	9.8	89.0
2025-10-25T14:09	10	4	0.1	4	4	357	0.2	357	358	9.8	88.8
2025-10-25T14:10	10	4	0.1	3	4	357	0.3	357	358	9.7	90.1
2025-10-25T14:11	10	4	0.1	4	4	357	0.2	357	357	9.6	90.5
2025-10-25T14:12	10	4	0.1	3	4	357	0.3	356	358	9.6	90.2
2025-10-25T14:13	10	4	0.1	4	4	357	0.3	356	357	9.6	91.0
2025-10-25T14:14	10	4	0.1	4	4	357	0.3	356	357	9.6	90.2
2025-10-25T14:15	10	4	0.1	4	4	357	0.2	356	357	9.6	90.7
2025-10-25T14:16	10	4	0.1	4	5	357	0.2	356	357	9.6	89.6
2025-10-25T14:17	10	5	0.1	4	5	357	0.2	356	357	9.6	90.6
2025-10-25T14:18	10	5	0.1	5	5	357	0.2	356	357	9.6	90.2
2025-10-25T14:19	10	5	0.1	5	5	356	0.2	356	357	9.6	90.4
2025-10-25T14:20	10	5	0.1	4	5	357	0.2	356	357	9.6	90.6
2025-10-25T14:21	10	4	0.1	4	5	356	0.2	356	357	9.6	89.7
2025-10-25T14:22	10	4	0.1	4	4	356	0.3	356	357	9.6	89.7
2025-10-25T14:23	10	4	0.1	4	4	356	0.2	356	357	9.6	90.0
2025-10-25T14:24	10	4	0.1	4	4	356	0.2	356	357	9.6	90.2
2025-10-25T14:25	10	4	0.1	4	4	356	0.2	356	357	9.6	90.0
2025-10-25T14:26	10	4	0.1	4	4	356	0.2	356	357	9.6	90.2
2025-10-25T14:27	10	4	0.1	4	4	356	0.2	356	357	9.5	90.9
2025-10-25T14:28	10	4	0.1	4	4	356	0.2	356	357	9.5	90.9
2025-10-25T14:29	10	4	0.1	4	4	356	0.3	355	356	9.5	90.1
2025-10-25T14:30	10	4	0.1	4	4	356	0.2	356	356	9.5	90.6
2025-10-25T14:31	10	4	0.1	4	4	356	0.2	355	357	9.5	91.0
2025-10-25T14:32	10	4	0.1	4	5	356	0.2	356	357	9.6	89.0
2025-10-25T14:33	10	5	0.1	4	5	356	0.2	356	356	9.6	88.8
2025-10-25T14:34	10	5	0.1	5	5	356	0.2	355	357	9.6	88.6
2025-10-25T14:35	10	5	0.1	5	5	356	0.3	355	357	9.5	89.7
2025-10-25T14:36	10	5	0.1	5	5	356	0.3	356	357	9.5	90.6
2025-10-25T14:37	10	5	0.1	5	5	356	0.2	356	357	9.5	90.9
2025-10-25T14:38	10	5	0.1	5	5	356	0.2	356	357	9.5	89.8
2025-10-25T14:39	10	5	0.1	4	5	356	0.2	356	357	9.5	90.9
2025-10-25T14:40	10	5	0.1	4	5	356	0.2	356	357	9.4	91.5
2025-10-25T14:41	10	4	0.1	4	5	356	0.2	356	357	9.4	92.0
2025-10-25T14:42	10	4	0.1	4	4	356	0.2	356	357	9.4	90.8
2025-10-25T14:43	10	4	0.1	4	4	356	0.2	355	356	9.4	90.8
2025-10-25T14:44	10	3	0.1	3	4	356	0.3	355	356	9.4	91.3
2025-10-25T14:45	10	3	0.1	3	3	356	0.3	355	356	9.4	91.0
2025-10-25T14:46	10	3	0.1	3	3	355	0.3	355	356	9.4	91.2
2025-10-25T14:47	10	3	0.1	3	3	356	0.2	355	356	9.3	91.3
2025-10-25T14:48	10	3	0.1	2	3	355	0.2	355	356	9.3	90.9
2025-10-25T14:49	10	3	0.1	2	3	355	0.3	355	356	9.3	90.8
2025-10-25T14:50	10	3	0.1	2	3	355	0.2	355	356	9.3	90.4
2025-10-25T14:51	10	3	0.1	2	3	355	0.2	354	355	9.3	90.9
2025-10-25T14:52	10	3	0.1	2	3	355	0.2	355	356	9.3	90.9
2025-10-25T14:53	10	3	0.1	3	3	355	0.2	354	355	9.3	90.9
2025-10-25T14:54	10	3	0.1	3	3	355	0.2	354	355	9.2	91.4
2025-10-25T14:55	10	3	0.1	3	3	355	0.3	354	355	9.2	92.0
2025-10-25T14:56	10	3	0.1	3	3	355	0.2	354	355	9.2	91.9
2025-10-25T14:57	10	3	0.1	3	3	355	0.2	354	355	9.2	91.8
2025-10-25T14:58	10	3	0.1	3	3	355	0.2	354	355	9.1	92.1
2025-10-25T14:59	10	3	0.1	3	4	355	0.2	354	355	9.1	91.9
2025-10-25T15:00	10	3	0.1	3	3	354	0.2	354	355	9.0	92.2
2025-10-25T15:01	10	3	0.1	3	3	354	0.2	354	355	9.0	92.2
2025-10-25T15:02	10	3	0.1	3	3	354	0.2	354	355	8.9	92.7
2025-10-25T15:03	10	3	0.1	3	3	354	0.2	354	355	8.9	92.4
2025-10-25T15:04	10	3	0.1	3	3	354	0.3	354	355	8.9	92.1
2025-10-25T15:05	10	3	0.1	3	3	354	0.3	354	355	8.9	92.4
2025-10-25T15:06	10	3	0.1	3	3	354	0.3	353	354	8.9	92.3
2025-10-25T15:07	10	2	0.1	2	3	354	0.2	353	354	8.9	92.6
2025-10-25T15:08	10	2	0.1	2	3	354	0.3	353	355	8.9	91.6
2025-10-25T15:09	10	2	0.1	2	2	354	0.2	353	354	8.9	92.1
2025-10-25T15:10	10	2	0.1	2	2	354	0.3	353	354	8.9	92.9
2025-10-25T15:11	10	2	0.1	2	2	353	0.3	353	354	8.8	93.1
2025-10-25T15:12	10	2	0.1	2	2	354	0.2	353	354	8.8	93.5
2025-10-25T15:13	10	2	0.1	2	2	354	0.3	353	354	8.8	92.9
2025-10-25T15:14	10	2	0.1	2	2	353	0.2	353	354	8.9	91.5
2025-10-25T15:15	10	2	0.1	2	2	353	0.2	353	354	8.8	92.8
2025-10-25T15:16	10	2	0.1	2	2	353	0.2	353	354	8.8	92.6
2025-10-25T15:17	10	2	0.1	2	2	353	0.2	353	354	8.8	92.9
2025-10-25T15:18	10	2	0.1	2	2	353	0.2	353	354	8.8	93.1
2025-10-25T15:19	10	2	0.1	2	2	353	0.2	353	353	8.8	92.7
2025-10-25T15:20	10	2	0.1	2	2	353	0.2	353	354	8.9	92.0
2025-10-25T15:21	10	2	0.1	2	2	353	0.2	353	354	8.9	92.5
2025-10-25T15:22	10	2	0.1	2	2	353	0.3	353	354	8.9	91.9
2025-10-25T15:23	10	2	0.1	2	2	353	0.2	353	354	8.9	92.1
2025-10-25T15:24	10	2	0.1	2	2	353	0.2	353	354	8.9	91.6
2025-10-25T15:25	10	2	0.1	2	2	353	0.2	353	354	8.9	92.2
2025-10-25T15:26	10	2	0.1	2	2	353	0.2	353	354	8.8	92.4
2025-10-25T15:27	10	2	0.1	2	2	353	0.2	353	354	8.9	90.8
2025-10-25T15:28	10	2	0.1	1	2	353	0.3	353	354	8.9	91.4
2025-10-25T15:29	10	2	0.1	1	2	353	0.2	352	353	8.9	90.1
2025-10-25T15:30	10	1	0.1	1	2	353	0.2	352	353	8.9	89.7
2025-10-25T15:31	10	1	0.1	1	2	353	0.2	352	353	8.9	90.6
2025-10-25T15:32	10	1	0.1	1	2	353	0.2	352	353	8.9	90.7
2025-10-25T15:33	10	1	0.1	1	2	353	0.2	352	353	8.8	91.3
2025-10-25T15:34	10	1	0.1	1	2	353	0.2	352	353	8.8	90.4
2025-10-25T15:35	10	1	0.1	1	2	353	0.2	352	353	8.8	90.6
2025-10-25T15:36	10	1	0.1	1	2	352	0.2	352	353	8.8	91.3
2025-10-25T15:37	10	2	0.1	1	2	352	0.2	352	353	8.7	91.9
2025-10-25T15:38	10	2	0.1	1	2	352	0.3	352	353	8.7	92.6
2025-10-25T15:39	10	1	0.1	1	2	352	0.2	352	353	8.7	92.3
2025-10-25T15:40	10	1	0.1	1	2	352	0.2	352	353	8.7	92.9
2025-10-25T15:41	10	1	0.1	1	1	352	0.2	352	353	8.7	92.8
2025-10-25T15:42	10	1	0.1	1	1	352	0.2	352	353	8.7	92.2
2025-10-25T15:43	10	1	0.1	1	1	352	0.3	352	353	8.7	91.4
2025-10-25T15:44	10	1	0.1	1	1	352	0.2	352	353	8.7	91.7
2025-10-25T15:45	10	1	0.1	1	1	352	0.2	351	353	8.7	92.4
2025-10-25T15:46	10	1	0.1	1	1	352	0.2	352	352	8.6	93.2
2025-10-25T15:47	10	1	0.1	1	1	352	0.2	351	353	8.7	92.9
2025-10-25T15:48	10	1	0.1	1	1	352	0.2	352	352	8.7	92.8
2025-10-25T15:49	10	1	0.1	1	1	352	0.2	352	353	8.7	93.0
2025-10-25T15:50	10	1	0.1	1	1	352	0.2	352	352	8.6	93.6
2025-10-25T15:51	10	1	0.1	1	1	352	0.3	352	353	8.6	93.2
2025-10-25T15:52	10	1	0.1	0	1	352	0.2	351	352	8.7	93.1
2025-10-25T15:53	10	1	0.0	1	1	352	0.2	352	353	8.6	93.7
2025-10-25T15:54	10	1	0.1	1	1	352	0.2	352	353	8.6	93.7
2025-10-25T15:55	10	1	0.1	1	1	352	0.2	352	353	8.7	93.1
2025-10-25T15:56	10	1	0.1	1	1	352	0.3	351	353	8.7	93.0
2025-10-25T15:57	10	1	0.1	1	1	352	0.2	352	353	8.7	93.1
2025-10-25T15:58	10	1	0.1	1	2	352	0.3	352	353	8.7	92.6
2025-10-25T15:59	10	1	0.1	1	1	352	0.2	352	353	8.7	92.2
2025-10-25T16:00	10	1	0.1	1	2	352	0.2	352	353	8.7	92.7
2025-10-25T16:01	10	1	0.1	1	2	352	0.2	352	353	8.7	93.0
2025-10-25T16:02	10	1	0.1	1	2	352	0.2	351	353	8.7	93.3
2025-10-25T16:03	10	1	0.1	1	1	352	0.2	352	352	8.7	92.3
2025-10-25T16:04	10	1	0.1	1	1	352	0.2	352	353	8.7	92.1
2025-10-25T16:05	10	1	0.2	0	1	352	0.2	352	353	8.8	90.9
2025-10-25T16:06	10	1	0.1	0	1	352	0.2	352	353	8.8	91.1
2025-10-25T16:07	10	0	0.1	0	1	352	0.2	352	352	8.8	91.1
2025-10-25T16:08	10	0	0.1	0	1	352	0.2	352	353	8.8	90.8
2025-10-25T16:09	10	0	0.1	0	1	352	0.2	351	352	8.8	91.8
2025-10-25T16:10	10	0	0.1	0	1	352	0.2	352	352	8.7	91.9
2025-10-25T16:11	10	0	0.1	0	1	352	0.2	351	353	8.7	92.0
2025-10-25T16:12	10	0	0.1	0	1	352	0.3	351	353	8.8	91.2
2025-10-25T16:13	10	0	0.1	0	1	352	0.2	351	353	8.8	91.0
2025-10-25T16:14	10	0	0.1	0	1	352	0.3	351	353	8.8	91.3
2025-10-25T16:15	10	0	0.1	0	1	352	0.2	351	353	8.7	91.8
2025-10-25T16:16	10	0	0.1	0	1	352	0.2	351	352	8.7	91.7
2025-10-25T16:17	10	0	0.2	0	1	352	0.3	351	352	8.8	91.2
2025-10-25T16:18	10	0	0.1	0	1	352	0.3	351	352	8.8	90.4
2025-10-25T16:19	10	0	0.2	0	1	352	0.2	351	352	8.8	90.9
2025-10-25T16:20	10	0	0.1	0	0	352	0.2	351	352	8.8	90.2
2025-10-25T16:21	10	0	0.1	0	0	352	0.2	351	352	8.8	90.6
2025-10-25T16:22	10	0	0.1	0	0	352	0.2	351	352	8.8	90.2
2025-10-25T16:23	10	0	0.1	0	0	352	0.3	351	352	8.8	90.5
2025-10-25T16:24	10	0	0.2	0	1	352	0.2	351	352	8.8	90.8
2025-10-25T16:25	10	0	0.2	0	0	352	0.2	351	352	8.7	91.4
2025-10-25T16:26	10	0	0.2	0	0	352	0.3	351	352	8.8	90.7
2025-10-25T16:27	10	0	0.1	0	0	351	0.3	351	352	8.8	90.9
2025-10-25T16:28	10	0	0.2	0	0	352	0.2	351	352	8.7	91.9
2025-10-25T16:29	10	0	0.2	-1	0	351	0.3	351	352	8.7	92.1
2025-10-25T16:30	10	0	0.1	0	0	351	0.3	350	352	8.7	91.2
2025-10-25T16:31	10	0	0.2	0	0	351	0.3	351	353	8.7	91.2
2025-10-25T16:32	10	0	0.1	0	0	351	0.3	351	352	8.7	91.5
2025-10-25T16:33	10	0	0.1	0	0	351	0.3	351	352	8.6	92.0
2025-10-25T16:34	10	0	0.1	0	0	351	0.3	351	352	8.6	92.0
2025-10-25T16:35	10	0	0.1	0	0	351	0.3	350	352	8.6	92.8
2025-10-25T16:36	10	0	0.1	0	0	351	0.3	350	352	8.7	91.3
2025-10-25T16:37	10	0	0.1	0	0	351	0.3	350	352	8.6	91.9
2025-10-25T16:38	10	0	0.1	0	0	351	0.3	351	352	8.6	92.8
2025-10-25T16:39	10	0	0.1	0	0	351	0.3	350	352	8.6	92.7
2025-10-25T16:40	10	0	0.2	-1	0	351	0.3	350	352	8.6	92.9
2025-10-25T16:41	10	0	0.1	0	0	351	0.3	350	352	8.5	93.1
2025-10-25T16:42	10	0	0.1	0	0	351	0.3	350	351	8.5	93.1
2025-10-25T16:43	10	0	0.2	-1	0	351	0.2	350	351	8.5	93.0
2025-10-25T16:44	10	0	0.2	-1	0	351	0.3	350	352	8.5	92.5
2025-10-25T16:45	10	0	0.1	0	0	351	0.2	351	351	8.6	92.2
2025-10-25T16:46	10	0	0.1	0	0	351	0.3	350	352	8.6	91.3
2025-10-25T16:47	10	0	0.1	-1	0	351	0.2	350	351	8.6	91.3
2025-10-25T16:48	10	0	0.2	0	0	351	0.3	351	352	8.6	91.4
2025-10-25T16:49	10	0	0.1	-1	0	351	0.3	350	352	8.6	91.5
2025-10-25T16:50	10	0	0.1	-1	0	351	0.2	350	351	8.6	92.1
2025-10-25T16:51	10	0	0.1	0	0	351	0.3	350	352	8.6	91.7
2025-10-25T16:52	10	0	0.1	0	0	351	0.3	350	352	8.6	91.4
2025-10-25T16:53	10	0	0.1	0	0	351	0.3	350	351	8.6	91.6
2025-10-25T16:54	10	0	0.1	0	0	351	0.2	351	352	8.6	91.1
2025-10-25T16:55	10	0	0.1	0	0	351	0.2	350	351	8.6	90.5
2025-10-25T16:56	10	0	0.1	-1	0	351	0.2	350	351	8.6	90.7
2025-10-25T16:57	10	0	0.1	0	0	351	0.2	350	351	8.7	90.2
2025-10-25T16:58	10	0	0.1	0	0	351	0.3	350	351	8.6	90.4
2025-10-25T16:59	10	0	0.1	0	0	351	0.3	350	351	8.6	90.8
2025-10-25T17:00	10	0	0.1	0	0	351	0.2	350	351	8.6	91.0
2025-10-25T17:01	10	0	0.1	0	1	350	0.3	349	351	8.6	90.9
2025-10-25T17:02	10	0	0.1	0	0	351	0.2	350	351	8.6	90.7
2025-10-25T17:03	10	0	0.1	0	0	351	0.3	350	351	8.6	91.0
2025-10-25T17:04	10	0	0.1	0	0	350	0.3	350	351	8.5	91.3
2025-10-25T17:05	10	0	0.1	0	0	350	0.2	350	351	8.5	91.3
2025-10-25T17:06	10	0	0.1	0	0	350	0.2	350	351	8.6	90.4
2025-10-25T17:07	10	0	0.1	0	0	350	0.3	350	351	8.6	90.7
2025-10-25T17:08	10	0	0.1	0	0	350	0.2	350	351	8.5	90.9
2025-10-25T17:09	10	0	0.1	0	0	350	0.2	350	351	8.6	89.6
2025-10-25T17:10	10	0	0.1	0	0	350	0.2	350	351	8.6	90.0
2025-10-25T17:11	10	0	0.1	0	0	351	0.3	350	351	8.6	90.4
2025-10-25T17:12	10	0	0.0	0	0	351	0.3	350	351	8.6	90.0
2025-10-25T17:13	10	0	0.1	0	0	350	0.3	350	351	8.6	89.7
2025-10-25T17:14	10	0	0.1	0	0	350	0.2	350	351	8.6	89.7
2025-10-25T17:15	10	0	0.1	0	0	350	0.2	350	351	8.6	90.0
2025-10-25T17:16	10	0	0.1	0	0	351	0.3	350	351	8.5	90.5
2025-10-25T17:17	10	0	0.1	0	0	351	0.2	350	351	8.6	90.0
2025-10-25T17:18	10	0	0.1	0	0	350	0.2	350	351	8.5	90.1
2025-10-25T17:19	10	0	0.1	0	0	350	0.2	350	351	8.5	90.4
2025-10-25T17:20	10	0	0.1	0	0	350	0.2	350	351	8.5	89.9
2025-10-25T17:21	10	0	0.1	0	0	350	0.2	350	351	8.6	89.2
2025-10-25T17:22	10	0	0.1	0	0	350	0.2	350	351	8.6	89.5
2025-10-25T17:23	10	0	0.1	0	0	350	0.2	350	351	8.6	89.2
2025-10-25T17:24	10	0	0.1	0	0	350	0.2	350	351	8.6	88.7
2025-10-25T17:25	10	0	0.1	0	0	350	0.2	350	351	8.5	89.8
2025-10-25T17:26	10	0	0.1	0	0	350	0.2	350	351	8.5	89.4
2025-10-25T17:27	10	0	0.1	0	0	350	0.3	349	351	8.5	89.6
2025-10-25T17:28	10	0	0.1	0	0	350	0.2	350	351	8.5	89.3
2025-10-25T17:29	10	0	0.1	0	0	350	0.2	350	350	8.5	88.8
2025-10-25T17:30	10	0	0.1	0	0	350	0.2	350	351	8.6	88.8
2025-10-25T17:31	10	0	0.1	0	0	350	0.2	350	351	8.6	88.3
2025-10-25T17:32	10	0	0.1	0	0	350	0.2	350	351	8.6	88.2
2025-10-25T17:33	10	0	0.1	0	0	350	0.3	350	351	8.6	87.3
2025-10-25T17:34	10	0	0.1	0	0	350	0.2	350	350	8.6	87.5
2025-10-25T17:35	10	0	0.1	0	0	350	0.2	350	350	8.6	87.3
2025-10-25T17:36	10	0	0.1	0	0	350	0.2	349	351	8.6	87.5
2025-10-25T17:37	10	0	0.0	0	0	350	0.2	349	350	8.5	88.5
2025-10-25T17:38	10	0	0.1	0	0	350	0.3	349	351	8.5	87.6
2025-10-25T17:39	10	0	0.1	0	0	350	0.2	349	350	8.6	86.7
2025-10-25T17:40	10	0	0.1	0	0	350	0.3	349	350	8.6	86.3
2025-10-25T17:41	10	0	0.1	0	0	350	0.2	350	350	8.7	85.2
2025-10-25T17:42	10	0	0.1	0	0	350	0.2	349	350	8.6	86.5
2025-10-25T17:43	10	0	0.1	0	0	350	0.2	349	350	8.7	85.6
2025-10-25T17:44	10	0	0.1	0	0	350	0.2	350	350	8.6	86.3
2025-10-25T17:45	10	0	0.1	0	0	350	0.2	349	350	8.6	86.9
2025-10-25T17:46	10	0	0.1	0	0	350	0.3	349	350	8.6	86.7
2025-10-25T17:47	10	0	0.1	0	0	350	0.2	349	350	8.6	86.0
2025-10-25T17:48	10	0	0.1	0	0	350	0.2	349	350	8.6	86.0
2025-10-25T17:49	10	0	0.1	0	0	350	0.2	350	350	8.6	86.3
2025-10-25T17:50	10	0	0.1	0	0	350	0.2	350	350	8.6	86.6
2025-10-25T17:51	10	0	0.1	0	0	350	0.2	349	350	8.6	86.7
2025-10-25T17:52	10	0	0.1	0	0	350	0.2	349	350	8.6	87.2
2025-10-25T17:53	10	0	0.1	0	0	350	0.2	350	350	8.5	87.4
2025-10-25T17:54	10	0	0.1	0	0	350	0.2	349	350	8.5	87.4
2025-10-25T17:55	10	0	0.1	0	0	350	0.2	349	350	8.6	86.6
2025-10-25T17:56	10	0	0.1	-1	0	350	0.2	350	350	8.6	87.1
2025-10-25T17:57	10	0	0.1	0	0	350	0.2	349	350	8.6	86.7
2025-10-25T17:58	10	0	0.1	-1	0	350	0.3	349	350	8.6	86.5
2025-10-25T17:59	10	0	0.1	0	0	350	0.2	349	350	8.6	86.6
2025-10-25T18:00	10	0	0.1	0	0	350	0.2	350	350	8.6	86.4
2025-10-25T18:01	10	0	0.1	0	0	350	0.2	349	350	8.7	85.8
2025-10-25T18:02	10	0	0.1	0	0	350	0.3	349	350	8.7	85.3
2025-10-25T18:03	10	0	0.1	0	0	350	0.2	349	350	8.7	85.1
2025-10-25T18:04	10	0	0.1	0	0	350	0.2	349	350	8.7	85.6
2025-10-25T18:05	10	0	0.1	0	0	350	0.2	349	350	8.7	85.2
2025-10-25T18:06	10	0	0.1	0	0	350	0.2	349	350	8.8	84.8
2025-10-25T18:07	10	0	0.1	0	0	349	0.3	349	350	8.7	85.7
2025-10-25T18:08	10	0	0.1	0	0	349	0.3	349	350	8.7	86.4
2025-10-25T18:09	10	0	0.1	0	0	349	0.2	349	349	8.7	86.5
2025-10-25T18:10	10	0	0.1	0	0	349	0.2	348	349	8.6	87.5
2025-10-25T18:11	10	0	0.1	0	0	349	0.2	348	349	8.5	87.7
2025-10-25T18:12	10	0	0.1	0	0	349	0.3	348	349	8.5	87.9
2025-10-25T18:13	10	0	0.1	0	0	349	0.2	348	349	8.6	87.2
2025-10-25T18:14	10	0	0.0	0	0	349	0.2	348	349	8.6	87.8
2025-10-25T18:15	10	0	0.1	0	0	349	0.2	349	349	8.6	87.6
2025-10-25T18:16	10	0	0.1	0	0	349	0.3	348	349	8.6	87.7
2025-10-25T18:17	10	0	0.1	0	0	349	0.2	348	349	8.6	88.0
2025-10-25T18:18	10	0	0.1	0	0	349	0.2	348	349	8.6	87.5
2025-10-25T18:19	10	0	0.1	0	0	349	0.3	349	350	8.6	87.3
2025-10-25T18:20	10	0	0.0	0	0	349	0.2	349	349	8.6	87.6
2025-10-25T18:21	10	0	0.0	0	0	349	0.2	349	350	8.7	86.8
2025-10-25T18:22	10	0	0.1	0	0	349	0.3	348	350	8.7	87.1
2025-10-25T18:23	10	0	0.1	0	0	349	0.3	348	349	8.6	87.5
2025-10-25T18:24	10	0	0.1	0	0	349	0.3	348	349	8.6	87.8
2025-10-25T18:25	10	0	0.1	0	0	349	0.3	348	349	8.6	88.0
2025-10-25T18:26	10	0	0.1	0	0	349	0.2	348	349	8.5	88.6
2025-10-25T18:27	10	0	0.1	0	0	348	0.3	347	348	8.5	89.0
2025-10-25T18:28	10	0	0.1	0	0	348	0.2	348	349	8.5	88.8
2025-10-25T18:29	10	0	0.1	0	0	348	0.2	348	349	8.6	88.4
2025-10-25T18:30	10	0	0.1	0	0	348	0.3	348	349	8.6	88.4
2025-10-25T18:31	10	0	0.1	0	0	348	0.2	348	349	8.6	88.2
2025-10-25T18:32	10	0	0.1	0	0	348	0.3	348	349	8.6	88.6
2025-10-25T18:33	10	0	0.0	0	0	348	0.2	348	349	8.6	88.5
2025-10-25T18:34	10	0	0.1	0	0	348	0.2	348	349	8.5	88.8
2025-10-25T18:35	10	0	0.1	0	0	348	0.3	347	348	8.5	89.2
2025-10-25T18:36	10	0	0.1	0	0	348	0.3	347	349	8.4	89.9
2025-10-25T18:37	10	0	0.1	0	0	348	0.2	348	348	8.4	89.9
2025-10-25T18:38	10	0	0.1	0	0	348	0.2	347	348	8.4	90.5
2025-10-25T18:39	10	0	0.1	0	0	348	0.2	348	349	8.3	91.1
2025-10-25T18:40	10	0	0.1	0	0	348	0.2	348	349	8.3	91.1
2025-10-25T18:41	10	0	0.0	0	0	348	0.2	348	349	8.3	91.2
2025-10-25T18:42	10	0	0.1	0	0	348	0.2	348	349	8.3	91.7
2025-10-25T18:43	10	0	0.1	0	0	349	0.2	348	349	8.3	91.9
2025-10-25T18:44	10	0	0.1	0	0	349	0.2	348	349	8.2	92.2
2025-10-25T18:45	10	0	0.1	0	0	349	0.2	349	349	8.2	92.4
2025-10-25T18:46	10	0	0.1	0	0	349	0.3	349	350	8.2	90.9
2025-10-25T18:47	10	0	0.1	0	0	349	0.2	349	350	8.2	89.7
2025-10-25T18:48	10	0	0.1	0	0	349	0.2	349	350	8.2	92.4
2025-10-25T18:49	10	0	0.1	0	0	349	0.2	349	350	8.2	92.4
2025-10-25T18:50	10	0	0.1	0	0	349	0.3	349	350	8.2	92.4
2025-10-25T18:51	10	0	0.1	0	0	349	0.2	349	350	8.2	92.4
2025-10-25T18:52	10	0	0.1	0	0	349	0.3	349	350	8.2	92.4
2025-10-25T18:53	10	0	0.1	0	0	349	0.2	349	350	8.2	92.6
2025-10-25T18:54	10	0	0.1	0	0	349	0.3	349	350	8.2	92.6
2025-10-25T18:55	10	0	0.1	0	0	349	0.3	349	350	8.3	92.8
2025-10-25T18:56	10	0	0.1	0	0	349	0.3	349	350	8.3	92.7
2025-10-25T18:57	10	0	0.1	0	0	349	0.2	349	350	8.3	93.1
2025-10-25T18:58	10	0	0.1	0	0	349	0.2	349	350	8.3	93.1
2025-10-25T18:59	10	0	0.1	0	0	349	0.3	349	350	8.3	92.8
2025-10-25T19:00	10	0	0.1	0	0	349	0.2	349	350	8.3	93.0
2025-10-25T19:01	10	0	0.1	0	0	349	0.2	349	350	8.3	93.4
2025-10-25T19:02	10	0	0.0	0	0	350	0.2	349	350	8.4	92.8
2025-10-25T19:03	10	0	0.1	0	0	350	0.2	349	350	8.4	92.9
2025-10-25T19:04	10	0	0.1	0	0	350	0.2	349	350	8.4	93.0
2025-10-25T19:05	10	0	0.1	0	0	350	0.2	349	350	8.4	92.8
2025-10-25T19:06	10	0	0.1	0	0	350	0.2	349	350	8.4	92.4
2025-10-25T19:07	10	0	0.0	0	0	350	0.3	350	351	8.5	91.9
2025-10-25T19:08	10	0	0.1	0	0	350	0.2	350	351	8.5	92.1
2025-10-25T19:09	10	0	0.1	0	0	350	0.3	350	351	8.5	92.1
2025-10-25T19:10	10	0	0.1	0	0	350	0.2	350	351	8.6	91.7
2025-10-25T19:11	10	0	0.1	0	0	351	0.2	350	351	8.6	91.6
2025-10-25T19:12	10	0	0.0	0	0	351	0.2	350	351	8.6	91.7
2025-10-25T19:13	10	0	0.1	0	0	351	0.2	350	351	8.7	91.5
2025-10-25T19:14	10	0	0.1	0	0	351	0.2	350	351	8.7	91.3
2025-10-25T19:15	10	0	0.1	0	0	351	0.2	351	352	8.8	91.0
2025-10-25T19:16	10	0	0.1	0	0	351	0.2	351	352	8.8	91.0
2025-10-25T19:17	10	0	0.0	0	0	351	0.3	350	352	8.7	91.3
2025-10-25T19:18	10	0	0.1	0	0	351	0.3	350	352	8.7	91.6
2025-10-25T19:19	10	0	0.1	0	0	351	0.2	351	352	8.7	91.6
2025-10-25T19:20	10	0	0.1	0	0	351	0.2	351	352	8.7	91.7
2025-10-25T19:21	10	0	0.1	0	0	351	0.2	350	351	8.7	91.7
2025-10-25T19:22	10	0	0.1	0	0	351	0.2	351	351	8.7	91.8
2025-10-25T19:23	10	0	0.1	0	0	351	0.2	351	352	8.7	91.6
2025-10-25T19:24	10	0	0.1	0	0	351	0.2	351	351	8.7	91.7
2025-10-25T19:25	10	0	0.1	0	0	351	0.2	350	352	8.7	91.9
2025-10-25T19:26	10	0	0.1	0	0	351	0.2	351	352	8.7	91.8
2025-10-25T19:27	10	0	0.1	0	0	351	0.2	351	352	8.7	92.0
2025-10-25T19:28	10	0	0.1	0	0	351	0.3	350	351	8.7	91.9
2025-10-25T19:29	10	0	0.1	0	0	351	0.2	350	352	8.8	91.4
2025-10-25T19:30	10	0	0.0	0	0	351	0.2	351	351	8.8	91.5
2025-10-25T19:31	10	0	0.1	0	0	351	0.3	350	352	8.7	91.7
2025-10-25T19:32	10	0	0.1	0	0	351	0.2	351	351	8.7	92.1
2025-10-25T19:33	10	0	0.1	0	0	351	0.2	350	351	8.7	92.0
2025-10-25T19:34	10	0	0.1	0	0	351	0.3	351	352	8.8	91.7
2025-10-25T19:35	10	0	0.0	0	0	351	0.3	351	352	8.8	91.7
2025-10-25T19:36	10	0	0.1	0	0	351	0.3	350	351	8.7	91.9
2025-10-25T19:37	10	0	0.1	0	0	351	0.2	351	352	8.7	92.1
2025-10-25T19:38	10	0	0.1	0	0	351	0.2	351	352	8.8	92.0
2025-10-25T19:39	10	0	0.0	0	0	351	0.2	351	352	8.8	91.6
2025-10-25T19:40	10	0	0.1	0	0	351	0.3	351	352	8.8	91.7
2025-10-25T19:41	10	0	0.1	0	0	351	0.2	351	352	8.8	91.6
2025-10-25T19:42	10	0	0.0	0	0	351	0.2	351	352	8.8	91.3
2025-10-25T19:43	10	0	0.1	0	0	351	0.3	351	352	8.8	91.6
2025-10-25T19:44	10	0	0.1	0	0	351	0.2	351	352	8.8	91.8
2025-10-25T19:45	10	0	0.1	0	0	351	0.3	351	352	8.8	91.4
2025-10-25T19:46	10	0	0.1	0	0	351	0.3	350	352	8.8	91.8
2025-10-25T19:47	10	0	0.1	0	0	351	0.2	351	352	8.8	92.0
2025-10-25T19:48	10	0	0.1	0	0	351	0.2	351	352	8.8	91.9
2025-10-25T19:49	10	0	0.1	0	0	351	0.2	351	352	8.8	92.2
2025-10-25T19:50	10	0	0.1	0	0	351	0.2	351	352	8.8	92.4
2025-10-25T19:51	10	0	0.1	0	0	351	0.3	351	352	8.8	92.4
2025-10-25T19:52	10	0	0.0	0	0	351	0.2	351	352	8.8	92.5
2025-10-25T19:53	10	0	0.1	0	0	351	0.2	351	352	8.8	91.8
2025-10-25T19:54	10	0	0.1	0	0	352	0.2	351	352	8.8	91.9
2025-10-25T19:55	10	0	0.1	0	0	351	0.2	351	352	8.8	92.3
2025-10-25T19:56	10	0	0.1	0	0	351	0.2	351	352	8.8	92.8
2025-10-25T19:57	10	0	0.1	0	0	351	0.2	351	352	8.7	93.0
2025-10-25T19:58	10	0	0.1	0	0	351	0.2	351	352	8.7	92.6
2025-10-25T19:59	10	0	0.0	0	0	351	0.2	351	352	8.7	92.7
2025-10-25T20:00	10	0	0.1	0	0	351	0.2	350	351	8.7	92.9
2025-10-25T20:01	10	0	0.1	0	0	351	0.2	351	352	8.7	93.1
2025-10-25T20:02	10	0	0.1	0	0	351	0.2	351	352	8.7	93.3
2025-10-25T20:03	10	0	0.1	0	0	351	0.2	351	352	8.6	93.2
2025-10-25T20:04	10	0	0.1	0	0	351	0.2	350	351	8.6	93.2
2025-10-25T20:05	10	0	0.1	0	0	351	0.2	350	351	8.6	93.4
2025-10-25T20:06	10	0	0.1	0	0	351	0.2	350	351	8.6	93.9
2025-10-25T20:07	10	0	0.1	0	0	351	0.2	350	351	8.6	94.0
2025-10-25T20:08	10	0	0.1	0	0	351	0.2	350	351	8.6	94.2
2025-10-25T20:09	10	0	0.1	0	0	351	0.2	350	351	8.5	94.6
2025-10-25T20:10	10	0	0.1	0	0	351	0.2	350	351	8.5	94.4
2025-10-25T20:11	10	0	0.0	0	0	351	0.2	350	351	8.5	94.1
2025-10-25T20:12	10	0	0.0	0	0	351	0.2	350	351	8.5	94.3
2025-10-25T20:13	10	0	0.1	0	0	351	0.3	350	351	8.5	93.9
2025-10-25T20:14	10	0	0.1	0	0	351	0.2	350	351	8.5	93.5
2025-10-25T20:15	10	0	0.1	0	0	351	0.2	350	351	8.5	93.4
2025-10-25T20:16	10	0	0.1	0	0	351	0.2	350	352	8.5	93.3
2025-10-25T20:17	10	0	0.1	0	0	351	0.2	350	351	8.5	94.0
2025-10-25T20:18	10	0	0.1	0	0	351	0.2	350	351	8.5	94.2
2025-10-25T20:19	10	0	0.1	0	0	351	0.2	350	351	8.4	94.4
2025-10-25T20:20	10	0	0.1	0	0	351	0.2	350	351	8.4	94.8
2025-10-25T20:21	10	0	0.1	0	0	351	0.2	350	351	8.4	95.3
2025-10-25T20:22	10	0	0.1	0	0	350	0.2	350	351	8.4	95.5
2025-10-25T20:23	10	0	0.1	0	0	350	0.2	350	351	8.4	95.3
2025-10-25T20:24	10	0	0.1	0	0	350	0.3	350	351	8.4	95.4
2025-10-25T20:25	10	0	0.1	0	0	350	0.3	350	351	8.3	95.3
2025-10-25T20:26	10	0	0.1	0	0	350	0.2	350	351	8.3	95.9
2025-10-25T20:27	10	0	0.1	0	0	350	0.2	350	351	8.3	96.0
2025-10-25T20:28	10	0	0.1	0	0	350	0.2	350	351	8.2	96.3
2025-10-25T20:29	10	0	0.1	0	0	350	0.2	350	350	8.2	96.3
2025-10-25T20:30	10	0	0.0	0	0	350	0.2	350	350	8.2	96.2
2025-10-25T20:31	10	0	0.1	0	0	350	0.3	349	351	8.2	96.2
2025-10-25T20:32	10	0	0.1	0	0	350	0.2	349	350	8.2	96.4
2025-10-25T20:33	10	0	0.1	0	0	350	0.2	349	350	8.2	96.4
2025-10-25T20:34	10	0	0.1	0	0	350	0.3	350	351	8.2	96.7
2025-10-25T20:35	10	0	0.1	0	0	350	0.2	349	350	8.2	96.5
2025-10-25T20:36	10	0	0.1	0	0	350	0.2	349	350	8.1	96.9
2025-10-25T20:37	10	0	0.1	0	0	350	0.2	349	350	8.1	97.1
2025-10-25T20:38	10	0	0.1	0	0	350	0.2	349	350	8.1	96.7
2025-10-25T20:39	10	0	0.1	0	0	349	0.2	349	350	8.1	96.8
2025-10-25T20:40	10	0	0.1	-1	0	349	0.2	349	350	8.1	96.7
2025-10-25T20:41	10	0	0.1	0	0	349	0.2	349	350	8.1	97.0
2025-10-25T20:42	10	0	0.1	0	0	349	0.2	349	350	8.1	96.7
2025-10-25T20:43	10	0	0.1	0	0	349	0.2	349	350	8.1	96.7
2025-10-25T20:44	10	0	0.1	0	0	349	0.2	349	350	8.1	96.4
2025-10-25T20:45	10	0	0.1	-1	0	349	0.2	349	350	8.2	95.8
2025-10-25T20:46	10	0	0.1	0	0	349	0.2	349	350	8.3	95.5
2025-10-25T20:47	10	0	0.1	-1	0	349	0.2	349	350	8.2	95.3
2025-10-25T20:48	10	0	0.1	-1	0	349	0.2	349	350	8.2	95.6
2025-10-25T20:49	10	0	0.1	-1	0	349	0.2	349	350	8.3	94.6
2025-10-25T20:50	10	0	0.1	-1	0	349	0.3	349	350	8.3	95.1
2025-10-25T20:51	10	0	0.1	-1	0	350	0.2	349	350	8.4	93.5
2025-10-25T20:52	10	0	0.1	-1	0	349	0.2	349	350	8.4	94.0
2025-10-25T20:53	10	0	0.1	0	0	349	0.3	349	350	8.4	94.2
2025-10-25T20:54	10	0	0.1	0	0	349	0.2	349	350	8.5	93.6
2025-10-25T20:55	10	0	0.1	0	0	349	0.3	349	350	8.4	93.8
2025-10-25T20:56	10	0	0.1	0	0	349	0.3	349	350	8.5	93.1
2025-10-25T20:57	10	0	0.1	0	0	349	0.3	348	349	8.5	93.7
2025-10-25T20:58	10	0	0.1	0	0	349	0.2	348	349	8.4	94.1
2025-10-25T20:59	10	0	0.1	0	0	349	0.3	348	349	8.4	94.0
2025-10-25T21:00	10	0	0.1	0	0	349	0.2	348	349	8.4	93.9
2025-10-25T21:01	10	0	0.1	0	0	349	0.3	348	349	8.5	93.5
2025-10-25T21:02	10	0	0.1	0	0	349	0.2	348	349	8.5	93.0
2025-10-25T21:03	10	0	0.1	0	0	348	0.3	347	349	8.5	93.0
2025-10-25T21:04	10	0	0.1	0	0	348	0.2	348	349	8.5	93.0
2025-10-25T21:05	10	0	0.1	0	0	348	0.2	347	348	8.5	93.4
2025-10-25T21:06	10	0	0.0	0	0	348	0.2	347	348	8.4	93.4
2025-10-25T21:07	10	0	0.1	0	0	348	0.2	347	349	8.4	93.4
2025-10-25T21:08	10	0	0.1	0	0	348	0.3	347	349	8.4	93.5
2025-10-25T21:09	10	0	0.1	0	0	348	0.3	347	348	8.5	92.7
2025-10-25T21:10	10	0	0.1	0	0	348	0.2	348	349	8.4	93.0
2025-10-25T21:11	10	0	0.1	0	0	349	0.3	348	349	8.5	92.4
2025-10-25T21:12	10	0	0.1	0	0	349	0.3	348	349	8.4	92.8
2025-10-25T21:13	10	0	0.1	0	0	349	0.3	349	350	8.5	92.1
2025-10-25T21:14	10	0	0.1	0	0	349	0.2	349	350	8.5	91.6
2025-10-25T21:15	10	0	0.1	0	0	350	0.3	349	350	8.5	91.6
2025-10-25T21:16	10	0	0.1	0	0	349	0.2	349	350	8.4	92.1
2025-10-25T21:17	10	0	0.1	0	0	349	0.2	349	350	8.4	92.8
2025-10-25T21:18	10	0	0.1	0	0	349	0.2	349	350	8.4	93.2
2025-10-25T21:19	10	0	0.1	0	0	350	0.3	349	350	8.4	93.1
2025-10-25T21:20	10	0	0.1	0	0	350	0.2	349	350	8.4	93.2
2025-10-25T21:21	10	0	0.1	0	0	350	0.2	349	350	8.4	93.2
2025-10-25T21:22	10	0	0.1	0	0	350	0.2	349	350	8.3	93.7
2025-10-25T21:23	10	0	0.1	0	0	350	0.2	349	350	8.3	93.8
2025-10-25T21:24	10	0	0.1	0	0	350	0.2	349	350	8.4	92.9
2025-10-25T21:25	10	0	0.1	0	0	350	0.2	349	350	8.4	92.9
2025-10-25T21:26	10	0	0.1	0	0	350	0.2	349	350	8.4	93.2
2025-10-25T21:27	10	0	0.1	0	0	350	0.3	349	350	8.4	93.0
2025-10-25T21:28	10	0	0.1	0	0	350	0.2	349	350	8.4	93.1
2025-10-25T21:29	10	0	0.0	0	0	350	0.2	349	350	8.4	93.2
2025-10-25T21:30	10	0	0.1	0	0	350	0.3	349	351	8.5	92.7
2025-10-25T21:31	10	0	0.1	0	0	350	0.3	349	350	8.5	92.5
2025-10-25T21:32	10	0	0.1	0	0	350	0.3	349	350	8.4	93.2
2025-10-25T21:33	10	0	0.1	0	0	350	0.2	349	350	8.4	93.3
2025-10-25T21:34	10	0	0.1	0	0	350	0.2	349	350	8.4	93.6
2025-10-25T21:35	10	0	0.1	0	0	350	0.2	349	350	8.4	93.4
2025-10-25T21:36	10	0	0.1	0	0	350	0.2	349	350	8.5	93.1
2025-10-25T21:37	10	0	0.1	0	0	350	0.2	349	350	8.4	93.5
2025-10-25T21:38	10	0	0.1	0	0	350	0.2	350	351	8.5	92.6
2025-10-25T21:39	10	0	0.1	0	0	350	0.3	350	351	8.7	91.0
2025-10-25T21:40	10	0	0.1	0	0	350	0.3	350	351	8.8	89.3
2025-10-25T21:41	10	0	0.1	-1	0	350	0.2	350	351	8.9	88.3
2025-10-25T21:42	10	-1	0.1	-1	0	350	0.2	350	351	8.9	87.2
2025-10-25T21:43	10	-1	0.1	-1	0	350	0.2	350	351	8.9	87.9
2025-10-25T21:44	10	-1	0.1	-1	0	350	0.2	350	351	8.9	87.3
2025-10-25T21:45	10	-1	0.1	-1	0	350	0.2	350	351	9.0	85.6
2025-10-25T21:46	10	-1	0.1	-1	0	350	0.3	350	351	8.9	86.7
2025-10-25T21:47	10	-1	0.1	-1	-1	350	0.3	350	351	8.9	86.4
2025-10-25T21:48	10	-1	0.1	-1	0	350	0.2	350	351	9.0	85.9
2025-10-25T21:49	10	-1	0.1	-1	-1	350	0.3	349	350	8.9	86.4
2025-10-25T21:50	10	-1	0.1	-1	0	350	0.2	349	350	8.8	87.5
2025-10-25T21:51	10	-1	0.1	-1	0	350	0.3	350	351	8.8	86.5
2025-10-25T21:52	10	0	0.1	-1	0	350	0.2	350	351	8.8	88.0
2025-10-25T21:53	10	0	0.1	-1	0	350	0.2	350	351	8.8	87.1
2025-10-25T21:54	10	0	0.1	0	0	351	0.3	350	351	8.9	86.1
2025-10-25T21:55	10	0	0.1	-1	0	350	0.3	350	351	9.0	85.8
2025-10-25T21:56	10	0	0.1	0	0	350	0.2	350	351	8.8	88.0
2025-10-25T21:57	10	0	0.1	0	0	350	0.2	350	351	8.8	88.4
2025-10-25T21:58	10	0	0.1	0	0	350	0.3	349	351	8.8	88.6
2025-10-25T21:59	10	0	0.1	0	0	350	0.2	350	351	8.9	87.3
2025-10-25T22:00	10	0	0.1	0	0	350	0.2	349	350	8.8	88.7
2025-10-25T22:01	10	0	0.1	0	0	350	0.3	349	350	8.8	89.1
2025-10-25T22:02	10	0	0.1	0	0	350	0.2	349	350	8.7	89.8
2025-10-25T22:03	10	0	0.1	0	0	349	0.3	349	350	8.8	89.6
2025-10-25T22:04	10	0	0.1	0	0	350	0.3	349	350	8.8	89.4
2025-10-25T22:05	10	0	0.1	0	0	350	0.2	349	350	8.8	89.9
2025-10-25T22:06	10	0	0.1	0	0	350	0.2	349	350	8.7	90.1
2025-10-25T22:07	10	0	0.1	0	0	350	0.2	349	350	8.7	89.9
2025-10-25T22:08	10	0	0.1	0	0	350	0.2	350	351	8.7	90.0
2025-10-25T22:09	10	0	0.1	0	0	350	0.2	350	351	8.8	88.9
2025-10-25T22:10	10	0	0.1	0	0	350	0.3	350	351	8.8	90.2
2025-10-25T22:11	10	0	0.1	0	0	350	0.2	350	350	8.7	91.2
2025-10-25T22:12	10	0	0.1	0	0	350	0.2	350	351	8.7	91.4
2025-10-25T22:13	10	0	0.1	0	0	351	0.3	350	351	8.7	90.6
2025-10-25T22:14	10	0	0.1	0	0	351	0.2	350	351	8.9	89.6
2025-10-25T22:15	10	0	0.1	0	0	351	0.3	350	352	8.8	90.3
2025-10-25T22:16	10	0	0.1	0	0	351	0.2	350	351	8.8	91.0
2025-10-25T22:17	10	0	0.1	0	0	351	0.2	350	351	8.7	91.5
2025-10-25T22:18	10	0	0.1	0	0	351	0.2	350	351	8.7	91.6
2025-10-25T22:19	10	0	0.0	0	0	350	0.2	350	351	8.7	91.8
2025-10-25T22:20	10	0	0.1	0	0	351	0.3	350	351	8.7	92.2
2025-10-25T22:21	10	0	0.0	0	0	351	0.2	350	351	8.6	92.4
2025-10-25T22:22	10	0	0.1	0	0	351	0.3	350	351	8.6	93.0
2025-10-25T22:23	10	0	0.5	0	3	351	0.2	350	351	8.6	93.0
2025-10-25T22:24	10	0	0.1	0	0	351	0.2	350	351	8.6	92.9
2025-10-25T22:25	10	0	0.1	0	0	350	0.2	350	351	8.6	92.6
2025-10-25T22:26	10	0	0.1	0	0	351	0.2	350	351	8.6	93.0
2025-10-25T22:27	10	0	0.1	0	0	351	0.3	350	351	8.6	93.0
2025-10-25T22:28	10	0	0.1	0	0	351	0.2	350	351	8.6	92.4
2025-10-25T22:29	10	0	0.1	0	0	351	0.3	350	351	8.7	92.4
2025-10-25T22:30	10	0	0.1	0	0	351	0.2	350	351	8.6	92.9
2025-10-25T22:31	10	0	0.1	0	0	350	0.2	350	351	8.6	92.3
2025-10-25T22:32	10	0	0.4	0	3	351	0.3	350	352	8.8	90.9
2025-10-25T22:33	10	0	0.1	0	0	351	0.2	350	351	8.9	90.4
2025-10-25T22:34	10	0	0.1	0	0	351	0.2	350	351	8.8	90.9
2025-10-25T22:35	10	0	0.1	0	0	351	0.3	350	351	8.8	91.1
2025-10-25T22:36	10	0	0.1	0	0	351	0.2	350	351	8.7	92.5
2025-10-25T22:37	10	0	0.1	0	0	351	0.3	350	352	8.8	89.6
2025-10-25T22:38	10	0	0.1	0	0	351	0.2	350	351	9.0	86.9
2025-10-25T22:39	10	0	0.1	0	0	351	0.2	350	351	9.0	86.7
2025-10-25T22:40	10	0	0.1	0	0	351	0.3	350	351	9.0	86.4
2025-10-25T22:41	10	0	0.1	0	0	351	0.2	351	351	9.1	85.5
2025-10-25T22:42	10	0	0.1	-1	0	351	0.2	350	351	9.1	85.9
2025-10-25T22:43	10	0	0.1	0	0	351	0.2	350	351	9.1	85.8
2025-10-25T22:44	10	0	0.1	0	0	351	0.3	350	351	9.1	85.3
2025-10-25T22:45	10	0	0.1	0	0	351	0.2	350	351	9.2	83.3
2025-10-25T22:46	10	0	0.1	0	0	351	0.2	350	351	9.1	83.9
2025-10-25T22:47	10	0	0.1	0	0	351	0.2	350	351	9.1	84.1
2025-10-25T22:48	10	0	0.1	0	0	351	0.2	350	351	9.1	84.7
2025-10-25T22:49	10	0	0.1	-1	0	351	0.3	350	351	9.1	84.6
2025-10-25T22:50	10	0	0.1	-1	0	350	0.3	350	351	9.0	84.5
2025-10-25T22:51	10	0	0.1	-1	0	350	0.2	350	351	9.0	84.5
2025-10-25T22:52	10	0	0.1	-1	0	350	0.2	350	351	9.0	83.7
2025-10-25T22:53	10	0	0.1	-1	0	350	0.3	349	351	9.0	83.7
2025-10-25T22:54	10	0	0.1	-1	0	350	0.2	350	351	9.1	82.6
2025-10-25T22:55	10	0	0.1	-1	0	350	0.2	350	350	9.0	83.0
2025-10-25T22:56	10	0	0.1	-1	0	350	0.2	349	350	8.9	83.8
2025-10-25T22:57	10	0	0.1	-1	0	350	0.2	349	350	8.9	83.9
2025-10-25T22:58	10	0	0.1	-1	0	349	0.2	349	350	8.8	84.3
2025-10-25T22:59	10	0	0.1	0	0	349	0.2	349	350	8.8	83.9
2025-10-25T23:00	10	0	0.1	0	0	349	0.3	348	350	8.8	82.8
2025-10-25T23:01	10	0	0.1	0	0	349	0.3	348	350	8.8	81.4
2025-10-25T23:02	10	0	0.1	0	0	349	0.2	348	349	8.8	82.8
2025-10-25T23:03	10	0	0.0	0	0	349	0.3	348	349	8.7	83.2
2025-10-25T23:04	10	0	0.1	0	0	348	0.2	348	349	8.6	83.9
2025-10-25T23:05	10	0	0.1	0	0	348	0.3	348	349	8.7	83.2
2025-10-25T23:06	10	0	0.1	0	0	348	0.3	348	349	8.6	84.3
2025-10-25T23:07	10	0	0.1	0	0	348	0.3	347	348	8.5	85.4
2025-10-25T23:08	10	0	0.1	0	0	347	0.2	347	348	8.5	86.4
2025-10-25T23:09	10	0	0.1	0	0	347	0.3	346	348	8.4	87.6
2025-10-25T23:10	10	0	0.1	0	0	347	0.3	347	348	8.5	86.9
2025-10-25T23:11	10	0	0.1	-1	0	348	0.2	347	348	8.5	86.5
2025-10-25T23:12	10	0	0.1	0	0	347	0.2	346	348	8.4	87.7
2025-10-25T23:13	10	0	0.1	0	0	347	0.3	346	347	8.4	87.8
2025-10-25T23:14	10	0	0.1	0	0	346	0.2	346	347	8.3	88.2
2025-10-25T23:15	10	0	0.1	0	0	346	0.3	345	346	8.3	88.0
2025-10-25T23:16	10	0	0.1	0	0	345	0.3	344	346	8.3	88.1
2025-10-25T23:17	10	0	0.1	0	0	344	0.3	344	345	8.2	87.6
2025-10-25T23:18	10	0	0.1	0	0	344	0.3	343	344	8.2	86.8
2025-10-25T23:19	10	0	0.1	0	0	343	0.3	342	344	8.2	87.1
2025-10-25T23:20	10	0	0.1	0	0	343	0.2	342	343	8.1	86.8
2025-10-25T23:21	10	0	0.1	0	0	343	0.2	342	343	8.1	87.0
2025-10-25T23:22	10	0	0.1	0	0	343	0.2	342	343	8.0	86.8
2025-10-25T23:23	10	0	0.1	0	0	343	0.3	342	343	8.1	85.6
2025-10-25T23:24	10	0	0.1	-1	0	343	0.3	342	343	8.1	85.0
2025-10-25T23:25	10	0	0.1	0	0	342	0.2	342	343	8.0	85.6
2025-10-25T23:26	10	0	0.1	-1	0	342	0.3	342	343	8.1	85.0
2025-10-25T23:27	10	0	0.1	-1	0	342	0.3	341	343	8.0	85.4
2025-10-25T23:28	10	0	0.1	-1	0	341	0.2	340	342	7.9	86.2
2025-10-25T23:29	10	0	0.1	-1	0	341	0.3	340	342	7.9	86.1
2025-10-25T23:30	10	0	0.1	-1	0	341	0.2	341	342	8.1	85.1
2025-10-25T23:31	10	0	0.1	-1	0	341	0.2	341	342	8.1	85.2
2025-10-25T23:32	10	0	0.1	0	0	341	0.3	340	341	8.0	86.0
2025-10-25T23:33	10	0	0.1	0	0	341	0.3	340	341	7.9	86.2
2025-10-25T23:34	10	0	0.1	0	0	340	0.4	340	341	7.9	86.8
2025-10-25T23:35	10	0	0.1	0	0	340	0.3	340	341	7.9	86.8
2025-10-25T23:36	10	0	0.1	0	0	340	0.3	339	341	7.9	86.2
2025-10-25T23:37	10	0	0.1	0	0	341	0.4	340	342	8.0	85.0
2025-10-25T23:38	10	0	0.1	0	0	341	0.3	340	342	8.0	85.5
2025-10-25T23:39	10	0	0.1	-1	0	341	0.3	340	341	8.0	85.4
2025-10-25T23:40	10	0	0.1	-1	0	340	0.2	339	340	7.9	85.8
2025-10-25T23:41	10	0	0.1	0	0	340	0.2	339	340	7.9	86.3
2025-10-25T23:42	10	0	0.1	0	0	339	0.2	339	340	7.8	86.6
2025-10-25T23:43	10	0	0.1	0	0	339	0.2	339	340	7.8	86.6
2025-10-25T23:44	10	0	0.1	0	0	339	0.3	339	340	8.0	84.8
2025-10-25T23:45	10	0	0.1	0	0	340	0.3	339	340	8.0	84.5
2025-10-25T23:46	10	0	0.1	0	0	339	0.3	339	340	8.0	84.4
2025-10-25T23:47	10	0	0.1	0	0	339	0.2	339	340	8.1	83.8
2025-10-25T23:48	10	0	0.1	0	0	339	0.3	338	339	8.1	83.2
2025-10-25T23:49	10	0	0.1	0	0	339	0.3	338	339	8.2	82.5
2025-10-25T23:50	10	0	0.1	0	0	338	0.4	337	339	8.1	83.1
2025-10-25T23:51	10	0	0.1	0	0	338	0.3	337	339	8.1	83.3
2025-10-25T23:52	10	0	0.1	0	0	338	0.3	338	339	8.1	83.5
2025-10-25T23:53	10	0	0.1	0	0	337	0.2	337	338	8.1	83.6
2025-10-25T23:54	10	0	0.1	0	0	338	0.3	338	339	8.2	82.0
2025-10-25T23:55	10	0	0.1	0	0	337	0.3	337	338	8.1	83.6
2025-10-25T23:56	10	0	0.1	0	0	337	0.3	336	338	8.1	83.7
2025-10-25T23:57	10	0	0.1	0	0	337	0.3	336	338	8.1	84.5
2025-10-25T23:58	10	0	0.1	0	0	337	0.4	337	339	8.0	84.9
2025-10-25T23:59	10	0	0.1	0	0	339	0.3	338	339	8.2	84.3
2025-10-26T00:00	10	0	0.1	0	0	339	0.4	338	340	8.3	84.5
2025-10-26T00:01	10	0	0.1	0	0	339	0.3	338	339	8.2	85.0
2025-10-26T00:02	10	0	0.1	0	0	338	0.3	338	339	8.1	85.7
2025-10-26T00:03	10	0	0.1	0	0	338	0.3	337	338	8.1	86.1
2025-10-26T00:04	10	0	0.1	0	0	338	0.3	337	339	8.1	86.2
2025-10-26T00:05	10	0	0.1	0	0	338	0.3	337	338	8.1	86.5
2025-10-26T00:06	10	0	0.1	0	0	338	0.2	337	338	8.0	87.2
2025-10-26T00:07	10	0	0.1	-1	0	338	0.3	337	339	8.0	87.7
2025-10-26T00:08	10	0	0.1	0	0	338	0.3	337	339	8.1	87.7
2025-10-26T00:09	10	0	0.1	-1	0	339	0.5	338	339	8.0	88.1
2025-10-26T00:10	10	0	0.1	0	0	339	0.3	338	339	8.0	88.3
2025-10-26T00:11	10	0	0.1	0	0	338	0.2	338	339	8.0	88.6
2025-10-26T00:12	10	0	0.1	0	0	339	0.3	338	340	8.0	88.7
2025-10-26T00:13	10	0	0.1	0	0	339	0.3	338	339	8.0	89.0
2025-10-26T00:14	10	0	0.1	0	0	338	0.2	338	339	8.0	89.3
2025-10-26T00:15	10	0	0.1	0	0	338	0.2	337	338	7.9	89.5
2025-10-26T00:16	10	0	0.1	0	0	338	0.4	338	339	8.0	89.6
2025-10-26T00:17	10	0	0.1	0	0	339	0.4	339	340	8.1	89.4
2025-10-26T00:18	10	0	0.1	0	0	340	0.4	339	340	8.0	89.6
2025-10-26T00:19	10	0	0.1	0	0	339	0.2	339	340	8.0	89.8
2025-10-26T00:20	10	0	0.1	0	0	340	0.4	339	340	8.0	89.5
2025-10-26T00:21	10	0	0.1	0	0	340	0.4	340	341	8.0	89.3
2025-10-26T00:22	10	0	0.1	0	0	341	0.3	340	341	8.1	89.1
2025-10-26T00:23	10	0	0.1	0	0	341	0.2	341	341	8.1	88.6
2025-10-26T00:24	10	0	0.1	-1	0	341	0.2	340	341	7.9	89.3
2025-10-26T00:25	10	0	0.1	0	0	341	0.2	340	341	8.0	89.2
2025-10-26T00:26	10	0	0.1	0	0	341	0.2	340	341	8.0	89.0
2025-10-26T00:27	10	0	0.1	0	0	340	0.3	339	341	7.9	89.2
2025-10-26T00:28	10	0	0.1	0	0	341	0.4	340	342	7.9	88.9
2025-10-26T00:29	10	0	0.1	0	0	341	0.3	341	342	8.0	87.8
2025-10-26T00:30	10	0	0.1	0	0	342	0.3	341	342	8.1	87.5
2025-10-26T00:31	10	0	0.1	0	0	342	0.2	341	342	8.1	87.1
2025-10-26T00:32	10	0	0.1	-1	0	341	0.2	341	342	8.1	87.5
2025-10-26T00:33	10	0	0.1	0	0	341	0.2	341	342	8.0	88.0
2025-10-26T00:34	10	0	0.1	0	0	342	0.3	341	342	8.0	87.8
2025-10-26T00:35	10	0	0.1	0	0	342	0.3	341	342	8.0	87.7
2025-10-26T00:36	10	0	0.1	0	0	342	0.3	341	342	8.0	87.8
2025-10-26T00:37	10	0	0.1	0	0	342	0.3	341	343	8.1	86.9
2025-10-26T00:38	10	0	0.1	0	0	342	0.2	342	343	8.2	86.6
2025-10-26T00:39	10	0	0.1	0	0	343	0.3	342	343	8.1	86.9
2025-10-26T00:40	10	0	0.1	0	0	343	0.2	342	343	8.1	87.7
2025-10-26T00:41	10	0	0.1	0	0	342	0.3	342	343	8.0	87.9
2025-10-26T00:42	10	0	0.1	0	0	342	0.2	341	342	8.0	88.7
2025-10-26T00:43	10	0	0.1	0	0	342	0.2	342	342	7.9	88.8
2025-10-26T00:44	10	0	0.1	0	0	342	0.3	341	343	7.9	88.9
2025-10-26T00:45	10	0	0.1	0	0	342	0.2	341	342	7.9	88.7
2025-10-26T00:46	10	0	0.1	0	0	341	0.2	341	342	7.8	89.4
2025-10-26T00:47	10	0	0.1	0	0	341	0.3	341	342	7.8	89.4
2025-10-26T00:48	10	0	0.1	0	0	342	0.3	341	342	7.8	89.3
2025-10-26T00:49	10	0	0.1	-1	0	342	0.2	341	342	7.7	89.2
2025-10-26T00:50	10	0	0.1	0	0	341	0.3	341	342	7.7	89.3
2025-10-26T00:51	10	0	0.1	0	0	341	0.3	341	342	7.6	89.8
2025-10-26T00:52	10	0	0.1	0	0	341	0.2	341	341	7.6	90.0
2025-10-26T00:53	10	0	0.1	0	0	341	0.3	340	341	7.6	90.2
2025-10-26T00:54	10	0	0.1	0	0	341	0.3	340	341	7.5	90.6
2025-10-26T00:55	10	0	0.1	0	0	340	0.3	340	341	7.5	90.1
2025-10-26T00:56	10	0	0.1	0	0	341	0.2	340	341	7.6	89.0
2025-10-26T00:57	10	0	0.1	0	0	341	0.3	340	341	7.6	88.6
2025-10-26T00:58	10	0	0.1	0	0	341	0.2	340	341	7.6	88.4
2025-10-26T00:59	10	0	0.1	0	0	340	0.2	340	341	7.6	88.2
2025-10-26T01:00	10	0	0.1	0	0	340	0.2	340	341	7.7	87.7
2025-10-26T01:01	10	0	0.1	0	0	340	0.2	340	341	7.6	88.2
2025-10-26T01:02	10	0	0.1	0	0	340	0.2	340	341	7.6	88.3
2025-10-26T01:03	10	0	0.1	0	0	340	0.2	339	341	7.6	88.3
2025-10-26T01:04	10	0	0.1	0	0	340	0.3	339	340	7.6	88.4
2025-10-26T01:05	10	0	0.1	0	0	340	0.2	340	340	7.6	88.4
2025-10-26T01:06	10	0	0.1	0	0	340	0.3	339	340	7.5	88.8
2025-10-26T01:07	10	0	0.1	0	0	340	0.2	339	340	7.5	89.2
2025-10-26T01:08	10	0	0.1	0	0	340	0.3	339	340	7.5	88.9
2025-10-26T01:09	10	0	0.1	0	0	340	0.3	339	340	7.6	88.8
2025-10-26T01:10	10	0	0.1	0	0	340	0.2	339	340	7.5	89.1
2025-10-26T01:11	10	0	0.1	0	0	340	0.2	339	340	7.5	88.9
2025-10-26T01:12	10	0	0.1	0	0	340	0.2	339	340	7.6	88.7
2025-10-26T01:13	10	0	0.1	0	0	340	0.3	340	341	7.6	88.7
2025-10-26T01:14	10	0	0.1	0	0	341	0.3	340	341	7.6	88.8
2025-10-26T01:15	10	0	0.1	0	0	341	0.3	340	341	7.5	88.9
2025-10-26T01:16	10	0	0.1	0	0	341	0.2	341	342	7.6	88.8
2025-10-26T01:17	10	0	0.1	0	0	341	0.2	341	342	7.5	89.0
2025-10-26T01:18	10	0	0.1	0	0	342	0.3	341	343	7.6	88.7
2025-10-26T01:19	10	0	0.1	0	0	342	0.3	341	342	7.6	88.8
2025-10-26T01:20	10	0	0.0	0	0	342	0.2	341	342	7.5	88.7
2025-10-26T01:21	10	0	0.1	0	0	342	0.3	341	343	7.6	88.1
2025-10-26T01:22	10	0	0.1	0	0	342	0.2	342	342	7.6	88.0
2025-10-26T01:23	10	0	0.1	0	0	342	0.2	342	343	7.6	87.7
2025-10-26T01:24	10	0	0.1	0	0	342	0.3	342	343	7.6	87.6
2025-10-26T01:25	10	0	0.1	0	0	343	0.2	342	343	7.6	87.8
2025-10-26T01:26	10	0	0.1	0	0	343	0.2	342	343	7.5	88.2
2025-10-26T01:27	10	0	0.1	0	0	342	0.2	342	343	7.5	88.5
2025-10-26T01:28	10	0	0.1	0	0	343	0.2	342	343	7.6	86.9
2025-10-26T01:29	10	0	0.0	0	0	343	0.3	343	344	7.7	86.0
2025-10-26T01:30	10	0	0.1	0	0	343	0.3	343	344	7.7	85.5
2025-10-26T01:31	10	0	0.1	0	0	344	0.3	343	344	7.7	84.9
2025-10-26T01:32	10	0	0.1	0	0	344	0.2	343	344	7.7	84.8
2025-10-26T01:33	10	0	0.1	0	0	344	0.3	343	344	7.7	85.8
2025-10-26T01:34	10	0	0.1	0	0	344	0.2	343	344	7.6	86.1
2025-10-26T01:35	10	0	0.1	0	0	344	0.2	343	344	7.5	87.3
2025-10-26T01:36	10	0	0.1	0	0	344	0.2	343	344	7.6	86.8
2025-10-26T01:37	10	0	0.0	0	0	344	0.2	343	344	7.6	87.2
2025-10-26T01:38	10	0	0.1	0	0	344	0.3	343	344	7.5	87.4
2025-10-26T01:39	10	0	0.1	0	0	343	0.2	343	344	7.4	88.3
2025-10-26T01:40	10	0	0.1	0	0	344	0.3	343	344	7.5	87.7
2025-10-26T01:41	10	0	0.1	0	0	344	0.2	343	344	7.5	87.3
2025-10-26T01:42	10	0	0.1	0	0	344	0.2	343	344	7.5	87.9
2025-10-26T01:43	10	0	0.1	0	0	344	0.3	343	344	7.5	87.9
2025-10-26T01:44	10	0	0.1	0	0	344	0.2	343	344	7.5	88.4
2025-10-26T01:45	10	0	0.1	0	0	344	0.3	343	344	7.5	88.4
2025-10-26T01:46	10	0	0.1	0	0	344	0.2	343	344	7.5	88.2
2025-10-26T01:47	10	0	0.1	0	0	344	0.3	343	344	7.6	87.8
2025-10-26T01:48	10	0	0.1	0	0	344	0.2	344	345	7.6	87.8
2025-10-26T01:49	10	0	0.1	0	0	344	0.2	344	345	7.5	88.3
2025-10-26T01:50	10	0	0.1	0	0	344	0.2	344	345	7.6	88.3
2025-10-26T01:51	10	0	0.1	0	0	344	0.3	344	345	7.6	88.7
2025-10-26T01:52	10	0	0.1	0	0	344	0.2	344	345	7.6	88.1
2025-10-26T01:53	10	0	0.1	0	0	344	0.2	344	345	7.7	88.1
2025-10-26T01:54	10	0	0.1	0	0	345	0.2	344	345	7.6	88.2
2025-10-26T01:55	10	0	0.1	0	0	345	0.2	344	345	7.7	87.9
2025-10-26T01:56	10	0	0.1	0	0	345	0.3	344	345	7.7	88.0
2025-10-26T01:57	10	0	0.1	0	0	345	0.2	344	345	7.8	87.7
2025-10-26T01:58	10	0	0.1	0	0	345	0.2	344	345	7.7	88.1
2025-10-26T01:59	10	0	0.1	0	0	344	0.2	344	345	7.8	87.8
2025-10-26T02:00	10	0	0.1	0	0	345	0.3	344	345	7.8	87.9
2025-10-26T02:01	10	0	0.1	0	0	345	0.2	344	345	7.8	87.5
2025-10-26T02:02	10	0	0.1	0	0	344	0.2	344	345	7.8	87.6
2025-10-26T02:03	10	0	0.1	0	0	344	0.2	344	344	7.8	88.2
2025-10-26T02:04	10	0	0.1	0	0	344	0.3	343	345	7.8	88.0
2025-10-26T02:05	10	0	0.1	0	0	344	0.2	343	344	7.8	87.9
2025-10-26T02:06	10	0	0.1	0	0	344	0.2	343	344	7.8	88.2
2025-10-26T02:07	10	0	0.1	0	0	344	0.3	343	344	7.8	88.1
2025-10-26T02:08	10	0	0.1	0	0	344	0.2	343	344	7.9	87.6
2025-10-26T02:09	10	0	0.1	0	0	344	0.2	344	345	8.0	86.8
2025-10-26T02:10	10	0	0.1	0	0	344	0.2	344	345	8.1	86.5
2025-10-26T02:11	10	0	0.1	0	0	344	0.3	344	345	8.1	86.1
2025-10-26T02:12	10	0	0.1	0	0	344	0.2	344	345	8.1	86.6
2025-10-26T02:13	10	0	0.1	0	0	344	0.2	344	344	8.1	86.7
2025-10-26T02:14	10	0	0.1	0	0	344	0.2	344	344	8.1	86.6
2025-10-26T02:15	10	0	0.1	0	0	344	0.3	344	345	8.1	86.4
2025-10-26T02:16	10	0	0.1	0	0	345	0.3	344	345	8.2	85.3
2025-10-26T02:17	10	0	0.1	0	0	345	0.2	345	346	8.2	85.4
2025-10-26T02:18	10	0	0.1	0	0	346	0.2	345	346	8.2	85.6
2025-10-26T02:19	10	0	0.1	0	0	346	0.2	346	347	8.3	84.4
2025-10-26T02:20	10	0	0.1	0	0	346	0.3	345	347	8.3	84.9
2025-10-26T02:21	10	0	0.1	0	0	346	0.3	346	347	8.3	85.1
2025-10-26T02:22	10	0	0.1	0	0	346	0.2	346	346	8.2	85.3
2025-10-26T02:23	10	0	0.1	0	0	346	0.2	346	347	8.2	85.9
2025-10-26T02:24	10	0	0.1	0	0	346	0.3	345	347	8.2	85.6
2025-10-26T02:25	10	0	0.1	0	0	346	0.2	346	347	8.2	85.4
2025-10-26T02:26	10	0	0.1	0	0	346	0.2	346	347	8.3	85.2
2025-10-26T02:27	10	0	0.1	0	0	346	0.2	346	347	8.3	85.3
2025-10-26T02:28	10	0	0.1	0	0	347	0.2	346	347	8.3	84.4
2025-10-26T02:29	10	0	0.1	0	0	347	0.2	346	347	8.4	83.6
2025-10-26T02:30	10	0	0.1	0	0	347	0.2	346	347	8.4	84.3
2025-10-26T02:31	10	0	0.1	0	0	347	0.2	346	347	8.4	84.2
2025-10-26T02:32	10	0	0.1	0	0	347	0.2	346	347	8.4	83.8
2025-10-26T02:33	10	0	0.1	0	0	347	0.2	346	347	8.4	83.9
2025-10-26T02:34	10	0	0.1	0	0	347	0.2	346	347	8.4	84.3
2025-10-26T02:35	10	0	0.1	0	0	347	0.3	346	347	8.4	84.5
2025-10-26T02:36	10	0	0.1	0	0	347	0.2	346	347	8.3	85.0
2025-10-26T02:37	10	0	0.1	-1	0	347	0.2	346	347	8.3	85.2
2025-10-26T02:38	10	0	0.1	0	0	347	0.3	346	347	8.2	85.5
2025-10-26T02:39	10	0	0.1	0	0	347	0.2	346	347	8.3	85.0
2025-10-26T02:40	10	0	0.1	0	0	347	0.2	346	347	8.3	84.8
2025-10-26T02:41	10	0	0.1	0	0	347	0.2	346	347	8.2	85.2
2025-10-26T02:42	10	0	0.1	0	0	347	0.2	347	348	8.4	82.8
2025-10-26T02:43	10	0	0.1	0	0	347	0.2	347	348	8.5	82.0
2025-10-26T02:44	10	0	0.1	0	0	347	0.2	347	348	8.4	82.5
2025-10-26T02:45	10	0	0.1	0	0	347	0.2	347	348	8.5	81.9
2025-10-26T02:46	10	0	0.1	0	0	347	0.2	347	348	8.5	82.0
2025-10-26T02:47	10	0	0.1	0	0	347	0.2	347	348	8.5	82.1
2025-10-26T02:48	10	0	0.1	0	0	347	0.2	347	348	8.4	82.7
2025-10-26T02:49	10	0	0.1	0	0	347	0.2	347	348	8.4	82.9
2025-10-26T02:50	10	0	0.1	0	0	347	0.3	347	348	8.4	82.9
2025-10-26T02:51	10	0	0.1	0	0	347	0.3	346	348	8.4	83.0
2025-10-26T02:52	10	0	0.1	0	0	347	0.2	347	348	8.4	82.4
2025-10-26T02:53	10	0	0.1	0	0	347	0.2	347	348	8.4	82.3
2025-10-26T02:54	10	0	0.1	0	0	347	0.2	347	348	8.6	80.2
2025-10-26T02:55	10	0	0.1	0	0	348	0.2	347	348	8.6	79.9
2025-10-26T02:56	10	0	0.1	0	0	348	0.2	347	348	8.5	80.6
2025-10-26T02:57	10	0	0.1	0	0	348	0.2	347	348	8.5	80.4
2025-10-26T02:58	10	0	0.1	0	0	348	0.1	347	348	8.6	80.1
2025-10-26T02:59	10	0	0.4	0	2	347	0.2	347	348	8.6	79.8
2025-10-26T03:00	10	0	0.1	0	0	347	0.3	347	348	8.5	80.7
2025-10-26T03:01	10	0	0.1	0	0	347	0.2	347	348	8.5	80.3
2025-10-26T03:02	10	0	0.1	0	0	348	0.3	347	348	8.7	79.0
2025-10-26T03:03	10	0	0.1	0	0	348	0.2	347	348	8.6	79.6
2025-10-26T03:04	10	0	0.1	0	0	348	0.2	347	348	8.5	80.4
2025-10-26T03:05	10	0	0.1	0	0	348	0.3	347	348	8.5	80.8
2025-10-26T03:06	10	0	0.1	0	0	348	0.2	347	348	8.5	80.4
2025-10-26T03:07	10	0	0.1	0	0	348	0.2	347	348	8.5	80.5
2025-10-26T03:08	10	0	0.1	0	0	347	0.2	347	348	8.5	80.8
2025-10-26T03:09	10	0	0.1	0	0	348	0.2	347	348	8.5	81.2
2025-10-26T03:10	10	0	0.1	0	0	348	0.2	347	348	8.5	81.6
2025-10-26T03:11	10	0	0.1	-1	0	348	0.2	347	348	8.5	81.5
2025-10-26T03:12	10	0	0.1	-1	0	347	0.3	346	348	8.4	83.1
2025-10-26T03:13	10	0	0.1	-1	0	347	0.2	347	348	8.3	83.4
2025-10-26T03:14	10	0	0.1	-1	0	347	0.2	346	348	8.3	83.6
2025-10-26T03:15	10	0	0.1	-1	0	347	0.2	347	348	8.3	83.9
2025-10-26T03:16	10	0	0.1	-1	0	347	0.2	347	348	8.3	84.5
2025-10-26T03:17	10	0	0.1	-1	0	347	0.2	346	347	8.2	86.1
2025-10-26T03:18	10	-1	0.1	-1	0	347	0.3	346	347	8.1	87.0
2025-10-26T03:19	10	-1	0.1	-1	0	347	0.2	347	347	8.0	87.7
2025-10-26T03:20	10	-1	0.1	-1	0	347	0.2	346	347	8.0	87.4
2025-10-26T03:21	10	-1	0.1	-1	0	347	0.3	346	347	8.0	87.4
2025-10-26T03:22	10	-1	0.1	-1	0	347	0.2	346	347	8.1	86.8
2025-10-26T03:23	10	-1	0.1	-1	0	347	0.3	346	347	8.0	87.8
2025-10-26T03:24	10	-1	0.1	-1	0	347	0.3	346	347	8.0	87.0
2025-10-26T03:25	10	-1	0.1	-1	0	347	0.2	346	347	8.1	85.0
2025-10-26T03:26	10	-1	0.1	-1	-1	347	0.2	346	347	8.0	86.8
2025-10-26T03:27	10	-1	0.1	-1	-1	347	0.2	346	347	8.0	87.3
2025-10-26T03:28	10	-1	0.1	-1	-1	346	0.3	345	347	8.0	87.4
2025-10-26T03:29	10	-1	0.1	-1	-1	347	0.2	346	347	7.9	87.8
2025-10-26T03:30	10	-1	0.1	-1	-1	346	0.2	346	347	7.9	88.3
2025-10-26T03:31	10	-1	0.1	-1	-1	346	0.2	346	347	7.8	89.6
2025-10-26T03:32	10	-1	0.1	-1	-1	346	0.2	345	346	7.7	90.3
2025-10-26T03:33	10	-1	0.1	-1	-1	346	0.2	346	347	7.6	90.9
2025-10-26T03:34	10	-1	0.1	-1	-1	346	0.2	346	346	7.6	91.5
2025-10-26T03:35	10	-1	0.1	-1	-1	346	0.2	345	346	7.5	92.4
2025-10-26T03:36	10	-1	0.1	-1	-1	346	0.2	345	346	7.5	92.2
2025-10-26T03:37	10	-1	0.1	-1	-1	346	0.2	345	346	7.5	92.3
2025-10-26T03:38	10	-1	0.1	-1	-1	346	0.3	345	346	7.4	92.6
2025-10-26T03:39	10	-1	0.1	-1	-1	346	0.2	345	346	7.4	92.9
2025-10-26T03:40	10	-1	0.1	-1	-1	345	0.2	345	346	7.4	93.3
2025-10-26T03:41	10	-1	0.1	-1	-1	345	0.2	345	346	7.3	93.8
2025-10-26T03:42	10	-1	0.1	-1	-1	345	0.3	345	346	7.3	93.5
2025-10-26T03:43	10	-1	0.1	-1	-1	345	0.3	345	346	7.3	93.9
2025-10-26T03:44	10	-1	0.1	-1	-1	345	0.2	345	346	7.3	93.9
2025-10-26T03:45	10	-1	0.1	-1	-1	346	0.3	345	346	7.3	94.2
2025-10-26T03:46	10	-1	0.1	-1	0	345	0.2	345	346	7.3	94.4
2025-10-26T03:47	10	-1	0.1	-1	0	345	0.2	345	346	7.2	94.6
2025-10-26T03:48	10	-1	0.1	-1	0	345	0.2	345	346	7.2	94.2
2025-10-26T03:49	10	-1	0.1	-1	-1	345	0.2	345	346	7.3	93.8
2025-10-26T03:50	10	-1	0.1	-1	-1	345	0.3	344	346	7.3	93.7
2025-10-26T03:51	10	-1	0.1	-1	-1	345	0.2	345	346	7.3	93.4
2025-10-26T03:52	10	-1	0.1	-1	-1	345	0.2	344	345	7.3	94.0
2025-10-26T03:53	10	-1	0.1	-1	0	345	0.2	344	345	7.3	93.9
2025-10-26T03:54	10	-1	0.1	-1	0	345	0.2	344	345	7.3	93.4
2025-10-26T03:55	10	-1	0.1	-1	0	345	0.3	344	345	7.3	93.0
2025-10-26T03:56	10	-1	0.1	-1	0	345	0.3	344	346	7.3	93.0
2025-10-26T03:57	10	0	0.1	-1	0	345	0.2	344	345	7.3	92.6
2025-10-26T03:58	10	0	0.1	0	0	345	0.2	344	345	7.4	91.3
2025-10-26T03:59	10	0	0.1	0	0	345	0.2	344	345	7.5	91.1
2025-10-26T04:00	10	0	0.1	0	0	345	0.2	344	345	7.4	91.6
2025-10-26T04:01	10	0	0.1	0	0	345	0.2	344	345	7.4	92.1
2025-10-26T04:02	10	0	0.1	0	0	345	0.2	344	345	7.4	92.2
2025-10-26T04:03	10	0	0.1	0	0	345	0.2	344	345	7.4	92.1
2025-10-26T04:04	10	0	0.0	0	0	345	0.2	344	345	7.3	92.9
2025-10-26T04:05	10	0	0.1	0	0	345	0.2	344	345	7.3	93.4
2025-10-26T04:06	10	0	0.1	0	0	345	0.2	344	345	7.4	92.8
2025-10-26T04:07	10	0	0.1	0	0	345	0.2	344	345	7.4	92.2
2025-10-26T04:08	10	0	0.1	0	0	345	0.3	344	345	7.4	91.8
2025-10-26T04:09	10	0	0.1	0	0	345	0.3	344	345	7.5	90.9
2025-10-26T04:10	10	0	0.1	0	0	345	0.3	344	346	7.5	90.2
2025-10-26T04:11	10	0	0.1	0	0	345	0.3	344	345	7.6	89.5
2025-10-26T04:12	10	0	0.1	0	0	345	0.2	344	345	7.5	90.2
2025-10-26T04:13	10	0	0.1	0	0	345	0.2	344	345	7.5	90.6
2025-10-26T04:14	10	0	0.1	0	0	345	0.2	344	345	7.5	90.8
2025-10-26T04:15	10	0	0.1	0	0	345	0.3	344	345	7.5	90.3
2025-10-26T04:16	10	0	0.0	0	0	345	0.2	344	345	7.5	90.8
2025-10-26T04:17	10	0	0.1	0	0	345	0.3	344	345	7.5	90.7
2025-10-26T04:18	10	0	0.1	0	0	345	0.3	344	345	7.5	89.9
2025-10-26T04:19	10	0	0.1	0	0	345	0.3	344	345	7.5	90.1
2025-10-26T04:20	10	0	0.1	0	0	345	0.2	344	345	7.5	90.1
2025-10-26T04:21	10	0	0.1	0	0	345	0.2	344	345	7.5	89.8
2025-10-26T04:22	10	0	0.1	0	0	345	0.3	344	345	7.5	88.9
2025-10-26T04:23	10	0	0.1	0	0	345	0.2	344	345	7.6	87.9
2025-10-26T04:24	10	0	0.1	0	0	345	0.2	344	345	7.6	88.7
2025-10-26T04:25	10	0	0.1	0	0	345	0.2	344	345	7.5	89.1
2025-10-26T04:26	10	0	0.1	0	0	345	0.2	345	345	7.6	88.1
2025-10-26T04:27	10	0	0.1	0	0	345	0.3	344	345	7.6	87.5
2025-10-26T04:28	10	0	0.1	0	0	345	0.3	344	345	7.6	87.6
2025-10-26T04:29	10	0	0.1	0	0	345	0.3	344	346	7.6	87.4
2025-10-26T04:30	10	0	0.1	0	0	345	0.2	344	345	7.6	87.7
2025-10-26T04:31	10	0	0.1	0	0	345	0.2	344	345	7.7	85.5
2025-10-26T04:32	10	0	0.1	-1	0	345	0.3	344	345	7.7	85.5
2025-10-26T04:33	10	0	0.1	-1	0	344	0.2	344	345	7.6	86.3
2025-10-26T04:34	10	0	0.1	-1	0	344	0.3	344	345	7.6	86.3
2025-10-26T04:35	10	-1	0.1	-1	0	345	0.2	344	345	7.6	86.8
2025-10-26T04:36	10	-1	0.1	-1	0	345	0.2	344	345	7.6	86.1
2025-10-26T04:37	10	-1	0.1	-1	0	344	0.2	344	345	7.6	86.3
2025-10-26T04:38	10	-1	0.0	-1	0	345	0.3	344	345	7.6	85.8
2025-10-26T04:39	10	-1	0.0	-1	0	344	0.2	344	345	7.7	85.1
2025-10-26T04:40	10	-1	0.1	-1	0	344	0.3	344	345	7.6	85.7
2025-10-26T04:41	10	0	0.1	-1	0	344	0.3	343	344	7.6	85.6
2025-10-26T04:42	10	0	0.1	-1	0	344	0.2	343	345	7.6	86.2
2025-10-26T04:43	10	0	0.1	-1	0	344	0.2	343	344	7.6	86.1
2025-10-26T04:44	10	0	0.1	-1	0	344	0.2	344	345	7.6	85.8
2025-10-26T04:45	10	0	0.1	-1	0	344	0.2	344	345	7.7	85.0
2025-10-26T04:46	10	0	0.1	-1	0	344	0.3	343	344	7.6	86.2
2025-10-26T04:47	10	0	0.1	0	0	344	0.3	343	344	7.6	86.3
2025-10-26T04:48	10	0	0.1	0	0	344	0.3	343	344	7.6	85.6
2025-10-26T04:49	10	0	0.1	0	0	343	0.2	343	344	7.6	85.2
2025-10-26T04:50	10	0	0.1	-1	0	344	0.2	343	344	7.7	84.7
2025-10-26T04:51	10	0	0.1	0	0	343	0.2	343	344	7.7	85.0
2025-10-26T04:52	10	0	0.1	0	0	344	0.2	343	344	7.6	85.7
2025-10-26T04:53	10	0	0.0	0	0	344	0.2	343	344	7.6	85.8
2025-10-26T04:54	10	0	0.1	0	0	344	0.2	343	344	7.6	86.1
2025-10-26T04:55	10	0	0.0	0	0	344	0.3	343	344	7.6	86.3
2025-10-26T04:56	10	0	0.1	0	0	344	0.3	343	345	7.6	86.5
2025-10-26T04:57	10	0	0.1	0	0	344	0.2	344	345	7.5	87.3
2025-10-26T04:58	10	0	0.1	0	0	344	0.2	343	345	7.6	87.1
2025-10-26T04:59	10	-1	0.1	-1	0	344	0.2	344	345	7.6	86.6
2025-10-26T05:00	10	-1	0.1	-1	0	345	0.2	344	345	7.7	85.7
2025-10-26T05:01	10	-1	0.1	-1	0	345	0.2	344	345	7.7	86.3
2025-10-26T05:02	10	-1	0.1	-1	0	345	0.2	344	345	7.6	86.8
2025-10-26T05:03	10	-1	0.1	-1	0	345	0.3	344	345	7.6	87.0
2025-10-26T05:04	10	-1	0.1	-1	0	345	0.3	344	345	7.7	86.4
2025-10-26T05:05	10	-1	0.1	-1	-1	345	0.2	344	345	7.7	86.5
2025-10-26T05:06	10	-1	0.1	-1	0	345	0.2	344	345	7.7	85.8
2025-10-26T05:07	10	-1	0.1	-1	0	345	0.2	345	345	7.7	86.3
2025-10-26T05:08	10	-1	0.1	-1	0	345	0.3	344	346	7.8	85.4
2025-10-26T05:09	10	-1	0.1	-1	-1	345	0.2	344	345	7.7	86.6
2025-10-26T05:10	10	-1	0.1	-1	-1	345	0.4	344	345	7.6	88.2
2025-10-26T05:11	10	-1	0.1	-1	-1	345	0.2	344	345	7.5	88.1
2025-10-26T05:12	10	-1	0.1	-1	-1	344	0.2	344	345	7.5	88.4
2025-10-26T05:13	10	-1	0.1	-1	-1	345	0.2	344	345	7.5	88.4
2025-10-26T05:14	10	-1	0.1	-1	-1	344	0.2	344	345	7.5	88.8
2025-10-26T05:15	10	-1	0.1	-1	-1	344	0.2	344	345	7.5	88.6
2025-10-26T05:16	10	-1	0.1	-1	-1	344	0.3	344	345	7.4	89.0
2025-10-26T05:17	10	-1	0.1	-1	-1	344	0.3	344	345	7.4	88.5
2025-10-26T05:18	10	-1	0.1	-1	-1	344	0.2	344	345	7.4	88.0
2025-10-26T05:19	10	-1	0.0	-1	-1	344	0.2	344	345	7.4	88.4
2025-10-26T05:20	10	-1	0.1	-1	-1	344	0.2	344	345	7.4	87.8
2025-10-26T05:21	10	-1	0.1	-1	-1	344	0.2	344	345	7.6	85.2
2025-10-26T05:22	10	-1	0.0	-1	-1	344	0.2	344	344	7.6	84.6
2025-10-26T05:23	10	-1	0.1	-1	-1	344	0.2	344	345	7.5	86.5
2025-10-26T05:24	10	-1	0.1	-1	0	344	0.2	343	344	7.4	86.7
2025-10-26T05:25	10	-1	0.1	-1	0	343	0.2	343	344	7.4	87.6
2025-10-26T05:26	10	0	0.1	-1	0	343	0.3	342	344	7.3	88.4
2025-10-26T05:27	10	0	0.1	0	0	342	0.3	342	343	7.3	89.0
2025-10-26T05:28	10	0	0.1	0	0	342	0.3	341	343	7.3	88.1
2025-10-26T05:29	10	0	0.1	-1	0	341	0.3	341	342	7.3	87.8
2025-10-26T05:30	10	0	0.1	-1	0	340	0.2	340	341	7.3	88.6
2025-10-26T05:31	10	0	0.1	-1	0	340	0.3	340	341	7.3	88.8
2025-10-26T05:32	10	0	0.1	0	0	340	0.2	339	340	7.3	88.4
2025-10-26T05:33	10	0	0.1	-1	0	339	0.2	339	340	7.3	88.6
2025-10-26T05:34	10	0	0.1	0	0	339	0.4	338	339	7.2	88.9
2025-10-26T05:35	10	0	0.1	0	0	338	0.2	338	339	7.2	89.3
2025-10-26T05:36	10	0	0.1	0	0	338	0.3	338	339	7.2	88.8
2025-10-26T05:37	10	0	0.1	0	0	339	0.2	338	339	7.3	87.4
2025-10-26T05:38	10	0	0.1	0	0	339	0.3	338	339	7.2	88.5
2025-10-26T05:39	10	0	0.1	0	0	338	0.3	338	339	7.2	88.6
2025-10-26T05:40	10	0	0.1	0	0	339	0.3	338	339	7.2	88.2
2025-10-26T05:41	10	0	0.1	0	0	339	0.2	339	340	7.3	87.1
2025-10-26T05:42	10	0	0.1	0	0	340	0.3	339	340	7.4	86.6
2025-10-26T05:43	10	0	0.1	0	0	340	0.4	339	341	7.3	87.6
2025-10-26T05:44	10	0	0.1	0	0	341	0.3	340	342	7.3	87.6
2025-10-26T05:45	10	0	0.1	0	0	342	0.3	341	342	7.3	87.8
2025-10-26T05:46	10	0	0.1	0	0	342	0.2	341	342	7.3	88.1
2025-10-26T05:47	10	0	0.1	0	0	342	0.2	341	342	7.2	88.7
2025-10-26T05:48	10	0	0.1	0	0	342	0.3	342	343	7.3	88.2
2025-10-26T05:49	10	0	0.1	0	0	342	0.2	342	343	7.3	87.8
2025-10-26T05:50	10	0	0.1	0	0	343	0.2	342	343	7.3	88.0
2025-10-26T05:51	10	0	0.1	0	0	343	0.3	342	343	7.3	88.4
2025-10-26T05:52	10	0	0.1	0	0	342	0.4	341	343	7.2	89.6
2025-10-26T05:53	10	0	0.1	0	0	341	0.4	340	342	7.1	89.9
2025-10-26T05:54	10	0	0.0	0	0	340	0.3	339	340	7.1	89.9
2025-10-26T05:55	10	0	0.1	0	0	339	0.2	339	340	7.1	90.0
2025-10-26T05:56	10	0	0.1	0	0	339	0.3	339	340	7.1	89.9
2025-10-26T05:57	10	0	0.1	0	0	339	0.3	338	340	7.2	89.5
2025-10-26T05:58	10	0	0.0	0	0	339	0.2	339	339	7.1	89.8
2025-10-26T05:59	10	0	0.0	0	0	339	0.2	338	339	7.2	88.9
2025-10-26T06:00	10	0	0.1	0	0	339	0.2	338	339	7.3	87.9
2025-10-26T06:01	10	0	0.1	0	0	339	0.4	339	340	7.4	86.9
2025-10-26T06:02	10	0	0.1	0	0	340	0.4	339	341	7.5	86.0
2025-10-26T06:03	10	0	0.1	0	0	341	0.2	340	341	7.5	85.6
2025-10-26T06:04	10	0	0.1	0	0	341	0.2	340	341	7.6	84.7
2025-10-26T06:05	10	0	0.1	0	0	341	0.2	340	341	7.6	85.0
2025-10-26T06:06	10	0	0.1	0	0	341	0.2	340	341	7.5	85.5
2025-10-26T06:07	10	0	0.1	0	0	341	0.2	340	341	7.4	86.7
2025-10-26T06:08	10	0	0.1	0	0	341	0.3	340	341	7.3	87.4
2025-10-26T06:09	10	0	0.1	0	0	341	0.2	340	341	7.3	87.4
2025-10-26T06:10	10	0	0.1	0	1	341	0.3	340	341	7.4	87.1
2025-10-26T06:11	10	1	0.0	0	1	340	0.3	340	341	7.3	87.6
2025-10-26T06:12	10	1	0.0	0	1	341	0.2	340	341	7.3	87.4
2025-10-26T06:13	10	1	0.0	0	1	341	0.2	341	341	7.3	87.2
2025-10-26T06:14	10	0	0.0	0	1	342	0.3	341	342	7.2	87.4
2025-10-26T06:15	10	0	0.1	0	1	342	0.3	342	343	7.3	86.7
2025-10-26T06:16	10	0	0.1	0	0	343	0.2	342	343	7.3	86.9
2025-10-26T06:17	10	0	0.1	0	0	343	0.2	342	343	7.2	86.9
2025-10-26T06:18	10	0	0.1	0	0	343	0.3	342	343	7.2	87.1
2025-10-26T06:19	10	0	0.0	0	0	343	0.2	342	343	7.1	86.9
2025-10-26T06:20	10	0	0.1	0	0	343	0.2	342	343	7.2	85.4
2025-10-26T06:21	10	0	0.1	0	1	343	0.2	342	343	7.2	83.9
2025-10-26T06:22	10	1	0.1	1	1	343	0.2	342	343	7.2	83.3
2025-10-26T06:23	10	1	0.1	1	1	343	0.2	342	343	7.3	82.4
2025-10-26T06:24	10	1	0.1	1	1	343	0.2	342	343	7.3	81.3
2025-10-26T06:25	10	1	0.1	1	1	343	0.2	342	343	7.4	79.8
2025-10-26T06:26	10	1	0.1	1	1	343	0.2	342	343	7.4	80.3
2025-10-26T06:27	10	1	0.1	1	2	343	0.2	342	343	7.4	80.7
2025-10-26T06:28	10	2	0.1	2	2	343	0.2	342	343	7.3	81.4
2025-10-26T06:29	10	2	0.1	2	2	343	0.2	342	343	7.3	80.8
2025-10-26T06:30	10	2	0.1	2	2	343	0.2	342	343	7.4	79.4
2025-10-26T06:31	10	2	0.2	2	2	342	0.2	342	343	7.4	75.8
2025-10-26T06:32	10	3	0.1	2	3	342	0.2	342	343	7.4	74.5
2025-10-26T06:33	10	3	0.1	2	3	342	0.2	341	342	7.3	74.4
2025-10-26T06:34	10	2	0.1	2	3	341	0.2	341	342	7.3	75.4
2025-10-26T06:35	10	3	0.1	2	3	341	0.3	341	342	7.2	76.3
2025-10-26T06:36	10	3	0.1	3	3	341	0.2	341	342	7.2	76.1
2025-10-26T06:37	10	3	0.1	3	3	341	0.2	341	342	7.2	73.8
2025-10-26T06:38	10	3	0.1	2	3	341	0.2	341	342	7.2	75.5
2025-10-26T06:39	10	3	0.1	3	3	341	0.2	341	342	7.1	75.4
2025-10-26T06:40	10	4	0.3	3	4	341	0.2	340	342	7.1	75.5
2025-10-26T06:41	10	5	0.4	4	5	341	0.2	341	341	7.1	74.6
2025-10-26T06:42	10	6	0.3	5	6	341	0.3	340	342	7.1	74.3
2025-10-26T06:43	10	7	0.2	6	7	341	0.2	341	342	7.1	74.6
2025-10-26T06:44	10	7	0.2	7	8	341	0.2	341	342	7.1	72.9
2025-10-26T06:45	10	8	0.1	8	8	341	0.2	340	341	7.0	75.7
2025-10-26T06:46	10	8	0.1	8	8	341	0.3	340	341	6.9	74.5
2025-10-26T06:47	10	8	0.1	8	8	340	0.2	340	341	7.0	75.7
2025-10-26T06:48	10	8	0.1	8	9	340	0.2	340	341	7.0	75.7
2025-10-26T06:49	10	9	0.1	8	9	340	0.3	339	341	7.0	75.7
2025-10-26T06:50	10	9	0.1	9	9	341	0.2	340	342	7.0	75.7
2025-10-26T06:51	10	10	0.1	9	10	341	0.4	340	342	7.0	75.7
2025-10-26T06:52	10	10	0.2	10	10	342	0.4	341	342	7.2	75.0
2025-10-26T06:53	10	10	0.1	10	10	342	0.3	342	343	7.4	73.7
2025-10-26T06:54	10	11	0.5	10	11	342	0.2	342	343	7.5	73.8
2025-10-26T06:55	10	12	0.1	11	12	343	0.2	342	343	7.5	73.3
2025-10-26T06:56	10	12	0.1	12	13	342	0.2	342	343	7.4	74.7
2025-10-26T06:57	10	13	0.3	12	13	342	0.3	342	343	7.4	75.5
2025-10-26T06:58	10	14	0.2	13	14	343	0.2	342	343	7.4	75.4
2025-10-26T06:59	10	14	0.2	14	15	343	0.3	342	344	7.3	76.2
2025-10-26T07:00	10	15	0.3	15	16	343	0.2	343	344	7.3	77.0
2025-10-26T07:01	10	16	0.4	16	17	343	0.3	343	344	7.3	76.2
2025-10-26T07:02	10	18	0.4	17	19	344	0.3	343	344	7.3	77.0
2025-10-26T07:03	10	19	0.4	19	20	344	0.2	344	345	7.3	76.8
2025-10-26T07:04	10	20	0.2	20	20	344	0.3	344	345	7.3	77.2
2025-10-26T07:05	10	21	0.3	20	22	344	0.2	344	345	7.3	76.9
2025-10-26T07:06	10	22	0.2	21	22	345	0.2	344	345	7.3	76.9
2025-10-26T07:07	10	22	0.3	21	22	345	0.3	344	346	7.5	74.0
2025-10-26T07:08	10	22	0.1	22	22	345	0.2	345	345	7.5	74.6
2025-10-26T07:09	10	22	0.3	22	23	345	0.2	344	345	7.5	73.6
2025-10-26T07:10	10	24	0.7	23	25	345	0.2	345	346	7.4	74.0
2025-10-26T07:11	10	26	0.6	25	27	345	0.2	345	346	7.4	73.8
2025-10-26T07:12	10	27	0.6	25	27	346	0.2	345	346	7.4	74.4
2025-10-26T07:13	10	23	1.1	22	25	346	0.3	345	346	7.3	74.8
2025-10-26T07:14	10	21	0.7	19	22	345	0.2	345	346	7.3	74.7
2025-10-26T07:15	10	16	1.9	13	19	345	0.2	344	345	7.3	74.5
2025-10-26T07:16	10	11	1.1	9	13	344	0.3	344	345	7.3	74.8
2025-10-26T07:17	10	8	0.3	8	9	344	0.3	343	344	7.3	74.5
2025-10-26T07:18	10	8	0.0	8	8	343	0.3	342	344	7.3	72.5
2025-10-26T07:19	10	8	0.3	8	9	342	0.2	342	343	7.3	70.7
2025-10-26T07:20	10	10	0.5	9	11	342	0.2	342	343	7.3	72.1
2025-10-26T07:21	10	12	0.6	11	13	343	0.2	342	343	7.2	73.8
2025-10-26T07:22	10	13	0.1	13	13	343	0.2	342	343	7.3	69.4
2025-10-26T07:23	10	13	0.1	13	13	343	0.2	342	343	7.3	69.9
2025-10-26T07:24	10	13	0.2	12	13	343	0.2	343	343	7.3	71.7
2025-10-26T07:25	10	12	0.4	11	12	343	0.2	342	343	7.2	72.8
2025-10-26T07:26	10	11	0.1	10	11	343	0.2	342	343	7.2	72.5
2025-10-26T07:27	10	10	0.1	10	11	343	0.2	342	343	7.1	72.5
2025-10-26T07:28	10	11	0.1	10	11	343	0.2	342	343	7.1	73.0
2025-10-26T07:29	10	10	0.1	10	11	343	0.2	342	343	7.1	71.6
2025-10-26T07:30	10	10	0.1	10	11	342	0.2	341	342	7.1	70.5
2025-10-26T07:31	10	11	0.6	10	12	341	0.3	341	342	7.0	70.8
2025-10-26T07:32	10	14	0.6	13	14	341	0.2	341	342	7.0	71.6
2025-10-26T07:33	10	15	0.5	14	16	341	0.2	341	342	7.0	71.0
2025-10-26T07:34	10	17	0.6	16	18	341	0.3	341	342	7.0	71.3
2025-10-26T07:35	10	19	0.2	18	19	341	0.2	341	342	7.0	70.0
2025-10-26T07:36	10	19	0.1	18	19	341	0.2	340	342	7.0	70.4
2025-10-26T07:37	10	18	0.2	18	19	341	0.2	341	342	7.0	70.5
2025-10-26T07:38	10	18	0.2	17	18	341	0.2	340	341	7.0	70.1
2025-10-26T07:39	10	17	0.1	17	17	341	0.2	340	341	7.0	70.3
2025-10-26T07:40	10	17	0.1	17	18	341	0.2	340	341	7.0	69.6
2025-10-26T07:41	10	18	0.2	18	18	341	0.2	340	341	7.1	69.1
2025-10-26T07:42	10	19	0.2	18	19	341	0.2	340	341	7.1	68.5
2025-10-26T07:43	10	20	0.4	19	20	341	0.3	340	341	7.1	69.2
2025-10-26T07:44	10	21	0.3	20	22	342	0.2	341	342	7.2	67.6
2025-10-26T07:45	10	23	0.7	22	24	342	0.2	341	342	7.2	66.8
2025-10-26T07:46	10	25	0.6	24	26	342	0.3	342	343	7.2	66.9
2025-10-26T07:47	10	26	0.1	26	26	343	0.4	342	343	7.3	66.2
2025-10-26T07:48	10	26	0.1	26	26	343	0.2	342	343	7.2	66.8
2025-10-26T07:49	10	26	0.5	25	26	343	0.3	342	344	7.2	67.7
2025-10-26T07:50	10	24	0.4	23	25	343	0.3	343	344	7.2	68.8
2025-10-26T07:51	10	23	0.1	23	24	343	0.2	343	343	7.2	68.8
2025-10-26T07:52	10	24	0.4	24	25	343	0.2	343	344	7.2	68.9
2025-10-26T07:53	10	25	0.1	25	25	343	0.2	343	344	7.2	68.7
2025-10-26T07:54	10	23	0.7	22	25	344	0.2	343	344	7.1	70.8
2025-10-26T07:55	10	21	0.3	21	22	344	0.3	343	344	7.1	71.6
2025-10-26T07:56	10	21	0.2	21	22	343	0.4	342	344	7.1	71.8
2025-10-26T07:57	10	22	0.2	21	22	343	0.2	343	344	7.1	72.5
2025-10-26T07:58	10	23	0.2	22	23	343	0.3	343	344	7.0	72.3
2025-10-26T07:59	10	24	0.3	23	24	344	0.3	343	345	7.0	73.1
2025-10-26T08:00	10	25	0.4	24	26	344	0.2	344	345	7.0	73.8
2025-10-26T08:01	10	26	0.2	26	27	345	0.2	344	345	6.9	73.6
2025-10-26T08:02	10	26	0.3	26	27	345	0.2	344	345	6.9	74.4
2025-10-26T08:03	10	25	0.5	24	26	345	0.2	344	345	6.9	73.4
2025-10-26T08:04	10	23	0.3	23	24	344	0.2	344	345	6.9	72.2
2025-10-26T08:05	10	22	0.3	22	23	344	0.3	344	345	6.9	71.7
2025-10-26T08:06	10	21	0.3	21	22	344	0.2	343	344	6.9	73.1
2025-10-26T08:07	10	20	0.3	20	21	344	0.2	344	345	6.8	75.5
2025-10-26T08:08	10	19	0.2	19	20	344	0.2	344	345	6.8	75.0
2025-10-26T08:09	10	19	0.2	18	19	344	0.2	343	344	6.9	72.6
2025-10-26T08:10	10	18	0.3	18	18	344	0.2	343	344	7.0	71.5
2025-10-26T08:11	10	17	0.3	16	18	343	0.2	343	344	7.0	71.6
2025-10-26T08:12	10	16	0.3	15	16	343	0.3	342	344	6.9	72.4
2025-10-26T08:13	10	15	0.2	15	15	343	0.2	342	343	7.0	70.8
2025-10-26T08:14	10	15	0.1	14	15	342	0.2	342	343	7.0	70.6
2025-10-26T08:15	10	14	0.1	14	15	342	0.2	341	342	7.1	68.1
2025-10-26T08:16	10	15	0.5	15	16	341	0.2	341	342	7.1	67.8
2025-10-26T08:17	10	18	1.0	16	20	341	0.2	341	341	7.1	68.7
2025-10-26T08:18	10	22	1.1	20	23	341	0.2	341	342	7.0	68.6
2025-10-26T08:19	10	25	0.7	23	26	342	0.2	341	342	7.0	69.9
2025-10-26T08:20	10	26	0.3	25	26	342	0.2	342	342	7.0	69.3
2025-10-26T08:21	10	25	0.1	25	26	342	0.3	342	343	7.0	69.2
2025-10-26T08:22	10	28	1.8	26	32	343	0.2	342	343	7.0	69.1
2025-10-26T08:23	10	41	9.9	32	67	344	0.6	343	345	7.1	66.8
2025-10-26T08:24	10	31	1.4	29	34	344	0.2	343	345	7.1	68.1
2025-10-26T08:25	10	30	5.0	26	45	344	0.4	343	345	7.1	69.0
2025-10-26T08:26	10	78	14.3	49	97	347	1.7	343	349	7.1	69.5
2025-10-26T08:27	10	94	4.7	81	98	349	0.5	348	350	7.2	68.2
2025-10-26T08:28	10	54	22.8	26	90	348	2.1	345	351	7.2	67.6
2025-10-26T08:29	10	34	4.1	29	44	346	0.4	345	347	7.3	67.3
2025-10-26T08:30	10	32	1.1	30	33	346	0.2	345	346	7.3	67.7
2025-10-26T08:31	10	35	0.6	34	35	346	0.2	345	347	7.4	66.7
2025-10-26T08:32	10	36	0.5	35	37	346	0.2	345	346	7.4	66.0
2025-10-26T08:33	10	36	0.4	35	37	346	0.2	346	347	7.4	67.3
2025-10-26T08:34	10	35	0.2	35	35	346	0.4	345	347	7.4	66.6
2025-10-26T08:35	10	35	0.3	34	35	345	0.2	345	346	7.4	66.4
2025-10-26T08:36	10	37	0.9	35	38	346	0.3	345	347	7.3	67.9
2025-10-26T08:37	10	41	1.4	39	43	347	0.4	346	347	7.3	68.6
2025-10-26T08:38	10	44	0.2	43	44	348	0.3	347	348	7.3	69.1
2025-10-26T08:39	10	41	1.5	38	44	348	0.2	348	349	7.2	68.7
2025-10-26T08:40	10	36	1.0	35	38	348	0.3	347	349	7.2	68.7
2025-10-26T08:41	10	34	0.3	34	35	348	0.3	347	348	7.3	69.1
2025-10-26T08:42	10	34	0.1	34	34	348	0.2	348	349	7.3	69.1
2025-10-26T08:43	10	34	0.4	33	34	348	0.2	348	348	7.3	68.6
2025-10-26T08:44	10	32	0.5	31	33	348	0.2	348	349	7.4	69.2
2025-10-26T08:45	10	30	0.8	28	31	348	0.2	347	348	7.4	69.5
2025-10-26T08:46	10	28	0.2	28	28	348	0.2	348	349	7.4	68.9
2025-10-26T08:47	10	28	0.1	28	28	348	0.2	348	349	7.5	67.2
2025-10-26T08:48	10	28	0.1	28	28	348	0.2	348	349	7.5	66.4
2025-10-26T08:49	10	27	0.2	27	28	348	0.2	347	348	7.6	67.0
2025-10-26T08:50	10	27	0.1	27	27	347	0.3	347	348	7.5	66.8
2025-10-26T08:51	10	28	0.3	27	28	347	0.2	347	348	7.5	67.3
2025-10-26T08:52	10	29	0.3	28	29	348	0.2	347	348	7.5	67.4
2025-10-26T08:53	10	30	0.5	29	31	347	0.3	347	348	7.4	68.6
2025-10-26T08:54	10	31	0.2	31	32	347	0.3	347	348	7.4	68.7
2025-10-26T08:55	10	32	0.2	32	32	348	0.4	347	348	7.4	69.6
2025-10-26T08:56	10	32	0.1	32	32	348	0.2	347	348	7.3	70.8
2025-10-26T08:57	10	33	0.2	32	33	347	0.3	347	348	7.3	69.8
2025-10-26T08:58	10	33	0.3	33	34	347	0.2	347	348	7.3	69.8
2025-10-26T08:59	10	34	0.2	34	34	347	0.2	346	347	7.3	69.7
2025-10-26T09:00	10	35	0.2	34	35	347	0.2	346	347	7.3	69.3
2025-10-26T09:01	10	35	0.3	35	36	347	0.3	347	348	7.3	69.5
2025-10-26T09:02	10	37	0.4	36	37	348	0.4	347	349	7.4	69.9
2025-10-26T09:03	10	38	0.1	37	38	348	0.2	348	349	7.4	69.6
2025-10-26T09:04	10	37	0.3	36	38	349	0.4	348	350	7.4	70.9
2025-10-26T09:05	10	35	0.6	34	36	350	0.4	349	350	7.4	69.2
2025-10-26T09:06	10	33	0.7	32	34	349	0.3	348	350	7.5	67.4
2025-10-26T09:07	10	31	0.5	30	32	348	0.3	347	349	7.5	66.3
2025-10-26T09:08	10	30	0.3	29	30	348	0.2	348	348	7.5	67.9
2025-10-26T09:09	10	29	0.2	28	29	348	0.3	348	349	7.5	69.0
2025-10-26T09:10	10	28	0.1	28	28	348	0.2	348	348	7.4	68.2
2025-10-26T09:11	10	28	0.0	28	28	348	0.2	347	348	7.4	68.4
2025-10-26T09:12	10	28	0.1	28	28	348	0.2	348	349	7.4	69.2
2025-10-26T09:13	10	28	0.1	28	29	349	0.3	348	349	7.4	69.9
2025-10-26T09:14	10	29	0.2	28	29	348	0.4	347	348	7.4	68.7
2025-10-26T09:15	10	29	0.2	29	30	348	0.4	347	348	7.4	67.8
2025-10-26T09:16	10	30	0.1	30	30	347	0.3	346	348	7.3	67.5
2025-10-26T09:17	10	30	0.2	30	31	347	0.3	347	348	7.3	68.1
2025-10-26T09:18	10	31	0.2	31	32	348	0.5	347	349	7.3	68.9
2025-10-26T09:19	10	32	0.1	31	32	348	0.4	348	349	7.3	69.3
2025-10-26T09:20	10	32	0.1	32	32	348	0.3	347	348	7.3	68.3
2025-10-26T09:21	10	32	0.1	31	32	348	0.3	347	349	7.3	68.5
2025-10-26T09:22	10	31	0.1	31	31	348	0.2	348	348	7.2	68.3
2025-10-26T09:23	10	31	0.2	31	31	348	0.3	347	349	7.2	69.2
2025-10-26T09:24	10	32	0.2	31	32	348	0.3	347	348	7.3	69.0
2025-10-26T09:25	10	32	0.2	32	33	348	0.2	348	349	7.3	68.9
2025-10-26T09:26	10	33	0.2	33	33	348	0.3	347	349	7.3	68.3
2025-10-26T09:27	10	34	0.2	33	34	348	0.2	348	349	7.3	68.4
2025-10-26T09:28	10	35	0.2	34	35	348	0.4	348	349	7.3	67.9
2025-10-26T09:29	10	35	0.1	35	35	348	0.3	348	349	7.3	68.3
2025-10-26T09:30	10	35	0.1	35	35	348	0.2	348	349	7.3	67.2
2025-10-26T09:31	10	35	0.2	35	36	349	0.3	348	349	7.3	67.9
2025-10-26T09:32	10	36	0.2	36	36	349	0.4	348	350	7.3	68.2
2025-10-26T09:33	10	36	0.2	36	37	349	0.3	349	350	7.3	69.7
2025-10-26T09:34	10	37	0.1	36	37	349	0.7	348	350	7.3	67.7
2025-10-26T09:35	10	37	0.1	36	37	349	0.3	348	349	7.2	68.0
2025-10-26T09:36	10	37	0.2	37	37	349	0.2	348	349	7.2	67.5
2025-10-26T09:37	10	38	0.3	37	39	349	0.3	349	350	7.2	68.8
2025-10-26T09:38	10	39	0.1	39	39	349	0.3	348	349	7.2	67.9
2025-10-26T09:39	10	39	0.2	38	39	349	0.3	348	349	7.2	67.6
2025-10-26T09:40	10	38	0.1	38	38	349	0.2	349	350	7.2	68.3
2025-10-26T09:41	10	38	0.2	38	39	350	0.5	349	351	7.2	68.1
2025-10-26T09:42	10	39	0.2	38	39	350	0.3	349	350	7.3	66.5
2025-10-26T09:43	10	39	0.3	39	40	349	0.3	349	350	7.3	67.1
2025-10-26T09:44	10	41	0.3	40	41	349	0.4	349	350	7.3	66.8
2025-10-26T09:45	10	42	0.4	41	42	350	0.4	350	351	7.3	67.6
2025-10-26T09:46	10	43	0.4	42	44	351	0.2	350	351	7.3	67.8
2025-10-26T09:47	10	44	0.6	44	46	351	0.2	351	352	7.3	67.7
2025-10-26T09:48	10	47	0.7	45	48	351	0.4	350	352	7.3	67.9
2025-10-26T09:49	10	53	5.1	48	63	352	0.9	351	354	7.4	68.0
2025-10-26T09:50	10	65	10.0	53	86	355	0.7	354	356	7.4	67.9
2025-10-26T09:51	10	101	22.3	69	137	358	2.3	354	362	7.4	67.1
2025-10-26T09:52	10	100	29.2	65	143	362	1.3	359	364	7.5	68.0
2025-10-26T09:53	10	73	4.8	68	85	359	0.7	358	361	7.5	67.8
2025-10-26T09:54	10	69	7.3	63	90	358	0.3	357	359	7.5	66.0
2025-10-26T09:55	10	106	13.0	76	133	361	1.0	358	362	7.5	66.5
2025-10-26T09:56	10	70	1.6	68	75	359	1.0	358	362	7.5	66.7
2025-10-26T09:57	10	107	26.9	74	151	363	3.3	358	368	7.6	66.6
2025-10-26T09:58	10	142	28.4	85	172	368	1.5	365	370	7.6	65.9
2025-10-26T09:59	10	111	32.9	78	172	364	2.2	362	370	7.7	66.1
2025-10-26T10:00	10	170	1.1	168	172	373	2.3	368	376	7.8	66.3
2025-10-26T10:01	10	138	36.3	79	168	375	2.5	368	377	7.9	66.0
2025-10-26T10:02	10	81	10.6	67	100	367	1.7	364	371	7.9	66.1
2025-10-26T10:03	10	92	25.5	67	149	366	1.9	364	370	7.9	66.5
2025-10-26T10:04	10	151	16.3	107	166	373	1.7	369	375	8.0	66.3
2025-10-26T10:05	10	109	41.5	57	162	372	3.7	364	375	8.2	65.5
2025-10-26T10:06	10	57	2.2	53	62	362	1.7	360	367	8.0	61.1
2025-10-26T10:07	10	50	1.3	47	53	358	1.5	356	361	8.1	61.8
2025-10-26T10:08	10	48	1.6	46	53	357	0.2	357	357	8.1	63.3
2025-10-26T10:09	10	99	35.9	53	153	360	3.0	357	366	8.1	63.5
2025-10-26T10:10	10	150	1.7	148	153	368	2.0	364	371	8.1	64.5
2025-10-26T10:11	10	146	1.4	143	148	371	0.8	370	372	8.3	65.0
2025-10-26T10:12	10	141	1.0	140	143	372	0.6	370	373	8.4	64.3
2025-10-26T10:13	10	140	0.2	139	140	369	1.2	367	371	8.2	63.0
2025-10-26T10:14	10	138	0.3	138	139	371	0.4	370	372	8.3	63.6
2025-10-26T10:15	10	138	0.2	138	139	370	0.4	369	371	8.3	63.2
2025-10-26T10:16	10	139	0.1	138	139	371	0.6	370	372	8.4	63.8
2025-10-26T10:17	10	139	0.2	139	140	372	0.3	372	373	8.5	63.6
2025-10-26T10:18	10	140	0.4	139	141	373	0.8	371	374	8.6	64.0
2025-10-26T10:19	10	139	1.8	135	141	372	0.5	371	373	8.6	61.9
2025-10-26T10:20	10	142	0.5	141	143	370	1.7	367	372	8.3	59.9
2025-10-26T10:21	10	143	0.2	143	143	368	0.3	368	369	8.2	60.5
2025-10-26T10:22	10	144	0.4	143	145	368	0.4	368	369	8.2	59.7
2025-10-26T10:23	10	146	0.8	144	147	369	0.7	368	371	8.3	60.4
2025-10-26T10:24	10	149	1.3	147	151	369	0.3	368	369	8.2	60.0
2025-10-26T10:25	10	154	1.4	151	156	370	0.7	368	371	8.1	59.6
2025-10-26T10:26	10	106	32.3	63	153	370	2.3	364	373	8.4	60.9
2025-10-26T10:27	10	68	10.3	49	87	364	1.6	360	366	8.3	60.1
2025-10-26T10:28	10	76	27.0	48	122	361	1.6	359	364	8.2	60.4
2025-10-26T10:29	10	97	32.8	65	151	363	1.6	361	367	8.3	60.7
2025-10-26T10:30	10	143	1.8	139	146	369	1.4	365	370	8.3	60.7
2025-10-26T10:31	10	139	0.6	137	139	369	0.2	369	370	8.4	60.4
2025-10-26T10:32	10	134	1.6	131	137	369	0.2	369	370	8.4	59.1
2025-10-26T10:33	10	131	0.4	130	131	370	0.5	369	371	8.4	59.0
2025-10-26T10:34	10	130	0.2	129	130	369	0.6	368	370	8.4	59.3
2025-10-26T10:35	10	131	0.2	130	131	369	0.4	368	370	8.3	58.8
2025-10-26T10:36	10	132	0.8	128	133	370	1.0	369	372	8.4	59.8
2025-10-26T10:37	10	130	6.2	115	134	372	0.5	371	373	8.6	60.1
2025-10-26T10:38	10	136	1.1	134	138	372	0.3	372	373	8.7	60.4
2025-10-26T10:39	10	140	1.1	138	142	373	0.5	372	374	8.8	60.5
2025-10-26T10:40	10	145	2.6	142	150	375	1.8	372	378	8.8	61.2
2025-10-26T10:41	10	113	23.5	75	151	374	2.4	371	379	8.8	60.2
2025-10-26T10:42	10	150	10.7	121	157	373	0.9	372	375	8.6	57.8
2025-10-26T10:43	10	153	21.7	74	166	377	1.0	374	378	8.6	59.7
2025-10-26T10:44	10	67	5.2	61	80	369	2.3	366	376	8.7	59.9
2025-10-26T10:45	10	92	8.9	80	110	368	0.9	367	370	8.7	59.6
2025-10-26T10:46	10	93	35.5	66	169	370	2.4	366	374	8.7	59.3
2025-10-26T10:47	10	69	10.7	60	92	366	0.7	365	368	8.6	59.2
2025-10-26T10:48	10	112	33.8	55	165	370	2.9	366	375	8.7	59.7
2025-10-26T10:49	10	50	2.2	46	55	366	2.4	362	370	8.7	59.1
2025-10-26T10:50	10	44	0.8	43	46	362	0.4	361	363	8.7	60.5
2025-10-26T10:51	10	46	0.7	44	46	361	0.3	360	361	8.7	59.7
2025-10-26T10:52	10	47	1.2	44	48	361	0.4	361	362	8.7	60.5
2025-10-26T10:53	10	42	0.8	41	44	361	0.3	361	362	8.7	61.0
2025-10-26T10:54	10	42	0.7	41	44	361	0.3	360	361	8.7	60.6
2025-10-26T10:55	10	47	1.7	44	50	361	0.6	360	362	8.7	61.5
2025-10-26T10:56	10	52	1.4	50	54	360	0.4	359	361	8.7	59.3
2025-10-26T10:57	10	55	0.3	54	55	360	0.4	360	361	8.6	59.0
2025-10-26T10:58	10	52	1.4	50	54	360	0.5	359	361	8.7	60.4
2025-10-26T10:59	10	47	1.3	45	50	360	0.5	359	361	8.6	58.3
2025-10-26T11:00	10	42	1.7	39	45	359	0.2	359	360	8.6	58.2
2025-10-26T11:01	10	36	1.4	34	39	359	0.3	358	360	8.7	58.7
2025-10-26T11:02	10	33	0.5	32	34	357	0.4	357	358	8.6	57.6
2025-10-26T11:03	10	31	0.5	30	32	356	0.5	355	357	8.7	58.2
2025-10-26T11:04	10	29	0.9	27	30	355	0.6	354	356	8.6	58.0
2025-10-26T11:05	10	26	0.9	24	27	354	0.5	353	355	8.6	58.5
2025-10-26T11:06	10	23	0.6	22	24	353	0.3	352	354	8.5	60.3
2025-10-26T11:07	10	22	0.4	21	22	352	0.3	352	353	8.5	59.7
2025-10-26T11:08	10	21	0.2	20	21	352	0.2	351	352	8.4	60.8
2025-10-26T11:09	10	21	0.2	20	21	352	0.3	351	352	8.4	61.0
2025-10-26T11:10	10	22	0.4	21	23	352	0.2	351	352	8.4	61.5
2025-10-26T11:11	10	24	0.8	22	25	352	0.4	351	352	8.3	61.2
2025-10-26T11:12	10	28	1.6	25	31	352	0.6	352	353	8.3	62.5
2025-10-26T11:13	10	37	3.9	31	44	354	0.9	353	355	8.4	63.6
2025-10-26T11:14	10	69	28.9	44	130	357	2.4	354	363	8.4	63.2
2025-10-26T11:15	10	90	33.1	58	153	363	1.8	361	367	8.4	63.3
2025-10-26T11:16	10	63	5.7	59	77	361	1.1	359	363	8.4	62.4
2025-10-26T11:17	10	63	1.0	61	65	360	0.3	359	361	8.4	63.0
2025-10-26T11:18	10	80	16.5	65	125	362	1.2	360	365	8.4	62.7
2025-10-26T11:19	10	73	11.5	65	119	363	1.1	361	365	8.5	63.4
2025-10-26T11:20	10	73	9.1	65	96	362	0.6	361	364	8.5	63.5
2025-10-26T11:21	10	171	19.3	106	181	370	3.7	361	374	8.5	62.1
2025-10-26T11:22	10	142	38.6	89	180	372	2.7	368	376	8.6	62.6
2025-10-26T11:23	10	156	24.2	97	179	374	1.2	371	376	8.6	61.7
2025-10-26T11:24	10	73	8.8	68	102	367	2.9	363	373	8.7	62.1
2025-10-26T11:25	10	65	1.8	62	68	363	1.0	361	365	8.6	61.1
2025-10-26T11:26	10	59	1.5	57	62	361	0.8	359	362	8.5	56.5
2025-10-26T11:27	10	54	1.6	52	57	359	0.7	358	360	8.4	55.5
2025-10-26T11:28	10	51	0.3	51	52	358	0.3	357	359	8.5	56.9
2025-10-26T11:29	10	53	0.7	52	54	358	0.4	358	359	8.5	59.0
2025-10-26T11:30	10	56	1.0	54	58	359	0.3	359	360	8.6	59.8
2025-10-26T11:31	10	59	1.0	58	61	358	0.4	358	359	8.6	57.8
2025-10-26T11:32	10	66	3.7	61	73	359	1.0	358	361	8.6	57.8
2025-10-26T11:33	10	101	38.9	74	180	361	2.6	359	368	8.7	56.7
2025-10-26T11:34	10	174	9.4	144	182	369	2.2	365	374	8.7	54.2
2025-10-26T11:35	10	155	27.2	87	180	371	2.3	367	374	8.9	53.9
2025-10-26T11:36	10	120	24.6	77	159	367	1.0	365	369	8.9	53.3
2025-10-26T11:37	10	171	5.9	154	176	372	2.4	368	375	9.1	54.7
2025-10-26T11:38	10	159	27.2	102	177	376	1.2	373	377	9.1	54.4
2025-10-26T11:39	10	69	16.6	57	109	368	4.3	362	375	9.2	54.6
2025-10-26T11:40	10	58	5.2	56	84	361	1.5	359	364	9.0	53.4
2025-10-26T11:41	10	75	8.5	63	90	361	0.4	360	362	8.8	53.1
2025-10-26T11:42	10	114	36.0	72	180	364	3.4	360	371	8.8	54.6
2025-10-26T11:43	10	172	16.4	125	184	374	3.3	369	378	9.0	55.6
2025-10-26T11:44	10	108	27.8	79	184	373	3.1	368	378	9.1	55.0
2025-10-26T11:45	10	97	16.6	77	127	369	0.5	368	370	9.3	55.4
2025-10-26T11:46	10	120	10.2	105	143	372	1.1	370	374	9.3	55.6
2025-10-26T11:47	10	132	11.4	105	142	374	0.5	372	374	9.3	55.6
2025-10-26T11:48	10	88	14.0	68	108	370	2.6	366	374	9.4	55.4
2025-10-26T11:49	10	59	3.3	55	67	366	0.9	364	368	9.2	54.3
2025-10-26T11:50	10	57	2.7	55	69	362	1.0	361	365	9.1	54.5
2025-10-26T11:51	10	64	7.0	59	87	362	0.8	361	363	9.0	54.7
2025-10-26T11:52	10	74	5.7	65	89	363	0.3	362	364	9.0	55.3
2025-10-26T11:53	10	70	1.9	68	75	363	0.5	362	364	9.0	54.7
2025-10-26T11:54	10	115	26.2	72	163	368	2.4	363	371	9.1	55.6
2025-10-26T11:55	10	74	2.5	69	78	366	0.6	365	367	9.1	55.1
2025-10-26T11:56	10	66	1.2	64	68	365	0.5	364	366	9.1	55.6
2025-10-26T11:57	10	64	0.2	63	64	365	0.3	364	365	9.2	56.5
2025-10-26T11:58	10	69	4.0	64	83	365	0.4	364	366	9.2	56.0
2025-10-26T11:59	10	112	16.2	87	146	368	1.5	364	371	9.2	54.8
2025-10-26T12:00	10	85	18.3	67	119	367	2.4	364	371	9.1	53.1
2025-10-26T12:01	10	62	2.3	59	67	364	0.6	363	365	9.2	54.6
2025-10-26T12:02	10	58	0.8	56	59	363	0.5	362	364	9.2	55.0
2025-10-26T12:03	10	56	0.5	55	57	362	0.5	360	362	9.2	55.0
2025-10-26T12:04	10	54	0.4	54	55	360	0.5	360	361	9.1	53.5
2025-10-26T12:05	10	53	0.2	53	54	360	0.6	359	361	9.1	53.7
2025-10-26T12:06	10	53	0.2	53	54	360	0.4	358	361	9.1	53.6
2025-10-26T12:07	10	54	0.5	54	55	361	0.8	359	362	9.1	54.7
2025-10-26T12:08	10	56	0.5	55	57	363	0.4	361	363	9.2	55.2
2025-10-26T12:09	10	58	0.6	57	59	362	0.3	362	363	9.2	54.7
2025-10-26T12:10	10	60	0.7	59	61	362	0.4	361	363	9.1	54.3
2025-10-26T12:11	10	63	0.6	61	64	362	0.5	361	363	9.1	55.3
2025-10-26T12:12	10	61	0.3	61	62	362	0.3	361	363	9.1	54.6
2025-10-26T12:13	10	61	0.6	61	63	363	0.4	362	364	9.1	56.0
2025-10-26T12:14	10	65	1.2	63	67	363	0.6	362	364	9.1	55.7
2025-10-26T12:15	10	70	1.9	67	74	364	0.6	363	365	9.1	55.3
2025-10-26T12:16	10	88	13.1	74	119	365	1.2	363	367	9.1	55.7
2025-10-26T12:17	10	73	1.0	72	76	364	0.5	363	365	9.1	54.3
2025-10-26T12:18	10	80	3.6	73	85	365	0.9	363	366	9.1	54.7
2025-10-26T12:19	10	101	16.1	80	129	368	1.9	365	370	9.2	56.2
2025-10-26T12:20	10	68	9.9	54	84	367	1.5	365	370	9.3	56.3
2025-10-26T12:21	10	44	4.6	37	53	363	1.5	360	366	9.3	56.4
2025-10-26T12:22	10	34	2.0	31	37	360	0.6	359	362	9.2	56.1
2025-10-26T12:23	10	28	1.2	26	31	359	0.9	357	360	9.1	56.4
2025-10-26T12:24	10	25	0.8	24	26	357	0.5	356	358	9.1	56.9
2025-10-26T12:25	10	22	0.6	21	24	356	0.6	355	357	9.0	55.8
2025-10-26T12:26	10	20	0.7	19	21	354	0.3	354	355	8.9	56.6
2025-10-26T12:27	10	18	0.5	17	19	354	0.3	353	355	8.9	56.6
2025-10-26T12:28	10	17	0.3	16	17	354	0.3	353	354	8.9	56.8
2025-10-26T12:29	10	16	0.2	16	17	353	0.3	353	354	8.9	57.7
2025-10-26T12:30	10	16	0.2	16	17	353	0.3	353	354	8.9	58.3
2025-10-26T12:31	10	17	0.2	16	17	353	0.2	353	354	8.9	57.7
2025-10-26T12:32	10	17	0.1	17	17	353	0.3	352	354	8.8	57.2
2025-10-26T12:33	10	17	0.2	17	17	353	0.3	352	353	8.8	57.2
2025-10-26T12:34	10	17	0.2	17	18	353	0.3	352	353	8.8	58.2
2025-10-26T12:35	10	18	0.2	17	18	353	0.3	353	354	8.8	59.1
2025-10-26T12:36	10	17	0.1	17	18	353	0.3	352	353	8.8	58.7
2025-10-26T12:37	10	17	0.2	16	18	353	0.3	352	354	8.8	59.3
2025-10-26T12:38	10	16	0.3	16	17	352	0.3	352	353	8.8	57.9
2025-10-26T12:39	10	15	0.3	15	16	352	0.4	351	353	8.8	57.8
2025-10-26T12:40	10	15	0.2	14	15	351	0.2	350	352	8.7	58.5
2025-10-26T12:41	10	15	0.1	14	15	351	0.3	350	351	8.7	58.4
2025-10-26T12:42	10	14	0.2	14	15	350	0.3	350	351	8.6	58.5
2025-10-26T12:43	10	15	0.2	14	16	351	0.3	350	351	8.6	59.9
2025-10-26T12:44	10	16	0.4	15	17	351	0.2	350	351	8.6	60.8
2025-10-26T12:45	10	17	0.5	16	18	351	0.2	350	351	8.5	61.2
2025-10-26T12:46	10	19	0.6	18	20	351	0.2	350	351	8.6	57.9
2025-10-26T12:47	10	21	0.7	20	23	351	0.3	350	351	8.5	59.3
2025-10-26T12:48	10	24	1.0	22	26	351	0.4	350	353	8.5	59.5
2025-10-26T12:49	10	28	1.2	26	30	352	0.5	351	353	8.5	59.5
2025-10-26T12:50	10	33	1.9	30	37	353	0.3	352	354	8.5	59.8
2025-10-26T12:51	10	43	3.7	37	51	354	0.9	352	356	8.5	59.4
2025-10-26T12:52	10	68	9.3	52	88	357	1.3	354	359	8.6	58.6
2025-10-26T12:53	10	105	16.5	86	136	363	2.9	357	366	8.7	59.9
2025-10-26T12:54	10	97	9.1	81	115	366	1.1	364	367	8.8	59.3
2025-10-26T12:55	10	132	41.6	81	184	368	3.0	365	374	8.9	58.2
2025-10-26T12:56	10	160	14.5	124	179	374	0.9	372	375	9.0	58.0
2025-10-26T12:57	10	122	8.9	110	145	372	1.4	370	375	9.1	57.9
2025-10-26T12:58	10	111	27.5	74	157	371	1.9	368	374	9.2	58.0
2025-10-26T12:59	10	97	13.7	73	111	369	0.7	367	370	9.2	58.3
2025-10-26T13:00	10	89	13.3	74	122	367	1.6	364	370	9.1	57.5
2025-10-26T13:01	10	100	21.7	68	129	367	1.0	365	369	9.0	57.0
2025-10-26T13:02	10	92	31.1	66	146	366	1.9	365	370	9.1	58.9
2025-10-26T13:03	10	128	26.2	86	159	369	1.4	366	371	9.1	56.1
2025-10-26T13:04	10	138	5.5	126	145	370	0.5	369	370	9.0	56.5
2025-10-26T13:05	10	117	10.2	100	139	369	1.0	367	371	9.1	57.1
2025-10-26T13:06	10	133	22.3	77	152	371	1.3	369	373	9.1	57.5
2025-10-26T13:07	10	60	5.2	56	76	366	3.2	361	372	9.1	58.3
2025-10-26T13:08	10	77	15.4	57	103	362	0.8	360	363	8.8	60.0
2025-10-26T13:09	10	113	19.3	70	134	365	1.1	363	366	8.7	61.2
2025-10-26T13:10	10	93	17.0	67	118	364	1.3	363	366	8.7	61.8
2025-10-26T13:11	10	68	21.5	48	113	364	2.2	360	368	8.8	62.9
2025-10-26T13:12	10	44	2.7	39	48	359	1.7	356	362	8.5	62.6
2025-10-26T13:13	10	36	1.6	34	39	355	1.3	353	357	8.2	63.0
2025-10-26T13:14	10	32	0.9	30	34	354	0.6	352	355	8.1	65.3
2025-10-26T13:15	10	29	0.7	28	30	353	0.4	353	354	8.1	67.2
2025-10-26T13:16	10	26	0.8	25	28	352	0.5	352	353	8.0	65.7
2025-10-26T13:17	10	24	0.6	23	25	352	0.4	351	353	7.9	66.0
2025-10-26T13:18	10	22	0.4	21	23	351	0.3	350	351	7.8	64.9
2025-10-26T13:19	10	21	0.2	20	21	350	0.3	349	350	7.8	65.8
2025-10-26T13:20	10	21	0.2	20	21	349	0.3	349	350	7.7	66.8
2025-10-26T13:21	10	21	0.2	21	21	349	0.3	349	350	7.7	68.4
2025-10-26T13:22	10	21	0.3	21	22	349	0.4	349	350	7.7	67.4
2025-10-26T13:23	10	22	0.2	22	22	350	0.4	349	350	7.7	65.4
2025-10-26T13:24	10	22	0.2	22	23	349	0.4	349	351	7.8	65.2
2025-10-26T13:25	10	22	0.2	22	23	350	0.3	349	350	7.8	65.4
2025-10-26T13:26	10	23	0.2	22	23	350	0.4	349	351	7.8	66.2
2025-10-26T13:27	10	23	0.2	23	24	350	0.3	349	351	7.8	66.9
2025-10-26T13:28	10	24	0.2	24	24	350	0.3	349	351	7.8	66.0
2025-10-26T13:29	10	24	0.2	24	25	350	0.5	349	351	7.8	65.8
2025-10-26T13:30	10	25	0.2	24	25	350	0.4	349	351	7.8	65.8
2025-10-26T13:31	10	25	0.3	25	26	349	0.3	349	350	7.7	64.2
2025-10-26T13:32	10	26	0.4	26	27	349	0.4	348	350	7.6	65.0
2025-10-26T13:33	10	28	0.4	27	29	350	0.2	350	350	7.6	66.3
2025-10-26T13:34	10	29	0.2	28	29	350	0.3	350	351	7.7	66.8
2025-10-26T13:35	10	28	0.2	28	29	351	0.3	350	351	7.7	67.1
2025-10-26T13:36	10	27	0.2	27	28	351	0.2	351	352	7.7	67.4
2025-10-26T13:37	10	27	0.1	27	27	351	0.3	350	352	7.7	68.0
2025-10-26T13:38	10	27	0.2	27	28	351	0.2	351	352	7.7	66.9
2025-10-26T13:39	10	28	0.3	27	28	351	0.3	350	351	7.7	64.9
2025-10-26T13:40	10	29	0.3	28	29	351	0.3	350	352	7.8	64.5
2025-10-26T13:41	10	30	0.3	29	31	351	0.2	351	352	7.8	63.3
2025-10-26T13:42	10	31	0.3	30	31	352	0.3	351	352	7.9	62.6
2025-10-26T13:43	10	32	0.5	31	33	351	0.3	351	352	7.9	61.1
2025-10-26T13:44	10	34	0.6	33	35	352	0.6	350	353	7.9	61.5
2025-10-26T13:45	10	36	0.5	35	37	352	0.4	351	353	7.9	60.2
2025-10-26T13:46	10	38	0.7	36	39	352	0.4	351	353	7.9	60.1
2025-10-26T13:47	10	39	0.5	39	41	353	0.3	352	353	7.9	60.8
2025-10-26T13:48	10	39	0.4	39	40	353	0.3	352	353	7.9	61.8
2025-10-26T13:49	10	41	0.5	40	42	353	0.4	352	354	7.9	62.4
2025-10-26T13:50	10	41	0.5	40	42	353	0.2	352	353	7.9	62.9
2025-10-26T13:51	10	42	1.8	40	45	352	0.4	351	353	7.9	63.8
2025-10-26T13:52	10	55	10.5	45	83	353	0.9	352	355	7.9	64.4
2025-10-26T13:53	10	55	16.9	40	83	355	1.0	354	357	7.9	64.8
2025-10-26T13:54	10	39	0.1	39	40	354	0.2	353	354	8.0	65.7
2025-10-26T13:55	10	41	0.6	40	41	354	0.2	353	354	8.0	65.8
2025-10-26T13:56	10	42	0.6	41	43	354	0.3	353	355	8.0	65.8
2025-10-26T13:57	10	45	1.4	44	48	354	0.4	354	355	7.9	65.6
2025-10-26T13:58	10	48	1.1	45	50	354	0.2	354	355	8.0	64.8
2025-10-26T13:59	10	41	2.0	39	45	354	0.2	354	355	8.0	65.0
2025-10-26T14:00	10	37	0.8	36	39	354	0.3	353	355	8.0	65.2
2025-10-26T14:01	10	35	0.7	33	36	353	0.3	353	354	8.0	64.9
2025-10-26T14:02	10	32	0.6	31	33	353	0.2	352	353	8.0	64.8
2025-10-26T14:03	10	31	0.3	30	32	353	0.3	353	354	8.1	65.6
2025-10-26T14:04	10	30	0.1	30	30	353	0.4	352	354	8.1	65.7
2025-10-26T14:05	10	30	0.1	30	30	352	0.2	352	353	8.1	63.9
2025-10-26T14:06	10	30	0.2	30	30	352	0.2	352	353	8.1	64.2
2025-10-26T14:07	10	31	0.1	30	31	353	0.2	352	353	8.1	63.7
2025-10-26T14:08	10	31	0.4	31	32	353	0.4	352	353	8.1	63.7
2025-10-26T14:09	10	33	0.5	32	34	352	0.2	352	353	8.1	64.0
2025-10-26T14:10	10	34	0.1	34	34	353	0.2	352	353	8.1	64.0
2025-10-26T14:11	10	33	0.4	32	34	352	0.3	351	353	8.1	64.0
2025-10-26T14:12	10	32	0.3	32	33	352	0.3	351	353	8.1	64.1
2025-10-26T14:13	10	31	0.5	30	32	352	0.3	351	353	8.1	63.7
2025-10-26T14:14	10	29	0.4	29	30	352	0.2	352	353	8.1	64.5
2025-10-26T14:15	10	29	0.1	28	29	353	0.3	352	353	8.1	65.2
2025-10-26T14:16	10	37	7.2	29	50	353	0.9	351	354	8.1	65.2
2025-10-26T14:17	10	28	3.1	25	37	353	0.6	352	354	8.1	65.7
2025-10-26T14:18	10	25	0.2	24	25	352	0.2	352	353	8.1	66.2
2025-10-26T14:19	10	22	1.5	20	24	352	0.3	351	352	8.1	65.8
2025-10-26T14:20	10	19	0.2	19	20	351	0.3	350	352	8.1	65.8
2025-10-26T14:21	10	19	0.2	19	20	351	0.3	350	352	8.0	66.0
2025-10-26T14:22	10	20	0.4	20	21	351	0.2	350	351	8.0	66.1
2025-10-26T14:23	10	22	0.3	21	22	351	0.2	350	351	8.0	66.2
2025-10-26T14:24	10	21	0.1	21	21	351	0.2	351	351	8.0	67.5
2025-10-26T14:25	10	21	0.3	20	21	351	0.2	350	351	8.1	67.1
2025-10-26T14:26	10	20	0.3	19	20	351	0.2	350	351	8.1	67.9
2025-10-26T14:27	10	19	0.1	19	19	351	0.3	350	352	8.1	66.8
2025-10-26T14:28	10	19	0.6	18	21	350	0.3	350	351	8.1	65.7
2025-10-26T14:29	10	18	0.1	18	18	350	0.2	350	351	8.1	66.2
2025-10-26T14:30	10	18	0.1	17	18	350	0.2	350	351	8.1	66.7
2025-10-26T14:31	10	18	0.1	17	18	351	0.3	350	351	8.1	67.9
2025-10-26T14:32	10	17	0.2	17	18	351	0.2	350	351	8.1	66.3
2025-10-26T14:33	10	16	0.2	16	17	351	0.2	350	351	8.1	67.9
2025-10-26T14:34	10	16	0.2	15	16	350	0.2	350	351	8.1	67.6
2025-10-26T14:35	10	15	0.2	14	15	350	0.2	350	351	8.1	66.9
2025-10-26T14:36	10	14	0.3	13	14	350	0.5	349	351	8.1	65.7
2025-10-26T14:37	10	13	0.2	13	14	349	0.2	349	350	8.1	63.2
2025-10-26T14:38	10	12	0.2	12	13	349	0.2	349	350	8.1	66.1
2025-10-26T14:39	10	12	0.2	11	12	349	0.2	348	349	8.1	65.9
2025-10-26T14:40	10	11	0.2	11	11	349	0.2	348	349	8.1	66.1
2025-10-26T14:41	10	11	0.1	10	11	349	0.3	348	349	8.1	67.0
2025-10-26T14:42	10	10	0.1	10	11	349	0.3	348	349	8.0	67.5
2025-10-26T14:43	10	10	0.1	10	10	349	0.2	348	349	8.0	67.9
2025-10-26T14:44	10	10	0.1	10	10	348	0.2	348	349	8.0	67.7
2025-10-26T14:45	10	10	0.1	10	10	348	0.3	348	349	8.0	67.9
2025-10-26T14:46	10	10	0.1	10	10	348	0.2	348	349	8.0	68.0
2025-10-26T14:47	10	10	0.1	10	11	349	0.3	348	349	8.0	67.7
2025-10-26T14:48	10	11	0.2	11	11	349	0.3	348	349	8.0	67.9
2025-10-26T14:49	10	12	0.4	11	13	349	0.3	348	349	8.0	68.0
2025-10-26T14:50	10	14	0.5	13	15	349	0.2	348	349	8.0	68.2
2025-10-26T14:51	10	15	0.6	15	16	349	0.2	348	349	8.0	68.7
2025-10-26T14:52	10	17	0.5	16	18	348	0.2	348	349	8.0	67.8
2025-10-26T14:53	10	19	0.5	18	20	349	0.3	348	349	7.9	66.2
2025-10-26T14:54	10	20	0.3	19	21	349	0.4	348	349	7.9	68.6
2025-10-26T14:55	10	20	0.1	20	21	349	0.4	349	350	7.9	70.5
2025-10-26T14:56	10	20	0.4	19	20	349	0.3	349	350	7.9	70.0
2025-10-26T14:57	10	18	0.7	16	19	349	0.3	348	349	7.9	68.3
2025-10-26T14:58	10	15	0.7	14	16	348	0.3	348	349	7.9	68.1
2025-10-26T14:59	10	13	0.4	13	14	348	0.2	347	348	7.9	67.4
2025-10-26T15:00	10	12	0.2	12	13	348	0.2	347	348	7.9	67.6
2025-10-26T15:01	10	12	0.2	12	12	348	0.3	347	348	7.9	67.4
2025-10-26T15:02	10	12	0.1	11	12	347	0.2	347	348	7.9	66.2
2025-10-26T15:03	10	11	0.1	11	11	347	0.3	347	348	7.9	66.7
2025-10-26T15:04	10	11	0.1	11	12	347	0.2	347	348	7.9	65.9
2025-10-26T15:05	10	12	0.1	11	12	347	0.2	347	348	8.0	65.2
2025-10-26T15:06	10	12	0.1	12	12	347	0.2	347	348	8.0	65.0
2025-10-26T15:07	10	12	0.1	12	12	347	0.2	347	348	8.0	64.6
2025-10-26T15:08	10	13	0.2	12	13	347	0.2	347	348	8.1	63.7
2025-10-26T15:09	10	14	0.3	13	14	347	0.3	346	348	8.0	65.2
2025-10-26T15:10	10	15	0.4	14	16	348	0.2	347	348	8.0	66.0
2025-10-26T15:11	10	16	0.3	16	17	348	0.2	348	349	8.0	66.1
2025-10-26T15:12	10	17	0.3	17	18	348	0.2	348	349	8.0	66.6
2025-10-26T15:13	10	18	0.3	18	19	348	0.3	348	349	8.0	65.6
2025-10-26T15:14	10	19	0.5	18	20	349	0.2	348	349	8.0	66.1
2025-10-26T15:15	10	21	0.2	20	21	349	0.3	349	350	8.0	66.3
2025-10-26T15:16	10	20	0.4	19	21	350	0.2	349	350	8.0	66.0
2025-10-26T15:17	10	18	0.6	17	19	349	0.2	349	350	8.0	66.2
2025-10-26T15:18	10	16	0.4	16	17	349	0.4	348	350	8.1	64.6
2025-10-26T15:19	10	15	0.2	15	16	349	0.2	348	349	8.1	65.6
2025-10-26T15:20	10	15	0.3	14	15	349	0.3	348	349	8.1	66.6
2025-10-26T15:21	10	14	0.4	13	14	348	0.5	348	349	8.1	66.3
2025-10-26T15:22	10	12	0.4	12	13	348	0.4	347	348	8.1	63.1
2025-10-26T15:23	10	11	0.3	11	12	347	0.3	347	348	8.1	63.7
2025-10-26T15:24	10	10	0.2	10	11	347	0.2	347	348	8.1	63.7
2025-10-26T15:25	10	10	0.1	10	10	347	0.2	347	348	8.1	64.1
2025-10-26T15:26	10	9	0.1	9	10	347	0.3	347	348	8.1	63.5
2025-10-26T15:27	10	9	0.2	9	9	347	0.2	346	347	8.1	63.6
2025-10-26T15:28	10	8	0.1	8	9	347	0.2	346	347	8.1	64.2
2025-10-26T15:29	10	8	0.1	8	9	347	0.2	346	347	8.0	63.7
2025-10-26T15:30	10	9	0.1	8	9	347	0.2	346	347	8.0	64.4
2025-10-26T15:31	10	9	0.1	9	9	347	0.2	346	347	8.0	65.1
2025-10-26T15:32	10	9	0.1	9	9	347	0.2	346	347	7.9	65.4
2025-10-26T15:33	10	9	0.1	9	10	346	0.3	346	347	7.9	64.6
2025-10-26T15:34	10	9	0.1	9	10	346	0.3	346	347	7.9	64.8
2025-10-26T15:35	10	9	0.1	9	9	346	0.3	346	347	7.9	65.2
2025-10-26T15:36	10	9	0.2	8	9	346	0.3	346	347	7.8	65.3
2025-10-26T15:37	10	8	0.2	8	8	346	0.2	346	347	7.8	66.3
2025-10-26T15:38	10	7	0.2	7	8	346	0.2	346	347	7.8	65.8
2025-10-26T15:39	10	7	0.1	7	7	346	0.2	346	347	7.8	65.2
2025-10-26T15:40	10	7	0.1	7	7	346	0.2	345	346	7.8	65.5
2025-10-26T15:41	10	7	0.1	6	7	346	0.4	345	346	7.8	65.1
2025-10-26T15:42	10	7	0.1	6	7	346	0.2	345	346	7.8	65.3
2025-10-26T15:43	10	6	0.2	6	7	346	0.2	345	346	7.7	65.4
2025-10-26T15:44	10	6	0.2	5	6	346	0.2	345	346	7.7	65.7
2025-10-26T15:45	10	5	0.1	5	6	345	0.2	345	346	7.7	65.4
2025-10-26T15:46	10	5	0.1	5	5	345	0.2	345	346	7.7	65.7
2025-10-26T15:47	10	5	0.1	5	5	345	0.3	345	346	7.7	66.7
2025-10-26T15:48	10	5	0.1	5	5	345	0.3	345	346	7.7	67.5
2025-10-26T15:49	10	4	0.2	4	5	345	0.3	344	346	7.7	66.8
2025-10-26T15:50	10	4	0.2	3	4	345	0.2	344	345	7.7	66.2
2025-10-26T15:51	10	3	0.1	3	4	344	0.3	344	345	7.7	65.7
2025-10-26T15:52	10	3	0.1	3	3	344	0.2	344	345	7.6	66.3
2025-10-26T15:53	10	3	0.1	3	3	344	0.2	344	345	7.6	66.4
2025-10-26T15:54	10	3	0.1	3	3	344	0.2	344	345	7.6	65.9
2025-10-26T15:55	10	3	0.1	3	3	344	0.2	343	344	7.6	66.2
2025-10-26T15:56	10	3	0.1	3	4	344	0.2	343	344	7.6	67.2
2025-10-26T15:57	10	4	0.1	3	4	344	0.2	343	344	7.6	66.7
2025-10-26T15:58	10	4	0.1	4	4	344	0.3	343	344	7.6	66.3
2025-10-26T15:59	10	4	0.1	4	4	343	0.2	343	344	7.6	66.5
2025-10-26T16:00	10	3	0.1	3	4	343	0.2	343	344	7.6	66.8
2025-10-26T16:01	10	3	0.2	3	3	343	0.3	343	344	7.6	67.3
2025-10-26T16:02	10	3	0.1	2	3	343	0.2	343	344	7.6	67.1
2025-10-26T16:03	10	2	0.1	2	2	343	0.2	343	344	7.6	66.9
2025-10-26T16:04	10	2	0.1	2	2	344	0.2	343	344	7.6	66.9
2025-10-26T16:05	10	2	0.1	2	2	343	0.2	343	344	7.5	68.3
2025-10-26T16:06	10	2	0.1	2	2	344	0.2	343	344	7.5	67.8
2025-10-26T16:07	10	2	0.1	2	2	344	0.2	343	344	7.5	68.1
2025-10-26T16:08	10	2	0.1	1	2	344	0.2	343	344	7.5	68.3
2025-10-26T16:09	10	1	0.1	1	1	344	0.2	343	344	7.5	68.5
2025-10-26T16:10	10	1	0.1	1	1	344	0.2	343	344	7.5	68.4
2025-10-26T16:11	10	1	0.1	1	1	344	0.2	344	344	7.5	68.9
2025-10-26T16:12	10	1	0.1	1	2	344	0.2	343	344	7.5	68.3
2025-10-26T16:13	10	1	0.1	1	2	344	0.3	343	344	7.5	69.5
2025-10-26T16:14	10	1	0.1	1	2	344	0.2	344	345	7.5	68.8
2025-10-26T16:15	10	1	0.1	1	1	344	0.2	343	344	7.5	70.0
2025-10-26T16:16	10	1	0.1	1	1	344	0.2	343	344	7.4	70.7
2025-10-26T16:17	10	1	0.1	1	1	344	0.3	343	344	7.4	71.2
2025-10-26T16:18	10	1	0.0	0	1	343	0.2	343	344	7.4	71.3
2025-10-26T16:19	10	0	0.1	0	1	343	0.2	343	344	7.4	71.4
2025-10-26T16:20	10	0	0.1	0	1	343	0.2	343	344	7.4	71.8
2025-10-26T16:21	10	0	0.1	0	1	343	0.2	342	343	7.4	71.8
2025-10-26T16:22	10	0	0.1	0	0	343	0.2	342	343	7.3	73.0
2025-10-26T16:23	10	0	0.1	0	0	342	0.2	342	343	7.3	73.0
2025-10-26T16:24	10	0	0.1	0	0	342	0.2	342	343	7.3	73.2
2025-10-26T16:25	10	0	0.1	0	0	342	0.3	342	343	7.2	73.7
2025-10-26T16:26	10	0	0.1	0	0	342	0.2	342	342	7.2	73.6
2025-10-26T16:27	10	0	0.1	0	0	342	0.2	342	343	7.3	72.8
2025-10-26T16:28	10	0	0.1	0	0	342	0.2	341	342	7.2	73.3
2025-10-26T16:29	10	0	0.1	0	0	342	0.2	341	342	7.2	73.2
2025-10-26T16:30	10	0	0.1	0	0	342	0.3	341	342	7.2	73.3
2025-10-26T16:31	10	0	0.1	0	0	342	0.3	341	343	7.2	74.2
2025-10-26T16:32	10	0	0.1	0	0	342	0.3	341	343	7.2	74.5
2025-10-26T16:33	10	0	0.1	0	0	342	0.2	342	343	7.1	75.3
2025-10-26T16:34	10	0	0.1	0	0	342	0.3	341	342	7.1	74.9
2025-10-26T16:35	10	0	0.1	0	0	342	0.3	341	342	7.2	73.5
2025-10-26T16:36	10	0	0.1	0	0	342	0.3	341	342	7.2	73.3
2025-10-26T16:37	10	0	0.1	-1	0	341	0.2	341	342	7.2	72.6
2025-10-26T16:38	10	0	0.1	-1	0	341	0.2	341	342	7.2	73.2
2025-10-26T16:39	10	0	0.1	-1	0	341	0.3	340	341	7.2	72.1
2025-10-26T16:40	10	-1	0.1	-1	0	341	0.2	340	341	7.1	73.1
2025-10-26T16:41	10	-1	0.1	-1	0	341	0.2	340	341	7.1	73.9
2025-10-26T16:42	10	-1	0.1	-1	-1	341	0.2	340	341	7.1	73.7
2025-10-26T16:43	10	-1	0.1	-1	0	340	0.2	340	341	7.0	74.3
2025-10-26T16:44	10	0	0.1	-1	0	341	0.2	340	341	7.0	75.2
2025-10-26T16:45	10	0	0.1	-1	0	340	0.3	340	341	6.9	74.7
2025-10-26T16:46	10	0	0.1	-1	0	340	0.2	340	341	6.9	75.6
2025-10-26T16:47	10	0	0.1	0	0	340	0.3	340	341	6.9	75.7
2025-10-26T16:48	10	0	0.1	0	0	340	0.3	340	341	6.9	75.9
2025-10-26T16:49	10	0	0.1	0	0	340	0.2	340	341	6.8	77.7
2025-10-26T16:50	10	0	0.1	0	0	340	0.3	340	341	6.8	77.9
2025-10-26T16:51	10	0	0.1	0	0	341	0.2	340	341	6.8	77.0
2025-10-26T16:52	10	0	0.1	0	0	341	0.3	340	342	6.9	76.2
2025-10-26T16:53	10	0	0.1	0	0	341	0.3	340	341	7.0	75.1
2025-10-26T16:54	10	0	0.1	0	0	341	0.2	340	342	6.9	77.2
2025-10-26T16:55	10	0	0.1	0	0	341	0.2	340	341	6.8	78.2
2025-10-26T16:56	10	0	0.1	0	0	341	0.2	340	341	6.8	78.2
2025-10-26T16:57	10	0	0.1	0	0	341	0.2	340	341	6.8	78.4
2025-10-26T16:58	10	0	0.1	0	0	340	0.2	340	341	6.7	79.6
2025-10-26T16:59	10	0	0.1	0	0	340	0.2	340	341	6.6	80.1
2025-10-26T17:00	10	0	0.1	-1	0	340	0.2	340	341	6.6	80.2
2025-10-26T17:01	10	0	0.1	-1	0	340	0.2	340	340	6.6	79.2
2025-10-26T17:02	10	0	0.1	-1	0	340	0.2	339	341	6.6	80.7
2025-10-26T17:03	10	-1	0.1	-1	0	340	0.2	340	340	6.7	78.1
2025-10-26T17:04	10	-1	0.1	-1	0	340	0.2	339	340	6.5	81.1
2025-10-26T17:05	10	-1	0.1	-1	-1	340	0.2	339	340	6.6	80.0
2025-10-26T17:06	10	-1	0.1	-1	-1	340	0.2	339	340	6.6	79.0
2025-10-26T17:07	10	-1	0.1	-1	-1	340	0.2	339	341	6.6	80.1
2025-10-26T17:08	10	-1	0.1	-1	-1	340	0.2	340	340	6.5	80.7
2025-10-26T17:09	10	-1	0.1	-1	-1	340	0.3	339	341	6.5	81.7
2025-10-26T17:10	10	-1	0.1	-1	0	340	0.2	339	340	6.5	80.9
2025-10-26T17:11	10	-1	0.1	-1	0	340	0.3	339	340	6.5	80.7
2025-10-26T17:12	10	-1	0.1	-1	0	340	0.3	339	340	6.5	80.4
2025-10-26T17:13	10	-1	0.2	-1	-1	339	0.2	339	340	6.5	78.7
2025-10-26T17:14	10	-1	0.1	-2	-1	339	0.2	339	340	6.5	79.6
2025-10-26T17:15	10	-2	0.1	-2	-1	339	0.2	339	340	6.4	80.9
2025-10-26T17:16	10	-2	0.1	-2	-1	339	0.2	339	339	6.3	82.6
2025-10-26T17:17	10	-1	0.1	-2	-1	339	0.2	339	339	6.2	83.7
2025-10-26T17:18	10	-1	0.1	-1	-1	339	0.2	338	339	6.1	83.7
2025-10-26T17:19	10	-1	0.1	-1	-1	339	0.2	338	340	6.1	82.8
2025-10-26T17:20	10	-1	0.1	-1	-1	339	0.2	339	339	6.1	83.2
2025-10-26T17:21	10	-1	0.1	-1	-1	339	0.2	338	339	6.1	82.4
2025-10-26T17:22	10	-1	0.1	-1	-1	339	0.2	338	339	6.1	82.8
2025-10-26T17:23	10	-1	0.1	-1	-1	338	0.1	338	339	6.1	83.2
2025-10-26T17:24	10	-1	0.1	-1	-1	339	0.2	338	339	6.0	84.0
2025-10-26T17:25	10	-1	0.1	-1	-1	338	0.2	338	339	6.0	85.3
2025-10-26T17:26	10	-1	0.1	-1	-1	338	0.2	338	339	6.0	84.3
2025-10-26T17:27	10	-1	0.1	-2	-1	338	0.2	338	339	6.0	85.6
2025-10-26T17:28	10	-1	0.1	-1	-1	338	0.2	338	339	5.9	85.6
2025-10-26T17:29	10	-1	0.1	-1	-1	338	0.2	338	339	6.0	85.3
2025-10-26T17:30	10	-1	0.1	-1	-1	338	0.3	338	339	6.0	85.3
2025-10-26T17:31	10	-1	0.1	-1	-1	338	0.2	337	338	5.9	85.6
2025-10-26T17:32	10	-1	0.1	-1	-1	338	0.2	338	338	6.0	85.3
2025-10-26T17:33	10	-1	0.1	-1	-1	338	0.2	337	338	6.0	85.1
2025-10-26T17:34	10	-1	0.1	-1	0	338	0.3	337	339	6.1	84.6
2025-10-26T17:35	10	-1	0.1	-1	0	337	0.2	337	338	6.1	84.8
2025-10-26T17:36	10	0	0.1	-1	0	337	0.2	337	338	6.1	84.9
2025-10-26T17:37	10	0	0.1	-1	0	337	0.3	337	338	6.2	83.4
2025-10-26T17:38	10	0	0.1	-1	0	337	0.3	336	338	6.3	82.3
2025-10-26T17:39	10	0	0.2	-1	0	337	0.3	336	337	6.1	84.5
2025-10-26T17:40	10	0	0.1	-1	0	336	0.4	335	337	6.1	85.8
2025-10-26T17:41	10	0	0.1	-1	0	336	0.3	335	337	6.1	85.9
2025-10-26T17:42	10	-1	0.1	-1	0	335	0.2	335	336	6.0	86.1
2025-10-26T17:43	10	0	0.1	-1	0	335	0.2	334	335	6.1	85.8
2025-10-26T17:44	10	0	0.1	-1	0	335	0.3	334	336	6.0	86.3
2025-10-26T17:45	10	0	0.1	-1	0	335	0.2	334	335	6.0	86.0
2025-10-26T17:46	10	0	0.1	-1	0	335	0.2	334	335	6.1	84.9
2025-10-26T17:47	10	0	0.1	-1	0	335	0.2	334	335	6.2	84.4
2025-10-26T17:48	10	0	0.1	-1	0	335	0.2	334	335	6.1	84.8
2025-10-26T17:49	10	0	0.1	-1	0	334	0.2	334	335	6.0	86.1
2025-10-26T17:50	10	0	0.1	-1	0	335	0.2	334	335	6.0	86.5
2025-10-26T17:51	10	0	0.1	-1	0	335	0.2	334	335	6.1	86.0
2025-10-26T17:52	10	0	0.1	-1	0	335	0.2	335	335	6.1	85.8
2025-10-26T17:53	10	0	0.1	-1	0	335	0.2	335	336	6.1	86.1
2025-10-26T17:54	10	0	0.0	-1	0	335	0.2	335	336	6.1	85.8
2025-10-26T17:55	10	0	0.1	-1	0	335	0.2	334	335	6.1	86.5
2025-10-26T17:56	10	0	0.1	-1	0	335	0.3	334	335	6.1	86.2
2025-10-26T17:57	10	0	0.1	0	0	336	0.4	335	336	6.3	83.4
2025-10-26T17:58	10	0	0.1	-1	0	336	0.2	335	336	6.4	82.9
2025-10-26T17:59	10	0	0.1	-1	0	336	0.3	336	337	6.4	82.8
2025-10-26T18:00	10	0	0.1	-1	0	337	0.2	336	337	6.3	83.4
2025-10-26T18:01	10	0	0.1	-1	0	337	0.2	337	338	6.4	82.5
2025-10-26T18:02	10	0	0.1	-1	0	338	0.2	337	338	6.4	82.6
2025-10-26T18:03	10	0	0.1	-1	0	337	0.2	337	338	6.3	83.8
2025-10-26T18:04	10	0	0.1	-1	0	338	0.3	337	338	6.3	83.6
2025-10-26T18:05	10	0	0.1	-1	0	338	0.2	337	338	6.3	84.4
2025-10-26T18:06	10	0	0.1	-1	0	338	0.2	337	338	6.3	84.2
2025-10-26T18:07	10	0	0.1	-1	0	338	0.3	337	339	6.3	84.2
2025-10-26T18:08	10	0	0.1	-1	0	338	0.2	338	339	6.3	85.0
2025-10-26T18:09	10	0	0.0	0	0	338	0.2	337	339	6.3	85.3
2025-10-26T18:10	10	0	0.1	0	0	338	0.2	338	338	6.3	85.0
2025-10-26T18:11	10	0	0.1	0	0	338	0.2	338	339	6.3	85.0
2025-10-26T18:12	10	0	0.1	0	0	338	0.2	338	339	6.3	86.0
2025-10-26T18:13	10	0	0.1	0	0	339	0.2	338	339	6.3	85.6
2025-10-26T18:14	10	0	0.1	0	0	339	0.3	338	339	6.3	85.4
2025-10-26T18:15	10	0	0.1	0	0	338	0.2	338	339	6.3	85.3
2025-10-26T18:16	10	0	0.0	0	0	338	0.3	337	338	6.3	85.7
2025-10-26T18:17	10	0	0.0	0	0	338	0.2	337	338	6.3	86.2
2025-10-26T18:18	10	0	0.1	0	0	338	0.3	337	339	6.3	85.8
2025-10-26T18:19	10	0	0.1	0	0	338	0.2	338	339	6.3	86.0
2025-10-26T18:20	10	0	0.1	-1	0	338	0.3	338	339	6.3	86.1
2025-10-26T18:21	10	0	0.1	0	0	338	0.2	338	339	6.3	86.4
2025-10-26T18:22	10	0	0.1	0	0	338	0.3	337	338	6.3	86.5
2025-10-26T18:23	10	0	0.1	-1	0	337	0.3	337	338	6.3	86.7
2025-10-26T18:24	10	0	0.1	-1	0	337	0.2	336	337	6.2	87.3
2025-10-26T18:25	10	0	0.1	0	0	337	0.2	337	338	6.2	87.7
2025-10-26T18:26	10	0	0.1	0	0	337	0.2	337	338	6.2	87.8
2025-10-26T18:27	10	0	0.0	-1	0	338	0.3	337	338	6.2	88.0
2025-10-26T18:28	10	0	0.1	-1	0	338	0.2	337	339	6.2	88.0
2025-10-26T18:29	10	0	0.0	0	0	338	0.3	338	339	6.2	87.8
2025-10-26T18:30	10	0	0.1	0	0	338	0.2	338	339	6.2	88.0
2025-10-26T18:31	10	0	0.1	-1	0	338	0.2	337	339	6.2	87.9
2025-10-26T18:32	10	0	0.1	0	0	338	0.2	337	338	6.2	87.7
2025-10-26T18:33	10	0	0.1	-1	0	338	0.2	337	338	6.2	87.4
2025-10-26T18:34	10	0	0.1	-1	0	337	0.3	337	338	6.3	86.7
2025-10-26T18:35	10	0	0.1	-1	0	338	0.2	337	338	6.4	85.1
2025-10-26T18:36	10	-1	0.1	-1	0	338	0.2	337	338	6.4	84.4
2025-10-26T18:37	10	-1	0.1	-1	0	337	0.2	337	338	6.3	85.6
2025-10-26T18:38	10	0	0.1	-1	0	337	0.2	337	338	6.3	86.3
2025-10-26T18:39	10	0	0.1	0	0	337	0.2	337	338	6.2	86.9
2025-10-26T18:40	10	0	0.1	-1	0	338	0.2	338	339	6.2	86.8
2025-10-26T18:41	10	0	0.1	-1	0	338	0.2	338	339	6.2	87.2
2025-10-26T18:42	10	0	0.1	-1	0	339	0.3	338	339	6.3	85.8
2025-10-26T18:43	10	0	0.1	-1	0	339	0.2	339	340	6.4	85.2
2025-10-26T18:44	10	0	0.1	-1	0	339	0.2	339	340	6.4	85.2
2025-10-26T18:45	10	0	0.1	-1	0	339	0.2	339	340	6.4	85.2
2025-10-26T18:46	10	0	0.1	-1	0	339	0.2	339	340	6.4	85.2
2025-10-26T18:47	10	0	0.1	-1	0	339	0.2	339	340	6.4	85.2
2025-10-26T18:48	10	0	0.1	-1	0	339	0.3	339	340	6.4	85.2
2025-10-26T18:49	10	0	0.0	0	0	339	0.2	339	340	6.4	85.2
2025-10-26T18:50	10	0	0.1	0	0	339	0.3	339	340	6.4	85.2
2025-10-26T18:51	10	0	0.1	0	0	339	0.2	339	340	6.4	84.8
2025-10-26T18:52	10	0	0.1	0	0	340	0.3	339	340	6.5	83.5
2025-10-26T18:53	10	0	0.1	0	0	340	0.2	339	340	6.5	83.2
2025-10-26T18:54	10	0	0.1	0	0	340	0.2	339	340	6.6	82.9
2025-10-26T18:55	10	0	0.1	0	0	340	0.2	339	340	6.6	82.6
2025-10-26T18:56	10	0	0.1	0	0	340	0.2	339	340	6.6	82.8
2025-10-26T18:57	10	0	0.1	0	0	340	0.2	339	340	6.6	82.1
2025-10-26T18:58	10	0	0.1	0	0	340	0.3	339	340	6.7	81.3
2025-10-26T18:59	10	0	0.1	0	0	340	0.2	339	340	6.7	81.7
2025-10-26T19:00	10	0	0.1	0	0	340	0.3	339	341	6.7	81.4
2025-10-26T19:01	10	0	0.1	-1	0	340	0.2	339	340	6.7	81.4
2025-10-26T19:02	10	0	0.1	-1	0	340	0.3	339	340	6.6	81.8
2025-10-26T19:03	10	0	0.1	-1	0	340	0.3	339	340	6.6	81.8
2025-10-26T19:04	10	0	0.1	-1	0	340	0.2	339	340	6.6	82.4
2025-10-26T19:05	10	-1	0.1	-1	0	340	0.2	339	340	6.6	82.6
2025-10-26T19:06	10	-1	0.1	-1	0	340	0.2	339	340	6.5	83.1
2025-10-26T19:07	10	-1	0.1	-1	0	339	0.3	339	340	6.5	83.1
2025-10-26T19:08	10	-1	0.1	-1	-1	339	0.2	339	340	6.4	84.0
2025-10-26T19:09	10	-1	0.1	-1	0	339	0.2	339	340	6.5	83.0
2025-10-26T19:10	10	0	0.1	-1	0	339	0.2	339	340	6.5	83.6
2025-10-26T19:11	10	0	0.1	-1	0	339	0.3	339	340	6.5	83.4
2025-10-26T19:12	10	0	0.1	-1	0	339	0.2	339	340	6.4	84.1
2025-10-26T19:13	10	0	0.1	0	0	339	0.2	339	340	6.4	84.2
2025-10-26T19:14	10	0	0.1	-1	0	339	0.2	339	339	6.4	85.4
2025-10-26T19:15	10	0	0.1	-1	0	339	0.2	339	340	6.3	85.7
2025-10-26T19:16	10	0	0.1	-1	0	339	0.2	339	340	6.3	86.3
2025-10-26T19:17	10	0	0.1	0	0	339	0.2	338	340	6.3	86.7
2025-10-26T19:18	10	0	0.1	0	0	339	0.2	339	340	6.3	86.5
2025-10-26T19:19	10	0	0.1	0	0	340	0.2	339	340	6.3	85.8
2025-10-26T19:20	10	0	0.1	0	0	340	0.3	339	340	6.4	85.7
2025-10-26T19:21	10	0	0.1	-1	0	339	0.2	339	340	6.4	85.6
2025-10-26T19:22	10	0	0.1	-1	0	340	0.3	339	340	6.4	85.2
2025-10-26T19:23	10	0	0.1	0	0	340	0.2	339	340	6.3	86.3
2025-10-26T19:24	10	0	0.1	-1	0	340	0.2	339	340	6.3	86.3
2025-10-26T19:25	10	0	0.1	0	0	340	0.2	339	340	6.4	85.4
2025-10-26T19:26	10	0	0.1	-1	0	340	0.2	339	340	6.4	84.7
2025-10-26T19:27	10	0	0.1	0	0	340	0.2	339	340	6.5	84.2
2025-10-26T19:28	10	0	0.1	-1	0	340	0.2	339	340	6.5	83.9
2025-10-26T19:29	10	0	0.1	-1	0	340	0.3	339	340	6.5	84.4
2025-10-26T19:30	10	0	0.1	-1	0	340	0.2	339	340	6.5	84.7
2025-10-26T19:31	10	0	0.1	-1	0	340	0.2	339	340	6.5	84.7
2025-10-26T19:32	10	0	0.1	-1	0	340	0.2	339	340	6.5	84.5
2025-10-26T19:33	10	0	0.1	0	0	340	0.2	339	340	6.5	84.9
2025-10-26T19:34	10	0	0.1	-1	0	340	0.3	339	341	6.4	85.4
2025-10-26T19:35	10	0	0.1	-1	0	340	0.2	340	340	6.5	84.4
2025-10-26T19:36	10	0	0.1	-1	0	340	0.2	340	340	6.5	84.8
2025-10-26T19:37	10	0	0.1	-1	0	340	0.2	339	340	6.4	84.8
2025-10-26T19:38	10	0	0.1	-1	0	340	0.2	339	340	6.4	85.4
2025-10-26T19:39	10	0	0.0	0	0	340	0.2	339	340	6.4	86.0
2025-10-26T19:40	10	0	0.1	-1	0	340	0.2	339	340	6.4	84.7
2025-10-26T19:41	10	0	0.1	-1	0	340	0.2	339	340	6.5	84.4
2025-10-26T19:42	10	0	0.1	-1	0	339	0.2	339	340	6.5	84.7
2025-10-26T19:43	10	0	0.0	0	0	339	0.2	339	340	6.4	85.0
2025-10-26T19:44	10	0	0.1	0	0	339	0.2	339	340	6.4	85.4
2025-10-26T19:45	10	0	0.0	0	0	339	0.2	338	339	6.4	85.6
2025-10-26T19:46	10	0	0.1	0	0	339	0.3	338	340	6.4	85.2
2025-10-26T19:47	10	0	0.1	0	0	339	0.2	338	339	6.4	83.6
2025-10-26T19:48	10	0	0.1	0	0	339	0.2	338	340	6.5	83.0
2025-10-26T19:49	10	0	0.1	0	0	339	0.2	338	339	6.5	83.5
2025-10-26T19:50	10	0	0.0	0	0	339	0.2	338	339	6.4	83.8
2025-10-26T19:51	10	0	0.1	0	0	339	0.2	338	339	6.4	84.0
2025-10-26T19:52	10	0	0.0	0	0	338	0.3	338	339	6.4	84.8
2025-10-26T19:53	10	0	0.1	0	0	338	0.2	338	339	6.4	84.8
2025-10-26T19:54	10	0	0.1	0	0	338	0.2	337	338	6.3	85.3
2025-10-26T19:55	10	0	0.0	0	0	338	0.2	338	338	6.4	84.2
2025-10-26T19:56	10	0	0.1	-1	0	338	0.3	337	338	6.4	83.6
2025-10-26T19:57	10	0	0.1	0	0	338	0.2	337	338	6.3	84.6
2025-10-26T19:58	10	0	0.1	0	0	338	0.3	337	338	6.4	83.7
2025-10-26T19:59	10	0	0.1	0	0	337	0.2	337	338	6.3	84.4
2025-10-26T20:00	10	0	0.1	0	0	337	0.2	336	337	6.3	84.9
2025-10-26T20:01	10	0	0.1	0	0	337	0.2	336	337	6.3	84.6
2025-10-26T20:02	10	0	0.1	0	0	337	0.2	336	337	6.3	84.9
2025-10-26T20:03	10	0	0.0	0	0	337	0.2	336	337	6.3	83.7
2025-10-26T20:04	10	0	0.1	0	0	337	0.2	336	337	6.3	83.9
2025-10-26T20:05	10	0	0.1	-1	0	337	0.3	336	337	6.3	83.8
2025-10-26T20:06	10	0	0.1	0	0	337	0.3	336	337	6.3	84.1
2025-10-26T20:07	10	0	0.1	0	0	337	0.2	336	337	6.3	84.6
2025-10-26T20:08	10	0	0.1	0	0	337	0.2	336	337	6.3	84.5
2025-10-26T20:09	10	0	0.1	-1	0	337	0.2	336	337	6.3	83.9
2025-10-26T20:10	10	0	0.1	-1	0	337	0.2	336	337	6.3	83.9
2025-10-26T20:11	10	0	0.1	-1	0	337	0.3	336	338	6.3	83.5
2025-10-26T20:12	10	0	0.1	-1	0	337	0.2	337	338	6.3	83.7
2025-10-26T20:13	10	0	0.1	-1	0	337	0.2	337	338	6.4	83.2
2025-10-26T20:14	10	0	0.1	-1	0	337	0.2	337	338	6.4	83.3
2025-10-26T20:15	10	0	0.1	-1	0	337	0.3	337	338	6.4	82.8
2025-10-26T20:16	10	0	0.1	0	0	338	0.2	337	338	6.4	82.5
2025-10-26T20:17	10	0	0.1	0	0	337	0.3	337	338	6.4	82.6
2025-10-26T20:18	10	0	0.1	-1	0	337	0.2	336	338	6.4	82.7
2025-10-26T20:19	10	0	0.1	0	0	337	0.3	336	337	6.3	83.4
2025-10-26T20:20	10	0	0.1	0	0	337	0.3	336	337	6.3	83.8
2025-10-26T20:21	10	0	0.1	-1	0	337	0.2	336	337	6.3	83.7
2025-10-26T20:22	10	0	0.1	0	0	337	0.2	336	337	6.3	83.4
2025-10-26T20:23	10	0	0.1	0	0	337	0.2	337	337	6.4	82.0
2025-10-26T20:24	10	0	0.1	-1	0	337	0.2	336	337	6.3	82.6
2025-10-26T20:25	10	0	0.1	-1	0	337	0.2	336	337	6.3	83.3
2025-10-26T20:26	10	0	0.1	0	0	337	0.2	336	337	6.2	84.4
2025-10-26T20:27	10	0	0.0	0	0	337	0.2	336	337	6.2	84.3
2025-10-26T20:28	10	0	0.1	0	0	336	0.2	336	337	6.2	83.4
2025-10-26T20:29	10	0	0.1	0	0	336	0.2	336	337	6.3	83.3
2025-10-26T20:30	10	0	0.1	0	0	336	0.1	336	337	6.3	83.0
2025-10-26T20:31	10	0	0.1	0	0	336	0.3	336	337	6.2	83.3
2025-10-26T20:32	10	0	0.0	0	0	336	0.2	336	337	6.2	83.8
2025-10-26T20:33	10	0	0.1	0	0	336	0.2	336	337	6.2	83.4
2025-10-26T20:34	10	0	0.0	0	0	336	0.2	336	337	6.2	83.2
2025-10-26T20:35	10	0	0.0	0	0	336	0.3	336	337	6.2	83.7
2025-10-26T20:36	10	0	0.0	0	0	336	0.2	336	337	6.2	83.6
2025-10-26T20:37	10	0	0.1	0	0	337	0.2	336	337	6.2	83.4
2025-10-26T20:38	10	0	0.1	0	0	337	0.2	336	338	6.2	83.4
2025-10-26T20:39	10	0	0.1	0	0	337	0.2	336	337	6.2	84.1
2025-10-26T20:40	10	0	0.1	0	0	337	0.2	336	337	6.2	84.1
2025-10-26T20:41	10	0	0.1	0	0	337	0.2	337	337	6.2	83.6
2025-10-26T20:42	10	0	0.1	0	0	337	0.3	337	338	6.3	82.8
2025-10-26T20:43	10	0	0.1	0	0	338	0.2	337	338	6.3	82.8
2025-10-26T20:44	10	0	0.1	0	0	338	0.2	337	338	6.3	83.4
2025-10-26T20:45	10	0	0.1	0	0	338	0.3	337	338	6.3	83.3
2025-10-26T20:46	10	0	0.1	0	0	338	0.2	337	338	6.3	83.2
2025-10-26T20:47	10	0	0.1	0	0	338	0.2	337	338	6.3	82.8
2025-10-26T20:48	10	0	0.1	0	0	338	0.2	337	338	6.3	83.2
2025-10-26T20:49	10	0	0.1	0	0	338	0.3	337	338	6.2	83.5
2025-10-26T20:50	10	0	0.1	0	0	338	0.3	337	338	6.2	83.1
2025-10-26T20:51	10	0	0.1	0	0	337	0.2	337	338	6.2	83.0
2025-10-26T20:52	10	0	0.1	0	0	337	0.2	337	338	6.3	82.4
2025-10-26T20:53	10	0	0.1	0	0	337	0.2	337	338	6.3	81.9
2025-10-26T20:54	10	0	0.0	0	0	337	0.2	337	338	6.4	80.5
2025-10-26T20:55	10	0	0.1	0	0	337	0.2	337	337	6.5	78.7
2025-10-26T20:56	10	0	0.1	0	0	337	0.2	336	337	6.5	79.3
2025-10-26T20:57	10	0	0.1	0	0	337	0.2	336	337	6.4	79.9
2025-10-26T20:58	10	0	0.1	0	0	336	0.2	336	337	6.4	79.8
2025-10-26T20:59	10	0	0.1	0	0	336	0.3	336	337	6.4	79.9
2025-10-26T21:00	10	0	0.1	0	0	336	0.2	336	337	6.5	78.8
2025-10-26T21:01	10	0	0.1	0	0	336	0.2	336	337	6.4	79.8
2025-10-26T21:02	10	0	0.1	0	0	336	0.2	336	337	6.4	79.9
2025-10-26T21:03	10	0	0.1	0	0	336	0.2	336	337	6.4	79.8
2025-10-26T21:04	10	0	0.1	0	0	336	0.3	336	337	6.4	80.7
2025-10-26T21:05	10	0	0.1	0	0	337	0.2	336	337	6.4	79.3
2025-10-26T21:06	10	0	0.1	0	0	337	0.2	337	337	6.5	78.9
2025-10-26T21:07	10	0	0.1	0	0	337	0.2	337	338	6.5	77.8
2025-10-26T21:08	10	0	0.1	0	0	337	0.2	336	337	6.5	78.3
2025-10-26T21:09	10	0	0.1	0	0	337	0.2	336	337	6.5	79.3
2025-10-26T21:10	10	0	0.1	0	0	337	0.2	336	337	6.4	80.1
2025-10-26T21:11	10	0	0.1	-1	0	337	0.2	336	337	6.4	80.3
2025-10-26T21:12	10	0	0.0	0	0	337	0.2	337	338	6.4	79.4
2025-10-26T21:13	10	0	0.1	0	0	337	0.2	337	338	6.4	79.7
2025-10-26T21:14	10	0	0.1	0	0	337	0.2	337	338	6.4	79.6
2025-10-26T21:15	10	0	0.1	0	0	337	0.2	337	338	6.4	80.2
2025-10-26T21:16	10	0	0.1	0	0	337	0.2	337	337	6.4	80.6
2025-10-26T21:17	10	0	0.1	0	0	337	0.2	337	338	6.4	79.7
2025-10-26T21:18	10	0	0.1	-1	0	337	0.2	336	337	6.4	80.0
2025-10-26T21:19	10	0	0.1	0	0	337	0.2	336	337	6.4	80.6
2025-10-26T21:20	10	0	0.1	-1	0	337	0.2	336	338	6.3	80.9
2025-10-26T21:21	10	0	0.1	0	0	337	0.2	336	337	6.3	81.5
2025-10-26T21:22	10	0	0.1	0	0	337	0.3	337	338	6.3	80.9
2025-10-26T21:23	10	0	0.0	0	0	337	0.2	337	337	6.3	81.1
2025-10-26T21:24	10	0	0.1	0	0	337	0.3	336	337	6.3	82.1
2025-10-26T21:25	10	0	0.1	0	0	336	0.2	336	337	6.2	82.3
2025-10-26T21:26	10	0	0.1	0	0	336	0.2	336	337	6.3	81.8
2025-10-26T21:27	10	0	0.1	0	0	336	0.2	336	337	6.2	82.2
2025-10-26T21:28	10	0	0.1	0	0	337	0.2	336	337	6.2	81.8
2025-10-26T21:29	10	0	0.1	0	0	337	0.2	336	337	6.2	82.2
2025-10-26T21:30	10	0	0.1	0	0	337	0.2	336	338	6.2	82.7
2025-10-26T21:31	10	0	0.1	0	0	337	0.2	337	338	6.2	82.8
2025-10-26T21:32	10	0	0.1	0	0	337	0.3	337	338	6.2	82.2
2025-10-26T21:33	10	0	0.1	0	0	337	0.3	337	338	6.3	81.6
2025-10-26T21:34	10	0	0.1	0	0	338	0.3	337	338	6.3	81.0
2025-10-26T21:35	10	0	0.1	0	0	338	0.3	337	339	6.4	80.4
2025-10-26T21:36	10	0	0.1	0	0	338	0.3	337	339	6.3	81.3
2025-10-26T21:37	10	0	0.1	0	0	338	0.2	337	338	6.3	81.7
2025-10-26T21:38	10	0	0.1	0	0	338	0.2	337	338	6.3	81.6
2025-10-26T21:39	10	0	0.1	0	0	338	0.2	337	339	6.3	82.1
2025-10-26T21:40	10	0	0.1	0	0	338	0.2	337	338	6.3	81.4
2025-10-26T21:41	10	0	0.1	0	0	338	0.2	338	339	6.4	80.6
2025-10-26T21:42	10	0	0.1	0	0	338	0.2	338	339	6.4	80.6
2025-10-26T21:43	10	0	0.1	0	0	338	0.3	338	339	6.3	80.9
2025-10-26T21:44	10	0	0.1	0	0	338	0.2	338	339	6.3	80.8
2025-10-26T21:45	10	0	0.1	0	0	338	0.2	338	339	6.3	81.1
2025-10-26T21:46	10	0	0.1	0	0	338	0.2	338	339	6.4	80.8
2025-10-26T21:47	10	0	0.1	0	0	338	0.2	338	339	6.4	80.6
2025-10-26T21:48	10	0	0.1	0	0	338	0.2	338	339	6.4	80.6
2025-10-26T21:49	10	0	0.1	0	0	339	0.2	338	339	6.5	78.3
2025-10-26T21:50	10	0	0.1	0	0	339	0.2	338	339	6.5	78.8
2025-10-26T21:51	10	0	0.1	0	0	339	0.2	338	339	6.5	78.7
2025-10-26T21:52	10	0	0.1	0	0	339	0.3	338	339	6.5	78.7
2025-10-26T21:53	10	0	0.1	0	0	338	0.2	338	339	6.5	79.2
2025-10-26T21:54	10	0	0.1	0	0	338	0.2	338	339	6.5	79.6
2025-10-26T21:55	10	0	0.1	0	0	338	0.2	338	339	6.4	80.3
2025-10-26T21:56	10	0	0.1	0	0	338	0.2	338	339	6.4	80.3
2025-10-26T21:57	10	0	0.1	0	0	338	0.2	338	339	6.5	79.7
2025-10-26T21:58	10	0	0.1	0	0	338	0.2	338	339	6.5	79.7
2025-10-26T21:59	10	0	0.1	0	0	338	0.2	338	339	6.4	80.0
2025-10-26T22:00	10	0	0.1	0	0	338	0.3	338	339	6.5	79.6
2025-10-26T22:01	10	0	0.1	0	0	338	0.3	338	339	6.5	79.5
2025-10-26T22:02	10	0	0.1	0	0	338	0.3	337	339	6.5	79.2
2025-10-26T22:03	10	0	0.1	0	0	338	0.3	337	338	6.4	79.8
2025-10-26T22:04	10	0	0.1	0	0	338	0.2	337	338	6.5	79.1
2025-10-26T22:05	10	0	0.1	-1	0	338	0.2	337	338	6.4	79.4
2025-10-26T22:06	10	0	0.1	-1	0	337	0.2	337	338	6.5	78.2
2025-10-26T22:07	10	0	0.1	-1	0	338	0.2	337	338	6.6	77.4
2025-10-26T22:08	10	0	0.1	-1	0	337	0.2	337	338	6.6	77.5
2025-10-26T22:09	10	0	0.1	-1	0	337	0.2	337	338	6.6	77.3
2025-10-26T22:10	10	0	0.1	0	0	338	0.2	337	338	6.5	77.3
2025-10-26T22:11	10	0	0.1	-1	0	338	0.2	337	338	6.6	76.7
2025-10-26T22:12	10	0	0.1	-1	0	338	0.2	337	338	6.6	76.7
2025-10-26T22:13	10	0	0.1	-1	0	338	0.2	337	338	6.6	76.7
2025-10-26T22:14	10	0	0.1	-1	0	337	0.2	337	338	6.6	76.7
2025-10-26T22:15	10	0	0.1	-1	0	338	0.2	337	338	6.7	75.1
2025-10-26T22:16	10	-1	0.1	-1	0	338	0.3	337	338	6.7	75.0
2025-10-26T22:17	10	-1	0.1	-1	0	338	0.2	337	338	6.6	75.7
2025-10-26T22:18	10	0	0.1	-1	0	337	0.3	337	338	6.6	76.3
2025-10-26T22:19	10	0	0.1	-1	0	338	0.2	337	338	6.6	76.3
2025-10-26T22:20	10	0	0.1	-1	0	338	0.3	337	338	6.6	76.5
2025-10-26T22:21	10	0	0.1	-1	0	338	0.2	337	339	6.6	76.4
2025-10-26T22:22	10	0	0.1	0	0	338	0.2	337	338	6.6	75.9
2025-10-26T22:23	10	0	0.1	-1	0	338	0.3	337	339	6.6	76.1
2025-10-26T22:24	10	0	0.1	0	0	338	0.2	337	338	6.6	76.6
2025-10-26T22:25	10	0	0.1	0	0	338	0.3	337	338	6.6	76.7
2025-10-26T22:26	10	0	0.1	0	0	338	0.3	337	339	6.5	77.3
2025-10-26T22:27	10	0	0.1	0	0	338	0.2	337	338	6.5	77.7
2025-10-26T22:28	10	0	0.1	0	0	338	0.3	337	339	6.5	77.3
2025-10-26T22:29	10	0	0.1	0	0	338	0.2	338	338	6.6	77.0
2025-10-26T22:30	10	0	0.1	0	0	338	0.2	337	338	6.6	77.1
2025-10-26T22:31	10	0	0.1	0	0	338	0.3	337	339	6.6	77.4
2025-10-26T22:32	10	0	0.1	0	0	338	0.2	338	339	6.5	77.6
2025-10-26T22:33	10	0	0.2	-1	0	338	0.3	338	339	6.6	76.9
2025-10-26T22:34	10	0	0.1	0	0	338	0.2	338	339	6.6	77.0
2025-10-26T22:35	10	0	0.1	0	0	338	0.2	338	339	6.5	77.7
2025-10-26T22:36	10	0	0.1	0	0	338	0.3	337	339	6.5	78.1
2025-10-26T22:37	10	0	0.1	-1	0	338	0.2	338	338	6.5	78.7
2025-10-26T22:38	10	0	0.1	0	0	338	0.3	337	339	6.5	78.6
2025-10-26T22:39	10	0	0.1	0	0	338	0.3	337	339	6.5	78.5
2025-10-26T22:40	10	0	0.1	0	0	338	0.3	337	339	6.5	78.6
2025-10-26T22:41	10	0	0.1	0	0	338	0.2	338	339	6.5	78.7
2025-10-26T22:42	10	0	0.1	0	0	338	0.2	338	339	6.4	79.6
2025-10-26T22:43	10	0	0.1	0	0	338	0.3	338	339	6.5	79.1
2025-10-26T22:44	10	0	0.1	0	0	338	0.2	338	339	6.5	78.6
2025-10-26T22:45	10	0	0.2	0	0	338	0.2	338	339	6.5	78.8
2025-10-26T22:46	10	0	0.1	0	0	338	0.2	338	339	6.5	78.6
2025-10-26T22:47	10	0	0.1	0	0	339	0.2	338	339	6.5	78.7
2025-10-26T22:48	10	0	0.1	-1	0	339	0.3	338	339	6.5	79.1
2025-10-26T22:49	10	0	0.1	0	0	338	0.3	338	339	6.5	79.6
2025-10-26T22:50	10	0	0.1	0	0	339	0.2	338	339	6.4	79.6
2025-10-26T22:51	10	0	0.1	-1	0	339	0.2	338	339	6.5	79.5
2025-10-26T22:52	10	0	0.1	0	0	339	0.2	338	339	6.5	78.8
2025-10-26T22:53	10	0	0.2	0	0	339	0.2	338	339	6.6	77.8
2025-10-26T22:54	10	0	0.1	-1	0	339	0.3	338	340	6.7	77.1
2025-10-26T22:55	10	0	0.2	-1	0	339	0.3	338	339	6.7	76.8
2025-10-26T22:56	10	0	0.1	0	0	339	0.2	338	339	6.7	76.4
2025-10-26T22:57	10	0	0.1	-1	0	339	0.2	338	339	6.7	77.1
2025-10-26T22:58	10	0	0.1	-1	0	339	0.2	339	340	6.7	77.2
2025-10-26T22:59	10	0	0.1	-1	0	339	0.2	339	339	6.7	77.1
2025-10-26T23:00	10	0	0.1	-1	0	339	0.2	338	339	6.7	77.1
2025-10-26T23:01	10	-1	0.1	-1	0	339	0.2	338	339	6.7	77.5
2025-10-26T23:02	10	-1	0.1	-1	0	339	0.2	338	339	6.7	77.8
2025-10-26T23:03	10	0	0.1	-1	0	339	0.2	338	339	6.7	77.9
2025-10-26T23:04	10	0	0.2	-1	0	339	0.3	339	340	6.7	77.5
2025-10-26T23:05	10	-1	0.1	-1	0	339	0.2	338	339	6.7	78.1
2025-10-26T23:06	10	-1	0.1	-1	0	339	0.2	338	339	6.6	78.4
2025-10-26T23:07	10	-1	0.1	-1	0	339	0.2	338	339	6.6	78.3
2025-10-26T23:08	10	-1	0.1	-1	0	339	0.2	339	340	6.7	78.2
2025-10-26T23:09	10	0	0.1	-1	0	339	0.2	338	339	6.6	78.4
2025-10-26T23:10	10	0	0.1	-1	0	339	0.3	338	339	6.7	77.8
2025-10-26T23:11	10	0	0.1	-1	0	339	0.2	339	340	6.7	77.7
2025-10-26T23:12	10	0	0.1	-1	0	339	0.3	338	340	6.7	77.3
2025-10-26T23:13	10	-1	0.1	-1	0	339	0.2	339	340	6.7	77.5
2025-10-26T23:14	10	0	0.1	-1	0	339	0.3	338	340	6.7	77.3
2025-10-26T23:15	10	0	0.2	-1	0	339	0.2	339	339	6.7	77.6
2025-10-26T23:16	10	0	0.1	-1	0	339	0.2	338	340	6.7	77.1
2025-10-26T23:17	10	0	0.1	-1	0	339	0.3	338	340	6.7	77.5
2025-10-26T23:18	10	0	0.1	-1	0	339	0.3	338	339	6.7	77.6
2025-10-26T23:19	10	0	0.1	-1	0	339	0.3	339	340	6.8	76.8
2025-10-26T23:20	10	0	0.2	-1	0	339	0.2	339	340	6.8	76.4
2025-10-26T23:21	10	0	0.1	-1	0	339	0.3	339	340	6.8	76.8
2025-10-26T23:22	10	-1	0.2	-1	0	339	0.3	338	340	6.8	76.7
2025-10-26T23:23	10	-1	0.1	-1	0	339	0.3	339	340	6.8	76.4
2025-10-26T23:24	10	-1	0.1	-1	0	339	0.2	339	340	6.8	76.7
2025-10-26T23:25	10	-1	0.1	-1	0	339	0.3	339	340	6.8	77.0
2025-10-26T23:26	10	-1	0.2	-1	0	339	0.3	338	340	6.7	77.6
2025-10-26T23:27	10	0	0.1	-1	0	339	0.2	338	340	6.7	77.8
2025-10-26T23:28	10	0	0.1	-1	0	339	0.3	338	339	6.7	77.3
2025-10-26T23:29	10	0	0.1	-1	0	339	0.2	338	339	6.7	78.2
2025-10-26T23:30	10	0	0.1	-1	0	339	0.2	338	339	6.7	77.6
2025-10-26T23:31	10	0	0.1	-1	0	339	0.3	338	340	6.7	77.6
2025-10-26T23:32	10	0	0.2	-1	0	339	0.3	338	340	6.7	77.7
2025-10-26T23:33	10	-1	0.1	-1	0	339	0.2	338	339	6.7	77.3
2025-10-26T23:34	10	0	0.1	-1	0	339	0.3	338	339	6.7	77.5
2025-10-26T23:35	10	0	0.1	-1	0	339	0.2	338	339	6.8	76.5
2025-10-26T23:36	10	-1	0.1	-1	0	339	0.3	338	340	6.7	77.2
2025-10-26T23:37	10	-1	0.1	-1	0	339	0.3	338	339	6.7	77.1
2025-10-26T23:38	10	-1	0.1	-1	0	339	0.2	338	339	6.8	76.8
2025-10-26T23:39	10	-1	0.1	-1	0	339	0.2	338	339	6.8	76.5
2025-10-26T23:40	10	-1	0.1	-1	0	339	0.2	338	339	6.7	77.3
2025-10-26T23:41	10	-1	0.1	-1	0	339	0.3	338	339	6.7	77.6
2025-10-26T23:42	10	0	0.1	-1	0	339	0.2	338	339	6.7	77.0
2025-10-26T23:43	10	-1	0.1	-1	0	339	0.2	338	339	6.8	76.3
2025-10-26T23:44	10	-1	0.1	-1	0	339	0.2	338	339	6.8	76.1
2025-10-26T23:45	10	0	0.1	-1	0	339	0.3	338	339	6.8	76.4
2025-10-26T23:46	10	0	0.1	-1	0	339	0.3	338	339	6.7	76.6
2025-10-26T23:47	10	-1	0.1	-1	0	339	0.3	338	339	6.8	75.9
2025-10-26T23:48	10	-1	0.1	-1	0	339	0.2	338	339	6.8	75.4
2025-10-26T23:49	10	-1	0.1	-1	0	339	0.2	338	340	6.7	76.3
2025-10-26T23:50	10	-1	0.1	-1	0	339	0.2	339	340	6.8	74.8
2025-10-26T23:51	10	-1	0.1	-1	0	339	0.2	339	340	6.8	74.7
2025-10-26T23:52	10	-1	0.2	-1	0	339	0.3	338	340	6.8	74.9
2025-10-26T23:53	10	-1	0.2	-1	0	339	0.2	339	340	6.9	74.3
2025-10-26T23:54	10	-1	0.1	-1	0	339	0.3	338	340	6.8	74.4
2025-10-26T23:55	10	-1	0.1	-1	0	339	0.3	338	340	6.8	75.4
2025-10-26T23:56	10	-1	0.2	-1	0	339	0.3	338	340	6.8	75.0
2025-10-26T23:57	10	-1	0.1	-1	0	339	0.3	339	340	6.8	74.7
2025-10-26T23:58	10	0	0.2	-1	0	339	0.3	338	340	6.8	75.2
2025-10-26T23:59	10	0	0.1	-1	0	339	0.2	338	339	6.8	74.9
2025-10-27T00:00	10	0	0.1	-1	0	339	0.2	338	339	6.8	75.2
2025-10-27T00:01	10	0	0.1	-1	0	339	0.3	338	339	6.8	75.2
2025-10-27T00:02	10	0	0.1	-1	0	339	0.2	338	339	6.8	74.6
2025-10-27T00:03	10	0	0.1	-1	0	339	0.3	338	339	6.8	74.4
2025-10-27T00:04	10	0	0.1	-1	0	339	0.3	338	340	6.8	74.8
2025-10-27T00:05	10	0	0.1	-1	0	339	0.3	338	339	6.8	74.9
2025-10-27T00:06	10	0	0.1	-1	0	338	0.3	338	339	6.8	75.2
2025-10-27T00:07	10	0	0.1	-1	0	338	0.2	338	339	6.8	75.2
2025-10-27T00:08	10	-1	0.1	-1	0	339	0.3	338	339	6.8	74.9
2025-10-27T00:09	10	-1	0.2	-1	0	339	0.3	338	339	6.8	74.9
2025-10-27T00:10	10	-1	0.1	-1	0	339	0.2	338	339	6.8	74.9
2025-10-27T00:11	10	-1	0.1	-1	0	339	0.3	338	339	6.8	74.7
2025-10-27T00:12	10	-1	0.1	-1	0	339	0.2	338	339	6.9	74.3
2025-10-27T00:13	10	-1	0.1	-1	0	339	0.2	338	339	6.9	73.6
2025-10-27T00:14	10	-1	0.1	-1	0	339	0.3	338	339	6.9	74.5
2025-10-27T00:15	10	-1	0.1	-1	0	339	0.2	338	339	6.8	74.9
2025-10-27T00:16	10	-1	0.1	-1	0	339	0.2	338	339	6.9	74.4
2025-10-27T00:17	10	-1	0.1	-1	0	339	0.3	338	339	6.8	74.9
2025-10-27T00:18	10	-1	0.1	-1	0	339	0.3	338	339	6.9	73.8
2025-10-27T00:19	10	-1	0.1	-1	0	339	0.2	338	339	6.8	75.3
2025-10-27T00:20	10	-1	0.1	-1	0	339	0.2	338	339	6.9	74.2
2025-10-27T00:21	10	-1	0.1	-1	0	339	0.2	339	339	6.9	75.0
2025-10-27T00:22	10	-1	0.2	-1	0	339	0.3	338	340	6.9	75.0
2025-10-27T00:23	10	0	0.1	-1	0	339	0.2	339	340	6.9	74.5
2025-10-27T00:24	10	-1	0.1	-1	0	339	0.3	339	340	6.9	75.3
2025-10-27T00:25	10	-1	0.1	-1	0	339	0.2	339	340	6.9	74.8
2025-10-27T00:26	10	-1	0.1	-1	0	339	0.2	339	340	6.9	74.8
2025-10-27T00:27	10	-1	0.1	-1	0	339	0.3	339	340	6.9	74.6
2025-10-27T00:28	10	-1	0.1	-1	0	339	0.2	339	340	6.9	74.9
2025-10-27T00:29	10	-1	0.1	-1	0	339	0.2	339	340	6.9	75.2
2025-10-27T00:30	10	-1	0.1	-1	0	339	0.3	339	340	6.9	75.3
2025-10-27T00:31	10	-1	0.1	-1	0	339	0.3	339	340	6.9	74.4
2025-10-27T00:32	10	-1	0.1	-1	0	340	0.2	339	340	7.0	74.6
2025-10-27T00:33	10	-1	0.1	-1	0	340	0.3	339	340	6.9	75.3
2025-10-27T00:34	10	-1	0.1	-1	0	340	0.2	339	340	6.9	75.7
2025-10-27T00:35	10	0	0.1	-1	0	340	0.2	339	340	6.9	75.3
2025-10-27T00:36	10	-1	0.1	-1	0	340	0.2	339	340	6.9	75.4
2025-10-27T00:37	10	-1	0.1	-1	0	340	0.2	339	340	6.9	75.3
2025-10-27T00:38	10	-1	0.1	-1	0	340	0.2	339	340	6.9	75.6
2025-10-27T00:39	10	-1	0.1	-1	0	340	0.3	339	341	6.9	75.8
2025-10-27T00:40	10	-1	0.1	-1	0	340	0.3	339	341	6.9	75.8
2025-10-27T00:41	10	-1	0.1	-1	0	340	0.3	339	340	6.9	76.3
2025-10-27T00:42	10	-1	0.1	-1	0	340	0.3	339	340	6.8	76.8
2025-10-27T00:43	10	-1	0.1	-1	0	340	0.2	340	341	6.9	75.7
2025-10-27T00:44	10	-1	0.1	-1	0	340	0.3	339	340	6.9	75.5
2025-10-27T00:45	10	-1	0.1	-1	0	340	0.3	339	340	6.9	75.9
2025-10-27T00:46	10	-1	0.1	-1	-1	340	0.2	339	340	6.9	76.0
2025-10-27T00:47	10	-1	0.1	-1	0	340	0.2	339	340	6.9	75.9
2025-10-27T00:48	10	-1	0.2	-1	0	340	0.3	339	341	6.9	75.7
2025-10-27T00:49	10	-1	0.1	-1	0	340	0.2	339	340	6.9	76.2
2025-10-27T00:50	10	-1	0.2	-1	0	340	0.3	339	341	6.9	75.8
2025-10-27T00:51	10	-1	0.1	-1	0	340	0.2	339	340	6.9	75.7
2025-10-27T00:52	10	-1	0.2	-1	0	340	0.2	339	341	6.9	76.9
2025-10-27T00:53	10	-1	0.1	-1	0	340	0.3	339	340	6.9	76.7
2025-10-27T00:54	10	-1	0.1	-1	0	340	0.2	339	340	6.9	76.4
2025-10-27T00:55	10	-1	0.1	-1	-1	340	0.2	339	340	6.9	76.5
2025-10-27T00:56	10	-1	0.2	-1	-1	340	0.3	339	340	6.9	75.5
2025-10-27T00:57	10	-1	0.2	-2	-1	340	0.2	340	341	6.9	75.7
2025-10-27T00:58	10	-2	0.2	-2	-1	340	0.3	339	341	6.9	75.5
2025-10-27T00:59	10	-2	0.1	-2	-2	340	0.2	339	340	6.8	76.6
2025-10-27T01:00	10	-2	0.1	-2	-1	340	0.3	339	340	6.8	76.6
2025-10-27T01:01	10	-2	0.1	-2	-1	340	0.2	339	340	6.8	76.7
2025-10-27T01:02	10	-2	0.1	-2	-1	340	0.2	339	340	6.9	76.3
2025-10-27T01:03	10	-2	0.1	-2	-1	340	0.3	339	340	6.8	76.9
2025-10-27T01:04	10	-2	0.1	-2	-1	340	0.3	339	340	6.8	77.7
2025-10-27T01:05	10	-1	0.1	-2	-1	339	0.3	339	340	6.8	77.1
2025-10-27T01:06	10	-1	0.1	-2	-1	340	0.2	339	340	6.8	76.8
2025-10-27T01:07	10	-1	0.1	-2	-1	339	0.3	339	340	6.8	77.3
2025-10-27T01:08	10	-1	0.1	-2	-1	339	0.2	339	340	6.7	77.8
2025-10-27T01:09	10	-1	0.1	-1	-1	339	0.2	339	340	6.7	77.8
2025-10-27T01:10	10	-1	0.1	-1	-1	339	0.2	339	340	6.7	77.4
2025-10-27T01:11	10	-1	0.1	-1	-1	339	0.2	339	340	6.7	77.2
2025-10-27T01:12	10	-1	0.1	-1	-1	339	0.3	339	340	6.7	77.9
2025-10-27T01:13	10	-1	0.1	-1	-1	339	0.2	339	340	6.7	77.4
2025-10-27T01:14	10	-1	0.1	-1	-1	339	0.2	339	340	6.7	77.1
2025-10-27T01:15	10	-1	0.1	-1	-1	339	0.2	339	340	6.7	77.8
2025-10-27T01:16	10	-1	0.1	-1	0	339	0.3	339	340	6.6	78.3
2025-10-27T01:17	10	-1	0.1	-1	0	339	0.2	339	340	6.7	77.7
2025-10-27T01:18	10	-1	0.1	-1	-1	339	0.2	339	340	6.7	77.7
2025-10-27T01:19	10	-1	0.1	-1	-1	339	0.2	339	340	6.7	77.4
2025-10-27T01:20	10	-1	0.1	-1	-1	339	0.3	338	340	6.7	77.3
2025-10-27T01:21	10	-1	0.1	-1	-1	339	0.2	339	340	6.7	77.3
2025-10-27T01:22	10	-1	0.1	-1	-1	339	0.2	339	340	6.7	76.7
2025-10-27T01:23	10	-1	0.1	-1	0	339	0.3	339	340	6.6	77.6
2025-10-27T01:24	10	-1	0.1	-1	-1	339	0.3	339	340	6.6	77.9
2025-10-27T01:25	10	-1	0.1	-1	-1	339	0.2	339	339	6.6	77.2
2025-10-27T01:26	10	-1	0.1	-1	-1	339	0.2	339	339	6.7	77.2
2025-10-27T01:27	10	-1	0.1	-1	0	339	0.2	339	340	6.7	76.3
2025-10-27T01:28	10	-1	0.1	-1	0	339	0.2	339	340	6.7	76.3
2025-10-27T01:29	10	-1	0.1	-1	-1	339	0.3	338	340	6.7	76.1
2025-10-27T01:30	10	-1	0.1	-1	-1	339	0.2	339	340	6.7	75.4
2025-10-27T01:31	10	-1	0.1	-1	-1	339	0.3	338	340	6.7	75.4
2025-10-27T01:32	10	-1	0.1	-1	-1	339	0.2	339	339	6.7	76.1
2025-10-27T01:33	10	-1	0.1	-1	0	339	0.2	338	339	6.7	75.8
2025-10-27T01:34	10	-1	0.1	-1	0	339	0.2	338	339	6.7	75.8
2025-10-27T01:35	10	-1	0.1	-1	0	339	0.2	338	339	6.6	76.6
2025-10-27T01:36	10	-1	0.1	-1	-1	339	0.3	338	339	6.7	76.1
2025-10-27T01:37	10	-1	0.1	-1	-1	339	0.2	338	339	6.7	75.2
2025-10-27T01:38	10	-1	0.1	-1	0	339	0.2	339	340	6.7	75.2
2025-10-27T01:39	10	-1	0.1	-1	-1	339	0.2	338	339	6.7	75.2
2025-10-27T01:40	10	-1	0.1	-1	-1	339	0.2	338	339	6.7	75.3
2025-10-27T01:41	10	-1	0.2	-1	-1	339	0.2	338	340	6.7	75.3
2025-10-27T01:42	10	-1	0.1	-1	-1	339	0.3	338	339	6.7	75.8
2025-10-27T01:43	10	-1	0.1	-1	0	339	0.2	338	339	6.7	76.2
2025-10-27T01:44	10	-1	0.1	-1	-1	339	0.2	338	339	6.7	76.1
2025-10-27T01:45	10	-1	0.1	-1	-1	339	0.2	338	339	6.6	76.5
2025-10-27T01:46	10	-1	0.1	-1	0	339	0.2	338	339	6.6	76.7
2025-10-27T01:47	10	-1	0.2	-1	0	339	0.2	338	339	6.6	76.1
2025-10-27T01:48	10	-1	0.1	-1	-1	339	0.3	338	339	6.6	76.7
2025-10-27T01:49	10	-1	0.2	-1	0	339	0.2	338	339	6.6	76.7
2025-10-27T01:50	10	-1	0.1	-1	0	339	0.2	338	339	6.6	76.6
2025-10-27T01:51	10	-1	0.1	-1	0	339	0.2	338	339	6.6	76.8
2025-10-27T01:52	10	-1	0.1	-1	0	339	0.3	338	339	6.6	76.4
2025-10-27T01:53	10	-1	0.1	-1	0	339	0.2	338	339	6.7	76.1
2025-10-27T01:54	10	-1	0.1	-1	0	339	0.3	338	339	6.6	76.9
2025-10-27T01:55	10	-1	0.1	-1	0	338	0.3	338	339	6.6	77.0
2025-10-27T01:56	10	-1	0.1	-1	0	339	0.3	338	339	6.6	76.7
2025-10-27T01:57	10	-1	0.1	-1	0	339	0.3	338	339	6.6	76.9
2025-10-27T01:58	10	-1	0.2	-1	0	339	0.3	338	339	6.7	76.2
2025-10-27T01:59	10	-1	0.1	-1	-1	339	0.2	338	339	6.6	76.9
2025-10-27T02:00	10	-1	0.1	-1	0	339	0.3	338	339	6.6	77.1
2025-10-27T02:01	10	-1	0.1	-1	0	339	0.3	338	339	6.6	76.8
2025-10-27T02:02	10	-1	0.1	-1	0	339	0.3	339	340	6.6	76.4
2025-10-27T02:03	10	-1	0.1	-1	-1	339	0.2	339	340	6.7	76.5
2025-10-27T02:04	10	-1	0.1	-1	0	339	0.2	338	340	6.7	76.5
2025-10-27T02:05	10	-1	0.1	-1	0	339	0.2	338	339	6.7	76.3
2025-10-27T02:06	10	-1	0.1	-1	0	339	0.2	339	339	6.7	76.5
2025-10-27T02:07	10	-1	0.1	-1	-1	339	0.2	338	339	6.6	77.0
2025-10-27T02:08	10	-1	0.1	-1	0	339	0.3	338	339	6.6	77.5
2025-10-27T02:09	10	0	0.1	-1	0	338	0.3	338	339	6.5	78.1
2025-10-27T02:10	10	0	0.1	-1	0	339	0.3	338	339	6.6	77.7
2025-10-27T02:11	10	-1	0.1	-1	0	339	0.2	339	340	6.7	76.3
2025-10-27T02:12	10	-1	0.1	-1	0	339	0.3	338	339	6.7	76.8
2025-10-27T02:13	10	-1	0.1	-1	-1	339	0.2	339	340	6.7	76.9
2025-10-27T02:14	10	-1	0.1	-1	0	339	0.2	338	339	6.7	77.1
2025-10-27T02:15	10	-1	0.1	-1	0	339	0.2	338	339	6.6	77.7
2025-10-27T02:16	10	-1	0.1	-1	0	339	0.3	338	339	6.6	78.0
2025-10-27T02:17	10	0	0.2	-1	0	339	0.2	338	339	6.6	78.4
2025-10-27T02:18	10	0	0.2	-1	0	339	0.2	338	339	6.6	78.4
2025-10-27T02:19	10	-1	0.1	-1	0	339	0.3	338	339	6.6	77.7
2025-10-27T02:20	10	-1	0.1	-1	0	339	0.2	338	339	6.6	77.7
2025-10-27T02:21	10	-1	0.2	-1	0	339	0.2	338	339	6.6	78.1
2025-10-27T02:22	10	-1	0.2	-1	0	339	0.3	338	340	6.6	78.4
2025-10-27T02:23	10	-1	0.2	-1	0	339	0.3	338	339	6.6	78.5
2025-10-27T02:24	10	-1	0.1	-1	0	339	0.2	338	339	6.6	78.3
2025-10-27T02:25	10	0	0.1	-1	0	339	0.3	338	339	6.6	78.4
2025-10-27T02:26	10	-1	0.1	-1	0	339	0.2	338	339	6.6	78.9
2025-10-27T02:27	10	-1	0.1	-1	0	339	0.3	338	340	6.6	78.1
2025-10-27T02:28	10	-1	0.2	-1	0	339	0.4	338	340	6.7	77.6
2025-10-27T02:29	10	-1	0.1	-1	-1	339	0.3	339	340	6.7	77.5
2025-10-27T02:30	10	-1	0.1	-1	-1	339	0.2	338	340	6.7	78.1
2025-10-27T02:31	10	-1	0.1	-1	-1	339	0.3	338	339	6.6	78.2
2025-10-27T02:32	10	-1	0.1	-1	-1	339	0.2	338	339	6.6	79.0
2025-10-27T02:33	10	-1	0.1	-1	-1	339	0.3	338	339	6.6	78.6
2025-10-27T02:34	10	-1	0.1	-1	-1	339	0.3	338	339	6.6	78.5
2025-10-27T02:35	10	-1	0.1	-1	-1	339	0.2	338	339	6.6	78.1
2025-10-27T02:36	10	-1	0.1	-1	-1	339	0.2	338	339	6.6	78.8
2025-10-27T02:37	10	-1	0.1	-1	-1	339	0.2	338	339	6.6	78.8
2025-10-27T02:38	10	-1	0.1	-1	-1	339	0.2	338	339	6.6	79.1
2025-10-27T02:39	10	-1	0.2	-1	0	339	0.2	338	339	6.6	79.2
2025-10-27T02:40	10	-1	0.1	-1	-1	339	0.3	338	339	6.5	79.5
2025-10-27T02:41	10	-1	0.1	-1	0	339	0.2	338	339	6.6	79.3
2025-10-27T02:42	10	-1	0.1	-1	-1	339	0.2	338	339	6.6	79.3
2025-10-27T02:43	10	-1	0.1	-1	-1	339	0.3	338	339	6.6	79.0
2025-10-27T02:44	10	-1	0.1	-1	-1	339	0.2	338	339	6.6	79.0
2025-10-27T02:45	10	-1	0.1	-2	-1	339	0.2	338	339	6.6	78.3
2025-10-27T02:46	10	-2	0.1	-2	-1	339	0.2	338	339	6.7	77.8
2025-10-27T02:47	10	-2	0.1	-2	-1	339	0.2	338	339	6.6	78.6
2025-10-27T02:48	10	-2	0.2	-2	-1	339	0.2	338	339	6.5	79.7
2025-10-27T02:49	10	-2	0.1	-2	-2	339	0.3	338	339	6.6	79.3
2025-10-27T02:50	10	-2	0.1	-2	-2	339	0.4	338	339	6.5	79.9
2025-10-27T02:51	10	-2	0.1	-2	-2	338	0.3	338	339	6.5	80.7
2025-10-27T02:52	10	-2	0.1	-2	-2	338	0.2	338	339	6.4	80.9
2025-10-27T02:53	10	-2	0.1	-2	-2	338	0.3	338	339	6.4	81.5
2025-10-27T02:54	10	-2	0.1	-2	-2	338	0.2	338	339	6.4	82.0
2025-10-27T02:55	10	-2	0.1	-2	-1	338	0.2	337	338	6.3	82.3
2025-10-27T02:56	10	-2	0.1	-2	-2	338	0.3	337	339	6.3	82.4
2025-10-27T02:57	10	-2	0.1	-2	-1	338	0.3	338	339	6.3	82.7
2025-10-27T02:58	10	-2	0.1	-2	-1	338	0.3	337	339	6.3	83.1
2025-10-27T02:59	10	-2	0.1	-2	-1	338	0.2	337	338	6.2	83.4
2025-10-27T03:00	10	-2	0.1	-2	-1	338	0.3	337	339	6.3	83.1
2025-10-27T03:01	10	-2	0.1	-2	-1	338	0.2	337	338	6.3	82.2
2025-10-27T03:02	10	-2	0.1	-2	-2	338	0.2	337	338	6.3	81.7
2025-10-27T03:03	10	-2	0.1	-2	-2	338	0.2	338	339	6.3	82.4
2025-10-27T03:04	10	-2	0.1	-2	-2	338	0.2	337	338	6.2	83.2
2025-10-27T03:05	10	-2	0.1	-2	-2	338	0.3	337	339	6.3	82.7
2025-10-27T03:06	10	-2	0.1	-2	-2	338	0.2	337	338	6.2	83.0
2025-10-27T03:07	10	-2	0.1	-2	-1	338	0.3	337	339	6.3	82.2
2025-10-27T03:08	10	-2	0.1	-2	-2	338	0.2	337	338	6.3	82.4
2025-10-27T03:09	10	-2	0.1	-2	-2	338	0.2	337	338	6.3	81.7
2025-10-27T03:10	10	-2	0.1	-2	-2	338	0.3	337	338	6.3	82.4
2025-10-27T03:11	10	-2	0.1	-2	-2	338	0.2	337	338	6.3	82.3
2025-10-27T03:12	10	-2	0.1	-3	-2	338	0.3	337	338	6.3	82.3
2025-10-27T03:13	10	-3	0.1	-3	-2	338	0.3	337	338	6.3	82.1
2025-10-27T03:14	10	-3	0.1	-3	-2	337	0.2	337	338	6.2	83.0
2025-10-27T03:15	10	-3	0.1	-3	-2	337	0.2	337	338	6.2	82.9
2025-10-27T03:16	10	-3	0.1	-3	-2	337	0.2	337	338	6.1	83.5
2025-10-27T03:17	10	-3	0.1	-3	-2	337	0.2	337	338	6.2	82.9
2025-10-27T03:18	10	-2	0.7	-3	1	337	0.2	337	338	6.2	83.2
2025-10-27T03:19	10	-3	0.1	-3	-2	337	0.3	337	338	6.2	83.0
2025-10-27T03:20	10	-3	0.1	-3	-2	337	0.2	337	338	6.1	84.0
2025-10-27T03:21	10	-3	0.1	-3	-2	337	0.2	337	338	6.1	83.7
2025-10-27T03:22	10	-3	0.1	-3	-2	337	0.2	337	338	6.2	82.9
2025-10-27T03:23	10	-3	0.1	-3	-2	337	0.3	337	338	6.3	81.9
2025-10-27T03:24	10	-3	0.1	-3	-3	337	0.2	337	338	6.2	82.2
2025-10-27T03:25	10	-3	0.1	-3	-3	337	0.2	337	338	6.2	82.6
2025-10-27T03:26	10	-3	0.1	-3	-3	337	0.3	337	338	6.2	82.8
2025-10-27T03:27	10	-3	0.1	-3	-3	337	0.2	337	338	6.1	83.6
2025-10-27T03:28	10	-3	0.1	-3	-3	337	0.3	337	338	6.1	83.8
2025-10-27T03:29	10	-3	0.1	-3	-3	337	0.3	337	338	6.1	84.0
2025-10-27T03:30	10	-3	0.1	-3	-2	337	0.2	337	338	6.1	84.4
2025-10-27T03:31	10	-3	0.1	-3	-2	337	0.2	337	338	6.1	84.7
2025-10-27T03:32	10	-3	0.1	-3	-2	337	0.2	336	338	6.0	85.1
2025-10-27T03:33	10	-3	0.1	-3	-3	337	0.3	337	338	6.1	84.8
2025-10-27T03:34	10	-3	0.1	-3	-3	337	0.2	337	338	6.1	85.0
2025-10-27T03:35	10	-3	0.1	-3	-3	337	0.2	337	338	6.1	84.8
2025-10-27T03:36	10	-3	0.1	-3	-3	337	0.2	337	338	6.0	85.6
2025-10-27T03:37	10	-3	0.1	-3	-3	337	0.2	337	337	5.9	86.3
2025-10-27T03:38	10	-3	0.1	-3	-3	337	0.3	336	338	6.0	86.3
2025-10-27T03:39	10	-3	0.1	-3	-2	337	0.2	337	338	6.0	85.4
2025-10-27T03:40	10	-3	0.0	-3	-3	337	0.2	337	338	6.0	86.3
2025-10-27T03:41	10	-3	0.0	-3	-3	337	0.3	336	338	6.0	85.6
2025-10-27T03:42	10	-3	0.1	-3	-3	337	0.2	336	337	6.0	86.2
2025-10-27T03:43	10	-3	0.1	-3	-3	337	0.2	336	337	6.0	86.4
2025-10-27T03:44	10	-3	0.1	-3	-3	337	0.3	337	338	6.0	85.7
2025-10-27T03:45	10	-3	0.1	-3	-3	337	0.2	336	337	6.1	85.0
2025-10-27T03:46	10	-3	0.1	-3	-3	337	0.3	336	337	6.1	84.5
2025-10-27T03:47	10	-3	0.1	-3	-3	337	0.2	336	337	6.0	85.6
2025-10-27T03:48	10	-3	0.1	-3	-2	337	0.2	337	337	6.0	85.7
2025-10-27T03:49	10	-2	0.3	-3	-1	337	0.2	337	337	6.0	85.7
2025-10-27T03:50	10	-2	0.1	-3	-2	337	0.2	336	337	6.0	85.9
2025-10-27T03:51	10	-2	0.1	-3	-2	337	0.2	337	338	6.0	85.2
2025-10-27T03:52	10	-3	0.1	-3	-3	337	0.3	337	338	6.1	85.0
2025-10-27T03:53	10	-3	0.0	-3	-3	337	0.2	336	337	5.9	86.5
2025-10-27T03:54	10	-3	0.1	-3	-3	337	0.3	336	338	5.9	86.5
2025-10-27T03:55	10	-3	0.1	-3	-3	337	0.3	336	337	5.9	86.4
2025-10-27T03:56	10	-3	0.1	-3	-3	337	0.2	336	337	6.0	86.1
2025-10-27T03:57	10	-3	0.1	-3	-3	337	0.2	336	337	6.1	84.7
2025-10-27T03:58	10	-3	0.0	-3	-3	336	0.2	336	337	6.0	85.2
2025-10-27T03:59	10	-3	0.1	-3	-3	337	0.3	336	337	6.0	85.9
2025-10-27T04:00	10	-3	0.1	-3	-2	337	0.2	336	337	5.9	86.1
2025-10-27T04:01	10	-2	0.1	-3	-2	337	0.2	336	337	6.0	85.4
2025-10-27T04:02	10	-2	0.1	-3	-2	337	0.2	336	337	6.0	85.1
2025-10-27T04:03	10	-3	0.1	-3	-2	337	0.3	336	337	6.0	84.9
2025-10-27T04:04	10	-3	0.1	-3	-3	337	0.3	336	337	6.1	84.4
2025-10-27T04:05	10	-3	0.1	-3	-2	337	0.2	336	337	6.0	85.4
2025-10-27T04:06	10	-3	0.1	-3	-2	337	0.3	336	337	6.1	84.3
2025-10-27T04:07	10	-3	0.1	-3	-2	337	0.3	336	338	6.1	84.5
2025-10-27T04:08	10	-2	0.1	-3	-2	337	0.2	336	337	6.1	84.9
2025-10-27T04:09	10	-2	0.1	-2	-2	337	0.3	336	337	6.1	84.6
2025-10-27T04:10	10	-2	0.1	-2	-2	337	0.2	336	337	6.0	85.4
2025-10-27T04:11	10	-2	0.0	-2	-2	337	0.2	337	337	6.1	84.9
2025-10-27T04:12	10	-2	0.1	-2	-2	337	0.2	337	338	6.2	83.0
2025-10-27T04:13	10	-2	0.1	-2	-2	337	0.2	337	337	6.2	83.4
2025-10-27T04:14	10	-2	0.1	-2	-2	337	0.2	337	338	6.2	83.6
2025-10-27T04:15	10	-2	0.1	-2	-2	337	0.2	337	337	6.1	83.8
2025-10-27T04:16	10	-2	0.1	-2	-2	337	0.3	336	338	6.1	84.2
2025-10-27T04:17	10	-2	0.1	-2	-2	337	0.2	337	338	6.1	84.8
2025-10-27T04:18	10	-2	0.0	-2	-2	337	0.2	337	338	6.1	84.2
2025-10-27T04:19	10	-2	0.1	-2	-2	337	0.3	337	338	6.2	83.7
2025-10-27T04:20	10	-2	0.1	-2	-2	337	0.2	337	338	6.1	84.2
2025-10-27T04:21	10	-2	0.0	-2	-2	337	0.2	337	338	6.1	84.4
2025-10-27T04:22	10	-2	0.1	-2	-2	337	0.2	337	338	6.2	83.8
2025-10-27T04:23	10	-2	0.1	-2	-2	337	0.3	337	338	6.1	85.0
2025-10-27T04:24	10	-2	0.1	-2	-2	337	0.3	337	338	6.1	85.6
2025-10-27T04:25	10	-2	0.1	-2	-2	337	0.3	337	338	6.1	85.4
2025-10-27T04:26	10	-2	0.1	-2	-2	337	0.2	337	338	6.1	85.6
2025-10-27T04:27	10	-2	0.1	-2	-2	337	0.2	337	338	6.1	85.6
2025-10-27T04:28	10	-2	0.1	-2	-2	337	0.2	337	338	6.1	85.7
2025-10-27T04:29	10	-2	0.1	-2	-2	337	0.2	337	338	6.1	85.8
2025-10-27T04:30	10	-2	0.1	-2	-2	337	0.2	337	338	6.1	85.4
2025-10-27T04:31	10	-2	0.1	-3	-2	337	0.3	337	338	6.1	85.8
2025-10-27T04:32	10	-2	0.1	-3	-2	337	0.2	337	338	6.0	86.4
2025-10-27T04:33	10	-2	0.1	-3	-2	337	0.2	337	338	6.0	86.8
2025-10-27T04:34	10	-3	0.1	-3	-2	337	0.2	337	338	6.0	86.8
2025-10-27T04:35	10	-3	0.1	-3	-2	337	0.2	337	338	6.1	86.1
2025-10-27T04:36	10	-3	0.1	-3	-3	337	0.2	337	338	6.0	86.1
2025-10-27T04:37	10	-3	0.1	-3	-3	337	0.2	337	338	6.0	87.1
2025-10-27T04:38	10	-3	0.1	-3	-3	337	0.2	337	338	6.0	86.6
2025-10-27T04:39	10	-3	0.0	-3	-3	337	0.3	336	338	6.0	86.0
2025-10-27T04:40	10	-3	0.1	-3	-3	337	0.2	337	338	6.0	86.4
2025-10-27T04:41	10	-3	0.1	-3	-3	337	0.3	336	338	5.9	86.9
2025-10-27T04:42	10	-3	0.1	-3	-2	337	0.2	337	338	5.9	86.7
2025-10-27T04:43	10	-2	0.1	-3	-2	337	0.2	337	338	6.0	86.0
2025-10-27T04:44	10	-3	0.1	-3	-2	337	0.2	336	337	5.9	86.7
2025-10-27T04:45	10	-3	0.1	-3	-2	337	0.3	336	337	6.0	86.0
2025-10-27T04:46	10	-3	0.1	-3	-3	337	0.2	336	337	5.9	86.0
2025-10-27T04:47	10	-3	0.1	-3	-3	337	0.3	336	338	6.0	85.8
2025-10-27T04:48	10	-3	0.1	-3	-3	337	0.3	336	337	5.9	86.3
2025-10-27T04:49	10	-3	0.1	-3	-3	337	0.2	336	337	5.9	87.2
2025-10-27T04:50	10	-3	0.1	-3	-3	337	0.3	336	337	5.8	87.2
2025-10-27T04:51	10	-3	0.1	-3	-3	337	0.2	336	337	5.9	86.1
2025-10-27T04:52	10	-3	0.1	-3	-3	337	0.2	336	337	5.9	86.0
2025-10-27T04:53	10	-3	0.1	-3	-3	336	0.3	336	337	5.9	86.2
2025-10-27T04:54	10	-3	0.0	-3	-3	337	0.2	336	337	5.9	86.5
2025-10-27T04:55	10	-3	0.1	-3	-3	337	0.2	336	337	5.9	86.0
2025-10-27T04:56	10	-3	0.1	-3	-3	337	0.2	336	337	5.9	85.4
2025-10-27T04:57	10	-3	0.1	-3	-3	337	0.2	336	337	5.9	85.2
2025-10-27T04:58	10	-3	0.1	-3	-3	337	0.2	336	337	5.9	86.1
2025-10-27T04:59	10	-3	0.0	-3	-3	337	0.2	336	337	5.9	85.9
2025-10-27T05:00	10	-3	0.1	-3	-3	336	0.3	336	337	5.8	86.6
2025-10-27T05:01	10	-3	0.1	-3	-3	337	0.3	336	337	5.8	87.5
2025-10-27T05:02	10	-3	0.1	-3	-3	337	0.2	336	337	5.9	85.8
2025-10-27T05:03	10	-3	0.1	-3	-3	337	0.3	336	337	5.8	87.0
2025-10-27T05:04	10	-3	0.0	-3	-3	336	0.2	336	337	5.8	86.9
2025-10-27T05:05	10	-3	0.1	-3	-3	337	0.3	336	337	5.8	86.9
2025-10-27T05:06	10	-3	0.1	-3	-3	336	0.3	336	337	5.8	87.0
2025-10-27T05:07	10	-3	0.1	-3	-3	336	0.3	336	337	5.8	86.9
2025-10-27T05:08	10	-3	0.1	-3	-3	336	0.3	336	337	5.8	88.0
2025-10-27T05:09	10	-3	0.1	-3	-3	336	0.2	336	337	5.8	87.6
2025-10-27T05:10	10	-3	0.1	-3	-3	336	0.2	336	337	5.8	87.3
2025-10-27T05:11	10	-3	0.1	-3	-3	336	0.2	336	337	5.8	86.8
2025-10-27T05:12	10	-3	0.1	-3	-3	336	0.2	336	337	5.8	87.1
2025-10-27T05:13	10	-3	0.1	-3	-3	336	0.2	336	337	5.8	87.2
2025-10-27T05:14	10	-3	0.1	-3	-3	336	0.3	336	337	5.8	87.4
2025-10-27T05:15	10	-3	0.1	-3	-3	336	0.2	336	337	5.8	87.2
2025-10-27T05:16	10	-3	0.1	-3	-3	336	0.2	336	337	5.9	86.0
2025-10-27T05:17	10	-3	0.1	-3	-3	336	0.2	336	337	5.8	87.2
2025-10-27T05:18	10	-3	0.1	-3	-3	336	0.2	336	337	5.8	87.7
2025-10-27T05:19	10	-3	0.1	-3	-3	336	0.2	336	337	5.8	87.7
2025-10-27T05:20	10	-3	0.1	-3	-3	336	0.3	336	337	5.8	87.7
2025-10-27T05:21	10	-3	0.0	-3	-3	336	0.2	336	337	5.8	87.8
2025-10-27T05:22	10	-3	0.1	-3	-3	336	0.2	336	337	5.8	86.9
2025-10-27T05:23	10	-3	0.1	-3	-3	336	0.2	336	337	5.9	86.1
2025-10-27T05:24	10	-3	0.1	-3	-3	337	0.3	336	337	5.7	87.7
2025-10-27T05:25	10	-3	0.1	-3	-3	336	0.2	336	337	5.6	87.9
2025-10-27T05:26	10	-3	0.1	-3	-3	336	0.3	336	337	5.6	88.8
2025-10-27T05:27	10	-3	0.1	-3	-3	336	0.2	336	337	5.6	88.5
2025-10-27T05:28	10	-3	0.1	-3	-3	336	0.2	336	337	5.6	88.8
2025-10-27T05:29	10	-3	0.1	-3	-3	336	0.2	336	337	5.7	88.1
2025-10-27T05:30	10	-3	0.1	-3	-3	337	0.2	336	337	5.7	88.2
2025-10-27T05:31	10	-3	0.1	-3	-3	337	0.3	336	337	5.8	87.7
2025-10-27T05:32	10	-3	0.1	-3	-3	337	0.3	336	337	5.9	86.5
2025-10-27T05:33	10	-3	0.1	-3	-3	337	0.2	336	337	5.9	86.5
2025-10-27T05:34	10	-3	0.1	-3	-3	336	0.2	336	337	5.9	86.4
2025-10-27T05:35	10	-3	0.1	-3	-3	337	0.3	335	337	5.9	86.7
2025-10-27T05:36	10	-3	0.1	-3	-3	336	0.2	336	337	5.9	87.0
2025-10-27T05:37	10	-3	0.1	-3	-3	337	0.3	336	337	5.8	87.5
2025-10-27T05:38	10	-3	0.1	-3	-3	337	0.3	336	337	5.8	88.3
2025-10-27T05:39	10	-3	0.1	-3	-2	337	0.2	336	337	5.8	87.4
2025-10-27T05:40	10	-3	0.1	-3	-3	336	0.2	336	337	5.9	86.9
2025-10-27T05:41	10	-3	0.1	-3	-3	337	0.2	336	337	5.9	87.2
2025-10-27T05:42	10	-3	0.1	-3	-2	337	0.2	336	337	5.9	87.1
2025-10-27T05:43	10	-3	0.1	-3	-2	337	0.3	336	337	5.9	87.0
2025-10-27T05:44	10	-3	0.1	-3	-2	337	0.2	336	337	5.9	87.1
2025-10-27T05:45	10	-2	0.1	-3	-2	337	0.2	336	337	5.8	87.7
2025-10-27T05:46	10	-3	0.1	-3	-2	337	0.3	336	337	5.9	87.4
2025-10-27T05:47	10	-3	0.1	-3	-2	337	0.2	336	337	5.9	87.3
2025-10-27T05:48	10	-3	0.1	-3	-2	337	0.3	336	337	5.8	87.7
2025-10-27T05:49	10	-3	0.1	-3	-2	337	0.3	336	337	5.8	87.7
2025-10-27T05:50	10	-3	0.1	-3	-2	336	0.2	336	337	5.7	89.0
2025-10-27T05:51	10	-2	0.1	-3	-2	337	0.3	336	337	5.9	87.7
2025-10-27T05:52	10	-3	0.1	-3	-2	337	0.3	336	337	5.8	88.0
2025-10-27T05:53	10	-3	0.1	-3	-2	337	0.2	336	337	5.8	88.7
2025-10-27T05:54	10	-2	0.1	-3	-2	337	0.2	336	337	5.8	88.5
2025-10-27T05:55	10	-2	0.1	-3	-2	337	0.3	336	337	5.8	88.0
2025-10-27T05:56	10	-2	0.1	-3	-2	337	0.2	336	337	5.8	88.4
2025-10-27T05:57	10	-2	0.1	-2	-2	337	0.2	336	337	5.9	88.0
2025-10-27T05:58	10	-2	0.1	-2	-2	337	0.2	336	337	5.8	88.5
2025-10-27T05:59	10	-2	0.1	-2	-2	337	0.2	336	337	5.8	88.4
2025-10-27T06:00	10	-2	0.1	-2	-2	337	0.2	336	337	5.8	88.9
2025-10-27T06:01	10	-2	0.1	-2	-2	337	0.2	336	337	5.9	87.7
2025-10-27T06:02	10	-2	0.1	-2	-2	337	0.2	336	337	5.9	86.9
2025-10-27T06:03	10	-2	0.1	-2	-2	337	0.2	336	337	5.8	88.3
2025-10-27T06:04	10	-2	0.1	-2	-2	337	0.2	336	337	5.8	88.3
2025-10-27T06:05	10	-2	0.1	-2	-2	337	0.2	336	337	5.8	88.3
2025-10-27T06:06	10	-2	0.1	-2	-2	337	0.2	336	337	5.9	87.2
2025-10-27T06:07	10	-2	0.1	-2	-2	337	0.3	336	337	5.9	87.5
2025-10-27T06:08	10	-2	0.1	-2	-2	337	0.2	336	337	5.9	87.8
2025-10-27T06:09	10	-2	0.1	-2	-2	337	0.2	336	337	5.9	87.2
2025-10-27T06:10	10	-2	0.1	-2	-2	337	0.2	336	337	5.9	86.8
2025-10-27T06:11	10	-2	0.1	-2	-2	337	0.2	336	337	5.9	87.4
2025-10-27T06:12	10	-2	0.1	-2	-2	337	0.2	336	337	5.9	87.7
2025-10-27T06:13	10	-2	0.1	-2	-2	337	0.2	336	338	5.9	87.4
2025-10-27T06:14	10	-2	0.1	-2	-2	337	0.2	336	337	5.8	88.2
2025-10-27T06:15	10	-2	0.1	-2	-2	337	0.2	336	337	5.8	88.2
2025-10-27T06:16	10	-2	0.1	-2	-2	337	0.2	336	337	5.9	87.6
2025-10-27T06:17	10	-2	0.1	-2	-2	337	0.2	336	337	5.9	87.4
2025-10-27T06:18	10	-2	0.1	-2	-2	336	0.3	336	337	5.9	87.8
2025-10-27T06:19	10	-2	0.1	-2	-2	337	0.2	336	337	5.9	87.4
2025-10-27T06:20	10	-2	0.1	-2	-1	337	0.3	336	337	5.9	87.8
2025-10-27T06:21	10	-2	0.1	-2	-1	337	0.2	336	338	5.9	87.1
2025-10-27T06:22	10	-1	0.1	-1	-1	337	0.2	337	337	5.9	87.8
2025-10-27T06:23	10	-1	0.1	-1	-1	337	0.2	336	337	5.9	88.2
2025-10-27T06:24	10	-1	0.1	-1	-1	337	0.2	337	337	5.9	87.9
2025-10-27T06:25	10	-1	0.1	-1	-1	337	0.2	337	338	5.9	87.4
2025-10-27T06:26	10	-1	0.1	-1	-1	337	0.2	337	338	5.9	87.7
2025-10-27T06:27	10	-1	0.1	-1	-1	337	0.3	337	338	6.0	86.5
2025-10-27T06:28	10	-1	0.1	-1	-1	337	0.2	337	338	6.0	85.6
2025-10-27T06:29	10	-1	0.1	-1	-1	337	0.3	336	338	6.1	85.4
2025-10-27T06:30	10	-1	0.1	-1	-1	337	0.2	336	337	6.1	85.2
2025-10-27T06:31	10	-1	0.1	-2	-1	337	0.3	337	338	6.0	85.5
2025-10-27T06:32	10	-1	0.1	-2	-1	337	0.2	337	338	6.0	85.5
2025-10-27T06:33	10	-1	0.1	-2	-1	337	0.2	336	337	6.0	85.9
2025-10-27T06:34	10	-1	0.1	-1	-1	337	0.3	336	338	6.0	86.1
2025-10-27T06:35	10	-1	0.1	-1	-1	337	0.2	337	338	6.0	86.5
2025-10-27T06:36	10	-1	0.1	-1	-1	337	0.3	337	338	5.9	87.6
2025-10-27T06:37	10	-1	0.1	-1	-1	337	0.2	337	338	6.0	86.1
2025-10-27T06:38	10	-1	0.1	-1	-1	337	0.2	337	338	6.0	86.6
2025-10-27T06:39	10	-1	0.1	-1	-1	337	0.2	337	338	6.0	86.7
2025-10-27T06:40	10	-1	0.1	-1	-1	337	0.2	337	338	5.9	87.5
2025-10-27T06:41	10	-1	0.1	-1	-1	337	0.2	337	338	6.0	86.7
2025-10-27T06:42	10	-1	0.1	-1	-1	337	0.2	337	338	6.0	86.7
2025-10-27T06:43	10	-1	0.1	-1	-1	337	0.2	337	338	5.9	85.5
2025-10-27T06:44	10	-1	0.1	-1	-1	337	0.2	337	338	5.9	86.9
2025-10-27T06:45	10	-1	0.1	-1	-1	337	0.2	337	338	5.9	86.9
2025-10-27T06:46	10	-1	0.1	-1	-1	337	0.2	337	338	5.9	82.6
2025-10-27T06:47	10	-1	0.1	-1	0	337	0.2	337	338	5.9	86.9
2025-10-27T06:48	10	-1	0.1	-1	-1	337	0.2	337	338	5.9	86.9
2025-10-27T06:49	10	-1	0.1	-1	0	337	0.2	337	338	5.9	86.9
2025-10-27T06:50	10	0	0.1	-1	0	337	0.3	337	338	5.9	87.0
2025-10-27T06:51	10	0	0.1	-1	0	337	0.2	336	338	5.9	87.5
2025-10-27T06:52	10	0	0.1	0	0	337	0.2	337	338	5.9	87.0
2025-10-27T06:53	10	0	0.1	-1	0	337	0.3	337	338	5.9	87.1
2025-10-27T06:54	10	0	0.1	-1	0	337	0.3	337	338	5.9	87.0
2025-10-27T06:55	10	0	0.1	-1	0	337	0.3	337	338	5.9	87.7
2025-10-27T06:56	10	0	0.1	-1	0	337	0.3	337	338	5.9	88.0
2025-10-27T06:57	10	0	0.1	-1	0	337	0.3	337	338	5.9	88.1
2025-10-27T06:58	10	0	0.1	-1	0	337	0.3	337	338	5.8	88.2
2025-10-27T06:59	10	0	0.1	0	0	337	0.3	337	338	5.8	88.5
2025-10-27T07:00	10	0	0.1	0	0	337	0.2	336	338	5.8	88.6
2025-10-27T07:01	10	0	0.1	-1	0	337	0.2	337	338	5.9	87.7
2025-10-27T07:02	10	0	0.1	-1	0	337	0.3	336	338	5.9	87.7
2025-10-27T07:03	10	-1	0.1	-1	0	337	0.3	336	338	5.9	87.9
2025-10-27T07:04	10	-1	0.1	-1	0	337	0.2	336	338	5.9	87.7
2025-10-27T07:05	10	0	0.1	-1	0	337	0.3	336	338	5.8	88.0
2025-10-27T07:06	10	0	0.1	-1	0	337	0.3	337	338	5.8	88.9
2025-10-27T07:07	10	0	0.1	0	0	337	0.3	337	338	5.8	88.7
2025-10-27T07:08	10	0	0.1	0	0	337	0.3	337	338	5.8	88.0
2025-10-27T07:09	10	0	0.1	0	0	337	0.2	337	338	5.8	88.8
2025-10-27T07:10	10	0	0.1	0	1	337	0.3	336	337	5.7	89.8
2025-10-27T07:11	10	1	0.0	0	1	337	0.3	337	338	5.8	88.2
2025-10-27T07:12	10	0	0.1	0	0	337	0.2	336	338	5.8	88.1
2025-10-27T07:13	10	0	0.1	0	0	337	0.3	336	338	5.8	88.3
2025-10-27T07:14	10	0	0.1	0	0	337	0.3	336	338	5.8	88.7
2025-10-27T07:15	10	1	0.1	0	1	337	0.2	337	337	5.7	89.7
2025-10-27T07:16	10	1	0.1	1	1	337	0.3	336	338	5.7	89.3
2025-10-27T07:17	10	1	0.1	1	1	337	0.2	337	338	5.7	89.7
2025-10-27T07:18	10	1	0.1	1	1	337	0.2	336	337	5.6	90.4
2025-10-27T07:19	10	1	0.1	1	1	337	0.3	337	338	5.6	90.7
2025-10-27T07:20	10	1	0.1	1	1	337	0.2	337	338	5.6	90.6
2025-10-27T07:21	10	1	0.1	1	2	337	0.3	337	338	5.6	90.6
2025-10-27T07:22	10	1	0.1	1	1	337	0.2	337	338	5.6	90.7
2025-10-27T07:23	10	1	0.1	1	2	337	0.2	337	338	5.7	89.9
2025-10-27T07:24	10	1	0.1	1	2	337	0.2	337	338	5.7	90.4
2025-10-27T07:25	10	2	0.1	1	2	337	0.2	337	338	5.8	89.3
2025-10-27T07:26	10	2	0.1	1	2	337	0.2	337	338	5.8	89.8
2025-10-27T07:27	10	2	0.1	1	2	337	0.2	337	338	5.8	89.9
2025-10-27T07:28	10	2	0.1	2	2	337	0.3	336	338	5.8	89.1
2025-10-27T07:29	10	2	0.1	1	2	337	0.3	337	338	5.7	89.7
2025-10-27T07:30	10	2	0.1	2	2	337	0.3	337	338	5.7	90.0
2025-10-27T07:31	10	2	0.1	2	2	338	0.2	337	338	5.7	90.3
2025-10-27T07:32	10	2	0.1	2	2	338	0.2	337	338	5.8	89.2
2025-10-27T07:33	10	2	0.1	2	2	338	0.2	337	338	5.8	89.5
2025-10-27T07:34	10	2	0.1	2	2	338	0.2	337	338	5.8	88.7
2025-10-27T07:35	10	2	0.1	2	2	338	0.2	337	338	5.8	89.2
2025-10-27T07:36	10	2	0.1	2	2	338	0.2	337	338	5.8	89.2
2025-10-27T07:37	10	2	0.1	2	3	338	0.2	337	338	5.8	89.0
2025-10-27T07:38	10	2	0.1	2	2	338	0.3	337	339	5.9	88.4
2025-10-27T07:39	10	2	0.1	2	2	338	0.3	337	339	5.9	88.6
2025-10-27T07:40	10	2	0.1	2	2	338	0.2	337	338	5.9	88.0
2025-10-27T07:41	10	2	0.1	2	2	338	0.3	337	338	5.8	89.2
2025-10-27T07:42	10	2	0.1	2	2	338	0.3	337	338	5.8	88.7
2025-10-27T07:43	10	2	0.1	2	2	338	0.3	337	338	5.8	88.3
2025-10-27T07:44	10	2	0.1	2	2	338	0.2	337	338	5.8	88.6
2025-10-27T07:45	10	3	0.1	2	3	338	0.2	337	338	5.8	89.8
2025-10-27T07:46	10	3	0.1	2	3	338	0.2	338	338	5.7	90.0
2025-10-27T07:47	10	3	0.1	3	3	338	0.3	337	339	5.8	89.4
2025-10-27T07:48	10	3	0.1	3	3	338	0.2	338	339	5.7	90.0
2025-10-27T07:49	10	3	0.1	3	4	338	0.3	337	338	5.7	90.8
2025-10-27T07:50	10	4	0.1	3	4	338	0.2	338	338	5.7	90.6
2025-10-27T07:51	10	4	0.1	3	4	338	0.3	337	339	5.8	89.9
2025-10-27T07:52	10	4	0.1	4	4	338	0.2	338	339	5.8	89.1
2025-10-27T07:53	10	4	0.0	4	4	338	0.3	338	339	5.8	89.5
2025-10-27T07:54	10	4	0.1	4	4	338	0.3	338	339	5.9	88.4
2025-10-27T07:55	10	4	0.1	3	4	338	0.2	338	339	5.8	89.1
2025-10-27T07:56	10	4	0.1	4	4	338	0.2	338	339	5.8	89.1
2025-10-27T07:57	10	4	0.1	4	4	338	0.2	338	339	5.8	89.5
2025-10-27T07:58	10	4	0.2	4	4	338	0.2	338	339	5.8	89.9
2025-10-27T07:59	10	5	0.2	4	5	338	0.3	338	339	5.9	89.0
2025-10-27T08:00	10	5	0.1	5	5	338	0.2	338	339	5.9	88.7
2025-10-27T08:01	10	5	0.1	5	5	338	0.2	338	339	5.8	89.3
2025-10-27T08:02	10	5	0.1	5	6	338	0.3	338	339	5.8	90.1
2025-10-27T08:03	10	6	0.1	5	6	339	0.4	338	340	5.7	90.5
2025-10-27T08:04	10	6	0.1	5	6	339	0.3	338	339	5.8	90.3
2025-10-27T08:05	10	6	0.1	6	6	339	0.2	338	339	5.7	90.6
2025-10-27T08:06	10	6	0.1	6	6	339	0.3	338	339	5.7	90.7
2025-10-27T08:07	10	6	0.1	6	6	339	0.4	338	339	5.7	90.6
2025-10-27T08:08	10	6	0.1	6	6	339	0.3	338	339	5.7	90.9
2025-10-27T08:09	10	6	0.2	5	6	339	0.2	338	339	5.7	90.8
2025-10-27T08:10	10	5	0.1	5	5	339	0.2	338	339	5.8	90.5
2025-10-27T08:11	10	5	0.1	5	5	339	0.2	338	339	5.8	90.8
2025-10-27T08:12	10	5	0.1	4	5	339	0.2	338	339	5.7	91.2
2025-10-27T08:13	10	4	0.1	4	5	339	0.2	338	339	5.7	91.4
2025-10-27T08:14	10	4	0.1	4	5	339	0.2	338	339	5.7	91.7
2025-10-27T08:15	10	4	0.1	4	5	339	0.2	338	339	5.7	91.7
2025-10-27T08:16	10	5	0.1	4	5	339	0.3	338	340	5.8	91.4
2025-10-27T08:17	10	5	0.1	4	5	339	0.2	338	339	5.8	90.6
2025-10-27T08:18	10	5	0.1	4	5	339	0.2	338	339	5.8	90.8
2025-10-27T08:19	10	5	0.1	5	5	339	0.2	338	339	5.9	89.9
2025-10-27T08:20	10	5	0.1	5	5	339	0.2	339	339	5.8	90.3
2025-10-27T08:21	10	5	0.1	4	5	339	0.3	338	339	5.9	90.6
2025-10-27T08:22	10	4	0.1	4	5	339	0.2	339	339	5.8	91.4
2025-10-27T08:23	10	4	0.1	4	5	339	0.2	339	339	5.9	90.7
2025-10-27T08:24	10	4	0.1	4	4	339	0.2	338	339	5.9	90.4
2025-10-27T08:25	10	4	0.1	4	5	339	0.2	339	339	5.9	90.7
2025-10-27T08:26	10	5	0.1	5	5	339	0.2	338	340	6.0	89.6
2025-10-27T08:27	10	5	0.3	5	6	339	0.2	339	340	5.9	90.6
2025-10-27T08:28	10	6	0.2	6	7	339	0.3	338	340	5.9	90.4
2025-10-27T08:29	10	7	0.1	6	7	339	0.2	339	340	5.9	90.9
2025-10-27T08:30	10	7	0.1	7	7	340	0.2	339	340	5.9	91.7
2025-10-27T08:31	10	8	0.4	7	9	339	0.2	339	340	5.9	91.3
2025-10-27T08:32	10	9	0.1	8	9	340	0.4	339	341	5.9	91.9
2025-10-27T08:33	10	9	0.1	9	9	340	0.2	339	340	5.9	92.0
2025-10-27T08:34	10	9	0.1	8	9	340	0.3	339	340	5.9	91.8
2025-10-27T08:35	10	9	0.1	8	9	340	0.3	340	341	5.9	92.2
2025-10-27T08:36	10	9	0.2	9	9	340	0.3	339	341	6.0	91.0
2025-10-27T08:37	10	10	0.2	9	10	340	0.2	340	341	6.0	90.7
2025-10-27T08:38	10	11	0.2	10	11	340	0.3	340	341	6.0	91.0
2025-10-27T08:39	10	11	0.1	11	11	341	0.3	340	341	6.0	90.9
2025-10-27T08:40	10	11	0.1	11	12	341	0.3	340	342	6.1	90.8
2025-10-27T08:41	10	12	0.2	12	12	341	0.3	340	341	6.1	90.9
2025-10-27T08:42	10	12	0.1	12	13	341	0.2	340	341	6.2	89.8
2025-10-27T08:43	10	12	0.1	12	12	341	0.3	340	342	6.1	90.2
2025-10-27T08:44	10	13	0.2	12	13	341	0.2	340	341	6.1	90.9
2025-10-27T08:45	10	13	0.2	13	14	341	0.2	340	341	6.1	91.2
2025-10-27T08:46	10	14	0.2	13	14	341	0.2	341	342	6.1	92.0
2025-10-27T08:47	10	15	0.1	14	15	341	0.2	341	342	6.1	91.9
2025-10-27T08:48	10	14	0.2	14	15	341	0.2	341	342	6.2	90.2
2025-10-27T08:49	10	14	0.1	13	14	341	0.2	341	342	6.3	89.9
2025-10-27T08:50	10	13	0.2	13	13	342	0.2	341	342	6.2	90.7
2025-10-27T08:51	10	13	0.1	12	13	341	0.2	341	342	6.2	90.9
2025-10-27T08:52	10	12	0.1	12	12	341	0.2	341	342	6.2	90.6
2025-10-27T08:53	10	12	0.1	12	12	341	0.2	341	342	6.3	90.2
2025-10-27T08:54	10	12	0.1	12	12	341	0.2	341	342	6.2	90.9
2025-10-27T08:55	10	12	0.1	12	13	342	0.3	341	342	6.3	90.0
2025-10-27T08:56	10	13	0.2	13	13	342	0.2	341	342	6.3	90.7
2025-10-27T08:57	10	13	0.1	13	13	342	0.3	341	342	6.3	90.4
2025-10-27T08:58	10	13	0.1	13	13	342	0.3	341	342	6.3	90.1
2025-10-27T08:59	10	13	0.3	13	14	342	0.2	341	342	6.3	90.5
2025-10-27T09:00	10	15	0.4	14	15	342	0.2	342	343	6.3	90.4
2025-10-27T09:01	10	16	0.4	15	17	342	0.3	342	343	6.3	90.2
2025-10-27T09:02	10	16	0.4	15	17	343	0.2	342	343	6.3	91.0
2025-10-27T09:03	10	15	0.5	14	15	343	0.4	342	343	6.3	90.8
2025-10-27T09:04	10	14	0.2	13	14	343	0.3	342	343	6.3	91.8
2025-10-27T09:05	10	13	0.1	13	13	342	0.2	342	343	6.3	91.7
2025-10-27T09:06	10	14	0.2	13	14	342	0.2	342	343	6.3	90.8
2025-10-27T09:07	10	14	0.1	14	14	343	0.2	342	343	6.4	90.5
2025-10-27T09:08	10	14	0.2	13	14	342	0.3	342	343	6.3	90.7
2025-10-27T09:09	10	13	0.1	13	14	343	0.3	342	343	6.3	91.2
2025-10-27T09:10	10	14	0.3	14	15	343	0.3	342	343	6.3	91.6
2025-10-27T09:11	10	14	0.1	14	15	343	0.2	343	344	6.3	91.9
2025-10-27T09:12	10	15	0.3	14	15	343	0.3	342	343	6.4	90.9
2025-10-27T09:13	10	16	0.1	15	16	343	0.2	343	344	6.4	91.4
2025-10-27T09:14	10	16	0.2	16	17	343	0.2	343	344	6.4	90.5
2025-10-27T09:15	10	16	0.2	16	16	343	0.2	343	344	6.4	91.1
2025-10-27T09:16	10	16	0.3	16	17	343	0.3	343	344	6.4	91.6
2025-10-27T09:17	10	17	0.5	17	18	343	0.3	343	344	6.4	91.2
2025-10-27T09:18	10	19	0.5	18	20	344	0.3	343	344	6.4	92.3
2025-10-27T09:19	10	20	0.2	20	21	344	0.3	343	344	6.4	91.2
2025-10-27T09:20	10	20	0.1	20	21	344	0.2	343	344	6.5	90.3
2025-10-27T09:21	10	20	0.1	20	20	344	0.2	344	345	6.5	90.5
2025-10-27T09:22	10	20	0.1	20	20	344	0.4	344	345	6.5	91.1
2025-10-27T09:23	10	20	0.1	20	21	344	0.3	344	345	6.7	88.5
2025-10-27T09:24	10	20	0.1	20	21	344	0.3	344	345	6.7	88.1
2025-10-27T09:25	10	20	0.1	20	21	344	0.3	344	345	6.7	87.8
2025-10-27T09:26	10	21	0.4	20	22	345	0.3	344	345	6.7	88.7
2025-10-27T09:27	10	22	0.2	22	22	345	0.3	345	346	6.7	88.4
2025-10-27T09:28	10	21	1.1	19	22	345	0.2	345	346	6.7	89.2
2025-10-27T09:29	10	18	0.7	17	19	345	0.2	345	345	6.7	88.9
2025-10-27T09:30	10	18	0.5	17	18	345	0.2	345	346	6.7	90.0
2025-10-27T09:31	10	18	0.3	17	18	345	0.3	344	345	6.8	87.4
2025-10-27T09:32	10	16	0.4	16	17	345	0.3	344	345	6.8	88.1
2025-10-27T09:33	10	15	0.2	15	16	344	0.2	344	345	6.8	86.7
2025-10-27T09:34	10	16	0.4	16	17	344	0.3	343	345	6.8	88.0
2025-10-27T09:35	10	17	0.2	17	18	344	0.2	344	345	6.8	87.4
2025-10-27T09:36	10	18	0.2	18	18	344	0.2	344	345	6.8	86.2
2025-10-27T09:37	10	19	0.2	18	19	344	0.3	343	345	6.8	86.5
2025-10-27T09:38	10	19	0.1	19	19	344	0.2	344	345	6.8	86.6
2025-10-27T09:39	10	19	0.2	18	19	345	0.4	344	345	6.8	87.6
2025-10-27T09:40	10	18	0.1	18	18	344	0.3	344	345	6.9	86.4
2025-10-27T09:41	10	18	0.1	18	18	345	0.3	344	345	6.8	87.4
2025-10-27T09:42	10	18	0.1	17	18	345	0.2	344	345	6.8	88.4
2025-10-27T09:43	10	17	0.1	17	17	345	0.2	344	345	6.8	88.4
2025-10-27T09:44	10	17	0.1	17	18	345	0.3	345	346	6.8	89.1
2025-10-27T09:45	10	17	0.4	16	17	345	0.2	344	346	6.8	88.9
2025-10-27T09:46	10	16	0.2	15	16	345	0.4	344	346	6.7	89.1
2025-10-27T09:47	10	15	0.2	15	16	344	0.2	344	345	6.8	88.1
2025-10-27T09:48	10	14	0.2	14	15	344	0.3	344	345	6.8	88.4
2025-10-27T09:49	10	14	0.1	13	14	345	0.4	343	345	6.8	89.2
2025-10-27T09:50	10	13	0.1	13	14	344	0.3	344	345	6.8	89.2
2025-10-27T09:51	10	14	0.2	14	14	344	0.2	344	345	6.8	88.8
2025-10-27T09:52	10	14	0.1	14	14	345	0.2	344	345	6.8	89.1
2025-10-27T09:53	10	14	0.3	14	15	345	0.3	344	345	6.8	88.6
2025-10-27T09:54	10	13	0.2	13	14	344	0.3	343	345	6.9	87.2
2025-10-27T09:55	10	13	0.1	13	13	344	0.2	344	345	6.8	87.9
2025-10-27T09:56	10	13	0.4	13	14	345	0.3	344	345	6.7	89.3
2025-10-27T09:57	10	15	0.3	14	15	345	0.3	344	345	6.7	89.2
2025-10-27T09:58	10	16	0.2	15	16	345	0.2	344	345	6.7	88.8
2025-10-27T09:59	10	16	0.1	15	16	345	0.3	344	346	6.7	89.3
2025-10-27T10:00	10	16	0.2	16	16	345	0.2	344	345	6.7	89.0
2025-10-27T10:01	10	16	0.1	16	17	345	0.3	344	345	6.8	88.5
2025-10-27T10:02	10	17	0.2	17	17	345	0.3	344	345	6.8	87.2
2025-10-27T10:03	10	18	0.4	17	19	345	0.3	344	346	6.8	88.0
2025-10-27T10:04	10	19	0.1	18	19	345	0.2	344	346	6.9	87.6
2025-10-27T10:05	10	18	0.3	17	18	345	0.4	344	346	6.9	86.9
2025-10-27T10:06	10	17	0.2	17	17	345	0.2	344	345	7.0	86.2
2025-10-27T10:07	10	18	0.2	17	18	345	0.3	344	345	7.0	86.4
2025-10-27T10:08	10	18	0.2	18	18	345	0.3	344	345	7.0	86.8
2025-10-27T10:09	10	19	0.5	18	20	345	0.3	345	346	6.9	87.1
2025-10-27T10:10	10	20	0.1	20	20	345	0.3	345	346	6.9	88.0
2025-10-27T10:11	10	19	0.4	18	20	346	0.2	345	346	6.9	88.4
2025-10-27T10:12	10	18	0.2	18	19	346	0.2	346	347	6.9	88.4
2025-10-27T10:13	10	18	0.1	18	18	345	0.5	345	347	6.9	87.1
2025-10-27T10:14	10	18	0.1	18	18	345	0.3	345	346	6.9	87.1
2025-10-27T10:15	10	18	0.2	17	18	345	0.2	344	346	6.9	86.7
2025-10-27T10:16	10	17	0.1	17	18	345	0.2	344	345	6.9	87.4
2025-10-27T10:17	10	18	0.4	18	19	345	0.3	344	346	6.9	86.7
2025-10-27T10:18	10	20	0.3	19	20	345	0.3	344	346	7.0	86.4
2025-10-27T10:19	10	21	0.1	20	21	345	0.3	345	346	7.0	86.7
2025-10-27T10:20	10	21	0.1	20	21	345	0.2	345	346	7.0	86.7
2025-10-27T10:21	10	21	0.1	21	21	346	0.2	345	346	7.0	86.8
2025-10-27T10:22	10	21	0.1	21	21	346	0.2	345	346	7.0	86.8
2025-10-27T10:23	10	21	0.1	21	21	346	0.3	345	347	7.0	86.7
2025-10-27T10:24	10	21	0.1	21	21	346	0.2	345	346	7.0	86.4
2025-10-27T10:25	10	21	0.4	20	21	346	0.2	346	347	7.0	87.1
2025-10-27T10:26	10	20	0.1	20	20	346	0.2	345	347	7.0	86.9
2025-10-27T10:27	10	20	0.1	20	21	346	0.2	345	346	7.1	86.3
2025-10-27T10:28	10	19	0.3	19	20	346	0.4	345	347	7.1	87.3
2025-10-27T10:29	10	19	0.4	18	19	346	0.3	345	347	7.1	87.1
2025-10-27T10:30	10	18	0.3	18	19	346	0.3	346	347	7.1	87.9
2025-10-27T10:31	10	20	0.5	19	20	347	0.3	346	347	7.1	87.9
2025-10-27T10:32	10	21	0.1	20	21	347	0.3	346	347	7.1	87.9
2025-10-27T10:33	10	21	0.1	21	21	347	0.2	346	347	7.1	87.8
2025-10-27T10:34	10	21	0.2	20	21	347	0.5	345	348	7.1	86.8
2025-10-27T10:35	10	20	0.2	20	21	346	0.3	346	347	7.2	85.6
2025-10-27T10:36	10	19	0.5	18	20	346	0.2	346	347	7.1	86.4
2025-10-27T10:37	10	17	0.5	16	18	346	0.2	346	347	7.1	86.4
2025-10-27T10:38	10	17	0.1	16	17	346	0.3	345	347	7.1	87.0
2025-10-27T10:39	10	17	0.3	16	17	346	0.2	345	346	7.1	86.4
2025-10-27T10:40	10	18	0.3	17	19	346	0.3	346	347	7.1	87.3
2025-10-27T10:41	10	19	0.4	18	20	346	0.3	346	347	7.1	87.3
2025-10-27T10:42	10	20	0.3	20	21	347	0.4	346	348	7.1	87.2
2025-10-27T10:43	10	21	0.2	20	21	347	0.3	346	347	7.1	87.0
2025-10-27T10:44	10	21	0.1	21	22	347	0.2	346	347	7.2	86.8
2025-10-27T10:45	10	22	0.3	22	23	347	0.3	346	347	7.2	86.2
2025-10-27T10:46	10	23	0.1	22	23	347	0.3	346	347	7.2	85.7
2025-10-27T10:47	10	22	0.3	21	23	347	0.4	346	348	7.3	84.6
2025-10-27T10:48	10	21	0.3	20	21	347	0.2	346	347	7.3	85.3
2025-10-27T10:49	10	20	0.2	20	21	347	0.3	346	347	7.2	86.8
2025-10-27T10:50	10	20	0.2	20	21	347	0.2	346	347	7.3	85.4
2025-10-27T10:51	10	21	0.4	20	22	347	0.2	346	347	7.3	85.2
2025-10-27T10:52	10	22	0.3	21	23	347	0.2	347	348	7.3	86.4
2025-10-27T10:53	10	23	0.4	23	24	347	0.3	346	348	7.4	84.4
2025-10-27T10:54	10	25	0.3	24	25	347	0.2	347	348	7.3	85.7
2025-10-27T10:55	10	26	0.3	25	26	348	0.3	347	348	7.3	86.2
2025-10-27T10:56	10	26	0.1	26	26	348	0.2	347	349	7.3	86.5
2025-10-27T10:57	10	26	0.3	25	26	348	0.3	348	349	7.3	86.9
2025-10-27T10:58	10	27	0.4	26	28	348	0.4	347	349	7.3	86.5
2025-10-27T10:59	10	28	0.3	27	28	349	0.3	348	349	7.3	87.8
2025-10-27T11:00	10	29	0.4	28	30	349	0.2	348	350	7.3	87.4
2025-10-27T11:01	10	29	0.6	28	30	349	0.2	348	349	7.4	85.9
2025-10-27T11:02	10	26	0.5	26	28	349	0.3	348	349	7.4	86.3
2025-10-27T11:03	10	26	0.1	25	26	349	0.2	348	349	7.4	85.9
2025-10-27T11:04	10	25	0.4	24	26	348	0.5	347	349	7.4	85.4
2025-10-27T11:05	10	24	0.1	24	24	348	0.4	347	349	7.4	86.2
2025-10-27T11:06	10	25	0.2	24	25	348	0.4	347	349	7.4	86.6
2025-10-27T11:07	10	24	0.5	23	25	349	0.2	348	349	7.4	86.5
2025-10-27T11:08	10	22	0.4	22	23	348	0.3	347	349	7.4	86.3
2025-10-27T11:09	10	23	0.6	22	24	348	0.3	348	349	7.4	87.1
2025-10-27T11:10	10	25	0.4	24	26	348	0.3	348	349	7.4	85.7
2025-10-27T11:11	10	25	0.2	25	26	348	0.3	347	349	7.4	86.2
2025-10-27T11:12	10	25	0.1	25	25	348	0.2	348	349	7.4	86.8
2025-10-27T11:13	10	25	0.3	24	25	348	0.3	348	349	7.4	87.2
2025-10-27T11:14	10	24	0.1	24	25	349	0.3	348	349	7.4	87.4
2025-10-27T11:15	10	24	0.2	24	25	348	0.5	347	349	7.5	85.9
2025-10-27T11:16	10	24	0.1	24	24	348	0.4	347	348	7.6	84.2
2025-10-27T11:17	10	24	0.2	24	24	348	0.2	348	348	7.5	84.8
2025-10-27T11:18	10	23	0.3	23	24	348	0.3	348	349	7.5	85.7
2025-10-27T11:19	10	22	0.4	21	23	348	0.2	347	349	7.5	86.1
2025-10-27T11:20	10	21	0.4	20	21	348	0.4	347	349	7.5	86.0
2025-10-27T11:21	10	20	0.1	20	20	348	0.3	347	349	7.5	85.9
2025-10-27T11:22	10	20	0.2	20	21	348	0.3	348	349	7.5	86.8
2025-10-27T11:23	10	21	0.1	20	21	348	0.4	347	349	7.5	85.8
2025-10-27T11:24	10	21	0.3	21	22	349	0.3	348	349	7.5	87.2
2025-10-27T11:25	10	22	0.4	22	23	349	0.3	348	349	7.5	87.3
2025-10-27T11:26	10	24	0.5	23	25	349	0.2	348	349	7.5	86.6
2025-10-27T11:27	10	26	0.3	25	26	349	0.3	348	349	7.5	86.2
2025-10-27T11:28	10	26	0.1	26	27	349	0.6	347	350	7.5	85.9
2025-10-27T11:29	10	26	0.1	26	27	349	0.5	347	350	7.6	85.0
2025-10-27T11:30	10	27	0.2	26	27	349	0.4	348	350	7.6	85.9
2025-10-27T11:31	10	27	0.1	26	27	349	0.4	348	350	7.6	85.6
2025-10-27T11:32	10	26	0.2	26	27	349	0.5	348	350	7.6	84.6
2025-10-27T11:33	10	26	0.1	26	27	348	0.3	348	349	7.6	84.2
2025-10-27T11:34	10	27	0.1	26	27	348	0.3	348	349	7.6	84.9
2025-10-27T11:35	10	26	0.5	25	27	349	0.4	348	350	7.6	85.5
2025-10-27T11:36	10	25	0.2	24	25	349	0.3	348	350	7.7	84.6
2025-10-27T11:37	10	25	0.2	24	25	349	0.3	348	350	7.6	84.7
2025-10-27T11:38	10	25	0.1	25	25	349	0.3	348	350	7.6	85.1
2025-10-27T11:39	10	25	0.2	24	25	349	0.3	348	349	7.7	84.5
2025-10-27T11:40	10	24	0.2	24	24	349	0.2	348	350	7.6	85.9
2025-10-27T11:41	10	24	0.1	24	24	349	0.2	349	350	7.6	85.7
2025-10-27T11:42	10	24	0.1	24	24	349	0.2	349	350	7.7	85.5
2025-10-27T11:43	10	24	0.1	24	24	349	0.3	348	350	7.6	86.0
2025-10-27T11:44	10	24	0.1	24	24	349	0.3	349	350	7.7	86.0
2025-10-27T11:45	10	24	0.2	24	25	349	0.4	348	350	7.7	86.0
2025-10-27T11:46	10	25	0.2	25	25	349	0.3	349	350	7.7	85.7
2025-10-27T11:47	10	25	0.1	25	25	349	0.3	349	350	7.8	84.6
2025-10-27T11:48	10	26	0.2	25	26	349	0.2	349	350	7.7	85.3
2025-10-27T11:49	10	26	0.1	26	26	350	0.4	349	350	7.7	85.5
2025-10-27T11:50	10	26	0.2	25	26	349	0.3	349	350	7.8	84.5
2025-10-27T11:51	10	26	0.2	25	26	349	0.3	349	350	7.8	84.7
2025-10-27T11:52	10	26	0.1	26	26	349	0.4	349	350	7.8	85.0
2025-10-27T11:53	10	25	0.3	25	26	350	0.3	349	350	7.8	84.8
2025-10-27T11:54	10	25	0.1	25	25	350	0.2	349	350	7.8	84.2
2025-10-27T11:55	10	26	0.1	25	26	350	0.3	349	350	7.8	84.8
2025-10-27T11:56	10	26	0.1	26	26	350	0.2	349	350	7.8	84.7
2025-10-27T11:57	10	26	0.1	25	26	350	0.2	349	350	7.9	84.1
2025-10-27T11:58	10	26	0.3	26	27	350	0.4	349	350	7.9	83.8
2025-10-27T11:59	10	27	0.3	27	28	349	0.2	349	350	8.0	83.3
2025-10-27T12:00	10	28	0.3	28	29	350	0.3	349	351	8.0	83.8
2025-10-27T12:01	10	30	0.8	29	32	350	0.3	349	351	7.9	84.1
2025-10-27T12:02	10	33	0.4	32	33	351	0.6	350	352	7.9	85.1
2025-10-27T12:03	10	34	0.4	33	34	351	0.5	350	352	7.9	84.6
2025-10-27T12:04	10	34	0.2	34	34	351	0.4	350	352	8.0	83.6
2025-10-27T12:05	10	32	0.7	31	34	351	0.3	350	352	8.0	84.2
2025-10-27T12:06	10	31	0.4	30	31	351	0.4	350	352	8.0	84.5
2025-10-27T12:07	10	30	0.1	30	31	351	0.4	350	352	7.9	85.7
2025-10-27T12:08	10	31	0.3	30	31	352	0.3	351	352	7.9	85.8
2025-10-27T12:09	10	31	0.2	31	32	351	0.3	351	352	8.0	85.0
2025-10-27T12:10	10	31	0.6	29	31	351	0.3	350	352	8.0	84.9
2025-10-27T12:11	10	28	0.7	27	29	351	0.3	350	352	8.0	85.1
2025-10-27T12:12	10	26	0.2	26	27	351	0.4	350	352	7.9	85.6
2025-10-27T12:13	10	26	0.1	26	26	351	0.4	350	352	7.9	86.0
2025-10-27T12:14	10	26	0.3	26	27	351	0.3	350	352	7.9	86.0
2025-10-27T12:15	10	27	0.1	27	27	351	0.3	350	351	7.9	86.2
2025-10-27T12:16	10	27	0.3	26	27	351	0.2	350	351	7.9	86.9
2025-10-27T12:17	10	27	0.3	26	27	351	0.3	350	351	7.9	86.8
2025-10-27T12:18	10	27	0.1	27	28	351	0.2	350	351	7.9	86.7
2025-10-27T12:19	10	28	0.2	27	28	351	0.4	350	351	7.9	86.3
2025-10-27T12:20	10	29	0.6	28	30	350	0.3	350	351	7.9	86.5
2025-10-27T12:21	10	31	0.9	30	33	351	0.4	350	352	7.9	87.2
2025-10-27T12:22	10	34	0.5	33	35	351	0.3	350	352	8.0	85.9
2025-10-27T12:23	10	35	0.3	35	36	351	0.3	351	352	8.0	86.0
2025-10-27T12:24	10	36	0.2	36	36	352	0.4	351	353	8.0	87.3
2025-10-27T12:25	10	36	0.1	36	36	352	0.2	352	352	8.0	87.3
2025-10-27T12:26	10	36	0.3	36	37	352	0.5	351	353	8.0	87.3
2025-10-27T12:27	10	38	0.3	37	38	352	0.5	351	353	8.0	86.0
2025-10-27T12:28	10	39	0.7	38	41	352	0.3	352	353	8.0	86.9
2025-10-27T12:29	10	35	2.4	31	40	352	0.3	352	353	7.9	87.0
2025-10-27T12:30	10	30	0.5	30	31	352	0.5	351	353	7.9	87.1
2025-10-27T12:31	10	30	0.1	30	30	352	0.3	351	352	7.9	88.1
2025-10-27T12:32	10	30	0.1	30	30	352	0.3	351	352	7.9	87.7
2025-10-27T12:33	10	31	0.5	30	32	352	0.3	351	352	8.0	87.3
2025-10-27T12:34	10	32	0.1	32	33	352	0.3	351	352	8.1	86.6
2025-10-27T12:35	10	32	0.3	31	32	351	0.3	351	352	8.1	85.6
2025-10-27T12:36	10	31	0.2	31	32	352	0.3	351	352	8.1	86.1
2025-10-27T12:37	10	33	0.4	32	33	352	0.4	351	352	8.0	86.8
2025-10-27T12:38	10	33	0.3	32	33	351	0.3	351	352	8.0	86.3
2025-10-27T12:39	10	31	0.4	31	32	352	0.3	351	353	8.0	87.3
2025-10-27T12:40	10	30	0.2	30	31	352	0.4	351	353	8.1	85.7
2025-10-27T12:41	10	30	0.1	30	31	352	0.6	351	352	8.1	86.5
2025-10-27T12:42	10	30	0.3	29	30	352	0.4	351	352	8.1	86.4
2025-10-27T12:43	10	29	0.5	28	30	352	0.3	351	352	8.1	86.4
2025-10-27T12:44	10	29	0.8	28	30	352	0.3	351	353	8.1	87.5
2025-10-27T12:45	10	32	0.7	30	33	352	0.4	351	353	8.1	87.3
2025-10-27T12:46	10	33	0.2	32	33	352	0.4	351	353	8.1	86.8
2025-10-27T12:47	10	32	0.2	32	32	353	0.4	352	354	8.1	87.5
2025-10-27T12:48	10	32	0.1	31	32	353	0.3	352	354	8.2	87.3
2025-10-27T12:49	10	31	0.1	31	32	353	0.4	352	354	8.2	87.3
2025-10-27T12:50	10	31	0.1	31	31	353	0.3	352	353	8.1	87.0
2025-10-27T12:51	10	31	0.2	31	31	352	0.4	352	353	8.1	87.4
2025-10-27T12:52	10	31	0.1	31	31	353	0.5	352	354	8.2	88.2
2025-10-27T12:53	10	31	0.1	31	31	353	0.2	352	353	8.1	87.4
2025-10-27T12:54	10	31	0.4	31	32	353	0.3	352	354	8.1	88.2
2025-10-27T12:55	10	33	0.1	32	33	353	0.3	352	354	8.1	88.3
2025-10-27T12:56	10	32	0.3	32	33	353	0.3	353	354	8.1	88.1
2025-10-27T12:57	10	32	0.2	32	32	353	0.3	353	354	8.1	88.1
2025-10-27T12:58	10	31	0.9	30	32	353	0.5	352	354	8.2	87.3
2025-10-27T12:59	10	29	0.6	27	30	353	0.2	352	353	8.2	87.0
2025-10-27T13:00	10	27	0.2	27	27	353	0.3	352	353	8.2	87.6
2025-10-27T13:01	10	27	0.2	27	27	352	0.4	351	353	8.3	87.0
2025-10-27T13:02	10	28	0.3	27	28	353	0.2	352	353	8.3	87.3
2025-10-27T13:03	10	29	0.5	28	30	353	0.3	352	354	8.3	87.2
2025-10-27T13:04	10	31	0.6	30	32	353	0.3	352	353	8.3	86.5
2025-10-27T13:05	10	33	0.9	32	35	353	0.5	352	354	8.3	86.5
2025-10-27T13:06	10	35	0.2	35	36	354	0.4	353	355	8.3	86.6
2025-10-27T13:07	10	36	0.2	35	36	354	0.2	353	354	8.4	86.8
2025-10-27T13:08	10	35	0.7	34	36	353	0.3	353	354	8.3	86.0
2025-10-27T13:09	10	33	0.6	32	35	353	0.3	352	354	8.4	85.6
2025-10-27T13:10	10	31	0.8	30	32	353	0.3	352	354	8.3	86.4
2025-10-27T13:11	10	29	0.4	28	30	353	0.3	352	353	8.3	86.3
2025-10-27T13:12	10	28	0.5	27	28	353	0.3	352	353	8.3	86.5
2025-10-27T13:13	10	26	0.6	25	27	353	0.3	352	353	8.3	86.8
2025-10-27T13:14	10	24	0.6	23	25	353	0.3	352	353	8.3	87.9
2025-10-27T13:15	10	23	0.2	22	23	353	0.5	352	353	8.3	87.5
2025-10-27T13:16	10	23	0.2	22	23	352	0.3	352	353	8.3	86.8
2025-10-27T13:17	10	23	0.2	23	23	352	0.4	351	353	8.3	86.9
2025-10-27T13:18	10	22	0.4	21	23	352	0.2	351	353	8.3	86.7
2025-10-27T13:19	10	21	0.2	21	21	352	0.3	351	353	8.3	86.7
2025-10-27T13:20	10	21	0.3	21	22	352	0.3	351	352	8.3	86.6
2025-10-27T13:21	10	23	0.4	22	23	352	0.3	351	352	8.3	86.5
2025-10-27T13:22	10	23	0.3	22	23	352	0.3	351	353	8.3	86.4
2025-10-27T13:23	10	21	0.6	20	22	352	0.3	352	353	8.4	85.7
2025-10-27T13:24	10	20	0.1	20	20	351	0.3	351	352	8.4	85.1
2025-10-27T13:25	10	20	0.1	20	20	352	0.3	351	352	8.4	85.5
2025-10-27T13:26	10	21	0.4	20	21	352	0.3	351	352	8.4	85.7
2025-10-27T13:27	10	22	0.2	21	22	352	0.3	352	353	8.5	85.1
2025-10-27T13:28	10	22	0.1	22	22	352	0.3	351	352	8.5	85.0
2025-10-27T13:29	10	22	0.2	22	23	352	0.3	351	352	8.5	85.0
2025-10-27T13:30	10	23	0.4	23	24	352	0.2	352	353	8.5	85.1
2025-10-27T13:31	10	24	0.2	23	24	353	0.2	352	353	8.5	85.2
2025-10-27T13:32	10	23	0.3	23	24	353	0.3	352	353	8.5	85.9
2025-10-27T13:33	10	25	0.6	24	26	353	0.2	352	353	8.6	84.9
2025-10-27T13:34	10	26	0.2	25	26	353	0.4	352	353	8.6	84.9
2025-10-27T13:35	10	25	0.2	25	26	353	0.2	352	353	8.6	84.2
2025-10-27T13:36	10	26	0.3	26	27	352	0.2	352	353	8.6	84.5
2025-10-27T13:37	10	26	0.5	25	26	353	0.3	352	353	8.6	85.1
2025-10-27T13:38	10	24	0.2	24	25	353	0.3	352	354	8.6	85.2
2025-10-27T13:39	10	25	0.3	24	25	353	0.3	353	354	8.6	85.0
2025-10-27T13:40	10	25	0.4	24	26	353	0.2	352	353	8.7	83.5
2025-10-27T13:41	10	24	0.3	24	25	352	0.2	352	353	8.7	82.7
2025-10-27T13:42	10	23	0.3	23	24	353	0.3	352	353	8.7	83.2
2025-10-27T13:43	10	22	0.8	20	23	353	0.3	352	353	8.8	82.8
2025-10-27T13:44	10	19	0.3	19	20	353	0.2	352	353	8.8	83.1
2025-10-27T13:45	10	18	0.5	17	19	353	0.3	352	354	8.8	83.2
2025-10-27T13:46	10	17	0.2	16	17	353	0.3	352	353	8.8	83.1
2025-10-27T13:47	10	19	1.0	17	20	352	0.4	352	353	8.8	82.6
2025-10-27T13:48	10	21	0.8	20	23	352	0.2	352	353	8.8	82.4
2025-10-27T13:49	10	23	0.3	22	23	353	0.2	352	353	8.8	83.7
2025-10-27T13:50	10	23	1.0	22	25	353	0.3	352	354	8.8	83.1
2025-10-27T13:51	10	28	1.1	26	29	353	0.3	353	354	8.8	82.7
2025-10-27T13:52	10	29	0.2	28	29	354	0.3	353	354	8.8	84.4
2025-10-27T13:53	10	32	1.5	29	34	354	0.3	354	355	8.8	83.8
2025-10-27T13:54	10	37	2.1	34	42	354	0.4	353	355	8.8	83.3
2025-10-27T13:55	10	50	7.4	41	64	355	0.6	354	356	8.9	83.2
2025-10-27T13:56	10	57	2.4	53	61	356	0.2	355	356	8.9	82.8
2025-10-27T13:57	10	56	4.0	52	65	356	0.4	356	357	8.9	83.2
2025-10-27T13:58	10	54	3.4	50	62	357	0.4	356	357	8.9	83.4
2025-10-27T13:59	10	47	3.0	43	52	356	0.7	354	357	8.9	83.1
2025-10-27T14:00	10	40	1.3	39	43	355	0.5	354	356	8.9	82.6
2025-10-27T14:01	10	40	1.1	38	42	355	0.3	355	356	8.9	82.8
2025-10-27T14:02	10	44	0.6	42	44	356	0.5	355	357	8.9	83.6
2025-10-27T14:03	10	43	0.4	42	44	356	0.6	355	357	8.8	84.3
2025-10-27T14:04	10	43	0.3	42	44	356	0.3	355	357	8.8	84.1
2025-10-27T14:05	10	45	1.0	43	46	356	0.3	355	357	8.9	83.8
2025-10-27T14:06	10	46	0.3	45	47	357	0.7	355	358	8.9	84.7
2025-10-27T14:07	10	45	0.4	44	45	357	0.4	357	358	8.9	85.3
2025-10-27T14:08	10	46	2.0	44	50	356	0.3	356	357	8.9	83.6
2025-10-27T14:09	10	55	3.2	50	60	357	0.8	355	358	9.0	83.1
2025-10-27T14:10	10	55	1.3	53	58	357	0.4	357	358	9.0	83.0
2025-10-27T14:11	10	54	1.5	52	57	358	0.3	357	359	9.1	83.0
2025-10-27T14:12	10	59	1.1	58	61	358	0.3	357	359	9.1	83.0
2025-10-27T14:13	10	61	2.3	56	64	358	0.5	357	359	9.1	83.0
2025-10-27T14:14	10	60	3.5	53	65	357	0.3	356	358	9.1	81.9
2025-10-27T14:15	10	44	5.6	38	54	357	0.4	356	358	9.1	82.3
2025-10-27T14:16	10	33	1.7	31	38	356	0.5	355	357	9.2	82.9
2025-10-27T14:17	10	33	0.9	32	34	356	0.4	355	357	9.1	82.1
2025-10-27T14:18	10	38	3.7	32	43	356	0.4	355	356	9.1	82.1
2025-10-27T14:19	10	44	3.6	40	49	356	0.6	355	358	9.2	81.5
2025-10-27T14:20	10	55	1.9	49	57	358	0.5	357	359	9.2	82.0
2025-10-27T14:21	10	57	1.5	54	59	358	0.4	357	359	9.2	81.9
2025-10-27T14:22	10	57	1.6	55	60	358	0.3	357	358	9.2	81.5
2025-10-27T14:23	10	65	3.0	60	70	358	0.5	357	359	9.2	81.7
2025-10-27T14:24	10	69	2.6	63	73	359	0.5	358	360	9.2	81.6
2025-10-27T14:25	10	58	6.2	48	66	359	0.9	357	360	9.3	81.5
2025-10-27T14:26	10	43	2.0	40	47	357	0.7	356	358	9.3	81.5
2025-10-27T14:27	10	38	1.0	36	40	357	0.5	356	358	9.2	81.7
2025-10-27T14:28	10	33	1.8	31	36	356	0.2	356	357	9.2	82.0
2025-10-27T14:29	10	29	0.9	28	31	356	0.3	355	356	9.1	82.9
2025-10-27T14:30	10	26	0.7	25	28	355	0.2	355	356	9.1	83.2
2025-10-27T14:31	10	23	1.1	21	25	355	0.3	355	356	9.1	83.1
2025-10-27T14:32	10	20	0.6	19	21	355	0.3	354	356	9.1	83.2
2025-10-27T14:33	10	19	0.1	18	19	355	0.2	354	355	9.1	83.4
2025-10-27T14:34	10	18	0.2	18	19	355	0.2	354	355	9.1	83.3
2025-10-27T14:35	10	17	0.3	17	18	355	0.4	354	355	9.1	83.2
2025-10-27T14:36	10	16	0.6	15	17	354	0.3	353	355	9.1	83.2
2025-10-27T14:37	10	14	0.9	12	15	354	0.2	354	355	9.1	83.4
2025-10-27T14:38	10	11	0.7	10	12	354	0.2	353	354	9.1	83.3
2025-10-27T14:39	10	10	0.3	9	11	354	0.3	353	354	9.1	82.6
2025-10-27T14:40	10	12	1.1	11	14	354	0.4	353	354	9.2	83.1
2025-10-27T14:41	10	15	0.4	14	16	354	0.2	353	354	9.1	83.3
2025-10-27T14:42	10	16	0.2	16	16	354	0.3	354	355	9.2	81.8
2025-10-27T14:43	10	18	0.8	16	19	354	0.2	354	355	9.3	81.2
2025-10-27T14:44	10	21	0.7	19	22	354	0.2	354	355	9.3	81.4
2025-10-27T14:45	10	23	0.8	22	24	355	0.2	354	355	9.3	80.9
2025-10-27T14:46	10	25	0.2	24	25	355	0.3	355	356	9.3	80.9
2025-10-27T14:47	10	24	0.3	24	25	355	0.2	354	356	9.4	80.7
2025-10-27T14:48	10	24	0.6	24	26	355	0.3	355	356	9.4	80.8
2025-10-27T14:49	10	26	0.3	26	27	356	0.2	355	356	9.4	81.0
2025-10-27T14:50	10	27	0.2	27	27	355	0.3	355	356	9.4	80.4
2025-10-27T14:51	10	25	1.0	24	27	356	0.3	355	356	9.4	80.9
2025-10-27T14:52	10	22	1.2	19	24	355	0.5	354	356	9.4	80.9
2025-10-27T14:53	10	17	1.1	16	19	355	0.3	354	355	9.3	81.7
2025-10-27T14:54	10	15	0.1	15	16	354	0.3	353	355	9.3	82.2
2025-10-27T14:55	10	16	0.4	15	17	354	0.3	354	355	9.3	81.9
2025-10-27T14:56	10	16	0.3	16	17	354	0.2	354	355	9.3	81.9
2025-10-27T14:57	10	16	0.1	15	16	354	0.3	354	355	9.2	82.3
2025-10-27T14:58	10	15	0.2	15	16	354	0.3	354	355	9.2	82.8
2025-10-27T14:59	10	14	0.4	14	15	354	0.2	353	354	9.3	81.8
2025-10-27T15:00	10	13	0.3	13	14	354	0.2	353	354	9.3	82.0
2025-10-27T15:01	10	13	0.1	13	13	353	0.3	352	354	9.2	82.8
2025-10-27T15:02	10	13	0.4	13	14	353	0.2	353	354	9.2	82.8
2025-10-27T15:03	10	14	0.1	14	14	353	0.2	353	354	9.2	82.7
2025-10-27T15:04	10	14	0.1	14	15	353	0.3	353	354	9.2	82.7
2025-10-27T15:05	10	16	1.3	15	19	353	0.3	353	354	9.2	82.6
2025-10-27T15:06	10	21	1.3	19	23	354	0.3	353	354	9.2	83.0
2025-10-27T15:07	10	20	1.3	19	23	354	0.2	353	354	9.2	82.5
2025-10-27T15:08	10	19	0.2	18	19	354	0.3	353	354	9.2	83.7
2025-10-27T15:09	10	17	1.2	15	19	353	0.2	353	354	9.2	82.8
2025-10-27T15:10	10	14	0.5	13	15	354	0.2	353	354	9.2	83.3
2025-10-27T15:11	10	13	0.3	13	14	353	0.3	353	354	9.2	82.8
2025-10-27T15:12	10	14	0.1	14	15	353	0.3	353	354	9.2	82.9
2025-10-27T15:13	10	13	0.6	12	14	353	0.3	353	354	9.2	83.6
2025-10-27T15:14	10	11	0.3	11	12	353	0.3	353	354	9.2	83.6
2025-10-27T15:15	10	11	0.1	11	11	353	0.2	352	353	9.1	83.8
2025-10-27T15:16	10	10	0.2	10	11	353	0.3	352	354	9.2	83.6
2025-10-27T15:17	10	10	0.1	10	10	353	0.2	353	354	9.2	83.1
2025-10-27T15:18	10	10	0.3	9	10	353	0.3	352	354	9.3	81.6
2025-10-27T15:19	10	9	0.1	9	9	353	0.2	352	353	9.3	81.9
2025-10-27T15:20	10	10	0.4	9	10	353	0.2	352	353	9.3	81.8
2025-10-27T15:21	10	10	0.1	10	11	353	0.3	352	354	9.3	81.5
2025-10-27T15:22	10	10	0.1	10	11	353	0.2	352	353	9.3	81.8
2025-10-27T15:23	10	10	0.3	9	10	353	0.2	353	354	9.4	81.3
2025-10-27T15:24	10	10	0.4	9	11	353	0.2	352	353	9.3	81.5
2025-10-27T15:25	10	11	0.1	10	11	353	0.2	353	354	9.4	80.8
2025-10-27T15:26	10	10	0.3	10	11	353	0.2	353	354	9.4	81.3
2025-10-27T15:27	10	9	0.3	8	10	353	0.2	353	354	9.4	81.1
2025-10-27T15:28	10	8	0.3	7	8	353	0.3	352	354	9.4	80.7
2025-10-27T15:29	10	7	0.3	6	7	353	0.2	352	353	9.4	80.6
2025-10-27T15:30	10	5	0.6	4	6	353	0.3	352	353	9.4	81.0
2025-10-27T15:31	10	4	0.4	3	4	352	0.2	352	353	9.4	81.1
2025-10-27T15:32	10	3	0.2	2	3	352	0.3	352	353	9.4	81.5
2025-10-27T15:33	10	2	0.1	2	2	352	0.3	351	353	9.3	81.8
2025-10-27T15:34	10	2	0.1	2	2	352	0.3	352	353	9.3	82.2
2025-10-27T15:35	10	2	0.1	2	2	352	0.2	352	353	9.3	81.9
2025-10-27T15:36	10	2	0.2	2	2	352	0.2	352	353	9.3	82.2
2025-10-27T15:37	10	3	0.4	2	4	352	0.2	352	353	9.3	81.8
2025-10-27T15:38	10	4	0.3	4	5	352	0.3	352	353	9.3	82.0
2025-10-27T15:39	10	5	0.3	5	6	352	0.3	352	353	9.3	81.9
2025-10-27T15:40	10	5	0.1	5	6	352	0.2	352	353	9.3	82.1
2025-10-27T15:41	10	5	0.1	5	5	352	0.3	352	353	9.3	82.6
2025-10-27T15:42	10	6	0.4	5	6	352	0.3	352	353	9.2	83.3
2025-10-27T15:43	10	7	0.4	6	8	353	0.2	352	353	9.2	83.4
2025-10-27T15:44	10	8	0.1	7	8	353	0.2	352	353	9.3	83.2
2025-10-27T15:45	10	8	0.2	8	9	353	0.2	352	353	9.3	83.4
2025-10-27T15:46	10	9	0.1	9	9	353	0.2	352	353	9.3	83.6
2025-10-27T15:47	10	9	0.4	8	9	353	0.3	352	353	9.3	83.4
2025-10-27T15:48	10	7	0.5	6	8	353	0.2	352	353	9.3	83.5
2025-10-27T15:49	10	6	0.4	5	6	353	0.2	352	353	9.2	84.1
2025-10-27T15:50	10	4	0.5	3	5	353	0.4	352	353	9.3	83.4
2025-10-27T15:51	10	3	0.4	2	3	353	0.3	352	353	9.2	84.0
2025-10-27T15:52	10	2	0.3	1	2	352	0.2	352	353	9.2	84.0
2025-10-27T15:53	10	1	0.2	0	1	352	0.2	352	353	9.3	83.6
2025-10-27T15:54	10	0	0.2	0	0	352	0.3	351	353	9.2	84.4
2025-10-27T15:55	10	-1	0.1	-1	0	352	0.2	351	352	9.2	84.5
2025-10-27T15:56	10	-1	0.1	-1	-1	352	0.2	352	352	9.1	84.9
2025-10-27T15:57	10	-1	0.1	-1	-1	352	0.4	351	353	9.2	84.7
2025-10-27T15:58	10	-1	0.1	-1	-1	352	0.2	351	352	9.2	84.7
2025-10-27T15:59	10	-1	0.1	-1	-1	352	0.2	351	352	9.2	84.6
2025-10-27T16:00	10	-1	0.0	-1	-1	352	0.3	351	352	9.2	84.3
2025-10-27T16:01	10	-1	0.1	-1	-1	352	0.2	352	352	9.2	84.4
2025-10-27T16:02	10	-1	0.1	-1	-1	352	0.2	351	352	9.2	84.6
2025-10-27T16:03	10	-1	0.0	-1	0	352	0.2	351	353	9.2	84.5
2025-10-27T16:04	10	-1	0.1	-1	0	352	0.3	351	352	9.3	84.0
2025-10-27T16:05	10	-1	0.1	-1	-1	352	0.2	352	352	9.2	84.3
2025-10-27T16:06	10	-1	0.1	-1	-1	352	0.2	351	352	9.2	84.3
2025-10-27T16:07	10	-1	0.1	-1	-1	352	0.3	351	353	9.3	84.2
2025-10-27T16:08	10	-1	0.1	-1	-1	352	0.2	352	352	9.2	84.3
2025-10-27T16:09	10	-1	0.1	-1	-1	352	0.2	351	352	9.3	84.0
2025-10-27T16:10	10	-1	0.1	-1	-1	352	0.3	351	352	9.2	84.9
2025-10-27T16:11	10	-1	0.1	-1	-1	352	0.2	351	352	9.1	85.8
2025-10-27T16:12	10	-1	0.1	-1	-1	351	0.3	351	352	9.1	85.8
2025-10-27T16:13	10	-1	0.1	-2	-1	352	0.2	351	352	9.2	85.0
2025-10-27T16:14	10	-1	0.1	-2	-1	352	0.3	351	352	9.2	85.7
2025-10-27T16:15	10	-1	0.1	-1	-1	351	0.2	351	352	9.1	86.3
2025-10-27T16:16	10	-1	0.1	-1	-1	352	0.3	351	352	9.1	85.8
2025-10-27T16:17	10	-1	0.1	-1	-1	352	0.2	351	352	9.2	85.5
2025-10-27T16:18	10	-1	0.1	-1	-1	352	0.3	351	352	9.3	84.7
2025-10-27T16:19	10	-1	0.1	-1	-1	352	0.2	351	352	9.3	84.7
2025-10-27T16:20	10	-1	0.1	-1	-1	352	0.2	351	352	9.2	85.1
2025-10-27T16:21	10	-1	0.0	-1	-1	352	0.3	351	352	9.2	84.9
2025-10-27T16:22	10	-1	0.1	-2	-1	352	0.2	351	352	9.3	84.8
2025-10-27T16:23	10	-1	0.1	-2	-1	352	0.2	351	352	9.3	84.7
2025-10-27T16:24	10	-1	0.1	-2	-1	352	0.2	351	352	9.3	84.7
2025-10-27T16:25	10	-2	0.1	-2	-1	352	0.2	351	352	9.3	84.5
2025-10-27T16:26	10	-2	0.1	-2	-1	352	0.4	351	353	9.3	84.1
2025-10-27T16:27	10	-2	0.1	-2	-1	352	0.3	351	353	9.3	84.9
2025-10-27T16:28	10	-2	0.1	-2	-1	352	0.2	351	352	9.4	83.9
2025-10-27T16:29	10	-2	0.1	-2	-1	352	0.3	351	353	9.3	84.6
2025-10-27T16:30	10	-2	0.1	-2	-1	352	0.2	351	352	9.3	85.3
2025-10-27T16:31	10	-1	0.1	-2	-1	353	0.3	352	353	9.3	85.1
2025-10-27T16:32	10	-1	0.1	-2	-1	353	0.3	352	354	9.3	84.6
2025-10-27T16:33	10	-1	0.1	-2	-1	353	0.2	353	354	9.4	84.1
2025-10-27T16:34	10	-2	0.1	-2	-1	353	0.3	352	354	9.3	84.6
2025-10-27T16:35	10	-2	0.1	-2	-2	353	0.3	353	354	9.4	84.6
2025-10-27T16:36	10	-2	0.1	-2	-2	353	0.3	352	354	9.3	85.7
2025-10-27T16:37	10	-2	0.1	-2	-2	353	0.3	352	354	9.2	85.6
2025-10-27T16:38	10	-2	0.1	-2	-2	353	0.2	353	353	9.2	85.9
2025-10-27T16:39	10	-2	0.4	-2	0	353	0.2	353	354	9.2	85.9
2025-10-27T16:40	10	-2	0.1	-2	-2	353	0.2	353	353	9.2	86.1
2025-10-27T16:41	10	-2	0.1	-2	-2	353	0.3	352	354	9.3	85.9
2025-10-27T16:42	10	-2	0.1	-2	-2	353	0.3	352	353	9.2	86.8
2025-10-27T16:43	10	-2	0.1	-2	-2	353	0.3	352	353	9.1	87.9
2025-10-27T16:44	10	-2	0.1	-3	-2	353	0.3	352	353	9.2	87.5
2025-10-27T16:45	10	-2	0.1	-3	-2	352	0.3	352	353	9.2	87.2
2025-10-27T16:46	10	-3	0.1	-3	-2	352	0.2	351	353	9.3	86.9
2025-10-27T16:47	10	-3	0.1	-3	-2	352	0.2	352	352	9.3	86.6
2025-10-27T16:48	10	-2	0.4	-3	0	352	0.2	352	353	9.2	87.1
2025-10-27T16:49	10	-2	0.1	-3	-2	352	0.2	351	352	9.2	87.7
2025-10-27T16:50	10	-2	0.1	-2	-2	352	0.2	351	352	9.1	88.0
2025-10-27T16:51	10	-2	0.0	-3	-2	352	0.3	351	352	9.1	87.7
2025-10-27T16:52	10	-2	0.1	-3	-2	352	0.2	352	352	9.1	88.3
2025-10-27T16:53	10	-2	0.0	-3	-2	352	0.2	352	352	9.2	88.0
2025-10-27T16:54	10	-2	0.1	-3	-2	352	0.2	351	352	9.1	88.5
2025-10-27T16:55	10	-2	0.1	-3	-2	352	0.2	352	352	9.1	88.5
2025-10-27T16:56	10	-2	0.1	-3	-2	352	0.3	351	353	9.1	88.9
2025-10-27T16:57	10	-2	0.1	-2	-2	352	0.2	351	352	9.1	88.8
2025-10-27T16:58	10	-2	0.1	-2	-2	352	0.3	351	352	9.1	89.1
2025-10-27T16:59	10	-2	0.1	-2	-2	352	0.3	351	352	9.2	88.3
2025-10-27T17:00	10	-2	0.1	-3	-2	352	0.3	351	353	9.2	88.5
2025-10-27T17:01	10	-2	0.1	-3	-2	352	0.3	351	352	9.1	89.2
2025-10-27T17:02	10	-2	0.0	-2	-2	352	0.2	351	352	9.1	89.1
2025-10-27T17:03	10	-2	0.1	-2	-2	352	0.3	351	353	9.2	88.7
2025-10-27T17:04	10	-2	0.1	-3	-2	352	0.3	352	353	9.1	88.9
2025-10-27T17:05	10	-2	0.1	-3	-2	352	0.2	352	353	9.1	89.2
2025-10-27T17:06	10	-2	0.1	-3	-2	352	0.2	352	353	9.0	89.7
2025-10-27T17:07	10	-2	0.1	-2	-2	352	0.2	351	352	9.0	90.1
2025-10-27T17:08	10	-2	0.1	-2	-2	352	0.2	351	352	8.9	91.3
2025-10-27T17:09	10	-2	0.1	-2	-2	352	0.2	352	352	9.0	90.9
2025-10-27T17:10	10	-2	0.0	-2	-2	352	0.2	352	353	9.0	91.1
2025-10-27T17:11	10	-2	0.1	-2	-2	352	0.2	352	353	9.0	90.5
2025-10-27T17:12	10	-2	0.1	-2	-2	352	0.2	352	353	9.0	91.0
2025-10-27T17:13	10	-2	0.1	-2	-2	352	0.2	352	353	9.0	90.7
2025-10-27T17:14	10	-2	0.1	-2	-2	352	0.2	352	353	9.0	90.7
2025-10-27T17:15	10	-2	0.1	-2	-2	352	0.3	352	353	9.1	90.7
2025-10-27T17:16	10	-2	0.1	-2	-2	352	0.2	352	353	9.1	90.1
2025-10-27T17:17	10	-2	0.1	-2	-2	353	0.2	352	353	9.2	89.3
2025-10-27T17:18	10	-2	0.1	-2	-2	352	0.2	352	353	9.2	90.0
2025-10-27T17:19	10	-2	0.1	-2	-2	353	0.2	352	353	9.1	90.1
2025-10-27T17:20	10	-2	0.1	-2	-2	352	0.2	352	353	9.2	89.9
2025-10-27T17:21	10	-2	0.1	-2	-2	353	0.2	352	353	9.1	90.8
2025-10-27T17:22	10	-2	0.1	-2	-2	352	0.3	352	353	9.1	90.8
2025-10-27T17:23	10	-2	0.1	-2	-2	352	0.2	352	353	9.1	90.5
2025-10-27T17:24	10	-2	0.1	-2	-2	352	0.2	352	353	9.2	90.3
2025-10-27T17:25	10	-2	0.1	-2	-2	352	0.3	351	353	9.1	90.8
2025-10-27T17:26	10	-2	0.1	-2	-2	353	0.2	352	353	9.1	90.9
2025-10-27T17:27	10	-2	0.1	-2	-1	352	0.2	352	353	9.1	91.9
2025-10-27T17:28	10	-2	0.1	-2	-1	352	0.3	352	353	9.0	92.0
2025-10-27T17:29	10	-2	0.1	-2	-2	352	0.2	352	353	9.0	92.3
2025-10-27T17:30	10	-2	0.1	-2	-2	352	0.2	351	353	9.0	92.7
2025-10-27T17:31	10	-2	0.1	-2	-2	352	0.3	351	353	8.9	93.2
2025-10-27T17:32	10	-2	0.0	-2	-2	352	0.3	351	353	8.9	94.1
2025-10-27T17:33	10	-2	0.1	-2	-2	351	0.7	350	352	8.8	94.2
2025-10-27T17:34	10	-2	0.1	-2	-2	351	0.2	350	351	8.9	91.6
2025-10-27T17:35	10	-2	0.1	-2	-2	351	0.3	350	351	8.9	91.6
2025-10-27T17:36	10	-2	0.1	-2	-2	351	0.2	350	351	8.8	93.4
2025-10-27T17:37	10	-2	0.1	-2	-2	351	0.3	350	352	8.8	92.4
2025-10-27T17:38	10	-2	0.1	-2	-2	352	0.2	351	352	9.0	90.5
2025-10-27T17:39	10	-2	0.1	-2	-2	352	0.2	351	352	9.2	88.6
2025-10-27T17:40	10	-2	0.1	-2	-2	352	0.2	352	352	9.3	88.0
2025-10-27T17:41	10	-2	0.1	-2	-2	352	0.2	351	352	9.3	88.1
2025-10-27T17:42	10	-2	0.1	-2	-2	352	0.2	351	352	9.1	89.5
2025-10-27T17:43	10	-2	0.1	-2	-2	351	0.3	351	352	9.1	89.3
2025-10-27T17:44	10	-2	0.1	-2	-2	351	0.2	351	351	9.0	91.1
2025-10-27T17:45	10	-2	0.1	-2	-2	351	0.2	350	351	8.9	91.9
2025-10-27T17:46	10	-2	0.1	-2	-2	351	0.2	350	351	8.9	92.6
2025-10-27T17:47	10	-2	0.1	-2	-1	351	0.3	350	351	8.9	91.9
2025-10-27T17:48	10	-2	0.1	-2	-1	350	0.2	350	351	8.9	92.3
2025-10-27T17:49	10	-1	0.0	-2	-1	351	0.2	350	351	8.9	92.7
2025-10-27T17:50	10	-1	0.1	-2	-1	350	0.3	350	351	8.9	92.5
2025-10-27T17:51	10	-1	0.1	-2	-1	351	0.3	350	351	9.1	91.2
2025-10-27T17:52	10	-1	0.1	-1	-1	351	0.2	350	351	9.1	91.1
2025-10-27T17:53	10	-1	0.1	-1	-1	351	0.2	350	351	9.0	91.2
2025-10-27T17:54	10	-1	0.1	-1	-1	351	0.2	350	351	9.2	89.1
2025-10-27T17:55	10	-1	0.1	-1	-1	351	0.3	350	352	9.3	88.1
2025-10-27T17:56	10	-1	0.1	-1	-1	351	0.2	351	352	9.3	87.6
2025-10-27T17:57	10	-1	0.1	-1	-1	351	0.2	351	352	9.4	86.0
2025-10-27T17:58	10	-1	0.0	-1	-1	351	0.2	351	352	9.4	85.8
2025-10-27T17:59	10	-1	0.1	-1	-1	351	0.3	350	352	9.3	87.0
2025-10-27T18:00	10	-1	0.1	-1	-1	351	0.2	351	352	9.2	87.0
2025-10-27T18:01	10	-1	0.1	-1	-1	351	0.2	350	351	9.2	87.5
2025-10-27T18:02	10	-1	0.1	-1	-1	351	0.2	350	351	9.2	86.4
2025-10-27T18:03	10	-1	0.1	-1	-1	351	0.2	350	351	9.3	86.1
2025-10-27T18:04	10	-1	0.1	-1	-1	351	0.2	350	351	9.3	85.9
2025-10-27T18:05	10	-1	0.1	-1	-1	351	0.2	351	352	9.4	84.0
2025-10-27T18:06	10	-1	0.1	-1	-1	351	0.3	350	351	9.3	84.4
2025-10-27T18:07	10	-1	0.1	-1	-1	350	0.3	350	351	9.2	85.3
2025-10-27T18:08	10	-1	0.0	-1	-1	350	0.3	350	351	9.2	85.6
2025-10-27T18:09	10	-1	0.1	-1	-1	350	0.2	349	351	9.3	84.4
2025-10-27T18:10	10	-1	0.1	-1	-1	350	0.2	349	350	9.3	84.3
2025-10-27T18:11	10	-1	0.1	-1	-1	350	0.2	349	350	9.2	84.4
2025-10-27T18:12	10	-1	0.1	-1	-1	350	0.2	349	350	9.2	84.9
2025-10-27T18:13	10	-1	0.0	-1	-1	349	0.2	349	350	9.2	85.0
2025-10-27T18:14	10	-1	0.1	-1	-1	349	0.3	349	350	9.1	86.1
2025-10-27T18:15	10	-1	0.1	-1	-1	350	0.3	349	350	9.0	85.8
2025-10-27T18:16	10	-1	0.0	-1	-1	350	0.2	349	350	9.1	85.8
2025-10-27T18:17	10	-1	0.1	-1	-1	349	0.4	348	350	9.0	86.4
2025-10-27T18:18	10	-1	0.1	-1	-1	349	0.2	349	349	8.9	87.1
2025-10-27T18:19	10	-1	0.1	-1	-1	349	0.3	349	350	9.0	85.9
2025-10-27T18:20	10	-1	0.1	-1	-1	350	0.2	349	350	9.1	85.4
2025-10-27T18:21	10	-1	0.0	-1	-1	350	0.3	349	351	9.2	84.5
2025-10-27T18:22	10	-1	0.1	-1	-1	349	0.3	349	350	9.0	86.8
2025-10-27T18:23	10	-1	0.1	-1	-1	350	0.2	349	350	8.9	87.0
2025-10-27T18:24	10	-1	0.1	-1	-1	349	0.3	349	350	9.0	86.4
2025-10-27T18:25	10	-1	0.1	-1	-1	350	0.3	349	350	9.0	86.3
2025-10-27T18:26	10	-1	0.0	-1	-1	349	0.3	349	350	9.1	85.5
2025-10-27T18:27	10	-1	0.1	-1	0	349	0.2	349	350	9.0	86.3
2025-10-27T18:28	10	-1	0.0	-1	-1	349	0.2	348	349	9.1	85.1
2025-10-27T18:29	10	-1	0.1	-1	0	349	0.2	348	349	9.0	85.7
2025-10-27T18:30	10	-1	0.1	-1	0	349	0.2	348	349	9.0	86.3
2025-10-27T18:31	10	-1	0.1	-1	0	349	0.2	348	349	9.0	85.8
2025-10-27T18:32	10	-1	0.1	-1	0	349	0.3	348	349	9.0	85.6
2025-10-27T18:33	10	-1	0.1	-1	0	349	0.3	348	350	9.2	83.5
2025-10-27T18:34	10	-1	0.1	-1	0	349	0.3	348	349	9.3	82.3
2025-10-27T18:35	10	-1	0.0	-1	0	349	0.2	348	349	9.3	82.6
2025-10-27T18:36	10	-1	0.1	-1	0	349	0.3	348	349	9.2	83.7
2025-10-27T18:37	10	-1	0.1	-1	0	348	0.2	348	349	9.1	84.9
2025-10-27T18:38	10	-1	0.1	-1	0	348	0.2	348	349	9.0	84.9
2025-10-27T18:39	10	-1	0.1	-1	-1	348	0.2	348	348	9.0	85.4
2025-10-27T18:40	10	-1	0.1	-1	0	349	0.3	348	349	9.3	81.6
2025-10-27T18:41	10	-1	0.1	-1	0	349	0.3	348	349	9.5	79.0
2025-10-27T18:42	10	0	0.1	-1	0	349	0.2	349	349	9.4	75.8
2025-10-27T18:43	10	0	0.1	-1	0	349	0.3	348	349	9.5	78.4
2025-10-27T18:44	10	0	0.1	-1	0	349	0.3	348	349	9.5	78.4
2025-10-27T18:45	10	0	0.1	-1	0	348	0.2	348	349	9.5	78.4
2025-10-27T18:46	10	0	0.1	-1	0	348	0.2	348	349	9.5	78.4
2025-10-27T18:47	10	0	0.0	0	0	348	0.3	348	349	9.5	78.4
2025-10-27T18:48	10	0	0.1	-1	0	349	0.3	348	349	9.5	78.4
2025-10-27T18:49	10	0	0.1	-1	0	349	0.3	348	349	9.5	78.3
2025-10-27T18:50	10	0	0.1	-1	0	349	0.3	348	349	9.6	77.0
2025-10-27T18:51	10	0	0.1	0	0	348	0.2	348	349	9.4	79.4
2025-10-27T18:52	10	0	0.1	0	0	348	0.3	347	349	9.2	81.8
2025-10-27T18:53	10	0	0.1	0	0	348	0.2	347	348	9.1	82.0
2025-10-27T18:54	10	0	0.1	0	0	348	0.2	347	348	9.3	80.1
2025-10-27T18:55	10	0	0.1	0	0	348	0.2	347	348	9.4	79.3
2025-10-27T18:56	10	0	0.1	0	0	348	0.2	347	348	9.2	81.3
2025-10-27T18:57	10	0	0.1	0	0	348	0.2	348	349	9.3	79.6
2025-10-27T18:58	10	0	0.1	0	0	348	0.2	347	349	9.2	81.3
2025-10-27T18:59	10	0	0.1	0	0	349	0.4	348	350	9.4	78.6
2025-10-27T19:00	10	0	0.1	0	0	349	0.5	348	350	9.7	76.2
2025-10-27T19:01	10	0	0.0	0	0	348	0.2	348	349	9.1	81.6
2025-10-27T19:02	10	0	0.1	0	0	348	0.2	348	349	9.1	82.1
2025-10-27T19:03	10	0	0.1	0	0	348	0.3	347	348	8.9	83.7
2025-10-27T19:04	10	0	0.1	-1	0	348	0.2	348	348	8.9	83.7
2025-10-27T19:05	10	0	0.1	-1	0	348	0.3	347	349	8.9	83.1
2025-10-27T19:06	10	0	0.1	-1	0	348	0.2	347	348	8.9	83.5
2025-10-27T19:07	10	-1	0.1	-1	0	348	0.2	348	348	8.9	82.9
2025-10-27T19:08	10	-1	0.1	-1	0	348	0.3	347	348	8.9	83.4
2025-10-27T19:09	10	-1	0.1	-1	0	348	0.3	348	349	8.9	83.4
2025-10-27T19:10	10	-1	0.1	-1	0	349	0.3	348	349	8.9	82.3
2025-10-27T19:11	10	-1	0.1	-1	0	349	0.3	348	349	9.0	82.3
2025-10-27T19:12	10	0	0.1	-1	0	348	0.2	348	349	8.9	83.4
2025-10-27T19:13	10	0	0.1	-1	0	348	0.2	348	349	9.0	81.9
2025-10-27T19:14	10	0	0.1	-1	0	348	0.2	348	349	9.0	82.0
2025-10-27T19:15	10	0	0.1	-1	0	348	0.2	348	349	9.0	82.2
2025-10-27T19:16	10	0	0.1	-1	0	348	0.2	347	349	9.0	82.4
2025-10-27T19:17	10	0	0.1	-1	0	348	0.3	348	349	9.1	80.9
2025-10-27T19:18	10	0	0.1	-1	0	348	0.2	348	349	9.2	80.4
2025-10-27T19:19	10	0	0.1	-1	0	348	0.3	348	349	9.2	80.4
2025-10-27T19:20	10	0	0.1	0	0	348	0.3	347	349	9.1	81.3
2025-10-27T19:21	10	0	0.1	-1	0	348	0.3	348	349	9.1	81.5
2025-10-27T19:22	10	0	0.1	0	0	349	0.2	348	349	9.1	81.1
2025-10-27T19:23	10	0	0.1	0	0	349	0.2	348	349	9.1	81.2
2025-10-27T19:24	10	0	0.3	0	2	348	0.2	348	349	9.0	81.8
2025-10-27T19:25	10	0	0.1	0	0	348	0.2	348	349	9.0	82.1
2025-10-27T19:26	10	0	0.1	0	0	348	0.3	347	348	9.0	82.2
2025-10-27T19:27	10	0	0.1	0	0	348	0.2	348	348	9.0	82.5
2025-10-27T19:28	10	0	0.1	0	0	348	0.2	348	348	8.9	82.8
2025-10-27T19:29	10	0	0.0	0	0	348	0.2	348	348	8.8	84.0
2025-10-27T19:30	10	0	0.1	0	0	348	0.2	348	349	8.8	84.6
2025-10-27T19:31	10	0	0.1	0	0	348	0.2	348	349	8.8	84.4
2025-10-27T19:32	10	0	0.0	0	0	348	0.2	348	349	8.8	83.8
2025-10-27T19:33	10	0	0.1	0	0	349	0.2	348	349	8.9	83.6
2025-10-27T19:34	10	0	0.1	0	0	349	0.3	348	349	8.8	84.8
2025-10-27T19:35	10	0	0.1	0	0	349	0.2	348	349	8.9	83.4
2025-10-27T19:36	10	0	0.1	0	0	349	0.3	348	350	8.9	82.9
2025-10-27T19:37	10	0	0.1	0	0	349	0.2	349	350	9.0	82.3
2025-10-27T19:38	10	0	0.1	0	0	349	0.2	349	350	9.0	82.4
2025-10-27T19:39	10	0	0.1	0	0	350	0.2	349	350	9.0	82.9
2025-10-27T19:40	10	0	0.1	0	0	350	0.2	349	350	9.1	82.0
2025-10-27T19:41	10	0	0.1	0	0	350	0.2	349	350	9.1	82.0
2025-10-27T19:42	10	0	0.1	0	0	350	0.2	349	350	9.0	82.4
2025-10-27T19:43	10	0	0.1	0	0	350	0.2	349	350	9.0	83.0
2025-10-27T19:44	10	0	0.1	0	0	350	0.2	349	350	8.9	83.8
2025-10-27T19:45	10	0	0.1	0	0	350	0.2	349	350	8.8	84.7
2025-10-27T19:46	10	0	0.1	0	0	349	0.2	349	350	8.8	85.3
2025-10-27T19:47	10	0	0.1	0	0	349	0.2	349	350	8.8	85.0
2025-10-27T19:48	10	0	0.1	0	0	349	0.2	349	350	8.8	85.0
2025-10-27T19:49	10	0	0.1	0	0	349	0.2	349	350	8.8	85.0
2025-10-27T19:50	10	0	0.1	0	0	349	0.3	349	350	8.7	85.2
2025-10-27T19:51	10	0	0.1	0	0	349	0.2	348	350	8.8	84.3
2025-10-27T19:52	10	0	0.1	0	0	349	0.2	348	349	8.8	85.1
2025-10-27T19:53	10	0	0.1	0	0	349	0.2	348	349	8.7	85.5
2025-10-27T19:54	10	0	0.1	0	0	349	0.2	348	349	8.8	85.2
2025-10-27T19:55	10	0	0.1	0	0	349	0.2	348	349	8.8	84.6
2025-10-27T19:56	10	0	0.1	0	0	349	0.2	348	349	8.9	83.4
2025-10-27T19:57	10	0	0.1	0	0	349	0.2	348	349	8.9	83.7
2025-10-27T19:58	10	0	0.1	0	0	349	0.3	348	349	8.8	84.3
2025-10-27T19:59	10	0	0.1	0	0	349	0.2	348	349	8.9	84.0
2025-10-27T20:00	10	0	0.1	0	0	349	0.2	348	349	8.8	84.6
2025-10-27T20:01	10	0	0.1	0	0	349	0.2	348	349	8.8	84.9
2025-10-27T20:02	10	0	0.1	0	0	349	0.2	348	349	8.8	85.0
2025-10-27T20:03	10	0	0.1	0	0	349	0.2	348	349	8.8	85.2
2025-10-27T20:04	10	0	0.1	0	0	349	0.2	348	349	8.7	85.7
2025-10-27T20:05	10	0	0.1	0	0	349	0.2	348	349	8.6	86.4
2025-10-27T20:06	10	0	0.0	0	0	349	0.3	348	349	8.7	85.8
2025-10-27T20:07	10	0	0.1	0	0	349	0.2	348	350	8.7	85.5
2025-10-27T20:08	10	0	0.1	0	0	349	0.2	348	349	8.7	85.7
2025-10-27T20:09	10	0	0.1	0	0	349	0.2	349	349	8.7	86.0
2025-10-27T20:10	10	0	0.1	0	0	349	0.2	348	349	8.6	86.6
2025-10-27T20:11	10	0	0.1	0	0	349	0.3	348	349	8.6	86.7
2025-10-27T20:12	10	0	0.1	0	0	349	0.3	348	349	8.6	87.3
2025-10-27T20:13	10	0	0.1	0	0	349	0.2	348	349	8.6	87.5
2025-10-27T20:14	10	0	0.1	0	0	349	0.3	348	349	8.6	87.8
2025-10-27T20:15	10	0	0.1	0	0	349	0.2	348	349	8.5	88.2
2025-10-27T20:16	10	0	0.1	-1	0	349	0.2	348	349	8.4	88.9
2025-10-27T20:17	10	-1	0.1	-1	0	348	0.2	348	349	8.5	88.9
2025-10-27T20:18	10	-1	0.1	-1	0	348	0.2	348	349	8.4	89.4
2025-10-27T20:19	10	0	0.1	-1	0	348	0.2	347	349	8.4	90.1
2025-10-27T20:20	10	0	0.1	-1	0	348	0.2	348	348	8.3	90.7
2025-10-27T20:21	10	0	0.1	0	0	348	0.2	347	348	8.3	90.5
2025-10-27T20:22	10	0	0.1	0	0	348	0.2	348	349	8.4	90.3
2025-10-27T20:23	10	0	0.1	0	0	348	0.3	348	349	8.5	89.1
2025-10-27T20:24	10	0	0.1	0	0	348	0.3	347	348	8.4	89.9
2025-10-27T20:25	10	0	0.1	0	0	348	0.3	347	349	8.4	89.8
2025-10-27T20:26	10	0	0.1	0	0	348	0.2	347	349	8.5	88.7
2025-10-27T20:27	10	0	0.0	0	0	348	0.2	348	349	8.6	87.7
2025-10-27T20:28	10	0	0.1	-1	0	348	0.2	348	348	8.6	88.0
2025-10-27T20:29	10	0	0.1	-1	0	348	0.3	347	348	8.6	88.1
2025-10-27T20:30	10	0	0.1	0	0	348	0.2	347	348	8.7	87.3
2025-10-27T20:31	10	0	0.1	0	0	348	0.3	347	348	8.7	87.2
2025-10-27T20:32	10	0	0.1	0	0	348	0.3	347	349	8.8	86.0
2025-10-27T20:33	10	0	0.1	0	0	347	0.2	347	348	8.8	85.4
2025-10-27T20:34	10	0	0.1	0	0	347	0.2	347	348	8.9	84.5
2025-10-27T20:35	10	0	0.0	0	0	348	0.2	347	348	9.0	83.8
2025-10-27T20:36	10	0	0.1	0	0	348	0.2	347	348	9.1	82.8
2025-10-27T20:37	10	0	0.1	0	0	348	0.2	348	348	9.1	82.7
2025-10-27T20:38	10	0	0.1	0	0	348	0.3	347	349	9.1	82.7
2025-10-27T20:39	10	0	0.1	0	0	348	0.3	348	349	9.1	82.7
2025-10-27T20:40	10	0	0.1	0	0	348	0.3	348	349	9.1	83.2
2025-10-27T20:41	10	0	0.1	0	0	348	0.2	348	349	9.1	82.2
2025-10-27T20:42	10	0	0.1	0	0	348	0.2	348	349	9.2	82.0
2025-10-27T20:43	10	0	0.1	0	0	349	0.2	348	349	9.2	81.8
2025-10-27T20:44	10	0	0.1	0	0	348	0.2	348	349	9.2	81.5
2025-10-27T20:45	10	0	0.0	0	0	348	0.2	348	349	9.2	82.2
2025-10-27T20:46	10	0	0.1	0	0	348	0.3	348	349	9.1	82.5
2025-10-27T20:47	10	0	0.1	0	0	348	0.2	348	349	9.1	82.8
2025-10-27T20:48	10	0	0.0	0	0	348	0.2	348	349	9.0	83.1
2025-10-27T20:49	10	0	0.1	0	0	348	0.2	348	349	9.0	83.5
2025-10-27T20:50	10	0	0.1	0	0	348	0.2	348	349	9.0	82.9
2025-10-27T20:51	10	0	0.1	0	0	348	0.3	347	348	9.0	83.3
2025-10-27T20:52	10	0	0.1	0	0	348	0.2	347	348	8.9	83.4
2025-10-27T20:53	10	0	0.1	0	0	348	0.2	347	348	9.0	82.7
2025-10-27T20:54	10	0	0.1	0	0	348	0.2	347	348	8.9	83.2
2025-10-27T20:55	10	0	0.0	0	0	348	0.2	348	348	8.9	83.0
2025-10-27T20:56	10	0	0.1	0	0	348	0.2	347	349	8.9	82.6
2025-10-27T20:57	10	0	0.1	0	0	348	0.3	347	349	8.9	82.4
2025-10-27T20:58	10	0	0.1	0	0	348	0.3	347	349	9.0	81.5
2025-10-27T20:59	10	0	0.1	0	0	348	0.3	347	348	8.9	81.8
2025-10-27T21:00	10	0	0.1	0	0	348	0.2	347	348	8.9	82.6
2025-10-27T21:01	10	0	0.1	0	0	347	0.3	347	348	8.9	82.5
2025-10-27T21:02	10	0	0.1	0	0	347	0.2	347	348	8.9	81.8
2025-10-27T21:03	10	0	0.1	0	0	347	0.2	347	348	8.9	81.9
2025-10-27T21:04	10	0	0.1	0	0	348	0.2	347	348	9.1	79.0
2025-10-27T21:05	10	0	0.0	0	0	348	0.2	347	348	9.1	79.4
2025-10-27T21:06	10	0	0.1	0	0	348	0.3	347	348	9.1	78.9
2025-10-27T21:07	10	0	0.1	0	0	348	0.2	347	348	9.1	79.2
2025-10-27T21:08	10	0	0.1	0	0	348	0.3	347	348	9.0	79.3
2025-10-27T21:09	10	0	0.1	0	0	348	0.2	347	348	8.9	80.4
2025-10-27T21:10	10	0	0.1	0	0	348	0.3	347	349	8.9	80.0
2025-10-27T21:11	10	0	0.1	0	0	347	0.3	347	348	8.8	81.8
2025-10-27T21:12	10	0	0.0	0	0	347	0.2	347	348	8.8	81.3
2025-10-27T21:13	10	0	0.1	0	0	348	0.2	347	348	8.9	79.3
2025-10-27T21:14	10	0	0.1	0	0	347	0.2	347	348	8.9	79.1
2025-10-27T21:15	10	0	0.1	0	0	348	0.2	347	348	9.0	77.8
2025-10-27T21:16	10	0	0.1	0	0	348	0.2	347	348	9.1	76.8
2025-10-27T21:17	10	0	0.1	0	0	348	0.2	347	348	9.2	76.1
2025-10-27T21:18	10	0	0.1	0	0	348	0.2	347	348	9.2	75.7
2025-10-27T21:19	10	0	0.1	0	0	347	0.3	347	348	9.2	75.0
2025-10-27T21:20	10	0	0.1	0	0	348	0.2	347	348	9.3	73.9
2025-10-27T21:21	10	0	0.0	0	0	348	0.2	347	348	9.3	74.1
2025-10-27T21:22	10	0	0.1	0	0	348	0.3	347	349	9.3	73.9
2025-10-27T21:23	10	0	0.1	0	0	348	0.3	347	349	9.3	73.5
2025-10-27T21:24	10	0	0.1	0	0	348	0.3	348	349	9.4	72.6
2025-10-27T21:25	10	0	0.1	0	0	348	0.3	347	348	9.3	74.4
2025-10-27T21:26	10	0	0.1	0	0	347	0.3	347	348	9.1	76.7
2025-10-27T21:27	10	0	0.1	0	0	348	0.2	347	348	9.2	75.7
2025-10-27T21:28	10	0	0.1	0	0	348	0.3	347	348	9.3	75.1
2025-10-27T21:29	10	0	0.1	0	0	348	0.2	348	349	9.4	74.9
2025-10-27T21:30	10	0	0.1	0	0	348	0.3	348	349	9.3	76.2
2025-10-27T21:31	10	0	0.1	0	0	348	0.2	348	349	9.2	76.7
2025-10-27T21:32	10	0	0.1	0	0	348	0.2	348	349	9.2	77.0
2025-10-27T21:33	10	0	0.1	-1	0	348	0.2	348	349	9.3	76.6
2025-10-27T21:34	10	0	0.1	0	0	348	0.3	348	349	9.3	76.1
2025-10-27T21:35	10	0	0.1	0	0	348	0.2	348	349	9.3	76.6
2025-10-27T21:36	10	0	0.1	0	0	348	0.2	348	349	9.3	76.0
2025-10-27T21:37	10	0	0.1	0	0	348	0.3	348	349	9.4	75.7
2025-10-27T21:38	10	0	0.1	0	0	348	0.2	347	348	9.3	76.8
2025-10-27T21:39	10	0	0.1	0	0	348	0.2	347	348	9.2	76.9
2025-10-27T21:40	10	0	0.1	0	0	348	0.2	348	349	9.4	75.0
2025-10-27T21:41	10	0	0.1	0	0	348	0.3	348	349	9.6	73.9
2025-10-27T21:42	10	0	0.1	0	0	348	0.3	348	349	9.7	72.7
2025-10-27T21:43	10	0	0.1	0	0	349	0.2	348	349	9.8	72.4
2025-10-27T21:44	10	0	0.1	0	0	348	0.3	348	349	9.5	74.9
2025-10-27T21:45	10	0	0.1	0	0	348	0.2	348	349	9.3	76.2
2025-10-27T21:46	10	0	0.1	0	0	348	0.2	348	349	9.3	76.4
2025-10-27T21:47	10	0	0.0	0	0	348	0.2	348	349	9.3	76.8
2025-10-27T21:48	10	0	0.1	0	0	348	0.2	348	349	9.2	77.4
2025-10-27T21:49	10	0	0.1	0	0	348	0.2	347	348	9.2	77.8
2025-10-27T21:50	10	0	0.1	0	0	348	0.3	347	348	9.1	78.0
2025-10-27T21:51	10	0	0.1	0	0	348	0.2	347	348	9.1	78.6
2025-10-27T21:52	10	0	0.1	0	0	347	0.2	347	348	9.0	79.0
2025-10-27T21:53	10	0	0.1	0	0	347	0.2	346	348	8.9	80.0
2025-10-27T21:54	10	0	0.1	0	0	346	0.2	346	347	8.8	80.7
2025-10-27T21:55	10	0	0.1	0	0	346	0.2	345	346	8.8	80.8
2025-10-27T21:56	10	0	0.1	0	0	345	0.2	344	345	8.7	81.5
2025-10-27T21:57	10	0	0.1	0	0	345	0.2	344	345	8.7	81.7
2025-10-27T21:58	10	0	0.1	0	0	344	0.2	344	345	8.6	82.3
2025-10-27T21:59	10	0	0.0	0	0	344	0.2	344	345	8.6	82.6
2025-10-27T22:00	10	0	0.1	0	0	344	0.2	343	344	8.5	83.3
2025-10-27T22:01	10	0	0.0	0	0	344	0.2	343	344	8.5	83.1
2025-10-27T22:02	10	0	0.1	0	0	343	0.2	343	344	8.5	83.4
2025-10-27T22:03	10	0	0.0	0	0	343	0.3	343	344	8.6	82.9
2025-10-27T22:04	10	0	0.1	0	0	343	0.2	343	344	8.6	82.4
2025-10-27T22:05	10	0	0.1	0	0	343	0.3	343	344	8.6	82.7
2025-10-27T22:06	10	0	0.0	0	0	343	0.3	342	343	8.6	83.0
2025-10-27T22:07	10	0	0.1	0	0	343	0.2	343	344	8.6	82.9
2025-10-27T22:08	10	0	0.1	0	0	343	0.3	343	344	8.6	82.9
2025-10-27T22:09	10	0	0.1	0	0	343	0.2	343	344	8.5	83.7
2025-10-27T22:10	10	0	0.1	0	0	344	0.4	343	345	8.5	83.2
2025-10-27T22:11	10	0	0.1	0	0	344	0.2	344	345	8.6	82.8
2025-10-27T22:12	10	0	0.1	0	0	345	0.3	344	345	8.5	83.1
2025-10-27T22:13	10	0	0.1	0	0	345	0.2	345	346	8.6	83.0
2025-10-27T22:14	10	0	0.1	0	0	345	0.3	345	346	8.5	83.2
2025-10-27T22:15	10	0	0.1	0	0	346	0.2	345	346	8.6	82.7
2025-10-27T22:16	10	0	0.0	0	0	346	0.2	345	346	8.5	83.4
2025-10-27T22:17	10	0	0.1	0	0	346	0.3	345	347	8.6	83.3
2025-10-27T22:18	10	0	0.1	0	0	346	0.3	345	347	8.6	83.1
2025-10-27T22:19	10	0	0.1	0	0	346	0.3	346	347	8.6	83.2
2025-10-27T22:20	10	0	0.0	0	0	346	0.3	346	347	8.6	82.9
2025-10-27T22:21	10	0	0.1	0	0	347	0.2	346	347	8.6	83.1
2025-10-27T22:22	10	0	0.1	0	0	347	0.3	346	348	8.6	83.0
2025-10-27T22:23	10	0	0.1	0	0	347	0.2	347	348	8.7	82.7
2025-10-27T22:24	10	0	0.1	0	0	347	0.3	347	348	8.7	82.3
2025-10-27T22:25	10	0	0.1	0	0	347	0.2	347	348	8.7	82.4
2025-10-27T22:26	10	0	0.1	0	0	348	0.3	347	348	8.7	82.4
2025-10-27T22:27	10	0	0.1	0	0	347	0.3	347	348	8.7	82.9
2025-10-27T22:28	10	0	0.1	0	0	347	0.2	347	348	8.7	82.5
2025-10-27T22:29	10	0	0.1	0	0	347	0.2	347	348	8.7	82.8
2025-10-27T22:30	10	0	0.1	0	0	347	0.3	347	348	8.7	82.7
2025-10-27T22:31	10	0	0.1	0	0	348	0.2	347	348	8.8	82.0
2025-10-27T22:32	10	0	0.0	0	0	348	0.2	347	348	8.8	81.9
2025-10-27T22:33	10	0	0.0	0	0	348	0.2	347	348	8.8	81.7
2025-10-27T22:34	10	0	0.1	0	0	348	0.2	347	348	8.8	81.8
2025-10-27T22:35	10	0	0.1	0	0	348	0.2	347	348	8.8	81.7
2025-10-27T22:36	10	0	0.1	0	0	348	0.2	347	348	8.8	81.6
2025-10-27T22:37	10	0	0.1	0	0	348	0.3	347	348	8.8	81.8
2025-10-27T22:38	10	0	0.1	0	0	348	0.2	347	348	8.8	81.9
2025-10-27T22:39	10	0	0.1	0	0	348	0.2	347	348	8.7	82.3
2025-10-27T22:40	10	0	0.1	0	0	348	0.2	347	348	8.8	81.5
2025-10-27T22:41	10	0	0.1	0	0	348	0.2	347	348	8.7	82.3
2025-10-27T22:42	10	0	0.1	0	0	348	0.2	347	349	8.8	81.8
2025-10-27T22:43	10	0	0.1	0	0	348	0.2	347	348	8.7	82.3
2025-10-27T22:44	10	0	0.1	0	0	348	0.2	347	348	8.7	82.4
2025-10-27T22:45	10	0	0.1	0	0	348	0.3	347	348	8.7	82.6
2025-10-27T22:46	10	0	0.1	0	0	348	0.3	347	348	8.6	83.0
2025-10-27T22:47	10	0	0.1	0	0	348	0.2	347	348	8.6	83.5
2025-10-27T22:48	10	0	0.1	0	0	348	0.3	347	348	8.6	83.5
2025-10-27T22:49	10	0	0.1	0	1	348	0.2	347	348	8.6	82.9
2025-10-27T22:50	10	0	0.1	0	0	348	0.2	348	348	8.7	82.7
2025-10-27T22:51	10	0	0.1	0	0	348	0.2	348	349	8.7	82.5
2025-10-27T22:52	10	0	0.1	0	0	348	0.2	347	348	8.6	83.2
2025-10-27T22:53	10	0	0.1	0	0	348	0.2	347	349	8.6	83.6
2025-10-27T22:54	10	0	0.1	0	0	348	0.2	348	348	8.6	83.1
2025-10-27T22:55	10	0	0.1	0	0	348	0.2	347	348	8.5	84.0
2025-10-27T22:56	10	0	0.1	0	0	348	0.3	347	348	8.5	84.0
2025-10-27T22:57	10	0	0.1	0	0	348	0.3	347	349	8.6	83.5
2025-10-27T22:58	10	0	0.1	0	0	348	0.2	347	348	8.6	83.1
2025-10-27T22:59	10	0	0.1	0	0	348	0.2	347	348	8.6	83.3
2025-10-27T23:00	10	0	0.1	0	0	348	0.2	347	349	8.5	83.9
2025-10-27T23:01	10	0	0.1	0	0	348	0.2	347	348	8.6	83.6
2025-10-27T23:02	10	0	0.1	0	0	348	0.3	347	348	8.5	83.9
2025-10-27T23:03	10	0	0.0	0	0	348	0.2	347	348	8.5	83.9
2025-10-27T23:04	10	0	0.1	0	0	348	0.3	347	349	8.5	83.9
2025-10-27T23:05	10	0	0.1	0	0	348	0.2	347	348	8.5	83.8
2025-10-27T23:06	10	0	0.1	0	0	348	0.3	347	348	8.5	84.2
2025-10-27T23:07	10	0	0.1	0	0	348	0.2	347	348	8.6	83.6
2025-10-27T23:08	10	0	0.1	0	0	348	0.2	348	349	8.6	83.9
2025-10-27T23:09	10	0	0.1	0	0	348	0.2	348	348	8.6	83.8
2025-10-27T23:10	10	0	0.0	0	0	348	0.2	348	349	8.6	83.5
2025-10-27T23:11	10	0	0.1	0	0	348	0.2	347	349	8.6	83.9
2025-10-27T23:12	10	0	0.1	0	0	348	0.2	348	349	8.6	83.6
2025-10-27T23:13	10	0	0.1	0	0	348	0.2	348	349	8.6	83.8
2025-10-27T23:14	10	0	0.1	0	0	348	0.2	348	349	8.6	83.4
2025-10-27T23:15	10	0	0.1	0	0	348	0.3	347	349	8.6	83.9
2025-10-27T23:16	10	0	0.1	0	0	348	0.2	347	348	8.6	83.3
2025-10-27T23:17	10	0	0.1	0	0	348	0.2	347	348	8.6	83.3
2025-10-27T23:18	10	0	0.1	0	0	348	0.2	347	348	8.5	84.6
2025-10-27T23:19	10	0	0.1	0	0	348	0.2	347	348	8.4	86.0
2025-10-27T23:20	10	0	0.0	0	0	347	0.2	347	348	8.3	87.1
2025-10-27T23:21	10	0	0.1	0	0	347	0.2	347	348	8.2	87.3
2025-10-27T23:22	10	0	0.1	0	0	347	0.2	347	348	8.1	88.2
2025-10-27T23:23	10	0	0.1	0	0	347	0.2	347	348	8.1	88.7
2025-10-27T23:24	10	0	0.1	0	0	347	0.2	347	348	8.1	88.4
2025-10-27T23:25	10	0	0.1	0	0	347	0.2	347	348	8.1	89.1
2025-10-27T23:26	10	0	0.1	0	0	347	0.2	347	348	8.0	89.4
2025-10-27T23:27	10	0	0.1	0	0	347	0.2	347	348	8.0	89.3
2025-10-27T23:28	10	0	0.1	0	0	347	0.2	347	348	8.1	88.8
2025-10-27T23:29	10	0	0.1	0	0	347	0.3	347	348	8.1	88.6
2025-10-27T23:30	10	0	0.1	0	0	347	0.2	347	348	8.1	88.1
2025-10-27T23:31	10	0	0.0	0	0	347	0.2	347	348	8.1	87.9
2025-10-27T23:32	10	0	0.1	0	0	347	0.2	347	348	8.1	87.9
2025-10-27T23:33	10	0	0.1	0	0	348	0.2	347	348	8.2	87.6
2025-10-27T23:34	10	0	0.1	0	0	348	0.2	347	348	8.3	87.1
2025-10-27T23:35	10	0	0.1	0	0	348	0.2	347	348	8.3	87.5
2025-10-27T23:36	10	0	0.1	0	0	348	0.2	347	348	8.3	87.3
2025-10-27T23:37	10	0	0.1	0	0	348	0.2	347	348	8.4	87.2
2025-10-27T23:38	10	0	0.1	0	0	348	0.3	347	349	8.4	86.8
2025-10-27T23:39	10	0	0.1	0	0	348	0.2	347	348	8.4	87.3
2025-10-27T23:40	10	0	0.1	0	0	348	0.3	347	348	8.3	87.7
2025-10-27T23:41	10	0	0.1	0	0	348	0.2	347	348	8.3	87.9
2025-10-27T23:42	10	0	0.1	0	0	348	0.2	347	348	8.3	88.1
2025-10-27T23:43	10	0	0.1	0	0	348	0.2	347	348	8.3	88.6
2025-10-27T23:44	10	0	0.0	0	0	348	0.2	347	348	8.3	88.1
2025-10-27T23:45	10	0	0.1	0	0	347	0.2	347	348	8.3	88.3
2025-10-27T23:46	10	0	0.1	0	0	347	0.2	347	348	8.3	88.5
2025-10-27T23:47	10	0	0.0	0	0	347	0.3	347	348	8.3	88.3
2025-10-27T23:48	10	0	0.0	0	0	347	0.2	347	348	8.3	88.4
2025-10-27T23:49	10	0	0.0	0	0	347	0.2	346	347	8.4	88.3
2025-10-27T23:50	10	0	0.1	0	0	347	0.2	346	347	8.3	88.6
2025-10-27T23:51	10	0	0.1	0	0	347	0.2	346	347	8.4	87.8
2025-10-27T23:52	10	0	0.1	0	0	347	0.2	347	348	8.6	86.9
2025-10-27T23:53	10	0	0.1	0	0	347	0.3	347	348	8.7	86.3
2025-10-27T23:54	10	0	0.1	0	0	347	0.2	347	348	8.7	85.7
2025-10-27T23:55	10	0	0.1	0	0	347	0.2	347	348	8.8	85.6
2025-10-27T23:56	10	0	0.1	0	0	348	0.2	347	348	8.8	85.8
2025-10-27T23:57	10	0	0.1	0	0	348	0.2	347	348	8.8	85.9
2025-10-27T23:58	10	0	0.1	0	0	348	0.2	347	348	8.8	85.9
2025-10-27T23:59	10	0	0.1	0	0	348	0.3	347	349	8.7	86.6
2025-10-28T00:00	10	0	0.1	0	0	348	0.3	347	349	8.8	85.7
2025-10-28T00:01	10	0	0.1	0	0	348	0.3	347	349	8.8	85.8
2025-10-28T00:02	10	0	0.0	0	0	349	0.3	348	349	8.9	85.3
2025-10-28T00:03	10	0	0.1	0	0	349	0.2	348	349	8.9	85.4
2025-10-28T00:04	10	0	0.1	0	0	349	0.3	348	349	8.9	85.7
2025-10-28T00:05	10	0	0.1	0	0	349	0.2	348	349	8.9	85.6
2025-10-28T00:06	10	0	0.1	0	0	349	0.2	349	349	8.9	85.8
2025-10-28T00:07	10	0	0.1	0	0	349	0.2	348	350	8.9	85.7
2025-10-28T00:08	10	0	0.1	0	0	349	0.2	349	350	8.9	85.3
2025-10-28T00:09	10	0	0.1	0	0	349	0.2	349	350	8.9	85.6
2025-10-28T00:10	10	0	0.1	0	0	349	0.2	349	350	8.9	85.8
2025-10-28T00:11	10	0	0.1	0	0	349	0.3	348	350	8.8	86.7
2025-10-28T00:12	10	0	0.1	0	0	349	0.2	348	349	8.7	86.9
2025-10-28T00:13	10	0	0.1	0	0	349	0.2	348	349	8.7	87.4
2025-10-28T00:14	10	0	0.1	0	0	349	0.2	349	350	8.8	86.5
2025-10-28T00:15	10	0	0.1	0	0	349	0.2	348	349	8.8	86.9
2025-10-28T00:16	10	0	0.1	0	0	349	0.2	348	349	8.8	86.8
2025-10-28T00:17	10	0	0.1	0	0	349	0.3	348	349	8.7	87.2
2025-10-28T00:18	10	0	0.1	0	0	348	0.3	348	349	8.7	87.2
2025-10-28T00:19	10	0	0.1	0	0	348	0.2	348	349	8.8	87.0
2025-10-28T00:20	10	0	0.1	0	0	348	0.3	347	348	8.8	86.8
2025-10-28T00:21	10	0	0.1	0	0	348	0.4	347	348	8.8	86.8
2025-10-28T00:22	10	0	0.1	0	0	347	0.2	346	348	8.8	86.9
2025-10-28T00:23	10	0	0.1	0	0	347	0.3	346	347	8.8	86.9
2025-10-28T00:24	10	0	0.1	0	0	346	0.3	346	347	8.8	87.1
2025-10-28T00:25	10	0	0.0	0	0	345	0.3	345	346	8.7	87.3
2025-10-28T00:26	10	0	0.0	0	0	346	0.2	345	346	8.8	86.9
2025-10-28T00:27	10	0	0.1	0	0	345	0.3	345	346	8.7	87.2
2025-10-28T00:28	10	0	0.1	0	0	345	0.3	344	346	8.7	87.6
2025-10-28T00:29	10	0	0.1	0	0	345	0.3	344	345	8.6	87.8
2025-10-28T00:30	10	0	0.1	0	0	345	0.2	344	346	8.7	87.5
2025-10-28T00:31	10	0	0.0	0	0	345	0.2	344	346	8.7	87.4
2025-10-28T00:32	10	0	0.1	0	0	345	0.4	344	346	8.7	87.2
2025-10-28T00:33	10	0	0.1	0	0	345	0.2	344	346	8.7	87.3
2025-10-28T00:34	10	0	0.1	0	0	345	0.3	344	345	8.6	87.7
2025-10-28T00:35	10	0	0.1	0	0	345	0.2	344	345	8.6	87.7
2025-10-28T00:36	10	0	0.1	0	0	345	0.2	344	346	8.7	87.3
2025-10-28T00:37	10	0	0.1	0	0	345	0.2	344	345	8.6	87.7
2025-10-28T00:38	10	0	0.1	0	0	345	0.3	344	346	8.6	87.8
2025-10-28T00:39	10	0	0.1	0	0	345	0.3	344	345	8.6	87.8
2025-10-28T00:40	10	0	0.0	0	0	345	0.2	344	345	8.6	88.0
2025-10-28T00:41	10	0	0.1	0	0	345	0.3	344	346	8.7	87.6
2025-10-28T00:42	10	0	0.0	0	0	345	0.2	345	346	8.7	87.5
2025-10-28T00:43	10	0	0.1	0	0	345	0.2	345	346	8.6	87.7
2025-10-28T00:44	10	0	0.1	0	0	345	0.3	344	346	8.6	88.0
2025-10-28T00:45	10	0	0.1	0	0	345	0.3	344	345	8.6	87.9
2025-10-28T00:46	10	0	0.1	0	0	345	0.2	344	346	8.6	88.1
2025-10-28T00:47	10	0	0.1	0	0	345	0.3	345	346	8.6	87.8
2025-10-28T00:48	10	0	0.1	0	0	345	0.3	345	346	8.6	88.3
2025-10-28T00:49	10	0	0.1	0	0	345	0.3	344	346	8.6	88.1
2025-10-28T00:50	10	0	0.1	0	0	345	0.2	345	346	8.6	88.1
2025-10-28T00:51	10	0	0.1	0	0	345	0.2	344	345	8.6	88.3
2025-10-28T00:52	10	0	0.1	0	0	345	0.3	344	345	8.6	88.0
2025-10-28T00:53	10	0	0.1	0	0	345	0.2	344	345	8.7	87.7
2025-10-28T00:54	10	0	0.1	0	0	345	0.2	344	345	8.6	88.0
2025-10-28T00:55	10	0	0.1	0	0	344	0.2	344	345	8.6	88.1
2025-10-28T00:56	10	0	0.1	0	0	344	0.3	343	345	8.6	88.1
2025-10-28T00:57	10	0	0.1	0	0	344	0.4	344	345	8.6	88.1
2025-10-28T00:58	10	0	0.1	0	0	344	0.2	344	345	8.7	88.0
2025-10-28T00:59	10	0	0.1	0	0	344	0.3	344	345	8.7	87.9
2025-10-28T01:00	10	0	0.1	0	0	344	0.2	344	345	8.6	88.1
2025-10-28T01:01	10	0	0.1	0	0	344	0.2	343	345	8.6	88.4
2025-10-28T01:02	10	0	0.1	0	0	345	0.2	344	345	8.7	88.1
2025-10-28T01:03	10	0	0.1	0	0	344	0.2	344	345	8.6	88.2
2025-10-28T01:04	10	0	0.1	0	0	344	0.2	344	345	8.6	88.4
2025-10-28T01:05	10	0	0.0	0	0	345	0.2	344	345	8.6	88.5
2025-10-28T01:06	10	0	0.1	0	0	345	0.2	344	345	8.6	88.8
2025-10-28T01:07	10	0	0.1	0	0	345	0.2	344	345	8.6	88.6
2025-10-28T01:08	10	0	0.1	0	0	345	0.3	344	346	8.6	88.4
2025-10-28T01:09	10	0	0.1	0	0	345	0.2	345	346	8.7	88.2
2025-10-28T01:10	10	0	0.1	0	0	345	0.2	345	346	8.7	88.3
2025-10-28T01:11	10	0	0.1	0	0	345	0.3	344	346	8.7	88.2
2025-10-28T01:12	10	0	0.1	0	0	345	0.3	344	346	8.7	88.2
2025-10-28T01:13	10	0	0.1	0	0	345	0.2	345	346	8.7	88.2
2025-10-28T01:14	10	0	0.0	-1	0	345	0.2	344	345	8.7	88.4
2025-10-28T01:15	10	0	0.1	-1	0	345	0.2	344	345	8.7	88.4
2025-10-28T01:16	10	0	0.1	-1	0	345	0.3	344	345	8.6	88.7
2025-10-28T01:17	10	0	0.1	0	0	345	0.3	344	345	8.7	88.4
2025-10-28T01:18	10	0	0.1	0	0	345	0.2	345	346	8.7	88.4
2025-10-28T01:19	10	0	0.1	0	0	345	0.2	345	346	8.7	88.5
2025-10-28T01:20	10	0	0.1	0	0	345	0.2	345	346	8.7	88.4
2025-10-28T01:21	10	0	0.1	0	0	345	0.3	345	346	8.6	88.6
2025-10-28T01:22	10	0	0.1	0	0	346	0.2	345	346	8.7	88.3
2025-10-28T01:23	10	0	0.1	0	0	345	0.4	345	346	8.6	88.8
2025-10-28T01:24	10	0	0.1	0	0	345	0.3	345	346	8.6	88.8
2025-10-28T01:25	10	0	0.1	0	0	345	0.3	344	346	8.6	88.9
2025-10-28T01:26	10	0	0.1	0	0	345	0.2	345	346	8.7	88.6
2025-10-28T01:27	10	0	0.1	0	0	345	0.3	344	346	8.7	88.6
2025-10-28T01:28	10	0	0.1	0	0	345	0.3	345	346	8.6	88.8
2025-10-28T01:29	10	0	0.1	0	0	345	0.2	344	345	8.6	89.0
2025-10-28T01:30	10	0	0.1	0	0	345	0.3	344	346	8.6	88.9
2025-10-28T01:31	10	0	0.1	0	0	344	0.2	344	345	8.6	88.8
2025-10-28T01:32	10	0	0.0	0	0	344	0.3	343	345	8.6	88.9
2025-10-28T01:33	10	0	0.1	0	0	343	0.3	343	344	8.5	89.3
2025-10-28T01:34	10	0	0.1	0	0	344	0.3	343	344	8.6	88.9
2025-10-28T01:35	10	0	0.1	0	0	344	0.2	343	344	8.6	89.0
2025-10-28T01:36	10	0	0.1	0	0	344	0.3	343	345	8.7	88.3
2025-10-28T01:37	10	0	0.1	0	0	344	0.3	344	345	8.7	87.9
2025-10-28T01:38	10	0	0.1	0	0	344	0.3	344	345	8.6	88.4
2025-10-28T01:39	10	0	0.1	0	0	344	0.3	343	345	8.6	88.6
2025-10-28T01:40	10	0	0.1	0	0	344	0.2	343	344	8.6	88.7
2025-10-28T01:41	10	0	0.1	0	0	344	0.3	343	344	8.6	88.9
2025-10-28T01:42	10	0	0.1	0	0	344	0.3	343	344	8.6	88.8
2025-10-28T01:43	10	0	0.1	0	0	344	0.3	344	345	8.6	88.2
2025-10-28T01:44	10	0	0.1	0	0	345	0.2	344	345	8.7	88.2
2025-10-28T01:45	10	0	0.1	0	0	344	0.2	344	345	8.6	88.8
2025-10-28T01:46	10	0	0.1	0	0	344	0.2	343	344	8.5	89.2
2025-10-28T01:47	10	0	0.1	0	0	343	0.2	343	344	8.5	89.3
2025-10-28T01:48	10	0	0.1	0	0	344	0.3	343	344	8.5	89.3
2025-10-28T01:49	10	0	0.1	0	0	344	0.3	343	345	8.5	89.2
2025-10-28T01:50	10	0	0.1	0	0	344	0.2	343	345	8.5	89.2
2025-10-28T01:51	10	0	0.1	0	0	344	0.3	344	345	8.5	89.1
2025-10-28T01:52	10	0	0.1	0	0	345	0.4	344	346	8.5	89.1
2025-10-28T01:53	10	0	0.1	0	0	345	0.2	345	346	8.5	89.1
2025-10-28T01:54	10	0	0.1	0	0	345	0.3	345	346	8.5	89.1
2025-10-28T01:55	10	0	0.1	0	0	346	0.2	345	346	8.5	89.1
2025-10-28T01:56	10	0	0.1	0	0	346	0.2	345	346	8.5	89.1
2025-10-28T01:57	10	0	0.1	0	0	346	0.2	346	347	8.6	88.7
2025-10-28T01:58	10	0	0.1	0	0	346	0.3	346	347	8.6	88.6
2025-10-28T01:59	10	0	0.1	0	0	347	0.3	346	347	8.6	88.4
2025-10-28T02:00	10	0	0.1	0	0	346	0.2	346	347	8.6	88.5
2025-10-28T02:01	10	0	0.1	0	0	347	0.2	346	347	8.6	88.3
2025-10-28T02:02	10	0	0.1	0	0	346	0.4	345	347	8.6	88.3
2025-10-28T02:03	10	0	0.1	0	0	347	0.3	346	347	8.7	88.0
2025-10-28T02:04	10	0	0.1	0	0	347	0.3	346	347	8.7	87.9
2025-10-28T02:05	10	0	0.1	0	0	347	0.3	346	347	8.7	88.1
2025-10-28T02:06	10	0	0.1	0	0	346	0.3	346	347	8.6	88.3
2025-10-28T02:07	10	0	0.1	0	0	346	0.2	345	346	8.6	88.6
2025-10-28T02:08	10	0	0.1	0	0	346	0.2	345	346	8.6	88.5
2025-10-28T02:09	10	0	0.1	0	0	346	0.2	346	346	8.6	88.1
2025-10-28T02:10	10	0	0.1	0	0	346	0.2	346	347	8.6	88.1
2025-10-28T02:11	10	0	0.1	0	0	346	0.2	346	346	8.6	88.3
2025-10-28T02:12	10	0	0.1	0	0	346	0.3	346	347	8.6	88.0
2025-10-28T02:13	10	0	0.1	0	0	346	0.3	346	347	8.7	87.7
2025-10-28T02:14	10	0	0.1	0	0	346	0.2	346	347	8.7	87.5
2025-10-28T02:15	10	0	0.1	0	0	346	0.2	346	347	8.7	87.8
2025-10-28T02:16	10	0	0.1	0	0	347	0.2	346	347	8.7	87.6
2025-10-28T02:17	10	0	0.1	0	0	347	0.2	346	347	8.8	87.0
2025-10-28T02:18	10	0	0.1	0	0	347	0.2	346	348	8.8	86.6
2025-10-28T02:19	10	0	0.1	0	0	348	0.3	347	348	8.9	86.1
2025-10-28T02:20	10	0	0.1	0	0	348	0.2	347	348	8.9	85.6
2025-10-28T02:21	10	0	0.1	0	0	347	0.3	347	348	8.9	85.7
2025-10-28T02:22	10	0	0.1	0	0	347	0.2	347	348	8.9	85.8
2025-10-28T02:23	10	0	0.1	0	0	347	0.2	347	348	8.9	85.7
2025-10-28T02:24	10	0	0.1	0	0	348	0.3	347	348	9.0	85.5
2025-10-28T02:25	10	0	0.1	0	0	348	0.2	347	348	9.0	85.3
2025-10-28T02:26	10	0	0.1	0	0	348	0.2	347	349	9.1	84.9
2025-10-28T02:27	10	0	0.1	0	0	348	0.2	348	349	9.1	84.8
2025-10-28T02:28	10	0	0.1	0	0	348	0.2	348	349	9.1	85.1
2025-10-28T02:29	10	0	0.1	0	0	348	0.2	348	349	9.0	85.3
2025-10-28T02:30	10	0	0.1	0	0	348	0.3	348	349	9.1	85.2
2025-10-28T02:31	10	0	0.0	0	0	348	0.3	348	349	9.0	85.3
2025-10-28T02:32	10	0	0.1	0	0	348	0.3	348	349	9.1	85.1
2025-10-28T02:33	10	0	0.1	0	0	348	0.3	348	349	9.0	85.4
2025-10-28T02:34	10	0	0.1	0	0	348	0.2	348	349	9.0	85.7
2025-10-28T02:35	10	0	0.1	0	0	348	0.3	348	349	9.0	85.5
2025-10-28T02:36	10	0	0.1	0	0	348	0.3	348	349	9.0	85.6
2025-10-28T02:37	10	0	0.1	0	0	348	0.2	347	348	9.0	85.8
2025-10-28T02:38	10	0	0.1	0	0	348	0.2	347	348	9.0	85.9
2025-10-28T02:39	10	0	0.1	0	0	348	0.3	347	348	9.0	85.9
2025-10-28T02:40	10	0	0.1	0	0	348	0.3	347	348	9.0	85.5
2025-10-28T02:41	10	0	0.1	0	0	348	0.3	347	348	9.0	85.7
2025-10-28T02:42	10	0	0.1	0	0	348	0.3	347	348	9.0	85.8
2025-10-28T02:43	10	0	0.0	0	0	347	0.2	347	348	8.9	86.1
2025-10-28T02:44	10	0	0.1	0	0	347	0.3	346	348	8.9	86.0
2025-10-28T02:45	10	0	0.1	0	0	347	0.3	346	348	9.0	85.8
2025-10-28T02:46	10	0	0.1	0	0	347	0.3	346	347	8.9	86.2
2025-10-28T02:47	10	0	0.1	0	0	347	0.3	346	348	9.0	85.6
2025-10-28T02:48	10	0	0.1	0	0	347	0.2	347	347	9.0	85.7
2025-10-28T02:49	10	0	0.1	0	0	347	0.2	346	347	9.0	85.5
2025-10-28T02:50	10	0	0.1	0	0	347	0.2	347	348	9.0	85.5
2025-10-28T02:51	10	0	0.1	0	0	347	0.2	346	347	8.9	86.2
2025-10-28T02:52	10	0	0.1	0	0	346	0.2	346	347	8.9	86.5
2025-10-28T02:53	10	0	0.1	0	0	346	0.2	346	347	8.9	86.3
2025-10-28T02:54	10	0	0.1	0	0	347	0.2	346	347	8.9	86.5
2025-10-28T02:55	10	0	0.1	0	0	347	0.3	346	347	8.9	86.1
2025-10-28T02:56	10	0	0.1	0	0	347	0.3	346	348	8.9	86.2
2025-10-28T02:57	10	0	0.1	0	0	347	0.3	346	347	8.9	86.3
2025-10-28T02:58	10	0	0.1	0	0	347	0.3	346	347	8.9	86.4
2025-10-28T02:59	10	0	0.1	0	0	347	0.2	347	347	8.9	86.0
2025-10-28T03:00	10	0	0.1	0	0	347	0.3	346	347	8.9	86.1
2025-10-28T03:01	10	0	0.1	0	0	347	0.2	346	347	8.9	86.2
2025-10-28T03:02	10	0	0.1	0	0	347	0.3	346	347	8.9	86.2
2025-10-28T03:03	10	0	0.1	0	0	347	0.3	346	347	8.9	86.1
2025-10-28T03:04	10	0	0.1	0	0	347	0.2	346	347	8.9	85.9
2025-10-28T03:05	10	0	0.1	0	0	347	0.2	347	348	9.0	85.6
2025-10-28T03:06	10	0	0.1	0	0	347	0.3	346	348	9.0	85.6
2025-10-28T03:07	10	0	0.1	0	0	347	0.2	346	347	8.9	85.9
2025-10-28T03:08	10	0	0.1	0	0	347	0.2	346	347	9.0	85.2
2025-10-28T03:09	10	0	0.1	0	0	347	0.3	346	347	9.0	85.3
2025-10-28T03:10	10	0	0.1	0	0	347	0.3	346	347	8.9	85.9
2025-10-28T03:11	10	0	0.1	0	0	346	0.2	346	347	8.9	85.6
2025-10-28T03:12	10	0	0.1	0	0	346	0.3	346	347	8.9	85.8
2025-10-28T03:13	10	0	0.1	0	0	346	0.3	345	347	8.9	85.8
2025-10-28T03:14	10	0	0.1	0	0	346	0.3	346	347	9.0	85.4
2025-10-28T03:15	10	0	0.1	0	0	346	0.3	345	346	8.9	85.6
2025-10-28T03:16	10	0	0.1	0	0	346	0.2	345	346	9.0	85.1
2025-10-28T03:17	10	0	0.1	0	0	346	0.3	346	347	9.1	84.5
2025-10-28T03:18	10	0	0.1	0	0	347	0.3	346	347	9.1	84.2
2025-10-28T03:19	10	0	0.1	0	0	347	0.2	346	347	9.2	83.8
2025-10-28T03:20	10	0	0.1	0	0	346	0.2	346	347	9.1	84.0
2025-10-28T03:21	10	0	0.1	0	0	346	0.3	345	347	9.1	84.1
2025-10-28T03:22	10	0	0.1	0	0	346	0.3	345	347	9.1	84.1
2025-10-28T03:23	10	0	0.1	0	0	346	0.4	345	347	9.1	83.8
2025-10-28T03:24	10	0	0.1	0	0	347	0.3	346	348	9.4	82.1
2025-10-28T03:25	10	0	0.1	0	0	347	0.2	346	347	9.4	82.4
2025-10-28T03:26	10	0	0.1	0	0	346	0.3	346	347	9.3	82.9
2025-10-28T03:27	10	0	0.0	0	0	346	0.3	345	346	9.2	83.6
2025-10-28T03:28	10	0	0.1	0	0	346	0.4	345	346	9.2	83.5
2025-10-28T03:29	10	0	0.1	0	0	346	0.2	346	347	9.3	83.2
2025-10-28T03:30	10	0	0.1	0	0	346	0.3	345	346	9.2	83.3
2025-10-28T03:31	10	0	0.1	0	0	346	0.3	345	347	9.3	82.8
2025-10-28T03:32	10	0	0.0	0	0	346	0.2	345	346	9.3	82.9
2025-10-28T03:33	10	0	0.1	0	0	345	0.4	345	346	9.2	83.3
2025-10-28T03:34	10	0	0.1	0	0	345	0.2	345	346	9.3	83.0
2025-10-28T03:35	10	0	0.1	0	0	345	0.4	344	346	9.2	83.4
2025-10-28T03:36	10	0	0.1	0	0	346	0.3	345	346	9.2	82.9
2025-10-28T03:37	10	0	0.1	0	0	346	0.3	345	346	9.4	82.1
2025-10-28T03:38	10	0	0.1	0	0	346	0.3	345	347	9.3	82.3
2025-10-28T03:39	10	0	0.1	0	0	346	0.2	345	346	9.3	82.4
2025-10-28T03:40	10	0	0.1	0	0	346	0.2	345	346	9.3	82.3
2025-10-28T03:41	10	0	0.1	0	0	346	0.2	345	346	9.3	82.3
2025-10-28T03:42	10	0	0.1	0	0	346	0.2	345	346	9.3	82.5
2025-10-28T03:43	10	0	0.1	0	0	346	0.4	345	347	9.3	82.2
2025-10-28T03:44	10	0	0.0	0	0	345	0.3	344	346	9.2	82.9
2025-10-28T03:45	10	0	0.1	0	0	345	0.3	344	345	9.3	82.1
2025-10-28T03:46	10	0	0.1	0	0	345	0.3	345	346	9.3	81.8
2025-10-28T03:47	10	0	0.1	0	0	345	0.2	345	345	9.3	82.1
2025-10-28T03:48	10	0	0.1	0	0	345	0.3	344	345	9.2	82.3
2025-10-28T03:49	10	0	0.1	0	0	344	0.2	344	345	9.1	82.8
2025-10-28T03:50	10	0	0.1	0	0	344	0.2	344	345	9.1	82.7
2025-10-28T03:51	10	0	0.1	0	0	343	0.4	342	344	9.1	83.0
2025-10-28T03:52	10	0	0.1	0	0	343	0.2	342	344	9.1	82.7
2025-10-28T03:53	10	0	0.1	0	0	344	0.3	343	345	9.2	82.0
2025-10-28T03:54	10	0	0.0	0	0	344	0.2	343	344	9.2	82.1
2025-10-28T03:55	10	0	0.1	0	0	344	0.3	343	345	9.1	82.3
2025-10-28T03:56	10	0	0.0	0	0	343	0.3	342	343	9.1	82.6
2025-10-28T03:57	10	0	0.1	0	0	343	0.4	342	344	9.0	82.7
2025-10-28T03:58	10	0	0.1	0	0	343	0.3	342	344	9.1	82.1
2025-10-28T03:59	10	0	0.1	0	0	343	0.3	342	344	9.1	82.4
2025-10-28T04:00	10	0	0.1	0	0	343	0.2	343	344	9.2	81.9
2025-10-28T04:01	10	0	0.1	0	0	343	0.3	342	344	9.1	82.0
2025-10-28T04:02	10	0	0.1	0	0	343	0.2	342	343	9.1	82.3
2025-10-28T04:03	10	0	0.1	0	0	343	0.3	342	343	9.0	82.7
2025-10-28T04:04	10	0	0.1	0	0	343	0.2	343	343	9.1	82.1
2025-10-28T04:05	10	0	0.1	0	0	343	0.3	342	343	9.1	82.0
2025-10-28T04:06	10	0	0.1	0	0	342	0.3	341	343	9.0	82.9
2025-10-28T04:07	10	0	0.1	0	0	342	0.3	342	343	8.9	83.3
2025-10-28T04:08	10	0	0.1	0	0	341	0.2	341	342	8.9	83.4
2025-10-28T04:09	10	0	0.1	0	0	341	0.2	340	342	8.8	83.9
2025-10-28T04:10	10	0	0.1	0	0	340	0.3	339	341	8.8	84.0
2025-10-28T04:11	10	0	0.1	0	0	340	0.4	340	341	8.8	83.5
2025-10-28T04:12	10	0	0.1	0	0	340	0.3	340	341	8.9	83.4
2025-10-28T04:13	10	0	0.1	0	0	340	0.2	340	341	8.8	83.5
2025-10-28T04:14	10	0	0.1	0	0	340	0.2	340	341	8.8	83.5
2025-10-28T04:15	10	0	0.0	0	0	341	0.3	340	342	8.7	84.0
2025-10-28T04:16	10	0	0.1	0	0	343	0.8	341	344	9.0	82.3
2025-10-28T04:17	10	0	0.1	0	0	344	0.3	343	345	9.0	81.9
2025-10-28T04:18	10	0	0.1	0	0	345	0.3	344	345	9.1	81.6
2025-10-28T04:19	10	0	0.1	0	0	345	0.2	344	345	9.0	82.1
2025-10-28T04:20	10	0	0.1	0	0	345	0.2	344	345	8.9	82.7
2025-10-28T04:21	10	0	0.1	0	0	345	0.4	345	346	8.8	83.4
2025-10-28T04:22	10	0	0.1	0	0	346	0.3	345	346	8.7	84.2
2025-10-28T04:23	10	0	0.0	0	0	346	0.3	345	346	8.6	85.3
2025-10-28T04:24	10	0	0.1	0	0	346	0.3	345	346	8.5	85.8
2025-10-28T04:25	10	0	0.1	0	0	346	0.2	345	346	8.5	85.9
2025-10-28T04:26	10	0	0.1	0	0	346	0.3	345	346	8.5	86.0
2025-10-28T04:27	10	0	0.1	0	0	345	0.2	345	346	8.4	86.4
2025-10-28T04:28	10	0	0.1	0	0	346	0.2	346	346	8.4	86.8
2025-10-28T04:29	10	0	0.0	0	0	346	0.2	345	346	8.4	86.7
2025-10-28T04:30	10	0	0.1	0	0	346	0.2	346	346	8.4	87.2
2025-10-28T04:31	10	0	0.0	0	0	346	0.2	346	347	8.4	86.8
2025-10-28T04:32	10	0	0.1	0	0	346	0.2	346	347	8.4	86.9
2025-10-28T04:33	10	0	0.0	0	0	346	0.2	346	347	8.4	87.2
2025-10-28T04:34	10	0	0.1	0	0	347	0.2	346	347	8.4	87.4
2025-10-28T04:35	10	0	0.1	0	0	347	0.2	346	347	8.4	87.3
2025-10-28T04:36	10	0	0.1	0	0	347	0.2	346	347	8.4	87.4
2025-10-28T04:37	10	0	0.1	0	0	347	0.2	347	348	8.4	87.5
2025-10-28T04:38	10	0	0.0	0	0	347	0.2	346	348	8.4	87.6
2025-10-28T04:39	10	0	0.1	0	0	347	0.2	347	347	8.4	87.6
2025-10-28T04:40	10	0	0.1	0	0	347	0.2	346	348	8.4	87.7
2025-10-28T04:41	10	0	0.1	0	0	347	0.2	347	348	8.4	88.1
2025-10-28T04:42	10	0	0.1	0	0	347	0.2	346	348	8.4	88.2
2025-10-28T04:43	10	0	0.1	0	0	347	0.2	346	348	8.5	87.4
2025-10-28T04:44	10	0	0.1	0	0	347	0.2	347	348	8.5	87.2
2025-10-28T04:45	10	0	0.1	0	0	347	0.2	347	348	8.5	87.0
2025-10-28T04:46	10	0	0.1	0	0	347	0.2	347	348	8.5	87.2
2025-10-28T04:47	10	0	0.1	0	0	347	0.3	347	348	8.5	87.1
2025-10-28T04:48	10	0	0.1	0	0	347	0.2	347	348	8.6	86.9
2025-10-28T04:49	10	0	0.1	0	0	347	0.2	347	348	8.6	86.6
2025-10-28T04:50	10	0	0.1	0	0	347	0.2	347	348	8.6	86.9
2025-10-28T04:51	10	0	0.1	0	0	347	0.3	347	348	8.5	87.1
2025-10-28T04:52	10	0	0.1	0	0	347	0.2	347	348	8.5	87.2
2025-10-28T04:53	10	0	0.1	0	0	347	0.3	346	348	8.5	87.5
2025-10-28T04:54	10	0	0.1	0	0	347	0.2	346	347	8.4	87.9
2025-10-28T04:55	10	0	0.1	0	0	347	0.2	346	347	8.4	88.2
2025-10-28T04:56	10	0	0.1	0	0	347	0.2	346	347	8.4	88.3
2025-10-28T04:57	10	0	0.1	0	0	347	0.2	346	347	8.4	88.3
2025-10-28T04:58	10	0	0.1	0	0	347	0.2	346	347	8.4	88.1
2025-10-28T04:59	10	0	0.1	0	0	347	0.2	346	347	8.4	88.3
2025-10-28T05:00	10	0	0.0	0	0	347	0.2	346	347	8.4	88.0
2025-10-28T05:01	10	0	0.1	0	0	347	0.3	346	347	8.4	88.2
2025-10-28T05:02	10	0	0.1	0	0	346	0.3	346	347	8.3	88.6
2025-10-28T05:03	10	0	0.1	0	0	346	0.3	346	347	8.4	88.5
2025-10-28T05:04	10	0	0.1	0	0	346	0.3	346	347	8.3	88.7
2025-10-28T05:05	10	0	0.0	0	0	346	0.2	346	347	8.3	88.7
2025-10-28T05:06	10	0	0.1	0	0	347	0.3	346	347	8.4	88.5
2025-10-28T05:07	10	0	0.0	0	0	347	0.2	346	347	8.4	88.5
2025-10-28T05:08	10	0	0.1	0	0	347	0.2	346	347	8.3	88.9
2025-10-28T05:09	10	0	0.0	0	0	347	0.3	346	347	8.3	88.7
2025-10-28T05:10	10	0	0.1	0	0	347	0.3	346	347	8.3	89.0
2025-10-28T05:11	10	0	0.1	0	0	346	0.2	346	347	8.3	89.3
2025-10-28T05:12	10	0	0.1	0	0	347	0.3	346	347	8.2	89.4
2025-10-28T05:13	10	0	0.1	0	0	346	0.2	346	347	8.2	89.6
2025-10-28T05:14	10	0	0.1	0	0	347	0.2	346	347	8.3	89.4
2025-10-28T05:15	10	0	0.1	0	0	347	0.2	346	347	8.3	89.4
2025-10-28T05:16	10	0	0.1	0	0	347	0.3	346	347	8.3	89.2
2025-10-28T05:17	10	0	0.1	0	0	347	0.2	346	347	8.3	89.2
2025-10-28T05:18	10	0	0.1	0	0	347	0.2	347	347	8.4	88.8
2025-10-28T05:19	10	0	0.1	0	0	347	0.2	346	348	8.4	88.7
2025-10-28T05:20	10	0	0.1	0	0	347	0.2	347	348	8.4	88.2
2025-10-28T05:21	10	0	0.1	0	0	347	0.3	347	348	8.4	88.3
2025-10-28T05:22	10	0	0.1	0	0	347	0.2	347	348	8.4	88.5
2025-10-28T05:23	10	0	0.1	0	0	347	0.2	347	348	8.4	89.0
2025-10-28T05:24	10	0	0.1	0	0	347	0.2	347	347	8.3	89.4
2025-10-28T05:25	10	0	0.1	0	0	347	0.2	347	347	8.3	89.6
2025-10-28T05:26	10	0	0.1	0	0	347	0.2	347	348	8.3	89.1
2025-10-28T05:27	10	0	0.1	0	0	347	0.2	346	347	8.3	89.1
2025-10-28T05:28	10	0	0.1	0	0	347	0.2	347	348	8.3	89.3
2025-10-28T05:29	10	0	0.1	0	0	347	0.2	347	348	8.3	89.0
2025-10-28T05:30	10	0	0.1	0	0	347	0.2	346	348	8.4	88.6
2025-10-28T05:31	10	0	0.0	0	0	347	0.2	347	348	8.3	88.9
2025-10-28T05:32	10	0	0.1	0	0	347	0.2	346	348	8.3	89.3
2025-10-28T05:33	10	0	0.1	0	0	347	0.2	346	347	8.3	89.1
2025-10-28T05:34	10	0	0.1	0	0	347	0.2	346	347	8.3	89.0
2025-10-28T05:35	10	0	0.1	0	0	347	0.3	346	347	8.3	89.4
2025-10-28T05:36	10	0	0.1	0	0	347	0.2	346	347	8.2	89.7
2025-10-28T05:37	10	0	0.1	0	0	347	0.3	347	348	8.3	89.4
2025-10-28T05:38	10	0	0.1	0	0	347	0.2	347	348	8.3	89.2
2025-10-28T05:39	10	0	0.1	0	0	347	0.3	347	348	8.3	89.1
2025-10-28T05:40	10	0	0.1	0	0	347	0.2	347	348	8.3	88.8
2025-10-28T05:41	10	0	0.1	0	0	348	0.3	347	348	8.3	89.0
2025-10-28T05:42	10	0	0.1	0	0	348	0.2	347	348	8.3	88.8
2025-10-28T05:43	10	0	0.1	0	0	348	0.3	347	349	8.4	88.2
2025-10-28T05:44	10	0	0.1	0	0	348	0.2	347	348	8.4	88.1
2025-10-28T05:45	10	0	0.1	0	0	348	0.2	347	349	8.4	88.1
2025-10-28T05:46	10	0	0.1	0	0	348	0.3	347	348	8.4	88.0
2025-10-28T05:47	10	0	0.1	0	0	348	0.2	348	348	8.4	88.3
2025-10-28T05:48	10	0	0.1	0	0	348	0.2	347	348	8.4	88.4
2025-10-28T05:49	10	0	0.1	0	0	348	0.2	348	348	8.4	88.6
2025-10-28T05:50	10	0	0.1	0	0	348	0.2	347	348	8.4	88.6
2025-10-28T05:51	10	0	0.1	0	0	348	0.2	347	348	8.4	88.5
2025-10-28T05:52	10	0	0.1	0	0	348	0.2	347	348	8.4	88.4
2025-10-28T05:53	10	0	0.1	0	0	348	0.2	347	348	8.3	88.4
2025-10-28T05:54	10	0	0.1	0	0	348	0.2	347	348	8.3	88.4
2025-10-28T05:55	10	0	0.1	0	0	348	0.2	347	348	8.3	88.3
2025-10-28T05:56	10	0	0.1	0	0	348	0.3	347	348	8.3	88.1
2025-10-28T05:57	10	0	0.1	0	0	348	0.2	347	348	8.3	88.8
2025-10-28T05:58	10	0	0.1	0	0	348	0.2	347	348	8.3	88.7
2025-10-28T05:59	10	0	0.1	0	0	348	0.2	347	348	8.3	88.6
2025-10-28T06:00	10	0	0.1	0	0	348	0.2	347	348	8.3	89.0
2025-10-28T06:01	10	0	0.1	0	0	347	0.2	347	348	8.2	89.4
2025-10-28T06:02	10	0	0.1	0	0	348	0.2	347	348	8.2	89.2
2025-10-28T06:03	10	0	0.1	0	0	347	0.3	347	348	8.2	89.3
2025-10-28T06:04	10	0	0.1	0	0	347	0.2	347	348	8.3	89.2
2025-10-28T06:05	10	0	0.1	0	0	347	0.2	347	348	8.3	88.7
2025-10-28T06:06	10	0	0.1	0	0	347	0.2	347	348	8.3	88.8
2025-10-28T06:07	10	0	0.1	0	0	347	0.2	347	348	8.3	88.5
2025-10-28T06:08	10	0	0.1	0	0	347	0.2	347	348	8.3	88.9
2025-10-28T06:09	10	0	0.1	0	0	347	0.2	347	347	8.2	89.1
2025-10-28T06:10	10	0	0.1	0	0	347	0.2	346	347	8.2	89.1
2025-10-28T06:11	10	0	0.1	0	0	347	0.2	346	347	8.2	89.1
2025-10-28T06:12	10	0	0.0	0	0	346	0.2	346	347	8.2	89.3
2025-10-28T06:13	10	0	0.1	0	1	346	0.3	346	347	8.2	89.1
2025-10-28T06:14	10	0	0.1	0	0	346	0.2	346	347	8.3	88.9
2025-10-28T06:15	10	0	0.1	0	1	346	0.2	346	347	8.2	89.0
2025-10-28T06:16	10	1	0.0	0	1	346	0.2	346	347	8.2	89.2
2025-10-28T06:17	10	1	0.1	0	1	346	0.2	346	347	8.2	89.5
2025-10-28T06:18	10	1	0.0	1	1	347	0.2	346	347	8.2	89.4
2025-10-28T06:19	10	1	0.1	1	1	346	0.2	346	347	8.2	89.2
2025-10-28T06:20	10	1	0.1	1	1	347	0.2	346	347	8.2	89.3
2025-10-28T06:21	10	1	0.1	1	1	347	0.2	346	347	8.2	89.2
2025-10-28T06:22	10	1	0.1	1	1	347	0.3	346	347	8.2	89.1
2025-10-28T06:23	10	1	0.1	1	1	347	0.2	346	347	8.2	89.3
2025-10-28T06:24	10	1	0.1	1	1	346	0.3	346	347	8.2	89.4
2025-10-28T06:25	10	2	0.1	1	2	347	0.3	346	347	8.2	89.5
2025-10-28T06:26	10	2	0.2	2	2	346	0.2	346	347	8.1	89.5
2025-10-28T06:27	10	3	0.2	2	3	346	0.2	346	347	8.1	89.6
2025-10-28T06:28	10	3	0.2	3	4	346	0.3	345	347	8.1	89.8
2025-10-28T06:29	10	4	0.1	4	4	346	0.2	346	347	8.2	89.3
2025-10-28T06:30	10	4	0.1	4	4	346	0.2	345	346	8.2	89.3
2025-10-28T06:31	10	5	0.1	4	5	345	0.3	345	346	8.1	90.0
2025-10-28T06:32	10	5	0.1	5	5	345	0.2	345	346	8.1	90.0
2025-10-28T06:33	10	5	0.1	5	5	345	0.2	345	346	8.1	89.8
2025-10-28T06:34	10	5	0.1	5	6	346	0.2	345	346	8.1	89.6
2025-10-28T06:35	10	6	0.1	6	6	346	0.3	345	346	8.2	89.4
2025-10-28T06:36	10	6	0.2	6	7	345	0.2	345	346	8.1	89.6
2025-10-28T06:37	10	7	0.2	7	7	346	0.2	345	346	8.1	89.8
2025-10-28T06:38	10	7	0.2	7	8	346	0.3	345	346	8.1	89.9
2025-10-28T06:39	10	8	0.1	8	8	346	0.2	345	346	8.1	89.8
2025-10-28T06:40	10	8	0.1	8	8	346	0.2	346	347	8.1	89.8
2025-10-28T06:41	10	8	0.1	8	9	346	0.2	346	346	8.1	87.0
2025-10-28T06:42	10	9	0.4	9	10	346	0.3	346	347	8.1	90.0
2025-10-28T06:43	10	11	0.6	10	12	347	0.3	346	347	8.1	87.0
2025-10-28T06:44	10	14	1.2	12	16	347	0.4	346	347	8.1	90.0
2025-10-28T06:45	10	19	1.3	16	21	347	0.4	346	348	8.1	90.0
2025-10-28T06:46	10	22	0.5	21	23	348	0.2	347	348	8.1	90.0
2025-10-28T06:47	10	20	0.3	20	21	348	0.2	347	348	8.1	90.0
2025-10-28T06:48	10	23	1.4	21	25	348	0.2	348	348	8.2	89.7
2025-10-28T06:49	10	24	0.3	24	25	348	0.3	348	349	8.4	88.1
2025-10-28T06:50	10	26	0.5	25	26	348	0.3	348	349	8.4	88.8
2025-10-28T06:51	10	26	0.1	26	27	349	0.2	348	349	8.4	88.8
2025-10-28T06:52	10	27	0.1	26	27	349	0.2	348	349	8.5	88.5
2025-10-28T06:53	10	27	0.1	27	27	349	0.2	348	349	8.5	88.7
2025-10-28T06:54	10	27	0.1	27	27	349	0.2	348	349	8.5	88.3
2025-10-28T06:55	10	28	0.2	27	28	348	0.2	348	349	8.5	88.3
2025-10-28T06:56	10	28	0.2	28	29	348	0.3	348	349	8.5	88.3
2025-10-28T06:57	10	29	0.2	29	29	348	0.2	348	349	8.5	88.6
2025-10-28T06:58	10	30	0.2	29	30	348	0.3	348	349	8.5	88.6
2025-10-28T06:59	10	30	0.2	30	30	348	0.3	348	349	8.5	88.7
2025-10-28T07:00	10	31	0.1	30	31	348	0.3	348	349	8.6	88.4
2025-10-28T07:01	10	31	0.2	31	31	349	0.2	348	349	8.6	88.1
2025-10-28T07:02	10	32	0.2	31	32	349	0.2	348	349	8.6	88.5
2025-10-28T07:03	10	33	0.2	32	33	349	0.2	348	349	8.6	88.1
2025-10-28T07:04	10	33	0.2	33	34	349	0.3	348	349	8.7	87.8
2025-10-28T07:05	10	34	0.3	34	35	349	0.3	349	350	8.7	87.5
2025-10-28T07:06	10	35	0.3	35	36	349	0.3	349	350	8.8	87.5
2025-10-28T07:07	10	35	0.3	35	36	350	0.2	349	350	8.8	87.3
2025-10-28T07:08	10	36	0.4	35	36	350	0.2	350	351	8.9	86.8
2025-10-28T07:09	10	31	5.1	19	36	350	0.3	349	351	8.9	86.7
2025-10-28T07:10	10	11	2.3	10	18	349	0.7	348	350	8.9	86.8
2025-10-28T07:11	10	10	0.4	9	11	349	0.3	348	350	8.9	86.0
2025-10-28T07:12	10	19	6.4	11	32	349	0.5	348	350	8.9	86.4
2025-10-28T07:13	10	34	1.0	33	37	350	0.4	349	350	8.9	85.9
2025-10-28T07:14	10	39	1.2	37	41	350	0.3	350	351	9.0	85.0
2025-10-28T07:15	10	41	0.1	41	42	351	0.2	350	351	9.0	85.3
2025-10-28T07:16	10	42	0.2	41	42	351	0.3	351	352	9.1	84.9
2025-10-28T07:17	10	42	0.2	42	43	352	0.2	351	352	9.2	83.9
2025-10-28T07:18	10	43	0.2	43	43	352	0.3	351	353	9.2	83.7
2025-10-28T07:19	10	44	0.3	43	44	353	0.4	352	353	9.2	84.1
2025-10-28T07:20	10	45	0.2	44	45	353	0.3	352	353	9.3	83.2
2025-10-28T07:21	10	45	0.1	45	45	353	0.2	353	353	9.4	82.7
2025-10-28T07:22	10	46	0.3	45	47	353	0.2	353	354	9.4	82.6
2025-10-28T07:23	10	48	0.5	47	48	354	0.2	353	354	9.4	82.8
2025-10-28T07:24	10	40	8.4	26	49	354	0.6	352	355	9.5	81.6
2025-10-28T07:25	10	33	9.3	24	50	353	0.5	352	354	9.5	81.6
2025-10-28T07:26	10	47	2.6	44	50	354	0.2	353	354	9.5	80.9
2025-10-28T07:27	10	41	8.9	25	50	354	0.5	353	355	9.6	80.4
2025-10-28T07:28	10	28	5.9	22	41	353	0.4	353	355	9.5	81.5
2025-10-28T07:29	10	47	3.3	42	54	355	0.3	354	355	9.5	81.8
2025-10-28T07:30	10	57	0.9	55	58	356	0.4	355	357	9.5	81.2
2025-10-28T07:31	10	51	4.5	42	56	356	0.3	356	357	9.5	80.9
2025-10-28T07:32	10	34	3.6	28	42	356	0.5	355	357	9.6	80.9
2025-10-28T07:33	10	25	1.3	24	28	355	0.3	354	356	9.5	81.3
2025-10-28T07:34	10	47	15.0	28	67	356	1.2	354	359	9.5	82.0
2025-10-28T07:35	10	68	0.8	67	69	358	0.3	358	359	9.5	81.3
2025-10-28T07:36	10	67	5.8	59	76	359	0.7	358	361	9.5	80.6
2025-10-28T07:37	10	77	0.6	76	78	361	0.5	360	362	9.5	81.3
2025-10-28T07:38	10	79	0.2	78	79	362	0.4	361	363	9.6	81.0
2025-10-28T07:39	10	79	0.1	79	79	363	0.3	362	363	9.6	80.6
2025-10-28T07:40	10	79	0.1	78	79	362	0.3	361	363	9.6	80.2
2025-10-28T07:41	10	76	3.5	67	78	362	0.2	362	363	9.7	80.7
2025-10-28T07:42	10	71	3.9	65	76	362	0.3	362	363	9.7	80.6
2025-10-28T07:43	10	64	7.0	54	75	363	0.6	362	364	9.8	81.2
2025-10-28T07:44	10	56	7.1	46	67	362	0.6	361	363	9.8	80.4
2025-10-28T07:45	10	66	1.9	60	69	362	0.2	361	362	9.9	80.6
2025-10-28T07:46	10	59	3.8	54	65	361	0.7	360	362	9.9	79.2
2025-10-28T07:47	10	58	8.3	48	70	361	0.6	360	362	9.9	79.1
2025-10-28T07:48	10	70	5.9	55	76	361	0.4	360	362	10.0	79.0
2025-10-28T07:49	10	65	6.3	55	75	361	0.4	360	362	10.0	78.7
2025-10-28T07:50	10	73	2.9	61	75	361	0.5	360	362	10.1	78.8
2025-10-28T07:51	10	72	1.0	70	74	362	0.3	361	363	10.1	78.8
2025-10-28T07:52	10	72	0.2	71	73	362	0.3	361	362	10.2	78.1
2025-10-28T07:53	10	69	3.2	63	73	361	0.5	361	363	10.2	78.4
2025-10-28T07:54	10	39	14.9	22	67	360	1.6	357	362	10.3	77.4
2025-10-28T07:55	10	24	6.2	15	33	358	0.7	356	359	10.3	77.7
2025-10-28T07:56	10	22	9.5	15	52	357	0.4	356	357	10.2	77.9
2025-10-28T07:57	10	68	4.3	53	71	359	1.5	357	362	10.2	78.1
2025-10-28T07:58	10	70	0.8	68	71	361	0.4	360	362	10.2	78.5
2025-10-28T07:59	10	71	0.8	69	72	361	0.3	360	362	10.2	78.3
2025-10-28T08:00	10	72	0.3	72	73	362	0.3	361	363	10.3	78.0
2025-10-28T08:01	10	73	0.3	73	74	362	0.3	361	363	10.3	77.5
2025-10-28T08:02	10	74	0.2	73	74	362	0.5	361	363	10.3	78.0
2025-10-28T08:03	10	74	0.2	74	74	363	0.3	362	363	10.3	78.2
2025-10-28T08:04	10	74	0.1	74	74	363	0.2	362	364	10.4	78.3
2025-10-28T08:05	10	74	0.6	72	75	363	0.4	362	364	10.4	77.8
2025-10-28T08:06	10	72	1.0	70	73	363	0.2	363	364	10.4	78.1
2025-10-28T08:07	10	68	7.5	52	74	363	0.3	362	364	10.4	78.1
2025-10-28T08:08	10	76	1.0	70	76	363	0.3	363	364	10.5	77.7
2025-10-28T08:09	10	75	1.0	73	76	364	0.3	363	364	10.5	77.4
2025-10-28T08:10	10	77	0.4	76	78	364	0.4	363	365	10.5	77.9
2025-10-28T08:11	10	78	0.9	76	80	364	0.6	363	365	10.6	76.5
2025-10-28T08:12	10	80	0.4	79	80	365	0.5	363	366	10.6	77.1
2025-10-28T08:13	10	81	0.7	80	82	367	0.3	366	367	10.6	77.7
2025-10-28T08:14	10	82	0.8	81	84	367	0.2	366	367	10.7	77.4
2025-10-28T08:15	10	84	0.9	79	84	367	0.2	366	367	10.7	76.4
2025-10-28T08:16	10	80	4.7	66	84	367	0.6	366	368	10.7	77.0
2025-10-28T08:17	10	82	0.9	80	83	367	0.4	366	368	10.8	76.4
2025-10-28T08:18	10	81	0.3	80	81	367	0.3	366	367	10.8	75.9
2025-10-28T08:19	10	80	0.1	80	80	367	0.4	366	367	10.8	76.3
2025-10-28T08:20	10	80	0.2	80	80	367	0.4	366	368	10.9	76.3
2025-10-28T08:21	10	81	0.1	80	81	367	0.3	366	367	10.9	76.0
2025-10-28T08:22	10	81	0.2	81	81	367	0.6	366	368	10.9	75.8
2025-10-28T08:23	10	82	0.2	81	82	368	0.3	367	368	11.0	75.9
2025-10-28T08:24	10	82	0.1	82	82	368	1.0	366	369	11.0	75.4
2025-10-28T08:25	10	81	0.1	81	81	366	0.5	366	367	11.0	75.0
2025-10-28T08:26	10	81	0.1	81	81	367	0.5	366	368	11.0	75.4
2025-10-28T08:27	10	81	0.1	81	82	367	0.3	367	368	11.0	75.7
2025-10-28T08:28	10	82	0.2	82	82	368	0.4	367	368	11.0	75.7
2025-10-28T08:29	10	82	0.1	82	82	367	0.5	366	368	11.0	74.9
2025-10-28T08:30	10	83	0.1	82	83	367	0.3	367	368	11.0	75.2
2025-10-28T08:31	10	83	0.2	83	83	367	0.4	367	368	11.0	75.3
2025-10-28T08:32	10	84	0.2	83	84	368	0.4	367	368	11.0	75.5
2025-10-28T08:33	10	84	0.1	84	84	368	0.3	367	368	11.1	75.5
2025-10-28T08:34	10	83	0.3	83	84	368	0.4	367	369	11.1	75.7
2025-10-28T08:35	10	84	0.7	83	85	368	0.7	367	369	11.1	75.3
2025-10-28T08:36	10	85	0.2	84	85	368	0.8	367	369	11.1	74.9
2025-10-28T08:37	10	84	1.0	83	86	369	0.7	368	370	11.1	75.4
2025-10-28T08:38	10	86	0.2	86	86	369	0.5	368	370	11.1	75.4
2025-10-28T08:39	10	86	0.1	86	87	368	0.6	368	370	11.1	74.4
2025-10-28T08:40	10	87	0.1	87	87	369	0.2	368	369	11.1	74.4
2025-10-28T08:41	10	87	0.1	87	88	369	0.3	368	369	11.1	74.3
2025-10-28T08:42	10	88	0.1	87	88	369	0.2	368	369	11.1	74.2
2025-10-28T08:43	10	88	0.1	88	88	370	0.6	369	371	11.2	74.4
2025-10-28T08:44	10	88	0.4	88	89	370	0.5	369	371	11.2	74.7
2025-10-28T08:45	10	88	0.3	88	89	370	0.3	369	370	11.2	74.3
2025-10-28T08:46	10	90	0.1	89	90	370	0.4	369	371	11.2	74.6
2025-10-28T08:47	10	90	0.2	90	91	371	0.3	371	371	11.3	75.3
2025-10-28T08:48	10	91	0.3	90	92	370	0.2	370	371	11.3	74.3
2025-10-28T08:49	10	91	1.0	89	92	371	0.5	370	372	11.3	74.5
2025-10-28T08:50	10	90	0.3	89	91	372	0.2	371	372	11.3	74.4
2025-10-28T08:51	10	90	0.7	89	91	371	0.4	371	372	11.3	74.7
2025-10-28T08:52	10	89	0.7	87	90	371	0.4	370	371	11.3	74.2
2025-10-28T08:53	10	88	0.6	86	89	372	0.4	371	372	11.4	74.9
2025-10-28T08:54	10	89	0.8	88	91	372	0.5	371	373	11.3	74.3
2025-10-28T08:55	10	90	1.1	89	92	372	0.4	371	373	11.4	74.6
2025-10-28T08:56	10	94	0.7	93	95	373	0.7	371	374	11.4	74.9
2025-10-28T08:57	10	95	0.1	95	95	373	0.3	373	374	11.5	74.9
2025-10-28T08:58	10	95	0.1	95	95	373	0.3	372	374	11.4	74.0
2025-10-28T08:59	10	95	0.7	93	95	373	0.7	372	374	11.4	73.5
2025-10-28T09:00	10	91	2.7	87	95	372	0.6	371	373	11.4	73.4
2025-10-28T09:01	10	90	2.1	87	93	372	0.3	372	373	11.4	73.6
2025-10-28T09:02	10	95	2.1	90	97	373	0.5	372	374	11.4	73.7
2025-10-28T09:03	10	93	3.3	87	97	372	0.4	371	373	11.5	73.3
2025-10-28T09:04	10	97	0.2	97	98	373	0.7	371	374	11.5	73.4
2025-10-28T09:05	10	97	0.4	96	98	374	0.4	373	375	11.5	73.2
2025-10-28T09:06	10	95	1.1	94	97	374	0.5	373	375	11.6	73.1
2025-10-28T09:07	10	94	0.5	93	94	374	0.9	373	376	11.6	72.9
2025-10-28T09:08	10	93	1.1	91	94	375	0.3	374	376	11.7	73.2
2025-10-28T09:09	10	92	1.1	90	94	375	0.5	374	376	11.7	72.5
2025-10-28T09:10	10	91	1.7	89	95	374	0.6	373	375	11.7	71.7
2025-10-28T09:11	10	97	1.7	94	99	374	0.4	374	375	11.7	72.3
2025-10-28T09:12	10	98	1.3	95	100	374	0.3	373	375	11.7	72.1
2025-10-28T09:13	10	100	0.5	99	101	376	0.5	375	377	11.8	72.4
2025-10-28T09:14	10	98	0.9	97	99	376	0.6	374	377	11.8	71.5
2025-10-28T09:15	10	98	0.2	98	98	375	0.4	374	376	11.8	71.3
2025-10-28T09:16	10	97	0.6	97	99	376	0.5	375	377	11.9	71.6
2025-10-28T09:17	10	100	0.8	99	102	376	0.3	375	377	11.8	70.9
2025-10-28T09:18	10	102	0.6	101	102	377	0.5	376	378	11.9	71.6
2025-10-28T09:19	10	103	0.2	102	103	376	0.3	376	377	11.9	70.1
2025-10-28T09:20	10	102	0.7	101	103	376	0.3	376	377	11.9	70.2
2025-10-28T09:21	10	102	1.7	100	104	376	0.4	375	377	11.9	69.7
2025-10-28T09:22	10	104	0.1	104	104	377	0.5	376	378	11.9	69.9
2025-10-28T09:23	10	102	2.2	97	105	378	0.5	377	379	12.0	70.3
2025-10-28T09:24	10	100	1.5	97	102	378	0.4	377	379	12.0	69.6
2025-10-28T09:25	10	103	1.1	101	104	377	0.8	376	379	11.9	69.1
2025-10-28T09:26	10	104	0.3	103	105	376	0.4	376	377	12.0	68.7
2025-10-28T09:27	10	105	0.3	104	106	376	0.4	375	377	11.9	68.5
2025-10-28T09:28	10	106	1.2	100	106	378	0.7	376	379	12.0	68.8
2025-10-28T09:29	10	104	3.5	96	106	379	0.9	377	380	12.2	70.0
2025-10-28T09:30	10	104	1.4	101	105	379	0.7	378	380	12.2	68.5
2025-10-28T09:31	10	103	0.8	101	104	377	0.5	376	378	12.1	67.8
2025-10-28T09:32	10	103	4.1	93	106	377	0.8	375	378	12.1	68.0
2025-10-28T09:33	10	107	0.3	106	107	378	0.2	377	378	12.2	68.4
2025-10-28T09:34	10	106	0.4	105	107	378	0.6	377	379	12.2	68.6
2025-10-28T09:35	10	107	0.6	105	107	380	0.7	378	381	12.3	68.9
2025-10-28T09:36	10	94	12.8	72	108	378	1.1	376	380	12.3	67.9
2025-10-28T09:37	10	108	0.7	106	109	379	0.7	378	381	12.3	69.2
2025-10-28T09:38	10	109	0.6	108	110	381	0.3	380	381	12.4	68.4
2025-10-28T09:39	10	109	1.5	107	111	380	0.6	379	381	12.3	68.0
2025-10-28T09:40	10	111	0.6	110	112	380	0.5	379	381	12.3	68.2
2025-10-28T09:41	10	110	0.7	108	111	382	0.5	381	382	12.4	68.7
2025-10-28T09:42	10	104	1.4	102	108	382	0.9	380	383	12.4	68.1
2025-10-28T09:43	10	101	1.9	99	105	380	0.3	380	381	12.4	67.2
2025-10-28T09:44	10	100	0.7	99	101	381	0.4	380	382	12.5	68.2
2025-10-28T09:45	10	94	3.3	86	100	382	0.3	380	382	12.6	68.6
2025-10-28T09:46	10	99	4.1	88	104	381	0.6	380	382	12.5	67.7
2025-10-28T09:47	10	98	1.2	97	102	381	0.4	380	381	12.5	67.8
2025-10-28T09:48	10	106	1.1	102	109	380	0.4	380	381	12.5	67.5
2025-10-28T09:49	10	109	1.1	106	110	381	0.5	380	382	12.4	67.2
2025-10-28T09:50	10	106	8.5	80	111	380	1.1	378	381	12.4	67.1
2025-10-28T09:51	10	96	14.5	70	109	378	0.7	376	379	12.4	66.7
2025-10-28T09:52	10	106	2.3	102	109	379	0.4	378	380	12.4	66.8
2025-10-28T09:53	10	106	3.7	99	110	379	0.5	378	380	12.4	66.7
2025-10-28T09:54	10	107	5.1	99	114	378	0.5	377	379	12.4	66.4
2025-10-28T09:55	10	111	2.0	107	114	380	0.5	378	380	12.4	66.3
2025-10-28T09:56	10	111	2.8	104	114	380	0.4	379	381	12.5	66.2
2025-10-28T09:57	10	114	3.0	109	118	381	0.4	380	382	12.5	66.8
2025-10-28T09:58	10	119	0.2	118	119	383	0.8	381	384	12.6	66.4
2025-10-28T09:59	10	119	0.4	118	120	381	0.6	380	383	12.6	65.6
2025-10-28T10:00	10	118	1.4	116	119	380	0.3	380	381	12.6	65.5
2025-10-28T10:01	10	114	1.5	112	117	381	0.5	380	382	12.6	65.5
2025-10-28T10:02	10	111	1.0	110	112	381	0.3	381	382	12.6	66.1
2025-10-28T10:03	10	112	1.7	110	116	381	0.4	381	382	12.7	65.9
2025-10-28T10:04	10	112	1.1	111	114	382	0.3	381	382	12.7	65.3
2025-10-28T10:05	10	105	3.2	99	111	381	0.7	380	383	12.6	64.5
2025-10-28T10:06	10	100	3.7	95	108	380	0.4	379	381	12.6	64.6
2025-10-28T10:07	10	97	6.8	84	107	380	0.6	379	381	12.7	64.7
2025-10-28T10:08	10	88	4.1	84	96	379	0.2	378	379	12.8	65.2
2025-10-28T10:09	10	100	5.8	91	110	379	0.2	378	379	12.7	64.7
2025-10-28T10:10	10	113	1.2	110	115	380	0.8	379	381	12.7	64.1
2025-10-28T10:11	10	117	6.6	109	128	381	0.5	380	382	12.7	64.2
2025-10-28T10:12	10	113	20.1	75	131	381	1.7	378	384	12.8	64.4
2025-10-28T10:13	10	127	1.6	123	129	384	0.3	383	385	12.8	64.8
2025-10-28T10:14	10	111	7.9	99	122	383	0.9	382	385	12.8	64.4
2025-10-28T10:15	10	109	2.0	105	112	383	1.0	382	385	12.9	65.2
2025-10-28T10:16	10	103	1.1	101	105	383	0.4	382	384	12.9	64.9
2025-10-28T10:17	10	105	2.5	101	110	383	0.6	382	384	12.9	65.5
2025-10-28T10:18	10	97	2.6	93	102	382	1.3	380	385	12.9	64.6
2025-10-28T10:19	10	100	1.6	97	103	382	1.5	380	385	13.0	64.7
2025-10-28T10:20	10	94	5.8	80	100	382	1.8	379	385	13.0	64.1
2025-10-28T10:21	10	102	13.3	81	119	380	0.7	379	382	12.9	63.7
2025-10-28T10:22	10	106	3.0	101	113	381	0.4	380	382	12.8	63.8
2025-10-28T10:23	10	109	4.1	99	114	381	0.3	380	381	12.8	63.9
2025-10-28T10:24	10	90	6.9	82	102	379	1.2	377	381	12.8	63.2
2025-10-28T10:25	10	95	7.6	84	108	380	1.3	377	382	12.8	64.1
2025-10-28T10:26	10	116	6.6	106	123	381	0.5	380	382	12.9	62.9
2025-10-28T10:27	10	120	1.8	117	123	382	0.3	381	382	12.8	62.8
2025-10-28T10:28	10	116	2.5	110	119	382	0.3	381	383	12.9	63.2
2025-10-28T10:29	10	107	2.9	101	111	383	0.9	381	384	13.0	63.6
2025-10-28T10:30	10	99	3.5	93	105	382	1.3	380	384	13.0	62.5
2025-10-28T10:31	10	101	3.6	90	105	381	0.5	380	382	13.0	63.0
2025-10-28T10:32	10	99	4.9	90	106	383	0.8	382	385	13.1	64.4
2025-10-28T10:33	10	102	4.2	95	109	383	1.1	381	385	13.1	63.3
2025-10-28T10:34	10	94	6.8	84	104	381	0.5	380	382	13.1	62.9
2025-10-28T10:35	10	104	3.6	93	109	382	0.2	381	382	13.1	62.5
2025-10-28T10:36	10	104	2.6	101	108	382	0.6	381	383	13.1	62.3
2025-10-28T10:37	10	107	2.2	102	109	383	0.3	382	383	13.1	62.6
2025-10-28T10:38	10	107	3.0	101	110	384	0.8	382	385	13.2	63.2
2025-10-28T10:39	10	104	2.5	101	111	382	1.1	381	385	13.1	61.5
2025-10-28T10:40	10	114	1.1	112	117	383	0.4	382	384	13.1	61.9
2025-10-28T10:41	10	121	2.5	116	124	384	0.6	383	385	13.2	61.8
2025-10-28T10:42	10	117	3.3	109	121	385	0.5	384	386	13.2	61.9
2025-10-28T10:43	10	121	0.7	120	122	386	0.6	384	387	13.3	62.6
2025-10-28T10:44	10	112	15.4	77	127	386	1.0	384	388	13.3	61.6
2025-10-28T10:45	10	122	2.7	118	125	388	0.6	387	389	13.4	62.8
2025-10-28T10:46	10	118	0.9	117	120	387	0.5	386	388	13.4	62.6
2025-10-28T10:47	10	95	13.9	78	119	384	2.3	381	388	13.4	61.6
2025-10-28T10:48	10	113	6.6	97	121	384	1.8	381	387	13.3	61.7
2025-10-28T10:49	10	120	0.8	118	121	386	0.6	385	387	13.4	62.0
2025-10-28T10:50	10	113	1.8	111	118	386	0.7	385	387	13.4	61.5
2025-10-28T10:51	10	115	1.7	111	117	384	0.3	384	385	13.4	61.1
2025-10-28T10:52	10	119	1.6	116	121	385	0.5	384	386	13.4	61.6
2025-10-28T10:53	10	119	0.8	118	121	387	0.6	385	388	13.6	62.3
2025-10-28T10:54	10	119	0.7	117	120	386	0.3	385	387	13.5	61.0
2025-10-28T10:55	10	116	1.2	115	118	385	0.7	384	386	13.4	60.8
2025-10-28T10:56	10	118	1.0	116	119	386	0.4	385	386	13.5	60.8
2025-10-28T10:57	10	118	1.2	116	120	384	0.3	384	385	13.4	59.9
2025-10-28T10:58	10	115	0.6	114	116	385	0.5	384	386	13.4	60.5
2025-10-28T10:59	10	119	0.9	116	120	386	0.8	384	387	13.5	61.1
2025-10-28T11:00	10	121	0.9	119	122	387	0.4	386	388	13.6	61.0
2025-10-28T11:01	10	118	1.5	116	121	387	1.0	385	388	13.6	60.5
2025-10-28T11:02	10	122	0.9	118	122	387	0.9	385	389	13.7	61.2
2025-10-28T11:03	10	104	12.8	84	121	387	1.6	384	389	13.7	59.9
2025-10-28T11:04	10	117	2.0	114	120	386	0.3	385	386	13.6	59.6
2025-10-28T11:05	10	118	1.9	114	122	387	0.8	386	388	13.7	59.6
2025-10-28T11:06	10	124	1.3	122	126	389	0.5	387	390	13.8	59.7
2025-10-28T11:07	10	126	0.5	125	127	388	0.6	387	390	13.8	59.6
2025-10-28T11:08	10	128	0.4	127	128	389	0.3	389	390	13.8	60.2
2025-10-28T11:09	10	124	2.2	121	127	391	0.6	390	392	14.0	61.0
2025-10-28T11:10	10	125	1.8	121	127	390	0.5	389	391	14.0	59.5
2025-10-28T11:11	10	126	1.0	124	127	389	0.4	388	390	13.9	59.3
2025-10-28T11:12	10	121	5.2	101	124	388	0.6	387	390	13.9	59.4
2025-10-28T11:13	10	106	10.6	90	121	387	0.5	387	389	13.9	59.7
2025-10-28T11:14	10	120	1.0	119	122	388	0.5	388	390	13.9	60.1
2025-10-28T11:15	10	118	0.9	116	119	390	0.5	389	391	14.0	60.1
2025-10-28T11:16	10	119	0.3	119	120	389	1.0	387	391	14.0	59.9
2025-10-28T11:17	10	118	1.0	116	120	388	0.4	388	389	13.8	59.1
2025-10-28T11:18	10	117	0.8	114	118	388	0.7	387	389	13.9	59.5
2025-10-28T11:19	10	114	0.7	113	115	388	0.5	387	389	13.9	59.7
2025-10-28T11:20	10	113	2.8	109	117	387	0.6	386	389	13.9	59.3
2025-10-28T11:21	10	119	0.7	118	120	388	0.8	387	390	14.0	59.2
2025-10-28T11:22	10	122	0.7	120	123	391	0.7	389	392	14.1	60.3
2025-10-28T11:23	10	119	8.9	97	124	391	0.6	390	392	14.2	60.1
2025-10-28T11:24	10	117	5.5	99	122	390	0.9	388	392	14.2	60.6
2025-10-28T11:25	10	105	4.6	96	114	390	0.5	389	391	14.2	60.3
2025-10-28T11:26	10	113	4.8	103	119	389	0.6	388	390	14.1	59.8
2025-10-28T11:27	10	116	2.8	111	120	390	0.4	389	390	14.1	59.6
2025-10-28T11:28	10	110	5.0	101	117	388	0.9	386	390	14.0	59.0
2025-10-28T11:29	10	117	6.0	103	123	388	1.0	386	389	14.0	59.2
2025-10-28T11:30	10	123	0.5	122	123	390	0.4	389	391	14.1	59.5
2025-10-28T11:31	10	123	0.6	122	123	391	0.4	390	391	14.2	59.9
2025-10-28T11:32	10	120	1.6	118	123	390	0.4	389	391	14.2	60.1
2025-10-28T11:33	10	115	1.8	112	117	390	0.3	389	390	14.1	59.5
2025-10-28T11:34	10	112	0.7	111	114	390	0.6	389	391	14.2	60.0
2025-10-28T11:35	10	118	1.7	113	120	391	0.7	389	392	14.3	60.8
2025-10-28T11:36	10	121	1.5	119	125	391	0.6	390	392	14.3	60.9
2025-10-28T11:37	10	123	2.5	117	126	389	0.6	388	390	14.1	59.4
2025-10-28T11:38	10	115	1.9	111	118	389	0.4	388	390	14.2	60.5
2025-10-28T11:39	10	118	4.0	112	124	389	0.4	388	390	14.2	60.1
2025-10-28T11:40	10	124	1.4	121	126	388	0.3	388	389	14.1	59.9
2025-10-28T11:41	10	122	2.9	116	126	389	0.6	388	390	14.1	60.2
2025-10-28T11:42	10	121	1.4	118	122	388	0.4	388	389	14.1	60.3
2025-10-28T11:43	10	128	5.5	120	134	390	1.3	388	392	14.1	60.6
2025-10-28T11:44	10	128	4.0	119	132	392	0.5	391	393	14.2	60.3
2025-10-28T11:45	10	131	1.1	128	132	394	0.5	393	395	14.3	61.3
2025-10-28T11:46	10	122	4.0	115	128	394	1.3	390	395	14.4	60.7
2025-10-28T11:47	10	117	2.8	111	122	390	0.9	388	392	14.3	60.0
2025-10-28T11:48	10	121	2.6	116	124	390	0.4	389	391	14.2	60.6
2025-10-28T11:49	10	123	2.4	117	126	389	0.3	388	389	14.1	60.5
2025-10-28T11:50	10	123	0.8	121	124	390	0.6	389	391	14.1	60.9
2025-10-28T11:51	10	122	1.8	118	124	390	0.3	390	391	14.2	61.1
2025-10-28T11:52	10	111	5.4	101	119	389	1.0	388	391	14.1	60.7
2025-10-28T11:53	10	110	1.3	108	113	389	0.6	388	390	14.1	61.2
2025-10-28T11:54	10	119	3.7	113	127	389	0.4	388	389	14.1	60.7
2025-10-28T11:55	10	49	25.6	34	127	384	3.4	379	390	14.0	60.5
2025-10-28T11:56	10	83	40.7	35	125	383	3.1	379	388	14.1	61.4
2025-10-28T11:57	10	110	12.2	82	124	388	1.1	386	389	14.1	61.5
2025-10-28T11:58	10	46	10.4	37	77	383	2.7	380	389	14.1	61.4
2025-10-28T11:59	10	99	28.7	39	119	383	3.0	379	388	14.0	61.2
2025-10-28T12:00	10	108	5.2	100	119	386	0.5	385	387	14.0	61.4
2025-10-28T12:01	10	88	20.7	54	118	386	1.3	384	388	14.0	60.9
2025-10-28T12:02	10	80	28.4	48	116	385	2.1	382	389	14.1	62.2
2025-10-28T12:03	10	112	5.7	91	116	389	0.6	388	390	14.2	61.7
2025-10-28T12:04	10	42	17.3	31	94	383	3.1	380	389	14.1	61.5
2025-10-28T12:05	10	99	21.5	43	117	384	2.5	380	387	14.0	62.0
2025-10-28T12:06	10	109	2.4	105	114	387	0.5	386	388	14.1	62.2
2025-10-28T12:07	10	88	16.1	52	107	386	1.6	383	388	14.1	61.7
2025-10-28T12:08	10	109	1.2	107	112	387	0.6	386	388	14.2	61.8
2025-10-28T12:09	10	114	5.1	104	123	387	0.4	386	388	14.1	61.5
2025-10-28T12:10	10	107	8.9	90	128	388	0.6	386	389	14.1	62.1
2025-10-28T12:11	10	127	8.4	98	133	389	0.9	387	391	14.2	62.0
2025-10-28T12:12	10	52	14.8	41	96	384	2.3	381	388	14.1	61.3
2025-10-28T12:13	10	37	1.5	35	40	380	0.9	379	382	14.1	62.3
2025-10-28T12:14	10	34	0.7	33	35	378	0.8	377	380	14.0	62.6
2025-10-28T12:15	10	34	1.1	33	36	377	0.3	377	378	13.9	62.3
2025-10-28T12:16	10	43	7.9	33	56	378	0.6	377	379	13.9	62.7
2025-10-28T12:17	10	34	2.0	32	39	377	0.3	376	377	13.9	62.7
2025-10-28T12:18	10	33	1.6	32	37	376	0.3	375	377	13.8	63.1
2025-10-28T12:19	10	97	39.0	34	130	380	4.1	374	386	13.8	63.0
2025-10-28T12:20	10	67	26.0	39	125	382	2.4	379	386	13.9	63.2
2025-10-28T12:21	10	31	6.3	25	53	378	1.6	376	381	13.9	63.4
2025-10-28T12:22	10	24	0.5	23	25	375	0.6	374	377	13.8	62.8
2025-10-28T12:23	10	25	1.9	23	28	375	0.3	374	375	13.8	63.4
2025-10-28T12:24	10	31	13.2	25	85	375	0.5	373	376	13.8	63.8
2025-10-28T12:25	10	81	29.4	37	122	380	2.8	375	383	13.8	63.9
2025-10-28T12:26	10	31	1.6	29	36	377	1.3	375	380	13.8	63.1
2025-10-28T12:27	10	46	10.2	31	65	377	0.8	375	378	13.8	62.9
2025-10-28T12:28	10	44	16.9	32	86	376	0.7	375	378	13.9	62.2
2025-10-28T12:29	10	117	15.1	72	130	382	2.8	377	387	13.9	62.7
2025-10-28T12:30	10	64	39.2	31	130	382	3.7	377	388	13.9	62.1
2025-10-28T12:31	10	109	35.0	31	130	382	3.9	376	387	14.0	62.2
2025-10-28T12:32	10	94	34.7	37	131	385	2.0	380	388	14.0	62.5
2025-10-28T12:33	10	91	38.5	38	138	383	2.8	379	388	14.0	62.7
2025-10-28T12:34	10	113	35.9	38	134	386	2.9	381	390	14.0	62.8
2025-10-28T12:35	10	133	0.7	132	134	390	1.3	388	392	14.1	62.9
2025-10-28T12:36	10	131	0.5	130	133	390	0.6	389	392	14.2	62.4
2025-10-28T12:37	10	131	0.4	130	131	391	0.3	391	392	14.3	62.9
2025-10-28T12:38	10	110	13.5	85	129	389	2.0	386	392	14.3	61.6
2025-10-28T12:39	10	113	21.9	59	131	388	1.5	386	391	14.3	61.6
2025-10-28T12:40	10	130	0.3	129	131	392	0.6	390	393	14.4	62.1
2025-10-28T12:41	10	128	0.9	126	130	391	1.3	389	393	14.4	61.3
2025-10-28T12:42	10	126	0.4	125	127	391	0.5	390	392	14.4	61.7
2025-10-28T12:43	10	123	1.2	121	125	391	0.5	390	392	14.4	61.8
2025-10-28T12:44	10	121	0.3	121	122	392	0.4	391	393	14.5	61.8
2025-10-28T12:45	10	121	0.3	121	122	392	0.7	390	393	14.5	61.4
2025-10-28T12:46	10	120	0.5	119	121	392	0.5	391	393	14.6	61.3
2025-10-28T12:47	10	121	0.3	120	121	390	0.6	389	392	14.4	60.6
2025-10-28T12:48	10	119	0.5	118	120	390	0.4	389	391	14.5	61.3
2025-10-28T12:49	10	119	0.2	119	120	391	0.4	390	392	14.5	61.2
2025-10-28T12:50	10	117	1.0	115	118	390	0.3	390	391	14.6	60.9
2025-10-28T12:51	10	117	1.0	115	119	390	0.4	389	391	14.5	61.0
2025-10-28T12:52	10	118	0.2	118	119	390	0.4	389	391	14.5	60.6
2025-10-28T12:53	10	118	0.4	117	119	390	0.4	389	391	14.5	60.5
2025-10-28T12:54	10	117	0.3	117	118	392	0.4	391	392	14.6	60.6
2025-10-28T12:55	10	117	0.2	116	117	391	0.6	390	392	14.7	59.9
2025-10-28T12:56	10	116	0.2	116	116	391	0.2	390	391	14.7	60.0
2025-10-28T12:57	10	115	0.2	115	116	390	0.3	390	391	14.6	59.7
2025-10-28T12:58	10	115	0.2	114	115	390	0.5	389	391	14.7	60.3
2025-10-28T12:59	10	114	0.1	114	114	390	0.6	388	391	14.6	59.0
2025-10-28T13:00	10	114	0.1	114	114	389	0.4	388	390	14.6	59.4
2025-10-28T13:01	10	114	0.1	114	114	389	0.8	388	391	14.6	59.4
2025-10-28T13:02	10	113	0.6	111	114	389	0.3	388	390	14.6	60.0
2025-10-28T13:03	10	112	1.3	107	113	389	0.3	389	390	14.7	59.3
2025-10-28T13:04	10	112	0.1	112	112	389	0.6	388	391	14.7	58.7
2025-10-28T13:05	10	112	0.2	112	113	390	0.3	389	391	14.8	59.3
2025-10-28T13:06	10	108	7.6	86	114	390	0.5	389	391	14.8	59.3
2025-10-28T13:07	10	113	0.4	112	114	390	0.8	388	391	14.8	58.8
2025-10-28T13:08	10	94	28.5	38	115	388	2.5	383	390	14.7	57.6
2025-10-28T13:09	10	109	4.3	99	113	388	1.1	385	390	14.6	57.7
2025-10-28T13:10	10	111	0.4	111	112	389	0.7	388	390	14.7	58.1
2025-10-28T13:11	10	111	0.1	110	111	389	0.5	388	390	14.7	58.0
2025-10-28T13:12	10	110	0.3	109	111	389	0.6	388	390	14.7	57.4
2025-10-28T13:13	10	109	0.3	108	109	388	0.4	387	389	14.7	56.9
2025-10-28T13:14	10	108	0.2	108	109	387	0.2	387	388	14.6	57.0
2025-10-28T13:15	10	107	0.2	107	108	388	0.3	387	389	14.6	58.0
2025-10-28T13:16	10	107	0.1	107	107	388	0.3	388	389	14.7	58.0
2025-10-28T13:17	10	107	0.1	107	107	389	0.6	388	390	14.8	58.1
2025-10-28T13:18	10	107	0.2	106	107	388	0.5	388	390	14.7	57.8
2025-10-28T13:19	10	106	0.1	106	107	390	0.3	389	390	14.8	58.5
2025-10-28T13:20	10	106	0.1	106	106	388	1.0	387	390	14.8	57.0
2025-10-28T13:21	10	106	0.3	105	106	388	0.6	387	389	14.8	56.1
2025-10-28T13:22	10	105	0.1	105	105	388	0.4	387	389	14.8	56.3
2025-10-28T13:23	10	105	0.2	105	105	388	0.6	387	389	14.8	56.6
2025-10-28T13:24	10	105	0.1	105	105	388	0.4	387	389	14.8	56.3
2025-10-28T13:25	10	105	0.1	104	105	387	0.2	387	388	14.8	55.8
2025-10-28T13:26	10	104	0.2	104	105	388	0.4	387	388	14.8	56.0
2025-10-28T13:27	10	104	0.2	103	104	387	0.2	386	387	14.9	54.9
2025-10-28T13:28	10	103	0.1	103	103	387	0.4	387	388	14.9	54.8
2025-10-28T13:29	10	103	0.1	103	103	388	0.2	387	388	14.9	55.7
2025-10-28T13:30	10	103	0.1	102	103	387	0.3	387	388	14.9	55.3
2025-10-28T13:31	10	102	0.1	102	102	387	0.4	386	388	14.9	54.9
2025-10-28T13:32	10	102	0.1	102	102	388	0.3	387	388	14.9	55.3
2025-10-28T13:33	10	102	0.2	101	102	387	0.4	386	388	14.9	54.1
2025-10-28T13:34	10	101	0.2	101	101	387	0.3	386	387	14.9	54.2
2025-10-28T13:35	10	101	0.2	100	101	387	0.5	386	388	14.8	55.7
2025-10-28T13:36	10	100	0.1	100	101	388	0.4	387	388	14.9	56.2
2025-10-28T13:37	10	100	0.1	100	100	387	0.5	386	388	14.9	55.5
2025-10-28T13:38	10	100	0.1	100	100	387	0.4	387	388	14.9	56.6
2025-10-28T13:39	10	100	0.2	99	100	388	0.5	387	388	14.9	56.0
2025-10-28T13:40	10	99	0.1	99	99	388	0.4	387	388	14.9	56.3
2025-10-28T13:41	10	99	0.2	98	99	387	0.8	386	388	15.0	56.5
2025-10-28T13:42	10	97	1.1	95	98	386	0.3	386	387	14.9	56.0
2025-10-28T13:43	10	93	4.2	86	98	387	0.5	386	388	14.9	56.6
2025-10-28T13:44	10	98	0.1	98	99	387	0.3	387	388	15.0	56.8
2025-10-28T13:45	10	98	0.1	98	98	388	0.3	387	388	15.0	56.7
2025-10-28T13:46	10	98	0.1	98	98	387	0.4	386	388	15.0	56.1
2025-10-28T13:47	10	98	0.1	98	98	386	0.3	386	387	15.0	55.7
2025-10-28T13:48	10	98	0.2	97	98	386	0.4	385	387	14.9	55.9
2025-10-28T13:49	10	97	0.1	97	97	385	0.3	385	386	14.9	55.7
2025-10-28T13:50	10	96	1.0	94	97	386	0.3	385	386	15.0	56.1
2025-10-28T13:51	10	79	11.5	62	95	385	1.2	382	386	15.0	55.8
2025-10-28T13:52	10	87	8.3	69	96	385	1.2	383	387	14.9	56.4
2025-10-28T13:53	10	95	0.2	95	96	386	0.3	386	387	15.0	56.5
2025-10-28T13:54	10	95	0.5	94	96	387	0.4	386	388	15.1	56.9
2025-10-28T13:55	10	93	0.8	91	95	386	0.4	386	388	15.1	55.9
2025-10-28T13:56	10	94	1.1	92	95	386	0.3	386	387	15.1	56.0
2025-10-28T13:57	10	94	0.4	93	95	387	0.4	385	387	15.1	56.4
2025-10-28T13:58	10	90	3.0	81	93	386	0.5	385	387	15.1	57.0
2025-10-28T13:59	10	80	3.3	75	86	385	0.3	384	386	15.1	57.6
2025-10-28T14:00	10	92	1.8	86	93	386	0.6	385	387	15.1	57.7
2025-10-28T14:01	10	92	0.2	91	92	387	0.3	386	387	15.2	58.3
2025-10-28T14:02	10	91	0.2	91	91	386	0.6	385	387	15.2	56.3
2025-10-28T14:03	10	90	0.2	90	91	385	0.3	385	386	15.1	55.8
2025-10-28T14:04	10	90	0.1	90	90	385	0.4	384	386	15.1	56.2
2025-10-28T14:05	10	90	0.1	89	90	385	0.3	385	386	15.1	55.8
2025-10-28T14:06	10	89	0.2	89	89	385	0.8	384	387	15.1	55.8
2025-10-28T14:07	10	89	0.2	88	89	387	0.5	385	387	15.2	56.8
2025-10-28T14:08	10	88	0.2	88	88	385	0.3	385	386	15.2	56.2
2025-10-28T14:09	10	87	0.1	87	88	386	0.5	385	387	15.2	56.1
2025-10-28T14:10	10	87	0.2	86	87	387	0.3	386	387	15.3	55.8
2025-10-28T14:11	10	86	0.1	86	87	387	0.2	386	387	15.3	56.6
2025-10-28T14:12	10	86	0.1	86	86	386	0.3	385	387	15.3	56.0
2025-10-28T14:13	10	86	0.2	85	86	386	0.4	385	386	15.2	55.9
2025-10-28T14:14	10	85	0.2	84	86	385	0.2	385	386	15.2	56.5
2025-10-28T14:15	10	84	0.2	84	85	385	0.3	385	386	15.2	56.7
2025-10-28T14:16	10	83	0.4	83	84	385	0.3	385	386	15.2	57.2
2025-10-28T14:17	10	84	0.1	83	84	386	0.2	386	387	15.3	57.8
2025-10-28T14:18	10	83	0.2	83	83	386	0.3	385	386	15.3	57.0
2025-10-28T14:19	10	83	0.2	82	83	385	0.4	384	386	15.2	57.8
2025-10-28T14:20	10	82	0.2	82	82	386	0.4	385	386	15.3	57.4
2025-10-28T14:21	10	82	0.1	81	82	386	0.4	385	387	15.3	58.1
2025-10-28T14:22	10	81	0.1	81	81	386	0.6	385	387	15.3	57.3
2025-10-28T14:23	10	81	0.2	80	81	385	0.6	384	386	15.2	54.9
2025-10-28T14:24	10	80	0.2	80	80	384	0.3	383	385	15.2	55.5
2025-10-28T14:25	10	79	0.2	79	80	384	0.3	383	384	15.2	55.4
2025-10-28T14:26	10	78	0.2	78	79	383	0.5	382	384	15.1	55.0
2025-10-28T14:27	10	78	0.2	78	78	383	0.2	382	383	15.1	55.5
2025-10-28T14:28	10	77	0.2	77	78	383	0.3	382	383	15.1	54.8
2025-10-28T14:29	10	77	0.2	76	77	382	0.3	382	383	15.1	55.1
2025-10-28T14:30	10	76	0.2	76	76	382	0.3	382	383	15.1	55.3
2025-10-28T14:31	10	75	0.2	75	76	382	0.4	381	383	15.1	56.1
2025-10-28T14:32	10	75	0.1	75	75	383	0.3	382	383	15.1	56.2
2025-10-28T14:33	10	75	0.2	74	75	382	0.5	382	383	15.1	55.9
2025-10-28T14:34	10	74	0.2	74	74	382	0.3	381	383	15.1	55.7
2025-10-28T14:35	10	73	0.2	73	74	382	0.3	381	382	15.1	55.6
2025-10-28T14:36	10	73	0.2	72	73	381	0.3	381	382	15.1	55.5
2025-10-28T14:37	10	72	0.2	72	73	381	0.3	381	382	15.1	55.7
2025-10-28T14:38	10	72	0.2	71	72	381	0.2	381	382	15.1	56.0
2025-10-28T14:39	10	71	0.2	71	72	381	0.2	381	382	15.1	56.3
2025-10-28T14:40	10	70	0.2	70	71	381	0.3	381	382	15.1	56.6
2025-10-28T14:41	10	70	0.2	70	70	381	0.2	381	382	15.1	56.6
2025-10-28T14:42	10	69	0.2	69	70	382	0.2	381	382	15.1	57.1
2025-10-28T14:43	10	69	0.1	69	69	382	0.3	381	383	15.1	57.1
2025-10-28T14:44	10	68	0.2	68	69	382	0.3	381	383	15.2	57.3
2025-10-28T14:45	10	68	0.2	68	68	381	0.3	381	382	15.2	56.4
2025-10-28T14:46	10	67	0.1	67	68	381	0.3	381	382	15.2	56.4
2025-10-28T14:47	10	67	0.2	66	67	381	0.3	381	382	15.2	56.7
2025-10-28T14:48	10	66	0.1	66	67	381	0.5	380	382	15.2	56.2
2025-10-28T14:49	10	66	0.2	65	66	380	0.3	380	381	15.2	55.1
2025-10-28T14:50	10	65	0.2	65	65	380	0.3	379	380	15.1	55.2
2025-10-28T14:51	10	64	0.2	64	65	380	0.3	380	381	15.1	55.4
2025-10-28T14:52	10	64	0.2	63	64	380	0.3	379	380	15.1	55.4
2025-10-28T14:53	10	63	0.2	63	64	380	0.3	379	380	15.1	56.3
2025-10-28T14:54	10	63	0.1	62	63	379	0.3	379	380	15.1	56.0
2025-10-28T14:55	10	62	0.2	62	62	380	0.2	379	380	15.1	56.2
2025-10-28T14:56	10	61	0.2	61	62	379	0.2	379	380	15.0	56.1
2025-10-28T14:57	10	61	0.2	60	61	379	0.3	378	380	15.0	56.7
2025-10-28T14:58	10	60	0.2	60	60	379	0.2	378	379	15.0	56.2
2025-10-28T14:59	10	59	0.2	59	60	379	0.3	378	379	15.0	56.5
2025-10-28T15:00	10	59	0.2	58	59	379	0.3	378	379	15.0	56.1
2025-10-28T15:01	10	58	0.2	58	58	378	0.2	378	379	15.0	55.7
2025-10-28T15:02	10	58	0.2	57	58	378	0.4	377	379	15.0	56.3
2025-10-28T15:03	10	57	0.2	57	57	378	0.2	378	379	15.0	56.7
2025-10-28T15:04	10	56	0.2	56	57	378	0.4	377	379	15.0	57.3
2025-10-28T15:05	10	56	0.2	55	56	378	0.2	377	378	15.1	55.7
2025-10-28T15:06	10	55	0.2	55	55	378	0.2	377	378	15.1	55.6
2025-10-28T15:07	10	54	0.2	54	55	377	0.2	377	378	15.0	55.4
2025-10-28T15:08	10	53	0.2	53	54	377	0.2	377	378	15.0	55.8
2025-10-28T15:09	10	53	0.2	52	53	377	0.2	376	377	15.0	56.0
2025-10-28T15:10	10	52	0.2	52	53	377	0.2	376	377	14.9	56.9
2025-10-28T15:11	10	52	0.2	51	52	376	0.2	376	377	14.9	57.5
2025-10-28T15:12	10	51	0.2	51	51	376	0.2	376	377	14.9	56.8
2025-10-28T15:13	10	50	0.3	50	51	376	0.2	376	377	14.9	56.4
2025-10-28T15:14	10	50	0.2	49	50	376	0.2	376	376	14.9	55.5
2025-10-28T15:15	10	49	0.2	49	49	376	0.2	375	376	14.9	55.9
2025-10-28T15:16	10	48	0.2	48	49	375	0.3	375	376	14.9	55.9
2025-10-28T15:17	10	48	0.3	47	48	375	0.2	375	376	14.9	56.0
2025-10-28T15:18	10	47	0.2	46	47	375	0.2	374	376	14.8	56.5
2025-10-28T15:19	10	46	0.2	46	47	375	0.3	374	375	14.8	56.5
2025-10-28T15:20	10	45	0.2	45	46	374	0.2	374	375	14.8	56.2
2025-10-28T15:21	10	45	0.2	44	45	374	0.3	374	375	14.8	56.9
2025-10-28T15:22	10	44	0.2	44	44	374	0.2	374	375	14.7	56.8
2025-10-28T15:23	10	43	0.2	43	44	374	0.3	373	374	14.7	57.4
2025-10-28T15:24	10	43	0.2	42	43	374	0.2	373	374	14.7	56.9
2025-10-28T15:25	10	42	0.2	42	42	373	0.2	373	374	14.7	57.3
2025-10-28T15:26	10	41	0.2	41	42	373	0.2	373	374	14.7	56.9
2025-10-28T15:27	10	40	0.2	40	41	373	0.2	373	374	14.7	56.9
2025-10-28T15:28	10	40	0.2	39	40	373	0.2	372	373	14.7	57.0
2025-10-28T15:29	10	39	0.2	39	39	373	0.2	372	373	14.7	56.9
2025-10-28T15:30	10	38	0.2	38	39	372	0.2	372	373	14.6	57.3
2025-10-28T15:31	10	38	0.2	37	38	372	0.2	372	373	14.6	57.2
2025-10-28T15:32	10	37	0.2	37	37	372	0.2	371	372	14.6	57.9
2025-10-28T15:33	10	36	0.3	36	37	371	0.2	371	372	14.6	58.5
2025-10-28T15:34	10	35	0.3	35	36	371	0.2	371	372	14.5	58.7
2025-10-28T15:35	10	35	0.2	34	35	371	0.2	371	372	14.6	58.0
2025-10-28T15:36	10	34	0.2	34	34	371	0.2	371	372	14.6	57.8
2025-10-28T15:37	10	33	0.2	33	34	371	0.3	370	371	14.6	58.0
2025-10-28T15:38	10	33	0.2	32	33	370	0.2	370	371	14.5	58.6
2025-10-28T15:39	10	32	0.2	31	32	370	0.3	369	370	14.5	58.9
2025-10-28T15:40	10	31	0.3	30	31	369	0.2	369	370	14.4	59.5
2025-10-28T15:41	10	30	0.3	29	30	369	0.3	368	369	14.4	59.4
2025-10-28T15:42	10	29	0.3	28	29	369	0.3	368	369	14.5	58.4
2025-10-28T15:43	10	28	0.3	27	28	369	0.2	369	370	14.5	58.8
2025-10-28T15:44	10	27	0.2	27	28	369	0.2	368	369	14.5	59.0
2025-10-28T15:45	10	26	0.3	26	27	368	0.2	368	369	14.4	59.2
2025-10-28T15:46	10	25	0.3	25	26	368	0.2	367	368	14.4	59.1
2025-10-28T15:47	10	24	0.3	24	25	367	0.2	367	368	14.4	59.3
2025-10-28T15:48	10	23	0.3	23	24	367	0.3	366	368	14.3	60.0
2025-10-28T15:49	10	22	0.4	21	23	367	0.2	366	367	14.3	59.4
2025-10-28T15:50	10	20	0.4	20	21	367	0.2	366	367	14.4	59.1
2025-10-28T15:51	10	19	0.3	19	20	366	0.2	366	367	14.4	59.3
2025-10-28T15:52	10	18	0.4	17	19	366	0.2	366	366	14.4	59.1
2025-10-28T15:53	10	17	0.3	16	17	366	0.3	365	367	14.4	59.5
2025-10-28T15:54	10	16	0.2	15	16	366	0.2	366	366	14.3	59.3
2025-10-28T15:55	10	15	0.2	15	15	366	0.3	366	367	14.4	59.2
2025-10-28T15:56	10	14	0.2	14	15	365	0.2	365	366	14.3	60.0
2025-10-28T15:57	10	13	0.3	13	14	365	0.2	365	365	14.1	60.7
2025-10-28T15:58	10	13	0.3	12	13	364	0.2	364	365	14.2	60.4
2025-10-28T15:59	10	12	0.3	11	12	364	0.3	363	365	14.2	60.3
2025-10-28T16:00	10	11	0.3	10	11	364	0.2	364	365	14.1	60.4
2025-10-28T16:01	10	10	0.3	9	10	364	0.3	363	364	14.0	61.0
2025-10-28T16:02	10	9	0.3	9	9	363	0.4	362	363	13.9	61.9
2025-10-28T16:03	10	8	0.3	8	9	362	0.3	361	362	13.9	61.9
2025-10-28T16:04	10	7	0.5	6	8	361	0.3	361	362	13.9	62.0
2025-10-28T16:05	10	5	0.6	4	6	361	0.3	361	362	13.8	62.2
2025-10-28T16:06	10	3	0.5	2	4	360	0.4	359	361	13.8	62.4
2025-10-28T16:07	10	2	0.1	2	2	360	0.3	359	361	13.8	62.3
2025-10-28T16:08	10	2	0.1	2	2	361	0.5	360	362	13.7	62.5
2025-10-28T16:09	10	2	0.1	1	2	360	0.4	359	361	13.6	63.2
2025-10-28T16:10	10	2	0.1	1	2	359	0.3	359	360	13.6	62.8
2025-10-28T16:11	10	1	0.1	1	2	360	0.4	359	361	13.6	62.9
2025-10-28T16:12	10	1	0.1	1	2	359	0.3	359	360	13.5	63.7
2025-10-28T16:13	10	1	0.1	1	2	358	0.3	358	359	13.4	63.7
2025-10-28T16:14	10	1	0.1	1	1	358	0.2	357	358	13.4	63.8
2025-10-28T16:15	10	1	0.1	1	1	357	0.4	356	358	13.5	63.4
2025-10-28T16:16	10	1	0.1	1	1	357	0.2	356	357	13.4	63.7
2025-10-28T16:17	10	1	0.1	1	1	356	0.3	355	356	13.4	63.9
2025-10-28T16:18	10	1	0.1	1	1	355	0.3	354	356	13.4	64.0
2025-10-28T16:19	10	1	0.1	1	1	355	0.7	354	356	13.4	63.9
2025-10-28T16:20	10	1	0.1	1	1	356	0.3	356	357	13.5	63.7
2025-10-28T16:21	10	1	0.1	1	1	355	0.3	355	356	13.4	63.9
2025-10-28T16:22	10	1	0.1	1	1	354	0.4	353	355	13.4	64.2
2025-10-28T16:23	10	1	0.1	1	1	353	0.4	353	354	13.4	64.1
2025-10-28T16:24	10	1	0.1	1	1	354	0.2	353	354	13.4	64.4
2025-10-28T16:25	10	1	0.1	1	1	354	0.4	353	355	13.4	64.4
2025-10-28T16:26	10	1	0.1	1	1	355	0.5	354	356	13.3	64.6
2025-10-28T16:27	10	1	0.1	1	1	356	0.4	355	357	13.4	64.5
2025-10-28T16:28	10	1	0.1	1	1	356	0.3	355	357	13.3	64.9
2025-10-28T16:29	10	1	0.1	1	1	354	0.6	353	355	13.2	65.3
2025-10-28T16:30	10	1	0.1	0	1	354	0.6	353	355	13.2	65.5
2025-10-28T16:31	10	1	0.1	1	1	355	0.2	355	356	13.2	65.4
2025-10-28T16:32	10	1	0.1	0	1	355	0.3	354	356	13.2	65.6
2025-10-28T16:33	10	1	0.1	0	1	356	0.5	355	357	13.2	65.6
2025-10-28T16:34	10	1	0.1	0	1	357	0.2	356	357	13.2	65.5
2025-10-28T16:35	10	1	0.1	0	1	357	0.3	356	357	13.2	65.9
2025-10-28T16:36	10	0	0.1	0	1	357	0.3	356	357	13.1	66.1
2025-10-28T16:37	10	0	0.1	0	1	356	0.4	355	356	13.1	66.6
2025-10-28T16:38	10	0	0.1	0	1	355	0.2	354	355	13.0	66.7
2025-10-28T16:39	10	0	0.1	0	1	355	0.3	354	355	13.0	67.0
2025-10-28T16:40	10	0	0.0	0	0	354	0.3	353	355	12.9	67.2
2025-10-28T16:41	10	0	0.1	0	0	353	0.3	352	353	12.9	67.5
2025-10-28T16:42	10	0	0.1	0	0	353	0.3	353	354	12.9	67.6
2025-10-28T16:43	10	0	0.1	0	0	353	0.2	352	353	12.8	67.8
2025-10-28T16:44	10	0	0.1	0	0	353	0.2	352	353	12.8	67.9
2025-10-28T16:45	10	0	0.1	0	0	352	0.3	351	352	12.8	67.9
2025-10-28T16:46	10	0	0.1	0	0	351	0.6	349	352	12.8	68.1
2025-10-28T16:47	10	0	0.1	0	0	349	0.3	348	350	12.7	68.6
2025-10-28T16:48	10	0	0.1	0	0	349	0.2	348	349	12.6	68.7
2025-10-28T16:49	10	0	0.1	0	0	349	0.2	348	349	12.6	68.7
2025-10-28T16:50	10	0	0.1	0	0	349	0.3	348	349	12.5	69.4
2025-10-28T16:51	10	0	0.1	0	0	348	0.3	348	349	12.5	69.5
2025-10-28T16:52	10	0	0.1	-1	0	349	0.3	348	349	12.5	69.7
2025-10-28T16:53	10	0	0.1	0	0	348	0.3	347	348	12.4	70.1
2025-10-28T16:54	10	0	0.1	0	0	348	0.5	347	349	12.4	69.9
2025-10-28T16:55	10	0	0.1	0	0	348	0.3	348	349	12.4	70.2
2025-10-28T16:56	10	0	0.2	0	0	348	0.6	347	350	12.4	69.9
2025-10-28T16:57	10	0	0.2	-1	1	349	0.3	348	349	12.4	69.8
2025-10-28T16:58	10	0	0.2	0	0	350	0.3	349	350	12.5	69.6
2025-10-28T16:59	10	0	0.2	0	1	350	0.4	349	351	12.3	70.3
2025-10-28T17:00	10	0	0.2	0	0	350	0.5	349	351	12.3	70.4
2025-10-28T17:01	10	0	0.1	0	0	350	0.3	350	351	12.2	70.8
2025-10-28T17:02	10	0	0.1	0	0	351	0.3	350	351	12.2	70.7
2025-10-28T17:03	10	0	0.1	0	1	349	0.3	349	350	12.2	70.9
2025-10-28T17:04	10	0	0.2	0	1	349	0.2	348	349	12.2	71.0
2025-10-28T17:05	10	0	0.1	0	0	348	0.3	347	349	12.1	71.0
2025-10-28T17:06	10	0	0.1	0	0	348	0.2	347	348	12.1	71.1
2025-10-28T17:07	10	0	0.1	0	0	347	0.3	346	347	12.1	71.3
2025-10-28T17:08	10	0	0.1	0	0	346	0.3	346	347	12.1	71.0
2025-10-28T17:09	10	0	0.1	0	0	346	0.2	345	346	12.1	71.3
2025-10-28T17:10	10	0	0.1	0	0	345	0.3	345	346	12.0	71.6
2025-10-28T17:11	10	0	0.1	0	0	345	0.3	344	345	12.0	71.7
2025-10-28T17:12	10	0	0.1	0	0	345	0.2	345	346	12.0	71.5
2025-10-28T17:13	10	0	0.0	0	0	345	0.3	344	346	11.9	71.6
2025-10-28T17:14	10	0	0.1	0	0	345	0.5	344	346	12.0	71.3
2025-10-28T17:15	10	0	0.1	0	0	345	0.2	345	346	11.9	71.4
2025-10-28T17:16	10	0	0.1	0	0	345	0.2	345	346	11.9	71.4
2025-10-28T17:17	10	0	0.1	0	0	344	0.4	344	345	11.9	71.4
2025-10-28T17:18	10	0	0.1	0	0	345	0.5	344	346	11.8	71.5
2025-10-28T17:19	10	0	0.1	0	0	346	0.3	345	346	12.1	70.1
2025-10-28T17:20	10	0	0.1	0	0	346	0.5	345	347	12.1	70.2
2025-10-28T17:21	10	0	0.1	0	0	345	0.3	344	346	12.0	70.2
2025-10-28T17:22	10	0	0.1	0	0	345	0.3	344	346	12.1	70.0
2025-10-28T17:23	10	0	0.1	0	0	346	0.6	344	347	12.0	70.3
2025-10-28T17:24	10	0	0.1	0	0	347	0.2	346	347	12.1	70.0
2025-10-28T17:25	10	0	0.1	0	0	346	0.2	346	347	12.1	69.9
2025-10-28T17:26	10	0	0.1	0	0	346	0.4	345	347	12.0	70.2
2025-10-28T17:27	10	0	0.1	0	0	346	0.3	345	347	12.0	70.1
2025-10-28T17:28	10	0	0.1	0	0	346	0.3	346	347	11.9	70.5
2025-10-28T17:29	10	0	0.1	0	0	346	0.2	345	346	11.9	70.3
2025-10-28T17:30	10	0	0.1	0	0	346	0.2	345	346	11.9	70.5
2025-10-28T17:31	10	0	0.1	0	0	346	0.5	345	347	11.9	70.4
2025-10-28T17:32	10	0	0.1	0	0	348	0.5	347	348	11.9	70.7
2025-10-28T17:33	10	0	0.1	0	0	348	0.3	347	348	11.9	70.8
2025-10-28T17:34	10	0	0.1	0	0	347	0.5	346	348	11.9	70.7
2025-10-28T17:35	10	0	0.1	0	0	346	0.3	346	347	11.8	71.0
2025-10-28T17:36	10	0	0.1	0	0	345	0.3	345	346	11.8	71.0
2025-10-28T17:37	10	0	0.1	0	0	345	0.2	344	345	11.7	71.6
2025-10-28T17:38	10	0	0.1	0	0	344	0.3	343	345	11.7	71.6
2025-10-28T17:39	10	0	0.1	0	0	344	0.3	343	344	11.8	71.5
2025-10-28T17:40	10	0	0.1	0	0	344	0.4	343	345	11.8	71.4
2025-10-28T17:41	10	0	0.1	0	0	345	0.3	344	345	11.8	71.2
2025-10-28T17:42	10	0	0.1	0	0	345	0.3	344	345	11.8	71.4
2025-10-28T17:43	10	0	0.1	0	0	344	0.3	343	345	11.7	71.8
2025-10-28T17:44	10	0	0.1	0	0	344	0.2	343	344	11.8	71.5
2025-10-28T17:45	10	0	0.1	0	0	344	0.2	343	344	11.7	71.7
2025-10-28T17:46	10	0	0.1	0	0	343	0.2	343	344	11.7	71.9
2025-10-28T17:47	10	0	0.1	0	0	343	0.4	343	344	11.6	71.9
2025-10-28T17:48	10	0	0.1	0	0	343	0.2	342	343	11.7	71.9
2025-10-28T17:49	10	0	0.1	0	0	343	0.2	342	343	11.6	72.2
2025-10-28T17:50	10	0	0.1	0	0	343	0.2	342	343	11.6	72.4
2025-10-28T17:51	10	0	0.1	0	0	343	0.2	342	343	11.6	72.3
2025-10-28T17:52	10	0	0.1	0	0	342	0.3	342	343	11.6	72.1
2025-10-28T17:53	10	0	0.1	0	0	342	0.3	342	343	11.6	72.3
2025-10-28T17:54	10	0	0.1	0	0	342	0.2	341	342	11.5	72.5
2025-10-28T17:55	10	0	0.1	0	0	342	0.2	341	342	11.5	72.4
2025-10-28T17:56	10	0	0.1	0	0	341	0.3	340	342	11.5	72.6
2025-10-28T17:57	10	0	0.1	0	0	341	0.3	340	341	11.5	72.5
2025-10-28T17:58	10	0	0.1	0	0	340	0.3	339	340	11.5	72.4
2025-10-28T17:59	10	0	0.1	0	0	339	0.3	339	340	11.5	72.3
2025-10-28T18:00	10	0	0.1	0	0	339	0.3	339	340	11.5	72.3
2025-10-28T18:01	10	0	0.1	0	0	339	0.2	339	339	11.6	71.9
2025-10-28T18:02	10	0	0.1	0	0	339	0.2	338	339	11.6	71.9
2025-10-28T18:03	10	0	0.1	0	0	339	0.2	338	339	11.6	71.8
2025-10-28T18:04	10	0	0.1	0	0	339	0.2	338	339	11.7	71.5
2025-10-28T18:05	10	0	0.1	0	0	339	0.3	338	340	11.7	71.5
2025-10-28T18:06	10	0	0.0	0	0	339	0.2	339	339	11.7	71.6
2025-10-28T18:07	10	0	0.1	0	0	339	0.2	339	340	11.6	71.8
2025-10-28T18:08	10	0	0.1	0	0	339	0.3	339	340	11.6	71.8
2025-10-28T18:09	10	0	0.1	0	0	340	0.2	339	340	11.6	72.0
2025-10-28T18:10	10	0	0.1	0	0	339	0.3	338	340	11.5	72.4
2025-10-28T18:11	10	0	0.1	0	0	339	0.2	338	339	11.4	72.6
2025-10-28T18:12	10	0	0.1	0	0	339	0.2	339	340	11.5	72.4
2025-10-28T18:13	10	0	0.1	0	0	339	0.2	338	340	11.5	72.3
2025-10-28T18:14	10	0	0.1	0	0	339	0.2	339	340	11.6	72.1
2025-10-28T18:15	10	0	0.1	0	0	339	0.2	339	340	11.6	71.9
2025-10-28T18:16	10	0	0.1	0	0	339	0.2	339	340	11.6	71.7
2025-10-28T18:17	10	0	0.1	0	0	339	0.2	339	340	11.6	71.8
2025-10-28T18:18	10	0	0.1	0	0	339	0.2	338	339	11.6	72.0
2025-10-28T18:19	10	0	0.1	0	0	339	0.2	339	340	11.6	71.9
2025-10-28T18:20	10	0	0.1	0	0	339	0.3	338	340	11.4	72.8
2025-10-28T18:21	10	0	0.1	0	0	339	0.3	338	340	11.4	73.1
2025-10-28T18:22	10	0	0.1	0	0	339	0.3	339	340	11.4	72.9
2025-10-28T18:23	10	0	0.1	0	0	339	0.3	338	340	11.5	72.5
2025-10-28T18:24	10	0	0.1	0	0	339	0.3	338	339	11.5	72.7
2025-10-28T18:25	10	0	0.1	0	0	338	0.3	338	339	11.4	73.0
2025-10-28T18:26	10	0	0.2	0	1	338	0.3	337	339	11.5	72.8
2025-10-28T18:27	10	0	0.2	0	0	338	0.5	337	339	11.4	72.9
2025-10-28T18:28	10	0	0.1	-1	0	339	0.3	338	339	11.5	72.8
2025-10-28T18:29	10	0	0.1	-1	0	338	0.3	338	339	11.4	73.1
2025-10-28T18:30	10	0	0.1	-1	0	338	0.3	337	339	11.3	73.3
2025-10-28T18:31	10	0	0.1	0	0	338	0.3	338	339	11.3	73.5
2025-10-28T18:32	10	0	0.1	0	0	338	0.2	338	339	11.3	73.5
2025-10-28T18:33	10	0	0.1	-1	0	338	0.3	338	339	11.3	73.8
2025-10-28T18:34	10	0	0.1	0	0	338	0.3	338	339	11.3	73.8
2025-10-28T18:35	10	0	0.1	0	0	338	0.3	338	339	11.3	73.8
2025-10-28T18:36	10	0	0.2	0	0	338	0.3	337	338	11.3	73.9
2025-10-28T18:37	10	0	0.1	0	0	338	0.2	337	338	11.2	74.1
2025-10-28T18:38	10	0	0.1	0	0	338	0.3	337	338	11.2	74.2
2025-10-28T18:39	10	0	0.1	-1	0	338	0.3	337	339	11.2	74.3
2025-10-28T18:40	10	0	0.1	0	0	338	0.3	337	339	11.2	74.2
2025-10-28T18:41	10	0	0.1	0	0	338	0.2	337	338	11.0	70.6
2025-10-28T18:42	10	0	0.1	0	0	337	0.2	336	338	11.2	74.2
2025-10-28T18:43	10	0	0.1	0	0	337	0.2	337	338	11.2	74.2
2025-10-28T18:44	10	0	0.1	0	0	337	0.2	337	338	11.2	74.2
2025-10-28T18:45	10	0	0.1	0	0	337	0.3	337	338	11.2	74.2
2025-10-28T18:46	10	0	0.1	0	0	338	0.2	337	338	11.2	74.2
2025-10-28T18:47	10	0	0.1	0	0	337	0.2	337	338	11.2	74.2
2025-10-28T18:48	10	0	0.1	0	0	337	0.2	336	337	11.0	74.7
2025-10-28T18:49	10	0	0.1	0	0	336	0.3	336	337	10.9	75.4
2025-10-28T18:50	10	0	0.1	0	0	336	0.2	336	337	10.8	76.3
2025-10-28T18:51	10	0	0.0	0	0	336	0.2	336	337	10.9	76.4
2025-10-28T18:52	10	0	0.1	0	0	337	0.2	336	337	10.9	76.3
2025-10-28T18:53	10	0	0.1	0	0	336	0.2	336	337	10.9	76.2
2025-10-28T18:54	10	0	0.1	0	0	336	0.2	336	336	10.9	76.4
2025-10-28T18:55	10	0	0.1	0	0	336	0.3	336	337	10.9	76.4
2025-10-28T18:56	10	0	0.1	0	0	336	0.2	336	337	10.9	76.5
2025-10-28T18:57	10	0	0.1	0	0	336	0.2	336	337	10.8	76.6
2025-10-28T18:58	10	0	0.1	0	0	336	0.2	336	337	10.9	76.5
2025-10-28T18:59	10	0	0.1	0	0	336	0.2	336	337	10.8	76.5
2025-10-28T19:00	10	0	0.1	0	0	336	0.3	335	337	10.9	76.4
2025-10-28T19:01	10	0	0.1	0	0	336	0.2	336	336	10.9	76.3
2025-10-28T19:02	10	0	0.1	0	0	336	0.3	335	337	10.9	76.3
2025-10-28T19:03	10	0	0.1	0	0	336	0.2	336	336	10.8	76.6
2025-10-28T19:04	10	0	0.1	0	0	336	0.3	335	337	10.8	76.5
2025-10-28T19:05	10	0	0.1	0	0	336	0.3	336	337	10.8	76.6
2025-10-28T19:06	10	0	0.1	0	0	336	0.3	336	337	10.8	76.6
2025-10-28T19:07	10	0	0.1	0	0	336	0.3	336	337	10.8	76.8
2025-10-28T19:08	10	0	0.1	0	0	336	0.2	336	337	10.8	77.0
2025-10-28T19:09	10	0	0.1	0	0	336	0.2	336	337	10.7	77.1
2025-10-28T19:10	10	0	0.1	0	0	336	0.2	335	336	10.7	77.3
2025-10-28T19:11	10	0	0.1	0	0	336	0.2	335	336	10.7	77.5
2025-10-28T19:12	10	0	0.1	0	0	336	0.2	335	336	10.7	77.4
2025-10-28T19:13	10	0	0.1	0	0	335	0.2	335	336	10.8	77.2
2025-10-28T19:14	10	0	0.1	0	0	335	0.2	335	336	10.7	77.3
2025-10-28T19:15	10	0	0.1	0	0	335	0.2	335	336	10.7	77.3
2025-10-28T19:16	10	0	0.1	0	0	335	0.3	335	336	10.8	77.0
2025-10-28T19:17	10	0	0.1	0	0	335	0.2	335	336	10.8	76.9
2025-10-28T19:18	10	0	0.1	0	0	335	0.3	334	336	10.8	76.9
2025-10-28T19:19	10	0	0.1	0	0	335	0.2	335	336	10.8	77.2
2025-10-28T19:20	10	0	0.1	0	0	335	0.2	334	335	10.8	77.2
2025-10-28T19:21	10	0	0.1	0	0	335	0.2	334	335	10.8	77.2
2025-10-28T19:22	10	0	0.1	0	0	335	0.3	334	336	10.7	77.3
2025-10-28T19:23	10	0	0.1	0	0	336	0.3	335	336	10.7	77.3
2025-10-28T19:24	10	0	0.1	0	0	336	0.2	335	336	10.7	77.6
2025-10-28T19:25	10	0	0.1	0	0	336	0.3	335	337	10.6	77.7
2025-10-28T19:26	10	0	0.1	0	0	335	0.2	335	336	10.6	77.9
2025-10-28T19:27	10	0	0.1	0	0	335	0.2	334	335	10.6	78.1
2025-10-28T19:28	10	0	0.1	0	0	335	0.2	334	335	10.5	78.4
2025-10-28T19:29	10	0	0.1	0	0	335	0.2	334	335	10.4	78.8
2025-10-28T19:30	10	0	0.1	0	0	335	0.2	334	335	10.4	79.0
2025-10-28T19:31	10	0	0.1	0	0	335	0.3	334	335	10.3	79.3
2025-10-28T19:32	10	0	0.1	0	0	335	0.3	334	336	10.3	79.4
2025-10-28T19:33	10	0	0.1	0	0	334	0.2	334	335	10.3	79.7
2025-10-28T19:34	10	0	0.1	0	1	334	0.3	334	335	10.2	79.9
2025-10-28T19:35	10	0	0.1	0	0	335	0.2	334	335	10.3	79.9
2025-10-28T19:36	10	0	0.1	0	0	335	0.3	334	335	10.3	79.9
2025-10-28T19:37	10	0	0.1	0	0	335	0.3	334	335	10.3	79.8
2025-10-28T19:38	10	0	0.1	0	1	334	0.4	334	335	10.3	79.8
2025-10-28T19:39	10	0	0.1	0	0	334	0.3	333	335	10.1	80.6
2025-10-28T19:40	10	0	0.1	0	0	334	0.2	333	334	10.1	80.8
2025-10-28T19:41	10	0	0.1	0	0	334	0.4	334	335	10.0	81.0
2025-10-28T19:42	10	0	0.1	0	0	335	0.3	334	335	10.0	81.2
2025-10-28T19:43	10	0	0.1	0	0	335	0.3	335	336	10.0	81.3
2025-10-28T19:44	10	0	0.1	0	0	336	0.2	335	336	10.1	81.1
2025-10-28T19:45	10	0	0.1	0	1	336	0.3	335	336	10.0	81.3
2025-10-28T19:46	10	0	0.1	0	0	336	0.3	336	337	10.0	81.2
2025-10-28T19:47	10	0	0.1	0	0	336	0.3	336	337	10.1	81.1
2025-10-28T19:48	10	0	0.1	0	1	336	0.3	336	337	10.1	81.0
2025-10-28T19:49	10	0	0.1	0	0	337	0.3	336	337	10.3	80.0
2025-10-28T19:50	10	0	0.1	0	1	337	0.2	336	337	10.3	79.9
2025-10-28T19:51	10	0	0.1	0	1	336	0.3	335	337	10.2	80.3
2025-10-28T19:52	10	0	0.1	0	1	336	0.2	335	336	10.2	80.5
2025-10-28T19:53	10	0	0.1	0	0	336	0.2	335	336	10.2	80.4
2025-10-28T19:54	10	0	0.1	0	0	336	0.2	335	336	10.2	80.3
2025-10-28T19:55	10	0	0.1	0	0	336	0.2	335	336	10.2	80.3
2025-10-28T19:56	10	0	0.1	0	1	336	0.2	335	336	10.2	80.4
2025-10-28T19:57	10	0	0.1	0	1	335	0.2	335	336	10.3	79.8
2025-10-28T19:58	10	0	0.1	0	0	335	0.3	335	336	10.3	79.9
2025-10-28T19:59	10	0	0.1	0	0	335	0.2	334	335	10.3	79.9
2025-10-28T20:00	10	0	0.1	0	0	335	0.3	335	336	10.3	79.6
2025-10-28T20:01	10	0	0.1	0	0	335	0.2	335	336	10.4	79.3
2025-10-28T20:02	10	0	0.1	0	1	335	0.2	334	335	10.4	79.3
2025-10-28T20:03	10	0	0.0	0	0	335	0.2	334	335	10.4	79.2
2025-10-28T20:04	10	0	0.1	0	0	335	0.3	334	335	10.4	79.0
2025-10-28T20:05	10	0	0.1	0	0	335	0.4	334	336	10.6	78.5
2025-10-28T20:06	10	0	0.1	0	0	336	0.3	335	336	10.6	78.4
2025-10-28T20:07	10	0	0.1	0	0	335	0.4	334	336	10.6	78.0
2025-10-28T20:08	10	0	0.1	0	0	335	0.2	335	335	10.6	78.3
2025-10-28T20:09	10	0	0.1	0	0	335	0.2	335	336	10.6	78.0
2025-10-28T20:10	10	0	0.1	0	0	335	0.3	334	335	10.6	78.0
2025-10-28T20:11	10	0	0.1	0	1	334	0.3	334	335	10.6	78.1
2025-10-28T20:12	10	0	0.1	0	0	334	0.3	333	335	10.6	78.3
2025-10-28T20:13	10	0	0.1	0	0	333	0.3	333	334	10.5	78.7
2025-10-28T20:14	10	0	0.1	0	0	334	0.2	333	334	10.4	79.1
2025-10-28T20:15	10	0	0.1	0	0	334	0.3	334	335	10.2	80.1
2025-10-28T20:16	10	0	0.1	0	0	334	0.4	333	335	10.0	81.2
2025-10-28T20:17	10	0	0.1	0	0	334	0.2	333	334	9.8	82.0
2025-10-28T20:18	10	0	0.1	0	0	334	0.2	333	334	9.8	82.3
2025-10-28T20:19	10	0	0.1	0	0	333	0.3	333	334	9.8	82.5
2025-10-28T20:20	10	0	0.1	0	0	333	0.2	332	333	9.8	82.5
2025-10-28T20:21	10	0	0.1	0	0	333	0.2	332	333	9.9	82.2
2025-10-28T20:22	10	0	0.1	0	0	332	0.2	332	333	9.9	81.8
2025-10-28T20:23	10	0	0.1	0	0	333	0.2	332	333	10.1	81.3
2025-10-28T20:24	10	0	0.1	0	0	333	0.2	332	333	10.1	80.7
2025-10-28T20:25	10	0	0.1	0	0	333	0.3	332	334	10.2	80.3
2025-10-28T20:26	10	0	0.1	0	0	333	0.2	333	334	10.2	80.3
2025-10-28T20:27	10	0	0.1	0	0	333	0.2	332	333	10.1	80.5
2025-10-28T20:28	10	0	0.1	0	0	333	0.3	332	334	10.0	81.3
2025-10-28T20:29	10	0	0.1	0	0	333	0.2	333	334	9.9	81.6
2025-10-28T20:30	10	0	0.1	0	0	333	0.2	333	334	9.9	81.7
2025-10-28T20:31	10	0	0.1	0	0	333	0.3	333	334	9.9	81.7
2025-10-28T20:32	10	0	0.1	0	0	333	0.2	333	333	9.8	82.3
2025-10-28T20:33	10	0	0.1	0	0	333	0.2	332	333	9.8	82.4
2025-10-28T20:34	10	0	0.1	0	0	332	0.5	331	333	9.8	82.1
2025-10-28T20:35	10	0	0.1	0	0	332	0.2	331	332	9.8	82.1
2025-10-28T20:36	10	0	0.1	0	0	332	0.2	331	332	9.9	81.6
2025-10-28T20:37	10	0	0.1	0	0	331	0.3	331	332	10.0	81.2
2025-10-28T20:38	10	0	0.1	0	0	331	0.3	331	332	10.1	80.8
2025-10-28T20:39	10	0	0.1	0	0	332	0.2	331	332	10.1	80.6
2025-10-28T20:40	10	0	0.1	0	0	332	0.3	331	332	10.2	80.1
2025-10-28T20:41	10	0	0.1	0	0	332	0.2	331	332	10.2	80.1
2025-10-28T20:42	10	0	0.1	0	1	332	0.2	331	332	10.2	80.0
2025-10-28T20:43	10	0	0.1	0	0	332	0.2	331	332	10.1	80.3
2025-10-28T20:44	10	0	0.1	0	0	331	0.2	331	332	10.1	80.4
2025-10-28T20:45	10	0	0.1	0	0	332	0.3	331	332	10.0	81.0
2025-10-28T20:46	10	0	0.1	0	0	332	0.6	332	333	9.9	81.6
2025-10-28T20:47	10	0	0.1	0	0	333	0.3	332	333	10.1	80.3
2025-10-28T20:48	10	0	0.1	0	0	332	0.3	332	333	10.1	80.6
2025-10-28T20:49	10	0	0.1	0	0	332	0.3	331	333	10.0	80.8
2025-10-28T20:50	10	0	0.1	0	0	332	0.5	331	334	10.1	80.2
2025-10-28T20:51	10	0	0.1	0	0	332	0.2	332	333	10.1	80.1
2025-10-28T20:52	10	0	0.1	0	0	332	0.4	331	332	9.9	81.3
2025-10-28T20:53	10	0	0.0	0	0	332	0.5	331	333	9.8	81.7
2025-10-28T20:54	10	0	0.1	0	0	333	0.2	332	333	10.1	80.1
2025-10-28T20:55	10	0	0.1	0	0	333	0.3	332	333	10.2	79.7
2025-10-28T20:56	10	0	0.0	0	0	333	0.3	332	333	10.2	79.7
2025-10-28T20:57	10	0	0.1	0	0	333	0.4	332	334	10.1	80.3
2025-10-28T20:58	10	0	0.1	0	0	334	0.4	333	334	10.0	80.8
2025-10-28T20:59	10	0	0.1	0	0	334	0.2	334	335	9.9	80.9
2025-10-28T21:00	10	0	0.1	0	0	333	0.3	333	334	10.0	80.6
2025-10-28T21:01	10	0	0.1	0	0	333	0.3	332	334	9.9	80.7
2025-10-28T21:02	10	0	0.1	0	0	333	0.4	332	334	9.9	80.8
2025-10-28T21:03	10	0	0.1	0	0	332	0.3	331	333	9.9	81.2
2025-10-28T21:04	10	0	0.1	0	0	331	0.4	331	332	9.8	81.6
2025-10-28T21:05	10	0	0.1	0	1	331	0.2	331	332	9.7	82.0
2025-10-28T21:06	10	0	0.1	0	0	331	0.3	330	331	9.7	82.0
2025-10-28T21:07	10	0	0.1	0	0	331	0.5	331	333	9.6	82.5
2025-10-28T21:08	10	0	0.1	0	0	332	0.2	332	332	9.8	82.0
2025-10-28T21:09	10	0	0.1	0	0	332	0.2	332	332	9.7	82.2
2025-10-28T21:10	10	0	0.1	0	0	331	0.4	331	332	9.7	82.3
2025-10-28T21:11	10	0	0.1	0	1	331	0.2	330	331	9.4	83.4
2025-10-28T21:12	10	0	0.1	0	0	331	0.6	330	332	9.5	83.4
2025-10-28T21:13	10	0	0.1	0	0	331	0.3	330	331	9.6	82.8
2025-10-28T21:14	10	0	0.1	0	0	330	0.3	329	331	9.6	82.9
2025-10-28T21:15	10	0	0.1	0	0	331	0.4	330	331	9.5	82.9
2025-10-28T21:16	10	0	0.1	0	0	331	0.2	330	331	9.8	81.7
2025-10-28T21:17	10	0	0.1	0	0	331	0.7	330	332	9.9	80.8
2025-10-28T21:18	10	0	0.1	0	0	332	0.3	331	332	10.0	80.1
2025-10-28T21:19	10	0	0.1	0	0	332	0.3	331	333	10.0	80.2
2025-10-28T21:20	10	0	0.1	0	1	332	0.4	331	333	9.8	81.3
2025-10-28T21:21	10	0	0.1	0	0	332	0.4	331	333	9.6	81.9
2025-10-28T21:22	10	0	0.1	0	1	332	0.5	331	333	9.5	82.6
2025-10-28T21:23	10	0	0.1	0	0	332	0.3	331	333	9.4	83.1
2025-10-28T21:24	10	0	0.1	0	0	332	0.2	332	332	9.5	83.0
2025-10-28T21:25	10	0	0.1	0	0	332	0.2	331	332	9.5	83.1
2025-10-28T21:26	10	0	0.1	0	1	331	0.2	331	332	9.6	82.3
2025-10-28T21:27	10	0	0.1	0	1	331	0.3	331	332	9.6	82.2
2025-10-28T21:28	10	0	0.2	0	1	331	0.3	331	332	9.6	81.9
2025-10-28T21:29	10	0	0.1	0	1	331	0.3	330	332	9.6	81.5
2025-10-28T21:30	10	0	0.1	0	0	332	0.4	331	332	9.6	81.4
2025-10-28T21:31	10	0	0.1	0	0	333	0.8	332	335	9.7	80.7
2025-10-28T21:32	10	0	0.1	0	0	335	0.5	333	335	9.9	80.1
2025-10-28T21:33	10	0	0.1	0	0	336	0.4	335	337	10.0	79.5
2025-10-28T21:34	10	0	0.1	0	1	336	0.2	336	337	9.9	79.6
2025-10-28T21:35	10	0	0.1	0	1	336	0.2	335	337	9.9	79.8
2025-10-28T21:36	10	0	0.1	0	1	336	0.4	335	337	9.8	80.0
2025-10-28T21:37	10	0	0.1	0	0	337	0.3	336	337	9.9	79.5
2025-10-28T21:38	10	0	0.1	0	0	336	0.5	335	337	9.8	79.7
2025-10-28T21:39	10	0	0.1	0	0	335	0.6	334	336	9.6	80.2
2025-10-28T21:40	10	0	0.1	0	1	334	0.4	333	335	9.4	81.3
2025-10-28T21:41	10	0	0.2	0	0	333	0.4	333	334	9.4	81.6
2025-10-28T21:42	10	0	0.1	0	0	333	0.3	332	333	9.4	81.7
2025-10-28T21:43	10	0	0.1	0	1	332	0.4	331	333	9.3	81.8
2025-10-28T21:44	10	0	0.1	0	1	331	0.3	331	332	9.2	82.3
2025-10-28T21:45	10	0	0.2	0	1	330	0.3	330	331	9.0	82.9
2025-10-28T21:46	10	0	0.2	0	1	330	0.3	329	331	9.0	83.4
2025-10-28T21:47	10	0	0.1	0	1	330	0.4	330	331	8.7	84.5
2025-10-28T21:48	10	0	0.2	0	0	331	0.4	330	332	8.3	86.3
2025-10-28T21:49	10	0	0.2	-1	0	331	0.4	331	332	8.0	87.8
2025-10-28T21:50	10	0	0.1	0	0	332	0.3	331	332	8.0	88.3
2025-10-28T21:51	10	0	0.2	0	0	332	0.3	331	332	7.8	88.8
2025-10-28T21:52	10	0	0.1	-1	0	331	0.3	331	332	7.4	90.2
2025-10-28T21:53	10	0	0.1	-1	0	331	0.2	331	332	7.4	91.2
2025-10-28T21:54	10	0	0.1	-1	0	331	0.2	331	332	7.6	91.5
2025-10-28T21:55	10	0	0.2	-1	0	331	0.2	330	331	7.6	91.2
2025-10-28T21:56	10	0	0.2	-1	0	330	0.2	329	330	7.7	90.9
2025-10-28T21:57	10	0	0.2	0	0	329	0.3	328	329	7.7	90.6
2025-10-28T21:58	10	0	0.1	0	0	329	0.3	328	329	7.7	90.4
2025-10-28T21:59	10	0	0.1	0	0	329	0.2	328	329	7.7	90.3
2025-10-28T22:00	10	0	0.2	0	1	328	0.2	328	329	7.6	90.4
2025-10-28T22:01	10	0	0.1	0	0	328	0.3	327	329	7.6	90.4
2025-10-28T22:02	10	0	0.1	0	1	328	0.2	327	328	7.5	90.8
2025-10-28T22:03	10	0	0.1	0	0	328	0.3	327	329	7.6	90.5
2025-10-28T22:04	10	0	0.1	0	0	328	0.3	327	328	7.7	89.9
2025-10-28T22:05	10	0	0.1	0	0	327	0.3	326	328	7.5	90.4
2025-10-28T22:06	10	0	0.1	0	0	327	0.2	327	327	7.3	91.1
2025-10-28T22:07	10	0	0.1	0	0	328	0.3	327	328	6.9	92.0
2025-10-28T22:08	10	0	0.1	0	0	327	0.3	326	328	6.8	92.8
2025-10-28T22:09	10	0	0.1	-1	0	327	0.4	326	328	6.7	93.2
2025-10-28T22:10	10	0	0.1	-1	0	328	0.7	327	330	7.1	92.4
2025-10-28T22:11	10	0	0.1	-1	0	330	0.5	329	331	7.6	91.4
2025-10-28T22:12	10	0	0.1	-1	0	330	0.3	330	331	7.8	90.8
2025-10-28T22:13	10	0	0.1	-1	0	330	0.3	329	331	7.6	90.9
2025-10-28T22:14	10	0	0.1	0	0	330	0.3	329	330	7.3	92.0
2025-10-28T22:15	10	0	0.1	0	0	329	0.4	328	330	7.2	92.9
2025-10-28T22:16	10	0	0.1	0	0	328	0.3	328	329	7.2	93.3
2025-10-28T22:17	10	0	0.1	0	0	328	0.2	328	329	7.1	93.5
2025-10-28T22:18	10	0	0.1	0	0	327	0.2	327	328	7.0	93.9
2025-10-28T22:19	10	0	0.1	0	0	327	0.2	327	327	7.0	94.1
2025-10-28T22:20	10	0	0.1	0	0	327	0.2	326	327	7.1	94.2
2025-10-28T22:21	10	0	0.1	0	0	326	0.2	326	327	7.2	93.9
2025-10-28T22:22	10	0	0.1	0	0	326	0.3	325	326	7.2	93.7
2025-10-28T22:23	10	0	0.1	0	0	326	0.3	325	326	7.1	93.8
2025-10-28T22:24	10	0	0.1	0	0	325	0.2	325	326	7.1	93.9
2025-10-28T22:25	10	0	0.1	0	0	325	0.3	325	326	7.0	94.5
2025-10-28T22:26	10	0	0.0	0	0	325	0.3	325	326	6.9	94.9
2025-10-28T22:27	10	0	0.1	0	0	326	0.2	325	326	6.9	94.9
2025-10-28T22:28	10	0	0.1	0	0	325	0.2	325	326	6.9	95.2
2025-10-28T22:29	10	0	0.1	0	0	325	0.2	325	326	6.8	95.3
2025-10-28T22:30	10	0	0.1	0	0	325	0.3	325	326	6.9	95.1
2025-10-28T22:31	10	0	0.1	0	0	326	0.2	325	326	6.9	94.8
2025-10-28T22:32	10	0	0.1	0	0	325	0.3	324	325	6.8	95.1
2025-10-28T22:33	10	0	0.1	0	0	325	0.2	324	325	6.6	95.3
2025-10-28T22:34	10	0	0.1	0	0	324	0.3	323	325	6.7	95.7
2025-10-28T22:35	10	0	0.1	0	0	324	0.3	323	324	6.6	95.8
2025-10-28T22:36	10	0	0.1	0	0	323	0.2	323	324	6.6	95.8
2025-10-28T22:37	10	0	0.0	0	0	324	0.3	323	324	6.5	95.8
2025-10-28T22:38	10	0	0.1	0	0	324	0.3	323	325	6.6	95.8
2025-10-28T22:39	10	0	0.1	0	0	324	0.2	323	325	6.7	95.6
2025-10-28T22:40	10	0	0.1	0	0	324	0.2	323	324	6.8	95.3
2025-10-28T22:41	10	0	0.1	0	0	323	0.3	323	324	6.8	94.9
2025-10-28T22:42	10	0	0.1	0	0	324	0.3	323	325	6.8	94.8
2025-10-28T22:43	10	0	0.1	0	0	324	0.2	324	325	6.8	95.0
2025-10-28T22:44	10	0	0.1	0	0	324	0.3	323	325	6.7	95.4
2025-10-28T22:45	10	0	0.1	0	0	324	0.2	323	324	6.7	95.4
2025-10-28T22:46	10	0	0.1	0	0	323	0.2	323	324	6.8	95.3
2025-10-28T22:47	10	0	0.1	0	0	323	0.2	322	324	6.8	95.3
2025-10-28T22:48	10	0	0.1	0	0	323	0.2	323	324	6.7	95.3
2025-10-28T22:49	10	0	0.1	0	0	323	0.2	323	324	6.7	95.5
2025-10-28T22:50	10	0	0.1	0	0	323	0.2	323	324	6.6	95.8
2025-10-28T22:51	10	0	0.1	0	0	323	0.2	322	323	6.5	96.0
2025-10-28T22:52	10	0	0.1	0	0	323	0.2	322	323	6.5	96.2
2025-10-28T22:53	10	0	0.1	0	0	323	0.3	323	324	6.5	96.2
2025-10-28T22:54	10	0	0.1	0	0	324	0.3	323	325	6.5	96.1
2025-10-28T22:55	10	0	0.1	0	0	324	0.3	323	325	6.5	96.1
2025-10-28T22:56	10	0	0.1	0	0	324	0.2	324	324	6.5	96.1
2025-10-28T22:57	10	0	0.1	0	0	324	0.2	324	325	6.5	96.1
2025-10-28T22:58	10	0	0.1	0	0	324	0.2	324	325	6.5	96.0
2025-10-28T22:59	10	0	0.1	0	0	324	0.3	324	325	6.6	95.8
2025-10-28T23:00	10	0	0.1	0	0	325	0.3	324	325	6.6	95.6
2025-10-28T23:01	10	0	0.1	0	0	324	0.2	324	325	6.6	95.7
2025-10-28T23:02	10	0	0.1	0	0	325	0.2	324	325	6.6	95.7
2025-10-28T23:03	10	0	0.1	0	0	325	0.2	324	325	6.6	95.2
2025-10-28T23:04	10	0	0.1	0	0	324	0.2	324	325	6.7	94.9
2025-10-28T23:05	10	0	0.1	0	0	324	0.3	323	325	6.7	94.9
2025-10-28T23:06	10	0	0.1	0	0	324	0.2	323	324	6.6	95.5
2025-10-28T23:07	10	0	0.1	0	0	324	0.2	323	324	6.6	95.5
2025-10-28T23:08	10	0	0.1	0	0	324	0.3	323	324	6.6	95.3
2025-10-28T23:09	10	0	0.1	0	0	324	0.2	324	325	6.6	95.3
2025-10-28T23:10	10	0	0.1	0	0	324	0.2	324	325	6.6	95.2
2025-10-28T23:11	10	0	0.1	0	0	324	0.3	323	325	6.7	95.0
2025-10-28T23:12	10	0	0.1	0	0	324	0.2	324	325	6.8	94.8
2025-10-28T23:13	10	0	0.1	0	0	324	0.2	324	325	6.8	94.6
2025-10-28T23:14	10	0	0.1	0	0	325	0.2	324	325	6.8	94.8
2025-10-28T23:15	10	0	0.1	0	0	325	0.3	325	326	6.8	94.9
2025-10-28T23:16	10	0	0.1	0	0	325	0.3	325	326	6.7	95.0
2025-10-28T23:17	10	0	0.1	0	0	325	0.2	325	325	6.7	95.1
2025-10-28T23:18	10	0	0.1	0	0	325	0.3	324	325	6.7	95.1
2025-10-28T23:19	10	0	0.0	0	0	324	0.2	323	325	6.6	95.2
2025-10-28T23:20	10	0	0.1	0	0	324	0.2	323	324	6.6	95.2
2025-10-28T23:21	10	0	0.1	0	0	323	0.3	323	324	6.6	95.3
2025-10-28T23:22	10	0	0.1	0	0	323	0.2	322	323	6.6	95.3
2025-10-28T23:23	10	0	0.1	0	0	323	0.2	322	323	6.6	95.2
2025-10-28T23:24	10	0	0.1	0	0	322	0.2	322	323	6.5	95.1
2025-10-28T23:25	10	0	0.1	0	0	322	0.2	322	323	6.5	95.0
2025-10-28T23:26	10	0	0.0	0	0	322	0.3	322	323	6.5	94.8
2025-10-28T23:27	10	0	0.1	0	0	322	0.2	321	322	6.5	94.7
2025-10-28T23:28	10	0	0.1	0	0	322	0.2	321	322	6.5	94.6
2025-10-28T23:29	10	0	0.1	0	0	322	0.3	322	323	6.5	94.5
2025-10-28T23:30	10	0	0.1	0	0	322	0.3	322	323	6.5	94.8
2025-10-28T23:31	10	0	0.1	0	0	322	0.2	322	323	6.4	95.1
2025-10-28T23:32	10	0	0.1	0	0	322	0.2	322	323	6.4	95.2
2025-10-28T23:33	10	0	0.1	0	0	323	0.3	322	323	6.2	95.7
2025-10-28T23:34	10	0	0.1	0	0	323	0.2	322	323	6.2	96.1
2025-10-28T23:35	10	0	0.1	0	0	322	0.2	322	323	6.1	96.6
2025-10-28T23:36	10	0	0.1	0	0	322	0.3	321	322	6.0	96.8
2025-10-28T23:37	10	0	0.1	0	0	322	0.3	321	322	6.1	96.9
2025-10-28T23:38	10	0	0.1	0	0	322	0.2	322	323	6.1	97.1
2025-10-28T23:39	10	0	0.1	0	0	322	0.2	322	323	6.1	97.0
2025-10-28T23:40	10	0	0.1	0	0	322	0.2	322	323	6.1	96.6
2025-10-28T23:41	10	0	0.1	0	0	322	0.2	322	322	6.1	96.6
2025-10-28T23:42	10	0	0.1	0	0	322	0.3	321	323	6.1	96.5
2025-10-28T23:43	10	0	0.1	0	0	322	0.3	322	323	6.2	96.3
2025-10-28T23:44	10	0	0.0	0	0	323	0.2	322	323	6.2	96.4
2025-10-28T23:45	10	0	0.1	0	0	323	0.2	322	323	6.2	96.3
2025-10-28T23:46	10	0	0.1	0	0	323	0.2	323	323	6.2	96.1
2025-10-28T23:47	10	0	0.1	0	0	323	0.2	323	323	6.3	95.7
2025-10-28T23:48	10	0	0.1	0	0	323	0.2	322	323	6.3	95.6
2025-10-28T23:49	10	0	0.1	0	0	322	0.3	321	323	6.2	95.7
2025-10-28T23:50	10	0	0.1	0	0	322	0.3	321	322	6.2	95.7
2025-10-28T23:51	10	0	0.1	0	0	321	0.2	321	322	6.1	95.7
2025-10-28T23:52	10	0	0.1	0	0	322	0.3	321	322	6.1	95.7
2025-10-28T23:53	10	0	0.1	0	0	322	0.2	322	322	6.0	95.6
2025-10-28T23:54	10	0	0.1	0	0	322	0.2	321	322	6.0	95.6
2025-10-28T23:55	10	0	0.1	0	0	322	0.2	322	323	6.1	95.1
2025-10-28T23:56	10	0	0.1	0	0	323	0.3	322	323	6.3	93.9
2025-10-28T23:57	10	0	0.1	0	0	323	0.3	322	323	6.4	93.2
2025-10-28T23:58	10	0	0.1	0	0	323	0.4	323	324	6.6	92.0
2025-10-28T23:59	10	0	0.1	0	0	324	0.2	323	324	6.8	90.5
2025-10-29T00:00	10	0	0.1	0	0	323	0.3	323	324	6.7	90.6
2025-10-29T00:01	10	0	0.1	0	0	323	0.3	323	324	6.4	91.9
2025-10-29T00:02	10	0	0.1	0	0	324	0.2	323	324	6.4	92.0
2025-10-29T00:03	10	0	0.1	0	0	324	0.2	323	324	6.3	92.7
2025-10-29T00:04	10	0	0.1	0	0	323	0.2	323	324	6.2	93.2
2025-10-29T00:05	10	0	0.1	0	0	323	0.3	323	324	6.2	93.2
2025-10-29T00:06	10	0	0.2	0	0	323	0.2	322	324	6.2	93.3
2025-10-29T00:07	10	0	0.1	0	1	323	0.2	322	323	6.3	93.0
2025-10-29T00:08	10	0	0.1	0	0	323	0.2	322	324	6.3	92.8
2025-10-29T00:09	10	0	0.1	0	0	323	0.2	322	323	6.2	92.9
2025-10-29T00:10	10	0	0.1	0	0	323	0.2	322	323	6.2	93.0
2025-10-29T00:11	10	0	0.1	0	0	323	0.3	322	324	6.2	93.2
2025-10-29T00:12	10	0	0.1	0	0	323	0.2	322	324	6.2	93.2
2025-10-29T00:13	10	0	0.1	0	0	323	0.2	323	324	6.3	92.8
2025-10-29T00:14	10	0	0.1	0	0	323	0.3	322	323	6.4	92.4
2025-10-29T00:15	10	0	0.1	0	0	322	0.4	322	323	6.4	91.9
2025-10-29T00:16	10	0	0.2	-1	0	322	0.2	322	323	6.4	92.1
2025-10-29T00:17	10	0	0.1	0	0	322	0.3	321	323	6.4	92.0
2025-10-29T00:18	10	0	0.1	0	0	322	0.2	321	322	6.5	91.7
2025-10-29T00:19	10	0	0.1	0	0	322	0.3	321	322	6.5	91.2
2025-10-29T00:20	10	0	0.1	0	0	321	0.2	321	322	6.6	90.5
2025-10-29T00:21	10	0	0.1	0	0	321	0.3	320	322	6.7	90.1
2025-10-29T00:22	10	0	0.1	0	0	321	0.3	320	321	6.7	90.1
2025-10-29T00:23	10	0	0.1	0	0	321	0.3	320	322	6.7	90.1
2025-10-29T00:24	10	0	0.1	0	0	321	0.2	320	321	6.7	90.1
2025-10-29T00:25	10	0	0.1	0	0	321	0.2	320	321	6.6	90.0
2025-10-29T00:26	10	0	0.2	0	0	321	0.3	320	321	6.7	89.4
2025-10-29T00:27	10	0	0.1	0	0	321	0.3	321	322	6.6	89.4
2025-10-29T00:28	10	0	0.1	-1	0	322	0.3	321	323	6.7	89.2
2025-10-29T00:29	10	0	0.1	0	0	322	0.2	322	322	6.6	89.3
2025-10-29T00:30	10	0	0.1	0	0	322	0.2	321	322	6.7	89.2
2025-10-29T00:31	10	0	0.1	0	0	322	0.3	322	323	6.7	89.2
2025-10-29T00:32	10	0	0.1	0	0	322	0.3	322	323	6.9	88.1
2025-10-29T00:33	10	0	0.1	0	0	322	0.3	321	322	6.8	88.9
2025-10-29T00:34	10	0	0.1	0	0	321	0.4	320	322	6.8	89.3
2025-10-29T00:35	10	0	0.1	0	0	321	0.3	320	321	6.5	89.9
2025-10-29T00:36	10	0	0.1	0	0	321	0.3	320	321	6.4	90.8
2025-10-29T00:37	10	0	0.1	0	0	320	0.4	320	321	6.5	91.2
2025-10-29T00:38	10	0	0.1	0	0	321	0.2	320	321	6.4	91.4
2025-10-29T00:39	10	0	0.1	0	0	321	0.2	320	321	6.4	91.6
2025-10-29T00:40	10	0	0.1	0	0	321	0.3	321	322	6.4	91.7
2025-10-29T00:41	10	0	0.1	0	0	322	0.3	321	323	6.5	91.2
2025-10-29T00:42	10	0	0.1	0	0	322	0.2	322	323	6.7	90.8
2025-10-29T00:43	10	0	0.1	0	0	322	0.3	321	322	6.7	90.4
2025-10-29T00:44	10	0	0.1	0	0	321	0.3	320	322	6.7	90.5
2025-10-29T00:45	10	0	0.1	0	0	321	0.2	320	322	6.5	91.0
2025-10-29T00:46	10	0	0.1	0	0	321	0.3	320	321	6.3	91.7
2025-10-29T00:47	10	0	0.1	0	0	321	0.4	320	321	6.3	92.2
2025-10-29T00:48	10	0	0.1	0	0	320	0.2	320	321	6.2	92.8
2025-10-29T00:49	10	0	0.1	-1	0	319	0.4	319	321	6.0	93.3
2025-10-29T00:50	10	0	0.1	0	0	320	0.2	319	320	5.9	93.9
2025-10-29T00:51	10	0	0.1	0	0	319	0.2	319	320	5.7	94.3
2025-10-29T00:52	10	0	0.1	0	0	319	0.2	319	320	5.5	94.5
2025-10-29T00:53	10	0	0.1	-1	0	319	0.3	319	320	5.3	95.1
2025-10-29T00:54	10	0	0.1	-1	0	320	0.3	319	321	5.2	95.7
2025-10-29T00:55	10	0	0.1	-1	0	321	0.3	320	321	5.3	96.1
2025-10-29T00:56	10	0	0.1	-1	0	321	0.2	320	321	5.5	96.3
2025-10-29T00:57	10	0	0.1	-1	0	321	0.2	320	321	5.5	96.1
2025-10-29T00:58	10	0	0.1	0	0	321	0.2	320	321	5.6	95.9
2025-10-29T00:59	10	0	0.1	0	0	321	0.3	320	321	5.7	95.7
2025-10-29T01:00	10	0	0.1	0	0	321	0.2	321	321	5.8	95.3
2025-10-29T01:01	10	0	0.1	0	0	321	0.2	321	322	5.8	94.8
2025-10-29T01:02	10	0	0.1	0	0	321	0.3	320	322	5.8	94.4
2025-10-29T01:03	10	0	0.1	0	0	321	0.3	321	322	5.8	94.1
2025-10-29T01:04	10	0	0.1	0	0	322	0.2	321	322	5.8	94.3
2025-10-29T01:05	10	0	0.1	0	0	322	0.2	321	322	5.8	94.3
2025-10-29T01:06	10	0	0.1	0	0	322	0.2	321	322	5.8	94.1
2025-10-29T01:07	10	0	0.1	0	0	322	0.3	321	322	5.8	93.7
2025-10-29T01:08	10	0	0.1	0	0	321	0.2	321	322	5.7	93.9
2025-10-29T01:09	10	0	0.1	0	0	321	0.2	320	321	5.7	93.8
2025-10-29T01:10	10	0	0.0	0	0	321	0.3	320	321	5.8	93.8
2025-10-29T01:11	10	0	0.1	0	0	320	0.3	320	321	5.8	93.8
2025-10-29T01:12	10	0	0.1	0	0	320	0.3	319	321	5.7	93.5
2025-10-29T01:13	10	0	0.1	0	0	320	0.2	320	320	5.6	93.4
2025-10-29T01:14	10	0	0.1	0	0	320	0.3	319	320	5.6	94.0
2025-10-29T01:15	10	0	0.1	0	0	320	0.4	319	320	5.5	94.1
2025-10-29T01:16	10	0	0.1	0	0	320	0.3	319	321	5.2	94.7
2025-10-29T01:17	10	0	0.1	0	0	321	0.4	320	322	5.3	95.1
2025-10-29T01:18	10	0	0.1	0	0	321	0.2	320	321	5.4	95.2
2025-10-29T01:19	10	0	0.1	0	0	321	0.2	320	321	5.5	94.9
2025-10-29T01:20	10	0	0.1	0	0	321	0.2	321	321	5.6	94.7
2025-10-29T01:21	10	0	0.1	0	0	321	0.3	320	321	5.6	94.5
2025-10-29T01:22	10	0	0.1	0	0	320	0.3	319	321	5.6	94.4
2025-10-29T01:23	10	0	0.1	0	0	320	0.3	319	320	5.4	95.0
2025-10-29T01:24	10	0	0.1	0	0	320	0.3	319	321	5.4	94.9
2025-10-29T01:25	10	0	0.1	0	0	320	0.3	320	321	5.5	95.2
2025-10-29T01:26	10	0	0.1	0	0	321	0.3	320	321	5.5	95.1
2025-10-29T01:27	10	0	0.1	0	0	320	0.2	320	321	5.6	95.0
2025-10-29T01:28	10	0	0.1	0	0	320	0.3	320	321	5.6	95.0
2025-10-29T01:29	10	0	0.1	0	0	320	0.2	320	321	5.6	95.2
2025-10-29T01:30	10	0	0.1	0	0	320	0.3	320	321	5.5	95.2
2025-10-29T01:31	10	0	0.1	0	0	320	0.2	319	320	5.6	95.0
2025-10-29T01:32	10	0	0.1	0	0	320	0.2	319	320	5.6	95.2
2025-10-29T01:33	10	0	0.1	0	0	319	0.3	318	319	5.5	95.1
2025-10-29T01:34	10	0	0.1	0	0	319	0.2	318	319	5.6	94.9
2025-10-29T01:35	10	0	0.0	0	0	319	0.3	318	320	5.7	94.6
2025-10-29T01:36	10	0	0.1	0	0	320	0.2	319	320	5.7	94.4
2025-10-29T01:37	10	0	0.1	0	0	320	0.2	319	320	5.8	94.1
2025-10-29T01:38	10	0	0.1	0	0	320	0.2	319	320	5.8	94.1
2025-10-29T01:39	10	0	0.1	0	0	320	0.2	319	320	5.8	94.1
2025-10-29T01:40	10	0	0.1	0	0	320	0.3	319	320	5.8	93.9
2025-10-29T01:41	10	0	0.1	0	0	320	0.2	319	320	5.9	93.7
2025-10-29T01:42	10	0	0.1	0	0	320	0.2	319	320	5.9	93.7
2025-10-29T01:43	10	0	0.1	0	0	320	0.2	319	320	5.9	93.2
2025-10-29T01:44	10	0	0.1	0	0	320	0.3	319	321	6.0	93.0
2025-10-29T01:45	10	0	0.1	0	0	320	0.2	319	320	5.7	94.3
2025-10-29T01:46	10	0	0.1	0	0	319	0.2	319	320	5.6	94.6
2025-10-29T01:47	10	0	0.1	0	0	319	0.5	317	319	5.8	94.4
2025-10-29T01:48	10	0	0.1	0	0	318	0.3	317	319	5.4	95.4
2025-10-29T01:49	10	0	0.1	0	0	318	0.2	317	318	5.2	95.6
2025-10-29T01:50	10	0	0.1	0	0	318	0.5	317	319	5.1	96.3
2025-10-29T01:51	10	0	0.1	0	0	316	0.4	316	317	4.8	97.3
2025-10-29T01:52	10	0	0.0	0	0	316	0.4	315	317	4.7	96.7
2025-10-29T01:53	10	0	0.0	-1	0	317	0.3	317	318	4.9	96.7
2025-10-29T01:54	10	0	0.1	-1	0	318	0.3	317	318	5.2	95.4
2025-10-29T01:55	10	0	0.1	-1	0	317	0.2	317	318	5.3	94.8
2025-10-29T01:56	10	0	0.1	0	0	317	0.3	316	318	5.1	95.4
2025-10-29T01:57	10	0	0.1	0	0	317	0.2	316	317	5.0	95.6
2025-10-29T01:58	10	0	0.1	0	0	317	0.2	316	317	4.9	96.0
2025-10-29T01:59	10	0	0.1	0	0	317	0.2	316	317	4.8	95.8
2025-10-29T02:00	10	0	0.1	0	0	317	0.2	316	317	4.8	95.4
2025-10-29T02:01	10	0	0.1	-1	0	317	0.3	316	317	4.8	95.8
2025-10-29T02:02	10	0	0.1	0	0	317	0.3	316	318	4.7	96.1
2025-10-29T02:03	10	0	0.1	0	0	317	0.3	316	318	4.7	95.9
2025-10-29T02:04	10	0	0.1	0	0	317	0.2	317	318	4.7	96.0
2025-10-29T02:05	10	0	0.1	0	0	317	0.2	317	318	4.8	95.9
2025-10-29T02:06	10	0	0.1	0	0	317	0.2	317	318	5.0	96.3
2025-10-29T02:07	10	0	0.1	0	0	317	0.2	317	318	5.0	96.5
2025-10-29T02:08	10	0	0.1	0	0	317	0.2	317	318	5.1	96.2
2025-10-29T02:09	10	0	0.1	0	0	317	0.3	316	318	5.2	95.6
2025-10-29T02:10	10	0	0.1	0	0	317	0.3	317	318	5.2	95.2
2025-10-29T02:11	10	0	0.1	0	0	317	0.2	317	318	5.2	94.3
2025-10-29T02:12	10	0	0.1	0	0	317	0.2	317	318	5.2	93.9
2025-10-29T02:13	10	0	0.1	0	0	318	0.3	317	318	5.2	93.8
2025-10-29T02:14	10	0	0.1	0	0	317	0.2	317	318	5.2	93.9
2025-10-29T02:15	10	0	0.1	0	0	318	0.3	317	318	5.1	94.0
2025-10-29T02:16	10	0	0.1	0	0	318	0.2	317	318	5.1	94.6
2025-10-29T02:17	10	0	0.1	0	0	318	0.2	317	318	5.1	95.0
2025-10-29T02:18	10	0	0.1	-1	0	317	0.3	317	318	5.0	95.1
2025-10-29T02:19	10	0	0.1	0	0	317	0.2	317	318	4.9	95.1
2025-10-29T02:20	10	0	0.1	0	0	317	0.2	317	318	4.8	95.4
2025-10-29T02:21	10	0	0.1	0	0	317	0.2	317	318	4.7	95.7
2025-10-29T02:22	10	0	0.1	-1	0	317	0.3	317	318	4.7	96.0
2025-10-29T02:23	10	0	0.1	-1	0	317	0.3	317	318	4.6	96.4
2025-10-29T02:24	10	0	0.1	0	0	317	0.2	317	317	4.7	96.7
2025-10-29T02:25	10	0	0.1	-1	0	317	0.2	317	318	4.7	96.9
2025-10-29T02:26	10	0	0.1	0	0	317	0.3	317	318	4.8	96.7
2025-10-29T02:27	10	0	0.1	0	0	317	0.3	317	318	4.8	96.6
2025-10-29T02:28	10	0	0.1	0	0	317	0.2	317	318	4.8	96.8
2025-10-29T02:29	10	0	0.1	0	0	317	0.3	317	318	4.8	96.7
2025-10-29T02:30	10	0	0.1	0	0	317	0.3	317	318	4.8	96.4
2025-10-29T02:31	10	0	0.1	0	0	318	0.2	317	318	4.9	96.0
2025-10-29T02:32	10	0	0.1	0	0	318	0.3	318	319	4.9	95.8
2025-10-29T02:33	10	0	0.1	0	0	319	0.3	318	319	5.0	95.5
2025-10-29T02:34	10	0	0.1	0	0	318	0.2	318	319	5.1	95.3
2025-10-29T02:35	10	0	0.1	0	0	319	0.2	318	319	5.1	94.7
2025-10-29T02:36	10	0	0.1	0	0	319	0.2	319	320	5.2	94.8
2025-10-29T02:37	10	0	0.1	0	0	319	0.2	319	320	5.2	94.8
2025-10-29T02:38	10	0	0.1	0	0	319	0.2	319	320	5.1	95.0
2025-10-29T02:39	10	0	0.1	0	0	319	0.3	319	320	5.1	95.2
2025-10-29T02:40	10	0	0.1	0	0	319	0.2	319	320	4.9	95.4
2025-10-29T02:41	10	0	0.1	0	0	319	0.2	319	320	4.8	95.6
2025-10-29T02:42	10	0	0.1	-1	0	319	0.2	319	320	4.8	96.0
2025-10-29T02:43	10	0	0.1	-1	0	319	0.3	318	319	4.7	96.4
2025-10-29T02:44	10	0	0.1	-1	0	318	0.3	317	318	4.7	96.6
2025-10-29T02:45	10	0	0.1	-1	0	318	0.2	317	318	4.5	96.9
2025-10-29T02:46	10	0	0.1	-1	0	318	0.2	317	318	4.4	96.8
2025-10-29T02:47	10	0	0.1	-1	0	317	0.2	317	318	4.3	96.8
2025-10-29T02:48	10	0	0.1	-1	0	317	0.2	316	317	4.4	97.1
2025-10-29T02:49	10	0	0.1	-1	0	316	0.2	316	317	4.3	97.0
2025-10-29T02:50	10	0	0.1	-1	0	316	0.2	316	317	4.3	97.3
2025-10-29T02:51	10	0	0.0	0	0	316	0.2	315	316	4.3	97.3
2025-10-29T02:52	10	0	0.1	-1	0	316	0.2	316	316	4.4	97.1
2025-10-29T02:53	10	0	0.1	-1	0	316	0.2	315	316	4.4	97.2
2025-10-29T02:54	10	0	0.1	-1	0	315	0.2	315	316	4.5	97.6
2025-10-29T02:55	10	0	0.1	0	0	315	0.3	315	316	4.5	97.6
2025-10-29T02:56	10	0	0.1	0	0	315	0.3	315	316	4.5	97.6
2025-10-29T02:57	10	0	0.1	0	0	315	0.3	315	316	4.4	97.7
2025-10-29T02:58	10	0	0.1	0	0	315	0.2	315	316	4.5	97.4
2025-10-29T02:59	10	0	0.1	0	0	315	0.3	315	316	4.4	97.7
2025-10-29T03:00	10	0	0.1	0	0	315	0.2	315	316	4.4	97.7
2025-10-29T03:01	10	0	0.1	0	0	315	0.2	315	316	4.4	97.5
2025-10-29T03:02	10	0	0.1	0	0	315	0.3	315	316	4.4	97.8
2025-10-29T03:03	10	0	0.1	0	0	315	0.3	314	316	4.3	98.1
2025-10-29T03:04	10	0	0.1	-1	0	315	0.2	315	315	4.1	98.1
2025-10-29T03:05	10	0	0.1	-1	0	315	0.4	315	316	4.0	98.0
2025-10-29T03:06	10	-1	0.1	-1	0	316	0.3	315	316	4.2	97.5
2025-10-29T03:07	10	-1	0.1	-1	0	316	0.3	315	317	4.3	98.0
2025-10-29T03:08	10	-1	0.1	-1	0	316	0.2	315	317	4.3	98.3
2025-10-29T03:09	10	-1	0.1	-1	0	316	0.3	316	317	4.2	97.2
2025-10-29T03:10	10	0	0.1	-1	0	316	0.2	316	316	4.4	96.1
2025-10-29T03:11	10	0	0.1	-1	0	316	0.3	316	317	4.5	95.7
2025-10-29T03:12	10	0	0.1	-1	0	316	0.3	315	316	4.3	95.1
2025-10-29T03:13	10	0	0.1	-1	0	315	0.2	315	316	4.0	95.3
2025-10-29T03:14	10	-1	0.1	-1	0	316	0.2	315	316	4.0	95.8
2025-10-29T03:15	10	-1	0.1	-1	0	316	0.2	315	316	3.9	97.1
2025-10-29T03:16	10	-1	0.1	-1	0	315	0.3	315	316	3.9	97.0
2025-10-29T03:17	10	-1	0.1	-1	0	315	0.2	315	316	3.9	96.6
2025-10-29T03:18	10	-1	0.1	-1	0	315	0.2	315	316	3.9	95.9
2025-10-29T03:19	10	-1	0.1	-1	-1	315	0.2	315	316	3.9	96.5
2025-10-29T03:20	10	-1	0.1	-1	-1	315	0.3	315	316	4.1	96.9
2025-10-29T03:21	10	-1	0.1	-1	-1	316	0.2	315	316	4.2	97.3
2025-10-29T03:22	10	-1	0.1	-1	0	316	0.3	315	317	4.2	97.3
2025-10-29T03:23	10	-1	0.1	-1	0	316	0.2	316	317	4.3	97.0
2025-10-29T03:24	10	-1	0.1	-1	-1	317	0.2	316	317	4.4	97.0
2025-10-29T03:25	10	-1	0.0	-1	0	316	0.5	315	316	4.3	96.7
2025-10-29T03:26	10	-1	0.0	-1	0	315	0.4	314	316	4.1	96.0
2025-10-29T03:27	10	0	0.0	-1	0	314	0.2	314	315	3.9	96.2
2025-10-29T03:28	10	0	0.1	-1	0	314	0.2	314	315	4.0	96.0
2025-10-29T03:29	10	0	0.1	-1	0	315	0.3	314	316	3.9	96.3
2025-10-29T03:30	10	0	0.1	-1	0	315	0.3	314	315	4.0	96.3
2025-10-29T03:31	10	0	0.1	0	0	314	0.3	314	315	3.9	96.6
2025-10-29T03:32	10	0	0.0	0	0	314	0.2	314	315	3.8	97.1
2025-10-29T03:33	10	0	0.0	0	0	315	0.3	314	315	3.7	97.5
2025-10-29T03:34	10	0	0.1	0	0	315	0.3	314	315	3.9	97.9
2025-10-29T03:35	10	0	0.1	0	0	314	0.2	314	315	3.9	98.5
2025-10-29T03:36	10	0	0.1	0	0	314	0.2	314	315	3.8	98.6
2025-10-29T03:37	10	0	0.1	0	0	315	0.3	314	315	3.8	98.3
2025-10-29T03:38	10	0	0.1	0	0	315	0.1	315	315	3.8	98.5
2025-10-29T03:39	10	0	0.1	-1	0	315	0.3	315	316	3.7	98.3
2025-10-29T03:40	10	0	0.1	0	0	315	0.3	315	316	3.9	97.9
2025-10-29T03:41	10	0	0.1	0	0	315	0.3	315	316	4.2	98.1
2025-10-29T03:42	10	0	0.0	0	0	315	0.3	314	316	3.9	98.7
2025-10-29T03:43	10	0	0.1	0	0	315	0.3	314	315	3.7	97.6
2025-10-29T03:44	10	0	0.1	0	0	314	0.3	314	315	3.7	97.6
2025-10-29T03:45	10	0	0.1	0	0	314	0.2	314	315	3.6	97.7
2025-10-29T03:46	10	0	0.1	0	0	314	0.2	314	315	3.7	97.8
2025-10-29T03:47	10	0	0.1	0	0	314	0.2	314	315	3.7	98.0
2025-10-29T03:48	10	0	0.1	-1	0	314	0.3	314	315	3.6	98.1
2025-10-29T03:49	10	0	0.1	-1	0	315	0.3	314	316	3.6	97.9
2025-10-29T03:50	10	0	0.0	0	0	315	0.3	315	316	3.6	97.8
2025-10-29T03:51	10	0	0.1	-1	0	316	0.2	315	316	3.7	97.6
2025-10-29T03:52	10	0	0.1	-1	0	316	0.2	315	316	3.7	97.3
2025-10-29T03:53	10	0	0.1	0	0	316	0.2	315	316	3.8	96.9
2025-10-29T03:54	10	0	0.1	0	0	316	0.2	315	316	3.8	96.8
2025-10-29T03:55	10	0	0.1	0	0	316	0.2	315	316	3.7	96.6
2025-10-29T03:56	10	0	0.1	0	0	316	0.2	315	316	3.7	96.4
2025-10-29T03:57	10	0	0.0	0	0	315	0.2	315	316	3.7	96.4
2025-10-29T03:58	10	0	0.1	0	0	315	0.2	315	316	3.7	96.6
2025-10-29T03:59	10	0	0.0	0	0	315	0.3	315	316	3.8	97.4
2025-10-29T04:00	10	0	0.1	0	0	316	0.3	315	316	3.9	98.0
2025-10-29T04:01	10	0	0.0	0	0	316	0.2	316	316	3.9	97.8
2025-10-29T04:02	10	0	0.1	0	0	316	0.2	316	317	3.9	97.7
2025-10-29T04:03	10	0	0.1	0	0	316	0.3	316	317	3.9	97.9
2025-10-29T04:04	10	0	0.1	0	0	316	0.3	315	317	4.0	97.9
2025-10-29T04:05	10	0	0.1	0	0	316	0.3	315	317	4.1	97.4
2025-10-29T04:06	10	0	0.0	0	0	316	0.2	316	317	4.1	96.8
2025-10-29T04:07	10	0	0.0	0	0	316	0.2	316	317	4.2	96.7
2025-10-29T04:08	10	0	0.1	0	0	316	0.3	315	317	4.2	96.7
2025-10-29T04:09	10	0	0.1	0	0	316	0.3	315	316	4.1	96.9
2025-10-29T04:10	10	0	0.1	0	0	315	0.3	315	316	4.0	96.9
2025-10-29T04:11	10	0	0.1	0	0	315	0.3	314	315	3.8	97.3
2025-10-29T04:12	10	0	0.1	0	0	314	0.3	314	315	3.7	96.9
2025-10-29T04:13	10	0	0.0	0	0	315	0.2	314	315	3.9	96.6
2025-10-29T04:14	10	0	0.1	0	0	314	0.3	313	315	4.1	96.4
2025-10-29T04:15	10	0	0.1	-1	0	314	0.2	314	315	4.1	96.2
2025-10-29T04:16	10	0	0.1	0	0	315	0.2	314	315	4.1	96.1
2025-10-29T04:17	10	0	0.1	0	0	315	0.2	314	315	4.1	95.9
2025-10-29T04:18	10	0	0.1	-1	0	315	0.3	314	316	4.1	95.7
2025-10-29T04:19	10	0	0.1	0	0	315	0.2	315	316	4.0	95.7
2025-10-29T04:20	10	0	0.1	0	0	315	0.2	315	315	4.0	95.3
2025-10-29T04:21	10	0	0.1	0	0	315	0.2	314	315	4.1	95.3
2025-10-29T04:22	10	0	0.1	0	0	315	0.2	314	315	4.1	95.0
2025-10-29T04:23	10	0	0.1	0	0	314	0.2	314	315	4.0	94.9
2025-10-29T04:24	10	0	0.1	0	0	315	0.2	314	315	4.0	95.1
2025-10-29T04:25	10	0	0.1	-1	0	315	0.2	314	315	4.0	95.0
2025-10-29T04:26	10	0	0.1	-1	0	315	0.3	314	315	4.0	94.8
2025-10-29T04:27	10	0	0.1	-1	0	315	0.3	315	316	4.0	94.8
2025-10-29T04:28	10	0	0.1	-1	0	316	0.3	315	316	4.2	94.9
2025-10-29T04:29	10	0	0.1	0	0	315	0.2	315	316	4.4	94.7
2025-10-29T04:30	10	0	0.1	-1	0	316	0.2	315	316	4.5	94.3
2025-10-29T04:31	10	0	0.1	0	0	316	0.2	315	316	4.6	93.9
2025-10-29T04:32	10	0	0.1	0	0	316	0.2	315	316	4.6	93.5
2025-10-29T04:33	10	0	0.1	0	0	316	0.4	315	316	4.6	93.3
2025-10-29T04:34	10	0	0.1	0	0	315	0.3	315	316	4.6	93.0
2025-10-29T04:35	10	0	0.1	0	0	315	0.3	315	316	4.6	92.9
2025-10-29T04:36	10	0	0.1	0	0	315	0.2	315	316	4.6	92.6
2025-10-29T04:37	10	0	0.1	0	0	315	0.2	315	316	4.6	92.2
2025-10-29T04:38	10	0	0.1	0	0	315	0.3	315	316	4.6	92.3
2025-10-29T04:39	10	0	0.1	0	0	316	0.3	315	316	4.7	92.3
2025-10-29T04:40	10	0	0.1	0	0	315	0.3	315	316	4.7	92.0
2025-10-29T04:41	10	0	0.1	0	0	315	0.3	314	315	4.5	92.4
2025-10-29T04:42	10	0	0.1	0	0	315	0.2	314	316	4.4	92.7
2025-10-29T04:43	10	0	0.1	0	0	315	0.3	315	316	4.5	92.6
2025-10-29T04:44	10	0	0.1	0	0	316	0.2	315	316	4.7	92.4
2025-10-29T04:45	10	0	0.1	0	0	315	0.4	314	316	4.6	92.3
2025-10-29T04:46	10	0	0.1	0	0	315	0.2	315	316	4.3	92.8
2025-10-29T04:47	10	0	0.1	0	0	315	0.3	315	316	4.3	93.5
2025-10-29T04:48	10	0	0.1	-1	0	315	0.3	314	315	4.2	93.7
2025-10-29T04:49	10	0	0.1	0	0	315	0.2	314	315	4.1	94.0
2025-10-29T04:50	10	0	0.1	-1	0	314	0.2	314	315	4.0	94.1
2025-10-29T04:51	10	0	0.1	0	0	314	0.2	314	315	4.0	94.2
2025-10-29T04:52	10	0	0.1	-1	0	315	0.3	314	315	3.9	94.1
2025-10-29T04:53	10	0	0.1	-1	0	315	0.2	314	315	3.9	94.1
2025-10-29T04:54	10	0	0.1	-1	0	315	0.2	314	315	3.8	93.9
2025-10-29T04:55	10	0	0.1	-1	0	314	0.2	314	315	3.8	93.7
2025-10-29T04:56	10	0	0.1	-1	0	315	0.4	314	316	3.7	93.6
2025-10-29T04:57	10	0	0.1	-1	0	316	0.4	315	317	3.7	94.1
2025-10-29T04:58	10	0	0.1	-1	0	317	0.4	316	318	3.6	94.8
2025-10-29T04:59	10	0	0.1	-1	0	317	0.2	317	318	3.7	95.5
2025-10-29T05:00	10	0	0.1	-1	0	317	0.3	317	318	3.6	96.3
2025-10-29T05:01	10	0	0.1	-1	0	318	0.3	317	318	3.5	96.5
2025-10-29T05:02	10	0	0.1	-1	0	317	0.3	317	318	3.5	96.3
2025-10-29T05:03	10	0	0.2	-1	0	317	0.2	317	318	3.5	96.3
2025-10-29T05:04	10	0	0.1	-1	0	318	0.3	317	318	3.4	96.6
2025-10-29T05:05	10	0	0.1	-1	0	318	0.4	317	319	3.4	97.2
2025-10-29T05:06	10	0	0.1	-1	0	318	0.3	318	319	3.5	97.9
2025-10-29T05:07	10	0	0.1	0	0	319	0.3	318	319	3.6	99.1
2025-10-29T05:08	10	0	0.1	-1	0	319	0.2	318	319	3.5	99.6
2025-10-29T05:09	10	0	0.1	0	0	318	0.4	318	319	3.6	99.8
2025-10-29T05:10	10	0	0.2	-1	0	319	0.3	318	319	3.5	100.7
2025-10-29T05:11	10	0	0.1	-1	0	320	0.3	319	321	3.5	100.5
2025-10-29T05:12	10	0	0.1	-1	0	320	0.3	320	321	3.5	100.8
2025-10-29T05:13	10	0	0.1	-1	0	320	0.3	319	321	3.4	101.0
2025-10-29T05:14	10	0	0.1	-1	0	320	0.2	319	320	3.4	100.4
2025-10-29T05:15	10	0	0.1	-1	0	320	0.2	320	321	3.5	101.0
2025-10-29T05:16	10	0	0.1	-1	0	320	0.3	319	320	3.6	100.9
2025-10-29T05:17	10	0	0.1	-1	0	319	0.3	319	320	3.6	101.1
2025-10-29T05:18	10	0	0.1	-1	0	319	0.3	319	320	3.4	101.4
2025-10-29T05:19	10	-1	0.1	-1	0	320	0.3	319	320	3.5	100.9
2025-10-29T05:20	10	0	0.1	-1	0	320	0.3	319	321	3.5	100.9
2025-10-29T05:21	10	0	0.1	-1	0	320	0.3	320	321	3.6	100.5
2025-10-29T05:22	10	0	0.1	-1	0	321	0.2	320	321	3.6	101.0
2025-10-29T05:23	10	0	0.1	-1	0	321	0.3	320	321	3.6	101.2
2025-10-29T05:24	10	0	0.1	-1	0	321	0.3	321	322	3.5	101.3
2025-10-29T05:25	10	0	0.1	0	0	321	0.3	321	322	3.5	100.7
2025-10-29T05:26	10	0	0.1	-1	0	321	0.2	321	322	3.4	101.2
2025-10-29T05:27	10	0	0.2	0	0	321	0.3	321	322	3.4	101.0
2025-10-29T05:28	10	0	0.1	-1	0	322	0.3	321	323	3.5	100.9
2025-10-29T05:29	10	0	0.1	-1	0	322	0.2	322	323	3.4	101.0
2025-10-29T05:30	10	0	0.1	-1	0	323	0.3	322	324	3.5	100.6
2025-10-29T05:31	10	0	0.1	-1	0	324	0.3	323	324	3.6	100.3
2025-10-29T05:32	10	0	0.1	-1	0	324	0.3	323	325	3.7	100.7
2025-10-29T05:33	10	0	0.1	-1	0	324	0.2	324	325	3.8	100.5
2025-10-29T05:34	10	0	0.1	0	0	325	0.3	324	326	3.7	101.0
2025-10-29T05:35	10	0	0.1	0	0	325	0.3	325	326	3.7	101.0
2025-10-29T05:36	10	0	0.1	0	0	326	0.2	326	327	3.8	100.6
2025-10-29T05:37	10	0	0.1	0	0	327	0.2	326	327	3.9	100.2
2025-10-29T05:38	10	0	0.1	0	0	327	0.2	327	328	3.9	100.4
2025-10-29T05:39	10	0	0.1	-1	0	327	0.3	327	328	3.8	101.1
2025-10-29T05:40	10	0	0.1	0	0	327	0.3	326	327	3.6	100.9
2025-10-29T05:41	10	0	0.1	-1	0	327	0.3	327	328	3.6	100.2
2025-10-29T05:42	10	0	0.1	0	0	328	0.3	327	329	3.7	100.2
2025-10-29T05:43	10	0	0.1	0	0	328	0.2	327	329	3.8	99.9
2025-10-29T05:44	10	0	0.1	-1	0	328	0.3	327	329	3.7	100.0
2025-10-29T05:45	10	0	0.1	-1	0	328	0.2	328	329	3.6	99.5
2025-10-29T05:46	10	0	0.1	-1	0	328	0.2	328	329	3.6	99.0
2025-10-29T05:47	10	-1	0.1	-1	0	328	0.2	328	329	3.4	98.9
2025-10-29T05:48	10	-1	0.1	-1	0	328	0.2	328	329	3.3	98.6
2025-10-29T05:49	10	-1	0.1	-1	0	329	0.2	328	329	3.3	98.6
2025-10-29T05:50	10	-1	0.1	-1	0	329	0.2	329	329	3.3	98.8
2025-10-29T05:51	10	-1	0.1	-1	0	329	0.2	329	330	3.3	98.9
2025-10-29T05:52	10	0	0.1	-1	0	329	0.2	329	330	3.2	98.8
2025-10-29T05:53	10	0	0.1	-1	0	330	0.2	329	330	3.2	98.8
2025-10-29T05:54	10	0	0.1	-1	0	330	0.2	329	330	3.1	98.4
2025-10-29T05:55	10	0	0.2	-1	0	330	0.2	329	331	3.1	98.1
2025-10-29T05:56	10	0	0.1	0	0	330	0.3	329	330	3.1	98.0
2025-10-29T05:57	10	0	0.2	0	1	330	0.2	329	330	3.1	98.2
2025-10-29T05:58	10	0	0.1	0	0	330	0.3	330	331	3.1	98.3
2025-10-29T05:59	10	0	0.1	0	0	331	0.3	330	331	3.3	98.1
2025-10-29T06:00	10	0	0.0	0	0	331	0.3	330	332	3.4	98.0
2025-10-29T06:01	10	0	0.1	0	0	331	0.3	331	332	3.5	97.8
2025-10-29T06:02	10	0	0.1	0	0	331	0.2	331	332	3.6	97.3
2025-10-29T06:03	10	0	0.1	0	0	331	0.3	331	332	3.7	96.7
2025-10-29T06:04	10	0	0.1	0	0	332	0.2	331	332	3.8	96.3
2025-10-29T06:05	10	0	0.1	0	0	332	0.2	331	332	3.8	96.2
2025-10-29T06:06	10	0	0.1	0	0	332	0.2	331	332	3.8	95.9
2025-10-29T06:07	10	0	0.1	0	0	332	0.2	332	333	3.9	95.0
2025-10-29T06:08	10	0	0.1	0	0	332	0.2	332	333	4.0	94.5
2025-10-29T06:09	10	0	0.1	0	0	333	0.2	332	333	4.2	94.1
2025-10-29T06:10	10	0	0.0	0	0	333	0.2	332	333	4.2	94.0
2025-10-29T06:11	10	0	0.0	0	0	333	0.2	332	333	4.1	93.8
2025-10-29T06:12	10	0	0.0	0	0	333	0.2	332	333	4.0	93.9
2025-10-29T06:13	10	0	0.0	0	0	333	0.2	332	333	4.1	93.8
2025-10-29T06:14	10	0	0.1	0	0	333	0.3	333	334	4.3	93.8
2025-10-29T06:15	10	0	0.1	0	0	334	0.2	333	334	4.5	93.8
2025-10-29T06:16	10	0	0.1	0	1	334	0.3	333	334	4.6	93.7
2025-10-29T06:17	10	0	0.1	0	1	334	0.3	333	334	4.4	93.8
2025-10-29T06:18	10	0	0.1	0	1	334	0.2	333	334	4.3	93.9
2025-10-29T06:19	10	0	0.1	0	1	334	0.2	333	334	4.2	94.5
2025-10-29T06:20	10	0	0.1	0	1	334	0.2	333	334	4.2	95.6
2025-10-29T06:21	10	0	0.1	0	1	334	0.2	334	334	4.1	96.0
2025-10-29T06:22	10	0	0.1	0	1	334	0.2	333	334	4.1	95.5
2025-10-29T06:23	10	1	0.1	0	1	334	0.2	334	335	4.2	95.7
2025-10-29T06:24	10	1	0.1	0	1	334	0.2	334	335	4.1	96.6
2025-10-29T06:25	10	1	0.1	1	1	335	0.2	334	335	4.1	97.4
2025-10-29T06:26	10	1	0.1	1	1	335	0.2	334	335	4.1	98.1
2025-10-29T06:27	10	1	0.1	1	1	335	0.3	334	335	4.1	97.8
2025-10-29T06:28	10	1	0.1	1	1	335	0.2	334	335	4.1	97.5
2025-10-29T06:29	10	1	0.1	1	2	335	0.2	334	335	4.1	97.3
2025-10-29T06:30	10	2	0.1	1	2	335	0.2	335	336	4.2	96.9
2025-10-29T06:31	10	2	0.1	1	2	336	0.2	335	336	4.2	97.1
2025-10-29T06:32	10	2	0.1	1	2	336	0.2	335	337	4.3	97.2
2025-10-29T06:33	10	2	0.1	2	2	336	0.2	336	336	4.3	97.0
2025-10-29T06:34	10	2	0.0	2	2	336	0.2	336	336	4.3	96.2
2025-10-29T06:35	10	2	0.1	2	2	336	0.2	336	337	4.4	95.8
2025-10-29T06:36	10	2	0.1	2	2	336	0.2	336	336	4.4	96.1
2025-10-29T06:37	10	2	0.1	2	2	336	0.2	336	337	4.4	95.8
2025-10-29T06:38	10	2	0.1	2	2	336	0.2	336	337	4.4	95.5
2025-10-29T06:39	10	2	0.3	1	2	336	0.2	336	337	4.4	88.8
2025-10-29T06:40	10	1	0.0	1	2	336	0.2	336	337	4.4	95.2
2025-10-29T06:41	10	2	0.1	2	2	337	0.2	336	337	4.4	95.2
2025-10-29T06:42	10	2	0.1	2	2	337	0.2	336	337	4.4	90.4
2025-10-29T06:43	10	2	0.1	2	3	337	0.2	336	337	4.4	95.2
2025-10-29T06:44	10	3	0.2	3	3	337	0.2	337	337	4.4	95.2
2025-10-29T06:45	10	4	0.2	3	4	337	0.3	336	338	4.4	95.2
2025-10-29T06:46	10	5	0.2	4	5	337	0.2	336	337	4.4	95.1
2025-10-29T06:47	10	5	0.1	4	5	337	0.3	336	337	4.4	94.1
2025-10-29T06:48	10	4	0.3	3	4	336	0.2	336	337	4.4	93.5
2025-10-29T06:49	10	3	0.1	3	3	336	0.2	336	337	4.3	95.0
2025-10-29T06:50	10	3	0.1	3	3	336	0.3	336	337	4.3	96.3
2025-10-29T06:51	10	3	0.2	3	4	336	0.3	336	337	4.3	97.0
2025-10-29T06:52	10	4	0.4	4	5	336	0.3	336	337	4.3	97.0
2025-10-29T06:53	10	5	0.1	5	6	336	0.4	336	337	4.3	97.4
2025-10-29T06:54	10	5	0.1	5	5	337	0.3	336	338	4.3	97.9
2025-10-29T06:55	10	5	0.1	5	5	337	0.3	336	338	4.3	98.3
2025-10-29T06:56	10	5	0.2	5	5	337	0.2	337	338	4.3	98.9
2025-10-29T06:57	10	6	0.2	5	6	337	0.3	337	338	4.4	98.7
2025-10-29T06:58	10	6	0.2	5	6	338	0.2	337	338	4.4	98.4
2025-10-29T06:59	10	5	0.1	5	6	338	0.2	338	338	4.4	98.3
2025-10-29T07:00	10	6	0.1	5	6	338	0.2	337	338	4.4	98.1
2025-10-29T07:01	10	6	0.1	6	6	338	0.2	337	338	4.4	98.5
2025-10-29T07:02	10	6	0.1	6	6	338	0.3	337	338	4.4	98.8
2025-10-29T07:03	10	6	0.1	6	6	338	0.2	337	338	4.4	99.3
2025-10-29T07:04	10	6	0.1	6	6	338	0.2	337	338	4.3	99.5
2025-10-29T07:05	10	6	0.1	6	7	338	0.2	337	338	4.3	99.2
2025-10-29T07:06	10	6	0.1	6	7	338	0.2	338	338	4.3	99.4
2025-10-29T07:07	10	6	0.1	6	6	338	0.3	337	338	4.4	99.6
2025-10-29T07:08	10	6	0.2	6	7	338	0.2	338	339	4.4	99.5
2025-10-29T07:09	10	7	0.1	7	7	338	0.2	338	339	4.4	99.3
2025-10-29T07:10	10	7	0.1	7	7	339	0.2	338	339	4.4	99.5
2025-10-29T07:11	10	8	0.1	7	8	339	0.3	338	339	4.4	99.9
2025-10-29T07:12	10	8	0.2	8	8	339	0.2	339	340	4.5	100.1
2025-10-29T07:13	10	8	0.1	8	9	340	0.3	339	340	4.5	99.8
2025-10-29T07:14	10	8	0.1	8	9	339	0.2	339	340	4.6	99.7
2025-10-29T07:15	10	8	0.1	8	8	339	0.2	339	340	4.6	99.8
2025-10-29T07:16	10	8	0.1	8	9	339	0.2	339	340	4.6	99.9
2025-10-29T07:17	10	9	0.3	8	10	339	0.2	339	339	4.6	100.1
2025-10-29T07:18	10	10	0.2	9	10	339	0.2	338	339	4.6	100.3
2025-10-29T07:19	10	10	0.3	10	11	339	0.2	339	340	4.6	100.3
2025-10-29T07:20	10	11	0.3	11	12	339	0.3	339	340	4.6	100.4
2025-10-29T07:21	10	12	0.2	11	12	340	0.3	339	340	4.7	100.7
2025-10-29T07:22	10	10	0.7	9	11	340	0.2	340	341	4.7	100.9
2025-10-29T07:23	10	10	0.5	9	10	340	0.2	340	341	4.7	100.7
2025-10-29T07:24	10	11	0.2	10	11	341	0.2	340	341	4.7	100.6
2025-10-29T07:25	10	11	0.3	11	12	341	0.2	340	342	4.7	100.2
2025-10-29T07:26	10	13	0.5	12	14	341	0.2	340	341	4.7	100.2
2025-10-29T07:27	10	14	0.4	13	15	341	0.2	340	341	4.7	100.4
2025-10-29T07:28	10	16	0.4	15	16	341	0.2	340	341	4.7	100.0
2025-10-29T07:29	10	16	0.2	16	17	341	0.3	340	341	4.7	100.1
2025-10-29T07:30	10	16	0.2	16	16	341	0.2	340	341	4.7	99.9
2025-10-29T07:31	10	16	0.2	16	16	341	0.2	341	342	4.7	99.7
2025-10-29T07:32	10	16	0.1	16	16	341	0.2	341	342	4.7	99.4
2025-10-29T07:33	10	16	0.1	16	16	341	0.2	341	342	4.6	99.5
2025-10-29T07:34	10	16	0.2	15	16	342	0.2	341	342	4.7	99.2
2025-10-29T07:35	10	16	0.1	16	17	342	0.4	341	342	4.8	99.9
2025-10-29T07:36	10	16	0.2	16	17	342	0.2	342	343	4.9	99.9
2025-10-29T07:37	10	15	0.4	15	16	342	0.3	342	343	4.9	99.9
2025-10-29T07:38	10	14	0.2	14	15	342	0.3	342	343	4.9	99.7
2025-10-29T07:39	10	14	0.2	13	14	342	0.2	342	343	4.9	99.6
2025-10-29T07:40	10	13	0.2	13	14	342	0.2	342	343	4.9	99.6
2025-10-29T07:41	10	15	0.7	14	17	342	0.3	342	343	5.0	99.6
2025-10-29T07:42	10	18	0.9	17	20	343	0.3	342	344	5.2	99.5
2025-10-29T07:43	10	22	1.1	20	23	343	0.2	343	344	5.2	100.0
2025-10-29T07:44	10	25	0.7	23	26	344	0.3	344	345	5.2	99.8
2025-10-29T07:45	10	26	0.1	26	26	345	0.3	345	346	5.3	99.9
2025-10-29T07:46	10	26	0.3	26	27	346	0.2	345	346	5.3	100.1
2025-10-29T07:47	10	27	0.2	27	27	347	0.3	346	348	5.4	99.9
2025-10-29T07:48	10	27	0.1	27	27	347	0.2	347	348	5.4	100.1
2025-10-29T07:49	10	27	0.1	27	27	348	0.3	347	348	5.5	99.8
2025-10-29T07:50	10	27	0.1	27	27	348	0.2	348	349	5.7	99.8
2025-10-29T07:51	10	27	0.1	27	27	348	0.2	348	349	5.7	100.0
2025-10-29T07:52	10	28	0.2	27	28	348	0.3	348	349	5.7	99.7
2025-10-29T07:53	10	29	0.3	28	29	349	0.2	348	349	5.7	99.3
2025-10-29T07:54	10	29	0.2	29	30	348	0.2	348	349	5.6	99.2
2025-10-29T07:55	10	30	0.4	30	31	348	0.2	348	349	5.6	98.9
2025-10-29T07:56	10	32	0.5	31	33	348	0.2	348	349	5.6	98.6
2025-10-29T07:57	10	34	0.9	33	36	349	0.3	348	350	5.6	98.5
2025-10-29T07:58	10	38	1.2	36	40	350	0.3	349	351	5.7	98.5
2025-10-29T07:59	10	42	1.5	40	45	351	0.4	350	352	5.7	98.3
2025-10-29T08:00	10	47	1.0	45	48	352	0.3	351	352	5.7	98.1
2025-10-29T08:01	10	49	0.5	48	50	352	0.2	352	353	5.8	97.6
2025-10-29T08:02	10	50	0.3	49	50	353	0.2	352	353	5.9	97.8
2025-10-29T08:03	10	48	0.7	47	49	353	0.3	353	354	5.9	97.9
2025-10-29T08:04	10	45	0.8	44	47	353	0.4	352	354	5.9	97.5
2025-10-29T08:05	10	45	0.9	44	47	352	0.3	352	353	5.8	96.9
2025-10-29T08:06	10	51	2.8	47	57	353	0.3	352	353	5.9	96.8
2025-10-29T08:07	10	65	3.5	57	69	354	0.6	353	355	6.0	96.9
2025-10-29T08:08	10	67	2.7	61	69	355	0.3	354	355	6.1	95.9
2025-10-29T08:09	10	57	2.8	54	61	355	0.4	353	355	6.2	95.2
2025-10-29T08:10	10	54	0.4	54	55	354	0.2	354	355	6.1	94.9
2025-10-29T08:11	10	57	1.5	54	59	354	0.1	354	355	6.2	95.0
2025-10-29T08:12	10	61	1.7	58	64	355	0.2	354	355	6.2	94.4
2025-10-29T08:13	10	56	1.5	52	58	355	0.2	355	356	6.3	94.8
2025-10-29T08:14	10	52	0.1	52	52	355	0.1	355	355	6.3	95.0
2025-10-29T08:15	10	52	0.1	52	52	356	0.2	355	356	6.4	95.0
2025-10-29T08:16	10	52	0.2	52	52	356	0.2	355	356	6.3	94.7
2025-10-29T08:17	10	51	0.2	51	52	355	0.4	355	356	6.3	94.5
2025-10-29T08:18	10	51	0.4	51	52	355	0.2	355	356	6.3	94.4
2025-10-29T08:19	10	52	0.2	52	53	356	0.2	355	356	6.2	94.3
2025-10-29T08:20	10	54	1.2	53	56	356	0.2	356	357	6.3	94.3
2025-10-29T08:21	10	60	2.0	57	63	357	0.4	356	358	6.4	94.0
2025-10-29T08:22	10	69	3.7	63	77	358	0.5	357	359	6.5	93.4
2025-10-29T08:23	10	87	6.7	77	103	361	1.0	359	363	6.6	93.5
2025-10-29T08:24	10	118	6.3	103	124	363	0.6	362	364	6.6	93.3
2025-10-29T08:25	10	101	12.8	79	118	363	0.8	361	364	6.5	91.9
2025-10-29T08:26	10	81	1.9	77	83	362	0.3	361	362	6.4	92.2
2025-10-29T08:27	10	82	2.0	78	84	362	0.3	361	363	6.5	92.8
2025-10-29T08:28	10	77	2.2	74	81	361	0.9	359	363	6.4	92.8
2025-10-29T08:29	10	70	2.8	64	74	359	0.9	358	361	6.3	93.0
2025-10-29T08:30	10	57	3.2	52	64	357	0.8	356	359	6.3	93.4
2025-10-29T08:31	10	53	1.6	51	56	356	0.5	355	357	6.3	93.8
2025-10-29T08:32	10	62	4.3	56	70	355	0.4	354	356	6.2	93.5
2025-10-29T08:33	10	70	2.5	66	74	355	0.3	355	356	6.1	94.1
2025-10-29T08:34	10	71	6.5	56	77	356	0.3	355	356	6.1	94.5
2025-10-29T08:35	10	45	4.2	41	55	354	0.9	352	355	6.1	94.2
2025-10-29T08:36	10	37	3.2	32	41	352	0.6	351	353	6.1	94.1
2025-10-29T08:37	10	33	1.3	31	35	351	0.3	350	351	6.2	94.0
2025-10-29T08:38	10	33	1.5	32	36	350	0.3	349	350	6.2	94.0
2025-10-29T08:39	10	40	1.1	36	41	350	0.3	349	351	6.3	94.2
2025-10-29T08:40	10	39	1.9	37	45	350	0.2	349	350	6.3	93.5
2025-10-29T08:41	10	57	5.8	46	68	351	0.9	349	352	6.3	92.2
2025-10-29T08:42	10	77	4.6	68	85	353	1.2	351	355	6.3	92.1
2025-10-29T08:43	10	91	3.0	85	94	357	1.1	355	358	6.4	92.6
2025-10-29T08:44	10	91	1.5	88	94	358	0.4	357	359	6.5	92.5
2025-10-29T08:45	10	85	3.0	81	89	359	0.3	358	360	6.5	91.1
2025-10-29T08:46	10	77	3.9	72	84	359	0.4	358	359	6.6	91.3
2025-10-29T08:47	10	83	5.4	73	89	359	0.5	357	360	6.6	91.4
2025-10-29T08:48	10	91	1.7	88	95	360	0.4	359	361	6.6	90.9
2025-10-29T08:49	10	88	1.5	86	91	360	0.2	360	360	6.6	90.4
2025-10-29T08:50	10	80	4.5	70	86	360	0.6	359	361	6.7	90.2
2025-10-29T08:51	10	60	5.3	54	69	358	1.0	356	360	6.8	89.8
2025-10-29T08:52	10	59	3.5	55	66	357	0.3	356	358	6.9	89.4
2025-10-29T08:53	10	66	1.2	64	68	357	0.2	357	358	6.9	90.2
2025-10-29T08:54	10	77	8.6	68	94	358	0.8	357	360	6.9	90.5
2025-10-29T08:55	10	99	1.6	95	101	361	0.6	359	362	6.9	89.9
2025-10-29T08:56	10	99	1.5	96	101	362	0.3	361	363	7.0	88.4
2025-10-29T08:57	10	100	0.9	98	101	363	0.3	362	364	7.2	88.8
2025-10-29T08:58	10	99	4.5	88	103	364	0.3	363	364	7.1	88.2
2025-10-29T08:59	10	75	5.5	69	87	363	1.0	361	365	6.9	89.1
2025-10-29T09:00	10	71	2.5	67	76	361	0.4	360	362	6.9	91.5
2025-10-29T09:01	10	77	3.3	72	83	361	0.3	361	362	7.0	91.8
2025-10-29T09:02	10	94	6.5	83	102	362	0.6	361	363	7.0	91.4
2025-10-29T09:03	10	101	1.6	98	104	364	0.4	363	365	7.1	91.6
2025-10-29T09:04	10	94	4.5	84	99	365	0.3	364	365	7.0	90.6
2025-10-29T09:05	10	66	6.4	60	83	363	1.2	361	365	7.1	90.5
2025-10-29T09:06	10	75	5.8	66	85	363	0.5	362	363	7.3	90.1
2025-10-29T09:07	10	92	4.2	86	100	364	0.6	363	365	7.5	89.7
2025-10-29T09:08	10	91	6.9	82	100	365	0.5	364	366	7.5	89.7
2025-10-29T09:09	10	103	7.2	91	112	366	1.0	365	368	7.5	88.8
2025-10-29T09:10	10	106	0.8	104	107	368	0.4	367	368	7.5	89.0
2025-10-29T09:11	10	106	0.4	105	107	368	0.3	368	369	7.2	89.2
2025-10-29T09:12	10	97	5.3	90	105	368	0.5	367	369	7.1	89.9
2025-10-29T09:13	10	96	2.3	90	99	367	0.3	367	368	7.0	90.3
2025-10-29T09:14	10	98	2.8	94	103	369	0.4	368	370	7.2	90.7
2025-10-29T09:15	10	88	7.2	79	101	369	0.8	367	370	7.2	90.2
2025-10-29T09:16	10	73	2.4	70	79	367	0.7	366	368	7.1	89.7
2025-10-29T09:17	10	67	4.1	59	74	365	0.8	363	367	7.2	90.4
2025-10-29T09:18	10	57	1.0	56	59	363	0.6	362	365	7.0	89.7
2025-10-29T09:19	10	54	1.1	52	56	363	0.4	362	363	7.0	90.5
2025-10-29T09:20	10	51	0.2	51	52	361	0.4	361	362	7.0	90.3
2025-10-29T09:21	10	51	0.5	50	52	361	0.4	360	362	7.1	90.5
2025-10-29T09:22	10	48	1.9	45	51	360	0.4	359	361	7.0	89.8
2025-10-29T09:23	10	43	0.9	42	45	359	0.3	358	360	7.1	90.2
2025-10-29T09:24	10	37	2.7	33	42	357	0.8	356	359	7.1	89.6
2025-10-29T09:25	10	34	1.5	32	37	356	0.4	355	357	7.0	89.4
2025-10-29T09:26	10	39	1.0	37	41	356	0.3	355	357	6.9	89.4
2025-10-29T09:27	10	42	0.8	41	44	356	0.3	356	357	6.9	89.2
2025-10-29T09:28	10	44	0.3	43	44	357	0.4	356	357	7.0	89.2
2025-10-29T09:29	10	45	0.9	44	47	357	0.3	357	358	7.1	89.7
2025-10-29T09:30	10	49	0.8	47	50	358	0.4	357	359	7.1	90.0
2025-10-29T09:31	10	50	0.9	49	51	358	0.4	357	359	7.2	90.3
2025-10-29T09:32	10	46	2.1	44	50	359	0.3	358	359	7.3	90.5
2025-10-29T09:33	10	48	2.3	45	53	358	0.3	357	359	7.1	88.6
2025-10-29T09:34	10	57	2.5	53	60	358	0.3	357	358	7.0	88.7
2025-10-29T09:35	10	57	2.1	52	59	358	0.3	357	358	6.9	89.0
2025-10-29T09:36	10	46	3.2	42	52	357	0.4	356	358	6.9	89.1
2025-10-29T09:37	10	41	0.3	40	42	356	0.2	355	356	7.0	89.2
2025-10-29T09:38	10	45	3.7	41	53	356	0.4	355	357	7.0	89.0
2025-10-29T09:39	10	61	3.3	54	65	358	0.9	356	360	7.1	88.8
2025-10-29T09:40	10	62	2.6	58	65	359	0.4	358	360	7.2	88.5
2025-10-29T09:41	10	63	1.3	61	65	360	0.4	359	361	7.2	88.0
2025-10-29T09:42	10	64	1.2	62	66	361	0.5	360	362	7.2	88.2
2025-10-29T09:43	10	66	1.9	63	69	362	0.4	361	363	7.3	88.9
2025-10-29T09:44	10	80	9.0	68	90	363	0.8	362	365	7.3	88.9
2025-10-29T09:45	10	83	2.5	79	90	364	0.4	364	365	7.4	90.0
2025-10-29T09:46	10	84	5.1	79	98	364	0.4	364	365	7.3	88.7
2025-10-29T09:47	10	108	3.0	99	114	368	1.3	365	370	7.4	89.0
2025-10-29T09:48	10	120	2.1	115	122	370	0.9	369	372	7.6	88.2
2025-10-29T09:49	10	115	2.3	112	120	372	0.3	371	373	7.9	86.9
2025-10-29T09:50	10	116	1.5	112	117	371	0.5	370	372	7.6	87.6
2025-10-29T09:51	10	106	4.5	99	113	370	0.5	369	371	7.5	88.0
2025-10-29T09:52	10	114	0.8	112	116	370	0.4	369	371	7.3	88.7
2025-10-29T09:53	10	108	1.4	107	112	370	0.3	369	371	7.3	89.3
2025-10-29T09:54	10	114	3.6	107	121	371	0.8	370	373	7.3	89.2
2025-10-29T09:55	10	127	2.8	121	131	373	1.0	371	375	7.5	88.9
2025-10-29T09:56	10	113	8.3	102	128	374	1.2	372	375	7.7	89.5
2025-10-29T09:57	10	88	7.5	76	101	371	1.4	369	373	7.6	88.2
2025-10-29T09:58	10	71	2.5	68	76	367	1.1	366	369	7.5	87.8
2025-10-29T09:59	10	64	5.5	54	70	365	0.7	364	367	7.5	88.7
2025-10-29T10:00	10	53	1.0	52	55	363	0.9	362	365	7.4	88.8
2025-10-29T10:01	10	53	1.5	51	55	362	0.7	360	363	7.4	88.9
2025-10-29T10:02	10	53	1.2	50	54	361	0.2	360	361	7.3	88.2
2025-10-29T10:03	10	48	1.1	46	50	360	0.6	359	361	7.3	88.8
2025-10-29T10:04	10	46	0.5	46	48	359	0.3	358	359	7.2	88.5
2025-10-29T10:05	10	49	0.8	48	52	359	0.2	359	360	7.3	88.8
2025-10-29T10:06	10	51	0.9	50	53	360	0.4	359	360	7.4	88.6
2025-10-29T10:07	10	70	15.3	53	98	360	1.2	359	363	7.4	88.4
2025-10-29T10:08	10	105	2.6	98	108	365	1.7	362	367	7.5	88.7
2025-10-29T10:09	10	96	3.9	89	100	367	0.7	366	368	7.6	89.5
2025-10-29T10:10	10	100	1.3	98	102	367	0.2	367	368	7.5	88.1
2025-10-29T10:11	10	86	6.3	80	100	367	0.3	366	367	7.4	88.2
2025-10-29T10:12	10	82	4.4	74	86	367	0.5	366	368	7.5	89.3
2025-10-29T10:13	10	77	1.3	74	79	366	0.4	365	367	7.4	88.2
2025-10-29T10:14	10	84	3.1	80	88	366	0.6	365	367	7.4	88.2
2025-10-29T10:15	10	90	3.6	86	96	367	0.7	366	369	7.5	87.7
2025-10-29T10:16	10	93	3.7	87	98	369	0.4	368	370	7.6	87.8
2025-10-29T10:17	10	86	0.7	84	87	369	0.2	369	370	7.7	87.6
2025-10-29T10:18	10	83	1.7	80	85	369	0.4	368	369	7.8	86.4
2025-10-29T10:19	10	78	0.8	76	80	368	0.3	367	369	7.8	86.0
2025-10-29T10:20	10	74	1.3	73	76	367	0.3	367	368	7.9	85.7
2025-10-29T10:21	10	70	1.8	68	74	367	0.4	366	368	8.2	84.0
2025-10-29T10:22	10	69	0.3	68	69	367	0.2	366	367	8.2	84.3
2025-10-29T10:23	10	71	1.1	69	73	367	0.2	366	367	8.0	84.9
2025-10-29T10:24	10	70	0.9	68	72	367	0.2	367	368	8.1	86.2
2025-10-29T10:25	10	70	1.4	68	72	367	0.5	366	368	8.1	86.4
2025-10-29T10:26	10	70	1.7	66	72	366	0.6	365	367	7.7	86.3
2025-10-29T10:27	10	65	0.5	64	66	364	0.9	363	366	7.7	87.2
2025-10-29T10:28	10	73	2.9	66	78	364	0.4	363	364	7.6	86.9
2025-10-29T10:29	10	83	3.0	78	87	365	0.9	364	367	7.6	86.9
2025-10-29T10:30	10	86	2.7	81	89	367	0.3	366	368	7.7	86.6
2025-10-29T10:31	10	83	1.1	81	84	367	0.4	366	368	7.8	87.0
2025-10-29T10:32	10	83	0.7	82	85	368	0.4	367	368	7.9	85.8
2025-10-29T10:33	10	87	2.6	84	92	369	0.6	368	370	7.9	85.1
2025-10-29T10:34	10	93	0.7	91	94	370	0.4	369	371	7.8	85.7
2025-10-29T10:35	10	87	2.4	83	91	370	0.4	369	371	7.8	84.1
2025-10-29T10:36	10	85	1.9	82	87	370	0.3	369	370	7.8	84.9
2025-10-29T10:37	10	87	1.0	86	89	370	0.3	370	371	7.8	85.0
2025-10-29T10:38	10	85	1.0	83	87	370	0.3	370	371	7.9	84.7
2025-10-29T10:39	10	81	1.1	80	83	370	0.3	370	371	7.9	84.0
2025-10-29T10:40	10	79	0.5	78	80	370	0.2	370	371	8.1	84.9
2025-10-29T10:41	10	80	0.8	78	81	370	0.2	370	371	8.3	84.2
2025-10-29T10:42	10	81	0.7	79	82	370	0.3	370	371	8.2	84.5
2025-10-29T10:43	10	77	1.1	75	79	371	0.5	369	371	8.1	84.0
2025-10-29T10:44	10	76	0.4	75	77	370	0.2	369	370	8.1	83.9
2025-10-29T10:45	10	78	0.4	77	79	370	0.3	370	371	8.1	83.7
2025-10-29T10:46	10	79	0.4	78	80	370	0.2	370	371	8.2	82.7
2025-10-29T10:47	10	79	1.2	76	80	371	0.2	370	371	8.4	83.7
2025-10-29T10:48	10	74	1.4	72	76	370	0.5	369	371	8.4	83.8
2025-10-29T10:49	10	77	0.8	76	78	370	0.3	369	371	8.4	85.1
2025-10-29T10:50	10	74	1.1	73	77	370	0.5	369	371	8.5	85.4
2025-10-29T10:51	10	75	0.8	74	77	370	0.4	369	371	8.4	83.8
2025-10-29T10:52	10	86	4.0	77	90	370	0.4	369	371	8.3	82.1
2025-10-29T10:53	10	89	1.6	86	93	371	0.4	370	372	8.3	82.0
2025-10-29T10:54	10	95	1.5	93	98	371	0.3	371	372	8.4	83.0
2025-10-29T10:55	10	105	3.1	98	108	373	0.9	371	375	8.4	82.2
2025-10-29T10:56	10	102	1.3	100	105	374	0.2	374	375	8.4	82.6
2025-10-29T10:57	10	104	1.4	101	106	375	0.4	374	376	8.5	81.4
2025-10-29T10:58	10	103	3.2	97	107	376	0.2	376	377	8.6	81.7
2025-10-29T10:59	10	98	0.4	98	99	376	0.4	376	377	8.7	81.0
2025-10-29T11:00	10	97	1.6	94	99	376	0.5	375	377	8.9	81.5
2025-10-29T11:01	10	94	0.4	93	95	376	0.2	375	376	8.8	81.4
2025-10-29T11:02	10	92	1.2	89	93	376	0.6	375	377	8.8	82.8
2025-10-29T11:03	10	84	2.2	81	89	374	1.0	372	376	8.7	81.0
2025-10-29T11:04	10	79	1.7	76	81	373	0.3	372	374	8.6	81.0
2025-10-29T11:05	10	73	1.0	72	76	372	0.6	371	373	8.6	81.7
2025-10-29T11:06	10	74	1.9	72	77	371	0.2	371	372	8.5	82.6
2025-10-29T11:07	10	75	1.1	74	77	371	0.3	371	372	8.6	83.1
2025-10-29T11:08	10	73	1.7	70	76	370	0.6	369	372	8.6	83.2
2025-10-29T11:09	10	69	0.5	68	70	369	0.3	369	370	8.5	82.4
2025-10-29T11:10	10	68	0.7	66	69	369	0.2	368	370	8.5	82.7
2025-10-29T11:11	10	66	0.5	65	66	369	0.3	368	370	8.6	82.8
2025-10-29T11:12	10	65	0.2	65	65	369	0.2	368	369	8.5	83.3
2025-10-29T11:13	10	67	1.1	65	68	369	0.5	368	370	8.6	83.3
2025-10-29T11:14	10	66	0.2	66	67	370	0.2	370	370	8.8	83.8
2025-10-29T11:15	10	66	0.2	66	67	370	0.3	369	370	8.8	83.6
2025-10-29T11:16	10	66	0.1	66	66	370	0.3	369	370	8.7	83.5
2025-10-29T11:17	10	66	0.2	65	66	370	0.2	369	371	8.7	83.2
2025-10-29T11:18	10	67	0.9	65	68	370	0.3	370	371	8.8	82.8
2025-10-29T11:19	10	64	1.2	62	66	371	0.2	370	371	8.9	82.6
2025-10-29T11:20	10	62	0.5	62	63	370	0.3	369	370	8.9	83.4
2025-10-29T11:21	10	62	0.2	62	63	369	0.3	369	370	8.8	82.3
2025-10-29T11:22	10	63	0.2	62	63	370	0.3	369	370	8.9	82.0
2025-10-29T11:23	10	63	0.4	61	63	369	0.3	368	370	8.8	82.3
2025-10-29T11:24	10	61	0.3	60	62	369	0.2	368	369	8.8	82.4
2025-10-29T11:25	10	61	0.4	61	62	369	0.3	368	369	8.9	82.1
2025-10-29T11:26	10	64	1.5	62	67	370	0.3	369	370	9.0	82.0
2025-10-29T11:27	10	72	3.2	67	78	371	0.8	369	372	9.0	81.4
2025-10-29T11:28	10	83	4.4	78	98	372	0.5	371	373	9.0	82.4
2025-10-29T11:29	10	100	6.1	88	108	375	0.9	373	376	9.0	81.6
2025-10-29T11:30	10	115	2.1	109	118	378	1.2	375	380	9.1	82.2
2025-10-29T11:31	10	122	1.9	118	124	380	0.8	379	381	9.3	81.7
2025-10-29T11:32	10	117	6.2	101	122	381	0.5	380	382	9.3	81.3
2025-10-29T11:33	10	92	2.8	89	100	378	1.3	376	381	9.2	80.9
2025-10-29T11:34	10	90	0.4	89	91	376	0.5	375	377	9.2	81.1
2025-10-29T11:35	10	92	0.7	91	93	376	0.3	375	376	9.2	80.6
2025-10-29T11:36	10	85	10.5	68	97	375	1.1	373	377	9.3	81.5
2025-10-29T11:37	10	63	2.9	60	68	373	1.0	371	374	9.2	80.9
2025-10-29T11:38	10	57	1.3	55	60	371	0.9	369	372	9.1	81.4
2025-10-29T11:39	10	55	0.2	55	55	369	0.3	369	370	9.1	81.1
2025-10-29T11:40	10	56	0.6	55	57	369	0.3	368	369	9.2	81.9
2025-10-29T11:41	10	57	0.6	57	59	368	0.3	368	369	9.2	81.4
2025-10-29T11:42	10	61	1.7	59	65	369	0.4	368	369	9.1	81.1
2025-10-29T11:43	10	66	0.9	65	68	370	0.3	369	371	9.2	82.2
2025-10-29T11:44	10	65	0.1	64	65	370	0.4	369	371	9.3	82.1
2025-10-29T11:45	10	65	1.4	64	69	370	0.3	369	371	9.2	81.7
2025-10-29T11:46	10	66	2.3	63	70	370	0.3	369	370	9.3	81.9
2025-10-29T11:47	10	63	0.2	63	63	369	0.3	369	370	9.3	80.8
2025-10-29T11:48	10	62	0.4	62	63	370	0.3	369	370	9.2	80.4
2025-10-29T11:49	10	65	2.9	62	72	370	0.5	369	371	9.1	80.4
2025-10-29T11:50	10	81	3.4	73	86	372	0.9	370	373	9.2	80.2
2025-10-29T11:51	10	84	3.4	78	88	373	0.6	372	375	9.2	79.7
2025-10-29T11:52	10	89	2.5	86	93	375	0.5	374	376	9.3	79.6
2025-10-29T11:53	10	89	1.6	87	92	376	0.3	375	376	9.4	79.5
2025-10-29T11:54	10	91	0.8	90	92	376	0.3	376	377	9.5	78.5
2025-10-29T11:55	10	88	1.7	86	92	377	0.2	376	377	9.7	77.4
2025-10-29T11:56	10	93	1.5	89	95	377	0.3	376	378	9.8	77.3
2025-10-29T11:57	10	98	3.7	93	103	378	0.4	377	379	9.9	76.4
2025-10-29T11:58	10	110	4.2	103	115	380	1.0	378	382	10.1	75.5
2025-10-29T11:59	10	112	0.9	111	114	382	0.3	382	383	10.3	77.2
2025-10-29T12:00	10	108	1.3	106	110	383	0.3	382	384	10.4	77.0
2025-10-29T12:01	10	106	1.9	102	108	383	0.3	382	384	10.4	76.7
2025-10-29T12:02	10	96	6.0	87	103	382	0.6	381	383	10.4	76.6
2025-10-29T12:03	10	81	3.3	76	87	380	1.4	377	382	10.2	77.3
2025-10-29T12:04	10	73	2.4	69	76	377	0.6	375	378	10.0	77.5
2025-10-29T12:05	10	64	1.6	63	69	375	0.9	374	377	10.0	78.8
2025-10-29T12:06	10	67	1.5	64	69	374	0.3	373	374	10.1	79.1
2025-10-29T12:07	10	61	2.4	58	66	373	1.0	371	375	10.1	78.5
2025-10-29T12:08	10	60	0.5	59	61	372	0.3	371	373	9.9	77.3
2025-10-29T12:09	10	59	1.1	58	61	372	0.3	372	373	9.9	78.1
2025-10-29T12:10	10	63	1.2	61	66	372	0.3	372	373	9.9	78.0
2025-10-29T12:11	10	70	2.6	67	74	373	0.5	373	375	10.0	77.6
2025-10-29T12:12	10	80	6.3	72	91	375	0.6	373	376	9.9	79.0
2025-10-29T12:13	10	76	3.2	71	80	374	0.4	373	374	9.9	79.6
2025-10-29T12:14	10	68	2.0	66	71	373	0.4	372	373	9.9	80.2
2025-10-29T12:15	10	72	4.2	66	77	372	0.3	371	373	9.9	80.3
2025-10-29T12:16	10	79	4.5	74	88	373	0.6	372	375	9.9	80.4
2025-10-29T12:17	10	92	2.8	87	97	375	1.0	374	377	10.0	80.6
2025-10-29T12:18	10	104	3.9	97	110	377	0.7	376	378	9.9	79.2
2025-10-29T12:19	10	98	3.3	93	104	378	0.5	377	379	9.9	79.0
2025-10-29T12:20	10	98	7.2	83	105	380	0.5	378	380	9.9	79.4
2025-10-29T12:21	10	79	5.9	69	88	379	0.6	377	380	10.1	79.7
2025-10-29T12:22	10	67	2.0	63	69	377	0.7	375	378	10.2	79.1
2025-10-29T12:23	10	66	1.1	63	68	376	0.3	375	377	10.1	78.0
2025-10-29T12:24	10	67	2.3	64	71	375	0.5	374	376	10.1	78.5
2025-10-29T12:25	10	63	0.5	62	64	373	0.5	373	375	10.0	77.5
2025-10-29T12:26	10	59	4.9	52	66	373	0.6	372	374	9.9	77.3
2025-10-29T12:27	10	50	0.9	49	52	372	0.3	371	373	9.9	77.5
2025-10-29T12:28	10	49	0.1	49	49	371	0.3	371	372	10.0	78.0
2025-10-29T12:29	10	48	0.2	48	49	371	0.3	370	371	10.1	77.8
2025-10-29T12:30	10	48	0.1	48	48	370	0.4	370	371	10.1	77.6
2025-10-29T12:31	10	48	0.1	47	48	370	0.2	369	370	10.1	78.0
2025-10-29T12:32	10	47	0.1	47	48	370	0.3	369	370	10.1	77.8
2025-10-29T12:33	10	47	0.2	46	47	369	0.2	368	369	10.1	77.5
2025-10-29T12:34	10	46	0.2	46	46	369	0.4	369	370	10.1	77.9
2025-10-29T12:35	10	45	0.2	45	46	368	0.2	368	369	10.0	78.3
2025-10-29T12:36	10	44	0.2	44	45	368	0.4	367	368	9.9	79.4
2025-10-29T12:37	10	44	0.2	43	44	367	0.2	367	368	9.9	79.3
2025-10-29T12:38	10	43	0.2	42	43	368	0.2	367	368	9.9	80.0
2025-10-29T12:39	10	42	0.2	42	42	367	0.4	366	368	9.9	79.4
2025-10-29T12:40	10	41	0.2	41	42	367	0.3	366	368	9.9	79.6
2025-10-29T12:41	10	41	0.1	41	41	367	0.2	367	368	10.0	79.7
2025-10-29T12:42	10	41	0.1	41	42	367	0.3	366	367	10.0	79.6
2025-10-29T12:43	10	43	1.0	41	45	367	0.3	366	367	9.9	79.6
2025-10-29T12:44	10	48	1.2	45	49	368	0.5	367	369	10.0	80.2
2025-10-29T12:45	10	47	1.4	45	49	368	0.2	367	368	9.9	79.7
2025-10-29T12:46	10	45	0.3	44	45	368	0.2	367	368	10.0	79.8
2025-10-29T12:47	10	44	0.1	44	44	367	0.2	367	368	9.9	79.6
2025-10-29T12:48	10	44	0.2	44	45	367	0.3	366	367	9.8	79.9
2025-10-29T12:49	10	43	1.2	42	45	367	0.2	366	367	9.8	80.2
2025-10-29T12:50	10	41	0.2	41	42	366	0.2	365	366	9.8	80.7
2025-10-29T12:51	10	41	0.1	41	41	365	0.2	365	366	9.8	81.0
2025-10-29T12:52	10	41	0.1	41	41	366	0.2	365	366	9.8	81.2
2025-10-29T12:53	10	41	0.1	41	41	366	0.2	365	366	9.8	80.9
2025-10-29T12:54	10	41	0.2	41	42	366	0.3	365	367	9.9	80.8
2025-10-29T12:55	10	42	0.2	42	42	367	0.3	366	367	9.9	81.0
2025-10-29T12:56	10	42	0.2	42	43	366	0.2	366	367	9.9	81.1
2025-10-29T12:57	10	43	0.1	43	43	367	0.4	366	367	9.8	81.7
2025-10-29T12:58	10	43	0.1	43	43	367	0.2	367	368	9.9	82.0
2025-10-29T12:59	10	43	0.1	43	44	367	0.2	367	368	9.9	81.4
2025-10-29T13:00	10	43	0.1	43	44	367	0.2	366	367	9.9	82.5
2025-10-29T13:01	10	44	0.1	43	44	367	0.2	366	367	9.8	82.7
2025-10-29T13:02	10	44	0.1	43	44	367	0.2	367	368	9.8	83.1
2025-10-29T13:03	10	44	0.1	44	44	367	0.3	366	367	9.6	84.6
2025-10-29T13:04	10	44	0.1	44	44	366	0.3	365	366	9.4	85.4
2025-10-29T13:05	10	44	0.1	44	45	365	0.3	365	366	9.4	85.8
2025-10-29T13:06	10	45	0.2	45	45	366	0.2	365	366	9.4	86.1
2025-10-29T13:07	10	46	0.2	45	46	366	0.3	365	367	9.4	86.0
2025-10-29T13:08	10	46	0.2	46	47	366	0.2	366	367	9.5	86.2
2025-10-29T13:09	10	47	0.2	47	47	367	0.4	366	367	9.6	86.0
2025-10-29T13:10	10	48	0.2	47	48	366	0.6	365	367	9.5	85.3
2025-10-29T13:11	10	48	0.4	48	49	366	0.2	365	366	9.4	85.6
2025-10-29T13:12	10	50	1.2	49	54	366	0.4	365	367	9.3	85.4
2025-10-29T13:13	10	63	3.7	54	69	368	0.8	366	369	9.4	85.6
2025-10-29T13:14	10	75	2.7	69	78	370	1.1	368	372	9.5	85.4
2025-10-29T13:15	10	76	2.2	73	81	372	0.6	371	373	9.5	84.6
2025-10-29T13:16	10	85	2.4	81	90	374	0.6	373	375	9.7	85.1
2025-10-29T13:17	10	84	2.8	80	89	374	0.6	373	375	9.6	84.8
2025-10-29T13:18	10	70	15.2	55	93	373	1.3	371	375	9.6	84.9
2025-10-29T13:19	10	53	0.9	52	55	371	0.4	370	372	9.7	85.7
2025-10-29T13:20	10	51	0.1	51	52	370	0.2	370	371	9.8	85.1
2025-10-29T13:21	10	52	0.3	51	53	369	0.5	369	371	9.7	84.2
2025-10-29T13:22	10	56	2.3	52	59	369	0.2	369	370	9.7	84.5
2025-10-29T13:23	10	55	1.5	52	57	369	0.2	368	369	9.7	84.4
2025-10-29T13:24	10	52	0.1	52	52	369	0.2	369	370	9.7	84.4
2025-10-29T13:25	10	52	0.1	52	52	369	0.2	369	370	9.8	84.5
2025-10-29T13:26	10	52	0.3	52	53	369	0.3	368	370	9.8	84.7
2025-10-29T13:27	10	54	0.5	53	55	369	0.2	368	370	9.8	84.5
2025-10-29T13:28	10	55	0.3	54	56	369	0.3	369	370	9.8	84.0
2025-10-29T13:29	10	53	0.5	53	54	370	0.4	369	371	9.8	84.4
2025-10-29T13:30	10	54	0.3	53	54	370	0.2	370	371	9.9	84.1
2025-10-29T13:31	10	56	2.0	54	61	370	0.3	369	371	9.9	83.8
2025-10-29T13:32	10	68	5.1	58	75	371	0.8	370	372	9.9	83.8
2025-10-29T13:33	10	54	1.6	52	58	371	0.7	370	372	9.9	83.4
2025-10-29T13:34	10	53	0.5	52	54	370	0.3	370	371	9.9	83.4
2025-10-29T13:35	10	56	2.0	54	61	370	0.2	370	371	9.9	83.3
2025-10-29T13:36	10	66	2.3	61	71	371	0.5	370	372	10.0	84.0
2025-10-29T13:37	10	57	6.0	53	71	371	0.7	370	372	10.0	83.5
2025-10-29T13:38	10	50	1.1	49	53	370	0.6	368	371	9.9	83.4
2025-10-29T13:39	10	48	0.5	47	49	369	0.3	368	369	10.0	83.5
2025-10-29T13:40	10	46	0.4	46	47	368	0.3	368	369	9.9	84.3
2025-10-29T13:41	10	45	0.3	45	46	368	0.2	368	369	10.0	84.3
2025-10-29T13:42	10	44	0.1	44	45	368	0.3	367	368	9.9	82.9
2025-10-29T13:43	10	44	0.2	44	44	367	0.2	367	368	9.9	82.7
2025-10-29T13:44	10	44	0.2	44	44	368	0.2	367	368	10.0	83.3
2025-10-29T13:45	10	44	0.1	44	44	368	0.2	367	368	10.1	83.0
2025-10-29T13:46	10	45	0.4	44	46	368	0.3	367	369	10.1	82.8
2025-10-29T13:47	10	46	0.6	46	47	368	0.3	367	368	10.1	80.7
2025-10-29T13:48	10	49	1.4	47	52	368	0.3	368	369	10.1	80.7
2025-10-29T13:49	10	54	1.0	53	56	370	0.4	368	370	10.2	80.5
2025-10-29T13:50	10	54	1.2	51	55	370	0.3	369	371	10.3	80.8
2025-10-29T13:51	10	50	0.5	49	51	370	0.4	369	371	10.3	79.6
2025-10-29T13:52	10	50	0.8	48	51	370	0.2	369	370	10.3	78.6
2025-10-29T13:53	10	49	0.7	48	50	369	0.3	369	370	10.3	78.7
2025-10-29T13:54	10	52	1.2	50	55	370	0.4	369	371	10.4	79.6
2025-10-29T13:55	10	58	2.4	54	61	371	0.4	370	372	10.4	79.1
2025-10-29T13:56	10	63	6.4	53	69	372	0.7	370	373	10.4	80.3
2025-10-29T13:57	10	66	1.9	64	69	372	0.4	371	373	10.3	79.9
2025-10-29T13:58	10	55	6.2	47	64	371	0.8	370	372	10.3	80.2
2025-10-29T13:59	10	46	0.3	46	47	370	0.2	369	370	10.3	80.2
2025-10-29T14:00	10	46	0.1	46	46	370	0.2	369	370	10.3	79.6
2025-10-29T14:01	10	46	0.1	45	46	370	0.4	369	371	10.4	80.4
2025-10-29T14:02	10	45	0.2	45	46	369	0.5	368	370	10.4	79.5
2025-10-29T14:03	10	45	0.2	44	45	369	0.3	368	369	10.3	78.7
2025-10-29T14:04	10	44	0.2	43	44	368	0.2	368	369	10.4	78.9
2025-10-29T14:05	10	43	0.2	43	43	369	0.2	368	369	10.4	79.6
2025-10-29T14:06	10	42	0.3	42	43	369	0.2	368	369	10.5	78.0
2025-10-29T14:07	10	41	0.3	41	42	369	0.2	368	369	10.5	78.5
2025-10-29T14:08	10	40	0.3	40	41	369	0.3	368	369	10.5	78.2
2025-10-29T14:09	10	39	0.3	39	40	369	0.3	368	369	10.5	77.9
2025-10-29T14:10	10	38	0.3	38	39	369	0.3	368	369	10.5	78.1
2025-10-29T14:11	10	37	0.2	37	38	369	0.2	368	369	10.5	77.2
2025-10-29T14:12	10	37	0.2	36	37	369	0.2	368	369	10.6	77.7
2025-10-29T14:13	10	36	0.2	36	36	369	0.2	368	369	10.6	78.2
2025-10-29T14:14	10	36	0.1	35	36	369	0.3	368	369	10.6	78.2
2025-10-29T14:15	10	35	0.1	35	35	369	0.2	368	369	10.6	77.8
2025-10-29T14:16	10	35	0.1	35	35	369	0.3	368	369	10.7	78.6
2025-10-29T14:17	10	34	0.2	34	35	368	0.2	368	369	10.7	77.9
2025-10-29T14:18	10	34	0.2	33	34	368	0.3	368	369	10.7	75.4
2025-10-29T14:19	10	33	0.3	32	33	368	0.2	368	369	10.7	76.0
2025-10-29T14:20	10	32	0.3	32	32	368	0.2	368	369	10.7	76.6
2025-10-29T14:21	10	31	0.3	31	32	368	0.3	367	368	10.7	76.5
2025-10-29T14:22	10	30	0.3	29	31	368	0.3	367	368	10.7	75.8
2025-10-29T14:23	10	29	0.3	28	30	367	0.2	366	368	10.7	76.1
2025-10-29T14:24	10	28	0.3	27	29	367	0.3	366	368	10.7	75.7
2025-10-29T14:25	10	27	0.3	26	28	367	0.3	366	367	10.7	75.8
2025-10-29T14:26	10	26	0.3	26	26	366	0.3	366	367	10.8	76.4
2025-10-29T14:27	10	25	0.2	25	26	366	0.3	365	366	10.8	75.1
2025-10-29T14:28	10	25	0.2	24	25	366	0.3	365	366	10.8	74.2
2025-10-29T14:29	10	24	0.1	24	24	365	0.2	365	366	10.8	75.5
2025-10-29T14:30	10	24	0.1	23	24	365	0.2	365	366	10.8	76.1
2025-10-29T14:31	10	23	0.1	23	24	365	0.3	365	366	10.8	76.8
2025-10-29T14:32	10	23	0.1	23	23	365	0.2	364	366	10.7	76.5
2025-10-29T14:33	10	23	0.1	23	23	365	0.2	364	365	10.7	75.4
2025-10-29T14:34	10	23	0.1	22	23	365	0.2	364	365	10.7	76.3
2025-10-29T14:35	10	22	0.1	22	22	365	0.2	364	365	10.8	76.7
2025-10-29T14:36	10	22	0.1	22	22	365	0.2	364	366	10.8	77.5
2025-10-29T14:37	10	22	0.1	22	22	365	0.2	364	365	10.8	75.9
2025-10-29T14:38	10	22	0.1	22	23	365	0.3	364	366	10.8	75.7
2025-10-29T14:39	10	23	0.1	22	23	365	0.3	365	366	10.8	76.8
2025-10-29T14:40	10	23	0.1	23	23	366	0.3	365	367	10.8	76.5
2025-10-29T14:41	10	23	0.1	23	23	366	0.2	366	367	10.8	76.4
2025-10-29T14:42	10	23	0.1	23	24	366	0.2	366	367	10.9	76.6
2025-10-29T14:43	10	24	0.6	24	26	367	0.3	366	367	10.9	76.8
2025-10-29T14:44	10	36	5.9	26	43	368	0.9	366	369	10.9	77.6
2025-10-29T14:45	10	41	0.8	40	42	369	0.3	368	370	10.9	75.4
2025-10-29T14:46	10	43	0.8	41	44	370	0.3	369	370	10.9	74.3
2025-10-29T14:47	10	37	2.1	34	41	370	0.3	369	370	10.9	74.0
2025-10-29T14:48	10	33	0.7	32	37	369	0.3	368	369	10.9	75.6
2025-10-29T14:49	10	33	0.5	32	34	369	0.2	368	369	10.9	74.8
2025-10-29T14:50	10	34	0.2	33	34	369	0.2	368	369	10.9	74.5
2025-10-29T14:51	10	33	0.3	33	34	369	0.3	368	369	10.9	75.2
2025-10-29T14:52	10	37	1.9	34	40	368	0.2	368	369	10.9	74.5
2025-10-29T14:53	10	40	0.7	38	41	369	0.3	368	369	10.9	74.0
2025-10-29T14:54	10	36	1.5	34	38	368	0.3	367	369	10.9	73.9
2025-10-29T14:55	10	32	0.5	32	34	368	0.3	367	368	11.0	74.8
2025-10-29T14:56	10	35	2.7	32	40	368	0.2	367	368	11.0	75.2
2025-10-29T14:57	10	42	0.6	40	43	368	0.3	368	369	11.0	75.5
2025-10-29T14:58	10	41	0.8	40	42	369	0.2	368	369	11.0	74.0
2025-10-29T14:59	10	39	0.5	38	40	368	0.2	368	369	11.0	73.3
2025-10-29T15:00	10	36	1.3	34	38	368	0.4	367	369	11.0	73.0
2025-10-29T15:01	10	32	0.9	31	34	367	0.3	366	368	11.0	72.7
2025-10-29T15:02	10	30	0.5	29	31	367	0.3	366	367	11.0	72.5
2025-10-29T15:03	10	28	0.6	27	29	366	0.3	366	367	11.0	72.0
2025-10-29T15:04	10	26	1.1	24	27	366	0.3	365	366	11.0	72.6
2025-10-29T15:05	10	23	0.4	22	24	365	0.4	365	366	11.0	73.5
2025-10-29T15:06	10	23	0.1	22	23	365	0.3	364	366	11.0	73.7
2025-10-29T15:07	10	21	0.9	19	22	364	0.4	363	365	11.0	73.7
2025-10-29T15:08	10	18	0.3	18	19	364	0.3	363	364	11.0	72.8
2025-10-29T15:09	10	18	0.1	17	18	363	0.2	363	363	11.0	73.1
2025-10-29T15:10	10	17	0.2	17	17	363	0.2	362	363	11.0	73.7
2025-10-29T15:11	10	17	0.1	17	17	363	0.2	362	363	11.0	74.0
2025-10-29T15:12	10	16	0.2	16	17	363	0.3	362	363	11.0	74.3
2025-10-29T15:13	10	16	0.1	16	16	363	0.3	362	363	11.0	73.3
2025-10-29T15:14	10	16	0.1	15	16	362	0.2	362	363	11.0	74.1
2025-10-29T15:15	10	15	0.1	15	16	362	0.2	362	363	11.0	73.5
2025-10-29T15:16	10	15	0.1	15	15	362	0.2	361	362	11.0	73.4
2025-10-29T15:17	10	15	0.1	14	15	362	0.2	361	362	11.0	73.7
2025-10-29T15:18	10	14	0.2	14	14	362	0.2	361	362	11.0	73.3
2025-10-29T15:19	10	14	0.2	13	14	362	0.3	361	362	11.0	73.6
2025-10-29T15:20	10	13	0.2	13	13	362	0.2	361	362	11.0	73.8
2025-10-29T15:21	10	12	0.2	12	13	362	0.2	361	362	11.0	73.4
2025-10-29T15:22	10	12	0.3	11	12	362	0.2	361	362	11.0	72.9
2025-10-29T15:23	10	11	0.2	10	11	361	0.2	361	362	11.0	72.5
2025-10-29T15:24	10	10	0.2	10	11	361	0.2	361	361	11.0	72.9
2025-10-29T15:25	10	9	0.2	9	10	361	0.3	360	361	11.0	72.7
2025-10-29T15:26	10	9	0.2	8	9	360	0.2	360	361	11.0	72.4
2025-10-29T15:27	10	8	0.1	8	8	360	0.3	359	361	11.0	73.2
2025-10-29T15:28	10	7	0.1	7	8	360	0.2	360	360	10.9	73.7
2025-10-29T15:29	10	7	0.1	7	7	360	0.2	359	360	11.0	73.1
2025-10-29T15:30	10	7	0.1	7	7	360	0.2	359	360	10.9	74.3
2025-10-29T15:31	10	7	0.1	7	7	359	0.3	359	360	10.9	74.3
2025-10-29T15:32	10	7	0.1	6	7	359	0.2	359	360	10.9	74.8
2025-10-29T15:33	10	6	0.1	6	7	359	0.2	359	360	10.8	75.1
2025-10-29T15:34	10	6	0.1	6	7	359	0.2	359	359	10.9	74.8
2025-10-29T15:35	10	6	0.1	6	6	359	0.3	359	360	10.9	75.2
2025-10-29T15:36	10	6	0.1	6	6	359	0.3	358	360	10.9	75.2
2025-10-29T15:37	10	6	0.1	6	6	359	0.2	359	360	10.9	74.9
2025-10-29T15:38	10	6	0.1	6	6	359	0.2	359	359	10.9	74.8
2025-10-29T15:39	10	5	0.1	5	6	359	0.2	358	359	10.9	75.8
2025-10-29T15:40	10	5	0.1	5	5	359	0.2	358	359	10.9	76.5
2025-10-29T15:41	10	5	0.1	5	5	359	0.2	358	359	10.9	76.9
2025-10-29T15:42	10	5	0.1	5	5	359	0.2	358	359	10.8	77.5
2025-10-29T15:43	10	5	0.1	5	5	359	0.2	358	359	10.8	77.7
2025-10-29T15:44	10	5	0.1	5	5	359	0.2	358	359	10.8	78.5
2025-10-29T15:45	10	5	0.1	5	5	358	0.2	358	359	10.7	79.0
2025-10-29T15:46	10	5	0.1	4	5	358	0.2	358	359	10.6	79.5
2025-10-29T15:47	10	4	0.1	4	5	358	0.2	358	359	10.7	79.1
2025-10-29T15:48	10	4	0.0	4	4	359	0.2	358	359	10.7	78.6
2025-10-29T15:49	10	4	0.1	4	4	359	0.2	358	359	10.9	75.4
2025-10-29T15:50	10	4	0.1	4	4	359	0.2	358	359	11.0	74.9
2025-10-29T15:51	10	4	0.1	4	4	358	0.3	358	359	10.9	76.5
2025-10-29T15:52	10	4	0.1	3	4	358	0.2	357	359	10.9	76.8
2025-10-29T15:53	10	3	0.1	3	4	358	0.2	358	359	10.9	76.0
2025-10-29T15:54	10	3	0.1	3	3	358	0.2	358	359	10.9	75.5
2025-10-29T15:55	10	3	0.1	3	3	358	0.2	358	358	11.0	74.1
2025-10-29T15:56	10	3	0.1	3	3	358	0.2	358	359	11.0	74.1
2025-10-29T15:57	10	3	0.1	2	3	358	0.2	357	358	11.0	74.5
2025-10-29T15:58	10	3	0.1	2	3	358	0.2	357	358	10.9	76.1
2025-10-29T15:59	10	2	0.1	2	3	358	0.2	357	358	10.8	77.1
2025-10-29T16:00	10	2	0.1	2	2	358	0.2	357	358	10.8	76.7
2025-10-29T16:01	10	2	0.0	2	2	358	0.3	357	358	10.8	76.2
2025-10-29T16:02	10	2	0.1	2	3	358	0.2	357	358	10.8	77.3
2025-10-29T16:03	10	2	0.1	2	2	357	0.2	357	358	10.8	78.5
2025-10-29T16:04	10	2	0.1	2	2	357	0.2	357	358	10.7	79.8
2025-10-29T16:05	10	2	0.1	2	2	357	0.2	357	358	10.7	79.6
2025-10-29T16:06	10	2	0.1	2	2	357	0.1	357	357	10.7	79.3
2025-10-29T16:07	10	2	0.1	1	2	357	0.2	356	357	10.7	79.5
2025-10-29T16:08	10	2	0.1	1	2	356	0.2	356	357	10.6	79.7
2025-10-29T16:09	10	2	0.1	1	2	356	0.2	356	357	10.6	80.0
2025-10-29T16:10	10	2	0.1	1	2	356	0.2	356	357	10.6	80.0
2025-10-29T16:11	10	2	0.1	1	2	356	0.3	355	356	10.6	80.5
2025-10-29T16:12	10	1	0.1	1	2	355	0.3	354	356	10.5	81.8
2025-10-29T16:13	10	1	0.1	1	1	355	0.2	355	355	10.5	82.3
2025-10-29T16:14	10	1	0.1	1	1	354	0.2	354	355	10.5	82.2
2025-10-29T16:15	10	1	0.1	1	1	354	0.2	354	355	10.5	82.1
2025-10-29T16:16	10	1	0.1	1	1	354	0.2	354	354	10.4	82.7
2025-10-29T16:17	10	1	0.1	1	1	354	0.2	353	354	10.4	83.2
2025-10-29T16:18	10	1	0.1	1	1	353	0.2	353	354	10.4	83.0
2025-10-29T16:19	10	1	0.1	0	1	353	0.2	353	354	10.4	83.4
2025-10-29T16:20	10	1	0.1	0	1	353	0.2	353	354	10.4	83.8
2025-10-29T16:21	10	1	0.1	0	1	353	0.2	352	354	10.4	84.1
2025-10-29T16:22	10	0	0.1	0	1	353	0.2	352	353	10.4	84.3
2025-10-29T16:23	10	1	0.1	0	1	353	0.2	352	353	10.4	84.6
2025-10-29T16:24	10	0	0.1	0	1	352	0.2	352	353	10.4	84.6
2025-10-29T16:25	10	0	0.1	0	1	352	0.2	352	352	10.3	84.3
2025-10-29T16:26	10	0	0.1	0	1	352	0.2	351	352	10.3	84.3
2025-10-29T16:27	10	0	0.1	0	1	352	0.2	351	352	10.3	84.6
2025-10-29T16:28	10	0	0.1	0	1	352	0.3	351	352	10.3	84.7
2025-10-29T16:29	10	0	0.1	0	1	352	0.2	352	353	10.3	85.1
2025-10-29T16:30	10	0	0.1	0	1	353	0.4	352	354	10.3	84.7
2025-10-29T16:31	10	0	0.1	0	1	353	0.3	352	353	10.3	85.0
2025-10-29T16:32	10	0	0.2	0	1	352	0.3	352	353	10.3	85.6
2025-10-29T16:33	10	0	0.2	0	1	352	0.2	352	353	10.2	85.8
2025-10-29T16:34	10	0	0.1	0	1	352	0.2	352	352	10.2	85.8
2025-10-29T16:35	10	0	0.1	0	1	352	0.2	351	352	10.2	85.7
2025-10-29T16:36	10	0	0.1	0	1	352	0.3	351	352	10.2	85.5
2025-10-29T16:37	10	0	0.1	0	1	351	0.2	351	351	10.2	85.7
2025-10-29T16:38	10	0	0.1	0	1	351	0.2	350	352	10.2	86.1
2025-10-29T16:39	10	0	0.2	0	1	351	0.2	351	352	10.2	86.0
2025-10-29T16:40	10	0	0.1	0	0	351	0.4	350	352	10.1	86.3
2025-10-29T16:41	10	0	0.2	0	1	352	0.2	351	352	10.1	86.3
2025-10-29T16:42	10	0	0.1	0	1	351	0.3	351	352	10.1	86.2
2025-10-29T16:43	10	0	0.1	0	1	351	0.3	350	351	10.1	86.1
2025-10-29T16:44	10	0	0.1	0	0	351	0.2	350	351	10.1	86.2
2025-10-29T16:45	10	0	0.1	0	1	350	0.3	349	351	10.0	86.2
2025-10-29T16:46	10	0	0.1	0	0	350	0.2	349	351	10.0	86.3
2025-10-29T16:47	10	0	0.1	0	1	350	0.2	350	351	9.9	86.6
2025-10-29T16:48	10	0	0.1	0	1	350	0.2	350	351	9.9	86.8
2025-10-29T16:49	10	0	0.1	0	1	350	0.3	350	351	9.9	87.0
2025-10-29T16:50	10	0	0.1	0	0	350	0.2	350	351	9.8	87.4
2025-10-29T16:51	10	0	0.1	0	0	351	0.2	350	351	9.7	88.0
2025-10-29T16:52	10	0	0.1	0	0	351	0.2	351	352	9.7	88.4
2025-10-29T16:53	10	0	0.1	0	0	351	0.3	351	352	9.7	88.3
2025-10-29T16:54	10	0	0.1	0	0	352	0.3	351	352	9.7	88.0
2025-10-29T16:55	10	0	0.1	0	0	352	0.3	352	353	9.7	87.4
2025-10-29T16:56	10	0	0.1	0	0	353	0.3	352	353	9.8	87.2
2025-10-29T16:57	10	0	0.1	0	0	353	0.2	353	354	9.8	86.9
2025-10-29T16:58	10	0	0.1	0	0	353	0.2	353	354	9.9	86.1
2025-10-29T16:59	10	0	0.1	0	0	353	0.2	353	354	10.0	85.6
2025-10-29T17:00	10	0	0.1	0	0	353	0.2	353	354	10.1	85.2
2025-10-29T17:01	10	0	0.1	0	0	353	0.2	353	354	10.1	85.3
2025-10-29T17:02	10	0	0.1	0	0	353	0.3	353	354	10.1	85.3
2025-10-29T17:03	10	0	0.1	0	0	353	0.2	353	354	10.1	85.6
2025-10-29T17:04	10	0	0.1	0	0	353	0.2	353	354	10.1	86.0
2025-10-29T17:05	10	0	0.1	0	0	353	0.2	353	354	10.1	86.0
2025-10-29T17:06	10	0	0.1	0	1	353	0.2	353	354	10.1	85.9
2025-10-29T17:07	10	0	0.1	0	0	353	0.2	353	353	10.1	85.9
2025-10-29T17:08	10	0	0.1	0	0	353	0.2	352	353	10.1	86.0
2025-10-29T17:09	10	0	0.1	0	0	353	0.2	352	353	10.1	86.0
2025-10-29T17:10	10	0	0.1	0	0	353	0.2	353	354	10.1	85.5
2025-10-29T17:11	10	0	0.1	0	0	354	0.3	353	354	10.1	85.3
2025-10-29T17:12	10	0	0.1	0	0	354	0.3	353	355	10.0	86.0
2025-10-29T17:13	10	0	0.1	0	0	354	0.3	354	355	10.0	86.3
2025-10-29T17:14	10	0	0.1	0	0	354	0.2	354	355	9.9	86.8
2025-10-29T17:15	10	0	0.1	0	0	354	0.3	353	355	9.8	87.9
2025-10-29T17:16	10	0	0.1	0	0	354	0.2	353	354	9.7	88.6
2025-10-29T17:17	10	0	0.1	0	0	354	0.3	353	354	9.8	88.0
2025-10-29T17:18	10	0	0.1	0	0	353	0.2	353	354	9.7	88.3
2025-10-29T17:19	10	0	0.1	0	0	353	0.2	353	354	9.7	88.4
2025-10-29T17:20	10	0	0.1	0	0	353	0.2	352	354	9.7	88.0
2025-10-29T17:21	10	0	0.1	0	0	353	0.2	353	353	9.7	88.0
2025-10-29T17:22	10	0	0.1	0	0	353	0.2	352	353	9.7	88.2
2025-10-29T17:23	10	0	0.1	0	0	353	0.3	352	353	9.6	88.8
2025-10-29T17:24	10	0	0.1	0	0	353	0.2	352	353	9.6	88.9
2025-10-29T17:25	10	0	0.1	0	0	353	0.2	352	353	9.6	88.7
2025-10-29T17:26	10	0	0.1	0	0	353	0.2	353	353	9.6	88.9
2025-10-29T17:27	10	0	0.1	0	0	353	0.2	353	353	9.6	88.7
2025-10-29T17:28	10	0	0.1	0	0	353	0.2	352	353	9.6	88.1
2025-10-29T17:29	10	0	0.0	0	0	353	0.3	352	353	9.6	88.4
2025-10-29T17:30	10	0	0.1	0	0	353	0.2	352	353	9.6	88.7
2025-10-29T17:31	10	0	0.1	0	0	353	0.2	352	353	9.6	89.2
2025-10-29T17:32	10	0	0.0	0	0	353	0.2	352	353	9.5	89.8
2025-10-29T17:33	10	0	0.1	0	0	353	0.2	352	353	9.5	90.0
2025-10-29T17:34	10	0	0.1	0	0	353	0.2	352	353	9.5	90.4
2025-10-29T17:35	10	0	0.1	0	0	353	0.2	352	354	9.4	90.9
2025-10-29T17:36	10	0	0.1	0	0	353	0.2	352	353	9.4	90.8
2025-10-29T17:37	10	0	0.1	0	0	353	0.2	352	353	9.4	90.8
2025-10-29T17:38	10	0	0.1	0	0	353	0.2	352	353	9.4	90.7
2025-10-29T17:39	10	0	0.1	0	0	353	0.2	352	353	9.4	90.9
2025-10-29T17:40	10	0	0.1	0	0	353	0.2	353	354	9.3	90.9
2025-10-29T17:41	10	0	0.1	0	0	353	0.3	353	354	9.3	91.1
2025-10-29T17:42	10	0	0.1	0	0	353	0.2	353	354	9.4	89.9
2025-10-29T17:43	10	0	0.1	0	0	354	0.2	353	354	9.4	90.3
2025-10-29T17:44	10	0	0.1	0	0	353	0.3	353	354	9.4	90.2
2025-10-29T17:45	10	0	0.1	0	0	353	0.3	353	354	9.4	90.2
2025-10-29T17:46	10	0	0.1	0	0	353	0.2	353	354	9.4	90.2
2025-10-29T17:47	10	0	0.1	0	0	353	0.2	353	354	9.4	90.2
2025-10-29T17:48	10	0	0.1	0	0	353	0.2	353	354	9.4	89.9
2025-10-29T17:49	10	0	0.1	0	0	353	0.2	353	354	9.4	89.2
2025-10-29T17:50	10	0	0.1	0	0	354	0.2	353	354	9.4	88.9
2025-10-29T17:51	10	0	0.1	0	0	354	0.2	353	354	9.4	89.0
2025-10-29T17:52	10	0	0.0	0	0	353	0.2	353	354	9.4	89.5
2025-10-29T17:53	10	0	0.1	0	0	353	0.2	353	354	9.4	89.6
2025-10-29T17:54	10	0	0.1	0	0	353	0.2	353	354	9.4	89.7
2025-10-29T17:55	10	0	0.1	0	0	353	0.3	353	354	9.3	89.9
2025-10-29T17:56	10	0	0.1	0	0	354	0.2	353	354	9.3	89.8
2025-10-29T17:57	10	0	0.1	0	0	354	0.2	353	354	9.3	89.8
2025-10-29T17:58	10	0	0.1	0	0	353	0.2	353	354	9.2	90.7
2025-10-29T17:59	10	0	0.1	0	0	354	0.3	353	354	9.2	91.0
2025-10-29T18:00	10	0	0.1	0	0	354	0.2	353	354	9.2	91.0
2025-10-29T18:01	10	0	0.1	0	0	354	0.2	353	354	9.2	90.8
2025-10-29T18:02	10	0	0.1	0	0	354	0.2	353	354	9.3	90.3
2025-10-29T18:03	10	0	0.1	0	0	354	0.2	354	354	9.3	90.0
2025-10-29T18:04	10	0	0.1	0	0	354	0.3	353	354	9.3	89.6
2025-10-29T18:05	10	0	0.1	0	0	354	0.2	353	354	9.3	89.9
2025-10-29T18:06	10	0	0.1	0	0	354	0.2	353	354	9.3	90.5
2025-10-29T18:07	10	0	0.1	0	0	354	0.2	353	354	9.2	90.7
2025-10-29T18:08	10	0	0.1	0	0	354	0.2	353	354	9.2	90.5
2025-10-29T18:09	10	0	0.1	0	0	354	0.2	353	354	9.2	90.5
2025-10-29T18:10	10	0	0.1	0	0	354	0.2	353	354	9.2	90.3
2025-10-29T18:11	10	0	0.1	0	0	354	0.2	353	354	9.2	90.4
2025-10-29T18:12	10	0	0.1	0	0	354	0.2	353	354	9.2	91.2
2025-10-29T18:13	10	0	0.1	0	0	354	0.3	353	354	9.2	90.9
2025-10-29T18:14	10	0	0.1	0	0	354	0.2	353	354	9.2	90.6
2025-10-29T18:15	10	0	0.1	0	0	354	0.2	354	354	9.2	90.7
2025-10-29T18:16	10	0	0.1	0	0	354	0.2	353	354	9.3	90.1
2025-10-29T18:17	10	0	0.1	0	0	354	0.2	354	355	9.3	90.1
2025-10-29T18:18	10	0	0.1	0	0	354	0.2	354	354	9.3	90.4
2025-10-29T18:19	10	0	0.1	0	0	354	0.2	354	355	9.3	90.3
2025-10-29T18:20	10	0	0.1	0	0	354	0.2	354	354	9.3	90.5
2025-10-29T18:21	10	0	0.1	0	0	354	0.2	354	355	9.3	90.3
2025-10-29T18:22	10	0	0.1	0	0	354	0.2	353	354	9.3	90.3
2025-10-29T18:23	10	0	0.1	0	0	354	0.2	354	355	9.3	90.6
2025-10-29T18:24	10	0	0.1	0	0	354	0.2	353	355	9.3	91.3
2025-10-29T18:25	10	0	0.1	0	0	354	0.2	353	354	9.3	91.6
2025-10-29T18:26	10	0	0.1	0	0	354	0.2	353	355	9.2	91.9
2025-10-29T18:27	10	0	0.1	0	0	354	0.3	353	354	9.2	92.3
2025-10-29T18:28	10	0	0.1	0	0	354	0.3	353	354	9.2	92.3
2025-10-29T18:29	10	0	0.1	0	0	353	0.3	353	354	9.1	93.2
2025-10-29T18:30	10	0	0.1	0	0	354	0.2	353	354	9.1	94.1
2025-10-29T18:31	10	0	0.1	0	0	354	0.3	353	354	9.1	93.8
2025-10-29T18:32	10	0	0.1	0	0	354	0.2	353	354	9.1	93.5
2025-10-29T18:33	10	0	0.1	0	0	354	0.3	353	354	9.1	93.3
2025-10-29T18:34	10	0	0.1	0	0	353	0.2	353	354	9.0	93.8
2025-10-29T18:35	10	0	0.1	0	0	353	0.2	353	354	9.0	93.9
2025-10-29T18:36	10	0	0.1	0	0	353	0.2	353	354	8.9	94.2
2025-10-29T18:37	10	0	0.1	0	0	353	0.2	353	354	8.9	94.4
2025-10-29T18:38	10	0	0.1	0	0	354	0.2	353	354	8.9	94.3
2025-10-29T18:39	10	0	0.1	0	0	354	0.2	353	354	8.9	94.3
2025-10-29T18:40	10	0	0.1	0	0	354	0.2	353	354	8.9	94.3
2025-10-29T18:41	10	0	0.1	0	0	354	0.2	353	354	8.9	94.3
2025-10-29T18:42	10	0	0.1	0	0	354	0.2	353	354	8.9	94.3
2025-10-29T18:43	10	0	0.1	0	0	353	0.2	353	354	8.9	94.3
2025-10-29T18:44	10	0	0.1	0	0	353	0.2	353	354	8.9	94.3
2025-10-29T18:45	10	0	0.1	0	0	353	0.3	353	354	8.9	94.3
2025-10-29T18:46	10	0	0.1	0	0	353	0.2	352	354	9.0	92.7
2025-10-29T18:47	10	0	0.1	0	0	353	0.2	353	354	8.9	92.8
2025-10-29T18:48	10	0	0.1	0	0	353	0.3	353	354	8.9	94.3
2025-10-29T18:49	10	0	0.1	0	0	353	0.2	353	354	8.9	94.1
2025-10-29T18:50	10	0	0.1	0	0	353	0.2	353	354	9.0	93.9
2025-10-29T18:51	10	0	0.1	0	0	353	0.2	353	353	8.9	94.8
2025-10-29T18:52	10	0	0.1	0	0	353	0.2	352	353	8.9	95.4
2025-10-29T18:53	10	0	0.1	0	0	353	0.2	353	353	8.8	95.8
2025-10-29T18:54	10	0	0.1	0	0	353	0.2	353	354	8.8	96.3
2025-10-29T18:55	10	0	0.1	0	0	353	0.3	352	353	8.8	96.7
2025-10-29T18:56	10	0	0.1	0	0	353	0.3	352	354	8.8	97.2
2025-10-29T18:57	10	0	0.1	0	0	353	0.3	353	354	8.8	97.4
2025-10-29T18:58	10	0	0.1	0	0	353	0.2	353	354	8.8	96.5
2025-10-29T18:59	10	0	0.1	0	0	353	0.2	353	354	8.9	95.6
2025-10-29T19:00	10	0	0.1	0	0	353	0.2	353	354	8.9	95.5
2025-10-29T19:01	10	0	0.1	0	0	353	0.3	352	354	8.9	94.8
2025-10-29T19:02	10	0	0.1	0	0	353	0.2	352	353	8.9	95.3
2025-10-29T19:03	10	0	0.1	0	0	353	0.2	352	353	8.8	96.7
2025-10-29T19:04	10	0	0.1	0	0	353	0.2	352	353	8.7	97.0
2025-10-29T19:05	10	0	0.1	0	0	353	0.3	352	354	8.7	97.3
2025-10-29T19:06	10	0	0.1	0	0	353	0.2	352	353	8.7	97.1
2025-10-29T19:07	10	0	0.1	0	0	353	0.2	353	353	8.7	97.0
2025-10-29T19:08	10	0	0.1	0	0	353	0.2	352	353	8.7	97.1
2025-10-29T19:09	10	0	0.1	0	0	353	0.2	353	353	8.7	97.0
2025-10-29T19:10	10	0	0.1	0	0	353	0.2	352	353	8.7	97.1
2025-10-29T19:11	10	0	0.1	0	0	353	0.2	352	353	8.7	97.4
2025-10-29T19:12	10	0	0.1	0	0	353	0.2	353	353	8.7	97.6
2025-10-29T19:13	10	0	0.1	0	0	353	0.2	352	353	8.7	97.8
2025-10-29T19:14	10	0	0.1	0	0	353	0.2	352	353	8.6	98.2
2025-10-29T19:15	10	0	0.1	0	0	353	0.2	352	353	8.6	98.2
2025-10-29T19:16	10	0	0.1	0	0	353	0.2	352	353	8.6	97.9
2025-10-29T19:17	10	0	0.1	0	0	353	0.2	352	353	8.6	98.1
2025-10-29T19:18	10	0	0.6	0	4	353	0.2	352	353	8.6	98.2
2025-10-29T19:19	10	0	0.1	0	0	353	0.2	352	353	8.6	98.0
2025-10-29T19:20	10	0	0.1	0	0	353	0.3	352	353	8.7	97.6
2025-10-29T19:21	10	0	0.1	0	0	353	0.2	352	353	8.7	97.4
2025-10-29T19:22	10	0	0.0	0	0	353	0.2	352	353	8.7	97.4
2025-10-29T19:23	10	0	0.1	0	0	353	0.2	352	353	8.7	97.8
2025-10-29T19:24	10	0	0.1	0	0	353	0.2	352	353	8.7	98.2
2025-10-29T19:25	10	0	0.1	0	0	353	0.2	352	353	8.7	97.8
2025-10-29T19:26	10	0	0.1	0	0	353	0.2	352	353	8.7	98.3
2025-10-29T19:27	10	0	0.1	0	0	353	0.3	352	353	8.6	98.1
2025-10-29T19:28	10	0	0.1	0	0	353	0.2	352	353	8.6	97.6
2025-10-29T19:29	10	0	0.1	0	0	353	0.2	352	353	8.6	97.5
2025-10-29T19:30	10	0	0.1	0	0	353	0.2	352	353	8.6	97.7
2025-10-29T19:31	10	0	0.1	0	0	353	0.2	352	353	8.6	98.3
2025-10-29T19:32	10	0	0.1	0	0	352	0.2	352	353	8.6	98.5
2025-10-29T19:33	10	0	0.1	0	0	353	0.2	352	353	8.6	98.6
2025-10-29T19:34	10	0	0.1	0	0	353	0.2	352	353	8.6	98.3
2025-10-29T19:35	10	0	0.1	0	0	353	0.3	352	353	8.6	97.3
2025-10-29T19:36	10	0	0.1	0	0	353	0.2	352	353	8.6	97.2
2025-10-29T19:37	10	0	0.1	0	0	353	0.2	352	353	8.7	97.4
2025-10-29T19:38	10	0	0.1	0	0	352	0.2	352	353	8.7	97.5
2025-10-29T19:39	10	0	0.1	0	0	352	0.2	352	353	8.6	97.8
2025-10-29T19:40	10	0	0.1	0	0	352	0.2	352	353	8.6	98.0
2025-10-29T19:41	10	0	0.0	0	0	352	0.2	352	353	8.6	97.6
2025-10-29T19:42	10	0	0.1	0	0	352	0.2	352	353	8.6	97.3
2025-10-29T19:43	10	0	0.1	0	0	352	0.2	352	353	8.6	97.3
2025-10-29T19:44	10	0	0.1	0	0	353	0.2	352	353	8.6	97.5
2025-10-29T19:45	10	0	0.1	0	0	353	0.2	352	353	8.6	97.3
2025-10-29T19:46	10	0	0.1	0	0	353	0.2	352	353	8.7	96.3
2025-10-29T19:47	10	0	0.1	0	0	353	0.2	352	353	8.7	95.7
2025-10-29T19:48	10	0	0.1	0	0	353	0.2	352	353	8.8	95.2
2025-10-29T19:49	10	0	0.1	0	0	353	0.3	352	353	8.8	95.3
2025-10-29T19:50	10	0	0.1	0	0	353	0.2	352	353	8.8	95.9
2025-10-29T19:51	10	0	0.1	0	0	353	0.2	352	353	8.8	96.2
2025-10-29T19:52	10	0	0.1	0	0	353	0.3	352	353	8.8	96.2
2025-10-29T19:53	10	0	0.1	0	0	352	0.2	352	353	8.8	96.6
2025-10-29T19:54	10	0	0.1	0	0	353	0.2	352	353	8.8	96.4
2025-10-29T19:55	10	0	0.1	0	0	352	0.2	352	353	8.8	96.5
2025-10-29T19:56	10	0	0.1	0	0	353	0.2	352	353	8.8	96.7
2025-10-29T19:57	10	0	0.1	0	0	352	0.3	352	353	8.8	96.9
2025-10-29T19:58	10	0	0.1	0	0	353	0.2	352	353	8.8	96.8
2025-10-29T19:59	10	0	0.1	0	0	352	0.2	352	353	8.8	96.5
2025-10-29T20:00	10	0	0.1	0	0	353	0.2	352	353	8.8	96.5
2025-10-29T20:01	10	0	0.1	0	0	353	0.2	352	353	8.8	96.4
2025-10-29T20:02	10	0	0.0	0	0	353	0.2	352	353	8.8	96.5
2025-10-29T20:03	10	0	0.1	0	0	353	0.2	352	353	8.8	96.5
2025-10-29T20:04	10	0	0.1	0	0	352	0.3	352	353	8.7	97.0
2025-10-29T20:05	10	0	0.1	0	0	352	0.2	352	353	8.7	97.7
2025-10-29T20:06	10	0	0.1	0	0	353	0.2	352	353	8.6	98.5
2025-10-29T20:07	10	0	0.1	0	0	352	0.2	352	353	8.5	99.3
2025-10-29T20:08	10	0	0.1	0	0	352	0.2	352	352	8.5	99.6
2025-10-29T20:09	10	0	0.1	0	0	352	0.2	352	353	8.5	99.6
2025-10-29T20:10	10	0	0.0	0	0	352	0.2	352	353	8.5	99.6
2025-10-29T20:11	10	0	0.1	0	0	352	0.2	352	353	8.5	99.6
2025-10-29T20:12	10	0	0.1	0	0	352	0.2	352	353	8.5	99.5
2025-10-29T20:13	10	0	0.1	0	0	352	0.2	352	353	8.5	99.7
2025-10-29T20:14	10	0	0.1	0	0	352	0.2	352	353	8.5	99.9
2025-10-29T20:15	10	0	0.1	0	0	352	0.2	352	353	8.5	100.2
2025-10-29T20:16	10	0	0.1	0	0	352	0.2	352	353	8.5	100.7
2025-10-29T20:17	10	0	0.1	0	0	352	0.2	352	352	8.5	100.4
2025-10-29T20:18	10	0	0.1	0	0	352	0.3	351	353	8.5	100.3
2025-10-29T20:19	10	0	0.1	0	0	352	0.2	352	353	8.5	100.1
2025-10-29T20:20	10	0	0.1	0	0	352	0.2	351	352	8.5	99.9
2025-10-29T20:21	10	0	0.1	0	0	352	0.3	352	353	8.5	100.0
2025-10-29T20:22	10	0	0.1	0	0	352	0.2	352	353	8.5	100.3
2025-10-29T20:23	10	0	0.1	0	0	352	0.2	352	353	8.5	99.9
2025-10-29T20:24	10	0	0.1	0	0	352	0.2	352	353	8.5	99.6
2025-10-29T20:25	10	0	0.1	0	0	352	0.2	352	353	8.5	99.7
2025-10-29T20:26	10	0	0.4	0	3	352	0.3	352	353	8.5	99.8
2025-10-29T20:27	10	0	0.1	0	0	353	0.2	352	353	8.5	99.8
2025-10-29T20:28	10	0	0.1	0	0	352	0.3	352	353	8.5	100.1
2025-10-29T20:29	10	0	0.1	0	0	352	0.2	352	353	8.5	100.1
2025-10-29T20:30	10	0	0.1	0	0	352	0.2	352	353	8.5	99.9
2025-10-29T20:31	10	0	0.1	0	0	352	0.3	352	353	8.5	99.9
2025-10-29T20:32	10	0	0.1	0	0	353	0.2	352	353	8.5	99.4
2025-10-29T20:33	10	0	0.1	0	0	352	0.2	352	353	8.5	99.1
2025-10-29T20:34	10	0	0.1	0	0	352	0.2	352	353	8.6	99.1
2025-10-29T20:35	10	0	0.1	0	0	353	0.2	352	353	8.6	99.1
2025-10-29T20:36	10	0	0.1	0	0	352	0.2	352	353	8.6	99.1
2025-10-29T20:37	10	0	0.1	0	0	353	0.2	352	353	8.6	99.2
2025-10-29T20:38	10	0	0.1	0	1	352	0.2	352	353	8.6	99.2
2025-10-29T20:39	10	0	0.1	0	0	352	0.2	352	353	8.6	99.3
2025-10-29T20:40	10	0	0.1	0	0	352	0.2	352	353	8.6	99.2
2025-10-29T20:41	10	0	0.1	0	0	352	0.2	352	353	8.6	99.4
2025-10-29T20:42	10	0	0.1	0	0	352	0.2	352	353	8.6	99.4
2025-10-29T20:43	10	0	0.1	0	1	352	0.2	352	353	8.6	99.1
2025-10-29T20:44	10	0	0.1	0	0	352	0.3	352	353	8.6	99.1
2025-10-29T20:45	10	0	0.1	0	0	352	0.2	352	353	8.6	99.0
2025-10-29T20:46	10	0	0.1	0	0	352	0.3	352	353	8.6	99.0
2025-10-29T20:47	10	0	0.1	0	0	352	0.2	352	353	8.6	99.2
2025-10-29T20:48	10	0	0.2	0	0	352	0.3	352	353	8.6	99.4
2025-10-29T20:49	10	0	0.1	0	0	352	0.2	352	353	8.6	99.2
2025-10-29T20:50	10	0	0.1	0	0	352	0.3	352	353	8.6	99.0
2025-10-29T20:51	10	0	0.1	0	0	352	0.3	352	353	8.6	98.5
2025-10-29T20:52	10	0	0.1	0	0	352	0.2	352	353	8.6	98.3
2025-10-29T20:53	10	0	0.1	0	0	352	0.3	352	353	8.6	98.4
2025-10-29T20:54	10	0	0.1	0	0	352	0.3	352	353	8.6	98.2
2025-10-29T20:55	10	0	0.1	0	0	352	0.3	352	353	8.7	97.8
2025-10-29T20:56	10	0	0.1	0	0	352	0.3	352	353	8.7	97.9
2025-10-29T20:57	10	0	0.1	0	0	352	0.3	352	353	8.7	97.9
2025-10-29T20:58	10	0	0.1	0	1	353	0.3	352	353	8.7	98.0
2025-10-29T20:59	10	0	0.1	0	0	352	0.2	352	353	8.7	98.2
2025-10-29T21:00	10	0	0.1	0	0	352	0.2	352	353	8.6	98.4
2025-10-29T21:01	10	0	0.1	0	0	352	0.3	352	353	8.6	98.6
2025-10-29T21:02	10	0	0.1	0	0	353	0.2	352	353	8.6	98.3
2025-10-29T21:03	10	0	0.1	0	0	352	0.3	352	353	8.6	98.3
2025-10-29T21:04	10	0	0.2	0	0	352	0.3	352	353	8.6	98.6
2025-10-29T21:05	10	0	0.2	-1	0	352	0.2	351	353	8.6	98.8
2025-10-29T21:06	10	0	0.2	0	1	352	0.3	352	353	8.6	98.8
2025-10-29T21:07	10	0	0.1	0	0	352	0.3	351	353	8.6	98.9
2025-10-29T21:08	10	0	0.1	0	0	352	0.3	351	353	8.6	99.0
2025-10-29T21:09	10	0	0.1	0	0	352	0.3	352	353	8.6	99.2
2025-10-29T21:10	10	0	0.2	0	1	352	0.3	352	353	8.6	99.2
2025-10-29T21:11	10	0	0.1	0	0	353	0.2	352	353	8.6	99.1
2025-10-29T21:12	10	0	0.1	0	0	352	0.3	352	353	8.6	99.3
2025-10-29T21:13	10	0	0.2	0	0	352	0.3	352	353	8.6	99.2
2025-10-29T21:14	10	0	0.1	0	0	352	0.2	352	353	8.6	99.1
2025-10-29T21:15	10	0	0.2	0	1	353	0.2	352	353	8.6	99.5
2025-10-29T21:16	10	0	0.1	0	0	352	0.2	352	353	8.6	99.5
2025-10-29T21:17	10	0	0.1	0	0	352	0.3	352	353	8.6	99.4
2025-10-29T21:18	10	0	0.1	0	0	353	0.3	352	353	8.7	98.8
2025-10-29T21:19	10	0	0.1	0	1	353	0.2	352	353	8.7	98.6
2025-10-29T21:20	10	0	0.2	0	1	353	0.3	352	353	8.8	98.3
2025-10-29T21:21	10	0	0.1	0	1	353	0.2	352	354	8.8	98.1
2025-10-29T21:22	10	0	0.1	0	0	353	0.3	353	354	8.8	98.1
2025-10-29T21:23	10	0	0.1	0	0	353	0.3	352	354	8.9	98.0
2025-10-29T21:24	10	0	0.1	0	0	353	0.2	352	354	8.8	98.1
2025-10-29T21:25	10	0	0.2	0	0	353	0.3	352	354	8.8	98.2
2025-10-29T21:26	10	0	0.1	0	0	353	0.3	352	354	8.8	98.3
2025-10-29T21:27	10	0	0.1	0	0	353	0.3	352	354	8.8	98.4
2025-10-29T21:28	10	0	0.2	0	0	353	0.2	352	354	8.8	98.6
2025-10-29T21:29	10	0	0.1	0	0	353	0.2	353	353	8.8	98.4
2025-10-29T21:30	10	0	0.1	0	1	353	0.3	352	354	8.8	98.3
2025-10-29T21:31	10	0	0.2	0	0	353	0.2	352	353	8.8	98.6
2025-10-29T21:32	10	0	0.2	0	0	353	0.2	352	353	8.7	98.8
2025-10-29T21:33	10	0	0.2	0	0	353	0.2	352	353	8.7	99.1
2025-10-29T21:34	10	0	0.1	0	0	353	0.2	352	353	8.7	99.1
2025-10-29T21:35	10	0	0.2	-1	1	353	0.3	352	354	8.7	99.3
2025-10-29T21:36	10	0	0.1	0	0	353	0.2	352	353	8.7	99.5
2025-10-29T21:37	10	0	0.1	0	0	353	0.3	352	353	8.7	99.7
2025-10-29T21:38	10	0	0.1	0	0	353	0.3	352	353	8.7	99.8
2025-10-29T21:39	10	0	0.4	0	3	353	0.3	352	354	8.7	99.7
2025-10-29T21:40	10	0	0.3	0	2	353	0.3	352	353	8.7	99.6
2025-10-29T21:41	10	0	0.1	0	1	353	0.3	352	353	8.7	99.5
2025-10-29T21:42	10	0	0.1	0	1	353	0.3	352	353	8.7	99.5
2025-10-29T21:43	10	0	0.1	0	1	353	0.3	352	353	8.7	99.5
2025-10-29T21:44	10	0	0.1	0	1	352	0.3	352	353	8.7	99.6
2025-10-29T21:45	10	0	0.2	0	1	353	0.3	352	353	8.7	99.9
2025-10-29T21:46	10	0	0.1	0	1	352	0.3	352	353	8.7	99.9
2025-10-29T21:47	10	0	0.2	0	1	352	0.2	352	353	8.7	100.3
2025-10-29T21:48	10	0	0.1	0	0	353	0.2	352	353	8.7	99.7
2025-10-29T21:49	10	0	0.1	0	0	352	0.3	352	353	8.7	99.3
2025-10-29T21:50	10	0	0.1	0	1	352	0.2	352	353	8.7	99.5
2025-10-29T21:51	10	0	0.1	0	1	353	0.2	352	354	8.7	99.6
2025-10-29T21:52	10	0	0.2	0	1	353	0.3	352	353	8.7	99.6
2025-10-29T21:53	10	0	0.1	0	1	352	0.2	352	353	8.8	99.6
2025-10-29T21:54	10	0	0.1	0	1	352	0.2	352	353	8.7	99.6
2025-10-29T21:55	10	0	0.1	0	0	352	0.2	352	353	8.7	99.6
2025-10-29T21:56	10	0	0.1	0	1	352	0.3	352	353	8.7	99.4
2025-10-29T21:57	10	0	0.2	0	1	352	0.3	352	353	8.7	99.4
2025-10-29T21:58	10	0	0.1	0	0	353	0.2	352	353	8.8	99.6
2025-10-29T21:59	10	0	0.1	0	0	353	0.2	352	353	8.8	99.5
2025-10-29T22:00	10	0	0.1	0	0	353	0.3	352	353	8.8	99.5
2025-10-29T22:01	10	0	0.1	0	0	353	0.2	352	353	8.8	99.7
2025-10-29T22:02	10	0	0.2	0	1	353	0.3	352	354	8.8	99.2
2025-10-29T22:03	10	0	0.1	0	0	353	0.2	352	353	8.8	99.2
2025-10-29T22:04	10	0	0.1	0	0	353	0.3	352	354	8.8	99.3
2025-10-29T22:05	10	0	0.1	0	1	353	0.3	352	353	8.8	99.2
2025-10-29T22:06	10	0	0.1	0	0	353	0.2	352	353	8.9	99.0
2025-10-29T22:07	10	0	0.1	0	1	353	0.3	352	354	8.9	98.9
2025-10-29T22:08	10	0	0.1	0	0	353	0.2	353	354	8.9	98.7
2025-10-29T22:09	10	0	0.1	0	0	353	0.3	353	354	9.0	98.4
2025-10-29T22:10	10	0	0.1	0	0	354	0.2	353	354	9.1	98.2
2025-10-29T22:11	10	0	0.1	0	0	354	0.3	353	354	9.1	98.2
2025-10-29T22:12	10	0	0.1	0	0	354	0.3	353	354	9.0	98.4
2025-10-29T22:13	10	0	0.2	0	0	354	0.3	353	354	9.0	98.7
2025-10-29T22:14	10	0	0.1	0	0	353	0.2	353	354	9.0	98.8
2025-10-29T22:15	10	0	0.1	0	0	354	0.3	353	355	9.0	98.8
2025-10-29T22:16	10	0	0.1	0	0	354	0.3	353	354	9.0	98.8
2025-10-29T22:17	10	0	0.1	0	0	354	0.2	353	354	9.0	98.8
2025-10-29T22:18	10	0	0.2	0	1	354	0.2	353	354	9.0	98.8
2025-10-29T22:19	10	0	0.1	0	1	354	0.3	353	354	9.0	98.9
2025-10-29T22:20	10	0	0.1	0	1	354	0.2	353	354	9.0	98.8
2025-10-29T22:21	10	0	0.2	0	1	353	0.2	353	354	9.0	98.8
2025-10-29T22:22	10	0	0.1	0	1	353	0.2	353	354	9.0	99.0
2025-10-29T22:23	10	0	0.1	0	0	353	0.2	353	354	9.0	99.0
2025-10-29T22:24	10	0	0.1	0	1	354	0.2	353	354	9.0	99.1
2025-10-29T22:25	10	0	0.1	0	0	353	0.3	353	354	9.0	99.2
2025-10-29T22:26	10	0	0.1	0	1	353	0.3	353	354	9.0	99.2
2025-10-29T22:27	10	0	0.1	0	0	353	0.3	353	354	9.0	99.4
2025-10-29T22:28	10	0	0.2	0	1	353	0.3	353	354	9.0	99.2
2025-10-29T22:29	10	0	0.1	0	0	353	0.2	353	354	9.0	99.2
2025-10-29T22:30	10	0	0.1	0	0	353	0.3	353	354	9.0	99.4
2025-10-29T22:31	10	0	0.1	0	0	353	0.2	353	354	9.0	99.6
2025-10-29T22:32	10	0	0.1	0	0	353	0.2	353	354	9.0	99.4
2025-10-29T22:33	10	0	0.1	0	0	353	0.2	353	353	9.0	99.0
2025-10-29T22:34	10	0	0.1	0	1	353	0.2	353	354	9.1	98.8
2025-10-29T22:35	10	0	0.1	0	0	353	0.3	352	354	9.1	98.5
2025-10-29T22:36	10	0	0.1	0	1	353	0.3	352	354	9.1	98.6
2025-10-29T22:37	10	0	0.1	0	1	353	0.2	352	353	9.1	98.6
2025-10-29T22:38	10	0	0.1	0	1	353	0.2	352	354	9.1	98.6
2025-10-29T22:39	10	0	0.1	0	1	353	0.2	352	354	9.2	98.3
2025-10-29T22:40	10	0	0.1	0	1	353	0.3	353	354	9.2	98.2
2025-10-29T22:41	10	0	0.1	0	1	353	0.2	353	354	9.2	98.2
2025-10-29T22:42	10	0	0.1	0	1	353	0.2	353	354	9.2	98.4
2025-10-29T22:43	10	0	0.1	0	1	353	0.2	353	354	9.2	98.2
2025-10-29T22:44	10	0	0.1	0	1	353	0.3	353	354	9.2	98.3
2025-10-29T22:45	10	0	0.1	0	0	354	0.3	353	354	9.2	98.0
2025-10-29T22:46	10	0	0.1	0	1	354	0.2	353	354	9.3	97.8
2025-10-29T22:47	10	0	0.1	0	1	354	0.3	353	354	9.3	97.8
2025-10-29T22:48	10	0	0.1	0	0	354	0.3	353	354	9.2	97.9
2025-10-29T22:49	10	0	0.1	0	0	354	0.3	353	354	9.1	98.3
2025-10-29T22:50	10	0	0.1	0	0	353	0.3	353	354	9.0	98.8
2025-10-29T22:51	10	0	0.1	0	0	353	0.3	353	354	8.9	99.1
2025-10-29T22:52	10	0	0.1	0	0	354	0.2	353	354	8.9	99.2
2025-10-29T22:53	10	0	0.1	0	0	353	0.2	353	354	8.9	99.3
2025-10-29T22:54	10	0	0.1	0	0	353	0.2	353	354	8.9	99.5
2025-10-29T22:55	10	0	0.2	0	1	353	0.2	353	354	8.9	99.6
2025-10-29T22:56	10	0	0.1	0	0	353	0.3	353	354	9.0	99.7
2025-10-29T22:57	10	0	0.1	0	1	353	0.3	352	354	9.0	99.7
2025-10-29T22:58	10	0	0.1	0	0	353	0.3	352	354	9.0	99.5
2025-10-29T22:59	10	0	0.1	0	0	353	0.2	353	354	9.0	99.4
2025-10-29T23:00	10	0	0.2	0	1	353	0.2	353	353	9.0	99.6
2025-10-29T23:01	10	0	0.1	0	1	353	0.2	353	354	9.0	99.3
2025-10-29T23:02	10	0	0.2	0	0	353	0.3	353	354	9.0	99.2
2025-10-29T23:03	10	0	0.1	0	0	353	0.2	353	354	9.0	99.2
2025-10-29T23:04	10	0	0.1	0	1	353	0.2	353	354	9.0	98.7
2025-10-29T23:05	10	0	0.1	0	0	354	0.2	353	354	9.0	98.7
2025-10-29T23:06	10	0	0.1	0	0	353	0.3	353	354	9.0	98.8
2025-10-29T23:07	10	0	0.1	0	0	354	0.3	353	354	9.0	98.9
2025-10-29T23:08	10	0	0.6	0	4	354	0.3	353	354	9.0	99.2
2025-10-29T23:09	10	0	0.1	0	0	354	0.2	353	354	9.0	99.1
2025-10-29T23:10	10	0	0.1	0	0	354	0.2	353	354	9.0	99.3
2025-10-29T23:11	10	0	0.1	0	0	354	0.2	353	354	9.0	99.3
2025-10-29T23:12	10	0	0.1	0	0	354	0.3	353	354	9.0	99.4
2025-10-29T23:13	10	0	0.2	0	1	354	0.3	353	355	9.0	99.7
2025-10-29T23:14	10	0	0.2	0	1	354	0.3	353	354	9.1	99.2
2025-10-29T23:15	10	0	0.1	0	0	354	0.3	353	355	9.1	99.5
2025-10-29T23:16	10	0	0.1	0	1	354	0.2	354	355	9.1	99.8
2025-10-29T23:17	10	0	0.1	0	0	354	0.2	353	354	9.1	100.0
2025-10-29T23:18	10	0	0.1	0	1	354	0.3	353	355	9.1	100.1
2025-10-29T23:19	10	0	0.1	0	1	354	0.2	353	354	9.1	99.7
2025-10-29T23:20	10	0	0.2	0	1	354	0.3	353	354	9.1	99.3
2025-10-29T23:21	10	0	0.1	0	0	354	0.2	353	354	9.0	99.4
2025-10-29T23:22	10	0	0.1	0	1	354	0.2	353	355	9.0	99.3
2025-10-29T23:23	10	0	0.1	0	1	354	0.3	353	355	9.0	99.5
2025-10-29T23:24	10	0	0.2	0	0	354	0.2	353	354	9.0	99.7
2025-10-29T23:25	10	0	0.2	0	1	354	0.3	353	354	9.0	99.9
2025-10-29T23:26	10	0	0.2	0	0	354	0.2	353	354	9.0	99.9
2025-10-29T23:27	10	0	0.1	0	1	354	0.3	353	354	9.0	99.8
2025-10-29T23:28	10	0	0.1	0	0	353	0.3	353	354	9.0	99.6
2025-10-29T23:29	10	0	0.2	0	1	353	0.2	353	354	9.1	99.6
2025-10-29T23:30	10	0	0.1	0	1	353	0.3	353	354	9.0	100.0
2025-10-29T23:31	10	0	0.1	0	0	353	0.2	353	354	9.0	99.7
2025-10-29T23:32	10	0	0.1	0	0	353	0.2	353	354	9.0	99.6
2025-10-29T23:33	10	0	0.1	0	1	353	0.3	353	354	9.0	99.5
2025-10-29T23:34	10	0	0.1	0	0	354	0.3	353	354	9.1	99.7
2025-10-29T23:35	10	0	0.1	0	0	353	0.2	353	354	9.0	99.6
2025-10-29T23:36	10	0	0.1	0	1	353	0.2	353	354	9.0	99.4
2025-10-29T23:37	10	0	0.1	0	0	353	0.3	353	354	9.0	99.7
2025-10-29T23:38	10	0	0.2	0	0	353	0.3	353	354	9.0	99.7
2025-10-29T23:39	10	0	0.2	0	1	354	0.3	353	354	9.1	99.5
2025-10-29T23:40	10	0	0.1	0	1	354	0.3	353	354	9.1	100.1
2025-10-29T23:41	10	0	0.1	0	0	354	0.2	353	354	9.1	100.1
2025-10-29T23:42	10	0	0.1	0	1	354	0.2	353	354	9.1	99.6
2025-10-29T23:43	10	0	0.1	0	1	354	0.2	353	354	9.1	99.4
2025-10-29T23:44	10	0	0.1	0	0	354	0.3	353	355	9.1	99.2
2025-10-29T23:45	10	0	0.1	0	1	354	0.2	353	354	9.1	99.2
2025-10-29T23:46	10	0	0.1	0	0	354	0.3	353	354	9.1	99.5
2025-10-29T23:47	10	0	0.1	0	0	354	0.2	353	355	9.1	99.8
2025-10-29T23:48	10	0	0.1	0	0	354	0.2	354	355	9.1	100.1
2025-10-29T23:49	10	0	0.1	0	0	354	0.2	354	355	9.1	100.0
2025-10-29T23:50	10	0	0.1	0	1	354	0.2	353	355	9.2	99.8
2025-10-29T23:51	10	0	0.1	0	1	354	0.3	354	355	9.2	99.6
2025-10-29T23:52	10	0	0.1	0	1	354	0.2	354	354	9.2	98.8
2025-10-29T23:53	10	0	0.1	0	0	354	0.3	354	355	9.2	98.8
2025-10-29T23:54	10	0	0.1	0	1	354	0.3	354	355	9.2	98.9
2025-10-29T23:55	10	0	0.1	0	1	354	0.2	354	355	9.3	98.5
2025-10-29T23:56	10	0	0.1	0	0	354	0.2	354	355	9.3	98.3
2025-10-29T23:57	10	0	0.1	0	1	354	0.3	354	355	9.3	98.2
2025-10-29T23:58	10	0	0.1	0	0	354	0.2	354	355	9.3	98.2
2025-10-29T23:59	10	0	0.2	0	1	354	0.3	354	355	9.3	98.2
2025-10-30T00:00	10	0	0.2	0	1	354	0.2	354	355	9.3	98.1
2025-10-30T00:01	10	0	0.1	0	0	354	0.3	354	355	9.4	98.1
2025-10-30T00:02	10	0	0.1	0	0	355	0.3	354	355	9.4	98.0
2025-10-30T00:03	10	0	0.1	0	0	354	0.2	354	355	9.4	97.9
2025-10-30T00:04	10	0	0.1	0	0	355	0.2	354	355	9.5	97.8
2025-10-30T00:05	10	0	0.1	0	0	355	0.2	354	355	9.5	97.7
2025-10-30T00:06	10	0	0.1	0	0	355	0.2	354	355	9.5	97.6
2025-10-30T00:07	10	0	0.1	0	0	355	0.2	354	355	9.4	97.8
2025-10-30T00:08	10	0	0.1	0	0	355	0.2	354	355	9.4	98.0
2025-10-30T00:09	10	0	0.2	0	1	354	0.3	354	355	9.4	98.1
2025-10-30T00:10	10	0	0.1	0	0	355	0.3	354	355	9.4	98.3
2025-10-30T00:11	10	0	0.1	0	0	354	0.3	354	355	9.4	98.3
2025-10-30T00:12	10	0	0.1	0	1	354	0.4	354	355	9.4	98.3
2025-10-30T00:13	10	0	0.1	0	0	355	0.2	354	355	9.5	98.1
2025-10-30T00:14	10	0	0.1	0	1	355	0.2	354	355	9.6	97.5
2025-10-30T00:15	10	0	0.1	0	1	355	0.3	354	356	9.6	97.2
2025-10-30T00:16	10	0	0.1	0	0	355	0.2	354	355	9.6	97.0
2025-10-30T00:17	10	0	0.1	0	1	355	0.3	354	355	9.6	96.7
2025-10-30T00:18	10	0	0.1	0	0	355	0.3	354	355	9.5	97.2
2025-10-30T00:19	10	0	0.2	0	1	355	0.3	354	355	9.4	97.8
2025-10-30T00:20	10	0	0.1	0	0	355	0.2	354	355	9.5	97.6
2025-10-30T00:21	10	0	0.1	0	0	355	0.2	355	356	9.7	96.7
2025-10-30T00:22	10	0	0.2	0	1	356	0.2	355	356	9.8	96.5
2025-10-30T00:23	10	0	0.1	0	1	355	0.3	355	356	9.7	96.7
2025-10-30T00:24	10	0	0.1	0	0	355	0.2	355	356	9.7	96.5
2025-10-30T00:25	10	0	0.1	0	0	356	0.3	355	356	9.7	96.4
2025-10-30T00:26	10	0	0.1	0	0	356	0.2	355	356	9.7	96.3
2025-10-30T00:27	10	0	0.1	0	0	356	0.2	355	356	9.8	95.9
2025-10-30T00:28	10	0	0.1	0	0	356	0.3	355	357	9.8	95.4
2025-10-30T00:29	10	0	0.1	0	1	356	0.3	355	356	9.9	94.6
2025-10-30T00:30	10	0	0.1	0	0	356	0.2	356	357	10.0	94.2
2025-10-30T00:31	10	0	0.1	0	1	356	0.2	356	357	10.0	94.3
2025-10-30T00:32	10	0	0.1	0	1	357	0.3	356	357	10.0	93.7
2025-10-30T00:33	10	0	0.1	0	1	357	0.3	356	358	10.3	91.6
2025-10-30T00:34	10	0	0.1	0	0	357	0.4	356	358	10.1	92.5
2025-10-30T00:35	10	0	0.1	0	0	357	0.3	356	357	10.1	92.8
2025-10-30T00:36	10	0	0.1	0	0	357	0.3	356	357	10.1	92.6
2025-10-30T00:37	10	0	0.1	0	0	357	0.2	356	358	10.1	92.5
2025-10-30T00:38	10	0	0.1	0	0	357	0.3	356	358	10.1	92.6
2025-10-30T00:39	10	0	0.1	0	0	357	0.3	356	358	10.2	92.1
2025-10-30T00:40	10	0	0.1	0	0	357	0.2	356	358	10.1	92.8
2025-10-30T00:41	10	0	0.1	0	0	357	0.3	356	358	10.1	92.9
2025-10-30T00:42	10	0	0.1	0	0	357	0.3	356	357	10.1	93.4
2025-10-30T00:43	10	0	0.1	0	0	357	0.3	356	358	10.1	93.1
2025-10-30T00:44	10	0	0.1	0	0	357	0.3	356	357	10.1	92.5
2025-10-30T00:45	10	0	0.1	0	0	357	0.2	356	357	10.1	92.9
2025-10-30T00:46	10	0	0.2	0	1	357	0.3	356	358	10.1	92.7
2025-10-30T00:47	10	0	0.1	0	0	357	0.3	356	357	10.1	92.9
2025-10-30T00:48	10	0	0.1	0	0	357	0.2	356	357	10.1	93.2
2025-10-30T00:49	10	0	0.1	0	0	357	0.3	356	357	10.0	93.4
2025-10-30T00:50	10	0	0.1	0	0	357	0.2	356	357	10.0	93.6
2025-10-30T00:51	10	0	0.1	0	0	357	0.3	356	357	10.1	93.4
2025-10-30T00:52	10	0	0.1	0	0	357	0.2	357	358	10.0	93.6
2025-10-30T00:53	10	0	0.1	0	1	357	0.2	357	358	10.0	93.5
2025-10-30T00:54	10	0	0.1	0	0	357	0.3	356	357	10.0	93.8
2025-10-30T00:55	10	0	0.1	0	0	357	0.3	356	357	10.0	93.8
2025-10-30T00:56	10	0	0.1	0	0	357	0.2	356	357	10.0	93.9
2025-10-30T00:57	10	0	0.1	0	0	357	0.2	356	357	10.0	94.0
2025-10-30T00:58	10	0	0.1	0	1	357	0.3	356	357	10.0	94.6
2025-10-30T00:59	10	0	0.1	0	0	356	0.2	356	357	10.0	94.3
2025-10-30T01:00	10	0	0.1	0	0	356	0.2	356	357	9.9	94.6
2025-10-30T01:01	10	0	0.1	0	0	356	0.2	356	357	9.9	94.7
2025-10-30T01:02	10	0	0.1	0	0	357	0.2	356	357	9.9	94.6
2025-10-30T01:03	10	0	0.1	0	0	356	0.2	356	357	9.9	94.5
2025-10-30T01:04	10	0	0.1	0	0	357	0.3	356	357	10.0	94.4
2025-10-30T01:05	10	0	0.1	0	1	357	0.2	356	357	10.0	93.8
2025-10-30T01:06	10	0	0.1	0	0	357	0.2	356	357	10.1	93.7
2025-10-30T01:07	10	0	0.1	0	0	357	0.2	356	357	10.0	93.8
2025-10-30T01:08	10	0	0.1	0	0	357	0.2	356	357	10.0	93.6
2025-10-30T01:09	10	0	0.1	0	0	357	0.2	356	357	10.1	93.6
2025-10-30T01:10	10	0	0.1	0	0	357	0.2	356	357	10.0	93.6
2025-10-30T01:11	10	0	0.1	0	0	357	0.2	356	357	10.1	93.2
2025-10-30T01:12	10	0	0.1	0	0	357	0.2	357	358	10.1	92.7
2025-10-30T01:13	10	0	0.1	0	0	357	0.2	356	357	10.1	92.8
2025-10-30T01:14	10	0	0.1	0	0	357	0.3	356	358	10.2	92.4
2025-10-30T01:15	10	0	0.1	0	0	357	0.2	357	358	10.2	92.2
2025-10-30T01:16	10	0	0.1	0	0	357	0.3	356	357	10.2	91.8
2025-10-30T01:17	10	0	0.1	0	0	358	0.3	357	358	10.5	88.6
2025-10-30T01:18	10	0	0.1	0	0	358	0.2	357	358	10.6	87.9
2025-10-30T01:19	10	0	0.1	0	0	358	0.2	357	358	10.6	87.5
2025-10-30T01:20	10	0	0.1	0	0	358	0.2	357	358	10.5	88.5
2025-10-30T01:21	10	0	0.1	0	0	358	0.2	357	358	10.5	88.8
2025-10-30T01:22	10	0	0.1	0	0	358	0.2	357	358	10.5	88.7
2025-10-30T01:23	10	0	0.1	0	0	358	0.2	357	358	10.6	88.2
2025-10-30T01:24	10	0	0.1	0	0	358	0.2	358	358	10.6	88.0
2025-10-30T01:25	10	0	0.1	0	0	358	0.3	358	359	10.6	87.7
2025-10-30T01:26	10	0	0.1	0	0	358	0.3	357	359	10.6	87.3
2025-10-30T01:27	10	0	0.1	0	0	358	0.2	357	358	10.5	89.1
2025-10-30T01:28	10	0	0.1	0	0	357	0.2	357	358	10.4	89.7
2025-10-30T01:29	10	0	0.1	0	0	357	0.2	357	358	10.3	90.3
2025-10-30T01:30	10	0	0.1	0	0	357	0.2	357	358	10.3	90.5
2025-10-30T01:31	10	0	0.1	0	0	357	0.2	357	358	10.4	89.9
2025-10-30T01:32	10	0	0.1	0	0	357	0.3	356	358	10.4	89.7
2025-10-30T01:33	10	0	0.1	0	0	357	0.2	357	358	10.4	89.0
2025-10-30T01:34	10	0	0.1	0	0	358	0.2	357	358	10.4	88.8
2025-10-30T01:35	10	0	0.1	0	0	357	0.3	357	358	10.4	89.0
2025-10-30T01:36	10	0	0.1	0	0	358	0.2	357	358	10.4	88.7
2025-10-30T01:37	10	0	0.1	0	0	357	0.2	357	358	10.5	87.9
2025-10-30T01:38	10	0	0.1	0	0	357	0.2	357	358	10.5	88.1
2025-10-30T01:39	10	0	0.1	0	0	357	0.2	357	358	10.4	89.6
2025-10-30T01:40	10	0	0.1	0	0	358	0.3	357	358	10.6	87.1
2025-10-30T01:41	10	0	0.1	0	0	358	0.2	357	358	10.6	87.7
2025-10-30T01:42	10	0	0.1	0	0	358	0.2	357	358	10.6	87.4
2025-10-30T01:43	10	0	0.1	0	0	358	0.3	357	358	10.6	87.6
2025-10-30T01:44	10	0	0.1	0	0	358	0.2	357	358	10.6	87.0
2025-10-30T01:45	10	0	0.1	0	0	358	0.2	358	359	10.7	86.6
2025-10-30T01:46	10	0	0.1	0	0	358	0.2	357	358	10.6	87.7
2025-10-30T01:47	10	0	0.1	0	0	358	0.2	357	358	10.6	87.7
2025-10-30T01:48	10	0	0.1	0	0	358	0.2	357	358	10.5	88.5
2025-10-30T01:49	10	0	0.1	0	0	358	0.2	357	358	10.5	88.8
2025-10-30T01:50	10	0	0.1	0	0	358	0.2	357	358	10.5	88.3
2025-10-30T01:51	10	0	0.1	0	0	358	0.3	357	358	10.4	89.2
2025-10-30T01:52	10	0	0.1	0	0	358	0.3	357	358	10.4	89.6
2025-10-30T01:53	10	0	0.1	0	0	357	0.3	357	358	10.4	90.0
2025-10-30T01:54	10	0	0.0	0	0	357	0.2	357	358	10.4	90.3
2025-10-30T01:55	10	0	0.1	0	0	358	0.2	357	358	10.3	90.4
2025-10-30T01:56	10	0	0.1	0	0	357	0.1	357	358	10.4	90.2
2025-10-30T01:57	10	0	0.1	0	0	358	0.2	357	358	10.4	90.3
2025-10-30T01:58	10	0	0.1	0	0	357	0.3	357	358	10.4	90.7
2025-10-30T01:59	10	0	0.1	0	0	357	0.2	357	358	10.3	90.8
2025-10-30T02:00	10	0	0.1	0	0	357	0.2	357	358	10.3	91.1
2025-10-30T02:01	10	0	0.1	0	0	357	0.2	357	358	10.3	91.4
2025-10-30T02:02	10	0	0.1	0	0	358	0.2	357	358	10.3	91.4
2025-10-30T02:03	10	0	0.1	0	0	358	0.2	357	358	10.4	90.9
2025-10-30T02:04	10	0	0.1	0	0	358	0.2	357	358	10.4	90.8
2025-10-30T02:05	10	0	0.1	0	0	358	0.2	357	358	10.4	91.3
2025-10-30T02:06	10	0	0.1	0	0	357	0.2	357	358	10.3	91.7
2025-10-30T02:07	10	0	0.0	0	0	357	0.2	357	358	10.3	91.9
2025-10-30T02:08	10	0	0.1	0	0	358	0.2	357	358	10.3	91.7
2025-10-30T02:09	10	0	0.1	0	0	358	0.2	357	358	10.3	92.1
2025-10-30T02:10	10	0	0.1	0	0	358	0.2	357	358	10.3	92.2
2025-10-30T02:11	10	0	0.1	0	0	357	0.3	357	358	10.3	92.3
2025-10-30T02:12	10	0	0.1	0	0	357	0.2	357	358	10.3	92.4
2025-10-30T02:13	10	0	0.1	0	0	357	0.2	357	358	10.3	92.5
2025-10-30T02:14	10	0	0.1	0	0	358	0.3	357	358	10.3	92.4
2025-10-30T02:15	10	0	0.1	0	0	357	0.2	357	358	10.3	92.6
2025-10-30T02:16	10	0	0.1	0	0	357	0.2	357	358	10.3	93.0
2025-10-30T02:17	10	0	0.1	0	0	358	0.2	357	358	10.3	93.0
2025-10-30T02:18	10	0	0.1	0	0	357	0.2	357	358	10.3	92.8
2025-10-30T02:19	10	0	0.1	0	0	358	0.3	357	358	10.3	93.1
2025-10-30T02:20	10	0	0.1	0	0	357	0.3	357	358	10.3	93.3
2025-10-30T02:21	10	0	0.1	0	0	357	0.2	357	358	10.3	93.1
2025-10-30T02:22	10	0	0.1	0	0	357	0.3	357	358	10.4	92.3
2025-10-30T02:23	10	0	0.1	0	0	357	0.3	357	358	10.4	92.1
2025-10-30T02:24	10	0	0.1	0	0	357	0.2	357	358	10.4	92.4
2025-10-30T02:25	10	0	0.1	0	0	358	0.2	357	358	10.5	91.8
2025-10-30T02:26	10	0	0.1	0	0	358	0.3	357	359	10.5	91.9
2025-10-30T02:27	10	0	0.1	0	0	358	0.3	357	358	10.5	91.8
2025-10-30T02:28	10	0	0.1	0	0	358	0.3	357	358	10.5	91.9
2025-10-30T02:29	10	0	0.1	0	0	358	0.3	357	359	10.5	91.5
2025-10-30T02:30	10	0	0.1	0	0	358	0.2	358	359	10.6	91.0
2025-10-30T02:31	10	0	0.1	0	0	358	0.2	358	359	10.6	91.3
2025-10-30T02:32	10	0	0.0	0	0	358	0.3	358	359	10.5	91.8
2025-10-30T02:33	10	0	0.1	0	0	358	0.2	358	359	10.5	92.1
2025-10-30T02:34	10	0	0.1	0	0	358	0.2	358	359	10.5	92.2
2025-10-30T02:35	10	0	0.1	0	0	358	0.2	358	358	10.6	91.6
2025-10-30T02:36	10	0	0.1	0	0	358	0.2	358	359	10.6	91.7
2025-10-30T02:37	10	0	0.1	0	0	358	0.2	357	358	10.5	91.7
2025-10-30T02:38	10	0	0.1	0	0	358	0.3	357	359	10.6	91.4
2025-10-30T02:39	10	0	0.1	0	0	358	0.3	357	358	10.5	91.7
2025-10-30T02:40	10	0	0.1	0	0	358	0.3	357	359	10.5	91.2
2025-10-30T02:41	10	0	0.1	0	0	358	0.3	357	359	10.6	90.6
2025-10-30T02:42	10	0	0.1	0	0	358	0.2	358	358	10.6	90.8
2025-10-30T02:43	10	0	0.1	0	0	358	0.3	358	359	10.6	90.6
2025-10-30T02:44	10	0	0.1	0	0	358	0.2	358	359	10.6	89.8
2025-10-30T02:45	10	0	0.1	0	0	359	0.2	358	359	10.6	89.9
2025-10-30T02:46	10	0	0.1	0	0	359	0.2	358	359	10.7	89.6
2025-10-30T02:47	10	0	0.1	0	0	358	0.2	358	359	10.5	91.5
2025-10-30T02:48	10	0	0.1	0	0	358	0.3	357	359	10.5	92.0
2025-10-30T02:49	10	0	0.1	0	0	358	0.3	358	359	10.4	91.8
2025-10-30T02:50	10	0	0.1	0	0	358	0.2	358	359	10.5	91.1
2025-10-30T02:51	10	0	0.1	0	0	358	0.2	357	358	10.5	90.9
2025-10-30T02:52	10	0	0.0	0	0	358	0.2	358	359	10.6	88.7
2025-10-30T02:53	10	0	0.1	0	0	358	0.3	357	359	10.6	88.9
2025-10-30T02:54	10	0	0.1	0	0	358	0.3	357	358	10.5	90.2
2025-10-30T02:55	10	0	0.1	0	0	358	0.2	357	359	10.5	88.8
2025-10-30T02:56	10	0	0.1	0	0	358	0.2	358	359	10.7	86.7
2025-10-30T02:57	10	0	0.1	0	0	358	0.2	358	359	10.7	86.4
2025-10-30T02:58	10	0	0.1	0	0	358	0.2	358	359	10.7	86.4
2025-10-30T02:59	10	0	0.1	0	0	358	0.2	358	359	10.8	85.6
2025-10-30T03:00	10	0	0.1	0	0	358	0.2	358	359	10.7	86.4
2025-10-30T03:01	10	0	0.1	0	0	358	0.2	358	359	10.6	87.3
2025-10-30T03:02	10	0	0.1	0	0	358	0.2	358	359	10.7	87.2
2025-10-30T03:03	10	0	0.1	0	0	359	0.2	358	359	10.8	86.9
2025-10-30T03:04	10	0	0.1	0	0	359	0.2	358	359	10.8	87.1
2025-10-30T03:05	10	0	0.1	0	0	359	0.2	358	359	10.8	86.9
2025-10-30T03:06	10	0	0.1	0	0	359	0.2	358	359	10.8	87.2
2025-10-30T03:07	10	0	0.1	0	0	359	0.2	359	359	10.8	87.3
2025-10-30T03:08	10	0	0.1	0	0	359	0.2	358	359	10.8	87.3
2025-10-30T03:09	10	0	0.1	0	0	359	0.3	358	359	10.8	87.8
2025-10-30T03:10	10	0	0.1	0	0	358	0.2	358	359	10.6	89.1
2025-10-30T03:11	10	0	0.1	0	0	358	0.4	357	359	10.5	90.7
2025-10-30T03:12	10	0	0.1	0	0	358	0.2	358	359	10.4	90.6
2025-10-30T03:13	10	0	0.1	0	0	359	0.2	358	359	10.6	88.8
2025-10-30T03:14	10	0	0.1	0	0	359	0.2	358	359	10.7	88.6
2025-10-30T03:15	10	0	0.1	0	0	359	0.2	358	359	10.7	88.3
2025-10-30T03:16	10	0	0.1	0	0	359	0.3	358	359	10.6	89.5
2025-10-30T03:17	10	0	0.1	0	0	359	0.2	358	359	10.6	88.9
2025-10-30T03:18	10	0	0.1	0	0	359	0.2	358	359	10.7	88.2
2025-10-30T03:19	10	0	0.0	0	0	359	0.2	359	359	10.7	88.0
2025-10-30T03:20	10	0	0.1	0	0	359	0.2	358	359	10.7	88.3
2025-10-30T03:21	10	0	0.1	0	0	359	0.2	358	359	10.6	89.4
2025-10-30T03:22	10	0	0.1	0	0	359	0.3	358	360	10.6	89.5
2025-10-30T03:23	10	0	0.1	0	0	359	0.2	359	360	10.9	87.5
2025-10-30T03:24	10	0	0.1	0	0	360	0.2	359	360	11.0	87.0
2025-10-30T03:25	10	0	0.1	0	0	360	0.2	359	360	11.0	87.7
2025-10-30T03:26	10	0	0.1	0	0	359	0.2	359	360	10.9	88.8
2025-10-30T03:27	10	0	0.1	0	0	359	0.3	359	360	10.8	89.5
2025-10-30T03:28	10	0	0.1	0	0	359	0.2	359	360	10.8	89.6
2025-10-30T03:29	10	0	0.1	0	0	359	0.3	358	360	10.7	90.2
2025-10-30T03:30	10	0	0.1	0	0	359	0.2	358	360	10.7	90.8
2025-10-30T03:31	10	0	0.1	0	0	359	0.3	359	360	10.7	91.3
2025-10-30T03:32	10	0	0.1	0	0	359	0.2	359	360	10.6	92.1
2025-10-30T03:33	10	0	0.1	0	0	359	0.2	359	360	10.6	92.1
2025-10-30T03:34	10	0	0.1	0	0	359	0.2	359	360	10.6	92.4
2025-10-30T03:35	10	0	0.1	0	0	359	0.3	359	360	10.6	91.9
2025-10-30T03:36	10	0	0.1	0	0	360	0.2	359	360	10.7	91.5
2025-10-30T03:37	10	0	0.1	0	0	359	0.3	359	360	10.7	91.4
2025-10-30T03:38	10	0	0.1	0	0	360	0.2	359	360	10.8	91.1
2025-10-30T03:39	10	0	0.1	0	0	360	0.2	359	360	10.8	91.2
2025-10-30T03:40	10	0	0.1	0	0	360	0.2	359	360	10.7	91.4
2025-10-30T03:41	10	0	0.1	0	0	360	0.2	359	360	10.7	91.6
2025-10-30T03:42	10	0	0.1	0	0	360	0.2	359	360	10.7	92.0
2025-10-30T03:43	10	0	0.1	0	0	360	0.3	359	360	10.7	92.0
2025-10-30T03:44	10	0	0.1	0	0	359	0.2	359	360	10.6	92.6
2025-10-30T03:45	10	0	0.1	0	0	359	0.2	359	360	10.6	93.5
2025-10-30T03:46	10	0	0.1	0	0	359	0.3	359	360	10.6	93.3
2025-10-30T03:47	10	0	0.1	0	0	359	0.2	359	360	10.5	93.8
2025-10-30T03:48	10	0	0.1	0	0	359	0.2	359	360	10.5	94.2
2025-10-30T03:49	10	0	0.1	0	0	359	0.2	359	360	10.5	94.3
2025-10-30T03:50	10	0	0.1	0	0	359	0.2	358	359	10.4	94.7
2025-10-30T03:51	10	0	0.1	0	0	359	0.2	359	359	10.4	94.9
2025-10-30T03:52	10	0	0.1	0	0	359	0.2	358	359	10.4	95.3
2025-10-30T03:53	10	0	0.1	0	0	359	0.2	358	359	10.3	95.5
2025-10-30T03:54	10	0	0.1	0	0	359	0.2	358	360	10.3	96.1
2025-10-30T03:55	10	0	0.1	0	0	359	0.3	358	359	10.2	96.6
2025-10-30T03:56	10	0	0.1	0	0	359	0.2	358	359	10.3	97.1
2025-10-30T03:57	10	0	0.1	0	0	359	0.3	359	360	10.3	97.4
2025-10-30T03:58	10	0	0.1	0	0	359	0.2	359	360	10.3	97.5
2025-10-30T03:59	10	0	0.1	0	0	359	0.2	359	360	10.3	97.8
2025-10-30T04:00	10	0	0.1	0	0	359	0.2	359	360	10.3	97.9
2025-10-30T04:01	10	0	0.1	0	0	360	0.2	359	360	10.3	98.1
2025-10-30T04:02	10	0	0.1	0	0	360	0.2	359	360	10.3	98.4
2025-10-30T04:03	10	0	0.1	0	0	360	0.2	359	360	10.4	98.3
2025-10-30T04:04	10	0	0.1	0	0	359	0.3	359	360	10.4	98.6
2025-10-30T04:05	10	0	0.1	0	0	360	0.2	360	360	10.4	98.0
2025-10-30T04:06	10	0	0.1	0	0	360	0.3	359	360	10.4	97.9
2025-10-30T04:07	10	0	0.1	0	0	360	0.3	359	360	10.4	98.2
2025-10-30T04:08	10	0	0.1	0	0	360	0.2	359	360	10.4	98.3
2025-10-30T04:09	10	0	0.1	0	0	360	0.3	359	361	10.4	98.5
2025-10-30T04:10	10	0	0.1	0	0	360	0.2	360	361	10.4	98.3
2025-10-30T04:11	10	0	0.1	0	0	360	0.2	360	360	10.4	98.2
2025-10-30T04:12	10	0	0.1	0	0	360	0.3	359	360	10.4	98.1
2025-10-30T04:13	10	0	0.1	0	0	360	0.2	359	361	10.5	97.8
2025-10-30T04:14	10	0	0.1	0	0	360	0.3	359	361	10.5	97.5
2025-10-30T04:15	10	0	0.1	0	0	360	0.2	360	361	10.6	97.3
2025-10-30T04:16	10	0	0.1	0	0	360	0.2	360	361	10.6	97.3
2025-10-30T04:17	10	0	0.1	0	0	360	0.2	360	361	10.6	97.3
2025-10-30T04:18	10	0	0.1	0	0	360	0.2	360	361	10.6	97.3
2025-10-30T04:19	10	0	0.1	0	0	360	0.3	360	361	10.6	97.1
2025-10-30T04:20	10	0	0.1	0	0	360	0.2	360	361	10.6	97.3
2025-10-30T04:21	10	0	0.1	0	0	360	0.2	360	361	10.6	97.4
2025-10-30T04:22	10	0	0.1	0	0	360	0.2	360	361	10.5	97.5
2025-10-30T04:23	10	0	0.1	0	0	360	0.2	360	361	10.5	97.5
2025-10-30T04:24	10	0	0.1	0	0	360	0.2	360	361	10.5	97.6
2025-10-30T04:25	10	0	0.1	0	0	361	0.3	360	361	10.6	96.8
2025-10-30T04:26	10	0	0.1	0	0	361	0.3	360	361	10.8	93.6
2025-10-30T04:27	10	0	0.1	0	0	361	0.2	360	361	10.8	93.8
2025-10-30T04:28	10	0	0.1	-1	0	360	0.3	360	361	10.7	94.8
2025-10-30T04:29	10	-1	0.1	-1	0	361	0.2	360	361	10.6	95.0
2025-10-30T04:30	10	-1	0.1	-1	-1	361	0.2	360	361	10.7	93.7
2025-10-30T04:31	10	-1	0.1	-1	-1	361	0.2	360	361	10.6	94.0
2025-10-30T04:32	10	-1	0.1	-1	-1	360	0.3	360	361	10.5	95.5
2025-10-30T04:33	10	-1	0.1	-1	-1	360	0.3	360	361	10.4	96.0
2025-10-30T04:34	10	-1	0.1	-1	-1	360	0.3	359	361	10.4	95.8
2025-10-30T04:35	10	-1	0.1	-1	-1	360	0.2	359	361	10.5	96.5
2025-10-30T04:36	10	-1	0.1	-1	-1	360	0.2	360	360	10.4	97.1
2025-10-30T04:37	10	-1	0.1	-1	-1	360	0.2	360	361	10.4	97.4
2025-10-30T04:38	10	-1	0.1	-1	-1	360	0.2	360	361	10.4	97.6
2025-10-30T04:39	10	-1	0.1	-1	-1	360	0.2	360	361	10.4	98.0
2025-10-30T04:40	10	-1	0.1	-1	-1	360	0.2	360	361	10.4	98.1
2025-10-30T04:41	10	-1	0.1	-1	-1	360	0.2	359	361	10.3	98.4
2025-10-30T04:42	10	-1	0.1	-1	-1	360	0.3	359	360	10.3	98.3
2025-10-30T04:43	10	-1	0.1	-1	-1	360	0.2	359	360	10.3	97.6
2025-10-30T04:44	10	-1	0.1	-1	-1	360	0.3	359	360	10.3	96.7
2025-10-30T04:45	10	-1	0.1	-1	-1	360	0.2	359	360	10.3	96.1
2025-10-30T04:46	10	-1	0.1	-1	-1	359	0.3	359	360	10.3	95.6
2025-10-30T04:47	10	-1	0.1	-1	-1	359	0.2	359	360	10.2	95.4
2025-10-30T04:48	10	-1	0.1	-1	-1	359	0.2	358	359	10.2	95.0
2025-10-30T04:49	10	-1	0.1	-1	-1	359	0.2	358	359	10.2	94.6
2025-10-30T04:50	10	-1	0.1	-1	-1	359	0.2	358	359	10.3	94.0
2025-10-30T04:51	10	-1	0.1	-1	-1	358	0.3	358	359	10.3	92.5
2025-10-30T04:52	10	-1	0.1	-1	-1	358	0.2	358	359	10.3	92.3
2025-10-30T04:53	10	-1	0.1	-1	-1	358	0.2	358	358	10.3	91.3
2025-10-30T04:54	10	-1	0.1	-1	-1	358	0.3	357	359	10.2	92.3
2025-10-30T04:55	10	-1	0.1	-1	-1	358	0.2	357	358	10.2	92.6
2025-10-30T04:56	10	-1	0.1	-2	-1	358	0.2	357	358	10.1	92.8
2025-10-30T04:57	10	-2	0.1	-2	-1	358	0.2	358	358	10.1	93.1
2025-10-30T04:58	10	-2	0.1	-2	-1	358	0.2	357	358	10.1	93.3
2025-10-30T04:59	10	-2	0.1	-2	-1	358	0.2	357	358	10.1	93.6
2025-10-30T05:00	10	-1	0.1	-2	-1	358	0.2	357	358	10.1	93.7
2025-10-30T05:01	10	-1	0.1	-2	-1	358	0.2	357	358	10.1	93.7
2025-10-30T05:02	10	-1	0.1	-2	-1	358	0.3	358	359	10.2	93.3
2025-10-30T05:03	10	-1	0.1	-2	-1	358	0.2	358	359	10.2	93.0
2025-10-30T05:04	10	-1	0.1	-1	-1	358	0.3	358	359	10.2	93.0
2025-10-30T05:05	10	-1	0.1	-1	-1	358	0.3	358	359	10.2	93.2
2025-10-30T05:06	10	-1	0.1	-1	-1	358	0.2	358	359	10.3	93.0
2025-10-30T05:07	10	-1	0.1	-1	-1	359	0.2	358	359	10.4	92.4
2025-10-30T05:08	10	-1	0.1	-1	-1	359	0.2	358	359	10.4	92.5
2025-10-30T05:09	10	-1	0.1	-1	-1	359	0.2	358	359	10.4	92.5
2025-10-30T05:10	10	-1	0.1	-1	-1	359	0.2	358	359	10.4	92.8
2025-10-30T05:11	10	-1	0.1	-1	-1	359	0.2	358	359	10.4	92.6
2025-10-30T05:12	10	-1	0.1	-1	-1	359	0.2	358	360	10.5	91.8
2025-10-30T05:13	10	-1	0.1	-1	-1	359	0.2	359	360	10.5	91.9
2025-10-30T05:14	10	-1	0.1	-1	0	359	0.2	359	360	10.6	91.6
2025-10-30T05:15	10	-1	0.1	-1	0	359	0.2	359	360	10.6	91.8
2025-10-30T05:16	10	-1	0.1	-1	0	359	0.2	359	360	10.6	91.5
2025-10-30T05:17	10	0	0.1	-1	0	359	0.2	359	360	10.5	92.1
2025-10-30T05:18	10	0	0.1	-1	0	359	0.2	358	360	10.5	92.2
2025-10-30T05:19	10	0	0.1	-1	0	359	0.2	359	360	10.5	92.6
2025-10-30T05:20	10	0	0.1	0	0	359	0.3	358	359	10.4	93.1
2025-10-30T05:21	10	0	0.1	0	0	359	0.2	358	359	10.4	93.1
2025-10-30T05:22	10	0	0.1	0	0	359	0.2	359	360	10.5	93.1
2025-10-30T05:23	10	0	0.1	0	0	359	0.3	358	360	10.5	92.6
2025-10-30T05:24	10	0	0.1	0	0	359	0.2	359	360	10.5	92.9
2025-10-30T05:25	10	0	0.1	0	0	359	0.2	359	359	10.5	93.1
2025-10-30T05:26	10	0	0.1	0	0	359	0.2	358	359	10.4	93.7
2025-10-30T05:27	10	0	0.1	0	0	359	0.2	358	359	10.4	93.7
2025-10-30T05:28	10	0	0.1	0	0	359	0.3	358	360	10.4	93.7
2025-10-30T05:29	10	0	0.1	0	0	359	0.2	359	360	10.4	93.5
2025-10-30T05:30	10	0	0.1	0	0	359	0.2	358	360	10.5	93.4
2025-10-30T05:31	10	0	0.1	0	0	359	0.2	359	360	10.4	93.8
2025-10-30T05:32	10	0	0.1	0	0	359	0.2	358	359	10.4	93.8
2025-10-30T05:33	10	0	0.1	0	0	359	0.2	358	359	10.4	93.6
2025-10-30T05:34	10	0	0.1	0	0	359	0.2	359	359	10.4	93.7
2025-10-30T05:35	10	0	0.1	0	0	359	0.2	359	360	10.4	93.7
2025-10-30T05:36	10	0	0.1	0	0	359	0.2	358	360	10.4	93.9
2025-10-30T05:37	10	0	0.1	0	0	359	0.2	358	360	10.4	94.2
2025-10-30T05:38	10	0	0.1	0	0	359	0.2	359	360	10.4	94.4
2025-10-30T05:39	10	0	0.1	0	0	359	0.2	359	360	10.4	94.2
2025-10-30T05:40	10	0	0.1	0	0	359	0.2	359	360	10.4	94.0
2025-10-30T05:41	10	0	0.1	0	0	359	0.2	359	360	10.4	93.8
2025-10-30T05:42	10	0	0.1	0	0	359	0.2	359	360	10.4	93.9
2025-10-30T05:43	10	0	0.1	0	0	359	0.2	359	360	10.4	94.1
2025-10-30T05:44	10	0	0.1	0	0	359	0.2	359	360	10.4	93.6
2025-10-30T05:45	10	0	0.1	0	0	359	0.2	359	360	10.4	93.3
2025-10-30T05:46	10	0	0.1	0	0	359	0.2	359	360	10.4	93.1
2025-10-30T05:47	10	0	0.1	0	0	359	0.2	359	360	10.4	92.9
2025-10-30T05:48	10	0	0.1	0	0	359	0.2	358	359	10.4	93.4
2025-10-30T05:49	10	0	0.1	0	0	359	0.2	359	359	10.3	94.1
2025-10-30T05:50	10	0	0.1	0	0	359	0.2	358	360	10.3	94.1
2025-10-30T05:51	10	0	0.1	0	0	359	0.3	358	359	10.3	93.9
2025-10-30T05:52	10	0	0.1	0	0	359	0.2	358	359	10.3	93.8
2025-10-30T05:53	10	0	0.1	0	0	359	0.2	358	359	10.2	94.4
2025-10-30T05:54	10	0	0.1	0	0	358	0.2	358	359	10.1	95.2
2025-10-30T05:55	10	0	0.1	0	0	358	0.2	358	359	10.0	95.7
2025-10-30T05:56	10	0	0.1	0	0	358	0.2	358	359	10.0	95.9
2025-10-30T05:57	10	0	0.1	0	0	358	0.3	357	359	9.9	95.9
2025-10-30T05:58	10	0	0.1	0	0	358	0.2	358	358	9.9	96.1
2025-10-30T05:59	10	0	0.1	0	0	358	0.2	357	358	9.9	96.0
2025-10-30T06:00	10	0	0.1	0	0	358	0.2	358	358	9.9	96.1
2025-10-30T06:01	10	0	0.1	0	0	358	0.2	357	358	9.9	96.1
2025-10-30T06:02	10	0	0.1	0	0	358	0.2	357	358	9.9	95.9
2025-10-30T06:03	10	0	0.1	0	0	358	0.2	357	358	9.9	95.8
2025-10-30T06:04	10	0	0.1	0	0	358	0.2	358	359	9.9	95.8
2025-10-30T06:05	10	0	0.1	0	0	358	0.3	358	359	9.9	96.0
2025-10-30T06:06	10	0	0.1	0	0	358	0.2	358	359	10.0	95.6
2025-10-30T06:07	10	0	0.1	0	0	358	0.2	358	359	10.1	95.1
2025-10-30T06:08	10	0	0.1	0	0	358	0.2	358	359	10.1	95.2
2025-10-30T06:09	10	0	0.1	0	0	358	0.2	358	359	10.1	95.1
2025-10-30T06:10	10	0	0.1	0	0	359	0.2	358	359	10.1	95.4
2025-10-30T06:11	10	0	0.1	0	0	359	0.2	358	359	10.2	95.0
2025-10-30T06:12	10	0	0.1	0	0	359	0.2	358	359	10.3	94.3
2025-10-30T06:13	10	0	0.1	0	0	359	0.2	358	359	10.3	94.4
2025-10-30T06:14	10	0	0.1	0	0	359	0.2	358	359	10.3	94.5
2025-10-30T06:15	10	0	0.1	0	0	359	0.2	358	359	10.3	94.4
2025-10-30T06:16	10	0	0.1	0	0	359	0.2	359	360	10.3	94.0
2025-10-30T06:17	10	0	0.1	0	0	359	0.2	359	360	10.4	93.7
2025-10-30T06:18	10	0	0.1	0	0	359	0.2	359	360	10.4	93.8
2025-10-30T06:19	10	0	0.1	0	0	359	0.2	359	360	10.4	93.5
2025-10-30T06:20	10	0	0.1	0	0	359	0.2	359	360	10.5	92.4
2025-10-30T06:21	10	0	0.1	0	0	359	0.4	359	360	10.5	92.8
2025-10-30T06:22	10	0	0.1	0	0	359	0.3	358	360	10.3	94.3
2025-10-30T06:23	10	0	0.1	0	0	359	0.3	358	359	10.3	94.7
2025-10-30T06:24	10	0	0.1	0	0	359	0.3	358	359	10.2	94.9
2025-10-30T06:25	10	0	0.1	-1	0	359	0.2	359	360	10.3	93.8
2025-10-30T06:26	10	-1	0.1	-1	0	359	0.2	358	360	10.4	93.5
2025-10-30T06:27	10	-1	0.1	-1	-1	359	0.2	358	359	10.3	94.1
2025-10-30T06:28	10	-1	0.1	-1	-1	359	0.2	358	359	10.2	94.4
2025-10-30T06:29	10	-1	0.1	-1	-1	359	0.3	358	359	10.3	94.0
2025-10-30T06:30	10	-1	0.1	-1	-1	359	0.2	358	359	10.3	93.9
2025-10-30T06:31	10	-1	0.1	-1	-1	358	0.3	358	359	10.3	93.9
2025-10-30T06:32	10	-1	0.1	-1	-1	359	0.3	358	359	10.3	94.2
2025-10-30T06:33	10	-1	0.1	-1	-1	359	0.2	359	359	10.3	94.1
2025-10-30T06:34	10	-1	0.1	-1	-1	359	0.3	358	359	10.3	94.1
2025-10-30T06:35	10	-1	0.1	-1	-1	359	0.2	358	359	10.2	94.7
2025-10-30T06:36	10	-1	0.1	-1	-1	359	0.3	358	359	10.2	94.9
2025-10-30T06:37	10	-1	0.1	-1	-1	359	0.2	358	359	10.1	92.0
2025-10-30T06:38	10	-1	0.1	-1	-1	359	0.2	358	359	10.2	95.1
2025-10-30T06:39	10	-1	0.1	-1	0	358	0.2	358	359	9.8	91.8
2025-10-30T06:40	10	-1	0.1	-1	0	358	0.2	358	359	10.2	90.4
2025-10-30T06:41	10	0	0.1	-1	0	358	0.2	358	359	10.2	93.5
2025-10-30T06:42	10	0	0.1	-1	0	359	0.2	358	359	10.2	95.1
2025-10-30T06:43	10	0	0.1	0	0	359	0.2	358	359	10.2	95.1
2025-10-30T06:44	10	0	0.1	0	0	359	0.2	358	359	10.2	95.1
2025-10-30T06:45	10	0	0.1	0	1	359	0.3	358	359	10.1	95.6
2025-10-30T06:46	10	1	0.1	0	1	359	0.2	358	359	10.1	96.0
2025-10-30T06:47	10	1	0.1	1	1	359	0.3	358	359	10.1	96.1
2025-10-30T06:48	10	1	0.1	1	1	359	0.2	358	359	10.1	96.2
2025-10-30T06:49	10	1	0.1	1	2	359	0.2	358	359	10.1	96.3
2025-10-30T06:50	10	2	0.1	1	2	359	0.2	358	359	10.1	96.1
2025-10-30T06:51	10	2	0.1	2	2	359	0.2	358	359	10.1	95.9
2025-10-30T06:52	10	2	0.1	2	2	359	0.2	358	359	10.1	96.1
2025-10-30T06:53	10	3	0.1	2	3	359	0.2	358	359	10.0	96.6
2025-10-30T06:54	10	3	0.1	3	3	359	0.2	358	359	10.0	96.5
2025-10-30T06:55	10	3	0.1	3	3	359	0.2	358	359	10.0	96.5
2025-10-30T06:56	10	4	0.2	3	4	359	0.3	359	360	10.0	96.6
2025-10-30T06:57	10	4	0.2	4	5	359	0.2	359	359	10.0	96.2
2025-10-30T06:58	10	5	0.2	5	5	359	0.3	358	360	10.0	96.3
2025-10-30T06:59	10	5	0.1	5	6	359	0.2	359	360	10.0	96.4
2025-10-30T07:00	10	6	0.1	5	6	359	0.2	359	360	10.0	96.0
2025-10-30T07:01	10	6	0.1	6	6	360	0.3	359	360	10.0	96.4
2025-10-30T07:02	10	6	0.2	6	7	360	0.2	359	360	10.0	96.6
2025-10-30T07:03	10	7	0.3	7	8	360	0.2	359	360	10.0	96.7
2025-10-30T07:04	10	8	0.3	8	9	360	0.1	360	360	10.0	96.3
2025-10-30T07:05	10	9	0.2	9	9	360	0.2	359	360	10.0	96.2
2025-10-30T07:06	10	10	0.3	10	10	360	0.3	359	361	10.0	96.2
2025-10-30T07:07	10	11	0.5	11	12	360	0.3	360	361	10.0	95.9
2025-10-30T07:08	10	13	0.6	12	14	360	0.3	360	361	10.0	95.4
2025-10-30T07:09	10	15	0.6	14	16	361	0.3	360	361	10.0	95.8
2025-10-30T07:10	10	17	0.4	16	17	361	0.3	361	362	10.0	96.0
2025-10-30T07:11	10	18	0.3	17	19	362	0.2	361	362	10.0	96.0
2025-10-30T07:12	10	19	0.3	19	20	362	0.3	361	362	10.0	95.7
2025-10-30T07:13	10	20	0.4	19	21	362	0.3	361	362	10.0	95.3
2025-10-30T07:14	10	21	0.4	21	22	362	0.2	362	363	10.1	95.4
2025-10-30T07:15	10	22	0.2	21	22	362	0.2	361	362	10.1	95.1
2025-10-30T07:16	10	20	0.4	20	21	362	0.2	362	363	10.1	95.3
2025-10-30T07:17	10	19	0.5	18	20	362	0.2	362	363	10.1	95.5
2025-10-30T07:18	10	17	0.5	17	18	363	0.2	362	363	10.1	95.3
2025-10-30T07:19	10	16	0.4	15	17	362	0.2	362	363	10.1	95.4
2025-10-30T07:20	10	15	0.2	14	15	362	0.2	362	363	10.1	95.8
2025-10-30T07:21	10	14	0.1	14	14	362	0.2	362	363	10.1	95.9
2025-10-30T07:22	10	14	0.2	13	14	362	0.2	361	362	10.1	95.5
2025-10-30T07:23	10	13	0.2	13	14	362	0.2	361	362	10.1	95.8
2025-10-30T07:24	10	12	0.3	12	13	362	0.3	361	363	10.1	95.5
2025-10-30T07:25	10	11	0.3	11	12	361	0.3	360	362	10.1	95.4
2025-10-30T07:26	10	11	0.1	10	11	361	0.3	360	361	10.1	95.5
2025-10-30T07:27	10	11	0.4	11	12	361	0.3	360	361	10.1	94.6
2025-10-30T07:28	10	13	0.2	12	13	361	0.3	360	361	10.1	94.5
2025-10-30T07:29	10	12	0.2	12	13	361	0.3	360	362	10.1	94.5
2025-10-30T07:30	10	11	0.3	11	12	361	0.3	361	362	10.1	95.0
2025-10-30T07:31	10	10	0.5	9	11	361	0.2	361	362	10.1	95.0
2025-10-30T07:32	10	9	0.3	8	9	361	0.2	361	362	10.1	95.0
2025-10-30T07:33	10	8	0.1	8	8	361	0.3	360	361	10.1	94.4
2025-10-30T07:34	10	7	0.1	7	8	361	0.3	360	361	10.1	94.7
2025-10-30T07:35	10	8	0.1	7	8	360	0.2	360	361	10.1	94.8
2025-10-30T07:36	10	8	0.1	7	8	360	0.2	360	361	10.1	94.3
2025-10-30T07:37	10	7	0.1	7	7	360	0.3	360	361	10.1	94.8
2025-10-30T07:38	10	7	0.1	7	8	360	0.3	359	361	10.1	94.2
2025-10-30T07:39	10	7	0.1	7	8	360	0.3	359	361	10.1	94.1
2025-10-30T07:40	10	7	0.1	7	7	360	0.3	360	361	10.1	94.3
2025-10-30T07:41	10	7	0.1	7	8	360	0.2	360	361	10.1	94.4
2025-10-30T07:42	10	7	0.1	7	8	360	0.2	360	361	10.0	94.7
2025-10-30T07:43	10	7	0.1	7	7	360	0.2	359	360	10.0	94.3
2025-10-30T07:44	10	7	0.1	7	8	360	0.3	360	361	10.0	94.2
2025-10-30T07:45	10	8	0.2	7	8	360	0.2	360	361	10.0	93.9
2025-10-30T07:46	10	8	0.2	8	9	360	0.2	360	361	10.0	93.6
2025-10-30T07:47	10	9	0.2	9	9	360	0.2	360	361	10.0	93.6
2025-10-30T07:48	10	9	0.1	9	10	361	0.3	360	361	10.0	93.7
2025-10-30T07:49	10	10	0.2	9	10	361	0.3	360	361	10.0	94.2
2025-10-30T07:50	10	10	0.2	10	11	361	0.2	361	361	10.0	94.2
2025-10-30T07:51	10	11	0.3	10	11	361	0.2	361	362	10.0	94.4
2025-10-30T07:52	10	12	0.2	11	12	361	0.3	360	362	10.0	94.2
2025-10-30T07:53	10	12	0.1	12	13	361	0.2	360	361	10.1	93.6
2025-10-30T07:54	10	13	0.2	12	13	361	0.3	360	361	10.1	93.1
2025-10-30T07:55	10	14	0.4	13	14	361	0.2	360	361	10.1	93.5
2025-10-30T07:56	10	16	0.6	15	17	361	0.2	360	361	10.1	93.5
2025-10-30T07:57	10	18	0.7	17	19	361	0.3	360	361	10.1	94.0
2025-10-30T07:58	10	20	0.5	19	21	361	0.3	361	362	10.1	94.4
2025-10-30T07:59	10	21	0.2	20	21	362	0.3	361	362	10.0	94.5
2025-10-30T08:00	10	21	0.1	20	21	362	0.3	362	363	10.0	94.3
2025-10-30T08:01	10	20	0.2	20	21	362	0.2	362	363	10.0	94.3
2025-10-30T08:02	10	20	0.2	19	20	363	0.2	362	363	10.0	94.8
2025-10-30T08:03	10	19	0.1	19	20	363	0.2	362	363	10.0	94.9
2025-10-30T08:04	10	20	0.4	20	21	363	0.3	362	364	10.0	94.9
2025-10-30T08:05	10	22	0.7	21	23	364	0.3	363	364	10.0	94.9
2025-10-30T08:06	10	24	0.7	23	26	364	0.3	364	365	10.1	94.9
2025-10-30T08:07	10	26	0.4	26	27	365	0.3	364	365	10.1	94.8
2025-10-30T08:08	10	27	0.1	27	27	365	0.3	365	366	10.1	94.6
2025-10-30T08:09	10	27	0.2	26	27	366	0.3	365	366	10.1	94.5
2025-10-30T08:10	10	26	0.3	26	26	366	0.2	365	366	10.1	94.6
2025-10-30T08:11	10	25	0.5	24	26	366	0.3	365	367	10.2	94.8
2025-10-30T08:12	10	24	0.2	23	24	365	0.3	364	366	10.2	94.0
2025-10-30T08:13	10	23	0.1	23	23	365	0.3	364	366	10.2	93.4
2025-10-30T08:14	10	23	0.1	23	24	365	0.3	364	366	10.2	93.1
2025-10-30T08:15	10	23	0.1	23	24	365	0.2	364	365	10.3	92.9
2025-10-30T08:16	10	23	0.1	23	24	365	0.2	365	365	10.3	93.0
2025-10-30T08:17	10	23	0.1	23	24	365	0.2	364	365	10.3	92.2
2025-10-30T08:18	10	24	0.2	23	24	365	0.3	364	366	10.4	92.3
2025-10-30T08:19	10	25	0.4	24	25	365	0.2	365	366	10.4	92.9
2025-10-30T08:20	10	26	0.5	25	27	366	0.3	365	366	10.3	92.6
2025-10-30T08:21	10	28	0.5	27	29	366	0.2	365	366	10.3	92.9
2025-10-30T08:22	10	30	0.4	29	31	366	0.3	366	367	10.4	93.2
2025-10-30T08:23	10	31	0.2	30	31	367	0.4	366	368	10.4	93.0
2025-10-30T08:24	10	31	0.1	31	31	367	0.2	367	368	10.4	93.1
2025-10-30T08:25	10	31	0.2	30	31	367	0.3	367	368	10.4	92.7
2025-10-30T08:26	10	30	0.2	30	30	368	0.3	367	368	10.4	92.7
2025-10-30T08:27	10	30	0.2	30	31	368	0.3	367	368	10.5	92.7
2025-10-30T08:28	10	31	0.5	31	32	368	0.4	367	369	10.5	92.0
2025-10-30T08:29	10	32	0.3	32	33	368	0.3	367	368	10.6	91.4
2025-10-30T08:30	10	34	0.4	33	34	369	0.6	368	370	10.6	91.5
2025-10-30T08:31	10	35	0.6	34	36	369	0.4	367	369	10.7	92.3
2025-10-30T08:32	10	37	0.6	36	38	368	0.2	368	369	10.6	91.8
2025-10-30T08:33	10	40	1.5	38	45	369	0.3	368	370	10.6	91.9
2025-10-30T08:34	10	52	6.0	44	61	370	0.6	368	371	10.6	91.8
2025-10-30T08:35	10	49	3.9	44	55	370	0.4	370	371	10.6	92.1
2025-10-30T08:36	10	49	2.5	45	54	371	0.2	371	372	10.7	92.0
2025-10-30T08:37	10	45	0.2	45	46	371	0.2	371	372	10.7	92.3
2025-10-30T08:38	10	47	0.4	46	47	372	0.3	372	373	10.8	92.1
2025-10-30T08:39	10	47	0.5	46	47	372	0.5	371	373	10.8	92.3
2025-10-30T08:40	10	45	0.3	45	46	372	0.4	371	372	10.8	91.4
2025-10-30T08:41	10	44	0.8	43	45	371	0.2	371	372	10.8	91.4
2025-10-30T08:42	10	42	0.5	41	43	372	0.2	371	372	10.8	91.0
2025-10-30T08:43	10	41	0.1	41	41	371	0.3	371	372	10.8	91.4
2025-10-30T08:44	10	43	1.0	41	44	371	0.3	371	372	10.8	91.6
2025-10-30T08:45	10	45	0.4	44	46	372	0.3	371	373	10.9	91.5
2025-10-30T08:46	10	47	1.1	46	49	373	0.5	372	374	10.9	91.6
2025-10-30T08:47	10	52	1.3	49	53	374	0.2	373	374	10.9	91.5
2025-10-30T08:48	10	53	0.2	52	53	374	0.2	374	374	10.9	91.1
2025-10-30T08:49	10	52	0.6	51	53	374	0.2	374	375	10.9	91.2
2025-10-30T08:50	10	51	0.3	51	52	374	0.2	374	374	11.0	91.3
2025-10-30T08:51	10	51	0.4	51	52	374	0.4	374	375	11.0	91.2
2025-10-30T08:52	10	55	2.3	52	60	375	0.3	375	376	11.1	91.5
2025-10-30T08:53	10	57	2.8	53	65	376	0.3	375	376	11.1	91.5
2025-10-30T08:54	10	77	11.7	66	102	377	0.9	376	379	11.2	91.0
2025-10-30T08:55	10	104	8.1	95	125	381	1.3	378	384	11.3	91.8
2025-10-30T08:56	10	124	5.2	112	130	384	0.7	383	386	11.4	91.0
2025-10-30T08:57	10	118	6.0	109	126	386	0.4	385	387	11.5	90.5
2025-10-30T08:58	10	119	5.4	110	126	387	0.6	386	388	11.6	90.3
2025-10-30T08:59	10	122	3.8	116	128	388	0.4	387	388	11.8	89.9
2025-10-30T09:00	10	119	6.8	98	127	388	0.6	387	389	11.8	89.1
2025-10-30T09:01	10	65	9.8	57	96	384	2.6	380	389	11.8	88.4
2025-10-30T09:02	10	82	11.2	68	110	382	0.4	381	383	11.7	87.2
2025-10-30T09:03	10	71	21.8	50	110	382	1.7	379	384	11.7	87.8
2025-10-30T09:04	10	46	1.9	43	50	378	1.1	376	380	11.7	88.3
2025-10-30T09:05	10	42	0.7	41	43	377	1.0	375	378	11.6	87.4
2025-10-30T09:06	10	41	0.4	40	41	375	0.4	375	376	11.6	88.5
2025-10-30T09:07	10	39	0.7	38	40	374	0.5	374	375	11.6	88.3
2025-10-30T09:08	10	37	0.3	37	38	373	0.4	373	374	11.5	88.6
2025-10-30T09:09	10	36	0.2	36	37	373	0.2	372	373	11.5	88.7
2025-10-30T09:10	10	35	0.6	34	36	372	0.4	371	373	11.5	89.0
2025-10-30T09:11	10	33	0.7	32	34	371	0.4	370	372	11.5	88.5
2025-10-30T09:12	10	31	0.1	31	32	371	0.2	370	371	11.5	88.4
2025-10-30T09:13	10	33	0.7	32	34	370	0.2	370	371	11.5	89.5
2025-10-30T09:14	10	34	0.8	34	36	370	0.2	370	371	11.5	89.3
2025-10-30T09:15	10	35	0.9	34	36	370	0.2	370	371	11.6	88.5
2025-10-30T09:16	10	35	0.8	34	36	370	0.3	370	371	11.5	88.2
2025-10-30T09:17	10	35	0.9	34	38	370	0.2	370	371	11.5	88.7
2025-10-30T09:18	10	35	1.1	34	38	371	0.3	370	371	11.6	88.8
2025-10-30T09:19	10	36	0.3	36	37	371	0.2	370	371	11.6	89.5
2025-10-30T09:20	10	37	1.4	35	39	371	0.3	370	372	11.7	88.6
2025-10-30T09:21	10	41	0.6	39	41	372	0.3	371	373	11.7	87.9
2025-10-30T09:22	10	35	3.2	32	42	372	0.4	371	373	11.8	87.4
2025-10-30T09:23	10	30	0.6	30	32	371	0.3	371	372	11.8	87.0
2025-10-30T09:24	10	30	0.5	30	31	371	0.2	370	371	11.8	86.5
2025-10-30T09:25	10	32	0.6	31	33	371	0.4	371	372	11.8	87.0
2025-10-30T09:26	10	34	0.7	34	36	372	0.3	372	373	11.9	87.3
2025-10-30T09:27	10	37	0.8	35	38	373	0.3	372	373	11.9	88.1
2025-10-30T09:28	10	40	1.2	38	43	374	0.4	373	375	11.8	87.4
2025-10-30T09:29	10	45	2.7	42	52	375	0.3	374	375	11.8	86.5
2025-10-30T09:30	10	50	3.9	46	57	376	0.3	375	377	11.9	79.5
2025-10-30T09:31	10	45	0.4	45	46	376	0.2	376	377	11.9	81.2
2025-10-30T09:32	10	47	1.3	45	49	376	0.3	376	377	11.9	83.6
2025-10-30T09:33	10	54	2.8	49	57	378	0.5	377	379	11.9	85.9
2025-10-30T09:34	10	55	2.0	52	57	379	0.3	378	379	12.0	83.7
2025-10-30T09:35	10	56	2.0	54	61	379	0.3	379	380	12.0	84.8
2025-10-30T09:36	10	56	1.7	52	58	379	0.3	379	380	12.0	82.8
2025-10-30T09:37	10	50	0.6	50	52	379	0.4	378	380	12.0	85.0
2025-10-30T09:38	10	52	1.7	50	57	378	0.3	378	379	12.1	82.4
2025-10-30T09:39	10	59	2.2	56	63	379	0.3	378	380	12.1	83.7
2025-10-30T09:40	10	58	1.2	56	59	379	0.2	379	380	12.1	81.4
2025-10-30T09:41	10	63	2.2	59	67	380	0.4	379	381	12.2	83.0
2025-10-30T09:42	10	78	5.4	67	87	382	1.1	380	384	12.2	82.7
2025-10-30T09:43	10	93	9.6	79	110	385	1.0	384	387	12.3	82.2
2025-10-30T09:44	10	82	10.5	68	104	386	0.7	385	387	12.4	80.6
2025-10-30T09:45	10	97	15.3	78	121	387	1.5	385	390	12.5	81.6
2025-10-30T09:46	10	98	7.6	86	114	388	0.4	387	389	12.4	79.0
2025-10-30T09:47	10	100	11.8	85	127	389	0.6	387	390	12.4	79.9
2025-10-30T09:48	10	130	2.8	125	136	392	0.8	390	393	12.4	80.9
2025-10-30T09:49	10	142	1.1	138	143	394	0.7	392	395	12.3	79.4
2025-10-30T09:50	10	139	1.8	136	142	395	0.4	394	396	12.3	79.2
2025-10-30T09:51	10	113	10.5	101	138	394	1.5	392	397	12.4	78.7
2025-10-30T09:52	10	93	7.3	87	113	393	1.0	391	395	12.5	79.8
2025-10-30T09:53	10	93	6.2	84	106	392	0.4	391	392	12.5	80.7
2025-10-30T09:54	10	78	3.4	73	83	390	1.2	388	393	12.5	80.2
2025-10-30T09:55	10	102	10.2	83	122	391	1.1	389	392	12.5	76.9
2025-10-30T09:56	10	110	10.1	96	127	393	0.4	392	394	12.8	75.9
2025-10-30T09:57	10	116	7.5	103	128	394	0.5	394	395	13.0	76.3
2025-10-30T09:58	10	137	2.9	129	140	397	1.0	394	398	13.1	75.1
2025-10-30T09:59	10	140	2.2	137	143	399	0.5	398	400	13.0	75.0
2025-10-30T10:00	10	143	0.2	143	144	400	0.3	400	401	13.0	75.2
2025-10-30T10:01	10	143	0.3	142	143	400	0.2	400	401	13.1	76.4
2025-10-30T10:02	10	140	1.2	139	142	400	0.2	400	401	13.2	76.3
2025-10-30T10:03	10	137	1.1	135	139	400	0.4	400	401	13.3	75.5
2025-10-30T10:04	10	135	0.8	134	136	400	0.4	400	401	13.4	75.4
2025-10-30T10:05	10	133	0.3	133	134	400	0.2	400	401	13.3	75.9
2025-10-30T10:06	10	133	0.4	133	134	400	0.3	400	401	13.4	74.9
2025-10-30T10:07	10	135	0.5	134	136	401	0.3	400	402	13.4	74.5
2025-10-30T10:08	10	137	0.6	136	138	402	0.3	401	402	13.8	73.8
2025-10-30T10:09	10	139	0.6	138	140	403	0.3	402	404	14.4	72.9
2025-10-30T10:10	10	140	0.2	140	141	403	0.5	402	404	14.2	73.9
2025-10-30T10:11	10	141	0.4	141	142	402	1.1	400	404	13.5	75.0
2025-10-30T10:12	10	143	0.5	142	144	401	0.4	400	402	13.3	75.7
2025-10-30T10:13	10	145	0.6	144	146	403	0.3	402	403	13.2	75.6
2025-10-30T10:14	10	148	1.6	146	151	403	0.8	402	404	13.1	76.7
2025-10-30T10:15	10	152	1.0	151	154	402	0.4	401	402	12.9	75.8
2025-10-30T10:16	10	142	8.9	126	152	403	0.5	402	404	12.9	76.0
2025-10-30T10:17	10	122	8.0	109	133	404	0.7	403	405	13.0	77.5
2025-10-30T10:18	10	120	1.7	117	122	403	0.5	402	404	13.1	76.9
2025-10-30T10:19	10	101	12.4	84	120	401	1.2	399	403	13.2	76.8
2025-10-30T10:20	10	100	5.6	90	110	401	0.4	400	401	13.4	77.8
2025-10-30T10:21	10	121	9.9	99	133	402	0.8	400	403	13.5	76.0
2025-10-30T10:22	10	88	4.5	82	98	398	2.0	396	402	13.1	76.2
2025-10-30T10:23	10	78	1.6	76	82	395	1.3	393	398	12.9	78.0
2025-10-30T10:24	10	90	5.3	79	96	394	0.5	393	395	12.8	77.5
2025-10-30T10:25	10	97	7.1	86	106	394	0.8	393	395	12.9	79.1
2025-10-30T10:26	10	86	2.7	83	91	393	0.5	393	395	12.8	77.7
2025-10-30T10:27	10	98	5.9	91	109	395	0.8	394	396	12.8	78.2
2025-10-30T10:28	10	105	3.1	101	112	395	0.4	395	396	12.9	77.1
2025-10-30T10:29	10	120	8.8	102	132	397	1.0	395	399	12.8	76.2
2025-10-30T10:30	10	123	13.8	100	139	397	1.2	395	399	12.8	75.2
2025-10-30T10:31	10	137	5.6	130	149	399	0.6	398	400	12.8	75.7
2025-10-30T10:32	10	147	6.5	135	156	401	1.3	398	404	12.9	75.7
2025-10-30T10:33	10	141	6.5	130	155	402	0.9	400	403	13.1	74.6
2025-10-30T10:34	10	130	8.3	118	146	402	0.6	401	403	13.1	74.9
2025-10-30T10:35	10	126	14.5	106	152	401	1.2	400	404	13.1	74.8
2025-10-30T10:36	10	147	11.1	127	162	405	1.3	403	407	13.4	76.3
2025-10-30T10:37	10	154	8.9	132	167	406	0.7	405	408	13.6	76.9
2025-10-30T10:38	10	162	10.2	150	178	407	1.8	404	409	13.5	76.0
2025-10-30T10:39	10	155	4.7	144	164	407	1.0	405	408	13.2	76.0
2025-10-30T10:40	10	146	6.3	132	156	406	0.9	405	408	13.3	76.5
2025-10-30T10:41	10	130	8.4	121	144	405	1.3	403	407	13.3	77.3
2025-10-30T10:42	10	123	10.1	111	140	403	1.2	401	405	13.1	78.1
2025-10-30T10:43	10	111	2.9	103	114	401	0.6	400	402	13.2	79.3
2025-10-30T10:44	10	89	4.9	84	102	398	1.5	396	401	13.3	78.5
2025-10-30T10:45	10	83	1.2	81	85	397	0.9	395	398	13.3	78.6
2025-10-30T10:46	10	76	2.1	74	81	395	0.5	394	396	13.5	78.5
2025-10-30T10:47	10	73	0.4	73	74	394	0.7	393	395	13.3	77.1
2025-10-30T10:48	10	74	0.4	73	74	392	0.5	391	393	12.9	75.9
2025-10-30T10:49	10	75	0.8	74	77	392	0.3	392	393	13.0	76.8
2025-10-30T10:50	10	77	1.7	75	80	393	0.3	392	394	13.0	77.0
2025-10-30T10:51	10	78	1.8	76	81	392	0.3	392	393	13.1	76.7
2025-10-30T10:52	10	82	2.6	76	85	394	0.6	392	394	13.1	77.0
2025-10-30T10:53	10	75	0.7	74	76	393	0.6	392	394	13.1	75.4
2025-10-30T10:54	10	70	2.5	65	74	391	0.4	391	392	12.9	75.2
2025-10-30T10:55	10	63	0.8	62	65	391	0.6	390	392	13.0	76.4
2025-10-30T10:56	10	69	2.2	64	72	392	0.5	391	393	13.2	76.6
2025-10-30T10:57	10	77	4.1	72	84	393	0.3	392	394	13.1	74.5
2025-10-30T10:58	10	72	6.8	63	80	393	0.4	392	394	13.0	74.9
2025-10-30T10:59	10	62	0.6	61	63	392	0.6	391	393	13.1	75.0
2025-10-30T11:00	10	63	0.5	62	64	390	0.4	389	391	13.0	73.9
2025-10-30T11:01	10	64	0.1	64	64	389	0.3	388	390	12.9	73.5
2025-10-30T11:02	10	64	0.3	64	65	389	0.3	389	390	12.9	73.7
2025-10-30T11:03	10	66	0.4	65	66	390	0.4	389	391	12.9	73.4
2025-10-30T11:04	10	68	0.7	67	69	390	0.3	390	391	13.0	73.8
2025-10-30T11:05	10	70	0.2	69	70	391	0.6	390	392	12.9	73.1
2025-10-30T11:06	10	69	0.3	69	70	391	0.3	390	391	13.0	73.7
2025-10-30T11:07	10	68	0.7	66	69	391	0.2	390	392	13.2	75.2
2025-10-30T11:08	10	66	0.5	65	67	391	0.3	390	391	13.2	74.4
2025-10-30T11:09	10	65	0.3	65	66	390	0.3	389	390	13.1	75.2
2025-10-30T11:10	10	65	0.7	64	66	388	0.6	387	390	13.0	74.8
2025-10-30T11:11	10	63	2.0	60	66	388	0.4	387	389	13.1	75.8
2025-10-30T11:12	10	65	2.7	61	68	387	0.4	386	388	13.2	75.6
2025-10-30T11:13	10	63	4.6	56	68	386	0.8	384	387	12.9	73.8
2025-10-30T11:14	10	55	0.7	54	56	384	0.4	383	385	12.8	73.2
2025-10-30T11:15	10	54	1.4	51	56	383	0.5	382	384	12.9	74.2
2025-10-30T11:16	10	50	0.8	49	52	382	0.3	381	383	13.0	74.2
2025-10-30T11:17	10	47	0.8	46	49	382	0.3	382	383	13.0	74.0
2025-10-30T11:18	10	46	0.4	45	46	382	0.3	381	383	13.0	74.4
2025-10-30T11:19	10	44	0.4	44	45	381	0.4	380	382	12.9	73.8
2025-10-30T11:20	10	43	0.3	42	44	380	0.3	379	380	12.9	73.5
2025-10-30T11:21	10	43	0.2	42	43	380	0.3	379	380	12.9	72.6
2025-10-30T11:22	10	42	0.2	42	43	380	0.3	379	380	12.9	72.9
2025-10-30T11:23	10	43	0.2	43	44	380	0.3	379	381	13.0	73.9
2025-10-30T11:24	10	44	0.3	44	45	380	0.3	379	380	13.0	73.6
2025-10-30T11:25	10	45	0.5	45	46	380	0.2	380	381	13.0	73.5
2025-10-30T11:26	10	47	0.4	46	48	381	0.5	380	382	13.0	73.7
2025-10-30T11:27	10	49	0.5	48	49	382	0.5	381	383	13.1	74.7
2025-10-30T11:28	10	51	0.7	49	52	382	0.3	381	383	13.1	73.3
2025-10-30T11:29	10	53	0.8	52	55	382	0.4	382	383	13.1	73.1
2025-10-30T11:30	10	56	0.8	54	57	383	0.4	382	384	13.1	73.5
2025-10-30T11:31	10	58	0.4	57	58	383	0.3	383	384	13.1	73.0
2025-10-30T11:32	10	60	1.0	58	61	383	0.5	383	384	13.1	72.7
2025-10-30T11:33	10	63	0.5	62	63	383	0.4	383	384	13.1	71.9
2025-10-30T11:34	10	63	0.7	63	66	384	0.3	383	384	13.1	73.2
2025-10-30T11:35	10	75	5.7	66	84	385	1.0	383	386	13.1	71.6
2025-10-30T11:36	10	63	2.4	60	69	385	0.6	384	387	13.1	72.1
2025-10-30T11:37	10	59	0.4	58	60	384	0.3	383	385	13.1	71.9
2025-10-30T11:38	10	59	0.5	58	60	384	0.3	383	385	13.1	72.5
2025-10-30T11:39	10	61	0.8	60	63	384	0.2	384	385	13.1	72.4
2025-10-30T11:40	10	66	2.2	63	69	385	0.4	384	386	13.2	72.8
2025-10-30T11:41	10	73	2.1	70	76	386	0.3	385	387	13.2	72.4
2025-10-30T11:42	10	66	2.9	63	72	386	0.2	386	387	13.2	71.9
2025-10-30T11:43	10	64	1.3	61	67	386	0.3	386	387	13.3	72.8
2025-10-30T11:44	10	60	0.6	59	61	387	0.2	386	387	13.2	71.9
2025-10-30T11:45	10	59	0.2	59	59	386	0.3	386	387	13.3	72.8
2025-10-30T11:46	10	59	0.1	59	59	387	0.3	386	387	13.3	72.3
2025-10-30T11:47	10	59	0.2	59	60	386	0.3	385	387	13.2	70.9
2025-10-30T11:48	10	60	0.1	60	60	386	0.2	386	387	13.2	72.2
2025-10-30T11:49	10	60	0.3	60	61	386	0.3	385	387	13.2	71.9
2025-10-30T11:50	10	63	1.5	61	67	386	0.4	385	387	13.1	71.2
2025-10-30T11:51	10	77	8.0	67	95	386	0.8	385	389	13.1	70.7
2025-10-30T11:52	10	91	8.1	79	104	389	0.6	387	390	13.2	70.6
2025-10-30T11:53	10	66	4.2	62	78	388	0.9	386	390	13.2	71.3
2025-10-30T11:54	10	61	0.4	61	62	386	0.3	385	387	13.3	71.6
2025-10-30T11:55	10	62	0.9	61	64	386	0.3	386	387	13.3	70.5
2025-10-30T11:56	10	66	1.0	64	68	387	0.3	386	387	13.3	72.1
2025-10-30T11:57	10	65	0.2	65	66	387	0.3	386	388	13.3	70.8
2025-10-30T11:58	10	66	0.2	65	66	387	0.3	386	388	13.3	70.8
2025-10-30T11:59	10	64	0.9	63	66	387	0.3	387	388	13.3	71.2
2025-10-30T12:00	10	62	1.0	60	63	387	0.4	386	388	13.3	71.1
2025-10-30T12:01	10	59	0.4	58	60	387	0.3	386	388	13.2	70.9
2025-10-30T12:02	10	58	0.1	58	59	387	0.3	386	388	13.3	71.4
2025-10-30T12:03	10	59	0.2	58	59	386	0.3	385	387	13.4	71.9
2025-10-30T12:04	10	60	0.4	59	60	386	0.3	386	387	13.3	71.5
2025-10-30T12:05	10	61	0.4	60	62	386	0.3	386	387	13.4	71.7
2025-10-30T12:06	10	62	0.3	61	62	386	0.2	386	387	13.3	71.1
2025-10-30T12:07	10	63	0.5	62	64	387	0.4	386	388	13.3	70.5
2025-10-30T12:08	10	65	0.5	64	66	388	0.4	387	390	13.3	71.4
2025-10-30T12:09	10	66	0.3	65	66	389	0.4	388	390	13.4	71.1
2025-10-30T12:10	10	66	0.5	65	66	388	0.3	388	389	13.3	70.3
2025-10-30T12:11	10	64	0.7	62	65	389	0.3	388	389	13.4	71.3
2025-10-30T12:12	10	61	0.7	60	62	388	0.5	387	389	13.4	70.6
2025-10-30T12:13	10	59	0.4	59	60	388	0.3	387	388	13.3	70.7
2025-10-30T12:14	10	58	0.1	58	59	388	0.3	387	388	13.4	70.9
2025-10-30T12:15	10	58	0.1	58	59	389	0.3	388	389	13.4	71.3
2025-10-30T12:16	10	59	0.3	59	60	388	0.3	387	389	13.4	71.5
2025-10-30T12:17	10	60	0.6	60	62	388	0.3	388	389	13.5	71.7
2025-10-30T12:18	10	63	1.3	62	66	388	0.3	388	389	13.4	70.8
2025-10-30T12:19	10	66	0.8	65	67	389	0.4	388	390	13.4	70.8
2025-10-30T12:20	10	63	0.7	62	65	389	0.4	388	390	13.4	71.0
2025-10-30T12:21	10	61	0.6	60	62	389	0.3	389	390	13.3	70.5
2025-10-30T12:22	10	60	0.4	59	60	389	0.2	389	390	13.4	71.9
2025-10-30T12:23	10	59	0.1	59	59	389	0.2	389	390	13.4	71.3
2025-10-30T12:24	10	59	0.2	59	59	390	0.3	389	390	13.5	72.2
2025-10-30T12:25	10	60	0.4	59	61	389	0.4	388	390	13.6	72.6
2025-10-30T12:26	10	61	0.2	60	61	389	0.3	388	389	13.4	72.5
2025-10-30T12:27	10	61	0.1	61	61	389	0.3	388	390	13.5	74.5
2025-10-30T12:28	10	60	0.5	59	61	389	0.3	389	390	13.6	73.7
2025-10-30T12:29	10	59	0.5	58	59	388	0.5	387	389	13.3	72.6
2025-10-30T12:30	10	57	0.4	56	58	387	0.5	386	388	13.2	72.9
2025-10-30T12:31	10	56	0.3	55	56	386	0.2	386	387	13.2	73.0
2025-10-30T12:32	10	55	0.2	54	55	386	0.2	386	387	13.3	73.4
2025-10-30T12:33	10	54	0.1	54	55	387	0.2	386	387	13.3	73.3
2025-10-30T12:34	10	54	0.1	54	54	386	0.2	386	387	13.3	72.8
2025-10-30T12:35	10	54	0.2	53	54	387	0.5	386	388	13.4	74.0
2025-10-30T12:36	10	53	0.4	52	53	386	0.2	386	387	13.3	72.8
2025-10-30T12:37	10	51	0.5	50	52	386	0.4	385	387	13.3	73.2
2025-10-30T12:38	10	49	0.5	49	50	386	0.2	385	386	13.3	72.9
2025-10-30T12:39	10	48	0.3	47	49	385	0.2	385	386	13.3	72.9
2025-10-30T12:40	10	47	0.3	46	47	385	0.3	384	386	13.3	72.9
2025-10-30T12:41	10	46	0.2	46	47	385	0.3	384	385	13.3	72.3
2025-10-30T12:42	10	46	0.1	46	46	385	0.4	384	386	13.3	72.9
2025-10-30T12:43	10	46	0.1	46	46	386	0.3	385	387	13.4	74.1
2025-10-30T12:44	10	46	0.1	46	46	386	0.4	385	387	13.4	72.5
2025-10-30T12:45	10	45	0.2	45	46	386	0.3	385	386	13.3	72.3
2025-10-30T12:46	10	45	0.3	44	45	386	0.2	385	386	13.4	72.9
2025-10-30T12:47	10	44	0.4	43	44	385	0.3	385	386	13.4	73.3
2025-10-30T12:48	10	42	0.4	42	43	385	0.3	385	386	13.4	72.9
2025-10-30T12:49	10	41	0.4	40	42	385	0.3	384	386	13.4	73.1
2025-10-30T12:50	10	40	0.2	39	40	385	0.3	385	386	13.4	73.7
2025-10-30T12:51	10	39	0.1	39	40	385	0.2	384	385	13.5	73.5
2025-10-30T12:52	10	39	0.1	39	40	385	0.2	385	385	13.4	73.0
2025-10-30T12:53	10	40	0.1	39	40	385	0.4	385	386	13.4	73.7
2025-10-30T12:54	10	40	0.1	40	40	385	0.3	385	386	13.5	73.5
2025-10-30T12:55	10	39	0.2	39	40	385	0.3	384	385	13.4	72.4
2025-10-30T12:56	10	38	0.4	38	39	384	0.2	384	385	13.4	72.7
2025-10-30T12:57	10	37	0.3	37	38	384	0.3	383	384	13.4	73.3
2025-10-30T12:58	10	36	0.2	36	37	384	0.3	383	385	13.4	72.8
2025-10-30T12:59	10	36	0.1	36	36	383	0.3	383	384	13.4	72.4
2025-10-30T13:00	10	36	0.1	36	36	384	0.4	383	385	13.4	73.0
2025-10-30T13:01	10	35	0.2	35	36	385	0.3	384	385	13.5	73.4
2025-10-30T13:02	10	35	0.2	34	35	384	0.2	384	385	13.5	73.2
2025-10-30T13:03	10	34	0.2	34	35	384	0.3	383	385	13.5	72.8
2025-10-30T13:04	10	34	0.2	33	34	384	0.3	384	385	13.6	73.5
2025-10-30T13:05	10	33	0.1	33	33	385	0.4	384	385	13.6	73.0
2025-10-30T13:06	10	33	0.2	32	33	384	0.2	383	384	13.5	72.4
2025-10-30T13:07	10	32	0.1	32	32	384	0.2	384	384	13.6	73.9
2025-10-30T13:08	10	32	0.1	32	32	384	0.2	384	385	13.6	74.0
2025-10-30T13:09	10	32	0.1	31	32	384	0.3	384	385	13.6	73.2
2025-10-30T13:10	10	32	0.1	31	32	384	0.3	384	385	13.7	73.9
2025-10-30T13:11	10	31	0.1	31	31	384	0.3	383	385	13.7	74.0
2025-10-30T13:12	10	31	0.1	31	31	384	0.2	383	384	13.6	72.8
2025-10-30T13:13	10	31	0.2	31	32	384	0.2	383	384	13.6	72.6
2025-10-30T13:14	10	32	0.1	32	32	384	0.3	383	384	13.5	72.7
2025-10-30T13:15	10	32	0.1	32	32	384	0.2	383	384	13.5	72.8
2025-10-30T13:16	10	32	0.1	32	33	384	0.3	383	384	13.5	73.6
2025-10-30T13:17	10	33	0.1	32	33	383	0.2	383	384	13.5	74.4
2025-10-30T13:18	10	33	0.1	33	33	384	0.3	383	384	13.5	74.3
2025-10-30T13:19	10	33	0.1	33	34	384	0.2	383	384	13.6	74.0
2025-10-30T13:20	10	33	0.1	33	34	383	0.4	382	384	13.5	72.2
2025-10-30T13:21	10	33	0.1	33	33	382	0.2	382	383	13.5	72.8
2025-10-30T13:22	10	33	0.1	32	33	382	0.2	382	382	13.5	72.9
2025-10-30T13:23	10	32	0.1	32	33	382	0.3	381	383	13.5	72.4
2025-10-30T13:24	10	32	0.1	32	32	382	0.3	381	383	13.4	71.0
2025-10-30T13:25	10	33	0.2	32	33	382	0.3	381	383	13.4	71.7
2025-10-30T13:26	10	33	0.1	33	33	382	0.2	382	383	13.4	71.3
2025-10-30T13:27	10	33	0.1	33	34	382	0.3	382	383	13.4	72.1
2025-10-30T13:28	10	34	0.1	33	34	383	0.4	382	384	13.5	73.2
2025-10-30T13:29	10	34	0.1	34	34	383	0.3	382	384	13.5	73.6
2025-10-30T13:30	10	34	0.1	34	34	383	0.3	382	383	13.5	73.3
2025-10-30T13:31	10	35	0.2	34	35	383	0.2	382	384	13.4	72.8
2025-10-30T13:32	10	35	0.1	35	35	383	0.2	382	383	13.4	73.4
2025-10-30T13:33	10	35	0.1	35	36	383	0.3	383	384	13.5	73.8
2025-10-30T13:34	10	35	0.1	35	36	383	0.4	382	384	13.4	73.7
2025-10-30T13:35	10	35	0.1	35	36	382	0.2	382	383	13.4	74.2
2025-10-30T13:36	10	35	0.2	34	35	382	0.3	382	383	13.4	74.2
2025-10-30T13:37	10	34	0.2	34	34	382	0.2	382	383	13.4	73.7
2025-10-30T13:38	10	33	0.2	33	34	383	0.4	382	383	13.5	73.8
2025-10-30T13:39	10	33	0.2	32	33	383	0.2	383	383	13.5	75.4
2025-10-30T13:40	10	32	0.1	32	32	383	0.4	382	383	13.4	75.5
2025-10-30T13:41	10	32	0.1	31	32	382	0.6	381	383	13.3	75.6
2025-10-30T13:42	10	31	0.1	31	31	382	0.3	381	382	13.3	75.9
2025-10-30T13:43	10	31	0.1	31	31	382	0.3	382	383	13.4	76.6
2025-10-30T13:44	10	31	0.1	31	31	381	0.3	381	382	13.3	75.9
2025-10-30T13:45	10	31	0.1	31	31	381	0.3	381	382	13.3	75.8
2025-10-30T13:46	10	31	0.1	30	31	381	0.3	381	383	13.3	75.9
2025-10-30T13:47	10	31	0.1	30	31	382	0.3	381	382	13.3	76.6
2025-10-30T13:48	10	30	0.2	30	30	382	0.2	382	383	13.4	77.0
2025-10-30T13:49	10	30	0.2	29	30	382	0.3	381	382	13.4	76.3
2025-10-30T13:50	10	29	0.3	28	29	381	0.3	380	382	13.3	75.7
2025-10-30T13:51	10	28	0.2	28	29	381	0.2	380	381	13.3	75.9
2025-10-30T13:52	10	28	0.2	27	28	381	0.3	380	382	13.3	75.8
2025-10-30T13:53	10	27	0.1	27	27	380	0.2	380	381	13.3	75.6
2025-10-30T13:54	10	27	0.1	27	27	380	0.2	380	381	13.3	75.2
2025-10-30T13:55	10	27	0.1	27	27	381	0.3	380	381	13.3	76.4
2025-10-30T13:56	10	27	0.1	27	28	381	0.3	380	381	13.3	76.0
2025-10-30T13:57	10	28	0.1	27	28	381	0.2	380	381	13.3	76.9
2025-10-30T13:58	10	28	0.1	27	28	381	0.2	380	381	13.4	76.4
2025-10-30T13:59	10	27	0.1	27	28	381	0.2	380	381	13.4	76.5
2025-10-30T14:00	10	27	0.1	27	27	381	0.2	380	381	13.4	76.0
2025-10-30T14:01	10	27	0.1	27	27	381	0.2	380	381	13.3	76.4
2025-10-30T14:02	10	27	0.1	26	27	380	0.2	380	381	13.4	77.8
2025-10-30T14:03	10	27	0.1	26	27	381	0.2	380	381	13.4	77.9
2025-10-30T14:04	10	26	0.1	26	27	381	0.2	380	381	13.4	77.8
2025-10-30T14:05	10	26	0.1	26	26	381	0.3	380	381	13.4	77.8
2025-10-30T14:06	10	26	0.2	25	26	381	0.5	379	381	13.4	77.3
2025-10-30T14:07	10	25	0.2	24	25	380	0.2	380	380	13.4	76.1
2025-10-30T14:08	10	24	0.1	24	24	380	0.2	379	380	13.4	76.6
2025-10-30T14:09	10	24	0.1	24	24	380	0.2	379	380	13.4	76.5
2025-10-30T14:10	10	24	0.1	24	24	380	0.3	379	380	13.3	75.2
2025-10-30T14:11	10	24	0.1	24	24	379	0.2	378	379	13.3	75.0
2025-10-30T14:12	10	24	0.1	24	24	379	0.2	378	379	13.3	74.3
2025-10-30T14:13	10	24	0.1	24	24	379	0.3	378	380	13.4	74.8
2025-10-30T14:14	10	23	0.1	23	24	379	0.2	379	379	13.4	75.0
2025-10-30T14:15	10	23	0.2	23	23	378	0.4	377	379	13.4	74.5
2025-10-30T14:16	10	23	0.1	22	23	378	0.2	377	378	13.3	73.3
2025-10-30T14:17	10	22	0.1	22	22	378	0.3	377	378	13.3	74.1
2025-10-30T14:18	10	22	0.1	22	22	377	0.3	376	378	13.4	74.8
2025-10-30T14:19	10	21	0.1	21	22	377	0.2	376	377	13.4	75.1
2025-10-30T14:20	10	21	0.1	21	21	376	0.2	376	376	13.3	74.9
2025-10-30T14:21	10	22	0.3	21	22	376	0.2	375	376	13.3	75.8
2025-10-30T14:22	10	23	0.3	22	24	376	0.2	375	376	13.3	75.2
2025-10-30T14:23	10	24	0.2	23	24	376	0.2	375	376	13.3	75.0
2025-10-30T14:24	10	24	0.1	24	24	376	0.3	375	376	13.3	74.9
2025-10-30T14:25	10	24	0.2	24	24	375	0.2	375	375	13.3	74.3
2025-10-30T14:26	10	25	0.3	24	26	375	0.2	374	375	13.3	74.8
2025-10-30T14:27	10	27	1.5	26	31	375	0.3	375	376	13.3	75.3
2025-10-30T14:28	10	35	1.2	32	36	376	0.4	375	377	13.3	75.6
2025-10-30T14:29	10	31	2.4	28	35	376	0.4	375	377	13.3	75.1
2025-10-30T14:30	10	26	1.3	23	28	375	0.3	374	375	13.3	74.8
2025-10-30T14:31	10	22	0.8	20	23	374	0.4	373	375	13.3	75.4
2025-10-30T14:32	10	19	0.6	18	20	373	0.4	372	374	13.3	74.8
2025-10-30T14:33	10	18	0.4	17	18	372	0.4	371	373	13.3	75.3
2025-10-30T14:34	10	17	0.1	17	17	371	0.3	371	372	13.3	75.3
2025-10-30T14:35	10	17	0.3	17	18	371	0.3	370	371	13.2	75.5
2025-10-30T14:36	10	19	0.5	18	20	370	0.2	370	371	13.2	75.3
2025-10-30T14:37	10	29	6.7	20	43	371	0.7	370	372	13.2	75.4
2025-10-30T14:38	10	59	8.9	43	70	374	1.7	371	376	13.2	75.3
2025-10-30T14:39	10	69	0.6	68	70	377	0.7	375	378	13.3	75.5
2025-10-30T14:40	10	67	0.4	66	68	378	0.3	377	378	13.3	75.9
2025-10-30T14:41	10	66	0.2	66	66	378	0.2	378	379	13.3	76.2
2025-10-30T14:42	10	65	0.2	65	66	378	0.3	378	379	13.3	75.8
2025-10-30T14:43	10	64	0.3	64	65	378	0.2	378	378	13.3	76.1
2025-10-30T14:44	10	63	0.3	63	64	378	0.2	378	379	13.3	76.2
2025-10-30T14:45	10	63	0.2	63	64	379	0.2	378	379	13.4	77.0
2025-10-30T14:46	10	63	0.1	63	63	379	0.2	379	379	13.4	76.9
2025-10-30T14:47	10	63	0.3	62	63	379	0.3	378	379	13.3	76.4
2025-10-30T14:48	10	63	0.1	62	63	378	0.3	378	379	13.4	75.9
2025-10-30T14:49	10	62	0.2	62	63	378	0.3	378	379	13.4	76.1
2025-10-30T14:50	10	62	0.2	61	62	378	0.3	378	379	13.4	76.2
2025-10-30T14:51	10	61	0.3	61	61	378	0.3	378	379	13.4	76.1
2025-10-30T14:52	10	60	0.3	60	61	378	0.4	377	378	13.4	75.6
2025-10-30T14:53	10	59	0.3	58	60	378	0.2	377	378	13.4	75.6
2025-10-30T14:54	10	58	0.1	58	59	378	0.3	377	378	13.4	75.1
2025-10-30T14:55	10	57	0.3	57	58	377	0.3	377	378	13.4	75.3
2025-10-30T14:56	10	56	0.5	55	57	377	0.3	376	377	13.4	74.9
2025-10-30T14:57	10	54	0.4	54	55	376	0.4	375	377	13.4	74.7
2025-10-30T14:58	10	54	0.1	54	54	376	0.2	375	376	13.4	74.2
2025-10-30T14:59	10	54	0.1	54	54	376	0.2	375	376	13.4	74.4
2025-10-30T15:00	10	54	0.3	53	54	376	0.2	375	376	13.4	73.8
2025-10-30T15:01	10	53	0.3	52	53	375	0.2	375	376	13.4	73.3
2025-10-30T15:02	10	52	0.2	51	52	375	0.2	375	376	13.4	73.8
2025-10-30T15:03	10	51	0.4	50	52	375	0.2	374	375	13.4	74.0
2025-10-30T15:04	10	50	0.1	50	51	375	0.2	374	376	13.4	74.2
2025-10-30T15:05	10	50	0.1	50	50	375	0.3	374	375	13.4	74.4
2025-10-30T15:06	10	49	0.3	48	50	374	0.2	374	375	13.4	74.7
2025-10-30T15:07	10	48	0.3	47	48	374	0.3	373	375	13.4	73.9
2025-10-30T15:08	10	47	0.4	46	47	374	0.2	373	374	13.4	74.1
2025-10-30T15:09	10	46	0.2	46	46	374	0.2	373	374	13.4	74.1
2025-10-30T15:10	10	45	0.2	45	46	373	0.2	373	374	13.4	74.1
2025-10-30T15:11	10	45	0.1	45	45	373	0.2	373	374	13.4	74.6
2025-10-30T15:12	10	45	0.2	45	45	373	0.2	373	374	13.3	74.8
2025-10-30T15:13	10	45	0.2	44	45	373	0.2	372	374	13.3	75.7
2025-10-30T15:14	10	44	0.2	44	44	373	0.2	373	374	13.3	75.6
2025-10-30T15:15	10	43	0.3	43	44	373	0.2	372	373	13.3	75.7
2025-10-30T15:16	10	43	0.2	42	43	372	0.2	372	373	13.3	75.6
2025-10-30T15:17	10	42	0.3	41	42	372	0.2	372	373	13.3	76.3
2025-10-30T15:18	10	40	0.3	40	41	372	0.2	372	372	13.3	76.5
2025-10-30T15:19	10	39	0.2	39	40	372	0.3	371	372	13.2	76.9
2025-10-30T15:20	10	39	0.1	39	39	372	0.3	371	372	13.2	77.0
2025-10-30T15:21	10	39	0.2	38	39	371	0.2	371	372	13.2	77.3
2025-10-30T15:22	10	38	0.2	37	38	371	0.2	371	372	13.2	77.1
2025-10-30T15:23	10	36	0.5	36	37	371	0.3	370	371	13.2	77.4
2025-10-30T15:24	10	35	0.3	35	36	371	0.2	370	371	13.1	77.9
2025-10-30T15:25	10	35	0.5	33	35	370	0.3	370	371	13.1	77.9
2025-10-30T15:26	10	32	0.9	30	33	370	0.3	369	370	13.1	78.1
2025-10-30T15:27	10	30	0.1	30	30	370	0.2	369	370	13.1	78.0
2025-10-30T15:28	10	31	0.5	30	32	369	0.2	369	370	13.1	77.9
2025-10-30T15:29	10	32	0.3	32	33	369	0.2	369	370	13.1	77.7
2025-10-30T15:30	10	31	0.6	31	33	369	0.3	368	369	13.1	78.2
2025-10-30T15:31	10	31	0.2	30	31	369	0.2	368	369	13.1	78.1
2025-10-30T15:32	10	31	0.1	31	31	369	0.2	368	369	13.0	78.1
2025-10-30T15:33	10	31	0.1	31	31	368	0.2	368	369	13.0	78.3
2025-10-30T15:34	10	30	0.3	30	31	368	0.2	368	368	13.0	78.4
2025-10-30T15:35	10	28	1.3	25	30	368	0.3	367	368	12.9	79.0
2025-10-30T15:36	10	21	2.4	17	25	367	0.4	366	368	12.9	79.2
2025-10-30T15:37	10	15	0.8	14	17	366	0.4	365	367	12.8	79.4
2025-10-30T15:38	10	16	0.7	15	17	365	0.2	365	366	12.8	79.3
2025-10-30T15:39	10	19	1.0	17	21	365	0.2	364	365	12.8	79.6
2025-10-30T15:40	10	23	1.1	20	24	365	0.3	364	366	12.7	80.2
2025-10-30T15:41	10	24	0.6	22	24	365	0.3	364	366	12.7	79.7
2025-10-30T15:42	10	20	1.6	17	22	365	0.2	365	366	12.7	79.5
2025-10-30T15:43	10	14	1.7	11	17	364	0.3	364	365	12.6	79.8
2025-10-30T15:44	10	10	0.6	9	11	364	0.3	363	365	12.6	79.7
2025-10-30T15:45	10	9	0.1	9	9	363	0.3	363	364	12.6	79.9
2025-10-30T15:46	10	10	0.5	9	11	363	0.2	362	363	12.6	80.0
2025-10-30T15:47	10	12	0.4	11	13	362	0.2	362	363	12.6	79.9
2025-10-30T15:48	10	13	0.4	12	14	362	0.3	361	363	12.5	79.9
2025-10-30T15:49	10	13	0.6	12	14	362	0.3	361	363	12.5	80.4
2025-10-30T15:50	10	11	0.5	10	12	361	0.3	361	362	12.5	80.5
2025-10-30T15:51	10	13	1.4	11	15	361	0.4	360	362	12.4	80.9
2025-10-30T15:52	10	16	0.3	15	17	362	0.5	361	363	12.5	80.3
2025-10-30T15:53	10	16	0.1	16	16	362	0.3	362	363	12.5	80.2
2025-10-30T15:54	10	16	0.1	16	16	363	0.4	362	363	12.4	80.4
2025-10-30T15:55	10	15	0.2	15	16	363	0.3	363	364	12.4	80.4
2025-10-30T15:56	10	15	0.1	15	16	364	0.4	363	364	12.4	80.6
2025-10-30T15:57	10	15	0.1	15	16	364	0.4	363	365	12.4	80.3
2025-10-30T15:58	10	15	0.2	14	15	365	0.4	364	366	12.3	80.5
2025-10-30T15:59	10	14	0.5	13	14	366	0.3	365	367	12.3	80.5
2025-10-30T16:00	10	12	0.6	11	13	366	0.3	366	367	12.4	80.2
2025-10-30T16:01	10	10	0.7	8	11	367	0.2	366	367	12.4	79.9
2025-10-30T16:02	10	7	0.8	6	8	367	0.2	366	367	12.4	80.5
2025-10-30T16:03	10	5	0.4	4	6	367	0.2	366	367	12.3	80.6
2025-10-30T16:04	10	4	0.2	3	4	367	0.2	366	367	12.3	80.9
2025-10-30T16:05	10	3	0.1	3	4	367	0.2	366	367	12.3	80.9
2025-10-30T16:06	10	3	0.1	3	3	367	0.3	366	367	12.3	81.1
2025-10-30T16:07	10	3	0.1	2	3	367	0.2	366	367	12.3	80.6
2025-10-30T16:08	10	2	0.1	2	2	366	0.2	366	366	12.3	80.7
2025-10-30T16:09	10	2	0.1	2	2	366	0.3	365	367	12.3	80.5
2025-10-30T16:10	10	2	0.1	2	2	366	0.2	365	366	12.3	81.1
2025-10-30T16:11	10	2	0.1	1	2	366	0.2	365	366	12.3	80.8
2025-10-30T16:12	10	1	0.1	1	2	366	0.2	365	366	12.3	80.9
2025-10-30T16:13	10	1	0.1	1	1	366	0.3	365	367	12.2	81.2
2025-10-30T16:14	10	1	0.1	1	1	366	0.3	365	367	12.2	81.2
2025-10-30T16:15	10	1	0.1	1	1	366	0.3	366	367	12.2	81.0
2025-10-30T16:16	10	1	0.1	1	1	367	0.3	366	367	12.2	80.9
2025-10-30T16:17	10	1	0.1	1	1	367	0.2	366	367	12.2	81.4
2025-10-30T16:18	10	1	0.1	1	1	367	0.2	366	367	12.2	81.4
2025-10-30T16:19	10	1	0.1	1	1	367	0.2	367	367	12.2	81.6
2025-10-30T16:20	10	1	0.1	1	1	367	0.3	366	368	12.2	81.2
2025-10-30T16:21	10	1	0.1	1	1	367	0.2	367	368	12.2	81.5
2025-10-30T16:22	10	1	0.1	1	1	367	0.2	367	367	12.2	80.8
2025-10-30T16:23	10	1	0.1	1	1	367	0.2	367	368	12.1	81.8
2025-10-30T16:24	10	1	0.1	1	1	367	0.3	366	368	12.1	81.7
2025-10-30T16:25	10	1	0.1	1	1	367	0.2	367	368	12.1	81.6
2025-10-30T16:26	10	1	0.1	1	1	367	0.2	367	368	12.1	81.3
2025-10-30T16:27	10	1	0.1	1	1	367	0.3	367	368	12.1	81.7
2025-10-30T16:28	10	1	0.1	1	1	367	0.2	367	368	12.1	81.5
2025-10-30T16:29	10	1	0.1	1	1	367	0.2	367	368	12.2	81.4
2025-10-30T16:30	10	1	0.1	1	1	367	0.2	366	367	12.1	81.8
2025-10-30T16:31	10	1	0.1	1	1	366	0.3	366	367	12.1	81.5
2025-10-30T16:32	10	1	0.1	1	1	366	0.3	366	367	12.1	81.8
2025-10-30T16:33	10	1	0.1	0	1	366	0.3	365	366	12.1	81.8
2025-10-30T16:34	10	1	0.1	1	1	365	0.3	364	365	12.1	81.5
2025-10-30T16:35	10	1	0.1	0	1	364	0.3	364	365	12.1	81.5
2025-10-30T16:36	10	1	0.1	0	1	364	0.2	364	365	12.2	81.3
2025-10-30T16:37	10	1	0.1	0	1	364	0.3	364	365	12.2	81.0
2025-10-30T16:38	10	0	0.1	0	1	364	0.3	364	365	12.2	80.8
2025-10-30T16:39	10	1	0.1	0	1	364	0.3	364	365	12.2	81.1
2025-10-30T16:40	10	1	0.1	0	1	365	0.2	364	366	12.2	81.3
2025-10-30T16:41	10	1	0.1	0	1	365	0.2	365	366	12.2	80.8
2025-10-30T16:42	10	1	0.1	0	1	366	0.3	365	366	12.2	80.6
2025-10-30T16:43	10	1	0.1	0	1	366	0.2	365	366	12.2	81.1
2025-10-30T16:44	10	1	0.1	0	1	366	0.2	366	367	12.2	81.1
2025-10-30T16:45	10	1	0.1	0	1	366	0.2	366	367	12.2	81.1
2025-10-30T16:46	10	1	0.1	0	1	366	0.2	366	367	12.2	80.9
2025-10-30T16:47	10	1	0.1	0	1	366	0.2	366	367	12.2	80.8
2025-10-30T16:48	10	1	0.2	0	1	367	0.2	366	367	12.2	80.7
2025-10-30T16:49	10	1	0.1	0	1	366	0.2	366	367	12.2	80.4
2025-10-30T16:50	10	1	0.2	0	1	366	0.2	366	367	12.2	80.7
2025-10-30T16:51	10	1	0.1	0	1	366	0.2	366	367	12.2	80.8
2025-10-30T16:52	10	1	0.1	0	1	366	0.2	366	367	12.2	81.1
2025-10-30T16:53	10	1	0.2	0	1	366	0.3	366	367	12.2	81.0
2025-10-30T16:54	10	1	0.1	0	1	366	0.2	366	367	12.1	81.3
2025-10-30T16:55	10	1	0.2	0	1	366	0.2	366	367	12.1	81.2
2025-10-30T16:56	10	1	0.2	0	1	367	0.2	366	367	12.1	81.0
2025-10-30T16:57	10	1	0.1	0	1	366	0.2	366	367	12.1	81.1
2025-10-30T16:58	10	1	0.1	0	1	366	0.2	366	367	12.1	81.3
2025-10-30T16:59	10	1	0.1	0	1	366	0.2	366	367	12.1	80.7
2025-10-30T17:00	10	1	0.1	0	1	366	0.2	366	367	12.1	80.8
2025-10-30T17:01	10	1	0.1	1	1	366	0.2	366	367	12.2	80.5
2025-10-30T17:02	10	1	0.1	0	1	366	0.2	366	367	12.1	80.9
2025-10-30T17:03	10	1	0.1	0	1	366	0.2	366	367	12.1	81.0
2025-10-30T17:04	10	1	0.1	0	1	366	0.2	366	367	12.1	80.7
2025-10-30T17:05	10	1	0.1	0	1	367	0.3	366	367	12.2	80.2
2025-10-30T17:06	10	1	0.0	0	1	367	0.2	367	367	12.2	80.1
2025-10-30T17:07	10	1	0.0	1	1	367	0.2	366	367	12.2	80.2
2025-10-30T17:08	10	1	0.1	0	1	367	0.2	366	367	12.2	79.8
2025-10-30T17:09	10	1	0.1	0	1	367	0.2	366	367	12.2	79.7
2025-10-30T17:10	10	1	0.0	0	1	367	0.2	366	367	12.2	79.8
2025-10-30T17:11	10	1	0.1	0	1	367	0.2	366	367	12.2	80.2
2025-10-30T17:12	10	1	0.0	0	1	367	0.2	366	367	12.2	80.4
2025-10-30T17:13	10	1	0.1	0	1	367	0.2	366	367	12.1	81.0
2025-10-30T17:14	10	1	0.1	0	1	367	0.2	366	367	12.1	80.6
2025-10-30T17:15	10	1	0.0	1	1	367	0.2	366	367	12.2	80.0
2025-10-30T17:16	10	1	0.1	0	1	367	0.2	366	367	12.1	80.6
2025-10-30T17:17	10	1	0.0	1	1	367	0.2	366	367	12.1	80.6
2025-10-30T17:18	10	1	0.0	1	1	367	0.3	366	367	12.1	80.7
2025-10-30T17:19	10	1	0.1	0	1	367	0.3	367	368	12.2	79.5
2025-10-30T17:20	10	1	0.1	0	1	367	0.2	367	367	12.3	78.3
2025-10-30T17:21	10	1	0.0	0	1	367	0.2	367	368	12.4	77.4
2025-10-30T17:22	10	1	0.1	1	1	367	0.2	366	367	12.4	78.6
2025-10-30T17:23	10	1	0.1	0	1	367	0.2	366	367	12.3	78.7
2025-10-30T17:24	10	1	0.0	0	1	367	0.3	366	367	12.3	78.9
2025-10-30T17:25	10	1	0.1	0	1	367	0.2	366	367	12.3	79.1
2025-10-30T17:26	10	1	0.0	0	1	367	0.2	367	368	12.3	79.5
2025-10-30T17:27	10	1	0.0	0	1	367	0.2	366	367	12.2	79.8
2025-10-30T17:28	10	1	0.1	1	1	367	0.3	366	367	12.2	80.3
2025-10-30T17:29	10	1	0.1	0	1	367	0.2	367	367	12.2	80.4
2025-10-30T17:30	10	1	0.1	1	1	367	0.2	367	367	12.1	80.4
2025-10-30T17:31	10	1	0.1	0	1	367	0.2	366	367	12.1	80.8
2025-10-30T17:32	10	1	0.1	0	1	367	0.2	367	367	12.1	80.6
2025-10-30T17:33	10	1	0.1	0	1	367	0.3	366	368	12.1	80.8
2025-10-30T17:34	10	1	0.1	1	1	367	0.2	366	367	12.1	81.1
2025-10-30T17:35	10	1	0.0	1	1	367	0.2	366	367	12.1	81.6
2025-10-30T17:36	10	1	0.0	1	1	367	0.2	366	367	12.0	82.3
2025-10-30T17:37	10	1	0.0	0	1	367	0.2	366	367	12.0	82.8
2025-10-30T17:38	10	1	0.1	0	1	366	0.2	366	367	12.0	82.8
2025-10-30T17:39	10	1	0.0	1	1	367	0.2	366	367	12.0	82.8
2025-10-30T17:40	10	1	0.1	0	1	366	0.2	366	367	12.0	82.7
2025-10-30T17:41	10	1	0.1	0	1	367	0.2	366	367	12.0	82.1
2025-10-30T17:42	10	1	0.1	0	1	366	0.2	366	367	12.0	81.8
2025-10-30T17:43	10	1	0.1	0	1	367	0.3	366	367	12.0	82.4
2025-10-30T17:44	10	1	0.1	0	1	367	0.3	366	367	12.0	82.0
2025-10-30T17:45	10	1	0.1	0	1	366	0.2	366	367	12.0	81.5
2025-10-30T17:46	10	1	0.1	0	1	366	0.2	366	367	12.0	81.9
2025-10-30T17:47	10	1	0.1	0	1	366	0.2	365	367	12.0	82.3
2025-10-30T17:48	10	1	0.1	0	1	366	0.2	366	367	12.0	82.2
2025-10-30T17:49	10	1	0.1	0	1	366	0.2	366	367	12.0	82.0
2025-10-30T17:50	10	1	0.1	0	1	366	0.2	366	366	12.0	82.0
2025-10-30T17:51	10	1	0.1	0	1	366	0.2	366	367	11.9	82.6
2025-10-30T17:52	10	1	0.1	0	1	366	0.2	366	367	11.9	82.6
2025-10-30T17:53	10	1	0.1	0	1	366	0.3	366	367	11.9	82.6
2025-10-30T17:54	10	1	0.1	0	1	366	0.2	366	367	11.9	82.7
2025-10-30T17:55	10	1	0.1	0	1	366	0.3	366	367	12.0	81.6
2025-10-30T17:56	10	1	0.1	0	1	366	0.2	366	367	12.0	81.9
2025-10-30T17:57	10	1	0.1	0	1	366	0.3	366	367	12.0	81.4
2025-10-30T17:58	10	1	0.1	0	1	366	0.2	366	367	12.0	81.3
2025-10-30T17:59	10	1	0.1	0	1	366	0.2	366	367	12.0	81.3
2025-10-30T18:00	10	1	0.1	0	1	367	0.2	366	367	12.1	80.7
2025-10-30T18:01	10	1	0.1	0	1	366	0.2	366	367	12.1	80.7
2025-10-30T18:02	10	1	0.1	0	1	366	0.2	366	367	12.1	80.8
2025-10-30T18:03	10	1	0.1	0	1	367	0.2	366	367	12.1	80.1
2025-10-30T18:04	10	1	0.1	0	1	366	0.2	366	367	12.1	80.3
2025-10-30T18:05	10	1	0.1	0	1	367	0.3	366	367	12.1	80.0
2025-10-30T18:06	10	1	0.1	0	1	367	0.2	366	367	12.1	80.5
2025-10-30T18:07	10	1	0.1	0	1	366	0.2	366	367	12.1	80.1
2025-10-30T18:08	10	0	0.1	0	1	367	0.2	366	367	12.1	80.1
2025-10-30T18:09	10	0	0.1	0	1	367	0.2	366	367	12.1	80.2
2025-10-30T18:10	10	0	0.1	0	1	366	0.2	366	367	12.1	80.2
2025-10-30T18:11	10	0	0.1	0	1	367	0.2	366	367	12.1	80.4
2025-10-30T18:12	10	0	0.1	0	1	366	0.2	366	367	12.1	80.6
2025-10-30T18:13	10	0	0.1	0	1	366	0.2	366	367	12.1	80.3
2025-10-30T18:14	10	0	0.1	0	1	366	0.2	366	367	12.1	80.2
2025-10-30T18:15	10	0	0.1	0	1	366	0.2	366	367	12.1	80.0
2025-10-30T18:16	10	1	0.1	0	1	367	0.2	366	367	12.2	79.7
2025-10-30T18:17	10	1	0.1	0	1	366	0.2	366	367	12.2	80.3
2025-10-30T18:18	10	1	0.1	0	1	367	0.2	366	367	12.2	80.2
2025-10-30T18:19	10	1	0.0	1	1	366	0.2	366	367	12.2	80.2
2025-10-30T18:20	10	1	0.1	0	1	366	0.2	366	367	12.2	80.1
2025-10-30T18:21	10	0	0.1	0	1	366	0.2	366	367	12.1	80.6
2025-10-30T18:22	10	0	0.1	0	1	366	0.2	366	367	12.1	80.7
2025-10-30T18:23	10	0	0.1	0	1	367	0.2	366	367	12.1	81.1
2025-10-30T18:24	10	0	0.1	0	1	366	0.3	366	367	12.1	81.5
2025-10-30T18:25	10	0	0.1	0	1	366	0.2	366	367	12.0	81.7
2025-10-30T18:26	10	0	0.1	0	1	366	0.2	366	367	12.0	82.1
2025-10-30T18:27	10	0	0.1	0	1	366	0.2	365	367	12.0	82.3
2025-10-30T18:28	10	0	0.1	0	1	366	0.2	366	367	11.9	82.8
2025-10-30T18:29	10	0	0.1	0	1	366	0.2	366	367	11.9	82.6
2025-10-30T18:30	10	0	0.1	0	1	366	0.2	366	367	12.0	82.3
2025-10-30T18:31	10	0	0.0	0	1	366	0.2	366	366	12.0	82.3
2025-10-30T18:32	10	1	0.0	0	1	366	0.2	366	367	12.0	82.4
2025-10-30T18:33	10	0	0.0	0	1	366	0.3	365	367	12.0	82.3
2025-10-30T18:34	10	0	0.1	0	1	366	0.2	366	367	12.0	82.2
2025-10-30T18:35	10	0	0.1	0	1	366	0.2	366	367	12.0	81.8
2025-10-30T18:36	10	0	0.1	0	1	366	0.2	366	367	12.0	77.6
2025-10-30T18:37	10	1	0.1	0	1	366	0.2	366	367	11.9	79.0
2025-10-30T18:38	10	1	0.1	0	1	366	0.2	366	366	12.0	81.7
2025-10-30T18:39	10	1	0.1	1	1	366	0.2	366	367	12.0	81.7
2025-10-30T18:40	10	1	0.1	0	1	366	0.2	365	366	12.0	81.7
2025-10-30T18:41	10	1	0.1	0	1	366	0.2	365	366	12.0	81.7
2025-10-30T18:42	10	1	0.1	0	1	366	0.2	366	366	12.0	81.7
2025-10-30T18:43	10	1	0.1	0	1	366	0.2	366	367	12.0	81.7
2025-10-30T18:44	10	0	0.1	0	1	366	0.2	365	366	12.0	81.8
2025-10-30T18:45	10	0	0.1	0	1	366	0.2	366	367	12.0	81.7
2025-10-30T18:46	10	0	0.1	0	1	366	0.2	366	366	12.0	82.1
2025-10-30T18:47	10	0	0.1	0	1	366	0.2	365	366	11.9	82.9
2025-10-30T18:48	10	0	0.1	0	1	366	0.2	365	366	11.8	84.4
2025-10-30T18:49	10	0	0.1	0	1	365	0.3	365	366	11.7	85.6
2025-10-30T18:50	10	0	0.1	0	0	366	0.3	365	366	11.7	85.5
2025-10-30T18:51	10	0	0.1	0	0	365	0.2	365	366	11.7	85.9
2025-10-30T18:52	10	0	0.1	0	1	365	0.2	365	366	11.6	86.4
2025-10-30T18:53	10	0	0.1	0	1	365	0.2	365	366	11.6	86.2
2025-10-30T18:54	10	0	0.1	0	0	365	0.3	364	366	11.6	86.7
2025-10-30T18:55	10	0	0.1	0	0	365	0.2	365	366	11.6	86.8
2025-10-30T18:56	10	0	0.1	0	0	365	0.2	364	365	11.6	86.2
2025-10-30T18:57	10	0	0.1	0	0	365	0.2	364	365	11.6	87.0
2025-10-30T18:58	10	0	0.1	0	0	365	0.2	365	366	11.6	86.8
2025-10-30T18:59	10	0	0.1	0	0	365	0.3	364	366	11.6	86.9
2025-10-30T19:00	10	0	0.1	0	0	365	0.2	365	365	11.6	86.2
2025-10-30T19:01	10	0	0.1	0	1	365	0.2	365	365	11.6	86.7
2025-10-30T19:02	10	0	0.1	0	0	365	0.2	364	365	11.6	86.5
2025-10-30T19:03	10	0	0.1	0	0	365	0.2	364	365	11.6	85.8
2025-10-30T19:04	10	0	0.1	0	0	365	0.2	365	365	11.7	85.4
2025-10-30T19:05	10	0	0.1	0	0	365	0.2	365	366	11.7	85.4
2025-10-30T19:06	10	0	0.0	0	1	365	0.2	365	365	11.7	85.0
2025-10-30T19:07	10	0	0.1	0	1	365	0.2	365	366	11.7	85.0
2025-10-30T19:08	10	0	0.0	0	1	365	0.2	365	366	11.7	85.1
2025-10-30T19:09	10	0	0.1	0	1	365	0.2	365	366	11.7	85.3
2025-10-30T19:10	10	0	0.1	0	0	365	0.2	365	366	11.7	85.0
2025-10-30T19:11	10	0	0.1	0	1	365	0.2	365	366	11.7	84.8
2025-10-30T19:12	10	0	0.0	0	1	365	0.2	365	366	11.7	85.3
2025-10-30T19:13	10	0	0.1	0	0	365	0.2	365	366	11.7	85.1
2025-10-30T19:14	10	0	0.1	0	0	365	0.3	364	366	11.7	84.9
2025-10-30T19:15	10	0	0.1	0	1	365	0.3	364	366	11.7	85.0
2025-10-30T19:16	10	0	0.1	0	0	365	0.2	365	366	11.7	85.0
2025-10-30T19:17	10	0	0.0	0	0	365	0.2	365	366	11.8	84.8
2025-10-30T19:18	10	0	0.1	0	1	365	0.3	365	366	11.8	84.7
2025-10-30T19:19	10	0	0.1	0	0	365	0.2	365	366	11.8	84.5
2025-10-30T19:20	10	0	0.1	0	1	365	0.2	365	366	11.8	84.3
2025-10-30T19:21	10	0	0.0	0	1	365	0.2	365	366	11.8	84.2
2025-10-30T19:22	10	0	0.1	0	1	365	0.2	365	366	11.8	84.7
2025-10-30T19:23	10	0	0.1	0	1	365	0.2	364	365	11.7	84.9
2025-10-30T19:24	10	0	0.1	0	1	365	0.2	365	365	11.8	84.6
2025-10-30T19:25	10	1	0.0	0	1	365	0.3	364	365	11.7	85.0
2025-10-30T19:26	10	1	0.1	0	1	365	0.2	365	366	11.8	84.8
2025-10-30T19:27	10	1	0.0	0	1	365	0.2	365	366	11.8	84.7
2025-10-30T19:28	10	0	0.1	0	1	365	0.2	365	366	11.8	84.9
2025-10-30T19:29	10	0	0.1	0	1	365	0.2	365	366	11.8	85.1
2025-10-30T19:30	10	0	0.1	0	0	365	0.2	364	366	11.7	85.5
2025-10-30T19:31	10	0	0.1	0	0	365	0.2	364	366	11.6	86.3
2025-10-30T19:32	10	0	0.1	0	0	365	0.2	365	365	11.6	86.9
2025-10-30T19:33	10	0	0.1	0	0	365	0.2	364	365	11.6	86.8
2025-10-30T19:34	10	0	0.1	0	0	365	0.3	364	365	11.6	86.5
2025-10-30T19:35	10	0	0.1	0	0	365	0.2	364	365	11.6	86.7
2025-10-30T19:36	10	0	0.1	0	0	365	0.3	364	365	11.6	87.0
2025-10-30T19:37	10	0	0.0	0	0	365	0.2	364	365	11.6	87.2
2025-10-30T19:38	10	0	0.1	0	0	365	0.2	364	365	11.6	87.3
2025-10-30T19:39	10	0	0.1	0	0	365	0.2	364	365	11.5	87.6
2025-10-30T19:40	10	0	0.1	0	0	365	0.2	364	365	11.5	87.8
2025-10-30T19:41	10	0	0.1	0	0	365	0.3	364	365	11.6	87.5
2025-10-30T19:42	10	0	0.1	0	0	365	0.3	364	366	11.6	87.3
2025-10-30T19:43	10	0	0.1	0	0	365	0.2	364	365	11.6	87.4
2025-10-30T19:44	10	0	0.1	0	0	365	0.3	364	365	11.6	87.3
2025-10-30T19:45	10	0	0.1	0	0	365	0.2	364	365	11.6	87.3
2025-10-30T19:46	10	0	0.1	0	0	365	0.2	365	366	11.6	87.0
2025-10-30T19:47	10	0	0.1	0	0	365	0.2	364	365	11.6	87.0
2025-10-30T19:48	10	0	0.1	0	0	365	0.2	364	365	11.6	86.8
2025-10-30T19:49	10	0	0.1	0	0	365	0.2	364	365	11.7	86.5
2025-10-30T19:50	10	0	0.1	0	0	365	0.2	365	366	11.7	85.7
2025-10-30T19:51	10	0	0.1	0	0	365	0.2	365	365	11.7	86.3
2025-10-30T19:52	10	0	0.1	0	0	365	0.2	364	365	11.6	86.8
2025-10-30T19:53	10	0	0.1	0	0	365	0.2	364	365	11.6	87.3
2025-10-30T19:54	10	0	0.1	0	0	364	0.3	364	365	11.6	87.4
2025-10-30T19:55	10	0	0.1	0	0	364	0.2	364	365	11.5	87.6
2025-10-30T19:56	10	0	0.0	0	0	364	0.2	364	365	11.6	87.4
2025-10-30T19:57	10	0	0.1	0	0	364	0.2	363	364	11.5	87.5
2025-10-30T19:58	10	0	0.1	0	0	364	0.2	363	364	11.5	87.6
2025-10-30T19:59	10	0	0.1	0	0	364	0.2	363	364	11.5	87.7
2025-10-30T20:00	10	0	0.1	0	0	364	0.3	363	364	11.6	86.7
2025-10-30T20:01	10	0	0.1	0	0	364	0.2	363	364	11.7	86.3
2025-10-30T20:02	10	0	0.1	0	0	363	0.3	363	364	11.6	86.7
2025-10-30T20:03	10	0	0.1	0	0	364	0.2	363	364	11.6	86.8
2025-10-30T20:04	10	0	0.0	0	0	364	0.2	363	364	11.6	86.5
2025-10-30T20:05	10	0	0.1	0	0	363	0.3	363	364	11.6	86.9
2025-10-30T20:06	10	0	0.1	0	0	363	0.2	363	364	11.6	87.2
2025-10-30T20:07	10	0	0.1	0	0	363	0.3	363	364	11.6	87.1
2025-10-30T20:08	10	0	0.0	0	0	363	0.2	363	364	11.5	87.5
2025-10-30T20:09	10	0	0.1	0	0	363	0.3	362	364	11.5	87.3
2025-10-30T20:10	10	0	0.1	0	0	363	0.3	362	364	11.5	87.2
2025-10-30T20:11	10	0	0.1	0	0	363	0.2	363	364	11.5	87.4
2025-10-30T20:12	10	0	0.1	0	0	363	0.2	363	364	11.5	87.5
2025-10-30T20:13	10	0	0.1	0	0	363	0.2	363	364	11.5	87.2
2025-10-30T20:14	10	0	0.1	0	0	363	0.2	362	364	11.5	87.6
2025-10-30T20:15	10	0	0.1	0	0	363	0.2	363	364	11.5	87.7
2025-10-30T20:16	10	0	0.1	0	0	363	0.2	363	364	11.5	87.6
2025-10-30T20:17	10	0	0.1	0	0	363	0.3	362	363	11.5	87.8
2025-10-30T20:18	10	0	0.1	0	0	363	0.2	362	363	11.4	87.9
2025-10-30T20:19	10	0	0.1	0	0	363	0.2	362	363	11.4	87.9
2025-10-30T20:20	10	0	0.1	0	0	362	0.2	362	363	11.4	88.3
2025-10-30T20:21	10	0	0.1	0	0	362	0.2	361	362	11.4	88.0
2025-10-30T20:22	10	0	0.1	0	0	362	0.2	361	362	11.4	87.8
2025-10-30T20:23	10	0	0.0	0	0	361	0.2	361	362	11.4	88.1
2025-10-30T20:24	10	0	0.1	0	0	361	0.3	360	362	11.4	88.3
2025-10-30T20:25	10	0	0.1	0	1	361	0.2	360	361	11.4	88.5
2025-10-30T20:26	10	0	0.1	0	0	360	0.2	360	361	11.4	88.3
2025-10-30T20:27	10	0	0.1	0	0	360	0.2	359	360	11.3	88.5
2025-10-30T20:28	10	0	0.1	0	0	360	0.2	359	360	11.3	88.7
2025-10-30T20:29	10	0	0.1	0	1	359	0.2	359	360	11.3	88.7
2025-10-30T20:30	10	0	0.1	0	0	359	0.3	359	360	11.3	88.7
2025-10-30T20:31	10	0	0.1	0	1	359	0.2	358	359	11.3	88.8
2025-10-30T20:32	10	0	0.1	0	0	359	0.2	358	359	11.3	89.0
2025-10-30T20:33	10	0	0.1	0	1	358	0.3	358	359	11.3	89.0
2025-10-30T20:34	10	0	0.1	0	1	358	0.2	357	358	11.2	89.5
2025-10-30T20:35	10	0	0.1	0	0	358	0.2	357	358	11.1	90.0
2025-10-30T20:36	10	0	0.1	0	0	357	0.2	357	358	11.1	90.0
2025-10-30T20:37	10	0	0.1	0	0	357	0.2	357	358	11.1	90.2
2025-10-30T20:38	10	0	0.1	0	0	357	0.3	357	358	11.1	90.6
2025-10-30T20:39	10	0	0.1	0	0	358	0.3	357	358	11.0	90.8
2025-10-30T20:40	10	0	0.1	0	0	358	0.3	357	358	11.0	90.9
2025-10-30T20:41	10	0	0.1	0	0	358	0.2	357	358	11.0	90.8
2025-10-30T20:42	10	0	0.1	0	0	357	0.2	357	358	11.0	90.9
2025-10-30T20:43	10	0	0.1	0	0	357	0.2	357	358	11.0	91.0
2025-10-30T20:44	10	0	0.1	0	0	357	0.2	357	358	11.0	91.1
2025-10-30T20:45	10	0	0.1	0	0	357	0.2	357	358	11.0	91.4
2025-10-30T20:46	10	0	0.1	0	0	357	0.2	357	358	10.9	91.4
2025-10-30T20:47	10	0	0.1	0	0	357	0.2	356	357	11.0	91.1
2025-10-30T20:48	10	0	0.1	0	1	357	0.2	356	357	11.0	91.1
2025-10-30T20:49	10	0	0.1	0	1	356	0.3	356	357	10.9	91.4
2025-10-30T20:50	10	0	0.1	0	0	356	0.2	356	357	10.9	91.6
2025-10-30T20:51	10	0	0.1	0	0	356	0.2	356	357	10.9	91.6
2025-10-30T20:52	10	0	0.1	0	0	356	0.2	356	356	10.9	91.9
2025-10-30T20:53	10	0	0.1	0	1	355	0.2	355	356	10.8	92.1
2025-10-30T20:54	10	0	0.1	0	1	355	0.3	354	356	10.8	92.4
2025-10-30T20:55	10	0	0.1	0	0	354	0.2	354	355	10.7	92.7
2025-10-30T20:56	10	0	0.1	0	1	354	0.2	354	355	10.7	92.7
2025-10-30T20:57	10	0	0.1	0	0	355	0.2	354	355	10.7	92.8
2025-10-30T20:58	10	0	0.1	0	0	355	0.3	354	355	10.7	92.9
2025-10-30T20:59	10	0	0.2	0	1	356	0.3	355	356	10.6	93.3
2025-10-30T21:00	10	0	0.1	0	1	357	0.4	355	357	10.6	93.5
2025-10-30T21:01	10	0	0.1	0	1	357	0.3	356	358	10.6	93.4
2025-10-30T21:02	10	0	0.1	0	1	358	0.3	357	358	10.6	93.5
2025-10-30T21:03	10	0	0.1	0	1	358	0.4	357	359	10.7	93.2
2025-10-30T21:04	10	0	0.1	0	1	359	0.3	358	360	10.7	92.9
2025-10-30T21:05	10	0	0.1	0	1	359	0.2	359	360	10.8	92.6
2025-10-30T21:06	10	0	0.1	0	1	360	0.3	359	360	10.8	92.4
2025-10-30T21:07	10	0	0.2	0	1	360	0.3	359	361	10.8	92.3
2025-10-30T21:08	10	0	0.2	0	1	360	0.2	359	360	10.8	92.1
2025-10-30T21:09	10	0	0.1	0	1	360	0.2	359	360	10.9	91.9
2025-10-30T21:10	10	0	0.1	0	1	360	0.3	359	361	10.9	92.0
2025-10-30T21:11	10	0	0.1	0	1	360	0.3	359	361	10.8	92.4
2025-10-30T21:12	10	0	0.1	0	1	360	0.3	360	361	10.8	92.6
2025-10-30T21:13	10	0	0.1	0	1	360	0.2	360	361	10.8	92.3
2025-10-30T21:14	10	0	0.1	0	1	361	0.2	360	361	10.9	91.8
2025-10-30T21:15	10	0	0.1	0	1	360	0.3	360	361	10.9	91.8
2025-10-30T21:16	10	0	0.1	0	1	361	0.3	360	361	10.9	91.7
2025-10-30T21:17	10	0	0.1	0	1	361	0.3	360	361	11.0	90.8
2025-10-30T21:18	10	0	0.2	0	1	361	0.2	360	361	11.0	90.6
2025-10-30T21:19	10	0	0.1	0	1	361	0.3	360	361	11.0	90.5
2025-10-30T21:20	10	0	0.1	0	1	361	0.2	360	361	11.0	90.5
2025-10-30T21:21	10	0	0.1	0	1	361	0.3	360	361	11.0	90.6
2025-10-30T21:22	10	0	0.1	0	1	361	0.3	360	362	11.0	90.6
2025-10-30T21:23	10	0	0.1	0	1	361	0.3	361	362	11.0	90.7
2025-10-30T21:24	10	0	0.1	0	1	361	0.2	361	362	11.0	90.6
2025-10-30T21:25	10	0	0.1	0	1	361	0.3	360	362	11.0	90.7
2025-10-30T21:26	10	0	0.1	0	1	361	0.2	361	362	11.0	90.9
2025-10-30T21:27	10	0	0.1	0	1	361	0.3	361	362	11.0	91.0
2025-10-30T21:28	10	0	0.2	0	1	361	0.3	361	362	11.0	91.2
2025-10-30T21:29	10	0	0.1	0	1	361	0.3	361	362	11.0	91.3
2025-10-30T21:30	10	0	0.1	0	1	361	0.2	361	362	10.9	91.3
2025-10-30T21:31	10	0	0.2	0	1	362	0.3	361	362	10.9	91.2
2025-10-30T21:32	10	0	0.1	0	1	362	0.3	361	362	10.9	91.7
2025-10-30T21:33	10	0	0.1	0	1	362	0.2	361	362	11.0	91.2
2025-10-30T21:34	10	0	0.1	0	1	361	0.3	361	362	11.0	91.1
2025-10-30T21:35	10	0	0.1	0	1	361	0.3	361	362	10.8	92.2
2025-10-30T21:36	10	0	0.1	0	1	361	0.2	361	362	10.8	92.3
2025-10-30T21:37	10	0	0.1	0	1	361	0.2	361	362	10.8	92.4
2025-10-30T21:38	10	0	0.1	0	1	361	0.3	360	362	10.8	92.1
2025-10-30T21:39	10	0	0.1	0	1	361	0.3	360	362	10.8	92.1
2025-10-30T21:40	10	0	0.1	0	1	361	0.2	360	361	10.8	91.8
2025-10-30T21:41	10	0	0.1	0	1	361	0.2	360	362	10.8	91.8
2025-10-30T21:42	10	0	0.1	0	1	361	0.3	360	362	10.8	91.9
2025-10-30T21:43	10	0	0.1	0	0	361	0.2	360	361	10.8	92.1
2025-10-30T21:44	10	0	0.1	0	1	361	0.2	360	361	10.7	92.6
2025-10-30T21:45	10	0	0.1	0	0	361	0.2	360	361	10.7	92.6
2025-10-30T21:46	10	0	0.2	0	1	361	0.2	360	361	10.7	92.9
2025-10-30T21:47	10	0	0.1	0	1	360	0.3	360	361	10.6	93.1
2025-10-30T21:48	10	0	0.2	0	1	360	0.3	359	361	10.6	93.4
2025-10-30T21:49	10	0	0.1	0	1	360	0.2	360	361	10.6	93.6
2025-10-30T21:50	10	0	0.1	0	1	360	0.2	360	361	10.6	93.5
2025-10-30T21:51	10	0	0.1	0	1	360	0.2	360	361	10.6	93.3
2025-10-30T21:52	10	0	0.1	0	0	361	0.3	360	361	10.6	93.4
2025-10-30T21:53	10	0	0.1	0	1	361	0.3	360	361	10.6	93.5
2025-10-30T21:54	10	0	0.1	0	0	361	0.3	360	361	10.6	93.5
2025-10-30T21:55	10	0	0.1	0	1	361	0.3	360	362	10.6	93.0
2025-10-30T21:56	10	0	0.1	0	1	361	0.2	361	362	10.7	92.7
2025-10-30T21:57	10	0	0.1	0	1	361	0.2	361	362	10.7	92.8
2025-10-30T21:58	10	0	0.1	0	1	361	0.2	361	362	10.6	93.3
2025-10-30T21:59	10	0	0.1	0	0	361	0.2	361	362	10.6	93.4
2025-10-30T22:00	10	0	0.1	0	0	361	0.2	361	361	10.6	93.0
2025-10-30T22:01	10	0	0.1	0	1	361	0.2	361	362	10.6	92.9
2025-10-30T22:02	10	0	0.1	0	1	361	0.3	361	362	10.6	93.2
2025-10-30T22:03	10	0	0.1	0	0	361	0.2	361	362	10.6	92.8
2025-10-30T22:04	10	0	0.1	0	1	361	0.2	361	362	10.7	92.7
2025-10-30T22:05	10	0	0.1	0	0	361	0.2	361	362	10.7	92.6
2025-10-30T22:06	10	0	0.1	0	0	361	0.2	361	362	10.7	92.8
2025-10-30T22:07	10	0	0.1	0	1	361	0.2	361	362	10.7	92.8
2025-10-30T22:08	10	0	0.1	0	0	361	0.2	361	362	10.6	92.8
2025-10-30T22:09	10	0	0.1	0	0	361	0.2	361	362	10.6	93.1
2025-10-30T22:10	10	0	0.1	0	0	361	0.2	361	362	10.6	93.2
2025-10-30T22:11	10	0	0.1	0	0	361	0.2	361	361	10.5	93.5
2025-10-30T22:12	10	0	0.0	0	0	361	0.2	360	361	10.5	93.9
2025-10-30T22:13	10	0	0.1	0	0	361	0.2	360	361	10.5	94.4
2025-10-30T22:14	10	0	0.1	0	0	361	0.2	361	361	10.5	94.2
2025-10-30T22:15	10	0	0.1	0	0	361	0.2	360	361	10.5	94.3
2025-10-30T22:16	10	0	0.1	0	1	361	0.2	360	361	10.5	94.4
2025-10-30T22:17	10	0	0.1	0	1	361	0.2	360	361	10.5	94.2
2025-10-30T22:18	10	0	0.0	0	0	361	0.2	360	361	10.5	94.3
2025-10-30T22:19	10	0	0.1	0	0	361	0.2	360	361	10.5	94.3
2025-10-30T22:20	10	0	0.1	0	1	360	0.2	360	361	10.4	94.5
2025-10-30T22:21	10	0	0.1	0	0	360	0.2	360	361	10.4	94.7
2025-10-30T22:22	10	0	0.1	0	0	360	0.3	359	361	10.4	94.9
2025-10-30T22:23	10	0	0.1	0	0	360	0.2	359	360	10.4	95.0
2025-10-30T22:24	10	0	0.1	0	0	360	0.2	359	360	10.4	95.3
2025-10-30T22:25	10	0	0.1	0	0	359	0.2	359	360	10.4	95.3
2025-10-30T22:26	10	0	0.1	0	0	359	0.2	359	360	10.4	94.9
2025-10-30T22:27	10	0	0.1	0	1	359	0.2	358	359	10.4	94.9
2025-10-30T22:28	10	0	0.1	0	0	359	0.2	358	359	10.4	94.8
2025-10-30T22:29	10	0	0.1	0	0	359	0.2	358	359	10.4	94.6
2025-10-30T22:30	10	0	0.1	0	0	359	0.2	358	359	10.4	94.5
2025-10-30T22:31	10	0	0.1	0	0	358	0.2	358	359	10.4	94.8
2025-10-30T22:32	10	0	0.1	0	1	358	0.3	358	359	10.4	94.7
2025-10-30T22:33	10	0	0.1	0	0	358	0.2	358	359	10.4	94.4
2025-10-30T22:34	10	0	0.1	0	0	358	0.3	358	359	10.4	94.5
2025-10-30T22:35	10	0	0.1	0	1	358	0.2	358	359	10.4	94.3
2025-10-30T22:36	10	0	0.1	0	0	359	0.2	358	359	10.4	94.3
2025-10-30T22:37	10	0	0.1	0	0	358	0.2	358	359	10.4	94.3
2025-10-30T22:38	10	0	0.1	0	1	359	0.2	358	359	10.4	94.3
2025-10-30T22:39	10	0	0.1	0	0	359	0.2	358	359	10.4	94.5
2025-10-30T22:40	10	0	0.1	0	0	359	0.2	358	359	10.3	94.7
2025-10-30T22:41	10	0	0.1	0	0	359	0.2	358	360	10.3	94.6
2025-10-30T22:42	10	0	0.1	0	0	359	0.2	359	360	10.3	94.4
2025-10-30T22:43	10	0	0.0	0	0	359	0.3	359	360	10.4	94.2
2025-10-30T22:44	10	0	0.1	0	0	359	0.2	359	360	10.4	94.2
2025-10-30T22:45	10	0	0.0	0	0	359	0.2	359	360	10.4	94.0
2025-10-30T22:46	10	0	0.1	0	0	359	0.3	359	360	10.4	93.9
2025-10-30T22:47	10	0	0.1	0	0	359	0.2	359	360	10.4	94.1
2025-10-30T22:48	10	0	0.1	0	0	360	0.3	359	360	10.4	93.8
2025-10-30T22:49	10	0	0.1	0	0	359	0.2	359	360	10.4	93.9
2025-10-30T22:50	10	0	0.1	0	0	360	0.2	359	360	10.4	93.8
2025-10-30T22:51	10	0	0.1	0	0	359	0.2	359	360	10.4	93.8
2025-10-30T22:52	10	0	0.1	0	0	359	0.2	359	360	10.4	94.0
2025-10-30T22:53	10	0	0.1	0	0	359	0.2	359	360	10.4	93.9
2025-10-30T22:54	10	0	0.1	0	0	359	0.2	359	360	10.4	94.0
2025-10-30T22:55	10	0	0.1	0	0	359	0.2	359	360	10.3	94.2
2025-10-30T22:56	10	0	0.1	0	0	359	0.3	359	360	10.3	94.3
2025-10-30T22:57	10	0	0.1	0	0	359	0.2	359	360	10.3	94.4
2025-10-30T22:58	10	0	0.1	0	0	359	0.2	359	360	10.3	94.5
2025-10-30T22:59	10	0	0.1	0	0	359	0.2	359	360	10.3	94.5
2025-10-30T23:00	10	0	0.1	0	0	360	0.2	359	360	10.3	94.7
2025-10-30T23:01	10	0	0.1	0	0	360	0.3	359	360	10.3	94.4
2025-10-30T23:02	10	0	0.1	0	0	360	0.2	359	360	10.4	94.1
2025-10-30T23:03	10	0	0.1	0	0	360	0.2	359	361	10.4	93.7
2025-10-30T23:04	10	0	0.0	0	0	360	0.2	359	360	10.4	93.9
2025-10-30T23:05	10	0	0.1	0	0	360	0.2	359	360	10.4	94.1
2025-10-30T23:06	10	0	0.1	0	0	360	0.3	359	360	10.4	94.0
2025-10-30T23:07	10	0	0.1	0	0	360	0.3	359	360	10.4	93.8
2025-10-30T23:08	10	0	0.1	0	0	360	0.2	359	360	10.4	93.8
2025-10-30T23:09	10	0	0.1	0	0	360	0.3	360	361	10.4	93.7
2025-10-30T23:10	10	0	0.1	0	0	360	0.2	360	361	10.4	93.7
2025-10-30T23:11	10	0	0.1	0	0	360	0.2	360	360	10.4	93.7
2025-10-30T23:12	10	0	0.0	0	0	360	0.2	360	360	10.4	93.8
2025-10-30T23:13	10	0	0.0	0	0	360	0.2	360	361	10.4	93.8
2025-10-30T23:14	10	0	0.1	0	0	360	0.3	359	360	10.4	94.0
2025-10-30T23:15	10	0	0.1	0	0	360	0.2	359	360	10.4	94.1
2025-10-30T23:16	10	0	0.1	0	0	360	0.2	359	360	10.3	94.3
2025-10-30T23:17	10	0	0.1	0	0	360	0.2	359	360	10.3	94.4
2025-10-30T23:18	10	0	0.1	0	0	360	0.3	359	360	10.3	94.4
2025-10-30T23:19	10	0	0.1	0	0	359	0.2	359	360	10.3	94.6
2025-10-30T23:20	10	0	0.1	0	0	360	0.2	359	360	10.3	94.7
2025-10-30T23:21	10	0	0.1	0	0	360	0.2	359	360	10.3	94.8
2025-10-30T23:22	10	0	0.1	0	0	359	0.2	359	360	10.3	94.8
2025-10-30T23:23	10	0	0.1	0	0	360	0.2	359	360	10.2	94.8
2025-10-30T23:24	10	0	0.1	0	0	360	0.2	359	360	10.2	94.9
2025-10-30T23:25	10	0	0.1	0	0	359	0.2	359	360	10.2	94.6
2025-10-30T23:26	10	0	0.1	0	0	360	0.2	359	360	10.2	94.8
2025-10-30T23:27	10	0	0.1	0	0	359	0.2	359	360	10.3	94.1
2025-10-30T23:28	10	0	0.1	0	0	359	0.3	359	360	10.3	94.0
2025-10-30T23:29	10	0	0.1	0	0	359	0.3	359	360	10.3	94.4
2025-10-30T23:30	10	0	0.1	0	0	359	0.2	359	360	10.3	94.5
2025-10-30T23:31	10	0	0.1	0	0	359	0.2	359	360	10.2	94.5
2025-10-30T23:32	10	0	0.0	0	0	359	0.2	359	360	10.2	94.6
2025-10-30T23:33	10	0	0.1	0	0	359	0.2	359	359	10.3	94.3
2025-10-30T23:34	10	0	0.1	0	0	359	0.2	359	360	10.3	94.0
2025-10-30T23:35	10	0	0.1	0	0	360	0.2	359	360	10.3	94.4
2025-10-30T23:36	10	0	0.1	0	0	359	0.2	359	360	10.2	94.4
2025-10-30T23:37	10	0	0.1	0	0	359	0.2	359	360	10.2	94.3
2025-10-30T23:38	10	0	0.1	0	0	359	0.2	359	360	10.2	94.6
2025-10-30T23:39	10	0	0.1	0	0	359	0.2	359	360	10.2	94.7
2025-10-30T23:40	10	0	0.1	0	0	359	0.3	359	360	10.2	94.8
2025-10-30T23:41	10	0	0.1	0	0	359	0.2	359	360	10.2	94.8
2025-10-30T23:42	10	0	0.1	0	0	359	0.2	359	360	10.2	95.1
2025-10-30T23:43	10	0	0.1	0	0	359	0.2	359	360	10.2	94.9
2025-10-30T23:44	10	0	0.1	0	0	359	0.2	359	360	10.2	94.8
2025-10-30T23:45	10	0	0.0	0	0	359	0.2	359	360	10.2	94.9
2025-10-30T23:46	10	0	0.1	0	0	359	0.3	358	360	10.2	94.3
2025-10-30T23:47	10	0	0.1	0	0	359	0.3	358	360	10.2	94.0
2025-10-30T23:48	10	0	0.1	0	0	359	0.2	359	360	10.2	93.9
2025-10-30T23:49	10	0	0.1	0	0	359	0.2	358	359	10.2	94.1
2025-10-30T23:50	10	0	0.1	0	0	359	0.2	358	359	10.2	94.2
2025-10-30T23:51	10	0	0.1	0	0	359	0.2	358	359	10.2	93.9
2025-10-30T23:52	10	0	0.1	0	0	359	0.2	358	359	10.2	93.8
2025-10-30T23:53	10	0	0.1	0	0	359	0.2	359	359	10.2	93.8
2025-10-30T23:54	10	0	0.1	0	0	359	0.2	358	359	10.2	93.7
2025-10-30T23:55	10	0	0.1	0	0	359	0.2	358	359	10.2	93.5
2025-10-30T23:56	10	0	0.0	0	0	359	0.2	358	359	10.2	93.7
2025-10-30T23:57	10	0	0.1	0	0	359	0.3	358	359	10.2	93.7
2025-10-30T23:58	10	0	0.1	0	0	359	0.2	359	359	10.2	93.5
2025-10-30T23:59	10	0	0.1	0	0	359	0.2	358	359	10.2	93.3
2025-10-31T00:00	10	0	0.1	0	0	359	0.2	358	359	10.2	93.5
2025-10-31T00:01	10	0	0.1	0	0	359	0.2	358	359	10.2	93.7
2025-10-31T00:02	10	0	0.1	0	0	359	0.2	358	359	10.2	93.8
2025-10-31T00:03	10	0	0.1	0	0	358	0.2	358	359	10.2	93.9
2025-10-31T00:04	10	0	0.1	0	0	358	0.3	358	359	10.1	94.1
2025-10-31T00:05	10	0	0.1	0	0	358	0.2	358	359	10.1	94.1
2025-10-31T00:06	10	0	0.1	0	0	358	0.2	358	359	10.2	94.0
2025-10-31T00:07	10	0	0.1	0	0	359	0.3	358	359	10.2	93.9
2025-10-31T00:08	10	0	0.1	0	0	359	0.2	358	359	10.2	94.0
2025-10-31T00:09	10	0	0.1	0	0	359	0.2	358	359	10.1	94.4
2025-10-31T00:10	10	0	0.1	0	0	359	0.3	358	359	10.1	94.3
2025-10-31T00:11	10	0	0.1	0	0	359	0.2	359	359	10.1	94.6
2025-10-31T00:12	10	0	0.1	0	0	359	0.2	358	359	10.1	94.5
2025-10-31T00:13	10	0	0.1	0	0	359	0.2	358	359	10.1	94.6
2025-10-31T00:14	10	0	0.1	0	0	359	0.2	358	359	10.1	95.0
2025-10-31T00:15	10	0	0.1	0	0	359	0.2	358	359	10.1	95.1
2025-10-31T00:16	10	0	0.1	0	0	359	0.2	358	359	10.1	95.3
2025-10-31T00:17	10	0	0.1	0	0	359	0.2	358	359	10.1	95.3
2025-10-31T00:18	10	0	0.0	0	0	359	0.2	358	359	10.1	95.3
2025-10-31T00:19	10	0	0.1	0	1	358	0.2	358	359	10.0	95.3
2025-10-31T00:20	10	0	0.0	0	0	359	0.2	358	359	10.0	95.3
2025-10-31T00:21	10	0	0.1	0	0	358	0.2	358	359	10.0	95.6
2025-10-31T00:22	10	0	0.1	0	0	358	0.2	358	359	10.0	95.5
2025-10-31T00:23	10	0	0.1	0	0	359	0.2	358	359	10.1	95.3
2025-10-31T00:24	10	0	0.1	0	0	358	0.2	358	359	10.0	95.5
2025-10-31T00:25	10	0	0.1	0	0	358	0.2	358	359	10.0	95.4
2025-10-31T00:26	10	0	0.0	0	0	358	0.2	358	359	10.1	95.2
2025-10-31T00:27	10	0	0.1	0	0	359	0.3	358	359	10.1	95.2
2025-10-31T00:28	10	0	0.1	0	0	358	0.2	358	359	10.1	95.2
2025-10-31T00:29	10	0	0.1	0	0	359	0.2	358	359	10.1	95.2
2025-10-31T00:30	10	0	0.1	0	0	359	0.2	358	359	10.1	95.2
2025-10-31T00:31	10	0	0.1	0	0	359	0.2	358	359	10.1	95.3
2025-10-31T00:32	10	0	0.1	0	0	359	0.3	358	359	10.1	95.2
2025-10-31T00:33	10	0	0.1	0	0	358	0.2	358	359	10.1	95.3
2025-10-31T00:34	10	0	0.1	0	0	359	0.2	358	359	10.1	94.9
2025-10-31T00:35	10	0	0.1	0	0	359	0.2	358	359	10.1	94.9
2025-10-31T00:36	10	0	0.1	0	0	359	0.2	358	359	10.1	94.6
2025-10-31T00:37	10	0	0.1	0	0	359	0.2	358	359	10.1	94.7
2025-10-31T00:38	10	0	0.1	0	0	359	0.2	358	359	10.1	94.9
2025-10-31T00:39	10	0	0.1	0	0	359	0.3	358	359	10.1	94.8
2025-10-31T00:40	10	0	0.1	0	0	359	0.2	358	359	10.1	94.7
2025-10-31T00:41	10	0	0.1	0	0	359	0.2	358	359	10.2	94.5
2025-10-31T00:42	10	0	0.0	0	0	359	0.2	358	359	10.2	94.3
2025-10-31T00:43	10	0	0.1	0	0	359	0.2	358	359	10.1	94.4
2025-10-31T00:44	10	0	0.1	0	1	359	0.2	358	359	10.2	94.1
2025-10-31T00:45	10	0	0.1	0	0	358	0.2	358	359	10.1	94.6
2025-10-31T00:46	10	0	0.1	0	0	358	0.3	358	359	10.1	94.2
2025-10-31T00:47	10	0	0.1	0	0	358	0.3	357	359	10.1	94.2
2025-10-31T00:48	10	0	0.1	0	0	358	0.3	357	359	10.1	94.3
2025-10-31T00:49	10	0	0.1	0	0	358	0.2	358	359	10.1	94.2
2025-10-31T00:50	10	0	0.1	0	0	358	0.2	357	358	10.2	94.0
2025-10-31T00:51	10	0	0.1	0	1	357	0.2	357	358	10.1	94.1
2025-10-31T00:52	10	0	0.1	0	0	357	0.3	356	357	10.1	94.2
2025-10-31T00:53	10	0	0.1	0	0	357	0.2	356	357	10.1	94.6
2025-10-31T00:54	10	0	0.1	0	0	357	0.2	356	357	10.1	94.7
2025-10-31T00:55	10	0	0.1	0	0	357	0.2	356	357	10.1	94.6
2025-10-31T00:56	10	0	0.1	0	0	357	0.2	356	357	10.0	94.8
2025-10-31T00:57	10	0	0.1	0	0	357	0.2	356	357	10.1	94.7
2025-10-31T00:58	10	0	0.1	0	0	357	0.2	356	357	10.0	95.0
2025-10-31T00:59	10	0	0.1	0	0	357	0.2	356	357	10.0	94.9
2025-10-31T01:00	10	0	0.1	0	0	357	0.2	357	357	10.0	95.0
2025-10-31T01:01	10	0	0.1	0	0	357	0.3	356	357	10.0	95.1
2025-10-31T01:02	10	0	0.1	0	0	356	0.2	356	357	10.0	95.0
2025-10-31T01:03	10	0	0.1	0	0	356	0.2	356	357	10.0	95.1
2025-10-31T01:04	10	0	0.1	0	0	356	0.2	356	357	10.0	95.2
2025-10-31T01:05	10	0	0.1	0	0	357	0.2	356	357	10.0	95.4
2025-10-31T01:06	10	0	0.1	0	0	357	0.2	356	357	9.9	95.7
2025-10-31T01:07	10	0	0.1	0	0	357	0.2	356	357	9.9	95.8
2025-10-31T01:08	10	0	0.1	0	0	357	0.2	356	358	9.9	95.8
2025-10-31T01:09	10	0	0.1	0	0	357	0.3	356	357	9.9	95.6
2025-10-31T01:10	10	0	0.1	0	0	357	0.2	357	358	9.9	95.4
2025-10-31T01:11	10	0	0.1	0	0	357	0.3	356	358	9.9	95.6
2025-10-31T01:12	10	0	0.1	0	1	358	0.3	357	358	9.9	95.5
2025-10-31T01:13	10	0	0.1	0	0	358	0.3	357	358	9.9	95.6
2025-10-31T01:14	10	0	0.1	0	0	358	0.3	357	359	9.9	94.9
2025-10-31T01:15	10	0	0.1	0	0	358	0.2	357	358	9.9	94.8
2025-10-31T01:16	10	0	0.1	0	0	358	0.2	358	359	9.9	94.6
2025-10-31T01:17	10	0	0.1	0	0	358	0.2	358	359	9.9	94.6
2025-10-31T01:18	10	0	0.1	0	0	358	0.2	358	359	9.9	94.4
2025-10-31T01:19	10	0	0.1	0	0	358	0.3	357	359	9.9	93.9
2025-10-31T01:20	10	0	0.1	0	0	358	0.2	358	359	9.9	93.8
2025-10-31T01:21	10	0	0.1	0	0	358	0.3	358	359	10.0	93.3
2025-10-31T01:22	10	0	0.1	0	0	358	0.2	358	359	9.9	93.2
2025-10-31T01:23	10	0	0.1	0	0	358	0.3	358	359	9.9	93.2
2025-10-31T01:24	10	0	0.1	0	0	358	0.2	358	359	9.9	93.6
2025-10-31T01:25	10	0	0.1	0	0	358	0.2	358	359	9.9	93.2
2025-10-31T01:26	10	0	0.1	0	0	358	0.2	358	359	9.9	93.7
2025-10-31T01:27	10	0	0.1	0	0	358	0.2	358	358	9.9	93.8
2025-10-31T01:28	10	0	0.1	0	0	358	0.2	358	359	10.0	93.5
2025-10-31T01:29	10	0	0.1	0	1	358	0.2	357	359	9.9	93.8
2025-10-31T01:30	10	0	0.1	0	0	358	0.2	357	358	9.9	93.5
2025-10-31T01:31	10	0	0.1	0	0	358	0.3	357	359	9.9	93.7
2025-10-31T01:32	10	0	0.1	0	0	358	0.2	358	359	9.9	93.8
2025-10-31T01:33	10	0	0.1	0	0	358	0.2	358	359	9.9	93.4
2025-10-31T01:34	10	0	0.1	0	0	359	0.2	358	359	10.0	93.2
2025-10-31T01:35	10	0	0.1	0	0	358	0.3	358	359	9.9	93.3
2025-10-31T01:36	10	0	0.1	0	0	359	0.2	358	359	9.9	93.5
2025-10-31T01:37	10	0	0.1	0	0	359	0.2	358	359	9.9	93.5
2025-10-31T01:38	10	0	0.1	0	0	358	0.2	358	359	9.9	93.4
2025-10-31T01:39	10	0	0.1	0	1	358	0.2	358	358	9.9	93.9
2025-10-31T01:40	10	0	0.1	0	1	358	0.2	358	359	9.8	94.2
2025-10-31T01:41	10	0	0.1	0	0	358	0.2	358	359	9.8	94.5
2025-10-31T01:42	10	0	0.1	0	0	358	0.2	358	359	9.8	94.7
2025-10-31T01:43	10	0	0.1	0	0	358	0.3	358	359	9.8	95.1
2025-10-31T01:44	10	0	0.1	0	0	358	0.2	358	359	9.8	95.4
2025-10-31T01:45	10	0	0.1	0	1	358	0.2	357	358	9.8	95.4
2025-10-31T01:46	10	0	0.1	0	0	358	0.2	358	359	9.8	95.2
2025-10-31T01:47	10	0	0.1	0	0	358	0.2	357	358	9.8	95.2
2025-10-31T01:48	10	0	0.1	0	1	358	0.3	357	358	9.8	94.9
2025-10-31T01:49	10	0	0.1	0	0	357	0.3	357	358	9.8	94.4
2025-10-31T01:50	10	0	0.1	0	0	357	0.3	357	358	9.8	94.7
2025-10-31T01:51	10	0	0.1	0	0	357	0.3	357	358	9.8	94.9
2025-10-31T01:52	10	0	0.1	0	0	357	0.3	356	358	9.8	94.9
2025-10-31T01:53	10	0	0.1	0	0	357	0.2	356	357	9.8	95.0
2025-10-31T01:54	10	0	0.1	0	0	357	0.2	356	357	9.7	95.3
2025-10-31T01:55	10	0	0.1	0	1	357	0.2	356	357	9.8	94.9
2025-10-31T01:56	10	0	0.1	0	1	357	0.2	356	357	9.8	94.5
2025-10-31T01:57	10	0	0.1	0	0	357	0.2	357	358	9.8	94.3
2025-10-31T01:58	10	0	0.1	0	0	357	0.2	357	358	9.8	94.2
2025-10-31T01:59	10	0	0.1	0	0	357	0.2	357	358	9.8	94.2
2025-10-31T02:00	10	0	0.1	0	0	357	0.2	357	358	9.7	94.6
2025-10-31T02:01	10	0	0.1	0	0	357	0.3	357	358	9.7	94.7
2025-10-31T02:02	10	0	0.1	0	0	357	0.2	357	358	9.7	94.9
2025-10-31T02:03	10	0	0.1	0	0	357	0.2	357	358	9.7	95.0
2025-10-31T02:04	10	0	0.1	0	0	357	0.2	357	358	9.8	94.8
2025-10-31T02:05	10	0	0.1	0	0	357	0.2	357	358	9.8	94.7
2025-10-31T02:06	10	0	0.1	0	0	357	0.2	357	358	9.8	94.7
2025-10-31T02:07	10	0	0.1	0	0	357	0.2	357	358	9.8	94.8
2025-10-31T02:08	10	0	0.1	0	0	357	0.2	357	358	9.8	94.9
2025-10-31T02:09	10	0	0.1	0	0	357	0.2	357	358	9.8	94.8
2025-10-31T02:10	10	0	0.1	0	0	357	0.2	357	358	9.7	95.2
2025-10-31T02:11	10	0	0.1	0	0	357	0.2	357	358	9.7	95.0
2025-10-31T02:12	10	0	0.1	0	0	357	0.2	356	357	9.7	94.6
2025-10-31T02:13	10	0	0.1	0	0	357	0.2	356	358	9.7	94.7
2025-10-31T02:14	10	0	0.1	0	0	357	0.2	357	357	9.6	94.9
2025-10-31T02:15	10	0	0.1	0	0	357	0.3	356	358	9.6	94.9
2025-10-31T02:16	10	0	0.1	0	0	357	0.2	357	358	9.7	94.4
2025-10-31T02:17	10	0	0.1	0	0	357	0.2	357	358	9.7	94.3
2025-10-31T02:18	10	0	0.1	0	0	357	0.3	356	358	9.7	94.3
2025-10-31T02:19	10	0	0.1	0	0	357	0.2	357	358	9.7	94.4
2025-10-31T02:20	10	0	0.1	0	0	357	0.3	357	358	9.7	94.5
2025-10-31T02:21	10	0	0.1	0	0	357	0.2	357	358	9.6	94.8
2025-10-31T02:22	10	0	0.1	0	0	357	0.2	356	358	9.6	94.8
2025-10-31T02:23	10	0	0.1	0	0	357	0.2	357	358	9.6	94.8
2025-10-31T02:24	10	0	0.1	0	0	357	0.2	357	358	9.6	94.8
2025-10-31T02:25	10	0	0.1	0	0	357	0.3	357	358	9.6	94.8
2025-10-31T02:26	10	0	0.1	0	0	357	0.2	357	358	9.6	95.2
2025-10-31T02:27	10	0	0.1	0	0	357	0.2	357	358	9.6	95.2
2025-10-31T02:28	10	0	0.1	0	0	357	0.2	357	357	9.6	95.5
2025-10-31T02:29	10	0	0.1	0	0	357	0.2	357	358	9.5	95.8
2025-10-31T02:30	10	0	0.1	0	0	357	0.2	356	357	9.5	95.8
2025-10-31T02:31	10	0	0.1	0	0	357	0.2	357	357	9.5	95.7
2025-10-31T02:32	10	0	0.1	0	0	357	0.3	356	357	9.5	95.8
2025-10-31T02:33	10	0	0.1	0	0	357	0.2	356	357	9.5	95.8
2025-10-31T02:34	10	0	0.1	0	0	357	0.2	356	357	9.5	95.6
2025-10-31T02:35	10	0	0.1	0	0	357	0.2	356	357	9.4	95.5
2025-10-31T02:36	10	0	0.1	0	0	357	0.2	356	357	9.4	95.7
2025-10-31T02:37	10	0	0.1	0	0	357	0.2	356	357	9.5	95.4
2025-10-31T02:38	10	0	0.1	0	0	357	0.2	357	357	9.5	95.5
2025-10-31T02:39	10	0	0.1	0	0	357	0.2	356	357	9.5	95.7
2025-10-31T02:40	10	0	0.1	0	0	357	0.3	356	357	9.5	96.2
2025-10-31T02:41	10	0	0.1	0	0	357	0.2	356	357	9.4	96.4
2025-10-31T02:42	10	0	0.1	0	0	357	0.2	356	357	9.4	96.4
2025-10-31T02:43	10	0	0.1	0	0	357	0.2	356	357	9.4	96.7
2025-10-31T02:44	10	0	0.1	0	0	357	0.2	356	357	9.4	96.3
2025-10-31T02:45	10	0	0.1	0	0	356	0.3	355	357	9.4	96.0
2025-10-31T02:46	10	0	0.1	0	0	357	0.2	356	357	9.4	96.0
2025-10-31T02:47	10	0	0.1	0	0	357	0.3	356	357	9.4	95.7
2025-10-31T02:48	10	0	0.1	0	0	356	0.2	356	357	9.4	95.4
2025-10-31T02:49	10	0	0.1	0	0	356	0.2	356	357	9.4	95.5
2025-10-31T02:50	10	0	0.1	0	0	356	0.3	356	357	9.4	95.5
2025-10-31T02:51	10	0	0.1	0	0	356	0.2	356	357	9.4	95.4
2025-10-31T02:52	10	0	0.1	0	0	356	0.2	355	356	9.4	95.4
2025-10-31T02:53	10	0	0.1	0	0	356	0.2	355	356	9.4	95.3
2025-10-31T02:54	10	0	0.1	0	0	356	0.2	355	356	9.4	95.0
2025-10-31T02:55	10	0	0.1	0	0	355	0.2	355	356	9.4	94.9
2025-10-31T02:56	10	0	0.1	0	0	355	0.2	355	356	9.4	94.5
2025-10-31T02:57	10	0	0.1	0	0	355	0.3	354	355	9.4	94.2
2025-10-31T02:58	10	0	0.1	0	0	355	0.2	354	355	9.4	94.1
2025-10-31T02:59	10	0	0.1	0	0	354	0.2	354	355	9.4	94.0
2025-10-31T03:00	10	0	0.1	0	0	354	0.2	354	355	9.3	94.1
2025-10-31T03:01	10	0	0.1	0	0	354	0.2	354	355	9.3	94.0
2025-10-31T03:02	10	0	0.1	0	0	354	0.2	354	354	9.3	94.3
2025-10-31T03:03	10	0	0.1	0	0	354	0.2	354	355	9.3	94.6
2025-10-31T03:04	10	0	0.1	0	0	354	0.2	354	355	9.3	94.3
2025-10-31T03:05	10	0	0.1	0	0	354	0.3	353	354	9.3	94.2
2025-10-31T03:06	10	0	0.1	0	0	353	0.3	353	354	9.3	94.4
2025-10-31T03:07	10	0	0.1	0	0	353	0.3	352	354	9.3	94.4
2025-10-31T03:08	10	0	0.1	0	1	353	0.2	353	354	9.3	94.1
2025-10-31T03:09	10	0	0.1	0	0	354	0.3	353	355	9.3	93.8
2025-10-31T03:10	10	0	0.1	0	0	354	0.2	354	355	9.4	93.3
2025-10-31T03:11	10	0	0.1	0	0	354	0.3	354	355	9.4	93.6
2025-10-31T03:12	10	0	0.1	0	0	354	0.2	354	355	9.4	93.6
2025-10-31T03:13	10	0	0.1	0	0	355	0.2	354	355	9.4	93.5
2025-10-31T03:14	10	0	0.1	0	0	355	0.2	354	355	9.4	93.3
2025-10-31T03:15	10	0	0.1	0	0	355	0.2	354	355	9.4	93.3
2025-10-31T03:16	10	0	0.1	0	0	355	0.2	354	355	9.4	93.1
2025-10-31T03:17	10	0	0.1	0	0	355	0.3	354	356	9.4	93.4
2025-10-31T03:18	10	0	0.1	0	0	355	0.2	354	355	9.3	93.5
2025-10-31T03:19	10	0	0.1	0	0	355	0.2	354	356	9.4	93.3
2025-10-31T03:20	10	0	0.1	0	0	355	0.2	355	356	9.4	93.3
2025-10-31T03:21	10	0	0.1	0	1	355	0.2	355	356	9.3	93.3
2025-10-31T03:22	10	0	0.1	0	1	355	0.2	355	356	9.3	93.5
2025-10-31T03:23	10	0	0.1	0	0	355	0.3	354	355	9.4	93.1
2025-10-31T03:24	10	0	0.1	0	1	354	0.2	354	355	9.4	92.8
2025-10-31T03:25	10	0	0.1	0	0	354	0.2	354	355	9.5	92.3
2025-10-31T03:26	10	0	0.1	0	0	354	0.3	353	355	9.5	92.3
2025-10-31T03:27	10	0	0.1	0	0	354	0.2	353	354	9.6	91.9
2025-10-31T03:28	10	0	0.1	0	0	354	0.2	353	354	9.6	91.6
2025-10-31T03:29	10	0	0.1	0	0	354	0.2	353	354	9.7	91.4
2025-10-31T03:30	10	0	0.1	0	0	354	0.2	353	354	9.7	91.3
2025-10-31T03:31	10	0	0.1	0	0	354	0.2	353	354	9.7	91.5
2025-10-31T03:32	10	0	0.1	0	0	353	0.2	353	354	9.7	91.6
2025-10-31T03:33	10	0	0.1	0	0	354	0.2	353	354	9.7	91.4
2025-10-31T03:34	10	0	0.1	0	0	354	0.3	353	354	9.6	92.0
2025-10-31T03:35	10	0	0.1	0	0	354	0.2	353	354	9.6	91.9
2025-10-31T03:36	10	0	0.1	0	0	354	0.3	354	355	9.6	92.0
2025-10-31T03:37	10	0	0.1	0	0	355	0.2	354	355	9.6	92.1
2025-10-31T03:38	10	0	0.1	0	0	355	0.2	355	355	9.6	91.9
2025-10-31T03:39	10	0	0.1	0	0	355	0.2	355	356	9.6	92.0
2025-10-31T03:40	10	0	0.1	0	0	355	0.2	355	356	9.6	92.2
2025-10-31T03:41	10	0	0.1	0	0	356	0.2	355	356	9.6	92.2
2025-10-31T03:42	10	0	0.1	0	0	356	0.2	355	356	9.6	91.9
2025-10-31T03:43	10	0	0.1	0	0	356	0.2	356	357	9.6	91.8
2025-10-31T03:44	10	0	0.1	0	0	356	0.2	356	357	9.6	91.9
2025-10-31T03:45	10	0	0.1	0	0	357	0.2	356	357	9.6	92.2
2025-10-31T03:46	10	0	0.1	0	0	357	0.3	356	357	9.6	92.3
2025-10-31T03:47	10	0	0.1	0	0	357	0.2	356	357	9.6	92.1
2025-10-31T03:48	10	0	0.1	0	1	357	0.3	356	357	9.6	92.7
2025-10-31T03:49	10	0	0.1	0	0	357	0.2	356	357	9.6	92.1
2025-10-31T03:50	10	0	0.1	0	0	357	0.2	356	357	9.6	92.2
2025-10-31T03:51	10	0	0.1	0	0	356	0.3	356	357	9.6	92.2
2025-10-31T03:52	10	0	0.1	0	0	357	0.2	356	357	9.6	92.2
2025-10-31T03:53	10	0	0.1	0	0	356	0.2	356	357	9.6	92.2
2025-10-31T03:54	10	0	0.1	0	0	356	0.3	356	357	9.6	92.2
2025-10-31T03:55	10	0	0.1	0	0	356	0.3	355	356	9.5	92.5
2025-10-31T03:56	10	0	0.1	0	0	355	0.4	355	356	9.5	92.9
2025-10-31T03:57	10	0	0.1	0	0	355	0.2	354	356	9.4	93.6
2025-10-31T03:58	10	0	0.1	0	0	355	0.3	354	355	9.4	93.3
2025-10-31T03:59	10	0	0.1	0	0	355	0.2	354	355	9.5	92.9
2025-10-31T04:00	10	0	0.1	0	0	355	0.2	354	355	9.4	92.9
2025-10-31T04:01	10	0	0.1	0	0	355	0.2	354	355	9.5	92.9
2025-10-31T04:02	10	0	0.1	0	0	355	0.3	354	356	9.6	92.5
2025-10-31T04:03	10	0	0.1	0	0	356	0.2	355	357	9.7	91.9
2025-10-31T04:04	10	0	0.1	0	0	356	0.2	356	357	9.7	91.5
2025-10-31T04:05	10	0	0.1	0	0	356	0.3	355	357	9.6	91.9
2025-10-31T04:06	10	0	0.1	0	0	356	0.2	355	356	9.6	92.4
2025-10-31T04:07	10	0	0.1	0	0	356	0.2	355	357	9.5	92.8
2025-10-31T04:08	10	0	0.1	0	0	356	0.2	355	356	9.5	93.1
2025-10-31T04:09	10	0	0.1	0	0	356	0.3	355	356	9.4	93.3
2025-10-31T04:10	10	0	0.1	0	0	355	0.2	355	356	9.4	93.6
2025-10-31T04:11	10	0	0.1	0	0	355	0.2	354	355	9.4	93.6
2025-10-31T04:12	10	0	0.1	0	0	355	0.2	355	355	9.4	93.5
2025-10-31T04:13	10	0	0.1	0	0	355	0.2	354	355	9.4	93.6
2025-10-31T04:14	10	0	0.1	0	0	355	0.3	354	355	9.4	93.7
2025-10-31T04:15	10	0	0.1	0	0	355	0.2	354	355	9.4	93.8
2025-10-31T04:16	10	0	0.1	0	0	355	0.2	354	355	9.4	93.4
2025-10-31T04:17	10	0	0.1	0	0	355	0.2	355	356	9.5	93.2
2025-10-31T04:18	10	0	0.1	0	0	355	0.2	355	356	9.5	93.3
2025-10-31T04:19	10	0	0.1	0	0	355	0.2	355	356	9.4	93.6
2025-10-31T04:20	10	0	0.1	0	0	355	0.2	355	356	9.4	93.8
2025-10-31T04:21	10	0	0.1	0	0	355	0.2	355	356	9.4	93.5
2025-10-31T04:22	10	0	0.1	0	0	355	0.3	355	356	9.5	93.2
2025-10-31T04:23	10	0	0.1	0	0	355	0.3	354	356	9.5	93.4
2025-10-31T04:24	10	0	0.1	0	0	355	0.2	354	355	9.6	93.2
2025-10-31T04:25	10	0	0.1	0	0	355	0.2	354	355	9.6	93.2
2025-10-31T04:26	10	0	0.1	0	0	354	0.2	354	355	9.6	93.2
2025-10-31T04:27	10	0	0.1	0	0	355	0.2	354	355	9.6	93.3
2025-10-31T04:28	10	0	0.1	0	0	354	0.2	354	355	9.6	93.3
2025-10-31T04:29	10	0	0.1	0	0	354	0.3	354	355	9.5	93.6
2025-10-31T04:30	10	0	0.1	0	1	354	0.2	353	354	9.6	93.5
2025-10-31T04:31	10	0	0.1	0	0	353	0.2	353	354	9.6	93.6
2025-10-31T04:32	10	0	0.1	0	0	353	0.2	352	354	9.6	93.3
2025-10-31T04:33	10	0	0.1	0	0	352	0.2	352	353	9.7	93.1
2025-10-31T04:34	10	0	0.1	0	0	352	0.2	352	353	9.7	92.8
2025-10-31T04:35	10	0	0.1	0	0	352	0.2	351	352	9.7	92.9
2025-10-31T04:36	10	0	0.1	0	1	352	0.2	351	352	9.7	92.9
2025-10-31T04:37	10	0	0.1	0	0	352	0.3	351	353	9.7	93.1
2025-10-31T04:38	10	0	0.1	0	0	352	0.2	351	352	9.7	92.9
2025-10-31T04:39	10	0	0.1	0	0	351	0.2	351	352	9.7	92.5
2025-10-31T04:40	10	0	0.1	0	0	351	0.2	350	351	9.8	92.3
2025-10-31T04:41	10	0	0.1	0	0	350	0.2	350	351	9.8	92.0
2025-10-31T04:42	10	0	0.1	0	1	350	0.2	349	350	9.8	91.8
2025-10-31T04:43	10	0	0.1	0	0	350	0.3	350	351	9.8	91.8
2025-10-31T04:44	10	0	0.1	0	0	351	0.3	350	351	9.8	91.7
2025-10-31T04:45	10	0	0.1	0	0	351	0.2	351	352	9.8	92.1
2025-10-31T04:46	10	0	0.1	0	0	351	0.3	350	352	9.8	92.4
2025-10-31T04:47	10	0	0.1	0	0	350	0.3	350	351	9.7	92.6
2025-10-31T04:48	10	0	0.1	0	0	350	0.2	350	351	9.6	92.8
2025-10-31T04:49	10	0	0.1	0	0	350	0.2	349	350	9.6	93.2
2025-10-31T04:50	10	0	0.1	0	0	350	0.3	349	351	9.6	93.4
2025-10-31T04:51	10	0	0.1	0	0	351	0.3	350	351	9.5	93.6
2025-10-31T04:52	10	0	0.1	0	0	351	0.2	351	352	9.5	93.8
2025-10-31T04:53	10	0	0.1	0	0	352	0.2	351	352	9.5	94.1
2025-10-31T04:54	10	0	0.1	0	0	352	0.2	351	352	9.4	94.4
2025-10-31T04:55	10	0	0.1	0	0	352	0.2	351	353	9.4	94.3
2025-10-31T04:56	10	0	0.1	0	0	352	0.2	352	353	9.4	94.1
2025-10-31T04:57	10	0	0.1	0	0	352	0.3	352	353	9.4	93.9
2025-10-31T04:58	10	0	0.1	0	0	353	0.3	352	354	9.4	93.8
2025-10-31T04:59	10	0	0.1	0	0	353	0.3	353	354	9.4	93.8
2025-10-31T05:00	10	0	0.1	0	0	354	0.3	353	354	9.4	93.9
2025-10-31T05:01	10	0	0.1	0	0	355	0.2	354	355	9.3	94.2
2025-10-31T05:02	10	0	0.1	0	0	354	0.2	354	355	9.3	94.4
2025-10-31T05:03	10	0	0.1	0	0	355	0.3	354	355	9.3	94.6
2025-10-31T05:04	10	0	0.1	0	0	355	0.2	354	355	9.3	94.4
2025-10-31T05:05	10	0	0.0	0	0	355	0.2	354	355	9.3	94.7
2025-10-31T05:06	10	0	0.1	0	0	355	0.2	355	356	9.2	94.9
2025-10-31T05:07	10	0	0.1	0	0	355	0.2	354	356	9.2	95.0
2025-10-31T05:08	10	0	0.1	0	0	355	0.3	354	355	9.1	95.4
2025-10-31T05:09	10	0	0.1	0	0	355	0.3	354	355	9.1	95.4
2025-10-31T05:10	10	0	0.1	0	0	355	0.2	354	355	9.1	95.6
2025-10-31T05:11	10	0	0.1	0	0	355	0.2	354	355	9.0	95.7
2025-10-31T05:12	10	0	0.1	0	0	355	0.2	354	355	9.0	95.9
2025-10-31T05:13	10	0	0.1	0	0	355	0.2	354	355	9.0	96.0
2025-10-31T05:14	10	0	0.1	0	0	355	0.2	354	355	9.0	96.0
2025-10-31T05:15	10	0	0.1	0	0	355	0.2	354	355	9.0	95.8
2025-10-31T05:16	10	0	0.1	0	0	355	0.2	354	355	9.0	95.9
2025-10-31T05:17	10	0	0.1	0	0	355	0.2	355	356	9.0	96.0
2025-10-31T05:18	10	0	0.1	0	0	355	0.2	355	355	9.1	95.8
2025-10-31T05:19	10	0	0.1	0	0	355	0.3	354	356	9.1	95.9
2025-10-31T05:20	10	0	0.1	0	0	355	0.2	354	355	9.1	96.0
2025-10-31T05:21	10	0	0.1	0	0	355	0.2	355	356	9.1	95.9
2025-10-31T05:22	10	0	0.1	0	0	355	0.3	355	356	9.1	95.8
2025-10-31T05:23	10	0	0.1	0	0	355	0.2	355	356	9.1	95.8
2025-10-31T05:24	10	0	0.1	0	0	356	0.3	355	356	9.1	96.1
2025-10-31T05:25	10	0	0.1	0	0	356	0.2	355	356	9.2	96.1
2025-10-31T05:26	10	0	0.1	0	0	356	0.2	355	356	9.2	96.0
2025-10-31T05:27	10	0	0.0	0	0	356	0.2	355	356	9.2	95.9
2025-10-31T05:28	10	0	0.1	0	0	356	0.2	355	356	9.1	96.1
2025-10-31T05:29	10	0	0.1	0	0	356	0.2	355	356	9.1	96.4
2025-10-31T05:30	10	0	0.1	0	0	355	0.2	355	356	9.1	96.6
2025-10-31T05:31	10	0	0.1	0	0	355	0.2	355	356	9.1	96.5
2025-10-31T05:32	10	0	0.1	0	0	355	0.2	355	356	9.1	96.2
2025-10-31T05:33	10	0	0.1	0	0	355	0.2	354	355	9.1	96.6
2025-10-31T05:34	10	0	0.1	0	0	355	0.2	354	355	9.1	96.8
2025-10-31T05:35	10	0	0.1	0	0	354	0.2	354	354	9.0	96.8
2025-10-31T05:36	10	0	0.1	0	0	354	0.2	354	355	9.0	96.7
2025-10-31T05:37	10	0	0.1	0	0	354	0.3	354	355	8.9	96.3
2025-10-31T05:38	10	0	0.1	0	0	354	0.2	354	355	8.9	96.3
2025-10-31T05:39	10	0	0.1	0	0	354	0.2	354	355	8.9	96.4
2025-10-31T05:40	10	0	0.1	0	0	354	0.2	354	355	8.9	96.7
2025-10-31T05:41	10	0	0.1	0	0	354	0.2	354	355	8.9	96.8
2025-10-31T05:42	10	0	0.1	0	0	354	0.2	354	355	8.9	96.9
2025-10-31T05:43	10	0	0.1	0	0	354	0.2	353	354	8.9	96.8
2025-10-31T05:44	10	0	0.1	0	0	354	0.3	353	354	8.9	96.5
2025-10-31T05:45	10	0	0.1	0	0	353	0.3	353	354	8.9	96.4
2025-10-31T05:46	10	0	0.1	0	0	353	0.2	353	353	8.9	96.1
2025-10-31T05:47	10	0	0.1	0	0	353	0.2	352	353	8.9	95.8
2025-10-31T05:48	10	0	0.1	0	0	353	0.3	352	353	8.9	95.1
2025-10-31T05:49	10	0	0.1	0	0	353	0.3	352	354	8.9	95.0
2025-10-31T05:50	10	0	0.1	0	0	353	0.2	353	354	9.0	95.0
2025-10-31T05:51	10	0	0.1	0	0	353	0.2	353	354	9.0	94.9
2025-10-31T05:52	10	0	0.1	0	0	353	0.2	353	353	8.9	95.0
2025-10-31T05:53	10	0	0.1	0	0	353	0.2	353	354	9.0	94.8
2025-10-31T05:54	10	0	0.1	0	0	353	0.3	352	354	8.9	94.8
2025-10-31T05:55	10	0	0.1	0	0	353	0.2	352	353	8.9	95.0
2025-10-31T05:56	10	0	0.1	0	1	353	0.3	353	354	8.9	95.5
2025-10-31T05:57	10	0	0.0	0	1	354	0.2	353	354	8.9	95.7
2025-10-31T05:58	10	1	0.1	0	1	354	0.2	353	354	8.9	95.7
2025-10-31T05:59	10	1	0.1	1	1	354	0.2	354	354	8.9	95.9
2025-10-31T06:00	10	1	0.1	1	1	354	0.2	353	354	8.9	96.1
2025-10-31T06:01	10	1	0.1	1	1	354	0.2	353	354	8.8	96.0
2025-10-31T06:02	10	1	0.1	1	1	354	0.2	353	354	8.8	96.1
2025-10-31T06:03	10	1	0.1	1	1	354	0.2	353	354	8.8	96.0
2025-10-31T06:04	10	1	0.1	1	1	354	0.2	353	354	8.8	96.3
2025-10-31T06:05	10	1	0.1	1	1	354	0.2	353	354	8.8	96.0
2025-10-31T06:06	10	1	0.1	1	1	354	0.2	353	354	8.8	96.0
2025-10-31T06:07	10	1	0.1	1	1	354	0.2	353	354	8.7	95.6
2025-10-31T06:08	10	1	0.1	1	1	354	0.2	353	354	8.6	95.4
2025-10-31T06:09	10	1	0.1	1	1	353	0.2	353	354	8.6	95.4
2025-10-31T06:10	10	1	0.1	1	1	353	0.3	353	354	8.6	95.6
2025-10-31T06:11	10	1	0.1	1	1	354	0.2	353	354	8.6	95.9
2025-10-31T06:12	10	1	0.1	1	1	354	0.3	353	354	8.6	96.1
2025-10-31T06:13	10	1	0.1	1	1	354	0.2	353	354	8.6	96.2
2025-10-31T06:14	10	1	0.1	0	1	354	0.2	354	354	8.6	96.2
2025-10-31T06:15	10	1	0.1	0	1	354	0.2	353	354	8.6	96.2
2025-10-31T06:16	10	1	0.1	1	1	354	0.2	353	354	8.6	96.1
2025-10-31T06:17	10	1	0.1	1	1	353	0.2	353	354	8.6	96.3
2025-10-31T06:18	10	1	0.1	1	1	353	0.2	353	354	8.6	96.4
2025-10-31T06:19	10	1	0.1	1	1	354	0.2	353	354	8.6	96.3
2025-10-31T06:20	10	1	0.1	1	1	354	0.2	353	354	8.6	96.3
2025-10-31T06:21	10	1	0.1	1	1	354	0.2	354	354	8.6	96.1
2025-10-31T06:22	10	1	0.1	1	1	354	0.3	353	354	8.7	96.0
2025-10-31T06:23	10	1	0.1	1	1	354	0.2	354	354	8.7	95.9
2025-10-31T06:24	10	2	0.1	1	2	354	0.2	353	354	8.7	95.8
2025-10-31T06:25	10	2	0.1	2	2	354	0.3	353	354	8.7	95.8
2025-10-31T06:26	10	2	0.1	2	2	354	0.3	353	354	8.7	96.2
2025-10-31T06:27	10	3	0.1	2	3	353	0.2	353	354	8.6	96.2
2025-10-31T06:28	10	3	0.1	3	3	354	0.2	353	354	8.6	95.5
2025-10-31T06:29	10	3	0.1	3	3	353	0.2	353	354	8.5	95.3
2025-10-31T06:30	10	3	0.1	3	3	354	0.2	353	354	8.6	95.4
2025-10-31T06:31	10	3	0.0	3	3	354	0.2	353	354	8.6	94.9
2025-10-31T06:32	10	3	0.1	3	3	354	0.2	353	354	8.7	94.5
2025-10-31T06:33	10	3	0.1	3	3	354	0.2	353	354	8.7	94.4
2025-10-31T06:34	10	3	0.1	3	3	353	0.2	353	354	8.6	94.4
2025-10-31T06:35	10	3	0.1	3	4	353	0.2	353	354	8.6	93.0
2025-10-31T06:36	10	4	0.1	4	4	353	0.2	353	354	8.6	92.9
2025-10-31T06:37	10	4	0.1	4	4	354	0.2	353	354	8.6	91.4
2025-10-31T06:38	10	5	0.1	4	5	354	0.3	353	355	8.6	91.4
2025-10-31T06:39	10	5	0.1	4	5	354	0.2	354	355	8.6	94.6
2025-10-31T06:40	10	5	0.1	4	5	354	0.2	354	355	8.6	94.6
2025-10-31T06:41	10	5	0.1	5	5	354	0.2	354	355	8.6	94.6
2025-10-31T06:42	10	5	0.1	5	5	354	0.2	354	355	8.6	94.6
2025-10-31T06:43	10	5	0.2	5	6	354	0.2	354	355	8.7	92.4
2025-10-31T06:44	10	6	0.2	6	6	354	0.2	354	355	8.7	93.0
2025-10-31T06:45	10	7	0.1	6	7	354	0.2	354	355	8.7	93.3
2025-10-31T06:46	10	7	0.1	7	7	355	0.2	354	355	8.7	93.5
2025-10-31T06:47	10	7	0.1	7	7	355	0.3	354	355	8.7	93.7
2025-10-31T06:48	10	7	0.1	7	7	355	0.2	354	355	8.7	93.8
2025-10-31T06:49	10	7	0.2	7	7	355	0.2	355	356	8.7	93.6
2025-10-31T06:50	10	7	0.1	7	8	355	0.2	355	356	8.7	93.8
2025-10-31T06:51	10	8	0.1	8	8	356	0.3	355	356	8.7	94.0
2025-10-31T06:52	10	7	0.3	7	8	356	0.2	356	357	8.8	94.3
2025-10-31T06:53	10	6	0.2	6	7	357	0.2	356	357	8.8	94.7
2025-10-31T06:54	10	6	0.1	6	6	357	0.3	356	357	8.8	94.8
2025-10-31T06:55	10	6	0.1	6	7	356	0.3	355	357	8.8	93.9
2025-10-31T06:56	10	7	0.1	6	7	356	0.3	355	357	8.8	93.4
2025-10-31T06:57	10	7	0.1	7	7	356	0.3	355	357	8.8	93.7
2025-10-31T06:58	10	7	0.2	7	8	356	0.2	355	356	8.8	94.1
2025-10-31T06:59	10	8	0.2	8	8	356	0.2	356	356	8.8	93.9
2025-10-31T07:00	10	8	0.1	8	8	356	0.2	356	357	8.8	93.8
2025-10-31T07:01	10	8	0.1	8	8	356	0.2	356	357	8.8	93.6
2025-10-31T07:02	10	8	0.1	8	9	356	0.2	356	356	8.8	93.3
2025-10-31T07:03	10	9	0.2	9	9	356	0.2	355	356	8.8	92.9
2025-10-31T07:04	10	9	0.2	9	10	356	0.2	355	357	8.7	92.8
2025-10-31T07:05	10	10	0.2	10	11	356	0.2	356	357	8.7	92.8
2025-10-31T07:06	10	11	0.3	10	12	356	0.3	356	357	8.7	92.8
2025-10-31T07:07	10	12	0.1	11	12	357	0.3	356	357	8.7	92.5
2025-10-31T07:08	10	12	0.1	11	12	357	0.2	356	357	8.6	92.4
2025-10-31T07:09	10	12	0.2	12	13	357	0.3	356	357	8.6	92.9
2025-10-31T07:10	10	12	0.2	12	13	357	0.2	356	357	8.6	92.9
2025-10-31T07:11	10	13	0.2	13	14	356	0.2	356	357	8.6	92.7
2025-10-31T07:12	10	14	0.3	13	14	356	0.3	355	356	8.7	92.9
2025-10-31T07:13	10	15	0.3	14	15	355	0.3	354	356	8.7	93.1
2025-10-31T07:14	10	16	0.2	16	17	354	0.2	354	355	8.7	92.7
2025-10-31T07:15	10	17	0.4	16	18	354	0.2	353	354	8.8	93.0
2025-10-31T07:16	10	18	0.2	18	19	354	0.2	353	354	8.8	92.8
2025-10-31T07:17	10	19	0.1	18	19	354	0.2	353	355	8.9	93.3
2025-10-31T07:18	10	19	0.2	19	20	354	0.2	353	355	8.9	92.9
2025-10-31T07:19	10	21	0.7	20	22	354	0.2	353	354	8.9	92.9
2025-10-31T07:20	10	26	2.0	22	29	354	0.3	353	355	8.9	92.8
2025-10-31T07:21	10	24	0.9	23	28	354	0.3	354	355	8.9	93.0
2025-10-31T07:22	10	37	7.4	26	45	355	0.7	354	357	9.0	93.2
2025-10-31T07:23	10	45	0.4	44	45	357	0.6	356	358	9.1	93.3
2025-10-31T07:24	10	44	0.6	42	44	357	0.3	357	358	9.2	92.8
2025-10-31T07:25	10	42	0.3	41	42	358	0.2	357	359	9.3	92.5
2025-10-31T07:26	10	42	0.1	42	43	359	0.2	358	359	9.4	92.5
2025-10-31T07:27	10	41	0.4	40	42	359	0.2	358	359	9.4	91.8
2025-10-31T07:28	10	40	0.3	40	41	359	0.3	358	359	9.4	91.9
2025-10-31T07:29	10	41	1.2	39	43	359	0.2	358	359	9.4	91.6
2025-10-31T07:30	10	48	3.1	43	54	359	0.5	359	360	9.4	90.9
2025-10-31T07:31	10	56	1.1	54	58	361	0.3	360	361	9.5	90.8
2025-10-31T07:32	10	56	0.5	55	57	361	0.2	360	361	9.6	90.2
2025-10-31T07:33	10	54	0.4	53	55	361	0.3	360	362	9.6	89.7
2025-10-31T07:34	10	50	2.9	45	53	361	0.3	360	361	9.6	89.0
2025-10-31T07:35	10	47	0.6	46	48	361	0.2	360	361	9.5	89.0
2025-10-31T07:36	10	48	0.3	47	49	361	0.3	360	361	9.6	89.6
2025-10-31T07:37	10	45	1.6	42	47	361	0.5	360	361	9.6	89.6
2025-10-31T07:38	10	31	4.9	26	42	360	0.7	358	361	9.6	88.7
2025-10-31T07:39	10	26	0.1	26	26	359	0.4	358	360	9.6	89.1
2025-10-31T07:40	10	27	0.4	26	27	358	0.2	358	359	9.7	89.4
2025-10-31T07:41	10	28	0.5	27	29	359	0.2	358	359	9.7	89.1
2025-10-31T07:42	10	34	3.7	29	45	359	0.2	359	360	9.7	88.9
2025-10-31T07:43	10	49	1.4	45	51	361	0.7	359	362	9.7	88.7
2025-10-31T07:44	10	52	2.6	43	54	362	0.6	361	364	9.8	88.2
2025-10-31T07:45	10	42	1.1	39	44	363	0.2	362	363	9.9	88.1
2025-10-31T07:46	10	41	7.5	34	53	363	0.4	362	364	9.9	88.0
2025-10-31T07:47	10	39	5.0	36	52	363	0.4	363	364	9.9	88.3
2025-10-31T07:48	10	42	4.4	38	50	364	0.5	362	364	9.9	88.3
2025-10-31T07:49	10	48	9.3	38	63	365	0.6	364	366	9.9	88.2
2025-10-31T07:50	10	49	8.2	42	63	365	0.4	364	366	9.9	87.7
2025-10-31T07:51	10	43	4.4	39	53	365	0.5	364	366	9.9	87.1
2025-10-31T07:52	10	37	4.9	33	51	364	0.7	363	365	9.9	87.2
2025-10-31T07:53	10	32	1.0	31	36	363	0.5	362	364	9.9	87.4
2025-10-31T07:54	10	32	0.6	31	33	362	0.3	362	363	9.9	87.9
2025-10-31T07:55	10	34	0.4	33	34	362	0.2	362	363	10.0	87.9
2025-10-31T07:56	10	35	0.6	34	36	362	0.3	362	363	10.0	87.7
2025-10-31T07:57	10	36	0.2	36	37	363	0.3	362	363	10.0	87.3
2025-10-31T07:58	10	37	2.0	36	44	363	0.3	362	364	10.0	87.3
2025-10-31T07:59	10	36	4.9	32	45	364	0.2	363	364	10.1	87.5
2025-10-31T08:00	10	31	0.5	31	32	363	0.3	363	364	10.1	88.3
2025-10-31T08:01	10	30	0.2	30	31	363	0.2	363	364	10.1	87.7
2025-10-31T08:02	10	30	0.4	30	31	363	0.2	362	364	10.2	86.7
2025-10-31T08:03	10	33	0.9	31	34	363	0.2	362	363	10.2	86.1
2025-10-31T08:04	10	37	2.2	34	41	363	0.2	363	364	10.3	86.1
2025-10-31T08:05	10	38	2.5	35	42	364	0.2	363	364	10.3	85.6
2025-10-31T08:06	10	35	1.5	33	37	364	0.3	363	364	10.4	85.7
2025-10-31T08:07	10	32	0.2	31	32	363	0.2	363	364	10.4	85.1
2025-10-31T08:08	10	33	1.0	32	35	363	0.2	363	364	10.4	85.2
2025-10-31T08:09	10	39	1.3	35	40	364	0.2	363	364	10.4	85.0
2025-10-31T08:10	10	38	0.8	36	39	365	0.3	364	365	10.4	84.8
2025-10-31T08:11	10	33	2.3	29	36	365	0.2	364	366	10.4	85.3
2025-10-31T08:12	10	29	0.2	29	30	365	0.2	364	365	10.5	84.9
2025-10-31T08:13	10	30	0.1	30	30	365	0.2	364	365	10.5	84.3
2025-10-31T08:14	10	30	0.3	29	30	365	0.3	364	366	10.5	84.1
2025-10-31T08:15	10	29	0.3	29	30	365	0.2	364	365	10.5	83.9
2025-10-31T08:16	10	28	0.1	28	29	365	0.2	364	365	10.5	84.1
2025-10-31T08:17	10	29	0.4	28	30	365	0.2	365	365	10.6	84.4
2025-10-31T08:18	10	30	0.3	30	31	365	0.3	365	366	10.6	83.7
2025-10-31T08:19	10	31	0.1	31	31	366	0.3	366	367	10.6	84.0
2025-10-31T08:20	10	30	0.1	30	31	367	0.3	366	367	10.6	84.0
2025-10-31T08:21	10	31	0.1	30	31	368	0.3	367	368	10.6	84.3
2025-10-31T08:22	10	30	0.3	30	30	368	0.2	367	368	10.7	84.0
2025-10-31T08:23	10	29	0.4	28	30	368	0.3	368	369	10.7	83.9
2025-10-31T08:24	10	28	0.2	27	28	368	0.2	368	369	10.7	84.0
2025-10-31T08:25	10	28	0.2	27	28	369	0.2	368	369	10.7	84.3
2025-10-31T08:26	10	28	0.1	28	29	369	0.3	369	370	10.7	84.3
2025-10-31T08:27	10	28	0.3	27	28	370	0.2	369	370	10.8	84.6
2025-10-31T08:28	10	27	0.1	27	27	370	0.2	369	371	10.8	85.0
2025-10-31T08:29	10	27	0.2	26	27	370	0.3	369	371	10.8	85.2
2025-10-31T08:30	10	27	0.2	26	27	370	0.5	369	370	10.8	86.4
2025-10-31T08:31	10	27	0.6	26	28	369	0.2	369	369	10.7	86.0
2025-10-31T08:32	10	30	0.6	29	30	369	0.3	369	370	10.7	86.7
2025-10-31T08:33	10	32	0.5	31	32	370	0.3	369	371	10.6	87.4
2025-10-31T08:34	10	32	0.1	32	33	370	0.3	370	371	10.6	87.8
2025-10-31T08:35	10	33	0.3	32	33	371	0.2	370	371	10.6	87.2
2025-10-31T08:36	10	34	0.2	33	34	372	0.4	371	372	10.6	86.7
2025-10-31T08:37	10	33	0.6	32	34	372	0.3	371	373	10.7	87.1
2025-10-31T08:38	10	30	1.3	28	32	372	0.2	372	373	10.7	87.2
2025-10-31T08:39	10	26	1.0	24	28	372	0.3	372	373	10.7	87.6
2025-10-31T08:40	10	24	0.5	23	24	372	0.3	371	372	10.7	87.5
2025-10-31T08:41	10	22	0.3	22	23	371	0.5	370	371	10.6	87.2
2025-10-31T08:42	10	21	0.3	21	22	370	0.2	369	370	10.6	87.3
2025-10-31T08:43	10	21	0.1	20	21	369	0.3	368	370	10.6	87.1
2025-10-31T08:44	10	21	0.1	20	21	369	0.2	368	369	10.6	86.8
2025-10-31T08:45	10	21	0.2	21	21	369	0.3	368	370	10.6	87.0
2025-10-31T08:46	10	22	0.5	21	23	369	0.2	369	370	10.6	86.9
2025-10-31T08:47	10	24	0.9	23	26	370	0.3	369	371	10.6	86.4
2025-10-31T08:48	10	27	0.8	26	29	370	0.4	370	372	10.6	86.5
2025-10-31T08:49	10	29	0.3	28	29	371	0.2	370	372	10.7	86.8
2025-10-31T08:50	10	27	0.6	26	28	371	0.2	371	372	10.6	86.1
2025-10-31T08:51	10	25	0.4	24	26	371	0.2	371	372	10.7	85.9
2025-10-31T08:52	10	24	0.3	24	25	371	0.3	371	372	10.7	86.5
2025-10-31T08:53	10	23	0.2	23	24	371	0.2	371	371	10.7	86.1
2025-10-31T08:54	10	23	0.1	23	23	371	0.3	370	372	10.7	86.2
2025-10-31T08:55	10	23	0.1	23	23	372	0.2	371	372	10.8	86.1
2025-10-31T08:56	10	24	0.4	23	25	372	0.3	371	372	10.9	86.3
2025-10-31T08:57	10	26	0.7	24	27	372	0.2	372	373	10.9	86.2
2025-10-31T08:58	10	29	0.7	28	30	373	0.3	372	374	11.0	86.3
2025-10-31T08:59	10	30	0.1	30	31	373	0.3	373	374	11.1	85.5
2025-10-31T09:00	10	31	0.4	31	32	374	0.3	373	374	11.1	85.3
2025-10-31T09:01	10	33	0.4	32	33	374	0.2	374	375	11.1	85.2
2025-10-31T09:02	10	34	0.1	33	34	374	0.2	374	375	11.1	84.9
2025-10-31T09:03	10	33	0.5	32	33	374	0.3	374	375	11.1	85.0
2025-10-31T09:04	10	32	0.2	31	32	374	0.2	374	375	11.1	85.0
2025-10-31T09:05	10	33	0.9	32	35	374	0.3	374	375	11.1	84.7
2025-10-31T09:06	10	37	0.7	35	38	375	0.3	375	376	11.2	85.2
2025-10-31T09:07	10	39	0.8	38	40	376	0.4	375	377	11.2	84.9
2025-10-31T09:08	10	42	0.8	40	43	377	0.2	376	377	11.2	84.9
2025-10-31T09:09	10	43	0.1	43	43	377	0.2	377	378	11.2	84.6
2025-10-31T09:10	10	43	0.3	42	43	377	0.2	377	378	11.2	84.3
2025-10-31T09:11	10	41	0.4	41	42	378	0.2	377	378	11.3	84.5
2025-10-31T09:12	10	40	0.4	39	41	378	0.4	377	378	11.4	84.3
2025-10-31T09:13	10	38	0.7	37	39	377	0.3	376	377	11.4	83.8
2025-10-31T09:14	10	37	0.3	37	38	377	0.3	376	377	11.4	84.1
2025-10-31T09:15	10	38	0.3	37	38	376	0.2	376	377	11.5	84.1
2025-10-31T09:16	10	37	0.1	36	37	376	0.4	376	377	11.4	83.9
2025-10-31T09:17	10	38	0.9	37	40	376	0.3	375	376	11.3	83.9
2025-10-31T09:18	10	41	0.3	40	41	376	0.4	376	377	11.3	83.9
2025-10-31T09:19	10	40	0.3	39	40	377	0.4	376	377	11.3	84.2
2025-10-31T09:20	10	40	0.3	40	41	377	0.2	376	377	11.3	83.7
2025-10-31T09:21	10	41	0.5	40	42	377	0.4	376	378	11.4	84.4
2025-10-31T09:22	10	45	1.7	42	48	378	0.5	377	379	11.4	84.1
2025-10-31T09:23	10	49	0.9	48	51	379	0.3	378	380	11.5	83.7
2025-10-31T09:24	10	52	0.3	51	52	380	0.4	379	381	11.5	83.3
2025-10-31T09:25	10	51	0.5	50	52	380	0.2	380	381	11.6	83.7
2025-10-31T09:26	10	49	0.2	49	50	380	0.3	380	381	11.5	83.2
2025-10-31T09:27	10	48	0.2	48	49	380	0.3	380	381	11.5	83.8
2025-10-31T09:28	10	47	0.7	46	48	380	0.3	380	381	11.5	83.7
2025-10-31T09:29	10	45	0.8	43	46	380	0.4	379	381	11.5	84.1
2025-10-31T09:30	10	42	0.6	41	43	380	0.5	379	381	11.6	84.0
2025-10-31T09:31	10	39	0.8	38	41	379	0.3	379	380	11.5	83.6
2025-10-31T09:32	10	38	0.3	37	38	379	0.3	379	380	11.5	83.8
2025-10-31T09:33	10	39	0.8	37	40	379	0.4	379	380	11.6	83.5
2025-10-31T09:34	10	41	0.3	40	41	380	0.2	380	381	11.6	83.5
2025-10-31T09:35	10	38	1.3	35	40	380	0.2	380	380	11.7	83.5
2025-10-31T09:36	10	33	1.2	31	35	379	0.5	378	381	11.8	83.2
2025-10-31T09:37	10	30	0.4	29	31	379	0.3	378	379	11.9	83.2
2025-10-31T09:38	10	29	0.5	28	29	378	0.3	378	379	11.8	83.6
2025-10-31T09:39	10	27	0.6	26	28	378	0.2	378	379	11.8	83.4
2025-10-31T09:40	10	26	0.4	25	26	378	0.5	377	378	11.7	83.1
2025-10-31T09:41	10	24	0.3	24	25	377	0.4	376	378	11.7	83.4
2025-10-31T09:42	10	24	0.1	23	24	376	0.3	376	377	11.7	84.1
2025-10-31T09:43	10	23	0.1	23	23	376	0.3	375	377	11.7	85.0
2025-10-31T09:44	10	23	0.2	22	23	376	0.3	375	376	11.6	83.9
2025-10-31T09:45	10	22	0.1	22	22	375	0.2	375	376	11.6	84.0
2025-10-31T09:46	10	23	0.2	22	23	375	0.2	375	376	11.6	84.1
2025-10-31T09:47	10	23	0.3	23	24	376	0.3	375	376	11.7	84.6
2025-10-31T09:48	10	24	0.3	24	25	376	0.2	376	377	11.7	85.1
2025-10-31T09:49	10	26	0.3	25	26	376	0.3	376	377	11.7	85.7
2025-10-31T09:50	10	26	0.2	26	27	375	0.2	375	376	11.6	85.1
2025-10-31T09:51	10	27	0.5	27	28	376	0.3	375	376	11.6	85.1
2025-10-31T09:52	10	29	0.5	28	30	376	0.4	375	377	11.6	85.3
2025-10-31T09:53	10	30	0.1	30	31	377	0.3	376	377	11.6	84.6
2025-10-31T09:54	10	32	0.6	31	33	377	0.3	377	378	11.7	85.2
2025-10-31T09:55	10	36	2.1	33	40	378	0.4	377	379	11.7	85.6
2025-10-31T09:56	10	45	3.2	40	50	379	0.8	378	381	11.7	85.4
2025-10-31T09:57	10	53	0.9	51	54	381	0.5	380	382	11.7	84.2
2025-10-31T09:58	10	52	0.7	50	53	382	0.2	381	382	11.8	84.9
2025-10-31T09:59	10	48	1.4	46	50	382	0.2	382	383	11.8	85.4
2025-10-31T10:00	10	40	3.1	36	45	382	0.5	381	383	11.9	85.5
2025-10-31T10:01	10	35	0.6	35	37	381	0.4	381	382	11.9	85.7
2025-10-31T10:02	10	35	0.9	34	37	380	0.5	379	381	11.8	85.8
2025-10-31T10:03	10	35	0.7	34	36	380	0.5	379	380	11.8	85.6
2025-10-31T10:04	10	38	0.9	36	39	380	0.3	379	380	11.8	85.5
2025-10-31T10:05	10	42	1.4	39	44	380	0.3	380	381	11.8	86.1
2025-10-31T10:06	10	48	2.1	44	51	381	0.3	380	381	11.9	85.6
2025-10-31T10:07	10	54	1.1	51	55	382	0.6	381	383	11.8	85.7
2025-10-31T10:08	10	56	0.6	55	57	383	0.3	382	383	11.8	85.6
2025-10-31T10:09	10	57	0.4	56	57	383	0.2	383	384	11.9	85.4
2025-10-31T10:10	10	56	0.2	55	56	384	0.3	383	384	12.0	86.2
2025-10-31T10:11	10	56	0.2	56	56	384	0.4	383	385	12.1	85.7
2025-10-31T10:12	10	55	0.3	55	56	384	0.4	383	385	12.0	85.0
2025-10-31T10:13	10	54	0.4	53	55	384	0.3	383	385	12.0	84.8
2025-10-31T10:14	10	53	0.6	51	54	384	0.6	383	385	12.0	84.8
2025-10-31T10:15	10	50	1.0	48	51	383	0.3	383	384	11.9	84.9
2025-10-31T10:16	10	48	0.2	48	49	383	0.4	382	384	11.9	85.3
2025-10-31T10:17	10	50	0.5	49	50	383	0.3	383	384	12.0	86.6
2025-10-31T10:18	10	50	0.3	50	51	383	0.5	382	384	12.0	85.6
2025-10-31T10:19	10	49	0.5	48	50	382	0.2	382	383	11.9	86.2
2025-10-31T10:20	10	49	0.3	48	49	383	0.3	382	383	12.0	86.0
2025-10-31T10:21	10	50	0.4	49	50	382	0.4	381	383	11.9	86.0
2025-10-31T10:22	10	51	0.3	50	51	382	0.3	381	382	11.9	86.0
2025-10-31T10:23	10	50	0.6	49	50	381	0.4	381	382	11.8	86.1
2025-10-31T10:24	10	47	0.8	46	48	381	0.2	381	382	11.8	86.2
2025-10-31T10:25	10	45	0.4	44	46	381	0.4	381	382	11.8	86.3
2025-10-31T10:26	10	44	0.4	43	44	380	0.3	380	381	11.8	85.6
2025-10-31T10:27	10	43	0.2	43	43	380	0.4	379	381	11.8	85.6
2025-10-31T10:28	10	43	0.1	42	43	380	0.4	379	381	11.8	84.9
2025-10-31T10:29	10	43	0.3	43	44	381	0.2	380	381	11.8	85.3
2025-10-31T10:30	10	45	0.6	44	46	381	0.3	381	382	11.8	85.1
2025-10-31T10:31	10	47	0.5	46	47	382	0.4	381	383	11.9	85.3
2025-10-31T10:32	10	48	0.2	47	48	382	0.3	381	383	11.9	84.7
2025-10-31T10:33	10	46	0.6	45	47	383	0.2	382	383	11.9	84.7
2025-10-31T10:34	10	44	0.4	44	45	382	0.3	381	383	11.9	85.1
2025-10-31T10:35	10	44	0.3	43	45	382	0.3	381	383	12.0	85.8
2025-10-31T10:36	10	46	1.0	45	48	381	0.3	380	382	12.0	85.4
2025-10-31T10:37	10	50	1.1	48	52	382	0.4	381	382	11.9	85.5
2025-10-31T10:38	10	53	0.6	52	54	383	0.7	382	384	12.1	85.8
2025-10-31T10:39	10	53	0.6	52	54	385	0.3	384	385	12.2	85.3
2025-10-31T10:40	10	51	0.8	49	52	384	0.5	383	385	12.3	85.3
2025-10-31T10:41	10	49	0.4	48	49	383	0.6	382	384	12.1	83.9
2025-10-31T10:42	10	47	0.3	47	48	382	0.3	382	383	12.0	84.0
2025-10-31T10:43	10	47	0.1	47	47	382	0.5	381	383	12.0	84.8
2025-10-31T10:44	10	47	0.1	46	47	382	0.3	381	383	12.0	84.7
2025-10-31T10:45	10	46	0.1	46	47	381	0.4	380	382	12.0	83.7
2025-10-31T10:46	10	46	0.4	45	46	381	0.2	381	381	12.0	84.0
2025-10-31T10:47	10	44	0.8	42	45	381	0.2	381	382	12.0	83.8
2025-10-31T10:48	10	41	0.7	39	42	381	0.3	381	382	12.0	84.4
2025-10-31T10:49	10	39	0.3	38	40	381	0.3	381	382	12.1	83.4
2025-10-31T10:50	10	38	0.1	38	39	382	0.3	381	382	12.2	84.2
2025-10-31T10:51	10	39	0.2	39	39	381	0.4	380	382	12.3	83.3
2025-10-31T10:52	10	39	0.1	39	39	380	0.4	379	380	12.1	82.8
2025-10-31T10:53	10	39	0.2	38	39	380	0.2	379	380	12.0	83.1
2025-10-31T10:54	10	38	0.1	38	39	380	0.3	379	380	12.0	82.8
2025-10-31T10:55	10	40	0.7	39	41	380	0.3	380	381	12.0	82.5
2025-10-31T10:56	10	42	0.8	41	43	380	0.3	380	381	12.1	82.3
2025-10-31T10:57	10	44	0.3	44	45	380	0.3	380	381	12.1	82.3
2025-10-31T10:58	10	45	0.1	44	45	380	0.3	380	381	12.2	82.3
2025-10-31T10:59	10	45	0.1	44	45	381	0.2	381	382	12.3	82.6
2025-10-31T11:00	10	44	0.2	44	45	381	0.2	381	382	12.3	82.4
2025-10-31T11:01	10	43	0.4	43	44	381	0.3	380	381	12.3	82.4
2025-10-31T11:02	10	42	0.5	41	43	380	0.3	379	381	12.3	82.3
2025-10-31T11:03	10	40	0.5	39	41	380	0.4	379	380	12.3	82.3
2025-10-31T11:04	10	38	0.4	38	39	380	0.3	379	380	12.2	82.0
2025-10-31T11:05	10	38	0.1	37	38	380	0.3	379	381	12.3	82.5
2025-10-31T11:06	10	38	0.2	37	38	380	0.3	380	381	12.3	82.2
2025-10-31T11:07	10	39	0.5	38	40	380	0.3	379	380	12.3	81.7
2025-10-31T11:08	10	40	0.2	39	40	380	0.3	379	380	12.2	81.5
2025-10-31T11:09	10	38	0.5	38	39	379	0.2	379	380	12.1	82.4
2025-10-31T11:10	10	37	0.2	37	38	380	0.3	379	380	12.2	82.8
2025-10-31T11:11	10	37	0.3	37	38	380	0.2	379	380	12.2	82.8
2025-10-31T11:12	10	39	0.5	38	40	380	0.3	380	381	12.2	82.4
2025-10-31T11:13	10	40	0.2	40	41	381	0.4	381	382	12.3	82.7
2025-10-31T11:14	10	42	0.9	41	44	382	0.3	381	383	12.3	82.5
2025-10-31T11:15	10	45	0.8	44	46	382	0.2	381	383	12.3	82.5
2025-10-31T11:16	10	47	0.3	46	47	383	0.3	382	383	12.2	82.3
2025-10-31T11:17	10	47	0.2	47	48	383	0.3	382	383	12.2	82.6
2025-10-31T11:18	10	49	0.8	48	50	383	0.3	383	384	12.3	82.8
2025-10-31T11:19	10	53	1.6	50	56	384	0.3	383	384	12.4	82.8
2025-10-31T11:20	10	56	0.2	56	56	385	0.3	384	385	12.4	82.7
2025-10-31T11:21	10	55	0.2	55	56	385	0.3	384	385	12.4	83.1
2025-10-31T11:22	10	58	1.6	55	61	385	0.3	384	385	12.4	83.0
2025-10-31T11:23	10	65	1.7	61	67	386	0.6	385	387	12.6	83.9
2025-10-31T11:24	10	64	0.8	63	66	385	0.6	384	387	12.4	82.3
2025-10-31T11:25	10	65	1.1	64	67	385	0.2	384	385	12.4	82.3
2025-10-31T11:26	10	63	1.4	61	66	385	0.3	384	385	12.3	82.9
2025-10-31T11:27	10	60	0.4	60	61	384	0.3	383	385	12.3	82.7
2025-10-31T11:28	10	60	0.5	59	61	384	0.3	383	385	12.3	82.6
2025-10-31T11:29	10	63	1.5	61	66	385	0.4	384	386	12.4	82.6
2025-10-31T11:30	10	66	0.3	65	66	386	0.4	385	387	12.5	82.7
2025-10-31T11:31	10	66	1.3	65	68	386	0.3	386	387	12.6	83.2
2025-10-31T11:32	10	69	0.2	68	69	386	0.2	385	386	12.5	82.5
2025-10-31T11:33	10	67	1.0	65	69	387	0.3	386	387	12.6	82.7
2025-10-31T11:34	10	62	0.9	61	65	386	0.4	385	387	12.6	81.9
2025-10-31T11:35	10	65	0.7	63	66	385	0.2	385	386	12.5	81.1
2025-10-31T11:36	10	65	0.4	65	66	386	0.3	385	386	12.5	81.6
2025-10-31T11:37	10	64	0.5	64	65	386	0.3	386	387	12.7	82.6
2025-10-31T11:38	10	63	0.3	63	64	385	0.6	384	387	12.8	82.8
2025-10-31T11:39	10	62	0.4	61	63	385	0.5	384	386	12.6	82.4
2025-10-31T11:40	10	61	0.1	61	61	384	0.3	384	385	12.5	81.8
2025-10-31T11:41	10	62	0.4	61	63	384	0.5	384	385	12.5	82.1
2025-10-31T11:42	10	63	0.2	63	63	385	0.3	385	386	12.5	82.1
2025-10-31T11:43	10	64	0.6	63	65	386	0.3	385	387	12.5	81.7
2025-10-31T11:44	10	70	3.4	65	76	387	0.5	386	388	12.6	81.4
2025-10-31T11:45	10	80	1.5	76	82	389	0.5	388	389	12.7	82.0
2025-10-31T11:46	10	81	0.7	80	82	389	0.3	388	389	12.7	81.7
2025-10-31T11:47	10	82	0.9	81	84	389	0.3	388	389	12.7	81.9
2025-10-31T11:48	10	88	2.2	83	90	389	0.3	388	390	12.6	81.0
2025-10-31T11:49	10	90	0.3	89	90	390	0.7	389	392	12.6	81.4
2025-10-31T11:50	10	93	2.2	89	97	392	0.3	391	393	12.7	81.5
2025-10-31T11:51	10	97	0.8	95	98	393	0.4	393	394	12.8	81.3
2025-10-31T11:52	10	96	0.6	95	98	394	0.4	393	395	12.8	81.3
2025-10-31T11:53	10	98	0.2	97	98	394	0.6	393	395	12.8	81.2
2025-10-31T11:54	10	95	2.4	90	98	393	0.2	392	393	12.7	81.2
2025-10-31T11:55	10	89	0.8	88	90	393	0.2	392	393	12.7	81.6
2025-10-31T11:56	10	89	1.5	86	91	393	0.5	392	394	12.7	81.5
2025-10-31T11:57	10	78	4.5	71	86	392	0.8	391	393	12.7	81.4
2025-10-31T11:58	10	69	1.1	67	71	391	0.5	390	392	12.7	81.4
2025-10-31T11:59	10	66	0.8	65	67	390	0.3	390	391	12.8	82.0
2025-10-31T12:00	10	64	0.5	63	65	390	0.2	390	390	12.9	82.6
2025-10-31T12:01	10	63	0.9	61	64	390	0.3	389	390	12.9	82.9
2025-10-31T12:02	10	60	0.3	60	61	389	0.4	388	390	13.0	83.2
2025-10-31T12:03	10	60	0.2	59	61	389	0.3	388	389	13.1	83.3
2025-10-31T12:04	10	60	0.3	59	60	388	0.7	386	389	13.0	82.9
2025-10-31T12:05	10	59	0.3	59	60	386	0.4	385	387	12.8	82.7
2025-10-31T12:06	10	58	0.6	57	59	386	0.3	385	386	12.8	82.9
2025-10-31T12:07	10	56	0.5	55	56	385	0.3	384	386	12.7	82.2
2025-10-31T12:08	10	54	0.2	54	55	385	0.4	384	386	12.7	83.1
2025-10-31T12:09	10	53	0.6	52	54	384	0.2	384	385	12.7	83.0
2025-10-31T12:10	10	51	0.5	51	52	384	0.2	383	384	12.6	82.9
2025-10-31T12:11	10	50	0.3	50	51	384	0.3	383	384	12.7	83.7
2025-10-31T12:12	10	49	0.4	49	50	383	0.3	383	384	12.7	83.3
2025-10-31T12:13	10	48	0.2	48	49	383	0.2	382	383	12.6	83.4
2025-10-31T12:14	10	48	0.1	48	48	382	0.4	382	383	12.6	83.6
2025-10-31T12:15	10	48	0.2	47	48	384	0.3	383	384	12.7	84.0
2025-10-31T12:16	10	47	0.2	47	47	384	0.2	383	384	12.7	83.9
2025-10-31T12:17	10	47	0.1	47	47	384	0.2	383	384	12.7	83.7
2025-10-31T12:18	10	47	0.2	47	48	384	0.3	383	385	12.8	83.0
2025-10-31T12:19	10	48	0.2	48	49	384	0.2	384	385	12.8	82.9
2025-10-31T12:20	10	49	0.1	48	49	384	0.2	384	385	12.8	83.1
2025-10-31T12:21	10	49	0.2	49	50	384	0.3	384	385	12.8	82.7
2025-10-31T12:22	10	51	0.5	50	51	385	0.3	385	386	12.8	83.0
2025-10-31T12:23	10	52	0.6	51	53	386	0.2	385	386	12.9	82.4
2025-10-31T12:24	10	55	0.9	53	56	386	0.4	385	387	12.9	82.3
2025-10-31T12:25	10	56	0.3	56	57	387	0.3	386	388	12.9	83.2
2025-10-31T12:26	10	56	0.3	56	57	387	0.2	386	387	12.9	83.1
2025-10-31T12:27	10	58	0.2	57	58	387	0.4	386	388	13.1	83.5
2025-10-31T12:28	10	59	0.5	58	59	388	0.2	387	388	13.1	83.5
2025-10-31T12:29	10	60	0.3	59	60	387	0.3	387	388	13.1	82.6
2025-10-31T12:30	10	60	0.2	60	61	386	0.3	386	387	12.9	82.4
2025-10-31T12:31	10	61	0.4	60	62	386	0.3	385	386	12.8	82.3
2025-10-31T12:32	10	62	0.4	61	62	387	0.4	386	387	12.8	82.8
2025-10-31T12:33	10	63	0.9	61	65	387	0.4	386	387	12.9	83.1
2025-10-31T12:34	10	65	0.2	64	66	386	0.3	386	387	12.9	82.2
2025-10-31T12:35	10	72	3.7	66	78	388	0.7	387	389	13.0	82.7
2025-10-31T12:36	10	78	0.4	78	79	390	0.5	389	391	13.2	82.1
2025-10-31T12:37	10	77	0.5	76	78	390	0.2	389	391	13.3	80.7
2025-10-31T12:38	10	77	0.7	76	79	391	0.3	390	391	13.4	81.4
2025-10-31T12:39	10	80	0.7	79	81	391	0.2	391	392	13.5	82.1
2025-10-31T12:40	10	81	3.8	76	86	392	0.4	391	392	13.4	81.6
2025-10-31T12:41	10	82	1.8	80	86	392	0.5	391	392	13.4	82.3
2025-10-31T12:42	10	77	1.3	74	80	390	0.6	389	391	13.2	80.9
2025-10-31T12:43	10	80	1.0	78	81	390	0.2	389	390	13.0	81.7
2025-10-31T12:44	10	81	0.6	80	82	389	0.4	389	390	13.0	81.6
2025-10-31T12:45	10	81	0.8	79	82	389	0.4	389	390	13.0	81.5
2025-10-31T12:46	10	76	1.8	73	79	390	0.2	389	390	13.0	81.6
2025-10-31T12:47	10	77	3.2	73	83	390	0.3	389	391	13.2	82.1
2025-10-31T12:48	10	84	0.8	83	86	391	0.3	390	392	13.3	82.2
2025-10-31T12:49	10	87	0.5	86	88	392	0.3	391	392	13.2	80.7
2025-10-31T12:50	10	88	0.5	87	88	392	0.4	391	393	13.2	81.2
2025-10-31T12:51	10	87	0.4	86	88	393	0.4	392	393	13.3	81.2
2025-10-31T12:52	10	85	1.5	83	87	391	0.4	391	392	13.2	80.4
2025-10-31T12:53	10	81	1.4	79	84	391	0.2	391	392	13.2	80.2
2025-10-31T12:54	10	87	1.0	84	87	393	0.4	392	393	13.4	80.3
2025-10-31T12:55	10	89	1.1	87	90	393	0.4	392	394	13.6	79.4
2025-10-31T12:56	10	89	0.4	89	90	394	0.4	393	394	13.6	80.2
2025-10-31T12:57	10	87	2.1	84	90	392	0.5	392	393	13.4	79.1
2025-10-31T12:58	10	86	1.9	84	89	392	0.4	392	393	13.4	80.1
2025-10-31T12:59	10	89	0.6	88	90	394	0.3	393	394	13.5	82.1
2025-10-31T13:00	10	86	2.2	82	89	394	0.4	393	395	13.7	81.1
2025-10-31T13:01	10	81	0.7	80	83	393	0.9	391	394	13.6	81.3
2025-10-31T13:02	10	81	1.3	79	83	391	0.8	390	392	13.4	81.0
2025-10-31T13:03	10	82	0.7	80	83	391	0.3	390	392	13.3	81.5
2025-10-31T13:04	10	81	1.2	79	83	391	0.4	390	392	13.3	82.0
2025-10-31T13:05	10	79	0.8	78	81	392	0.4	391	393	13.4	82.3
2025-10-31T13:06	10	80	2.7	74	83	392	0.3	392	393	13.5	82.0
2025-10-31T13:07	10	73	0.7	72	74	392	0.3	391	393	13.6	82.0
2025-10-31T13:08	10	72	1.0	69	74	391	0.6	390	393	13.5	81.3
2025-10-31T13:09	10	66	0.8	65	69	389	0.9	388	391	13.4	80.8
2025-10-31T13:10	10	71	2.6	66	74	389	0.8	388	390	13.3	81.1
2025-10-31T13:11	10	70	1.5	67	73	390	0.3	389	390	13.4	81.5
2025-10-31T13:12	10	67	1.3	66	70	389	0.2	389	390	13.4	80.9
2025-10-31T13:13	10	75	3.5	70	82	390	0.6	389	391	13.5	81.2
2025-10-31T13:14	10	84	1.5	82	86	392	0.7	391	393	13.5	80.2
2025-10-31T13:15	10	85	1.5	83	87	393	0.4	392	394	13.6	80.5
2025-10-31T13:16	10	86	1.1	84	87	394	0.2	393	394	13.8	79.5
2025-10-31T13:17	10	92	2.2	87	94	394	0.6	393	395	13.9	79.3
2025-10-31T13:18	10	93	0.4	92	94	395	0.4	394	396	13.9	79.3
2025-10-31T13:19	10	93	0.4	92	94	395	0.5	394	396	13.8	79.1
2025-10-31T13:20	10	91	0.7	89	93	394	0.3	393	394	13.8	78.2
2025-10-31T13:21	10	90	0.7	88	91	395	0.4	394	396	13.8	79.0
2025-10-31T13:22	10	94	1.2	91	95	395	0.2	395	396	13.9	78.8
2025-10-31T13:23	10	95	1.8	92	97	395	0.5	393	396	13.8	79.6
2025-10-31T13:24	10	93	0.9	92	95	394	0.3	393	394	13.7	79.4
2025-10-31T13:25	10	91	2.1	87	93	395	0.2	394	395	13.7	79.3
2025-10-31T13:26	10	88	1.4	86	90	394	0.5	393	395	13.7	79.7
2025-10-31T13:27	10	85	0.3	85	86	393	0.6	392	394	13.6	79.8
2025-10-31T13:28	10	79	3.5	75	84	392	0.2	391	393	13.6	79.8
2025-10-31T13:29	10	81	0.8	79	82	392	0.4	391	393	13.7	80.1
2025-10-31T13:30	10	79	0.7	78	80	391	0.4	390	392	13.6	79.8
2025-10-31T13:31	10	76	2.3	72	79	390	0.3	390	391	13.5	79.2
2025-10-31T13:32	10	81	2.6	75	84	391	0.9	390	393	13.6	79.4
2025-10-31T13:33	10	83	1.0	81	85	392	0.5	391	393	13.7	79.9
2025-10-31T13:34	10	80	0.6	79	81	391	0.4	390	392	13.7	80.0
2025-10-31T13:35	10	83	1.3	81	85	390	0.3	389	390	13.5	79.4
2025-10-31T13:36	10	79	5.9	61	83	390	0.3	389	390	13.5	79.5
2025-10-31T13:37	10	66	3.4	59	70	389	0.4	388	390	13.7	79.8
2025-10-31T13:38	10	71	4.6	65	77	389	0.4	388	389	13.8	80.0
2025-10-31T13:39	10	78	1.1	75	79	390	0.8	389	391	13.7	79.7
2025-10-31T13:40	10	77	1.4	74	79	390	0.4	389	391	13.7	79.2
2025-10-31T13:41	10	75	2.6	70	79	391	0.3	390	391	13.9	80.2
2025-10-31T13:42	10	69	0.7	68	70	390	0.9	388	391	13.9	80.1
2025-10-31T13:43	10	67	1.2	66	70	389	0.3	388	389	13.7	80.0
2025-10-31T13:44	10	68	0.4	67	68	388	0.4	387	388	13.6	79.4
2025-10-31T13:45	10	66	1.6	63	71	387	0.3	387	388	13.5	79.6
2025-10-31T13:46	10	58	1.8	56	63	387	0.6	386	388	13.5	79.8
2025-10-31T13:47	10	58	0.3	57	58	386	0.3	385	387	13.5	79.6
2025-10-31T13:48	10	57	0.7	56	58	386	0.4	385	387	13.5	79.5
2025-10-31T13:49	10	56	0.4	55	57	387	0.4	386	388	13.7	80.0
2025-10-31T13:50	10	56	0.4	55	57	387	0.2	386	387	13.7	79.7
2025-10-31T13:51	10	56	0.2	56	57	387	0.3	386	387	13.8	79.4
2025-10-31T13:52	10	58	0.9	56	59	387	0.3	386	388	13.8	79.9
2025-10-31T13:53	10	58	0.9	57	60	387	0.4	386	388	13.9	80.1
2025-10-31T13:54	10	57	0.3	56	57	387	0.4	386	388	13.8	79.0
2025-10-31T13:55	10	56	0.3	55	57	386	0.2	385	386	13.6	78.7
2025-10-31T13:56	10	55	0.6	54	56	385	0.3	384	386	13.5	79.1
2025-10-31T13:57	10	54	0.3	53	54	385	0.3	384	385	13.5	79.1
2025-10-31T13:58	10	50	1.2	49	53	385	0.3	384	386	13.5	79.5
2025-10-31T13:59	10	49	0.3	48	49	385	0.3	384	385	13.6	79.2
2025-10-31T14:00	10	49	0.1	49	49	385	0.2	385	386	13.7	79.4
2025-10-31T14:01	10	49	0.5	49	50	385	0.3	385	386	13.7	79.3
2025-10-31T14:02	10	50	0.3	50	51	385	0.3	384	385	13.7	79.3
2025-10-31T14:03	10	51	0.2	50	51	384	0.2	384	385	13.7	79.6
2025-10-31T14:04	10	49	0.6	48	50	384	0.3	383	384	13.6	79.3
2025-10-31T14:05	10	47	0.6	46	48	384	0.2	384	385	13.6	80.1
2025-10-31T14:06	10	46	0.5	45	47	384	0.3	383	384	13.7	79.8
2025-10-31T14:07	10	44	0.3	44	45	384	0.4	383	384	13.7	80.1
2025-10-31T14:08	10	45	0.5	44	46	384	0.3	384	385	13.8	80.5
2025-10-31T14:09	10	45	0.4	44	46	383	0.4	382	384	13.7	79.6
2025-10-31T14:10	10	43	0.7	42	44	383	0.2	383	384	13.7	79.8
2025-10-31T14:11	10	42	0.2	41	42	383	0.2	382	383	13.7	79.7
2025-10-31T14:12	10	40	0.6	39	41	382	0.4	381	383	13.6	79.6
2025-10-31T14:13	10	39	0.3	38	39	382	0.3	381	382	13.6	79.5
2025-10-31T14:14	10	37	0.5	36	38	382	0.2	381	382	13.6	79.8
2025-10-31T14:15	10	36	0.3	36	37	381	0.2	381	382	13.7	80.2
2025-10-31T14:16	10	36	0.2	35	36	381	0.3	381	382	13.6	79.8
2025-10-31T14:17	10	35	0.2	35	35	381	0.3	380	382	13.6	80.7
2025-10-31T14:18	10	35	0.1	35	35	380	0.2	380	381	13.6	80.4
2025-10-31T14:19	10	35	0.1	35	35	380	0.2	380	381	13.5	80.4
2025-10-31T14:20	10	35	0.1	34	35	380	0.2	380	381	13.5	81.1
2025-10-31T14:21	10	35	0.2	34	35	380	0.2	380	381	13.6	81.4
2025-10-31T14:22	10	35	0.9	34	41	380	0.3	380	381	13.6	81.3
2025-10-31T14:23	10	35	0.2	34	35	380	0.3	379	381	13.5	80.8
2025-10-31T14:24	10	35	0.4	35	36	380	0.2	380	381	13.5	80.9
2025-10-31T14:25	10	37	0.4	36	38	380	0.3	379	380	13.5	81.1
2025-10-31T14:26	10	37	0.2	37	38	380	0.3	379	380	13.4	80.8
2025-10-31T14:27	10	36	0.3	36	37	380	0.2	379	380	13.4	80.9
2025-10-31T14:28	10	36	0.1	36	36	379	0.2	379	380	13.4	81.0
2025-10-31T14:29	10	36	0.2	36	37	380	0.2	379	380	13.4	81.0
2025-10-31T14:30	10	35	0.5	34	36	379	0.3	379	380	13.4	80.8
2025-10-31T14:31	10	34	0.4	33	34	379	0.3	378	380	13.4	81.2
2025-10-31T14:32	10	32	0.4	32	34	379	0.3	378	379	13.4	80.9
2025-10-31T14:33	10	31	0.4	31	32	379	0.3	378	379	13.4	80.6
2025-10-31T14:34	10	30	0.4	29	31	379	0.3	378	379	13.5	81.3
2025-10-31T14:35	10	29	0.3	28	30	378	0.3	377	379	13.5	81.0
2025-10-31T14:36	10	28	0.3	28	29	378	0.2	378	379	13.5	81.0
2025-10-31T14:37	10	27	0.2	27	28	378	0.3	377	379	13.5	81.1
2025-10-31T14:38	10	27	0.3	26	27	378	0.3	377	378	13.5	81.0
2025-10-31T14:39	10	26	0.3	25	26	377	0.3	377	378	13.5	80.9
2025-10-31T14:40	10	25	0.3	24	25	377	0.2	377	377	13.4	80.9
2025-10-31T14:41	10	24	0.3	23	24	377	0.2	376	377	13.4	81.2
2025-10-31T14:42	10	23	1.1	23	29	376	0.3	376	377	13.4	81.7
2025-10-31T14:43	10	22	0.2	22	23	376	0.2	376	376	13.4	81.8
2025-10-31T14:44	10	22	0.2	21	22	376	0.2	375	376	13.4	81.4
2025-10-31T14:45	10	21	0.2	21	21	375	0.2	375	376	13.4	81.1
2025-10-31T14:46	10	21	0.1	21	21	375	0.2	375	375	13.4	81.5
2025-10-31T14:47	10	20	0.1	20	21	375	0.2	374	375	13.4	81.6
2025-10-31T14:48	10	20	0.1	20	20	375	0.2	374	375	13.4	81.7
2025-10-31T14:49	10	20	0.1	20	20	375	0.2	374	375	13.4	81.3
2025-10-31T14:50	10	20	0.1	19	20	374	0.2	374	375	13.4	82.0
2025-10-31T14:51	10	19	0.1	19	20	374	0.2	374	375	13.4	82.0
2025-10-31T14:52	10	19	0.1	19	19	374	0.2	374	375	13.4	82.2
2025-10-31T14:53	10	19	0.1	18	19	374	0.2	374	375	13.3	82.3
2025-10-31T14:54	10	18	0.2	18	18	374	0.2	373	375	13.3	82.0
2025-10-31T14:55	10	18	0.2	17	18	374	0.2	374	375	13.3	82.2
2025-10-31T14:56	10	17	0.2	17	17	374	0.2	373	374	13.3	82.7
2025-10-31T14:57	10	16	0.2	16	17	374	0.2	373	374	13.3	82.1
2025-10-31T14:58	10	16	0.2	15	16	374	0.2	373	374	13.3	81.8
2025-10-31T14:59	10	15	0.2	15	16	373	0.2	373	374	13.3	82.2
2025-10-31T15:00	10	15	0.2	14	15	373	0.2	373	374	13.3	82.2
2025-10-31T15:01	10	14	0.2	14	14	373	0.2	372	373	13.3	83.3
2025-10-31T15:02	10	14	0.2	13	14	373	0.2	373	373	13.3	82.7
2025-10-31T15:03	10	13	0.1	13	13	373	0.2	372	373	13.3	82.2
2025-10-31T15:04	10	13	0.1	13	13	373	0.2	372	373	13.3	82.4
2025-10-31T15:05	10	13	0.1	12	13	372	0.2	372	373	13.3	82.7
2025-10-31T15:06	10	12	0.1	12	13	373	0.2	372	373	13.3	82.7
2025-10-31T15:07	10	12	0.1	12	13	373	0.3	372	373	13.3	82.6
2025-10-31T15:08	10	12	0.1	12	12	372	0.2	372	373	13.3	82.8
2025-10-31T15:09	10	12	0.1	12	12	372	0.2	372	373	13.3	82.8
2025-10-31T15:10	10	12	0.1	12	12	372	0.2	372	373	13.3	82.6
2025-10-31T15:11	10	12	0.1	12	12	372	0.2	372	373	13.3	83.2
2025-10-31T15:12	10	12	0.1	12	12	372	0.2	372	373	13.3	83.3
2025-10-31T15:13	10	12	0.1	12	12	372	0.2	372	373	13.3	83.3
2025-10-31T15:14	10	12	0.1	11	12	372	0.2	372	373	13.2	82.7
2025-10-31T15:15	10	12	0.1	11	12	372	0.2	372	373	13.3	82.1
2025-10-31T15:16	10	11	0.1	11	12	372	0.3	371	373	13.2	82.3
2025-10-31T15:17	10	11	0.1	11	12	372	0.3	372	373	13.2	82.2
2025-10-31T15:18	10	11	0.1	11	11	372	0.2	372	373	13.2	82.5
2025-10-31T15:19	10	11	0.1	10	11	372	0.3	371	373	13.2	82.2
2025-10-31T15:20	10	10	0.2	10	11	372	0.2	371	372	13.2	82.2
2025-10-31T15:21	10	10	0.1	10	10	372	0.3	371	372	13.2	82.2
2025-10-31T15:22	10	10	0.1	10	10	372	0.2	371	372	13.2	82.3
2025-10-31T15:23	10	10	0.1	9	10	371	0.3	371	372	13.2	82.3
2025-10-31T15:24	10	9	0.1	9	10	371	0.2	371	372	13.2	82.4
2025-10-31T15:25	10	9	0.1	9	9	371	0.2	371	372	13.2	82.4
2025-10-31T15:26	10	9	0.1	9	9	371	0.2	371	372	13.2	82.8
2025-10-31T15:27	10	9	0.1	8	9	371	0.2	370	371	13.2	82.9
2025-10-31T15:28	10	8	0.1	8	9	371	0.2	370	371	13.2	83.3
2025-10-31T15:29	10	8	0.1	8	8	370	0.2	370	371	13.2	83.3
2025-10-31T15:30	10	8	0.1	7	8	370	0.3	370	371	13.1	83.6
2025-10-31T15:31	10	7	0.1	7	8	370	0.3	369	371	13.1	83.9
2025-10-31T15:32	10	7	0.1	7	7	370	0.2	370	371	13.1	84.1
2025-10-31T15:33	10	7	0.1	6	7	371	0.2	370	371	13.0	84.5
2025-10-31T15:34	10	7	0.1	6	7	371	0.3	370	371	13.1	84.1
2025-10-31T15:35	10	6	0.1	6	7	370	0.2	369	371	13.0	84.1
2025-10-31T15:36	10	6	0.1	6	6	370	0.2	369	370	12.8	83.9
2025-10-31T15:37	10	6	0.1	6	6	370	0.2	369	370	12.7	84.1
2025-10-31T15:38	10	6	0.1	6	6	369	0.2	369	370	12.7	84.4
2025-10-31T15:39	10	6	0.1	6	6	369	0.2	369	370	12.7	84.2
2025-10-31T15:40	10	6	0.1	6	6	369	0.2	369	370	12.6	84.4
2025-10-31T15:41	10	6	0.1	6	6	369	0.2	368	370	12.6	84.3
2025-10-31T15:42	10	6	0.1	5	6	369	0.3	368	369	12.6	85.1
2025-10-31T15:43	10	5	0.1	5	6	368	0.1	368	368	12.6	85.8
2025-10-31T15:44	10	5	0.1	5	5	368	0.2	367	368	12.5	85.3
2025-10-31T15:45	10	5	0.1	5	5	368	0.2	367	368	12.5	85.4
2025-10-31T15:46	10	5	0.1	5	5	367	0.2	367	368	12.5	85.7
2025-10-31T15:47	10	5	0.1	4	5	367	0.2	367	368	12.4	85.3
2025-10-31T15:48	10	4	0.1	4	5	367	0.2	366	367	12.4	85.3
2025-10-31T15:49	10	4	0.1	4	5	367	0.2	366	367	12.4	85.5
2025-10-31T15:50	10	4	0.1	4	4	367	0.2	366	367	12.4	85.8
2025-10-31T15:51	10	4	0.1	4	5	367	0.2	366	367	12.4	86.2
2025-10-31T15:52	10	4	0.1	4	5	366	0.2	366	367	12.3	86.4
2025-10-31T15:53	10	4	0.1	4	4	366	0.3	366	367	12.4	85.6
2025-10-31T15:54	10	4	0.1	4	4	366	0.2	366	367	12.3	85.8
2025-10-31T15:55	10	4	0.1	4	4	366	0.2	366	367	12.4	85.2
2025-10-31T15:56	10	4	0.1	4	4	366	0.2	366	367	12.4	85.2
2025-10-31T15:57	10	4	0.2	3	4	366	0.2	365	366	12.3	85.4
2025-10-31T15:58	10	4	0.1	3	4	366	0.2	365	366	12.3	86.1
2025-10-31T15:59	10	4	0.2	3	4	365	0.2	365	366	12.3	86.0
2025-10-31T16:00	10	3	0.2	3	4	365	0.3	364	366	12.3	86.4
2025-10-31T16:01	10	3	0.2	3	4	364	0.3	363	365	12.2	86.6
2025-10-31T16:02	10	3	0.1	3	3	364	0.2	364	365	12.3	86.6
2025-10-31T16:03	10	3	0.1	3	3	364	0.2	363	364	12.2	86.8
2025-10-31T16:04	10	3	0.1	2	3	363	0.3	363	364	12.2	86.9
2025-10-31T16:05	10	2	0.2	2	3	363	0.2	362	363	12.2	86.8
2025-10-31T16:06	10	2	0.1	2	3	362	0.2	362	363	12.1	87.3
2025-10-31T16:07	10	2	0.1	2	2	362	0.3	361	362	12.1	87.3
2025-10-31T16:08	10	2	0.1	2	2	361	0.3	361	362	12.1	87.4
2025-10-31T16:09	10	2	0.1	1	2	360	0.3	360	361	12.1	87.7
2025-10-31T16:10	10	1	0.1	1	2	360	0.2	359	360	12.0	87.9
2025-10-31T16:11	10	1	0.1	1	1	359	0.3	358	359	12.0	87.9
2025-10-31T16:12	10	1	0.1	1	1	358	0.2	357	358	12.0	87.9
2025-10-31T16:13	10	1	0.1	1	1	357	0.3	357	358	12.0	87.9
2025-10-31T16:14	10	1	0.0	1	1	357	0.2	357	358	12.0	88.0
2025-10-31T16:15	10	1	0.0	1	1	357	0.3	356	358	12.0	88.1
2025-10-31T16:16	10	1	0.1	1	1	357	0.2	356	357	11.9	88.3
2025-10-31T16:17	10	1	0.0	1	1	357	0.3	356	357	11.9	88.6
2025-10-31T16:18	10	1	0.1	1	1	357	0.2	356	357	11.9	88.6
2025-10-31T16:19	10	1	0.0	1	1	356	0.3	355	357	11.9	88.6
2025-10-31T16:20	10	1	0.1	1	1	356	0.2	355	356	12.0	88.4
2025-10-31T16:21	10	1	0.0	1	1	356	0.2	356	357	11.9	88.6
2025-10-31T16:22	10	1	0.1	1	1	356	0.2	356	357	11.9	88.7
2025-10-31T16:23	10	1	0.1	0	1	356	0.3	356	357	12.0	88.7
2025-10-31T16:24	10	1	0.1	0	1	356	0.2	356	357	12.0	88.8
2025-10-31T16:25	10	1	0.1	0	1	357	0.2	356	357	11.9	89.1
2025-10-31T16:26	10	1	0.1	0	1	356	0.2	356	357	11.9	89.1
2025-10-31T16:27	10	1	0.1	0	1	356	0.2	356	356	11.9	89.0
2025-10-31T16:28	10	1	0.1	0	1	356	0.2	356	357	11.9	89.2
2025-10-31T16:29	10	0	0.1	0	1	356	0.2	356	357	11.9	89.4
2025-10-31T16:30	10	0	0.1	0	1	357	0.3	356	357	11.8	89.3
2025-10-31T16:31	10	0	0.1	0	1	357	0.3	356	357	11.8	89.2
2025-10-31T16:32	10	0	0.1	0	1	357	0.3	356	357	11.8	89.3
2025-10-31T16:33	10	0	0.1	0	1	357	0.2	356	357	11.8	89.6
2025-10-31T16:34	10	0	0.1	0	1	357	0.2	356	357	11.7	89.6
2025-10-31T16:35	10	0	0.1	0	1	357	0.2	356	357	11.8	89.5
2025-10-31T16:36	10	0	0.1	0	1	357	0.2	357	358	11.8	89.4
2025-10-31T16:37	10	0	0.1	0	1	357	0.2	357	358	11.8	89.3
2025-10-31T16:38	10	0	0.1	0	1	357	0.2	357	358	11.8	89.3
2025-10-31T16:39	10	0	0.1	0	0	357	0.2	357	357	11.7	89.5
2025-10-31T16:40	10	0	0.1	0	1	357	0.3	356	357	11.6	89.9
2025-10-31T16:41	10	0	0.1	0	1	357	0.3	356	357	11.6	89.8
2025-10-31T16:42	10	0	0.1	0	1	356	0.2	356	357	11.6	90.0
2025-10-31T16:43	10	0	0.1	0	1	356	0.2	356	357	11.6	89.9
2025-10-31T16:44	10	0	0.1	0	1	356	0.3	356	357	11.7	89.7
2025-10-31T16:45	10	0	0.1	0	1	356	0.2	356	357	11.7	89.3
2025-10-31T16:46	10	0	0.1	0	1	356	0.3	355	357	11.8	88.9
2025-10-31T16:47	10	0	0.1	0	1	356	0.2	355	356	11.8	88.7
2025-10-31T16:48	10	0	0.1	0	1	356	0.3	355	356	11.8	88.6
2025-10-31T16:49	10	0	0.1	0	1	356	0.2	356	357	11.8	88.6
2025-10-31T16:50	10	0	0.1	0	1	356	0.2	356	357	11.8	88.6
2025-10-31T16:51	10	0	0.1	0	1	356	0.2	356	357	11.8	88.7
2025-10-31T16:52	10	0	0.1	0	1	357	0.2	356	357	11.7	89.1
2025-10-31T16:53	10	0	0.1	0	1	357	0.2	356	357	11.6	89.7
2025-10-31T16:54	10	0	0.1	0	1	357	0.2	356	357	11.5	90.3
2025-10-31T16:55	10	0	0.1	0	1	357	0.2	356	357	11.4	90.8
2025-10-31T16:56	10	0	0.1	0	0	357	0.2	356	357	11.3	91.2
2025-10-31T16:57	10	0	0.1	0	1	356	0.2	356	357	11.3	91.6
2025-10-31T16:58	10	0	0.1	0	1	357	0.2	356	357	11.2	92.0
2025-10-31T16:59	10	0	0.1	0	1	357	0.2	356	357	11.2	92.3
2025-10-31T17:00	10	0	0.1	0	1	356	0.2	356	357	11.2	92.2
2025-10-31T17:01	10	0	0.1	0	1	356	0.2	356	357	11.1	92.5
2025-10-31T17:02	10	0	0.1	0	1	357	0.3	356	357	11.1	92.7
2025-10-31T17:03	10	0	0.1	0	0	357	0.2	356	357	11.1	92.7
2025-10-31T17:04	10	0	0.1	0	0	357	0.2	356	357	11.1	92.8
2025-10-31T17:05	10	0	0.1	0	0	356	0.2	356	357	11.1	92.7
2025-10-31T17:06	10	0	0.1	0	1	357	0.2	356	357	11.1	92.7
2025-10-31T17:07	10	0	0.1	0	0	357	0.3	356	357	11.1	92.7
2025-10-31T17:08	10	0	0.1	0	1	357	0.2	356	357	11.1	92.8
2025-10-31T17:09	10	0	0.1	0	1	357	0.2	357	358	11.1	92.8
2025-10-31T17:10	10	0	0.1	0	1	357	0.2	357	358	11.1	92.7
2025-10-31T17:11	10	0	0.1	0	1	357	0.2	357	357	11.2	92.5
2025-10-31T17:12	10	0	0.1	0	1	357	0.2	356	357	11.2	92.3
2025-10-31T17:13	10	0	0.1	0	1	357	0.2	356	357	11.2	92.3
2025-10-31T17:14	10	0	0.0	0	1	357	0.2	356	357	11.2	92.4
2025-10-31T17:15	10	0	0.1	0	1	357	0.3	356	357	11.2	92.6
2025-10-31T17:16	10	0	0.1	0	1	357	0.2	357	358	11.1	92.7
2025-10-31T17:17	10	0	0.1	0	1	358	0.3	357	358	11.2	92.5
2025-10-31T17:18	10	0	0.1	0	1	358	0.2	357	358	11.2	92.5
2025-10-31T17:19	10	0	0.1	0	1	357	0.2	357	358	11.2	92.7
2025-10-31T17:20	10	0	0.1	0	1	358	0.2	357	358	11.1	93.0
2025-10-31T17:21	10	0	0.1	0	1	357	0.2	357	358	11.1	93.0
2025-10-31T17:22	10	0	0.1	0	1	357	0.2	357	357	11.1	93.2
2025-10-31T17:23	10	0	0.1	0	1	357	0.2	356	357	11.0	93.4
2025-10-31T17:24	10	0	0.1	0	1	356	0.2	356	357	11.0	93.5
2025-10-31T17:25	10	0	0.1	0	1	357	0.2	356	357	11.0	93.8
2025-10-31T17:26	10	0	0.1	0	0	357	0.2	356	357	11.0	93.8
2025-10-31T17:27	10	0	0.1	0	1	357	0.2	356	358	11.1	93.6
2025-10-31T17:28	10	0	0.1	0	0	357	0.2	357	357	11.1	93.5
2025-10-31T17:29	10	0	0.1	0	1	357	0.2	356	358	11.1	93.0
2025-10-31T17:30	10	0	0.1	0	1	357	0.3	356	358	11.2	92.6
2025-10-31T17:31	10	0	0.1	0	1	357	0.2	357	358	11.2	92.4
2025-10-31T17:32	10	0	0.1	0	1	357	0.2	357	358	11.2	92.4
2025-10-31T17:33	10	0	0.1	0	1	358	0.2	357	358	11.2	92.8
2025-10-31T17:34	10	0	0.1	0	1	357	0.2	357	358	11.2	92.9
2025-10-31T17:35	10	0	0.0	0	1	357	0.2	356	358	11.1	93.0
2025-10-31T17:36	10	0	0.1	0	1	357	0.2	356	357	11.1	93.1
2025-10-31T17:37	10	0	0.1	0	1	356	0.3	355	357	11.1	93.2
2025-10-31T17:38	10	0	0.0	0	1	356	0.2	355	356	11.1	93.2
2025-10-31T17:39	10	0	0.1	0	1	356	0.2	355	356	11.1	93.4
2025-10-31T17:40	10	0	0.1	0	1	356	0.2	355	356	11.0	93.6
2025-10-31T17:41	10	0	0.1	0	1	355	0.2	355	356	11.0	93.6
2025-10-31T17:42	10	0	0.1	0	1	355	0.2	355	356	11.1	93.7
2025-10-31T17:43	10	0	0.1	0	1	355	0.2	355	355	11.0	93.8
2025-10-31T17:44	10	0	0.1	0	1	355	0.2	354	355	11.0	93.8
2025-10-31T17:45	10	0	0.1	0	1	355	0.3	354	355	11.1	93.6
2025-10-31T17:46	10	0	0.1	0	1	355	0.3	354	356	11.1	93.3
2025-10-31T17:47	10	0	0.1	0	1	355	0.2	354	355	11.1	93.2
2025-10-31T17:48	10	0	0.1	0	1	355	0.3	355	356	11.1	93.3
2025-10-31T17:49	10	0	0.1	0	1	356	0.2	355	356	11.0	93.6
2025-10-31T17:50	10	0	0.1	0	1	356	0.3	355	357	11.0	93.8
2025-10-31T17:51	10	0	0.1	0	1	356	0.3	355	356	11.0	94.0
2025-10-31T17:52	10	0	0.1	0	1	356	0.2	355	356	11.0	94.0
2025-10-31T17:53	10	0	0.1	0	1	355	0.2	355	356	11.0	93.9
2025-10-31T17:54	10	0	0.1	0	1	356	0.2	355	356	10.9	94.3
2025-10-31T17:55	10	0	0.1	0	1	356	0.3	355	357	10.9	94.8
2025-10-31T17:56	10	0	0.1	0	1	356	0.3	355	357	10.9	95.0
2025-10-31T17:57	10	0	0.1	0	1	356	0.3	355	356	10.9	95.0
2025-10-31T17:58	10	0	0.1	0	1	356	0.2	355	356	10.9	94.8
2025-10-31T17:59	10	0	0.1	0	1	355	0.3	354	356	10.9	94.9
2025-10-31T18:00	10	0	0.1	0	1	355	0.2	355	356	10.9	94.6
2025-10-31T18:01	10	0	0.1	0	1	355	0.2	354	355	10.9	94.6
2025-10-31T18:02	10	0	0.1	0	1	355	0.2	355	356	10.9	94.6
2025-10-31T18:03	10	0	0.1	0	1	356	0.3	355	356	10.9	94.8
2025-10-31T18:04	10	0	0.1	0	1	356	0.3	355	357	11.0	94.7
2025-10-31T18:05	10	0	0.2	0	1	357	0.2	356	357	11.0	94.6
2025-10-31T18:06	10	0	0.1	0	1	357	0.3	356	357	11.0	94.2
2025-10-31T18:07	10	0	0.1	0	1	357	0.3	356	358	11.1	93.9
2025-10-31T18:08	10	0	0.1	0	1	357	0.2	356	358	11.0	94.1
2025-10-31T18:09	10	0	0.2	0	1	358	0.2	357	358	11.0	94.3
2025-10-31T18:10	10	0	0.1	0	1	358	0.2	357	359	11.0	94.2
2025-10-31T18:11	10	0	0.1	0	1	358	0.3	357	358	11.0	94.1
2025-10-31T18:12	10	0	0.2	0	1	358	0.2	357	358	11.0	93.9
2025-10-31T18:13	10	0	0.2	0	1	358	0.2	357	359	11.0	93.9
2025-10-31T18:14	10	0	0.1	0	1	358	0.3	357	359	10.9	94.2
2025-10-31T18:15	10	0	0.1	0	1	358	0.3	357	359	10.8	94.6
2025-10-31T18:16	10	0	0.2	0	1	358	0.2	357	358	10.7	94.8
2025-10-31T18:17	10	0	0.1	0	1	357	0.2	357	358	10.8	94.8
2025-10-31T18:18	10	0	0.1	0	1	357	0.3	356	357	10.8	95.0
2025-10-31T18:19	10	0	0.1	0	1	356	0.3	356	357	10.8	95.1
2025-10-31T18:20	10	0	0.1	0	1	356	0.2	355	357	10.9	94.9
2025-10-31T18:21	10	0	0.1	0	1	355	0.3	354	356	10.9	94.9
2025-10-31T18:22	10	0	0.1	0	1	354	0.4	353	355	10.8	95.0
2025-10-31T18:23	10	0	0.2	0	1	354	0.3	353	354	10.8	95.2
2025-10-31T18:24	10	0	0.1	0	1	353	0.3	352	354	10.9	95.1
2025-10-31T18:25	10	0	0.2	0	1	352	0.2	352	353	10.9	94.8
2025-10-31T18:26	10	0	0.1	0	1	352	0.4	351	353	11.0	94.5
2025-10-31T18:27	10	0	0.2	0	1	351	0.3	350	351	11.0	94.3
2025-10-31T18:28	10	0	0.1	0	1	351	0.2	351	352	11.0	94.2
2025-10-31T18:29	10	0	0.1	0	1	352	0.3	351	352	11.0	94.1
2025-10-31T18:30	10	0	0.1	0	1	352	0.3	352	353	11.0	94.1
2025-10-31T18:31	10	0	0.1	0	1	352	0.3	352	353	11.0	94.2
2025-10-31T18:32	10	0	0.1	0	1	351	0.3	351	352	10.9	94.4
2025-10-31T18:33	10	0	0.1	0	1	351	0.3	350	352	10.9	94.6
2025-10-31T18:34	10	0	0.1	0	1	351	0.2	350	351	10.9	94.8
2025-10-31T18:35	10	0	0.1	0	1	351	0.4	350	352	10.9	94.8
2025-10-31T18:36	10	0	0.1	0	1	350	0.3	349	351	10.9	91.6
2025-10-31T18:37	10	0	0.1	0	1	350	0.2	349	350	10.9	94.8
2025-10-31T18:38	10	0	0.1	0	1	350	0.3	349	351	10.9	93.2
2025-10-31T18:39	10	0	0.1	0	1	350	0.3	350	351	10.9	94.8
2025-10-31T18:40	10	0	0.1	0	0	351	0.2	350	351	10.9	94.8
2025-10-31T18:41	10	0	0.1	0	0	351	0.2	350	351	10.9	94.8
2025-10-31T18:42	10	0	0.1	0	0	350	0.2	350	351	11.0	93.2
2025-10-31T18:43	10	0	0.1	0	0	350	0.2	350	351	11.0	93.4
2025-10-31T18:44	10	0	0.1	0	0	351	0.3	350	351	11.0	93.6
2025-10-31T18:45	10	0	0.1	0	0	351	0.2	351	352	11.0	93.8
2025-10-31T18:46	10	0	0.0	0	0	352	0.2	351	352	10.9	94.1
2025-10-31T18:47	10	0	0.1	0	0	352	0.2	351	352	10.9	94.0
2025-10-31T18:48	10	0	0.1	0	0	351	0.3	351	352	10.8	94.4
2025-10-31T18:49	10	0	0.1	0	0	351	0.3	350	352	10.8	94.3
2025-10-31T18:50	10	0	0.1	0	0	351	0.3	351	352	10.9	94.1
2025-10-31T18:51	10	0	0.1	0	0	351	0.2	351	352	11.0	93.5
2025-10-31T18:52	10	0	0.1	0	0	351	0.2	351	352	11.0	93.4
2025-10-31T18:53	10	0	0.0	0	0	351	0.2	351	352	11.0	93.3
2025-10-31T18:54	10	0	0.1	0	1	351	0.3	351	352	10.9	93.3
2025-10-31T18:55	10	0	0.1	0	1	351	0.3	350	352	10.9	93.2
2025-10-31T18:56	10	0	0.1	0	0	351	0.2	350	351	11.0	93.0
2025-10-31T18:57	10	0	0.1	0	1	351	0.3	350	351	11.1	92.8
2025-10-31T18:58	10	0	0.1	0	0	351	0.3	351	352	11.1	92.8
2025-10-31T18:59	10	0	0.1	0	0	352	0.3	351	352	11.1	92.9
2025-10-31T19:00	10	0	0.0	0	0	352	0.3	351	352	11.1	92.9
2025-10-31T19:01	10	0	0.1	0	1	352	0.3	351	352	11.0	93.3
2025-10-31T19:02	10	0	0.1	0	1	351	0.4	350	352	11.0	93.5
2025-10-31T19:03	10	0	0.1	0	1	350	0.3	349	351	10.9	93.5
2025-10-31T19:04	10	0	0.1	0	1	350	0.3	350	351	10.8	93.9
2025-10-31T19:05	10	0	0.1	0	0	350	0.2	350	351	10.9	94.0
2025-10-31T19:06	10	0	0.1	0	0	350	0.3	349	351	10.9	93.8
2025-10-31T19:07	10	0	0.1	0	0	350	0.3	349	351	11.1	93.2
2025-10-31T19:08	10	0	0.1	0	1	349	0.6	348	350	11.0	93.3
2025-10-31T19:09	10	0	0.1	0	1	349	0.2	348	349	10.8	93.9
2025-10-31T19:10	10	0	0.1	0	0	349	0.4	349	350	10.8	94.0
2025-10-31T19:11	10	0	0.1	0	0	349	0.2	349	350	10.9	93.9
2025-10-31T19:12	10	0	0.1	0	0	349	0.3	348	350	11.0	93.7
2025-10-31T19:13	10	0	0.1	0	1	348	0.3	348	349	11.0	93.3
2025-10-31T19:14	10	0	0.1	0	1	348	0.2	348	349	11.1	92.8
2025-10-31T19:15	10	0	0.1	0	1	348	0.3	348	349	11.2	92.4
2025-10-31T19:16	10	0	0.1	0	1	348	0.2	348	349	11.1	92.5
2025-10-31T19:17	10	0	0.1	0	1	349	0.3	348	349	11.0	92.8
2025-10-31T19:18	10	0	0.1	0	1	349	0.2	348	349	10.9	93.2
2025-10-31T19:19	10	0	0.1	0	1	348	0.2	348	349	10.7	93.6
2025-10-31T19:20	10	0	0.1	0	0	348	0.3	348	349	10.6	94.1
2025-10-31T19:21	10	0	0.0	0	0	348	0.2	348	348	10.4	94.5
2025-10-31T19:22	10	0	0.1	0	0	348	0.2	347	348	10.2	95.1
2025-10-31T19:23	10	0	0.1	0	0	349	0.5	348	350	10.0	95.7
2025-10-31T19:24	10	0	0.1	0	0	349	0.3	349	350	10.0	96.1
2025-10-31T19:25	10	0	0.1	0	0	349	0.3	349	350	10.0	96.8
2025-10-31T19:26	10	0	0.1	0	0	349	0.2	349	350	10.1	96.9
2025-10-31T19:27	10	0	0.1	0	0	349	0.2	349	350	10.1	96.9
2025-10-31T19:28	10	0	0.1	0	0	350	0.4	349	350	10.0	96.7
2025-10-31T19:29	10	0	0.1	0	0	351	0.6	349	352	10.1	96.9
2025-10-31T19:30	10	0	0.1	0	0	353	0.5	352	354	10.2	96.7
2025-10-31T19:31	10	0	0.1	0	0	354	0.3	353	355	10.3	96.2
2025-10-31T19:32	10	0	0.1	0	0	354	0.3	354	355	10.4	95.8
2025-10-31T19:33	10	0	0.1	0	0	355	0.4	354	356	10.5	95.7
2025-10-31T19:34	10	0	0.1	0	0	355	0.3	354	356	10.5	95.7
2025-10-31T19:35	10	0	0.1	0	0	354	0.3	353	354	10.3	95.9
2025-10-31T19:36	10	0	0.1	0	0	353	0.3	353	354	10.2	96.2
2025-10-31T19:37	10	0	0.1	0	0	353	0.2	352	353	10.1	96.3
2025-10-31T19:38	10	0	0.1	0	0	353	0.3	352	354	10.2	96.4
2025-10-31T19:39	10	0	0.1	0	0	354	0.4	353	354	10.3	96.3
2025-10-31T19:40	10	0	0.1	0	0	354	0.3	353	354	10.3	96.4
2025-10-31T19:41	10	0	0.1	0	0	354	0.2	353	354	10.3	96.2
2025-10-31T19:42	10	0	0.1	0	0	354	0.3	353	354	10.5	95.8
2025-10-31T19:43	10	0	0.1	0	1	354	0.3	353	355	10.4	95.4
2025-10-31T19:44	10	0	0.1	0	1	354	0.2	354	355	10.4	95.3
2025-10-31T19:45	10	0	0.1	0	1	354	0.3	354	355	10.3	95.4
2025-10-31T19:46	10	0	0.1	0	1	354	0.3	354	355	10.2	95.8
2025-10-31T19:47	10	0	0.1	0	0	355	0.2	354	355	10.3	95.8
2025-10-31T19:48	10	0	0.1	0	0	355	0.3	354	355	10.4	95.8
2025-10-31T19:49	10	0	0.1	0	1	355	0.2	354	356	10.5	95.7
2025-10-31T19:50	10	0	0.1	0	0	355	0.2	355	356	10.5	95.5
2025-10-31T19:51	10	0	0.1	0	1	356	0.3	355	357	10.6	95.4
2025-10-31T19:52	10	0	0.1	0	0	356	0.2	355	357	10.6	95.3
2025-10-31T19:53	10	0	0.1	0	0	356	0.3	355	356	10.6	95.3
2025-10-31T19:54	10	0	0.1	0	1	356	0.3	355	356	10.6	95.1
2025-10-31T19:55	10	0	0.1	0	1	356	0.2	355	356	10.6	95.1
2025-10-31T19:56	10	0	0.1	0	0	356	0.2	355	356	10.6	95.1
2025-10-31T19:57	10	0	0.1	0	1	356	0.2	355	356	10.6	95.1
2025-10-31T19:58	10	0	0.1	0	1	355	0.3	355	356	10.5	95.2
2025-10-31T19:59	10	0	0.1	0	1	356	0.2	355	356	10.5	95.4
2025-10-31T20:00	10	0	0.1	0	0	356	0.2	355	356	10.5	95.3
2025-10-31T20:01	10	0	0.1	0	0	356	0.2	355	356	10.5	95.4
2025-10-31T20:02	10	0	0.1	0	0	356	0.2	356	356	10.5	95.5
2025-10-31T20:03	10	0	0.1	0	0	356	0.2	355	356	10.4	95.7
2025-10-31T20:04	10	0	0.1	0	0	355	0.2	355	356	10.5	95.5
2025-10-31T20:05	10	0	0.1	0	0	355	0.2	355	356	10.4	95.8
2025-10-31T20:06	10	0	0.1	0	0	355	0.3	354	356	10.4	95.6
2025-10-31T20:07	10	0	0.1	0	0	355	0.2	354	355	10.5	95.4
2025-10-31T20:08	10	0	0.1	0	1	355	0.3	354	355	10.5	95.5
2025-10-31T20:09	10	0	0.1	0	0	355	0.3	354	355	10.5	95.6
2025-10-31T20:10	10	0	0.1	0	1	355	0.3	354	356	10.5	95.5
2025-10-31T20:11	10	0	0.1	0	0	355	0.3	354	355	10.5	95.3
2025-10-31T20:12	10	0	0.1	0	1	355	0.3	354	355	10.4	95.5
2025-10-31T20:13	10	0	0.1	0	1	355	0.2	354	355	10.4	95.6
2025-10-31T20:14	10	0	0.1	0	0	354	0.3	354	355	10.4	95.7
2025-10-31T20:15	10	0	0.1	0	1	354	0.3	353	355	10.4	95.8
2025-10-31T20:16	10	0	0.1	0	0	354	0.3	353	354	10.4	95.9
2025-10-31T20:17	10	0	0.1	0	0	353	0.3	353	354	10.4	95.8
2025-10-31T20:18	10	0	0.1	0	1	353	0.3	352	353	10.4	95.5
2025-10-31T20:19	10	0	0.1	0	1	352	0.3	352	353	10.4	95.5
2025-10-31T20:20	10	0	0.1	0	1	353	0.3	352	353	10.4	95.1
2025-10-31T20:21	10	0	0.1	0	0	354	0.4	353	355	10.4	94.8
2025-10-31T20:22	10	0	0.1	0	0	354	0.2	354	355	10.4	94.7
2025-10-31T20:23	10	0	0.1	0	0	354	0.3	354	355	10.4	94.5
2025-10-31T20:24	10	0	0.1	0	0	354	0.2	353	354	10.3	94.7
2025-10-31T20:25	10	0	0.1	0	0	354	0.2	353	354	10.3	94.8
2025-10-31T20:26	10	0	0.1	0	0	353	0.2	353	354	10.3	94.7
2025-10-31T20:27	10	0	0.1	0	0	353	0.3	352	354	10.3	94.7
2025-10-31T20:28	10	0	0.1	0	0	353	0.3	352	353	10.3	94.6
2025-10-31T20:29	10	0	0.1	0	0	352	0.3	352	353	10.3	94.7
2025-10-31T20:30	10	0	0.1	0	0	352	0.2	352	352	10.3	94.8
2025-10-31T20:31	10	0	0.1	0	0	351	0.4	351	352	10.3	95.0
2025-10-31T20:32	10	0	0.1	0	0	351	0.3	350	352	10.2	95.2
2025-10-31T20:33	10	0	0.1	0	0	350	0.3	350	351	10.2	95.4
2025-10-31T20:34	10	0	0.1	0	1	349	0.2	349	350	10.1	95.6
2025-10-31T20:35	10	0	0.1	0	1	349	0.2	349	350	10.1	95.7
2025-10-31T20:36	10	0	0.1	0	0	349	0.2	348	349	10.1	95.7
2025-10-31T20:37	10	0	0.1	0	0	349	0.2	348	349	10.1	95.8
2025-10-31T20:38	10	0	0.1	0	0	349	0.2	348	350	10.1	95.9
2025-10-31T20:39	10	0	0.1	0	0	349	0.2	348	349	10.1	95.9
2025-10-31T20:40	10	0	0.1	0	0	348	0.3	348	349	10.2	95.9
2025-10-31T20:41	10	0	0.1	0	0	348	0.2	348	348	10.2	95.8
2025-10-31T20:42	10	0	0.1	0	0	348	0.3	348	349	10.1	96.0
2025-10-31T20:43	10	0	0.1	0	0	349	0.3	348	349	10.2	95.9
2025-10-31T20:44	10	0	0.1	0	0	349	0.3	348	349	10.2	95.9
2025-10-31T20:45	10	0	0.1	0	0	350	0.4	349	351	10.3	95.7
2025-10-31T20:46	10	0	0.1	0	0	351	0.4	350	351	10.3	95.7
2025-10-31T20:47	10	0	0.1	0	0	351	0.2	351	352	10.3	95.6
2025-10-31T20:48	10	0	0.1	0	0	352	0.2	351	352	10.2	95.7
2025-10-31T20:49	10	0	0.1	0	1	352	0.3	351	352	10.1	95.8
2025-10-31T20:50	10	0	0.1	0	0	353	0.4	352	353	10.1	95.8
2025-10-31T20:51	10	0	0.1	0	0	353	0.3	352	354	10.1	95.9
2025-10-31T20:52	10	0	0.1	0	0	354	0.3	353	355	10.1	95.8
2025-10-31T20:53	10	0	0.1	0	0	354	0.3	354	355	10.1	95.8
2025-10-31T20:54	10	0	0.1	0	1	355	0.3	354	355	10.1	95.8
2025-10-31T20:55	10	0	0.1	0	1	354	0.2	354	355	10.1	95.8
2025-10-31T20:56	10	0	0.1	0	1	354	0.2	354	355	10.1	95.9
2025-10-31T20:57	10	0	0.1	0	1	354	0.3	353	354	10.1	95.8
2025-10-31T20:58	10	0	0.1	0	1	353	0.2	353	354	10.1	95.8
2025-10-31T20:59	10	0	0.1	0	1	353	0.2	353	354	10.2	95.8
2025-10-31T21:00	10	0	0.1	0	1	353	0.2	353	354	10.3	95.8
2025-10-31T21:01	10	0	0.1	0	1	353	0.2	353	354	10.2	95.8
2025-10-31T21:02	10	0	0.1	0	1	354	0.3	353	354	10.2	95.7
2025-10-31T21:03	10	0	0.1	0	1	354	0.2	354	355	10.3	95.2
2025-10-31T21:04	10	0	0.1	0	0	355	0.3	354	355	10.3	95.1
2025-10-31T21:05	10	0	0.1	0	0	355	0.3	354	356	10.4	95.1
2025-10-31T21:06	10	0	0.1	0	0	355	0.2	355	356	10.3	95.2
2025-10-31T21:07	10	0	0.1	0	0	356	0.3	355	356	10.4	95.4
2025-10-31T21:08	10	0	0.1	0	0	356	0.3	355	357	10.4	95.2
2025-10-31T21:09	10	0	0.1	0	0	356	0.3	355	357	10.6	94.7
2025-10-31T21:10	10	0	0.1	0	0	355	0.3	355	356	10.3	94.8
2025-10-31T21:11	10	0	0.1	0	0	355	0.2	355	356	10.2	95.1
2025-10-31T21:12	10	0	0.1	0	0	355	0.2	354	355	10.2	95.4
2025-10-31T21:13	10	0	0.1	0	0	355	0.2	355	356	10.2	95.6
2025-10-31T21:14	10	0	0.1	0	0	355	0.3	354	356	10.3	95.7
2025-10-31T21:15	10	0	0.1	0	0	355	0.2	354	355	10.2	95.8
2025-10-31T21:16	10	0	0.1	0	0	355	0.3	354	355	10.1	96.1
2025-10-31T21:17	10	0	0.1	0	0	354	0.3	353	354	10.1	95.9
2025-10-31T21:18	10	0	0.1	0	0	354	0.2	353	354	9.8	96.2
2025-10-31T21:19	10	0	0.1	0	0	353	0.3	353	354	9.8	96.2
2025-10-31T21:20	10	0	0.1	0	0	353	0.2	352	354	9.8	96.3
2025-10-31T21:21	10	0	0.1	0	0	353	0.3	352	353	9.8	96.4
2025-10-31T21:22	10	0	0.1	0	0	353	0.3	352	353	9.7	96.7
2025-10-31T21:23	10	0	0.1	0	0	352	0.2	351	352	9.6	96.9
2025-10-31T21:24	10	0	0.1	0	0	352	0.3	351	352	9.6	97.0
2025-10-31T21:25	10	0	0.1	0	0	351	0.2	351	352	9.5	97.4
2025-10-31T21:26	10	0	0.1	0	0	351	0.2	350	351	9.6	97.4
2025-10-31T21:27	10	0	0.1	0	0	351	0.3	350	351	9.6	97.4
2025-10-31T21:28	10	0	0.1	0	0	350	0.3	350	351	9.6	97.4
2025-10-31T21:29	10	0	0.1	0	0	350	0.2	349	350	9.6	97.3
2025-10-31T21:30	10	0	0.1	0	0	349	0.3	349	350	9.5	97.4
2025-10-31T21:31	10	0	0.1	0	0	349	0.2	349	349	9.5	97.9
2025-10-31T21:32	10	0	0.1	0	0	349	0.2	348	349	9.4	98.3
2025-10-31T21:33	10	0	0.1	0	0	349	0.2	348	349	9.5	97.9
2025-10-31T21:34	10	0	0.1	0	0	348	0.2	348	349	9.5	97.8
2025-10-31T21:35	10	0	0.1	0	0	348	0.3	348	349	9.5	97.8
2025-10-31T21:36	10	0	0.1	0	0	348	0.4	347	349	9.6	97.9
2025-10-31T21:37	10	0	0.1	0	0	347	0.3	347	348	9.6	97.9
2025-10-31T21:38	10	0	0.1	0	0	347	0.2	347	348	9.6	97.4
2025-10-31T21:39	10	0	0.1	0	0	347	0.2	346	348	9.5	97.3
2025-10-31T21:40	10	0	0.1	0	0	348	0.5	347	349	9.5	97.3
2025-10-31T21:41	10	0	0.1	0	0	349	0.4	348	350	9.7	97.5
2025-10-31T21:42	10	0	0.1	0	0	350	0.3	349	350	9.6	97.8
2025-10-31T21:43	10	0	0.1	0	0	350	0.2	349	350	9.5	97.7
2025-10-31T21:44	10	0	0.1	0	0	350	0.2	350	351	9.4	98.0
2025-10-31T21:45	10	0	0.1	0	0	350	0.2	350	351	9.4	98.3
2025-10-31T21:46	10	0	0.1	0	0	350	0.2	349	350	9.4	98.4
2025-10-31T21:47	10	0	0.1	0	0	350	0.2	349	350	9.3	98.5
2025-10-31T21:48	10	0	0.1	0	0	349	0.2	348	349	9.3	98.8
2025-10-31T21:49	10	0	0.1	0	0	349	0.2	348	349	9.3	98.9
2025-10-31T21:50	10	0	0.1	0	0	348	0.2	348	349	9.3	98.8
2025-10-31T21:51	10	0	0.1	0	0	348	0.3	348	349	9.3	98.7
2025-10-31T21:52	10	0	0.1	0	0	349	0.3	348	349	9.3	98.7
2025-10-31T21:53	10	0	0.1	0	0	349	0.3	348	349	9.3	98.8
2025-10-31T21:54	10	0	0.1	0	0	349	0.3	348	350	9.3	98.8
2025-10-31T21:55	10	0	0.1	0	0	349	0.1	348	349	9.3	99.1
2025-10-31T21:56	10	0	0.1	0	0	349	0.2	348	349	9.3	99.4
2025-10-31T21:57	10	0	0.1	0	0	349	0.2	348	349	9.3	99.3
2025-10-31T21:58	10	0	0.1	0	0	349	0.3	348	349	9.3	99.3
2025-10-31T21:59	10	0	0.1	0	0	349	0.2	348	349	9.3	99.3
2025-10-31T22:00	10	0	0.1	0	0	349	0.3	348	349	9.3	99.2
2025-10-31T22:01	10	0	0.1	0	0	348	0.2	348	349	9.1	99.5
2025-10-31T22:02	10	0	0.1	0	0	348	0.3	348	349	9.1	99.3
2025-10-31T22:03	10	0	0.1	0	0	348	0.4	347	349	9.2	99.3
2025-10-31T22:04	10	0	0.1	0	0	349	0.3	348	349	9.3	99.2
2025-10-31T22:05	10	0	0.1	0	0	349	0.3	349	350	9.5	99.0
2025-10-31T22:06	10	0	0.1	0	0	349	0.2	349	350	9.5	98.5
2025-10-31T22:07	10	0	0.1	0	0	350	0.3	349	351	9.6	98.1
2025-10-31T22:08	10	0	0.1	0	0	351	0.3	350	351	9.7	97.8
2025-10-31T22:09	10	0	0.1	0	0	352	0.3	351	352	9.7	97.6
2025-10-31T22:10	10	0	0.1	0	1	352	0.3	351	352	9.7	97.7
2025-10-31T22:11	10	0	0.1	0	0	352	0.2	352	353	9.7	97.5
2025-10-31T22:12	10	0	0.1	0	0	352	0.2	352	353	9.6	97.5
2025-10-31T22:13	10	0	0.1	0	0	352	0.3	351	353	9.6	97.6
2025-10-31T22:14	10	0	0.1	0	0	352	0.2	351	352	9.5	97.6
2025-10-31T22:15	10	0	0.1	0	0	352	0.3	352	353	9.6	97.2
2025-10-31T22:16	10	0	0.1	0	0	352	0.3	352	353	9.8	97.2
2025-10-31T22:17	10	0	0.1	0	0	353	0.2	352	353	9.9	96.9
2025-10-31T22:18	10	0	0.1	0	0	353	0.2	353	354	9.9	96.6
2025-10-31T22:19	10	0	0.1	0	1	353	0.3	352	353	9.9	96.4
2025-10-31T22:20	10	0	0.1	0	1	353	0.3	352	353	9.9	96.3
2025-10-31T22:21	10	0	0.1	0	0	353	0.3	352	353	9.8	96.7
2025-10-31T22:22	10	0	0.1	0	0	353	0.2	352	353	9.9	96.6
2025-10-31T22:23	10	0	0.0	0	0	353	0.3	352	354	9.9	96.5
2025-10-31T22:24	10	0	0.1	0	0	353	0.3	352	353	9.9	96.6
2025-10-31T22:25	10	0	0.1	0	0	352	0.3	352	353	9.5	97.2
2025-10-31T22:26	10	0	0.1	0	0	352	0.2	352	353	9.4	97.6
2025-10-31T22:27	10	0	0.1	0	0	352	0.2	352	353	9.4	97.9
2025-10-31T22:28	10	0	0.1	0	0	352	0.2	352	353	9.5	98.2
2025-10-31T22:29	10	0	0.1	0	0	352	0.2	352	353	9.5	98.3
2025-10-31T22:30	10	0	0.1	0	0	352	0.3	352	353	9.6	98.1
2025-10-31T22:31	10	0	0.1	0	0	352	0.2	352	353	9.6	98.0
2025-10-31T22:32	10	0	0.1	0	0	353	0.2	352	353	9.6	97.6
2025-10-31T22:33	10	0	0.1	0	0	352	0.3	351	353	9.8	96.9
2025-10-31T22:34	10	0	0.1	0	0	352	0.2	352	353	9.7	96.9
2025-10-31T22:35	10	0	0.1	0	0	351	0.3	351	352	9.4	97.4
2025-10-31T22:36	10	0	0.1	0	0	351	0.2	351	352	9.3	97.8
2025-10-31T22:37	10	0	0.0	0	0	351	0.2	350	351	9.2	98.2
2025-10-31T22:38	10	0	0.1	0	0	351	0.3	350	351	9.1	98.4
2025-10-31T22:39	10	0	0.1	0	0	351	0.2	350	351	9.1	98.5
2025-10-31T22:40	10	0	0.1	0	0	351	0.3	350	352	9.1	98.7
2025-10-31T22:41	10	0	0.0	0	0	351	0.3	350	351	9.1	98.7
2025-10-31T22:42	10	0	0.1	0	0	351	0.3	351	352	9.1	98.9
2025-10-31T22:43	10	0	0.1	0	0	351	0.2	350	351	9.1	98.8
2025-10-31T22:44	10	0	0.1	0	0	351	0.2	350	351	9.0	99.0
2025-10-31T22:45	10	0	0.1	0	0	351	0.3	350	351	8.9	98.9
2025-10-31T22:46	10	0	0.1	0	0	351	0.2	350	351	8.9	98.7
2025-10-31T22:47	10	0	0.1	0	0	351	0.2	350	351	9.0	99.0
2025-10-31T22:48	10	0	0.1	0	0	351	0.3	350	352	9.1	98.9
2025-10-31T22:49	10	0	0.1	0	0	351	0.2	351	351	9.1	99.1
2025-10-31T22:50	10	0	0.1	0	0	351	0.3	351	352	9.2	99.1
2025-10-31T22:51	10	0	0.1	0	0	352	0.3	351	352	9.4	98.8
2025-10-31T22:52	10	0	0.1	0	0	352	0.3	351	352	9.5	98.7
2025-10-31T22:53	10	0	0.0	0	0	352	0.2	352	353	9.6	98.8
2025-10-31T22:54	10	0	0.1	0	0	352	0.3	351	353	9.6	98.6
2025-10-31T22:55	10	0	0.1	0	0	352	0.2	351	352	9.5	98.3
2025-10-31T22:56	10	0	0.1	0	0	352	0.2	351	352	9.3	97.7
2025-10-31T22:57	10	0	0.1	0	0	352	0.2	352	352	9.3	97.7
2025-10-31T22:58	10	0	0.1	0	0	352	0.2	351	352	9.3	97.7
2025-10-31T22:59	10	0	0.1	0	0	352	0.2	351	352	9.3	97.8
2025-10-31T23:00	10	0	0.1	0	0	352	0.3	351	353	9.3	98.0
2025-10-31T23:01	10	0	0.1	0	0	352	0.3	351	352	9.4	98.2
2025-10-31T23:02	10	0	0.1	0	0	351	0.3	351	352	9.4	98.3
2025-10-31T23:03	10	0	0.1	0	0	351	0.2	350	351	9.3	98.4
2025-10-31T23:04	10	0	0.1	0	0	351	0.3	350	351	9.2	98.7
2025-10-31T23:05	10	0	0.1	0	0	350	0.2	350	351	9.2	98.8
2025-10-31T23:06	10	0	0.1	0	0	350	0.2	349	350	9.1	98.7
2025-10-31T23:07	10	0	0.1	0	0	350	0.3	349	351	9.1	98.5
2025-10-31T23:08	10	0	0.1	0	0	350	0.2	349	350	9.1	98.9
2025-10-31T23:09	10	0	0.1	0	0	350	0.2	349	350	9.1	98.7
2025-10-31T23:10	10	0	0.1	0	0	350	0.2	349	350	9.1	98.6
2025-10-31T23:11	10	0	0.1	0	0	350	0.2	349	350	9.2	98.3
2025-10-31T23:12	10	0	0.1	0	0	350	0.2	349	350	9.2	98.2
2025-10-31T23:13	10	0	0.1	0	0	350	0.2	349	350	9.2	98.4
2025-10-31T23:14	10	0	0.1	0	0	350	0.2	349	350	9.2	98.6
2025-10-31T23:15	10	0	0.1	0	0	349	0.2	349	350	9.2	98.7
2025-10-31T23:16	10	0	0.0	0	0	349	0.2	349	350	9.2	98.7
2025-10-31T23:17	10	0	0.0	0	0	349	0.2	349	350	9.2	98.6
2025-10-31T23:18	10	0	0.1	0	0	349	0.2	348	349	9.2	98.7
2025-10-31T23:19	10	0	0.1	0	0	348	0.3	348	349	9.2	98.9
2025-10-31T23:20	10	0	0.1	0	0	348	0.2	348	349	9.2	98.6
2025-10-31T23:21	10	0	0.1	0	0	348	0.2	347	348	9.2	98.7
2025-10-31T23:22	10	0	0.1	0	0	348	0.2	347	348	9.2	98.6
2025-10-31T23:23	10	0	0.1	0	0	348	0.2	347	348	9.3	98.6
2025-10-31T23:24	10	0	0.1	0	0	347	0.3	346	348	9.3	98.8
2025-10-31T23:25	10	0	0.1	0	0	347	0.3	346	347	9.3	98.7
2025-10-31T23:26	10	0	0.1	0	0	346	0.2	346	347	9.2	98.6
2025-10-31T23:27	10	0	0.0	0	0	346	0.2	345	346	9.3	98.6
2025-10-31T23:28	10	0	0.1	0	0	345	0.2	345	346	9.3	98.7
2025-10-31T23:29	10	0	0.1	0	0	345	0.2	344	345	9.3	98.8
2025-10-31T23:30	10	0	0.0	0	0	344	0.2	344	345	9.2	98.9
2025-10-31T23:31	10	0	0.1	0	0	344	0.2	344	345	9.2	98.7
2025-10-31T23:32	10	0	0.1	0	0	345	0.2	344	345	9.3	98.4
2025-10-31T23:33	10	0	0.1	0	0	344	0.2	344	345	9.4	98.4
2025-10-31T23:34	10	0	0.1	0	0	344	0.3	343	345	9.5	98.6
2025-10-31T23:35	10	0	0.1	0	0	344	0.3	343	344	9.5	98.6
2025-10-31T23:36	10	0	0.1	0	0	343	0.3	343	344	9.6	98.5
2025-10-31T23:37	10	0	0.1	0	0	343	0.3	342	344	9.6	98.7
2025-10-31T23:38	10	0	0.0	0	0	343	0.2	342	343	9.5	98.6
2025-10-31T23:39	10	0	0.0	0	0	343	0.2	342	343	9.5	98.7
2025-10-31T23:40	10	0	0.1	0	0	342	0.3	342	343	9.5	98.8
2025-10-31T23:41	10	0	0.1	0	1	342	0.2	341	342	9.4	99.0
2025-10-31T23:42	10	0	0.1	0	0	342	0.2	342	343	9.5	99.1
2025-10-31T23:43	10	0	0.1	0	0	342	0.2	342	343	9.4	98.6
2025-10-31T23:44	10	0	0.1	0	0	342	0.2	342	343	9.4	98.5
2025-10-31T23:45	10	0	0.1	0	0	342	0.2	342	343	9.5	98.8
2025-10-31T23:46	10	0	0.1	0	0	342	0.3	341	343	9.5	98.8
2025-10-31T23:47	10	0	0.1	0	0	342	0.2	341	342	9.4	98.8
2025-10-31T23:48	10	0	0.1	0	0	342	0.2	342	343	9.4	98.9
2025-10-31T23:49	10	0	0.1	0	0	342	0.3	341	342	9.5	98.5
2025-10-31T23:50	10	0	0.0	0	0	341	0.4	340	342	9.5	98.4
2025-10-31T23:51	10	0	0.1	0	0	341	0.2	341	341	9.3	98.5
2025-10-31T23:52	10	0	0.1	0	0	341	0.2	341	342	9.1	98.2
2025-10-31T23:53	10	0	0.1	0	0	342	0.2	341	342	9.1	98.5
2025-10-31T23:54	10	0	0.1	0	0	342	0.2	342	342	9.1	98.9
2025-10-31T23:55	10	0	0.0	0	0	342	0.3	342	343	9.1	98.8
2025-10-31T23:56	10	0	0.1	0	0	343	0.4	342	344	9.3	98.8
2025-10-31T23:57	10	0	0.1	0	0	343	0.2	343	344	9.4	98.9
2025-10-31T23:58	10	0	0.1	0	0	344	0.5	343	345	9.2	98.9
2025-10-31T23:59	10	0	0.1	0	0					9.3	98.7
